<?xml version="1.0" encoding="UTF-8" standalone="no" ?>
<gpx xmlns="http://www.topografix.com/GPX/1/1" xmlns:xsi="http://www.w3.org/2001/XMLSchema-instance" xsi:schemaLocation="http://www.topografix.com/GPX/1/1 http://www.topografix.com/GPX/1/1/gpx.xsd" version="1.1" creator="VisuGPX - https://www.visugpx.com">
  <metadata>
    <name>Boucle dans les Traversièrs au départ de Thones</name>
    <desc><![CDATA[Depuis Thones, belle balade vers le Mont Lachat et le Suet. 
ATTENTION, le parcours est plutôt technique, surtout pour l'accès au Lachat (km 8 à 10 photo 3). Ce passage n'est pas balisé et demande un peu de varape, parfois un peu impressionnante. Donc concentration et prudence. 
Belle balade.]]></desc>
  </metadata>
  <trk>
    <name><![CDATA[nicolas_malabre_2026-08-19_06-48-44]]></name>
    <extensions>
      <line xmlns="http://www.topografix.com/GPX/gpx_style/0/2">
        <color>0000FF</color>
        <opacity>1</opacity>
        <width>4</width>
      </line>
    </extensions>
    <trkseg>
      <trkpt lat="45.88263" lon="6.32901">
        <ele>630</ele>
        <time>2026-08-19T04:48:44.537Z</time>
      </trkpt>
      <trkpt lat="45.88263" lon="6.32901">
        <ele>630</ele>
        <time>2026-08-19T04:48:45.566Z</time>
      </trkpt>
      <trkpt lat="45.88263" lon="6.32901">
        <ele>630</ele>
        <time>2026-08-19T04:48:46.566Z</time>
      </trkpt>
      <trkpt lat="45.88263" lon="6.32901">
        <ele>630</ele>
        <time>2026-08-19T04:48:47.566Z</time>
      </trkpt>
      <trkpt lat="45.88263" lon="6.32901">
        <ele>630</ele>
        <time>2026-08-19T04:48:48.566Z</time>
      </trkpt>
      <trkpt lat="45.88263" lon="6.329">
        <ele>630</ele>
        <time>2026-08-19T04:48:49.566Z</time>
      </trkpt>
      <trkpt lat="45.88262" lon="6.32898">
        <ele>630</ele>
        <time>2026-08-19T04:48:50.566Z</time>
      </trkpt>
      <trkpt lat="45.88261" lon="6.32895">
        <ele>630</ele>
        <time>2026-08-19T04:48:51.566Z</time>
      </trkpt>
      <trkpt lat="45.88259" lon="6.32893">
        <ele>631</ele>
        <time>2026-08-19T04:48:52.566Z</time>
      </trkpt>
      <trkpt lat="45.88258" lon="6.32891">
        <ele>631</ele>
        <time>2026-08-19T04:48:53.566Z</time>
      </trkpt>
      <trkpt lat="45.88257" lon="6.32888">
        <ele>632</ele>
        <time>2026-08-19T04:48:54.566Z</time>
      </trkpt>
      <trkpt lat="45.88256" lon="6.32886">
        <ele>632</ele>
        <time>2026-08-19T04:48:55.566Z</time>
      </trkpt>
      <trkpt lat="45.88255" lon="6.32885">
        <ele>632</ele>
        <time>2026-08-19T04:48:56.566Z</time>
      </trkpt>
      <trkpt lat="45.88254" lon="6.32883">
        <ele>632</ele>
        <time>2026-08-19T04:48:57.566Z</time>
      </trkpt>
      <trkpt lat="45.88253" lon="6.32882">
        <ele>633</ele>
        <time>2026-08-19T04:48:58.566Z</time>
      </trkpt>
      <trkpt lat="45.88253" lon="6.32881">
        <ele>633</ele>
        <time>2026-08-19T04:48:59.566Z</time>
      </trkpt>
      <trkpt lat="45.88252" lon="6.3288">
        <ele>633</ele>
        <time>2026-08-19T04:49:00.566Z</time>
      </trkpt>
      <trkpt lat="45.88252" lon="6.32879">
        <ele>633</ele>
        <time>2026-08-19T04:49:01.566Z</time>
      </trkpt>
      <trkpt lat="45.88251" lon="6.32878">
        <ele>632</ele>
        <time>2026-08-19T04:49:02.566Z</time>
      </trkpt>
      <trkpt lat="45.8825" lon="6.32877">
        <ele>632</ele>
        <time>2026-08-19T04:49:03.566Z</time>
      </trkpt>
      <trkpt lat="45.88249" lon="6.32876">
        <ele>632</ele>
        <time>2026-08-19T04:49:04.566Z</time>
      </trkpt>
      <trkpt lat="45.88248" lon="6.32874">
        <ele>632</ele>
        <time>2026-08-19T04:49:05.566Z</time>
      </trkpt>
      <trkpt lat="45.88247" lon="6.32872">
        <ele>633</ele>
        <time>2026-08-19T04:49:06.566Z</time>
      </trkpt>
      <trkpt lat="45.88247" lon="6.32869">
        <ele>633</ele>
        <time>2026-08-19T04:49:07.566Z</time>
      </trkpt>
      <trkpt lat="45.88246" lon="6.32867">
        <ele>634</ele>
        <time>2026-08-19T04:49:08.566Z</time>
      </trkpt>
      <trkpt lat="45.88246" lon="6.32864">
        <ele>634</ele>
        <time>2026-08-19T04:49:09.566Z</time>
      </trkpt>
      <trkpt lat="45.88245" lon="6.32861">
        <ele>634</ele>
        <time>2026-08-19T04:49:10.566Z</time>
      </trkpt>
      <trkpt lat="45.88245" lon="6.32858">
        <ele>634</ele>
        <time>2026-08-19T04:49:11.566Z</time>
      </trkpt>
      <trkpt lat="45.88244" lon="6.32855">
        <ele>634</ele>
        <time>2026-08-19T04:49:12.566Z</time>
      </trkpt>
      <trkpt lat="45.88244" lon="6.32853">
        <ele>634</ele>
        <time>2026-08-19T04:49:13.566Z</time>
      </trkpt>
      <trkpt lat="45.88243" lon="6.3285">
        <ele>634</ele>
        <time>2026-08-19T04:49:14.566Z</time>
      </trkpt>
      <trkpt lat="45.88243" lon="6.32847">
        <ele>633</ele>
        <time>2026-08-19T04:49:15.566Z</time>
      </trkpt>
      <trkpt lat="45.88242" lon="6.32844">
        <ele>633</ele>
        <time>2026-08-19T04:49:16.566Z</time>
      </trkpt>
      <trkpt lat="45.88242" lon="6.32841">
        <ele>633</ele>
        <time>2026-08-19T04:49:17.566Z</time>
      </trkpt>
      <trkpt lat="45.88242" lon="6.32838">
        <ele>633</ele>
        <time>2026-08-19T04:49:18.566Z</time>
      </trkpt>
      <trkpt lat="45.88241" lon="6.32835">
        <ele>633</ele>
        <time>2026-08-19T04:49:19.566Z</time>
      </trkpt>
      <trkpt lat="45.88241" lon="6.32832">
        <ele>633</ele>
        <time>2026-08-19T04:49:20.566Z</time>
      </trkpt>
      <trkpt lat="45.88241" lon="6.32829">
        <ele>633</ele>
        <time>2026-08-19T04:49:21.566Z</time>
      </trkpt>
      <trkpt lat="45.8824" lon="6.32826">
        <ele>633</ele>
        <time>2026-08-19T04:49:22.566Z</time>
      </trkpt>
      <trkpt lat="45.8824" lon="6.32824">
        <ele>633</ele>
        <time>2026-08-19T04:49:23.566Z</time>
      </trkpt>
      <trkpt lat="45.8824" lon="6.32821">
        <ele>633</ele>
        <time>2026-08-19T04:49:24.566Z</time>
      </trkpt>
      <trkpt lat="45.88239" lon="6.32818">
        <ele>633</ele>
        <time>2026-08-19T04:49:25.566Z</time>
      </trkpt>
      <trkpt lat="45.88239" lon="6.32815">
        <ele>633</ele>
        <time>2026-08-19T04:49:26.566Z</time>
      </trkpt>
      <trkpt lat="45.8824" lon="6.32812">
        <ele>633</ele>
        <time>2026-08-19T04:49:27.566Z</time>
      </trkpt>
      <trkpt lat="45.88241" lon="6.3281">
        <ele>633</ele>
        <time>2026-08-19T04:49:28.566Z</time>
      </trkpt>
      <trkpt lat="45.88242" lon="6.32807">
        <ele>633</ele>
        <time>2026-08-19T04:49:29.566Z</time>
      </trkpt>
      <trkpt lat="45.88243" lon="6.32805">
        <ele>633</ele>
        <time>2026-08-19T04:49:30.566Z</time>
      </trkpt>
      <trkpt lat="45.88245" lon="6.32803">
        <ele>633</ele>
        <time>2026-08-19T04:49:31.566Z</time>
      </trkpt>
      <trkpt lat="45.88246" lon="6.32801">
        <ele>633</ele>
        <time>2026-08-19T04:49:32.566Z</time>
      </trkpt>
      <trkpt lat="45.88247" lon="6.32798">
        <ele>633</ele>
        <time>2026-08-19T04:49:33.566Z</time>
      </trkpt>
      <trkpt lat="45.88249" lon="6.32796">
        <ele>634</ele>
        <time>2026-08-19T04:49:34.566Z</time>
      </trkpt>
      <trkpt lat="45.8825" lon="6.32794">
        <ele>634</ele>
        <time>2026-08-19T04:49:35.566Z</time>
      </trkpt>
      <trkpt lat="45.88251" lon="6.32792">
        <ele>634</ele>
        <time>2026-08-19T04:49:36.566Z</time>
      </trkpt>
      <trkpt lat="45.88253" lon="6.3279">
        <ele>634</ele>
        <time>2026-08-19T04:49:37.566Z</time>
      </trkpt>
      <trkpt lat="45.88255" lon="6.32788">
        <ele>633</ele>
        <time>2026-08-19T04:49:38.566Z</time>
      </trkpt>
      <trkpt lat="45.88256" lon="6.32786">
        <ele>633</ele>
        <time>2026-08-19T04:49:39.566Z</time>
      </trkpt>
      <trkpt lat="45.88258" lon="6.32785">
        <ele>634</ele>
        <time>2026-08-19T04:49:40.566Z</time>
      </trkpt>
      <trkpt lat="45.88259" lon="6.32783">
        <ele>634</ele>
        <time>2026-08-19T04:49:41.566Z</time>
      </trkpt>
      <trkpt lat="45.88261" lon="6.32782">
        <ele>634</ele>
        <time>2026-08-19T04:49:42.566Z</time>
      </trkpt>
      <trkpt lat="45.88262" lon="6.3278">
        <ele>634</ele>
        <time>2026-08-19T04:49:43.566Z</time>
      </trkpt>
      <trkpt lat="45.88264" lon="6.32778">
        <ele>634</ele>
        <time>2026-08-19T04:49:44.566Z</time>
      </trkpt>
      <trkpt lat="45.88266" lon="6.32776">
        <ele>634</ele>
        <time>2026-08-19T04:49:45.566Z</time>
      </trkpt>
      <trkpt lat="45.88267" lon="6.32774">
        <ele>635</ele>
        <time>2026-08-19T04:49:46.566Z</time>
      </trkpt>
      <trkpt lat="45.88269" lon="6.32773">
        <ele>634</ele>
        <time>2026-08-19T04:49:47.566Z</time>
      </trkpt>
      <trkpt lat="45.88271" lon="6.32771">
        <ele>634</ele>
        <time>2026-08-19T04:49:48.566Z</time>
      </trkpt>
      <trkpt lat="45.88272" lon="6.3277">
        <ele>634</ele>
        <time>2026-08-19T04:49:49.566Z</time>
      </trkpt>
      <trkpt lat="45.88274" lon="6.32768">
        <ele>634</ele>
        <time>2026-08-19T04:49:50.566Z</time>
      </trkpt>
      <trkpt lat="45.88276" lon="6.32766">
        <ele>634</ele>
        <time>2026-08-19T04:49:51.566Z</time>
      </trkpt>
      <trkpt lat="45.88277" lon="6.32765">
        <ele>634</ele>
        <time>2026-08-19T04:49:52.566Z</time>
      </trkpt>
      <trkpt lat="45.88279" lon="6.32763">
        <ele>634</ele>
        <time>2026-08-19T04:49:53.566Z</time>
      </trkpt>
      <trkpt lat="45.8828" lon="6.32762">
        <ele>634</ele>
        <time>2026-08-19T04:49:54.566Z</time>
      </trkpt>
      <trkpt lat="45.88282" lon="6.32762">
        <ele>634</ele>
        <time>2026-08-19T04:49:55.566Z</time>
      </trkpt>
      <trkpt lat="45.88284" lon="6.32763">
        <ele>633</ele>
        <time>2026-08-19T04:49:56.566Z</time>
      </trkpt>
      <trkpt lat="45.88285" lon="6.32764">
        <ele>633</ele>
        <time>2026-08-19T04:49:57.566Z</time>
      </trkpt>
      <trkpt lat="45.88287" lon="6.32766">
        <ele>633</ele>
        <time>2026-08-19T04:49:58.566Z</time>
      </trkpt>
      <trkpt lat="45.88289" lon="6.32768">
        <ele>633</ele>
        <time>2026-08-19T04:49:59.566Z</time>
      </trkpt>
      <trkpt lat="45.8829" lon="6.32769">
        <ele>633</ele>
        <time>2026-08-19T04:50:00.566Z</time>
      </trkpt>
      <trkpt lat="45.88291" lon="6.32771">
        <ele>633</ele>
        <time>2026-08-19T04:50:01.566Z</time>
      </trkpt>
      <trkpt lat="45.88292" lon="6.32773">
        <ele>632</ele>
        <time>2026-08-19T04:50:02.566Z</time>
      </trkpt>
      <trkpt lat="45.88294" lon="6.32775">
        <ele>632</ele>
        <time>2026-08-19T04:50:03.566Z</time>
      </trkpt>
      <trkpt lat="45.88295" lon="6.32776">
        <ele>632</ele>
        <time>2026-08-19T04:50:04.566Z</time>
      </trkpt>
      <trkpt lat="45.88296" lon="6.32778">
        <ele>633</ele>
        <time>2026-08-19T04:50:05.566Z</time>
      </trkpt>
      <trkpt lat="45.88297" lon="6.32779">
        <ele>633</ele>
        <time>2026-08-19T04:50:06.566Z</time>
      </trkpt>
      <trkpt lat="45.88298" lon="6.3278">
        <ele>633</ele>
        <time>2026-08-19T04:50:07.566Z</time>
      </trkpt>
      <trkpt lat="45.88298" lon="6.32781">
        <ele>633</ele>
        <time>2026-08-19T04:50:08.566Z</time>
      </trkpt>
      <trkpt lat="45.88299" lon="6.32781">
        <ele>633</ele>
        <time>2026-08-19T04:50:09.566Z</time>
      </trkpt>
      <trkpt lat="45.883" lon="6.32781">
        <ele>634</ele>
        <time>2026-08-19T04:50:10.566Z</time>
      </trkpt>
      <trkpt lat="45.88301" lon="6.32781">
        <ele>634</ele>
        <time>2026-08-19T04:50:11.566Z</time>
      </trkpt>
      <trkpt lat="45.88302" lon="6.32781">
        <ele>634</ele>
        <time>2026-08-19T04:50:12.566Z</time>
      </trkpt>
      <trkpt lat="45.88304" lon="6.32781">
        <ele>634</ele>
        <time>2026-08-19T04:50:13.566Z</time>
      </trkpt>
      <trkpt lat="45.88305" lon="6.32781">
        <ele>634</ele>
        <time>2026-08-19T04:50:14.566Z</time>
      </trkpt>
      <trkpt lat="45.88306" lon="6.32781">
        <ele>634</ele>
        <time>2026-08-19T04:50:15.566Z</time>
      </trkpt>
      <trkpt lat="45.88308" lon="6.3278">
        <ele>634</ele>
        <time>2026-08-19T04:50:16.566Z</time>
      </trkpt>
      <trkpt lat="45.88309" lon="6.32781">
        <ele>634</ele>
        <time>2026-08-19T04:50:17.566Z</time>
      </trkpt>
      <trkpt lat="45.8831" lon="6.32783">
        <ele>634</ele>
        <time>2026-08-19T04:50:18.566Z</time>
      </trkpt>
      <trkpt lat="45.8831" lon="6.32785">
        <ele>634</ele>
        <time>2026-08-19T04:50:19.566Z</time>
      </trkpt>
      <trkpt lat="45.88311" lon="6.32787">
        <ele>634</ele>
        <time>2026-08-19T04:50:20.566Z</time>
      </trkpt>
      <trkpt lat="45.88311" lon="6.3279">
        <ele>634</ele>
        <time>2026-08-19T04:50:21.566Z</time>
      </trkpt>
      <trkpt lat="45.88312" lon="6.32792">
        <ele>634</ele>
        <time>2026-08-19T04:50:22.566Z</time>
      </trkpt>
      <trkpt lat="45.88313" lon="6.32795">
        <ele>634</ele>
        <time>2026-08-19T04:50:23.566Z</time>
      </trkpt>
      <trkpt lat="45.88314" lon="6.32797">
        <ele>634</ele>
        <time>2026-08-19T04:50:24.566Z</time>
      </trkpt>
      <trkpt lat="45.88315" lon="6.32799">
        <ele>634</ele>
        <time>2026-08-19T04:50:25.566Z</time>
      </trkpt>
      <trkpt lat="45.88316" lon="6.32801">
        <ele>634</ele>
        <time>2026-08-19T04:50:26.566Z</time>
      </trkpt>
      <trkpt lat="45.88318" lon="6.32803">
        <ele>634</ele>
        <time>2026-08-19T04:50:27.566Z</time>
      </trkpt>
      <trkpt lat="45.88319" lon="6.32805">
        <ele>634</ele>
        <time>2026-08-19T04:50:28.566Z</time>
      </trkpt>
      <trkpt lat="45.88321" lon="6.32807">
        <ele>634</ele>
        <time>2026-08-19T04:50:29.566Z</time>
      </trkpt>
      <trkpt lat="45.88322" lon="6.32808">
        <ele>634</ele>
        <time>2026-08-19T04:50:30.566Z</time>
      </trkpt>
      <trkpt lat="45.88324" lon="6.3281">
        <ele>634</ele>
        <time>2026-08-19T04:50:31.566Z</time>
      </trkpt>
      <trkpt lat="45.88325" lon="6.32812">
        <ele>634</ele>
        <time>2026-08-19T04:50:32.566Z</time>
      </trkpt>
      <trkpt lat="45.88327" lon="6.32815">
        <ele>634</ele>
        <time>2026-08-19T04:50:33.566Z</time>
      </trkpt>
      <trkpt lat="45.88328" lon="6.32816">
        <ele>634</ele>
        <time>2026-08-19T04:50:34.566Z</time>
      </trkpt>
      <trkpt lat="45.8833" lon="6.32818">
        <ele>634</ele>
        <time>2026-08-19T04:50:35.566Z</time>
      </trkpt>
      <trkpt lat="45.88331" lon="6.3282">
        <ele>634</ele>
        <time>2026-08-19T04:50:36.566Z</time>
      </trkpt>
      <trkpt lat="45.88333" lon="6.32822">
        <ele>634</ele>
        <time>2026-08-19T04:50:37.566Z</time>
      </trkpt>
      <trkpt lat="45.88335" lon="6.32824">
        <ele>634</ele>
        <time>2026-08-19T04:50:38.566Z</time>
      </trkpt>
      <trkpt lat="45.88336" lon="6.32826">
        <ele>634</ele>
        <time>2026-08-19T04:50:39.566Z</time>
      </trkpt>
      <trkpt lat="45.88338" lon="6.32829">
        <ele>634</ele>
        <time>2026-08-19T04:50:40.566Z</time>
      </trkpt>
      <trkpt lat="45.88339" lon="6.32831">
        <ele>634</ele>
        <time>2026-08-19T04:50:41.566Z</time>
      </trkpt>
      <trkpt lat="45.8834" lon="6.32832">
        <ele>634</ele>
        <time>2026-08-19T04:50:42.566Z</time>
      </trkpt>
      <trkpt lat="45.88342" lon="6.32834">
        <ele>634</ele>
        <time>2026-08-19T04:50:43.566Z</time>
      </trkpt>
      <trkpt lat="45.88343" lon="6.32836">
        <ele>634</ele>
        <time>2026-08-19T04:50:44.566Z</time>
      </trkpt>
      <trkpt lat="45.88345" lon="6.32839">
        <ele>634</ele>
        <time>2026-08-19T04:50:45.566Z</time>
      </trkpt>
      <trkpt lat="45.88345" lon="6.3284">
        <ele>634</ele>
        <time>2026-08-19T04:50:46.566Z</time>
      </trkpt>
      <trkpt lat="45.88347" lon="6.32842">
        <ele>634</ele>
        <time>2026-08-19T04:50:47.566Z</time>
      </trkpt>
      <trkpt lat="45.88348" lon="6.32844">
        <ele>633</ele>
        <time>2026-08-19T04:50:48.566Z</time>
      </trkpt>
      <trkpt lat="45.88349" lon="6.32846">
        <ele>633</ele>
        <time>2026-08-19T04:50:49.566Z</time>
      </trkpt>
      <trkpt lat="45.8835" lon="6.32848">
        <ele>633</ele>
        <time>2026-08-19T04:50:50.566Z</time>
      </trkpt>
      <trkpt lat="45.88351" lon="6.32851">
        <ele>633</ele>
        <time>2026-08-19T04:50:51.566Z</time>
      </trkpt>
      <trkpt lat="45.88352" lon="6.32853">
        <ele>634</ele>
        <time>2026-08-19T04:50:52.566Z</time>
      </trkpt>
      <trkpt lat="45.88353" lon="6.32855">
        <ele>634</ele>
        <time>2026-08-19T04:50:53.566Z</time>
      </trkpt>
      <trkpt lat="45.88355" lon="6.32857">
        <ele>634</ele>
        <time>2026-08-19T04:50:54.566Z</time>
      </trkpt>
      <trkpt lat="45.88356" lon="6.32859">
        <ele>634</ele>
        <time>2026-08-19T04:50:55.566Z</time>
      </trkpt>
      <trkpt lat="45.88357" lon="6.32861">
        <ele>634</ele>
        <time>2026-08-19T04:50:56.566Z</time>
      </trkpt>
      <trkpt lat="45.88358" lon="6.32861">
        <ele>634</ele>
        <time>2026-08-19T04:50:57.566Z</time>
      </trkpt>
      <trkpt lat="45.8836" lon="6.32861">
        <ele>634</ele>
        <time>2026-08-19T04:50:58.566Z</time>
      </trkpt>
      <trkpt lat="45.88361" lon="6.3286">
        <ele>634</ele>
        <time>2026-08-19T04:50:59.566Z</time>
      </trkpt>
      <trkpt lat="45.88363" lon="6.32859">
        <ele>634</ele>
        <time>2026-08-19T04:51:00.566Z</time>
      </trkpt>
      <trkpt lat="45.88365" lon="6.32858">
        <ele>634</ele>
        <time>2026-08-19T04:51:01.566Z</time>
      </trkpt>
      <trkpt lat="45.88366" lon="6.32857">
        <ele>635</ele>
        <time>2026-08-19T04:51:02.566Z</time>
      </trkpt>
      <trkpt lat="45.88367" lon="6.32856">
        <ele>635</ele>
        <time>2026-08-19T04:51:03.566Z</time>
      </trkpt>
      <trkpt lat="45.88369" lon="6.32855">
        <ele>635</ele>
        <time>2026-08-19T04:51:04.566Z</time>
      </trkpt>
      <trkpt lat="45.8837" lon="6.32853">
        <ele>636</ele>
        <time>2026-08-19T04:51:05.566Z</time>
      </trkpt>
      <trkpt lat="45.88372" lon="6.32851">
        <ele>636</ele>
        <time>2026-08-19T04:51:06.566Z</time>
      </trkpt>
      <trkpt lat="45.88373" lon="6.3285">
        <ele>637</ele>
        <time>2026-08-19T04:51:07.566Z</time>
      </trkpt>
      <trkpt lat="45.88375" lon="6.32847">
        <ele>637</ele>
        <time>2026-08-19T04:51:08.566Z</time>
      </trkpt>
      <trkpt lat="45.88376" lon="6.32844">
        <ele>638</ele>
        <time>2026-08-19T04:51:09.566Z</time>
      </trkpt>
      <trkpt lat="45.88378" lon="6.32842">
        <ele>639</ele>
        <time>2026-08-19T04:51:10.566Z</time>
      </trkpt>
      <trkpt lat="45.88379" lon="6.3284">
        <ele>639</ele>
        <time>2026-08-19T04:51:11.566Z</time>
      </trkpt>
      <trkpt lat="45.88381" lon="6.32838">
        <ele>639</ele>
        <time>2026-08-19T04:51:12.566Z</time>
      </trkpt>
      <trkpt lat="45.88382" lon="6.32837">
        <ele>639</ele>
        <time>2026-08-19T04:51:13.566Z</time>
      </trkpt>
      <trkpt lat="45.88384" lon="6.32835">
        <ele>639</ele>
        <time>2026-08-19T04:51:14.566Z</time>
      </trkpt>
      <trkpt lat="45.88385" lon="6.32834">
        <ele>639</ele>
        <time>2026-08-19T04:51:15.566Z</time>
      </trkpt>
      <trkpt lat="45.88386" lon="6.32832">
        <ele>639</ele>
        <time>2026-08-19T04:51:16.566Z</time>
      </trkpt>
      <trkpt lat="45.88388" lon="6.3283">
        <ele>639</ele>
        <time>2026-08-19T04:51:17.566Z</time>
      </trkpt>
      <trkpt lat="45.88389" lon="6.32828">
        <ele>640</ele>
        <time>2026-08-19T04:51:18.566Z</time>
      </trkpt>
      <trkpt lat="45.8839" lon="6.32826">
        <ele>640</ele>
        <time>2026-08-19T04:51:19.566Z</time>
      </trkpt>
      <trkpt lat="45.88391" lon="6.32824">
        <ele>640</ele>
        <time>2026-08-19T04:51:20.566Z</time>
      </trkpt>
      <trkpt lat="45.88393" lon="6.32822">
        <ele>641</ele>
        <time>2026-08-19T04:51:21.566Z</time>
      </trkpt>
      <trkpt lat="45.88394" lon="6.3282">
        <ele>641</ele>
        <time>2026-08-19T04:51:22.566Z</time>
      </trkpt>
      <trkpt lat="45.88396" lon="6.32819">
        <ele>641</ele>
        <time>2026-08-19T04:51:23.566Z</time>
      </trkpt>
      <trkpt lat="45.88398" lon="6.32817">
        <ele>640</ele>
        <time>2026-08-19T04:51:24.566Z</time>
      </trkpt>
      <trkpt lat="45.884" lon="6.32817">
        <ele>639</ele>
        <time>2026-08-19T04:51:25.566Z</time>
      </trkpt>
      <trkpt lat="45.88403" lon="6.32818">
        <ele>639</ele>
        <time>2026-08-19T04:51:26.566Z</time>
      </trkpt>
      <trkpt lat="45.88405" lon="6.32819">
        <ele>638</ele>
        <time>2026-08-19T04:51:27.566Z</time>
      </trkpt>
      <trkpt lat="45.88407" lon="6.32821">
        <ele>637</ele>
        <time>2026-08-19T04:51:28.566Z</time>
      </trkpt>
      <trkpt lat="45.88408" lon="6.32823">
        <ele>637</ele>
        <time>2026-08-19T04:51:29.566Z</time>
      </trkpt>
      <trkpt lat="45.88409" lon="6.32825">
        <ele>636</ele>
        <time>2026-08-19T04:51:30.566Z</time>
      </trkpt>
      <trkpt lat="45.88411" lon="6.32827">
        <ele>636</ele>
        <time>2026-08-19T04:51:31.566Z</time>
      </trkpt>
      <trkpt lat="45.88412" lon="6.32829">
        <ele>635</ele>
        <time>2026-08-19T04:51:32.566Z</time>
      </trkpt>
      <trkpt lat="45.88414" lon="6.32831">
        <ele>635</ele>
        <time>2026-08-19T04:51:33.566Z</time>
      </trkpt>
      <trkpt lat="45.88415" lon="6.32833">
        <ele>634</ele>
        <time>2026-08-19T04:51:34.566Z</time>
      </trkpt>
      <trkpt lat="45.88417" lon="6.32836">
        <ele>634</ele>
        <time>2026-08-19T04:51:35.566Z</time>
      </trkpt>
      <trkpt lat="45.88419" lon="6.32838">
        <ele>634</ele>
        <time>2026-08-19T04:51:36.566Z</time>
      </trkpt>
      <trkpt lat="45.8842" lon="6.3284">
        <ele>634</ele>
        <time>2026-08-19T04:51:37.566Z</time>
      </trkpt>
      <trkpt lat="45.88422" lon="6.32843">
        <ele>634</ele>
        <time>2026-08-19T04:51:38.566Z</time>
      </trkpt>
      <trkpt lat="45.88423" lon="6.32845">
        <ele>634</ele>
        <time>2026-08-19T04:51:39.566Z</time>
      </trkpt>
      <trkpt lat="45.88424" lon="6.32847">
        <ele>634</ele>
        <time>2026-08-19T04:51:40.566Z</time>
      </trkpt>
      <trkpt lat="45.88426" lon="6.32849">
        <ele>634</ele>
        <time>2026-08-19T04:51:41.566Z</time>
      </trkpt>
      <trkpt lat="45.88427" lon="6.32852">
        <ele>634</ele>
        <time>2026-08-19T04:51:42.566Z</time>
      </trkpt>
      <trkpt lat="45.88429" lon="6.32853">
        <ele>634</ele>
        <time>2026-08-19T04:51:43.566Z</time>
      </trkpt>
      <trkpt lat="45.8843" lon="6.32855">
        <ele>634</ele>
        <time>2026-08-19T04:51:44.566Z</time>
      </trkpt>
      <trkpt lat="45.88431" lon="6.32857">
        <ele>634</ele>
        <time>2026-08-19T04:51:45.566Z</time>
      </trkpt>
      <trkpt lat="45.88433" lon="6.3286">
        <ele>634</ele>
        <time>2026-08-19T04:51:46.566Z</time>
      </trkpt>
      <trkpt lat="45.88434" lon="6.32862">
        <ele>634</ele>
        <time>2026-08-19T04:51:47.566Z</time>
      </trkpt>
      <trkpt lat="45.88436" lon="6.32864">
        <ele>633</ele>
        <time>2026-08-19T04:51:48.566Z</time>
      </trkpt>
      <trkpt lat="45.88437" lon="6.32866">
        <ele>633</ele>
        <time>2026-08-19T04:51:49.566Z</time>
      </trkpt>
      <trkpt lat="45.88439" lon="6.32869">
        <ele>633</ele>
        <time>2026-08-19T04:51:50.566Z</time>
      </trkpt>
      <trkpt lat="45.88441" lon="6.32871">
        <ele>633</ele>
        <time>2026-08-19T04:51:51.566Z</time>
      </trkpt>
      <trkpt lat="45.88442" lon="6.32872">
        <ele>633</ele>
        <time>2026-08-19T04:51:52.566Z</time>
      </trkpt>
      <trkpt lat="45.88443" lon="6.32875">
        <ele>633</ele>
        <time>2026-08-19T04:51:53.566Z</time>
      </trkpt>
      <trkpt lat="45.88444" lon="6.32877">
        <ele>633</ele>
        <time>2026-08-19T04:51:54.566Z</time>
      </trkpt>
      <trkpt lat="45.88445" lon="6.32879">
        <ele>633</ele>
        <time>2026-08-19T04:51:55.566Z</time>
      </trkpt>
      <trkpt lat="45.88447" lon="6.32881">
        <ele>633</ele>
        <time>2026-08-19T04:51:56.566Z</time>
      </trkpt>
      <trkpt lat="45.88448" lon="6.32883">
        <ele>633</ele>
        <time>2026-08-19T04:51:57.566Z</time>
      </trkpt>
      <trkpt lat="45.88449" lon="6.32885">
        <ele>633</ele>
        <time>2026-08-19T04:51:58.566Z</time>
      </trkpt>
      <trkpt lat="45.8845" lon="6.32887">
        <ele>633</ele>
        <time>2026-08-19T04:51:59.566Z</time>
      </trkpt>
      <trkpt lat="45.88452" lon="6.32889">
        <ele>633</ele>
        <time>2026-08-19T04:52:00.566Z</time>
      </trkpt>
      <trkpt lat="45.88453" lon="6.32891">
        <ele>633</ele>
        <time>2026-08-19T04:52:01.566Z</time>
      </trkpt>
      <trkpt lat="45.88454" lon="6.32892">
        <ele>634</ele>
        <time>2026-08-19T04:52:02.566Z</time>
      </trkpt>
      <trkpt lat="45.88456" lon="6.32894">
        <ele>634</ele>
        <time>2026-08-19T04:52:03.566Z</time>
      </trkpt>
      <trkpt lat="45.88457" lon="6.32896">
        <ele>634</ele>
        <time>2026-08-19T04:52:04.566Z</time>
      </trkpt>
      <trkpt lat="45.88459" lon="6.32898">
        <ele>634</ele>
        <time>2026-08-19T04:52:05.566Z</time>
      </trkpt>
      <trkpt lat="45.8846" lon="6.329">
        <ele>634</ele>
        <time>2026-08-19T04:52:06.566Z</time>
      </trkpt>
      <trkpt lat="45.88462" lon="6.32902">
        <ele>634</ele>
        <time>2026-08-19T04:52:07.566Z</time>
      </trkpt>
      <trkpt lat="45.88464" lon="6.32903">
        <ele>634</ele>
        <time>2026-08-19T04:52:08.566Z</time>
      </trkpt>
      <trkpt lat="45.88465" lon="6.32905">
        <ele>634</ele>
        <time>2026-08-19T04:52:09.566Z</time>
      </trkpt>
      <trkpt lat="45.88467" lon="6.32907">
        <ele>635</ele>
        <time>2026-08-19T04:52:10.566Z</time>
      </trkpt>
      <trkpt lat="45.88469" lon="6.3291">
        <ele>635</ele>
        <time>2026-08-19T04:52:11.566Z</time>
      </trkpt>
      <trkpt lat="45.8847" lon="6.32912">
        <ele>635</ele>
        <time>2026-08-19T04:52:12.566Z</time>
      </trkpt>
      <trkpt lat="45.88471" lon="6.32913">
        <ele>635</ele>
        <time>2026-08-19T04:52:13.566Z</time>
      </trkpt>
      <trkpt lat="45.88473" lon="6.32915">
        <ele>635</ele>
        <time>2026-08-19T04:52:14.566Z</time>
      </trkpt>
      <trkpt lat="45.88474" lon="6.32917">
        <ele>635</ele>
        <time>2026-08-19T04:52:15.566Z</time>
      </trkpt>
      <trkpt lat="45.88475" lon="6.32918">
        <ele>635</ele>
        <time>2026-08-19T04:52:16.566Z</time>
      </trkpt>
      <trkpt lat="45.88477" lon="6.3292">
        <ele>635</ele>
        <time>2026-08-19T04:52:17.566Z</time>
      </trkpt>
      <trkpt lat="45.88479" lon="6.32922">
        <ele>635</ele>
        <time>2026-08-19T04:52:18.566Z</time>
      </trkpt>
      <trkpt lat="45.8848" lon="6.32924">
        <ele>636</ele>
        <time>2026-08-19T04:52:19.566Z</time>
      </trkpt>
      <trkpt lat="45.88481" lon="6.32926">
        <ele>636</ele>
        <time>2026-08-19T04:52:20.566Z</time>
      </trkpt>
      <trkpt lat="45.88483" lon="6.32928">
        <ele>636</ele>
        <time>2026-08-19T04:52:21.566Z</time>
      </trkpt>
      <trkpt lat="45.88484" lon="6.3293">
        <ele>636</ele>
        <time>2026-08-19T04:52:22.566Z</time>
      </trkpt>
      <trkpt lat="45.88485" lon="6.32932">
        <ele>636</ele>
        <time>2026-08-19T04:52:23.566Z</time>
      </trkpt>
      <trkpt lat="45.88487" lon="6.32933">
        <ele>636</ele>
        <time>2026-08-19T04:52:24.566Z</time>
      </trkpt>
      <trkpt lat="45.88488" lon="6.32935">
        <ele>636</ele>
        <time>2026-08-19T04:52:25.566Z</time>
      </trkpt>
      <trkpt lat="45.88489" lon="6.32936">
        <ele>637</ele>
        <time>2026-08-19T04:52:26.566Z</time>
      </trkpt>
      <trkpt lat="45.8849" lon="6.32937">
        <ele>637</ele>
        <time>2026-08-19T04:52:27.566Z</time>
      </trkpt>
      <trkpt lat="45.88492" lon="6.32938">
        <ele>637</ele>
        <time>2026-08-19T04:52:28.566Z</time>
      </trkpt>
      <trkpt lat="45.88493" lon="6.3294">
        <ele>637</ele>
        <time>2026-08-19T04:52:29.566Z</time>
      </trkpt>
      <trkpt lat="45.88495" lon="6.32941">
        <ele>637</ele>
        <time>2026-08-19T04:52:30.566Z</time>
      </trkpt>
      <trkpt lat="45.88496" lon="6.32942">
        <ele>637</ele>
        <time>2026-08-19T04:52:31.566Z</time>
      </trkpt>
      <trkpt lat="45.88497" lon="6.32944">
        <ele>637</ele>
        <time>2026-08-19T04:52:32.566Z</time>
      </trkpt>
      <trkpt lat="45.88499" lon="6.32946">
        <ele>638</ele>
        <time>2026-08-19T04:52:33.566Z</time>
      </trkpt>
      <trkpt lat="45.885" lon="6.32948">
        <ele>638</ele>
        <time>2026-08-19T04:52:34.566Z</time>
      </trkpt>
      <trkpt lat="45.88501" lon="6.3295">
        <ele>638</ele>
        <time>2026-08-19T04:52:35.566Z</time>
      </trkpt>
      <trkpt lat="45.88502" lon="6.32952">
        <ele>637</ele>
        <time>2026-08-19T04:52:36.566Z</time>
      </trkpt>
      <trkpt lat="45.88503" lon="6.32954">
        <ele>637</ele>
        <time>2026-08-19T04:52:37.566Z</time>
      </trkpt>
      <trkpt lat="45.88504" lon="6.32956">
        <ele>637</ele>
        <time>2026-08-19T04:52:38.566Z</time>
      </trkpt>
      <trkpt lat="45.88506" lon="6.32957">
        <ele>637</ele>
        <time>2026-08-19T04:52:39.566Z</time>
      </trkpt>
      <trkpt lat="45.88507" lon="6.32958">
        <ele>637</ele>
        <time>2026-08-19T04:52:40.566Z</time>
      </trkpt>
      <trkpt lat="45.88508" lon="6.3296">
        <ele>637</ele>
        <time>2026-08-19T04:52:41.566Z</time>
      </trkpt>
      <trkpt lat="45.8851" lon="6.32961">
        <ele>637</ele>
        <time>2026-08-19T04:52:42.566Z</time>
      </trkpt>
      <trkpt lat="45.88511" lon="6.32963">
        <ele>637</ele>
        <time>2026-08-19T04:52:43.566Z</time>
      </trkpt>
      <trkpt lat="45.88513" lon="6.32965">
        <ele>637</ele>
        <time>2026-08-19T04:52:44.566Z</time>
      </trkpt>
      <trkpt lat="45.88514" lon="6.32966">
        <ele>637</ele>
        <time>2026-08-19T04:52:45.566Z</time>
      </trkpt>
      <trkpt lat="45.88516" lon="6.32968">
        <ele>637</ele>
        <time>2026-08-19T04:52:46.566Z</time>
      </trkpt>
      <trkpt lat="45.88517" lon="6.32969">
        <ele>637</ele>
        <time>2026-08-19T04:52:47.566Z</time>
      </trkpt>
      <trkpt lat="45.88518" lon="6.3297">
        <ele>637</ele>
        <time>2026-08-19T04:52:48.566Z</time>
      </trkpt>
      <trkpt lat="45.8852" lon="6.32971">
        <ele>637</ele>
        <time>2026-08-19T04:52:49.566Z</time>
      </trkpt>
      <trkpt lat="45.88521" lon="6.32973">
        <ele>637</ele>
        <time>2026-08-19T04:52:50.566Z</time>
      </trkpt>
      <trkpt lat="45.88522" lon="6.32974">
        <ele>637</ele>
        <time>2026-08-19T04:52:51.566Z</time>
      </trkpt>
      <trkpt lat="45.88523" lon="6.32976">
        <ele>637</ele>
        <time>2026-08-19T04:52:52.566Z</time>
      </trkpt>
      <trkpt lat="45.88525" lon="6.32978">
        <ele>637</ele>
        <time>2026-08-19T04:52:53.566Z</time>
      </trkpt>
      <trkpt lat="45.88526" lon="6.3298">
        <ele>637</ele>
        <time>2026-08-19T04:52:54.566Z</time>
      </trkpt>
      <trkpt lat="45.88527" lon="6.32981">
        <ele>637</ele>
        <time>2026-08-19T04:52:55.566Z</time>
      </trkpt>
      <trkpt lat="45.88529" lon="6.32983">
        <ele>637</ele>
        <time>2026-08-19T04:52:56.566Z</time>
      </trkpt>
      <trkpt lat="45.8853" lon="6.32983">
        <ele>638</ele>
        <time>2026-08-19T04:52:57.566Z</time>
      </trkpt>
      <trkpt lat="45.88531" lon="6.32984">
        <ele>638</ele>
        <time>2026-08-19T04:52:58.566Z</time>
      </trkpt>
      <trkpt lat="45.88533" lon="6.32985">
        <ele>638</ele>
        <time>2026-08-19T04:52:59.566Z</time>
      </trkpt>
      <trkpt lat="45.88534" lon="6.32986">
        <ele>639</ele>
        <time>2026-08-19T04:53:00.566Z</time>
      </trkpt>
      <trkpt lat="45.88536" lon="6.32987">
        <ele>639</ele>
        <time>2026-08-19T04:53:01.566Z</time>
      </trkpt>
      <trkpt lat="45.88537" lon="6.32988">
        <ele>639</ele>
        <time>2026-08-19T04:53:02.566Z</time>
      </trkpt>
      <trkpt lat="45.88539" lon="6.32989">
        <ele>639</ele>
        <time>2026-08-19T04:53:03.566Z</time>
      </trkpt>
      <trkpt lat="45.8854" lon="6.32991">
        <ele>639</ele>
        <time>2026-08-19T04:53:04.566Z</time>
      </trkpt>
      <trkpt lat="45.88542" lon="6.32992">
        <ele>639</ele>
        <time>2026-08-19T04:53:05.566Z</time>
      </trkpt>
      <trkpt lat="45.88543" lon="6.32994">
        <ele>639</ele>
        <time>2026-08-19T04:53:06.566Z</time>
      </trkpt>
      <trkpt lat="45.88545" lon="6.32995">
        <ele>639</ele>
        <time>2026-08-19T04:53:07.566Z</time>
      </trkpt>
      <trkpt lat="45.88546" lon="6.32997">
        <ele>640</ele>
        <time>2026-08-19T04:53:08.566Z</time>
      </trkpt>
      <trkpt lat="45.88548" lon="6.32999">
        <ele>640</ele>
        <time>2026-08-19T04:53:09.566Z</time>
      </trkpt>
      <trkpt lat="45.88549" lon="6.33">
        <ele>640</ele>
        <time>2026-08-19T04:53:10.566Z</time>
      </trkpt>
      <trkpt lat="45.88551" lon="6.33002">
        <ele>640</ele>
        <time>2026-08-19T04:53:11.566Z</time>
      </trkpt>
      <trkpt lat="45.88552" lon="6.33003">
        <ele>640</ele>
        <time>2026-08-19T04:53:12.566Z</time>
      </trkpt>
      <trkpt lat="45.88554" lon="6.33005">
        <ele>640</ele>
        <time>2026-08-19T04:53:13.566Z</time>
      </trkpt>
      <trkpt lat="45.88556" lon="6.33007">
        <ele>640</ele>
        <time>2026-08-19T04:53:14.566Z</time>
      </trkpt>
      <trkpt lat="45.88557" lon="6.33008">
        <ele>640</ele>
        <time>2026-08-19T04:53:15.566Z</time>
      </trkpt>
      <trkpt lat="45.88558" lon="6.3301">
        <ele>640</ele>
        <time>2026-08-19T04:53:16.566Z</time>
      </trkpt>
      <trkpt lat="45.8856" lon="6.33011">
        <ele>640</ele>
        <time>2026-08-19T04:53:17.566Z</time>
      </trkpt>
      <trkpt lat="45.88561" lon="6.33013">
        <ele>640</ele>
        <time>2026-08-19T04:53:18.566Z</time>
      </trkpt>
      <trkpt lat="45.88562" lon="6.33014">
        <ele>641</ele>
        <time>2026-08-19T04:53:19.566Z</time>
      </trkpt>
      <trkpt lat="45.88564" lon="6.33016">
        <ele>641</ele>
        <time>2026-08-19T04:53:20.566Z</time>
      </trkpt>
      <trkpt lat="45.88565" lon="6.33017">
        <ele>641</ele>
        <time>2026-08-19T04:53:21.566Z</time>
      </trkpt>
      <trkpt lat="45.88567" lon="6.33018">
        <ele>641</ele>
        <time>2026-08-19T04:53:22.566Z</time>
      </trkpt>
      <trkpt lat="45.88568" lon="6.3302">
        <ele>641</ele>
        <time>2026-08-19T04:53:23.566Z</time>
      </trkpt>
      <trkpt lat="45.88569" lon="6.33022">
        <ele>642</ele>
        <time>2026-08-19T04:53:24.566Z</time>
      </trkpt>
      <trkpt lat="45.8857" lon="6.33023">
        <ele>642</ele>
        <time>2026-08-19T04:53:25.566Z</time>
      </trkpt>
      <trkpt lat="45.88572" lon="6.33025">
        <ele>643</ele>
        <time>2026-08-19T04:53:26.566Z</time>
      </trkpt>
      <trkpt lat="45.88573" lon="6.33026">
        <ele>643</ele>
        <time>2026-08-19T04:53:27.566Z</time>
      </trkpt>
      <trkpt lat="45.88575" lon="6.33027">
        <ele>643</ele>
        <time>2026-08-19T04:53:28.566Z</time>
      </trkpt>
      <trkpt lat="45.88577" lon="6.33029">
        <ele>644</ele>
        <time>2026-08-19T04:53:29.566Z</time>
      </trkpt>
      <trkpt lat="45.88578" lon="6.3303">
        <ele>644</ele>
        <time>2026-08-19T04:53:30.566Z</time>
      </trkpt>
      <trkpt lat="45.88579" lon="6.33032">
        <ele>644</ele>
        <time>2026-08-19T04:53:31.566Z</time>
      </trkpt>
      <trkpt lat="45.88581" lon="6.33033">
        <ele>644</ele>
        <time>2026-08-19T04:53:32.566Z</time>
      </trkpt>
      <trkpt lat="45.88583" lon="6.33034">
        <ele>644</ele>
        <time>2026-08-19T04:53:33.566Z</time>
      </trkpt>
      <trkpt lat="45.88584" lon="6.33035">
        <ele>644</ele>
        <time>2026-08-19T04:53:34.566Z</time>
      </trkpt>
      <trkpt lat="45.88586" lon="6.33037">
        <ele>644</ele>
        <time>2026-08-19T04:53:35.566Z</time>
      </trkpt>
      <trkpt lat="45.88588" lon="6.33038">
        <ele>644</ele>
        <time>2026-08-19T04:53:36.566Z</time>
      </trkpt>
      <trkpt lat="45.8859" lon="6.33039">
        <ele>644</ele>
        <time>2026-08-19T04:53:37.566Z</time>
      </trkpt>
      <trkpt lat="45.88591" lon="6.33041">
        <ele>644</ele>
        <time>2026-08-19T04:53:38.566Z</time>
      </trkpt>
      <trkpt lat="45.88593" lon="6.33042">
        <ele>644</ele>
        <time>2026-08-19T04:53:39.566Z</time>
      </trkpt>
      <trkpt lat="45.88594" lon="6.33043">
        <ele>644</ele>
        <time>2026-08-19T04:53:40.566Z</time>
      </trkpt>
      <trkpt lat="45.88596" lon="6.33044">
        <ele>644</ele>
        <time>2026-08-19T04:53:41.566Z</time>
      </trkpt>
      <trkpt lat="45.88597" lon="6.33045">
        <ele>644</ele>
        <time>2026-08-19T04:53:42.566Z</time>
      </trkpt>
      <trkpt lat="45.88599" lon="6.33047">
        <ele>645</ele>
        <time>2026-08-19T04:53:43.566Z</time>
      </trkpt>
      <trkpt lat="45.886" lon="6.33048">
        <ele>645</ele>
        <time>2026-08-19T04:53:44.566Z</time>
      </trkpt>
      <trkpt lat="45.88602" lon="6.3305">
        <ele>645</ele>
        <time>2026-08-19T04:53:45.566Z</time>
      </trkpt>
      <trkpt lat="45.88603" lon="6.33051">
        <ele>645</ele>
        <time>2026-08-19T04:53:46.566Z</time>
      </trkpt>
      <trkpt lat="45.88605" lon="6.33053">
        <ele>646</ele>
        <time>2026-08-19T04:53:47.566Z</time>
      </trkpt>
      <trkpt lat="45.88607" lon="6.33054">
        <ele>646</ele>
        <time>2026-08-19T04:53:48.566Z</time>
      </trkpt>
      <trkpt lat="45.88609" lon="6.33055">
        <ele>646</ele>
        <time>2026-08-19T04:53:49.566Z</time>
      </trkpt>
      <trkpt lat="45.88611" lon="6.33057">
        <ele>646</ele>
        <time>2026-08-19T04:53:50.566Z</time>
      </trkpt>
      <trkpt lat="45.88612" lon="6.33058">
        <ele>646</ele>
        <time>2026-08-19T04:53:51.566Z</time>
      </trkpt>
      <trkpt lat="45.88614" lon="6.33059">
        <ele>646</ele>
        <time>2026-08-19T04:53:52.566Z</time>
      </trkpt>
      <trkpt lat="45.88615" lon="6.33061">
        <ele>646</ele>
        <time>2026-08-19T04:53:53.566Z</time>
      </trkpt>
      <trkpt lat="45.88617" lon="6.33062">
        <ele>646</ele>
        <time>2026-08-19T04:53:54.566Z</time>
      </trkpt>
      <trkpt lat="45.88619" lon="6.33064">
        <ele>646</ele>
        <time>2026-08-19T04:53:55.566Z</time>
      </trkpt>
      <trkpt lat="45.8862" lon="6.33065">
        <ele>646</ele>
        <time>2026-08-19T04:53:56.566Z</time>
      </trkpt>
      <trkpt lat="45.88622" lon="6.33066">
        <ele>646</ele>
        <time>2026-08-19T04:53:57.566Z</time>
      </trkpt>
      <trkpt lat="45.88624" lon="6.33068">
        <ele>646</ele>
        <time>2026-08-19T04:53:58.566Z</time>
      </trkpt>
      <trkpt lat="45.88625" lon="6.33069">
        <ele>646</ele>
        <time>2026-08-19T04:53:59.566Z</time>
      </trkpt>
      <trkpt lat="45.88627" lon="6.3307">
        <ele>647</ele>
        <time>2026-08-19T04:54:00.566Z</time>
      </trkpt>
      <trkpt lat="45.88629" lon="6.33072">
        <ele>647</ele>
        <time>2026-08-19T04:54:01.566Z</time>
      </trkpt>
      <trkpt lat="45.8863" lon="6.33073">
        <ele>647</ele>
        <time>2026-08-19T04:54:02.566Z</time>
      </trkpt>
      <trkpt lat="45.88632" lon="6.33075">
        <ele>647</ele>
        <time>2026-08-19T04:54:03.566Z</time>
      </trkpt>
      <trkpt lat="45.88634" lon="6.33077">
        <ele>647</ele>
        <time>2026-08-19T04:54:04.566Z</time>
      </trkpt>
      <trkpt lat="45.88636" lon="6.33078">
        <ele>647</ele>
        <time>2026-08-19T04:54:05.566Z</time>
      </trkpt>
      <trkpt lat="45.88637" lon="6.3308">
        <ele>647</ele>
        <time>2026-08-19T04:54:06.566Z</time>
      </trkpt>
      <trkpt lat="45.8864" lon="6.33082">
        <ele>647</ele>
        <time>2026-08-19T04:54:07.566Z</time>
      </trkpt>
      <trkpt lat="45.88642" lon="6.33083">
        <ele>648</ele>
        <time>2026-08-19T04:54:08.566Z</time>
      </trkpt>
      <trkpt lat="45.88644" lon="6.33085">
        <ele>648</ele>
        <time>2026-08-19T04:54:09.566Z</time>
      </trkpt>
      <trkpt lat="45.88645" lon="6.33086">
        <ele>649</ele>
        <time>2026-08-19T04:54:10.566Z</time>
      </trkpt>
      <trkpt lat="45.88648" lon="6.33087">
        <ele>649</ele>
        <time>2026-08-19T04:54:11.566Z</time>
      </trkpt>
      <trkpt lat="45.88649" lon="6.33089">
        <ele>650</ele>
        <time>2026-08-19T04:54:12.566Z</time>
      </trkpt>
      <trkpt lat="45.88651" lon="6.3309">
        <ele>651</ele>
        <time>2026-08-19T04:54:13.566Z</time>
      </trkpt>
      <trkpt lat="45.88652" lon="6.33092">
        <ele>651</ele>
        <time>2026-08-19T04:54:14.566Z</time>
      </trkpt>
      <trkpt lat="45.88653" lon="6.33093">
        <ele>651</ele>
        <time>2026-08-19T04:54:15.566Z</time>
      </trkpt>
      <trkpt lat="45.88654" lon="6.33095">
        <ele>651</ele>
        <time>2026-08-19T04:54:16.566Z</time>
      </trkpt>
      <trkpt lat="45.88656" lon="6.33096">
        <ele>650</ele>
        <time>2026-08-19T04:54:17.566Z</time>
      </trkpt>
      <trkpt lat="45.88658" lon="6.33097">
        <ele>650</ele>
        <time>2026-08-19T04:54:18.566Z</time>
      </trkpt>
      <trkpt lat="45.8866" lon="6.33099">
        <ele>650</ele>
        <time>2026-08-19T04:54:19.566Z</time>
      </trkpt>
      <trkpt lat="45.88662" lon="6.33101">
        <ele>650</ele>
        <time>2026-08-19T04:54:20.566Z</time>
      </trkpt>
      <trkpt lat="45.88663" lon="6.33102">
        <ele>650</ele>
        <time>2026-08-19T04:54:21.566Z</time>
      </trkpt>
      <trkpt lat="45.88666" lon="6.33104">
        <ele>649</ele>
        <time>2026-08-19T04:54:22.566Z</time>
      </trkpt>
      <trkpt lat="45.88667" lon="6.33105">
        <ele>649</ele>
        <time>2026-08-19T04:54:23.566Z</time>
      </trkpt>
      <trkpt lat="45.88669" lon="6.33107">
        <ele>649</ele>
        <time>2026-08-19T04:54:24.566Z</time>
      </trkpt>
      <trkpt lat="45.8867" lon="6.33109">
        <ele>649</ele>
        <time>2026-08-19T04:54:25.566Z</time>
      </trkpt>
      <trkpt lat="45.88672" lon="6.33111">
        <ele>650</ele>
        <time>2026-08-19T04:54:26.566Z</time>
      </trkpt>
      <trkpt lat="45.88674" lon="6.33113">
        <ele>650</ele>
        <time>2026-08-19T04:54:27.566Z</time>
      </trkpt>
      <trkpt lat="45.88675" lon="6.33114">
        <ele>649</ele>
        <time>2026-08-19T04:54:28.566Z</time>
      </trkpt>
      <trkpt lat="45.88676" lon="6.33116">
        <ele>649</ele>
        <time>2026-08-19T04:54:29.566Z</time>
      </trkpt>
      <trkpt lat="45.88679" lon="6.33118">
        <ele>649</ele>
        <time>2026-08-19T04:54:30.566Z</time>
      </trkpt>
      <trkpt lat="45.8868" lon="6.33119">
        <ele>649</ele>
        <time>2026-08-19T04:54:31.566Z</time>
      </trkpt>
      <trkpt lat="45.88681" lon="6.33121">
        <ele>649</ele>
        <time>2026-08-19T04:54:32.566Z</time>
      </trkpt>
      <trkpt lat="45.88683" lon="6.33123">
        <ele>649</ele>
        <time>2026-08-19T04:54:33.566Z</time>
      </trkpt>
      <trkpt lat="45.88685" lon="6.33124">
        <ele>648</ele>
        <time>2026-08-19T04:54:34.566Z</time>
      </trkpt>
      <trkpt lat="45.88687" lon="6.33126">
        <ele>648</ele>
        <time>2026-08-19T04:54:35.566Z</time>
      </trkpt>
      <trkpt lat="45.88688" lon="6.33127">
        <ele>648</ele>
        <time>2026-08-19T04:54:36.566Z</time>
      </trkpt>
      <trkpt lat="45.88689" lon="6.33128">
        <ele>648</ele>
        <time>2026-08-19T04:54:37.566Z</time>
      </trkpt>
      <trkpt lat="45.88691" lon="6.3313">
        <ele>648</ele>
        <time>2026-08-19T04:54:38.566Z</time>
      </trkpt>
      <trkpt lat="45.88693" lon="6.33132">
        <ele>648</ele>
        <time>2026-08-19T04:54:39.566Z</time>
      </trkpt>
      <trkpt lat="45.88694" lon="6.33133">
        <ele>648</ele>
        <time>2026-08-19T04:54:40.566Z</time>
      </trkpt>
      <trkpt lat="45.88696" lon="6.33135">
        <ele>647</ele>
        <time>2026-08-19T04:54:41.566Z</time>
      </trkpt>
      <trkpt lat="45.88698" lon="6.33136">
        <ele>647</ele>
        <time>2026-08-19T04:54:42.566Z</time>
      </trkpt>
      <trkpt lat="45.88699" lon="6.33138">
        <ele>647</ele>
        <time>2026-08-19T04:54:43.566Z</time>
      </trkpt>
      <trkpt lat="45.88701" lon="6.33139">
        <ele>647</ele>
        <time>2026-08-19T04:54:44.566Z</time>
      </trkpt>
      <trkpt lat="45.88703" lon="6.3314">
        <ele>647</ele>
        <time>2026-08-19T04:54:45.566Z</time>
      </trkpt>
      <trkpt lat="45.88705" lon="6.33142">
        <ele>647</ele>
        <time>2026-08-19T04:54:46.566Z</time>
      </trkpt>
      <trkpt lat="45.88707" lon="6.33144">
        <ele>647</ele>
        <time>2026-08-19T04:54:47.566Z</time>
      </trkpt>
      <trkpt lat="45.88709" lon="6.33145">
        <ele>647</ele>
        <time>2026-08-19T04:54:48.566Z</time>
      </trkpt>
      <trkpt lat="45.88711" lon="6.33147">
        <ele>646</ele>
        <time>2026-08-19T04:54:49.566Z</time>
      </trkpt>
      <trkpt lat="45.88712" lon="6.33148">
        <ele>646</ele>
        <time>2026-08-19T04:54:50.566Z</time>
      </trkpt>
      <trkpt lat="45.88714" lon="6.3315">
        <ele>646</ele>
        <time>2026-08-19T04:54:51.566Z</time>
      </trkpt>
      <trkpt lat="45.88716" lon="6.33151">
        <ele>647</ele>
        <time>2026-08-19T04:54:52.566Z</time>
      </trkpt>
      <trkpt lat="45.88718" lon="6.33153">
        <ele>647</ele>
        <time>2026-08-19T04:54:53.566Z</time>
      </trkpt>
      <trkpt lat="45.8872" lon="6.33154">
        <ele>647</ele>
        <time>2026-08-19T04:54:54.566Z</time>
      </trkpt>
      <trkpt lat="45.88722" lon="6.33156">
        <ele>647</ele>
        <time>2026-08-19T04:54:55.566Z</time>
      </trkpt>
      <trkpt lat="45.88723" lon="6.33157">
        <ele>648</ele>
        <time>2026-08-19T04:54:56.566Z</time>
      </trkpt>
      <trkpt lat="45.88725" lon="6.33158">
        <ele>648</ele>
        <time>2026-08-19T04:54:57.566Z</time>
      </trkpt>
      <trkpt lat="45.88727" lon="6.33159">
        <ele>648</ele>
        <time>2026-08-19T04:54:58.566Z</time>
      </trkpt>
      <trkpt lat="45.88729" lon="6.33161">
        <ele>648</ele>
        <time>2026-08-19T04:54:59.566Z</time>
      </trkpt>
      <trkpt lat="45.88731" lon="6.33162">
        <ele>648</ele>
        <time>2026-08-19T04:55:00.566Z</time>
      </trkpt>
      <trkpt lat="45.88733" lon="6.33164">
        <ele>648</ele>
        <time>2026-08-19T04:55:01.566Z</time>
      </trkpt>
      <trkpt lat="45.88735" lon="6.33165">
        <ele>648</ele>
        <time>2026-08-19T04:55:02.566Z</time>
      </trkpt>
      <trkpt lat="45.88737" lon="6.33167">
        <ele>648</ele>
        <time>2026-08-19T04:55:03.566Z</time>
      </trkpt>
      <trkpt lat="45.88738" lon="6.33168">
        <ele>648</ele>
        <time>2026-08-19T04:55:04.566Z</time>
      </trkpt>
      <trkpt lat="45.8874" lon="6.33169">
        <ele>648</ele>
        <time>2026-08-19T04:55:05.566Z</time>
      </trkpt>
      <trkpt lat="45.88742" lon="6.3317">
        <ele>648</ele>
        <time>2026-08-19T04:55:06.566Z</time>
      </trkpt>
      <trkpt lat="45.88744" lon="6.3317">
        <ele>648</ele>
        <time>2026-08-19T04:55:07.566Z</time>
      </trkpt>
      <trkpt lat="45.88746" lon="6.33171">
        <ele>648</ele>
        <time>2026-08-19T04:55:08.566Z</time>
      </trkpt>
      <trkpt lat="45.88748" lon="6.33171">
        <ele>648</ele>
        <time>2026-08-19T04:55:09.566Z</time>
      </trkpt>
      <trkpt lat="45.8875" lon="6.33171">
        <ele>648</ele>
        <time>2026-08-19T04:55:10.566Z</time>
      </trkpt>
      <trkpt lat="45.88752" lon="6.3317">
        <ele>648</ele>
        <time>2026-08-19T04:55:11.566Z</time>
      </trkpt>
      <trkpt lat="45.88755" lon="6.3317">
        <ele>648</ele>
        <time>2026-08-19T04:55:12.566Z</time>
      </trkpt>
      <trkpt lat="45.88757" lon="6.33169">
        <ele>648</ele>
        <time>2026-08-19T04:55:13.566Z</time>
      </trkpt>
      <trkpt lat="45.88758" lon="6.33168">
        <ele>648</ele>
        <time>2026-08-19T04:55:14.566Z</time>
      </trkpt>
      <trkpt lat="45.8876" lon="6.33167">
        <ele>648</ele>
        <time>2026-08-19T04:55:15.566Z</time>
      </trkpt>
      <trkpt lat="45.88763" lon="6.33166">
        <ele>648</ele>
        <time>2026-08-19T04:55:16.566Z</time>
      </trkpt>
      <trkpt lat="45.88765" lon="6.33165">
        <ele>648</ele>
        <time>2026-08-19T04:55:17.566Z</time>
      </trkpt>
      <trkpt lat="45.88767" lon="6.33165">
        <ele>648</ele>
        <time>2026-08-19T04:55:18.566Z</time>
      </trkpt>
      <trkpt lat="45.88769" lon="6.33166">
        <ele>648</ele>
        <time>2026-08-19T04:55:19.566Z</time>
      </trkpt>
      <trkpt lat="45.88771" lon="6.33166">
        <ele>648</ele>
        <time>2026-08-19T04:55:20.566Z</time>
      </trkpt>
      <trkpt lat="45.88773" lon="6.33168">
        <ele>648</ele>
        <time>2026-08-19T04:55:21.566Z</time>
      </trkpt>
      <trkpt lat="45.88775" lon="6.33169">
        <ele>648</ele>
        <time>2026-08-19T04:55:22.566Z</time>
      </trkpt>
      <trkpt lat="45.88777" lon="6.33171">
        <ele>648</ele>
        <time>2026-08-19T04:55:23.566Z</time>
      </trkpt>
      <trkpt lat="45.88778" lon="6.33172">
        <ele>648</ele>
        <time>2026-08-19T04:55:24.566Z</time>
      </trkpt>
      <trkpt lat="45.8878" lon="6.33173">
        <ele>648</ele>
        <time>2026-08-19T04:55:25.566Z</time>
      </trkpt>
      <trkpt lat="45.88782" lon="6.33174">
        <ele>648</ele>
        <time>2026-08-19T04:55:26.566Z</time>
      </trkpt>
      <trkpt lat="45.88784" lon="6.33176">
        <ele>648</ele>
        <time>2026-08-19T04:55:27.566Z</time>
      </trkpt>
      <trkpt lat="45.88785" lon="6.33176">
        <ele>648</ele>
        <time>2026-08-19T04:55:28.566Z</time>
      </trkpt>
      <trkpt lat="45.88787" lon="6.33177">
        <ele>648</ele>
        <time>2026-08-19T04:55:29.566Z</time>
      </trkpt>
      <trkpt lat="45.88789" lon="6.33178">
        <ele>648</ele>
        <time>2026-08-19T04:55:30.566Z</time>
      </trkpt>
      <trkpt lat="45.88791" lon="6.33179">
        <ele>648</ele>
        <time>2026-08-19T04:55:31.566Z</time>
      </trkpt>
      <trkpt lat="45.88793" lon="6.33181">
        <ele>648</ele>
        <time>2026-08-19T04:55:32.566Z</time>
      </trkpt>
      <trkpt lat="45.88795" lon="6.33182">
        <ele>648</ele>
        <time>2026-08-19T04:55:33.566Z</time>
      </trkpt>
      <trkpt lat="45.88797" lon="6.33184">
        <ele>648</ele>
        <time>2026-08-19T04:55:34.566Z</time>
      </trkpt>
      <trkpt lat="45.88798" lon="6.33185">
        <ele>647</ele>
        <time>2026-08-19T04:55:35.566Z</time>
      </trkpt>
      <trkpt lat="45.888" lon="6.33187">
        <ele>647</ele>
        <time>2026-08-19T04:55:36.566Z</time>
      </trkpt>
      <trkpt lat="45.88802" lon="6.33189">
        <ele>647</ele>
        <time>2026-08-19T04:55:37.566Z</time>
      </trkpt>
      <trkpt lat="45.88804" lon="6.33191">
        <ele>647</ele>
        <time>2026-08-19T04:55:38.566Z</time>
      </trkpt>
      <trkpt lat="45.88805" lon="6.33192">
        <ele>647</ele>
        <time>2026-08-19T04:55:39.566Z</time>
      </trkpt>
      <trkpt lat="45.88807" lon="6.33193">
        <ele>647</ele>
        <time>2026-08-19T04:55:40.566Z</time>
      </trkpt>
      <trkpt lat="45.88809" lon="6.33196">
        <ele>647</ele>
        <time>2026-08-19T04:55:41.566Z</time>
      </trkpt>
      <trkpt lat="45.88811" lon="6.33198">
        <ele>647</ele>
        <time>2026-08-19T04:55:42.566Z</time>
      </trkpt>
      <trkpt lat="45.88813" lon="6.332">
        <ele>647</ele>
        <time>2026-08-19T04:55:43.566Z</time>
      </trkpt>
      <trkpt lat="45.88814" lon="6.33202">
        <ele>648</ele>
        <time>2026-08-19T04:55:44.566Z</time>
      </trkpt>
      <trkpt lat="45.88816" lon="6.33203">
        <ele>648</ele>
        <time>2026-08-19T04:55:45.566Z</time>
      </trkpt>
      <trkpt lat="45.88817" lon="6.33205">
        <ele>648</ele>
        <time>2026-08-19T04:55:46.566Z</time>
      </trkpt>
      <trkpt lat="45.88819" lon="6.33207">
        <ele>648</ele>
        <time>2026-08-19T04:55:47.566Z</time>
      </trkpt>
      <trkpt lat="45.88821" lon="6.33209">
        <ele>648</ele>
        <time>2026-08-19T04:55:48.566Z</time>
      </trkpt>
      <trkpt lat="45.88822" lon="6.33212">
        <ele>649</ele>
        <time>2026-08-19T04:55:49.566Z</time>
      </trkpt>
      <trkpt lat="45.88824" lon="6.33213">
        <ele>649</ele>
        <time>2026-08-19T04:55:50.566Z</time>
      </trkpt>
      <trkpt lat="45.88825" lon="6.33215">
        <ele>649</ele>
        <time>2026-08-19T04:55:51.566Z</time>
      </trkpt>
      <trkpt lat="45.88827" lon="6.33217">
        <ele>649</ele>
        <time>2026-08-19T04:55:52.566Z</time>
      </trkpt>
      <trkpt lat="45.88829" lon="6.33219">
        <ele>650</ele>
        <time>2026-08-19T04:55:53.566Z</time>
      </trkpt>
      <trkpt lat="45.8883" lon="6.33221">
        <ele>650</ele>
        <time>2026-08-19T04:55:54.566Z</time>
      </trkpt>
      <trkpt lat="45.88832" lon="6.33223">
        <ele>651</ele>
        <time>2026-08-19T04:55:55.566Z</time>
      </trkpt>
      <trkpt lat="45.88833" lon="6.33225">
        <ele>651</ele>
        <time>2026-08-19T04:55:56.566Z</time>
      </trkpt>
      <trkpt lat="45.88835" lon="6.33227">
        <ele>651</ele>
        <time>2026-08-19T04:55:57.566Z</time>
      </trkpt>
      <trkpt lat="45.88836" lon="6.33229">
        <ele>651</ele>
        <time>2026-08-19T04:55:58.566Z</time>
      </trkpt>
      <trkpt lat="45.88838" lon="6.33231">
        <ele>651</ele>
        <time>2026-08-19T04:55:59.566Z</time>
      </trkpt>
      <trkpt lat="45.8884" lon="6.33233">
        <ele>651</ele>
        <time>2026-08-19T04:56:00.566Z</time>
      </trkpt>
      <trkpt lat="45.88841" lon="6.33236">
        <ele>651</ele>
        <time>2026-08-19T04:56:01.566Z</time>
      </trkpt>
      <trkpt lat="45.88842" lon="6.33238">
        <ele>651</ele>
        <time>2026-08-19T04:56:02.566Z</time>
      </trkpt>
      <trkpt lat="45.88844" lon="6.3324">
        <ele>651</ele>
        <time>2026-08-19T04:56:03.566Z</time>
      </trkpt>
      <trkpt lat="45.88845" lon="6.33242">
        <ele>651</ele>
        <time>2026-08-19T04:56:04.566Z</time>
      </trkpt>
      <trkpt lat="45.88847" lon="6.33244">
        <ele>651</ele>
        <time>2026-08-19T04:56:05.566Z</time>
      </trkpt>
      <trkpt lat="45.88848" lon="6.33245">
        <ele>651</ele>
        <time>2026-08-19T04:56:06.566Z</time>
      </trkpt>
      <trkpt lat="45.8885" lon="6.33248">
        <ele>652</ele>
        <time>2026-08-19T04:56:07.566Z</time>
      </trkpt>
      <trkpt lat="45.88851" lon="6.3325">
        <ele>652</ele>
        <time>2026-08-19T04:56:08.566Z</time>
      </trkpt>
      <trkpt lat="45.88852" lon="6.33252">
        <ele>652</ele>
        <time>2026-08-19T04:56:09.566Z</time>
      </trkpt>
      <trkpt lat="45.88853" lon="6.33254">
        <ele>652</ele>
        <time>2026-08-19T04:56:10.566Z</time>
      </trkpt>
      <trkpt lat="45.88855" lon="6.33256">
        <ele>652</ele>
        <time>2026-08-19T04:56:11.566Z</time>
      </trkpt>
      <trkpt lat="45.88857" lon="6.33258">
        <ele>652</ele>
        <time>2026-08-19T04:56:12.566Z</time>
      </trkpt>
      <trkpt lat="45.88858" lon="6.3326">
        <ele>652</ele>
        <time>2026-08-19T04:56:13.566Z</time>
      </trkpt>
      <trkpt lat="45.88859" lon="6.33262">
        <ele>653</ele>
        <time>2026-08-19T04:56:14.566Z</time>
      </trkpt>
      <trkpt lat="45.88861" lon="6.33265">
        <ele>653</ele>
        <time>2026-08-19T04:56:15.566Z</time>
      </trkpt>
      <trkpt lat="45.88862" lon="6.33267">
        <ele>653</ele>
        <time>2026-08-19T04:56:16.566Z</time>
      </trkpt>
      <trkpt lat="45.88864" lon="6.33269">
        <ele>653</ele>
        <time>2026-08-19T04:56:17.566Z</time>
      </trkpt>
      <trkpt lat="45.88865" lon="6.33271">
        <ele>653</ele>
        <time>2026-08-19T04:56:18.566Z</time>
      </trkpt>
      <trkpt lat="45.88866" lon="6.33273">
        <ele>653</ele>
        <time>2026-08-19T04:56:19.566Z</time>
      </trkpt>
      <trkpt lat="45.88868" lon="6.33275">
        <ele>653</ele>
        <time>2026-08-19T04:56:20.566Z</time>
      </trkpt>
      <trkpt lat="45.88869" lon="6.33276">
        <ele>653</ele>
        <time>2026-08-19T04:56:21.566Z</time>
      </trkpt>
      <trkpt lat="45.88871" lon="6.33278">
        <ele>653</ele>
        <time>2026-08-19T04:56:22.566Z</time>
      </trkpt>
      <trkpt lat="45.88872" lon="6.3328">
        <ele>653</ele>
        <time>2026-08-19T04:56:23.566Z</time>
      </trkpt>
      <trkpt lat="45.88874" lon="6.33282">
        <ele>653</ele>
        <time>2026-08-19T04:56:24.566Z</time>
      </trkpt>
      <trkpt lat="45.88875" lon="6.33283">
        <ele>653</ele>
        <time>2026-08-19T04:56:25.566Z</time>
      </trkpt>
      <trkpt lat="45.88876" lon="6.33285">
        <ele>653</ele>
        <time>2026-08-19T04:56:26.566Z</time>
      </trkpt>
      <trkpt lat="45.88878" lon="6.33287">
        <ele>654</ele>
        <time>2026-08-19T04:56:27.566Z</time>
      </trkpt>
      <trkpt lat="45.88879" lon="6.33289">
        <ele>654</ele>
        <time>2026-08-19T04:56:28.566Z</time>
      </trkpt>
      <trkpt lat="45.88881" lon="6.33291">
        <ele>654</ele>
        <time>2026-08-19T04:56:29.566Z</time>
      </trkpt>
      <trkpt lat="45.88882" lon="6.33293">
        <ele>654</ele>
        <time>2026-08-19T04:56:30.566Z</time>
      </trkpt>
      <trkpt lat="45.88883" lon="6.33295">
        <ele>654</ele>
        <time>2026-08-19T04:56:31.566Z</time>
      </trkpt>
      <trkpt lat="45.88885" lon="6.33297">
        <ele>655</ele>
        <time>2026-08-19T04:56:32.566Z</time>
      </trkpt>
      <trkpt lat="45.88886" lon="6.33299">
        <ele>655</ele>
        <time>2026-08-19T04:56:33.566Z</time>
      </trkpt>
      <trkpt lat="45.88887" lon="6.33302">
        <ele>655</ele>
        <time>2026-08-19T04:56:34.566Z</time>
      </trkpt>
      <trkpt lat="45.88888" lon="6.33304">
        <ele>655</ele>
        <time>2026-08-19T04:56:35.566Z</time>
      </trkpt>
      <trkpt lat="45.8889" lon="6.33307">
        <ele>655</ele>
        <time>2026-08-19T04:56:36.566Z</time>
      </trkpt>
      <trkpt lat="45.88892" lon="6.33309">
        <ele>655</ele>
        <time>2026-08-19T04:56:37.566Z</time>
      </trkpt>
      <trkpt lat="45.88893" lon="6.33311">
        <ele>655</ele>
        <time>2026-08-19T04:56:38.566Z</time>
      </trkpt>
      <trkpt lat="45.88894" lon="6.33313">
        <ele>655</ele>
        <time>2026-08-19T04:56:39.566Z</time>
      </trkpt>
      <trkpt lat="45.88896" lon="6.33316">
        <ele>655</ele>
        <time>2026-08-19T04:56:40.566Z</time>
      </trkpt>
      <trkpt lat="45.88897" lon="6.33317">
        <ele>655</ele>
        <time>2026-08-19T04:56:41.566Z</time>
      </trkpt>
      <trkpt lat="45.88898" lon="6.3332">
        <ele>655</ele>
        <time>2026-08-19T04:56:42.566Z</time>
      </trkpt>
      <trkpt lat="45.889" lon="6.33322">
        <ele>655</ele>
        <time>2026-08-19T04:56:43.566Z</time>
      </trkpt>
      <trkpt lat="45.88901" lon="6.33324">
        <ele>655</ele>
        <time>2026-08-19T04:56:44.566Z</time>
      </trkpt>
      <trkpt lat="45.88902" lon="6.33327">
        <ele>655</ele>
        <time>2026-08-19T04:56:45.566Z</time>
      </trkpt>
      <trkpt lat="45.88903" lon="6.3333">
        <ele>655</ele>
        <time>2026-08-19T04:56:46.567Z</time>
      </trkpt>
      <trkpt lat="45.88905" lon="6.33332">
        <ele>655</ele>
        <time>2026-08-19T04:56:47.566Z</time>
      </trkpt>
      <trkpt lat="45.88906" lon="6.33334">
        <ele>655</ele>
        <time>2026-08-19T04:56:48.566Z</time>
      </trkpt>
      <trkpt lat="45.88907" lon="6.33337">
        <ele>655</ele>
        <time>2026-08-19T04:56:49.566Z</time>
      </trkpt>
      <trkpt lat="45.88908" lon="6.33339">
        <ele>655</ele>
        <time>2026-08-19T04:56:50.566Z</time>
      </trkpt>
      <trkpt lat="45.88909" lon="6.33342">
        <ele>654</ele>
        <time>2026-08-19T04:56:51.566Z</time>
      </trkpt>
      <trkpt lat="45.8891" lon="6.33344">
        <ele>654</ele>
        <time>2026-08-19T04:56:52.566Z</time>
      </trkpt>
      <trkpt lat="45.88911" lon="6.33347">
        <ele>654</ele>
        <time>2026-08-19T04:56:53.566Z</time>
      </trkpt>
      <trkpt lat="45.88912" lon="6.33349">
        <ele>654</ele>
        <time>2026-08-19T04:56:54.566Z</time>
      </trkpt>
      <trkpt lat="45.88913" lon="6.33351">
        <ele>654</ele>
        <time>2026-08-19T04:56:55.566Z</time>
      </trkpt>
      <trkpt lat="45.88914" lon="6.33354">
        <ele>654</ele>
        <time>2026-08-19T04:56:56.566Z</time>
      </trkpt>
      <trkpt lat="45.88915" lon="6.33357">
        <ele>653</ele>
        <time>2026-08-19T04:56:57.566Z</time>
      </trkpt>
      <trkpt lat="45.88916" lon="6.33359">
        <ele>653</ele>
        <time>2026-08-19T04:56:58.566Z</time>
      </trkpt>
      <trkpt lat="45.88917" lon="6.33362">
        <ele>653</ele>
        <time>2026-08-19T04:56:59.566Z</time>
      </trkpt>
      <trkpt lat="45.88918" lon="6.33364">
        <ele>653</ele>
        <time>2026-08-19T04:57:00.566Z</time>
      </trkpt>
      <trkpt lat="45.88919" lon="6.33367">
        <ele>653</ele>
        <time>2026-08-19T04:57:01.566Z</time>
      </trkpt>
      <trkpt lat="45.8892" lon="6.33369">
        <ele>654</ele>
        <time>2026-08-19T04:57:02.566Z</time>
      </trkpt>
      <trkpt lat="45.88922" lon="6.33372">
        <ele>654</ele>
        <time>2026-08-19T04:57:03.566Z</time>
      </trkpt>
      <trkpt lat="45.88923" lon="6.33374">
        <ele>654</ele>
        <time>2026-08-19T04:57:04.566Z</time>
      </trkpt>
      <trkpt lat="45.88924" lon="6.33377">
        <ele>655</ele>
        <time>2026-08-19T04:57:05.566Z</time>
      </trkpt>
      <trkpt lat="45.88925" lon="6.3338">
        <ele>655</ele>
        <time>2026-08-19T04:57:06.566Z</time>
      </trkpt>
      <trkpt lat="45.88926" lon="6.33382">
        <ele>656</ele>
        <time>2026-08-19T04:57:07.566Z</time>
      </trkpt>
      <trkpt lat="45.88927" lon="6.33385">
        <ele>656</ele>
        <time>2026-08-19T04:57:08.566Z</time>
      </trkpt>
      <trkpt lat="45.88927" lon="6.33387">
        <ele>656</ele>
        <time>2026-08-19T04:57:09.566Z</time>
      </trkpt>
      <trkpt lat="45.88929" lon="6.33389">
        <ele>656</ele>
        <time>2026-08-19T04:57:10.566Z</time>
      </trkpt>
      <trkpt lat="45.8893" lon="6.33392">
        <ele>655</ele>
        <time>2026-08-19T04:57:11.566Z</time>
      </trkpt>
      <trkpt lat="45.88931" lon="6.33393">
        <ele>655</ele>
        <time>2026-08-19T04:57:12.566Z</time>
      </trkpt>
      <trkpt lat="45.88932" lon="6.33396">
        <ele>655</ele>
        <time>2026-08-19T04:57:13.566Z</time>
      </trkpt>
      <trkpt lat="45.88934" lon="6.33399">
        <ele>655</ele>
        <time>2026-08-19T04:57:14.566Z</time>
      </trkpt>
      <trkpt lat="45.88935" lon="6.33401">
        <ele>655</ele>
        <time>2026-08-19T04:57:15.566Z</time>
      </trkpt>
      <trkpt lat="45.88936" lon="6.33404">
        <ele>655</ele>
        <time>2026-08-19T04:57:16.566Z</time>
      </trkpt>
      <trkpt lat="45.88937" lon="6.33406">
        <ele>655</ele>
        <time>2026-08-19T04:57:17.566Z</time>
      </trkpt>
      <trkpt lat="45.88938" lon="6.33408">
        <ele>655</ele>
        <time>2026-08-19T04:57:18.566Z</time>
      </trkpt>
      <trkpt lat="45.88939" lon="6.3341">
        <ele>656</ele>
        <time>2026-08-19T04:57:19.566Z</time>
      </trkpt>
      <trkpt lat="45.88939" lon="6.33413">
        <ele>656</ele>
        <time>2026-08-19T04:57:20.566Z</time>
      </trkpt>
      <trkpt lat="45.8894" lon="6.33416">
        <ele>656</ele>
        <time>2026-08-19T04:57:21.566Z</time>
      </trkpt>
      <trkpt lat="45.88941" lon="6.33418">
        <ele>656</ele>
        <time>2026-08-19T04:57:22.566Z</time>
      </trkpt>
      <trkpt lat="45.88942" lon="6.33421">
        <ele>656</ele>
        <time>2026-08-19T04:57:23.566Z</time>
      </trkpt>
      <trkpt lat="45.88943" lon="6.33424">
        <ele>656</ele>
        <time>2026-08-19T04:57:24.566Z</time>
      </trkpt>
      <trkpt lat="45.88944" lon="6.33426">
        <ele>656</ele>
        <time>2026-08-19T04:57:25.566Z</time>
      </trkpt>
      <trkpt lat="45.88945" lon="6.33429">
        <ele>657</ele>
        <time>2026-08-19T04:57:26.566Z</time>
      </trkpt>
      <trkpt lat="45.88946" lon="6.33431">
        <ele>657</ele>
        <time>2026-08-19T04:57:27.566Z</time>
      </trkpt>
      <trkpt lat="45.88947" lon="6.33434">
        <ele>657</ele>
        <time>2026-08-19T04:57:28.566Z</time>
      </trkpt>
      <trkpt lat="45.88948" lon="6.33436">
        <ele>657</ele>
        <time>2026-08-19T04:57:29.566Z</time>
      </trkpt>
      <trkpt lat="45.88949" lon="6.33439">
        <ele>658</ele>
        <time>2026-08-19T04:57:30.566Z</time>
      </trkpt>
      <trkpt lat="45.8895" lon="6.33442">
        <ele>658</ele>
        <time>2026-08-19T04:57:31.566Z</time>
      </trkpt>
      <trkpt lat="45.88951" lon="6.33444">
        <ele>658</ele>
        <time>2026-08-19T04:57:32.566Z</time>
      </trkpt>
      <trkpt lat="45.88951" lon="6.33447">
        <ele>658</ele>
        <time>2026-08-19T04:57:33.566Z</time>
      </trkpt>
      <trkpt lat="45.88952" lon="6.3345">
        <ele>658</ele>
        <time>2026-08-19T04:57:34.566Z</time>
      </trkpt>
      <trkpt lat="45.88953" lon="6.33453">
        <ele>658</ele>
        <time>2026-08-19T04:57:35.566Z</time>
      </trkpt>
      <trkpt lat="45.88954" lon="6.33455">
        <ele>658</ele>
        <time>2026-08-19T04:57:36.566Z</time>
      </trkpt>
      <trkpt lat="45.88955" lon="6.33458">
        <ele>658</ele>
        <time>2026-08-19T04:57:37.566Z</time>
      </trkpt>
      <trkpt lat="45.88956" lon="6.3346">
        <ele>658</ele>
        <time>2026-08-19T04:57:38.566Z</time>
      </trkpt>
      <trkpt lat="45.88957" lon="6.33463">
        <ele>658</ele>
        <time>2026-08-19T04:57:39.566Z</time>
      </trkpt>
      <trkpt lat="45.88958" lon="6.33466">
        <ele>658</ele>
        <time>2026-08-19T04:57:40.566Z</time>
      </trkpt>
      <trkpt lat="45.88959" lon="6.33468">
        <ele>658</ele>
        <time>2026-08-19T04:57:41.566Z</time>
      </trkpt>
      <trkpt lat="45.8896" lon="6.33471">
        <ele>658</ele>
        <time>2026-08-19T04:57:42.566Z</time>
      </trkpt>
      <trkpt lat="45.88961" lon="6.33474">
        <ele>659</ele>
        <time>2026-08-19T04:57:43.566Z</time>
      </trkpt>
      <trkpt lat="45.88962" lon="6.33476">
        <ele>659</ele>
        <time>2026-08-19T04:57:44.566Z</time>
      </trkpt>
      <trkpt lat="45.88963" lon="6.33478">
        <ele>659</ele>
        <time>2026-08-19T04:57:45.566Z</time>
      </trkpt>
      <trkpt lat="45.88964" lon="6.33481">
        <ele>659</ele>
        <time>2026-08-19T04:57:46.566Z</time>
      </trkpt>
      <trkpt lat="45.88965" lon="6.33484">
        <ele>659</ele>
        <time>2026-08-19T04:57:47.566Z</time>
      </trkpt>
      <trkpt lat="45.88966" lon="6.33486">
        <ele>659</ele>
        <time>2026-08-19T04:57:48.566Z</time>
      </trkpt>
      <trkpt lat="45.88967" lon="6.33487">
        <ele>659</ele>
        <time>2026-08-19T04:57:49.566Z</time>
      </trkpt>
      <trkpt lat="45.88968" lon="6.33489">
        <ele>659</ele>
        <time>2026-08-19T04:57:50.566Z</time>
      </trkpt>
      <trkpt lat="45.88969" lon="6.33491">
        <ele>660</ele>
        <time>2026-08-19T04:57:51.566Z</time>
      </trkpt>
      <trkpt lat="45.8897" lon="6.33493">
        <ele>660</ele>
        <time>2026-08-19T04:57:52.566Z</time>
      </trkpt>
      <trkpt lat="45.88972" lon="6.33495">
        <ele>661</ele>
        <time>2026-08-19T04:57:53.566Z</time>
      </trkpt>
      <trkpt lat="45.88973" lon="6.33497">
        <ele>661</ele>
        <time>2026-08-19T04:57:54.566Z</time>
      </trkpt>
      <trkpt lat="45.88974" lon="6.33499">
        <ele>661</ele>
        <time>2026-08-19T04:57:55.566Z</time>
      </trkpt>
      <trkpt lat="45.88976" lon="6.33502">
        <ele>661</ele>
        <time>2026-08-19T04:57:56.566Z</time>
      </trkpt>
      <trkpt lat="45.88977" lon="6.33504">
        <ele>661</ele>
        <time>2026-08-19T04:57:57.566Z</time>
      </trkpt>
      <trkpt lat="45.88978" lon="6.33506">
        <ele>661</ele>
        <time>2026-08-19T04:57:58.566Z</time>
      </trkpt>
      <trkpt lat="45.88979" lon="6.33508">
        <ele>661</ele>
        <time>2026-08-19T04:57:59.566Z</time>
      </trkpt>
      <trkpt lat="45.8898" lon="6.33511">
        <ele>661</ele>
        <time>2026-08-19T04:58:00.566Z</time>
      </trkpt>
      <trkpt lat="45.88981" lon="6.33512">
        <ele>661</ele>
        <time>2026-08-19T04:58:01.566Z</time>
      </trkpt>
      <trkpt lat="45.88982" lon="6.33515">
        <ele>660</ele>
        <time>2026-08-19T04:58:02.566Z</time>
      </trkpt>
      <trkpt lat="45.88984" lon="6.33517">
        <ele>660</ele>
        <time>2026-08-19T04:58:03.566Z</time>
      </trkpt>
      <trkpt lat="45.88986" lon="6.3352">
        <ele>661</ele>
        <time>2026-08-19T04:58:04.566Z</time>
      </trkpt>
      <trkpt lat="45.88988" lon="6.33521">
        <ele>661</ele>
        <time>2026-08-19T04:58:05.566Z</time>
      </trkpt>
      <trkpt lat="45.88989" lon="6.33523">
        <ele>661</ele>
        <time>2026-08-19T04:58:06.566Z</time>
      </trkpt>
      <trkpt lat="45.88991" lon="6.33526">
        <ele>662</ele>
        <time>2026-08-19T04:58:07.566Z</time>
      </trkpt>
      <trkpt lat="45.88992" lon="6.33528">
        <ele>662</ele>
        <time>2026-08-19T04:58:08.566Z</time>
      </trkpt>
      <trkpt lat="45.88993" lon="6.3353">
        <ele>662</ele>
        <time>2026-08-19T04:58:09.566Z</time>
      </trkpt>
      <trkpt lat="45.88995" lon="6.33532">
        <ele>662</ele>
        <time>2026-08-19T04:58:10.566Z</time>
      </trkpt>
      <trkpt lat="45.88996" lon="6.33535">
        <ele>662</ele>
        <time>2026-08-19T04:58:11.566Z</time>
      </trkpt>
      <trkpt lat="45.88997" lon="6.33538">
        <ele>662</ele>
        <time>2026-08-19T04:58:12.566Z</time>
      </trkpt>
      <trkpt lat="45.88999" lon="6.33541">
        <ele>663</ele>
        <time>2026-08-19T04:58:13.566Z</time>
      </trkpt>
      <trkpt lat="45.88999" lon="6.33543">
        <ele>663</ele>
        <time>2026-08-19T04:58:14.566Z</time>
      </trkpt>
      <trkpt lat="45.89" lon="6.33546">
        <ele>662</ele>
        <time>2026-08-19T04:58:15.566Z</time>
      </trkpt>
      <trkpt lat="45.89001" lon="6.33548">
        <ele>662</ele>
        <time>2026-08-19T04:58:16.566Z</time>
      </trkpt>
      <trkpt lat="45.89002" lon="6.33551">
        <ele>662</ele>
        <time>2026-08-19T04:58:17.566Z</time>
      </trkpt>
      <trkpt lat="45.89003" lon="6.33554">
        <ele>662</ele>
        <time>2026-08-19T04:58:18.566Z</time>
      </trkpt>
      <trkpt lat="45.89003" lon="6.33557">
        <ele>662</ele>
        <time>2026-08-19T04:58:19.566Z</time>
      </trkpt>
      <trkpt lat="45.89004" lon="6.3356">
        <ele>662</ele>
        <time>2026-08-19T04:58:20.566Z</time>
      </trkpt>
      <trkpt lat="45.89004" lon="6.33563">
        <ele>662</ele>
        <time>2026-08-19T04:58:21.566Z</time>
      </trkpt>
      <trkpt lat="45.89004" lon="6.33566">
        <ele>662</ele>
        <time>2026-08-19T04:58:22.566Z</time>
      </trkpt>
      <trkpt lat="45.89005" lon="6.33569">
        <ele>662</ele>
        <time>2026-08-19T04:58:23.566Z</time>
      </trkpt>
      <trkpt lat="45.89005" lon="6.33572">
        <ele>662</ele>
        <time>2026-08-19T04:58:24.566Z</time>
      </trkpt>
      <trkpt lat="45.89006" lon="6.33574">
        <ele>662</ele>
        <time>2026-08-19T04:58:25.566Z</time>
      </trkpt>
      <trkpt lat="45.89007" lon="6.33576">
        <ele>662</ele>
        <time>2026-08-19T04:58:26.566Z</time>
      </trkpt>
      <trkpt lat="45.89008" lon="6.33578">
        <ele>662</ele>
        <time>2026-08-19T04:58:27.566Z</time>
      </trkpt>
      <trkpt lat="45.89009" lon="6.33579">
        <ele>662</ele>
        <time>2026-08-19T04:58:28.566Z</time>
      </trkpt>
      <trkpt lat="45.89011" lon="6.3358">
        <ele>662</ele>
        <time>2026-08-19T04:58:29.566Z</time>
      </trkpt>
      <trkpt lat="45.89012" lon="6.3358">
        <ele>662</ele>
        <time>2026-08-19T04:58:30.566Z</time>
      </trkpt>
      <trkpt lat="45.89013" lon="6.33581">
        <ele>662</ele>
        <time>2026-08-19T04:58:31.566Z</time>
      </trkpt>
      <trkpt lat="45.89014" lon="6.33582">
        <ele>662</ele>
        <time>2026-08-19T04:58:32.566Z</time>
      </trkpt>
      <trkpt lat="45.89016" lon="6.33583">
        <ele>662</ele>
        <time>2026-08-19T04:58:33.566Z</time>
      </trkpt>
      <trkpt lat="45.89017" lon="6.33585">
        <ele>662</ele>
        <time>2026-08-19T04:58:34.566Z</time>
      </trkpt>
      <trkpt lat="45.89018" lon="6.33586">
        <ele>662</ele>
        <time>2026-08-19T04:58:35.566Z</time>
      </trkpt>
      <trkpt lat="45.8902" lon="6.33587">
        <ele>662</ele>
        <time>2026-08-19T04:58:36.566Z</time>
      </trkpt>
      <trkpt lat="45.89022" lon="6.33589">
        <ele>663</ele>
        <time>2026-08-19T04:58:37.566Z</time>
      </trkpt>
      <trkpt lat="45.89023" lon="6.33591">
        <ele>663</ele>
        <time>2026-08-19T04:58:38.566Z</time>
      </trkpt>
      <trkpt lat="45.89025" lon="6.33593">
        <ele>663</ele>
        <time>2026-08-19T04:58:39.566Z</time>
      </trkpt>
      <trkpt lat="45.89027" lon="6.33595">
        <ele>663</ele>
        <time>2026-08-19T04:58:40.566Z</time>
      </trkpt>
      <trkpt lat="45.89029" lon="6.33598">
        <ele>663</ele>
        <time>2026-08-19T04:58:41.566Z</time>
      </trkpt>
      <trkpt lat="45.89031" lon="6.336">
        <ele>663</ele>
        <time>2026-08-19T04:58:42.566Z</time>
      </trkpt>
      <trkpt lat="45.89032" lon="6.33603">
        <ele>663</ele>
        <time>2026-08-19T04:58:43.566Z</time>
      </trkpt>
      <trkpt lat="45.89034" lon="6.33605">
        <ele>663</ele>
        <time>2026-08-19T04:58:44.566Z</time>
      </trkpt>
      <trkpt lat="45.89035" lon="6.33607">
        <ele>663</ele>
        <time>2026-08-19T04:58:45.566Z</time>
      </trkpt>
      <trkpt lat="45.89037" lon="6.33609">
        <ele>663</ele>
        <time>2026-08-19T04:58:46.566Z</time>
      </trkpt>
      <trkpt lat="45.89039" lon="6.33611">
        <ele>663</ele>
        <time>2026-08-19T04:58:47.566Z</time>
      </trkpt>
      <trkpt lat="45.89041" lon="6.33613">
        <ele>663</ele>
        <time>2026-08-19T04:58:48.566Z</time>
      </trkpt>
      <trkpt lat="45.89043" lon="6.33615">
        <ele>663</ele>
        <time>2026-08-19T04:58:49.566Z</time>
      </trkpt>
      <trkpt lat="45.89045" lon="6.33617">
        <ele>663</ele>
        <time>2026-08-19T04:58:50.566Z</time>
      </trkpt>
      <trkpt lat="45.89047" lon="6.33619">
        <ele>663</ele>
        <time>2026-08-19T04:58:51.566Z</time>
      </trkpt>
      <trkpt lat="45.89049" lon="6.33621">
        <ele>662</ele>
        <time>2026-08-19T04:58:52.566Z</time>
      </trkpt>
      <trkpt lat="45.89051" lon="6.33623">
        <ele>662</ele>
        <time>2026-08-19T04:58:53.566Z</time>
      </trkpt>
      <trkpt lat="45.89054" lon="6.33625">
        <ele>661</ele>
        <time>2026-08-19T04:58:54.566Z</time>
      </trkpt>
      <trkpt lat="45.89056" lon="6.33626">
        <ele>661</ele>
        <time>2026-08-19T04:58:55.566Z</time>
      </trkpt>
      <trkpt lat="45.89058" lon="6.33627">
        <ele>660</ele>
        <time>2026-08-19T04:58:56.566Z</time>
      </trkpt>
      <trkpt lat="45.8906" lon="6.33628">
        <ele>660</ele>
        <time>2026-08-19T04:58:57.566Z</time>
      </trkpt>
      <trkpt lat="45.89062" lon="6.3363">
        <ele>659</ele>
        <time>2026-08-19T04:58:58.566Z</time>
      </trkpt>
      <trkpt lat="45.89063" lon="6.33632">
        <ele>659</ele>
        <time>2026-08-19T04:58:59.566Z</time>
      </trkpt>
      <trkpt lat="45.89065" lon="6.33633">
        <ele>659</ele>
        <time>2026-08-19T04:59:00.566Z</time>
      </trkpt>
      <trkpt lat="45.89067" lon="6.33635">
        <ele>659</ele>
        <time>2026-08-19T04:59:01.566Z</time>
      </trkpt>
      <trkpt lat="45.89069" lon="6.33636">
        <ele>660</ele>
        <time>2026-08-19T04:59:02.566Z</time>
      </trkpt>
      <trkpt lat="45.89071" lon="6.33637">
        <ele>660</ele>
        <time>2026-08-19T04:59:03.567Z</time>
      </trkpt>
      <trkpt lat="45.89073" lon="6.33638">
        <ele>660</ele>
        <time>2026-08-19T04:59:04.566Z</time>
      </trkpt>
      <trkpt lat="45.89075" lon="6.3364">
        <ele>660</ele>
        <time>2026-08-19T04:59:05.566Z</time>
      </trkpt>
      <trkpt lat="45.89076" lon="6.33642">
        <ele>660</ele>
        <time>2026-08-19T04:59:06.566Z</time>
      </trkpt>
      <trkpt lat="45.89078" lon="6.33643">
        <ele>660</ele>
        <time>2026-08-19T04:59:07.566Z</time>
      </trkpt>
      <trkpt lat="45.8908" lon="6.33646">
        <ele>661</ele>
        <time>2026-08-19T04:59:08.566Z</time>
      </trkpt>
      <trkpt lat="45.89082" lon="6.33647">
        <ele>661</ele>
        <time>2026-08-19T04:59:09.566Z</time>
      </trkpt>
      <trkpt lat="45.89084" lon="6.3365">
        <ele>660</ele>
        <time>2026-08-19T04:59:10.566Z</time>
      </trkpt>
      <trkpt lat="45.89086" lon="6.33652">
        <ele>660</ele>
        <time>2026-08-19T04:59:11.566Z</time>
      </trkpt>
      <trkpt lat="45.89088" lon="6.33654">
        <ele>660</ele>
        <time>2026-08-19T04:59:12.566Z</time>
      </trkpt>
      <trkpt lat="45.89091" lon="6.33656">
        <ele>660</ele>
        <time>2026-08-19T04:59:13.566Z</time>
      </trkpt>
      <trkpt lat="45.89093" lon="6.33657">
        <ele>660</ele>
        <time>2026-08-19T04:59:14.566Z</time>
      </trkpt>
      <trkpt lat="45.89095" lon="6.33659">
        <ele>660</ele>
        <time>2026-08-19T04:59:15.566Z</time>
      </trkpt>
      <trkpt lat="45.89096" lon="6.3366">
        <ele>660</ele>
        <time>2026-08-19T04:59:16.566Z</time>
      </trkpt>
      <trkpt lat="45.89098" lon="6.33661">
        <ele>661</ele>
        <time>2026-08-19T04:59:17.566Z</time>
      </trkpt>
      <trkpt lat="45.891" lon="6.33663">
        <ele>661</ele>
        <time>2026-08-19T04:59:18.566Z</time>
      </trkpt>
      <trkpt lat="45.89102" lon="6.33665">
        <ele>661</ele>
        <time>2026-08-19T04:59:19.566Z</time>
      </trkpt>
      <trkpt lat="45.89105" lon="6.33666">
        <ele>661</ele>
        <time>2026-08-19T04:59:20.566Z</time>
      </trkpt>
      <trkpt lat="45.89107" lon="6.33667">
        <ele>661</ele>
        <time>2026-08-19T04:59:21.566Z</time>
      </trkpt>
      <trkpt lat="45.89109" lon="6.33668">
        <ele>661</ele>
        <time>2026-08-19T04:59:22.566Z</time>
      </trkpt>
      <trkpt lat="45.89112" lon="6.3367">
        <ele>661</ele>
        <time>2026-08-19T04:59:23.566Z</time>
      </trkpt>
      <trkpt lat="45.89114" lon="6.33672">
        <ele>660</ele>
        <time>2026-08-19T04:59:24.566Z</time>
      </trkpt>
      <trkpt lat="45.89116" lon="6.33675">
        <ele>660</ele>
        <time>2026-08-19T04:59:25.566Z</time>
      </trkpt>
      <trkpt lat="45.89118" lon="6.33676">
        <ele>660</ele>
        <time>2026-08-19T04:59:26.566Z</time>
      </trkpt>
      <trkpt lat="45.8912" lon="6.33678">
        <ele>660</ele>
        <time>2026-08-19T04:59:27.566Z</time>
      </trkpt>
      <trkpt lat="45.89122" lon="6.3368">
        <ele>660</ele>
        <time>2026-08-19T04:59:28.566Z</time>
      </trkpt>
      <trkpt lat="45.89123" lon="6.33682">
        <ele>660</ele>
        <time>2026-08-19T04:59:29.566Z</time>
      </trkpt>
      <trkpt lat="45.89125" lon="6.33683">
        <ele>661</ele>
        <time>2026-08-19T04:59:30.566Z</time>
      </trkpt>
      <trkpt lat="45.89127" lon="6.33685">
        <ele>661</ele>
        <time>2026-08-19T04:59:31.566Z</time>
      </trkpt>
      <trkpt lat="45.89129" lon="6.33687">
        <ele>661</ele>
        <time>2026-08-19T04:59:32.566Z</time>
      </trkpt>
      <trkpt lat="45.89131" lon="6.33689">
        <ele>662</ele>
        <time>2026-08-19T04:59:33.566Z</time>
      </trkpt>
      <trkpt lat="45.89132" lon="6.33691">
        <ele>662</ele>
        <time>2026-08-19T04:59:34.566Z</time>
      </trkpt>
      <trkpt lat="45.89134" lon="6.33693">
        <ele>662</ele>
        <time>2026-08-19T04:59:35.566Z</time>
      </trkpt>
      <trkpt lat="45.89136" lon="6.33695">
        <ele>662</ele>
        <time>2026-08-19T04:59:36.566Z</time>
      </trkpt>
      <trkpt lat="45.89138" lon="6.33696">
        <ele>662</ele>
        <time>2026-08-19T04:59:37.566Z</time>
      </trkpt>
      <trkpt lat="45.8914" lon="6.33698">
        <ele>662</ele>
        <time>2026-08-19T04:59:38.566Z</time>
      </trkpt>
      <trkpt lat="45.89142" lon="6.337">
        <ele>662</ele>
        <time>2026-08-19T04:59:39.566Z</time>
      </trkpt>
      <trkpt lat="45.89144" lon="6.33702">
        <ele>661</ele>
        <time>2026-08-19T04:59:40.566Z</time>
      </trkpt>
      <trkpt lat="45.89146" lon="6.33705">
        <ele>661</ele>
        <time>2026-08-19T04:59:41.566Z</time>
      </trkpt>
      <trkpt lat="45.89146" lon="6.33708">
        <ele>660</ele>
        <time>2026-08-19T04:59:42.566Z</time>
      </trkpt>
      <trkpt lat="45.89148" lon="6.33711">
        <ele>660</ele>
        <time>2026-08-19T04:59:43.566Z</time>
      </trkpt>
      <trkpt lat="45.8915" lon="6.33713">
        <ele>660</ele>
        <time>2026-08-19T04:59:44.566Z</time>
      </trkpt>
      <trkpt lat="45.89152" lon="6.33715">
        <ele>659</ele>
        <time>2026-08-19T04:59:45.566Z</time>
      </trkpt>
      <trkpt lat="45.89154" lon="6.33718">
        <ele>659</ele>
        <time>2026-08-19T04:59:46.566Z</time>
      </trkpt>
      <trkpt lat="45.89155" lon="6.3372">
        <ele>658</ele>
        <time>2026-08-19T04:59:47.566Z</time>
      </trkpt>
      <trkpt lat="45.89156" lon="6.33723">
        <ele>658</ele>
        <time>2026-08-19T04:59:48.566Z</time>
      </trkpt>
      <trkpt lat="45.89159" lon="6.33725">
        <ele>658</ele>
        <time>2026-08-19T04:59:49.566Z</time>
      </trkpt>
      <trkpt lat="45.8916" lon="6.33726">
        <ele>658</ele>
        <time>2026-08-19T04:59:50.566Z</time>
      </trkpt>
      <trkpt lat="45.89162" lon="6.33729">
        <ele>658</ele>
        <time>2026-08-19T04:59:51.566Z</time>
      </trkpt>
      <trkpt lat="45.89164" lon="6.33731">
        <ele>658</ele>
        <time>2026-08-19T04:59:52.566Z</time>
      </trkpt>
      <trkpt lat="45.89167" lon="6.33734">
        <ele>658</ele>
        <time>2026-08-19T04:59:53.566Z</time>
      </trkpt>
      <trkpt lat="45.89168" lon="6.33735">
        <ele>658</ele>
        <time>2026-08-19T04:59:54.566Z</time>
      </trkpt>
      <trkpt lat="45.8917" lon="6.33738">
        <ele>657</ele>
        <time>2026-08-19T04:59:55.566Z</time>
      </trkpt>
      <trkpt lat="45.8917" lon="6.3374">
        <ele>658</ele>
        <time>2026-08-19T04:59:56.566Z</time>
      </trkpt>
      <trkpt lat="45.89172" lon="6.33743">
        <ele>658</ele>
        <time>2026-08-19T04:59:57.566Z</time>
      </trkpt>
      <trkpt lat="45.89172" lon="6.33744">
        <ele>658</ele>
        <time>2026-08-19T04:59:58.566Z</time>
      </trkpt>
      <trkpt lat="45.89174" lon="6.33746">
        <ele>658</ele>
        <time>2026-08-19T04:59:59.566Z</time>
      </trkpt>
      <trkpt lat="45.89174" lon="6.33746">
        <ele>659</ele>
        <time>2026-08-19T05:00:00.566Z</time>
      </trkpt>
      <trkpt lat="45.89176" lon="6.33748">
        <ele>660</ele>
        <time>2026-08-19T05:00:01.566Z</time>
      </trkpt>
      <trkpt lat="45.89178" lon="6.3375">
        <ele>660</ele>
        <time>2026-08-19T05:00:02.566Z</time>
      </trkpt>
      <trkpt lat="45.8918" lon="6.33752">
        <ele>661</ele>
        <time>2026-08-19T05:00:03.566Z</time>
      </trkpt>
      <trkpt lat="45.89182" lon="6.33754">
        <ele>661</ele>
        <time>2026-08-19T05:00:04.566Z</time>
      </trkpt>
      <trkpt lat="45.89183" lon="6.33756">
        <ele>661</ele>
        <time>2026-08-19T05:00:05.566Z</time>
      </trkpt>
      <trkpt lat="45.89184" lon="6.33758">
        <ele>661</ele>
        <time>2026-08-19T05:00:06.567Z</time>
      </trkpt>
      <trkpt lat="45.89186" lon="6.33761">
        <ele>660</ele>
        <time>2026-08-19T05:00:07.566Z</time>
      </trkpt>
      <trkpt lat="45.89188" lon="6.33764">
        <ele>660</ele>
        <time>2026-08-19T05:00:08.566Z</time>
      </trkpt>
      <trkpt lat="45.8919" lon="6.33766">
        <ele>660</ele>
        <time>2026-08-19T05:00:09.566Z</time>
      </trkpt>
      <trkpt lat="45.89191" lon="6.33768">
        <ele>660</ele>
        <time>2026-08-19T05:00:10.566Z</time>
      </trkpt>
      <trkpt lat="45.89193" lon="6.3377">
        <ele>660</ele>
        <time>2026-08-19T05:00:11.566Z</time>
      </trkpt>
      <trkpt lat="45.89195" lon="6.33774">
        <ele>660</ele>
        <time>2026-08-19T05:00:12.566Z</time>
      </trkpt>
      <trkpt lat="45.89196" lon="6.33776">
        <ele>660</ele>
        <time>2026-08-19T05:00:13.566Z</time>
      </trkpt>
      <trkpt lat="45.89198" lon="6.33778">
        <ele>660</ele>
        <time>2026-08-19T05:00:14.566Z</time>
      </trkpt>
      <trkpt lat="45.892" lon="6.3378">
        <ele>660</ele>
        <time>2026-08-19T05:00:15.566Z</time>
      </trkpt>
      <trkpt lat="45.89203" lon="6.33782">
        <ele>660</ele>
        <time>2026-08-19T05:00:16.566Z</time>
      </trkpt>
      <trkpt lat="45.89205" lon="6.33785">
        <ele>660</ele>
        <time>2026-08-19T05:00:17.566Z</time>
      </trkpt>
      <trkpt lat="45.89207" lon="6.33787">
        <ele>660</ele>
        <time>2026-08-19T05:00:18.566Z</time>
      </trkpt>
      <trkpt lat="45.89208" lon="6.3379">
        <ele>660</ele>
        <time>2026-08-19T05:00:19.566Z</time>
      </trkpt>
      <trkpt lat="45.8921" lon="6.33792">
        <ele>661</ele>
        <time>2026-08-19T05:00:20.566Z</time>
      </trkpt>
      <trkpt lat="45.8921" lon="6.33796">
        <ele>661</ele>
        <time>2026-08-19T05:00:21.566Z</time>
      </trkpt>
      <trkpt lat="45.89212" lon="6.33798">
        <ele>662</ele>
        <time>2026-08-19T05:00:22.566Z</time>
      </trkpt>
      <trkpt lat="45.89214" lon="6.33801">
        <ele>662</ele>
        <time>2026-08-19T05:00:23.566Z</time>
      </trkpt>
      <trkpt lat="45.89216" lon="6.33803">
        <ele>663</ele>
        <time>2026-08-19T05:00:24.566Z</time>
      </trkpt>
      <trkpt lat="45.89218" lon="6.33806">
        <ele>663</ele>
        <time>2026-08-19T05:00:25.566Z</time>
      </trkpt>
      <trkpt lat="45.8922" lon="6.33809">
        <ele>663</ele>
        <time>2026-08-19T05:00:26.566Z</time>
      </trkpt>
      <trkpt lat="45.89222" lon="6.33812">
        <ele>664</ele>
        <time>2026-08-19T05:00:27.566Z</time>
      </trkpt>
      <trkpt lat="45.89223" lon="6.33815">
        <ele>664</ele>
        <time>2026-08-19T05:00:28.566Z</time>
      </trkpt>
      <trkpt lat="45.89224" lon="6.33818">
        <ele>665</ele>
        <time>2026-08-19T05:00:29.566Z</time>
      </trkpt>
      <trkpt lat="45.89226" lon="6.3382">
        <ele>666</ele>
        <time>2026-08-19T05:00:30.566Z</time>
      </trkpt>
      <trkpt lat="45.89228" lon="6.33822">
        <ele>666</ele>
        <time>2026-08-19T05:00:31.566Z</time>
      </trkpt>
      <trkpt lat="45.89231" lon="6.33824">
        <ele>667</ele>
        <time>2026-08-19T05:00:32.566Z</time>
      </trkpt>
      <trkpt lat="45.89233" lon="6.33826">
        <ele>667</ele>
        <time>2026-08-19T05:00:33.566Z</time>
      </trkpt>
      <trkpt lat="45.89235" lon="6.33828">
        <ele>668</ele>
        <time>2026-08-19T05:00:34.566Z</time>
      </trkpt>
      <trkpt lat="45.89236" lon="6.3383">
        <ele>668</ele>
        <time>2026-08-19T05:00:35.566Z</time>
      </trkpt>
      <trkpt lat="45.89238" lon="6.33833">
        <ele>668</ele>
        <time>2026-08-19T05:00:36.566Z</time>
      </trkpt>
      <trkpt lat="45.89239" lon="6.33835">
        <ele>667</ele>
        <time>2026-08-19T05:00:37.566Z</time>
      </trkpt>
      <trkpt lat="45.89242" lon="6.33836">
        <ele>667</ele>
        <time>2026-08-19T05:00:38.566Z</time>
      </trkpt>
      <trkpt lat="45.89244" lon="6.33838">
        <ele>667</ele>
        <time>2026-08-19T05:00:39.566Z</time>
      </trkpt>
      <trkpt lat="45.89246" lon="6.33839">
        <ele>667</ele>
        <time>2026-08-19T05:00:40.566Z</time>
      </trkpt>
      <trkpt lat="45.89248" lon="6.3384">
        <ele>666</ele>
        <time>2026-08-19T05:00:41.566Z</time>
      </trkpt>
      <trkpt lat="45.89251" lon="6.33843">
        <ele>666</ele>
        <time>2026-08-19T05:00:42.566Z</time>
      </trkpt>
      <trkpt lat="45.89253" lon="6.33845">
        <ele>666</ele>
        <time>2026-08-19T05:00:43.566Z</time>
      </trkpt>
      <trkpt lat="45.89256" lon="6.33847">
        <ele>665</ele>
        <time>2026-08-19T05:00:44.566Z</time>
      </trkpt>
      <trkpt lat="45.89257" lon="6.33849">
        <ele>665</ele>
        <time>2026-08-19T05:00:45.566Z</time>
      </trkpt>
      <trkpt lat="45.89259" lon="6.33851">
        <ele>665</ele>
        <time>2026-08-19T05:00:46.566Z</time>
      </trkpt>
      <trkpt lat="45.8926" lon="6.33853">
        <ele>665</ele>
        <time>2026-08-19T05:00:47.566Z</time>
      </trkpt>
      <trkpt lat="45.89262" lon="6.33854">
        <ele>665</ele>
        <time>2026-08-19T05:00:48.566Z</time>
      </trkpt>
      <trkpt lat="45.89264" lon="6.33856">
        <ele>665</ele>
        <time>2026-08-19T05:00:49.566Z</time>
      </trkpt>
      <trkpt lat="45.89265" lon="6.33858">
        <ele>665</ele>
        <time>2026-08-19T05:00:50.566Z</time>
      </trkpt>
      <trkpt lat="45.89266" lon="6.3386">
        <ele>665</ele>
        <time>2026-08-19T05:00:51.566Z</time>
      </trkpt>
      <trkpt lat="45.89268" lon="6.33862">
        <ele>665</ele>
        <time>2026-08-19T05:00:52.566Z</time>
      </trkpt>
      <trkpt lat="45.89269" lon="6.33864">
        <ele>665</ele>
        <time>2026-08-19T05:00:53.566Z</time>
      </trkpt>
      <trkpt lat="45.8927" lon="6.33867">
        <ele>665</ele>
        <time>2026-08-19T05:00:54.566Z</time>
      </trkpt>
      <trkpt lat="45.89271" lon="6.33869">
        <ele>665</ele>
        <time>2026-08-19T05:00:55.566Z</time>
      </trkpt>
      <trkpt lat="45.89271" lon="6.33872">
        <ele>665</ele>
        <time>2026-08-19T05:00:56.566Z</time>
      </trkpt>
      <trkpt lat="45.89272" lon="6.33875">
        <ele>665</ele>
        <time>2026-08-19T05:00:57.566Z</time>
      </trkpt>
      <trkpt lat="45.89273" lon="6.33878">
        <ele>665</ele>
        <time>2026-08-19T05:00:58.566Z</time>
      </trkpt>
      <trkpt lat="45.89274" lon="6.3388">
        <ele>664</ele>
        <time>2026-08-19T05:00:59.566Z</time>
      </trkpt>
      <trkpt lat="45.89276" lon="6.33883">
        <ele>664</ele>
        <time>2026-08-19T05:01:00.566Z</time>
      </trkpt>
      <trkpt lat="45.89277" lon="6.33886">
        <ele>664</ele>
        <time>2026-08-19T05:01:01.566Z</time>
      </trkpt>
      <trkpt lat="45.89279" lon="6.33889">
        <ele>664</ele>
        <time>2026-08-19T05:01:02.566Z</time>
      </trkpt>
      <trkpt lat="45.8928" lon="6.33892">
        <ele>664</ele>
        <time>2026-08-19T05:01:03.566Z</time>
      </trkpt>
      <trkpt lat="45.89282" lon="6.33895">
        <ele>664</ele>
        <time>2026-08-19T05:01:04.566Z</time>
      </trkpt>
      <trkpt lat="45.89283" lon="6.33897">
        <ele>664</ele>
        <time>2026-08-19T05:01:05.566Z</time>
      </trkpt>
      <trkpt lat="45.89284" lon="6.33899">
        <ele>665</ele>
        <time>2026-08-19T05:01:06.566Z</time>
      </trkpt>
      <trkpt lat="45.89284" lon="6.33902">
        <ele>665</ele>
        <time>2026-08-19T05:01:07.566Z</time>
      </trkpt>
      <trkpt lat="45.89285" lon="6.33904">
        <ele>665</ele>
        <time>2026-08-19T05:01:08.566Z</time>
      </trkpt>
      <trkpt lat="45.89286" lon="6.33907">
        <ele>665</ele>
        <time>2026-08-19T05:01:09.566Z</time>
      </trkpt>
      <trkpt lat="45.89288" lon="6.33909">
        <ele>665</ele>
        <time>2026-08-19T05:01:10.566Z</time>
      </trkpt>
      <trkpt lat="45.89289" lon="6.33912">
        <ele>665</ele>
        <time>2026-08-19T05:01:11.566Z</time>
      </trkpt>
      <trkpt lat="45.89291" lon="6.33915">
        <ele>665</ele>
        <time>2026-08-19T05:01:12.566Z</time>
      </trkpt>
      <trkpt lat="45.89292" lon="6.33918">
        <ele>664</ele>
        <time>2026-08-19T05:01:13.566Z</time>
      </trkpt>
      <trkpt lat="45.89294" lon="6.33921">
        <ele>664</ele>
        <time>2026-08-19T05:01:14.566Z</time>
      </trkpt>
      <trkpt lat="45.89295" lon="6.33924">
        <ele>664</ele>
        <time>2026-08-19T05:01:15.566Z</time>
      </trkpt>
      <trkpt lat="45.89296" lon="6.33927">
        <ele>664</ele>
        <time>2026-08-19T05:01:16.566Z</time>
      </trkpt>
      <trkpt lat="45.89297" lon="6.3393">
        <ele>664</ele>
        <time>2026-08-19T05:01:17.566Z</time>
      </trkpt>
      <trkpt lat="45.89299" lon="6.33933">
        <ele>664</ele>
        <time>2026-08-19T05:01:18.566Z</time>
      </trkpt>
      <trkpt lat="45.893" lon="6.33935">
        <ele>664</ele>
        <time>2026-08-19T05:01:19.566Z</time>
      </trkpt>
      <trkpt lat="45.89302" lon="6.33937">
        <ele>664</ele>
        <time>2026-08-19T05:01:20.566Z</time>
      </trkpt>
      <trkpt lat="45.89303" lon="6.33938">
        <ele>664</ele>
        <time>2026-08-19T05:01:21.566Z</time>
      </trkpt>
      <trkpt lat="45.89304" lon="6.3394">
        <ele>664</ele>
        <time>2026-08-19T05:01:22.566Z</time>
      </trkpt>
      <trkpt lat="45.89304" lon="6.33942">
        <ele>665</ele>
        <time>2026-08-19T05:01:23.566Z</time>
      </trkpt>
      <trkpt lat="45.89304" lon="6.33943">
        <ele>665</ele>
        <time>2026-08-19T05:01:24.566Z</time>
      </trkpt>
      <trkpt lat="45.89305" lon="6.33944">
        <ele>666</ele>
        <time>2026-08-19T05:01:25.566Z</time>
      </trkpt>
      <trkpt lat="45.89305" lon="6.33945">
        <ele>667</ele>
        <time>2026-08-19T05:01:26.566Z</time>
      </trkpt>
      <trkpt lat="45.89305" lon="6.33946">
        <ele>667</ele>
        <time>2026-08-19T05:01:27.566Z</time>
      </trkpt>
      <trkpt lat="45.89306" lon="6.33947">
        <ele>668</ele>
        <time>2026-08-19T05:01:28.566Z</time>
      </trkpt>
      <trkpt lat="45.89307" lon="6.33949">
        <ele>668</ele>
        <time>2026-08-19T05:01:29.566Z</time>
      </trkpt>
      <trkpt lat="45.89309" lon="6.33951">
        <ele>668</ele>
        <time>2026-08-19T05:01:30.566Z</time>
      </trkpt>
      <trkpt lat="45.89311" lon="6.33954">
        <ele>669</ele>
        <time>2026-08-19T05:01:31.566Z</time>
      </trkpt>
      <trkpt lat="45.89312" lon="6.33956">
        <ele>669</ele>
        <time>2026-08-19T05:01:32.566Z</time>
      </trkpt>
      <trkpt lat="45.89313" lon="6.33958">
        <ele>669</ele>
        <time>2026-08-19T05:01:33.566Z</time>
      </trkpt>
      <trkpt lat="45.89314" lon="6.33959">
        <ele>669</ele>
        <time>2026-08-19T05:01:34.566Z</time>
      </trkpt>
      <trkpt lat="45.89315" lon="6.33961">
        <ele>668</ele>
        <time>2026-08-19T05:01:35.566Z</time>
      </trkpt>
      <trkpt lat="45.89317" lon="6.33963">
        <ele>668</ele>
        <time>2026-08-19T05:01:36.566Z</time>
      </trkpt>
      <trkpt lat="45.89318" lon="6.33965">
        <ele>668</ele>
        <time>2026-08-19T05:01:37.566Z</time>
      </trkpt>
      <trkpt lat="45.8932" lon="6.33967">
        <ele>668</ele>
        <time>2026-08-19T05:01:38.566Z</time>
      </trkpt>
      <trkpt lat="45.89321" lon="6.33969">
        <ele>668</ele>
        <time>2026-08-19T05:01:39.566Z</time>
      </trkpt>
      <trkpt lat="45.89321" lon="6.33971">
        <ele>668</ele>
        <time>2026-08-19T05:01:40.566Z</time>
      </trkpt>
      <trkpt lat="45.89323" lon="6.33972">
        <ele>668</ele>
        <time>2026-08-19T05:01:41.566Z</time>
      </trkpt>
      <trkpt lat="45.89325" lon="6.33974">
        <ele>668</ele>
        <time>2026-08-19T05:01:42.566Z</time>
      </trkpt>
      <trkpt lat="45.89327" lon="6.33976">
        <ele>668</ele>
        <time>2026-08-19T05:01:43.566Z</time>
      </trkpt>
      <trkpt lat="45.89329" lon="6.33978">
        <ele>667</ele>
        <time>2026-08-19T05:01:44.566Z</time>
      </trkpt>
      <trkpt lat="45.89331" lon="6.33982">
        <ele>667</ele>
        <time>2026-08-19T05:01:45.566Z</time>
      </trkpt>
      <trkpt lat="45.89332" lon="6.33986">
        <ele>667</ele>
        <time>2026-08-19T05:01:46.566Z</time>
      </trkpt>
      <trkpt lat="45.89333" lon="6.33989">
        <ele>667</ele>
        <time>2026-08-19T05:01:47.566Z</time>
      </trkpt>
      <trkpt lat="45.89335" lon="6.33992">
        <ele>667</ele>
        <time>2026-08-19T05:01:48.566Z</time>
      </trkpt>
      <trkpt lat="45.89338" lon="6.33996">
        <ele>667</ele>
        <time>2026-08-19T05:01:49.566Z</time>
      </trkpt>
      <trkpt lat="45.89339" lon="6.33999">
        <ele>667</ele>
        <time>2026-08-19T05:01:50.566Z</time>
      </trkpt>
      <trkpt lat="45.89341" lon="6.34002">
        <ele>667</ele>
        <time>2026-08-19T05:01:51.566Z</time>
      </trkpt>
      <trkpt lat="45.89343" lon="6.34004">
        <ele>667</ele>
        <time>2026-08-19T05:01:52.566Z</time>
      </trkpt>
      <trkpt lat="45.89343" lon="6.34006">
        <ele>667</ele>
        <time>2026-08-19T05:01:53.566Z</time>
      </trkpt>
      <trkpt lat="45.89344" lon="6.34009">
        <ele>667</ele>
        <time>2026-08-19T05:01:54.566Z</time>
      </trkpt>
      <trkpt lat="45.89345" lon="6.34011">
        <ele>667</ele>
        <time>2026-08-19T05:01:55.566Z</time>
      </trkpt>
      <trkpt lat="45.89346" lon="6.34013">
        <ele>668</ele>
        <time>2026-08-19T05:01:56.566Z</time>
      </trkpt>
      <trkpt lat="45.89347" lon="6.34015">
        <ele>668</ele>
        <time>2026-08-19T05:01:57.566Z</time>
      </trkpt>
      <trkpt lat="45.89349" lon="6.34017">
        <ele>668</ele>
        <time>2026-08-19T05:01:58.566Z</time>
      </trkpt>
      <trkpt lat="45.89349" lon="6.34019">
        <ele>669</ele>
        <time>2026-08-19T05:01:59.566Z</time>
      </trkpt>
      <trkpt lat="45.89349" lon="6.34021">
        <ele>669</ele>
        <time>2026-08-19T05:02:00.566Z</time>
      </trkpt>
      <trkpt lat="45.89348" lon="6.34024">
        <ele>669</ele>
        <time>2026-08-19T05:02:01.566Z</time>
      </trkpt>
      <trkpt lat="45.89349" lon="6.34025">
        <ele>669</ele>
        <time>2026-08-19T05:02:02.566Z</time>
      </trkpt>
      <trkpt lat="45.89351" lon="6.34028">
        <ele>670</ele>
        <time>2026-08-19T05:02:03.566Z</time>
      </trkpt>
      <trkpt lat="45.89353" lon="6.3403">
        <ele>670</ele>
        <time>2026-08-19T05:02:04.566Z</time>
      </trkpt>
      <trkpt lat="45.89354" lon="6.34032">
        <ele>670</ele>
        <time>2026-08-19T05:02:05.566Z</time>
      </trkpt>
      <trkpt lat="45.89355" lon="6.34035">
        <ele>670</ele>
        <time>2026-08-19T05:02:06.566Z</time>
      </trkpt>
      <trkpt lat="45.89356" lon="6.34038">
        <ele>670</ele>
        <time>2026-08-19T05:02:07.566Z</time>
      </trkpt>
      <trkpt lat="45.89356" lon="6.3404">
        <ele>670</ele>
        <time>2026-08-19T05:02:08.566Z</time>
      </trkpt>
      <trkpt lat="45.89358" lon="6.34042">
        <ele>670</ele>
        <time>2026-08-19T05:02:09.566Z</time>
      </trkpt>
      <trkpt lat="45.89359" lon="6.34044">
        <ele>670</ele>
        <time>2026-08-19T05:02:10.566Z</time>
      </trkpt>
      <trkpt lat="45.8936" lon="6.34046">
        <ele>670</ele>
        <time>2026-08-19T05:02:11.566Z</time>
      </trkpt>
      <trkpt lat="45.89362" lon="6.34049">
        <ele>670</ele>
        <time>2026-08-19T05:02:12.566Z</time>
      </trkpt>
      <trkpt lat="45.89364" lon="6.34051">
        <ele>670</ele>
        <time>2026-08-19T05:02:13.566Z</time>
      </trkpt>
      <trkpt lat="45.89365" lon="6.34054">
        <ele>671</ele>
        <time>2026-08-19T05:02:14.566Z</time>
      </trkpt>
      <trkpt lat="45.89366" lon="6.34056">
        <ele>671</ele>
        <time>2026-08-19T05:02:15.566Z</time>
      </trkpt>
      <trkpt lat="45.89367" lon="6.34059">
        <ele>671</ele>
        <time>2026-08-19T05:02:16.566Z</time>
      </trkpt>
      <trkpt lat="45.89368" lon="6.34061">
        <ele>671</ele>
        <time>2026-08-19T05:02:17.566Z</time>
      </trkpt>
      <trkpt lat="45.89369" lon="6.34063">
        <ele>672</ele>
        <time>2026-08-19T05:02:18.566Z</time>
      </trkpt>
      <trkpt lat="45.89371" lon="6.34066">
        <ele>672</ele>
        <time>2026-08-19T05:02:19.566Z</time>
      </trkpt>
      <trkpt lat="45.89372" lon="6.34068">
        <ele>673</ele>
        <time>2026-08-19T05:02:20.566Z</time>
      </trkpt>
      <trkpt lat="45.89373" lon="6.3407">
        <ele>673</ele>
        <time>2026-08-19T05:02:21.566Z</time>
      </trkpt>
      <trkpt lat="45.89374" lon="6.34073">
        <ele>673</ele>
        <time>2026-08-19T05:02:22.566Z</time>
      </trkpt>
      <trkpt lat="45.89375" lon="6.34075">
        <ele>672</ele>
        <time>2026-08-19T05:02:23.566Z</time>
      </trkpt>
      <trkpt lat="45.89376" lon="6.34077">
        <ele>672</ele>
        <time>2026-08-19T05:02:24.566Z</time>
      </trkpt>
      <trkpt lat="45.89377" lon="6.3408">
        <ele>672</ele>
        <time>2026-08-19T05:02:25.566Z</time>
      </trkpt>
      <trkpt lat="45.8938" lon="6.34082">
        <ele>672</ele>
        <time>2026-08-19T05:02:26.566Z</time>
      </trkpt>
      <trkpt lat="45.89381" lon="6.34084">
        <ele>672</ele>
        <time>2026-08-19T05:02:27.566Z</time>
      </trkpt>
      <trkpt lat="45.89382" lon="6.34085">
        <ele>672</ele>
        <time>2026-08-19T05:02:28.566Z</time>
      </trkpt>
      <trkpt lat="45.89382" lon="6.34087">
        <ele>672</ele>
        <time>2026-08-19T05:02:29.566Z</time>
      </trkpt>
      <trkpt lat="45.89383" lon="6.34088">
        <ele>672</ele>
        <time>2026-08-19T05:02:30.566Z</time>
      </trkpt>
      <trkpt lat="45.89384" lon="6.34088">
        <ele>672</ele>
        <time>2026-08-19T05:02:31.566Z</time>
      </trkpt>
      <trkpt lat="45.89385" lon="6.34088">
        <ele>673</ele>
        <time>2026-08-19T05:02:32.566Z</time>
      </trkpt>
      <trkpt lat="45.89386" lon="6.34089">
        <ele>674</ele>
        <time>2026-08-19T05:02:33.566Z</time>
      </trkpt>
      <trkpt lat="45.89387" lon="6.3409">
        <ele>674</ele>
        <time>2026-08-19T05:02:34.566Z</time>
      </trkpt>
      <trkpt lat="45.89388" lon="6.34092">
        <ele>675</ele>
        <time>2026-08-19T05:02:35.566Z</time>
      </trkpt>
      <trkpt lat="45.8939" lon="6.34093">
        <ele>676</ele>
        <time>2026-08-19T05:02:36.566Z</time>
      </trkpt>
      <trkpt lat="45.89392" lon="6.34094">
        <ele>676</ele>
        <time>2026-08-19T05:02:37.566Z</time>
      </trkpt>
      <trkpt lat="45.89394" lon="6.34095">
        <ele>677</ele>
        <time>2026-08-19T05:02:38.566Z</time>
      </trkpt>
      <trkpt lat="45.89396" lon="6.34096">
        <ele>677</ele>
        <time>2026-08-19T05:02:39.566Z</time>
      </trkpt>
      <trkpt lat="45.89397" lon="6.34096">
        <ele>678</ele>
        <time>2026-08-19T05:02:40.566Z</time>
      </trkpt>
      <trkpt lat="45.894" lon="6.34096">
        <ele>678</ele>
        <time>2026-08-19T05:02:41.566Z</time>
      </trkpt>
      <trkpt lat="45.89402" lon="6.34097">
        <ele>679</ele>
        <time>2026-08-19T05:02:42.566Z</time>
      </trkpt>
      <trkpt lat="45.89404" lon="6.34098">
        <ele>679</ele>
        <time>2026-08-19T05:02:43.566Z</time>
      </trkpt>
      <trkpt lat="45.89406" lon="6.34099">
        <ele>679</ele>
        <time>2026-08-19T05:02:44.566Z</time>
      </trkpt>
      <trkpt lat="45.89407" lon="6.34101">
        <ele>679</ele>
        <time>2026-08-19T05:02:45.566Z</time>
      </trkpt>
      <trkpt lat="45.89409" lon="6.34103">
        <ele>679</ele>
        <time>2026-08-19T05:02:46.566Z</time>
      </trkpt>
      <trkpt lat="45.8941" lon="6.34105">
        <ele>678</ele>
        <time>2026-08-19T05:02:47.566Z</time>
      </trkpt>
      <trkpt lat="45.89411" lon="6.34106">
        <ele>678</ele>
        <time>2026-08-19T05:02:48.566Z</time>
      </trkpt>
      <trkpt lat="45.89412" lon="6.34108">
        <ele>678</ele>
        <time>2026-08-19T05:02:49.566Z</time>
      </trkpt>
      <trkpt lat="45.89413" lon="6.34109">
        <ele>678</ele>
        <time>2026-08-19T05:02:50.566Z</time>
      </trkpt>
      <trkpt lat="45.89414" lon="6.34111">
        <ele>677</ele>
        <time>2026-08-19T05:02:51.566Z</time>
      </trkpt>
      <trkpt lat="45.89416" lon="6.34112">
        <ele>677</ele>
        <time>2026-08-19T05:02:52.566Z</time>
      </trkpt>
      <trkpt lat="45.89417" lon="6.34113">
        <ele>677</ele>
        <time>2026-08-19T05:02:53.566Z</time>
      </trkpt>
      <trkpt lat="45.89417" lon="6.34115">
        <ele>676</ele>
        <time>2026-08-19T05:02:54.566Z</time>
      </trkpt>
      <trkpt lat="45.89419" lon="6.34115">
        <ele>676</ele>
        <time>2026-08-19T05:02:55.566Z</time>
      </trkpt>
      <trkpt lat="45.8942" lon="6.34117">
        <ele>676</ele>
        <time>2026-08-19T05:02:56.566Z</time>
      </trkpt>
      <trkpt lat="45.89422" lon="6.34118">
        <ele>676</ele>
        <time>2026-08-19T05:02:57.566Z</time>
      </trkpt>
      <trkpt lat="45.89424" lon="6.34121">
        <ele>676</ele>
        <time>2026-08-19T05:02:58.566Z</time>
      </trkpt>
      <trkpt lat="45.89426" lon="6.34122">
        <ele>676</ele>
        <time>2026-08-19T05:02:59.566Z</time>
      </trkpt>
      <trkpt lat="45.89429" lon="6.34124">
        <ele>677</ele>
        <time>2026-08-19T05:03:00.566Z</time>
      </trkpt>
      <trkpt lat="45.89431" lon="6.34126">
        <ele>676</ele>
        <time>2026-08-19T05:03:01.566Z</time>
      </trkpt>
      <trkpt lat="45.89432" lon="6.34127">
        <ele>676</ele>
        <time>2026-08-19T05:03:02.566Z</time>
      </trkpt>
      <trkpt lat="45.89433" lon="6.3413">
        <ele>677</ele>
        <time>2026-08-19T05:03:03.566Z</time>
      </trkpt>
      <trkpt lat="45.89436" lon="6.34132">
        <ele>677</ele>
        <time>2026-08-19T05:03:04.566Z</time>
      </trkpt>
      <trkpt lat="45.89438" lon="6.34135">
        <ele>677</ele>
        <time>2026-08-19T05:03:05.566Z</time>
      </trkpt>
      <trkpt lat="45.89441" lon="6.34138">
        <ele>677</ele>
        <time>2026-08-19T05:03:06.566Z</time>
      </trkpt>
      <trkpt lat="45.89443" lon="6.34141">
        <ele>677</ele>
        <time>2026-08-19T05:03:07.566Z</time>
      </trkpt>
      <trkpt lat="45.89445" lon="6.34143">
        <ele>677</ele>
        <time>2026-08-19T05:03:08.566Z</time>
      </trkpt>
      <trkpt lat="45.89446" lon="6.34145">
        <ele>677</ele>
        <time>2026-08-19T05:03:09.566Z</time>
      </trkpt>
      <trkpt lat="45.89448" lon="6.34148">
        <ele>677</ele>
        <time>2026-08-19T05:03:10.566Z</time>
      </trkpt>
      <trkpt lat="45.89449" lon="6.3415">
        <ele>677</ele>
        <time>2026-08-19T05:03:11.566Z</time>
      </trkpt>
      <trkpt lat="45.8945" lon="6.34152">
        <ele>677</ele>
        <time>2026-08-19T05:03:12.566Z</time>
      </trkpt>
      <trkpt lat="45.89451" lon="6.34156">
        <ele>677</ele>
        <time>2026-08-19T05:03:13.566Z</time>
      </trkpt>
      <trkpt lat="45.89451" lon="6.34159">
        <ele>677</ele>
        <time>2026-08-19T05:03:14.566Z</time>
      </trkpt>
      <trkpt lat="45.89452" lon="6.34162">
        <ele>676</ele>
        <time>2026-08-19T05:03:15.566Z</time>
      </trkpt>
      <trkpt lat="45.89452" lon="6.34163">
        <ele>676</ele>
        <time>2026-08-19T05:03:16.566Z</time>
      </trkpt>
      <trkpt lat="45.89454" lon="6.34166">
        <ele>676</ele>
        <time>2026-08-19T05:03:17.566Z</time>
      </trkpt>
      <trkpt lat="45.89455" lon="6.34168">
        <ele>676</ele>
        <time>2026-08-19T05:03:18.566Z</time>
      </trkpt>
      <trkpt lat="45.89457" lon="6.34171">
        <ele>675</ele>
        <time>2026-08-19T05:03:19.566Z</time>
      </trkpt>
      <trkpt lat="45.89458" lon="6.34173">
        <ele>675</ele>
        <time>2026-08-19T05:03:20.566Z</time>
      </trkpt>
      <trkpt lat="45.8946" lon="6.34175">
        <ele>675</ele>
        <time>2026-08-19T05:03:21.566Z</time>
      </trkpt>
      <trkpt lat="45.89462" lon="6.34176">
        <ele>675</ele>
        <time>2026-08-19T05:03:22.566Z</time>
      </trkpt>
      <trkpt lat="45.89462" lon="6.34179">
        <ele>675</ele>
        <time>2026-08-19T05:03:23.566Z</time>
      </trkpt>
      <trkpt lat="45.89464" lon="6.34181">
        <ele>676</ele>
        <time>2026-08-19T05:03:24.566Z</time>
      </trkpt>
      <trkpt lat="45.89464" lon="6.34183">
        <ele>676</ele>
        <time>2026-08-19T05:03:25.566Z</time>
      </trkpt>
      <trkpt lat="45.89465" lon="6.34185">
        <ele>676</ele>
        <time>2026-08-19T05:03:26.566Z</time>
      </trkpt>
      <trkpt lat="45.89466" lon="6.34187">
        <ele>676</ele>
        <time>2026-08-19T05:03:27.566Z</time>
      </trkpt>
      <trkpt lat="45.89467" lon="6.34189">
        <ele>676</ele>
        <time>2026-08-19T05:03:28.566Z</time>
      </trkpt>
      <trkpt lat="45.89469" lon="6.3419">
        <ele>676</ele>
        <time>2026-08-19T05:03:29.566Z</time>
      </trkpt>
      <trkpt lat="45.89471" lon="6.34192">
        <ele>676</ele>
        <time>2026-08-19T05:03:30.566Z</time>
      </trkpt>
      <trkpt lat="45.89472" lon="6.34194">
        <ele>676</ele>
        <time>2026-08-19T05:03:31.566Z</time>
      </trkpt>
      <trkpt lat="45.89473" lon="6.34197">
        <ele>676</ele>
        <time>2026-08-19T05:03:32.566Z</time>
      </trkpt>
      <trkpt lat="45.89475" lon="6.34199">
        <ele>675</ele>
        <time>2026-08-19T05:03:33.566Z</time>
      </trkpt>
      <trkpt lat="45.89476" lon="6.34202">
        <ele>675</ele>
        <time>2026-08-19T05:03:34.566Z</time>
      </trkpt>
      <trkpt lat="45.89477" lon="6.34205">
        <ele>675</ele>
        <time>2026-08-19T05:03:35.566Z</time>
      </trkpt>
      <trkpt lat="45.89479" lon="6.34208">
        <ele>675</ele>
        <time>2026-08-19T05:03:36.566Z</time>
      </trkpt>
      <trkpt lat="45.89481" lon="6.34211">
        <ele>676</ele>
        <time>2026-08-19T05:03:37.566Z</time>
      </trkpt>
      <trkpt lat="45.89483" lon="6.34213">
        <ele>676</ele>
        <time>2026-08-19T05:03:38.566Z</time>
      </trkpt>
      <trkpt lat="45.89484" lon="6.34216">
        <ele>676</ele>
        <time>2026-08-19T05:03:39.566Z</time>
      </trkpt>
      <trkpt lat="45.89486" lon="6.34218">
        <ele>676</ele>
        <time>2026-08-19T05:03:40.566Z</time>
      </trkpt>
      <trkpt lat="45.89488" lon="6.34221">
        <ele>676</ele>
        <time>2026-08-19T05:03:41.566Z</time>
      </trkpt>
      <trkpt lat="45.8949" lon="6.34223">
        <ele>676</ele>
        <time>2026-08-19T05:03:42.566Z</time>
      </trkpt>
      <trkpt lat="45.89492" lon="6.34226">
        <ele>675</ele>
        <time>2026-08-19T05:03:43.566Z</time>
      </trkpt>
      <trkpt lat="45.89493" lon="6.34228">
        <ele>674</ele>
        <time>2026-08-19T05:03:44.566Z</time>
      </trkpt>
      <trkpt lat="45.89494" lon="6.3423">
        <ele>674</ele>
        <time>2026-08-19T05:03:45.566Z</time>
      </trkpt>
      <trkpt lat="45.89496" lon="6.34233">
        <ele>673</ele>
        <time>2026-08-19T05:03:46.566Z</time>
      </trkpt>
      <trkpt lat="45.89498" lon="6.34235">
        <ele>672</ele>
        <time>2026-08-19T05:03:47.566Z</time>
      </trkpt>
      <trkpt lat="45.895" lon="6.34237">
        <ele>672</ele>
        <time>2026-08-19T05:03:48.566Z</time>
      </trkpt>
      <trkpt lat="45.89501" lon="6.3424">
        <ele>671</ele>
        <time>2026-08-19T05:03:49.566Z</time>
      </trkpt>
      <trkpt lat="45.89502" lon="6.34242">
        <ele>671</ele>
        <time>2026-08-19T05:03:50.566Z</time>
      </trkpt>
      <trkpt lat="45.89503" lon="6.34245">
        <ele>670</ele>
        <time>2026-08-19T05:03:51.566Z</time>
      </trkpt>
      <trkpt lat="45.89504" lon="6.34248">
        <ele>670</ele>
        <time>2026-08-19T05:03:52.566Z</time>
      </trkpt>
      <trkpt lat="45.89506" lon="6.3425">
        <ele>670</ele>
        <time>2026-08-19T05:03:53.566Z</time>
      </trkpt>
      <trkpt lat="45.89507" lon="6.34253">
        <ele>669</ele>
        <time>2026-08-19T05:03:54.566Z</time>
      </trkpt>
      <trkpt lat="45.89509" lon="6.34255">
        <ele>669</ele>
        <time>2026-08-19T05:03:55.566Z</time>
      </trkpt>
      <trkpt lat="45.8951" lon="6.34257">
        <ele>669</ele>
        <time>2026-08-19T05:03:56.566Z</time>
      </trkpt>
      <trkpt lat="45.89512" lon="6.3426">
        <ele>668</ele>
        <time>2026-08-19T05:03:57.566Z</time>
      </trkpt>
      <trkpt lat="45.89514" lon="6.34262">
        <ele>668</ele>
        <time>2026-08-19T05:03:58.566Z</time>
      </trkpt>
      <trkpt lat="45.89515" lon="6.34264">
        <ele>667</ele>
        <time>2026-08-19T05:03:59.566Z</time>
      </trkpt>
      <trkpt lat="45.89518" lon="6.34267">
        <ele>667</ele>
        <time>2026-08-19T05:04:00.566Z</time>
      </trkpt>
      <trkpt lat="45.8952" lon="6.34269">
        <ele>667</ele>
        <time>2026-08-19T05:04:01.566Z</time>
      </trkpt>
      <trkpt lat="45.89523" lon="6.34272">
        <ele>667</ele>
        <time>2026-08-19T05:04:02.566Z</time>
      </trkpt>
      <trkpt lat="45.89524" lon="6.34274">
        <ele>667</ele>
        <time>2026-08-19T05:04:03.566Z</time>
      </trkpt>
      <trkpt lat="45.89526" lon="6.34277">
        <ele>667</ele>
        <time>2026-08-19T05:04:04.566Z</time>
      </trkpt>
      <trkpt lat="45.89528" lon="6.34279">
        <ele>667</ele>
        <time>2026-08-19T05:04:05.566Z</time>
      </trkpt>
      <trkpt lat="45.89531" lon="6.34282">
        <ele>666</ele>
        <time>2026-08-19T05:04:06.566Z</time>
      </trkpt>
      <trkpt lat="45.89533" lon="6.34284">
        <ele>666</ele>
        <time>2026-08-19T05:04:07.566Z</time>
      </trkpt>
      <trkpt lat="45.89535" lon="6.34286">
        <ele>665</ele>
        <time>2026-08-19T05:04:08.566Z</time>
      </trkpt>
      <trkpt lat="45.89537" lon="6.34288">
        <ele>665</ele>
        <time>2026-08-19T05:04:09.566Z</time>
      </trkpt>
      <trkpt lat="45.89538" lon="6.3429">
        <ele>665</ele>
        <time>2026-08-19T05:04:10.566Z</time>
      </trkpt>
      <trkpt lat="45.8954" lon="6.34293">
        <ele>664</ele>
        <time>2026-08-19T05:04:11.566Z</time>
      </trkpt>
      <trkpt lat="45.89542" lon="6.34296">
        <ele>664</ele>
        <time>2026-08-19T05:04:12.566Z</time>
      </trkpt>
      <trkpt lat="45.89544" lon="6.34298">
        <ele>664</ele>
        <time>2026-08-19T05:04:13.566Z</time>
      </trkpt>
      <trkpt lat="45.89545" lon="6.343">
        <ele>664</ele>
        <time>2026-08-19T05:04:14.566Z</time>
      </trkpt>
      <trkpt lat="45.89547" lon="6.34302">
        <ele>663</ele>
        <time>2026-08-19T05:04:15.566Z</time>
      </trkpt>
      <trkpt lat="45.89549" lon="6.34304">
        <ele>663</ele>
        <time>2026-08-19T05:04:16.566Z</time>
      </trkpt>
      <trkpt lat="45.8955" lon="6.34306">
        <ele>663</ele>
        <time>2026-08-19T05:04:17.566Z</time>
      </trkpt>
      <trkpt lat="45.89551" lon="6.34308">
        <ele>663</ele>
        <time>2026-08-19T05:04:18.566Z</time>
      </trkpt>
      <trkpt lat="45.89553" lon="6.3431">
        <ele>663</ele>
        <time>2026-08-19T05:04:19.566Z</time>
      </trkpt>
      <trkpt lat="45.89554" lon="6.34312">
        <ele>663</ele>
        <time>2026-08-19T05:04:20.566Z</time>
      </trkpt>
      <trkpt lat="45.89556" lon="6.34313">
        <ele>663</ele>
        <time>2026-08-19T05:04:21.566Z</time>
      </trkpt>
      <trkpt lat="45.89558" lon="6.34315">
        <ele>662</ele>
        <time>2026-08-19T05:04:22.566Z</time>
      </trkpt>
      <trkpt lat="45.8956" lon="6.34317">
        <ele>663</ele>
        <time>2026-08-19T05:04:23.566Z</time>
      </trkpt>
      <trkpt lat="45.89561" lon="6.34319">
        <ele>663</ele>
        <time>2026-08-19T05:04:24.566Z</time>
      </trkpt>
      <trkpt lat="45.89563" lon="6.34321">
        <ele>663</ele>
        <time>2026-08-19T05:04:25.566Z</time>
      </trkpt>
      <trkpt lat="45.89564" lon="6.34322">
        <ele>664</ele>
        <time>2026-08-19T05:04:26.566Z</time>
      </trkpt>
      <trkpt lat="45.89566" lon="6.34324">
        <ele>664</ele>
        <time>2026-08-19T05:04:27.566Z</time>
      </trkpt>
      <trkpt lat="45.89568" lon="6.34326">
        <ele>664</ele>
        <time>2026-08-19T05:04:28.566Z</time>
      </trkpt>
      <trkpt lat="45.8957" lon="6.34327">
        <ele>665</ele>
        <time>2026-08-19T05:04:29.566Z</time>
      </trkpt>
      <trkpt lat="45.89572" lon="6.34329">
        <ele>665</ele>
        <time>2026-08-19T05:04:30.566Z</time>
      </trkpt>
      <trkpt lat="45.89574" lon="6.34331">
        <ele>665</ele>
        <time>2026-08-19T05:04:31.566Z</time>
      </trkpt>
      <trkpt lat="45.89576" lon="6.34334">
        <ele>666</ele>
        <time>2026-08-19T05:04:32.566Z</time>
      </trkpt>
      <trkpt lat="45.89578" lon="6.34336">
        <ele>666</ele>
        <time>2026-08-19T05:04:33.566Z</time>
      </trkpt>
      <trkpt lat="45.89579" lon="6.34338">
        <ele>667</ele>
        <time>2026-08-19T05:04:34.566Z</time>
      </trkpt>
      <trkpt lat="45.89581" lon="6.3434">
        <ele>667</ele>
        <time>2026-08-19T05:04:35.566Z</time>
      </trkpt>
      <trkpt lat="45.89583" lon="6.34342">
        <ele>668</ele>
        <time>2026-08-19T05:04:36.566Z</time>
      </trkpt>
      <trkpt lat="45.89585" lon="6.34345">
        <ele>668</ele>
        <time>2026-08-19T05:04:37.566Z</time>
      </trkpt>
      <trkpt lat="45.89586" lon="6.34346">
        <ele>669</ele>
        <time>2026-08-19T05:04:38.566Z</time>
      </trkpt>
      <trkpt lat="45.89588" lon="6.34348">
        <ele>669</ele>
        <time>2026-08-19T05:04:39.566Z</time>
      </trkpt>
      <trkpt lat="45.8959" lon="6.34349">
        <ele>669</ele>
        <time>2026-08-19T05:04:40.566Z</time>
      </trkpt>
      <trkpt lat="45.89591" lon="6.3435">
        <ele>669</ele>
        <time>2026-08-19T05:04:41.566Z</time>
      </trkpt>
      <trkpt lat="45.89593" lon="6.34351">
        <ele>669</ele>
        <time>2026-08-19T05:04:42.566Z</time>
      </trkpt>
      <trkpt lat="45.89595" lon="6.34352">
        <ele>670</ele>
        <time>2026-08-19T05:04:43.566Z</time>
      </trkpt>
      <trkpt lat="45.89597" lon="6.34354">
        <ele>670</ele>
        <time>2026-08-19T05:04:44.566Z</time>
      </trkpt>
      <trkpt lat="45.89598" lon="6.34356">
        <ele>671</ele>
        <time>2026-08-19T05:04:45.566Z</time>
      </trkpt>
      <trkpt lat="45.896" lon="6.34358">
        <ele>671</ele>
        <time>2026-08-19T05:04:46.566Z</time>
      </trkpt>
      <trkpt lat="45.89602" lon="6.3436">
        <ele>671</ele>
        <time>2026-08-19T05:04:47.566Z</time>
      </trkpt>
      <trkpt lat="45.89604" lon="6.34362">
        <ele>671</ele>
        <time>2026-08-19T05:04:48.566Z</time>
      </trkpt>
      <trkpt lat="45.89607" lon="6.34364">
        <ele>671</ele>
        <time>2026-08-19T05:04:49.566Z</time>
      </trkpt>
      <trkpt lat="45.89608" lon="6.34365">
        <ele>672</ele>
        <time>2026-08-19T05:04:50.566Z</time>
      </trkpt>
      <trkpt lat="45.89611" lon="6.34367">
        <ele>672</ele>
        <time>2026-08-19T05:04:51.566Z</time>
      </trkpt>
      <trkpt lat="45.89612" lon="6.34368">
        <ele>672</ele>
        <time>2026-08-19T05:04:52.566Z</time>
      </trkpt>
      <trkpt lat="45.89614" lon="6.3437">
        <ele>672</ele>
        <time>2026-08-19T05:04:53.566Z</time>
      </trkpt>
      <trkpt lat="45.89616" lon="6.34371">
        <ele>672</ele>
        <time>2026-08-19T05:04:54.566Z</time>
      </trkpt>
      <trkpt lat="45.89618" lon="6.34374">
        <ele>672</ele>
        <time>2026-08-19T05:04:55.566Z</time>
      </trkpt>
      <trkpt lat="45.8962" lon="6.34376">
        <ele>672</ele>
        <time>2026-08-19T05:04:56.566Z</time>
      </trkpt>
      <trkpt lat="45.89621" lon="6.34379">
        <ele>672</ele>
        <time>2026-08-19T05:04:57.566Z</time>
      </trkpt>
      <trkpt lat="45.89622" lon="6.34381">
        <ele>672</ele>
        <time>2026-08-19T05:04:58.566Z</time>
      </trkpt>
      <trkpt lat="45.89623" lon="6.34384">
        <ele>672</ele>
        <time>2026-08-19T05:04:59.566Z</time>
      </trkpt>
      <trkpt lat="45.89624" lon="6.34387">
        <ele>671</ele>
        <time>2026-08-19T05:05:00.566Z</time>
      </trkpt>
      <trkpt lat="45.89626" lon="6.34391">
        <ele>670</ele>
        <time>2026-08-19T05:05:01.566Z</time>
      </trkpt>
      <trkpt lat="45.89626" lon="6.34392">
        <ele>670</ele>
        <time>2026-08-19T05:05:02.566Z</time>
      </trkpt>
      <trkpt lat="45.89627" lon="6.34394">
        <ele>670</ele>
        <time>2026-08-19T05:05:03.566Z</time>
      </trkpt>
      <trkpt lat="45.89628" lon="6.34395">
        <ele>671</ele>
        <time>2026-08-19T05:05:04.566Z</time>
      </trkpt>
      <trkpt lat="45.89629" lon="6.34395">
        <ele>670</ele>
        <time>2026-08-19T05:05:05.566Z</time>
      </trkpt>
      <trkpt lat="45.8963" lon="6.34396">
        <ele>670</ele>
        <time>2026-08-19T05:05:06.566Z</time>
      </trkpt>
      <trkpt lat="45.89632" lon="6.34398">
        <ele>670</ele>
        <time>2026-08-19T05:05:07.566Z</time>
      </trkpt>
      <trkpt lat="45.89634" lon="6.34399">
        <ele>670</ele>
        <time>2026-08-19T05:05:08.566Z</time>
      </trkpt>
      <trkpt lat="45.89636" lon="6.344">
        <ele>670</ele>
        <time>2026-08-19T05:05:09.566Z</time>
      </trkpt>
      <trkpt lat="45.89639" lon="6.34402">
        <ele>670</ele>
        <time>2026-08-19T05:05:10.566Z</time>
      </trkpt>
      <trkpt lat="45.89641" lon="6.34403">
        <ele>670</ele>
        <time>2026-08-19T05:05:11.566Z</time>
      </trkpt>
      <trkpt lat="45.89642" lon="6.34405">
        <ele>669</ele>
        <time>2026-08-19T05:05:12.566Z</time>
      </trkpt>
      <trkpt lat="45.89643" lon="6.34407">
        <ele>669</ele>
        <time>2026-08-19T05:05:13.566Z</time>
      </trkpt>
      <trkpt lat="45.89645" lon="6.34409">
        <ele>669</ele>
        <time>2026-08-19T05:05:14.566Z</time>
      </trkpt>
      <trkpt lat="45.89647" lon="6.34411">
        <ele>669</ele>
        <time>2026-08-19T05:05:15.566Z</time>
      </trkpt>
      <trkpt lat="45.89648" lon="6.34414">
        <ele>669</ele>
        <time>2026-08-19T05:05:16.566Z</time>
      </trkpt>
      <trkpt lat="45.89649" lon="6.34415">
        <ele>669</ele>
        <time>2026-08-19T05:05:17.566Z</time>
      </trkpt>
      <trkpt lat="45.8965" lon="6.34417">
        <ele>669</ele>
        <time>2026-08-19T05:05:18.566Z</time>
      </trkpt>
      <trkpt lat="45.89651" lon="6.34418">
        <ele>669</ele>
        <time>2026-08-19T05:05:19.566Z</time>
      </trkpt>
      <trkpt lat="45.89651" lon="6.34418">
        <ele>668</ele>
        <time>2026-08-19T05:05:20.566Z</time>
      </trkpt>
      <trkpt lat="45.89652" lon="6.34419">
        <ele>668</ele>
        <time>2026-08-19T05:05:21.566Z</time>
      </trkpt>
      <trkpt lat="45.89653" lon="6.34419">
        <ele>668</ele>
        <time>2026-08-19T05:05:22.566Z</time>
      </trkpt>
      <trkpt lat="45.89656" lon="6.3442">
        <ele>667</ele>
        <time>2026-08-19T05:05:23.566Z</time>
      </trkpt>
      <trkpt lat="45.89657" lon="6.34421">
        <ele>667</ele>
        <time>2026-08-19T05:05:24.566Z</time>
      </trkpt>
      <trkpt lat="45.89659" lon="6.34423">
        <ele>667</ele>
        <time>2026-08-19T05:05:25.566Z</time>
      </trkpt>
      <trkpt lat="45.89661" lon="6.34424">
        <ele>666</ele>
        <time>2026-08-19T05:05:26.566Z</time>
      </trkpt>
      <trkpt lat="45.89663" lon="6.34426">
        <ele>666</ele>
        <time>2026-08-19T05:05:27.566Z</time>
      </trkpt>
      <trkpt lat="45.89664" lon="6.34428">
        <ele>666</ele>
        <time>2026-08-19T05:05:28.566Z</time>
      </trkpt>
      <trkpt lat="45.89666" lon="6.3443">
        <ele>666</ele>
        <time>2026-08-19T05:05:29.566Z</time>
      </trkpt>
      <trkpt lat="45.89668" lon="6.34431">
        <ele>666</ele>
        <time>2026-08-19T05:05:30.566Z</time>
      </trkpt>
      <trkpt lat="45.8967" lon="6.34433">
        <ele>666</ele>
        <time>2026-08-19T05:05:31.566Z</time>
      </trkpt>
      <trkpt lat="45.89672" lon="6.34434">
        <ele>666</ele>
        <time>2026-08-19T05:05:32.566Z</time>
      </trkpt>
      <trkpt lat="45.89674" lon="6.34437">
        <ele>667</ele>
        <time>2026-08-19T05:05:33.566Z</time>
      </trkpt>
      <trkpt lat="45.89676" lon="6.34439">
        <ele>667</ele>
        <time>2026-08-19T05:05:34.566Z</time>
      </trkpt>
      <trkpt lat="45.89678" lon="6.34441">
        <ele>667</ele>
        <time>2026-08-19T05:05:35.566Z</time>
      </trkpt>
      <trkpt lat="45.89681" lon="6.34442">
        <ele>667</ele>
        <time>2026-08-19T05:05:36.566Z</time>
      </trkpt>
      <trkpt lat="45.89684" lon="6.34445">
        <ele>667</ele>
        <time>2026-08-19T05:05:37.566Z</time>
      </trkpt>
      <trkpt lat="45.89685" lon="6.34447">
        <ele>668</ele>
        <time>2026-08-19T05:05:38.566Z</time>
      </trkpt>
      <trkpt lat="45.89686" lon="6.34448">
        <ele>668</ele>
        <time>2026-08-19T05:05:39.566Z</time>
      </trkpt>
      <trkpt lat="45.89688" lon="6.34449">
        <ele>669</ele>
        <time>2026-08-19T05:05:40.566Z</time>
      </trkpt>
      <trkpt lat="45.89689" lon="6.34451">
        <ele>669</ele>
        <time>2026-08-19T05:05:41.566Z</time>
      </trkpt>
      <trkpt lat="45.8969" lon="6.34453">
        <ele>669</ele>
        <time>2026-08-19T05:05:42.566Z</time>
      </trkpt>
      <trkpt lat="45.89691" lon="6.34455">
        <ele>669</ele>
        <time>2026-08-19T05:05:43.566Z</time>
      </trkpt>
      <trkpt lat="45.89692" lon="6.34457">
        <ele>669</ele>
        <time>2026-08-19T05:05:44.566Z</time>
      </trkpt>
      <trkpt lat="45.89692" lon="6.34459">
        <ele>669</ele>
        <time>2026-08-19T05:05:45.566Z</time>
      </trkpt>
      <trkpt lat="45.89693" lon="6.34461">
        <ele>669</ele>
        <time>2026-08-19T05:05:46.566Z</time>
      </trkpt>
      <trkpt lat="45.89694" lon="6.34463">
        <ele>670</ele>
        <time>2026-08-19T05:05:47.566Z</time>
      </trkpt>
      <trkpt lat="45.89696" lon="6.34466">
        <ele>670</ele>
        <time>2026-08-19T05:05:48.566Z</time>
      </trkpt>
      <trkpt lat="45.89698" lon="6.34468">
        <ele>670</ele>
        <time>2026-08-19T05:05:49.566Z</time>
      </trkpt>
      <trkpt lat="45.89699" lon="6.3447">
        <ele>670</ele>
        <time>2026-08-19T05:05:50.566Z</time>
      </trkpt>
      <trkpt lat="45.89701" lon="6.34473">
        <ele>670</ele>
        <time>2026-08-19T05:05:51.566Z</time>
      </trkpt>
      <trkpt lat="45.89703" lon="6.34476">
        <ele>670</ele>
        <time>2026-08-19T05:05:52.566Z</time>
      </trkpt>
      <trkpt lat="45.89705" lon="6.34479">
        <ele>670</ele>
        <time>2026-08-19T05:05:53.566Z</time>
      </trkpt>
      <trkpt lat="45.89707" lon="6.34481">
        <ele>670</ele>
        <time>2026-08-19T05:05:54.566Z</time>
      </trkpt>
      <trkpt lat="45.89708" lon="6.34482">
        <ele>670</ele>
        <time>2026-08-19T05:05:55.566Z</time>
      </trkpt>
      <trkpt lat="45.89709" lon="6.34484">
        <ele>670</ele>
        <time>2026-08-19T05:05:56.566Z</time>
      </trkpt>
      <trkpt lat="45.89711" lon="6.34486">
        <ele>671</ele>
        <time>2026-08-19T05:05:57.566Z</time>
      </trkpt>
      <trkpt lat="45.89712" lon="6.34489">
        <ele>671</ele>
        <time>2026-08-19T05:05:58.566Z</time>
      </trkpt>
      <trkpt lat="45.89714" lon="6.34491">
        <ele>672</ele>
        <time>2026-08-19T05:05:59.566Z</time>
      </trkpt>
      <trkpt lat="45.89715" lon="6.34493">
        <ele>672</ele>
        <time>2026-08-19T05:06:00.566Z</time>
      </trkpt>
      <trkpt lat="45.89717" lon="6.34496">
        <ele>673</ele>
        <time>2026-08-19T05:06:01.566Z</time>
      </trkpt>
      <trkpt lat="45.89718" lon="6.34497">
        <ele>673</ele>
        <time>2026-08-19T05:06:02.566Z</time>
      </trkpt>
      <trkpt lat="45.8972" lon="6.34501">
        <ele>674</ele>
        <time>2026-08-19T05:06:03.566Z</time>
      </trkpt>
      <trkpt lat="45.89722" lon="6.34504">
        <ele>675</ele>
        <time>2026-08-19T05:06:04.566Z</time>
      </trkpt>
      <trkpt lat="45.89724" lon="6.34507">
        <ele>676</ele>
        <time>2026-08-19T05:06:05.566Z</time>
      </trkpt>
      <trkpt lat="45.89726" lon="6.34511">
        <ele>676</ele>
        <time>2026-08-19T05:06:06.566Z</time>
      </trkpt>
      <trkpt lat="45.89727" lon="6.34514">
        <ele>677</ele>
        <time>2026-08-19T05:06:07.566Z</time>
      </trkpt>
      <trkpt lat="45.89727" lon="6.34517">
        <ele>677</ele>
        <time>2026-08-19T05:06:08.566Z</time>
      </trkpt>
      <trkpt lat="45.89728" lon="6.3452">
        <ele>677</ele>
        <time>2026-08-19T05:06:09.566Z</time>
      </trkpt>
      <trkpt lat="45.8973" lon="6.34523">
        <ele>678</ele>
        <time>2026-08-19T05:06:10.566Z</time>
      </trkpt>
      <trkpt lat="45.89731" lon="6.34526">
        <ele>678</ele>
        <time>2026-08-19T05:06:11.566Z</time>
      </trkpt>
      <trkpt lat="45.89731" lon="6.34529">
        <ele>678</ele>
        <time>2026-08-19T05:06:12.566Z</time>
      </trkpt>
      <trkpt lat="45.89734" lon="6.34531">
        <ele>679</ele>
        <time>2026-08-19T05:06:13.566Z</time>
      </trkpt>
      <trkpt lat="45.89734" lon="6.34534">
        <ele>679</ele>
        <time>2026-08-19T05:06:14.566Z</time>
      </trkpt>
      <trkpt lat="45.89734" lon="6.34538">
        <ele>679</ele>
        <time>2026-08-19T05:06:15.566Z</time>
      </trkpt>
      <trkpt lat="45.89735" lon="6.34541">
        <ele>679</ele>
        <time>2026-08-19T05:06:16.566Z</time>
      </trkpt>
      <trkpt lat="45.89736" lon="6.34545">
        <ele>678</ele>
        <time>2026-08-19T05:06:17.566Z</time>
      </trkpt>
      <trkpt lat="45.89736" lon="6.34547">
        <ele>677</ele>
        <time>2026-08-19T05:06:18.566Z</time>
      </trkpt>
      <trkpt lat="45.89737" lon="6.3455">
        <ele>677</ele>
        <time>2026-08-19T05:06:19.566Z</time>
      </trkpt>
      <trkpt lat="45.89737" lon="6.34553">
        <ele>677</ele>
        <time>2026-08-19T05:06:20.566Z</time>
      </trkpt>
      <trkpt lat="45.89738" lon="6.34557">
        <ele>676</ele>
        <time>2026-08-19T05:06:21.566Z</time>
      </trkpt>
      <trkpt lat="45.89738" lon="6.3456">
        <ele>676</ele>
        <time>2026-08-19T05:06:22.566Z</time>
      </trkpt>
      <trkpt lat="45.89739" lon="6.34563">
        <ele>676</ele>
        <time>2026-08-19T05:06:23.566Z</time>
      </trkpt>
      <trkpt lat="45.8974" lon="6.34566">
        <ele>675</ele>
        <time>2026-08-19T05:06:24.566Z</time>
      </trkpt>
      <trkpt lat="45.89741" lon="6.34569">
        <ele>675</ele>
        <time>2026-08-19T05:06:25.566Z</time>
      </trkpt>
      <trkpt lat="45.89742" lon="6.34572">
        <ele>675</ele>
        <time>2026-08-19T05:06:26.566Z</time>
      </trkpt>
      <trkpt lat="45.89743" lon="6.34575">
        <ele>675</ele>
        <time>2026-08-19T05:06:27.566Z</time>
      </trkpt>
      <trkpt lat="45.89743" lon="6.34578">
        <ele>675</ele>
        <time>2026-08-19T05:06:28.566Z</time>
      </trkpt>
      <trkpt lat="45.89744" lon="6.34581">
        <ele>674</ele>
        <time>2026-08-19T05:06:29.566Z</time>
      </trkpt>
      <trkpt lat="45.89745" lon="6.34584">
        <ele>674</ele>
        <time>2026-08-19T05:06:30.566Z</time>
      </trkpt>
      <trkpt lat="45.89745" lon="6.34588">
        <ele>673</ele>
        <time>2026-08-19T05:06:31.566Z</time>
      </trkpt>
      <trkpt lat="45.89746" lon="6.34591">
        <ele>673</ele>
        <time>2026-08-19T05:06:32.566Z</time>
      </trkpt>
      <trkpt lat="45.89747" lon="6.34594">
        <ele>673</ele>
        <time>2026-08-19T05:06:33.566Z</time>
      </trkpt>
      <trkpt lat="45.89747" lon="6.34597">
        <ele>672</ele>
        <time>2026-08-19T05:06:34.566Z</time>
      </trkpt>
      <trkpt lat="45.89748" lon="6.346">
        <ele>672</ele>
        <time>2026-08-19T05:06:35.566Z</time>
      </trkpt>
      <trkpt lat="45.89749" lon="6.34603">
        <ele>671</ele>
        <time>2026-08-19T05:06:36.566Z</time>
      </trkpt>
      <trkpt lat="45.8975" lon="6.34606">
        <ele>671</ele>
        <time>2026-08-19T05:06:37.566Z</time>
      </trkpt>
      <trkpt lat="45.89751" lon="6.34609">
        <ele>671</ele>
        <time>2026-08-19T05:06:38.566Z</time>
      </trkpt>
      <trkpt lat="45.89752" lon="6.34612">
        <ele>671</ele>
        <time>2026-08-19T05:06:39.566Z</time>
      </trkpt>
      <trkpt lat="45.89752" lon="6.34615">
        <ele>671</ele>
        <time>2026-08-19T05:06:40.566Z</time>
      </trkpt>
      <trkpt lat="45.89753" lon="6.34618">
        <ele>670</ele>
        <time>2026-08-19T05:06:41.566Z</time>
      </trkpt>
      <trkpt lat="45.89753" lon="6.34621">
        <ele>670</ele>
        <time>2026-08-19T05:06:42.566Z</time>
      </trkpt>
      <trkpt lat="45.89754" lon="6.34623">
        <ele>670</ele>
        <time>2026-08-19T05:06:43.566Z</time>
      </trkpt>
      <trkpt lat="45.89754" lon="6.34626">
        <ele>670</ele>
        <time>2026-08-19T05:06:44.566Z</time>
      </trkpt>
      <trkpt lat="45.89755" lon="6.34629">
        <ele>670</ele>
        <time>2026-08-19T05:06:45.566Z</time>
      </trkpt>
      <trkpt lat="45.89755" lon="6.3463">
        <ele>670</ele>
        <time>2026-08-19T05:06:46.566Z</time>
      </trkpt>
      <trkpt lat="45.89756" lon="6.34633">
        <ele>670</ele>
        <time>2026-08-19T05:06:47.566Z</time>
      </trkpt>
      <trkpt lat="45.89758" lon="6.34636">
        <ele>670</ele>
        <time>2026-08-19T05:06:48.566Z</time>
      </trkpt>
      <trkpt lat="45.89759" lon="6.34638">
        <ele>671</ele>
        <time>2026-08-19T05:06:49.566Z</time>
      </trkpt>
      <trkpt lat="45.8976" lon="6.34641">
        <ele>671</ele>
        <time>2026-08-19T05:06:50.566Z</time>
      </trkpt>
      <trkpt lat="45.8976" lon="6.34642">
        <ele>671</ele>
        <time>2026-08-19T05:06:51.566Z</time>
      </trkpt>
      <trkpt lat="45.89761" lon="6.34645">
        <ele>672</ele>
        <time>2026-08-19T05:06:52.566Z</time>
      </trkpt>
      <trkpt lat="45.89762" lon="6.34646">
        <ele>673</ele>
        <time>2026-08-19T05:06:53.566Z</time>
      </trkpt>
      <trkpt lat="45.89762" lon="6.34648">
        <ele>673</ele>
        <time>2026-08-19T05:06:54.566Z</time>
      </trkpt>
      <trkpt lat="45.89763" lon="6.34651">
        <ele>674</ele>
        <time>2026-08-19T05:06:55.566Z</time>
      </trkpt>
      <trkpt lat="45.89764" lon="6.34653">
        <ele>675</ele>
        <time>2026-08-19T05:06:56.566Z</time>
      </trkpt>
      <trkpt lat="45.89765" lon="6.34656">
        <ele>676</ele>
        <time>2026-08-19T05:06:57.566Z</time>
      </trkpt>
      <trkpt lat="45.89766" lon="6.34658">
        <ele>676</ele>
        <time>2026-08-19T05:06:58.566Z</time>
      </trkpt>
      <trkpt lat="45.89768" lon="6.34661">
        <ele>677</ele>
        <time>2026-08-19T05:06:59.566Z</time>
      </trkpt>
      <trkpt lat="45.89769" lon="6.34663">
        <ele>678</ele>
        <time>2026-08-19T05:07:00.566Z</time>
      </trkpt>
      <trkpt lat="45.89771" lon="6.34665">
        <ele>678</ele>
        <time>2026-08-19T05:07:01.566Z</time>
      </trkpt>
      <trkpt lat="45.89772" lon="6.34667">
        <ele>679</ele>
        <time>2026-08-19T05:07:02.566Z</time>
      </trkpt>
      <trkpt lat="45.89772" lon="6.3467">
        <ele>679</ele>
        <time>2026-08-19T05:07:03.566Z</time>
      </trkpt>
      <trkpt lat="45.89773" lon="6.34672">
        <ele>679</ele>
        <time>2026-08-19T05:07:04.566Z</time>
      </trkpt>
      <trkpt lat="45.89774" lon="6.34675">
        <ele>680</ele>
        <time>2026-08-19T05:07:05.566Z</time>
      </trkpt>
      <trkpt lat="45.89775" lon="6.34678">
        <ele>680</ele>
        <time>2026-08-19T05:07:06.566Z</time>
      </trkpt>
      <trkpt lat="45.89775" lon="6.34681">
        <ele>681</ele>
        <time>2026-08-19T05:07:07.566Z</time>
      </trkpt>
      <trkpt lat="45.89776" lon="6.34683">
        <ele>681</ele>
        <time>2026-08-19T05:07:08.566Z</time>
      </trkpt>
      <trkpt lat="45.89778" lon="6.34685">
        <ele>681</ele>
        <time>2026-08-19T05:07:09.566Z</time>
      </trkpt>
      <trkpt lat="45.89779" lon="6.34686">
        <ele>681</ele>
        <time>2026-08-19T05:07:10.566Z</time>
      </trkpt>
      <trkpt lat="45.89781" lon="6.34687">
        <ele>680</ele>
        <time>2026-08-19T05:07:11.566Z</time>
      </trkpt>
      <trkpt lat="45.89783" lon="6.34688">
        <ele>680</ele>
        <time>2026-08-19T05:07:12.566Z</time>
      </trkpt>
      <trkpt lat="45.89784" lon="6.34689">
        <ele>680</ele>
        <time>2026-08-19T05:07:13.566Z</time>
      </trkpt>
      <trkpt lat="45.89786" lon="6.3469">
        <ele>680</ele>
        <time>2026-08-19T05:07:14.566Z</time>
      </trkpt>
      <trkpt lat="45.89789" lon="6.34691">
        <ele>680</ele>
        <time>2026-08-19T05:07:15.566Z</time>
      </trkpt>
      <trkpt lat="45.89791" lon="6.34691">
        <ele>680</ele>
        <time>2026-08-19T05:07:16.566Z</time>
      </trkpt>
      <trkpt lat="45.89792" lon="6.34691">
        <ele>680</ele>
        <time>2026-08-19T05:07:17.566Z</time>
      </trkpt>
      <trkpt lat="45.89795" lon="6.34692">
        <ele>680</ele>
        <time>2026-08-19T05:07:18.566Z</time>
      </trkpt>
      <trkpt lat="45.89797" lon="6.34692">
        <ele>680</ele>
        <time>2026-08-19T05:07:19.566Z</time>
      </trkpt>
      <trkpt lat="45.898" lon="6.34692">
        <ele>680</ele>
        <time>2026-08-19T05:07:20.566Z</time>
      </trkpt>
      <trkpt lat="45.89802" lon="6.34693">
        <ele>680</ele>
        <time>2026-08-19T05:07:21.566Z</time>
      </trkpt>
      <trkpt lat="45.89804" lon="6.34693">
        <ele>680</ele>
        <time>2026-08-19T05:07:22.566Z</time>
      </trkpt>
      <trkpt lat="45.89807" lon="6.34694">
        <ele>680</ele>
        <time>2026-08-19T05:07:23.566Z</time>
      </trkpt>
      <trkpt lat="45.89809" lon="6.34693">
        <ele>679</ele>
        <time>2026-08-19T05:07:24.566Z</time>
      </trkpt>
      <trkpt lat="45.89812" lon="6.34694">
        <ele>678</ele>
        <time>2026-08-19T05:07:25.566Z</time>
      </trkpt>
      <trkpt lat="45.89815" lon="6.34693">
        <ele>678</ele>
        <time>2026-08-19T05:07:26.566Z</time>
      </trkpt>
      <trkpt lat="45.89817" lon="6.34692">
        <ele>678</ele>
        <time>2026-08-19T05:07:27.566Z</time>
      </trkpt>
      <trkpt lat="45.89819" lon="6.34691">
        <ele>678</ele>
        <time>2026-08-19T05:07:28.566Z</time>
      </trkpt>
      <trkpt lat="45.8982" lon="6.34691">
        <ele>678</ele>
        <time>2026-08-19T05:07:29.566Z</time>
      </trkpt>
      <trkpt lat="45.89822" lon="6.3469">
        <ele>677</ele>
        <time>2026-08-19T05:07:30.566Z</time>
      </trkpt>
      <trkpt lat="45.89825" lon="6.34689">
        <ele>677</ele>
        <time>2026-08-19T05:07:31.566Z</time>
      </trkpt>
      <trkpt lat="45.89827" lon="6.34688">
        <ele>677</ele>
        <time>2026-08-19T05:07:32.566Z</time>
      </trkpt>
      <trkpt lat="45.8983" lon="6.34688">
        <ele>677</ele>
        <time>2026-08-19T05:07:33.566Z</time>
      </trkpt>
      <trkpt lat="45.89832" lon="6.34687">
        <ele>676</ele>
        <time>2026-08-19T05:07:34.566Z</time>
      </trkpt>
      <trkpt lat="45.89834" lon="6.34686">
        <ele>676</ele>
        <time>2026-08-19T05:07:35.566Z</time>
      </trkpt>
      <trkpt lat="45.89836" lon="6.34685">
        <ele>676</ele>
        <time>2026-08-19T05:07:36.566Z</time>
      </trkpt>
      <trkpt lat="45.89838" lon="6.34684">
        <ele>676</ele>
        <time>2026-08-19T05:07:37.566Z</time>
      </trkpt>
      <trkpt lat="45.8984" lon="6.34684">
        <ele>676</ele>
        <time>2026-08-19T05:07:38.566Z</time>
      </trkpt>
      <trkpt lat="45.89853" lon="6.34668">
        <ele>675</ele>
        <time>2026-08-19T05:07:47.566Z</time>
      </trkpt>
      <trkpt lat="45.89854" lon="6.34662">
        <ele>675</ele>
        <time>2026-08-19T05:07:48.566Z</time>
      </trkpt>
      <trkpt lat="45.89852" lon="6.34658">
        <ele>674</ele>
        <time>2026-08-19T05:07:49.566Z</time>
      </trkpt>
      <trkpt lat="45.89851" lon="6.34656">
        <ele>674</ele>
        <time>2026-08-19T05:07:50.566Z</time>
      </trkpt>
      <trkpt lat="45.89851" lon="6.34652">
        <ele>673</ele>
        <time>2026-08-19T05:07:51.566Z</time>
      </trkpt>
      <trkpt lat="45.8985" lon="6.34649">
        <ele>673</ele>
        <time>2026-08-19T05:07:52.566Z</time>
      </trkpt>
      <trkpt lat="45.89849" lon="6.34644">
        <ele>673</ele>
        <time>2026-08-19T05:07:53.566Z</time>
      </trkpt>
      <trkpt lat="45.89849" lon="6.34641">
        <ele>672</ele>
        <time>2026-08-19T05:07:54.566Z</time>
      </trkpt>
      <trkpt lat="45.89849" lon="6.34638">
        <ele>672</ele>
        <time>2026-08-19T05:07:55.566Z</time>
      </trkpt>
      <trkpt lat="45.89849" lon="6.34634">
        <ele>672</ele>
        <time>2026-08-19T05:07:56.566Z</time>
      </trkpt>
      <trkpt lat="45.8985" lon="6.34631">
        <ele>672</ele>
        <time>2026-08-19T05:07:57.566Z</time>
      </trkpt>
      <trkpt lat="45.89851" lon="6.34628">
        <ele>672</ele>
        <time>2026-08-19T05:07:58.566Z</time>
      </trkpt>
      <trkpt lat="45.89853" lon="6.34626">
        <ele>672</ele>
        <time>2026-08-19T05:07:59.566Z</time>
      </trkpt>
      <trkpt lat="45.89855" lon="6.34623">
        <ele>672</ele>
        <time>2026-08-19T05:08:00.566Z</time>
      </trkpt>
      <trkpt lat="45.89856" lon="6.3462">
        <ele>672</ele>
        <time>2026-08-19T05:08:01.566Z</time>
      </trkpt>
      <trkpt lat="45.89858" lon="6.34617">
        <ele>673</ele>
        <time>2026-08-19T05:08:02.566Z</time>
      </trkpt>
      <trkpt lat="45.89859" lon="6.34615">
        <ele>673</ele>
        <time>2026-08-19T05:08:03.566Z</time>
      </trkpt>
      <trkpt lat="45.89861" lon="6.34612">
        <ele>674</ele>
        <time>2026-08-19T05:08:04.566Z</time>
      </trkpt>
      <trkpt lat="45.89862" lon="6.34609">
        <ele>674</ele>
        <time>2026-08-19T05:08:05.566Z</time>
      </trkpt>
      <trkpt lat="45.89863" lon="6.34606">
        <ele>675</ele>
        <time>2026-08-19T05:08:06.566Z</time>
      </trkpt>
      <trkpt lat="45.89864" lon="6.34604">
        <ele>675</ele>
        <time>2026-08-19T05:08:07.566Z</time>
      </trkpt>
      <trkpt lat="45.89866" lon="6.34601">
        <ele>675</ele>
        <time>2026-08-19T05:08:08.566Z</time>
      </trkpt>
      <trkpt lat="45.89867" lon="6.34598">
        <ele>676</ele>
        <time>2026-08-19T05:08:09.566Z</time>
      </trkpt>
      <trkpt lat="45.89868" lon="6.34596">
        <ele>676</ele>
        <time>2026-08-19T05:08:10.566Z</time>
      </trkpt>
      <trkpt lat="45.8987" lon="6.34593">
        <ele>676</ele>
        <time>2026-08-19T05:08:11.566Z</time>
      </trkpt>
      <trkpt lat="45.89871" lon="6.3459">
        <ele>676</ele>
        <time>2026-08-19T05:08:12.566Z</time>
      </trkpt>
      <trkpt lat="45.89873" lon="6.34587">
        <ele>676</ele>
        <time>2026-08-19T05:08:13.566Z</time>
      </trkpt>
      <trkpt lat="45.89874" lon="6.34585">
        <ele>676</ele>
        <time>2026-08-19T05:08:14.566Z</time>
      </trkpt>
      <trkpt lat="45.89876" lon="6.34582">
        <ele>677</ele>
        <time>2026-08-19T05:08:15.567Z</time>
      </trkpt>
      <trkpt lat="45.89877" lon="6.3458">
        <ele>677</ele>
        <time>2026-08-19T05:08:16.566Z</time>
      </trkpt>
      <trkpt lat="45.89879" lon="6.34577">
        <ele>677</ele>
        <time>2026-08-19T05:08:17.566Z</time>
      </trkpt>
      <trkpt lat="45.8988" lon="6.34574">
        <ele>677</ele>
        <time>2026-08-19T05:08:18.566Z</time>
      </trkpt>
      <trkpt lat="45.89881" lon="6.34571">
        <ele>677</ele>
        <time>2026-08-19T05:08:19.566Z</time>
      </trkpt>
      <trkpt lat="45.89883" lon="6.34568">
        <ele>677</ele>
        <time>2026-08-19T05:08:20.566Z</time>
      </trkpt>
      <trkpt lat="45.89884" lon="6.34565">
        <ele>677</ele>
        <time>2026-08-19T05:08:21.566Z</time>
      </trkpt>
      <trkpt lat="45.89885" lon="6.34562">
        <ele>677</ele>
        <time>2026-08-19T05:08:22.566Z</time>
      </trkpt>
      <trkpt lat="45.89886" lon="6.34559">
        <ele>678</ele>
        <time>2026-08-19T05:08:23.566Z</time>
      </trkpt>
      <trkpt lat="45.89887" lon="6.34556">
        <ele>678</ele>
        <time>2026-08-19T05:08:24.566Z</time>
      </trkpt>
      <trkpt lat="45.89888" lon="6.34553">
        <ele>678</ele>
        <time>2026-08-19T05:08:25.566Z</time>
      </trkpt>
      <trkpt lat="45.89889" lon="6.3455">
        <ele>678</ele>
        <time>2026-08-19T05:08:26.566Z</time>
      </trkpt>
      <trkpt lat="45.89889" lon="6.34546">
        <ele>678</ele>
        <time>2026-08-19T05:08:27.566Z</time>
      </trkpt>
      <trkpt lat="45.8989" lon="6.34543">
        <ele>678</ele>
        <time>2026-08-19T05:08:28.566Z</time>
      </trkpt>
      <trkpt lat="45.8989" lon="6.34539">
        <ele>678</ele>
        <time>2026-08-19T05:08:29.566Z</time>
      </trkpt>
      <trkpt lat="45.8989" lon="6.34536">
        <ele>678</ele>
        <time>2026-08-19T05:08:30.566Z</time>
      </trkpt>
      <trkpt lat="45.89889" lon="6.34532">
        <ele>678</ele>
        <time>2026-08-19T05:08:31.566Z</time>
      </trkpt>
      <trkpt lat="45.89889" lon="6.34529">
        <ele>678</ele>
        <time>2026-08-19T05:08:32.566Z</time>
      </trkpt>
      <trkpt lat="45.89888" lon="6.34525">
        <ele>678</ele>
        <time>2026-08-19T05:08:33.566Z</time>
      </trkpt>
      <trkpt lat="45.89887" lon="6.34521">
        <ele>678</ele>
        <time>2026-08-19T05:08:34.566Z</time>
      </trkpt>
      <trkpt lat="45.89886" lon="6.34519">
        <ele>678</ele>
        <time>2026-08-19T05:08:35.566Z</time>
      </trkpt>
      <trkpt lat="45.89885" lon="6.34515">
        <ele>678</ele>
        <time>2026-08-19T05:08:36.566Z</time>
      </trkpt>
      <trkpt lat="45.89884" lon="6.34512">
        <ele>678</ele>
        <time>2026-08-19T05:08:37.566Z</time>
      </trkpt>
      <trkpt lat="45.89883" lon="6.34508">
        <ele>678</ele>
        <time>2026-08-19T05:08:38.566Z</time>
      </trkpt>
      <trkpt lat="45.89882" lon="6.34505">
        <ele>678</ele>
        <time>2026-08-19T05:08:39.566Z</time>
      </trkpt>
      <trkpt lat="45.89882" lon="6.34502">
        <ele>678</ele>
        <time>2026-08-19T05:08:40.566Z</time>
      </trkpt>
      <trkpt lat="45.8988" lon="6.34497">
        <ele>677</ele>
        <time>2026-08-19T05:08:41.566Z</time>
      </trkpt>
      <trkpt lat="45.89879" lon="6.34494">
        <ele>677</ele>
        <time>2026-08-19T05:08:42.566Z</time>
      </trkpt>
      <trkpt lat="45.89879" lon="6.34491">
        <ele>676</ele>
        <time>2026-08-19T05:08:43.566Z</time>
      </trkpt>
      <trkpt lat="45.89878" lon="6.34487">
        <ele>676</ele>
        <time>2026-08-19T05:08:44.566Z</time>
      </trkpt>
      <trkpt lat="45.89877" lon="6.34484">
        <ele>676</ele>
        <time>2026-08-19T05:08:45.566Z</time>
      </trkpt>
      <trkpt lat="45.89876" lon="6.34481">
        <ele>675</ele>
        <time>2026-08-19T05:08:46.566Z</time>
      </trkpt>
      <trkpt lat="45.89875" lon="6.34477">
        <ele>675</ele>
        <time>2026-08-19T05:08:47.566Z</time>
      </trkpt>
      <trkpt lat="45.89874" lon="6.34475">
        <ele>675</ele>
        <time>2026-08-19T05:08:48.566Z</time>
      </trkpt>
      <trkpt lat="45.89873" lon="6.34472">
        <ele>675</ele>
        <time>2026-08-19T05:08:49.567Z</time>
      </trkpt>
      <trkpt lat="45.89872" lon="6.34467">
        <ele>675</ele>
        <time>2026-08-19T05:08:50.566Z</time>
      </trkpt>
      <trkpt lat="45.89872" lon="6.34464">
        <ele>675</ele>
        <time>2026-08-19T05:08:51.566Z</time>
      </trkpt>
      <trkpt lat="45.89871" lon="6.3446">
        <ele>675</ele>
        <time>2026-08-19T05:08:52.566Z</time>
      </trkpt>
      <trkpt lat="45.8987" lon="6.34457">
        <ele>674</ele>
        <time>2026-08-19T05:08:53.566Z</time>
      </trkpt>
      <trkpt lat="45.8987" lon="6.34453">
        <ele>674</ele>
        <time>2026-08-19T05:08:54.566Z</time>
      </trkpt>
      <trkpt lat="45.89871" lon="6.3445">
        <ele>674</ele>
        <time>2026-08-19T05:08:55.566Z</time>
      </trkpt>
      <trkpt lat="45.89872" lon="6.34447">
        <ele>674</ele>
        <time>2026-08-19T05:08:56.566Z</time>
      </trkpt>
      <trkpt lat="45.89874" lon="6.34444">
        <ele>674</ele>
        <time>2026-08-19T05:08:57.566Z</time>
      </trkpt>
      <trkpt lat="45.89876" lon="6.34441">
        <ele>674</ele>
        <time>2026-08-19T05:08:58.566Z</time>
      </trkpt>
      <trkpt lat="45.89878" lon="6.34439">
        <ele>674</ele>
        <time>2026-08-19T05:08:59.566Z</time>
      </trkpt>
      <trkpt lat="45.8988" lon="6.34437">
        <ele>673</ele>
        <time>2026-08-19T05:09:00.566Z</time>
      </trkpt>
      <trkpt lat="45.89881" lon="6.34435">
        <ele>674</ele>
        <time>2026-08-19T05:09:01.566Z</time>
      </trkpt>
      <trkpt lat="45.89883" lon="6.34433">
        <ele>674</ele>
        <time>2026-08-19T05:09:02.566Z</time>
      </trkpt>
      <trkpt lat="45.89885" lon="6.34431">
        <ele>675</ele>
        <time>2026-08-19T05:09:03.566Z</time>
      </trkpt>
      <trkpt lat="45.89886" lon="6.34429">
        <ele>675</ele>
        <time>2026-08-19T05:09:04.566Z</time>
      </trkpt>
      <trkpt lat="45.89888" lon="6.34427">
        <ele>674</ele>
        <time>2026-08-19T05:09:05.566Z</time>
      </trkpt>
      <trkpt lat="45.8989" lon="6.34426">
        <ele>674</ele>
        <time>2026-08-19T05:09:06.566Z</time>
      </trkpt>
      <trkpt lat="45.89892" lon="6.34424">
        <ele>675</ele>
        <time>2026-08-19T05:09:07.566Z</time>
      </trkpt>
      <trkpt lat="45.89894" lon="6.34422">
        <ele>674</ele>
        <time>2026-08-19T05:09:08.566Z</time>
      </trkpt>
      <trkpt lat="45.89895" lon="6.3442">
        <ele>674</ele>
        <time>2026-08-19T05:09:09.566Z</time>
      </trkpt>
      <trkpt lat="45.89897" lon="6.34417">
        <ele>674</ele>
        <time>2026-08-19T05:09:10.566Z</time>
      </trkpt>
      <trkpt lat="45.89898" lon="6.34415">
        <ele>674</ele>
        <time>2026-08-19T05:09:11.566Z</time>
      </trkpt>
      <trkpt lat="45.89899" lon="6.34412">
        <ele>674</ele>
        <time>2026-08-19T05:09:12.566Z</time>
      </trkpt>
      <trkpt lat="45.899" lon="6.34409">
        <ele>674</ele>
        <time>2026-08-19T05:09:13.566Z</time>
      </trkpt>
      <trkpt lat="45.899" lon="6.34407">
        <ele>674</ele>
        <time>2026-08-19T05:09:14.566Z</time>
      </trkpt>
      <trkpt lat="45.89901" lon="6.34404">
        <ele>674</ele>
        <time>2026-08-19T05:09:15.566Z</time>
      </trkpt>
      <trkpt lat="45.89901" lon="6.34402">
        <ele>674</ele>
        <time>2026-08-19T05:09:16.566Z</time>
      </trkpt>
      <trkpt lat="45.899" lon="6.34399">
        <ele>674</ele>
        <time>2026-08-19T05:09:17.566Z</time>
      </trkpt>
      <trkpt lat="45.899" lon="6.34397">
        <ele>674</ele>
        <time>2026-08-19T05:09:18.566Z</time>
      </trkpt>
      <trkpt lat="45.89899" lon="6.34394">
        <ele>674</ele>
        <time>2026-08-19T05:09:19.566Z</time>
      </trkpt>
      <trkpt lat="45.89899" lon="6.34392">
        <ele>674</ele>
        <time>2026-08-19T05:09:20.566Z</time>
      </trkpt>
      <trkpt lat="45.89899" lon="6.34389">
        <ele>675</ele>
        <time>2026-08-19T05:09:21.566Z</time>
      </trkpt>
      <trkpt lat="45.89898" lon="6.34386">
        <ele>675</ele>
        <time>2026-08-19T05:09:22.566Z</time>
      </trkpt>
      <trkpt lat="45.89898" lon="6.34384">
        <ele>675</ele>
        <time>2026-08-19T05:09:23.566Z</time>
      </trkpt>
      <trkpt lat="45.89897" lon="6.34382">
        <ele>675</ele>
        <time>2026-08-19T05:09:24.566Z</time>
      </trkpt>
      <trkpt lat="45.89897" lon="6.34379">
        <ele>676</ele>
        <time>2026-08-19T05:09:25.566Z</time>
      </trkpt>
      <trkpt lat="45.89897" lon="6.34376">
        <ele>676</ele>
        <time>2026-08-19T05:09:26.566Z</time>
      </trkpt>
      <trkpt lat="45.89897" lon="6.34374">
        <ele>676</ele>
        <time>2026-08-19T05:09:27.566Z</time>
      </trkpt>
      <trkpt lat="45.89897" lon="6.34371">
        <ele>676</ele>
        <time>2026-08-19T05:09:28.566Z</time>
      </trkpt>
      <trkpt lat="45.89898" lon="6.34368">
        <ele>676</ele>
        <time>2026-08-19T05:09:29.566Z</time>
      </trkpt>
      <trkpt lat="45.89898" lon="6.34366">
        <ele>676</ele>
        <time>2026-08-19T05:09:30.566Z</time>
      </trkpt>
      <trkpt lat="45.89898" lon="6.34363">
        <ele>677</ele>
        <time>2026-08-19T05:09:31.566Z</time>
      </trkpt>
      <trkpt lat="45.89898" lon="6.3436">
        <ele>677</ele>
        <time>2026-08-19T05:09:32.566Z</time>
      </trkpt>
      <trkpt lat="45.89898" lon="6.34358">
        <ele>678</ele>
        <time>2026-08-19T05:09:33.566Z</time>
      </trkpt>
      <trkpt lat="45.89899" lon="6.34356">
        <ele>678</ele>
        <time>2026-08-19T05:09:34.566Z</time>
      </trkpt>
      <trkpt lat="45.89899" lon="6.34353">
        <ele>678</ele>
        <time>2026-08-19T05:09:35.566Z</time>
      </trkpt>
      <trkpt lat="45.899" lon="6.34351">
        <ele>678</ele>
        <time>2026-08-19T05:09:36.566Z</time>
      </trkpt>
      <trkpt lat="45.89901" lon="6.34349">
        <ele>679</ele>
        <time>2026-08-19T05:09:37.566Z</time>
      </trkpt>
      <trkpt lat="45.89901" lon="6.34348">
        <ele>679</ele>
        <time>2026-08-19T05:09:38.566Z</time>
      </trkpt>
      <trkpt lat="45.89901" lon="6.34346">
        <ele>680</ele>
        <time>2026-08-19T05:09:39.566Z</time>
      </trkpt>
      <trkpt lat="45.89901" lon="6.34345">
        <ele>680</ele>
        <time>2026-08-19T05:09:40.566Z</time>
      </trkpt>
      <trkpt lat="45.89902" lon="6.34343">
        <ele>680</ele>
        <time>2026-08-19T05:09:41.566Z</time>
      </trkpt>
      <trkpt lat="45.89902" lon="6.34341">
        <ele>681</ele>
        <time>2026-08-19T05:09:42.566Z</time>
      </trkpt>
      <trkpt lat="45.89903" lon="6.3434">
        <ele>681</ele>
        <time>2026-08-19T05:09:43.566Z</time>
      </trkpt>
      <trkpt lat="45.89904" lon="6.34339">
        <ele>681</ele>
        <time>2026-08-19T05:09:44.566Z</time>
      </trkpt>
      <trkpt lat="45.89904" lon="6.34339">
        <ele>682</ele>
        <time>2026-08-19T05:09:45.566Z</time>
      </trkpt>
      <trkpt lat="45.89906" lon="6.34338">
        <ele>682</ele>
        <time>2026-08-19T05:09:46.566Z</time>
      </trkpt>
      <trkpt lat="45.89907" lon="6.34338">
        <ele>683</ele>
        <time>2026-08-19T05:09:47.566Z</time>
      </trkpt>
      <trkpt lat="45.89907" lon="6.34337">
        <ele>684</ele>
        <time>2026-08-19T05:09:48.566Z</time>
      </trkpt>
      <trkpt lat="45.89908" lon="6.34336">
        <ele>684</ele>
        <time>2026-08-19T05:09:49.566Z</time>
      </trkpt>
      <trkpt lat="45.89908" lon="6.34335">
        <ele>685</ele>
        <time>2026-08-19T05:09:50.566Z</time>
      </trkpt>
      <trkpt lat="45.89908" lon="6.34333">
        <ele>685</ele>
        <time>2026-08-19T05:09:51.566Z</time>
      </trkpt>
      <trkpt lat="45.89909" lon="6.34332">
        <ele>686</ele>
        <time>2026-08-19T05:09:52.566Z</time>
      </trkpt>
      <trkpt lat="45.89909" lon="6.3433">
        <ele>686</ele>
        <time>2026-08-19T05:09:53.566Z</time>
      </trkpt>
      <trkpt lat="45.89909" lon="6.34328">
        <ele>686</ele>
        <time>2026-08-19T05:09:54.566Z</time>
      </trkpt>
      <trkpt lat="45.89909" lon="6.34326">
        <ele>686</ele>
        <time>2026-08-19T05:09:55.566Z</time>
      </trkpt>
      <trkpt lat="45.89909" lon="6.34325">
        <ele>686</ele>
        <time>2026-08-19T05:09:56.566Z</time>
      </trkpt>
      <trkpt lat="45.89908" lon="6.34322">
        <ele>687</ele>
        <time>2026-08-19T05:09:57.566Z</time>
      </trkpt>
      <trkpt lat="45.89909" lon="6.34321">
        <ele>687</ele>
        <time>2026-08-19T05:09:58.566Z</time>
      </trkpt>
      <trkpt lat="45.89909" lon="6.34319">
        <ele>687</ele>
        <time>2026-08-19T05:09:59.566Z</time>
      </trkpt>
      <trkpt lat="45.89909" lon="6.34318">
        <ele>688</ele>
        <time>2026-08-19T05:10:00.566Z</time>
      </trkpt>
      <trkpt lat="45.89909" lon="6.34316">
        <ele>688</ele>
        <time>2026-08-19T05:10:01.566Z</time>
      </trkpt>
      <trkpt lat="45.89909" lon="6.34314">
        <ele>689</ele>
        <time>2026-08-19T05:10:02.566Z</time>
      </trkpt>
      <trkpt lat="45.89909" lon="6.34313">
        <ele>689</ele>
        <time>2026-08-19T05:10:03.566Z</time>
      </trkpt>
      <trkpt lat="45.89909" lon="6.34311">
        <ele>689</ele>
        <time>2026-08-19T05:10:04.566Z</time>
      </trkpt>
      <trkpt lat="45.89909" lon="6.3431">
        <ele>690</ele>
        <time>2026-08-19T05:10:05.566Z</time>
      </trkpt>
      <trkpt lat="45.89909" lon="6.34309">
        <ele>690</ele>
        <time>2026-08-19T05:10:06.566Z</time>
      </trkpt>
      <trkpt lat="45.89909" lon="6.34308">
        <ele>690</ele>
        <time>2026-08-19T05:10:07.566Z</time>
      </trkpt>
      <trkpt lat="45.89909" lon="6.34306">
        <ele>690</ele>
        <time>2026-08-19T05:10:08.566Z</time>
      </trkpt>
      <trkpt lat="45.89909" lon="6.34305">
        <ele>690</ele>
        <time>2026-08-19T05:10:09.566Z</time>
      </trkpt>
      <trkpt lat="45.8991" lon="6.34303">
        <ele>690</ele>
        <time>2026-08-19T05:10:10.566Z</time>
      </trkpt>
      <trkpt lat="45.8991" lon="6.34301">
        <ele>690</ele>
        <time>2026-08-19T05:10:11.566Z</time>
      </trkpt>
      <trkpt lat="45.89911" lon="6.34299">
        <ele>690</ele>
        <time>2026-08-19T05:10:12.566Z</time>
      </trkpt>
      <trkpt lat="45.89911" lon="6.34297">
        <ele>690</ele>
        <time>2026-08-19T05:10:13.566Z</time>
      </trkpt>
      <trkpt lat="45.89912" lon="6.34296">
        <ele>691</ele>
        <time>2026-08-19T05:10:14.566Z</time>
      </trkpt>
      <trkpt lat="45.89912" lon="6.34294">
        <ele>691</ele>
        <time>2026-08-19T05:10:15.566Z</time>
      </trkpt>
      <trkpt lat="45.89912" lon="6.34292">
        <ele>690</ele>
        <time>2026-08-19T05:10:16.566Z</time>
      </trkpt>
      <trkpt lat="45.89913" lon="6.3429">
        <ele>691</ele>
        <time>2026-08-19T05:10:17.566Z</time>
      </trkpt>
      <trkpt lat="45.89913" lon="6.34289">
        <ele>691</ele>
        <time>2026-08-19T05:10:18.566Z</time>
      </trkpt>
      <trkpt lat="45.89913" lon="6.34287">
        <ele>691</ele>
        <time>2026-08-19T05:10:19.566Z</time>
      </trkpt>
      <trkpt lat="45.89913" lon="6.34285">
        <ele>691</ele>
        <time>2026-08-19T05:10:20.566Z</time>
      </trkpt>
      <trkpt lat="45.89913" lon="6.34284">
        <ele>692</ele>
        <time>2026-08-19T05:10:21.566Z</time>
      </trkpt>
      <trkpt lat="45.89914" lon="6.34282">
        <ele>692</ele>
        <time>2026-08-19T05:10:22.566Z</time>
      </trkpt>
      <trkpt lat="45.89915" lon="6.34281">
        <ele>692</ele>
        <time>2026-08-19T05:10:23.566Z</time>
      </trkpt>
      <trkpt lat="45.89915" lon="6.3428">
        <ele>693</ele>
        <time>2026-08-19T05:10:24.566Z</time>
      </trkpt>
      <trkpt lat="45.89915" lon="6.34278">
        <ele>693</ele>
        <time>2026-08-19T05:10:25.566Z</time>
      </trkpt>
      <trkpt lat="45.89915" lon="6.34276">
        <ele>693</ele>
        <time>2026-08-19T05:10:26.566Z</time>
      </trkpt>
      <trkpt lat="45.89915" lon="6.34275">
        <ele>693</ele>
        <time>2026-08-19T05:10:27.566Z</time>
      </trkpt>
      <trkpt lat="45.89915" lon="6.34273">
        <ele>693</ele>
        <time>2026-08-19T05:10:28.566Z</time>
      </trkpt>
      <trkpt lat="45.89915" lon="6.34271">
        <ele>693</ele>
        <time>2026-08-19T05:10:29.566Z</time>
      </trkpt>
      <trkpt lat="45.89916" lon="6.34269">
        <ele>694</ele>
        <time>2026-08-19T05:10:30.566Z</time>
      </trkpt>
      <trkpt lat="45.89916" lon="6.34267">
        <ele>694</ele>
        <time>2026-08-19T05:10:31.566Z</time>
      </trkpt>
      <trkpt lat="45.89916" lon="6.34265">
        <ele>694</ele>
        <time>2026-08-19T05:10:32.566Z</time>
      </trkpt>
      <trkpt lat="45.89916" lon="6.34262">
        <ele>694</ele>
        <time>2026-08-19T05:10:33.566Z</time>
      </trkpt>
      <trkpt lat="45.89916" lon="6.3426">
        <ele>695</ele>
        <time>2026-08-19T05:10:34.566Z</time>
      </trkpt>
      <trkpt lat="45.89916" lon="6.34257">
        <ele>695</ele>
        <time>2026-08-19T05:10:35.566Z</time>
      </trkpt>
      <trkpt lat="45.89916" lon="6.34255">
        <ele>696</ele>
        <time>2026-08-19T05:10:36.566Z</time>
      </trkpt>
      <trkpt lat="45.89916" lon="6.34254">
        <ele>696</ele>
        <time>2026-08-19T05:10:37.566Z</time>
      </trkpt>
      <trkpt lat="45.89915" lon="6.34251">
        <ele>697</ele>
        <time>2026-08-19T05:10:38.566Z</time>
      </trkpt>
      <trkpt lat="45.89915" lon="6.34249">
        <ele>697</ele>
        <time>2026-08-19T05:10:39.566Z</time>
      </trkpt>
      <trkpt lat="45.89915" lon="6.34247">
        <ele>697</ele>
        <time>2026-08-19T05:10:40.566Z</time>
      </trkpt>
      <trkpt lat="45.89915" lon="6.34245">
        <ele>697</ele>
        <time>2026-08-19T05:10:41.566Z</time>
      </trkpt>
      <trkpt lat="45.89915" lon="6.34243">
        <ele>698</ele>
        <time>2026-08-19T05:10:42.566Z</time>
      </trkpt>
      <trkpt lat="45.89915" lon="6.34242">
        <ele>698</ele>
        <time>2026-08-19T05:10:43.566Z</time>
      </trkpt>
      <trkpt lat="45.89915" lon="6.3424">
        <ele>699</ele>
        <time>2026-08-19T05:10:44.566Z</time>
      </trkpt>
      <trkpt lat="45.89916" lon="6.3424">
        <ele>699</ele>
        <time>2026-08-19T05:10:45.566Z</time>
      </trkpt>
      <trkpt lat="45.89916" lon="6.34239">
        <ele>699</ele>
        <time>2026-08-19T05:10:46.566Z</time>
      </trkpt>
      <trkpt lat="45.89916" lon="6.34239">
        <ele>700</ele>
        <time>2026-08-19T05:10:47.566Z</time>
      </trkpt>
      <trkpt lat="45.89916" lon="6.34238">
        <ele>699</ele>
        <time>2026-08-19T05:10:48.566Z</time>
      </trkpt>
      <trkpt lat="45.89916" lon="6.34237">
        <ele>699</ele>
        <time>2026-08-19T05:10:49.566Z</time>
      </trkpt>
      <trkpt lat="45.89916" lon="6.34236">
        <ele>699</ele>
        <time>2026-08-19T05:10:50.566Z</time>
      </trkpt>
      <trkpt lat="45.89915" lon="6.34234">
        <ele>699</ele>
        <time>2026-08-19T05:10:51.566Z</time>
      </trkpt>
      <trkpt lat="45.89915" lon="6.34233">
        <ele>699</ele>
        <time>2026-08-19T05:10:52.566Z</time>
      </trkpt>
      <trkpt lat="45.89915" lon="6.34232">
        <ele>700</ele>
        <time>2026-08-19T05:10:53.566Z</time>
      </trkpt>
      <trkpt lat="45.89914" lon="6.3423">
        <ele>700</ele>
        <time>2026-08-19T05:10:54.566Z</time>
      </trkpt>
      <trkpt lat="45.89914" lon="6.34228">
        <ele>700</ele>
        <time>2026-08-19T05:10:55.566Z</time>
      </trkpt>
      <trkpt lat="45.89914" lon="6.34226">
        <ele>701</ele>
        <time>2026-08-19T05:10:56.566Z</time>
      </trkpt>
      <trkpt lat="45.89914" lon="6.34224">
        <ele>701</ele>
        <time>2026-08-19T05:10:57.566Z</time>
      </trkpt>
      <trkpt lat="45.89914" lon="6.34223">
        <ele>701</ele>
        <time>2026-08-19T05:10:58.566Z</time>
      </trkpt>
      <trkpt lat="45.89915" lon="6.34222">
        <ele>702</ele>
        <time>2026-08-19T05:10:59.566Z</time>
      </trkpt>
      <trkpt lat="45.89915" lon="6.34221">
        <ele>702</ele>
        <time>2026-08-19T05:11:00.566Z</time>
      </trkpt>
      <trkpt lat="45.89914" lon="6.3422">
        <ele>703</ele>
        <time>2026-08-19T05:11:01.566Z</time>
      </trkpt>
      <trkpt lat="45.89914" lon="6.34219">
        <ele>704</ele>
        <time>2026-08-19T05:11:02.566Z</time>
      </trkpt>
      <trkpt lat="45.89913" lon="6.34217">
        <ele>704</ele>
        <time>2026-08-19T05:11:03.566Z</time>
      </trkpt>
      <trkpt lat="45.89913" lon="6.34216">
        <ele>705</ele>
        <time>2026-08-19T05:11:04.566Z</time>
      </trkpt>
      <trkpt lat="45.89913" lon="6.34215">
        <ele>705</ele>
        <time>2026-08-19T05:11:05.566Z</time>
      </trkpt>
      <trkpt lat="45.89913" lon="6.34214">
        <ele>705</ele>
        <time>2026-08-19T05:11:06.566Z</time>
      </trkpt>
      <trkpt lat="45.89912" lon="6.34213">
        <ele>705</ele>
        <time>2026-08-19T05:11:07.566Z</time>
      </trkpt>
      <trkpt lat="45.89912" lon="6.34211">
        <ele>705</ele>
        <time>2026-08-19T05:11:08.566Z</time>
      </trkpt>
      <trkpt lat="45.89912" lon="6.3421">
        <ele>704</ele>
        <time>2026-08-19T05:11:09.566Z</time>
      </trkpt>
      <trkpt lat="45.89912" lon="6.34209">
        <ele>704</ele>
        <time>2026-08-19T05:11:10.566Z</time>
      </trkpt>
      <trkpt lat="45.89912" lon="6.34207">
        <ele>704</ele>
        <time>2026-08-19T05:11:11.566Z</time>
      </trkpt>
      <trkpt lat="45.89911" lon="6.34206">
        <ele>705</ele>
        <time>2026-08-19T05:11:12.566Z</time>
      </trkpt>
      <trkpt lat="45.89911" lon="6.34205">
        <ele>705</ele>
        <time>2026-08-19T05:11:13.566Z</time>
      </trkpt>
      <trkpt lat="45.8991" lon="6.34204">
        <ele>705</ele>
        <time>2026-08-19T05:11:14.566Z</time>
      </trkpt>
      <trkpt lat="45.89909" lon="6.34203">
        <ele>706</ele>
        <time>2026-08-19T05:11:15.566Z</time>
      </trkpt>
      <trkpt lat="45.89909" lon="6.34201">
        <ele>706</ele>
        <time>2026-08-19T05:11:16.566Z</time>
      </trkpt>
      <trkpt lat="45.89909" lon="6.342">
        <ele>706</ele>
        <time>2026-08-19T05:11:17.566Z</time>
      </trkpt>
      <trkpt lat="45.89909" lon="6.34199">
        <ele>707</ele>
        <time>2026-08-19T05:11:18.566Z</time>
      </trkpt>
      <trkpt lat="45.89908" lon="6.34198">
        <ele>707</ele>
        <time>2026-08-19T05:11:19.566Z</time>
      </trkpt>
      <trkpt lat="45.89907" lon="6.34197">
        <ele>707</ele>
        <time>2026-08-19T05:11:20.566Z</time>
      </trkpt>
      <trkpt lat="45.89907" lon="6.34196">
        <ele>708</ele>
        <time>2026-08-19T05:11:21.566Z</time>
      </trkpt>
      <trkpt lat="45.89906" lon="6.34194">
        <ele>708</ele>
        <time>2026-08-19T05:11:22.566Z</time>
      </trkpt>
      <trkpt lat="45.89905" lon="6.34193">
        <ele>708</ele>
        <time>2026-08-19T05:11:23.566Z</time>
      </trkpt>
      <trkpt lat="45.89905" lon="6.34192">
        <ele>709</ele>
        <time>2026-08-19T05:11:24.566Z</time>
      </trkpt>
      <trkpt lat="45.89904" lon="6.3419">
        <ele>709</ele>
        <time>2026-08-19T05:11:25.566Z</time>
      </trkpt>
      <trkpt lat="45.89904" lon="6.34189">
        <ele>710</ele>
        <time>2026-08-19T05:11:26.566Z</time>
      </trkpt>
      <trkpt lat="45.89903" lon="6.34188">
        <ele>710</ele>
        <time>2026-08-19T05:11:27.566Z</time>
      </trkpt>
      <trkpt lat="45.89902" lon="6.34187">
        <ele>711</ele>
        <time>2026-08-19T05:11:28.566Z</time>
      </trkpt>
      <trkpt lat="45.89901" lon="6.34185">
        <ele>712</ele>
        <time>2026-08-19T05:11:29.566Z</time>
      </trkpt>
      <trkpt lat="45.899" lon="6.34184">
        <ele>713</ele>
        <time>2026-08-19T05:11:30.566Z</time>
      </trkpt>
      <trkpt lat="45.89899" lon="6.34182">
        <ele>713</ele>
        <time>2026-08-19T05:11:31.566Z</time>
      </trkpt>
      <trkpt lat="45.89898" lon="6.3418">
        <ele>714</ele>
        <time>2026-08-19T05:11:32.566Z</time>
      </trkpt>
      <trkpt lat="45.89897" lon="6.34178">
        <ele>714</ele>
        <time>2026-08-19T05:11:33.566Z</time>
      </trkpt>
      <trkpt lat="45.89896" lon="6.34176">
        <ele>714</ele>
        <time>2026-08-19T05:11:34.566Z</time>
      </trkpt>
      <trkpt lat="45.89896" lon="6.34175">
        <ele>715</ele>
        <time>2026-08-19T05:11:35.566Z</time>
      </trkpt>
      <trkpt lat="45.89894" lon="6.34173">
        <ele>716</ele>
        <time>2026-08-19T05:11:36.566Z</time>
      </trkpt>
      <trkpt lat="45.89893" lon="6.34171">
        <ele>716</ele>
        <time>2026-08-19T05:11:37.566Z</time>
      </trkpt>
      <trkpt lat="45.89892" lon="6.34169">
        <ele>717</ele>
        <time>2026-08-19T05:11:38.566Z</time>
      </trkpt>
      <trkpt lat="45.89891" lon="6.34168">
        <ele>717</ele>
        <time>2026-08-19T05:11:39.566Z</time>
      </trkpt>
      <trkpt lat="45.8989" lon="6.34166">
        <ele>718</ele>
        <time>2026-08-19T05:11:40.566Z</time>
      </trkpt>
      <trkpt lat="45.89889" lon="6.34164">
        <ele>718</ele>
        <time>2026-08-19T05:11:41.566Z</time>
      </trkpt>
      <trkpt lat="45.89888" lon="6.34162">
        <ele>718</ele>
        <time>2026-08-19T05:11:42.566Z</time>
      </trkpt>
      <trkpt lat="45.89887" lon="6.34161">
        <ele>719</ele>
        <time>2026-08-19T05:11:43.566Z</time>
      </trkpt>
      <trkpt lat="45.89886" lon="6.34159">
        <ele>719</ele>
        <time>2026-08-19T05:11:44.566Z</time>
      </trkpt>
      <trkpt lat="45.89885" lon="6.34157">
        <ele>719</ele>
        <time>2026-08-19T05:11:45.566Z</time>
      </trkpt>
      <trkpt lat="45.89884" lon="6.34155">
        <ele>720</ele>
        <time>2026-08-19T05:11:46.566Z</time>
      </trkpt>
      <trkpt lat="45.89883" lon="6.34151">
        <ele>720</ele>
        <time>2026-08-19T05:11:47.566Z</time>
      </trkpt>
      <trkpt lat="45.89882" lon="6.34149">
        <ele>721</ele>
        <time>2026-08-19T05:11:48.566Z</time>
      </trkpt>
      <trkpt lat="45.89882" lon="6.34147">
        <ele>721</ele>
        <time>2026-08-19T05:11:49.566Z</time>
      </trkpt>
      <trkpt lat="45.89881" lon="6.34146">
        <ele>721</ele>
        <time>2026-08-19T05:11:50.566Z</time>
      </trkpt>
      <trkpt lat="45.8988" lon="6.34144">
        <ele>722</ele>
        <time>2026-08-19T05:11:51.566Z</time>
      </trkpt>
      <trkpt lat="45.8988" lon="6.34143">
        <ele>722</ele>
        <time>2026-08-19T05:11:52.566Z</time>
      </trkpt>
      <trkpt lat="45.89879" lon="6.34142">
        <ele>722</ele>
        <time>2026-08-19T05:11:53.566Z</time>
      </trkpt>
      <trkpt lat="45.89879" lon="6.34141">
        <ele>723</ele>
        <time>2026-08-19T05:11:54.566Z</time>
      </trkpt>
      <trkpt lat="45.89878" lon="6.34139">
        <ele>723</ele>
        <time>2026-08-19T05:11:55.566Z</time>
      </trkpt>
      <trkpt lat="45.89878" lon="6.34138">
        <ele>723</ele>
        <time>2026-08-19T05:11:56.566Z</time>
      </trkpt>
      <trkpt lat="45.89877" lon="6.34136">
        <ele>724</ele>
        <time>2026-08-19T05:11:57.566Z</time>
      </trkpt>
      <trkpt lat="45.89876" lon="6.34134">
        <ele>724</ele>
        <time>2026-08-19T05:11:58.566Z</time>
      </trkpt>
      <trkpt lat="45.89875" lon="6.34132">
        <ele>724</ele>
        <time>2026-08-19T05:11:59.566Z</time>
      </trkpt>
      <trkpt lat="45.89875" lon="6.34131">
        <ele>724</ele>
        <time>2026-08-19T05:12:00.566Z</time>
      </trkpt>
      <trkpt lat="45.89875" lon="6.34129">
        <ele>724</ele>
        <time>2026-08-19T05:12:01.566Z</time>
      </trkpt>
      <trkpt lat="45.89874" lon="6.34128">
        <ele>723</ele>
        <time>2026-08-19T05:12:02.566Z</time>
      </trkpt>
      <trkpt lat="45.89873" lon="6.34126">
        <ele>723</ele>
        <time>2026-08-19T05:12:03.566Z</time>
      </trkpt>
      <trkpt lat="45.89873" lon="6.34124">
        <ele>723</ele>
        <time>2026-08-19T05:12:04.566Z</time>
      </trkpt>
      <trkpt lat="45.89873" lon="6.34122">
        <ele>723</ele>
        <time>2026-08-19T05:12:05.566Z</time>
      </trkpt>
      <trkpt lat="45.89872" lon="6.3412">
        <ele>723</ele>
        <time>2026-08-19T05:12:06.566Z</time>
      </trkpt>
      <trkpt lat="45.89871" lon="6.34117">
        <ele>723</ele>
        <time>2026-08-19T05:12:07.566Z</time>
      </trkpt>
      <trkpt lat="45.8987" lon="6.34115">
        <ele>722</ele>
        <time>2026-08-19T05:12:08.566Z</time>
      </trkpt>
      <trkpt lat="45.8987" lon="6.34113">
        <ele>722</ele>
        <time>2026-08-19T05:12:09.566Z</time>
      </trkpt>
      <trkpt lat="45.89869" lon="6.3411">
        <ele>721</ele>
        <time>2026-08-19T05:12:10.566Z</time>
      </trkpt>
      <trkpt lat="45.89868" lon="6.34108">
        <ele>721</ele>
        <time>2026-08-19T05:12:11.566Z</time>
      </trkpt>
      <trkpt lat="45.89867" lon="6.34106">
        <ele>721</ele>
        <time>2026-08-19T05:12:12.566Z</time>
      </trkpt>
      <trkpt lat="45.89866" lon="6.34103">
        <ele>721</ele>
        <time>2026-08-19T05:12:13.566Z</time>
      </trkpt>
      <trkpt lat="45.89866" lon="6.34102">
        <ele>720</ele>
        <time>2026-08-19T05:12:14.566Z</time>
      </trkpt>
      <trkpt lat="45.89865" lon="6.34099">
        <ele>721</ele>
        <time>2026-08-19T05:12:15.566Z</time>
      </trkpt>
      <trkpt lat="45.89864" lon="6.34098">
        <ele>721</ele>
        <time>2026-08-19T05:12:16.566Z</time>
      </trkpt>
      <trkpt lat="45.89864" lon="6.34097">
        <ele>720</ele>
        <time>2026-08-19T05:12:17.566Z</time>
      </trkpt>
      <trkpt lat="45.89864" lon="6.34096">
        <ele>720</ele>
        <time>2026-08-19T05:12:18.566Z</time>
      </trkpt>
      <trkpt lat="45.89863" lon="6.34095">
        <ele>720</ele>
        <time>2026-08-19T05:12:19.566Z</time>
      </trkpt>
      <trkpt lat="45.89863" lon="6.34095">
        <ele>720</ele>
        <time>2026-08-19T05:12:20.566Z</time>
      </trkpt>
      <trkpt lat="45.89863" lon="6.34094">
        <ele>720</ele>
        <time>2026-08-19T05:12:21.566Z</time>
      </trkpt>
      <trkpt lat="45.89863" lon="6.34093">
        <ele>720</ele>
        <time>2026-08-19T05:12:22.566Z</time>
      </trkpt>
      <trkpt lat="45.89863" lon="6.34091">
        <ele>720</ele>
        <time>2026-08-19T05:12:23.566Z</time>
      </trkpt>
      <trkpt lat="45.89862" lon="6.3409">
        <ele>720</ele>
        <time>2026-08-19T05:12:24.566Z</time>
      </trkpt>
      <trkpt lat="45.89861" lon="6.34089">
        <ele>720</ele>
        <time>2026-08-19T05:12:25.566Z</time>
      </trkpt>
      <trkpt lat="45.8986" lon="6.34087">
        <ele>720</ele>
        <time>2026-08-19T05:12:26.566Z</time>
      </trkpt>
      <trkpt lat="45.89859" lon="6.34085">
        <ele>721</ele>
        <time>2026-08-19T05:12:27.566Z</time>
      </trkpt>
      <trkpt lat="45.89858" lon="6.34083">
        <ele>722</ele>
        <time>2026-08-19T05:12:28.566Z</time>
      </trkpt>
      <trkpt lat="45.89857" lon="6.3408">
        <ele>722</ele>
        <time>2026-08-19T05:12:29.567Z</time>
      </trkpt>
      <trkpt lat="45.89856" lon="6.34078">
        <ele>723</ele>
        <time>2026-08-19T05:12:30.566Z</time>
      </trkpt>
      <trkpt lat="45.89855" lon="6.34075">
        <ele>723</ele>
        <time>2026-08-19T05:12:31.566Z</time>
      </trkpt>
      <trkpt lat="45.89854" lon="6.34073">
        <ele>723</ele>
        <time>2026-08-19T05:12:32.566Z</time>
      </trkpt>
      <trkpt lat="45.89853" lon="6.34071">
        <ele>724</ele>
        <time>2026-08-19T05:12:33.566Z</time>
      </trkpt>
      <trkpt lat="45.89851" lon="6.34069">
        <ele>724</ele>
        <time>2026-08-19T05:12:34.566Z</time>
      </trkpt>
      <trkpt lat="45.8985" lon="6.34067">
        <ele>725</ele>
        <time>2026-08-19T05:12:35.566Z</time>
      </trkpt>
      <trkpt lat="45.89849" lon="6.34065">
        <ele>725</ele>
        <time>2026-08-19T05:12:36.566Z</time>
      </trkpt>
      <trkpt lat="45.89847" lon="6.34063">
        <ele>726</ele>
        <time>2026-08-19T05:12:37.566Z</time>
      </trkpt>
      <trkpt lat="45.89846" lon="6.34061">
        <ele>726</ele>
        <time>2026-08-19T05:12:38.566Z</time>
      </trkpt>
      <trkpt lat="45.89845" lon="6.34058">
        <ele>726</ele>
        <time>2026-08-19T05:12:39.566Z</time>
      </trkpt>
      <trkpt lat="45.89844" lon="6.34057">
        <ele>726</ele>
        <time>2026-08-19T05:12:40.566Z</time>
      </trkpt>
      <trkpt lat="45.89843" lon="6.34055">
        <ele>726</ele>
        <time>2026-08-19T05:12:41.566Z</time>
      </trkpt>
      <trkpt lat="45.89842" lon="6.34052">
        <ele>726</ele>
        <time>2026-08-19T05:12:42.566Z</time>
      </trkpt>
      <trkpt lat="45.89842" lon="6.3405">
        <ele>726</ele>
        <time>2026-08-19T05:12:43.566Z</time>
      </trkpt>
      <trkpt lat="45.89841" lon="6.34048">
        <ele>727</ele>
        <time>2026-08-19T05:12:44.566Z</time>
      </trkpt>
      <trkpt lat="45.89839" lon="6.34046">
        <ele>727</ele>
        <time>2026-08-19T05:12:45.566Z</time>
      </trkpt>
      <trkpt lat="45.89838" lon="6.34044">
        <ele>727</ele>
        <time>2026-08-19T05:12:46.566Z</time>
      </trkpt>
      <trkpt lat="45.89837" lon="6.34042">
        <ele>727</ele>
        <time>2026-08-19T05:12:47.566Z</time>
      </trkpt>
      <trkpt lat="45.89836" lon="6.3404">
        <ele>728</ele>
        <time>2026-08-19T05:12:48.566Z</time>
      </trkpt>
      <trkpt lat="45.89835" lon="6.34038">
        <ele>728</ele>
        <time>2026-08-19T05:12:49.566Z</time>
      </trkpt>
      <trkpt lat="45.89834" lon="6.34036">
        <ele>728</ele>
        <time>2026-08-19T05:12:50.566Z</time>
      </trkpt>
      <trkpt lat="45.89832" lon="6.34034">
        <ele>728</ele>
        <time>2026-08-19T05:12:51.566Z</time>
      </trkpt>
      <trkpt lat="45.89831" lon="6.34032">
        <ele>728</ele>
        <time>2026-08-19T05:12:52.566Z</time>
      </trkpt>
      <trkpt lat="45.8983" lon="6.3403">
        <ele>728</ele>
        <time>2026-08-19T05:12:53.566Z</time>
      </trkpt>
      <trkpt lat="45.89829" lon="6.34028">
        <ele>728</ele>
        <time>2026-08-19T05:12:54.566Z</time>
      </trkpt>
      <trkpt lat="45.89829" lon="6.34026">
        <ele>728</ele>
        <time>2026-08-19T05:12:55.566Z</time>
      </trkpt>
      <trkpt lat="45.89828" lon="6.34024">
        <ele>728</ele>
        <time>2026-08-19T05:12:56.566Z</time>
      </trkpt>
      <trkpt lat="45.89828" lon="6.34021">
        <ele>727</ele>
        <time>2026-08-19T05:12:57.566Z</time>
      </trkpt>
      <trkpt lat="45.89827" lon="6.34019">
        <ele>727</ele>
        <time>2026-08-19T05:12:58.566Z</time>
      </trkpt>
      <trkpt lat="45.89826" lon="6.34018">
        <ele>727</ele>
        <time>2026-08-19T05:12:59.566Z</time>
      </trkpt>
      <trkpt lat="45.89825" lon="6.34015">
        <ele>727</ele>
        <time>2026-08-19T05:13:00.566Z</time>
      </trkpt>
      <trkpt lat="45.89823" lon="6.34013">
        <ele>727</ele>
        <time>2026-08-19T05:13:01.566Z</time>
      </trkpt>
      <trkpt lat="45.89822" lon="6.34012">
        <ele>727</ele>
        <time>2026-08-19T05:13:02.566Z</time>
      </trkpt>
      <trkpt lat="45.89822" lon="6.34011">
        <ele>727</ele>
        <time>2026-08-19T05:13:03.566Z</time>
      </trkpt>
      <trkpt lat="45.89821" lon="6.34009">
        <ele>727</ele>
        <time>2026-08-19T05:13:04.566Z</time>
      </trkpt>
      <trkpt lat="45.8982" lon="6.34006">
        <ele>727</ele>
        <time>2026-08-19T05:13:05.566Z</time>
      </trkpt>
      <trkpt lat="45.8982" lon="6.34004">
        <ele>727</ele>
        <time>2026-08-19T05:13:06.566Z</time>
      </trkpt>
      <trkpt lat="45.89819" lon="6.34002">
        <ele>727</ele>
        <time>2026-08-19T05:13:07.566Z</time>
      </trkpt>
      <trkpt lat="45.89819" lon="6.34">
        <ele>727</ele>
        <time>2026-08-19T05:13:08.566Z</time>
      </trkpt>
      <trkpt lat="45.89819" lon="6.33998">
        <ele>727</ele>
        <time>2026-08-19T05:13:09.566Z</time>
      </trkpt>
      <trkpt lat="45.89818" lon="6.33996">
        <ele>728</ele>
        <time>2026-08-19T05:13:10.566Z</time>
      </trkpt>
      <trkpt lat="45.89818" lon="6.33994">
        <ele>728</ele>
        <time>2026-08-19T05:13:11.566Z</time>
      </trkpt>
      <trkpt lat="45.89817" lon="6.33992">
        <ele>729</ele>
        <time>2026-08-19T05:13:12.566Z</time>
      </trkpt>
      <trkpt lat="45.89816" lon="6.33989">
        <ele>729</ele>
        <time>2026-08-19T05:13:13.566Z</time>
      </trkpt>
      <trkpt lat="45.89816" lon="6.33987">
        <ele>729</ele>
        <time>2026-08-19T05:13:14.566Z</time>
      </trkpt>
      <trkpt lat="45.89815" lon="6.33985">
        <ele>729</ele>
        <time>2026-08-19T05:13:15.566Z</time>
      </trkpt>
      <trkpt lat="45.89815" lon="6.33983">
        <ele>729</ele>
        <time>2026-08-19T05:13:16.566Z</time>
      </trkpt>
      <trkpt lat="45.89814" lon="6.3398">
        <ele>729</ele>
        <time>2026-08-19T05:13:17.566Z</time>
      </trkpt>
      <trkpt lat="45.89813" lon="6.33979">
        <ele>729</ele>
        <time>2026-08-19T05:13:18.566Z</time>
      </trkpt>
      <trkpt lat="45.89812" lon="6.33977">
        <ele>730</ele>
        <time>2026-08-19T05:13:19.566Z</time>
      </trkpt>
      <trkpt lat="45.89811" lon="6.33975">
        <ele>730</ele>
        <time>2026-08-19T05:13:20.566Z</time>
      </trkpt>
      <trkpt lat="45.8981" lon="6.33974">
        <ele>731</ele>
        <time>2026-08-19T05:13:21.566Z</time>
      </trkpt>
      <trkpt lat="45.89809" lon="6.33972">
        <ele>732</ele>
        <time>2026-08-19T05:13:22.566Z</time>
      </trkpt>
      <trkpt lat="45.89807" lon="6.3397">
        <ele>732</ele>
        <time>2026-08-19T05:13:23.566Z</time>
      </trkpt>
      <trkpt lat="45.89806" lon="6.33967">
        <ele>733</ele>
        <time>2026-08-19T05:13:24.566Z</time>
      </trkpt>
      <trkpt lat="45.89806" lon="6.33965">
        <ele>734</ele>
        <time>2026-08-19T05:13:25.566Z</time>
      </trkpt>
      <trkpt lat="45.89804" lon="6.33963">
        <ele>734</ele>
        <time>2026-08-19T05:13:26.566Z</time>
      </trkpt>
      <trkpt lat="45.89803" lon="6.33961">
        <ele>735</ele>
        <time>2026-08-19T05:13:27.566Z</time>
      </trkpt>
      <trkpt lat="45.89803" lon="6.33959">
        <ele>735</ele>
        <time>2026-08-19T05:13:28.566Z</time>
      </trkpt>
      <trkpt lat="45.89802" lon="6.33957">
        <ele>735</ele>
        <time>2026-08-19T05:13:29.566Z</time>
      </trkpt>
      <trkpt lat="45.89801" lon="6.33955">
        <ele>735</ele>
        <time>2026-08-19T05:13:30.566Z</time>
      </trkpt>
      <trkpt lat="45.898" lon="6.33952">
        <ele>735</ele>
        <time>2026-08-19T05:13:31.566Z</time>
      </trkpt>
      <trkpt lat="45.89799" lon="6.3395">
        <ele>735</ele>
        <time>2026-08-19T05:13:32.566Z</time>
      </trkpt>
      <trkpt lat="45.89798" lon="6.33948">
        <ele>735</ele>
        <time>2026-08-19T05:13:33.566Z</time>
      </trkpt>
      <trkpt lat="45.89798" lon="6.33946">
        <ele>735</ele>
        <time>2026-08-19T05:13:34.566Z</time>
      </trkpt>
      <trkpt lat="45.89797" lon="6.33944">
        <ele>735</ele>
        <time>2026-08-19T05:13:35.566Z</time>
      </trkpt>
      <trkpt lat="45.89796" lon="6.33942">
        <ele>735</ele>
        <time>2026-08-19T05:13:36.566Z</time>
      </trkpt>
      <trkpt lat="45.89796" lon="6.33941">
        <ele>735</ele>
        <time>2026-08-19T05:13:37.566Z</time>
      </trkpt>
      <trkpt lat="45.89795" lon="6.33939">
        <ele>735</ele>
        <time>2026-08-19T05:13:38.566Z</time>
      </trkpt>
      <trkpt lat="45.89794" lon="6.33937">
        <ele>735</ele>
        <time>2026-08-19T05:13:39.566Z</time>
      </trkpt>
      <trkpt lat="45.89794" lon="6.33935">
        <ele>735</ele>
        <time>2026-08-19T05:13:40.566Z</time>
      </trkpt>
      <trkpt lat="45.89793" lon="6.33933">
        <ele>735</ele>
        <time>2026-08-19T05:13:41.566Z</time>
      </trkpt>
      <trkpt lat="45.89793" lon="6.33931">
        <ele>736</ele>
        <time>2026-08-19T05:13:42.566Z</time>
      </trkpt>
      <trkpt lat="45.89792" lon="6.3393">
        <ele>736</ele>
        <time>2026-08-19T05:13:43.566Z</time>
      </trkpt>
      <trkpt lat="45.89792" lon="6.33928">
        <ele>736</ele>
        <time>2026-08-19T05:13:44.566Z</time>
      </trkpt>
      <trkpt lat="45.89791" lon="6.33926">
        <ele>736</ele>
        <time>2026-08-19T05:13:45.566Z</time>
      </trkpt>
      <trkpt lat="45.8979" lon="6.33924">
        <ele>736</ele>
        <time>2026-08-19T05:13:46.566Z</time>
      </trkpt>
      <trkpt lat="45.8979" lon="6.33923">
        <ele>736</ele>
        <time>2026-08-19T05:13:47.566Z</time>
      </trkpt>
      <trkpt lat="45.89789" lon="6.33921">
        <ele>737</ele>
        <time>2026-08-19T05:13:48.566Z</time>
      </trkpt>
      <trkpt lat="45.89788" lon="6.33919">
        <ele>737</ele>
        <time>2026-08-19T05:13:49.566Z</time>
      </trkpt>
      <trkpt lat="45.89788" lon="6.33917">
        <ele>737</ele>
        <time>2026-08-19T05:13:50.566Z</time>
      </trkpt>
      <trkpt lat="45.89787" lon="6.33915">
        <ele>736</ele>
        <time>2026-08-19T05:13:51.566Z</time>
      </trkpt>
      <trkpt lat="45.89787" lon="6.33913">
        <ele>736</ele>
        <time>2026-08-19T05:13:52.566Z</time>
      </trkpt>
      <trkpt lat="45.89786" lon="6.33912">
        <ele>736</ele>
        <time>2026-08-19T05:13:53.566Z</time>
      </trkpt>
      <trkpt lat="45.89785" lon="6.3391">
        <ele>736</ele>
        <time>2026-08-19T05:13:54.566Z</time>
      </trkpt>
      <trkpt lat="45.89784" lon="6.33909">
        <ele>736</ele>
        <time>2026-08-19T05:13:55.566Z</time>
      </trkpt>
      <trkpt lat="45.89783" lon="6.33908">
        <ele>736</ele>
        <time>2026-08-19T05:13:56.566Z</time>
      </trkpt>
      <trkpt lat="45.89782" lon="6.33907">
        <ele>737</ele>
        <time>2026-08-19T05:13:57.566Z</time>
      </trkpt>
      <trkpt lat="45.89781" lon="6.33906">
        <ele>737</ele>
        <time>2026-08-19T05:13:58.566Z</time>
      </trkpt>
      <trkpt lat="45.8978" lon="6.33904">
        <ele>738</ele>
        <time>2026-08-19T05:13:59.566Z</time>
      </trkpt>
      <trkpt lat="45.89779" lon="6.33903">
        <ele>738</ele>
        <time>2026-08-19T05:14:00.566Z</time>
      </trkpt>
      <trkpt lat="45.89779" lon="6.33901">
        <ele>738</ele>
        <time>2026-08-19T05:14:01.566Z</time>
      </trkpt>
      <trkpt lat="45.89778" lon="6.339">
        <ele>738</ele>
        <time>2026-08-19T05:14:02.566Z</time>
      </trkpt>
      <trkpt lat="45.89778" lon="6.33898">
        <ele>738</ele>
        <time>2026-08-19T05:14:03.566Z</time>
      </trkpt>
      <trkpt lat="45.89777" lon="6.33896">
        <ele>738</ele>
        <time>2026-08-19T05:14:04.566Z</time>
      </trkpt>
      <trkpt lat="45.89777" lon="6.33895">
        <ele>738</ele>
        <time>2026-08-19T05:14:05.566Z</time>
      </trkpt>
      <trkpt lat="45.89777" lon="6.33892">
        <ele>738</ele>
        <time>2026-08-19T05:14:06.566Z</time>
      </trkpt>
      <trkpt lat="45.89778" lon="6.33891">
        <ele>738</ele>
        <time>2026-08-19T05:14:07.566Z</time>
      </trkpt>
      <trkpt lat="45.89778" lon="6.33889">
        <ele>738</ele>
        <time>2026-08-19T05:14:08.566Z</time>
      </trkpt>
      <trkpt lat="45.89778" lon="6.33888">
        <ele>738</ele>
        <time>2026-08-19T05:14:09.566Z</time>
      </trkpt>
      <trkpt lat="45.89777" lon="6.33886">
        <ele>738</ele>
        <time>2026-08-19T05:14:10.566Z</time>
      </trkpt>
      <trkpt lat="45.89777" lon="6.33884">
        <ele>739</ele>
        <time>2026-08-19T05:14:11.566Z</time>
      </trkpt>
      <trkpt lat="45.89776" lon="6.33883">
        <ele>739</ele>
        <time>2026-08-19T05:14:12.566Z</time>
      </trkpt>
      <trkpt lat="45.89776" lon="6.33882">
        <ele>739</ele>
        <time>2026-08-19T05:14:13.566Z</time>
      </trkpt>
      <trkpt lat="45.89774" lon="6.3388">
        <ele>740</ele>
        <time>2026-08-19T05:14:14.566Z</time>
      </trkpt>
      <trkpt lat="45.89774" lon="6.33878">
        <ele>740</ele>
        <time>2026-08-19T05:14:15.566Z</time>
      </trkpt>
      <trkpt lat="45.89773" lon="6.33877">
        <ele>741</ele>
        <time>2026-08-19T05:14:16.566Z</time>
      </trkpt>
      <trkpt lat="45.89772" lon="6.33875">
        <ele>741</ele>
        <time>2026-08-19T05:14:17.566Z</time>
      </trkpt>
      <trkpt lat="45.89772" lon="6.33874">
        <ele>741</ele>
        <time>2026-08-19T05:14:18.566Z</time>
      </trkpt>
      <trkpt lat="45.89771" lon="6.33872">
        <ele>742</ele>
        <time>2026-08-19T05:14:19.566Z</time>
      </trkpt>
      <trkpt lat="45.8977" lon="6.3387">
        <ele>742</ele>
        <time>2026-08-19T05:14:20.566Z</time>
      </trkpt>
      <trkpt lat="45.89769" lon="6.33868">
        <ele>742</ele>
        <time>2026-08-19T05:14:21.566Z</time>
      </trkpt>
      <trkpt lat="45.89769" lon="6.33867">
        <ele>742</ele>
        <time>2026-08-19T05:14:22.566Z</time>
      </trkpt>
      <trkpt lat="45.89768" lon="6.33866">
        <ele>742</ele>
        <time>2026-08-19T05:14:23.566Z</time>
      </trkpt>
      <trkpt lat="45.89767" lon="6.33864">
        <ele>743</ele>
        <time>2026-08-19T05:14:24.566Z</time>
      </trkpt>
      <trkpt lat="45.89767" lon="6.33863">
        <ele>743</ele>
        <time>2026-08-19T05:14:25.566Z</time>
      </trkpt>
      <trkpt lat="45.89766" lon="6.33862">
        <ele>744</ele>
        <time>2026-08-19T05:14:26.566Z</time>
      </trkpt>
      <trkpt lat="45.89766" lon="6.33861">
        <ele>744</ele>
        <time>2026-08-19T05:14:27.566Z</time>
      </trkpt>
      <trkpt lat="45.89765" lon="6.33859">
        <ele>744</ele>
        <time>2026-08-19T05:14:28.566Z</time>
      </trkpt>
      <trkpt lat="45.89765" lon="6.33857">
        <ele>744</ele>
        <time>2026-08-19T05:14:29.566Z</time>
      </trkpt>
      <trkpt lat="45.89765" lon="6.33855">
        <ele>745</ele>
        <time>2026-08-19T05:14:30.566Z</time>
      </trkpt>
      <trkpt lat="45.89764" lon="6.33854">
        <ele>745</ele>
        <time>2026-08-19T05:14:31.566Z</time>
      </trkpt>
      <trkpt lat="45.89763" lon="6.33853">
        <ele>746</ele>
        <time>2026-08-19T05:14:32.566Z</time>
      </trkpt>
      <trkpt lat="45.89763" lon="6.33852">
        <ele>746</ele>
        <time>2026-08-19T05:14:33.566Z</time>
      </trkpt>
      <trkpt lat="45.89762" lon="6.3385">
        <ele>746</ele>
        <time>2026-08-19T05:14:34.566Z</time>
      </trkpt>
      <trkpt lat="45.89762" lon="6.33848">
        <ele>746</ele>
        <time>2026-08-19T05:14:35.566Z</time>
      </trkpt>
      <trkpt lat="45.89761" lon="6.33846">
        <ele>746</ele>
        <time>2026-08-19T05:14:36.566Z</time>
      </trkpt>
      <trkpt lat="45.8976" lon="6.33844">
        <ele>746</ele>
        <time>2026-08-19T05:14:37.566Z</time>
      </trkpt>
      <trkpt lat="45.8976" lon="6.33843">
        <ele>745</ele>
        <time>2026-08-19T05:14:38.566Z</time>
      </trkpt>
      <trkpt lat="45.89759" lon="6.33841">
        <ele>746</ele>
        <time>2026-08-19T05:14:39.566Z</time>
      </trkpt>
      <trkpt lat="45.89758" lon="6.33839">
        <ele>746</ele>
        <time>2026-08-19T05:14:40.566Z</time>
      </trkpt>
      <trkpt lat="45.89758" lon="6.33836">
        <ele>745</ele>
        <time>2026-08-19T05:14:41.567Z</time>
      </trkpt>
      <trkpt lat="45.89757" lon="6.33835">
        <ele>745</ele>
        <time>2026-08-19T05:14:42.566Z</time>
      </trkpt>
      <trkpt lat="45.89757" lon="6.33833">
        <ele>745</ele>
        <time>2026-08-19T05:14:43.566Z</time>
      </trkpt>
      <trkpt lat="45.89756" lon="6.33831">
        <ele>745</ele>
        <time>2026-08-19T05:14:44.566Z</time>
      </trkpt>
      <trkpt lat="45.89756" lon="6.33829">
        <ele>745</ele>
        <time>2026-08-19T05:14:45.566Z</time>
      </trkpt>
      <trkpt lat="45.89755" lon="6.33828">
        <ele>746</ele>
        <time>2026-08-19T05:14:46.566Z</time>
      </trkpt>
      <trkpt lat="45.89755" lon="6.33826">
        <ele>746</ele>
        <time>2026-08-19T05:14:47.566Z</time>
      </trkpt>
      <trkpt lat="45.89754" lon="6.33824">
        <ele>746</ele>
        <time>2026-08-19T05:14:48.566Z</time>
      </trkpt>
      <trkpt lat="45.89754" lon="6.33823">
        <ele>746</ele>
        <time>2026-08-19T05:14:49.566Z</time>
      </trkpt>
      <trkpt lat="45.89753" lon="6.33822">
        <ele>746</ele>
        <time>2026-08-19T05:14:50.566Z</time>
      </trkpt>
      <trkpt lat="45.89753" lon="6.33821">
        <ele>746</ele>
        <time>2026-08-19T05:14:51.566Z</time>
      </trkpt>
      <trkpt lat="45.89752" lon="6.33819">
        <ele>746</ele>
        <time>2026-08-19T05:14:52.566Z</time>
      </trkpt>
      <trkpt lat="45.89752" lon="6.33817">
        <ele>747</ele>
        <time>2026-08-19T05:14:53.566Z</time>
      </trkpt>
      <trkpt lat="45.89751" lon="6.33815">
        <ele>747</ele>
        <time>2026-08-19T05:14:54.566Z</time>
      </trkpt>
      <trkpt lat="45.8975" lon="6.33814">
        <ele>747</ele>
        <time>2026-08-19T05:14:55.566Z</time>
      </trkpt>
      <trkpt lat="45.8975" lon="6.33813">
        <ele>747</ele>
        <time>2026-08-19T05:14:56.566Z</time>
      </trkpt>
      <trkpt lat="45.89749" lon="6.33811">
        <ele>748</ele>
        <time>2026-08-19T05:14:57.566Z</time>
      </trkpt>
      <trkpt lat="45.89748" lon="6.3381">
        <ele>748</ele>
        <time>2026-08-19T05:14:58.566Z</time>
      </trkpt>
      <trkpt lat="45.89748" lon="6.33808">
        <ele>749</ele>
        <time>2026-08-19T05:14:59.566Z</time>
      </trkpt>
      <trkpt lat="45.89747" lon="6.33806">
        <ele>749</ele>
        <time>2026-08-19T05:15:00.566Z</time>
      </trkpt>
      <trkpt lat="45.89747" lon="6.33805">
        <ele>749</ele>
        <time>2026-08-19T05:15:01.566Z</time>
      </trkpt>
      <trkpt lat="45.89746" lon="6.33804">
        <ele>749</ele>
        <time>2026-08-19T05:15:02.566Z</time>
      </trkpt>
      <trkpt lat="45.89745" lon="6.33802">
        <ele>750</ele>
        <time>2026-08-19T05:15:03.566Z</time>
      </trkpt>
      <trkpt lat="45.89745" lon="6.33801">
        <ele>750</ele>
        <time>2026-08-19T05:15:04.566Z</time>
      </trkpt>
      <trkpt lat="45.89746" lon="6.338">
        <ele>751</ele>
        <time>2026-08-19T05:15:05.566Z</time>
      </trkpt>
      <trkpt lat="45.89746" lon="6.33799">
        <ele>751</ele>
        <time>2026-08-19T05:15:06.566Z</time>
      </trkpt>
      <trkpt lat="45.89747" lon="6.33797">
        <ele>752</ele>
        <time>2026-08-19T05:15:07.566Z</time>
      </trkpt>
      <trkpt lat="45.89747" lon="6.33796">
        <ele>752</ele>
        <time>2026-08-19T05:15:08.566Z</time>
      </trkpt>
      <trkpt lat="45.89747" lon="6.33795">
        <ele>752</ele>
        <time>2026-08-19T05:15:09.566Z</time>
      </trkpt>
      <trkpt lat="45.89747" lon="6.33794">
        <ele>753</ele>
        <time>2026-08-19T05:15:10.566Z</time>
      </trkpt>
      <trkpt lat="45.89747" lon="6.33793">
        <ele>753</ele>
        <time>2026-08-19T05:15:11.566Z</time>
      </trkpt>
      <trkpt lat="45.89747" lon="6.33792">
        <ele>754</ele>
        <time>2026-08-19T05:15:12.566Z</time>
      </trkpt>
      <trkpt lat="45.89745" lon="6.33791">
        <ele>754</ele>
        <time>2026-08-19T05:15:13.566Z</time>
      </trkpt>
      <trkpt lat="45.89744" lon="6.33789">
        <ele>755</ele>
        <time>2026-08-19T05:15:14.566Z</time>
      </trkpt>
      <trkpt lat="45.89744" lon="6.33786">
        <ele>755</ele>
        <time>2026-08-19T05:15:15.566Z</time>
      </trkpt>
      <trkpt lat="45.89743" lon="6.33784">
        <ele>756</ele>
        <time>2026-08-19T05:15:16.566Z</time>
      </trkpt>
      <trkpt lat="45.89744" lon="6.33782">
        <ele>756</ele>
        <time>2026-08-19T05:15:17.566Z</time>
      </trkpt>
      <trkpt lat="45.89744" lon="6.33781">
        <ele>756</ele>
        <time>2026-08-19T05:15:18.566Z</time>
      </trkpt>
      <trkpt lat="45.89744" lon="6.33779">
        <ele>756</ele>
        <time>2026-08-19T05:15:19.566Z</time>
      </trkpt>
      <trkpt lat="45.89744" lon="6.33777">
        <ele>756</ele>
        <time>2026-08-19T05:15:20.566Z</time>
      </trkpt>
      <trkpt lat="45.89743" lon="6.33776">
        <ele>756</ele>
        <time>2026-08-19T05:15:21.566Z</time>
      </trkpt>
      <trkpt lat="45.89743" lon="6.33774">
        <ele>757</ele>
        <time>2026-08-19T05:15:22.566Z</time>
      </trkpt>
      <trkpt lat="45.89743" lon="6.33773">
        <ele>757</ele>
        <time>2026-08-19T05:15:23.566Z</time>
      </trkpt>
      <trkpt lat="45.89743" lon="6.33772">
        <ele>758</ele>
        <time>2026-08-19T05:15:24.566Z</time>
      </trkpt>
      <trkpt lat="45.89743" lon="6.33772">
        <ele>758</ele>
        <time>2026-08-19T05:15:25.566Z</time>
      </trkpt>
      <trkpt lat="45.89743" lon="6.33771">
        <ele>759</ele>
        <time>2026-08-19T05:15:26.566Z</time>
      </trkpt>
      <trkpt lat="45.89743" lon="6.3377">
        <ele>759</ele>
        <time>2026-08-19T05:15:27.566Z</time>
      </trkpt>
      <trkpt lat="45.89743" lon="6.33768">
        <ele>760</ele>
        <time>2026-08-19T05:15:28.566Z</time>
      </trkpt>
      <trkpt lat="45.89742" lon="6.33767">
        <ele>760</ele>
        <time>2026-08-19T05:15:29.566Z</time>
      </trkpt>
      <trkpt lat="45.89742" lon="6.33765">
        <ele>761</ele>
        <time>2026-08-19T05:15:30.566Z</time>
      </trkpt>
      <trkpt lat="45.89742" lon="6.33764">
        <ele>761</ele>
        <time>2026-08-19T05:15:31.566Z</time>
      </trkpt>
      <trkpt lat="45.89742" lon="6.33763">
        <ele>762</ele>
        <time>2026-08-19T05:15:32.566Z</time>
      </trkpt>
      <trkpt lat="45.89741" lon="6.33762">
        <ele>762</ele>
        <time>2026-08-19T05:15:33.566Z</time>
      </trkpt>
      <trkpt lat="45.8974" lon="6.3376">
        <ele>763</ele>
        <time>2026-08-19T05:15:34.566Z</time>
      </trkpt>
      <trkpt lat="45.8974" lon="6.33759">
        <ele>763</ele>
        <time>2026-08-19T05:15:35.566Z</time>
      </trkpt>
      <trkpt lat="45.8974" lon="6.33757">
        <ele>763</ele>
        <time>2026-08-19T05:15:36.566Z</time>
      </trkpt>
      <trkpt lat="45.8974" lon="6.33756">
        <ele>763</ele>
        <time>2026-08-19T05:15:37.566Z</time>
      </trkpt>
      <trkpt lat="45.8974" lon="6.33754">
        <ele>763</ele>
        <time>2026-08-19T05:15:38.566Z</time>
      </trkpt>
      <trkpt lat="45.8974" lon="6.33752">
        <ele>763</ele>
        <time>2026-08-19T05:15:39.566Z</time>
      </trkpt>
      <trkpt lat="45.8974" lon="6.33751">
        <ele>763</ele>
        <time>2026-08-19T05:15:40.566Z</time>
      </trkpt>
      <trkpt lat="45.8974" lon="6.33749">
        <ele>763</ele>
        <time>2026-08-19T05:15:41.566Z</time>
      </trkpt>
      <trkpt lat="45.8974" lon="6.33748">
        <ele>763</ele>
        <time>2026-08-19T05:15:42.566Z</time>
      </trkpt>
      <trkpt lat="45.8974" lon="6.33746">
        <ele>764</ele>
        <time>2026-08-19T05:15:43.566Z</time>
      </trkpt>
      <trkpt lat="45.8974" lon="6.33745">
        <ele>764</ele>
        <time>2026-08-19T05:15:44.566Z</time>
      </trkpt>
      <trkpt lat="45.8974" lon="6.33744">
        <ele>764</ele>
        <time>2026-08-19T05:15:45.566Z</time>
      </trkpt>
      <trkpt lat="45.89739" lon="6.33742">
        <ele>764</ele>
        <time>2026-08-19T05:15:46.566Z</time>
      </trkpt>
      <trkpt lat="45.89738" lon="6.33741">
        <ele>764</ele>
        <time>2026-08-19T05:15:47.566Z</time>
      </trkpt>
      <trkpt lat="45.89738" lon="6.33739">
        <ele>765</ele>
        <time>2026-08-19T05:15:48.566Z</time>
      </trkpt>
      <trkpt lat="45.89738" lon="6.33738">
        <ele>765</ele>
        <time>2026-08-19T05:15:49.566Z</time>
      </trkpt>
      <trkpt lat="45.89738" lon="6.33737">
        <ele>765</ele>
        <time>2026-08-19T05:15:50.566Z</time>
      </trkpt>
      <trkpt lat="45.89738" lon="6.33735">
        <ele>766</ele>
        <time>2026-08-19T05:15:51.566Z</time>
      </trkpt>
      <trkpt lat="45.89738" lon="6.33734">
        <ele>766</ele>
        <time>2026-08-19T05:15:52.566Z</time>
      </trkpt>
      <trkpt lat="45.89738" lon="6.33732">
        <ele>766</ele>
        <time>2026-08-19T05:15:53.566Z</time>
      </trkpt>
      <trkpt lat="45.89738" lon="6.33731">
        <ele>766</ele>
        <time>2026-08-19T05:15:54.566Z</time>
      </trkpt>
      <trkpt lat="45.89738" lon="6.3373">
        <ele>766</ele>
        <time>2026-08-19T05:15:55.566Z</time>
      </trkpt>
      <trkpt lat="45.89738" lon="6.33729">
        <ele>766</ele>
        <time>2026-08-19T05:15:56.566Z</time>
      </trkpt>
      <trkpt lat="45.89738" lon="6.33728">
        <ele>766</ele>
        <time>2026-08-19T05:15:57.566Z</time>
      </trkpt>
      <trkpt lat="45.89738" lon="6.33728">
        <ele>766</ele>
        <time>2026-08-19T05:15:58.566Z</time>
      </trkpt>
      <trkpt lat="45.89738" lon="6.33726">
        <ele>766</ele>
        <time>2026-08-19T05:15:59.566Z</time>
      </trkpt>
      <trkpt lat="45.89738" lon="6.33725">
        <ele>766</ele>
        <time>2026-08-19T05:16:00.566Z</time>
      </trkpt>
      <trkpt lat="45.89738" lon="6.33724">
        <ele>766</ele>
        <time>2026-08-19T05:16:01.566Z</time>
      </trkpt>
      <trkpt lat="45.89738" lon="6.33723">
        <ele>766</ele>
        <time>2026-08-19T05:16:02.566Z</time>
      </trkpt>
      <trkpt lat="45.89739" lon="6.33722">
        <ele>766</ele>
        <time>2026-08-19T05:16:03.566Z</time>
      </trkpt>
      <trkpt lat="45.89739" lon="6.3372">
        <ele>766</ele>
        <time>2026-08-19T05:16:04.566Z</time>
      </trkpt>
      <trkpt lat="45.89739" lon="6.33719">
        <ele>766</ele>
        <time>2026-08-19T05:16:05.566Z</time>
      </trkpt>
      <trkpt lat="45.89739" lon="6.33717">
        <ele>766</ele>
        <time>2026-08-19T05:16:06.566Z</time>
      </trkpt>
      <trkpt lat="45.89738" lon="6.33716">
        <ele>766</ele>
        <time>2026-08-19T05:16:07.566Z</time>
      </trkpt>
      <trkpt lat="45.89738" lon="6.33715">
        <ele>766</ele>
        <time>2026-08-19T05:16:08.566Z</time>
      </trkpt>
      <trkpt lat="45.89738" lon="6.33713">
        <ele>766</ele>
        <time>2026-08-19T05:16:09.566Z</time>
      </trkpt>
      <trkpt lat="45.89738" lon="6.33711">
        <ele>766</ele>
        <time>2026-08-19T05:16:10.566Z</time>
      </trkpt>
      <trkpt lat="45.89738" lon="6.3371">
        <ele>767</ele>
        <time>2026-08-19T05:16:11.566Z</time>
      </trkpt>
      <trkpt lat="45.89738" lon="6.33709">
        <ele>767</ele>
        <time>2026-08-19T05:16:12.566Z</time>
      </trkpt>
      <trkpt lat="45.89738" lon="6.33707">
        <ele>768</ele>
        <time>2026-08-19T05:16:13.566Z</time>
      </trkpt>
      <trkpt lat="45.89738" lon="6.33706">
        <ele>768</ele>
        <time>2026-08-19T05:16:14.566Z</time>
      </trkpt>
      <trkpt lat="45.89738" lon="6.33705">
        <ele>769</ele>
        <time>2026-08-19T05:16:15.566Z</time>
      </trkpt>
      <trkpt lat="45.89737" lon="6.33704">
        <ele>769</ele>
        <time>2026-08-19T05:16:16.566Z</time>
      </trkpt>
      <trkpt lat="45.89737" lon="6.33703">
        <ele>770</ele>
        <time>2026-08-19T05:16:17.566Z</time>
      </trkpt>
      <trkpt lat="45.89737" lon="6.33702">
        <ele>770</ele>
        <time>2026-08-19T05:16:18.566Z</time>
      </trkpt>
      <trkpt lat="45.89736" lon="6.33701">
        <ele>770</ele>
        <time>2026-08-19T05:16:19.566Z</time>
      </trkpt>
      <trkpt lat="45.89736" lon="6.337">
        <ele>770</ele>
        <time>2026-08-19T05:16:20.566Z</time>
      </trkpt>
      <trkpt lat="45.89736" lon="6.33699">
        <ele>771</ele>
        <time>2026-08-19T05:16:21.566Z</time>
      </trkpt>
      <trkpt lat="45.89736" lon="6.33699">
        <ele>771</ele>
        <time>2026-08-19T05:16:22.566Z</time>
      </trkpt>
      <trkpt lat="45.89735" lon="6.33698">
        <ele>771</ele>
        <time>2026-08-19T05:16:23.566Z</time>
      </trkpt>
      <trkpt lat="45.89735" lon="6.33697">
        <ele>772</ele>
        <time>2026-08-19T05:16:24.566Z</time>
      </trkpt>
      <trkpt lat="45.89734" lon="6.33697">
        <ele>772</ele>
        <time>2026-08-19T05:16:25.566Z</time>
      </trkpt>
      <trkpt lat="45.89734" lon="6.33696">
        <ele>772</ele>
        <time>2026-08-19T05:16:26.566Z</time>
      </trkpt>
      <trkpt lat="45.89734" lon="6.33695">
        <ele>772</ele>
        <time>2026-08-19T05:16:27.566Z</time>
      </trkpt>
      <trkpt lat="45.89733" lon="6.33693">
        <ele>772</ele>
        <time>2026-08-19T05:16:28.566Z</time>
      </trkpt>
      <trkpt lat="45.89733" lon="6.33692">
        <ele>772</ele>
        <time>2026-08-19T05:16:29.566Z</time>
      </trkpt>
      <trkpt lat="45.89733" lon="6.33691">
        <ele>772</ele>
        <time>2026-08-19T05:16:30.566Z</time>
      </trkpt>
      <trkpt lat="45.89733" lon="6.3369">
        <ele>772</ele>
        <time>2026-08-19T05:16:31.566Z</time>
      </trkpt>
      <trkpt lat="45.89732" lon="6.33689">
        <ele>772</ele>
        <time>2026-08-19T05:16:32.566Z</time>
      </trkpt>
      <trkpt lat="45.89732" lon="6.33688">
        <ele>773</ele>
        <time>2026-08-19T05:16:33.566Z</time>
      </trkpt>
      <trkpt lat="45.89732" lon="6.33687">
        <ele>773</ele>
        <time>2026-08-19T05:16:34.566Z</time>
      </trkpt>
      <trkpt lat="45.89732" lon="6.33686">
        <ele>774</ele>
        <time>2026-08-19T05:16:35.566Z</time>
      </trkpt>
      <trkpt lat="45.89731" lon="6.33684">
        <ele>775</ele>
        <time>2026-08-19T05:16:36.566Z</time>
      </trkpt>
      <trkpt lat="45.89731" lon="6.33683">
        <ele>775</ele>
        <time>2026-08-19T05:16:37.566Z</time>
      </trkpt>
      <trkpt lat="45.89731" lon="6.33683">
        <ele>775</ele>
        <time>2026-08-19T05:16:38.566Z</time>
      </trkpt>
      <trkpt lat="45.89731" lon="6.33682">
        <ele>776</ele>
        <time>2026-08-19T05:16:39.566Z</time>
      </trkpt>
      <trkpt lat="45.89731" lon="6.33681">
        <ele>776</ele>
        <time>2026-08-19T05:16:40.566Z</time>
      </trkpt>
      <trkpt lat="45.8973" lon="6.3368">
        <ele>776</ele>
        <time>2026-08-19T05:16:41.566Z</time>
      </trkpt>
      <trkpt lat="45.8973" lon="6.3368">
        <ele>776</ele>
        <time>2026-08-19T05:16:42.566Z</time>
      </trkpt>
      <trkpt lat="45.89729" lon="6.33679">
        <ele>776</ele>
        <time>2026-08-19T05:16:43.566Z</time>
      </trkpt>
      <trkpt lat="45.89729" lon="6.33678">
        <ele>776</ele>
        <time>2026-08-19T05:16:44.566Z</time>
      </trkpt>
      <trkpt lat="45.89729" lon="6.33677">
        <ele>777</ele>
        <time>2026-08-19T05:16:45.566Z</time>
      </trkpt>
      <trkpt lat="45.89729" lon="6.33676">
        <ele>777</ele>
        <time>2026-08-19T05:16:46.566Z</time>
      </trkpt>
      <trkpt lat="45.89729" lon="6.33675">
        <ele>777</ele>
        <time>2026-08-19T05:16:47.566Z</time>
      </trkpt>
      <trkpt lat="45.8973" lon="6.33674">
        <ele>777</ele>
        <time>2026-08-19T05:16:48.566Z</time>
      </trkpt>
      <trkpt lat="45.8973" lon="6.33672">
        <ele>778</ele>
        <time>2026-08-19T05:16:49.566Z</time>
      </trkpt>
      <trkpt lat="45.89729" lon="6.33671">
        <ele>778</ele>
        <time>2026-08-19T05:16:50.566Z</time>
      </trkpt>
      <trkpt lat="45.89729" lon="6.3367">
        <ele>778</ele>
        <time>2026-08-19T05:16:51.566Z</time>
      </trkpt>
      <trkpt lat="45.89729" lon="6.33668">
        <ele>778</ele>
        <time>2026-08-19T05:16:52.566Z</time>
      </trkpt>
      <trkpt lat="45.89729" lon="6.33667">
        <ele>779</ele>
        <time>2026-08-19T05:16:53.566Z</time>
      </trkpt>
      <trkpt lat="45.89729" lon="6.33665">
        <ele>779</ele>
        <time>2026-08-19T05:16:54.566Z</time>
      </trkpt>
      <trkpt lat="45.89728" lon="6.33664">
        <ele>779</ele>
        <time>2026-08-19T05:16:55.566Z</time>
      </trkpt>
      <trkpt lat="45.89728" lon="6.33663">
        <ele>779</ele>
        <time>2026-08-19T05:16:56.566Z</time>
      </trkpt>
      <trkpt lat="45.89728" lon="6.33661">
        <ele>778</ele>
        <time>2026-08-19T05:16:57.566Z</time>
      </trkpt>
      <trkpt lat="45.89727" lon="6.3366">
        <ele>778</ele>
        <time>2026-08-19T05:16:58.566Z</time>
      </trkpt>
      <trkpt lat="45.89727" lon="6.33659">
        <ele>778</ele>
        <time>2026-08-19T05:16:59.566Z</time>
      </trkpt>
      <trkpt lat="45.89726" lon="6.33658">
        <ele>778</ele>
        <time>2026-08-19T05:17:00.566Z</time>
      </trkpt>
      <trkpt lat="45.89726" lon="6.33656">
        <ele>778</ele>
        <time>2026-08-19T05:17:01.566Z</time>
      </trkpt>
      <trkpt lat="45.89726" lon="6.33655">
        <ele>779</ele>
        <time>2026-08-19T05:17:02.566Z</time>
      </trkpt>
      <trkpt lat="45.89726" lon="6.33653">
        <ele>779</ele>
        <time>2026-08-19T05:17:03.566Z</time>
      </trkpt>
      <trkpt lat="45.89725" lon="6.33651">
        <ele>779</ele>
        <time>2026-08-19T05:17:04.566Z</time>
      </trkpt>
      <trkpt lat="45.89725" lon="6.3365">
        <ele>780</ele>
        <time>2026-08-19T05:17:05.566Z</time>
      </trkpt>
      <trkpt lat="45.89725" lon="6.33649">
        <ele>780</ele>
        <time>2026-08-19T05:17:06.566Z</time>
      </trkpt>
      <trkpt lat="45.89725" lon="6.33648">
        <ele>780</ele>
        <time>2026-08-19T05:17:07.566Z</time>
      </trkpt>
      <trkpt lat="45.89724" lon="6.33647">
        <ele>780</ele>
        <time>2026-08-19T05:17:08.566Z</time>
      </trkpt>
      <trkpt lat="45.89724" lon="6.33646">
        <ele>780</ele>
        <time>2026-08-19T05:17:09.566Z</time>
      </trkpt>
      <trkpt lat="45.89724" lon="6.33644">
        <ele>780</ele>
        <time>2026-08-19T05:17:10.566Z</time>
      </trkpt>
      <trkpt lat="45.89723" lon="6.33643">
        <ele>781</ele>
        <time>2026-08-19T05:17:11.566Z</time>
      </trkpt>
      <trkpt lat="45.89723" lon="6.33641">
        <ele>781</ele>
        <time>2026-08-19T05:17:12.566Z</time>
      </trkpt>
      <trkpt lat="45.89722" lon="6.33639">
        <ele>781</ele>
        <time>2026-08-19T05:17:13.566Z</time>
      </trkpt>
      <trkpt lat="45.89722" lon="6.33638">
        <ele>781</ele>
        <time>2026-08-19T05:17:14.566Z</time>
      </trkpt>
      <trkpt lat="45.89722" lon="6.33635">
        <ele>781</ele>
        <time>2026-08-19T05:17:15.566Z</time>
      </trkpt>
      <trkpt lat="45.89721" lon="6.33633">
        <ele>781</ele>
        <time>2026-08-19T05:17:16.566Z</time>
      </trkpt>
      <trkpt lat="45.89721" lon="6.33632">
        <ele>781</ele>
        <time>2026-08-19T05:17:17.566Z</time>
      </trkpt>
      <trkpt lat="45.89721" lon="6.3363">
        <ele>782</ele>
        <time>2026-08-19T05:17:18.566Z</time>
      </trkpt>
      <trkpt lat="45.8972" lon="6.33628">
        <ele>782</ele>
        <time>2026-08-19T05:17:19.566Z</time>
      </trkpt>
      <trkpt lat="45.8972" lon="6.33626">
        <ele>783</ele>
        <time>2026-08-19T05:17:20.566Z</time>
      </trkpt>
      <trkpt lat="45.8972" lon="6.33625">
        <ele>784</ele>
        <time>2026-08-19T05:17:21.566Z</time>
      </trkpt>
      <trkpt lat="45.8972" lon="6.33623">
        <ele>784</ele>
        <time>2026-08-19T05:17:22.566Z</time>
      </trkpt>
      <trkpt lat="45.89719" lon="6.33622">
        <ele>784</ele>
        <time>2026-08-19T05:17:23.566Z</time>
      </trkpt>
      <trkpt lat="45.89719" lon="6.3362">
        <ele>785</ele>
        <time>2026-08-19T05:17:24.566Z</time>
      </trkpt>
      <trkpt lat="45.89719" lon="6.33618">
        <ele>785</ele>
        <time>2026-08-19T05:17:25.566Z</time>
      </trkpt>
      <trkpt lat="45.89719" lon="6.33616">
        <ele>785</ele>
        <time>2026-08-19T05:17:26.566Z</time>
      </trkpt>
      <trkpt lat="45.89719" lon="6.33615">
        <ele>785</ele>
        <time>2026-08-19T05:17:27.566Z</time>
      </trkpt>
      <trkpt lat="45.8972" lon="6.33614">
        <ele>786</ele>
        <time>2026-08-19T05:17:28.566Z</time>
      </trkpt>
      <trkpt lat="45.8972" lon="6.33613">
        <ele>786</ele>
        <time>2026-08-19T05:17:29.566Z</time>
      </trkpt>
      <trkpt lat="45.8972" lon="6.33611">
        <ele>786</ele>
        <time>2026-08-19T05:17:30.566Z</time>
      </trkpt>
      <trkpt lat="45.8972" lon="6.3361">
        <ele>786</ele>
        <time>2026-08-19T05:17:31.566Z</time>
      </trkpt>
      <trkpt lat="45.8972" lon="6.33608">
        <ele>787</ele>
        <time>2026-08-19T05:17:32.566Z</time>
      </trkpt>
      <trkpt lat="45.8972" lon="6.33606">
        <ele>787</ele>
        <time>2026-08-19T05:17:33.566Z</time>
      </trkpt>
      <trkpt lat="45.8972" lon="6.33604">
        <ele>787</ele>
        <time>2026-08-19T05:17:34.566Z</time>
      </trkpt>
      <trkpt lat="45.8972" lon="6.33602">
        <ele>787</ele>
        <time>2026-08-19T05:17:35.566Z</time>
      </trkpt>
      <trkpt lat="45.8972" lon="6.336">
        <ele>788</ele>
        <time>2026-08-19T05:17:36.566Z</time>
      </trkpt>
      <trkpt lat="45.8972" lon="6.33598">
        <ele>788</ele>
        <time>2026-08-19T05:17:37.566Z</time>
      </trkpt>
      <trkpt lat="45.8972" lon="6.33596">
        <ele>789</ele>
        <time>2026-08-19T05:17:38.566Z</time>
      </trkpt>
      <trkpt lat="45.8972" lon="6.33594">
        <ele>789</ele>
        <time>2026-08-19T05:17:39.566Z</time>
      </trkpt>
      <trkpt lat="45.89719" lon="6.33592">
        <ele>790</ele>
        <time>2026-08-19T05:17:40.566Z</time>
      </trkpt>
      <trkpt lat="45.89719" lon="6.3359">
        <ele>791</ele>
        <time>2026-08-19T05:17:41.566Z</time>
      </trkpt>
      <trkpt lat="45.89719" lon="6.33588">
        <ele>791</ele>
        <time>2026-08-19T05:17:42.566Z</time>
      </trkpt>
      <trkpt lat="45.89718" lon="6.33587">
        <ele>792</ele>
        <time>2026-08-19T05:17:43.566Z</time>
      </trkpt>
      <trkpt lat="45.89718" lon="6.33585">
        <ele>792</ele>
        <time>2026-08-19T05:17:44.566Z</time>
      </trkpt>
      <trkpt lat="45.89717" lon="6.33584">
        <ele>793</ele>
        <time>2026-08-19T05:17:45.566Z</time>
      </trkpt>
      <trkpt lat="45.89716" lon="6.33583">
        <ele>793</ele>
        <time>2026-08-19T05:17:46.566Z</time>
      </trkpt>
      <trkpt lat="45.89716" lon="6.33582">
        <ele>794</ele>
        <time>2026-08-19T05:17:47.566Z</time>
      </trkpt>
      <trkpt lat="45.89716" lon="6.33581">
        <ele>794</ele>
        <time>2026-08-19T05:17:48.566Z</time>
      </trkpt>
      <trkpt lat="45.89715" lon="6.3358">
        <ele>795</ele>
        <time>2026-08-19T05:17:49.566Z</time>
      </trkpt>
      <trkpt lat="45.89714" lon="6.33579">
        <ele>795</ele>
        <time>2026-08-19T05:17:50.566Z</time>
      </trkpt>
      <trkpt lat="45.89713" lon="6.33578">
        <ele>795</ele>
        <time>2026-08-19T05:17:51.566Z</time>
      </trkpt>
      <trkpt lat="45.89713" lon="6.33577">
        <ele>795</ele>
        <time>2026-08-19T05:17:52.566Z</time>
      </trkpt>
      <trkpt lat="45.89713" lon="6.33576">
        <ele>796</ele>
        <time>2026-08-19T05:17:53.566Z</time>
      </trkpt>
      <trkpt lat="45.89713" lon="6.33575">
        <ele>796</ele>
        <time>2026-08-19T05:17:54.566Z</time>
      </trkpt>
      <trkpt lat="45.89713" lon="6.33575">
        <ele>797</ele>
        <time>2026-08-19T05:17:55.566Z</time>
      </trkpt>
      <trkpt lat="45.89712" lon="6.33574">
        <ele>797</ele>
        <time>2026-08-19T05:17:56.566Z</time>
      </trkpt>
      <trkpt lat="45.89712" lon="6.33574">
        <ele>798</ele>
        <time>2026-08-19T05:17:57.566Z</time>
      </trkpt>
      <trkpt lat="45.89712" lon="6.33573">
        <ele>798</ele>
        <time>2026-08-19T05:17:58.566Z</time>
      </trkpt>
      <trkpt lat="45.89712" lon="6.33573">
        <ele>799</ele>
        <time>2026-08-19T05:17:59.566Z</time>
      </trkpt>
      <trkpt lat="45.89711" lon="6.33573">
        <ele>799</ele>
        <time>2026-08-19T05:18:00.566Z</time>
      </trkpt>
      <trkpt lat="45.8971" lon="6.33573">
        <ele>799</ele>
        <time>2026-08-19T05:18:01.566Z</time>
      </trkpt>
      <trkpt lat="45.8971" lon="6.33573">
        <ele>800</ele>
        <time>2026-08-19T05:18:02.566Z</time>
      </trkpt>
      <trkpt lat="45.89709" lon="6.33572">
        <ele>800</ele>
        <time>2026-08-19T05:18:03.566Z</time>
      </trkpt>
      <trkpt lat="45.89709" lon="6.33572">
        <ele>800</ele>
        <time>2026-08-19T05:18:04.566Z</time>
      </trkpt>
      <trkpt lat="45.8971" lon="6.33571">
        <ele>800</ele>
        <time>2026-08-19T05:18:05.566Z</time>
      </trkpt>
      <trkpt lat="45.89711" lon="6.33569">
        <ele>800</ele>
        <time>2026-08-19T05:18:06.566Z</time>
      </trkpt>
      <trkpt lat="45.89711" lon="6.33567">
        <ele>800</ele>
        <time>2026-08-19T05:18:07.566Z</time>
      </trkpt>
      <trkpt lat="45.89712" lon="6.33565">
        <ele>800</ele>
        <time>2026-08-19T05:18:08.566Z</time>
      </trkpt>
      <trkpt lat="45.89712" lon="6.33562">
        <ele>800</ele>
        <time>2026-08-19T05:18:09.566Z</time>
      </trkpt>
      <trkpt lat="45.89712" lon="6.3356">
        <ele>799</ele>
        <time>2026-08-19T05:18:10.566Z</time>
      </trkpt>
      <trkpt lat="45.89712" lon="6.33558">
        <ele>799</ele>
        <time>2026-08-19T05:18:11.566Z</time>
      </trkpt>
      <trkpt lat="45.89713" lon="6.33555">
        <ele>799</ele>
        <time>2026-08-19T05:18:12.566Z</time>
      </trkpt>
      <trkpt lat="45.89713" lon="6.33552">
        <ele>799</ele>
        <time>2026-08-19T05:18:13.566Z</time>
      </trkpt>
      <trkpt lat="45.89713" lon="6.33551">
        <ele>799</ele>
        <time>2026-08-19T05:18:14.566Z</time>
      </trkpt>
      <trkpt lat="45.89714" lon="6.33549">
        <ele>799</ele>
        <time>2026-08-19T05:18:15.566Z</time>
      </trkpt>
      <trkpt lat="45.89715" lon="6.33548">
        <ele>798</ele>
        <time>2026-08-19T05:18:16.566Z</time>
      </trkpt>
      <trkpt lat="45.89716" lon="6.33548">
        <ele>798</ele>
        <time>2026-08-19T05:18:17.566Z</time>
      </trkpt>
      <trkpt lat="45.89717" lon="6.33546">
        <ele>798</ele>
        <time>2026-08-19T05:18:18.566Z</time>
      </trkpt>
      <trkpt lat="45.89718" lon="6.33544">
        <ele>798</ele>
        <time>2026-08-19T05:18:19.566Z</time>
      </trkpt>
      <trkpt lat="45.89719" lon="6.33543">
        <ele>798</ele>
        <time>2026-08-19T05:18:20.566Z</time>
      </trkpt>
      <trkpt lat="45.8972" lon="6.33541">
        <ele>799</ele>
        <time>2026-08-19T05:18:21.566Z</time>
      </trkpt>
      <trkpt lat="45.89721" lon="6.3354">
        <ele>799</ele>
        <time>2026-08-19T05:18:22.566Z</time>
      </trkpt>
      <trkpt lat="45.89722" lon="6.33539">
        <ele>799</ele>
        <time>2026-08-19T05:18:23.566Z</time>
      </trkpt>
      <trkpt lat="45.89723" lon="6.33539">
        <ele>800</ele>
        <time>2026-08-19T05:18:24.566Z</time>
      </trkpt>
      <trkpt lat="45.89725" lon="6.33538">
        <ele>800</ele>
        <time>2026-08-19T05:18:25.566Z</time>
      </trkpt>
      <trkpt lat="45.89726" lon="6.33539">
        <ele>801</ele>
        <time>2026-08-19T05:18:26.566Z</time>
      </trkpt>
      <trkpt lat="45.89727" lon="6.33539">
        <ele>802</ele>
        <time>2026-08-19T05:18:27.566Z</time>
      </trkpt>
      <trkpt lat="45.89727" lon="6.33539">
        <ele>803</ele>
        <time>2026-08-19T05:18:28.566Z</time>
      </trkpt>
      <trkpt lat="45.89728" lon="6.33538">
        <ele>803</ele>
        <time>2026-08-19T05:18:29.566Z</time>
      </trkpt>
      <trkpt lat="45.89728" lon="6.33538">
        <ele>804</ele>
        <time>2026-08-19T05:18:30.566Z</time>
      </trkpt>
      <trkpt lat="45.8973" lon="6.33538">
        <ele>805</ele>
        <time>2026-08-19T05:18:31.566Z</time>
      </trkpt>
      <trkpt lat="45.89731" lon="6.33538">
        <ele>806</ele>
        <time>2026-08-19T05:18:32.566Z</time>
      </trkpt>
      <trkpt lat="45.89732" lon="6.33538">
        <ele>806</ele>
        <time>2026-08-19T05:18:33.566Z</time>
      </trkpt>
      <trkpt lat="45.89733" lon="6.33539">
        <ele>806</ele>
        <time>2026-08-19T05:18:34.566Z</time>
      </trkpt>
      <trkpt lat="45.89733" lon="6.3354">
        <ele>807</ele>
        <time>2026-08-19T05:18:35.566Z</time>
      </trkpt>
      <trkpt lat="45.89733" lon="6.3354">
        <ele>807</ele>
        <time>2026-08-19T05:18:36.566Z</time>
      </trkpt>
      <trkpt lat="45.89734" lon="6.33541">
        <ele>807</ele>
        <time>2026-08-19T05:18:37.566Z</time>
      </trkpt>
      <trkpt lat="45.89734" lon="6.33542">
        <ele>807</ele>
        <time>2026-08-19T05:18:38.566Z</time>
      </trkpt>
      <trkpt lat="45.89734" lon="6.33543">
        <ele>807</ele>
        <time>2026-08-19T05:18:39.566Z</time>
      </trkpt>
      <trkpt lat="45.89735" lon="6.33545">
        <ele>808</ele>
        <time>2026-08-19T05:18:40.566Z</time>
      </trkpt>
      <trkpt lat="45.89736" lon="6.33546">
        <ele>808</ele>
        <time>2026-08-19T05:18:41.566Z</time>
      </trkpt>
      <trkpt lat="45.89737" lon="6.33548">
        <ele>808</ele>
        <time>2026-08-19T05:18:42.566Z</time>
      </trkpt>
      <trkpt lat="45.89737" lon="6.3355">
        <ele>808</ele>
        <time>2026-08-19T05:18:43.566Z</time>
      </trkpt>
      <trkpt lat="45.89738" lon="6.33552">
        <ele>808</ele>
        <time>2026-08-19T05:18:44.566Z</time>
      </trkpt>
      <trkpt lat="45.89738" lon="6.33554">
        <ele>808</ele>
        <time>2026-08-19T05:18:45.566Z</time>
      </trkpt>
      <trkpt lat="45.89738" lon="6.33556">
        <ele>809</ele>
        <time>2026-08-19T05:18:46.566Z</time>
      </trkpt>
      <trkpt lat="45.89738" lon="6.33558">
        <ele>809</ele>
        <time>2026-08-19T05:18:47.566Z</time>
      </trkpt>
      <trkpt lat="45.89738" lon="6.3356">
        <ele>808</ele>
        <time>2026-08-19T05:18:48.566Z</time>
      </trkpt>
      <trkpt lat="45.89739" lon="6.33562">
        <ele>808</ele>
        <time>2026-08-19T05:18:49.566Z</time>
      </trkpt>
      <trkpt lat="45.89739" lon="6.33564">
        <ele>808</ele>
        <time>2026-08-19T05:18:50.566Z</time>
      </trkpt>
      <trkpt lat="45.89739" lon="6.33566">
        <ele>808</ele>
        <time>2026-08-19T05:18:51.566Z</time>
      </trkpt>
      <trkpt lat="45.89739" lon="6.33568">
        <ele>807</ele>
        <time>2026-08-19T05:18:52.566Z</time>
      </trkpt>
      <trkpt lat="45.89739" lon="6.3357">
        <ele>806</ele>
        <time>2026-08-19T05:18:53.566Z</time>
      </trkpt>
      <trkpt lat="45.89739" lon="6.33571">
        <ele>806</ele>
        <time>2026-08-19T05:18:54.566Z</time>
      </trkpt>
      <trkpt lat="45.89739" lon="6.33572">
        <ele>805</ele>
        <time>2026-08-19T05:18:55.566Z</time>
      </trkpt>
      <trkpt lat="45.89739" lon="6.33574">
        <ele>804</ele>
        <time>2026-08-19T05:18:56.566Z</time>
      </trkpt>
      <trkpt lat="45.89739" lon="6.33575">
        <ele>804</ele>
        <time>2026-08-19T05:18:57.566Z</time>
      </trkpt>
      <trkpt lat="45.89738" lon="6.33577">
        <ele>803</ele>
        <time>2026-08-19T05:18:58.566Z</time>
      </trkpt>
      <trkpt lat="45.89739" lon="6.33579">
        <ele>803</ele>
        <time>2026-08-19T05:18:59.566Z</time>
      </trkpt>
      <trkpt lat="45.89739" lon="6.33581">
        <ele>803</ele>
        <time>2026-08-19T05:19:00.566Z</time>
      </trkpt>
      <trkpt lat="45.89739" lon="6.33582">
        <ele>802</ele>
        <time>2026-08-19T05:19:01.566Z</time>
      </trkpt>
      <trkpt lat="45.8974" lon="6.33584">
        <ele>802</ele>
        <time>2026-08-19T05:19:02.566Z</time>
      </trkpt>
      <trkpt lat="45.8974" lon="6.33586">
        <ele>802</ele>
        <time>2026-08-19T05:19:03.566Z</time>
      </trkpt>
      <trkpt lat="45.89741" lon="6.33587">
        <ele>802</ele>
        <time>2026-08-19T05:19:04.566Z</time>
      </trkpt>
      <trkpt lat="45.89742" lon="6.33589">
        <ele>802</ele>
        <time>2026-08-19T05:19:05.566Z</time>
      </trkpt>
      <trkpt lat="45.89743" lon="6.3359">
        <ele>802</ele>
        <time>2026-08-19T05:19:06.566Z</time>
      </trkpt>
      <trkpt lat="45.89744" lon="6.33592">
        <ele>802</ele>
        <time>2026-08-19T05:19:07.566Z</time>
      </trkpt>
      <trkpt lat="45.89745" lon="6.33593">
        <ele>803</ele>
        <time>2026-08-19T05:19:08.566Z</time>
      </trkpt>
      <trkpt lat="45.89747" lon="6.33594">
        <ele>803</ele>
        <time>2026-08-19T05:19:09.566Z</time>
      </trkpt>
      <trkpt lat="45.89748" lon="6.33596">
        <ele>804</ele>
        <time>2026-08-19T05:19:10.566Z</time>
      </trkpt>
      <trkpt lat="45.89749" lon="6.33597">
        <ele>804</ele>
        <time>2026-08-19T05:19:11.566Z</time>
      </trkpt>
      <trkpt lat="45.8975" lon="6.33599">
        <ele>805</ele>
        <time>2026-08-19T05:19:12.566Z</time>
      </trkpt>
      <trkpt lat="45.89751" lon="6.33601">
        <ele>805</ele>
        <time>2026-08-19T05:19:13.566Z</time>
      </trkpt>
      <trkpt lat="45.89752" lon="6.33602">
        <ele>805</ele>
        <time>2026-08-19T05:19:14.566Z</time>
      </trkpt>
      <trkpt lat="45.89752" lon="6.33603">
        <ele>804</ele>
        <time>2026-08-19T05:19:15.566Z</time>
      </trkpt>
      <trkpt lat="45.89753" lon="6.33604">
        <ele>804</ele>
        <time>2026-08-19T05:19:16.566Z</time>
      </trkpt>
      <trkpt lat="45.89754" lon="6.33606">
        <ele>804</ele>
        <time>2026-08-19T05:19:17.566Z</time>
      </trkpt>
      <trkpt lat="45.89755" lon="6.33608">
        <ele>804</ele>
        <time>2026-08-19T05:19:18.566Z</time>
      </trkpt>
      <trkpt lat="45.89756" lon="6.33609">
        <ele>804</ele>
        <time>2026-08-19T05:19:19.566Z</time>
      </trkpt>
      <trkpt lat="45.89757" lon="6.33611">
        <ele>804</ele>
        <time>2026-08-19T05:19:20.566Z</time>
      </trkpt>
      <trkpt lat="45.89758" lon="6.33613">
        <ele>804</ele>
        <time>2026-08-19T05:19:21.566Z</time>
      </trkpt>
      <trkpt lat="45.89758" lon="6.33614">
        <ele>804</ele>
        <time>2026-08-19T05:19:22.566Z</time>
      </trkpt>
      <trkpt lat="45.89759" lon="6.33616">
        <ele>805</ele>
        <time>2026-08-19T05:19:23.566Z</time>
      </trkpt>
      <trkpt lat="45.8976" lon="6.33617">
        <ele>805</ele>
        <time>2026-08-19T05:19:24.566Z</time>
      </trkpt>
      <trkpt lat="45.89761" lon="6.33619">
        <ele>805</ele>
        <time>2026-08-19T05:19:25.566Z</time>
      </trkpt>
      <trkpt lat="45.89761" lon="6.33621">
        <ele>805</ele>
        <time>2026-08-19T05:19:26.566Z</time>
      </trkpt>
      <trkpt lat="45.89762" lon="6.33622">
        <ele>806</ele>
        <time>2026-08-19T05:19:27.566Z</time>
      </trkpt>
      <trkpt lat="45.89763" lon="6.33624">
        <ele>806</ele>
        <time>2026-08-19T05:19:28.566Z</time>
      </trkpt>
      <trkpt lat="45.89763" lon="6.33626">
        <ele>806</ele>
        <time>2026-08-19T05:19:29.566Z</time>
      </trkpt>
      <trkpt lat="45.89764" lon="6.33627">
        <ele>806</ele>
        <time>2026-08-19T05:19:30.566Z</time>
      </trkpt>
      <trkpt lat="45.89765" lon="6.33629">
        <ele>806</ele>
        <time>2026-08-19T05:19:31.566Z</time>
      </trkpt>
      <trkpt lat="45.89766" lon="6.3363">
        <ele>806</ele>
        <time>2026-08-19T05:19:32.566Z</time>
      </trkpt>
      <trkpt lat="45.89767" lon="6.33631">
        <ele>806</ele>
        <time>2026-08-19T05:19:33.566Z</time>
      </trkpt>
      <trkpt lat="45.89768" lon="6.33632">
        <ele>807</ele>
        <time>2026-08-19T05:19:34.566Z</time>
      </trkpt>
      <trkpt lat="45.89769" lon="6.33633">
        <ele>807</ele>
        <time>2026-08-19T05:19:35.566Z</time>
      </trkpt>
      <trkpt lat="45.89771" lon="6.33633">
        <ele>808</ele>
        <time>2026-08-19T05:19:36.566Z</time>
      </trkpt>
      <trkpt lat="45.89772" lon="6.33635">
        <ele>808</ele>
        <time>2026-08-19T05:19:37.566Z</time>
      </trkpt>
      <trkpt lat="45.89773" lon="6.33635">
        <ele>809</ele>
        <time>2026-08-19T05:19:38.566Z</time>
      </trkpt>
      <trkpt lat="45.89774" lon="6.33636">
        <ele>810</ele>
        <time>2026-08-19T05:19:39.566Z</time>
      </trkpt>
      <trkpt lat="45.89775" lon="6.33637">
        <ele>810</ele>
        <time>2026-08-19T05:19:40.566Z</time>
      </trkpt>
      <trkpt lat="45.89776" lon="6.33638">
        <ele>811</ele>
        <time>2026-08-19T05:19:41.566Z</time>
      </trkpt>
      <trkpt lat="45.89777" lon="6.33638">
        <ele>811</ele>
        <time>2026-08-19T05:19:42.566Z</time>
      </trkpt>
      <trkpt lat="45.89778" lon="6.33638">
        <ele>811</ele>
        <time>2026-08-19T05:19:43.566Z</time>
      </trkpt>
      <trkpt lat="45.89779" lon="6.33639">
        <ele>811</ele>
        <time>2026-08-19T05:19:44.566Z</time>
      </trkpt>
      <trkpt lat="45.8978" lon="6.33639">
        <ele>811</ele>
        <time>2026-08-19T05:19:45.566Z</time>
      </trkpt>
      <trkpt lat="45.89781" lon="6.3364">
        <ele>811</ele>
        <time>2026-08-19T05:19:46.566Z</time>
      </trkpt>
      <trkpt lat="45.89782" lon="6.33641">
        <ele>811</ele>
        <time>2026-08-19T05:19:47.566Z</time>
      </trkpt>
      <trkpt lat="45.89783" lon="6.33642">
        <ele>811</ele>
        <time>2026-08-19T05:19:48.566Z</time>
      </trkpt>
      <trkpt lat="45.89784" lon="6.33643">
        <ele>812</ele>
        <time>2026-08-19T05:19:49.566Z</time>
      </trkpt>
      <trkpt lat="45.89784" lon="6.33644">
        <ele>812</ele>
        <time>2026-08-19T05:19:50.566Z</time>
      </trkpt>
      <trkpt lat="45.89785" lon="6.33645">
        <ele>812</ele>
        <time>2026-08-19T05:19:51.566Z</time>
      </trkpt>
      <trkpt lat="45.89786" lon="6.33645">
        <ele>813</ele>
        <time>2026-08-19T05:19:52.566Z</time>
      </trkpt>
      <trkpt lat="45.89787" lon="6.33646">
        <ele>813</ele>
        <time>2026-08-19T05:19:53.566Z</time>
      </trkpt>
      <trkpt lat="45.89788" lon="6.33647">
        <ele>813</ele>
        <time>2026-08-19T05:19:54.566Z</time>
      </trkpt>
      <trkpt lat="45.89789" lon="6.33648">
        <ele>814</ele>
        <time>2026-08-19T05:19:55.566Z</time>
      </trkpt>
      <trkpt lat="45.8979" lon="6.33649">
        <ele>814</ele>
        <time>2026-08-19T05:19:56.566Z</time>
      </trkpt>
      <trkpt lat="45.89792" lon="6.3365">
        <ele>814</ele>
        <time>2026-08-19T05:19:57.566Z</time>
      </trkpt>
      <trkpt lat="45.89793" lon="6.3365">
        <ele>815</ele>
        <time>2026-08-19T05:19:58.566Z</time>
      </trkpt>
      <trkpt lat="45.89794" lon="6.33651">
        <ele>815</ele>
        <time>2026-08-19T05:19:59.566Z</time>
      </trkpt>
      <trkpt lat="45.89795" lon="6.33652">
        <ele>816</ele>
        <time>2026-08-19T05:20:00.566Z</time>
      </trkpt>
      <trkpt lat="45.89797" lon="6.33652">
        <ele>816</ele>
        <time>2026-08-19T05:20:01.566Z</time>
      </trkpt>
      <trkpt lat="45.89798" lon="6.33652">
        <ele>817</ele>
        <time>2026-08-19T05:20:02.566Z</time>
      </trkpt>
      <trkpt lat="45.898" lon="6.33653">
        <ele>817</ele>
        <time>2026-08-19T05:20:03.566Z</time>
      </trkpt>
      <trkpt lat="45.89801" lon="6.33653">
        <ele>817</ele>
        <time>2026-08-19T05:20:04.566Z</time>
      </trkpt>
      <trkpt lat="45.89801" lon="6.33653">
        <ele>817</ele>
        <time>2026-08-19T05:20:05.566Z</time>
      </trkpt>
      <trkpt lat="45.89803" lon="6.33654">
        <ele>817</ele>
        <time>2026-08-19T05:20:06.566Z</time>
      </trkpt>
      <trkpt lat="45.89804" lon="6.33654">
        <ele>817</ele>
        <time>2026-08-19T05:20:07.566Z</time>
      </trkpt>
      <trkpt lat="45.89805" lon="6.33655">
        <ele>817</ele>
        <time>2026-08-19T05:20:08.566Z</time>
      </trkpt>
      <trkpt lat="45.89806" lon="6.33656">
        <ele>817</ele>
        <time>2026-08-19T05:20:09.566Z</time>
      </trkpt>
      <trkpt lat="45.89807" lon="6.33657">
        <ele>817</ele>
        <time>2026-08-19T05:20:10.566Z</time>
      </trkpt>
      <trkpt lat="45.89808" lon="6.33658">
        <ele>818</ele>
        <time>2026-08-19T05:20:11.566Z</time>
      </trkpt>
      <trkpt lat="45.89809" lon="6.33659">
        <ele>818</ele>
        <time>2026-08-19T05:20:12.566Z</time>
      </trkpt>
      <trkpt lat="45.8981" lon="6.3366">
        <ele>818</ele>
        <time>2026-08-19T05:20:13.566Z</time>
      </trkpt>
      <trkpt lat="45.89811" lon="6.3366">
        <ele>818</ele>
        <time>2026-08-19T05:20:14.566Z</time>
      </trkpt>
      <trkpt lat="45.89812" lon="6.33661">
        <ele>818</ele>
        <time>2026-08-19T05:20:15.566Z</time>
      </trkpt>
      <trkpt lat="45.89813" lon="6.33662">
        <ele>817</ele>
        <time>2026-08-19T05:20:16.566Z</time>
      </trkpt>
      <trkpt lat="45.89814" lon="6.33663">
        <ele>817</ele>
        <time>2026-08-19T05:20:17.566Z</time>
      </trkpt>
      <trkpt lat="45.89815" lon="6.33665">
        <ele>817</ele>
        <time>2026-08-19T05:20:18.566Z</time>
      </trkpt>
      <trkpt lat="45.89816" lon="6.33666">
        <ele>817</ele>
        <time>2026-08-19T05:20:19.566Z</time>
      </trkpt>
      <trkpt lat="45.89817" lon="6.33667">
        <ele>817</ele>
        <time>2026-08-19T05:20:20.566Z</time>
      </trkpt>
      <trkpt lat="45.89818" lon="6.33668">
        <ele>817</ele>
        <time>2026-08-19T05:20:21.566Z</time>
      </trkpt>
      <trkpt lat="45.89818" lon="6.33669">
        <ele>816</ele>
        <time>2026-08-19T05:20:22.566Z</time>
      </trkpt>
      <trkpt lat="45.89819" lon="6.3367">
        <ele>817</ele>
        <time>2026-08-19T05:20:23.566Z</time>
      </trkpt>
      <trkpt lat="45.8982" lon="6.33672">
        <ele>817</ele>
        <time>2026-08-19T05:20:24.566Z</time>
      </trkpt>
      <trkpt lat="45.89821" lon="6.33673">
        <ele>817</ele>
        <time>2026-08-19T05:20:25.566Z</time>
      </trkpt>
      <trkpt lat="45.89822" lon="6.33674">
        <ele>817</ele>
        <time>2026-08-19T05:20:26.566Z</time>
      </trkpt>
      <trkpt lat="45.89823" lon="6.33675">
        <ele>818</ele>
        <time>2026-08-19T05:20:27.566Z</time>
      </trkpt>
      <trkpt lat="45.89823" lon="6.33676">
        <ele>818</ele>
        <time>2026-08-19T05:20:28.566Z</time>
      </trkpt>
      <trkpt lat="45.89824" lon="6.33678">
        <ele>818</ele>
        <time>2026-08-19T05:20:29.566Z</time>
      </trkpt>
      <trkpt lat="45.89824" lon="6.33679">
        <ele>818</ele>
        <time>2026-08-19T05:20:30.566Z</time>
      </trkpt>
      <trkpt lat="45.89825" lon="6.33681">
        <ele>818</ele>
        <time>2026-08-19T05:20:31.566Z</time>
      </trkpt>
      <trkpt lat="45.89824" lon="6.33683">
        <ele>818</ele>
        <time>2026-08-19T05:20:32.566Z</time>
      </trkpt>
      <trkpt lat="45.89825" lon="6.33683">
        <ele>818</ele>
        <time>2026-08-19T05:20:33.566Z</time>
      </trkpt>
      <trkpt lat="45.89826" lon="6.33684">
        <ele>819</ele>
        <time>2026-08-19T05:20:34.566Z</time>
      </trkpt>
      <trkpt lat="45.89828" lon="6.33686">
        <ele>819</ele>
        <time>2026-08-19T05:20:35.566Z</time>
      </trkpt>
      <trkpt lat="45.8983" lon="6.33687">
        <ele>819</ele>
        <time>2026-08-19T05:20:36.566Z</time>
      </trkpt>
      <trkpt lat="45.8983" lon="6.33688">
        <ele>819</ele>
        <time>2026-08-19T05:20:37.566Z</time>
      </trkpt>
      <trkpt lat="45.89831" lon="6.3369">
        <ele>819</ele>
        <time>2026-08-19T05:20:38.566Z</time>
      </trkpt>
      <trkpt lat="45.89832" lon="6.33691">
        <ele>819</ele>
        <time>2026-08-19T05:20:39.566Z</time>
      </trkpt>
      <trkpt lat="45.89833" lon="6.33693">
        <ele>819</ele>
        <time>2026-08-19T05:20:40.566Z</time>
      </trkpt>
      <trkpt lat="45.89834" lon="6.33695">
        <ele>819</ele>
        <time>2026-08-19T05:20:41.566Z</time>
      </trkpt>
      <trkpt lat="45.89834" lon="6.33697">
        <ele>819</ele>
        <time>2026-08-19T05:20:42.566Z</time>
      </trkpt>
      <trkpt lat="45.89834" lon="6.33699">
        <ele>820</ele>
        <time>2026-08-19T05:20:43.566Z</time>
      </trkpt>
      <trkpt lat="45.89835" lon="6.337">
        <ele>820</ele>
        <time>2026-08-19T05:20:44.566Z</time>
      </trkpt>
      <trkpt lat="45.89836" lon="6.33702">
        <ele>820</ele>
        <time>2026-08-19T05:20:45.566Z</time>
      </trkpt>
      <trkpt lat="45.89837" lon="6.33704">
        <ele>820</ele>
        <time>2026-08-19T05:20:46.566Z</time>
      </trkpt>
      <trkpt lat="45.89837" lon="6.33705">
        <ele>820</ele>
        <time>2026-08-19T05:20:47.566Z</time>
      </trkpt>
      <trkpt lat="45.89838" lon="6.33706">
        <ele>820</ele>
        <time>2026-08-19T05:20:48.566Z</time>
      </trkpt>
      <trkpt lat="45.89839" lon="6.33706">
        <ele>821</ele>
        <time>2026-08-19T05:20:49.566Z</time>
      </trkpt>
      <trkpt lat="45.8984" lon="6.33706">
        <ele>821</ele>
        <time>2026-08-19T05:20:50.566Z</time>
      </trkpt>
      <trkpt lat="45.89841" lon="6.33706">
        <ele>822</ele>
        <time>2026-08-19T05:20:51.566Z</time>
      </trkpt>
      <trkpt lat="45.89842" lon="6.33705">
        <ele>822</ele>
        <time>2026-08-19T05:20:52.566Z</time>
      </trkpt>
      <trkpt lat="45.89842" lon="6.33704">
        <ele>822</ele>
        <time>2026-08-19T05:20:53.566Z</time>
      </trkpt>
      <trkpt lat="45.89843" lon="6.33703">
        <ele>822</ele>
        <time>2026-08-19T05:20:54.566Z</time>
      </trkpt>
      <trkpt lat="45.89843" lon="6.33702">
        <ele>822</ele>
        <time>2026-08-19T05:20:55.566Z</time>
      </trkpt>
      <trkpt lat="45.89843" lon="6.337">
        <ele>823</ele>
        <time>2026-08-19T05:20:56.566Z</time>
      </trkpt>
      <trkpt lat="45.89843" lon="6.33698">
        <ele>823</ele>
        <time>2026-08-19T05:20:57.566Z</time>
      </trkpt>
      <trkpt lat="45.89842" lon="6.33697">
        <ele>823</ele>
        <time>2026-08-19T05:20:58.566Z</time>
      </trkpt>
      <trkpt lat="45.89842" lon="6.33696">
        <ele>824</ele>
        <time>2026-08-19T05:20:59.566Z</time>
      </trkpt>
      <trkpt lat="45.89841" lon="6.33694">
        <ele>824</ele>
        <time>2026-08-19T05:21:00.566Z</time>
      </trkpt>
      <trkpt lat="45.8984" lon="6.33693">
        <ele>824</ele>
        <time>2026-08-19T05:21:01.566Z</time>
      </trkpt>
      <trkpt lat="45.8984" lon="6.33691">
        <ele>825</ele>
        <time>2026-08-19T05:21:02.566Z</time>
      </trkpt>
      <trkpt lat="45.89839" lon="6.33689">
        <ele>825</ele>
        <time>2026-08-19T05:21:03.566Z</time>
      </trkpt>
      <trkpt lat="45.89837" lon="6.33688">
        <ele>825</ele>
        <time>2026-08-19T05:21:04.566Z</time>
      </trkpt>
      <trkpt lat="45.89837" lon="6.33685">
        <ele>826</ele>
        <time>2026-08-19T05:21:05.566Z</time>
      </trkpt>
      <trkpt lat="45.89837" lon="6.33683">
        <ele>826</ele>
        <time>2026-08-19T05:21:06.566Z</time>
      </trkpt>
      <trkpt lat="45.89837" lon="6.33682">
        <ele>826</ele>
        <time>2026-08-19T05:21:07.566Z</time>
      </trkpt>
      <trkpt lat="45.89837" lon="6.33681">
        <ele>826</ele>
        <time>2026-08-19T05:21:08.566Z</time>
      </trkpt>
      <trkpt lat="45.89837" lon="6.33679">
        <ele>827</ele>
        <time>2026-08-19T05:21:09.566Z</time>
      </trkpt>
      <trkpt lat="45.89838" lon="6.33678">
        <ele>827</ele>
        <time>2026-08-19T05:21:10.566Z</time>
      </trkpt>
      <trkpt lat="45.89838" lon="6.33676">
        <ele>827</ele>
        <time>2026-08-19T05:21:11.566Z</time>
      </trkpt>
      <trkpt lat="45.89837" lon="6.33674">
        <ele>827</ele>
        <time>2026-08-19T05:21:12.566Z</time>
      </trkpt>
      <trkpt lat="45.89837" lon="6.33673">
        <ele>827</ele>
        <time>2026-08-19T05:21:13.566Z</time>
      </trkpt>
      <trkpt lat="45.89837" lon="6.33671">
        <ele>828</ele>
        <time>2026-08-19T05:21:14.566Z</time>
      </trkpt>
      <trkpt lat="45.89837" lon="6.33669">
        <ele>828</ele>
        <time>2026-08-19T05:21:15.566Z</time>
      </trkpt>
      <trkpt lat="45.89837" lon="6.33667">
        <ele>828</ele>
        <time>2026-08-19T05:21:16.566Z</time>
      </trkpt>
      <trkpt lat="45.89836" lon="6.33666">
        <ele>828</ele>
        <time>2026-08-19T05:21:17.566Z</time>
      </trkpt>
      <trkpt lat="45.89835" lon="6.33664">
        <ele>828</ele>
        <time>2026-08-19T05:21:18.566Z</time>
      </trkpt>
      <trkpt lat="45.89835" lon="6.33662">
        <ele>829</ele>
        <time>2026-08-19T05:21:19.566Z</time>
      </trkpt>
      <trkpt lat="45.89835" lon="6.33661">
        <ele>829</ele>
        <time>2026-08-19T05:21:20.566Z</time>
      </trkpt>
      <trkpt lat="45.89835" lon="6.33659">
        <ele>829</ele>
        <time>2026-08-19T05:21:21.566Z</time>
      </trkpt>
      <trkpt lat="45.89834" lon="6.33657">
        <ele>829</ele>
        <time>2026-08-19T05:21:22.566Z</time>
      </trkpt>
      <trkpt lat="45.89834" lon="6.33656">
        <ele>829</ele>
        <time>2026-08-19T05:21:23.566Z</time>
      </trkpt>
      <trkpt lat="45.89833" lon="6.33654">
        <ele>830</ele>
        <time>2026-08-19T05:21:24.566Z</time>
      </trkpt>
      <trkpt lat="45.89833" lon="6.33652">
        <ele>830</ele>
        <time>2026-08-19T05:21:25.566Z</time>
      </trkpt>
      <trkpt lat="45.89832" lon="6.33651">
        <ele>830</ele>
        <time>2026-08-19T05:21:26.566Z</time>
      </trkpt>
      <trkpt lat="45.89832" lon="6.33649">
        <ele>830</ele>
        <time>2026-08-19T05:21:27.566Z</time>
      </trkpt>
      <trkpt lat="45.89832" lon="6.33647">
        <ele>830</ele>
        <time>2026-08-19T05:21:28.566Z</time>
      </trkpt>
      <trkpt lat="45.89831" lon="6.33645">
        <ele>830</ele>
        <time>2026-08-19T05:21:29.566Z</time>
      </trkpt>
      <trkpt lat="45.89831" lon="6.33643">
        <ele>830</ele>
        <time>2026-08-19T05:21:30.566Z</time>
      </trkpt>
      <trkpt lat="45.89831" lon="6.33642">
        <ele>830</ele>
        <time>2026-08-19T05:21:31.566Z</time>
      </trkpt>
      <trkpt lat="45.8983" lon="6.3364">
        <ele>830</ele>
        <time>2026-08-19T05:21:32.566Z</time>
      </trkpt>
      <trkpt lat="45.8983" lon="6.33638">
        <ele>830</ele>
        <time>2026-08-19T05:21:33.566Z</time>
      </trkpt>
      <trkpt lat="45.8983" lon="6.33636">
        <ele>830</ele>
        <time>2026-08-19T05:21:34.566Z</time>
      </trkpt>
      <trkpt lat="45.8983" lon="6.33635">
        <ele>830</ele>
        <time>2026-08-19T05:21:35.566Z</time>
      </trkpt>
      <trkpt lat="45.8983" lon="6.33633">
        <ele>830</ele>
        <time>2026-08-19T05:21:36.566Z</time>
      </trkpt>
      <trkpt lat="45.89829" lon="6.3363">
        <ele>831</ele>
        <time>2026-08-19T05:21:37.566Z</time>
      </trkpt>
      <trkpt lat="45.89828" lon="6.33628">
        <ele>831</ele>
        <time>2026-08-19T05:21:38.566Z</time>
      </trkpt>
      <trkpt lat="45.89828" lon="6.33627">
        <ele>831</ele>
        <time>2026-08-19T05:21:39.566Z</time>
      </trkpt>
      <trkpt lat="45.89828" lon="6.33625">
        <ele>831</ele>
        <time>2026-08-19T05:21:40.566Z</time>
      </trkpt>
      <trkpt lat="45.89828" lon="6.33624">
        <ele>831</ele>
        <time>2026-08-19T05:21:41.566Z</time>
      </trkpt>
      <trkpt lat="45.89827" lon="6.33622">
        <ele>831</ele>
        <time>2026-08-19T05:21:42.566Z</time>
      </trkpt>
      <trkpt lat="45.89827" lon="6.3362">
        <ele>831</ele>
        <time>2026-08-19T05:21:43.566Z</time>
      </trkpt>
      <trkpt lat="45.89827" lon="6.33618">
        <ele>832</ele>
        <time>2026-08-19T05:21:44.566Z</time>
      </trkpt>
      <trkpt lat="45.89827" lon="6.33617">
        <ele>832</ele>
        <time>2026-08-19T05:21:45.566Z</time>
      </trkpt>
      <trkpt lat="45.89827" lon="6.33614">
        <ele>833</ele>
        <time>2026-08-19T05:21:46.566Z</time>
      </trkpt>
      <trkpt lat="45.89827" lon="6.33613">
        <ele>834</ele>
        <time>2026-08-19T05:21:47.566Z</time>
      </trkpt>
      <trkpt lat="45.89827" lon="6.33611">
        <ele>834</ele>
        <time>2026-08-19T05:21:48.566Z</time>
      </trkpt>
      <trkpt lat="45.89828" lon="6.33609">
        <ele>835</ele>
        <time>2026-08-19T05:21:49.566Z</time>
      </trkpt>
      <trkpt lat="45.89828" lon="6.33606">
        <ele>835</ele>
        <time>2026-08-19T05:21:50.566Z</time>
      </trkpt>
      <trkpt lat="45.89828" lon="6.33604">
        <ele>835</ele>
        <time>2026-08-19T05:21:51.566Z</time>
      </trkpt>
      <trkpt lat="45.89828" lon="6.33603">
        <ele>836</ele>
        <time>2026-08-19T05:21:52.566Z</time>
      </trkpt>
      <trkpt lat="45.89829" lon="6.33601">
        <ele>836</ele>
        <time>2026-08-19T05:21:53.566Z</time>
      </trkpt>
      <trkpt lat="45.8983" lon="6.33601">
        <ele>836</ele>
        <time>2026-08-19T05:21:54.566Z</time>
      </trkpt>
      <trkpt lat="45.89831" lon="6.336">
        <ele>836</ele>
        <time>2026-08-19T05:21:55.566Z</time>
      </trkpt>
      <trkpt lat="45.89832" lon="6.336">
        <ele>837</ele>
        <time>2026-08-19T05:21:56.566Z</time>
      </trkpt>
      <trkpt lat="45.89833" lon="6.33599">
        <ele>837</ele>
        <time>2026-08-19T05:21:57.566Z</time>
      </trkpt>
      <trkpt lat="45.89834" lon="6.33598">
        <ele>838</ele>
        <time>2026-08-19T05:21:58.566Z</time>
      </trkpt>
      <trkpt lat="45.89835" lon="6.33598">
        <ele>838</ele>
        <time>2026-08-19T05:21:59.566Z</time>
      </trkpt>
      <trkpt lat="45.89836" lon="6.33597">
        <ele>839</ele>
        <time>2026-08-19T05:22:00.566Z</time>
      </trkpt>
      <trkpt lat="45.89837" lon="6.33596">
        <ele>839</ele>
        <time>2026-08-19T05:22:01.566Z</time>
      </trkpt>
      <trkpt lat="45.89839" lon="6.33596">
        <ele>840</ele>
        <time>2026-08-19T05:22:02.566Z</time>
      </trkpt>
      <trkpt lat="45.8984" lon="6.33596">
        <ele>840</ele>
        <time>2026-08-19T05:22:03.566Z</time>
      </trkpt>
      <trkpt lat="45.89842" lon="6.33595">
        <ele>841</ele>
        <time>2026-08-19T05:22:04.566Z</time>
      </trkpt>
      <trkpt lat="45.89843" lon="6.33593">
        <ele>841</ele>
        <time>2026-08-19T05:22:05.566Z</time>
      </trkpt>
      <trkpt lat="45.89844" lon="6.33592">
        <ele>842</ele>
        <time>2026-08-19T05:22:06.566Z</time>
      </trkpt>
      <trkpt lat="45.89845" lon="6.3359">
        <ele>842</ele>
        <time>2026-08-19T05:22:07.566Z</time>
      </trkpt>
      <trkpt lat="45.89846" lon="6.33589">
        <ele>842</ele>
        <time>2026-08-19T05:22:08.566Z</time>
      </trkpt>
      <trkpt lat="45.89848" lon="6.33588">
        <ele>842</ele>
        <time>2026-08-19T05:22:09.566Z</time>
      </trkpt>
      <trkpt lat="45.89849" lon="6.33586">
        <ele>843</ele>
        <time>2026-08-19T05:22:10.566Z</time>
      </trkpt>
      <trkpt lat="45.8985" lon="6.33585">
        <ele>843</ele>
        <time>2026-08-19T05:22:11.566Z</time>
      </trkpt>
      <trkpt lat="45.89851" lon="6.33583">
        <ele>843</ele>
        <time>2026-08-19T05:22:12.566Z</time>
      </trkpt>
      <trkpt lat="45.89851" lon="6.33581">
        <ele>843</ele>
        <time>2026-08-19T05:22:13.566Z</time>
      </trkpt>
      <trkpt lat="45.89852" lon="6.33579">
        <ele>843</ele>
        <time>2026-08-19T05:22:14.566Z</time>
      </trkpt>
      <trkpt lat="45.89852" lon="6.33577">
        <ele>843</ele>
        <time>2026-08-19T05:22:15.566Z</time>
      </trkpt>
      <trkpt lat="45.89853" lon="6.33575">
        <ele>843</ele>
        <time>2026-08-19T05:22:16.566Z</time>
      </trkpt>
      <trkpt lat="45.89853" lon="6.33573">
        <ele>844</ele>
        <time>2026-08-19T05:22:17.566Z</time>
      </trkpt>
      <trkpt lat="45.89853" lon="6.3357">
        <ele>844</ele>
        <time>2026-08-19T05:22:18.566Z</time>
      </trkpt>
      <trkpt lat="45.89853" lon="6.33568">
        <ele>844</ele>
        <time>2026-08-19T05:22:19.566Z</time>
      </trkpt>
      <trkpt lat="45.89854" lon="6.33566">
        <ele>844</ele>
        <time>2026-08-19T05:22:20.566Z</time>
      </trkpt>
      <trkpt lat="45.89854" lon="6.33563">
        <ele>843</ele>
        <time>2026-08-19T05:22:21.566Z</time>
      </trkpt>
      <trkpt lat="45.89854" lon="6.33561">
        <ele>843</ele>
        <time>2026-08-19T05:22:22.566Z</time>
      </trkpt>
      <trkpt lat="45.89854" lon="6.33558">
        <ele>842</ele>
        <time>2026-08-19T05:22:23.566Z</time>
      </trkpt>
      <trkpt lat="45.89854" lon="6.33556">
        <ele>842</ele>
        <time>2026-08-19T05:22:24.566Z</time>
      </trkpt>
      <trkpt lat="45.89854" lon="6.33553">
        <ele>842</ele>
        <time>2026-08-19T05:22:25.566Z</time>
      </trkpt>
      <trkpt lat="45.89855" lon="6.3355">
        <ele>842</ele>
        <time>2026-08-19T05:22:26.566Z</time>
      </trkpt>
      <trkpt lat="45.89855" lon="6.33547">
        <ele>842</ele>
        <time>2026-08-19T05:22:27.566Z</time>
      </trkpt>
      <trkpt lat="45.89855" lon="6.33545">
        <ele>842</ele>
        <time>2026-08-19T05:22:28.566Z</time>
      </trkpt>
      <trkpt lat="45.89856" lon="6.33542">
        <ele>842</ele>
        <time>2026-08-19T05:22:29.566Z</time>
      </trkpt>
      <trkpt lat="45.89856" lon="6.3354">
        <ele>842</ele>
        <time>2026-08-19T05:22:30.566Z</time>
      </trkpt>
      <trkpt lat="45.89856" lon="6.33538">
        <ele>842</ele>
        <time>2026-08-19T05:22:31.566Z</time>
      </trkpt>
      <trkpt lat="45.89856" lon="6.33536">
        <ele>842</ele>
        <time>2026-08-19T05:22:32.566Z</time>
      </trkpt>
      <trkpt lat="45.89856" lon="6.33534">
        <ele>842</ele>
        <time>2026-08-19T05:22:33.566Z</time>
      </trkpt>
      <trkpt lat="45.89855" lon="6.33532">
        <ele>843</ele>
        <time>2026-08-19T05:22:34.566Z</time>
      </trkpt>
      <trkpt lat="45.89855" lon="6.3353">
        <ele>843</ele>
        <time>2026-08-19T05:22:35.566Z</time>
      </trkpt>
      <trkpt lat="45.89855" lon="6.33528">
        <ele>844</ele>
        <time>2026-08-19T05:22:36.566Z</time>
      </trkpt>
      <trkpt lat="45.89854" lon="6.33527">
        <ele>844</ele>
        <time>2026-08-19T05:22:37.566Z</time>
      </trkpt>
      <trkpt lat="45.89853" lon="6.33525">
        <ele>845</ele>
        <time>2026-08-19T05:22:38.566Z</time>
      </trkpt>
      <trkpt lat="45.89852" lon="6.33524">
        <ele>846</ele>
        <time>2026-08-19T05:22:39.566Z</time>
      </trkpt>
      <trkpt lat="45.89851" lon="6.33523">
        <ele>847</ele>
        <time>2026-08-19T05:22:40.566Z</time>
      </trkpt>
      <trkpt lat="45.8985" lon="6.33521">
        <ele>848</ele>
        <time>2026-08-19T05:22:41.566Z</time>
      </trkpt>
      <trkpt lat="45.8985" lon="6.33519">
        <ele>849</ele>
        <time>2026-08-19T05:22:42.566Z</time>
      </trkpt>
      <trkpt lat="45.89849" lon="6.33518">
        <ele>850</ele>
        <time>2026-08-19T05:22:43.566Z</time>
      </trkpt>
      <trkpt lat="45.89848" lon="6.33516">
        <ele>851</ele>
        <time>2026-08-19T05:22:44.566Z</time>
      </trkpt>
      <trkpt lat="45.89848" lon="6.33514">
        <ele>852</ele>
        <time>2026-08-19T05:22:45.566Z</time>
      </trkpt>
      <trkpt lat="45.89847" lon="6.33512">
        <ele>853</ele>
        <time>2026-08-19T05:22:46.566Z</time>
      </trkpt>
      <trkpt lat="45.89847" lon="6.3351">
        <ele>853</ele>
        <time>2026-08-19T05:22:47.566Z</time>
      </trkpt>
      <trkpt lat="45.89846" lon="6.33508">
        <ele>853</ele>
        <time>2026-08-19T05:22:48.566Z</time>
      </trkpt>
      <trkpt lat="45.89846" lon="6.33507">
        <ele>853</ele>
        <time>2026-08-19T05:22:49.566Z</time>
      </trkpt>
      <trkpt lat="45.89845" lon="6.33505">
        <ele>853</ele>
        <time>2026-08-19T05:22:50.566Z</time>
      </trkpt>
      <trkpt lat="45.89845" lon="6.33504">
        <ele>852</ele>
        <time>2026-08-19T05:22:51.566Z</time>
      </trkpt>
      <trkpt lat="45.89844" lon="6.33502">
        <ele>852</ele>
        <time>2026-08-19T05:22:52.566Z</time>
      </trkpt>
      <trkpt lat="45.89844" lon="6.335">
        <ele>851</ele>
        <time>2026-08-19T05:22:53.566Z</time>
      </trkpt>
      <trkpt lat="45.89843" lon="6.33499">
        <ele>851</ele>
        <time>2026-08-19T05:22:54.566Z</time>
      </trkpt>
      <trkpt lat="45.89842" lon="6.33497">
        <ele>851</ele>
        <time>2026-08-19T05:22:55.566Z</time>
      </trkpt>
      <trkpt lat="45.89842" lon="6.33495">
        <ele>851</ele>
        <time>2026-08-19T05:22:56.566Z</time>
      </trkpt>
      <trkpt lat="45.89841" lon="6.33494">
        <ele>851</ele>
        <time>2026-08-19T05:22:57.566Z</time>
      </trkpt>
      <trkpt lat="45.8984" lon="6.33493">
        <ele>851</ele>
        <time>2026-08-19T05:22:58.566Z</time>
      </trkpt>
      <trkpt lat="45.8984" lon="6.33491">
        <ele>851</ele>
        <time>2026-08-19T05:22:59.566Z</time>
      </trkpt>
      <trkpt lat="45.8984" lon="6.33489">
        <ele>851</ele>
        <time>2026-08-19T05:23:00.566Z</time>
      </trkpt>
      <trkpt lat="45.89839" lon="6.33487">
        <ele>852</ele>
        <time>2026-08-19T05:23:01.566Z</time>
      </trkpt>
      <trkpt lat="45.89839" lon="6.33485">
        <ele>852</ele>
        <time>2026-08-19T05:23:02.566Z</time>
      </trkpt>
      <trkpt lat="45.89839" lon="6.33483">
        <ele>852</ele>
        <time>2026-08-19T05:23:03.566Z</time>
      </trkpt>
      <trkpt lat="45.8984" lon="6.33481">
        <ele>853</ele>
        <time>2026-08-19T05:23:04.566Z</time>
      </trkpt>
      <trkpt lat="45.8984" lon="6.33479">
        <ele>853</ele>
        <time>2026-08-19T05:23:05.566Z</time>
      </trkpt>
      <trkpt lat="45.89841" lon="6.33478">
        <ele>854</ele>
        <time>2026-08-19T05:23:06.566Z</time>
      </trkpt>
      <trkpt lat="45.89842" lon="6.33477">
        <ele>855</ele>
        <time>2026-08-19T05:23:07.566Z</time>
      </trkpt>
      <trkpt lat="45.89844" lon="6.33477">
        <ele>855</ele>
        <time>2026-08-19T05:23:08.566Z</time>
      </trkpt>
      <trkpt lat="45.89845" lon="6.33478">
        <ele>856</ele>
        <time>2026-08-19T05:23:09.566Z</time>
      </trkpt>
      <trkpt lat="45.89847" lon="6.33479">
        <ele>857</ele>
        <time>2026-08-19T05:23:10.566Z</time>
      </trkpt>
      <trkpt lat="45.89848" lon="6.3348">
        <ele>857</ele>
        <time>2026-08-19T05:23:11.566Z</time>
      </trkpt>
      <trkpt lat="45.89849" lon="6.33481">
        <ele>857</ele>
        <time>2026-08-19T05:23:12.566Z</time>
      </trkpt>
      <trkpt lat="45.89851" lon="6.33483">
        <ele>857</ele>
        <time>2026-08-19T05:23:13.566Z</time>
      </trkpt>
      <trkpt lat="45.89852" lon="6.33484">
        <ele>857</ele>
        <time>2026-08-19T05:23:14.566Z</time>
      </trkpt>
      <trkpt lat="45.89852" lon="6.33485">
        <ele>857</ele>
        <time>2026-08-19T05:23:15.566Z</time>
      </trkpt>
      <trkpt lat="45.89853" lon="6.33486">
        <ele>858</ele>
        <time>2026-08-19T05:23:16.566Z</time>
      </trkpt>
      <trkpt lat="45.89854" lon="6.33487">
        <ele>858</ele>
        <time>2026-08-19T05:23:17.566Z</time>
      </trkpt>
      <trkpt lat="45.89856" lon="6.33488">
        <ele>858</ele>
        <time>2026-08-19T05:23:18.566Z</time>
      </trkpt>
      <trkpt lat="45.89857" lon="6.33489">
        <ele>859</ele>
        <time>2026-08-19T05:23:19.566Z</time>
      </trkpt>
      <trkpt lat="45.89858" lon="6.33489">
        <ele>859</ele>
        <time>2026-08-19T05:23:20.566Z</time>
      </trkpt>
      <trkpt lat="45.89859" lon="6.3349">
        <ele>860</ele>
        <time>2026-08-19T05:23:21.566Z</time>
      </trkpt>
      <trkpt lat="45.8986" lon="6.3349">
        <ele>860</ele>
        <time>2026-08-19T05:23:22.566Z</time>
      </trkpt>
      <trkpt lat="45.8986" lon="6.3349">
        <ele>860</ele>
        <time>2026-08-19T05:23:23.566Z</time>
      </trkpt>
      <trkpt lat="45.89862" lon="6.33492">
        <ele>861</ele>
        <time>2026-08-19T05:23:24.566Z</time>
      </trkpt>
      <trkpt lat="45.89863" lon="6.33493">
        <ele>861</ele>
        <time>2026-08-19T05:23:25.566Z</time>
      </trkpt>
      <trkpt lat="45.89863" lon="6.33494">
        <ele>861</ele>
        <time>2026-08-19T05:23:26.566Z</time>
      </trkpt>
      <trkpt lat="45.89864" lon="6.33495">
        <ele>861</ele>
        <time>2026-08-19T05:23:27.566Z</time>
      </trkpt>
      <trkpt lat="45.89865" lon="6.33496">
        <ele>862</ele>
        <time>2026-08-19T05:23:28.566Z</time>
      </trkpt>
      <trkpt lat="45.89865" lon="6.33497">
        <ele>862</ele>
        <time>2026-08-19T05:23:29.566Z</time>
      </trkpt>
      <trkpt lat="45.89867" lon="6.33498">
        <ele>863</ele>
        <time>2026-08-19T05:23:30.566Z</time>
      </trkpt>
      <trkpt lat="45.89868" lon="6.33499">
        <ele>863</ele>
        <time>2026-08-19T05:23:31.566Z</time>
      </trkpt>
      <trkpt lat="45.89869" lon="6.335">
        <ele>864</ele>
        <time>2026-08-19T05:23:32.566Z</time>
      </trkpt>
      <trkpt lat="45.89871" lon="6.33501">
        <ele>865</ele>
        <time>2026-08-19T05:23:33.566Z</time>
      </trkpt>
      <trkpt lat="45.89872" lon="6.33502">
        <ele>865</ele>
        <time>2026-08-19T05:23:34.566Z</time>
      </trkpt>
      <trkpt lat="45.89873" lon="6.33503">
        <ele>866</ele>
        <time>2026-08-19T05:23:35.566Z</time>
      </trkpt>
      <trkpt lat="45.89874" lon="6.33504">
        <ele>867</ele>
        <time>2026-08-19T05:23:36.566Z</time>
      </trkpt>
      <trkpt lat="45.89876" lon="6.33505">
        <ele>867</ele>
        <time>2026-08-19T05:23:37.566Z</time>
      </trkpt>
      <trkpt lat="45.89877" lon="6.33506">
        <ele>867</ele>
        <time>2026-08-19T05:23:38.566Z</time>
      </trkpt>
      <trkpt lat="45.89878" lon="6.33507">
        <ele>867</ele>
        <time>2026-08-19T05:23:39.566Z</time>
      </trkpt>
      <trkpt lat="45.89878" lon="6.33507">
        <ele>867</ele>
        <time>2026-08-19T05:23:40.566Z</time>
      </trkpt>
      <trkpt lat="45.89879" lon="6.33508">
        <ele>867</ele>
        <time>2026-08-19T05:23:41.566Z</time>
      </trkpt>
      <trkpt lat="45.89881" lon="6.3351">
        <ele>867</ele>
        <time>2026-08-19T05:23:42.566Z</time>
      </trkpt>
      <trkpt lat="45.89881" lon="6.3351">
        <ele>866</ele>
        <time>2026-08-19T05:23:43.566Z</time>
      </trkpt>
      <trkpt lat="45.89881" lon="6.3351">
        <ele>866</ele>
        <time>2026-08-19T05:23:44.566Z</time>
      </trkpt>
      <trkpt lat="45.89882" lon="6.3351">
        <ele>866</ele>
        <time>2026-08-19T05:23:45.566Z</time>
      </trkpt>
      <trkpt lat="45.89883" lon="6.3351">
        <ele>867</ele>
        <time>2026-08-19T05:23:46.566Z</time>
      </trkpt>
      <trkpt lat="45.89884" lon="6.3351">
        <ele>867</ele>
        <time>2026-08-19T05:23:47.566Z</time>
      </trkpt>
      <trkpt lat="45.89885" lon="6.3351">
        <ele>867</ele>
        <time>2026-08-19T05:23:48.566Z</time>
      </trkpt>
      <trkpt lat="45.89886" lon="6.33511">
        <ele>867</ele>
        <time>2026-08-19T05:23:49.566Z</time>
      </trkpt>
      <trkpt lat="45.89888" lon="6.33511">
        <ele>866</ele>
        <time>2026-08-19T05:23:50.566Z</time>
      </trkpt>
      <trkpt lat="45.89889" lon="6.3351">
        <ele>866</ele>
        <time>2026-08-19T05:23:51.566Z</time>
      </trkpt>
      <trkpt lat="45.8989" lon="6.3351">
        <ele>866</ele>
        <time>2026-08-19T05:23:52.566Z</time>
      </trkpt>
      <trkpt lat="45.89891" lon="6.3351">
        <ele>866</ele>
        <time>2026-08-19T05:23:53.566Z</time>
      </trkpt>
      <trkpt lat="45.89892" lon="6.33509">
        <ele>866</ele>
        <time>2026-08-19T05:23:54.566Z</time>
      </trkpt>
      <trkpt lat="45.89894" lon="6.33509">
        <ele>866</ele>
        <time>2026-08-19T05:23:55.566Z</time>
      </trkpt>
      <trkpt lat="45.89896" lon="6.33509">
        <ele>866</ele>
        <time>2026-08-19T05:23:56.566Z</time>
      </trkpt>
      <trkpt lat="45.89897" lon="6.33509">
        <ele>867</ele>
        <time>2026-08-19T05:23:57.566Z</time>
      </trkpt>
      <trkpt lat="45.89899" lon="6.33509">
        <ele>867</ele>
        <time>2026-08-19T05:23:58.566Z</time>
      </trkpt>
      <trkpt lat="45.899" lon="6.33509">
        <ele>867</ele>
        <time>2026-08-19T05:23:59.566Z</time>
      </trkpt>
      <trkpt lat="45.89901" lon="6.3351">
        <ele>867</ele>
        <time>2026-08-19T05:24:00.566Z</time>
      </trkpt>
      <trkpt lat="45.89902" lon="6.3351">
        <ele>868</ele>
        <time>2026-08-19T05:24:01.566Z</time>
      </trkpt>
      <trkpt lat="45.89903" lon="6.33511">
        <ele>868</ele>
        <time>2026-08-19T05:24:02.566Z</time>
      </trkpt>
      <trkpt lat="45.89905" lon="6.33512">
        <ele>867</ele>
        <time>2026-08-19T05:24:03.566Z</time>
      </trkpt>
      <trkpt lat="45.89906" lon="6.33514">
        <ele>867</ele>
        <time>2026-08-19T05:24:04.566Z</time>
      </trkpt>
      <trkpt lat="45.89907" lon="6.33515">
        <ele>866</ele>
        <time>2026-08-19T05:24:05.566Z</time>
      </trkpt>
      <trkpt lat="45.89908" lon="6.33516">
        <ele>866</ele>
        <time>2026-08-19T05:24:06.566Z</time>
      </trkpt>
      <trkpt lat="45.89909" lon="6.33516">
        <ele>865</ele>
        <time>2026-08-19T05:24:07.566Z</time>
      </trkpt>
      <trkpt lat="45.89911" lon="6.33518">
        <ele>865</ele>
        <time>2026-08-19T05:24:08.566Z</time>
      </trkpt>
      <trkpt lat="45.89912" lon="6.33519">
        <ele>865</ele>
        <time>2026-08-19T05:24:09.566Z</time>
      </trkpt>
      <trkpt lat="45.89912" lon="6.33521">
        <ele>865</ele>
        <time>2026-08-19T05:24:10.566Z</time>
      </trkpt>
      <trkpt lat="45.89912" lon="6.33522">
        <ele>865</ele>
        <time>2026-08-19T05:24:11.566Z</time>
      </trkpt>
      <trkpt lat="45.89913" lon="6.33524">
        <ele>865</ele>
        <time>2026-08-19T05:24:12.566Z</time>
      </trkpt>
      <trkpt lat="45.89914" lon="6.33525">
        <ele>865</ele>
        <time>2026-08-19T05:24:13.566Z</time>
      </trkpt>
      <trkpt lat="45.89915" lon="6.33526">
        <ele>865</ele>
        <time>2026-08-19T05:24:14.566Z</time>
      </trkpt>
      <trkpt lat="45.89916" lon="6.33528">
        <ele>865</ele>
        <time>2026-08-19T05:24:15.566Z</time>
      </trkpt>
      <trkpt lat="45.89916" lon="6.33529">
        <ele>864</ele>
        <time>2026-08-19T05:24:16.566Z</time>
      </trkpt>
      <trkpt lat="45.89917" lon="6.33531">
        <ele>864</ele>
        <time>2026-08-19T05:24:17.566Z</time>
      </trkpt>
      <trkpt lat="45.89918" lon="6.33532">
        <ele>864</ele>
        <time>2026-08-19T05:24:18.566Z</time>
      </trkpt>
      <trkpt lat="45.89919" lon="6.33533">
        <ele>864</ele>
        <time>2026-08-19T05:24:19.566Z</time>
      </trkpt>
      <trkpt lat="45.89919" lon="6.33535">
        <ele>865</ele>
        <time>2026-08-19T05:24:20.566Z</time>
      </trkpt>
      <trkpt lat="45.8992" lon="6.33537">
        <ele>865</ele>
        <time>2026-08-19T05:24:21.566Z</time>
      </trkpt>
      <trkpt lat="45.8992" lon="6.33539">
        <ele>865</ele>
        <time>2026-08-19T05:24:22.566Z</time>
      </trkpt>
      <trkpt lat="45.8992" lon="6.33541">
        <ele>865</ele>
        <time>2026-08-19T05:24:23.566Z</time>
      </trkpt>
      <trkpt lat="45.8992" lon="6.33542">
        <ele>865</ele>
        <time>2026-08-19T05:24:24.566Z</time>
      </trkpt>
      <trkpt lat="45.8992" lon="6.33544">
        <ele>865</ele>
        <time>2026-08-19T05:24:25.566Z</time>
      </trkpt>
      <trkpt lat="45.8992" lon="6.33546">
        <ele>865</ele>
        <time>2026-08-19T05:24:26.566Z</time>
      </trkpt>
      <trkpt lat="45.8992" lon="6.33548">
        <ele>866</ele>
        <time>2026-08-19T05:24:27.566Z</time>
      </trkpt>
      <trkpt lat="45.89919" lon="6.33549">
        <ele>865</ele>
        <time>2026-08-19T05:24:28.566Z</time>
      </trkpt>
      <trkpt lat="45.89918" lon="6.33551">
        <ele>866</ele>
        <time>2026-08-19T05:24:29.566Z</time>
      </trkpt>
      <trkpt lat="45.89918" lon="6.33553">
        <ele>866</ele>
        <time>2026-08-19T05:24:30.566Z</time>
      </trkpt>
      <trkpt lat="45.89917" lon="6.33555">
        <ele>866</ele>
        <time>2026-08-19T05:24:31.566Z</time>
      </trkpt>
      <trkpt lat="45.89916" lon="6.33556">
        <ele>867</ele>
        <time>2026-08-19T05:24:32.566Z</time>
      </trkpt>
      <trkpt lat="45.89916" lon="6.33558">
        <ele>867</ele>
        <time>2026-08-19T05:24:33.566Z</time>
      </trkpt>
      <trkpt lat="45.89916" lon="6.33559">
        <ele>868</ele>
        <time>2026-08-19T05:24:34.566Z</time>
      </trkpt>
      <trkpt lat="45.89916" lon="6.33561">
        <ele>868</ele>
        <time>2026-08-19T05:24:35.566Z</time>
      </trkpt>
      <trkpt lat="45.89915" lon="6.33562">
        <ele>868</ele>
        <time>2026-08-19T05:24:36.566Z</time>
      </trkpt>
      <trkpt lat="45.89915" lon="6.33564">
        <ele>868</ele>
        <time>2026-08-19T05:24:37.566Z</time>
      </trkpt>
      <trkpt lat="45.89915" lon="6.33566">
        <ele>868</ele>
        <time>2026-08-19T05:24:38.566Z</time>
      </trkpt>
      <trkpt lat="45.89915" lon="6.33567">
        <ele>868</ele>
        <time>2026-08-19T05:24:39.566Z</time>
      </trkpt>
      <trkpt lat="45.89915" lon="6.33569">
        <ele>868</ele>
        <time>2026-08-19T05:24:40.566Z</time>
      </trkpt>
      <trkpt lat="45.89916" lon="6.33571">
        <ele>868</ele>
        <time>2026-08-19T05:24:41.566Z</time>
      </trkpt>
      <trkpt lat="45.89916" lon="6.33572">
        <ele>868</ele>
        <time>2026-08-19T05:24:42.566Z</time>
      </trkpt>
      <trkpt lat="45.89917" lon="6.33573">
        <ele>868</ele>
        <time>2026-08-19T05:24:43.566Z</time>
      </trkpt>
      <trkpt lat="45.89918" lon="6.33574">
        <ele>868</ele>
        <time>2026-08-19T05:24:44.566Z</time>
      </trkpt>
      <trkpt lat="45.89919" lon="6.33575">
        <ele>868</ele>
        <time>2026-08-19T05:24:45.566Z</time>
      </trkpt>
      <trkpt lat="45.8992" lon="6.33577">
        <ele>869</ele>
        <time>2026-08-19T05:24:46.566Z</time>
      </trkpt>
      <trkpt lat="45.8992" lon="6.33578">
        <ele>869</ele>
        <time>2026-08-19T05:24:47.566Z</time>
      </trkpt>
      <trkpt lat="45.89921" lon="6.33578">
        <ele>870</ele>
        <time>2026-08-19T05:24:48.566Z</time>
      </trkpt>
      <trkpt lat="45.89922" lon="6.33579">
        <ele>870</ele>
        <time>2026-08-19T05:24:49.566Z</time>
      </trkpt>
      <trkpt lat="45.89924" lon="6.3358">
        <ele>871</ele>
        <time>2026-08-19T05:24:50.566Z</time>
      </trkpt>
      <trkpt lat="45.89925" lon="6.33581">
        <ele>871</ele>
        <time>2026-08-19T05:24:51.566Z</time>
      </trkpt>
      <trkpt lat="45.89926" lon="6.33582">
        <ele>872</ele>
        <time>2026-08-19T05:24:52.566Z</time>
      </trkpt>
      <trkpt lat="45.89928" lon="6.33583">
        <ele>872</ele>
        <time>2026-08-19T05:24:53.566Z</time>
      </trkpt>
      <trkpt lat="45.89929" lon="6.33583">
        <ele>872</ele>
        <time>2026-08-19T05:24:54.566Z</time>
      </trkpt>
      <trkpt lat="45.8993" lon="6.33584">
        <ele>873</ele>
        <time>2026-08-19T05:24:55.566Z</time>
      </trkpt>
      <trkpt lat="45.89931" lon="6.33586">
        <ele>873</ele>
        <time>2026-08-19T05:24:56.566Z</time>
      </trkpt>
      <trkpt lat="45.89932" lon="6.33587">
        <ele>873</ele>
        <time>2026-08-19T05:24:57.566Z</time>
      </trkpt>
      <trkpt lat="45.89933" lon="6.33588">
        <ele>874</ele>
        <time>2026-08-19T05:24:58.566Z</time>
      </trkpt>
      <trkpt lat="45.89934" lon="6.3359">
        <ele>874</ele>
        <time>2026-08-19T05:24:59.566Z</time>
      </trkpt>
      <trkpt lat="45.89935" lon="6.33591">
        <ele>874</ele>
        <time>2026-08-19T05:25:00.566Z</time>
      </trkpt>
      <trkpt lat="45.89936" lon="6.33592">
        <ele>875</ele>
        <time>2026-08-19T05:25:01.566Z</time>
      </trkpt>
      <trkpt lat="45.89937" lon="6.33594">
        <ele>875</ele>
        <time>2026-08-19T05:25:02.566Z</time>
      </trkpt>
      <trkpt lat="45.89938" lon="6.33595">
        <ele>875</ele>
        <time>2026-08-19T05:25:03.566Z</time>
      </trkpt>
      <trkpt lat="45.89939" lon="6.33596">
        <ele>874</ele>
        <time>2026-08-19T05:25:04.566Z</time>
      </trkpt>
      <trkpt lat="45.8994" lon="6.33598">
        <ele>874</ele>
        <time>2026-08-19T05:25:05.566Z</time>
      </trkpt>
      <trkpt lat="45.89941" lon="6.33599">
        <ele>874</ele>
        <time>2026-08-19T05:25:06.566Z</time>
      </trkpt>
      <trkpt lat="45.89941" lon="6.336">
        <ele>874</ele>
        <time>2026-08-19T05:25:07.566Z</time>
      </trkpt>
      <trkpt lat="45.89942" lon="6.33602">
        <ele>874</ele>
        <time>2026-08-19T05:25:08.567Z</time>
      </trkpt>
      <trkpt lat="45.89942" lon="6.33604">
        <ele>873</ele>
        <time>2026-08-19T05:25:09.566Z</time>
      </trkpt>
      <trkpt lat="45.89942" lon="6.33605">
        <ele>873</ele>
        <time>2026-08-19T05:25:10.566Z</time>
      </trkpt>
      <trkpt lat="45.89943" lon="6.33607">
        <ele>873</ele>
        <time>2026-08-19T05:25:11.566Z</time>
      </trkpt>
      <trkpt lat="45.89943" lon="6.33609">
        <ele>873</ele>
        <time>2026-08-19T05:25:12.566Z</time>
      </trkpt>
      <trkpt lat="45.89943" lon="6.3361">
        <ele>873</ele>
        <time>2026-08-19T05:25:13.566Z</time>
      </trkpt>
      <trkpt lat="45.89943" lon="6.33612">
        <ele>873</ele>
        <time>2026-08-19T05:25:14.566Z</time>
      </trkpt>
      <trkpt lat="45.89944" lon="6.33614">
        <ele>873</ele>
        <time>2026-08-19T05:25:15.566Z</time>
      </trkpt>
      <trkpt lat="45.89944" lon="6.33615">
        <ele>873</ele>
        <time>2026-08-19T05:25:16.566Z</time>
      </trkpt>
      <trkpt lat="45.89944" lon="6.33617">
        <ele>874</ele>
        <time>2026-08-19T05:25:17.566Z</time>
      </trkpt>
      <trkpt lat="45.89945" lon="6.33619">
        <ele>874</ele>
        <time>2026-08-19T05:25:18.566Z</time>
      </trkpt>
      <trkpt lat="45.89945" lon="6.33621">
        <ele>874</ele>
        <time>2026-08-19T05:25:19.566Z</time>
      </trkpt>
      <trkpt lat="45.89945" lon="6.33622">
        <ele>874</ele>
        <time>2026-08-19T05:25:20.566Z</time>
      </trkpt>
      <trkpt lat="45.89945" lon="6.33624">
        <ele>874</ele>
        <time>2026-08-19T05:25:21.566Z</time>
      </trkpt>
      <trkpt lat="45.89945" lon="6.33626">
        <ele>874</ele>
        <time>2026-08-19T05:25:22.566Z</time>
      </trkpt>
      <trkpt lat="45.89946" lon="6.33628">
        <ele>874</ele>
        <time>2026-08-19T05:25:23.566Z</time>
      </trkpt>
      <trkpt lat="45.89946" lon="6.3363">
        <ele>874</ele>
        <time>2026-08-19T05:25:24.566Z</time>
      </trkpt>
      <trkpt lat="45.89947" lon="6.33632">
        <ele>874</ele>
        <time>2026-08-19T05:25:25.566Z</time>
      </trkpt>
      <trkpt lat="45.89947" lon="6.33634">
        <ele>874</ele>
        <time>2026-08-19T05:25:26.566Z</time>
      </trkpt>
      <trkpt lat="45.89948" lon="6.33636">
        <ele>875</ele>
        <time>2026-08-19T05:25:27.566Z</time>
      </trkpt>
      <trkpt lat="45.89948" lon="6.33638">
        <ele>875</ele>
        <time>2026-08-19T05:25:28.566Z</time>
      </trkpt>
      <trkpt lat="45.89949" lon="6.33639">
        <ele>875</ele>
        <time>2026-08-19T05:25:29.566Z</time>
      </trkpt>
      <trkpt lat="45.89949" lon="6.33641">
        <ele>876</ele>
        <time>2026-08-19T05:25:30.566Z</time>
      </trkpt>
      <trkpt lat="45.8995" lon="6.33642">
        <ele>877</ele>
        <time>2026-08-19T05:25:31.566Z</time>
      </trkpt>
      <trkpt lat="45.89951" lon="6.33644">
        <ele>877</ele>
        <time>2026-08-19T05:25:32.566Z</time>
      </trkpt>
      <trkpt lat="45.89951" lon="6.33645">
        <ele>878</ele>
        <time>2026-08-19T05:25:33.566Z</time>
      </trkpt>
      <trkpt lat="45.89952" lon="6.33647">
        <ele>878</ele>
        <time>2026-08-19T05:25:34.566Z</time>
      </trkpt>
      <trkpt lat="45.89952" lon="6.33648">
        <ele>879</ele>
        <time>2026-08-19T05:25:35.566Z</time>
      </trkpt>
      <trkpt lat="45.89953" lon="6.3365">
        <ele>879</ele>
        <time>2026-08-19T05:25:36.566Z</time>
      </trkpt>
      <trkpt lat="45.89954" lon="6.33651">
        <ele>880</ele>
        <time>2026-08-19T05:25:37.566Z</time>
      </trkpt>
      <trkpt lat="45.89955" lon="6.33653">
        <ele>880</ele>
        <time>2026-08-19T05:25:38.566Z</time>
      </trkpt>
      <trkpt lat="45.89955" lon="6.33654">
        <ele>880</ele>
        <time>2026-08-19T05:25:39.566Z</time>
      </trkpt>
      <trkpt lat="45.89956" lon="6.33655">
        <ele>880</ele>
        <time>2026-08-19T05:25:40.566Z</time>
      </trkpt>
      <trkpt lat="45.89956" lon="6.33657">
        <ele>880</ele>
        <time>2026-08-19T05:25:41.566Z</time>
      </trkpt>
      <trkpt lat="45.89957" lon="6.33658">
        <ele>880</ele>
        <time>2026-08-19T05:25:42.566Z</time>
      </trkpt>
      <trkpt lat="45.89957" lon="6.33659">
        <ele>880</ele>
        <time>2026-08-19T05:25:43.566Z</time>
      </trkpt>
      <trkpt lat="45.89958" lon="6.3366">
        <ele>880</ele>
        <time>2026-08-19T05:25:44.566Z</time>
      </trkpt>
      <trkpt lat="45.89959" lon="6.33661">
        <ele>880</ele>
        <time>2026-08-19T05:25:45.566Z</time>
      </trkpt>
      <trkpt lat="45.8996" lon="6.33663">
        <ele>880</ele>
        <time>2026-08-19T05:25:46.566Z</time>
      </trkpt>
      <trkpt lat="45.89961" lon="6.33664">
        <ele>881</ele>
        <time>2026-08-19T05:25:47.566Z</time>
      </trkpt>
      <trkpt lat="45.89962" lon="6.33665">
        <ele>881</ele>
        <time>2026-08-19T05:25:48.566Z</time>
      </trkpt>
      <trkpt lat="45.89963" lon="6.33666">
        <ele>881</ele>
        <time>2026-08-19T05:25:49.566Z</time>
      </trkpt>
      <trkpt lat="45.89964" lon="6.33667">
        <ele>882</ele>
        <time>2026-08-19T05:25:50.566Z</time>
      </trkpt>
      <trkpt lat="45.89965" lon="6.33668">
        <ele>883</ele>
        <time>2026-08-19T05:25:51.566Z</time>
      </trkpt>
      <trkpt lat="45.89966" lon="6.33669">
        <ele>883</ele>
        <time>2026-08-19T05:25:52.566Z</time>
      </trkpt>
      <trkpt lat="45.89967" lon="6.3367">
        <ele>884</ele>
        <time>2026-08-19T05:25:53.566Z</time>
      </trkpt>
      <trkpt lat="45.89968" lon="6.33671">
        <ele>884</ele>
        <time>2026-08-19T05:25:54.566Z</time>
      </trkpt>
      <trkpt lat="45.8997" lon="6.33672">
        <ele>884</ele>
        <time>2026-08-19T05:25:55.566Z</time>
      </trkpt>
      <trkpt lat="45.89971" lon="6.33673">
        <ele>885</ele>
        <time>2026-08-19T05:25:56.566Z</time>
      </trkpt>
      <trkpt lat="45.89971" lon="6.33675">
        <ele>885</ele>
        <time>2026-08-19T05:25:57.566Z</time>
      </trkpt>
      <trkpt lat="45.89972" lon="6.33676">
        <ele>885</ele>
        <time>2026-08-19T05:25:58.567Z</time>
      </trkpt>
      <trkpt lat="45.89973" lon="6.33677">
        <ele>885</ele>
        <time>2026-08-19T05:25:59.566Z</time>
      </trkpt>
      <trkpt lat="45.89974" lon="6.33677">
        <ele>885</ele>
        <time>2026-08-19T05:26:00.566Z</time>
      </trkpt>
      <trkpt lat="45.89975" lon="6.33678">
        <ele>885</ele>
        <time>2026-08-19T05:26:01.566Z</time>
      </trkpt>
      <trkpt lat="45.89976" lon="6.33679">
        <ele>885</ele>
        <time>2026-08-19T05:26:02.566Z</time>
      </trkpt>
      <trkpt lat="45.89977" lon="6.3368">
        <ele>885</ele>
        <time>2026-08-19T05:26:03.566Z</time>
      </trkpt>
      <trkpt lat="45.89977" lon="6.33681">
        <ele>885</ele>
        <time>2026-08-19T05:26:04.566Z</time>
      </trkpt>
      <trkpt lat="45.89978" lon="6.33681">
        <ele>886</ele>
        <time>2026-08-19T05:26:05.566Z</time>
      </trkpt>
      <trkpt lat="45.89978" lon="6.33682">
        <ele>886</ele>
        <time>2026-08-19T05:26:06.566Z</time>
      </trkpt>
      <trkpt lat="45.89979" lon="6.33682">
        <ele>885</ele>
        <time>2026-08-19T05:26:07.566Z</time>
      </trkpt>
      <trkpt lat="45.89979" lon="6.33682">
        <ele>885</ele>
        <time>2026-08-19T05:26:08.566Z</time>
      </trkpt>
      <trkpt lat="45.89979" lon="6.33682">
        <ele>885</ele>
        <time>2026-08-19T05:26:09.566Z</time>
      </trkpt>
      <trkpt lat="45.89979" lon="6.33682">
        <ele>885</ele>
        <time>2026-08-19T05:26:10.566Z</time>
      </trkpt>
      <trkpt lat="45.89979" lon="6.33682">
        <ele>884</ele>
        <time>2026-08-19T05:26:11.566Z</time>
      </trkpt>
      <trkpt lat="45.89979" lon="6.33682">
        <ele>884</ele>
        <time>2026-08-19T05:26:12.566Z</time>
      </trkpt>
      <trkpt lat="45.89979" lon="6.33683">
        <ele>884</ele>
        <time>2026-08-19T05:26:13.566Z</time>
      </trkpt>
      <trkpt lat="45.89979" lon="6.33683">
        <ele>885</ele>
        <time>2026-08-19T05:26:14.566Z</time>
      </trkpt>
      <trkpt lat="45.89979" lon="6.33683">
        <ele>885</ele>
        <time>2026-08-19T05:26:15.566Z</time>
      </trkpt>
      <trkpt lat="45.89979" lon="6.33684">
        <ele>885</ele>
        <time>2026-08-19T05:26:16.566Z</time>
      </trkpt>
      <trkpt lat="45.8998" lon="6.33684">
        <ele>886</ele>
        <time>2026-08-19T05:26:17.566Z</time>
      </trkpt>
      <trkpt lat="45.89981" lon="6.33684">
        <ele>886</ele>
        <time>2026-08-19T05:26:18.566Z</time>
      </trkpt>
      <trkpt lat="45.89983" lon="6.33685">
        <ele>886</ele>
        <time>2026-08-19T05:26:19.566Z</time>
      </trkpt>
      <trkpt lat="45.89984" lon="6.33686">
        <ele>886</ele>
        <time>2026-08-19T05:26:20.566Z</time>
      </trkpt>
      <trkpt lat="45.89985" lon="6.33687">
        <ele>886</ele>
        <time>2026-08-19T05:26:21.566Z</time>
      </trkpt>
      <trkpt lat="45.89986" lon="6.33688">
        <ele>886</ele>
        <time>2026-08-19T05:26:22.566Z</time>
      </trkpt>
      <trkpt lat="45.89987" lon="6.33689">
        <ele>886</ele>
        <time>2026-08-19T05:26:23.566Z</time>
      </trkpt>
      <trkpt lat="45.89987" lon="6.33689">
        <ele>886</ele>
        <time>2026-08-19T05:26:24.566Z</time>
      </trkpt>
      <trkpt lat="45.89988" lon="6.3369">
        <ele>887</ele>
        <time>2026-08-19T05:26:25.566Z</time>
      </trkpt>
      <trkpt lat="45.89989" lon="6.3369">
        <ele>887</ele>
        <time>2026-08-19T05:26:26.566Z</time>
      </trkpt>
      <trkpt lat="45.8999" lon="6.3369">
        <ele>888</ele>
        <time>2026-08-19T05:26:27.566Z</time>
      </trkpt>
      <trkpt lat="45.89992" lon="6.3369">
        <ele>888</ele>
        <time>2026-08-19T05:26:28.566Z</time>
      </trkpt>
      <trkpt lat="45.89993" lon="6.33689">
        <ele>889</ele>
        <time>2026-08-19T05:26:29.566Z</time>
      </trkpt>
      <trkpt lat="45.89994" lon="6.33689">
        <ele>889</ele>
        <time>2026-08-19T05:26:30.566Z</time>
      </trkpt>
      <trkpt lat="45.89995" lon="6.33688">
        <ele>890</ele>
        <time>2026-08-19T05:26:31.566Z</time>
      </trkpt>
      <trkpt lat="45.89996" lon="6.33687">
        <ele>890</ele>
        <time>2026-08-19T05:26:32.566Z</time>
      </trkpt>
      <trkpt lat="45.89997" lon="6.33685">
        <ele>890</ele>
        <time>2026-08-19T05:26:33.566Z</time>
      </trkpt>
      <trkpt lat="45.89998" lon="6.33684">
        <ele>890</ele>
        <time>2026-08-19T05:26:34.566Z</time>
      </trkpt>
      <trkpt lat="45.89998" lon="6.33682">
        <ele>890</ele>
        <time>2026-08-19T05:26:35.566Z</time>
      </trkpt>
      <trkpt lat="45.89999" lon="6.3368">
        <ele>891</ele>
        <time>2026-08-19T05:26:36.566Z</time>
      </trkpt>
      <trkpt lat="45.89999" lon="6.33679">
        <ele>891</ele>
        <time>2026-08-19T05:26:37.566Z</time>
      </trkpt>
      <trkpt lat="45.89999" lon="6.33677">
        <ele>891</ele>
        <time>2026-08-19T05:26:38.566Z</time>
      </trkpt>
      <trkpt lat="45.89999" lon="6.33675">
        <ele>891</ele>
        <time>2026-08-19T05:26:39.566Z</time>
      </trkpt>
      <trkpt lat="45.89999" lon="6.33673">
        <ele>891</ele>
        <time>2026-08-19T05:26:40.566Z</time>
      </trkpt>
      <trkpt lat="45.89999" lon="6.33671">
        <ele>891</ele>
        <time>2026-08-19T05:26:41.566Z</time>
      </trkpt>
      <trkpt lat="45.89999" lon="6.33669">
        <ele>891</ele>
        <time>2026-08-19T05:26:42.566Z</time>
      </trkpt>
      <trkpt lat="45.89999" lon="6.33667">
        <ele>891</ele>
        <time>2026-08-19T05:26:43.566Z</time>
      </trkpt>
      <trkpt lat="45.89999" lon="6.33665">
        <ele>891</ele>
        <time>2026-08-19T05:26:44.566Z</time>
      </trkpt>
      <trkpt lat="45.89999" lon="6.33663">
        <ele>891</ele>
        <time>2026-08-19T05:26:45.566Z</time>
      </trkpt>
      <trkpt lat="45.9" lon="6.33661">
        <ele>891</ele>
        <time>2026-08-19T05:26:46.566Z</time>
      </trkpt>
      <trkpt lat="45.9" lon="6.33659">
        <ele>891</ele>
        <time>2026-08-19T05:26:47.566Z</time>
      </trkpt>
      <trkpt lat="45.9" lon="6.33657">
        <ele>892</ele>
        <time>2026-08-19T05:26:48.566Z</time>
      </trkpt>
      <trkpt lat="45.89999" lon="6.33656">
        <ele>892</ele>
        <time>2026-08-19T05:26:49.566Z</time>
      </trkpt>
      <trkpt lat="45.89999" lon="6.33654">
        <ele>892</ele>
        <time>2026-08-19T05:26:50.566Z</time>
      </trkpt>
      <trkpt lat="45.89999" lon="6.33652">
        <ele>892</ele>
        <time>2026-08-19T05:26:51.566Z</time>
      </trkpt>
      <trkpt lat="45.89999" lon="6.3365">
        <ele>892</ele>
        <time>2026-08-19T05:26:52.566Z</time>
      </trkpt>
      <trkpt lat="45.89999" lon="6.33648">
        <ele>892</ele>
        <time>2026-08-19T05:26:53.566Z</time>
      </trkpt>
      <trkpt lat="45.89999" lon="6.33646">
        <ele>892</ele>
        <time>2026-08-19T05:26:54.566Z</time>
      </trkpt>
      <trkpt lat="45.89999" lon="6.33645">
        <ele>892</ele>
        <time>2026-08-19T05:26:55.566Z</time>
      </trkpt>
      <trkpt lat="45.89998" lon="6.33643">
        <ele>892</ele>
        <time>2026-08-19T05:26:56.566Z</time>
      </trkpt>
      <trkpt lat="45.89998" lon="6.33641">
        <ele>892</ele>
        <time>2026-08-19T05:26:57.566Z</time>
      </trkpt>
      <trkpt lat="45.89998" lon="6.33639">
        <ele>892</ele>
        <time>2026-08-19T05:26:58.566Z</time>
      </trkpt>
      <trkpt lat="45.89998" lon="6.33637">
        <ele>893</ele>
        <time>2026-08-19T05:26:59.566Z</time>
      </trkpt>
      <trkpt lat="45.89997" lon="6.33635">
        <ele>893</ele>
        <time>2026-08-19T05:27:00.566Z</time>
      </trkpt>
      <trkpt lat="45.89997" lon="6.33633">
        <ele>894</ele>
        <time>2026-08-19T05:27:01.566Z</time>
      </trkpt>
      <trkpt lat="45.89997" lon="6.33632">
        <ele>894</ele>
        <time>2026-08-19T05:27:02.566Z</time>
      </trkpt>
      <trkpt lat="45.89997" lon="6.3363">
        <ele>894</ele>
        <time>2026-08-19T05:27:03.566Z</time>
      </trkpt>
      <trkpt lat="45.89996" lon="6.33627">
        <ele>895</ele>
        <time>2026-08-19T05:27:04.566Z</time>
      </trkpt>
      <trkpt lat="45.89996" lon="6.33625">
        <ele>895</ele>
        <time>2026-08-19T05:27:05.566Z</time>
      </trkpt>
      <trkpt lat="45.89996" lon="6.33623">
        <ele>895</ele>
        <time>2026-08-19T05:27:06.566Z</time>
      </trkpt>
      <trkpt lat="45.89996" lon="6.33621">
        <ele>895</ele>
        <time>2026-08-19T05:27:07.566Z</time>
      </trkpt>
      <trkpt lat="45.89996" lon="6.33619">
        <ele>895</ele>
        <time>2026-08-19T05:27:08.566Z</time>
      </trkpt>
      <trkpt lat="45.89996" lon="6.33617">
        <ele>895</ele>
        <time>2026-08-19T05:27:09.566Z</time>
      </trkpt>
      <trkpt lat="45.89996" lon="6.33616">
        <ele>895</ele>
        <time>2026-08-19T05:27:10.566Z</time>
      </trkpt>
      <trkpt lat="45.89996" lon="6.33614">
        <ele>895</ele>
        <time>2026-08-19T05:27:11.566Z</time>
      </trkpt>
      <trkpt lat="45.89995" lon="6.33612">
        <ele>895</ele>
        <time>2026-08-19T05:27:12.566Z</time>
      </trkpt>
      <trkpt lat="45.89995" lon="6.3361">
        <ele>895</ele>
        <time>2026-08-19T05:27:13.566Z</time>
      </trkpt>
      <trkpt lat="45.89995" lon="6.33608">
        <ele>895</ele>
        <time>2026-08-19T05:27:14.566Z</time>
      </trkpt>
      <trkpt lat="45.89995" lon="6.33606">
        <ele>895</ele>
        <time>2026-08-19T05:27:15.566Z</time>
      </trkpt>
      <trkpt lat="45.89995" lon="6.33604">
        <ele>896</ele>
        <time>2026-08-19T05:27:16.566Z</time>
      </trkpt>
      <trkpt lat="45.89994" lon="6.33602">
        <ele>896</ele>
        <time>2026-08-19T05:27:17.566Z</time>
      </trkpt>
      <trkpt lat="45.89994" lon="6.336">
        <ele>897</ele>
        <time>2026-08-19T05:27:18.566Z</time>
      </trkpt>
      <trkpt lat="45.89994" lon="6.33598">
        <ele>897</ele>
        <time>2026-08-19T05:27:19.566Z</time>
      </trkpt>
      <trkpt lat="45.89994" lon="6.33596">
        <ele>897</ele>
        <time>2026-08-19T05:27:20.566Z</time>
      </trkpt>
      <trkpt lat="45.89993" lon="6.33594">
        <ele>897</ele>
        <time>2026-08-19T05:27:21.566Z</time>
      </trkpt>
      <trkpt lat="45.89993" lon="6.33592">
        <ele>898</ele>
        <time>2026-08-19T05:27:22.566Z</time>
      </trkpt>
      <trkpt lat="45.89993" lon="6.3359">
        <ele>898</ele>
        <time>2026-08-19T05:27:23.566Z</time>
      </trkpt>
      <trkpt lat="45.89992" lon="6.33588">
        <ele>898</ele>
        <time>2026-08-19T05:27:24.566Z</time>
      </trkpt>
      <trkpt lat="45.89992" lon="6.33586">
        <ele>898</ele>
        <time>2026-08-19T05:27:25.566Z</time>
      </trkpt>
      <trkpt lat="45.89991" lon="6.33584">
        <ele>898</ele>
        <time>2026-08-19T05:27:26.566Z</time>
      </trkpt>
      <trkpt lat="45.8999" lon="6.33581">
        <ele>898</ele>
        <time>2026-08-19T05:27:27.566Z</time>
      </trkpt>
      <trkpt lat="45.89989" lon="6.3358">
        <ele>899</ele>
        <time>2026-08-19T05:27:28.566Z</time>
      </trkpt>
      <trkpt lat="45.89989" lon="6.33577">
        <ele>899</ele>
        <time>2026-08-19T05:27:29.566Z</time>
      </trkpt>
      <trkpt lat="45.89988" lon="6.33576">
        <ele>899</ele>
        <time>2026-08-19T05:27:30.566Z</time>
      </trkpt>
      <trkpt lat="45.89988" lon="6.33574">
        <ele>899</ele>
        <time>2026-08-19T05:27:31.566Z</time>
      </trkpt>
      <trkpt lat="45.89988" lon="6.33573">
        <ele>899</ele>
        <time>2026-08-19T05:27:32.566Z</time>
      </trkpt>
      <trkpt lat="45.89988" lon="6.33572">
        <ele>900</ele>
        <time>2026-08-19T05:27:33.566Z</time>
      </trkpt>
      <trkpt lat="45.89987" lon="6.3357">
        <ele>900</ele>
        <time>2026-08-19T05:27:34.566Z</time>
      </trkpt>
      <trkpt lat="45.89987" lon="6.33569">
        <ele>900</ele>
        <time>2026-08-19T05:27:35.566Z</time>
      </trkpt>
      <trkpt lat="45.89987" lon="6.33566">
        <ele>900</ele>
        <time>2026-08-19T05:27:36.566Z</time>
      </trkpt>
      <trkpt lat="45.89987" lon="6.33565">
        <ele>901</ele>
        <time>2026-08-19T05:27:37.566Z</time>
      </trkpt>
      <trkpt lat="45.89986" lon="6.33563">
        <ele>901</ele>
        <time>2026-08-19T05:27:38.566Z</time>
      </trkpt>
      <trkpt lat="45.89986" lon="6.33561">
        <ele>901</ele>
        <time>2026-08-19T05:27:39.566Z</time>
      </trkpt>
      <trkpt lat="45.89986" lon="6.33559">
        <ele>901</ele>
        <time>2026-08-19T05:27:40.566Z</time>
      </trkpt>
      <trkpt lat="45.89985" lon="6.33557">
        <ele>901</ele>
        <time>2026-08-19T05:27:41.566Z</time>
      </trkpt>
      <trkpt lat="45.89985" lon="6.33556">
        <ele>901</ele>
        <time>2026-08-19T05:27:42.566Z</time>
      </trkpt>
      <trkpt lat="45.89986" lon="6.33554">
        <ele>901</ele>
        <time>2026-08-19T05:27:43.566Z</time>
      </trkpt>
      <trkpt lat="45.89986" lon="6.33552">
        <ele>902</ele>
        <time>2026-08-19T05:27:44.566Z</time>
      </trkpt>
      <trkpt lat="45.89985" lon="6.3355">
        <ele>902</ele>
        <time>2026-08-19T05:27:45.566Z</time>
      </trkpt>
      <trkpt lat="45.89986" lon="6.33548">
        <ele>902</ele>
        <time>2026-08-19T05:27:46.566Z</time>
      </trkpt>
      <trkpt lat="45.89986" lon="6.33546">
        <ele>902</ele>
        <time>2026-08-19T05:27:47.566Z</time>
      </trkpt>
      <trkpt lat="45.89986" lon="6.33545">
        <ele>902</ele>
        <time>2026-08-19T05:27:48.566Z</time>
      </trkpt>
      <trkpt lat="45.89987" lon="6.33543">
        <ele>903</ele>
        <time>2026-08-19T05:27:49.566Z</time>
      </trkpt>
      <trkpt lat="45.89987" lon="6.33542">
        <ele>903</ele>
        <time>2026-08-19T05:27:50.566Z</time>
      </trkpt>
      <trkpt lat="45.89988" lon="6.33541">
        <ele>904</ele>
        <time>2026-08-19T05:27:51.566Z</time>
      </trkpt>
      <trkpt lat="45.89989" lon="6.3354">
        <ele>905</ele>
        <time>2026-08-19T05:27:52.566Z</time>
      </trkpt>
      <trkpt lat="45.8999" lon="6.33539">
        <ele>905</ele>
        <time>2026-08-19T05:27:53.566Z</time>
      </trkpt>
      <trkpt lat="45.89991" lon="6.33538">
        <ele>906</ele>
        <time>2026-08-19T05:27:54.566Z</time>
      </trkpt>
      <trkpt lat="45.89992" lon="6.33538">
        <ele>907</ele>
        <time>2026-08-19T05:27:55.566Z</time>
      </trkpt>
      <trkpt lat="45.89993" lon="6.33538">
        <ele>907</ele>
        <time>2026-08-19T05:27:56.566Z</time>
      </trkpt>
      <trkpt lat="45.89994" lon="6.33539">
        <ele>908</ele>
        <time>2026-08-19T05:27:57.566Z</time>
      </trkpt>
      <trkpt lat="45.89995" lon="6.3354">
        <ele>909</ele>
        <time>2026-08-19T05:27:58.566Z</time>
      </trkpt>
      <trkpt lat="45.89996" lon="6.33541">
        <ele>910</ele>
        <time>2026-08-19T05:27:59.566Z</time>
      </trkpt>
      <trkpt lat="45.89997" lon="6.33543">
        <ele>911</ele>
        <time>2026-08-19T05:28:00.566Z</time>
      </trkpt>
      <trkpt lat="45.89998" lon="6.33544">
        <ele>911</ele>
        <time>2026-08-19T05:28:01.566Z</time>
      </trkpt>
      <trkpt lat="45.89999" lon="6.33546">
        <ele>912</ele>
        <time>2026-08-19T05:28:02.566Z</time>
      </trkpt>
      <trkpt lat="45.9" lon="6.33547">
        <ele>912</ele>
        <time>2026-08-19T05:28:03.566Z</time>
      </trkpt>
      <trkpt lat="45.90001" lon="6.33549">
        <ele>913</ele>
        <time>2026-08-19T05:28:04.566Z</time>
      </trkpt>
      <trkpt lat="45.90002" lon="6.33551">
        <ele>914</ele>
        <time>2026-08-19T05:28:05.566Z</time>
      </trkpt>
      <trkpt lat="45.90003" lon="6.33552">
        <ele>914</ele>
        <time>2026-08-19T05:28:06.567Z</time>
      </trkpt>
      <trkpt lat="45.90004" lon="6.33554">
        <ele>914</ele>
        <time>2026-08-19T05:28:07.566Z</time>
      </trkpt>
      <trkpt lat="45.90005" lon="6.33555">
        <ele>915</ele>
        <time>2026-08-19T05:28:08.566Z</time>
      </trkpt>
      <trkpt lat="45.90005" lon="6.33557">
        <ele>915</ele>
        <time>2026-08-19T05:28:09.566Z</time>
      </trkpt>
      <trkpt lat="45.90006" lon="6.33559">
        <ele>915</ele>
        <time>2026-08-19T05:28:10.566Z</time>
      </trkpt>
      <trkpt lat="45.90007" lon="6.3356">
        <ele>915</ele>
        <time>2026-08-19T05:28:11.566Z</time>
      </trkpt>
      <trkpt lat="45.90007" lon="6.33562">
        <ele>915</ele>
        <time>2026-08-19T05:28:12.566Z</time>
      </trkpt>
      <trkpt lat="45.90008" lon="6.33563">
        <ele>915</ele>
        <time>2026-08-19T05:28:13.566Z</time>
      </trkpt>
      <trkpt lat="45.90009" lon="6.33565">
        <ele>915</ele>
        <time>2026-08-19T05:28:14.566Z</time>
      </trkpt>
      <trkpt lat="45.9001" lon="6.33566">
        <ele>915</ele>
        <time>2026-08-19T05:28:15.566Z</time>
      </trkpt>
      <trkpt lat="45.90011" lon="6.33568">
        <ele>915</ele>
        <time>2026-08-19T05:28:16.566Z</time>
      </trkpt>
      <trkpt lat="45.90011" lon="6.33569">
        <ele>915</ele>
        <time>2026-08-19T05:28:17.566Z</time>
      </trkpt>
      <trkpt lat="45.90012" lon="6.33571">
        <ele>915</ele>
        <time>2026-08-19T05:28:18.566Z</time>
      </trkpt>
      <trkpt lat="45.90013" lon="6.33573">
        <ele>915</ele>
        <time>2026-08-19T05:28:19.566Z</time>
      </trkpt>
      <trkpt lat="45.90014" lon="6.33575">
        <ele>915</ele>
        <time>2026-08-19T05:28:20.566Z</time>
      </trkpt>
      <trkpt lat="45.90014" lon="6.33577">
        <ele>915</ele>
        <time>2026-08-19T05:28:21.566Z</time>
      </trkpt>
      <trkpt lat="45.90015" lon="6.33578">
        <ele>915</ele>
        <time>2026-08-19T05:28:22.566Z</time>
      </trkpt>
      <trkpt lat="45.90016" lon="6.3358">
        <ele>915</ele>
        <time>2026-08-19T05:28:23.566Z</time>
      </trkpt>
      <trkpt lat="45.90017" lon="6.33581">
        <ele>915</ele>
        <time>2026-08-19T05:28:24.566Z</time>
      </trkpt>
      <trkpt lat="45.90018" lon="6.33583">
        <ele>915</ele>
        <time>2026-08-19T05:28:25.566Z</time>
      </trkpt>
      <trkpt lat="45.90019" lon="6.33585">
        <ele>914</ele>
        <time>2026-08-19T05:28:26.566Z</time>
      </trkpt>
      <trkpt lat="45.9002" lon="6.33586">
        <ele>914</ele>
        <time>2026-08-19T05:28:27.566Z</time>
      </trkpt>
      <trkpt lat="45.90021" lon="6.33587">
        <ele>914</ele>
        <time>2026-08-19T05:28:28.566Z</time>
      </trkpt>
      <trkpt lat="45.90022" lon="6.33588">
        <ele>914</ele>
        <time>2026-08-19T05:28:29.566Z</time>
      </trkpt>
      <trkpt lat="45.90023" lon="6.3359">
        <ele>913</ele>
        <time>2026-08-19T05:28:30.566Z</time>
      </trkpt>
      <trkpt lat="45.90024" lon="6.33591">
        <ele>913</ele>
        <time>2026-08-19T05:28:31.566Z</time>
      </trkpt>
      <trkpt lat="45.90025" lon="6.33593">
        <ele>913</ele>
        <time>2026-08-19T05:28:32.566Z</time>
      </trkpt>
      <trkpt lat="45.90026" lon="6.33594">
        <ele>913</ele>
        <time>2026-08-19T05:28:33.566Z</time>
      </trkpt>
      <trkpt lat="45.90027" lon="6.33596">
        <ele>913</ele>
        <time>2026-08-19T05:28:34.566Z</time>
      </trkpt>
      <trkpt lat="45.90028" lon="6.33598">
        <ele>913</ele>
        <time>2026-08-19T05:28:35.566Z</time>
      </trkpt>
      <trkpt lat="45.9003" lon="6.336">
        <ele>914</ele>
        <time>2026-08-19T05:28:36.566Z</time>
      </trkpt>
      <trkpt lat="45.90031" lon="6.33602">
        <ele>914</ele>
        <time>2026-08-19T05:28:37.566Z</time>
      </trkpt>
      <trkpt lat="45.90032" lon="6.33604">
        <ele>914</ele>
        <time>2026-08-19T05:28:38.566Z</time>
      </trkpt>
      <trkpt lat="45.90033" lon="6.33605">
        <ele>914</ele>
        <time>2026-08-19T05:28:39.566Z</time>
      </trkpt>
      <trkpt lat="45.90035" lon="6.33607">
        <ele>914</ele>
        <time>2026-08-19T05:28:40.566Z</time>
      </trkpt>
      <trkpt lat="45.90036" lon="6.33608">
        <ele>914</ele>
        <time>2026-08-19T05:28:41.566Z</time>
      </trkpt>
      <trkpt lat="45.90037" lon="6.3361">
        <ele>914</ele>
        <time>2026-08-19T05:28:42.566Z</time>
      </trkpt>
      <trkpt lat="45.90038" lon="6.33612">
        <ele>914</ele>
        <time>2026-08-19T05:28:43.566Z</time>
      </trkpt>
      <trkpt lat="45.90039" lon="6.33614">
        <ele>914</ele>
        <time>2026-08-19T05:28:44.566Z</time>
      </trkpt>
      <trkpt lat="45.9004" lon="6.33615">
        <ele>914</ele>
        <time>2026-08-19T05:28:45.566Z</time>
      </trkpt>
      <trkpt lat="45.90041" lon="6.33615">
        <ele>914</ele>
        <time>2026-08-19T05:28:46.566Z</time>
      </trkpt>
      <trkpt lat="45.90041" lon="6.33616">
        <ele>915</ele>
        <time>2026-08-19T05:28:47.566Z</time>
      </trkpt>
      <trkpt lat="45.90042" lon="6.33617">
        <ele>915</ele>
        <time>2026-08-19T05:28:48.566Z</time>
      </trkpt>
      <trkpt lat="45.90043" lon="6.33618">
        <ele>915</ele>
        <time>2026-08-19T05:28:49.566Z</time>
      </trkpt>
      <trkpt lat="45.90045" lon="6.33619">
        <ele>915</ele>
        <time>2026-08-19T05:28:50.566Z</time>
      </trkpt>
      <trkpt lat="45.90046" lon="6.33621">
        <ele>916</ele>
        <time>2026-08-19T05:28:51.566Z</time>
      </trkpt>
      <trkpt lat="45.90048" lon="6.33623">
        <ele>916</ele>
        <time>2026-08-19T05:28:52.566Z</time>
      </trkpt>
      <trkpt lat="45.9005" lon="6.33625">
        <ele>916</ele>
        <time>2026-08-19T05:28:53.566Z</time>
      </trkpt>
      <trkpt lat="45.90051" lon="6.33628">
        <ele>916</ele>
        <time>2026-08-19T05:28:54.566Z</time>
      </trkpt>
      <trkpt lat="45.90052" lon="6.33631">
        <ele>916</ele>
        <time>2026-08-19T05:28:55.566Z</time>
      </trkpt>
      <trkpt lat="45.90054" lon="6.33633">
        <ele>916</ele>
        <time>2026-08-19T05:28:56.566Z</time>
      </trkpt>
      <trkpt lat="45.90055" lon="6.33636">
        <ele>916</ele>
        <time>2026-08-19T05:28:57.566Z</time>
      </trkpt>
      <trkpt lat="45.90056" lon="6.33638">
        <ele>916</ele>
        <time>2026-08-19T05:28:58.566Z</time>
      </trkpt>
      <trkpt lat="45.90058" lon="6.3364">
        <ele>916</ele>
        <time>2026-08-19T05:28:59.566Z</time>
      </trkpt>
      <trkpt lat="45.90059" lon="6.33643">
        <ele>916</ele>
        <time>2026-08-19T05:29:00.566Z</time>
      </trkpt>
      <trkpt lat="45.9006" lon="6.33645">
        <ele>916</ele>
        <time>2026-08-19T05:29:01.566Z</time>
      </trkpt>
      <trkpt lat="45.90062" lon="6.33647">
        <ele>916</ele>
        <time>2026-08-19T05:29:02.566Z</time>
      </trkpt>
      <trkpt lat="45.90063" lon="6.3365">
        <ele>916</ele>
        <time>2026-08-19T05:29:03.566Z</time>
      </trkpt>
      <trkpt lat="45.90064" lon="6.33652">
        <ele>916</ele>
        <time>2026-08-19T05:29:04.566Z</time>
      </trkpt>
      <trkpt lat="45.90065" lon="6.33655">
        <ele>917</ele>
        <time>2026-08-19T05:29:05.566Z</time>
      </trkpt>
      <trkpt lat="45.90066" lon="6.33657">
        <ele>917</ele>
        <time>2026-08-19T05:29:06.566Z</time>
      </trkpt>
      <trkpt lat="45.90068" lon="6.33659">
        <ele>918</ele>
        <time>2026-08-19T05:29:07.566Z</time>
      </trkpt>
      <trkpt lat="45.90069" lon="6.33662">
        <ele>918</ele>
        <time>2026-08-19T05:29:08.566Z</time>
      </trkpt>
      <trkpt lat="45.9007" lon="6.33664">
        <ele>919</ele>
        <time>2026-08-19T05:29:09.566Z</time>
      </trkpt>
      <trkpt lat="45.90071" lon="6.33666">
        <ele>919</ele>
        <time>2026-08-19T05:29:10.566Z</time>
      </trkpt>
      <trkpt lat="45.90072" lon="6.33668">
        <ele>918</ele>
        <time>2026-08-19T05:29:11.566Z</time>
      </trkpt>
      <trkpt lat="45.90074" lon="6.3367">
        <ele>918</ele>
        <time>2026-08-19T05:29:12.566Z</time>
      </trkpt>
      <trkpt lat="45.90075" lon="6.33672">
        <ele>918</ele>
        <time>2026-08-19T05:29:13.566Z</time>
      </trkpt>
      <trkpt lat="45.90077" lon="6.33673">
        <ele>918</ele>
        <time>2026-08-19T05:29:14.566Z</time>
      </trkpt>
      <trkpt lat="45.90078" lon="6.33675">
        <ele>918</ele>
        <time>2026-08-19T05:29:15.566Z</time>
      </trkpt>
      <trkpt lat="45.9008" lon="6.33676">
        <ele>918</ele>
        <time>2026-08-19T05:29:16.566Z</time>
      </trkpt>
      <trkpt lat="45.90082" lon="6.33677">
        <ele>918</ele>
        <time>2026-08-19T05:29:17.566Z</time>
      </trkpt>
      <trkpt lat="45.90083" lon="6.33678">
        <ele>919</ele>
        <time>2026-08-19T05:29:18.566Z</time>
      </trkpt>
      <trkpt lat="45.90085" lon="6.33679">
        <ele>919</ele>
        <time>2026-08-19T05:29:19.566Z</time>
      </trkpt>
      <trkpt lat="45.90087" lon="6.33679">
        <ele>920</ele>
        <time>2026-08-19T05:29:20.566Z</time>
      </trkpt>
      <trkpt lat="45.90089" lon="6.3368">
        <ele>920</ele>
        <time>2026-08-19T05:29:21.566Z</time>
      </trkpt>
      <trkpt lat="45.9009" lon="6.3368">
        <ele>920</ele>
        <time>2026-08-19T05:29:22.566Z</time>
      </trkpt>
      <trkpt lat="45.90092" lon="6.3368">
        <ele>921</ele>
        <time>2026-08-19T05:29:23.566Z</time>
      </trkpt>
      <trkpt lat="45.90093" lon="6.33679">
        <ele>921</ele>
        <time>2026-08-19T05:29:24.566Z</time>
      </trkpt>
      <trkpt lat="45.90094" lon="6.33679">
        <ele>921</ele>
        <time>2026-08-19T05:29:25.566Z</time>
      </trkpt>
      <trkpt lat="45.90095" lon="6.33677">
        <ele>922</ele>
        <time>2026-08-19T05:29:26.566Z</time>
      </trkpt>
      <trkpt lat="45.90096" lon="6.33676">
        <ele>922</ele>
        <time>2026-08-19T05:29:27.566Z</time>
      </trkpt>
      <trkpt lat="45.90096" lon="6.33675">
        <ele>922</ele>
        <time>2026-08-19T05:29:28.566Z</time>
      </trkpt>
      <trkpt lat="45.90096" lon="6.33674">
        <ele>921</ele>
        <time>2026-08-19T05:29:29.566Z</time>
      </trkpt>
      <trkpt lat="45.90096" lon="6.33673">
        <ele>921</ele>
        <time>2026-08-19T05:29:30.566Z</time>
      </trkpt>
      <trkpt lat="45.90097" lon="6.33672">
        <ele>921</ele>
        <time>2026-08-19T05:29:31.566Z</time>
      </trkpt>
      <trkpt lat="45.90097" lon="6.33671">
        <ele>920</ele>
        <time>2026-08-19T05:29:32.566Z</time>
      </trkpt>
      <trkpt lat="45.90098" lon="6.33671">
        <ele>920</ele>
        <time>2026-08-19T05:29:33.566Z</time>
      </trkpt>
      <trkpt lat="45.90099" lon="6.3367">
        <ele>920</ele>
        <time>2026-08-19T05:29:34.566Z</time>
      </trkpt>
      <trkpt lat="45.90099" lon="6.3367">
        <ele>921</ele>
        <time>2026-08-19T05:29:35.566Z</time>
      </trkpt>
      <trkpt lat="45.901" lon="6.3367">
        <ele>921</ele>
        <time>2026-08-19T05:29:36.566Z</time>
      </trkpt>
      <trkpt lat="45.90101" lon="6.3367">
        <ele>921</ele>
        <time>2026-08-19T05:29:37.566Z</time>
      </trkpt>
      <trkpt lat="45.90102" lon="6.33669">
        <ele>921</ele>
        <time>2026-08-19T05:29:38.566Z</time>
      </trkpt>
      <trkpt lat="45.90103" lon="6.33669">
        <ele>921</ele>
        <time>2026-08-19T05:29:39.566Z</time>
      </trkpt>
      <trkpt lat="45.90103" lon="6.33668">
        <ele>921</ele>
        <time>2026-08-19T05:29:40.566Z</time>
      </trkpt>
      <trkpt lat="45.90103" lon="6.33668">
        <ele>921</ele>
        <time>2026-08-19T05:29:41.566Z</time>
      </trkpt>
      <trkpt lat="45.90104" lon="6.33667">
        <ele>922</ele>
        <time>2026-08-19T05:29:42.566Z</time>
      </trkpt>
      <trkpt lat="45.90104" lon="6.33666">
        <ele>922</ele>
        <time>2026-08-19T05:29:43.566Z</time>
      </trkpt>
      <trkpt lat="45.90105" lon="6.33664">
        <ele>923</ele>
        <time>2026-08-19T05:29:44.566Z</time>
      </trkpt>
      <trkpt lat="45.90105" lon="6.33663">
        <ele>923</ele>
        <time>2026-08-19T05:29:45.566Z</time>
      </trkpt>
      <trkpt lat="45.90106" lon="6.33662">
        <ele>924</ele>
        <time>2026-08-19T05:29:46.566Z</time>
      </trkpt>
      <trkpt lat="45.90106" lon="6.33661">
        <ele>924</ele>
        <time>2026-08-19T05:29:47.566Z</time>
      </trkpt>
      <trkpt lat="45.90106" lon="6.33661">
        <ele>925</ele>
        <time>2026-08-19T05:29:48.566Z</time>
      </trkpt>
      <trkpt lat="45.90107" lon="6.3366">
        <ele>925</ele>
        <time>2026-08-19T05:29:49.566Z</time>
      </trkpt>
      <trkpt lat="45.90107" lon="6.33658">
        <ele>925</ele>
        <time>2026-08-19T05:29:50.566Z</time>
      </trkpt>
      <trkpt lat="45.90107" lon="6.33657">
        <ele>925</ele>
        <time>2026-08-19T05:29:51.566Z</time>
      </trkpt>
      <trkpt lat="45.90107" lon="6.33656">
        <ele>925</ele>
        <time>2026-08-19T05:29:52.566Z</time>
      </trkpt>
      <trkpt lat="45.90108" lon="6.33655">
        <ele>925</ele>
        <time>2026-08-19T05:29:53.566Z</time>
      </trkpt>
      <trkpt lat="45.90108" lon="6.33653">
        <ele>925</ele>
        <time>2026-08-19T05:29:54.566Z</time>
      </trkpt>
      <trkpt lat="45.90108" lon="6.33653">
        <ele>925</ele>
        <time>2026-08-19T05:29:55.566Z</time>
      </trkpt>
      <trkpt lat="45.90108" lon="6.33652">
        <ele>925</ele>
        <time>2026-08-19T05:29:56.566Z</time>
      </trkpt>
      <trkpt lat="45.90108" lon="6.33651">
        <ele>926</ele>
        <time>2026-08-19T05:29:57.566Z</time>
      </trkpt>
      <trkpt lat="45.90109" lon="6.3365">
        <ele>926</ele>
        <time>2026-08-19T05:29:58.566Z</time>
      </trkpt>
      <trkpt lat="45.90109" lon="6.33648">
        <ele>926</ele>
        <time>2026-08-19T05:29:59.566Z</time>
      </trkpt>
      <trkpt lat="45.90109" lon="6.33647">
        <ele>926</ele>
        <time>2026-08-19T05:30:00.566Z</time>
      </trkpt>
      <trkpt lat="45.90109" lon="6.33646">
        <ele>927</ele>
        <time>2026-08-19T05:30:01.566Z</time>
      </trkpt>
      <trkpt lat="45.90109" lon="6.33645">
        <ele>927</ele>
        <time>2026-08-19T05:30:02.566Z</time>
      </trkpt>
      <trkpt lat="45.9011" lon="6.33644">
        <ele>927</ele>
        <time>2026-08-19T05:30:03.566Z</time>
      </trkpt>
      <trkpt lat="45.9011" lon="6.33643">
        <ele>927</ele>
        <time>2026-08-19T05:30:04.566Z</time>
      </trkpt>
      <trkpt lat="45.9011" lon="6.33642">
        <ele>927</ele>
        <time>2026-08-19T05:30:05.566Z</time>
      </trkpt>
      <trkpt lat="45.9011" lon="6.33642">
        <ele>927</ele>
        <time>2026-08-19T05:30:06.566Z</time>
      </trkpt>
      <trkpt lat="45.9011" lon="6.3364">
        <ele>928</ele>
        <time>2026-08-19T05:30:07.566Z</time>
      </trkpt>
      <trkpt lat="45.90109" lon="6.33639">
        <ele>928</ele>
        <time>2026-08-19T05:30:08.566Z</time>
      </trkpt>
      <trkpt lat="45.9011" lon="6.33638">
        <ele>928</ele>
        <time>2026-08-19T05:30:09.566Z</time>
      </trkpt>
      <trkpt lat="45.9011" lon="6.33637">
        <ele>928</ele>
        <time>2026-08-19T05:30:10.566Z</time>
      </trkpt>
      <trkpt lat="45.9011" lon="6.33636">
        <ele>928</ele>
        <time>2026-08-19T05:30:11.566Z</time>
      </trkpt>
      <trkpt lat="45.9011" lon="6.33635">
        <ele>928</ele>
        <time>2026-08-19T05:30:12.566Z</time>
      </trkpt>
      <trkpt lat="45.90111" lon="6.33634">
        <ele>928</ele>
        <time>2026-08-19T05:30:13.566Z</time>
      </trkpt>
      <trkpt lat="45.90111" lon="6.33633">
        <ele>928</ele>
        <time>2026-08-19T05:30:14.566Z</time>
      </trkpt>
      <trkpt lat="45.90111" lon="6.33632">
        <ele>929</ele>
        <time>2026-08-19T05:30:15.566Z</time>
      </trkpt>
      <trkpt lat="45.90111" lon="6.3363">
        <ele>929</ele>
        <time>2026-08-19T05:30:16.566Z</time>
      </trkpt>
      <trkpt lat="45.90111" lon="6.33629">
        <ele>929</ele>
        <time>2026-08-19T05:30:17.566Z</time>
      </trkpt>
      <trkpt lat="45.90111" lon="6.33628">
        <ele>930</ele>
        <time>2026-08-19T05:30:18.566Z</time>
      </trkpt>
      <trkpt lat="45.90111" lon="6.33627">
        <ele>930</ele>
        <time>2026-08-19T05:30:19.566Z</time>
      </trkpt>
      <trkpt lat="45.90111" lon="6.33625">
        <ele>930</ele>
        <time>2026-08-19T05:30:20.566Z</time>
      </trkpt>
      <trkpt lat="45.90111" lon="6.33624">
        <ele>931</ele>
        <time>2026-08-19T05:30:21.566Z</time>
      </trkpt>
      <trkpt lat="45.90111" lon="6.33622">
        <ele>931</ele>
        <time>2026-08-19T05:30:22.566Z</time>
      </trkpt>
      <trkpt lat="45.90112" lon="6.33621">
        <ele>932</ele>
        <time>2026-08-19T05:30:23.566Z</time>
      </trkpt>
      <trkpt lat="45.90112" lon="6.33621">
        <ele>932</ele>
        <time>2026-08-19T05:30:24.566Z</time>
      </trkpt>
      <trkpt lat="45.90113" lon="6.3362">
        <ele>933</ele>
        <time>2026-08-19T05:30:25.566Z</time>
      </trkpt>
      <trkpt lat="45.90113" lon="6.33619">
        <ele>934</ele>
        <time>2026-08-19T05:30:26.566Z</time>
      </trkpt>
      <trkpt lat="45.90113" lon="6.33618">
        <ele>934</ele>
        <time>2026-08-19T05:30:27.566Z</time>
      </trkpt>
      <trkpt lat="45.90114" lon="6.33617">
        <ele>935</ele>
        <time>2026-08-19T05:30:28.566Z</time>
      </trkpt>
      <trkpt lat="45.90114" lon="6.33617">
        <ele>936</ele>
        <time>2026-08-19T05:30:29.566Z</time>
      </trkpt>
      <trkpt lat="45.90115" lon="6.33616">
        <ele>937</ele>
        <time>2026-08-19T05:30:30.566Z</time>
      </trkpt>
      <trkpt lat="45.90115" lon="6.33615">
        <ele>937</ele>
        <time>2026-08-19T05:30:31.566Z</time>
      </trkpt>
      <trkpt lat="45.90115" lon="6.33614">
        <ele>938</ele>
        <time>2026-08-19T05:30:32.566Z</time>
      </trkpt>
      <trkpt lat="45.90116" lon="6.33614">
        <ele>938</ele>
        <time>2026-08-19T05:30:33.566Z</time>
      </trkpt>
      <trkpt lat="45.90116" lon="6.33613">
        <ele>939</ele>
        <time>2026-08-19T05:30:34.566Z</time>
      </trkpt>
      <trkpt lat="45.90116" lon="6.33612">
        <ele>939</ele>
        <time>2026-08-19T05:30:35.566Z</time>
      </trkpt>
      <trkpt lat="45.90117" lon="6.33611">
        <ele>939</ele>
        <time>2026-08-19T05:30:36.566Z</time>
      </trkpt>
      <trkpt lat="45.90117" lon="6.3361">
        <ele>940</ele>
        <time>2026-08-19T05:30:37.566Z</time>
      </trkpt>
      <trkpt lat="45.90118" lon="6.3361">
        <ele>940</ele>
        <time>2026-08-19T05:30:38.566Z</time>
      </trkpt>
      <trkpt lat="45.90118" lon="6.33609">
        <ele>940</ele>
        <time>2026-08-19T05:30:39.566Z</time>
      </trkpt>
      <trkpt lat="45.90118" lon="6.33608">
        <ele>940</ele>
        <time>2026-08-19T05:30:40.566Z</time>
      </trkpt>
      <trkpt lat="45.90119" lon="6.33608">
        <ele>941</ele>
        <time>2026-08-19T05:30:41.566Z</time>
      </trkpt>
      <trkpt lat="45.90119" lon="6.33606">
        <ele>941</ele>
        <time>2026-08-19T05:30:42.566Z</time>
      </trkpt>
      <trkpt lat="45.90119" lon="6.33605">
        <ele>942</ele>
        <time>2026-08-19T05:30:43.566Z</time>
      </trkpt>
      <trkpt lat="45.9012" lon="6.33605">
        <ele>942</ele>
        <time>2026-08-19T05:30:44.566Z</time>
      </trkpt>
      <trkpt lat="45.9012" lon="6.33605">
        <ele>942</ele>
        <time>2026-08-19T05:30:45.566Z</time>
      </trkpt>
      <trkpt lat="45.9012" lon="6.33604">
        <ele>942</ele>
        <time>2026-08-19T05:30:46.566Z</time>
      </trkpt>
      <trkpt lat="45.90121" lon="6.33603">
        <ele>943</ele>
        <time>2026-08-19T05:30:47.566Z</time>
      </trkpt>
      <trkpt lat="45.90121" lon="6.33603">
        <ele>943</ele>
        <time>2026-08-19T05:30:48.566Z</time>
      </trkpt>
      <trkpt lat="45.90121" lon="6.33602">
        <ele>944</ele>
        <time>2026-08-19T05:30:49.566Z</time>
      </trkpt>
      <trkpt lat="45.9012" lon="6.33601">
        <ele>944</ele>
        <time>2026-08-19T05:30:50.566Z</time>
      </trkpt>
      <trkpt lat="45.9012" lon="6.336">
        <ele>945</ele>
        <time>2026-08-19T05:30:51.566Z</time>
      </trkpt>
      <trkpt lat="45.9012" lon="6.33599">
        <ele>945</ele>
        <time>2026-08-19T05:30:52.566Z</time>
      </trkpt>
      <trkpt lat="45.9012" lon="6.33598">
        <ele>945</ele>
        <time>2026-08-19T05:30:53.566Z</time>
      </trkpt>
      <trkpt lat="45.9012" lon="6.33597">
        <ele>946</ele>
        <time>2026-08-19T05:30:54.566Z</time>
      </trkpt>
      <trkpt lat="45.9012" lon="6.33597">
        <ele>946</ele>
        <time>2026-08-19T05:30:55.566Z</time>
      </trkpt>
      <trkpt lat="45.9012" lon="6.33596">
        <ele>946</ele>
        <time>2026-08-19T05:30:56.566Z</time>
      </trkpt>
      <trkpt lat="45.9012" lon="6.33595">
        <ele>946</ele>
        <time>2026-08-19T05:30:57.566Z</time>
      </trkpt>
      <trkpt lat="45.9012" lon="6.33594">
        <ele>946</ele>
        <time>2026-08-19T05:30:58.566Z</time>
      </trkpt>
      <trkpt lat="45.9012" lon="6.33593">
        <ele>946</ele>
        <time>2026-08-19T05:30:59.566Z</time>
      </trkpt>
      <trkpt lat="45.9012" lon="6.33592">
        <ele>946</ele>
        <time>2026-08-19T05:31:00.566Z</time>
      </trkpt>
      <trkpt lat="45.9012" lon="6.33592">
        <ele>946</ele>
        <time>2026-08-19T05:31:01.566Z</time>
      </trkpt>
      <trkpt lat="45.9012" lon="6.3359">
        <ele>946</ele>
        <time>2026-08-19T05:31:02.566Z</time>
      </trkpt>
      <trkpt lat="45.9012" lon="6.3359">
        <ele>947</ele>
        <time>2026-08-19T05:31:03.566Z</time>
      </trkpt>
      <trkpt lat="45.9012" lon="6.33588">
        <ele>947</ele>
        <time>2026-08-19T05:31:04.566Z</time>
      </trkpt>
      <trkpt lat="45.9012" lon="6.33587">
        <ele>948</ele>
        <time>2026-08-19T05:31:05.566Z</time>
      </trkpt>
      <trkpt lat="45.9012" lon="6.33586">
        <ele>948</ele>
        <time>2026-08-19T05:31:06.566Z</time>
      </trkpt>
      <trkpt lat="45.9012" lon="6.33585">
        <ele>948</ele>
        <time>2026-08-19T05:31:07.566Z</time>
      </trkpt>
      <trkpt lat="45.90121" lon="6.33585">
        <ele>949</ele>
        <time>2026-08-19T05:31:08.566Z</time>
      </trkpt>
      <trkpt lat="45.90122" lon="6.33583">
        <ele>949</ele>
        <time>2026-08-19T05:31:09.566Z</time>
      </trkpt>
      <trkpt lat="45.90122" lon="6.33582">
        <ele>950</ele>
        <time>2026-08-19T05:31:10.566Z</time>
      </trkpt>
      <trkpt lat="45.90122" lon="6.33582">
        <ele>951</ele>
        <time>2026-08-19T05:31:11.566Z</time>
      </trkpt>
      <trkpt lat="45.90122" lon="6.33581">
        <ele>951</ele>
        <time>2026-08-19T05:31:12.566Z</time>
      </trkpt>
      <trkpt lat="45.90122" lon="6.3358">
        <ele>951</ele>
        <time>2026-08-19T05:31:13.566Z</time>
      </trkpt>
      <trkpt lat="45.90122" lon="6.3358">
        <ele>952</ele>
        <time>2026-08-19T05:31:14.566Z</time>
      </trkpt>
      <trkpt lat="45.90122" lon="6.3358">
        <ele>951</ele>
        <time>2026-08-19T05:31:15.566Z</time>
      </trkpt>
      <trkpt lat="45.90122" lon="6.33579">
        <ele>951</ele>
        <time>2026-08-19T05:31:16.566Z</time>
      </trkpt>
      <trkpt lat="45.90123" lon="6.33578">
        <ele>951</ele>
        <time>2026-08-19T05:31:17.566Z</time>
      </trkpt>
      <trkpt lat="45.90123" lon="6.33577">
        <ele>951</ele>
        <time>2026-08-19T05:31:18.566Z</time>
      </trkpt>
      <trkpt lat="45.90123" lon="6.33577">
        <ele>951</ele>
        <time>2026-08-19T05:31:19.566Z</time>
      </trkpt>
      <trkpt lat="45.90123" lon="6.33576">
        <ele>951</ele>
        <time>2026-08-19T05:31:20.566Z</time>
      </trkpt>
      <trkpt lat="45.90123" lon="6.33575">
        <ele>951</ele>
        <time>2026-08-19T05:31:21.566Z</time>
      </trkpt>
      <trkpt lat="45.90123" lon="6.33575">
        <ele>951</ele>
        <time>2026-08-19T05:31:22.566Z</time>
      </trkpt>
      <trkpt lat="45.90123" lon="6.33574">
        <ele>952</ele>
        <time>2026-08-19T05:31:23.566Z</time>
      </trkpt>
      <trkpt lat="45.90123" lon="6.33573">
        <ele>952</ele>
        <time>2026-08-19T05:31:24.566Z</time>
      </trkpt>
      <trkpt lat="45.90123" lon="6.33572">
        <ele>952</ele>
        <time>2026-08-19T05:31:25.566Z</time>
      </trkpt>
      <trkpt lat="45.90123" lon="6.33571">
        <ele>952</ele>
        <time>2026-08-19T05:31:26.566Z</time>
      </trkpt>
      <trkpt lat="45.90123" lon="6.3357">
        <ele>952</ele>
        <time>2026-08-19T05:31:27.566Z</time>
      </trkpt>
      <trkpt lat="45.90122" lon="6.3357">
        <ele>952</ele>
        <time>2026-08-19T05:31:28.566Z</time>
      </trkpt>
      <trkpt lat="45.90122" lon="6.33569">
        <ele>952</ele>
        <time>2026-08-19T05:31:29.566Z</time>
      </trkpt>
      <trkpt lat="45.90122" lon="6.33568">
        <ele>952</ele>
        <time>2026-08-19T05:31:30.566Z</time>
      </trkpt>
      <trkpt lat="45.90122" lon="6.33567">
        <ele>952</ele>
        <time>2026-08-19T05:31:31.566Z</time>
      </trkpt>
      <trkpt lat="45.90122" lon="6.33566">
        <ele>952</ele>
        <time>2026-08-19T05:31:32.566Z</time>
      </trkpt>
      <trkpt lat="45.90122" lon="6.33565">
        <ele>952</ele>
        <time>2026-08-19T05:31:33.566Z</time>
      </trkpt>
      <trkpt lat="45.90122" lon="6.33564">
        <ele>953</ele>
        <time>2026-08-19T05:31:34.566Z</time>
      </trkpt>
      <trkpt lat="45.90122" lon="6.33563">
        <ele>953</ele>
        <time>2026-08-19T05:31:35.566Z</time>
      </trkpt>
      <trkpt lat="45.90122" lon="6.33562">
        <ele>954</ele>
        <time>2026-08-19T05:31:36.566Z</time>
      </trkpt>
      <trkpt lat="45.90122" lon="6.33561">
        <ele>955</ele>
        <time>2026-08-19T05:31:37.566Z</time>
      </trkpt>
      <trkpt lat="45.90122" lon="6.3356">
        <ele>955</ele>
        <time>2026-08-19T05:31:38.566Z</time>
      </trkpt>
      <trkpt lat="45.90123" lon="6.33559">
        <ele>956</ele>
        <time>2026-08-19T05:31:39.566Z</time>
      </trkpt>
      <trkpt lat="45.90123" lon="6.33558">
        <ele>956</ele>
        <time>2026-08-19T05:31:40.566Z</time>
      </trkpt>
      <trkpt lat="45.90124" lon="6.33557">
        <ele>956</ele>
        <time>2026-08-19T05:31:41.566Z</time>
      </trkpt>
      <trkpt lat="45.90124" lon="6.33556">
        <ele>957</ele>
        <time>2026-08-19T05:31:42.566Z</time>
      </trkpt>
      <trkpt lat="45.90124" lon="6.33555">
        <ele>957</ele>
        <time>2026-08-19T05:31:43.566Z</time>
      </trkpt>
      <trkpt lat="45.90124" lon="6.33554">
        <ele>958</ele>
        <time>2026-08-19T05:31:44.566Z</time>
      </trkpt>
      <trkpt lat="45.90125" lon="6.33553">
        <ele>958</ele>
        <time>2026-08-19T05:31:45.566Z</time>
      </trkpt>
      <trkpt lat="45.90125" lon="6.33553">
        <ele>959</ele>
        <time>2026-08-19T05:31:46.566Z</time>
      </trkpt>
      <trkpt lat="45.90125" lon="6.33552">
        <ele>959</ele>
        <time>2026-08-19T05:31:47.566Z</time>
      </trkpt>
      <trkpt lat="45.90125" lon="6.33552">
        <ele>960</ele>
        <time>2026-08-19T05:31:48.566Z</time>
      </trkpt>
      <trkpt lat="45.90125" lon="6.33551">
        <ele>960</ele>
        <time>2026-08-19T05:31:49.566Z</time>
      </trkpt>
      <trkpt lat="45.90125" lon="6.33551">
        <ele>960</ele>
        <time>2026-08-19T05:31:50.566Z</time>
      </trkpt>
      <trkpt lat="45.90126" lon="6.3355">
        <ele>960</ele>
        <time>2026-08-19T05:31:51.566Z</time>
      </trkpt>
      <trkpt lat="45.90126" lon="6.33549">
        <ele>961</ele>
        <time>2026-08-19T05:31:52.566Z</time>
      </trkpt>
      <trkpt lat="45.90126" lon="6.33549">
        <ele>961</ele>
        <time>2026-08-19T05:31:53.566Z</time>
      </trkpt>
      <trkpt lat="45.90127" lon="6.3355">
        <ele>962</ele>
        <time>2026-08-19T05:31:54.566Z</time>
      </trkpt>
      <trkpt lat="45.90128" lon="6.3355">
        <ele>963</ele>
        <time>2026-08-19T05:31:55.566Z</time>
      </trkpt>
      <trkpt lat="45.90129" lon="6.3355">
        <ele>963</ele>
        <time>2026-08-19T05:31:56.566Z</time>
      </trkpt>
      <trkpt lat="45.9013" lon="6.3355">
        <ele>963</ele>
        <time>2026-08-19T05:31:57.566Z</time>
      </trkpt>
      <trkpt lat="45.90131" lon="6.3355">
        <ele>963</ele>
        <time>2026-08-19T05:31:58.566Z</time>
      </trkpt>
      <trkpt lat="45.90132" lon="6.3355">
        <ele>963</ele>
        <time>2026-08-19T05:31:59.566Z</time>
      </trkpt>
      <trkpt lat="45.90133" lon="6.3355">
        <ele>963</ele>
        <time>2026-08-19T05:32:00.566Z</time>
      </trkpt>
      <trkpt lat="45.90134" lon="6.33549">
        <ele>963</ele>
        <time>2026-08-19T05:32:01.566Z</time>
      </trkpt>
      <trkpt lat="45.90135" lon="6.33549">
        <ele>963</ele>
        <time>2026-08-19T05:32:02.566Z</time>
      </trkpt>
      <trkpt lat="45.90136" lon="6.33548">
        <ele>963</ele>
        <time>2026-08-19T05:32:03.566Z</time>
      </trkpt>
      <trkpt lat="45.90136" lon="6.33549">
        <ele>963</ele>
        <time>2026-08-19T05:32:04.566Z</time>
      </trkpt>
      <trkpt lat="45.90137" lon="6.33548">
        <ele>963</ele>
        <time>2026-08-19T05:32:05.566Z</time>
      </trkpt>
      <trkpt lat="45.90138" lon="6.33548">
        <ele>964</ele>
        <time>2026-08-19T05:32:06.566Z</time>
      </trkpt>
      <trkpt lat="45.90139" lon="6.33547">
        <ele>964</ele>
        <time>2026-08-19T05:32:07.566Z</time>
      </trkpt>
      <trkpt lat="45.90139" lon="6.33547">
        <ele>965</ele>
        <time>2026-08-19T05:32:08.566Z</time>
      </trkpt>
      <trkpt lat="45.9014" lon="6.33546">
        <ele>965</ele>
        <time>2026-08-19T05:32:09.566Z</time>
      </trkpt>
      <trkpt lat="45.9014" lon="6.33545">
        <ele>966</ele>
        <time>2026-08-19T05:32:10.566Z</time>
      </trkpt>
      <trkpt lat="45.90141" lon="6.33544">
        <ele>966</ele>
        <time>2026-08-19T05:32:11.566Z</time>
      </trkpt>
      <trkpt lat="45.90141" lon="6.33543">
        <ele>967</ele>
        <time>2026-08-19T05:32:12.566Z</time>
      </trkpt>
      <trkpt lat="45.90142" lon="6.33542">
        <ele>967</ele>
        <time>2026-08-19T05:32:13.566Z</time>
      </trkpt>
      <trkpt lat="45.90143" lon="6.33541">
        <ele>967</ele>
        <time>2026-08-19T05:32:14.566Z</time>
      </trkpt>
      <trkpt lat="45.90144" lon="6.33539">
        <ele>967</ele>
        <time>2026-08-19T05:32:15.566Z</time>
      </trkpt>
      <trkpt lat="45.90146" lon="6.33538">
        <ele>967</ele>
        <time>2026-08-19T05:32:16.566Z</time>
      </trkpt>
      <trkpt lat="45.90147" lon="6.33537">
        <ele>968</ele>
        <time>2026-08-19T05:32:17.566Z</time>
      </trkpt>
      <trkpt lat="45.90148" lon="6.33534">
        <ele>968</ele>
        <time>2026-08-19T05:32:18.566Z</time>
      </trkpt>
      <trkpt lat="45.90149" lon="6.33532">
        <ele>968</ele>
        <time>2026-08-19T05:32:19.566Z</time>
      </trkpt>
      <trkpt lat="45.9015" lon="6.3353">
        <ele>969</ele>
        <time>2026-08-19T05:32:20.566Z</time>
      </trkpt>
      <trkpt lat="45.9015" lon="6.33529">
        <ele>969</ele>
        <time>2026-08-19T05:32:21.566Z</time>
      </trkpt>
      <trkpt lat="45.90151" lon="6.33528">
        <ele>970</ele>
        <time>2026-08-19T05:32:22.566Z</time>
      </trkpt>
      <trkpt lat="45.90151" lon="6.33527">
        <ele>970</ele>
        <time>2026-08-19T05:32:23.566Z</time>
      </trkpt>
      <trkpt lat="45.90151" lon="6.33525">
        <ele>970</ele>
        <time>2026-08-19T05:32:24.566Z</time>
      </trkpt>
      <trkpt lat="45.90151" lon="6.33524">
        <ele>970</ele>
        <time>2026-08-19T05:32:25.566Z</time>
      </trkpt>
      <trkpt lat="45.90152" lon="6.33523">
        <ele>970</ele>
        <time>2026-08-19T05:32:26.566Z</time>
      </trkpt>
      <trkpt lat="45.90152" lon="6.33523">
        <ele>971</ele>
        <time>2026-08-19T05:32:27.566Z</time>
      </trkpt>
      <trkpt lat="45.90152" lon="6.33522">
        <ele>972</ele>
        <time>2026-08-19T05:32:28.566Z</time>
      </trkpt>
      <trkpt lat="45.90153" lon="6.33522">
        <ele>972</ele>
        <time>2026-08-19T05:32:29.566Z</time>
      </trkpt>
      <trkpt lat="45.90153" lon="6.33521">
        <ele>972</ele>
        <time>2026-08-19T05:32:30.566Z</time>
      </trkpt>
      <trkpt lat="45.90154" lon="6.33521">
        <ele>973</ele>
        <time>2026-08-19T05:32:31.566Z</time>
      </trkpt>
      <trkpt lat="45.90155" lon="6.3352">
        <ele>973</ele>
        <time>2026-08-19T05:32:32.566Z</time>
      </trkpt>
      <trkpt lat="45.90155" lon="6.3352">
        <ele>974</ele>
        <time>2026-08-19T05:32:33.566Z</time>
      </trkpt>
      <trkpt lat="45.90156" lon="6.33519">
        <ele>974</ele>
        <time>2026-08-19T05:32:34.566Z</time>
      </trkpt>
      <trkpt lat="45.90157" lon="6.3352">
        <ele>975</ele>
        <time>2026-08-19T05:32:35.566Z</time>
      </trkpt>
      <trkpt lat="45.90158" lon="6.3352">
        <ele>975</ele>
        <time>2026-08-19T05:32:36.566Z</time>
      </trkpt>
      <trkpt lat="45.90159" lon="6.33521">
        <ele>976</ele>
        <time>2026-08-19T05:32:37.566Z</time>
      </trkpt>
      <trkpt lat="45.9016" lon="6.33521">
        <ele>976</ele>
        <time>2026-08-19T05:32:38.566Z</time>
      </trkpt>
      <trkpt lat="45.9016" lon="6.33521">
        <ele>976</ele>
        <time>2026-08-19T05:32:39.566Z</time>
      </trkpt>
      <trkpt lat="45.90161" lon="6.33521">
        <ele>977</ele>
        <time>2026-08-19T05:32:40.566Z</time>
      </trkpt>
      <trkpt lat="45.90161" lon="6.3352">
        <ele>977</ele>
        <time>2026-08-19T05:32:41.566Z</time>
      </trkpt>
      <trkpt lat="45.90161" lon="6.3352">
        <ele>977</ele>
        <time>2026-08-19T05:32:42.566Z</time>
      </trkpt>
      <trkpt lat="45.90161" lon="6.33519">
        <ele>978</ele>
        <time>2026-08-19T05:32:43.566Z</time>
      </trkpt>
      <trkpt lat="45.90161" lon="6.33518">
        <ele>978</ele>
        <time>2026-08-19T05:32:44.566Z</time>
      </trkpt>
      <trkpt lat="45.90162" lon="6.33516">
        <ele>978</ele>
        <time>2026-08-19T05:32:45.566Z</time>
      </trkpt>
      <trkpt lat="45.90162" lon="6.33516">
        <ele>978</ele>
        <time>2026-08-19T05:32:46.566Z</time>
      </trkpt>
      <trkpt lat="45.90162" lon="6.33515">
        <ele>979</ele>
        <time>2026-08-19T05:32:47.566Z</time>
      </trkpt>
      <trkpt lat="45.90161" lon="6.33514">
        <ele>979</ele>
        <time>2026-08-19T05:32:48.566Z</time>
      </trkpt>
      <trkpt lat="45.90162" lon="6.33512">
        <ele>980</ele>
        <time>2026-08-19T05:32:49.566Z</time>
      </trkpt>
      <trkpt lat="45.90162" lon="6.33511">
        <ele>981</ele>
        <time>2026-08-19T05:32:50.566Z</time>
      </trkpt>
      <trkpt lat="45.90163" lon="6.33509">
        <ele>982</ele>
        <time>2026-08-19T05:32:51.566Z</time>
      </trkpt>
      <trkpt lat="45.90164" lon="6.33509">
        <ele>982</ele>
        <time>2026-08-19T05:32:52.566Z</time>
      </trkpt>
      <trkpt lat="45.90165" lon="6.33508">
        <ele>983</ele>
        <time>2026-08-19T05:32:53.566Z</time>
      </trkpt>
      <trkpt lat="45.90165" lon="6.33508">
        <ele>984</ele>
        <time>2026-08-19T05:32:54.566Z</time>
      </trkpt>
      <trkpt lat="45.90166" lon="6.33508">
        <ele>985</ele>
        <time>2026-08-19T05:32:55.566Z</time>
      </trkpt>
      <trkpt lat="45.90168" lon="6.33509">
        <ele>985</ele>
        <time>2026-08-19T05:32:56.566Z</time>
      </trkpt>
      <trkpt lat="45.90169" lon="6.3351">
        <ele>986</ele>
        <time>2026-08-19T05:32:57.566Z</time>
      </trkpt>
      <trkpt lat="45.9017" lon="6.33511">
        <ele>986</ele>
        <time>2026-08-19T05:32:58.566Z</time>
      </trkpt>
      <trkpt lat="45.90171" lon="6.33512">
        <ele>986</ele>
        <time>2026-08-19T05:32:59.566Z</time>
      </trkpt>
      <trkpt lat="45.90172" lon="6.33513">
        <ele>987</ele>
        <time>2026-08-19T05:33:00.566Z</time>
      </trkpt>
      <trkpt lat="45.90172" lon="6.33514">
        <ele>987</ele>
        <time>2026-08-19T05:33:01.566Z</time>
      </trkpt>
      <trkpt lat="45.90173" lon="6.33514">
        <ele>987</ele>
        <time>2026-08-19T05:33:02.566Z</time>
      </trkpt>
      <trkpt lat="45.90174" lon="6.33515">
        <ele>988</ele>
        <time>2026-08-19T05:33:03.566Z</time>
      </trkpt>
      <trkpt lat="45.90174" lon="6.33515">
        <ele>988</ele>
        <time>2026-08-19T05:33:04.566Z</time>
      </trkpt>
      <trkpt lat="45.90175" lon="6.33515">
        <ele>988</ele>
        <time>2026-08-19T05:33:05.566Z</time>
      </trkpt>
      <trkpt lat="45.90177" lon="6.33515">
        <ele>989</ele>
        <time>2026-08-19T05:33:06.566Z</time>
      </trkpt>
      <trkpt lat="45.90177" lon="6.33515">
        <ele>989</ele>
        <time>2026-08-19T05:33:07.566Z</time>
      </trkpt>
      <trkpt lat="45.90178" lon="6.33514">
        <ele>989</ele>
        <time>2026-08-19T05:33:08.566Z</time>
      </trkpt>
      <trkpt lat="45.90178" lon="6.33514">
        <ele>989</ele>
        <time>2026-08-19T05:33:09.566Z</time>
      </trkpt>
      <trkpt lat="45.90178" lon="6.33514">
        <ele>988</ele>
        <time>2026-08-19T05:33:10.566Z</time>
      </trkpt>
      <trkpt lat="45.90179" lon="6.33513">
        <ele>988</ele>
        <time>2026-08-19T05:33:11.566Z</time>
      </trkpt>
      <trkpt lat="45.90179" lon="6.33513">
        <ele>988</ele>
        <time>2026-08-19T05:33:12.566Z</time>
      </trkpt>
      <trkpt lat="45.90179" lon="6.33513">
        <ele>988</ele>
        <time>2026-08-19T05:33:13.566Z</time>
      </trkpt>
      <trkpt lat="45.9018" lon="6.33513">
        <ele>988</ele>
        <time>2026-08-19T05:33:14.566Z</time>
      </trkpt>
      <trkpt lat="45.90181" lon="6.33514">
        <ele>988</ele>
        <time>2026-08-19T05:33:15.566Z</time>
      </trkpt>
      <trkpt lat="45.90182" lon="6.33515">
        <ele>987</ele>
        <time>2026-08-19T05:33:16.566Z</time>
      </trkpt>
      <trkpt lat="45.90184" lon="6.33516">
        <ele>987</ele>
        <time>2026-08-19T05:33:17.566Z</time>
      </trkpt>
      <trkpt lat="45.90185" lon="6.33518">
        <ele>987</ele>
        <time>2026-08-19T05:33:18.566Z</time>
      </trkpt>
      <trkpt lat="45.90187" lon="6.3352">
        <ele>987</ele>
        <time>2026-08-19T05:33:19.566Z</time>
      </trkpt>
      <trkpt lat="45.90188" lon="6.33522">
        <ele>987</ele>
        <time>2026-08-19T05:33:20.566Z</time>
      </trkpt>
      <trkpt lat="45.90188" lon="6.33525">
        <ele>987</ele>
        <time>2026-08-19T05:33:21.566Z</time>
      </trkpt>
      <trkpt lat="45.90188" lon="6.33527">
        <ele>987</ele>
        <time>2026-08-19T05:33:22.566Z</time>
      </trkpt>
      <trkpt lat="45.90188" lon="6.3353">
        <ele>987</ele>
        <time>2026-08-19T05:33:23.566Z</time>
      </trkpt>
      <trkpt lat="45.90189" lon="6.33532">
        <ele>987</ele>
        <time>2026-08-19T05:33:24.566Z</time>
      </trkpt>
      <trkpt lat="45.90189" lon="6.33534">
        <ele>987</ele>
        <time>2026-08-19T05:33:25.566Z</time>
      </trkpt>
      <trkpt lat="45.90188" lon="6.33536">
        <ele>986</ele>
        <time>2026-08-19T05:33:26.566Z</time>
      </trkpt>
      <trkpt lat="45.90188" lon="6.33538">
        <ele>986</ele>
        <time>2026-08-19T05:33:27.566Z</time>
      </trkpt>
      <trkpt lat="45.90188" lon="6.33541">
        <ele>986</ele>
        <time>2026-08-19T05:33:28.566Z</time>
      </trkpt>
      <trkpt lat="45.90188" lon="6.33542">
        <ele>985</ele>
        <time>2026-08-19T05:33:29.566Z</time>
      </trkpt>
      <trkpt lat="45.90188" lon="6.33543">
        <ele>985</ele>
        <time>2026-08-19T05:33:30.566Z</time>
      </trkpt>
      <trkpt lat="45.90188" lon="6.33544">
        <ele>984</ele>
        <time>2026-08-19T05:33:31.566Z</time>
      </trkpt>
      <trkpt lat="45.90187" lon="6.33546">
        <ele>984</ele>
        <time>2026-08-19T05:33:32.566Z</time>
      </trkpt>
      <trkpt lat="45.90187" lon="6.33547">
        <ele>983</ele>
        <time>2026-08-19T05:33:33.566Z</time>
      </trkpt>
      <trkpt lat="45.90186" lon="6.33548">
        <ele>982</ele>
        <time>2026-08-19T05:33:34.566Z</time>
      </trkpt>
      <trkpt lat="45.90186" lon="6.33549">
        <ele>982</ele>
        <time>2026-08-19T05:33:35.566Z</time>
      </trkpt>
      <trkpt lat="45.90185" lon="6.33551">
        <ele>981</ele>
        <time>2026-08-19T05:33:36.566Z</time>
      </trkpt>
      <trkpt lat="45.90186" lon="6.33552">
        <ele>981</ele>
        <time>2026-08-19T05:33:37.566Z</time>
      </trkpt>
      <trkpt lat="45.90186" lon="6.33553">
        <ele>981</ele>
        <time>2026-08-19T05:33:38.566Z</time>
      </trkpt>
      <trkpt lat="45.90186" lon="6.33554">
        <ele>981</ele>
        <time>2026-08-19T05:33:39.566Z</time>
      </trkpt>
      <trkpt lat="45.90186" lon="6.33556">
        <ele>981</ele>
        <time>2026-08-19T05:33:40.566Z</time>
      </trkpt>
      <trkpt lat="45.90186" lon="6.33557">
        <ele>981</ele>
        <time>2026-08-19T05:33:41.566Z</time>
      </trkpt>
      <trkpt lat="45.90187" lon="6.33558">
        <ele>981</ele>
        <time>2026-08-19T05:33:42.566Z</time>
      </trkpt>
      <trkpt lat="45.90188" lon="6.33559">
        <ele>981</ele>
        <time>2026-08-19T05:33:43.566Z</time>
      </trkpt>
      <trkpt lat="45.90189" lon="6.33559">
        <ele>981</ele>
        <time>2026-08-19T05:33:44.566Z</time>
      </trkpt>
      <trkpt lat="45.9019" lon="6.33561">
        <ele>981</ele>
        <time>2026-08-19T05:33:45.566Z</time>
      </trkpt>
      <trkpt lat="45.90191" lon="6.33562">
        <ele>981</ele>
        <time>2026-08-19T05:33:46.566Z</time>
      </trkpt>
      <trkpt lat="45.90191" lon="6.33564">
        <ele>981</ele>
        <time>2026-08-19T05:33:47.566Z</time>
      </trkpt>
      <trkpt lat="45.90191" lon="6.33565">
        <ele>981</ele>
        <time>2026-08-19T05:33:48.566Z</time>
      </trkpt>
      <trkpt lat="45.90191" lon="6.33565">
        <ele>982</ele>
        <time>2026-08-19T05:33:49.566Z</time>
      </trkpt>
      <trkpt lat="45.90191" lon="6.33565">
        <ele>982</ele>
        <time>2026-08-19T05:33:50.566Z</time>
      </trkpt>
      <trkpt lat="45.90191" lon="6.33565">
        <ele>982</ele>
        <time>2026-08-19T05:33:51.566Z</time>
      </trkpt>
      <trkpt lat="45.90192" lon="6.33566">
        <ele>982</ele>
        <time>2026-08-19T05:33:52.566Z</time>
      </trkpt>
      <trkpt lat="45.90192" lon="6.33566">
        <ele>982</ele>
        <time>2026-08-19T05:33:53.566Z</time>
      </trkpt>
      <trkpt lat="45.90192" lon="6.33566">
        <ele>983</ele>
        <time>2026-08-19T05:33:54.566Z</time>
      </trkpt>
      <trkpt lat="45.90193" lon="6.33567">
        <ele>983</ele>
        <time>2026-08-19T05:33:55.566Z</time>
      </trkpt>
      <trkpt lat="45.90193" lon="6.33568">
        <ele>983</ele>
        <time>2026-08-19T05:33:56.566Z</time>
      </trkpt>
      <trkpt lat="45.90193" lon="6.33569">
        <ele>984</ele>
        <time>2026-08-19T05:33:57.566Z</time>
      </trkpt>
      <trkpt lat="45.90194" lon="6.33569">
        <ele>984</ele>
        <time>2026-08-19T05:33:58.566Z</time>
      </trkpt>
      <trkpt lat="45.90194" lon="6.3357">
        <ele>984</ele>
        <time>2026-08-19T05:33:59.566Z</time>
      </trkpt>
      <trkpt lat="45.90193" lon="6.3357">
        <ele>985</ele>
        <time>2026-08-19T05:34:00.566Z</time>
      </trkpt>
      <trkpt lat="45.90194" lon="6.33571">
        <ele>985</ele>
        <time>2026-08-19T05:34:01.566Z</time>
      </trkpt>
      <trkpt lat="45.90194" lon="6.33572">
        <ele>985</ele>
        <time>2026-08-19T05:34:02.566Z</time>
      </trkpt>
      <trkpt lat="45.90194" lon="6.33574">
        <ele>985</ele>
        <time>2026-08-19T05:34:03.566Z</time>
      </trkpt>
      <trkpt lat="45.90195" lon="6.33575">
        <ele>986</ele>
        <time>2026-08-19T05:34:04.566Z</time>
      </trkpt>
      <trkpt lat="45.90196" lon="6.33576">
        <ele>986</ele>
        <time>2026-08-19T05:34:05.566Z</time>
      </trkpt>
      <trkpt lat="45.90197" lon="6.33577">
        <ele>986</ele>
        <time>2026-08-19T05:34:06.566Z</time>
      </trkpt>
      <trkpt lat="45.90197" lon="6.33577">
        <ele>986</ele>
        <time>2026-08-19T05:34:07.566Z</time>
      </trkpt>
      <trkpt lat="45.90197" lon="6.33577">
        <ele>987</ele>
        <time>2026-08-19T05:34:08.566Z</time>
      </trkpt>
      <trkpt lat="45.90197" lon="6.33576">
        <ele>987</ele>
        <time>2026-08-19T05:34:09.566Z</time>
      </trkpt>
      <trkpt lat="45.90198" lon="6.33577">
        <ele>987</ele>
        <time>2026-08-19T05:34:10.566Z</time>
      </trkpt>
      <trkpt lat="45.90199" lon="6.33577">
        <ele>988</ele>
        <time>2026-08-19T05:34:11.566Z</time>
      </trkpt>
      <trkpt lat="45.90199" lon="6.33577">
        <ele>988</ele>
        <time>2026-08-19T05:34:12.566Z</time>
      </trkpt>
      <trkpt lat="45.902" lon="6.33577">
        <ele>988</ele>
        <time>2026-08-19T05:34:13.566Z</time>
      </trkpt>
      <trkpt lat="45.90201" lon="6.33578">
        <ele>989</ele>
        <time>2026-08-19T05:34:14.566Z</time>
      </trkpt>
      <trkpt lat="45.90203" lon="6.33579">
        <ele>989</ele>
        <time>2026-08-19T05:34:15.566Z</time>
      </trkpt>
      <trkpt lat="45.90204" lon="6.3358">
        <ele>989</ele>
        <time>2026-08-19T05:34:16.566Z</time>
      </trkpt>
      <trkpt lat="45.90206" lon="6.33582">
        <ele>989</ele>
        <time>2026-08-19T05:34:17.566Z</time>
      </trkpt>
      <trkpt lat="45.90207" lon="6.33583">
        <ele>990</ele>
        <time>2026-08-19T05:34:18.566Z</time>
      </trkpt>
      <trkpt lat="45.90209" lon="6.33584">
        <ele>990</ele>
        <time>2026-08-19T05:34:19.566Z</time>
      </trkpt>
      <trkpt lat="45.9021" lon="6.33584">
        <ele>990</ele>
        <time>2026-08-19T05:34:20.566Z</time>
      </trkpt>
      <trkpt lat="45.90211" lon="6.33585">
        <ele>990</ele>
        <time>2026-08-19T05:34:21.566Z</time>
      </trkpt>
      <trkpt lat="45.90212" lon="6.33587">
        <ele>990</ele>
        <time>2026-08-19T05:34:22.566Z</time>
      </trkpt>
      <trkpt lat="45.90212" lon="6.33587">
        <ele>991</ele>
        <time>2026-08-19T05:34:23.566Z</time>
      </trkpt>
      <trkpt lat="45.90213" lon="6.33588">
        <ele>991</ele>
        <time>2026-08-19T05:34:24.566Z</time>
      </trkpt>
      <trkpt lat="45.90215" lon="6.33589">
        <ele>991</ele>
        <time>2026-08-19T05:34:25.566Z</time>
      </trkpt>
      <trkpt lat="45.90216" lon="6.33591">
        <ele>991</ele>
        <time>2026-08-19T05:34:26.566Z</time>
      </trkpt>
      <trkpt lat="45.90217" lon="6.33592">
        <ele>991</ele>
        <time>2026-08-19T05:34:27.566Z</time>
      </trkpt>
      <trkpt lat="45.90218" lon="6.33594">
        <ele>991</ele>
        <time>2026-08-19T05:34:28.566Z</time>
      </trkpt>
      <trkpt lat="45.90218" lon="6.33596">
        <ele>991</ele>
        <time>2026-08-19T05:34:29.566Z</time>
      </trkpt>
      <trkpt lat="45.90219" lon="6.33597">
        <ele>991</ele>
        <time>2026-08-19T05:34:30.566Z</time>
      </trkpt>
      <trkpt lat="45.90221" lon="6.33599">
        <ele>991</ele>
        <time>2026-08-19T05:34:31.566Z</time>
      </trkpt>
      <trkpt lat="45.90222" lon="6.336">
        <ele>991</ele>
        <time>2026-08-19T05:34:32.566Z</time>
      </trkpt>
      <trkpt lat="45.90223" lon="6.33602">
        <ele>991</ele>
        <time>2026-08-19T05:34:33.566Z</time>
      </trkpt>
      <trkpt lat="45.90223" lon="6.33604">
        <ele>991</ele>
        <time>2026-08-19T05:34:34.566Z</time>
      </trkpt>
      <trkpt lat="45.90224" lon="6.33606">
        <ele>991</ele>
        <time>2026-08-19T05:34:35.566Z</time>
      </trkpt>
      <trkpt lat="45.90224" lon="6.33607">
        <ele>991</ele>
        <time>2026-08-19T05:34:36.566Z</time>
      </trkpt>
      <trkpt lat="45.90225" lon="6.33607">
        <ele>992</ele>
        <time>2026-08-19T05:34:37.566Z</time>
      </trkpt>
      <trkpt lat="45.90225" lon="6.33608">
        <ele>992</ele>
        <time>2026-08-19T05:34:38.566Z</time>
      </trkpt>
      <trkpt lat="45.90225" lon="6.33607">
        <ele>993</ele>
        <time>2026-08-19T05:34:39.566Z</time>
      </trkpt>
      <trkpt lat="45.90227" lon="6.33608">
        <ele>993</ele>
        <time>2026-08-19T05:34:40.566Z</time>
      </trkpt>
      <trkpt lat="45.90227" lon="6.33609">
        <ele>993</ele>
        <time>2026-08-19T05:34:41.566Z</time>
      </trkpt>
      <trkpt lat="45.90229" lon="6.3361">
        <ele>993</ele>
        <time>2026-08-19T05:34:42.566Z</time>
      </trkpt>
      <trkpt lat="45.9023" lon="6.33612">
        <ele>993</ele>
        <time>2026-08-19T05:34:43.566Z</time>
      </trkpt>
      <trkpt lat="45.90231" lon="6.33613">
        <ele>994</ele>
        <time>2026-08-19T05:34:44.566Z</time>
      </trkpt>
      <trkpt lat="45.9023" lon="6.33613">
        <ele>994</ele>
        <time>2026-08-19T05:34:45.566Z</time>
      </trkpt>
      <trkpt lat="45.9023" lon="6.33613">
        <ele>994</ele>
        <time>2026-08-19T05:34:46.566Z</time>
      </trkpt>
      <trkpt lat="45.9023" lon="6.33613">
        <ele>994</ele>
        <time>2026-08-19T05:34:47.566Z</time>
      </trkpt>
      <trkpt lat="45.9023" lon="6.33614">
        <ele>995</ele>
        <time>2026-08-19T05:34:48.566Z</time>
      </trkpt>
      <trkpt lat="45.9023" lon="6.33614">
        <ele>995</ele>
        <time>2026-08-19T05:34:49.566Z</time>
      </trkpt>
      <trkpt lat="45.90231" lon="6.33614">
        <ele>995</ele>
        <time>2026-08-19T05:34:50.566Z</time>
      </trkpt>
      <trkpt lat="45.90231" lon="6.33613">
        <ele>995</ele>
        <time>2026-08-19T05:34:51.566Z</time>
      </trkpt>
      <trkpt lat="45.90231" lon="6.33613">
        <ele>995</ele>
        <time>2026-08-19T05:34:52.566Z</time>
      </trkpt>
      <trkpt lat="45.90232" lon="6.33613">
        <ele>996</ele>
        <time>2026-08-19T05:34:53.566Z</time>
      </trkpt>
      <trkpt lat="45.90232" lon="6.33614">
        <ele>996</ele>
        <time>2026-08-19T05:34:54.566Z</time>
      </trkpt>
      <trkpt lat="45.90233" lon="6.33614">
        <ele>996</ele>
        <time>2026-08-19T05:34:55.566Z</time>
      </trkpt>
      <trkpt lat="45.90233" lon="6.33615">
        <ele>996</ele>
        <time>2026-08-19T05:34:56.566Z</time>
      </trkpt>
      <trkpt lat="45.90234" lon="6.33616">
        <ele>996</ele>
        <time>2026-08-19T05:34:57.566Z</time>
      </trkpt>
      <trkpt lat="45.90234" lon="6.33617">
        <ele>996</ele>
        <time>2026-08-19T05:34:58.566Z</time>
      </trkpt>
      <trkpt lat="45.90235" lon="6.33618">
        <ele>997</ele>
        <time>2026-08-19T05:34:59.566Z</time>
      </trkpt>
      <trkpt lat="45.90236" lon="6.33619">
        <ele>997</ele>
        <time>2026-08-19T05:35:00.566Z</time>
      </trkpt>
      <trkpt lat="45.90237" lon="6.33619">
        <ele>997</ele>
        <time>2026-08-19T05:35:01.566Z</time>
      </trkpt>
      <trkpt lat="45.90238" lon="6.3362">
        <ele>998</ele>
        <time>2026-08-19T05:35:02.566Z</time>
      </trkpt>
      <trkpt lat="45.90239" lon="6.33621">
        <ele>998</ele>
        <time>2026-08-19T05:35:03.566Z</time>
      </trkpt>
      <trkpt lat="45.9024" lon="6.33622">
        <ele>998</ele>
        <time>2026-08-19T05:35:04.566Z</time>
      </trkpt>
      <trkpt lat="45.90241" lon="6.33622">
        <ele>999</ele>
        <time>2026-08-19T05:35:05.566Z</time>
      </trkpt>
      <trkpt lat="45.90242" lon="6.33623">
        <ele>999</ele>
        <time>2026-08-19T05:35:06.566Z</time>
      </trkpt>
      <trkpt lat="45.90243" lon="6.33623">
        <ele>1000</ele>
        <time>2026-08-19T05:35:07.566Z</time>
      </trkpt>
      <trkpt lat="45.90243" lon="6.33625">
        <ele>1000</ele>
        <time>2026-08-19T05:35:08.566Z</time>
      </trkpt>
      <trkpt lat="45.90245" lon="6.33626">
        <ele>1001</ele>
        <time>2026-08-19T05:35:09.566Z</time>
      </trkpt>
      <trkpt lat="45.90246" lon="6.33626">
        <ele>1001</ele>
        <time>2026-08-19T05:35:10.566Z</time>
      </trkpt>
      <trkpt lat="45.90246" lon="6.33627">
        <ele>1001</ele>
        <time>2026-08-19T05:35:11.566Z</time>
      </trkpt>
      <trkpt lat="45.90247" lon="6.33626">
        <ele>1002</ele>
        <time>2026-08-19T05:35:12.566Z</time>
      </trkpt>
      <trkpt lat="45.90247" lon="6.33627">
        <ele>1002</ele>
        <time>2026-08-19T05:35:13.566Z</time>
      </trkpt>
      <trkpt lat="45.90248" lon="6.33627">
        <ele>1003</ele>
        <time>2026-08-19T05:35:14.566Z</time>
      </trkpt>
      <trkpt lat="45.90248" lon="6.33628">
        <ele>1003</ele>
        <time>2026-08-19T05:35:15.566Z</time>
      </trkpt>
      <trkpt lat="45.90249" lon="6.33629">
        <ele>1003</ele>
        <time>2026-08-19T05:35:16.566Z</time>
      </trkpt>
      <trkpt lat="45.90249" lon="6.33629">
        <ele>1004</ele>
        <time>2026-08-19T05:35:17.566Z</time>
      </trkpt>
      <trkpt lat="45.9025" lon="6.33629">
        <ele>1004</ele>
        <time>2026-08-19T05:35:18.566Z</time>
      </trkpt>
      <trkpt lat="45.9025" lon="6.33629">
        <ele>1005</ele>
        <time>2026-08-19T05:35:19.566Z</time>
      </trkpt>
      <trkpt lat="45.9025" lon="6.33628">
        <ele>1005</ele>
        <time>2026-08-19T05:35:20.566Z</time>
      </trkpt>
      <trkpt lat="45.90251" lon="6.33628">
        <ele>1005</ele>
        <time>2026-08-19T05:35:21.566Z</time>
      </trkpt>
      <trkpt lat="45.90252" lon="6.33627">
        <ele>1005</ele>
        <time>2026-08-19T05:35:22.566Z</time>
      </trkpt>
      <trkpt lat="45.90252" lon="6.33627">
        <ele>1005</ele>
        <time>2026-08-19T05:35:23.566Z</time>
      </trkpt>
      <trkpt lat="45.90253" lon="6.33628">
        <ele>1005</ele>
        <time>2026-08-19T05:35:24.566Z</time>
      </trkpt>
      <trkpt lat="45.90254" lon="6.33628">
        <ele>1005</ele>
        <time>2026-08-19T05:35:25.566Z</time>
      </trkpt>
      <trkpt lat="45.90254" lon="6.33629">
        <ele>1005</ele>
        <time>2026-08-19T05:35:26.566Z</time>
      </trkpt>
      <trkpt lat="45.90254" lon="6.33629">
        <ele>1005</ele>
        <time>2026-08-19T05:35:27.566Z</time>
      </trkpt>
      <trkpt lat="45.90255" lon="6.33629">
        <ele>1005</ele>
        <time>2026-08-19T05:35:28.566Z</time>
      </trkpt>
      <trkpt lat="45.90255" lon="6.33629">
        <ele>1005</ele>
        <time>2026-08-19T05:35:29.566Z</time>
      </trkpt>
      <trkpt lat="45.90256" lon="6.33629">
        <ele>1005</ele>
        <time>2026-08-19T05:35:30.566Z</time>
      </trkpt>
      <trkpt lat="45.90257" lon="6.33629">
        <ele>1005</ele>
        <time>2026-08-19T05:35:31.566Z</time>
      </trkpt>
      <trkpt lat="45.90257" lon="6.3363">
        <ele>1005</ele>
        <time>2026-08-19T05:35:32.566Z</time>
      </trkpt>
      <trkpt lat="45.90258" lon="6.33629">
        <ele>1005</ele>
        <time>2026-08-19T05:35:33.566Z</time>
      </trkpt>
      <trkpt lat="45.90258" lon="6.33629">
        <ele>1005</ele>
        <time>2026-08-19T05:35:34.566Z</time>
      </trkpt>
      <trkpt lat="45.90259" lon="6.3363">
        <ele>1005</ele>
        <time>2026-08-19T05:35:35.566Z</time>
      </trkpt>
      <trkpt lat="45.9026" lon="6.3363">
        <ele>1006</ele>
        <time>2026-08-19T05:35:36.566Z</time>
      </trkpt>
      <trkpt lat="45.90261" lon="6.33631">
        <ele>1006</ele>
        <time>2026-08-19T05:35:37.566Z</time>
      </trkpt>
      <trkpt lat="45.90262" lon="6.33631">
        <ele>1006</ele>
        <time>2026-08-19T05:35:38.566Z</time>
      </trkpt>
      <trkpt lat="45.90263" lon="6.33632">
        <ele>1006</ele>
        <time>2026-08-19T05:35:39.566Z</time>
      </trkpt>
      <trkpt lat="45.90263" lon="6.33632">
        <ele>1007</ele>
        <time>2026-08-19T05:35:40.566Z</time>
      </trkpt>
      <trkpt lat="45.90264" lon="6.33632">
        <ele>1007</ele>
        <time>2026-08-19T05:35:41.566Z</time>
      </trkpt>
      <trkpt lat="45.90264" lon="6.33632">
        <ele>1007</ele>
        <time>2026-08-19T05:35:42.566Z</time>
      </trkpt>
      <trkpt lat="45.90265" lon="6.33631">
        <ele>1008</ele>
        <time>2026-08-19T05:35:43.566Z</time>
      </trkpt>
      <trkpt lat="45.90265" lon="6.33631">
        <ele>1008</ele>
        <time>2026-08-19T05:35:44.566Z</time>
      </trkpt>
      <trkpt lat="45.90266" lon="6.33631">
        <ele>1008</ele>
        <time>2026-08-19T05:35:45.566Z</time>
      </trkpt>
      <trkpt lat="45.90266" lon="6.33631">
        <ele>1008</ele>
        <time>2026-08-19T05:35:46.566Z</time>
      </trkpt>
      <trkpt lat="45.90267" lon="6.33631">
        <ele>1009</ele>
        <time>2026-08-19T05:35:47.566Z</time>
      </trkpt>
      <trkpt lat="45.90268" lon="6.3363">
        <ele>1009</ele>
        <time>2026-08-19T05:35:48.566Z</time>
      </trkpt>
      <trkpt lat="45.90268" lon="6.3363">
        <ele>1009</ele>
        <time>2026-08-19T05:35:49.566Z</time>
      </trkpt>
      <trkpt lat="45.90268" lon="6.33629">
        <ele>1010</ele>
        <time>2026-08-19T05:35:50.566Z</time>
      </trkpt>
      <trkpt lat="45.90269" lon="6.33629">
        <ele>1010</ele>
        <time>2026-08-19T05:35:51.566Z</time>
      </trkpt>
      <trkpt lat="45.90269" lon="6.33629">
        <ele>1010</ele>
        <time>2026-08-19T05:35:52.566Z</time>
      </trkpt>
      <trkpt lat="45.9027" lon="6.33629">
        <ele>1010</ele>
        <time>2026-08-19T05:35:53.566Z</time>
      </trkpt>
      <trkpt lat="45.90271" lon="6.33629">
        <ele>1010</ele>
        <time>2026-08-19T05:35:54.566Z</time>
      </trkpt>
      <trkpt lat="45.90271" lon="6.33629">
        <ele>1010</ele>
        <time>2026-08-19T05:35:55.566Z</time>
      </trkpt>
      <trkpt lat="45.90271" lon="6.33629">
        <ele>1009</ele>
        <time>2026-08-19T05:35:56.566Z</time>
      </trkpt>
      <trkpt lat="45.90271" lon="6.33628">
        <ele>1009</ele>
        <time>2026-08-19T05:35:57.566Z</time>
      </trkpt>
      <trkpt lat="45.90272" lon="6.33628">
        <ele>1009</ele>
        <time>2026-08-19T05:35:58.566Z</time>
      </trkpt>
      <trkpt lat="45.90272" lon="6.33628">
        <ele>1009</ele>
        <time>2026-08-19T05:35:59.566Z</time>
      </trkpt>
      <trkpt lat="45.90272" lon="6.33627">
        <ele>1009</ele>
        <time>2026-08-19T05:36:00.566Z</time>
      </trkpt>
      <trkpt lat="45.90272" lon="6.33627">
        <ele>1010</ele>
        <time>2026-08-19T05:36:01.566Z</time>
      </trkpt>
      <trkpt lat="45.90272" lon="6.33626">
        <ele>1010</ele>
        <time>2026-08-19T05:36:02.566Z</time>
      </trkpt>
      <trkpt lat="45.90272" lon="6.33626">
        <ele>1010</ele>
        <time>2026-08-19T05:36:03.566Z</time>
      </trkpt>
      <trkpt lat="45.90272" lon="6.33625">
        <ele>1010</ele>
        <time>2026-08-19T05:36:04.566Z</time>
      </trkpt>
      <trkpt lat="45.90272" lon="6.33624">
        <ele>1010</ele>
        <time>2026-08-19T05:36:05.566Z</time>
      </trkpt>
      <trkpt lat="45.90272" lon="6.33624">
        <ele>1010</ele>
        <time>2026-08-19T05:36:06.566Z</time>
      </trkpt>
      <trkpt lat="45.90272" lon="6.33623">
        <ele>1011</ele>
        <time>2026-08-19T05:36:07.566Z</time>
      </trkpt>
      <trkpt lat="45.90271" lon="6.33624">
        <ele>1011</ele>
        <time>2026-08-19T05:36:08.566Z</time>
      </trkpt>
      <trkpt lat="45.90271" lon="6.33623">
        <ele>1012</ele>
        <time>2026-08-19T05:36:09.566Z</time>
      </trkpt>
      <trkpt lat="45.90271" lon="6.33623">
        <ele>1012</ele>
        <time>2026-08-19T05:36:10.566Z</time>
      </trkpt>
      <trkpt lat="45.90271" lon="6.33622">
        <ele>1013</ele>
        <time>2026-08-19T05:36:11.566Z</time>
      </trkpt>
      <trkpt lat="45.90271" lon="6.33622">
        <ele>1013</ele>
        <time>2026-08-19T05:36:12.566Z</time>
      </trkpt>
      <trkpt lat="45.9027" lon="6.33622">
        <ele>1014</ele>
        <time>2026-08-19T05:36:13.566Z</time>
      </trkpt>
      <trkpt lat="45.9027" lon="6.33621">
        <ele>1015</ele>
        <time>2026-08-19T05:36:14.566Z</time>
      </trkpt>
      <trkpt lat="45.90269" lon="6.3362">
        <ele>1015</ele>
        <time>2026-08-19T05:36:15.566Z</time>
      </trkpt>
      <trkpt lat="45.90269" lon="6.3362">
        <ele>1016</ele>
        <time>2026-08-19T05:36:16.566Z</time>
      </trkpt>
      <trkpt lat="45.90269" lon="6.33619">
        <ele>1016</ele>
        <time>2026-08-19T05:36:17.566Z</time>
      </trkpt>
      <trkpt lat="45.90268" lon="6.3362">
        <ele>1017</ele>
        <time>2026-08-19T05:36:18.566Z</time>
      </trkpt>
      <trkpt lat="45.90268" lon="6.3362">
        <ele>1018</ele>
        <time>2026-08-19T05:36:19.566Z</time>
      </trkpt>
      <trkpt lat="45.90267" lon="6.3362">
        <ele>1019</ele>
        <time>2026-08-19T05:36:20.566Z</time>
      </trkpt>
      <trkpt lat="45.90266" lon="6.33619">
        <ele>1020</ele>
        <time>2026-08-19T05:36:21.566Z</time>
      </trkpt>
      <trkpt lat="45.90265" lon="6.33619">
        <ele>1021</ele>
        <time>2026-08-19T05:36:22.566Z</time>
      </trkpt>
      <trkpt lat="45.90264" lon="6.33618">
        <ele>1022</ele>
        <time>2026-08-19T05:36:23.566Z</time>
      </trkpt>
      <trkpt lat="45.90264" lon="6.33617">
        <ele>1022</ele>
        <time>2026-08-19T05:36:24.566Z</time>
      </trkpt>
      <trkpt lat="45.90264" lon="6.33615">
        <ele>1022</ele>
        <time>2026-08-19T05:36:25.566Z</time>
      </trkpt>
      <trkpt lat="45.90264" lon="6.33615">
        <ele>1023</ele>
        <time>2026-08-19T05:36:26.566Z</time>
      </trkpt>
      <trkpt lat="45.90263" lon="6.33613">
        <ele>1023</ele>
        <time>2026-08-19T05:36:27.566Z</time>
      </trkpt>
      <trkpt lat="45.90263" lon="6.33612">
        <ele>1023</ele>
        <time>2026-08-19T05:36:28.566Z</time>
      </trkpt>
      <trkpt lat="45.90263" lon="6.3361">
        <ele>1023</ele>
        <time>2026-08-19T05:36:29.566Z</time>
      </trkpt>
      <trkpt lat="45.90263" lon="6.3361">
        <ele>1023</ele>
        <time>2026-08-19T05:36:30.566Z</time>
      </trkpt>
      <trkpt lat="45.90264" lon="6.33609">
        <ele>1024</ele>
        <time>2026-08-19T05:36:31.566Z</time>
      </trkpt>
      <trkpt lat="45.90264" lon="6.33608">
        <ele>1024</ele>
        <time>2026-08-19T05:36:32.566Z</time>
      </trkpt>
      <trkpt lat="45.90264" lon="6.33608">
        <ele>1024</ele>
        <time>2026-08-19T05:36:33.566Z</time>
      </trkpt>
      <trkpt lat="45.90265" lon="6.33608">
        <ele>1024</ele>
        <time>2026-08-19T05:36:34.566Z</time>
      </trkpt>
      <trkpt lat="45.90265" lon="6.33608">
        <ele>1024</ele>
        <time>2026-08-19T05:36:35.566Z</time>
      </trkpt>
      <trkpt lat="45.90265" lon="6.33608">
        <ele>1025</ele>
        <time>2026-08-19T05:36:36.566Z</time>
      </trkpt>
      <trkpt lat="45.90265" lon="6.33607">
        <ele>1024</ele>
        <time>2026-08-19T05:36:37.567Z</time>
      </trkpt>
      <trkpt lat="45.90266" lon="6.33607">
        <ele>1024</ele>
        <time>2026-08-19T05:36:38.566Z</time>
      </trkpt>
      <trkpt lat="45.90267" lon="6.33606">
        <ele>1024</ele>
        <time>2026-08-19T05:36:39.566Z</time>
      </trkpt>
      <trkpt lat="45.90268" lon="6.33606">
        <ele>1024</ele>
        <time>2026-08-19T05:36:40.566Z</time>
      </trkpt>
      <trkpt lat="45.90269" lon="6.33605">
        <ele>1024</ele>
        <time>2026-08-19T05:36:41.566Z</time>
      </trkpt>
      <trkpt lat="45.9027" lon="6.33605">
        <ele>1024</ele>
        <time>2026-08-19T05:36:42.566Z</time>
      </trkpt>
      <trkpt lat="45.9027" lon="6.33604">
        <ele>1024</ele>
        <time>2026-08-19T05:36:43.566Z</time>
      </trkpt>
      <trkpt lat="45.9027" lon="6.33605">
        <ele>1024</ele>
        <time>2026-08-19T05:36:44.566Z</time>
      </trkpt>
      <trkpt lat="45.90271" lon="6.33605">
        <ele>1023</ele>
        <time>2026-08-19T05:36:45.566Z</time>
      </trkpt>
      <trkpt lat="45.90272" lon="6.33605">
        <ele>1023</ele>
        <time>2026-08-19T05:36:46.566Z</time>
      </trkpt>
      <trkpt lat="45.90273" lon="6.33606">
        <ele>1023</ele>
        <time>2026-08-19T05:36:47.566Z</time>
      </trkpt>
      <trkpt lat="45.90274" lon="6.33605">
        <ele>1023</ele>
        <time>2026-08-19T05:36:48.566Z</time>
      </trkpt>
      <trkpt lat="45.90274" lon="6.33605">
        <ele>1022</ele>
        <time>2026-08-19T05:36:49.566Z</time>
      </trkpt>
      <trkpt lat="45.90274" lon="6.33605">
        <ele>1022</ele>
        <time>2026-08-19T05:36:50.566Z</time>
      </trkpt>
      <trkpt lat="45.90275" lon="6.33605">
        <ele>1022</ele>
        <time>2026-08-19T05:36:51.566Z</time>
      </trkpt>
      <trkpt lat="45.90275" lon="6.33605">
        <ele>1023</ele>
        <time>2026-08-19T05:36:52.566Z</time>
      </trkpt>
      <trkpt lat="45.90275" lon="6.33605">
        <ele>1023</ele>
        <time>2026-08-19T05:36:53.566Z</time>
      </trkpt>
      <trkpt lat="45.90276" lon="6.33605">
        <ele>1023</ele>
        <time>2026-08-19T05:36:54.566Z</time>
      </trkpt>
      <trkpt lat="45.90277" lon="6.33605">
        <ele>1023</ele>
        <time>2026-08-19T05:36:55.566Z</time>
      </trkpt>
      <trkpt lat="45.90278" lon="6.33605">
        <ele>1023</ele>
        <time>2026-08-19T05:36:56.566Z</time>
      </trkpt>
      <trkpt lat="45.9028" lon="6.33605">
        <ele>1023</ele>
        <time>2026-08-19T05:36:57.567Z</time>
      </trkpt>
      <trkpt lat="45.90281" lon="6.33606">
        <ele>1024</ele>
        <time>2026-08-19T05:36:58.566Z</time>
      </trkpt>
      <trkpt lat="45.90282" lon="6.33606">
        <ele>1024</ele>
        <time>2026-08-19T05:36:59.566Z</time>
      </trkpt>
      <trkpt lat="45.90283" lon="6.33606">
        <ele>1025</ele>
        <time>2026-08-19T05:37:00.566Z</time>
      </trkpt>
      <trkpt lat="45.90284" lon="6.33607">
        <ele>1025</ele>
        <time>2026-08-19T05:37:01.566Z</time>
      </trkpt>
      <trkpt lat="45.90284" lon="6.33607">
        <ele>1026</ele>
        <time>2026-08-19T05:37:02.566Z</time>
      </trkpt>
      <trkpt lat="45.90284" lon="6.33607">
        <ele>1026</ele>
        <time>2026-08-19T05:37:03.566Z</time>
      </trkpt>
      <trkpt lat="45.90284" lon="6.33607">
        <ele>1026</ele>
        <time>2026-08-19T05:37:04.566Z</time>
      </trkpt>
      <trkpt lat="45.90285" lon="6.33607">
        <ele>1027</ele>
        <time>2026-08-19T05:37:05.566Z</time>
      </trkpt>
      <trkpt lat="45.90286" lon="6.33607">
        <ele>1027</ele>
        <time>2026-08-19T05:37:06.566Z</time>
      </trkpt>
      <trkpt lat="45.90286" lon="6.33607">
        <ele>1027</ele>
        <time>2026-08-19T05:37:07.566Z</time>
      </trkpt>
      <trkpt lat="45.90287" lon="6.33607">
        <ele>1027</ele>
        <time>2026-08-19T05:37:08.566Z</time>
      </trkpt>
      <trkpt lat="45.90288" lon="6.33608">
        <ele>1028</ele>
        <time>2026-08-19T05:37:09.566Z</time>
      </trkpt>
      <trkpt lat="45.90289" lon="6.33609">
        <ele>1028</ele>
        <time>2026-08-19T05:37:10.566Z</time>
      </trkpt>
      <trkpt lat="45.9029" lon="6.3361">
        <ele>1028</ele>
        <time>2026-08-19T05:37:11.566Z</time>
      </trkpt>
      <trkpt lat="45.90291" lon="6.3361">
        <ele>1028</ele>
        <time>2026-08-19T05:37:12.566Z</time>
      </trkpt>
      <trkpt lat="45.90292" lon="6.33611">
        <ele>1028</ele>
        <time>2026-08-19T05:37:13.566Z</time>
      </trkpt>
      <trkpt lat="45.90294" lon="6.33612">
        <ele>1028</ele>
        <time>2026-08-19T05:37:14.566Z</time>
      </trkpt>
      <trkpt lat="45.90295" lon="6.33613">
        <ele>1028</ele>
        <time>2026-08-19T05:37:15.566Z</time>
      </trkpt>
      <trkpt lat="45.90296" lon="6.33613">
        <ele>1028</ele>
        <time>2026-08-19T05:37:16.566Z</time>
      </trkpt>
      <trkpt lat="45.90298" lon="6.33614">
        <ele>1029</ele>
        <time>2026-08-19T05:37:17.567Z</time>
      </trkpt>
      <trkpt lat="45.90299" lon="6.33614">
        <ele>1029</ele>
        <time>2026-08-19T05:37:18.566Z</time>
      </trkpt>
      <trkpt lat="45.903" lon="6.33615">
        <ele>1029</ele>
        <time>2026-08-19T05:37:19.566Z</time>
      </trkpt>
      <trkpt lat="45.90302" lon="6.33616">
        <ele>1029</ele>
        <time>2026-08-19T05:37:20.566Z</time>
      </trkpt>
      <trkpt lat="45.90303" lon="6.33617">
        <ele>1029</ele>
        <time>2026-08-19T05:37:21.566Z</time>
      </trkpt>
      <trkpt lat="45.90305" lon="6.33617">
        <ele>1029</ele>
        <time>2026-08-19T05:37:22.566Z</time>
      </trkpt>
      <trkpt lat="45.90305" lon="6.33617">
        <ele>1030</ele>
        <time>2026-08-19T05:37:23.566Z</time>
      </trkpt>
      <trkpt lat="45.90305" lon="6.33618">
        <ele>1030</ele>
        <time>2026-08-19T05:37:24.566Z</time>
      </trkpt>
      <trkpt lat="45.90306" lon="6.33617">
        <ele>1030</ele>
        <time>2026-08-19T05:37:25.566Z</time>
      </trkpt>
      <trkpt lat="45.90307" lon="6.33617">
        <ele>1030</ele>
        <time>2026-08-19T05:37:26.566Z</time>
      </trkpt>
      <trkpt lat="45.90307" lon="6.33618">
        <ele>1030</ele>
        <time>2026-08-19T05:37:27.566Z</time>
      </trkpt>
      <trkpt lat="45.90309" lon="6.33618">
        <ele>1030</ele>
        <time>2026-08-19T05:37:28.566Z</time>
      </trkpt>
      <trkpt lat="45.9031" lon="6.33618">
        <ele>1030</ele>
        <time>2026-08-19T05:37:29.566Z</time>
      </trkpt>
      <trkpt lat="45.90311" lon="6.33619">
        <ele>1030</ele>
        <time>2026-08-19T05:37:30.566Z</time>
      </trkpt>
      <trkpt lat="45.90312" lon="6.3362">
        <ele>1031</ele>
        <time>2026-08-19T05:37:31.566Z</time>
      </trkpt>
      <trkpt lat="45.90313" lon="6.3362">
        <ele>1031</ele>
        <time>2026-08-19T05:37:32.566Z</time>
      </trkpt>
      <trkpt lat="45.90314" lon="6.3362">
        <ele>1031</ele>
        <time>2026-08-19T05:37:33.566Z</time>
      </trkpt>
      <trkpt lat="45.90314" lon="6.3362">
        <ele>1031</ele>
        <time>2026-08-19T05:37:34.566Z</time>
      </trkpt>
      <trkpt lat="45.90314" lon="6.33619">
        <ele>1031</ele>
        <time>2026-08-19T05:37:35.566Z</time>
      </trkpt>
      <trkpt lat="45.90315" lon="6.33619">
        <ele>1031</ele>
        <time>2026-08-19T05:37:36.566Z</time>
      </trkpt>
      <trkpt lat="45.90315" lon="6.33618">
        <ele>1032</ele>
        <time>2026-08-19T05:37:37.566Z</time>
      </trkpt>
      <trkpt lat="45.90316" lon="6.33618">
        <ele>1032</ele>
        <time>2026-08-19T05:37:38.566Z</time>
      </trkpt>
      <trkpt lat="45.90316" lon="6.33618">
        <ele>1032</ele>
        <time>2026-08-19T05:37:39.566Z</time>
      </trkpt>
      <trkpt lat="45.90317" lon="6.33618">
        <ele>1033</ele>
        <time>2026-08-19T05:37:40.566Z</time>
      </trkpt>
      <trkpt lat="45.90317" lon="6.33618">
        <ele>1033</ele>
        <time>2026-08-19T05:37:41.566Z</time>
      </trkpt>
      <trkpt lat="45.90318" lon="6.33619">
        <ele>1034</ele>
        <time>2026-08-19T05:37:42.566Z</time>
      </trkpt>
      <trkpt lat="45.90319" lon="6.3362">
        <ele>1035</ele>
        <time>2026-08-19T05:37:43.566Z</time>
      </trkpt>
      <trkpt lat="45.90321" lon="6.3362">
        <ele>1035</ele>
        <time>2026-08-19T05:37:44.566Z</time>
      </trkpt>
      <trkpt lat="45.90321" lon="6.3362">
        <ele>1036</ele>
        <time>2026-08-19T05:37:45.566Z</time>
      </trkpt>
      <trkpt lat="45.90323" lon="6.33621">
        <ele>1036</ele>
        <time>2026-08-19T05:37:46.566Z</time>
      </trkpt>
      <trkpt lat="45.90323" lon="6.33621">
        <ele>1037</ele>
        <time>2026-08-19T05:37:47.566Z</time>
      </trkpt>
      <trkpt lat="45.90324" lon="6.33621">
        <ele>1037</ele>
        <time>2026-08-19T05:37:48.566Z</time>
      </trkpt>
      <trkpt lat="45.90325" lon="6.33621">
        <ele>1038</ele>
        <time>2026-08-19T05:37:49.566Z</time>
      </trkpt>
      <trkpt lat="45.90325" lon="6.33621">
        <ele>1038</ele>
        <time>2026-08-19T05:37:50.566Z</time>
      </trkpt>
      <trkpt lat="45.90326" lon="6.33621">
        <ele>1038</ele>
        <time>2026-08-19T05:37:51.566Z</time>
      </trkpt>
      <trkpt lat="45.90327" lon="6.3362">
        <ele>1039</ele>
        <time>2026-08-19T05:37:52.566Z</time>
      </trkpt>
      <trkpt lat="45.90328" lon="6.3362">
        <ele>1039</ele>
        <time>2026-08-19T05:37:53.566Z</time>
      </trkpt>
      <trkpt lat="45.90328" lon="6.3362">
        <ele>1039</ele>
        <time>2026-08-19T05:37:54.566Z</time>
      </trkpt>
      <trkpt lat="45.90329" lon="6.3362">
        <ele>1039</ele>
        <time>2026-08-19T05:37:55.566Z</time>
      </trkpt>
      <trkpt lat="45.9033" lon="6.3362">
        <ele>1039</ele>
        <time>2026-08-19T05:37:56.566Z</time>
      </trkpt>
      <trkpt lat="45.90332" lon="6.33621">
        <ele>1040</ele>
        <time>2026-08-19T05:37:57.566Z</time>
      </trkpt>
      <trkpt lat="45.90332" lon="6.33621">
        <ele>1040</ele>
        <time>2026-08-19T05:37:58.566Z</time>
      </trkpt>
      <trkpt lat="45.90334" lon="6.33622">
        <ele>1040</ele>
        <time>2026-08-19T05:37:59.566Z</time>
      </trkpt>
      <trkpt lat="45.90335" lon="6.33622">
        <ele>1040</ele>
        <time>2026-08-19T05:38:00.566Z</time>
      </trkpt>
      <trkpt lat="45.90336" lon="6.33622">
        <ele>1041</ele>
        <time>2026-08-19T05:38:01.566Z</time>
      </trkpt>
      <trkpt lat="45.90337" lon="6.33622">
        <ele>1041</ele>
        <time>2026-08-19T05:38:02.566Z</time>
      </trkpt>
      <trkpt lat="45.90338" lon="6.33621">
        <ele>1041</ele>
        <time>2026-08-19T05:38:03.566Z</time>
      </trkpt>
      <trkpt lat="45.90339" lon="6.33621">
        <ele>1041</ele>
        <time>2026-08-19T05:38:04.566Z</time>
      </trkpt>
      <trkpt lat="45.90339" lon="6.33621">
        <ele>1041</ele>
        <time>2026-08-19T05:38:05.566Z</time>
      </trkpt>
      <trkpt lat="45.9034" lon="6.33621">
        <ele>1042</ele>
        <time>2026-08-19T05:38:06.566Z</time>
      </trkpt>
      <trkpt lat="45.90341" lon="6.33621">
        <ele>1042</ele>
        <time>2026-08-19T05:38:07.566Z</time>
      </trkpt>
      <trkpt lat="45.90341" lon="6.33621">
        <ele>1042</ele>
        <time>2026-08-19T05:38:08.566Z</time>
      </trkpt>
      <trkpt lat="45.90341" lon="6.33621">
        <ele>1042</ele>
        <time>2026-08-19T05:38:09.566Z</time>
      </trkpt>
      <trkpt lat="45.90343" lon="6.33622">
        <ele>1043</ele>
        <time>2026-08-19T05:38:10.566Z</time>
      </trkpt>
      <trkpt lat="45.90344" lon="6.33622">
        <ele>1043</ele>
        <time>2026-08-19T05:38:11.566Z</time>
      </trkpt>
      <trkpt lat="45.90345" lon="6.33622">
        <ele>1043</ele>
        <time>2026-08-19T05:38:12.566Z</time>
      </trkpt>
      <trkpt lat="45.90345" lon="6.33623">
        <ele>1043</ele>
        <time>2026-08-19T05:38:13.566Z</time>
      </trkpt>
      <trkpt lat="45.90345" lon="6.33623">
        <ele>1044</ele>
        <time>2026-08-19T05:38:14.566Z</time>
      </trkpt>
      <trkpt lat="45.90346" lon="6.33622">
        <ele>1044</ele>
        <time>2026-08-19T05:38:15.566Z</time>
      </trkpt>
      <trkpt lat="45.90347" lon="6.33621">
        <ele>1044</ele>
        <time>2026-08-19T05:38:16.567Z</time>
      </trkpt>
      <trkpt lat="45.90347" lon="6.3362">
        <ele>1045</ele>
        <time>2026-08-19T05:38:17.566Z</time>
      </trkpt>
      <trkpt lat="45.90347" lon="6.3362">
        <ele>1045</ele>
        <time>2026-08-19T05:38:18.566Z</time>
      </trkpt>
      <trkpt lat="45.90347" lon="6.33621">
        <ele>1045</ele>
        <time>2026-08-19T05:38:19.566Z</time>
      </trkpt>
      <trkpt lat="45.90348" lon="6.33621">
        <ele>1046</ele>
        <time>2026-08-19T05:38:20.566Z</time>
      </trkpt>
      <trkpt lat="45.90348" lon="6.33622">
        <ele>1046</ele>
        <time>2026-08-19T05:38:21.566Z</time>
      </trkpt>
      <trkpt lat="45.90349" lon="6.33623">
        <ele>1046</ele>
        <time>2026-08-19T05:38:22.566Z</time>
      </trkpt>
      <trkpt lat="45.90349" lon="6.33625">
        <ele>1046</ele>
        <time>2026-08-19T05:38:23.566Z</time>
      </trkpt>
      <trkpt lat="45.90349" lon="6.33627">
        <ele>1046</ele>
        <time>2026-08-19T05:38:24.566Z</time>
      </trkpt>
      <trkpt lat="45.90351" lon="6.33628">
        <ele>1047</ele>
        <time>2026-08-19T05:38:25.566Z</time>
      </trkpt>
      <trkpt lat="45.90351" lon="6.3363">
        <ele>1047</ele>
        <time>2026-08-19T05:38:26.566Z</time>
      </trkpt>
      <trkpt lat="45.90352" lon="6.33631">
        <ele>1047</ele>
        <time>2026-08-19T05:38:27.566Z</time>
      </trkpt>
      <trkpt lat="45.90353" lon="6.33632">
        <ele>1048</ele>
        <time>2026-08-19T05:38:28.566Z</time>
      </trkpt>
      <trkpt lat="45.90353" lon="6.33634">
        <ele>1048</ele>
        <time>2026-08-19T05:38:29.566Z</time>
      </trkpt>
      <trkpt lat="45.90354" lon="6.33636">
        <ele>1048</ele>
        <time>2026-08-19T05:38:30.566Z</time>
      </trkpt>
      <trkpt lat="45.90354" lon="6.33637">
        <ele>1049</ele>
        <time>2026-08-19T05:38:31.566Z</time>
      </trkpt>
      <trkpt lat="45.90355" lon="6.33638">
        <ele>1049</ele>
        <time>2026-08-19T05:38:32.566Z</time>
      </trkpt>
      <trkpt lat="45.90355" lon="6.33638">
        <ele>1050</ele>
        <time>2026-08-19T05:38:33.566Z</time>
      </trkpt>
      <trkpt lat="45.90356" lon="6.33639">
        <ele>1050</ele>
        <time>2026-08-19T05:38:34.566Z</time>
      </trkpt>
      <trkpt lat="45.90357" lon="6.3364">
        <ele>1050</ele>
        <time>2026-08-19T05:38:35.566Z</time>
      </trkpt>
      <trkpt lat="45.90358" lon="6.33641">
        <ele>1051</ele>
        <time>2026-08-19T05:38:36.566Z</time>
      </trkpt>
      <trkpt lat="45.9036" lon="6.33643">
        <ele>1051</ele>
        <time>2026-08-19T05:38:37.566Z</time>
      </trkpt>
      <trkpt lat="45.90361" lon="6.33643">
        <ele>1051</ele>
        <time>2026-08-19T05:38:38.566Z</time>
      </trkpt>
      <trkpt lat="45.90362" lon="6.33643">
        <ele>1052</ele>
        <time>2026-08-19T05:38:39.566Z</time>
      </trkpt>
      <trkpt lat="45.90363" lon="6.33644">
        <ele>1052</ele>
        <time>2026-08-19T05:38:40.566Z</time>
      </trkpt>
      <trkpt lat="45.90363" lon="6.33644">
        <ele>1052</ele>
        <time>2026-08-19T05:38:41.566Z</time>
      </trkpt>
      <trkpt lat="45.90364" lon="6.33645">
        <ele>1053</ele>
        <time>2026-08-19T05:38:42.566Z</time>
      </trkpt>
      <trkpt lat="45.90365" lon="6.33646">
        <ele>1053</ele>
        <time>2026-08-19T05:38:43.566Z</time>
      </trkpt>
      <trkpt lat="45.90366" lon="6.33647">
        <ele>1053</ele>
        <time>2026-08-19T05:38:44.566Z</time>
      </trkpt>
      <trkpt lat="45.90366" lon="6.33648">
        <ele>1054</ele>
        <time>2026-08-19T05:38:45.566Z</time>
      </trkpt>
      <trkpt lat="45.90367" lon="6.33649">
        <ele>1054</ele>
        <time>2026-08-19T05:38:46.566Z</time>
      </trkpt>
      <trkpt lat="45.90368" lon="6.33649">
        <ele>1054</ele>
        <time>2026-08-19T05:38:47.566Z</time>
      </trkpt>
      <trkpt lat="45.9037" lon="6.3365">
        <ele>1054</ele>
        <time>2026-08-19T05:38:48.566Z</time>
      </trkpt>
      <trkpt lat="45.9037" lon="6.3365">
        <ele>1054</ele>
        <time>2026-08-19T05:38:49.566Z</time>
      </trkpt>
      <trkpt lat="45.90372" lon="6.33651">
        <ele>1055</ele>
        <time>2026-08-19T05:38:50.566Z</time>
      </trkpt>
      <trkpt lat="45.90373" lon="6.33651">
        <ele>1055</ele>
        <time>2026-08-19T05:38:51.566Z</time>
      </trkpt>
      <trkpt lat="45.90374" lon="6.33652">
        <ele>1055</ele>
        <time>2026-08-19T05:38:52.566Z</time>
      </trkpt>
      <trkpt lat="45.90374" lon="6.33653">
        <ele>1055</ele>
        <time>2026-08-19T05:38:53.566Z</time>
      </trkpt>
      <trkpt lat="45.90375" lon="6.33653">
        <ele>1056</ele>
        <time>2026-08-19T05:38:54.566Z</time>
      </trkpt>
      <trkpt lat="45.90376" lon="6.33652">
        <ele>1056</ele>
        <time>2026-08-19T05:38:55.566Z</time>
      </trkpt>
      <trkpt lat="45.90376" lon="6.33652">
        <ele>1056</ele>
        <time>2026-08-19T05:38:56.566Z</time>
      </trkpt>
      <trkpt lat="45.90376" lon="6.33652">
        <ele>1056</ele>
        <time>2026-08-19T05:38:57.566Z</time>
      </trkpt>
      <trkpt lat="45.90377" lon="6.33652">
        <ele>1057</ele>
        <time>2026-08-19T05:38:58.566Z</time>
      </trkpt>
      <trkpt lat="45.90377" lon="6.33653">
        <ele>1057</ele>
        <time>2026-08-19T05:38:59.566Z</time>
      </trkpt>
      <trkpt lat="45.90379" lon="6.33653">
        <ele>1057</ele>
        <time>2026-08-19T05:39:00.566Z</time>
      </trkpt>
      <trkpt lat="45.90381" lon="6.33655">
        <ele>1058</ele>
        <time>2026-08-19T05:39:01.566Z</time>
      </trkpt>
      <trkpt lat="45.90383" lon="6.33656">
        <ele>1058</ele>
        <time>2026-08-19T05:39:02.566Z</time>
      </trkpt>
      <trkpt lat="45.90384" lon="6.33658">
        <ele>1058</ele>
        <time>2026-08-19T05:39:03.566Z</time>
      </trkpt>
      <trkpt lat="45.90385" lon="6.33659">
        <ele>1058</ele>
        <time>2026-08-19T05:39:04.566Z</time>
      </trkpt>
      <trkpt lat="45.90386" lon="6.33661">
        <ele>1059</ele>
        <time>2026-08-19T05:39:05.566Z</time>
      </trkpt>
      <trkpt lat="45.90387" lon="6.33662">
        <ele>1059</ele>
        <time>2026-08-19T05:39:06.566Z</time>
      </trkpt>
      <trkpt lat="45.90387" lon="6.33663">
        <ele>1059</ele>
        <time>2026-08-19T05:39:07.566Z</time>
      </trkpt>
      <trkpt lat="45.90387" lon="6.33663">
        <ele>1060</ele>
        <time>2026-08-19T05:39:08.566Z</time>
      </trkpt>
      <trkpt lat="45.90389" lon="6.33663">
        <ele>1060</ele>
        <time>2026-08-19T05:39:09.566Z</time>
      </trkpt>
      <trkpt lat="45.90389" lon="6.33663">
        <ele>1060</ele>
        <time>2026-08-19T05:39:10.566Z</time>
      </trkpt>
      <trkpt lat="45.90391" lon="6.33664">
        <ele>1061</ele>
        <time>2026-08-19T05:39:11.566Z</time>
      </trkpt>
      <trkpt lat="45.90391" lon="6.33664">
        <ele>1061</ele>
        <time>2026-08-19T05:39:12.566Z</time>
      </trkpt>
      <trkpt lat="45.90391" lon="6.33664">
        <ele>1061</ele>
        <time>2026-08-19T05:39:13.566Z</time>
      </trkpt>
      <trkpt lat="45.90391" lon="6.33664">
        <ele>1062</ele>
        <time>2026-08-19T05:39:14.566Z</time>
      </trkpt>
      <trkpt lat="45.90392" lon="6.33665">
        <ele>1062</ele>
        <time>2026-08-19T05:39:15.566Z</time>
      </trkpt>
      <trkpt lat="45.90392" lon="6.33665">
        <ele>1063</ele>
        <time>2026-08-19T05:39:16.566Z</time>
      </trkpt>
      <trkpt lat="45.90393" lon="6.33665">
        <ele>1064</ele>
        <time>2026-08-19T05:39:17.566Z</time>
      </trkpt>
      <trkpt lat="45.90394" lon="6.33664">
        <ele>1064</ele>
        <time>2026-08-19T05:39:18.566Z</time>
      </trkpt>
      <trkpt lat="45.90396" lon="6.33665">
        <ele>1064</ele>
        <time>2026-08-19T05:39:19.566Z</time>
      </trkpt>
      <trkpt lat="45.90397" lon="6.33666">
        <ele>1065</ele>
        <time>2026-08-19T05:39:20.566Z</time>
      </trkpt>
      <trkpt lat="45.90398" lon="6.33666">
        <ele>1065</ele>
        <time>2026-08-19T05:39:21.566Z</time>
      </trkpt>
      <trkpt lat="45.90399" lon="6.33667">
        <ele>1065</ele>
        <time>2026-08-19T05:39:22.566Z</time>
      </trkpt>
      <trkpt lat="45.904" lon="6.33667">
        <ele>1066</ele>
        <time>2026-08-19T05:39:23.566Z</time>
      </trkpt>
      <trkpt lat="45.90401" lon="6.33667">
        <ele>1066</ele>
        <time>2026-08-19T05:39:24.566Z</time>
      </trkpt>
      <trkpt lat="45.90402" lon="6.33667">
        <ele>1066</ele>
        <time>2026-08-19T05:39:25.566Z</time>
      </trkpt>
      <trkpt lat="45.90403" lon="6.33667">
        <ele>1066</ele>
        <time>2026-08-19T05:39:26.566Z</time>
      </trkpt>
      <trkpt lat="45.90404" lon="6.33668">
        <ele>1066</ele>
        <time>2026-08-19T05:39:27.566Z</time>
      </trkpt>
      <trkpt lat="45.90405" lon="6.33668">
        <ele>1066</ele>
        <time>2026-08-19T05:39:28.566Z</time>
      </trkpt>
      <trkpt lat="45.90406" lon="6.33668">
        <ele>1067</ele>
        <time>2026-08-19T05:39:29.566Z</time>
      </trkpt>
      <trkpt lat="45.90407" lon="6.33669">
        <ele>1067</ele>
        <time>2026-08-19T05:39:30.566Z</time>
      </trkpt>
      <trkpt lat="45.90408" lon="6.3367">
        <ele>1067</ele>
        <time>2026-08-19T05:39:31.566Z</time>
      </trkpt>
      <trkpt lat="45.90408" lon="6.3367">
        <ele>1067</ele>
        <time>2026-08-19T05:39:32.566Z</time>
      </trkpt>
      <trkpt lat="45.90409" lon="6.3367">
        <ele>1067</ele>
        <time>2026-08-19T05:39:33.566Z</time>
      </trkpt>
      <trkpt lat="45.9041" lon="6.3367">
        <ele>1068</ele>
        <time>2026-08-19T05:39:34.566Z</time>
      </trkpt>
      <trkpt lat="45.9041" lon="6.33671">
        <ele>1068</ele>
        <time>2026-08-19T05:39:35.566Z</time>
      </trkpt>
      <trkpt lat="45.90411" lon="6.33671">
        <ele>1068</ele>
        <time>2026-08-19T05:39:36.566Z</time>
      </trkpt>
      <trkpt lat="45.90412" lon="6.33672">
        <ele>1068</ele>
        <time>2026-08-19T05:39:37.566Z</time>
      </trkpt>
      <trkpt lat="45.90413" lon="6.33672">
        <ele>1069</ele>
        <time>2026-08-19T05:39:38.566Z</time>
      </trkpt>
      <trkpt lat="45.90414" lon="6.33672">
        <ele>1069</ele>
        <time>2026-08-19T05:39:39.566Z</time>
      </trkpt>
      <trkpt lat="45.90414" lon="6.33672">
        <ele>1070</ele>
        <time>2026-08-19T05:39:40.566Z</time>
      </trkpt>
      <trkpt lat="45.90415" lon="6.33672">
        <ele>1070</ele>
        <time>2026-08-19T05:39:41.566Z</time>
      </trkpt>
      <trkpt lat="45.90416" lon="6.33672">
        <ele>1070</ele>
        <time>2026-08-19T05:39:42.566Z</time>
      </trkpt>
      <trkpt lat="45.90416" lon="6.33672">
        <ele>1070</ele>
        <time>2026-08-19T05:39:43.566Z</time>
      </trkpt>
      <trkpt lat="45.90417" lon="6.33673">
        <ele>1070</ele>
        <time>2026-08-19T05:39:44.566Z</time>
      </trkpt>
      <trkpt lat="45.90417" lon="6.33673">
        <ele>1070</ele>
        <time>2026-08-19T05:39:45.566Z</time>
      </trkpt>
      <trkpt lat="45.90418" lon="6.33673">
        <ele>1070</ele>
        <time>2026-08-19T05:39:46.566Z</time>
      </trkpt>
      <trkpt lat="45.90418" lon="6.33672">
        <ele>1070</ele>
        <time>2026-08-19T05:39:47.566Z</time>
      </trkpt>
      <trkpt lat="45.90418" lon="6.33672">
        <ele>1070</ele>
        <time>2026-08-19T05:39:48.566Z</time>
      </trkpt>
      <trkpt lat="45.90417" lon="6.33672">
        <ele>1070</ele>
        <time>2026-08-19T05:39:49.566Z</time>
      </trkpt>
      <trkpt lat="45.90418" lon="6.33672">
        <ele>1070</ele>
        <time>2026-08-19T05:39:50.566Z</time>
      </trkpt>
      <trkpt lat="45.90418" lon="6.33671">
        <ele>1069</ele>
        <time>2026-08-19T05:39:51.566Z</time>
      </trkpt>
      <trkpt lat="45.90418" lon="6.3367">
        <ele>1069</ele>
        <time>2026-08-19T05:39:52.566Z</time>
      </trkpt>
      <trkpt lat="45.90419" lon="6.3367">
        <ele>1070</ele>
        <time>2026-08-19T05:39:53.566Z</time>
      </trkpt>
      <trkpt lat="45.9042" lon="6.3367">
        <ele>1070</ele>
        <time>2026-08-19T05:39:54.566Z</time>
      </trkpt>
      <trkpt lat="45.9042" lon="6.3367">
        <ele>1070</ele>
        <time>2026-08-19T05:39:55.566Z</time>
      </trkpt>
      <trkpt lat="45.90421" lon="6.3367">
        <ele>1070</ele>
        <time>2026-08-19T05:39:56.566Z</time>
      </trkpt>
      <trkpt lat="45.90421" lon="6.3367">
        <ele>1070</ele>
        <time>2026-08-19T05:39:57.566Z</time>
      </trkpt>
      <trkpt lat="45.90422" lon="6.3367">
        <ele>1070</ele>
        <time>2026-08-19T05:39:58.566Z</time>
      </trkpt>
      <trkpt lat="45.90423" lon="6.33671">
        <ele>1071</ele>
        <time>2026-08-19T05:39:59.566Z</time>
      </trkpt>
      <trkpt lat="45.90424" lon="6.33671">
        <ele>1071</ele>
        <time>2026-08-19T05:40:00.566Z</time>
      </trkpt>
      <trkpt lat="45.90425" lon="6.33671">
        <ele>1071</ele>
        <time>2026-08-19T05:40:01.566Z</time>
      </trkpt>
      <trkpt lat="45.90426" lon="6.33672">
        <ele>1071</ele>
        <time>2026-08-19T05:40:02.566Z</time>
      </trkpt>
      <trkpt lat="45.90427" lon="6.33672">
        <ele>1071</ele>
        <time>2026-08-19T05:40:03.566Z</time>
      </trkpt>
      <trkpt lat="45.90428" lon="6.33673">
        <ele>1072</ele>
        <time>2026-08-19T05:40:04.566Z</time>
      </trkpt>
      <trkpt lat="45.90429" lon="6.33674">
        <ele>1072</ele>
        <time>2026-08-19T05:40:05.566Z</time>
      </trkpt>
      <trkpt lat="45.9043" lon="6.33675">
        <ele>1072</ele>
        <time>2026-08-19T05:40:06.566Z</time>
      </trkpt>
      <trkpt lat="45.90431" lon="6.33676">
        <ele>1072</ele>
        <time>2026-08-19T05:40:07.566Z</time>
      </trkpt>
      <trkpt lat="45.90431" lon="6.33676">
        <ele>1073</ele>
        <time>2026-08-19T05:40:08.566Z</time>
      </trkpt>
      <trkpt lat="45.90432" lon="6.33677">
        <ele>1073</ele>
        <time>2026-08-19T05:40:09.566Z</time>
      </trkpt>
      <trkpt lat="45.90432" lon="6.33677">
        <ele>1074</ele>
        <time>2026-08-19T05:40:10.566Z</time>
      </trkpt>
      <trkpt lat="45.90433" lon="6.33677">
        <ele>1074</ele>
        <time>2026-08-19T05:40:11.566Z</time>
      </trkpt>
      <trkpt lat="45.90434" lon="6.33677">
        <ele>1075</ele>
        <time>2026-08-19T05:40:12.566Z</time>
      </trkpt>
      <trkpt lat="45.90434" lon="6.33676">
        <ele>1075</ele>
        <time>2026-08-19T05:40:13.566Z</time>
      </trkpt>
      <trkpt lat="45.90434" lon="6.33676">
        <ele>1075</ele>
        <time>2026-08-19T05:40:14.566Z</time>
      </trkpt>
      <trkpt lat="45.90434" lon="6.33676">
        <ele>1076</ele>
        <time>2026-08-19T05:40:15.566Z</time>
      </trkpt>
      <trkpt lat="45.90433" lon="6.33676">
        <ele>1077</ele>
        <time>2026-08-19T05:40:16.566Z</time>
      </trkpt>
      <trkpt lat="45.90432" lon="6.33676">
        <ele>1077</ele>
        <time>2026-08-19T05:40:17.566Z</time>
      </trkpt>
      <trkpt lat="45.90432" lon="6.33676">
        <ele>1078</ele>
        <time>2026-08-19T05:40:18.566Z</time>
      </trkpt>
      <trkpt lat="45.90431" lon="6.33675">
        <ele>1079</ele>
        <time>2026-08-19T05:40:19.566Z</time>
      </trkpt>
      <trkpt lat="45.90431" lon="6.33675">
        <ele>1079</ele>
        <time>2026-08-19T05:40:20.566Z</time>
      </trkpt>
      <trkpt lat="45.9043" lon="6.33674">
        <ele>1080</ele>
        <time>2026-08-19T05:40:21.566Z</time>
      </trkpt>
      <trkpt lat="45.9043" lon="6.33674">
        <ele>1081</ele>
        <time>2026-08-19T05:40:22.566Z</time>
      </trkpt>
      <trkpt lat="45.9043" lon="6.33673">
        <ele>1081</ele>
        <time>2026-08-19T05:40:23.566Z</time>
      </trkpt>
      <trkpt lat="45.90429" lon="6.33673">
        <ele>1081</ele>
        <time>2026-08-19T05:40:24.566Z</time>
      </trkpt>
      <trkpt lat="45.90429" lon="6.33673">
        <ele>1081</ele>
        <time>2026-08-19T05:40:25.566Z</time>
      </trkpt>
      <trkpt lat="45.90429" lon="6.33672">
        <ele>1082</ele>
        <time>2026-08-19T05:40:26.566Z</time>
      </trkpt>
      <trkpt lat="45.90428" lon="6.33671">
        <ele>1082</ele>
        <time>2026-08-19T05:40:27.566Z</time>
      </trkpt>
      <trkpt lat="45.90428" lon="6.3367">
        <ele>1083</ele>
        <time>2026-08-19T05:40:28.566Z</time>
      </trkpt>
      <trkpt lat="45.90429" lon="6.3367">
        <ele>1083</ele>
        <time>2026-08-19T05:40:29.566Z</time>
      </trkpt>
      <trkpt lat="45.90429" lon="6.33669">
        <ele>1083</ele>
        <time>2026-08-19T05:40:30.566Z</time>
      </trkpt>
      <trkpt lat="45.9043" lon="6.33668">
        <ele>1084</ele>
        <time>2026-08-19T05:40:31.566Z</time>
      </trkpt>
      <trkpt lat="45.90431" lon="6.33666">
        <ele>1084</ele>
        <time>2026-08-19T05:40:32.566Z</time>
      </trkpt>
      <trkpt lat="45.90431" lon="6.33665">
        <ele>1084</ele>
        <time>2026-08-19T05:40:33.566Z</time>
      </trkpt>
      <trkpt lat="45.90431" lon="6.33665">
        <ele>1084</ele>
        <time>2026-08-19T05:40:34.566Z</time>
      </trkpt>
      <trkpt lat="45.90432" lon="6.33665">
        <ele>1084</ele>
        <time>2026-08-19T05:40:35.566Z</time>
      </trkpt>
      <trkpt lat="45.90432" lon="6.33665">
        <ele>1084</ele>
        <time>2026-08-19T05:40:36.566Z</time>
      </trkpt>
      <trkpt lat="45.90433" lon="6.33665">
        <ele>1085</ele>
        <time>2026-08-19T05:40:37.566Z</time>
      </trkpt>
      <trkpt lat="45.90434" lon="6.33665">
        <ele>1085</ele>
        <time>2026-08-19T05:40:38.566Z</time>
      </trkpt>
      <trkpt lat="45.90434" lon="6.33665">
        <ele>1085</ele>
        <time>2026-08-19T05:40:39.566Z</time>
      </trkpt>
      <trkpt lat="45.90435" lon="6.33665">
        <ele>1085</ele>
        <time>2026-08-19T05:40:40.566Z</time>
      </trkpt>
      <trkpt lat="45.90436" lon="6.33666">
        <ele>1085</ele>
        <time>2026-08-19T05:40:41.566Z</time>
      </trkpt>
      <trkpt lat="45.90436" lon="6.33666">
        <ele>1085</ele>
        <time>2026-08-19T05:40:42.566Z</time>
      </trkpt>
      <trkpt lat="45.90437" lon="6.33666">
        <ele>1085</ele>
        <time>2026-08-19T05:40:43.566Z</time>
      </trkpt>
      <trkpt lat="45.90438" lon="6.33667">
        <ele>1085</ele>
        <time>2026-08-19T05:40:44.566Z</time>
      </trkpt>
      <trkpt lat="45.90438" lon="6.33667">
        <ele>1084</ele>
        <time>2026-08-19T05:40:45.566Z</time>
      </trkpt>
      <trkpt lat="45.90439" lon="6.33667">
        <ele>1084</ele>
        <time>2026-08-19T05:40:46.566Z</time>
      </trkpt>
      <trkpt lat="45.9044" lon="6.33668">
        <ele>1084</ele>
        <time>2026-08-19T05:40:47.566Z</time>
      </trkpt>
      <trkpt lat="45.90441" lon="6.33669">
        <ele>1083</ele>
        <time>2026-08-19T05:40:48.566Z</time>
      </trkpt>
      <trkpt lat="45.90442" lon="6.33669">
        <ele>1083</ele>
        <time>2026-08-19T05:40:49.566Z</time>
      </trkpt>
      <trkpt lat="45.90443" lon="6.33669">
        <ele>1083</ele>
        <time>2026-08-19T05:40:50.566Z</time>
      </trkpt>
      <trkpt lat="45.90445" lon="6.33669">
        <ele>1083</ele>
        <time>2026-08-19T05:40:51.566Z</time>
      </trkpt>
      <trkpt lat="45.90446" lon="6.33669">
        <ele>1083</ele>
        <time>2026-08-19T05:40:52.566Z</time>
      </trkpt>
      <trkpt lat="45.90446" lon="6.3367">
        <ele>1083</ele>
        <time>2026-08-19T05:40:53.566Z</time>
      </trkpt>
      <trkpt lat="45.90446" lon="6.3367">
        <ele>1083</ele>
        <time>2026-08-19T05:40:54.566Z</time>
      </trkpt>
      <trkpt lat="45.90447" lon="6.3367">
        <ele>1083</ele>
        <time>2026-08-19T05:40:55.566Z</time>
      </trkpt>
      <trkpt lat="45.90448" lon="6.3367">
        <ele>1083</ele>
        <time>2026-08-19T05:40:56.566Z</time>
      </trkpt>
      <trkpt lat="45.90447" lon="6.3367">
        <ele>1082</ele>
        <time>2026-08-19T05:40:57.567Z</time>
      </trkpt>
      <trkpt lat="45.90447" lon="6.3367">
        <ele>1083</ele>
        <time>2026-08-19T05:40:58.566Z</time>
      </trkpt>
      <trkpt lat="45.90447" lon="6.3367">
        <ele>1083</ele>
        <time>2026-08-19T05:40:59.566Z</time>
      </trkpt>
      <trkpt lat="45.90446" lon="6.3367">
        <ele>1083</ele>
        <time>2026-08-19T05:41:00.566Z</time>
      </trkpt>
      <trkpt lat="45.90446" lon="6.33671">
        <ele>1083</ele>
        <time>2026-08-19T05:41:01.566Z</time>
      </trkpt>
      <trkpt lat="45.90446" lon="6.33671">
        <ele>1084</ele>
        <time>2026-08-19T05:41:02.566Z</time>
      </trkpt>
      <trkpt lat="45.90446" lon="6.33671">
        <ele>1084</ele>
        <time>2026-08-19T05:41:03.566Z</time>
      </trkpt>
      <trkpt lat="45.90447" lon="6.33671">
        <ele>1084</ele>
        <time>2026-08-19T05:41:04.566Z</time>
      </trkpt>
      <trkpt lat="45.90447" lon="6.3367">
        <ele>1084</ele>
        <time>2026-08-19T05:41:05.566Z</time>
      </trkpt>
      <trkpt lat="45.90448" lon="6.33669">
        <ele>1084</ele>
        <time>2026-08-19T05:41:06.566Z</time>
      </trkpt>
      <trkpt lat="45.90449" lon="6.33669">
        <ele>1084</ele>
        <time>2026-08-19T05:41:07.566Z</time>
      </trkpt>
      <trkpt lat="45.90449" lon="6.33669">
        <ele>1084</ele>
        <time>2026-08-19T05:41:08.566Z</time>
      </trkpt>
      <trkpt lat="45.90449" lon="6.33668">
        <ele>1084</ele>
        <time>2026-08-19T05:41:09.566Z</time>
      </trkpt>
      <trkpt lat="45.90449" lon="6.33668">
        <ele>1084</ele>
        <time>2026-08-19T05:41:10.566Z</time>
      </trkpt>
      <trkpt lat="45.90449" lon="6.33669">
        <ele>1084</ele>
        <time>2026-08-19T05:41:11.566Z</time>
      </trkpt>
      <trkpt lat="45.90449" lon="6.33669">
        <ele>1084</ele>
        <time>2026-08-19T05:41:12.566Z</time>
      </trkpt>
      <trkpt lat="45.90449" lon="6.3367">
        <ele>1084</ele>
        <time>2026-08-19T05:41:13.566Z</time>
      </trkpt>
      <trkpt lat="45.9045" lon="6.33671">
        <ele>1083</ele>
        <time>2026-08-19T05:41:14.566Z</time>
      </trkpt>
      <trkpt lat="45.90451" lon="6.33671">
        <ele>1083</ele>
        <time>2026-08-19T05:41:15.566Z</time>
      </trkpt>
      <trkpt lat="45.90451" lon="6.33672">
        <ele>1083</ele>
        <time>2026-08-19T05:41:16.566Z</time>
      </trkpt>
      <trkpt lat="45.90452" lon="6.33672">
        <ele>1083</ele>
        <time>2026-08-19T05:41:17.566Z</time>
      </trkpt>
      <trkpt lat="45.90453" lon="6.33672">
        <ele>1083</ele>
        <time>2026-08-19T05:41:18.566Z</time>
      </trkpt>
      <trkpt lat="45.90453" lon="6.33672">
        <ele>1083</ele>
        <time>2026-08-19T05:41:19.566Z</time>
      </trkpt>
      <trkpt lat="45.90453" lon="6.33672">
        <ele>1083</ele>
        <time>2026-08-19T05:41:20.566Z</time>
      </trkpt>
      <trkpt lat="45.90454" lon="6.33671">
        <ele>1084</ele>
        <time>2026-08-19T05:41:21.566Z</time>
      </trkpt>
      <trkpt lat="45.90454" lon="6.33672">
        <ele>1084</ele>
        <time>2026-08-19T05:41:22.566Z</time>
      </trkpt>
      <trkpt lat="45.90454" lon="6.33672">
        <ele>1084</ele>
        <time>2026-08-19T05:41:23.566Z</time>
      </trkpt>
      <trkpt lat="45.90454" lon="6.33672">
        <ele>1085</ele>
        <time>2026-08-19T05:41:24.566Z</time>
      </trkpt>
      <trkpt lat="45.90453" lon="6.33671">
        <ele>1086</ele>
        <time>2026-08-19T05:41:25.566Z</time>
      </trkpt>
      <trkpt lat="45.90453" lon="6.33671">
        <ele>1087</ele>
        <time>2026-08-19T05:41:26.566Z</time>
      </trkpt>
      <trkpt lat="45.90453" lon="6.33671">
        <ele>1088</ele>
        <time>2026-08-19T05:41:27.566Z</time>
      </trkpt>
      <trkpt lat="45.90453" lon="6.33669">
        <ele>1088</ele>
        <time>2026-08-19T05:41:28.566Z</time>
      </trkpt>
      <trkpt lat="45.90453" lon="6.33668">
        <ele>1089</ele>
        <time>2026-08-19T05:41:29.566Z</time>
      </trkpt>
      <trkpt lat="45.90453" lon="6.33667">
        <ele>1090</ele>
        <time>2026-08-19T05:41:30.566Z</time>
      </trkpt>
      <trkpt lat="45.90453" lon="6.33666">
        <ele>1090</ele>
        <time>2026-08-19T05:41:31.566Z</time>
      </trkpt>
      <trkpt lat="45.90453" lon="6.33665">
        <ele>1091</ele>
        <time>2026-08-19T05:41:32.566Z</time>
      </trkpt>
      <trkpt lat="45.90453" lon="6.33664">
        <ele>1091</ele>
        <time>2026-08-19T05:41:33.566Z</time>
      </trkpt>
      <trkpt lat="45.90453" lon="6.33663">
        <ele>1092</ele>
        <time>2026-08-19T05:41:34.566Z</time>
      </trkpt>
      <trkpt lat="45.90453" lon="6.33661">
        <ele>1092</ele>
        <time>2026-08-19T05:41:35.566Z</time>
      </trkpt>
      <trkpt lat="45.90452" lon="6.3366">
        <ele>1092</ele>
        <time>2026-08-19T05:41:36.566Z</time>
      </trkpt>
      <trkpt lat="45.90452" lon="6.3366">
        <ele>1092</ele>
        <time>2026-08-19T05:41:37.566Z</time>
      </trkpt>
      <trkpt lat="45.90451" lon="6.33659">
        <ele>1092</ele>
        <time>2026-08-19T05:41:38.566Z</time>
      </trkpt>
      <trkpt lat="45.90451" lon="6.33659">
        <ele>1093</ele>
        <time>2026-08-19T05:41:39.566Z</time>
      </trkpt>
      <trkpt lat="45.90451" lon="6.33659">
        <ele>1093</ele>
        <time>2026-08-19T05:41:40.566Z</time>
      </trkpt>
      <trkpt lat="45.9045" lon="6.33659">
        <ele>1093</ele>
        <time>2026-08-19T05:41:41.566Z</time>
      </trkpt>
      <trkpt lat="45.9045" lon="6.33657">
        <ele>1093</ele>
        <time>2026-08-19T05:41:42.566Z</time>
      </trkpt>
      <trkpt lat="45.9045" lon="6.33657">
        <ele>1093</ele>
        <time>2026-08-19T05:41:43.566Z</time>
      </trkpt>
      <trkpt lat="45.9045" lon="6.33656">
        <ele>1093</ele>
        <time>2026-08-19T05:41:44.566Z</time>
      </trkpt>
      <trkpt lat="45.90449" lon="6.33656">
        <ele>1094</ele>
        <time>2026-08-19T05:41:45.566Z</time>
      </trkpt>
      <trkpt lat="45.90449" lon="6.33655">
        <ele>1094</ele>
        <time>2026-08-19T05:41:46.566Z</time>
      </trkpt>
      <trkpt lat="45.90449" lon="6.33654">
        <ele>1094</ele>
        <time>2026-08-19T05:41:47.566Z</time>
      </trkpt>
      <trkpt lat="45.90448" lon="6.33653">
        <ele>1094</ele>
        <time>2026-08-19T05:41:48.566Z</time>
      </trkpt>
      <trkpt lat="45.90447" lon="6.33652">
        <ele>1095</ele>
        <time>2026-08-19T05:41:49.566Z</time>
      </trkpt>
      <trkpt lat="45.90446" lon="6.33651">
        <ele>1095</ele>
        <time>2026-08-19T05:41:50.566Z</time>
      </trkpt>
      <trkpt lat="45.90446" lon="6.33649">
        <ele>1095</ele>
        <time>2026-08-19T05:41:51.566Z</time>
      </trkpt>
      <trkpt lat="45.90445" lon="6.33648">
        <ele>1096</ele>
        <time>2026-08-19T05:41:52.566Z</time>
      </trkpt>
      <trkpt lat="45.90445" lon="6.33648">
        <ele>1096</ele>
        <time>2026-08-19T05:41:53.566Z</time>
      </trkpt>
      <trkpt lat="45.90444" lon="6.33648">
        <ele>1096</ele>
        <time>2026-08-19T05:41:54.566Z</time>
      </trkpt>
      <trkpt lat="45.90444" lon="6.33647">
        <ele>1096</ele>
        <time>2026-08-19T05:41:55.566Z</time>
      </trkpt>
      <trkpt lat="45.90444" lon="6.33646">
        <ele>1096</ele>
        <time>2026-08-19T05:41:56.566Z</time>
      </trkpt>
      <trkpt lat="45.90443" lon="6.33645">
        <ele>1096</ele>
        <time>2026-08-19T05:41:57.566Z</time>
      </trkpt>
      <trkpt lat="45.90443" lon="6.33645">
        <ele>1096</ele>
        <time>2026-08-19T05:41:58.566Z</time>
      </trkpt>
      <trkpt lat="45.90442" lon="6.33644">
        <ele>1096</ele>
        <time>2026-08-19T05:41:59.566Z</time>
      </trkpt>
      <trkpt lat="45.90442" lon="6.33643">
        <ele>1096</ele>
        <time>2026-08-19T05:42:00.566Z</time>
      </trkpt>
      <trkpt lat="45.90442" lon="6.33642">
        <ele>1096</ele>
        <time>2026-08-19T05:42:01.566Z</time>
      </trkpt>
      <trkpt lat="45.90441" lon="6.3364">
        <ele>1095</ele>
        <time>2026-08-19T05:42:02.566Z</time>
      </trkpt>
      <trkpt lat="45.90441" lon="6.33638">
        <ele>1095</ele>
        <time>2026-08-19T05:42:03.566Z</time>
      </trkpt>
      <trkpt lat="45.90441" lon="6.33637">
        <ele>1096</ele>
        <time>2026-08-19T05:42:04.566Z</time>
      </trkpt>
      <trkpt lat="45.90442" lon="6.33636">
        <ele>1096</ele>
        <time>2026-08-19T05:42:05.566Z</time>
      </trkpt>
      <trkpt lat="45.90442" lon="6.33636">
        <ele>1096</ele>
        <time>2026-08-19T05:42:06.566Z</time>
      </trkpt>
      <trkpt lat="45.90442" lon="6.33635">
        <ele>1096</ele>
        <time>2026-08-19T05:42:07.566Z</time>
      </trkpt>
      <trkpt lat="45.90442" lon="6.33633">
        <ele>1096</ele>
        <time>2026-08-19T05:42:08.566Z</time>
      </trkpt>
      <trkpt lat="45.90442" lon="6.33633">
        <ele>1096</ele>
        <time>2026-08-19T05:42:09.566Z</time>
      </trkpt>
      <trkpt lat="45.90442" lon="6.33633">
        <ele>1096</ele>
        <time>2026-08-19T05:42:10.566Z</time>
      </trkpt>
      <trkpt lat="45.90442" lon="6.33633">
        <ele>1096</ele>
        <time>2026-08-19T05:42:11.566Z</time>
      </trkpt>
      <trkpt lat="45.90442" lon="6.33633">
        <ele>1096</ele>
        <time>2026-08-19T05:42:12.566Z</time>
      </trkpt>
      <trkpt lat="45.90441" lon="6.33632">
        <ele>1096</ele>
        <time>2026-08-19T05:42:13.566Z</time>
      </trkpt>
      <trkpt lat="45.90441" lon="6.33631">
        <ele>1096</ele>
        <time>2026-08-19T05:42:14.567Z</time>
      </trkpt>
      <trkpt lat="45.90441" lon="6.33631">
        <ele>1097</ele>
        <time>2026-08-19T05:42:15.566Z</time>
      </trkpt>
      <trkpt lat="45.9044" lon="6.33629">
        <ele>1097</ele>
        <time>2026-08-19T05:42:16.566Z</time>
      </trkpt>
      <trkpt lat="45.90439" lon="6.33628">
        <ele>1097</ele>
        <time>2026-08-19T05:42:17.566Z</time>
      </trkpt>
      <trkpt lat="45.90438" lon="6.33626">
        <ele>1098</ele>
        <time>2026-08-19T05:42:18.566Z</time>
      </trkpt>
      <trkpt lat="45.90438" lon="6.33625">
        <ele>1098</ele>
        <time>2026-08-19T05:42:19.566Z</time>
      </trkpt>
      <trkpt lat="45.90437" lon="6.33624">
        <ele>1098</ele>
        <time>2026-08-19T05:42:20.566Z</time>
      </trkpt>
      <trkpt lat="45.90437" lon="6.33623">
        <ele>1099</ele>
        <time>2026-08-19T05:42:21.566Z</time>
      </trkpt>
      <trkpt lat="45.90437" lon="6.33622">
        <ele>1099</ele>
        <time>2026-08-19T05:42:22.566Z</time>
      </trkpt>
      <trkpt lat="45.90436" lon="6.33621">
        <ele>1099</ele>
        <time>2026-08-19T05:42:23.566Z</time>
      </trkpt>
      <trkpt lat="45.90436" lon="6.33621">
        <ele>1100</ele>
        <time>2026-08-19T05:42:24.567Z</time>
      </trkpt>
      <trkpt lat="45.90435" lon="6.3362">
        <ele>1100</ele>
        <time>2026-08-19T05:42:25.567Z</time>
      </trkpt>
      <trkpt lat="45.90435" lon="6.33618">
        <ele>1101</ele>
        <time>2026-08-19T05:42:26.566Z</time>
      </trkpt>
      <trkpt lat="45.90434" lon="6.33617">
        <ele>1101</ele>
        <time>2026-08-19T05:42:27.566Z</time>
      </trkpt>
      <trkpt lat="45.90434" lon="6.33615">
        <ele>1101</ele>
        <time>2026-08-19T05:42:28.566Z</time>
      </trkpt>
      <trkpt lat="45.90434" lon="6.33614">
        <ele>1100</ele>
        <time>2026-08-19T05:42:29.566Z</time>
      </trkpt>
      <trkpt lat="45.90434" lon="6.33613">
        <ele>1100</ele>
        <time>2026-08-19T05:42:30.566Z</time>
      </trkpt>
      <trkpt lat="45.90433" lon="6.33612">
        <ele>1100</ele>
        <time>2026-08-19T05:42:31.566Z</time>
      </trkpt>
      <trkpt lat="45.90432" lon="6.33611">
        <ele>1099</ele>
        <time>2026-08-19T05:42:32.566Z</time>
      </trkpt>
      <trkpt lat="45.90432" lon="6.33609">
        <ele>1099</ele>
        <time>2026-08-19T05:42:33.567Z</time>
      </trkpt>
      <trkpt lat="45.90431" lon="6.33608">
        <ele>1099</ele>
        <time>2026-08-19T05:42:34.566Z</time>
      </trkpt>
      <trkpt lat="45.90431" lon="6.33606">
        <ele>1099</ele>
        <time>2026-08-19T05:42:35.566Z</time>
      </trkpt>
      <trkpt lat="45.9043" lon="6.33604">
        <ele>1099</ele>
        <time>2026-08-19T05:42:36.566Z</time>
      </trkpt>
      <trkpt lat="45.9043" lon="6.33604">
        <ele>1099</ele>
        <time>2026-08-19T05:42:37.566Z</time>
      </trkpt>
      <trkpt lat="45.9043" lon="6.33603">
        <ele>1099</ele>
        <time>2026-08-19T05:42:38.566Z</time>
      </trkpt>
      <trkpt lat="45.9043" lon="6.33601">
        <ele>1099</ele>
        <time>2026-08-19T05:42:39.566Z</time>
      </trkpt>
      <trkpt lat="45.90429" lon="6.33601">
        <ele>1099</ele>
        <time>2026-08-19T05:42:40.566Z</time>
      </trkpt>
      <trkpt lat="45.90429" lon="6.336">
        <ele>1099</ele>
        <time>2026-08-19T05:42:41.566Z</time>
      </trkpt>
      <trkpt lat="45.90429" lon="6.33599">
        <ele>1099</ele>
        <time>2026-08-19T05:42:42.566Z</time>
      </trkpt>
      <trkpt lat="45.90429" lon="6.33597">
        <ele>1099</ele>
        <time>2026-08-19T05:42:43.566Z</time>
      </trkpt>
      <trkpt lat="45.90429" lon="6.33596">
        <ele>1099</ele>
        <time>2026-08-19T05:42:44.566Z</time>
      </trkpt>
      <trkpt lat="45.90429" lon="6.33596">
        <ele>1100</ele>
        <time>2026-08-19T05:42:45.566Z</time>
      </trkpt>
      <trkpt lat="45.90429" lon="6.33595">
        <ele>1100</ele>
        <time>2026-08-19T05:42:46.566Z</time>
      </trkpt>
      <trkpt lat="45.90429" lon="6.33593">
        <ele>1100</ele>
        <time>2026-08-19T05:42:47.566Z</time>
      </trkpt>
      <trkpt lat="45.90429" lon="6.33591">
        <ele>1100</ele>
        <time>2026-08-19T05:42:48.566Z</time>
      </trkpt>
      <trkpt lat="45.90429" lon="6.33589">
        <ele>1101</ele>
        <time>2026-08-19T05:42:49.566Z</time>
      </trkpt>
      <trkpt lat="45.90429" lon="6.33587">
        <ele>1100</ele>
        <time>2026-08-19T05:42:50.566Z</time>
      </trkpt>
      <trkpt lat="45.90429" lon="6.33585">
        <ele>1100</ele>
        <time>2026-08-19T05:42:51.566Z</time>
      </trkpt>
      <trkpt lat="45.90429" lon="6.33583">
        <ele>1101</ele>
        <time>2026-08-19T05:42:52.566Z</time>
      </trkpt>
      <trkpt lat="45.9043" lon="6.33581">
        <ele>1101</ele>
        <time>2026-08-19T05:42:53.566Z</time>
      </trkpt>
      <trkpt lat="45.90431" lon="6.3358">
        <ele>1101</ele>
        <time>2026-08-19T05:42:54.566Z</time>
      </trkpt>
      <trkpt lat="45.90432" lon="6.33579">
        <ele>1101</ele>
        <time>2026-08-19T05:42:55.566Z</time>
      </trkpt>
      <trkpt lat="45.90433" lon="6.33577">
        <ele>1101</ele>
        <time>2026-08-19T05:42:56.566Z</time>
      </trkpt>
      <trkpt lat="45.90434" lon="6.33577">
        <ele>1101</ele>
        <time>2026-08-19T05:42:57.566Z</time>
      </trkpt>
      <trkpt lat="45.90434" lon="6.33576">
        <ele>1102</ele>
        <time>2026-08-19T05:42:58.566Z</time>
      </trkpt>
      <trkpt lat="45.90434" lon="6.33575">
        <ele>1103</ele>
        <time>2026-08-19T05:42:59.566Z</time>
      </trkpt>
      <trkpt lat="45.90434" lon="6.33573">
        <ele>1104</ele>
        <time>2026-08-19T05:43:00.566Z</time>
      </trkpt>
      <trkpt lat="45.90435" lon="6.33571">
        <ele>1104</ele>
        <time>2026-08-19T05:43:01.566Z</time>
      </trkpt>
      <trkpt lat="45.90435" lon="6.33571">
        <ele>1105</ele>
        <time>2026-08-19T05:43:02.566Z</time>
      </trkpt>
      <trkpt lat="45.90436" lon="6.3357">
        <ele>1105</ele>
        <time>2026-08-19T05:43:03.566Z</time>
      </trkpt>
      <trkpt lat="45.90436" lon="6.33569">
        <ele>1106</ele>
        <time>2026-08-19T05:43:04.566Z</time>
      </trkpt>
      <trkpt lat="45.90436" lon="6.33568">
        <ele>1106</ele>
        <time>2026-08-19T05:43:05.566Z</time>
      </trkpt>
      <trkpt lat="45.90437" lon="6.33569">
        <ele>1107</ele>
        <time>2026-08-19T05:43:06.566Z</time>
      </trkpt>
      <trkpt lat="45.90437" lon="6.33569">
        <ele>1108</ele>
        <time>2026-08-19T05:43:07.566Z</time>
      </trkpt>
      <trkpt lat="45.90438" lon="6.3357">
        <ele>1108</ele>
        <time>2026-08-19T05:43:08.566Z</time>
      </trkpt>
      <trkpt lat="45.90439" lon="6.3357">
        <ele>1108</ele>
        <time>2026-08-19T05:43:09.566Z</time>
      </trkpt>
      <trkpt lat="45.9044" lon="6.3357">
        <ele>1108</ele>
        <time>2026-08-19T05:43:10.566Z</time>
      </trkpt>
      <trkpt lat="45.9044" lon="6.33571">
        <ele>1109</ele>
        <time>2026-08-19T05:43:11.566Z</time>
      </trkpt>
      <trkpt lat="45.90441" lon="6.33571">
        <ele>1109</ele>
        <time>2026-08-19T05:43:12.566Z</time>
      </trkpt>
      <trkpt lat="45.90442" lon="6.33572">
        <ele>1109</ele>
        <time>2026-08-19T05:43:13.566Z</time>
      </trkpt>
      <trkpt lat="45.90442" lon="6.33574">
        <ele>1109</ele>
        <time>2026-08-19T05:43:14.566Z</time>
      </trkpt>
      <trkpt lat="45.90442" lon="6.33574">
        <ele>1109</ele>
        <time>2026-08-19T05:43:15.566Z</time>
      </trkpt>
      <trkpt lat="45.90443" lon="6.33575">
        <ele>1109</ele>
        <time>2026-08-19T05:43:16.566Z</time>
      </trkpt>
      <trkpt lat="45.90444" lon="6.33576">
        <ele>1110</ele>
        <time>2026-08-19T05:43:17.566Z</time>
      </trkpt>
      <trkpt lat="45.90445" lon="6.33577">
        <ele>1110</ele>
        <time>2026-08-19T05:43:18.566Z</time>
      </trkpt>
      <trkpt lat="45.90445" lon="6.33578">
        <ele>1110</ele>
        <time>2026-08-19T05:43:19.566Z</time>
      </trkpt>
      <trkpt lat="45.90446" lon="6.33578">
        <ele>1110</ele>
        <time>2026-08-19T05:43:20.566Z</time>
      </trkpt>
      <trkpt lat="45.90446" lon="6.33577">
        <ele>1110</ele>
        <time>2026-08-19T05:43:21.566Z</time>
      </trkpt>
      <trkpt lat="45.90446" lon="6.33577">
        <ele>1110</ele>
        <time>2026-08-19T05:43:22.566Z</time>
      </trkpt>
      <trkpt lat="45.90447" lon="6.33576">
        <ele>1110</ele>
        <time>2026-08-19T05:43:23.566Z</time>
      </trkpt>
      <trkpt lat="45.90447" lon="6.33576">
        <ele>1110</ele>
        <time>2026-08-19T05:43:24.566Z</time>
      </trkpt>
      <trkpt lat="45.90448" lon="6.33576">
        <ele>1111</ele>
        <time>2026-08-19T05:43:25.566Z</time>
      </trkpt>
      <trkpt lat="45.90448" lon="6.33577">
        <ele>1111</ele>
        <time>2026-08-19T05:43:26.566Z</time>
      </trkpt>
      <trkpt lat="45.90449" lon="6.33577">
        <ele>1112</ele>
        <time>2026-08-19T05:43:27.566Z</time>
      </trkpt>
      <trkpt lat="45.9045" lon="6.33578">
        <ele>1113</ele>
        <time>2026-08-19T05:43:28.566Z</time>
      </trkpt>
      <trkpt lat="45.9045" lon="6.33578">
        <ele>1113</ele>
        <time>2026-08-19T05:43:29.566Z</time>
      </trkpt>
      <trkpt lat="45.90451" lon="6.33579">
        <ele>1114</ele>
        <time>2026-08-19T05:43:30.566Z</time>
      </trkpt>
      <trkpt lat="45.90451" lon="6.33579">
        <ele>1115</ele>
        <time>2026-08-19T05:43:31.566Z</time>
      </trkpt>
      <trkpt lat="45.90452" lon="6.3358">
        <ele>1116</ele>
        <time>2026-08-19T05:43:32.566Z</time>
      </trkpt>
      <trkpt lat="45.90453" lon="6.3358">
        <ele>1116</ele>
        <time>2026-08-19T05:43:33.566Z</time>
      </trkpt>
      <trkpt lat="45.90454" lon="6.3358">
        <ele>1117</ele>
        <time>2026-08-19T05:43:34.566Z</time>
      </trkpt>
      <trkpt lat="45.90454" lon="6.3358">
        <ele>1117</ele>
        <time>2026-08-19T05:43:35.566Z</time>
      </trkpt>
      <trkpt lat="45.90454" lon="6.33579">
        <ele>1118</ele>
        <time>2026-08-19T05:43:36.566Z</time>
      </trkpt>
      <trkpt lat="45.90455" lon="6.33578">
        <ele>1118</ele>
        <time>2026-08-19T05:43:37.566Z</time>
      </trkpt>
      <trkpt lat="45.90455" lon="6.33577">
        <ele>1119</ele>
        <time>2026-08-19T05:43:38.566Z</time>
      </trkpt>
      <trkpt lat="45.90456" lon="6.33576">
        <ele>1119</ele>
        <time>2026-08-19T05:43:39.566Z</time>
      </trkpt>
      <trkpt lat="45.90456" lon="6.33576">
        <ele>1119</ele>
        <time>2026-08-19T05:43:40.566Z</time>
      </trkpt>
      <trkpt lat="45.90456" lon="6.33575">
        <ele>1119</ele>
        <time>2026-08-19T05:43:41.566Z</time>
      </trkpt>
      <trkpt lat="45.90456" lon="6.33574">
        <ele>1119</ele>
        <time>2026-08-19T05:43:42.566Z</time>
      </trkpt>
      <trkpt lat="45.90456" lon="6.33574">
        <ele>1118</ele>
        <time>2026-08-19T05:43:43.566Z</time>
      </trkpt>
      <trkpt lat="45.90456" lon="6.33573">
        <ele>1117</ele>
        <time>2026-08-19T05:43:44.566Z</time>
      </trkpt>
      <trkpt lat="45.90456" lon="6.33572">
        <ele>1116</ele>
        <time>2026-08-19T05:43:45.566Z</time>
      </trkpt>
      <trkpt lat="45.90456" lon="6.33571">
        <ele>1116</ele>
        <time>2026-08-19T05:43:46.566Z</time>
      </trkpt>
      <trkpt lat="45.90456" lon="6.33569">
        <ele>1115</ele>
        <time>2026-08-19T05:43:47.566Z</time>
      </trkpt>
      <trkpt lat="45.90456" lon="6.33568">
        <ele>1114</ele>
        <time>2026-08-19T05:43:48.566Z</time>
      </trkpt>
      <trkpt lat="45.90456" lon="6.33567">
        <ele>1114</ele>
        <time>2026-08-19T05:43:49.566Z</time>
      </trkpt>
      <trkpt lat="45.90457" lon="6.33566">
        <ele>1113</ele>
        <time>2026-08-19T05:43:50.566Z</time>
      </trkpt>
      <trkpt lat="45.90457" lon="6.33565">
        <ele>1113</ele>
        <time>2026-08-19T05:43:51.566Z</time>
      </trkpt>
      <trkpt lat="45.90458" lon="6.33565">
        <ele>1112</ele>
        <time>2026-08-19T05:43:52.566Z</time>
      </trkpt>
      <trkpt lat="45.90458" lon="6.33564">
        <ele>1112</ele>
        <time>2026-08-19T05:43:53.566Z</time>
      </trkpt>
      <trkpt lat="45.90459" lon="6.33564">
        <ele>1112</ele>
        <time>2026-08-19T05:43:54.566Z</time>
      </trkpt>
      <trkpt lat="45.90459" lon="6.33563">
        <ele>1112</ele>
        <time>2026-08-19T05:43:55.566Z</time>
      </trkpt>
      <trkpt lat="45.9046" lon="6.33562">
        <ele>1112</ele>
        <time>2026-08-19T05:43:56.566Z</time>
      </trkpt>
      <trkpt lat="45.90461" lon="6.33562">
        <ele>1113</ele>
        <time>2026-08-19T05:43:57.566Z</time>
      </trkpt>
      <trkpt lat="45.90461" lon="6.33561">
        <ele>1113</ele>
        <time>2026-08-19T05:43:58.566Z</time>
      </trkpt>
      <trkpt lat="45.90462" lon="6.3356">
        <ele>1114</ele>
        <time>2026-08-19T05:43:59.566Z</time>
      </trkpt>
      <trkpt lat="45.90463" lon="6.3356">
        <ele>1114</ele>
        <time>2026-08-19T05:44:00.566Z</time>
      </trkpt>
      <trkpt lat="45.90463" lon="6.33559">
        <ele>1115</ele>
        <time>2026-08-19T05:44:01.566Z</time>
      </trkpt>
      <trkpt lat="45.90464" lon="6.33559">
        <ele>1115</ele>
        <time>2026-08-19T05:44:02.566Z</time>
      </trkpt>
      <trkpt lat="45.90465" lon="6.33559">
        <ele>1116</ele>
        <time>2026-08-19T05:44:03.566Z</time>
      </trkpt>
      <trkpt lat="45.90466" lon="6.33559">
        <ele>1116</ele>
        <time>2026-08-19T05:44:04.566Z</time>
      </trkpt>
      <trkpt lat="45.90466" lon="6.3356">
        <ele>1117</ele>
        <time>2026-08-19T05:44:05.566Z</time>
      </trkpt>
      <trkpt lat="45.90467" lon="6.3356">
        <ele>1118</ele>
        <time>2026-08-19T05:44:06.566Z</time>
      </trkpt>
      <trkpt lat="45.90467" lon="6.3356">
        <ele>1118</ele>
        <time>2026-08-19T05:44:07.566Z</time>
      </trkpt>
      <trkpt lat="45.90468" lon="6.33561">
        <ele>1119</ele>
        <time>2026-08-19T05:44:08.566Z</time>
      </trkpt>
      <trkpt lat="45.90468" lon="6.33561">
        <ele>1119</ele>
        <time>2026-08-19T05:44:09.566Z</time>
      </trkpt>
      <trkpt lat="45.90468" lon="6.33561">
        <ele>1120</ele>
        <time>2026-08-19T05:44:10.566Z</time>
      </trkpt>
      <trkpt lat="45.90469" lon="6.33561">
        <ele>1120</ele>
        <time>2026-08-19T05:44:11.566Z</time>
      </trkpt>
      <trkpt lat="45.9047" lon="6.3356">
        <ele>1120</ele>
        <time>2026-08-19T05:44:12.566Z</time>
      </trkpt>
      <trkpt lat="45.9047" lon="6.3356">
        <ele>1121</ele>
        <time>2026-08-19T05:44:13.566Z</time>
      </trkpt>
      <trkpt lat="45.9047" lon="6.33559">
        <ele>1122</ele>
        <time>2026-08-19T05:44:14.566Z</time>
      </trkpt>
      <trkpt lat="45.90471" lon="6.33559">
        <ele>1122</ele>
        <time>2026-08-19T05:44:15.566Z</time>
      </trkpt>
      <trkpt lat="45.90471" lon="6.33559">
        <ele>1123</ele>
        <time>2026-08-19T05:44:16.566Z</time>
      </trkpt>
      <trkpt lat="45.90471" lon="6.33559">
        <ele>1124</ele>
        <time>2026-08-19T05:44:17.566Z</time>
      </trkpt>
      <trkpt lat="45.90472" lon="6.33559">
        <ele>1124</ele>
        <time>2026-08-19T05:44:18.566Z</time>
      </trkpt>
      <trkpt lat="45.90473" lon="6.3356">
        <ele>1125</ele>
        <time>2026-08-19T05:44:19.566Z</time>
      </trkpt>
      <trkpt lat="45.90473" lon="6.33561">
        <ele>1125</ele>
        <time>2026-08-19T05:44:20.566Z</time>
      </trkpt>
      <trkpt lat="45.90473" lon="6.33563">
        <ele>1125</ele>
        <time>2026-08-19T05:44:21.566Z</time>
      </trkpt>
      <trkpt lat="45.90473" lon="6.33564">
        <ele>1125</ele>
        <time>2026-08-19T05:44:22.566Z</time>
      </trkpt>
      <trkpt lat="45.90473" lon="6.33564">
        <ele>1125</ele>
        <time>2026-08-19T05:44:23.566Z</time>
      </trkpt>
      <trkpt lat="45.90473" lon="6.33565">
        <ele>1125</ele>
        <time>2026-08-19T05:44:24.566Z</time>
      </trkpt>
      <trkpt lat="45.90473" lon="6.33566">
        <ele>1124</ele>
        <time>2026-08-19T05:44:25.566Z</time>
      </trkpt>
      <trkpt lat="45.90474" lon="6.33566">
        <ele>1124</ele>
        <time>2026-08-19T05:44:26.566Z</time>
      </trkpt>
      <trkpt lat="45.90475" lon="6.33566">
        <ele>1124</ele>
        <time>2026-08-19T05:44:27.566Z</time>
      </trkpt>
      <trkpt lat="45.90475" lon="6.33566">
        <ele>1123</ele>
        <time>2026-08-19T05:44:28.566Z</time>
      </trkpt>
      <trkpt lat="45.90476" lon="6.33566">
        <ele>1123</ele>
        <time>2026-08-19T05:44:29.566Z</time>
      </trkpt>
      <trkpt lat="45.90477" lon="6.33566">
        <ele>1123</ele>
        <time>2026-08-19T05:44:30.566Z</time>
      </trkpt>
      <trkpt lat="45.90479" lon="6.33566">
        <ele>1123</ele>
        <time>2026-08-19T05:44:31.566Z</time>
      </trkpt>
      <trkpt lat="45.90479" lon="6.33566">
        <ele>1123</ele>
        <time>2026-08-19T05:44:32.566Z</time>
      </trkpt>
      <trkpt lat="45.9048" lon="6.33567">
        <ele>1122</ele>
        <time>2026-08-19T05:44:33.566Z</time>
      </trkpt>
      <trkpt lat="45.90482" lon="6.33568">
        <ele>1122</ele>
        <time>2026-08-19T05:44:34.566Z</time>
      </trkpt>
      <trkpt lat="45.90483" lon="6.33568">
        <ele>1123</ele>
        <time>2026-08-19T05:44:35.566Z</time>
      </trkpt>
      <trkpt lat="45.90483" lon="6.33569">
        <ele>1123</ele>
        <time>2026-08-19T05:44:36.566Z</time>
      </trkpt>
      <trkpt lat="45.90483" lon="6.3357">
        <ele>1124</ele>
        <time>2026-08-19T05:44:37.566Z</time>
      </trkpt>
      <trkpt lat="45.90484" lon="6.3357">
        <ele>1124</ele>
        <time>2026-08-19T05:44:38.566Z</time>
      </trkpt>
      <trkpt lat="45.90484" lon="6.3357">
        <ele>1124</ele>
        <time>2026-08-19T05:44:39.566Z</time>
      </trkpt>
      <trkpt lat="45.90485" lon="6.3357">
        <ele>1124</ele>
        <time>2026-08-19T05:44:40.566Z</time>
      </trkpt>
      <trkpt lat="45.90486" lon="6.33571">
        <ele>1124</ele>
        <time>2026-08-19T05:44:41.566Z</time>
      </trkpt>
      <trkpt lat="45.90487" lon="6.33571">
        <ele>1124</ele>
        <time>2026-08-19T05:44:42.566Z</time>
      </trkpt>
      <trkpt lat="45.90488" lon="6.33571">
        <ele>1124</ele>
        <time>2026-08-19T05:44:43.566Z</time>
      </trkpt>
      <trkpt lat="45.90488" lon="6.33572">
        <ele>1124</ele>
        <time>2026-08-19T05:44:44.566Z</time>
      </trkpt>
      <trkpt lat="45.90489" lon="6.33572">
        <ele>1124</ele>
        <time>2026-08-19T05:44:45.566Z</time>
      </trkpt>
      <trkpt lat="45.9049" lon="6.33572">
        <ele>1124</ele>
        <time>2026-08-19T05:44:46.566Z</time>
      </trkpt>
      <trkpt lat="45.90491" lon="6.33572">
        <ele>1124</ele>
        <time>2026-08-19T05:44:47.566Z</time>
      </trkpt>
      <trkpt lat="45.90492" lon="6.33572">
        <ele>1125</ele>
        <time>2026-08-19T05:44:48.566Z</time>
      </trkpt>
      <trkpt lat="45.90493" lon="6.33571">
        <ele>1125</ele>
        <time>2026-08-19T05:44:49.566Z</time>
      </trkpt>
      <trkpt lat="45.90495" lon="6.33571">
        <ele>1125</ele>
        <time>2026-08-19T05:44:50.566Z</time>
      </trkpt>
      <trkpt lat="45.90496" lon="6.33571">
        <ele>1125</ele>
        <time>2026-08-19T05:44:51.566Z</time>
      </trkpt>
      <trkpt lat="45.90497" lon="6.33572">
        <ele>1124</ele>
        <time>2026-08-19T05:44:52.566Z</time>
      </trkpt>
      <trkpt lat="45.90498" lon="6.33572">
        <ele>1125</ele>
        <time>2026-08-19T05:44:53.566Z</time>
      </trkpt>
      <trkpt lat="45.90499" lon="6.33573">
        <ele>1125</ele>
        <time>2026-08-19T05:44:54.566Z</time>
      </trkpt>
      <trkpt lat="45.905" lon="6.33573">
        <ele>1125</ele>
        <time>2026-08-19T05:44:55.566Z</time>
      </trkpt>
      <trkpt lat="45.90501" lon="6.33573">
        <ele>1124</ele>
        <time>2026-08-19T05:44:56.566Z</time>
      </trkpt>
      <trkpt lat="45.90501" lon="6.33573">
        <ele>1124</ele>
        <time>2026-08-19T05:44:57.566Z</time>
      </trkpt>
      <trkpt lat="45.90502" lon="6.33573">
        <ele>1125</ele>
        <time>2026-08-19T05:44:58.566Z</time>
      </trkpt>
      <trkpt lat="45.90503" lon="6.33573">
        <ele>1125</ele>
        <time>2026-08-19T05:44:59.566Z</time>
      </trkpt>
      <trkpt lat="45.90504" lon="6.33574">
        <ele>1125</ele>
        <time>2026-08-19T05:45:00.566Z</time>
      </trkpt>
      <trkpt lat="45.90505" lon="6.33575">
        <ele>1125</ele>
        <time>2026-08-19T05:45:01.566Z</time>
      </trkpt>
      <trkpt lat="45.90506" lon="6.33575">
        <ele>1125</ele>
        <time>2026-08-19T05:45:02.566Z</time>
      </trkpt>
      <trkpt lat="45.90507" lon="6.33575">
        <ele>1125</ele>
        <time>2026-08-19T05:45:03.566Z</time>
      </trkpt>
      <trkpt lat="45.90508" lon="6.33574">
        <ele>1125</ele>
        <time>2026-08-19T05:45:04.566Z</time>
      </trkpt>
      <trkpt lat="45.90509" lon="6.33574">
        <ele>1125</ele>
        <time>2026-08-19T05:45:05.566Z</time>
      </trkpt>
      <trkpt lat="45.90511" lon="6.33574">
        <ele>1125</ele>
        <time>2026-08-19T05:45:06.566Z</time>
      </trkpt>
      <trkpt lat="45.90512" lon="6.33573">
        <ele>1125</ele>
        <time>2026-08-19T05:45:07.566Z</time>
      </trkpt>
      <trkpt lat="45.90513" lon="6.33573">
        <ele>1125</ele>
        <time>2026-08-19T05:45:08.566Z</time>
      </trkpt>
      <trkpt lat="45.90515" lon="6.33573">
        <ele>1125</ele>
        <time>2026-08-19T05:45:09.566Z</time>
      </trkpt>
      <trkpt lat="45.90516" lon="6.33573">
        <ele>1125</ele>
        <time>2026-08-19T05:45:10.566Z</time>
      </trkpt>
      <trkpt lat="45.90518" lon="6.33572">
        <ele>1124</ele>
        <time>2026-08-19T05:45:11.566Z</time>
      </trkpt>
      <trkpt lat="45.90519" lon="6.33573">
        <ele>1124</ele>
        <time>2026-08-19T05:45:12.566Z</time>
      </trkpt>
      <trkpt lat="45.9052" lon="6.33573">
        <ele>1124</ele>
        <time>2026-08-19T05:45:13.566Z</time>
      </trkpt>
      <trkpt lat="45.90521" lon="6.33574">
        <ele>1124</ele>
        <time>2026-08-19T05:45:14.566Z</time>
      </trkpt>
      <trkpt lat="45.90521" lon="6.33574">
        <ele>1124</ele>
        <time>2026-08-19T05:45:15.566Z</time>
      </trkpt>
      <trkpt lat="45.90522" lon="6.33575">
        <ele>1124</ele>
        <time>2026-08-19T05:45:16.566Z</time>
      </trkpt>
      <trkpt lat="45.90523" lon="6.33575">
        <ele>1125</ele>
        <time>2026-08-19T05:45:17.566Z</time>
      </trkpt>
      <trkpt lat="45.90525" lon="6.33576">
        <ele>1125</ele>
        <time>2026-08-19T05:45:18.566Z</time>
      </trkpt>
      <trkpt lat="45.90528" lon="6.33577">
        <ele>1125</ele>
        <time>2026-08-19T05:45:19.566Z</time>
      </trkpt>
      <trkpt lat="45.90528" lon="6.33578">
        <ele>1125</ele>
        <time>2026-08-19T05:45:20.566Z</time>
      </trkpt>
      <trkpt lat="45.90528" lon="6.33579">
        <ele>1126</ele>
        <time>2026-08-19T05:45:21.566Z</time>
      </trkpt>
      <trkpt lat="45.90529" lon="6.3358">
        <ele>1126</ele>
        <time>2026-08-19T05:45:22.566Z</time>
      </trkpt>
      <trkpt lat="45.90529" lon="6.3358">
        <ele>1126</ele>
        <time>2026-08-19T05:45:23.566Z</time>
      </trkpt>
      <trkpt lat="45.9053" lon="6.3358">
        <ele>1126</ele>
        <time>2026-08-19T05:45:24.566Z</time>
      </trkpt>
      <trkpt lat="45.90531" lon="6.3358">
        <ele>1126</ele>
        <time>2026-08-19T05:45:25.566Z</time>
      </trkpt>
      <trkpt lat="45.90532" lon="6.3358">
        <ele>1126</ele>
        <time>2026-08-19T05:45:26.566Z</time>
      </trkpt>
      <trkpt lat="45.90532" lon="6.33581">
        <ele>1125</ele>
        <time>2026-08-19T05:45:27.566Z</time>
      </trkpt>
      <trkpt lat="45.90533" lon="6.33581">
        <ele>1125</ele>
        <time>2026-08-19T05:45:28.566Z</time>
      </trkpt>
      <trkpt lat="45.90534" lon="6.33581">
        <ele>1125</ele>
        <time>2026-08-19T05:45:29.566Z</time>
      </trkpt>
      <trkpt lat="45.90534" lon="6.33582">
        <ele>1126</ele>
        <time>2026-08-19T05:45:30.566Z</time>
      </trkpt>
      <trkpt lat="45.90535" lon="6.33582">
        <ele>1127</ele>
        <time>2026-08-19T05:45:31.566Z</time>
      </trkpt>
      <trkpt lat="45.90535" lon="6.33583">
        <ele>1128</ele>
        <time>2026-08-19T05:45:32.566Z</time>
      </trkpt>
      <trkpt lat="45.90536" lon="6.33584">
        <ele>1128</ele>
        <time>2026-08-19T05:45:33.566Z</time>
      </trkpt>
      <trkpt lat="45.90536" lon="6.33586">
        <ele>1129</ele>
        <time>2026-08-19T05:45:34.566Z</time>
      </trkpt>
      <trkpt lat="45.90536" lon="6.33586">
        <ele>1129</ele>
        <time>2026-08-19T05:45:35.566Z</time>
      </trkpt>
      <trkpt lat="45.90536" lon="6.33587">
        <ele>1130</ele>
        <time>2026-08-19T05:45:36.566Z</time>
      </trkpt>
      <trkpt lat="45.90537" lon="6.33588">
        <ele>1130</ele>
        <time>2026-08-19T05:45:37.566Z</time>
      </trkpt>
      <trkpt lat="45.90538" lon="6.33589">
        <ele>1131</ele>
        <time>2026-08-19T05:45:38.566Z</time>
      </trkpt>
      <trkpt lat="45.90538" lon="6.3359">
        <ele>1131</ele>
        <time>2026-08-19T05:45:39.566Z</time>
      </trkpt>
      <trkpt lat="45.90539" lon="6.33591">
        <ele>1131</ele>
        <time>2026-08-19T05:45:40.566Z</time>
      </trkpt>
      <trkpt lat="45.9054" lon="6.33591">
        <ele>1132</ele>
        <time>2026-08-19T05:45:41.566Z</time>
      </trkpt>
      <trkpt lat="45.90541" lon="6.33592">
        <ele>1132</ele>
        <time>2026-08-19T05:45:42.566Z</time>
      </trkpt>
      <trkpt lat="45.90542" lon="6.33593">
        <ele>1133</ele>
        <time>2026-08-19T05:45:43.566Z</time>
      </trkpt>
      <trkpt lat="45.90543" lon="6.33594">
        <ele>1133</ele>
        <time>2026-08-19T05:45:44.566Z</time>
      </trkpt>
      <trkpt lat="45.90544" lon="6.33594">
        <ele>1134</ele>
        <time>2026-08-19T05:45:45.566Z</time>
      </trkpt>
      <trkpt lat="45.90545" lon="6.33596">
        <ele>1134</ele>
        <time>2026-08-19T05:45:46.566Z</time>
      </trkpt>
      <trkpt lat="45.90546" lon="6.33597">
        <ele>1134</ele>
        <time>2026-08-19T05:45:47.566Z</time>
      </trkpt>
      <trkpt lat="45.90547" lon="6.33598">
        <ele>1134</ele>
        <time>2026-08-19T05:45:48.566Z</time>
      </trkpt>
      <trkpt lat="45.90548" lon="6.33599">
        <ele>1134</ele>
        <time>2026-08-19T05:45:49.566Z</time>
      </trkpt>
      <trkpt lat="45.90549" lon="6.33601">
        <ele>1135</ele>
        <time>2026-08-19T05:45:50.566Z</time>
      </trkpt>
      <trkpt lat="45.9055" lon="6.33601">
        <ele>1135</ele>
        <time>2026-08-19T05:45:51.566Z</time>
      </trkpt>
      <trkpt lat="45.90551" lon="6.33602">
        <ele>1135</ele>
        <time>2026-08-19T05:45:52.566Z</time>
      </trkpt>
      <trkpt lat="45.90552" lon="6.33603">
        <ele>1135</ele>
        <time>2026-08-19T05:45:53.566Z</time>
      </trkpt>
      <trkpt lat="45.90554" lon="6.33604">
        <ele>1135</ele>
        <time>2026-08-19T05:45:54.566Z</time>
      </trkpt>
      <trkpt lat="45.90555" lon="6.33604">
        <ele>1136</ele>
        <time>2026-08-19T05:45:55.566Z</time>
      </trkpt>
      <trkpt lat="45.90557" lon="6.33605">
        <ele>1136</ele>
        <time>2026-08-19T05:45:56.566Z</time>
      </trkpt>
      <trkpt lat="45.90558" lon="6.33606">
        <ele>1136</ele>
        <time>2026-08-19T05:45:57.566Z</time>
      </trkpt>
      <trkpt lat="45.90559" lon="6.33606">
        <ele>1137</ele>
        <time>2026-08-19T05:45:58.566Z</time>
      </trkpt>
      <trkpt lat="45.9056" lon="6.33607">
        <ele>1137</ele>
        <time>2026-08-19T05:45:59.566Z</time>
      </trkpt>
      <trkpt lat="45.90561" lon="6.33607">
        <ele>1138</ele>
        <time>2026-08-19T05:46:00.566Z</time>
      </trkpt>
      <trkpt lat="45.90562" lon="6.33606">
        <ele>1139</ele>
        <time>2026-08-19T05:46:01.566Z</time>
      </trkpt>
      <trkpt lat="45.90562" lon="6.33607">
        <ele>1140</ele>
        <time>2026-08-19T05:46:02.566Z</time>
      </trkpt>
      <trkpt lat="45.90563" lon="6.33606">
        <ele>1141</ele>
        <time>2026-08-19T05:46:03.566Z</time>
      </trkpt>
      <trkpt lat="45.90564" lon="6.33607">
        <ele>1142</ele>
        <time>2026-08-19T05:46:04.566Z</time>
      </trkpt>
      <trkpt lat="45.90565" lon="6.33607">
        <ele>1143</ele>
        <time>2026-08-19T05:46:05.566Z</time>
      </trkpt>
      <trkpt lat="45.90565" lon="6.33607">
        <ele>1144</ele>
        <time>2026-08-19T05:46:06.566Z</time>
      </trkpt>
      <trkpt lat="45.90565" lon="6.33607">
        <ele>1145</ele>
        <time>2026-08-19T05:46:07.566Z</time>
      </trkpt>
      <trkpt lat="45.90566" lon="6.33606">
        <ele>1146</ele>
        <time>2026-08-19T05:46:08.566Z</time>
      </trkpt>
      <trkpt lat="45.90566" lon="6.33606">
        <ele>1147</ele>
        <time>2026-08-19T05:46:09.566Z</time>
      </trkpt>
      <trkpt lat="45.90566" lon="6.33605">
        <ele>1148</ele>
        <time>2026-08-19T05:46:10.566Z</time>
      </trkpt>
      <trkpt lat="45.90567" lon="6.33604">
        <ele>1149</ele>
        <time>2026-08-19T05:46:11.566Z</time>
      </trkpt>
      <trkpt lat="45.90568" lon="6.33604">
        <ele>1149</ele>
        <time>2026-08-19T05:46:12.567Z</time>
      </trkpt>
      <trkpt lat="45.90568" lon="6.33604">
        <ele>1150</ele>
        <time>2026-08-19T05:46:13.566Z</time>
      </trkpt>
      <trkpt lat="45.90569" lon="6.33603">
        <ele>1150</ele>
        <time>2026-08-19T05:46:14.566Z</time>
      </trkpt>
      <trkpt lat="45.90569" lon="6.33603">
        <ele>1150</ele>
        <time>2026-08-19T05:46:15.566Z</time>
      </trkpt>
      <trkpt lat="45.9057" lon="6.33604">
        <ele>1149</ele>
        <time>2026-08-19T05:46:16.566Z</time>
      </trkpt>
      <trkpt lat="45.90571" lon="6.33603">
        <ele>1150</ele>
        <time>2026-08-19T05:46:17.566Z</time>
      </trkpt>
      <trkpt lat="45.90572" lon="6.33603">
        <ele>1150</ele>
        <time>2026-08-19T05:46:18.566Z</time>
      </trkpt>
      <trkpt lat="45.90572" lon="6.33602">
        <ele>1151</ele>
        <time>2026-08-19T05:46:19.566Z</time>
      </trkpt>
      <trkpt lat="45.90572" lon="6.33602">
        <ele>1152</ele>
        <time>2026-08-19T05:46:20.566Z</time>
      </trkpt>
      <trkpt lat="45.90573" lon="6.33601">
        <ele>1153</ele>
        <time>2026-08-19T05:46:21.566Z</time>
      </trkpt>
      <trkpt lat="45.90573" lon="6.33601">
        <ele>1153</ele>
        <time>2026-08-19T05:46:22.566Z</time>
      </trkpt>
      <trkpt lat="45.90575" lon="6.33601">
        <ele>1154</ele>
        <time>2026-08-19T05:46:23.566Z</time>
      </trkpt>
      <trkpt lat="45.90576" lon="6.33602">
        <ele>1154</ele>
        <time>2026-08-19T05:46:24.566Z</time>
      </trkpt>
      <trkpt lat="45.90577" lon="6.33602">
        <ele>1154</ele>
        <time>2026-08-19T05:46:25.566Z</time>
      </trkpt>
      <trkpt lat="45.90577" lon="6.33601">
        <ele>1155</ele>
        <time>2026-08-19T05:46:26.566Z</time>
      </trkpt>
      <trkpt lat="45.90577" lon="6.336">
        <ele>1156</ele>
        <time>2026-08-19T05:46:27.566Z</time>
      </trkpt>
      <trkpt lat="45.90577" lon="6.336">
        <ele>1157</ele>
        <time>2026-08-19T05:46:28.566Z</time>
      </trkpt>
      <trkpt lat="45.90578" lon="6.33599">
        <ele>1158</ele>
        <time>2026-08-19T05:46:29.566Z</time>
      </trkpt>
      <trkpt lat="45.90578" lon="6.33598">
        <ele>1158</ele>
        <time>2026-08-19T05:46:30.566Z</time>
      </trkpt>
      <trkpt lat="45.90579" lon="6.33598">
        <ele>1159</ele>
        <time>2026-08-19T05:46:31.566Z</time>
      </trkpt>
      <trkpt lat="45.90581" lon="6.33598">
        <ele>1159</ele>
        <time>2026-08-19T05:46:32.566Z</time>
      </trkpt>
      <trkpt lat="45.90582" lon="6.33598">
        <ele>1160</ele>
        <time>2026-08-19T05:46:33.566Z</time>
      </trkpt>
      <trkpt lat="45.90583" lon="6.33599">
        <ele>1159</ele>
        <time>2026-08-19T05:46:34.566Z</time>
      </trkpt>
      <trkpt lat="45.90585" lon="6.33599">
        <ele>1159</ele>
        <time>2026-08-19T05:46:35.566Z</time>
      </trkpt>
      <trkpt lat="45.90587" lon="6.336">
        <ele>1158</ele>
        <time>2026-08-19T05:46:36.566Z</time>
      </trkpt>
      <trkpt lat="45.90588" lon="6.33601">
        <ele>1157</ele>
        <time>2026-08-19T05:46:37.566Z</time>
      </trkpt>
      <trkpt lat="45.90589" lon="6.33603">
        <ele>1156</ele>
        <time>2026-08-19T05:46:38.566Z</time>
      </trkpt>
      <trkpt lat="45.9059" lon="6.33604">
        <ele>1155</ele>
        <time>2026-08-19T05:46:39.566Z</time>
      </trkpt>
      <trkpt lat="45.90591" lon="6.33605">
        <ele>1154</ele>
        <time>2026-08-19T05:46:40.566Z</time>
      </trkpt>
      <trkpt lat="45.90591" lon="6.33607">
        <ele>1153</ele>
        <time>2026-08-19T05:46:41.566Z</time>
      </trkpt>
      <trkpt lat="45.90591" lon="6.33609">
        <ele>1152</ele>
        <time>2026-08-19T05:46:42.566Z</time>
      </trkpt>
      <trkpt lat="45.90591" lon="6.33611">
        <ele>1151</ele>
        <time>2026-08-19T05:46:43.566Z</time>
      </trkpt>
      <trkpt lat="45.90592" lon="6.33614">
        <ele>1151</ele>
        <time>2026-08-19T05:46:44.566Z</time>
      </trkpt>
      <trkpt lat="45.90592" lon="6.33617">
        <ele>1150</ele>
        <time>2026-08-19T05:46:45.566Z</time>
      </trkpt>
      <trkpt lat="45.90592" lon="6.3362">
        <ele>1150</ele>
        <time>2026-08-19T05:46:46.566Z</time>
      </trkpt>
      <trkpt lat="45.90592" lon="6.33622">
        <ele>1149</ele>
        <time>2026-08-19T05:46:47.566Z</time>
      </trkpt>
      <trkpt lat="45.90593" lon="6.33624">
        <ele>1149</ele>
        <time>2026-08-19T05:46:48.566Z</time>
      </trkpt>
      <trkpt lat="45.90594" lon="6.33626">
        <ele>1149</ele>
        <time>2026-08-19T05:46:49.566Z</time>
      </trkpt>
      <trkpt lat="45.90595" lon="6.33628">
        <ele>1149</ele>
        <time>2026-08-19T05:46:50.566Z</time>
      </trkpt>
      <trkpt lat="45.90597" lon="6.3363">
        <ele>1149</ele>
        <time>2026-08-19T05:46:51.566Z</time>
      </trkpt>
      <trkpt lat="45.90598" lon="6.33632">
        <ele>1150</ele>
        <time>2026-08-19T05:46:52.566Z</time>
      </trkpt>
      <trkpt lat="45.906" lon="6.33633">
        <ele>1151</ele>
        <time>2026-08-19T05:46:53.566Z</time>
      </trkpt>
      <trkpt lat="45.90602" lon="6.33633">
        <ele>1151</ele>
        <time>2026-08-19T05:46:54.566Z</time>
      </trkpt>
      <trkpt lat="45.90603" lon="6.33634">
        <ele>1152</ele>
        <time>2026-08-19T05:46:55.566Z</time>
      </trkpt>
      <trkpt lat="45.90605" lon="6.33634">
        <ele>1152</ele>
        <time>2026-08-19T05:46:56.566Z</time>
      </trkpt>
      <trkpt lat="45.90606" lon="6.33635">
        <ele>1153</ele>
        <time>2026-08-19T05:46:57.566Z</time>
      </trkpt>
      <trkpt lat="45.90608" lon="6.33635">
        <ele>1153</ele>
        <time>2026-08-19T05:46:58.566Z</time>
      </trkpt>
      <trkpt lat="45.90609" lon="6.33636">
        <ele>1154</ele>
        <time>2026-08-19T05:46:59.566Z</time>
      </trkpt>
      <trkpt lat="45.90611" lon="6.33637">
        <ele>1154</ele>
        <time>2026-08-19T05:47:00.566Z</time>
      </trkpt>
      <trkpt lat="45.90612" lon="6.33638">
        <ele>1155</ele>
        <time>2026-08-19T05:47:01.566Z</time>
      </trkpt>
      <trkpt lat="45.90613" lon="6.33639">
        <ele>1156</ele>
        <time>2026-08-19T05:47:02.566Z</time>
      </trkpt>
      <trkpt lat="45.90614" lon="6.3364">
        <ele>1157</ele>
        <time>2026-08-19T05:47:03.566Z</time>
      </trkpt>
      <trkpt lat="45.90615" lon="6.3364">
        <ele>1157</ele>
        <time>2026-08-19T05:47:04.566Z</time>
      </trkpt>
      <trkpt lat="45.90616" lon="6.33641">
        <ele>1158</ele>
        <time>2026-08-19T05:47:05.566Z</time>
      </trkpt>
      <trkpt lat="45.90617" lon="6.33642">
        <ele>1159</ele>
        <time>2026-08-19T05:47:06.566Z</time>
      </trkpt>
      <trkpt lat="45.90618" lon="6.33643">
        <ele>1159</ele>
        <time>2026-08-19T05:47:07.566Z</time>
      </trkpt>
      <trkpt lat="45.90618" lon="6.33645">
        <ele>1160</ele>
        <time>2026-08-19T05:47:08.566Z</time>
      </trkpt>
      <trkpt lat="45.90618" lon="6.33647">
        <ele>1160</ele>
        <time>2026-08-19T05:47:09.566Z</time>
      </trkpt>
      <trkpt lat="45.90618" lon="6.3365">
        <ele>1161</ele>
        <time>2026-08-19T05:47:10.566Z</time>
      </trkpt>
      <trkpt lat="45.90618" lon="6.33652">
        <ele>1161</ele>
        <time>2026-08-19T05:47:11.566Z</time>
      </trkpt>
      <trkpt lat="45.90618" lon="6.33654">
        <ele>1161</ele>
        <time>2026-08-19T05:47:12.566Z</time>
      </trkpt>
      <trkpt lat="45.90619" lon="6.33657">
        <ele>1161</ele>
        <time>2026-08-19T05:47:13.566Z</time>
      </trkpt>
      <trkpt lat="45.90619" lon="6.33659">
        <ele>1160</ele>
        <time>2026-08-19T05:47:14.566Z</time>
      </trkpt>
      <trkpt lat="45.9062" lon="6.33661">
        <ele>1159</ele>
        <time>2026-08-19T05:47:15.566Z</time>
      </trkpt>
      <trkpt lat="45.9062" lon="6.33663">
        <ele>1159</ele>
        <time>2026-08-19T05:47:16.566Z</time>
      </trkpt>
      <trkpt lat="45.90621" lon="6.33664">
        <ele>1158</ele>
        <time>2026-08-19T05:47:17.566Z</time>
      </trkpt>
      <trkpt lat="45.90621" lon="6.33665">
        <ele>1157</ele>
        <time>2026-08-19T05:47:18.566Z</time>
      </trkpt>
      <trkpt lat="45.90621" lon="6.33667">
        <ele>1156</ele>
        <time>2026-08-19T05:47:19.566Z</time>
      </trkpt>
      <trkpt lat="45.90621" lon="6.33667">
        <ele>1156</ele>
        <time>2026-08-19T05:47:20.566Z</time>
      </trkpt>
      <trkpt lat="45.90621" lon="6.33668">
        <ele>1155</ele>
        <time>2026-08-19T05:47:21.566Z</time>
      </trkpt>
      <trkpt lat="45.90622" lon="6.33669">
        <ele>1155</ele>
        <time>2026-08-19T05:47:22.566Z</time>
      </trkpt>
      <trkpt lat="45.90623" lon="6.3367">
        <ele>1155</ele>
        <time>2026-08-19T05:47:23.566Z</time>
      </trkpt>
      <trkpt lat="45.90623" lon="6.33671">
        <ele>1155</ele>
        <time>2026-08-19T05:47:24.566Z</time>
      </trkpt>
      <trkpt lat="45.90624" lon="6.33671">
        <ele>1156</ele>
        <time>2026-08-19T05:47:25.566Z</time>
      </trkpt>
      <trkpt lat="45.90624" lon="6.33672">
        <ele>1156</ele>
        <time>2026-08-19T05:47:26.566Z</time>
      </trkpt>
      <trkpt lat="45.90625" lon="6.33672">
        <ele>1156</ele>
        <time>2026-08-19T05:47:27.566Z</time>
      </trkpt>
      <trkpt lat="45.90625" lon="6.33673">
        <ele>1157</ele>
        <time>2026-08-19T05:47:28.566Z</time>
      </trkpt>
      <trkpt lat="45.90625" lon="6.33674">
        <ele>1157</ele>
        <time>2026-08-19T05:47:29.566Z</time>
      </trkpt>
      <trkpt lat="45.90625" lon="6.33675">
        <ele>1158</ele>
        <time>2026-08-19T05:47:30.566Z</time>
      </trkpt>
      <trkpt lat="45.90625" lon="6.33676">
        <ele>1158</ele>
        <time>2026-08-19T05:47:31.566Z</time>
      </trkpt>
      <trkpt lat="45.90626" lon="6.33677">
        <ele>1159</ele>
        <time>2026-08-19T05:47:32.566Z</time>
      </trkpt>
      <trkpt lat="45.90626" lon="6.33678">
        <ele>1159</ele>
        <time>2026-08-19T05:47:33.566Z</time>
      </trkpt>
      <trkpt lat="45.90626" lon="6.33679">
        <ele>1160</ele>
        <time>2026-08-19T05:47:34.566Z</time>
      </trkpt>
      <trkpt lat="45.90627" lon="6.3368">
        <ele>1161</ele>
        <time>2026-08-19T05:47:35.566Z</time>
      </trkpt>
      <trkpt lat="45.90627" lon="6.33682">
        <ele>1161</ele>
        <time>2026-08-19T05:47:36.566Z</time>
      </trkpt>
      <trkpt lat="45.90628" lon="6.33683">
        <ele>1161</ele>
        <time>2026-08-19T05:47:37.566Z</time>
      </trkpt>
      <trkpt lat="45.90628" lon="6.33683">
        <ele>1162</ele>
        <time>2026-08-19T05:47:38.566Z</time>
      </trkpt>
      <trkpt lat="45.90629" lon="6.33685">
        <ele>1162</ele>
        <time>2026-08-19T05:47:39.566Z</time>
      </trkpt>
      <trkpt lat="45.9063" lon="6.33687">
        <ele>1162</ele>
        <time>2026-08-19T05:47:40.566Z</time>
      </trkpt>
      <trkpt lat="45.9063" lon="6.33688">
        <ele>1162</ele>
        <time>2026-08-19T05:47:41.566Z</time>
      </trkpt>
      <trkpt lat="45.9063" lon="6.33688">
        <ele>1163</ele>
        <time>2026-08-19T05:47:42.566Z</time>
      </trkpt>
      <trkpt lat="45.9063" lon="6.33688">
        <ele>1163</ele>
        <time>2026-08-19T05:47:43.566Z</time>
      </trkpt>
      <trkpt lat="45.9063" lon="6.33688">
        <ele>1164</ele>
        <time>2026-08-19T05:47:44.566Z</time>
      </trkpt>
      <trkpt lat="45.9063" lon="6.33688">
        <ele>1165</ele>
        <time>2026-08-19T05:47:45.566Z</time>
      </trkpt>
      <trkpt lat="45.9063" lon="6.33688">
        <ele>1166</ele>
        <time>2026-08-19T05:47:46.566Z</time>
      </trkpt>
      <trkpt lat="45.9063" lon="6.33688">
        <ele>1167</ele>
        <time>2026-08-19T05:47:47.566Z</time>
      </trkpt>
      <trkpt lat="45.9063" lon="6.33688">
        <ele>1167</ele>
        <time>2026-08-19T05:47:48.566Z</time>
      </trkpt>
      <trkpt lat="45.9063" lon="6.33688">
        <ele>1168</ele>
        <time>2026-08-19T05:47:49.566Z</time>
      </trkpt>
      <trkpt lat="45.9063" lon="6.33688">
        <ele>1169</ele>
        <time>2026-08-19T05:47:50.566Z</time>
      </trkpt>
      <trkpt lat="45.9063" lon="6.33688">
        <ele>1171</ele>
        <time>2026-08-19T05:47:51.566Z</time>
      </trkpt>
      <trkpt lat="45.9063" lon="6.33689">
        <ele>1171</ele>
        <time>2026-08-19T05:47:52.566Z</time>
      </trkpt>
      <trkpt lat="45.9063" lon="6.33689">
        <ele>1172</ele>
        <time>2026-08-19T05:47:53.566Z</time>
      </trkpt>
      <trkpt lat="45.9063" lon="6.33688">
        <ele>1172</ele>
        <time>2026-08-19T05:47:54.566Z</time>
      </trkpt>
      <trkpt lat="45.9063" lon="6.33688">
        <ele>1171</ele>
        <time>2026-08-19T05:47:55.566Z</time>
      </trkpt>
      <trkpt lat="45.9063" lon="6.33688">
        <ele>1171</ele>
        <time>2026-08-19T05:47:56.566Z</time>
      </trkpt>
      <trkpt lat="45.9063" lon="6.33688">
        <ele>1170</ele>
        <time>2026-08-19T05:47:57.566Z</time>
      </trkpt>
      <trkpt lat="45.9063" lon="6.33688">
        <ele>1170</ele>
        <time>2026-08-19T05:47:58.566Z</time>
      </trkpt>
      <trkpt lat="45.9063" lon="6.33688">
        <ele>1170</ele>
        <time>2026-08-19T05:47:59.567Z</time>
      </trkpt>
      <trkpt lat="45.9063" lon="6.33688">
        <ele>1169</ele>
        <time>2026-08-19T05:48:00.566Z</time>
      </trkpt>
      <trkpt lat="45.9063" lon="6.33688">
        <ele>1169</ele>
        <time>2026-08-19T05:48:01.566Z</time>
      </trkpt>
      <trkpt lat="45.9063" lon="6.33688">
        <ele>1168</ele>
        <time>2026-08-19T05:48:02.566Z</time>
      </trkpt>
      <trkpt lat="45.9063" lon="6.33688">
        <ele>1168</ele>
        <time>2026-08-19T05:48:03.566Z</time>
      </trkpt>
      <trkpt lat="45.9063" lon="6.33688">
        <ele>1168</ele>
        <time>2026-08-19T05:48:04.566Z</time>
      </trkpt>
      <trkpt lat="45.9063" lon="6.33688">
        <ele>1168</ele>
        <time>2026-08-19T05:48:05.566Z</time>
      </trkpt>
      <trkpt lat="45.9063" lon="6.33688">
        <ele>1168</ele>
        <time>2026-08-19T05:48:06.566Z</time>
      </trkpt>
      <trkpt lat="45.9063" lon="6.33688">
        <ele>1168</ele>
        <time>2026-08-19T05:48:07.566Z</time>
      </trkpt>
      <trkpt lat="45.9063" lon="6.33688">
        <ele>1168</ele>
        <time>2026-08-19T05:48:08.566Z</time>
      </trkpt>
      <trkpt lat="45.9063" lon="6.33688">
        <ele>1168</ele>
        <time>2026-08-19T05:48:09.566Z</time>
      </trkpt>
      <trkpt lat="45.9063" lon="6.33688">
        <ele>1168</ele>
        <time>2026-08-19T05:48:10.566Z</time>
      </trkpt>
      <trkpt lat="45.9063" lon="6.33688">
        <ele>1168</ele>
        <time>2026-08-19T05:48:11.566Z</time>
      </trkpt>
      <trkpt lat="45.9063" lon="6.33688">
        <ele>1168</ele>
        <time>2026-08-19T05:48:12.566Z</time>
      </trkpt>
      <trkpt lat="45.9063" lon="6.33688">
        <ele>1168</ele>
        <time>2026-08-19T05:48:13.566Z</time>
      </trkpt>
      <trkpt lat="45.9063" lon="6.33688">
        <ele>1168</ele>
        <time>2026-08-19T05:48:14.566Z</time>
      </trkpt>
      <trkpt lat="45.9063" lon="6.33688">
        <ele>1168</ele>
        <time>2026-08-19T05:48:15.566Z</time>
      </trkpt>
      <trkpt lat="45.9063" lon="6.33689">
        <ele>1168</ele>
        <time>2026-08-19T05:48:16.566Z</time>
      </trkpt>
      <trkpt lat="45.9063" lon="6.33689">
        <ele>1168</ele>
        <time>2026-08-19T05:48:17.566Z</time>
      </trkpt>
      <trkpt lat="45.9063" lon="6.33689">
        <ele>1168</ele>
        <time>2026-08-19T05:48:18.566Z</time>
      </trkpt>
      <trkpt lat="45.9063" lon="6.3369">
        <ele>1168</ele>
        <time>2026-08-19T05:48:19.566Z</time>
      </trkpt>
      <trkpt lat="45.9063" lon="6.3369">
        <ele>1168</ele>
        <time>2026-08-19T05:48:20.566Z</time>
      </trkpt>
      <trkpt lat="45.9063" lon="6.3369">
        <ele>1168</ele>
        <time>2026-08-19T05:48:21.566Z</time>
      </trkpt>
      <trkpt lat="45.9063" lon="6.33691">
        <ele>1168</ele>
        <time>2026-08-19T05:48:22.566Z</time>
      </trkpt>
      <trkpt lat="45.90631" lon="6.33691">
        <ele>1168</ele>
        <time>2026-08-19T05:48:23.566Z</time>
      </trkpt>
      <trkpt lat="45.90631" lon="6.33691">
        <ele>1168</ele>
        <time>2026-08-19T05:48:24.566Z</time>
      </trkpt>
      <trkpt lat="45.90631" lon="6.33691">
        <ele>1168</ele>
        <time>2026-08-19T05:48:25.566Z</time>
      </trkpt>
      <trkpt lat="45.90631" lon="6.33692">
        <ele>1168</ele>
        <time>2026-08-19T05:48:26.566Z</time>
      </trkpt>
      <trkpt lat="45.90631" lon="6.33692">
        <ele>1168</ele>
        <time>2026-08-19T05:48:27.566Z</time>
      </trkpt>
      <trkpt lat="45.90631" lon="6.33693">
        <ele>1168</ele>
        <time>2026-08-19T05:48:28.566Z</time>
      </trkpt>
      <trkpt lat="45.90633" lon="6.33695">
        <ele>1168</ele>
        <time>2026-08-19T05:48:29.566Z</time>
      </trkpt>
      <trkpt lat="45.90635" lon="6.33696">
        <ele>1168</ele>
        <time>2026-08-19T05:48:30.566Z</time>
      </trkpt>
      <trkpt lat="45.90636" lon="6.33698">
        <ele>1168</ele>
        <time>2026-08-19T05:48:31.566Z</time>
      </trkpt>
      <trkpt lat="45.90637" lon="6.33699">
        <ele>1168</ele>
        <time>2026-08-19T05:48:32.566Z</time>
      </trkpt>
      <trkpt lat="45.90639" lon="6.33701">
        <ele>1168</ele>
        <time>2026-08-19T05:48:33.566Z</time>
      </trkpt>
      <trkpt lat="45.9064" lon="6.33702">
        <ele>1168</ele>
        <time>2026-08-19T05:48:34.566Z</time>
      </trkpt>
      <trkpt lat="45.90641" lon="6.33703">
        <ele>1168</ele>
        <time>2026-08-19T05:48:35.566Z</time>
      </trkpt>
      <trkpt lat="45.90643" lon="6.33704">
        <ele>1168</ele>
        <time>2026-08-19T05:48:36.566Z</time>
      </trkpt>
      <trkpt lat="45.90644" lon="6.33706">
        <ele>1168</ele>
        <time>2026-08-19T05:48:37.566Z</time>
      </trkpt>
      <trkpt lat="45.90644" lon="6.33707">
        <ele>1168</ele>
        <time>2026-08-19T05:48:38.566Z</time>
      </trkpt>
      <trkpt lat="45.90645" lon="6.33707">
        <ele>1168</ele>
        <time>2026-08-19T05:48:39.566Z</time>
      </trkpt>
      <trkpt lat="45.90646" lon="6.33708">
        <ele>1169</ele>
        <time>2026-08-19T05:48:40.566Z</time>
      </trkpt>
      <trkpt lat="45.90646" lon="6.33709">
        <ele>1169</ele>
        <time>2026-08-19T05:48:41.566Z</time>
      </trkpt>
      <trkpt lat="45.90647" lon="6.33709">
        <ele>1169</ele>
        <time>2026-08-19T05:48:42.566Z</time>
      </trkpt>
      <trkpt lat="45.90646" lon="6.3371">
        <ele>1169</ele>
        <time>2026-08-19T05:48:43.566Z</time>
      </trkpt>
      <trkpt lat="45.90647" lon="6.33711">
        <ele>1170</ele>
        <time>2026-08-19T05:48:44.566Z</time>
      </trkpt>
      <trkpt lat="45.90647" lon="6.33712">
        <ele>1170</ele>
        <time>2026-08-19T05:48:45.566Z</time>
      </trkpt>
      <trkpt lat="45.90647" lon="6.33713">
        <ele>1171</ele>
        <time>2026-08-19T05:48:46.566Z</time>
      </trkpt>
      <trkpt lat="45.90648" lon="6.33714">
        <ele>1171</ele>
        <time>2026-08-19T05:48:47.566Z</time>
      </trkpt>
      <trkpt lat="45.90649" lon="6.33715">
        <ele>1171</ele>
        <time>2026-08-19T05:48:48.566Z</time>
      </trkpt>
      <trkpt lat="45.9065" lon="6.33716">
        <ele>1171</ele>
        <time>2026-08-19T05:48:49.566Z</time>
      </trkpt>
      <trkpt lat="45.90651" lon="6.33717">
        <ele>1171</ele>
        <time>2026-08-19T05:48:50.566Z</time>
      </trkpt>
      <trkpt lat="45.90652" lon="6.33717">
        <ele>1171</ele>
        <time>2026-08-19T05:48:51.566Z</time>
      </trkpt>
      <trkpt lat="45.90653" lon="6.33718">
        <ele>1170</ele>
        <time>2026-08-19T05:48:52.566Z</time>
      </trkpt>
      <trkpt lat="45.90653" lon="6.33719">
        <ele>1170</ele>
        <time>2026-08-19T05:48:53.566Z</time>
      </trkpt>
      <trkpt lat="45.90654" lon="6.3372">
        <ele>1170</ele>
        <time>2026-08-19T05:48:54.566Z</time>
      </trkpt>
      <trkpt lat="45.90655" lon="6.33721">
        <ele>1169</ele>
        <time>2026-08-19T05:48:55.566Z</time>
      </trkpt>
      <trkpt lat="45.90655" lon="6.33723">
        <ele>1169</ele>
        <time>2026-08-19T05:48:56.566Z</time>
      </trkpt>
      <trkpt lat="45.90656" lon="6.33724">
        <ele>1169</ele>
        <time>2026-08-19T05:48:57.566Z</time>
      </trkpt>
      <trkpt lat="45.90657" lon="6.33726">
        <ele>1168</ele>
        <time>2026-08-19T05:48:58.566Z</time>
      </trkpt>
      <trkpt lat="45.90658" lon="6.33727">
        <ele>1168</ele>
        <time>2026-08-19T05:48:59.566Z</time>
      </trkpt>
      <trkpt lat="45.90658" lon="6.33728">
        <ele>1167</ele>
        <time>2026-08-19T05:49:00.566Z</time>
      </trkpt>
      <trkpt lat="45.90659" lon="6.33729">
        <ele>1167</ele>
        <time>2026-08-19T05:49:01.566Z</time>
      </trkpt>
      <trkpt lat="45.90659" lon="6.3373">
        <ele>1167</ele>
        <time>2026-08-19T05:49:02.566Z</time>
      </trkpt>
      <trkpt lat="45.9066" lon="6.33731">
        <ele>1167</ele>
        <time>2026-08-19T05:49:03.566Z</time>
      </trkpt>
      <trkpt lat="45.9066" lon="6.33732">
        <ele>1167</ele>
        <time>2026-08-19T05:49:04.566Z</time>
      </trkpt>
      <trkpt lat="45.90661" lon="6.33732">
        <ele>1168</ele>
        <time>2026-08-19T05:49:05.566Z</time>
      </trkpt>
      <trkpt lat="45.90661" lon="6.33733">
        <ele>1168</ele>
        <time>2026-08-19T05:49:06.566Z</time>
      </trkpt>
      <trkpt lat="45.90662" lon="6.33734">
        <ele>1169</ele>
        <time>2026-08-19T05:49:07.566Z</time>
      </trkpt>
      <trkpt lat="45.90662" lon="6.33734">
        <ele>1169</ele>
        <time>2026-08-19T05:49:08.566Z</time>
      </trkpt>
      <trkpt lat="45.90663" lon="6.33735">
        <ele>1169</ele>
        <time>2026-08-19T05:49:09.566Z</time>
      </trkpt>
      <trkpt lat="45.90663" lon="6.33736">
        <ele>1170</ele>
        <time>2026-08-19T05:49:10.566Z</time>
      </trkpt>
      <trkpt lat="45.90664" lon="6.33737">
        <ele>1170</ele>
        <time>2026-08-19T05:49:11.566Z</time>
      </trkpt>
      <trkpt lat="45.90664" lon="6.33737">
        <ele>1171</ele>
        <time>2026-08-19T05:49:12.566Z</time>
      </trkpt>
      <trkpt lat="45.90664" lon="6.33737">
        <ele>1171</ele>
        <time>2026-08-19T05:49:13.566Z</time>
      </trkpt>
      <trkpt lat="45.90665" lon="6.33738">
        <ele>1171</ele>
        <time>2026-08-19T05:49:14.566Z</time>
      </trkpt>
      <trkpt lat="45.90665" lon="6.33738">
        <ele>1171</ele>
        <time>2026-08-19T05:49:15.566Z</time>
      </trkpt>
      <trkpt lat="45.90665" lon="6.33738">
        <ele>1172</ele>
        <time>2026-08-19T05:49:16.566Z</time>
      </trkpt>
      <trkpt lat="45.90666" lon="6.33739">
        <ele>1172</ele>
        <time>2026-08-19T05:49:17.566Z</time>
      </trkpt>
      <trkpt lat="45.90667" lon="6.3374">
        <ele>1173</ele>
        <time>2026-08-19T05:49:18.566Z</time>
      </trkpt>
      <trkpt lat="45.90667" lon="6.33741">
        <ele>1173</ele>
        <time>2026-08-19T05:49:19.566Z</time>
      </trkpt>
      <trkpt lat="45.90668" lon="6.33742">
        <ele>1173</ele>
        <time>2026-08-19T05:49:20.566Z</time>
      </trkpt>
      <trkpt lat="45.90669" lon="6.33743">
        <ele>1173</ele>
        <time>2026-08-19T05:49:21.566Z</time>
      </trkpt>
      <trkpt lat="45.9067" lon="6.33743">
        <ele>1173</ele>
        <time>2026-08-19T05:49:22.566Z</time>
      </trkpt>
      <trkpt lat="45.90671" lon="6.33743">
        <ele>1173</ele>
        <time>2026-08-19T05:49:23.566Z</time>
      </trkpt>
      <trkpt lat="45.90672" lon="6.33743">
        <ele>1174</ele>
        <time>2026-08-19T05:49:24.566Z</time>
      </trkpt>
      <trkpt lat="45.90672" lon="6.33744">
        <ele>1174</ele>
        <time>2026-08-19T05:49:25.566Z</time>
      </trkpt>
      <trkpt lat="45.90672" lon="6.33744">
        <ele>1175</ele>
        <time>2026-08-19T05:49:26.566Z</time>
      </trkpt>
      <trkpt lat="45.90673" lon="6.33744">
        <ele>1175</ele>
        <time>2026-08-19T05:49:27.566Z</time>
      </trkpt>
      <trkpt lat="45.90673" lon="6.33744">
        <ele>1175</ele>
        <time>2026-08-19T05:49:28.566Z</time>
      </trkpt>
      <trkpt lat="45.90674" lon="6.33744">
        <ele>1176</ele>
        <time>2026-08-19T05:49:29.566Z</time>
      </trkpt>
      <trkpt lat="45.90674" lon="6.33744">
        <ele>1176</ele>
        <time>2026-08-19T05:49:30.566Z</time>
      </trkpt>
      <trkpt lat="45.90675" lon="6.33745">
        <ele>1176</ele>
        <time>2026-08-19T05:49:31.566Z</time>
      </trkpt>
      <trkpt lat="45.90676" lon="6.33744">
        <ele>1176</ele>
        <time>2026-08-19T05:49:32.566Z</time>
      </trkpt>
      <trkpt lat="45.90677" lon="6.33745">
        <ele>1176</ele>
        <time>2026-08-19T05:49:33.566Z</time>
      </trkpt>
      <trkpt lat="45.90679" lon="6.33745">
        <ele>1177</ele>
        <time>2026-08-19T05:49:34.566Z</time>
      </trkpt>
      <trkpt lat="45.9068" lon="6.33745">
        <ele>1177</ele>
        <time>2026-08-19T05:49:35.566Z</time>
      </trkpt>
      <trkpt lat="45.90681" lon="6.33746">
        <ele>1177</ele>
        <time>2026-08-19T05:49:36.566Z</time>
      </trkpt>
      <trkpt lat="45.90682" lon="6.33746">
        <ele>1177</ele>
        <time>2026-08-19T05:49:37.566Z</time>
      </trkpt>
      <trkpt lat="45.90682" lon="6.33746">
        <ele>1178</ele>
        <time>2026-08-19T05:49:38.566Z</time>
      </trkpt>
      <trkpt lat="45.90683" lon="6.33747">
        <ele>1178</ele>
        <time>2026-08-19T05:49:39.566Z</time>
      </trkpt>
      <trkpt lat="45.90683" lon="6.33747">
        <ele>1178</ele>
        <time>2026-08-19T05:49:40.566Z</time>
      </trkpt>
      <trkpt lat="45.90684" lon="6.33747">
        <ele>1178</ele>
        <time>2026-08-19T05:49:41.566Z</time>
      </trkpt>
      <trkpt lat="45.90684" lon="6.33748">
        <ele>1178</ele>
        <time>2026-08-19T05:49:42.566Z</time>
      </trkpt>
      <trkpt lat="45.90684" lon="6.33748">
        <ele>1178</ele>
        <time>2026-08-19T05:49:43.566Z</time>
      </trkpt>
      <trkpt lat="45.90685" lon="6.33748">
        <ele>1178</ele>
        <time>2026-08-19T05:49:44.566Z</time>
      </trkpt>
      <trkpt lat="45.90685" lon="6.33748">
        <ele>1179</ele>
        <time>2026-08-19T05:49:45.566Z</time>
      </trkpt>
      <trkpt lat="45.90685" lon="6.33749">
        <ele>1179</ele>
        <time>2026-08-19T05:49:46.566Z</time>
      </trkpt>
      <trkpt lat="45.90686" lon="6.3375">
        <ele>1179</ele>
        <time>2026-08-19T05:49:47.566Z</time>
      </trkpt>
      <trkpt lat="45.90686" lon="6.3375">
        <ele>1180</ele>
        <time>2026-08-19T05:49:48.566Z</time>
      </trkpt>
      <trkpt lat="45.90686" lon="6.33751">
        <ele>1180</ele>
        <time>2026-08-19T05:49:49.566Z</time>
      </trkpt>
      <trkpt lat="45.90687" lon="6.33751">
        <ele>1180</ele>
        <time>2026-08-19T05:49:50.566Z</time>
      </trkpt>
      <trkpt lat="45.90687" lon="6.33751">
        <ele>1180</ele>
        <time>2026-08-19T05:49:51.566Z</time>
      </trkpt>
      <trkpt lat="45.90686" lon="6.3375">
        <ele>1180</ele>
        <time>2026-08-19T05:49:52.566Z</time>
      </trkpt>
      <trkpt lat="45.90686" lon="6.3375">
        <ele>1180</ele>
        <time>2026-08-19T05:49:53.566Z</time>
      </trkpt>
      <trkpt lat="45.90686" lon="6.3375">
        <ele>1180</ele>
        <time>2026-08-19T05:49:54.566Z</time>
      </trkpt>
      <trkpt lat="45.90686" lon="6.33749">
        <ele>1180</ele>
        <time>2026-08-19T05:49:55.566Z</time>
      </trkpt>
      <trkpt lat="45.90687" lon="6.33749">
        <ele>1180</ele>
        <time>2026-08-19T05:49:56.566Z</time>
      </trkpt>
      <trkpt lat="45.90687" lon="6.33749">
        <ele>1180</ele>
        <time>2026-08-19T05:49:57.566Z</time>
      </trkpt>
      <trkpt lat="45.90688" lon="6.3375">
        <ele>1180</ele>
        <time>2026-08-19T05:49:58.566Z</time>
      </trkpt>
      <trkpt lat="45.90689" lon="6.33751">
        <ele>1180</ele>
        <time>2026-08-19T05:49:59.566Z</time>
      </trkpt>
      <trkpt lat="45.90689" lon="6.33751">
        <ele>1180</ele>
        <time>2026-08-19T05:50:00.566Z</time>
      </trkpt>
      <trkpt lat="45.9069" lon="6.33751">
        <ele>1181</ele>
        <time>2026-08-19T05:50:01.566Z</time>
      </trkpt>
      <trkpt lat="45.9069" lon="6.33751">
        <ele>1181</ele>
        <time>2026-08-19T05:50:02.566Z</time>
      </trkpt>
      <trkpt lat="45.90691" lon="6.33751">
        <ele>1181</ele>
        <time>2026-08-19T05:50:03.566Z</time>
      </trkpt>
      <trkpt lat="45.90692" lon="6.33752">
        <ele>1181</ele>
        <time>2026-08-19T05:50:04.566Z</time>
      </trkpt>
      <trkpt lat="45.90692" lon="6.33753">
        <ele>1181</ele>
        <time>2026-08-19T05:50:05.566Z</time>
      </trkpt>
      <trkpt lat="45.90693" lon="6.33754">
        <ele>1182</ele>
        <time>2026-08-19T05:50:06.566Z</time>
      </trkpt>
      <trkpt lat="45.90694" lon="6.33754">
        <ele>1182</ele>
        <time>2026-08-19T05:50:07.566Z</time>
      </trkpt>
      <trkpt lat="45.90694" lon="6.33754">
        <ele>1183</ele>
        <time>2026-08-19T05:50:08.566Z</time>
      </trkpt>
      <trkpt lat="45.90694" lon="6.33754">
        <ele>1183</ele>
        <time>2026-08-19T05:50:09.566Z</time>
      </trkpt>
      <trkpt lat="45.90695" lon="6.33754">
        <ele>1184</ele>
        <time>2026-08-19T05:50:10.566Z</time>
      </trkpt>
      <trkpt lat="45.90695" lon="6.33754">
        <ele>1184</ele>
        <time>2026-08-19T05:50:11.566Z</time>
      </trkpt>
      <trkpt lat="45.90696" lon="6.33754">
        <ele>1184</ele>
        <time>2026-08-19T05:50:12.566Z</time>
      </trkpt>
      <trkpt lat="45.90697" lon="6.33754">
        <ele>1184</ele>
        <time>2026-08-19T05:50:13.566Z</time>
      </trkpt>
      <trkpt lat="45.90698" lon="6.33755">
        <ele>1184</ele>
        <time>2026-08-19T05:50:14.566Z</time>
      </trkpt>
      <trkpt lat="45.90698" lon="6.33755">
        <ele>1184</ele>
        <time>2026-08-19T05:50:15.566Z</time>
      </trkpt>
      <trkpt lat="45.90698" lon="6.33755">
        <ele>1185</ele>
        <time>2026-08-19T05:50:16.566Z</time>
      </trkpt>
      <trkpt lat="45.90699" lon="6.33755">
        <ele>1185</ele>
        <time>2026-08-19T05:50:17.566Z</time>
      </trkpt>
      <trkpt lat="45.90699" lon="6.33755">
        <ele>1185</ele>
        <time>2026-08-19T05:50:18.566Z</time>
      </trkpt>
      <trkpt lat="45.907" lon="6.33755">
        <ele>1185</ele>
        <time>2026-08-19T05:50:19.566Z</time>
      </trkpt>
      <trkpt lat="45.90701" lon="6.33756">
        <ele>1185</ele>
        <time>2026-08-19T05:50:20.566Z</time>
      </trkpt>
      <trkpt lat="45.90702" lon="6.33757">
        <ele>1185</ele>
        <time>2026-08-19T05:50:21.566Z</time>
      </trkpt>
      <trkpt lat="45.90703" lon="6.33758">
        <ele>1184</ele>
        <time>2026-08-19T05:50:22.566Z</time>
      </trkpt>
      <trkpt lat="45.90704" lon="6.33758">
        <ele>1184</ele>
        <time>2026-08-19T05:50:23.566Z</time>
      </trkpt>
      <trkpt lat="45.90705" lon="6.33758">
        <ele>1184</ele>
        <time>2026-08-19T05:50:24.566Z</time>
      </trkpt>
      <trkpt lat="45.90706" lon="6.33757">
        <ele>1184</ele>
        <time>2026-08-19T05:50:25.566Z</time>
      </trkpt>
      <trkpt lat="45.90706" lon="6.33757">
        <ele>1185</ele>
        <time>2026-08-19T05:50:26.566Z</time>
      </trkpt>
      <trkpt lat="45.90707" lon="6.33757">
        <ele>1185</ele>
        <time>2026-08-19T05:50:27.566Z</time>
      </trkpt>
      <trkpt lat="45.90707" lon="6.33757">
        <ele>1185</ele>
        <time>2026-08-19T05:50:28.566Z</time>
      </trkpt>
      <trkpt lat="45.90708" lon="6.33756">
        <ele>1186</ele>
        <time>2026-08-19T05:50:29.566Z</time>
      </trkpt>
      <trkpt lat="45.90708" lon="6.33755">
        <ele>1186</ele>
        <time>2026-08-19T05:50:30.566Z</time>
      </trkpt>
      <trkpt lat="45.90708" lon="6.33754">
        <ele>1187</ele>
        <time>2026-08-19T05:50:31.566Z</time>
      </trkpt>
      <trkpt lat="45.90708" lon="6.33754">
        <ele>1187</ele>
        <time>2026-08-19T05:50:32.566Z</time>
      </trkpt>
      <trkpt lat="45.90709" lon="6.33754">
        <ele>1187</ele>
        <time>2026-08-19T05:50:33.566Z</time>
      </trkpt>
      <trkpt lat="45.90709" lon="6.33753">
        <ele>1188</ele>
        <time>2026-08-19T05:50:34.566Z</time>
      </trkpt>
      <trkpt lat="45.90709" lon="6.33753">
        <ele>1188</ele>
        <time>2026-08-19T05:50:35.566Z</time>
      </trkpt>
      <trkpt lat="45.90709" lon="6.33752">
        <ele>1188</ele>
        <time>2026-08-19T05:50:36.566Z</time>
      </trkpt>
      <trkpt lat="45.90709" lon="6.33752">
        <ele>1188</ele>
        <time>2026-08-19T05:50:37.566Z</time>
      </trkpt>
      <trkpt lat="45.90709" lon="6.33752">
        <ele>1188</ele>
        <time>2026-08-19T05:50:38.566Z</time>
      </trkpt>
      <trkpt lat="45.90709" lon="6.33752">
        <ele>1189</ele>
        <time>2026-08-19T05:50:39.566Z</time>
      </trkpt>
      <trkpt lat="45.90708" lon="6.33752">
        <ele>1190</ele>
        <time>2026-08-19T05:50:40.566Z</time>
      </trkpt>
      <trkpt lat="45.90707" lon="6.33752">
        <ele>1190</ele>
        <time>2026-08-19T05:50:41.566Z</time>
      </trkpt>
      <trkpt lat="45.90707" lon="6.33751">
        <ele>1191</ele>
        <time>2026-08-19T05:50:42.566Z</time>
      </trkpt>
      <trkpt lat="45.90707" lon="6.33751">
        <ele>1192</ele>
        <time>2026-08-19T05:50:43.566Z</time>
      </trkpt>
      <trkpt lat="45.90708" lon="6.33751">
        <ele>1192</ele>
        <time>2026-08-19T05:50:44.566Z</time>
      </trkpt>
      <trkpt lat="45.90708" lon="6.33751">
        <ele>1192</ele>
        <time>2026-08-19T05:50:45.566Z</time>
      </trkpt>
      <trkpt lat="45.90708" lon="6.33751">
        <ele>1192</ele>
        <time>2026-08-19T05:50:46.566Z</time>
      </trkpt>
      <trkpt lat="45.90708" lon="6.33751">
        <ele>1193</ele>
        <time>2026-08-19T05:50:47.566Z</time>
      </trkpt>
      <trkpt lat="45.90708" lon="6.33752">
        <ele>1193</ele>
        <time>2026-08-19T05:50:48.566Z</time>
      </trkpt>
      <trkpt lat="45.90708" lon="6.33751">
        <ele>1193</ele>
        <time>2026-08-19T05:50:49.566Z</time>
      </trkpt>
      <trkpt lat="45.90708" lon="6.33751">
        <ele>1193</ele>
        <time>2026-08-19T05:50:50.566Z</time>
      </trkpt>
      <trkpt lat="45.90708" lon="6.33751">
        <ele>1193</ele>
        <time>2026-08-19T05:50:51.566Z</time>
      </trkpt>
      <trkpt lat="45.90708" lon="6.33751">
        <ele>1194</ele>
        <time>2026-08-19T05:50:52.566Z</time>
      </trkpt>
      <trkpt lat="45.90708" lon="6.33751">
        <ele>1194</ele>
        <time>2026-08-19T05:50:53.566Z</time>
      </trkpt>
      <trkpt lat="45.90708" lon="6.33751">
        <ele>1194</ele>
        <time>2026-08-19T05:50:54.566Z</time>
      </trkpt>
      <trkpt lat="45.90708" lon="6.33751">
        <ele>1194</ele>
        <time>2026-08-19T05:50:55.566Z</time>
      </trkpt>
      <trkpt lat="45.90708" lon="6.33751">
        <ele>1194</ele>
        <time>2026-08-19T05:50:56.566Z</time>
      </trkpt>
      <trkpt lat="45.90708" lon="6.33751">
        <ele>1194</ele>
        <time>2026-08-19T05:50:57.566Z</time>
      </trkpt>
      <trkpt lat="45.90708" lon="6.33751">
        <ele>1194</ele>
        <time>2026-08-19T05:50:58.566Z</time>
      </trkpt>
      <trkpt lat="45.90708" lon="6.33751">
        <ele>1194</ele>
        <time>2026-08-19T05:50:59.566Z</time>
      </trkpt>
      <trkpt lat="45.90708" lon="6.33751">
        <ele>1194</ele>
        <time>2026-08-19T05:51:00.566Z</time>
      </trkpt>
      <trkpt lat="45.90708" lon="6.33751">
        <ele>1194</ele>
        <time>2026-08-19T05:51:01.566Z</time>
      </trkpt>
      <trkpt lat="45.90708" lon="6.33751">
        <ele>1194</ele>
        <time>2026-08-19T05:51:02.566Z</time>
      </trkpt>
      <trkpt lat="45.90708" lon="6.33751">
        <ele>1194</ele>
        <time>2026-08-19T05:51:03.566Z</time>
      </trkpt>
      <trkpt lat="45.90708" lon="6.33751">
        <ele>1194</ele>
        <time>2026-08-19T05:51:04.566Z</time>
      </trkpt>
      <trkpt lat="45.90708" lon="6.33751">
        <ele>1194</ele>
        <time>2026-08-19T05:51:05.566Z</time>
      </trkpt>
      <trkpt lat="45.90709" lon="6.3375">
        <ele>1194</ele>
        <time>2026-08-19T05:51:06.566Z</time>
      </trkpt>
      <trkpt lat="45.9071" lon="6.33749">
        <ele>1194</ele>
        <time>2026-08-19T05:51:07.566Z</time>
      </trkpt>
      <trkpt lat="45.90711" lon="6.33748">
        <ele>1194</ele>
        <time>2026-08-19T05:51:08.566Z</time>
      </trkpt>
      <trkpt lat="45.90711" lon="6.33748">
        <ele>1194</ele>
        <time>2026-08-19T05:51:09.566Z</time>
      </trkpt>
      <trkpt lat="45.90712" lon="6.33747">
        <ele>1194</ele>
        <time>2026-08-19T05:51:10.566Z</time>
      </trkpt>
      <trkpt lat="45.90713" lon="6.33746">
        <ele>1194</ele>
        <time>2026-08-19T05:51:11.567Z</time>
      </trkpt>
      <trkpt lat="45.90714" lon="6.33745">
        <ele>1193</ele>
        <time>2026-08-19T05:51:12.566Z</time>
      </trkpt>
      <trkpt lat="45.90715" lon="6.33745">
        <ele>1193</ele>
        <time>2026-08-19T05:51:13.566Z</time>
      </trkpt>
      <trkpt lat="45.90716" lon="6.33744">
        <ele>1194</ele>
        <time>2026-08-19T05:51:14.566Z</time>
      </trkpt>
      <trkpt lat="45.90717" lon="6.33744">
        <ele>1194</ele>
        <time>2026-08-19T05:51:15.566Z</time>
      </trkpt>
      <trkpt lat="45.90718" lon="6.33743">
        <ele>1194</ele>
        <time>2026-08-19T05:51:16.566Z</time>
      </trkpt>
      <trkpt lat="45.90718" lon="6.33743">
        <ele>1195</ele>
        <time>2026-08-19T05:51:17.566Z</time>
      </trkpt>
      <trkpt lat="45.90718" lon="6.33742">
        <ele>1195</ele>
        <time>2026-08-19T05:51:18.566Z</time>
      </trkpt>
      <trkpt lat="45.90719" lon="6.33742">
        <ele>1196</ele>
        <time>2026-08-19T05:51:19.566Z</time>
      </trkpt>
      <trkpt lat="45.90719" lon="6.33741">
        <ele>1196</ele>
        <time>2026-08-19T05:51:20.566Z</time>
      </trkpt>
      <trkpt lat="45.90719" lon="6.33741">
        <ele>1196</ele>
        <time>2026-08-19T05:51:21.566Z</time>
      </trkpt>
      <trkpt lat="45.90719" lon="6.33742">
        <ele>1197</ele>
        <time>2026-08-19T05:51:22.566Z</time>
      </trkpt>
      <trkpt lat="45.90721" lon="6.33742">
        <ele>1197</ele>
        <time>2026-08-19T05:51:23.566Z</time>
      </trkpt>
      <trkpt lat="45.90722" lon="6.33742">
        <ele>1197</ele>
        <time>2026-08-19T05:51:24.566Z</time>
      </trkpt>
      <trkpt lat="45.90723" lon="6.33742">
        <ele>1198</ele>
        <time>2026-08-19T05:51:25.566Z</time>
      </trkpt>
      <trkpt lat="45.90724" lon="6.33742">
        <ele>1198</ele>
        <time>2026-08-19T05:51:26.566Z</time>
      </trkpt>
      <trkpt lat="45.90725" lon="6.33743">
        <ele>1198</ele>
        <time>2026-08-19T05:51:27.566Z</time>
      </trkpt>
      <trkpt lat="45.90726" lon="6.33744">
        <ele>1199</ele>
        <time>2026-08-19T05:51:28.566Z</time>
      </trkpt>
      <trkpt lat="45.90727" lon="6.33745">
        <ele>1199</ele>
        <time>2026-08-19T05:51:29.566Z</time>
      </trkpt>
      <trkpt lat="45.90728" lon="6.33746">
        <ele>1199</ele>
        <time>2026-08-19T05:51:30.566Z</time>
      </trkpt>
      <trkpt lat="45.90729" lon="6.33746">
        <ele>1200</ele>
        <time>2026-08-19T05:51:31.566Z</time>
      </trkpt>
      <trkpt lat="45.90729" lon="6.33746">
        <ele>1200</ele>
        <time>2026-08-19T05:51:32.566Z</time>
      </trkpt>
      <trkpt lat="45.9073" lon="6.33747">
        <ele>1200</ele>
        <time>2026-08-19T05:51:33.566Z</time>
      </trkpt>
      <trkpt lat="45.90731" lon="6.33747">
        <ele>1200</ele>
        <time>2026-08-19T05:51:34.566Z</time>
      </trkpt>
      <trkpt lat="45.90732" lon="6.33748">
        <ele>1200</ele>
        <time>2026-08-19T05:51:35.566Z</time>
      </trkpt>
      <trkpt lat="45.90733" lon="6.33748">
        <ele>1200</ele>
        <time>2026-08-19T05:51:36.566Z</time>
      </trkpt>
      <trkpt lat="45.90733" lon="6.33749">
        <ele>1201</ele>
        <time>2026-08-19T05:51:37.566Z</time>
      </trkpt>
      <trkpt lat="45.90734" lon="6.33749">
        <ele>1201</ele>
        <time>2026-08-19T05:51:38.566Z</time>
      </trkpt>
      <trkpt lat="45.90735" lon="6.33749">
        <ele>1201</ele>
        <time>2026-08-19T05:51:39.566Z</time>
      </trkpt>
      <trkpt lat="45.90735" lon="6.33749">
        <ele>1201</ele>
        <time>2026-08-19T05:51:40.566Z</time>
      </trkpt>
      <trkpt lat="45.90736" lon="6.3375">
        <ele>1202</ele>
        <time>2026-08-19T05:51:41.566Z</time>
      </trkpt>
      <trkpt lat="45.90736" lon="6.3375">
        <ele>1202</ele>
        <time>2026-08-19T05:51:42.566Z</time>
      </trkpt>
      <trkpt lat="45.90736" lon="6.3375">
        <ele>1202</ele>
        <time>2026-08-19T05:51:43.566Z</time>
      </trkpt>
      <trkpt lat="45.90736" lon="6.3375">
        <ele>1203</ele>
        <time>2026-08-19T05:51:44.566Z</time>
      </trkpt>
      <trkpt lat="45.90737" lon="6.33749">
        <ele>1203</ele>
        <time>2026-08-19T05:51:45.566Z</time>
      </trkpt>
      <trkpt lat="45.90737" lon="6.33748">
        <ele>1203</ele>
        <time>2026-08-19T05:51:46.566Z</time>
      </trkpt>
      <trkpt lat="45.90738" lon="6.33749">
        <ele>1204</ele>
        <time>2026-08-19T05:51:47.566Z</time>
      </trkpt>
      <trkpt lat="45.90739" lon="6.33749">
        <ele>1204</ele>
        <time>2026-08-19T05:51:48.566Z</time>
      </trkpt>
      <trkpt lat="45.9074" lon="6.33749">
        <ele>1205</ele>
        <time>2026-08-19T05:51:49.566Z</time>
      </trkpt>
      <trkpt lat="45.90741" lon="6.33749">
        <ele>1205</ele>
        <time>2026-08-19T05:51:50.566Z</time>
      </trkpt>
      <trkpt lat="45.90741" lon="6.33748">
        <ele>1205</ele>
        <time>2026-08-19T05:51:51.566Z</time>
      </trkpt>
      <trkpt lat="45.90742" lon="6.33748">
        <ele>1205</ele>
        <time>2026-08-19T05:51:52.566Z</time>
      </trkpt>
      <trkpt lat="45.90743" lon="6.33748">
        <ele>1206</ele>
        <time>2026-08-19T05:51:53.566Z</time>
      </trkpt>
      <trkpt lat="45.90744" lon="6.33748">
        <ele>1206</ele>
        <time>2026-08-19T05:51:54.566Z</time>
      </trkpt>
      <trkpt lat="45.90746" lon="6.33749">
        <ele>1207</ele>
        <time>2026-08-19T05:51:55.566Z</time>
      </trkpt>
      <trkpt lat="45.90747" lon="6.33749">
        <ele>1207</ele>
        <time>2026-08-19T05:51:56.566Z</time>
      </trkpt>
      <trkpt lat="45.90749" lon="6.33749">
        <ele>1207</ele>
        <time>2026-08-19T05:51:57.566Z</time>
      </trkpt>
      <trkpt lat="45.9075" lon="6.33749">
        <ele>1208</ele>
        <time>2026-08-19T05:51:58.566Z</time>
      </trkpt>
      <trkpt lat="45.9075" lon="6.33749">
        <ele>1208</ele>
        <time>2026-08-19T05:51:59.566Z</time>
      </trkpt>
      <trkpt lat="45.9075" lon="6.33748">
        <ele>1209</ele>
        <time>2026-08-19T05:52:00.566Z</time>
      </trkpt>
      <trkpt lat="45.90751" lon="6.33747">
        <ele>1209</ele>
        <time>2026-08-19T05:52:01.566Z</time>
      </trkpt>
      <trkpt lat="45.90752" lon="6.33745">
        <ele>1210</ele>
        <time>2026-08-19T05:52:02.566Z</time>
      </trkpt>
      <trkpt lat="45.90752" lon="6.33745">
        <ele>1210</ele>
        <time>2026-08-19T05:52:03.566Z</time>
      </trkpt>
      <trkpt lat="45.90752" lon="6.33745">
        <ele>1211</ele>
        <time>2026-08-19T05:52:04.566Z</time>
      </trkpt>
      <trkpt lat="45.90753" lon="6.33745">
        <ele>1212</ele>
        <time>2026-08-19T05:52:05.566Z</time>
      </trkpt>
      <trkpt lat="45.90754" lon="6.33744">
        <ele>1213</ele>
        <time>2026-08-19T05:52:06.566Z</time>
      </trkpt>
      <trkpt lat="45.90755" lon="6.33743">
        <ele>1213</ele>
        <time>2026-08-19T05:52:07.566Z</time>
      </trkpt>
      <trkpt lat="45.90755" lon="6.33742">
        <ele>1214</ele>
        <time>2026-08-19T05:52:08.566Z</time>
      </trkpt>
      <trkpt lat="45.90756" lon="6.33742">
        <ele>1214</ele>
        <time>2026-08-19T05:52:09.566Z</time>
      </trkpt>
      <trkpt lat="45.90757" lon="6.33741">
        <ele>1214</ele>
        <time>2026-08-19T05:52:10.566Z</time>
      </trkpt>
      <trkpt lat="45.90757" lon="6.3374">
        <ele>1215</ele>
        <time>2026-08-19T05:52:11.566Z</time>
      </trkpt>
      <trkpt lat="45.90757" lon="6.33739">
        <ele>1216</ele>
        <time>2026-08-19T05:52:12.566Z</time>
      </trkpt>
      <trkpt lat="45.90758" lon="6.33739">
        <ele>1217</ele>
        <time>2026-08-19T05:52:13.566Z</time>
      </trkpt>
      <trkpt lat="45.90758" lon="6.33739">
        <ele>1217</ele>
        <time>2026-08-19T05:52:14.566Z</time>
      </trkpt>
      <trkpt lat="45.90758" lon="6.3374">
        <ele>1218</ele>
        <time>2026-08-19T05:52:15.566Z</time>
      </trkpt>
      <trkpt lat="45.90758" lon="6.33739">
        <ele>1218</ele>
        <time>2026-08-19T05:52:16.566Z</time>
      </trkpt>
      <trkpt lat="45.90757" lon="6.3374">
        <ele>1218</ele>
        <time>2026-08-19T05:52:17.566Z</time>
      </trkpt>
      <trkpt lat="45.90755" lon="6.3374">
        <ele>1219</ele>
        <time>2026-08-19T05:52:18.566Z</time>
      </trkpt>
      <trkpt lat="45.90754" lon="6.3374">
        <ele>1219</ele>
        <time>2026-08-19T05:52:19.566Z</time>
      </trkpt>
      <trkpt lat="45.90754" lon="6.33739">
        <ele>1219</ele>
        <time>2026-08-19T05:52:20.566Z</time>
      </trkpt>
      <trkpt lat="45.90754" lon="6.33739">
        <ele>1220</ele>
        <time>2026-08-19T05:52:21.566Z</time>
      </trkpt>
      <trkpt lat="45.90754" lon="6.33739">
        <ele>1220</ele>
        <time>2026-08-19T05:52:22.566Z</time>
      </trkpt>
      <trkpt lat="45.90753" lon="6.33738">
        <ele>1220</ele>
        <time>2026-08-19T05:52:23.566Z</time>
      </trkpt>
      <trkpt lat="45.90753" lon="6.33737">
        <ele>1220</ele>
        <time>2026-08-19T05:52:24.566Z</time>
      </trkpt>
      <trkpt lat="45.90753" lon="6.33736">
        <ele>1220</ele>
        <time>2026-08-19T05:52:25.566Z</time>
      </trkpt>
      <trkpt lat="45.90753" lon="6.33735">
        <ele>1219</ele>
        <time>2026-08-19T05:52:26.566Z</time>
      </trkpt>
      <trkpt lat="45.90753" lon="6.33734">
        <ele>1218</ele>
        <time>2026-08-19T05:52:27.566Z</time>
      </trkpt>
      <trkpt lat="45.90753" lon="6.33733">
        <ele>1218</ele>
        <time>2026-08-19T05:52:28.566Z</time>
      </trkpt>
      <trkpt lat="45.90752" lon="6.33733">
        <ele>1218</ele>
        <time>2026-08-19T05:52:29.566Z</time>
      </trkpt>
      <trkpt lat="45.90752" lon="6.33733">
        <ele>1218</ele>
        <time>2026-08-19T05:52:30.566Z</time>
      </trkpt>
      <trkpt lat="45.90752" lon="6.33732">
        <ele>1218</ele>
        <time>2026-08-19T05:52:31.566Z</time>
      </trkpt>
      <trkpt lat="45.90751" lon="6.33732">
        <ele>1218</ele>
        <time>2026-08-19T05:52:32.566Z</time>
      </trkpt>
      <trkpt lat="45.90751" lon="6.33732">
        <ele>1218</ele>
        <time>2026-08-19T05:52:33.566Z</time>
      </trkpt>
      <trkpt lat="45.9075" lon="6.33731">
        <ele>1218</ele>
        <time>2026-08-19T05:52:34.566Z</time>
      </trkpt>
      <trkpt lat="45.9075" lon="6.33731">
        <ele>1218</ele>
        <time>2026-08-19T05:52:35.566Z</time>
      </trkpt>
      <trkpt lat="45.90749" lon="6.3373">
        <ele>1217</ele>
        <time>2026-08-19T05:52:36.566Z</time>
      </trkpt>
      <trkpt lat="45.90749" lon="6.33729">
        <ele>1217</ele>
        <time>2026-08-19T05:52:37.566Z</time>
      </trkpt>
      <trkpt lat="45.90749" lon="6.33729">
        <ele>1217</ele>
        <time>2026-08-19T05:52:38.566Z</time>
      </trkpt>
      <trkpt lat="45.90749" lon="6.33728">
        <ele>1217</ele>
        <time>2026-08-19T05:52:39.566Z</time>
      </trkpt>
      <trkpt lat="45.90748" lon="6.33728">
        <ele>1218</ele>
        <time>2026-08-19T05:52:40.566Z</time>
      </trkpt>
      <trkpt lat="45.90748" lon="6.33727">
        <ele>1218</ele>
        <time>2026-08-19T05:52:41.566Z</time>
      </trkpt>
      <trkpt lat="45.90748" lon="6.33727">
        <ele>1218</ele>
        <time>2026-08-19T05:52:42.566Z</time>
      </trkpt>
      <trkpt lat="45.90748" lon="6.33726">
        <ele>1219</ele>
        <time>2026-08-19T05:52:43.566Z</time>
      </trkpt>
      <trkpt lat="45.90747" lon="6.33726">
        <ele>1219</ele>
        <time>2026-08-19T05:52:44.566Z</time>
      </trkpt>
      <trkpt lat="45.90747" lon="6.33725">
        <ele>1219</ele>
        <time>2026-08-19T05:52:45.566Z</time>
      </trkpt>
      <trkpt lat="45.90747" lon="6.33724">
        <ele>1220</ele>
        <time>2026-08-19T05:52:46.566Z</time>
      </trkpt>
      <trkpt lat="45.90747" lon="6.33723">
        <ele>1220</ele>
        <time>2026-08-19T05:52:47.566Z</time>
      </trkpt>
      <trkpt lat="45.90747" lon="6.33722">
        <ele>1220</ele>
        <time>2026-08-19T05:52:48.566Z</time>
      </trkpt>
      <trkpt lat="45.90748" lon="6.33721">
        <ele>1220</ele>
        <time>2026-08-19T05:52:49.566Z</time>
      </trkpt>
      <trkpt lat="45.90749" lon="6.3372">
        <ele>1220</ele>
        <time>2026-08-19T05:52:50.566Z</time>
      </trkpt>
      <trkpt lat="45.90749" lon="6.3372">
        <ele>1220</ele>
        <time>2026-08-19T05:52:51.566Z</time>
      </trkpt>
      <trkpt lat="45.9075" lon="6.33719">
        <ele>1220</ele>
        <time>2026-08-19T05:52:52.566Z</time>
      </trkpt>
      <trkpt lat="45.9075" lon="6.33718">
        <ele>1220</ele>
        <time>2026-08-19T05:52:53.566Z</time>
      </trkpt>
      <trkpt lat="45.9075" lon="6.33718">
        <ele>1220</ele>
        <time>2026-08-19T05:52:54.566Z</time>
      </trkpt>
      <trkpt lat="45.90751" lon="6.33718">
        <ele>1221</ele>
        <time>2026-08-19T05:52:55.566Z</time>
      </trkpt>
      <trkpt lat="45.90751" lon="6.33718">
        <ele>1222</ele>
        <time>2026-08-19T05:52:56.566Z</time>
      </trkpt>
      <trkpt lat="45.90752" lon="6.33717">
        <ele>1223</ele>
        <time>2026-08-19T05:52:57.566Z</time>
      </trkpt>
      <trkpt lat="45.90752" lon="6.33716">
        <ele>1223</ele>
        <time>2026-08-19T05:52:58.566Z</time>
      </trkpt>
      <trkpt lat="45.90752" lon="6.33714">
        <ele>1224</ele>
        <time>2026-08-19T05:52:59.566Z</time>
      </trkpt>
      <trkpt lat="45.90753" lon="6.33714">
        <ele>1224</ele>
        <time>2026-08-19T05:53:00.566Z</time>
      </trkpt>
      <trkpt lat="45.90753" lon="6.33713">
        <ele>1224</ele>
        <time>2026-08-19T05:53:01.566Z</time>
      </trkpt>
      <trkpt lat="45.90753" lon="6.33713">
        <ele>1223</ele>
        <time>2026-08-19T05:53:02.566Z</time>
      </trkpt>
      <trkpt lat="45.90752" lon="6.33712">
        <ele>1223</ele>
        <time>2026-08-19T05:53:03.566Z</time>
      </trkpt>
      <trkpt lat="45.90752" lon="6.33712">
        <ele>1223</ele>
        <time>2026-08-19T05:53:04.566Z</time>
      </trkpt>
      <trkpt lat="45.90752" lon="6.3371">
        <ele>1223</ele>
        <time>2026-08-19T05:53:05.566Z</time>
      </trkpt>
      <trkpt lat="45.90751" lon="6.33709">
        <ele>1222</ele>
        <time>2026-08-19T05:53:06.566Z</time>
      </trkpt>
      <trkpt lat="45.90751" lon="6.33708">
        <ele>1222</ele>
        <time>2026-08-19T05:53:07.566Z</time>
      </trkpt>
      <trkpt lat="45.90751" lon="6.33707">
        <ele>1222</ele>
        <time>2026-08-19T05:53:08.566Z</time>
      </trkpt>
      <trkpt lat="45.90751" lon="6.33706">
        <ele>1222</ele>
        <time>2026-08-19T05:53:09.566Z</time>
      </trkpt>
      <trkpt lat="45.90751" lon="6.33705">
        <ele>1223</ele>
        <time>2026-08-19T05:53:10.566Z</time>
      </trkpt>
      <trkpt lat="45.90751" lon="6.33704">
        <ele>1223</ele>
        <time>2026-08-19T05:53:11.566Z</time>
      </trkpt>
      <trkpt lat="45.90751" lon="6.33703">
        <ele>1223</ele>
        <time>2026-08-19T05:53:12.566Z</time>
      </trkpt>
      <trkpt lat="45.9075" lon="6.33703">
        <ele>1224</ele>
        <time>2026-08-19T05:53:13.566Z</time>
      </trkpt>
      <trkpt lat="45.90749" lon="6.33702">
        <ele>1224</ele>
        <time>2026-08-19T05:53:14.566Z</time>
      </trkpt>
      <trkpt lat="45.90749" lon="6.33702">
        <ele>1224</ele>
        <time>2026-08-19T05:53:15.566Z</time>
      </trkpt>
      <trkpt lat="45.90748" lon="6.33702">
        <ele>1225</ele>
        <time>2026-08-19T05:53:16.566Z</time>
      </trkpt>
      <trkpt lat="45.90747" lon="6.33701">
        <ele>1225</ele>
        <time>2026-08-19T05:53:17.566Z</time>
      </trkpt>
      <trkpt lat="45.90746" lon="6.33701">
        <ele>1225</ele>
        <time>2026-08-19T05:53:18.566Z</time>
      </trkpt>
      <trkpt lat="45.90746" lon="6.337">
        <ele>1226</ele>
        <time>2026-08-19T05:53:19.566Z</time>
      </trkpt>
      <trkpt lat="45.90746" lon="6.337">
        <ele>1226</ele>
        <time>2026-08-19T05:53:20.566Z</time>
      </trkpt>
      <trkpt lat="45.90745" lon="6.33699">
        <ele>1227</ele>
        <time>2026-08-19T05:53:21.566Z</time>
      </trkpt>
      <trkpt lat="45.90745" lon="6.33698">
        <ele>1227</ele>
        <time>2026-08-19T05:53:22.566Z</time>
      </trkpt>
      <trkpt lat="45.90745" lon="6.33697">
        <ele>1227</ele>
        <time>2026-08-19T05:53:23.566Z</time>
      </trkpt>
      <trkpt lat="45.90745" lon="6.33695">
        <ele>1228</ele>
        <time>2026-08-19T05:53:24.566Z</time>
      </trkpt>
      <trkpt lat="45.90745" lon="6.33694">
        <ele>1228</ele>
        <time>2026-08-19T05:53:25.566Z</time>
      </trkpt>
      <trkpt lat="45.90747" lon="6.33693">
        <ele>1228</ele>
        <time>2026-08-19T05:53:26.566Z</time>
      </trkpt>
      <trkpt lat="45.90748" lon="6.33693">
        <ele>1229</ele>
        <time>2026-08-19T05:53:27.566Z</time>
      </trkpt>
      <trkpt lat="45.90749" lon="6.33693">
        <ele>1229</ele>
        <time>2026-08-19T05:53:28.566Z</time>
      </trkpt>
      <trkpt lat="45.9075" lon="6.33692">
        <ele>1230</ele>
        <time>2026-08-19T05:53:29.566Z</time>
      </trkpt>
      <trkpt lat="45.90752" lon="6.33692">
        <ele>1231</ele>
        <time>2026-08-19T05:53:30.566Z</time>
      </trkpt>
      <trkpt lat="45.90753" lon="6.33691">
        <ele>1231</ele>
        <time>2026-08-19T05:53:31.566Z</time>
      </trkpt>
      <trkpt lat="45.90754" lon="6.33691">
        <ele>1231</ele>
        <time>2026-08-19T05:53:32.566Z</time>
      </trkpt>
      <trkpt lat="45.90755" lon="6.33691">
        <ele>1231</ele>
        <time>2026-08-19T05:53:33.566Z</time>
      </trkpt>
      <trkpt lat="45.90756" lon="6.33691">
        <ele>1232</ele>
        <time>2026-08-19T05:53:34.566Z</time>
      </trkpt>
      <trkpt lat="45.90757" lon="6.33691">
        <ele>1232</ele>
        <time>2026-08-19T05:53:35.566Z</time>
      </trkpt>
      <trkpt lat="45.90758" lon="6.33691">
        <ele>1232</ele>
        <time>2026-08-19T05:53:36.566Z</time>
      </trkpt>
      <trkpt lat="45.90759" lon="6.33691">
        <ele>1233</ele>
        <time>2026-08-19T05:53:37.566Z</time>
      </trkpt>
      <trkpt lat="45.9076" lon="6.33691">
        <ele>1233</ele>
        <time>2026-08-19T05:53:38.566Z</time>
      </trkpt>
      <trkpt lat="45.9076" lon="6.3369">
        <ele>1232</ele>
        <time>2026-08-19T05:53:39.566Z</time>
      </trkpt>
      <trkpt lat="45.90761" lon="6.33688">
        <ele>1232</ele>
        <time>2026-08-19T05:53:40.566Z</time>
      </trkpt>
      <trkpt lat="45.90761" lon="6.33687">
        <ele>1232</ele>
        <time>2026-08-19T05:53:41.566Z</time>
      </trkpt>
      <trkpt lat="45.90761" lon="6.33686">
        <ele>1232</ele>
        <time>2026-08-19T05:53:42.567Z</time>
      </trkpt>
      <trkpt lat="45.90761" lon="6.33686">
        <ele>1232</ele>
        <time>2026-08-19T05:53:43.566Z</time>
      </trkpt>
      <trkpt lat="45.90762" lon="6.33686">
        <ele>1232</ele>
        <time>2026-08-19T05:53:44.566Z</time>
      </trkpt>
      <trkpt lat="45.90762" lon="6.33686">
        <ele>1232</ele>
        <time>2026-08-19T05:53:45.566Z</time>
      </trkpt>
      <trkpt lat="45.90763" lon="6.33686">
        <ele>1233</ele>
        <time>2026-08-19T05:53:46.566Z</time>
      </trkpt>
      <trkpt lat="45.90763" lon="6.33686">
        <ele>1233</ele>
        <time>2026-08-19T05:53:47.566Z</time>
      </trkpt>
      <trkpt lat="45.90764" lon="6.33686">
        <ele>1234</ele>
        <time>2026-08-19T05:53:48.566Z</time>
      </trkpt>
      <trkpt lat="45.90764" lon="6.33686">
        <ele>1234</ele>
        <time>2026-08-19T05:53:49.566Z</time>
      </trkpt>
      <trkpt lat="45.90765" lon="6.33686">
        <ele>1234</ele>
        <time>2026-08-19T05:53:50.566Z</time>
      </trkpt>
      <trkpt lat="45.90766" lon="6.33686">
        <ele>1235</ele>
        <time>2026-08-19T05:53:51.566Z</time>
      </trkpt>
      <trkpt lat="45.90767" lon="6.33686">
        <ele>1235</ele>
        <time>2026-08-19T05:53:52.566Z</time>
      </trkpt>
      <trkpt lat="45.90769" lon="6.33687">
        <ele>1235</ele>
        <time>2026-08-19T05:53:53.566Z</time>
      </trkpt>
      <trkpt lat="45.9077" lon="6.33688">
        <ele>1235</ele>
        <time>2026-08-19T05:53:54.566Z</time>
      </trkpt>
      <trkpt lat="45.90771" lon="6.33688">
        <ele>1236</ele>
        <time>2026-08-19T05:53:55.566Z</time>
      </trkpt>
      <trkpt lat="45.90772" lon="6.33688">
        <ele>1236</ele>
        <time>2026-08-19T05:53:56.566Z</time>
      </trkpt>
      <trkpt lat="45.90773" lon="6.33688">
        <ele>1236</ele>
        <time>2026-08-19T05:53:57.566Z</time>
      </trkpt>
      <trkpt lat="45.90774" lon="6.33688">
        <ele>1236</ele>
        <time>2026-08-19T05:53:58.566Z</time>
      </trkpt>
      <trkpt lat="45.90774" lon="6.33687">
        <ele>1236</ele>
        <time>2026-08-19T05:53:59.566Z</time>
      </trkpt>
      <trkpt lat="45.90775" lon="6.33686">
        <ele>1237</ele>
        <time>2026-08-19T05:54:00.566Z</time>
      </trkpt>
      <trkpt lat="45.90775" lon="6.33686">
        <ele>1237</ele>
        <time>2026-08-19T05:54:01.566Z</time>
      </trkpt>
      <trkpt lat="45.90776" lon="6.33686">
        <ele>1237</ele>
        <time>2026-08-19T05:54:02.566Z</time>
      </trkpt>
      <trkpt lat="45.90777" lon="6.33687">
        <ele>1237</ele>
        <time>2026-08-19T05:54:03.566Z</time>
      </trkpt>
      <trkpt lat="45.90778" lon="6.33687">
        <ele>1237</ele>
        <time>2026-08-19T05:54:04.566Z</time>
      </trkpt>
      <trkpt lat="45.90778" lon="6.33687">
        <ele>1238</ele>
        <time>2026-08-19T05:54:05.567Z</time>
      </trkpt>
      <trkpt lat="45.90779" lon="6.33687">
        <ele>1238</ele>
        <time>2026-08-19T05:54:06.566Z</time>
      </trkpt>
      <trkpt lat="45.90779" lon="6.33688">
        <ele>1239</ele>
        <time>2026-08-19T05:54:07.566Z</time>
      </trkpt>
      <trkpt lat="45.90779" lon="6.33688">
        <ele>1239</ele>
        <time>2026-08-19T05:54:08.566Z</time>
      </trkpt>
      <trkpt lat="45.90779" lon="6.33688">
        <ele>1240</ele>
        <time>2026-08-19T05:54:09.566Z</time>
      </trkpt>
      <trkpt lat="45.9078" lon="6.33688">
        <ele>1240</ele>
        <time>2026-08-19T05:54:10.566Z</time>
      </trkpt>
      <trkpt lat="45.90781" lon="6.33688">
        <ele>1240</ele>
        <time>2026-08-19T05:54:11.566Z</time>
      </trkpt>
      <trkpt lat="45.90781" lon="6.33688">
        <ele>1240</ele>
        <time>2026-08-19T05:54:12.566Z</time>
      </trkpt>
      <trkpt lat="45.90782" lon="6.33688">
        <ele>1241</ele>
        <time>2026-08-19T05:54:13.566Z</time>
      </trkpt>
      <trkpt lat="45.90783" lon="6.33688">
        <ele>1241</ele>
        <time>2026-08-19T05:54:14.566Z</time>
      </trkpt>
      <trkpt lat="45.90783" lon="6.33689">
        <ele>1241</ele>
        <time>2026-08-19T05:54:15.566Z</time>
      </trkpt>
      <trkpt lat="45.90784" lon="6.33689">
        <ele>1242</ele>
        <time>2026-08-19T05:54:16.566Z</time>
      </trkpt>
      <trkpt lat="45.90784" lon="6.33689">
        <ele>1242</ele>
        <time>2026-08-19T05:54:17.566Z</time>
      </trkpt>
      <trkpt lat="45.90784" lon="6.33689">
        <ele>1243</ele>
        <time>2026-08-19T05:54:18.566Z</time>
      </trkpt>
      <trkpt lat="45.90784" lon="6.3369">
        <ele>1243</ele>
        <time>2026-08-19T05:54:19.566Z</time>
      </trkpt>
      <trkpt lat="45.90786" lon="6.33691">
        <ele>1243</ele>
        <time>2026-08-19T05:54:20.566Z</time>
      </trkpt>
      <trkpt lat="45.90786" lon="6.33693">
        <ele>1243</ele>
        <time>2026-08-19T05:54:21.566Z</time>
      </trkpt>
      <trkpt lat="45.90786" lon="6.33694">
        <ele>1243</ele>
        <time>2026-08-19T05:54:22.566Z</time>
      </trkpt>
      <trkpt lat="45.90786" lon="6.33694">
        <ele>1243</ele>
        <time>2026-08-19T05:54:23.566Z</time>
      </trkpt>
      <trkpt lat="45.90787" lon="6.33693">
        <ele>1243</ele>
        <time>2026-08-19T05:54:24.566Z</time>
      </trkpt>
      <trkpt lat="45.90787" lon="6.33694">
        <ele>1244</ele>
        <time>2026-08-19T05:54:25.566Z</time>
      </trkpt>
      <trkpt lat="45.90787" lon="6.33694">
        <ele>1244</ele>
        <time>2026-08-19T05:54:26.566Z</time>
      </trkpt>
      <trkpt lat="45.90787" lon="6.33695">
        <ele>1244</ele>
        <time>2026-08-19T05:54:27.566Z</time>
      </trkpt>
      <trkpt lat="45.90787" lon="6.33695">
        <ele>1244</ele>
        <time>2026-08-19T05:54:28.566Z</time>
      </trkpt>
      <trkpt lat="45.90787" lon="6.33695">
        <ele>1244</ele>
        <time>2026-08-19T05:54:29.566Z</time>
      </trkpt>
      <trkpt lat="45.90788" lon="6.33695">
        <ele>1245</ele>
        <time>2026-08-19T05:54:30.566Z</time>
      </trkpt>
      <trkpt lat="45.90788" lon="6.33696">
        <ele>1245</ele>
        <time>2026-08-19T05:54:31.566Z</time>
      </trkpt>
      <trkpt lat="45.90789" lon="6.33697">
        <ele>1245</ele>
        <time>2026-08-19T05:54:32.566Z</time>
      </trkpt>
      <trkpt lat="45.90789" lon="6.33697">
        <ele>1245</ele>
        <time>2026-08-19T05:54:33.566Z</time>
      </trkpt>
      <trkpt lat="45.9079" lon="6.33697">
        <ele>1246</ele>
        <time>2026-08-19T05:54:34.566Z</time>
      </trkpt>
      <trkpt lat="45.90791" lon="6.33697">
        <ele>1246</ele>
        <time>2026-08-19T05:54:35.566Z</time>
      </trkpt>
      <trkpt lat="45.90792" lon="6.33697">
        <ele>1247</ele>
        <time>2026-08-19T05:54:36.566Z</time>
      </trkpt>
      <trkpt lat="45.90793" lon="6.33697">
        <ele>1247</ele>
        <time>2026-08-19T05:54:37.566Z</time>
      </trkpt>
      <trkpt lat="45.90794" lon="6.33697">
        <ele>1248</ele>
        <time>2026-08-19T05:54:38.566Z</time>
      </trkpt>
      <trkpt lat="45.90795" lon="6.33697">
        <ele>1249</ele>
        <time>2026-08-19T05:54:39.566Z</time>
      </trkpt>
      <trkpt lat="45.90795" lon="6.33697">
        <ele>1249</ele>
        <time>2026-08-19T05:54:40.566Z</time>
      </trkpt>
      <trkpt lat="45.90796" lon="6.33698">
        <ele>1250</ele>
        <time>2026-08-19T05:54:41.566Z</time>
      </trkpt>
      <trkpt lat="45.90797" lon="6.33698">
        <ele>1250</ele>
        <time>2026-08-19T05:54:42.566Z</time>
      </trkpt>
      <trkpt lat="45.90797" lon="6.33698">
        <ele>1250</ele>
        <time>2026-08-19T05:54:43.566Z</time>
      </trkpt>
      <trkpt lat="45.90797" lon="6.33698">
        <ele>1251</ele>
        <time>2026-08-19T05:54:44.566Z</time>
      </trkpt>
      <trkpt lat="45.90798" lon="6.33698">
        <ele>1251</ele>
        <time>2026-08-19T05:54:45.566Z</time>
      </trkpt>
      <trkpt lat="45.90798" lon="6.33698">
        <ele>1251</ele>
        <time>2026-08-19T05:54:46.566Z</time>
      </trkpt>
      <trkpt lat="45.90799" lon="6.33698">
        <ele>1252</ele>
        <time>2026-08-19T05:54:47.566Z</time>
      </trkpt>
      <trkpt lat="45.908" lon="6.33697">
        <ele>1252</ele>
        <time>2026-08-19T05:54:48.566Z</time>
      </trkpt>
      <trkpt lat="45.90801" lon="6.33697">
        <ele>1253</ele>
        <time>2026-08-19T05:54:49.566Z</time>
      </trkpt>
      <trkpt lat="45.90802" lon="6.33698">
        <ele>1253</ele>
        <time>2026-08-19T05:54:50.566Z</time>
      </trkpt>
      <trkpt lat="45.90802" lon="6.33697">
        <ele>1253</ele>
        <time>2026-08-19T05:54:51.566Z</time>
      </trkpt>
      <trkpt lat="45.90803" lon="6.33698">
        <ele>1252</ele>
        <time>2026-08-19T05:54:52.566Z</time>
      </trkpt>
      <trkpt lat="45.90804" lon="6.33698">
        <ele>1252</ele>
        <time>2026-08-19T05:54:53.566Z</time>
      </trkpt>
      <trkpt lat="45.90805" lon="6.33699">
        <ele>1252</ele>
        <time>2026-08-19T05:54:54.566Z</time>
      </trkpt>
      <trkpt lat="45.90805" lon="6.33699">
        <ele>1252</ele>
        <time>2026-08-19T05:54:55.566Z</time>
      </trkpt>
      <trkpt lat="45.90806" lon="6.33699">
        <ele>1251</ele>
        <time>2026-08-19T05:54:56.566Z</time>
      </trkpt>
      <trkpt lat="45.90807" lon="6.33701">
        <ele>1251</ele>
        <time>2026-08-19T05:54:57.566Z</time>
      </trkpt>
      <trkpt lat="45.90807" lon="6.33701">
        <ele>1251</ele>
        <time>2026-08-19T05:54:58.566Z</time>
      </trkpt>
      <trkpt lat="45.90808" lon="6.33703">
        <ele>1252</ele>
        <time>2026-08-19T05:54:59.566Z</time>
      </trkpt>
      <trkpt lat="45.90809" lon="6.33704">
        <ele>1252</ele>
        <time>2026-08-19T05:55:00.566Z</time>
      </trkpt>
      <trkpt lat="45.90809" lon="6.33705">
        <ele>1252</ele>
        <time>2026-08-19T05:55:01.566Z</time>
      </trkpt>
      <trkpt lat="45.9081" lon="6.33706">
        <ele>1253</ele>
        <time>2026-08-19T05:55:02.566Z</time>
      </trkpt>
      <trkpt lat="45.90811" lon="6.33706">
        <ele>1253</ele>
        <time>2026-08-19T05:55:03.566Z</time>
      </trkpt>
      <trkpt lat="45.90811" lon="6.33706">
        <ele>1254</ele>
        <time>2026-08-19T05:55:04.566Z</time>
      </trkpt>
      <trkpt lat="45.90812" lon="6.33706">
        <ele>1255</ele>
        <time>2026-08-19T05:55:05.566Z</time>
      </trkpt>
      <trkpt lat="45.90812" lon="6.33705">
        <ele>1255</ele>
        <time>2026-08-19T05:55:06.566Z</time>
      </trkpt>
      <trkpt lat="45.90813" lon="6.33705">
        <ele>1256</ele>
        <time>2026-08-19T05:55:07.566Z</time>
      </trkpt>
      <trkpt lat="45.90813" lon="6.33705">
        <ele>1256</ele>
        <time>2026-08-19T05:55:08.566Z</time>
      </trkpt>
      <trkpt lat="45.90814" lon="6.33705">
        <ele>1256</ele>
        <time>2026-08-19T05:55:09.566Z</time>
      </trkpt>
      <trkpt lat="45.90814" lon="6.33705">
        <ele>1257</ele>
        <time>2026-08-19T05:55:10.566Z</time>
      </trkpt>
      <trkpt lat="45.90815" lon="6.33706">
        <ele>1257</ele>
        <time>2026-08-19T05:55:11.566Z</time>
      </trkpt>
      <trkpt lat="45.90816" lon="6.33706">
        <ele>1257</ele>
        <time>2026-08-19T05:55:12.566Z</time>
      </trkpt>
      <trkpt lat="45.90816" lon="6.33707">
        <ele>1258</ele>
        <time>2026-08-19T05:55:13.566Z</time>
      </trkpt>
      <trkpt lat="45.90817" lon="6.33707">
        <ele>1258</ele>
        <time>2026-08-19T05:55:14.566Z</time>
      </trkpt>
      <trkpt lat="45.90818" lon="6.33706">
        <ele>1258</ele>
        <time>2026-08-19T05:55:15.566Z</time>
      </trkpt>
      <trkpt lat="45.90819" lon="6.33706">
        <ele>1258</ele>
        <time>2026-08-19T05:55:16.566Z</time>
      </trkpt>
      <trkpt lat="45.9082" lon="6.33707">
        <ele>1259</ele>
        <time>2026-08-19T05:55:17.566Z</time>
      </trkpt>
      <trkpt lat="45.90821" lon="6.33707">
        <ele>1259</ele>
        <time>2026-08-19T05:55:18.566Z</time>
      </trkpt>
      <trkpt lat="45.90822" lon="6.33708">
        <ele>1260</ele>
        <time>2026-08-19T05:55:19.566Z</time>
      </trkpt>
      <trkpt lat="45.90823" lon="6.33708">
        <ele>1260</ele>
        <time>2026-08-19T05:55:20.566Z</time>
      </trkpt>
      <trkpt lat="45.90824" lon="6.33708">
        <ele>1261</ele>
        <time>2026-08-19T05:55:21.566Z</time>
      </trkpt>
      <trkpt lat="45.90826" lon="6.33708">
        <ele>1261</ele>
        <time>2026-08-19T05:55:22.566Z</time>
      </trkpt>
      <trkpt lat="45.90827" lon="6.33707">
        <ele>1262</ele>
        <time>2026-08-19T05:55:23.566Z</time>
      </trkpt>
      <trkpt lat="45.90828" lon="6.33707">
        <ele>1262</ele>
        <time>2026-08-19T05:55:24.566Z</time>
      </trkpt>
      <trkpt lat="45.90829" lon="6.33707">
        <ele>1262</ele>
        <time>2026-08-19T05:55:25.566Z</time>
      </trkpt>
      <trkpt lat="45.9083" lon="6.33707">
        <ele>1263</ele>
        <time>2026-08-19T05:55:26.566Z</time>
      </trkpt>
      <trkpt lat="45.9083" lon="6.33706">
        <ele>1263</ele>
        <time>2026-08-19T05:55:27.566Z</time>
      </trkpt>
      <trkpt lat="45.90831" lon="6.33706">
        <ele>1263</ele>
        <time>2026-08-19T05:55:28.566Z</time>
      </trkpt>
      <trkpt lat="45.90832" lon="6.33706">
        <ele>1264</ele>
        <time>2026-08-19T05:55:29.566Z</time>
      </trkpt>
      <trkpt lat="45.90833" lon="6.33707">
        <ele>1264</ele>
        <time>2026-08-19T05:55:30.566Z</time>
      </trkpt>
      <trkpt lat="45.90834" lon="6.33708">
        <ele>1264</ele>
        <time>2026-08-19T05:55:31.566Z</time>
      </trkpt>
      <trkpt lat="45.90835" lon="6.33709">
        <ele>1264</ele>
        <time>2026-08-19T05:55:32.566Z</time>
      </trkpt>
      <trkpt lat="45.90835" lon="6.3371">
        <ele>1264</ele>
        <time>2026-08-19T05:55:33.566Z</time>
      </trkpt>
      <trkpt lat="45.90836" lon="6.3371">
        <ele>1264</ele>
        <time>2026-08-19T05:55:34.566Z</time>
      </trkpt>
      <trkpt lat="45.90837" lon="6.33709">
        <ele>1264</ele>
        <time>2026-08-19T05:55:35.566Z</time>
      </trkpt>
      <trkpt lat="45.90838" lon="6.3371">
        <ele>1265</ele>
        <time>2026-08-19T05:55:36.566Z</time>
      </trkpt>
      <trkpt lat="45.90839" lon="6.33711">
        <ele>1265</ele>
        <time>2026-08-19T05:55:37.566Z</time>
      </trkpt>
      <trkpt lat="45.9084" lon="6.33713">
        <ele>1265</ele>
        <time>2026-08-19T05:55:38.566Z</time>
      </trkpt>
      <trkpt lat="45.90841" lon="6.33714">
        <ele>1266</ele>
        <time>2026-08-19T05:55:39.566Z</time>
      </trkpt>
      <trkpt lat="45.90841" lon="6.33715">
        <ele>1266</ele>
        <time>2026-08-19T05:55:40.566Z</time>
      </trkpt>
      <trkpt lat="45.90842" lon="6.33716">
        <ele>1266</ele>
        <time>2026-08-19T05:55:41.566Z</time>
      </trkpt>
      <trkpt lat="45.90844" lon="6.33716">
        <ele>1266</ele>
        <time>2026-08-19T05:55:42.566Z</time>
      </trkpt>
      <trkpt lat="45.90845" lon="6.33716">
        <ele>1266</ele>
        <time>2026-08-19T05:55:43.566Z</time>
      </trkpt>
      <trkpt lat="45.90846" lon="6.33715">
        <ele>1266</ele>
        <time>2026-08-19T05:55:44.566Z</time>
      </trkpt>
      <trkpt lat="45.90848" lon="6.33715">
        <ele>1267</ele>
        <time>2026-08-19T05:55:45.566Z</time>
      </trkpt>
      <trkpt lat="45.9085" lon="6.33715">
        <ele>1266</ele>
        <time>2026-08-19T05:55:46.566Z</time>
      </trkpt>
      <trkpt lat="45.90851" lon="6.33715">
        <ele>1266</ele>
        <time>2026-08-19T05:55:47.566Z</time>
      </trkpt>
      <trkpt lat="45.90853" lon="6.33715">
        <ele>1266</ele>
        <time>2026-08-19T05:55:48.566Z</time>
      </trkpt>
      <trkpt lat="45.90854" lon="6.33716">
        <ele>1266</ele>
        <time>2026-08-19T05:55:49.566Z</time>
      </trkpt>
      <trkpt lat="45.90855" lon="6.33717">
        <ele>1266</ele>
        <time>2026-08-19T05:55:50.566Z</time>
      </trkpt>
      <trkpt lat="45.90857" lon="6.33718">
        <ele>1266</ele>
        <time>2026-08-19T05:55:51.566Z</time>
      </trkpt>
      <trkpt lat="45.90859" lon="6.33719">
        <ele>1266</ele>
        <time>2026-08-19T05:55:52.566Z</time>
      </trkpt>
      <trkpt lat="45.90861" lon="6.3372">
        <ele>1266</ele>
        <time>2026-08-19T05:55:53.566Z</time>
      </trkpt>
      <trkpt lat="45.90862" lon="6.33721">
        <ele>1266</ele>
        <time>2026-08-19T05:55:54.566Z</time>
      </trkpt>
      <trkpt lat="45.90862" lon="6.33721">
        <ele>1266</ele>
        <time>2026-08-19T05:55:55.566Z</time>
      </trkpt>
      <trkpt lat="45.90863" lon="6.33722">
        <ele>1266</ele>
        <time>2026-08-19T05:55:56.566Z</time>
      </trkpt>
      <trkpt lat="45.90864" lon="6.33722">
        <ele>1266</ele>
        <time>2026-08-19T05:55:57.566Z</time>
      </trkpt>
      <trkpt lat="45.90866" lon="6.33723">
        <ele>1267</ele>
        <time>2026-08-19T05:55:58.566Z</time>
      </trkpt>
      <trkpt lat="45.90867" lon="6.33723">
        <ele>1267</ele>
        <time>2026-08-19T05:55:59.566Z</time>
      </trkpt>
      <trkpt lat="45.90869" lon="6.33724">
        <ele>1267</ele>
        <time>2026-08-19T05:56:00.566Z</time>
      </trkpt>
      <trkpt lat="45.9087" lon="6.33725">
        <ele>1266</ele>
        <time>2026-08-19T05:56:01.566Z</time>
      </trkpt>
      <trkpt lat="45.9087" lon="6.33725">
        <ele>1266</ele>
        <time>2026-08-19T05:56:02.566Z</time>
      </trkpt>
      <trkpt lat="45.90871" lon="6.33727">
        <ele>1266</ele>
        <time>2026-08-19T05:56:03.566Z</time>
      </trkpt>
      <trkpt lat="45.90871" lon="6.33728">
        <ele>1266</ele>
        <time>2026-08-19T05:56:04.566Z</time>
      </trkpt>
      <trkpt lat="45.90872" lon="6.33729">
        <ele>1266</ele>
        <time>2026-08-19T05:56:05.566Z</time>
      </trkpt>
      <trkpt lat="45.90873" lon="6.33731">
        <ele>1266</ele>
        <time>2026-08-19T05:56:06.566Z</time>
      </trkpt>
      <trkpt lat="45.90874" lon="6.33734">
        <ele>1265</ele>
        <time>2026-08-19T05:56:07.566Z</time>
      </trkpt>
      <trkpt lat="45.90875" lon="6.33736">
        <ele>1265</ele>
        <time>2026-08-19T05:56:08.566Z</time>
      </trkpt>
      <trkpt lat="45.90876" lon="6.33737">
        <ele>1265</ele>
        <time>2026-08-19T05:56:09.566Z</time>
      </trkpt>
      <trkpt lat="45.90877" lon="6.33738">
        <ele>1264</ele>
        <time>2026-08-19T05:56:10.566Z</time>
      </trkpt>
      <trkpt lat="45.90878" lon="6.33738">
        <ele>1264</ele>
        <time>2026-08-19T05:56:11.566Z</time>
      </trkpt>
      <trkpt lat="45.9088" lon="6.33739">
        <ele>1264</ele>
        <time>2026-08-19T05:56:12.566Z</time>
      </trkpt>
      <trkpt lat="45.90881" lon="6.33741">
        <ele>1264</ele>
        <time>2026-08-19T05:56:13.566Z</time>
      </trkpt>
      <trkpt lat="45.90882" lon="6.33742">
        <ele>1264</ele>
        <time>2026-08-19T05:56:14.566Z</time>
      </trkpt>
      <trkpt lat="45.90883" lon="6.33743">
        <ele>1264</ele>
        <time>2026-08-19T05:56:15.566Z</time>
      </trkpt>
      <trkpt lat="45.90884" lon="6.33744">
        <ele>1264</ele>
        <time>2026-08-19T05:56:16.566Z</time>
      </trkpt>
      <trkpt lat="45.90886" lon="6.33746">
        <ele>1264</ele>
        <time>2026-08-19T05:56:17.566Z</time>
      </trkpt>
      <trkpt lat="45.90887" lon="6.33748">
        <ele>1263</ele>
        <time>2026-08-19T05:56:18.566Z</time>
      </trkpt>
      <trkpt lat="45.90889" lon="6.33749">
        <ele>1263</ele>
        <time>2026-08-19T05:56:19.566Z</time>
      </trkpt>
      <trkpt lat="45.9089" lon="6.3375">
        <ele>1263</ele>
        <time>2026-08-19T05:56:20.566Z</time>
      </trkpt>
      <trkpt lat="45.90891" lon="6.33752">
        <ele>1263</ele>
        <time>2026-08-19T05:56:21.566Z</time>
      </trkpt>
      <trkpt lat="45.90891" lon="6.33753">
        <ele>1263</ele>
        <time>2026-08-19T05:56:22.566Z</time>
      </trkpt>
      <trkpt lat="45.90892" lon="6.33754">
        <ele>1264</ele>
        <time>2026-08-19T05:56:23.566Z</time>
      </trkpt>
      <trkpt lat="45.90893" lon="6.33753">
        <ele>1264</ele>
        <time>2026-08-19T05:56:24.566Z</time>
      </trkpt>
      <trkpt lat="45.90894" lon="6.33754">
        <ele>1264</ele>
        <time>2026-08-19T05:56:25.566Z</time>
      </trkpt>
      <trkpt lat="45.90895" lon="6.33753">
        <ele>1265</ele>
        <time>2026-08-19T05:56:26.566Z</time>
      </trkpt>
      <trkpt lat="45.90896" lon="6.33754">
        <ele>1265</ele>
        <time>2026-08-19T05:56:27.566Z</time>
      </trkpt>
      <trkpt lat="45.90896" lon="6.33754">
        <ele>1266</ele>
        <time>2026-08-19T05:56:28.566Z</time>
      </trkpt>
      <trkpt lat="45.90896" lon="6.33754">
        <ele>1266</ele>
        <time>2026-08-19T05:56:29.566Z</time>
      </trkpt>
      <trkpt lat="45.90897" lon="6.33754">
        <ele>1266</ele>
        <time>2026-08-19T05:56:30.566Z</time>
      </trkpt>
      <trkpt lat="45.90897" lon="6.33754">
        <ele>1266</ele>
        <time>2026-08-19T05:56:31.566Z</time>
      </trkpt>
      <trkpt lat="45.90896" lon="6.33754">
        <ele>1267</ele>
        <time>2026-08-19T05:56:32.566Z</time>
      </trkpt>
      <trkpt lat="45.90896" lon="6.33753">
        <ele>1267</ele>
        <time>2026-08-19T05:56:33.566Z</time>
      </trkpt>
      <trkpt lat="45.90896" lon="6.33752">
        <ele>1267</ele>
        <time>2026-08-19T05:56:34.566Z</time>
      </trkpt>
      <trkpt lat="45.90896" lon="6.33752">
        <ele>1267</ele>
        <time>2026-08-19T05:56:35.566Z</time>
      </trkpt>
      <trkpt lat="45.90897" lon="6.33751">
        <ele>1267</ele>
        <time>2026-08-19T05:56:36.566Z</time>
      </trkpt>
      <trkpt lat="45.90897" lon="6.3375">
        <ele>1267</ele>
        <time>2026-08-19T05:56:37.566Z</time>
      </trkpt>
      <trkpt lat="45.90897" lon="6.3375">
        <ele>1267</ele>
        <time>2026-08-19T05:56:38.566Z</time>
      </trkpt>
      <trkpt lat="45.90897" lon="6.3375">
        <ele>1268</ele>
        <time>2026-08-19T05:56:39.566Z</time>
      </trkpt>
      <trkpt lat="45.90899" lon="6.3375">
        <ele>1268</ele>
        <time>2026-08-19T05:56:40.566Z</time>
      </trkpt>
      <trkpt lat="45.909" lon="6.3375">
        <ele>1268</ele>
        <time>2026-08-19T05:56:41.566Z</time>
      </trkpt>
      <trkpt lat="45.909" lon="6.3375">
        <ele>1269</ele>
        <time>2026-08-19T05:56:42.566Z</time>
      </trkpt>
      <trkpt lat="45.90901" lon="6.3375">
        <ele>1269</ele>
        <time>2026-08-19T05:56:43.566Z</time>
      </trkpt>
      <trkpt lat="45.90901" lon="6.33751">
        <ele>1270</ele>
        <time>2026-08-19T05:56:44.566Z</time>
      </trkpt>
      <trkpt lat="45.90903" lon="6.33751">
        <ele>1270</ele>
        <time>2026-08-19T05:56:45.566Z</time>
      </trkpt>
      <trkpt lat="45.90904" lon="6.33751">
        <ele>1271</ele>
        <time>2026-08-19T05:56:46.566Z</time>
      </trkpt>
      <trkpt lat="45.90904" lon="6.33752">
        <ele>1271</ele>
        <time>2026-08-19T05:56:47.566Z</time>
      </trkpt>
      <trkpt lat="45.90905" lon="6.33752">
        <ele>1272</ele>
        <time>2026-08-19T05:56:48.566Z</time>
      </trkpt>
      <trkpt lat="45.90905" lon="6.33752">
        <ele>1272</ele>
        <time>2026-08-19T05:56:49.566Z</time>
      </trkpt>
      <trkpt lat="45.90905" lon="6.33752">
        <ele>1273</ele>
        <time>2026-08-19T05:56:50.566Z</time>
      </trkpt>
      <trkpt lat="45.90906" lon="6.33751">
        <ele>1273</ele>
        <time>2026-08-19T05:56:51.566Z</time>
      </trkpt>
      <trkpt lat="45.90906" lon="6.33751">
        <ele>1274</ele>
        <time>2026-08-19T05:56:52.566Z</time>
      </trkpt>
      <trkpt lat="45.90906" lon="6.3375">
        <ele>1274</ele>
        <time>2026-08-19T05:56:53.566Z</time>
      </trkpt>
      <trkpt lat="45.90907" lon="6.3375">
        <ele>1275</ele>
        <time>2026-08-19T05:56:54.566Z</time>
      </trkpt>
      <trkpt lat="45.90907" lon="6.33749">
        <ele>1276</ele>
        <time>2026-08-19T05:56:55.566Z</time>
      </trkpt>
      <trkpt lat="45.90908" lon="6.33749">
        <ele>1276</ele>
        <time>2026-08-19T05:56:56.566Z</time>
      </trkpt>
      <trkpt lat="45.90908" lon="6.33748">
        <ele>1277</ele>
        <time>2026-08-19T05:56:57.566Z</time>
      </trkpt>
      <trkpt lat="45.90908" lon="6.33748">
        <ele>1278</ele>
        <time>2026-08-19T05:56:58.566Z</time>
      </trkpt>
      <trkpt lat="45.90909" lon="6.33748">
        <ele>1279</ele>
        <time>2026-08-19T05:56:59.566Z</time>
      </trkpt>
      <trkpt lat="45.90911" lon="6.33749">
        <ele>1279</ele>
        <time>2026-08-19T05:57:00.566Z</time>
      </trkpt>
      <trkpt lat="45.90912" lon="6.3375">
        <ele>1280</ele>
        <time>2026-08-19T05:57:01.566Z</time>
      </trkpt>
      <trkpt lat="45.90912" lon="6.33751">
        <ele>1281</ele>
        <time>2026-08-19T05:57:02.566Z</time>
      </trkpt>
      <trkpt lat="45.90913" lon="6.33751">
        <ele>1282</ele>
        <time>2026-08-19T05:57:03.566Z</time>
      </trkpt>
      <trkpt lat="45.90914" lon="6.33751">
        <ele>1282</ele>
        <time>2026-08-19T05:57:04.566Z</time>
      </trkpt>
      <trkpt lat="45.90915" lon="6.33752">
        <ele>1283</ele>
        <time>2026-08-19T05:57:05.566Z</time>
      </trkpt>
      <trkpt lat="45.90915" lon="6.33752">
        <ele>1284</ele>
        <time>2026-08-19T05:57:06.566Z</time>
      </trkpt>
      <trkpt lat="45.90915" lon="6.33752">
        <ele>1284</ele>
        <time>2026-08-19T05:57:07.566Z</time>
      </trkpt>
      <trkpt lat="45.90915" lon="6.33752">
        <ele>1285</ele>
        <time>2026-08-19T05:57:08.566Z</time>
      </trkpt>
      <trkpt lat="45.90916" lon="6.33752">
        <ele>1285</ele>
        <time>2026-08-19T05:57:09.566Z</time>
      </trkpt>
      <trkpt lat="45.90917" lon="6.33753">
        <ele>1286</ele>
        <time>2026-08-19T05:57:10.566Z</time>
      </trkpt>
      <trkpt lat="45.90917" lon="6.33753">
        <ele>1286</ele>
        <time>2026-08-19T05:57:11.566Z</time>
      </trkpt>
      <trkpt lat="45.90917" lon="6.33753">
        <ele>1287</ele>
        <time>2026-08-19T05:57:12.566Z</time>
      </trkpt>
      <trkpt lat="45.90917" lon="6.33752">
        <ele>1287</ele>
        <time>2026-08-19T05:57:13.566Z</time>
      </trkpt>
      <trkpt lat="45.90917" lon="6.33752">
        <ele>1287</ele>
        <time>2026-08-19T05:57:14.566Z</time>
      </trkpt>
      <trkpt lat="45.90918" lon="6.33753">
        <ele>1288</ele>
        <time>2026-08-19T05:57:15.566Z</time>
      </trkpt>
      <trkpt lat="45.90919" lon="6.33753">
        <ele>1288</ele>
        <time>2026-08-19T05:57:16.566Z</time>
      </trkpt>
      <trkpt lat="45.9092" lon="6.33753">
        <ele>1289</ele>
        <time>2026-08-19T05:57:17.566Z</time>
      </trkpt>
      <trkpt lat="45.9092" lon="6.33753">
        <ele>1290</ele>
        <time>2026-08-19T05:57:18.566Z</time>
      </trkpt>
      <trkpt lat="45.9092" lon="6.33753">
        <ele>1291</ele>
        <time>2026-08-19T05:57:19.566Z</time>
      </trkpt>
      <trkpt lat="45.9092" lon="6.33753">
        <ele>1291</ele>
        <time>2026-08-19T05:57:20.566Z</time>
      </trkpt>
      <trkpt lat="45.90919" lon="6.33753">
        <ele>1291</ele>
        <time>2026-08-19T05:57:21.566Z</time>
      </trkpt>
      <trkpt lat="45.90919" lon="6.33753">
        <ele>1292</ele>
        <time>2026-08-19T05:57:22.566Z</time>
      </trkpt>
      <trkpt lat="45.90919" lon="6.33752">
        <ele>1292</ele>
        <time>2026-08-19T05:57:23.566Z</time>
      </trkpt>
      <trkpt lat="45.90919" lon="6.33752">
        <ele>1291</ele>
        <time>2026-08-19T05:57:24.566Z</time>
      </trkpt>
      <trkpt lat="45.90919" lon="6.33751">
        <ele>1291</ele>
        <time>2026-08-19T05:57:25.566Z</time>
      </trkpt>
      <trkpt lat="45.90919" lon="6.33751">
        <ele>1291</ele>
        <time>2026-08-19T05:57:26.566Z</time>
      </trkpt>
      <trkpt lat="45.90919" lon="6.33751">
        <ele>1291</ele>
        <time>2026-08-19T05:57:27.566Z</time>
      </trkpt>
      <trkpt lat="45.90919" lon="6.3375">
        <ele>1291</ele>
        <time>2026-08-19T05:57:28.566Z</time>
      </trkpt>
      <trkpt lat="45.90918" lon="6.3375">
        <ele>1291</ele>
        <time>2026-08-19T05:57:29.566Z</time>
      </trkpt>
      <trkpt lat="45.90918" lon="6.3375">
        <ele>1291</ele>
        <time>2026-08-19T05:57:30.566Z</time>
      </trkpt>
      <trkpt lat="45.90918" lon="6.3375">
        <ele>1291</ele>
        <time>2026-08-19T05:57:31.566Z</time>
      </trkpt>
      <trkpt lat="45.90918" lon="6.33749">
        <ele>1291</ele>
        <time>2026-08-19T05:57:32.566Z</time>
      </trkpt>
      <trkpt lat="45.90917" lon="6.33749">
        <ele>1291</ele>
        <time>2026-08-19T05:57:33.566Z</time>
      </trkpt>
      <trkpt lat="45.90917" lon="6.33749">
        <ele>1290</ele>
        <time>2026-08-19T05:57:34.566Z</time>
      </trkpt>
      <trkpt lat="45.90917" lon="6.33749">
        <ele>1290</ele>
        <time>2026-08-19T05:57:35.566Z</time>
      </trkpt>
      <trkpt lat="45.90917" lon="6.33749">
        <ele>1290</ele>
        <time>2026-08-19T05:57:36.566Z</time>
      </trkpt>
      <trkpt lat="45.90917" lon="6.33749">
        <ele>1289</ele>
        <time>2026-08-19T05:57:37.566Z</time>
      </trkpt>
      <trkpt lat="45.90916" lon="6.33749">
        <ele>1289</ele>
        <time>2026-08-19T05:57:38.566Z</time>
      </trkpt>
      <trkpt lat="45.90916" lon="6.3375">
        <ele>1289</ele>
        <time>2026-08-19T05:57:39.566Z</time>
      </trkpt>
      <trkpt lat="45.90917" lon="6.33749">
        <ele>1289</ele>
        <time>2026-08-19T05:57:40.566Z</time>
      </trkpt>
      <trkpt lat="45.90916" lon="6.33749">
        <ele>1288</ele>
        <time>2026-08-19T05:57:41.566Z</time>
      </trkpt>
      <trkpt lat="45.90916" lon="6.33748">
        <ele>1288</ele>
        <time>2026-08-19T05:57:42.566Z</time>
      </trkpt>
      <trkpt lat="45.90916" lon="6.33747">
        <ele>1288</ele>
        <time>2026-08-19T05:57:43.566Z</time>
      </trkpt>
      <trkpt lat="45.90915" lon="6.33747">
        <ele>1287</ele>
        <time>2026-08-19T05:57:44.566Z</time>
      </trkpt>
      <trkpt lat="45.90915" lon="6.33747">
        <ele>1287</ele>
        <time>2026-08-19T05:57:45.566Z</time>
      </trkpt>
      <trkpt lat="45.90914" lon="6.33747">
        <ele>1287</ele>
        <time>2026-08-19T05:57:46.566Z</time>
      </trkpt>
      <trkpt lat="45.90913" lon="6.33746">
        <ele>1287</ele>
        <time>2026-08-19T05:57:47.566Z</time>
      </trkpt>
      <trkpt lat="45.90913" lon="6.33746">
        <ele>1287</ele>
        <time>2026-08-19T05:57:48.566Z</time>
      </trkpt>
      <trkpt lat="45.90912" lon="6.33745">
        <ele>1288</ele>
        <time>2026-08-19T05:57:49.566Z</time>
      </trkpt>
      <trkpt lat="45.90912" lon="6.33745">
        <ele>1288</ele>
        <time>2026-08-19T05:57:50.566Z</time>
      </trkpt>
      <trkpt lat="45.90912" lon="6.33744">
        <ele>1288</ele>
        <time>2026-08-19T05:57:51.566Z</time>
      </trkpt>
      <trkpt lat="45.90912" lon="6.33744">
        <ele>1289</ele>
        <time>2026-08-19T05:57:52.566Z</time>
      </trkpt>
      <trkpt lat="45.90912" lon="6.33743">
        <ele>1289</ele>
        <time>2026-08-19T05:57:53.566Z</time>
      </trkpt>
      <trkpt lat="45.90912" lon="6.33742">
        <ele>1289</ele>
        <time>2026-08-19T05:57:54.566Z</time>
      </trkpt>
      <trkpt lat="45.90911" lon="6.33742">
        <ele>1289</ele>
        <time>2026-08-19T05:57:55.566Z</time>
      </trkpt>
      <trkpt lat="45.90911" lon="6.33741">
        <ele>1289</ele>
        <time>2026-08-19T05:57:56.566Z</time>
      </trkpt>
      <trkpt lat="45.90911" lon="6.3374">
        <ele>1289</ele>
        <time>2026-08-19T05:57:57.566Z</time>
      </trkpt>
      <trkpt lat="45.90911" lon="6.33739">
        <ele>1289</ele>
        <time>2026-08-19T05:57:58.566Z</time>
      </trkpt>
      <trkpt lat="45.9091" lon="6.33738">
        <ele>1289</ele>
        <time>2026-08-19T05:57:59.566Z</time>
      </trkpt>
      <trkpt lat="45.90909" lon="6.33737">
        <ele>1289</ele>
        <time>2026-08-19T05:58:00.566Z</time>
      </trkpt>
      <trkpt lat="45.90909" lon="6.33736">
        <ele>1289</ele>
        <time>2026-08-19T05:58:01.566Z</time>
      </trkpt>
      <trkpt lat="45.90909" lon="6.33735">
        <ele>1289</ele>
        <time>2026-08-19T05:58:02.566Z</time>
      </trkpt>
      <trkpt lat="45.90908" lon="6.33735">
        <ele>1289</ele>
        <time>2026-08-19T05:58:03.566Z</time>
      </trkpt>
      <trkpt lat="45.90908" lon="6.33734">
        <ele>1289</ele>
        <time>2026-08-19T05:58:04.566Z</time>
      </trkpt>
      <trkpt lat="45.90908" lon="6.33732">
        <ele>1290</ele>
        <time>2026-08-19T05:58:05.566Z</time>
      </trkpt>
      <trkpt lat="45.90907" lon="6.33731">
        <ele>1290</ele>
        <time>2026-08-19T05:58:06.566Z</time>
      </trkpt>
      <trkpt lat="45.90907" lon="6.3373">
        <ele>1290</ele>
        <time>2026-08-19T05:58:07.566Z</time>
      </trkpt>
      <trkpt lat="45.90906" lon="6.33729">
        <ele>1290</ele>
        <time>2026-08-19T05:58:08.566Z</time>
      </trkpt>
      <trkpt lat="45.90905" lon="6.33728">
        <ele>1291</ele>
        <time>2026-08-19T05:58:09.566Z</time>
      </trkpt>
      <trkpt lat="45.90905" lon="6.33726">
        <ele>1291</ele>
        <time>2026-08-19T05:58:10.566Z</time>
      </trkpt>
      <trkpt lat="45.90904" lon="6.33725">
        <ele>1291</ele>
        <time>2026-08-19T05:58:11.566Z</time>
      </trkpt>
      <trkpt lat="45.90905" lon="6.33724">
        <ele>1291</ele>
        <time>2026-08-19T05:58:12.566Z</time>
      </trkpt>
      <trkpt lat="45.90905" lon="6.33722">
        <ele>1291</ele>
        <time>2026-08-19T05:58:13.566Z</time>
      </trkpt>
      <trkpt lat="45.90905" lon="6.33721">
        <ele>1291</ele>
        <time>2026-08-19T05:58:14.566Z</time>
      </trkpt>
      <trkpt lat="45.90905" lon="6.3372">
        <ele>1291</ele>
        <time>2026-08-19T05:58:15.566Z</time>
      </trkpt>
      <trkpt lat="45.90905" lon="6.3372">
        <ele>1290</ele>
        <time>2026-08-19T05:58:16.566Z</time>
      </trkpt>
      <trkpt lat="45.90904" lon="6.33718">
        <ele>1290</ele>
        <time>2026-08-19T05:58:17.566Z</time>
      </trkpt>
      <trkpt lat="45.90904" lon="6.33717">
        <ele>1290</ele>
        <time>2026-08-19T05:58:18.566Z</time>
      </trkpt>
      <trkpt lat="45.90904" lon="6.33716">
        <ele>1290</ele>
        <time>2026-08-19T05:58:19.566Z</time>
      </trkpt>
      <trkpt lat="45.90903" lon="6.33715">
        <ele>1290</ele>
        <time>2026-08-19T05:58:20.566Z</time>
      </trkpt>
      <trkpt lat="45.90902" lon="6.33714">
        <ele>1289</ele>
        <time>2026-08-19T05:58:21.566Z</time>
      </trkpt>
      <trkpt lat="45.90901" lon="6.33713">
        <ele>1289</ele>
        <time>2026-08-19T05:58:22.566Z</time>
      </trkpt>
      <trkpt lat="45.909" lon="6.33712">
        <ele>1289</ele>
        <time>2026-08-19T05:58:23.566Z</time>
      </trkpt>
      <trkpt lat="45.909" lon="6.33711">
        <ele>1289</ele>
        <time>2026-08-19T05:58:24.566Z</time>
      </trkpt>
      <trkpt lat="45.90899" lon="6.33711">
        <ele>1289</ele>
        <time>2026-08-19T05:58:25.566Z</time>
      </trkpt>
      <trkpt lat="45.90899" lon="6.3371">
        <ele>1289</ele>
        <time>2026-08-19T05:58:26.566Z</time>
      </trkpt>
      <trkpt lat="45.90899" lon="6.33709">
        <ele>1289</ele>
        <time>2026-08-19T05:58:27.566Z</time>
      </trkpt>
      <trkpt lat="45.90898" lon="6.33707">
        <ele>1290</ele>
        <time>2026-08-19T05:58:28.566Z</time>
      </trkpt>
      <trkpt lat="45.90897" lon="6.33707">
        <ele>1290</ele>
        <time>2026-08-19T05:58:29.566Z</time>
      </trkpt>
      <trkpt lat="45.90897" lon="6.33707">
        <ele>1290</ele>
        <time>2026-08-19T05:58:30.566Z</time>
      </trkpt>
      <trkpt lat="45.90897" lon="6.33706">
        <ele>1290</ele>
        <time>2026-08-19T05:58:31.566Z</time>
      </trkpt>
      <trkpt lat="45.90897" lon="6.33706">
        <ele>1290</ele>
        <time>2026-08-19T05:58:32.566Z</time>
      </trkpt>
      <trkpt lat="45.90897" lon="6.33706">
        <ele>1291</ele>
        <time>2026-08-19T05:58:33.566Z</time>
      </trkpt>
      <trkpt lat="45.90897" lon="6.33705">
        <ele>1291</ele>
        <time>2026-08-19T05:58:34.566Z</time>
      </trkpt>
      <trkpt lat="45.90896" lon="6.33704">
        <ele>1292</ele>
        <time>2026-08-19T05:58:35.566Z</time>
      </trkpt>
      <trkpt lat="45.90896" lon="6.33704">
        <ele>1292</ele>
        <time>2026-08-19T05:58:36.566Z</time>
      </trkpt>
      <trkpt lat="45.90896" lon="6.33703">
        <ele>1292</ele>
        <time>2026-08-19T05:58:37.566Z</time>
      </trkpt>
      <trkpt lat="45.90896" lon="6.33703">
        <ele>1293</ele>
        <time>2026-08-19T05:58:38.566Z</time>
      </trkpt>
      <trkpt lat="45.90896" lon="6.33703">
        <ele>1293</ele>
        <time>2026-08-19T05:58:39.566Z</time>
      </trkpt>
      <trkpt lat="45.90896" lon="6.33703">
        <ele>1294</ele>
        <time>2026-08-19T05:58:40.566Z</time>
      </trkpt>
      <trkpt lat="45.90896" lon="6.33702">
        <ele>1294</ele>
        <time>2026-08-19T05:58:41.566Z</time>
      </trkpt>
      <trkpt lat="45.90895" lon="6.33701">
        <ele>1294</ele>
        <time>2026-08-19T05:58:42.566Z</time>
      </trkpt>
      <trkpt lat="45.90895" lon="6.33701">
        <ele>1295</ele>
        <time>2026-08-19T05:58:43.566Z</time>
      </trkpt>
      <trkpt lat="45.90895" lon="6.337">
        <ele>1296</ele>
        <time>2026-08-19T05:58:44.566Z</time>
      </trkpt>
      <trkpt lat="45.90894" lon="6.33699">
        <ele>1296</ele>
        <time>2026-08-19T05:58:45.566Z</time>
      </trkpt>
      <trkpt lat="45.90893" lon="6.33699">
        <ele>1297</ele>
        <time>2026-08-19T05:58:46.566Z</time>
      </trkpt>
      <trkpt lat="45.90893" lon="6.33698">
        <ele>1298</ele>
        <time>2026-08-19T05:58:47.566Z</time>
      </trkpt>
      <trkpt lat="45.90892" lon="6.33697">
        <ele>1299</ele>
        <time>2026-08-19T05:58:48.566Z</time>
      </trkpt>
      <trkpt lat="45.90891" lon="6.33696">
        <ele>1300</ele>
        <time>2026-08-19T05:58:49.566Z</time>
      </trkpt>
      <trkpt lat="45.90891" lon="6.33694">
        <ele>1300</ele>
        <time>2026-08-19T05:58:50.566Z</time>
      </trkpt>
      <trkpt lat="45.9089" lon="6.33691">
        <ele>1300</ele>
        <time>2026-08-19T05:58:51.566Z</time>
      </trkpt>
      <trkpt lat="45.9089" lon="6.33689">
        <ele>1300</ele>
        <time>2026-08-19T05:58:52.566Z</time>
      </trkpt>
      <trkpt lat="45.9089" lon="6.33688">
        <ele>1301</ele>
        <time>2026-08-19T05:58:53.566Z</time>
      </trkpt>
      <trkpt lat="45.90889" lon="6.33686">
        <ele>1301</ele>
        <time>2026-08-19T05:58:54.566Z</time>
      </trkpt>
      <trkpt lat="45.90889" lon="6.33685">
        <ele>1301</ele>
        <time>2026-08-19T05:58:55.566Z</time>
      </trkpt>
      <trkpt lat="45.90889" lon="6.33684">
        <ele>1301</ele>
        <time>2026-08-19T05:58:56.566Z</time>
      </trkpt>
      <trkpt lat="45.90889" lon="6.33683">
        <ele>1301</ele>
        <time>2026-08-19T05:58:57.566Z</time>
      </trkpt>
      <trkpt lat="45.90888" lon="6.33681">
        <ele>1301</ele>
        <time>2026-08-19T05:58:58.566Z</time>
      </trkpt>
      <trkpt lat="45.90888" lon="6.33679">
        <ele>1302</ele>
        <time>2026-08-19T05:58:59.566Z</time>
      </trkpt>
      <trkpt lat="45.90888" lon="6.33679">
        <ele>1302</ele>
        <time>2026-08-19T05:59:00.566Z</time>
      </trkpt>
      <trkpt lat="45.90888" lon="6.33677">
        <ele>1302</ele>
        <time>2026-08-19T05:59:01.566Z</time>
      </trkpt>
      <trkpt lat="45.90888" lon="6.33677">
        <ele>1302</ele>
        <time>2026-08-19T05:59:02.566Z</time>
      </trkpt>
      <trkpt lat="45.90887" lon="6.33675">
        <ele>1302</ele>
        <time>2026-08-19T05:59:03.566Z</time>
      </trkpt>
      <trkpt lat="45.90887" lon="6.33674">
        <ele>1303</ele>
        <time>2026-08-19T05:59:04.566Z</time>
      </trkpt>
      <trkpt lat="45.90886" lon="6.33673">
        <ele>1303</ele>
        <time>2026-08-19T05:59:05.566Z</time>
      </trkpt>
      <trkpt lat="45.90886" lon="6.33672">
        <ele>1303</ele>
        <time>2026-08-19T05:59:06.566Z</time>
      </trkpt>
      <trkpt lat="45.90886" lon="6.33672">
        <ele>1303</ele>
        <time>2026-08-19T05:59:07.566Z</time>
      </trkpt>
      <trkpt lat="45.90886" lon="6.33672">
        <ele>1303</ele>
        <time>2026-08-19T05:59:08.566Z</time>
      </trkpt>
      <trkpt lat="45.90885" lon="6.33672">
        <ele>1303</ele>
        <time>2026-08-19T05:59:09.566Z</time>
      </trkpt>
      <trkpt lat="45.90885" lon="6.33672">
        <ele>1303</ele>
        <time>2026-08-19T05:59:10.566Z</time>
      </trkpt>
      <trkpt lat="45.90885" lon="6.33672">
        <ele>1303</ele>
        <time>2026-08-19T05:59:11.566Z</time>
      </trkpt>
      <trkpt lat="45.90885" lon="6.33671">
        <ele>1303</ele>
        <time>2026-08-19T05:59:12.566Z</time>
      </trkpt>
      <trkpt lat="45.90885" lon="6.33669">
        <ele>1303</ele>
        <time>2026-08-19T05:59:13.566Z</time>
      </trkpt>
      <trkpt lat="45.90886" lon="6.33667">
        <ele>1303</ele>
        <time>2026-08-19T05:59:14.566Z</time>
      </trkpt>
      <trkpt lat="45.90886" lon="6.33666">
        <ele>1303</ele>
        <time>2026-08-19T05:59:15.566Z</time>
      </trkpt>
      <trkpt lat="45.90886" lon="6.33665">
        <ele>1303</ele>
        <time>2026-08-19T05:59:16.566Z</time>
      </trkpt>
      <trkpt lat="45.90886" lon="6.33665">
        <ele>1303</ele>
        <time>2026-08-19T05:59:17.566Z</time>
      </trkpt>
      <trkpt lat="45.90886" lon="6.33664">
        <ele>1303</ele>
        <time>2026-08-19T05:59:18.566Z</time>
      </trkpt>
      <trkpt lat="45.90886" lon="6.33664">
        <ele>1303</ele>
        <time>2026-08-19T05:59:19.566Z</time>
      </trkpt>
      <trkpt lat="45.90886" lon="6.33664">
        <ele>1304</ele>
        <time>2026-08-19T05:59:20.566Z</time>
      </trkpt>
      <trkpt lat="45.90886" lon="6.33665">
        <ele>1304</ele>
        <time>2026-08-19T05:59:21.566Z</time>
      </trkpt>
      <trkpt lat="45.90887" lon="6.33665">
        <ele>1304</ele>
        <time>2026-08-19T05:59:22.566Z</time>
      </trkpt>
      <trkpt lat="45.90888" lon="6.33665">
        <ele>1304</ele>
        <time>2026-08-19T05:59:23.566Z</time>
      </trkpt>
      <trkpt lat="45.90888" lon="6.33665">
        <ele>1305</ele>
        <time>2026-08-19T05:59:24.566Z</time>
      </trkpt>
      <trkpt lat="45.90888" lon="6.33665">
        <ele>1305</ele>
        <time>2026-08-19T05:59:25.566Z</time>
      </trkpt>
      <trkpt lat="45.90888" lon="6.33665">
        <ele>1305</ele>
        <time>2026-08-19T05:59:26.566Z</time>
      </trkpt>
      <trkpt lat="45.90888" lon="6.33665">
        <ele>1305</ele>
        <time>2026-08-19T05:59:27.566Z</time>
      </trkpt>
      <trkpt lat="45.90888" lon="6.33664">
        <ele>1306</ele>
        <time>2026-08-19T05:59:28.566Z</time>
      </trkpt>
      <trkpt lat="45.90889" lon="6.33664">
        <ele>1306</ele>
        <time>2026-08-19T05:59:29.566Z</time>
      </trkpt>
      <trkpt lat="45.90889" lon="6.33664">
        <ele>1306</ele>
        <time>2026-08-19T05:59:30.566Z</time>
      </trkpt>
      <trkpt lat="45.90889" lon="6.33663">
        <ele>1307</ele>
        <time>2026-08-19T05:59:31.566Z</time>
      </trkpt>
      <trkpt lat="45.90889" lon="6.33663">
        <ele>1307</ele>
        <time>2026-08-19T05:59:32.566Z</time>
      </trkpt>
      <trkpt lat="45.90889" lon="6.33663">
        <ele>1308</ele>
        <time>2026-08-19T05:59:33.566Z</time>
      </trkpt>
      <trkpt lat="45.9089" lon="6.33662">
        <ele>1308</ele>
        <time>2026-08-19T05:59:34.566Z</time>
      </trkpt>
      <trkpt lat="45.90891" lon="6.33661">
        <ele>1308</ele>
        <time>2026-08-19T05:59:35.566Z</time>
      </trkpt>
      <trkpt lat="45.90892" lon="6.3366">
        <ele>1308</ele>
        <time>2026-08-19T05:59:36.566Z</time>
      </trkpt>
      <trkpt lat="45.90893" lon="6.33658">
        <ele>1308</ele>
        <time>2026-08-19T05:59:37.566Z</time>
      </trkpt>
      <trkpt lat="45.90895" lon="6.33658">
        <ele>1308</ele>
        <time>2026-08-19T05:59:38.566Z</time>
      </trkpt>
      <trkpt lat="45.90896" lon="6.33658">
        <ele>1308</ele>
        <time>2026-08-19T05:59:39.566Z</time>
      </trkpt>
      <trkpt lat="45.90897" lon="6.33658">
        <ele>1308</ele>
        <time>2026-08-19T05:59:40.566Z</time>
      </trkpt>
      <trkpt lat="45.90898" lon="6.33657">
        <ele>1308</ele>
        <time>2026-08-19T05:59:41.566Z</time>
      </trkpt>
      <trkpt lat="45.90899" lon="6.33657">
        <ele>1307</ele>
        <time>2026-08-19T05:59:42.566Z</time>
      </trkpt>
      <trkpt lat="45.909" lon="6.33658">
        <ele>1307</ele>
        <time>2026-08-19T05:59:43.566Z</time>
      </trkpt>
      <trkpt lat="45.90901" lon="6.33659">
        <ele>1306</ele>
        <time>2026-08-19T05:59:44.566Z</time>
      </trkpt>
      <trkpt lat="45.90901" lon="6.33659">
        <ele>1306</ele>
        <time>2026-08-19T05:59:45.566Z</time>
      </trkpt>
      <trkpt lat="45.90902" lon="6.33659">
        <ele>1305</ele>
        <time>2026-08-19T05:59:46.566Z</time>
      </trkpt>
      <trkpt lat="45.90902" lon="6.33659">
        <ele>1305</ele>
        <time>2026-08-19T05:59:47.566Z</time>
      </trkpt>
      <trkpt lat="45.90903" lon="6.33659">
        <ele>1305</ele>
        <time>2026-08-19T05:59:48.566Z</time>
      </trkpt>
      <trkpt lat="45.90903" lon="6.3366">
        <ele>1305</ele>
        <time>2026-08-19T05:59:49.566Z</time>
      </trkpt>
      <trkpt lat="45.90904" lon="6.33659">
        <ele>1305</ele>
        <time>2026-08-19T05:59:50.566Z</time>
      </trkpt>
      <trkpt lat="45.90905" lon="6.33658">
        <ele>1305</ele>
        <time>2026-08-19T05:59:51.566Z</time>
      </trkpt>
      <trkpt lat="45.90906" lon="6.33658">
        <ele>1306</ele>
        <time>2026-08-19T05:59:52.566Z</time>
      </trkpt>
      <trkpt lat="45.90906" lon="6.33658">
        <ele>1307</ele>
        <time>2026-08-19T05:59:53.566Z</time>
      </trkpt>
      <trkpt lat="45.90907" lon="6.33658">
        <ele>1307</ele>
        <time>2026-08-19T05:59:54.566Z</time>
      </trkpt>
      <trkpt lat="45.90907" lon="6.33658">
        <ele>1308</ele>
        <time>2026-08-19T05:59:55.566Z</time>
      </trkpt>
      <trkpt lat="45.90907" lon="6.33658">
        <ele>1309</ele>
        <time>2026-08-19T05:59:56.566Z</time>
      </trkpt>
      <trkpt lat="45.90908" lon="6.33658">
        <ele>1310</ele>
        <time>2026-08-19T05:59:57.566Z</time>
      </trkpt>
      <trkpt lat="45.90909" lon="6.33657">
        <ele>1310</ele>
        <time>2026-08-19T05:59:58.566Z</time>
      </trkpt>
      <trkpt lat="45.9091" lon="6.33657">
        <ele>1311</ele>
        <time>2026-08-19T05:59:59.566Z</time>
      </trkpt>
      <trkpt lat="45.90912" lon="6.33656">
        <ele>1311</ele>
        <time>2026-08-19T06:00:00.566Z</time>
      </trkpt>
      <trkpt lat="45.90912" lon="6.33656">
        <ele>1312</ele>
        <time>2026-08-19T06:00:01.566Z</time>
      </trkpt>
      <trkpt lat="45.90912" lon="6.33655">
        <ele>1312</ele>
        <time>2026-08-19T06:00:02.566Z</time>
      </trkpt>
      <trkpt lat="45.90911" lon="6.33653">
        <ele>1313</ele>
        <time>2026-08-19T06:00:03.566Z</time>
      </trkpt>
      <trkpt lat="45.90911" lon="6.33653">
        <ele>1313</ele>
        <time>2026-08-19T06:00:04.566Z</time>
      </trkpt>
      <trkpt lat="45.90911" lon="6.33652">
        <ele>1314</ele>
        <time>2026-08-19T06:00:05.566Z</time>
      </trkpt>
      <trkpt lat="45.90909" lon="6.33651">
        <ele>1314</ele>
        <time>2026-08-19T06:00:06.566Z</time>
      </trkpt>
      <trkpt lat="45.90909" lon="6.3365">
        <ele>1314</ele>
        <time>2026-08-19T06:00:07.566Z</time>
      </trkpt>
      <trkpt lat="45.90909" lon="6.3365">
        <ele>1314</ele>
        <time>2026-08-19T06:00:08.566Z</time>
      </trkpt>
      <trkpt lat="45.90909" lon="6.33649">
        <ele>1314</ele>
        <time>2026-08-19T06:00:09.566Z</time>
      </trkpt>
      <trkpt lat="45.90908" lon="6.33649">
        <ele>1314</ele>
        <time>2026-08-19T06:00:10.566Z</time>
      </trkpt>
      <trkpt lat="45.90908" lon="6.33648">
        <ele>1314</ele>
        <time>2026-08-19T06:00:11.566Z</time>
      </trkpt>
      <trkpt lat="45.90907" lon="6.33647">
        <ele>1314</ele>
        <time>2026-08-19T06:00:12.566Z</time>
      </trkpt>
      <trkpt lat="45.90907" lon="6.33647">
        <ele>1314</ele>
        <time>2026-08-19T06:00:13.566Z</time>
      </trkpt>
      <trkpt lat="45.90907" lon="6.33645">
        <ele>1314</ele>
        <time>2026-08-19T06:00:14.566Z</time>
      </trkpt>
      <trkpt lat="45.90906" lon="6.33644">
        <ele>1314</ele>
        <time>2026-08-19T06:00:15.566Z</time>
      </trkpt>
      <trkpt lat="45.90906" lon="6.33642">
        <ele>1314</ele>
        <time>2026-08-19T06:00:16.566Z</time>
      </trkpt>
      <trkpt lat="45.90905" lon="6.3364">
        <ele>1313</ele>
        <time>2026-08-19T06:00:17.566Z</time>
      </trkpt>
      <trkpt lat="45.90905" lon="6.33639">
        <ele>1313</ele>
        <time>2026-08-19T06:00:18.566Z</time>
      </trkpt>
      <trkpt lat="45.90905" lon="6.33638">
        <ele>1313</ele>
        <time>2026-08-19T06:00:19.566Z</time>
      </trkpt>
      <trkpt lat="45.90906" lon="6.33637">
        <ele>1313</ele>
        <time>2026-08-19T06:00:20.566Z</time>
      </trkpt>
      <trkpt lat="45.90906" lon="6.33636">
        <ele>1313</ele>
        <time>2026-08-19T06:00:21.566Z</time>
      </trkpt>
      <trkpt lat="45.90907" lon="6.33635">
        <ele>1313</ele>
        <time>2026-08-19T06:00:22.566Z</time>
      </trkpt>
      <trkpt lat="45.90906" lon="6.33634">
        <ele>1313</ele>
        <time>2026-08-19T06:00:23.566Z</time>
      </trkpt>
      <trkpt lat="45.90906" lon="6.33634">
        <ele>1314</ele>
        <time>2026-08-19T06:00:24.566Z</time>
      </trkpt>
      <trkpt lat="45.90906" lon="6.33634">
        <ele>1314</ele>
        <time>2026-08-19T06:00:25.566Z</time>
      </trkpt>
      <trkpt lat="45.90906" lon="6.33634">
        <ele>1315</ele>
        <time>2026-08-19T06:00:26.566Z</time>
      </trkpt>
      <trkpt lat="45.90906" lon="6.33633">
        <ele>1316</ele>
        <time>2026-08-19T06:00:27.566Z</time>
      </trkpt>
      <trkpt lat="45.90905" lon="6.33633">
        <ele>1317</ele>
        <time>2026-08-19T06:00:28.566Z</time>
      </trkpt>
      <trkpt lat="45.90904" lon="6.33632">
        <ele>1317</ele>
        <time>2026-08-19T06:00:29.566Z</time>
      </trkpt>
      <trkpt lat="45.90903" lon="6.33631">
        <ele>1318</ele>
        <time>2026-08-19T06:00:30.566Z</time>
      </trkpt>
      <trkpt lat="45.90902" lon="6.3363">
        <ele>1319</ele>
        <time>2026-08-19T06:00:31.566Z</time>
      </trkpt>
      <trkpt lat="45.90902" lon="6.33628">
        <ele>1320</ele>
        <time>2026-08-19T06:00:32.566Z</time>
      </trkpt>
      <trkpt lat="45.90902" lon="6.33628">
        <ele>1320</ele>
        <time>2026-08-19T06:00:33.566Z</time>
      </trkpt>
      <trkpt lat="45.90902" lon="6.33628">
        <ele>1321</ele>
        <time>2026-08-19T06:00:34.566Z</time>
      </trkpt>
      <trkpt lat="45.90902" lon="6.33627">
        <ele>1321</ele>
        <time>2026-08-19T06:00:35.566Z</time>
      </trkpt>
      <trkpt lat="45.90901" lon="6.33625">
        <ele>1322</ele>
        <time>2026-08-19T06:00:36.566Z</time>
      </trkpt>
      <trkpt lat="45.90901" lon="6.33623">
        <ele>1322</ele>
        <time>2026-08-19T06:00:37.566Z</time>
      </trkpt>
      <trkpt lat="45.90901" lon="6.33622">
        <ele>1323</ele>
        <time>2026-08-19T06:00:38.566Z</time>
      </trkpt>
      <trkpt lat="45.90901" lon="6.33622">
        <ele>1323</ele>
        <time>2026-08-19T06:00:39.566Z</time>
      </trkpt>
      <trkpt lat="45.90901" lon="6.33622">
        <ele>1324</ele>
        <time>2026-08-19T06:00:40.566Z</time>
      </trkpt>
      <trkpt lat="45.90901" lon="6.33621">
        <ele>1324</ele>
        <time>2026-08-19T06:00:41.566Z</time>
      </trkpt>
      <trkpt lat="45.90901" lon="6.33621">
        <ele>1325</ele>
        <time>2026-08-19T06:00:42.566Z</time>
      </trkpt>
      <trkpt lat="45.909" lon="6.3362">
        <ele>1325</ele>
        <time>2026-08-19T06:00:43.566Z</time>
      </trkpt>
      <trkpt lat="45.909" lon="6.3362">
        <ele>1326</ele>
        <time>2026-08-19T06:00:44.566Z</time>
      </trkpt>
      <trkpt lat="45.90901" lon="6.3362">
        <ele>1326</ele>
        <time>2026-08-19T06:00:45.566Z</time>
      </trkpt>
      <trkpt lat="45.90901" lon="6.33619">
        <ele>1327</ele>
        <time>2026-08-19T06:00:46.566Z</time>
      </trkpt>
      <trkpt lat="45.90901" lon="6.33619">
        <ele>1328</ele>
        <time>2026-08-19T06:00:47.566Z</time>
      </trkpt>
      <trkpt lat="45.90901" lon="6.33619">
        <ele>1328</ele>
        <time>2026-08-19T06:00:48.566Z</time>
      </trkpt>
      <trkpt lat="45.90901" lon="6.33619">
        <ele>1329</ele>
        <time>2026-08-19T06:00:49.566Z</time>
      </trkpt>
      <trkpt lat="45.90901" lon="6.33619">
        <ele>1330</ele>
        <time>2026-08-19T06:00:50.566Z</time>
      </trkpt>
      <trkpt lat="45.90901" lon="6.33618">
        <ele>1330</ele>
        <time>2026-08-19T06:00:51.566Z</time>
      </trkpt>
      <trkpt lat="45.90901" lon="6.33617">
        <ele>1329</ele>
        <time>2026-08-19T06:00:52.566Z</time>
      </trkpt>
      <trkpt lat="45.90901" lon="6.33616">
        <ele>1329</ele>
        <time>2026-08-19T06:00:53.566Z</time>
      </trkpt>
      <trkpt lat="45.90901" lon="6.33615">
        <ele>1329</ele>
        <time>2026-08-19T06:00:54.566Z</time>
      </trkpt>
      <trkpt lat="45.90901" lon="6.33614">
        <ele>1329</ele>
        <time>2026-08-19T06:00:55.566Z</time>
      </trkpt>
      <trkpt lat="45.909" lon="6.33613">
        <ele>1329</ele>
        <time>2026-08-19T06:00:56.566Z</time>
      </trkpt>
      <trkpt lat="45.90899" lon="6.33611">
        <ele>1329</ele>
        <time>2026-08-19T06:00:57.566Z</time>
      </trkpt>
      <trkpt lat="45.90899" lon="6.3361">
        <ele>1329</ele>
        <time>2026-08-19T06:00:58.566Z</time>
      </trkpt>
      <trkpt lat="45.90899" lon="6.33609">
        <ele>1329</ele>
        <time>2026-08-19T06:00:59.566Z</time>
      </trkpt>
      <trkpt lat="45.90899" lon="6.33608">
        <ele>1329</ele>
        <time>2026-08-19T06:01:00.566Z</time>
      </trkpt>
      <trkpt lat="45.90899" lon="6.33606">
        <ele>1329</ele>
        <time>2026-08-19T06:01:01.566Z</time>
      </trkpt>
      <trkpt lat="45.90899" lon="6.33605">
        <ele>1329</ele>
        <time>2026-08-19T06:01:02.566Z</time>
      </trkpt>
      <trkpt lat="45.90899" lon="6.33603">
        <ele>1328</ele>
        <time>2026-08-19T06:01:03.566Z</time>
      </trkpt>
      <trkpt lat="45.90899" lon="6.33602">
        <ele>1328</ele>
        <time>2026-08-19T06:01:04.566Z</time>
      </trkpt>
      <trkpt lat="45.90899" lon="6.33601">
        <ele>1328</ele>
        <time>2026-08-19T06:01:05.566Z</time>
      </trkpt>
      <trkpt lat="45.90899" lon="6.33599">
        <ele>1328</ele>
        <time>2026-08-19T06:01:06.566Z</time>
      </trkpt>
      <trkpt lat="45.90899" lon="6.33598">
        <ele>1328</ele>
        <time>2026-08-19T06:01:07.566Z</time>
      </trkpt>
      <trkpt lat="45.90898" lon="6.33598">
        <ele>1328</ele>
        <time>2026-08-19T06:01:08.566Z</time>
      </trkpt>
      <trkpt lat="45.90898" lon="6.33597">
        <ele>1329</ele>
        <time>2026-08-19T06:01:09.566Z</time>
      </trkpt>
      <trkpt lat="45.90898" lon="6.33596">
        <ele>1329</ele>
        <time>2026-08-19T06:01:10.566Z</time>
      </trkpt>
      <trkpt lat="45.90898" lon="6.33596">
        <ele>1329</ele>
        <time>2026-08-19T06:01:11.566Z</time>
      </trkpt>
      <trkpt lat="45.90898" lon="6.33596">
        <ele>1330</ele>
        <time>2026-08-19T06:01:12.566Z</time>
      </trkpt>
      <trkpt lat="45.90898" lon="6.33595">
        <ele>1330</ele>
        <time>2026-08-19T06:01:13.566Z</time>
      </trkpt>
      <trkpt lat="45.90898" lon="6.33595">
        <ele>1330</ele>
        <time>2026-08-19T06:01:14.566Z</time>
      </trkpt>
      <trkpt lat="45.90898" lon="6.33594">
        <ele>1330</ele>
        <time>2026-08-19T06:01:15.566Z</time>
      </trkpt>
      <trkpt lat="45.90898" lon="6.33593">
        <ele>1330</ele>
        <time>2026-08-19T06:01:16.566Z</time>
      </trkpt>
      <trkpt lat="45.90898" lon="6.33592">
        <ele>1331</ele>
        <time>2026-08-19T06:01:17.566Z</time>
      </trkpt>
      <trkpt lat="45.90898" lon="6.33591">
        <ele>1331</ele>
        <time>2026-08-19T06:01:18.566Z</time>
      </trkpt>
      <trkpt lat="45.90898" lon="6.3359">
        <ele>1331</ele>
        <time>2026-08-19T06:01:19.566Z</time>
      </trkpt>
      <trkpt lat="45.90898" lon="6.33589">
        <ele>1331</ele>
        <time>2026-08-19T06:01:20.566Z</time>
      </trkpt>
      <trkpt lat="45.90898" lon="6.33588">
        <ele>1330</ele>
        <time>2026-08-19T06:01:21.566Z</time>
      </trkpt>
      <trkpt lat="45.90898" lon="6.33588">
        <ele>1330</ele>
        <time>2026-08-19T06:01:22.566Z</time>
      </trkpt>
      <trkpt lat="45.90898" lon="6.33587">
        <ele>1330</ele>
        <time>2026-08-19T06:01:23.566Z</time>
      </trkpt>
      <trkpt lat="45.90898" lon="6.33587">
        <ele>1329</ele>
        <time>2026-08-19T06:01:24.566Z</time>
      </trkpt>
      <trkpt lat="45.90898" lon="6.33586">
        <ele>1329</ele>
        <time>2026-08-19T06:01:25.566Z</time>
      </trkpt>
      <trkpt lat="45.90897" lon="6.33584">
        <ele>1328</ele>
        <time>2026-08-19T06:01:26.566Z</time>
      </trkpt>
      <trkpt lat="45.90897" lon="6.33583">
        <ele>1328</ele>
        <time>2026-08-19T06:01:27.566Z</time>
      </trkpt>
      <trkpt lat="45.90897" lon="6.33582">
        <ele>1328</ele>
        <time>2026-08-19T06:01:28.566Z</time>
      </trkpt>
      <trkpt lat="45.90897" lon="6.33582">
        <ele>1328</ele>
        <time>2026-08-19T06:01:29.566Z</time>
      </trkpt>
      <trkpt lat="45.90897" lon="6.33582">
        <ele>1328</ele>
        <time>2026-08-19T06:01:30.566Z</time>
      </trkpt>
      <trkpt lat="45.90897" lon="6.33581">
        <ele>1329</ele>
        <time>2026-08-19T06:01:31.566Z</time>
      </trkpt>
      <trkpt lat="45.90897" lon="6.3358">
        <ele>1329</ele>
        <time>2026-08-19T06:01:32.566Z</time>
      </trkpt>
      <trkpt lat="45.90896" lon="6.33579">
        <ele>1330</ele>
        <time>2026-08-19T06:01:33.566Z</time>
      </trkpt>
      <trkpt lat="45.90896" lon="6.33578">
        <ele>1330</ele>
        <time>2026-08-19T06:01:34.566Z</time>
      </trkpt>
      <trkpt lat="45.90896" lon="6.33576">
        <ele>1331</ele>
        <time>2026-08-19T06:01:35.567Z</time>
      </trkpt>
      <trkpt lat="45.90896" lon="6.33575">
        <ele>1331</ele>
        <time>2026-08-19T06:01:36.566Z</time>
      </trkpt>
      <trkpt lat="45.90896" lon="6.33575">
        <ele>1332</ele>
        <time>2026-08-19T06:01:37.566Z</time>
      </trkpt>
      <trkpt lat="45.90896" lon="6.33574">
        <ele>1332</ele>
        <time>2026-08-19T06:01:38.566Z</time>
      </trkpt>
      <trkpt lat="45.90896" lon="6.33572">
        <ele>1332</ele>
        <time>2026-08-19T06:01:39.566Z</time>
      </trkpt>
      <trkpt lat="45.90896" lon="6.33571">
        <ele>1332</ele>
        <time>2026-08-19T06:01:40.566Z</time>
      </trkpt>
      <trkpt lat="45.90895" lon="6.33569">
        <ele>1333</ele>
        <time>2026-08-19T06:01:41.566Z</time>
      </trkpt>
      <trkpt lat="45.90895" lon="6.33568">
        <ele>1332</ele>
        <time>2026-08-19T06:01:42.566Z</time>
      </trkpt>
      <trkpt lat="45.90896" lon="6.33568">
        <ele>1332</ele>
        <time>2026-08-19T06:01:43.566Z</time>
      </trkpt>
      <trkpt lat="45.90895" lon="6.33567">
        <ele>1332</ele>
        <time>2026-08-19T06:01:44.566Z</time>
      </trkpt>
      <trkpt lat="45.90895" lon="6.33566">
        <ele>1332</ele>
        <time>2026-08-19T06:01:45.566Z</time>
      </trkpt>
      <trkpt lat="45.90895" lon="6.33565">
        <ele>1332</ele>
        <time>2026-08-19T06:01:46.566Z</time>
      </trkpt>
      <trkpt lat="45.90895" lon="6.33564">
        <ele>1332</ele>
        <time>2026-08-19T06:01:47.566Z</time>
      </trkpt>
      <trkpt lat="45.90895" lon="6.33563">
        <ele>1332</ele>
        <time>2026-08-19T06:01:48.566Z</time>
      </trkpt>
      <trkpt lat="45.90895" lon="6.33562">
        <ele>1332</ele>
        <time>2026-08-19T06:01:49.566Z</time>
      </trkpt>
      <trkpt lat="45.90895" lon="6.33562">
        <ele>1332</ele>
        <time>2026-08-19T06:01:50.566Z</time>
      </trkpt>
      <trkpt lat="45.90895" lon="6.33561">
        <ele>1332</ele>
        <time>2026-08-19T06:01:51.566Z</time>
      </trkpt>
      <trkpt lat="45.90895" lon="6.3356">
        <ele>1332</ele>
        <time>2026-08-19T06:01:52.566Z</time>
      </trkpt>
      <trkpt lat="45.90895" lon="6.33559">
        <ele>1333</ele>
        <time>2026-08-19T06:01:53.566Z</time>
      </trkpt>
      <trkpt lat="45.90895" lon="6.33557">
        <ele>1333</ele>
        <time>2026-08-19T06:01:54.566Z</time>
      </trkpt>
      <trkpt lat="45.90895" lon="6.33555">
        <ele>1333</ele>
        <time>2026-08-19T06:01:55.566Z</time>
      </trkpt>
      <trkpt lat="45.90894" lon="6.33553">
        <ele>1332</ele>
        <time>2026-08-19T06:01:56.566Z</time>
      </trkpt>
      <trkpt lat="45.90893" lon="6.33551">
        <ele>1333</ele>
        <time>2026-08-19T06:01:57.566Z</time>
      </trkpt>
      <trkpt lat="45.90893" lon="6.3355">
        <ele>1333</ele>
        <time>2026-08-19T06:01:58.566Z</time>
      </trkpt>
      <trkpt lat="45.90893" lon="6.33549">
        <ele>1333</ele>
        <time>2026-08-19T06:01:59.566Z</time>
      </trkpt>
      <trkpt lat="45.90893" lon="6.33548">
        <ele>1333</ele>
        <time>2026-08-19T06:02:00.566Z</time>
      </trkpt>
      <trkpt lat="45.90893" lon="6.33547">
        <ele>1333</ele>
        <time>2026-08-19T06:02:01.566Z</time>
      </trkpt>
      <trkpt lat="45.90893" lon="6.33547">
        <ele>1333</ele>
        <time>2026-08-19T06:02:02.566Z</time>
      </trkpt>
      <trkpt lat="45.90893" lon="6.33546">
        <ele>1333</ele>
        <time>2026-08-19T06:02:03.566Z</time>
      </trkpt>
      <trkpt lat="45.90893" lon="6.33545">
        <ele>1333</ele>
        <time>2026-08-19T06:02:04.566Z</time>
      </trkpt>
      <trkpt lat="45.90894" lon="6.33544">
        <ele>1333</ele>
        <time>2026-08-19T06:02:05.566Z</time>
      </trkpt>
      <trkpt lat="45.90895" lon="6.33544">
        <ele>1333</ele>
        <time>2026-08-19T06:02:06.566Z</time>
      </trkpt>
      <trkpt lat="45.90895" lon="6.33543">
        <ele>1334</ele>
        <time>2026-08-19T06:02:07.566Z</time>
      </trkpt>
      <trkpt lat="45.90896" lon="6.33542">
        <ele>1334</ele>
        <time>2026-08-19T06:02:08.566Z</time>
      </trkpt>
      <trkpt lat="45.90896" lon="6.33542">
        <ele>1334</ele>
        <time>2026-08-19T06:02:09.566Z</time>
      </trkpt>
      <trkpt lat="45.90897" lon="6.33542">
        <ele>1335</ele>
        <time>2026-08-19T06:02:10.566Z</time>
      </trkpt>
      <trkpt lat="45.90897" lon="6.33542">
        <ele>1335</ele>
        <time>2026-08-19T06:02:11.566Z</time>
      </trkpt>
      <trkpt lat="45.90898" lon="6.33542">
        <ele>1336</ele>
        <time>2026-08-19T06:02:12.566Z</time>
      </trkpt>
      <trkpt lat="45.90898" lon="6.33542">
        <ele>1337</ele>
        <time>2026-08-19T06:02:13.566Z</time>
      </trkpt>
      <trkpt lat="45.90899" lon="6.33542">
        <ele>1338</ele>
        <time>2026-08-19T06:02:14.566Z</time>
      </trkpt>
      <trkpt lat="45.909" lon="6.33542">
        <ele>1339</ele>
        <time>2026-08-19T06:02:15.566Z</time>
      </trkpt>
      <trkpt lat="45.909" lon="6.33542">
        <ele>1339</ele>
        <time>2026-08-19T06:02:16.566Z</time>
      </trkpt>
      <trkpt lat="45.909" lon="6.33542">
        <ele>1340</ele>
        <time>2026-08-19T06:02:17.566Z</time>
      </trkpt>
      <trkpt lat="45.90901" lon="6.33542">
        <ele>1341</ele>
        <time>2026-08-19T06:02:18.566Z</time>
      </trkpt>
      <trkpt lat="45.90902" lon="6.33541">
        <ele>1342</ele>
        <time>2026-08-19T06:02:19.566Z</time>
      </trkpt>
      <trkpt lat="45.90903" lon="6.33541">
        <ele>1342</ele>
        <time>2026-08-19T06:02:20.566Z</time>
      </trkpt>
      <trkpt lat="45.90903" lon="6.3354">
        <ele>1342</ele>
        <time>2026-08-19T06:02:21.566Z</time>
      </trkpt>
      <trkpt lat="45.90904" lon="6.3354">
        <ele>1343</ele>
        <time>2026-08-19T06:02:22.566Z</time>
      </trkpt>
      <trkpt lat="45.90904" lon="6.33541">
        <ele>1343</ele>
        <time>2026-08-19T06:02:23.566Z</time>
      </trkpt>
      <trkpt lat="45.90905" lon="6.33542">
        <ele>1344</ele>
        <time>2026-08-19T06:02:24.566Z</time>
      </trkpt>
      <trkpt lat="45.90906" lon="6.33542">
        <ele>1344</ele>
        <time>2026-08-19T06:02:25.566Z</time>
      </trkpt>
      <trkpt lat="45.90906" lon="6.33542">
        <ele>1345</ele>
        <time>2026-08-19T06:02:26.566Z</time>
      </trkpt>
      <trkpt lat="45.90907" lon="6.33541">
        <ele>1345</ele>
        <time>2026-08-19T06:02:27.566Z</time>
      </trkpt>
      <trkpt lat="45.90908" lon="6.3354">
        <ele>1345</ele>
        <time>2026-08-19T06:02:28.566Z</time>
      </trkpt>
      <trkpt lat="45.90909" lon="6.3354">
        <ele>1346</ele>
        <time>2026-08-19T06:02:29.566Z</time>
      </trkpt>
      <trkpt lat="45.90909" lon="6.3354">
        <ele>1346</ele>
        <time>2026-08-19T06:02:30.566Z</time>
      </trkpt>
      <trkpt lat="45.90909" lon="6.33541">
        <ele>1346</ele>
        <time>2026-08-19T06:02:31.566Z</time>
      </trkpt>
      <trkpt lat="45.90909" lon="6.33541">
        <ele>1347</ele>
        <time>2026-08-19T06:02:32.566Z</time>
      </trkpt>
      <trkpt lat="45.90909" lon="6.33541">
        <ele>1347</ele>
        <time>2026-08-19T06:02:33.566Z</time>
      </trkpt>
      <trkpt lat="45.90909" lon="6.33541">
        <ele>1347</ele>
        <time>2026-08-19T06:02:34.566Z</time>
      </trkpt>
      <trkpt lat="45.90909" lon="6.33541">
        <ele>1347</ele>
        <time>2026-08-19T06:02:35.566Z</time>
      </trkpt>
      <trkpt lat="45.90909" lon="6.3354">
        <ele>1347</ele>
        <time>2026-08-19T06:02:36.566Z</time>
      </trkpt>
      <trkpt lat="45.90909" lon="6.33539">
        <ele>1347</ele>
        <time>2026-08-19T06:02:37.566Z</time>
      </trkpt>
      <trkpt lat="45.90909" lon="6.33539">
        <ele>1347</ele>
        <time>2026-08-19T06:02:38.566Z</time>
      </trkpt>
      <trkpt lat="45.9091" lon="6.33538">
        <ele>1347</ele>
        <time>2026-08-19T06:02:39.566Z</time>
      </trkpt>
      <trkpt lat="45.9091" lon="6.33538">
        <ele>1347</ele>
        <time>2026-08-19T06:02:40.566Z</time>
      </trkpt>
      <trkpt lat="45.9091" lon="6.33538">
        <ele>1347</ele>
        <time>2026-08-19T06:02:41.566Z</time>
      </trkpt>
      <trkpt lat="45.90911" lon="6.33539">
        <ele>1348</ele>
        <time>2026-08-19T06:02:42.566Z</time>
      </trkpt>
      <trkpt lat="45.90911" lon="6.33539">
        <ele>1348</ele>
        <time>2026-08-19T06:02:43.566Z</time>
      </trkpt>
      <trkpt lat="45.90912" lon="6.33538">
        <ele>1348</ele>
        <time>2026-08-19T06:02:44.566Z</time>
      </trkpt>
      <trkpt lat="45.90913" lon="6.33539">
        <ele>1348</ele>
        <time>2026-08-19T06:02:45.566Z</time>
      </trkpt>
      <trkpt lat="45.90913" lon="6.33539">
        <ele>1348</ele>
        <time>2026-08-19T06:02:46.566Z</time>
      </trkpt>
      <trkpt lat="45.90914" lon="6.33539">
        <ele>1348</ele>
        <time>2026-08-19T06:02:47.566Z</time>
      </trkpt>
      <trkpt lat="45.90914" lon="6.33538">
        <ele>1349</ele>
        <time>2026-08-19T06:02:48.566Z</time>
      </trkpt>
      <trkpt lat="45.90915" lon="6.33538">
        <ele>1349</ele>
        <time>2026-08-19T06:02:49.566Z</time>
      </trkpt>
      <trkpt lat="45.90916" lon="6.33538">
        <ele>1349</ele>
        <time>2026-08-19T06:02:50.566Z</time>
      </trkpt>
      <trkpt lat="45.90917" lon="6.33537">
        <ele>1350</ele>
        <time>2026-08-19T06:02:51.566Z</time>
      </trkpt>
      <trkpt lat="45.90917" lon="6.33538">
        <ele>1350</ele>
        <time>2026-08-19T06:02:52.566Z</time>
      </trkpt>
      <trkpt lat="45.90918" lon="6.33538">
        <ele>1350</ele>
        <time>2026-08-19T06:02:53.566Z</time>
      </trkpt>
      <trkpt lat="45.90919" lon="6.33539">
        <ele>1351</ele>
        <time>2026-08-19T06:02:54.566Z</time>
      </trkpt>
      <trkpt lat="45.90919" lon="6.33539">
        <ele>1351</ele>
        <time>2026-08-19T06:02:55.566Z</time>
      </trkpt>
      <trkpt lat="45.9092" lon="6.3354">
        <ele>1352</ele>
        <time>2026-08-19T06:02:56.566Z</time>
      </trkpt>
      <trkpt lat="45.90921" lon="6.3354">
        <ele>1353</ele>
        <time>2026-08-19T06:02:57.566Z</time>
      </trkpt>
      <trkpt lat="45.90921" lon="6.33539">
        <ele>1353</ele>
        <time>2026-08-19T06:02:58.566Z</time>
      </trkpt>
      <trkpt lat="45.90922" lon="6.33539">
        <ele>1354</ele>
        <time>2026-08-19T06:02:59.566Z</time>
      </trkpt>
      <trkpt lat="45.90923" lon="6.33538">
        <ele>1355</ele>
        <time>2026-08-19T06:03:00.566Z</time>
      </trkpt>
      <trkpt lat="45.90924" lon="6.33538">
        <ele>1355</ele>
        <time>2026-08-19T06:03:01.566Z</time>
      </trkpt>
      <trkpt lat="45.90924" lon="6.33538">
        <ele>1355</ele>
        <time>2026-08-19T06:03:02.566Z</time>
      </trkpt>
      <trkpt lat="45.90924" lon="6.33537">
        <ele>1355</ele>
        <time>2026-08-19T06:03:03.566Z</time>
      </trkpt>
      <trkpt lat="45.90925" lon="6.33537">
        <ele>1355</ele>
        <time>2026-08-19T06:03:04.566Z</time>
      </trkpt>
      <trkpt lat="45.90925" lon="6.33536">
        <ele>1355</ele>
        <time>2026-08-19T06:03:05.566Z</time>
      </trkpt>
      <trkpt lat="45.90925" lon="6.33535">
        <ele>1355</ele>
        <time>2026-08-19T06:03:06.566Z</time>
      </trkpt>
      <trkpt lat="45.90925" lon="6.33534">
        <ele>1355</ele>
        <time>2026-08-19T06:03:07.566Z</time>
      </trkpt>
      <trkpt lat="45.90926" lon="6.33534">
        <ele>1355</ele>
        <time>2026-08-19T06:03:08.566Z</time>
      </trkpt>
      <trkpt lat="45.90926" lon="6.33533">
        <ele>1355</ele>
        <time>2026-08-19T06:03:09.566Z</time>
      </trkpt>
      <trkpt lat="45.90926" lon="6.33532">
        <ele>1355</ele>
        <time>2026-08-19T06:03:10.566Z</time>
      </trkpt>
      <trkpt lat="45.90927" lon="6.33531">
        <ele>1355</ele>
        <time>2026-08-19T06:03:11.566Z</time>
      </trkpt>
      <trkpt lat="45.90927" lon="6.3353">
        <ele>1355</ele>
        <time>2026-08-19T06:03:12.566Z</time>
      </trkpt>
      <trkpt lat="45.90927" lon="6.33529">
        <ele>1355</ele>
        <time>2026-08-19T06:03:13.566Z</time>
      </trkpt>
      <trkpt lat="45.90926" lon="6.33529">
        <ele>1354</ele>
        <time>2026-08-19T06:03:14.566Z</time>
      </trkpt>
      <trkpt lat="45.90926" lon="6.33528">
        <ele>1354</ele>
        <time>2026-08-19T06:03:15.566Z</time>
      </trkpt>
      <trkpt lat="45.90926" lon="6.33526">
        <ele>1353</ele>
        <time>2026-08-19T06:03:16.566Z</time>
      </trkpt>
      <trkpt lat="45.90926" lon="6.33524">
        <ele>1353</ele>
        <time>2026-08-19T06:03:17.566Z</time>
      </trkpt>
      <trkpt lat="45.90926" lon="6.33523">
        <ele>1352</ele>
        <time>2026-08-19T06:03:18.566Z</time>
      </trkpt>
      <trkpt lat="45.90925" lon="6.33521">
        <ele>1352</ele>
        <time>2026-08-19T06:03:19.566Z</time>
      </trkpt>
      <trkpt lat="45.90925" lon="6.3352">
        <ele>1351</ele>
        <time>2026-08-19T06:03:20.566Z</time>
      </trkpt>
      <trkpt lat="45.90925" lon="6.33519">
        <ele>1351</ele>
        <time>2026-08-19T06:03:21.566Z</time>
      </trkpt>
      <trkpt lat="45.90925" lon="6.33518">
        <ele>1351</ele>
        <time>2026-08-19T06:03:22.566Z</time>
      </trkpt>
      <trkpt lat="45.90925" lon="6.33517">
        <ele>1351</ele>
        <time>2026-08-19T06:03:23.566Z</time>
      </trkpt>
      <trkpt lat="45.90924" lon="6.33517">
        <ele>1351</ele>
        <time>2026-08-19T06:03:24.566Z</time>
      </trkpt>
      <trkpt lat="45.90924" lon="6.33516">
        <ele>1351</ele>
        <time>2026-08-19T06:03:25.566Z</time>
      </trkpt>
      <trkpt lat="45.90924" lon="6.33515">
        <ele>1351</ele>
        <time>2026-08-19T06:03:26.566Z</time>
      </trkpt>
      <trkpt lat="45.90923" lon="6.33514">
        <ele>1351</ele>
        <time>2026-08-19T06:03:27.566Z</time>
      </trkpt>
      <trkpt lat="45.90923" lon="6.33513">
        <ele>1352</ele>
        <time>2026-08-19T06:03:28.567Z</time>
      </trkpt>
      <trkpt lat="45.90922" lon="6.33512">
        <ele>1352</ele>
        <time>2026-08-19T06:03:29.566Z</time>
      </trkpt>
      <trkpt lat="45.90921" lon="6.33512">
        <ele>1352</ele>
        <time>2026-08-19T06:03:30.566Z</time>
      </trkpt>
      <trkpt lat="45.9092" lon="6.33512">
        <ele>1353</ele>
        <time>2026-08-19T06:03:31.566Z</time>
      </trkpt>
      <trkpt lat="45.90919" lon="6.33512">
        <ele>1353</ele>
        <time>2026-08-19T06:03:32.566Z</time>
      </trkpt>
      <trkpt lat="45.90918" lon="6.33512">
        <ele>1354</ele>
        <time>2026-08-19T06:03:33.566Z</time>
      </trkpt>
      <trkpt lat="45.90917" lon="6.33512">
        <ele>1354</ele>
        <time>2026-08-19T06:03:34.566Z</time>
      </trkpt>
      <trkpt lat="45.90916" lon="6.33511">
        <ele>1355</ele>
        <time>2026-08-19T06:03:35.566Z</time>
      </trkpt>
      <trkpt lat="45.90915" lon="6.33511">
        <ele>1355</ele>
        <time>2026-08-19T06:03:36.566Z</time>
      </trkpt>
      <trkpt lat="45.90915" lon="6.33511">
        <ele>1356</ele>
        <time>2026-08-19T06:03:37.566Z</time>
      </trkpt>
      <trkpt lat="45.90913" lon="6.33512">
        <ele>1356</ele>
        <time>2026-08-19T06:03:38.566Z</time>
      </trkpt>
      <trkpt lat="45.90912" lon="6.33511">
        <ele>1356</ele>
        <time>2026-08-19T06:03:39.566Z</time>
      </trkpt>
      <trkpt lat="45.90912" lon="6.33509">
        <ele>1356</ele>
        <time>2026-08-19T06:03:40.566Z</time>
      </trkpt>
      <trkpt lat="45.90911" lon="6.33508">
        <ele>1356</ele>
        <time>2026-08-19T06:03:41.566Z</time>
      </trkpt>
      <trkpt lat="45.90911" lon="6.33508">
        <ele>1356</ele>
        <time>2026-08-19T06:03:42.566Z</time>
      </trkpt>
      <trkpt lat="45.9091" lon="6.33508">
        <ele>1356</ele>
        <time>2026-08-19T06:03:43.566Z</time>
      </trkpt>
      <trkpt lat="45.9091" lon="6.33508">
        <ele>1356</ele>
        <time>2026-08-19T06:03:44.566Z</time>
      </trkpt>
      <trkpt lat="45.9091" lon="6.33508">
        <ele>1356</ele>
        <time>2026-08-19T06:03:45.566Z</time>
      </trkpt>
      <trkpt lat="45.9091" lon="6.33508">
        <ele>1356</ele>
        <time>2026-08-19T06:03:46.566Z</time>
      </trkpt>
      <trkpt lat="45.9091" lon="6.33509">
        <ele>1356</ele>
        <time>2026-08-19T06:03:47.566Z</time>
      </trkpt>
      <trkpt lat="45.9091" lon="6.33509">
        <ele>1356</ele>
        <time>2026-08-19T06:03:48.566Z</time>
      </trkpt>
      <trkpt lat="45.9091" lon="6.3351">
        <ele>1356</ele>
        <time>2026-08-19T06:03:49.566Z</time>
      </trkpt>
      <trkpt lat="45.9091" lon="6.3351">
        <ele>1355</ele>
        <time>2026-08-19T06:03:50.566Z</time>
      </trkpt>
      <trkpt lat="45.90909" lon="6.33509">
        <ele>1355</ele>
        <time>2026-08-19T06:03:51.566Z</time>
      </trkpt>
      <trkpt lat="45.90909" lon="6.33509">
        <ele>1354</ele>
        <time>2026-08-19T06:03:52.566Z</time>
      </trkpt>
      <trkpt lat="45.90909" lon="6.33509">
        <ele>1354</ele>
        <time>2026-08-19T06:03:53.566Z</time>
      </trkpt>
      <trkpt lat="45.90909" lon="6.33509">
        <ele>1353</ele>
        <time>2026-08-19T06:03:54.566Z</time>
      </trkpt>
      <trkpt lat="45.90909" lon="6.33509">
        <ele>1353</ele>
        <time>2026-08-19T06:03:55.566Z</time>
      </trkpt>
      <trkpt lat="45.90909" lon="6.33509">
        <ele>1353</ele>
        <time>2026-08-19T06:03:56.566Z</time>
      </trkpt>
      <trkpt lat="45.90909" lon="6.33509">
        <ele>1353</ele>
        <time>2026-08-19T06:03:57.566Z</time>
      </trkpt>
      <trkpt lat="45.90909" lon="6.33508">
        <ele>1352</ele>
        <time>2026-08-19T06:03:58.566Z</time>
      </trkpt>
      <trkpt lat="45.90909" lon="6.33508">
        <ele>1352</ele>
        <time>2026-08-19T06:03:59.566Z</time>
      </trkpt>
      <trkpt lat="45.90909" lon="6.33508">
        <ele>1352</ele>
        <time>2026-08-19T06:04:00.566Z</time>
      </trkpt>
      <trkpt lat="45.9091" lon="6.33508">
        <ele>1352</ele>
        <time>2026-08-19T06:04:01.566Z</time>
      </trkpt>
      <trkpt lat="45.90911" lon="6.33508">
        <ele>1352</ele>
        <time>2026-08-19T06:04:02.566Z</time>
      </trkpt>
      <trkpt lat="45.90912" lon="6.33508">
        <ele>1353</ele>
        <time>2026-08-19T06:04:03.566Z</time>
      </trkpt>
      <trkpt lat="45.90912" lon="6.33509">
        <ele>1353</ele>
        <time>2026-08-19T06:04:04.566Z</time>
      </trkpt>
      <trkpt lat="45.90913" lon="6.33509">
        <ele>1354</ele>
        <time>2026-08-19T06:04:05.566Z</time>
      </trkpt>
      <trkpt lat="45.90914" lon="6.33509">
        <ele>1354</ele>
        <time>2026-08-19T06:04:06.566Z</time>
      </trkpt>
      <trkpt lat="45.90915" lon="6.33509">
        <ele>1355</ele>
        <time>2026-08-19T06:04:07.566Z</time>
      </trkpt>
      <trkpt lat="45.90915" lon="6.33508">
        <ele>1355</ele>
        <time>2026-08-19T06:04:08.566Z</time>
      </trkpt>
      <trkpt lat="45.90917" lon="6.33507">
        <ele>1356</ele>
        <time>2026-08-19T06:04:09.566Z</time>
      </trkpt>
      <trkpt lat="45.90919" lon="6.33507">
        <ele>1356</ele>
        <time>2026-08-19T06:04:10.566Z</time>
      </trkpt>
      <trkpt lat="45.9092" lon="6.33507">
        <ele>1356</ele>
        <time>2026-08-19T06:04:11.566Z</time>
      </trkpt>
      <trkpt lat="45.90922" lon="6.33508">
        <ele>1357</ele>
        <time>2026-08-19T06:04:12.566Z</time>
      </trkpt>
      <trkpt lat="45.90924" lon="6.33509">
        <ele>1357</ele>
        <time>2026-08-19T06:04:13.566Z</time>
      </trkpt>
      <trkpt lat="45.90925" lon="6.33509">
        <ele>1357</ele>
        <time>2026-08-19T06:04:14.566Z</time>
      </trkpt>
      <trkpt lat="45.90926" lon="6.3351">
        <ele>1357</ele>
        <time>2026-08-19T06:04:15.566Z</time>
      </trkpt>
      <trkpt lat="45.90928" lon="6.33511">
        <ele>1357</ele>
        <time>2026-08-19T06:04:16.566Z</time>
      </trkpt>
      <trkpt lat="45.90929" lon="6.33512">
        <ele>1357</ele>
        <time>2026-08-19T06:04:17.566Z</time>
      </trkpt>
      <trkpt lat="45.9093" lon="6.33512">
        <ele>1357</ele>
        <time>2026-08-19T06:04:18.566Z</time>
      </trkpt>
      <trkpt lat="45.9093" lon="6.33513">
        <ele>1357</ele>
        <time>2026-08-19T06:04:19.566Z</time>
      </trkpt>
      <trkpt lat="45.90931" lon="6.33514">
        <ele>1357</ele>
        <time>2026-08-19T06:04:20.566Z</time>
      </trkpt>
      <trkpt lat="45.90932" lon="6.33515">
        <ele>1357</ele>
        <time>2026-08-19T06:04:21.566Z</time>
      </trkpt>
      <trkpt lat="45.90933" lon="6.33516">
        <ele>1357</ele>
        <time>2026-08-19T06:04:22.566Z</time>
      </trkpt>
      <trkpt lat="45.90934" lon="6.33517">
        <ele>1357</ele>
        <time>2026-08-19T06:04:23.566Z</time>
      </trkpt>
      <trkpt lat="45.90935" lon="6.33517">
        <ele>1356</ele>
        <time>2026-08-19T06:04:24.567Z</time>
      </trkpt>
      <trkpt lat="45.90935" lon="6.33517">
        <ele>1356</ele>
        <time>2026-08-19T06:04:25.566Z</time>
      </trkpt>
      <trkpt lat="45.90936" lon="6.33517">
        <ele>1356</ele>
        <time>2026-08-19T06:04:26.566Z</time>
      </trkpt>
      <trkpt lat="45.90936" lon="6.33516">
        <ele>1356</ele>
        <time>2026-08-19T06:04:27.566Z</time>
      </trkpt>
      <trkpt lat="45.90938" lon="6.33515">
        <ele>1356</ele>
        <time>2026-08-19T06:04:28.566Z</time>
      </trkpt>
      <trkpt lat="45.90939" lon="6.33513">
        <ele>1356</ele>
        <time>2026-08-19T06:04:29.566Z</time>
      </trkpt>
      <trkpt lat="45.9094" lon="6.33513">
        <ele>1356</ele>
        <time>2026-08-19T06:04:30.566Z</time>
      </trkpt>
      <trkpt lat="45.90941" lon="6.33511">
        <ele>1356</ele>
        <time>2026-08-19T06:04:31.566Z</time>
      </trkpt>
      <trkpt lat="45.90943" lon="6.3351">
        <ele>1356</ele>
        <time>2026-08-19T06:04:32.566Z</time>
      </trkpt>
      <trkpt lat="45.90944" lon="6.3351">
        <ele>1355</ele>
        <time>2026-08-19T06:04:33.566Z</time>
      </trkpt>
      <trkpt lat="45.90946" lon="6.3351">
        <ele>1355</ele>
        <time>2026-08-19T06:04:34.566Z</time>
      </trkpt>
      <trkpt lat="45.90948" lon="6.3351">
        <ele>1356</ele>
        <time>2026-08-19T06:04:35.566Z</time>
      </trkpt>
      <trkpt lat="45.90949" lon="6.3351">
        <ele>1356</ele>
        <time>2026-08-19T06:04:36.566Z</time>
      </trkpt>
      <trkpt lat="45.9095" lon="6.33509">
        <ele>1356</ele>
        <time>2026-08-19T06:04:37.566Z</time>
      </trkpt>
      <trkpt lat="45.90951" lon="6.33509">
        <ele>1356</ele>
        <time>2026-08-19T06:04:38.566Z</time>
      </trkpt>
      <trkpt lat="45.90951" lon="6.33509">
        <ele>1357</ele>
        <time>2026-08-19T06:04:39.566Z</time>
      </trkpt>
      <trkpt lat="45.90952" lon="6.33508">
        <ele>1358</ele>
        <time>2026-08-19T06:04:40.566Z</time>
      </trkpt>
      <trkpt lat="45.90953" lon="6.33507">
        <ele>1358</ele>
        <time>2026-08-19T06:04:41.566Z</time>
      </trkpt>
      <trkpt lat="45.90954" lon="6.33506">
        <ele>1359</ele>
        <time>2026-08-19T06:04:42.566Z</time>
      </trkpt>
      <trkpt lat="45.90956" lon="6.33506">
        <ele>1359</ele>
        <time>2026-08-19T06:04:43.566Z</time>
      </trkpt>
      <trkpt lat="45.90957" lon="6.33505">
        <ele>1359</ele>
        <time>2026-08-19T06:04:44.566Z</time>
      </trkpt>
      <trkpt lat="45.90959" lon="6.33504">
        <ele>1360</ele>
        <time>2026-08-19T06:04:45.566Z</time>
      </trkpt>
      <trkpt lat="45.9096" lon="6.33503">
        <ele>1361</ele>
        <time>2026-08-19T06:04:46.566Z</time>
      </trkpt>
      <trkpt lat="45.90961" lon="6.33503">
        <ele>1361</ele>
        <time>2026-08-19T06:04:47.566Z</time>
      </trkpt>
      <trkpt lat="45.90961" lon="6.33502">
        <ele>1362</ele>
        <time>2026-08-19T06:04:48.566Z</time>
      </trkpt>
      <trkpt lat="45.90961" lon="6.33503">
        <ele>1363</ele>
        <time>2026-08-19T06:04:49.566Z</time>
      </trkpt>
      <trkpt lat="45.90961" lon="6.33503">
        <ele>1363</ele>
        <time>2026-08-19T06:04:50.566Z</time>
      </trkpt>
      <trkpt lat="45.90961" lon="6.33504">
        <ele>1364</ele>
        <time>2026-08-19T06:04:51.566Z</time>
      </trkpt>
      <trkpt lat="45.90962" lon="6.33506">
        <ele>1365</ele>
        <time>2026-08-19T06:04:52.566Z</time>
      </trkpt>
      <trkpt lat="45.90963" lon="6.33509">
        <ele>1366</ele>
        <time>2026-08-19T06:04:53.566Z</time>
      </trkpt>
      <trkpt lat="45.90964" lon="6.33512">
        <ele>1367</ele>
        <time>2026-08-19T06:04:54.566Z</time>
      </trkpt>
      <trkpt lat="45.90965" lon="6.33513">
        <ele>1367</ele>
        <time>2026-08-19T06:04:55.566Z</time>
      </trkpt>
      <trkpt lat="45.90966" lon="6.33513">
        <ele>1368</ele>
        <time>2026-08-19T06:04:56.566Z</time>
      </trkpt>
      <trkpt lat="45.90966" lon="6.33514">
        <ele>1369</ele>
        <time>2026-08-19T06:04:57.566Z</time>
      </trkpt>
      <trkpt lat="45.90967" lon="6.33514">
        <ele>1369</ele>
        <time>2026-08-19T06:04:58.566Z</time>
      </trkpt>
      <trkpt lat="45.90967" lon="6.33515">
        <ele>1369</ele>
        <time>2026-08-19T06:04:59.566Z</time>
      </trkpt>
      <trkpt lat="45.90968" lon="6.33516">
        <ele>1370</ele>
        <time>2026-08-19T06:05:00.566Z</time>
      </trkpt>
      <trkpt lat="45.90968" lon="6.33518">
        <ele>1370</ele>
        <time>2026-08-19T06:05:01.566Z</time>
      </trkpt>
      <trkpt lat="45.90969" lon="6.33518">
        <ele>1370</ele>
        <time>2026-08-19T06:05:02.566Z</time>
      </trkpt>
      <trkpt lat="45.9097" lon="6.3352">
        <ele>1371</ele>
        <time>2026-08-19T06:05:03.566Z</time>
      </trkpt>
      <trkpt lat="45.9097" lon="6.33521">
        <ele>1371</ele>
        <time>2026-08-19T06:05:04.566Z</time>
      </trkpt>
      <trkpt lat="45.90972" lon="6.33522">
        <ele>1371</ele>
        <time>2026-08-19T06:05:05.566Z</time>
      </trkpt>
      <trkpt lat="45.90973" lon="6.33524">
        <ele>1371</ele>
        <time>2026-08-19T06:05:06.566Z</time>
      </trkpt>
      <trkpt lat="45.90974" lon="6.33527">
        <ele>1371</ele>
        <time>2026-08-19T06:05:07.566Z</time>
      </trkpt>
      <trkpt lat="45.90974" lon="6.33528">
        <ele>1371</ele>
        <time>2026-08-19T06:05:08.566Z</time>
      </trkpt>
      <trkpt lat="45.90975" lon="6.3353">
        <ele>1371</ele>
        <time>2026-08-19T06:05:09.566Z</time>
      </trkpt>
      <trkpt lat="45.90976" lon="6.33531">
        <ele>1371</ele>
        <time>2026-08-19T06:05:10.566Z</time>
      </trkpt>
      <trkpt lat="45.90977" lon="6.33532">
        <ele>1371</ele>
        <time>2026-08-19T06:05:11.566Z</time>
      </trkpt>
      <trkpt lat="45.90978" lon="6.33534">
        <ele>1371</ele>
        <time>2026-08-19T06:05:12.566Z</time>
      </trkpt>
      <trkpt lat="45.90979" lon="6.33536">
        <ele>1371</ele>
        <time>2026-08-19T06:05:13.566Z</time>
      </trkpt>
      <trkpt lat="45.9098" lon="6.33538">
        <ele>1371</ele>
        <time>2026-08-19T06:05:14.566Z</time>
      </trkpt>
      <trkpt lat="45.90982" lon="6.33541">
        <ele>1371</ele>
        <time>2026-08-19T06:05:15.566Z</time>
      </trkpt>
      <trkpt lat="45.90983" lon="6.33543">
        <ele>1371</ele>
        <time>2026-08-19T06:05:16.566Z</time>
      </trkpt>
      <trkpt lat="45.90985" lon="6.33546">
        <ele>1370</ele>
        <time>2026-08-19T06:05:17.566Z</time>
      </trkpt>
      <trkpt lat="45.90987" lon="6.3355">
        <ele>1370</ele>
        <time>2026-08-19T06:05:18.566Z</time>
      </trkpt>
      <trkpt lat="45.90987" lon="6.33553">
        <ele>1370</ele>
        <time>2026-08-19T06:05:19.566Z</time>
      </trkpt>
      <trkpt lat="45.90987" lon="6.33556">
        <ele>1369</ele>
        <time>2026-08-19T06:05:20.566Z</time>
      </trkpt>
      <trkpt lat="45.90988" lon="6.33558">
        <ele>1368</ele>
        <time>2026-08-19T06:05:21.566Z</time>
      </trkpt>
      <trkpt lat="45.90989" lon="6.33559">
        <ele>1368</ele>
        <time>2026-08-19T06:05:22.566Z</time>
      </trkpt>
      <trkpt lat="45.90991" lon="6.33563">
        <ele>1367</ele>
        <time>2026-08-19T06:05:23.566Z</time>
      </trkpt>
      <trkpt lat="45.90992" lon="6.33565">
        <ele>1367</ele>
        <time>2026-08-19T06:05:24.566Z</time>
      </trkpt>
      <trkpt lat="45.90994" lon="6.33567">
        <ele>1366</ele>
        <time>2026-08-19T06:05:25.566Z</time>
      </trkpt>
      <trkpt lat="45.90995" lon="6.33571">
        <ele>1366</ele>
        <time>2026-08-19T06:05:26.566Z</time>
      </trkpt>
      <trkpt lat="45.90995" lon="6.33574">
        <ele>1366</ele>
        <time>2026-08-19T06:05:27.566Z</time>
      </trkpt>
      <trkpt lat="45.90995" lon="6.33577">
        <ele>1365</ele>
        <time>2026-08-19T06:05:28.566Z</time>
      </trkpt>
      <trkpt lat="45.90996" lon="6.33579">
        <ele>1365</ele>
        <time>2026-08-19T06:05:29.566Z</time>
      </trkpt>
      <trkpt lat="45.90998" lon="6.3358">
        <ele>1365</ele>
        <time>2026-08-19T06:05:30.566Z</time>
      </trkpt>
      <trkpt lat="45.90999" lon="6.33581">
        <ele>1365</ele>
        <time>2026-08-19T06:05:31.566Z</time>
      </trkpt>
      <trkpt lat="45.91" lon="6.33582">
        <ele>1365</ele>
        <time>2026-08-19T06:05:32.566Z</time>
      </trkpt>
      <trkpt lat="45.91001" lon="6.33582">
        <ele>1365</ele>
        <time>2026-08-19T06:05:33.566Z</time>
      </trkpt>
      <trkpt lat="45.91003" lon="6.33583">
        <ele>1365</ele>
        <time>2026-08-19T06:05:34.566Z</time>
      </trkpt>
      <trkpt lat="45.91004" lon="6.33585">
        <ele>1365</ele>
        <time>2026-08-19T06:05:35.566Z</time>
      </trkpt>
      <trkpt lat="45.91006" lon="6.33587">
        <ele>1365</ele>
        <time>2026-08-19T06:05:36.566Z</time>
      </trkpt>
      <trkpt lat="45.91008" lon="6.33589">
        <ele>1365</ele>
        <time>2026-08-19T06:05:37.566Z</time>
      </trkpt>
      <trkpt lat="45.91011" lon="6.33592">
        <ele>1365</ele>
        <time>2026-08-19T06:05:38.566Z</time>
      </trkpt>
      <trkpt lat="45.91014" lon="6.33594">
        <ele>1365</ele>
        <time>2026-08-19T06:05:39.566Z</time>
      </trkpt>
      <trkpt lat="45.91017" lon="6.33597">
        <ele>1365</ele>
        <time>2026-08-19T06:05:40.566Z</time>
      </trkpt>
      <trkpt lat="45.91018" lon="6.33599">
        <ele>1365</ele>
        <time>2026-08-19T06:05:41.566Z</time>
      </trkpt>
      <trkpt lat="45.9102" lon="6.33601">
        <ele>1364</ele>
        <time>2026-08-19T06:05:42.566Z</time>
      </trkpt>
      <trkpt lat="45.9102" lon="6.33604">
        <ele>1364</ele>
        <time>2026-08-19T06:05:43.566Z</time>
      </trkpt>
      <trkpt lat="45.91021" lon="6.33606">
        <ele>1364</ele>
        <time>2026-08-19T06:05:44.566Z</time>
      </trkpt>
      <trkpt lat="45.91023" lon="6.33609">
        <ele>1364</ele>
        <time>2026-08-19T06:05:45.566Z</time>
      </trkpt>
      <trkpt lat="45.91026" lon="6.3361">
        <ele>1364</ele>
        <time>2026-08-19T06:05:46.566Z</time>
      </trkpt>
      <trkpt lat="45.91028" lon="6.3361">
        <ele>1364</ele>
        <time>2026-08-19T06:05:47.566Z</time>
      </trkpt>
      <trkpt lat="45.9103" lon="6.3361">
        <ele>1364</ele>
        <time>2026-08-19T06:05:48.566Z</time>
      </trkpt>
      <trkpt lat="45.9103" lon="6.3361">
        <ele>1364</ele>
        <time>2026-08-19T06:05:49.566Z</time>
      </trkpt>
      <trkpt lat="45.91032" lon="6.33613">
        <ele>1364</ele>
        <time>2026-08-19T06:05:50.566Z</time>
      </trkpt>
      <trkpt lat="45.91032" lon="6.33615">
        <ele>1364</ele>
        <time>2026-08-19T06:05:51.566Z</time>
      </trkpt>
      <trkpt lat="45.91035" lon="6.33616">
        <ele>1364</ele>
        <time>2026-08-19T06:05:52.567Z</time>
      </trkpt>
      <trkpt lat="45.91041" lon="6.3362">
        <ele>1364</ele>
        <time>2026-08-19T06:05:53.566Z</time>
      </trkpt>
      <trkpt lat="45.91044" lon="6.33623">
        <ele>1364</ele>
        <time>2026-08-19T06:05:54.566Z</time>
      </trkpt>
      <trkpt lat="45.91046" lon="6.33626">
        <ele>1364</ele>
        <time>2026-08-19T06:05:55.566Z</time>
      </trkpt>
      <trkpt lat="45.91047" lon="6.33627">
        <ele>1364</ele>
        <time>2026-08-19T06:05:56.566Z</time>
      </trkpt>
      <trkpt lat="45.9105" lon="6.33629">
        <ele>1364</ele>
        <time>2026-08-19T06:05:57.566Z</time>
      </trkpt>
      <trkpt lat="45.9105" lon="6.33627">
        <ele>1364</ele>
        <time>2026-08-19T06:05:58.566Z</time>
      </trkpt>
      <trkpt lat="45.9105" lon="6.33625">
        <ele>1364</ele>
        <time>2026-08-19T06:05:59.566Z</time>
      </trkpt>
      <trkpt lat="45.91051" lon="6.33623">
        <ele>1364</ele>
        <time>2026-08-19T06:06:00.566Z</time>
      </trkpt>
      <trkpt lat="45.91052" lon="6.33622">
        <ele>1364</ele>
        <time>2026-08-19T06:06:01.566Z</time>
      </trkpt>
      <trkpt lat="45.91053" lon="6.33622">
        <ele>1365</ele>
        <time>2026-08-19T06:06:02.566Z</time>
      </trkpt>
      <trkpt lat="45.91054" lon="6.33622">
        <ele>1365</ele>
        <time>2026-08-19T06:06:03.566Z</time>
      </trkpt>
      <trkpt lat="45.91056" lon="6.33626">
        <ele>1365</ele>
        <time>2026-08-19T06:06:04.566Z</time>
      </trkpt>
      <trkpt lat="45.91058" lon="6.33633">
        <ele>1364</ele>
        <time>2026-08-19T06:06:05.566Z</time>
      </trkpt>
      <trkpt lat="45.9106" lon="6.33637">
        <ele>1364</ele>
        <time>2026-08-19T06:06:06.566Z</time>
      </trkpt>
      <trkpt lat="45.91062" lon="6.3364">
        <ele>1364</ele>
        <time>2026-08-19T06:06:07.566Z</time>
      </trkpt>
      <trkpt lat="45.91064" lon="6.33643">
        <ele>1364</ele>
        <time>2026-08-19T06:06:08.566Z</time>
      </trkpt>
      <trkpt lat="45.91066" lon="6.33644">
        <ele>1363</ele>
        <time>2026-08-19T06:06:09.566Z</time>
      </trkpt>
      <trkpt lat="45.91068" lon="6.33646">
        <ele>1363</ele>
        <time>2026-08-19T06:06:10.566Z</time>
      </trkpt>
      <trkpt lat="45.9107" lon="6.33648">
        <ele>1362</ele>
        <time>2026-08-19T06:06:11.566Z</time>
      </trkpt>
      <trkpt lat="45.91071" lon="6.3365">
        <ele>1362</ele>
        <time>2026-08-19T06:06:12.566Z</time>
      </trkpt>
      <trkpt lat="45.91073" lon="6.33652">
        <ele>1361</ele>
        <time>2026-08-19T06:06:13.566Z</time>
      </trkpt>
      <trkpt lat="45.91075" lon="6.33654">
        <ele>1360</ele>
        <time>2026-08-19T06:06:14.566Z</time>
      </trkpt>
      <trkpt lat="45.91075" lon="6.33651">
        <ele>1359</ele>
        <time>2026-08-19T06:06:15.566Z</time>
      </trkpt>
      <trkpt lat="45.91076" lon="6.33651">
        <ele>1358</ele>
        <time>2026-08-19T06:06:16.566Z</time>
      </trkpt>
      <trkpt lat="45.91076" lon="6.33651">
        <ele>1357</ele>
        <time>2026-08-19T06:06:17.566Z</time>
      </trkpt>
      <trkpt lat="45.91076" lon="6.3365">
        <ele>1357</ele>
        <time>2026-08-19T06:06:18.566Z</time>
      </trkpt>
      <trkpt lat="45.91075" lon="6.3365">
        <ele>1356</ele>
        <time>2026-08-19T06:06:19.566Z</time>
      </trkpt>
      <trkpt lat="45.91073" lon="6.33651">
        <ele>1356</ele>
        <time>2026-08-19T06:06:20.566Z</time>
      </trkpt>
      <trkpt lat="45.91073" lon="6.3365">
        <ele>1355</ele>
        <time>2026-08-19T06:06:21.566Z</time>
      </trkpt>
      <trkpt lat="45.91073" lon="6.33649">
        <ele>1355</ele>
        <time>2026-08-19T06:06:22.566Z</time>
      </trkpt>
      <trkpt lat="45.91073" lon="6.33648">
        <ele>1355</ele>
        <time>2026-08-19T06:06:23.566Z</time>
      </trkpt>
      <trkpt lat="45.91074" lon="6.33648">
        <ele>1354</ele>
        <time>2026-08-19T06:06:24.566Z</time>
      </trkpt>
      <trkpt lat="45.91074" lon="6.33647">
        <ele>1354</ele>
        <time>2026-08-19T06:06:25.566Z</time>
      </trkpt>
      <trkpt lat="45.91075" lon="6.33648">
        <ele>1354</ele>
        <time>2026-08-19T06:06:26.566Z</time>
      </trkpt>
      <trkpt lat="45.91076" lon="6.33648">
        <ele>1354</ele>
        <time>2026-08-19T06:06:27.566Z</time>
      </trkpt>
      <trkpt lat="45.91076" lon="6.33648">
        <ele>1354</ele>
        <time>2026-08-19T06:06:28.566Z</time>
      </trkpt>
      <trkpt lat="45.91076" lon="6.33648">
        <ele>1353</ele>
        <time>2026-08-19T06:06:29.566Z</time>
      </trkpt>
      <trkpt lat="45.91077" lon="6.33649">
        <ele>1353</ele>
        <time>2026-08-19T06:06:30.566Z</time>
      </trkpt>
      <trkpt lat="45.91077" lon="6.33649">
        <ele>1353</ele>
        <time>2026-08-19T06:06:31.566Z</time>
      </trkpt>
      <trkpt lat="45.91078" lon="6.33649">
        <ele>1353</ele>
        <time>2026-08-19T06:06:32.566Z</time>
      </trkpt>
      <trkpt lat="45.91079" lon="6.33649">
        <ele>1352</ele>
        <time>2026-08-19T06:06:33.566Z</time>
      </trkpt>
      <trkpt lat="45.91079" lon="6.33649">
        <ele>1352</ele>
        <time>2026-08-19T06:06:34.566Z</time>
      </trkpt>
      <trkpt lat="45.9108" lon="6.3365">
        <ele>1352</ele>
        <time>2026-08-19T06:06:35.566Z</time>
      </trkpt>
      <trkpt lat="45.91081" lon="6.33651">
        <ele>1352</ele>
        <time>2026-08-19T06:06:36.566Z</time>
      </trkpt>
      <trkpt lat="45.91081" lon="6.33651">
        <ele>1353</ele>
        <time>2026-08-19T06:06:37.566Z</time>
      </trkpt>
      <trkpt lat="45.91082" lon="6.33651">
        <ele>1353</ele>
        <time>2026-08-19T06:06:38.566Z</time>
      </trkpt>
      <trkpt lat="45.91082" lon="6.33651">
        <ele>1354</ele>
        <time>2026-08-19T06:06:39.566Z</time>
      </trkpt>
      <trkpt lat="45.91083" lon="6.3365">
        <ele>1355</ele>
        <time>2026-08-19T06:06:40.566Z</time>
      </trkpt>
      <trkpt lat="45.91085" lon="6.33649">
        <ele>1356</ele>
        <time>2026-08-19T06:06:41.566Z</time>
      </trkpt>
      <trkpt lat="45.91086" lon="6.33648">
        <ele>1357</ele>
        <time>2026-08-19T06:06:42.566Z</time>
      </trkpt>
      <trkpt lat="45.91088" lon="6.33648">
        <ele>1358</ele>
        <time>2026-08-19T06:06:43.566Z</time>
      </trkpt>
      <trkpt lat="45.91089" lon="6.33648">
        <ele>1359</ele>
        <time>2026-08-19T06:06:44.566Z</time>
      </trkpt>
      <trkpt lat="45.9109" lon="6.33647">
        <ele>1360</ele>
        <time>2026-08-19T06:06:45.566Z</time>
      </trkpt>
      <trkpt lat="45.91091" lon="6.33646">
        <ele>1361</ele>
        <time>2026-08-19T06:06:46.566Z</time>
      </trkpt>
      <trkpt lat="45.91093" lon="6.33646">
        <ele>1362</ele>
        <time>2026-08-19T06:06:47.566Z</time>
      </trkpt>
      <trkpt lat="45.91095" lon="6.33645">
        <ele>1363</ele>
        <time>2026-08-19T06:06:48.566Z</time>
      </trkpt>
      <trkpt lat="45.91096" lon="6.33644">
        <ele>1364</ele>
        <time>2026-08-19T06:06:49.566Z</time>
      </trkpt>
      <trkpt lat="45.91098" lon="6.33644">
        <ele>1365</ele>
        <time>2026-08-19T06:06:50.566Z</time>
      </trkpt>
      <trkpt lat="45.91099" lon="6.33644">
        <ele>1366</ele>
        <time>2026-08-19T06:06:51.566Z</time>
      </trkpt>
      <trkpt lat="45.911" lon="6.33644">
        <ele>1367</ele>
        <time>2026-08-19T06:06:52.566Z</time>
      </trkpt>
      <trkpt lat="45.911" lon="6.33644">
        <ele>1368</ele>
        <time>2026-08-19T06:06:53.566Z</time>
      </trkpt>
      <trkpt lat="45.91101" lon="6.33644">
        <ele>1369</ele>
        <time>2026-08-19T06:06:54.566Z</time>
      </trkpt>
      <trkpt lat="45.91102" lon="6.33644">
        <ele>1369</ele>
        <time>2026-08-19T06:06:55.566Z</time>
      </trkpt>
      <trkpt lat="45.91102" lon="6.33643">
        <ele>1370</ele>
        <time>2026-08-19T06:06:56.566Z</time>
      </trkpt>
      <trkpt lat="45.91103" lon="6.33642">
        <ele>1371</ele>
        <time>2026-08-19T06:06:57.566Z</time>
      </trkpt>
      <trkpt lat="45.91104" lon="6.33641">
        <ele>1371</ele>
        <time>2026-08-19T06:06:58.566Z</time>
      </trkpt>
      <trkpt lat="45.91106" lon="6.33641">
        <ele>1371</ele>
        <time>2026-08-19T06:06:59.566Z</time>
      </trkpt>
      <trkpt lat="45.91108" lon="6.33641">
        <ele>1372</ele>
        <time>2026-08-19T06:07:00.566Z</time>
      </trkpt>
      <trkpt lat="45.9111" lon="6.33641">
        <ele>1372</ele>
        <time>2026-08-19T06:07:01.566Z</time>
      </trkpt>
      <trkpt lat="45.91111" lon="6.33642">
        <ele>1373</ele>
        <time>2026-08-19T06:07:02.566Z</time>
      </trkpt>
      <trkpt lat="45.91112" lon="6.33643">
        <ele>1373</ele>
        <time>2026-08-19T06:07:03.566Z</time>
      </trkpt>
      <trkpt lat="45.91113" lon="6.33645">
        <ele>1373</ele>
        <time>2026-08-19T06:07:04.566Z</time>
      </trkpt>
      <trkpt lat="45.91114" lon="6.33647">
        <ele>1374</ele>
        <time>2026-08-19T06:07:05.566Z</time>
      </trkpt>
      <trkpt lat="45.91115" lon="6.33648">
        <ele>1374</ele>
        <time>2026-08-19T06:07:06.566Z</time>
      </trkpt>
      <trkpt lat="45.91116" lon="6.3365">
        <ele>1373</ele>
        <time>2026-08-19T06:07:07.566Z</time>
      </trkpt>
      <trkpt lat="45.91117" lon="6.33651">
        <ele>1373</ele>
        <time>2026-08-19T06:07:08.566Z</time>
      </trkpt>
      <trkpt lat="45.91117" lon="6.33652">
        <ele>1372</ele>
        <time>2026-08-19T06:07:09.566Z</time>
      </trkpt>
      <trkpt lat="45.91118" lon="6.33653">
        <ele>1372</ele>
        <time>2026-08-19T06:07:10.566Z</time>
      </trkpt>
      <trkpt lat="45.91119" lon="6.33654">
        <ele>1371</ele>
        <time>2026-08-19T06:07:11.566Z</time>
      </trkpt>
      <trkpt lat="45.91119" lon="6.33656">
        <ele>1371</ele>
        <time>2026-08-19T06:07:12.566Z</time>
      </trkpt>
      <trkpt lat="45.9112" lon="6.33659">
        <ele>1370</ele>
        <time>2026-08-19T06:07:13.566Z</time>
      </trkpt>
      <trkpt lat="45.91121" lon="6.33661">
        <ele>1370</ele>
        <time>2026-08-19T06:07:14.566Z</time>
      </trkpt>
      <trkpt lat="45.91122" lon="6.33662">
        <ele>1370</ele>
        <time>2026-08-19T06:07:15.566Z</time>
      </trkpt>
      <trkpt lat="45.91123" lon="6.33663">
        <ele>1369</ele>
        <time>2026-08-19T06:07:16.566Z</time>
      </trkpt>
      <trkpt lat="45.91124" lon="6.33665">
        <ele>1369</ele>
        <time>2026-08-19T06:07:17.566Z</time>
      </trkpt>
      <trkpt lat="45.91125" lon="6.33667">
        <ele>1369</ele>
        <time>2026-08-19T06:07:18.566Z</time>
      </trkpt>
      <trkpt lat="45.91125" lon="6.33668">
        <ele>1369</ele>
        <time>2026-08-19T06:07:19.566Z</time>
      </trkpt>
      <trkpt lat="45.91126" lon="6.33668">
        <ele>1368</ele>
        <time>2026-08-19T06:07:20.566Z</time>
      </trkpt>
      <trkpt lat="45.91126" lon="6.33669">
        <ele>1368</ele>
        <time>2026-08-19T06:07:21.566Z</time>
      </trkpt>
      <trkpt lat="45.91126" lon="6.3367">
        <ele>1368</ele>
        <time>2026-08-19T06:07:22.566Z</time>
      </trkpt>
      <trkpt lat="45.91126" lon="6.33671">
        <ele>1368</ele>
        <time>2026-08-19T06:07:23.566Z</time>
      </trkpt>
      <trkpt lat="45.91127" lon="6.33671">
        <ele>1367</ele>
        <time>2026-08-19T06:07:24.566Z</time>
      </trkpt>
      <trkpt lat="45.91127" lon="6.33671">
        <ele>1367</ele>
        <time>2026-08-19T06:07:25.566Z</time>
      </trkpt>
      <trkpt lat="45.91127" lon="6.3367">
        <ele>1367</ele>
        <time>2026-08-19T06:07:26.566Z</time>
      </trkpt>
      <trkpt lat="45.91128" lon="6.33669">
        <ele>1368</ele>
        <time>2026-08-19T06:07:27.566Z</time>
      </trkpt>
      <trkpt lat="45.91129" lon="6.33669">
        <ele>1368</ele>
        <time>2026-08-19T06:07:28.566Z</time>
      </trkpt>
      <trkpt lat="45.91131" lon="6.33669">
        <ele>1368</ele>
        <time>2026-08-19T06:07:29.566Z</time>
      </trkpt>
      <trkpt lat="45.91132" lon="6.33668">
        <ele>1368</ele>
        <time>2026-08-19T06:07:30.566Z</time>
      </trkpt>
      <trkpt lat="45.91132" lon="6.33669">
        <ele>1369</ele>
        <time>2026-08-19T06:07:31.566Z</time>
      </trkpt>
      <trkpt lat="45.91133" lon="6.33669">
        <ele>1369</ele>
        <time>2026-08-19T06:07:32.566Z</time>
      </trkpt>
      <trkpt lat="45.91133" lon="6.33669">
        <ele>1369</ele>
        <time>2026-08-19T06:07:33.566Z</time>
      </trkpt>
      <trkpt lat="45.91133" lon="6.33669">
        <ele>1370</ele>
        <time>2026-08-19T06:07:34.566Z</time>
      </trkpt>
      <trkpt lat="45.91133" lon="6.33669">
        <ele>1370</ele>
        <time>2026-08-19T06:07:35.566Z</time>
      </trkpt>
      <trkpt lat="45.91133" lon="6.33669">
        <ele>1370</ele>
        <time>2026-08-19T06:07:36.566Z</time>
      </trkpt>
      <trkpt lat="45.91134" lon="6.33669">
        <ele>1370</ele>
        <time>2026-08-19T06:07:37.566Z</time>
      </trkpt>
      <trkpt lat="45.91135" lon="6.33669">
        <ele>1370</ele>
        <time>2026-08-19T06:07:38.566Z</time>
      </trkpt>
      <trkpt lat="45.91135" lon="6.33668">
        <ele>1370</ele>
        <time>2026-08-19T06:07:39.566Z</time>
      </trkpt>
      <trkpt lat="45.91136" lon="6.33668">
        <ele>1370</ele>
        <time>2026-08-19T06:07:40.566Z</time>
      </trkpt>
      <trkpt lat="45.91136" lon="6.33668">
        <ele>1371</ele>
        <time>2026-08-19T06:07:41.566Z</time>
      </trkpt>
      <trkpt lat="45.91138" lon="6.33667">
        <ele>1371</ele>
        <time>2026-08-19T06:07:42.566Z</time>
      </trkpt>
      <trkpt lat="45.91139" lon="6.33666">
        <ele>1370</ele>
        <time>2026-08-19T06:07:43.566Z</time>
      </trkpt>
      <trkpt lat="45.9114" lon="6.33665">
        <ele>1370</ele>
        <time>2026-08-19T06:07:44.566Z</time>
      </trkpt>
      <trkpt lat="45.91142" lon="6.33665">
        <ele>1370</ele>
        <time>2026-08-19T06:07:45.566Z</time>
      </trkpt>
      <trkpt lat="45.91142" lon="6.33665">
        <ele>1370</ele>
        <time>2026-08-19T06:07:46.566Z</time>
      </trkpt>
      <trkpt lat="45.91142" lon="6.33665">
        <ele>1370</ele>
        <time>2026-08-19T06:07:47.566Z</time>
      </trkpt>
      <trkpt lat="45.91143" lon="6.33666">
        <ele>1370</ele>
        <time>2026-08-19T06:07:48.566Z</time>
      </trkpt>
      <trkpt lat="45.91142" lon="6.33666">
        <ele>1370</ele>
        <time>2026-08-19T06:07:49.566Z</time>
      </trkpt>
      <trkpt lat="45.91142" lon="6.33667">
        <ele>1370</ele>
        <time>2026-08-19T06:07:50.566Z</time>
      </trkpt>
      <trkpt lat="45.91143" lon="6.33668">
        <ele>1370</ele>
        <time>2026-08-19T06:07:51.566Z</time>
      </trkpt>
      <trkpt lat="45.91143" lon="6.33668">
        <ele>1369</ele>
        <time>2026-08-19T06:07:52.566Z</time>
      </trkpt>
      <trkpt lat="45.91143" lon="6.33668">
        <ele>1369</ele>
        <time>2026-08-19T06:07:53.566Z</time>
      </trkpt>
      <trkpt lat="45.91144" lon="6.33668">
        <ele>1369</ele>
        <time>2026-08-19T06:07:54.566Z</time>
      </trkpt>
      <trkpt lat="45.91144" lon="6.33668">
        <ele>1369</ele>
        <time>2026-08-19T06:07:55.566Z</time>
      </trkpt>
      <trkpt lat="45.91144" lon="6.33669">
        <ele>1369</ele>
        <time>2026-08-19T06:07:56.566Z</time>
      </trkpt>
      <trkpt lat="45.91144" lon="6.33668">
        <ele>1368</ele>
        <time>2026-08-19T06:07:57.566Z</time>
      </trkpt>
      <trkpt lat="45.91144" lon="6.33668">
        <ele>1368</ele>
        <time>2026-08-19T06:07:58.566Z</time>
      </trkpt>
      <trkpt lat="45.91145" lon="6.33669">
        <ele>1368</ele>
        <time>2026-08-19T06:07:59.566Z</time>
      </trkpt>
      <trkpt lat="45.91145" lon="6.33669">
        <ele>1368</ele>
        <time>2026-08-19T06:08:00.566Z</time>
      </trkpt>
      <trkpt lat="45.91146" lon="6.33669">
        <ele>1368</ele>
        <time>2026-08-19T06:08:01.566Z</time>
      </trkpt>
      <trkpt lat="45.91146" lon="6.33669">
        <ele>1368</ele>
        <time>2026-08-19T06:08:02.566Z</time>
      </trkpt>
      <trkpt lat="45.91146" lon="6.33669">
        <ele>1367</ele>
        <time>2026-08-19T06:08:03.566Z</time>
      </trkpt>
      <trkpt lat="45.91146" lon="6.33669">
        <ele>1367</ele>
        <time>2026-08-19T06:08:04.566Z</time>
      </trkpt>
      <trkpt lat="45.91146" lon="6.33669">
        <ele>1367</ele>
        <time>2026-08-19T06:08:05.566Z</time>
      </trkpt>
      <trkpt lat="45.91146" lon="6.33669">
        <ele>1367</ele>
        <time>2026-08-19T06:08:06.566Z</time>
      </trkpt>
      <trkpt lat="45.91146" lon="6.33669">
        <ele>1367</ele>
        <time>2026-08-19T06:08:07.566Z</time>
      </trkpt>
      <trkpt lat="45.91146" lon="6.33669">
        <ele>1367</ele>
        <time>2026-08-19T06:08:08.566Z</time>
      </trkpt>
      <trkpt lat="45.91146" lon="6.33669">
        <ele>1367</ele>
        <time>2026-08-19T06:08:09.566Z</time>
      </trkpt>
      <trkpt lat="45.91146" lon="6.33669">
        <ele>1367</ele>
        <time>2026-08-19T06:08:10.566Z</time>
      </trkpt>
      <trkpt lat="45.91146" lon="6.33669">
        <ele>1367</ele>
        <time>2026-08-19T06:08:11.566Z</time>
      </trkpt>
      <trkpt lat="45.91146" lon="6.33669">
        <ele>1367</ele>
        <time>2026-08-19T06:08:12.566Z</time>
      </trkpt>
      <trkpt lat="45.91146" lon="6.33669">
        <ele>1366</ele>
        <time>2026-08-19T06:08:13.566Z</time>
      </trkpt>
      <trkpt lat="45.91146" lon="6.33669">
        <ele>1366</ele>
        <time>2026-08-19T06:08:14.566Z</time>
      </trkpt>
      <trkpt lat="45.91146" lon="6.33669">
        <ele>1366</ele>
        <time>2026-08-19T06:08:15.566Z</time>
      </trkpt>
      <trkpt lat="45.91146" lon="6.33669">
        <ele>1366</ele>
        <time>2026-08-19T06:08:16.566Z</time>
      </trkpt>
      <trkpt lat="45.91146" lon="6.33669">
        <ele>1366</ele>
        <time>2026-08-19T06:08:17.566Z</time>
      </trkpt>
      <trkpt lat="45.91146" lon="6.33669">
        <ele>1366</ele>
        <time>2026-08-19T06:08:18.566Z</time>
      </trkpt>
      <trkpt lat="45.91146" lon="6.33669">
        <ele>1366</ele>
        <time>2026-08-19T06:08:19.566Z</time>
      </trkpt>
      <trkpt lat="45.91146" lon="6.3367">
        <ele>1366</ele>
        <time>2026-08-19T06:08:20.566Z</time>
      </trkpt>
      <trkpt lat="45.91146" lon="6.3367">
        <ele>1366</ele>
        <time>2026-08-19T06:08:21.566Z</time>
      </trkpt>
      <trkpt lat="45.91146" lon="6.3367">
        <ele>1366</ele>
        <time>2026-08-19T06:08:22.566Z</time>
      </trkpt>
      <trkpt lat="45.91146" lon="6.3367">
        <ele>1366</ele>
        <time>2026-08-19T06:08:23.566Z</time>
      </trkpt>
      <trkpt lat="45.91146" lon="6.3367">
        <ele>1366</ele>
        <time>2026-08-19T06:08:24.566Z</time>
      </trkpt>
      <trkpt lat="45.91146" lon="6.3367">
        <ele>1367</ele>
        <time>2026-08-19T06:08:25.566Z</time>
      </trkpt>
      <trkpt lat="45.91147" lon="6.3367">
        <ele>1367</ele>
        <time>2026-08-19T06:08:26.566Z</time>
      </trkpt>
      <trkpt lat="45.91148" lon="6.3367">
        <ele>1367</ele>
        <time>2026-08-19T06:08:27.566Z</time>
      </trkpt>
      <trkpt lat="45.91149" lon="6.3367">
        <ele>1367</ele>
        <time>2026-08-19T06:08:28.566Z</time>
      </trkpt>
      <trkpt lat="45.9115" lon="6.3367">
        <ele>1367</ele>
        <time>2026-08-19T06:08:29.566Z</time>
      </trkpt>
      <trkpt lat="45.91151" lon="6.33669">
        <ele>1367</ele>
        <time>2026-08-19T06:08:30.566Z</time>
      </trkpt>
      <trkpt lat="45.91152" lon="6.33669">
        <ele>1367</ele>
        <time>2026-08-19T06:08:31.566Z</time>
      </trkpt>
      <trkpt lat="45.91153" lon="6.33668">
        <ele>1367</ele>
        <time>2026-08-19T06:08:32.566Z</time>
      </trkpt>
      <trkpt lat="45.91154" lon="6.33668">
        <ele>1367</ele>
        <time>2026-08-19T06:08:33.566Z</time>
      </trkpt>
      <trkpt lat="45.91155" lon="6.33668">
        <ele>1367</ele>
        <time>2026-08-19T06:08:34.566Z</time>
      </trkpt>
      <trkpt lat="45.91156" lon="6.33668">
        <ele>1368</ele>
        <time>2026-08-19T06:08:35.566Z</time>
      </trkpt>
      <trkpt lat="45.91156" lon="6.33668">
        <ele>1369</ele>
        <time>2026-08-19T06:08:36.566Z</time>
      </trkpt>
      <trkpt lat="45.91157" lon="6.33668">
        <ele>1369</ele>
        <time>2026-08-19T06:08:37.566Z</time>
      </trkpt>
      <trkpt lat="45.91157" lon="6.33668">
        <ele>1370</ele>
        <time>2026-08-19T06:08:38.566Z</time>
      </trkpt>
      <trkpt lat="45.91158" lon="6.33669">
        <ele>1370</ele>
        <time>2026-08-19T06:08:39.566Z</time>
      </trkpt>
      <trkpt lat="45.91158" lon="6.33669">
        <ele>1371</ele>
        <time>2026-08-19T06:08:40.566Z</time>
      </trkpt>
      <trkpt lat="45.91159" lon="6.33669">
        <ele>1372</ele>
        <time>2026-08-19T06:08:41.566Z</time>
      </trkpt>
      <trkpt lat="45.9116" lon="6.3367">
        <ele>1373</ele>
        <time>2026-08-19T06:08:42.566Z</time>
      </trkpt>
      <trkpt lat="45.9116" lon="6.3367">
        <ele>1373</ele>
        <time>2026-08-19T06:08:43.566Z</time>
      </trkpt>
      <trkpt lat="45.91161" lon="6.3367">
        <ele>1374</ele>
        <time>2026-08-19T06:08:44.566Z</time>
      </trkpt>
      <trkpt lat="45.91161" lon="6.3367">
        <ele>1374</ele>
        <time>2026-08-19T06:08:45.566Z</time>
      </trkpt>
      <trkpt lat="45.91161" lon="6.33671">
        <ele>1375</ele>
        <time>2026-08-19T06:08:46.566Z</time>
      </trkpt>
      <trkpt lat="45.91161" lon="6.33671">
        <ele>1375</ele>
        <time>2026-08-19T06:08:47.566Z</time>
      </trkpt>
      <trkpt lat="45.91161" lon="6.33672">
        <ele>1375</ele>
        <time>2026-08-19T06:08:48.566Z</time>
      </trkpt>
      <trkpt lat="45.91162" lon="6.33672">
        <ele>1375</ele>
        <time>2026-08-19T06:08:49.566Z</time>
      </trkpt>
      <trkpt lat="45.91162" lon="6.33673">
        <ele>1375</ele>
        <time>2026-08-19T06:08:50.566Z</time>
      </trkpt>
      <trkpt lat="45.91163" lon="6.33673">
        <ele>1375</ele>
        <time>2026-08-19T06:08:51.566Z</time>
      </trkpt>
      <trkpt lat="45.91164" lon="6.33672">
        <ele>1375</ele>
        <time>2026-08-19T06:08:52.566Z</time>
      </trkpt>
      <trkpt lat="45.91164" lon="6.33672">
        <ele>1375</ele>
        <time>2026-08-19T06:08:53.566Z</time>
      </trkpt>
      <trkpt lat="45.91165" lon="6.33673">
        <ele>1375</ele>
        <time>2026-08-19T06:08:54.566Z</time>
      </trkpt>
      <trkpt lat="45.91165" lon="6.33673">
        <ele>1375</ele>
        <time>2026-08-19T06:08:55.566Z</time>
      </trkpt>
      <trkpt lat="45.91166" lon="6.33674">
        <ele>1375</ele>
        <time>2026-08-19T06:08:56.566Z</time>
      </trkpt>
      <trkpt lat="45.91167" lon="6.33674">
        <ele>1375</ele>
        <time>2026-08-19T06:08:57.566Z</time>
      </trkpt>
      <trkpt lat="45.91167" lon="6.33674">
        <ele>1375</ele>
        <time>2026-08-19T06:08:58.566Z</time>
      </trkpt>
      <trkpt lat="45.91168" lon="6.33675">
        <ele>1375</ele>
        <time>2026-08-19T06:08:59.567Z</time>
      </trkpt>
      <trkpt lat="45.91168" lon="6.33676">
        <ele>1375</ele>
        <time>2026-08-19T06:09:00.566Z</time>
      </trkpt>
      <trkpt lat="45.91169" lon="6.33676">
        <ele>1375</ele>
        <time>2026-08-19T06:09:01.566Z</time>
      </trkpt>
      <trkpt lat="45.9117" lon="6.33677">
        <ele>1375</ele>
        <time>2026-08-19T06:09:02.566Z</time>
      </trkpt>
      <trkpt lat="45.91171" lon="6.33677">
        <ele>1374</ele>
        <time>2026-08-19T06:09:03.566Z</time>
      </trkpt>
      <trkpt lat="45.91172" lon="6.33677">
        <ele>1374</ele>
        <time>2026-08-19T06:09:04.566Z</time>
      </trkpt>
      <trkpt lat="45.91174" lon="6.33677">
        <ele>1373</ele>
        <time>2026-08-19T06:09:05.566Z</time>
      </trkpt>
      <trkpt lat="45.91175" lon="6.33677">
        <ele>1373</ele>
        <time>2026-08-19T06:09:06.566Z</time>
      </trkpt>
      <trkpt lat="45.91176" lon="6.33677">
        <ele>1373</ele>
        <time>2026-08-19T06:09:07.566Z</time>
      </trkpt>
      <trkpt lat="45.91176" lon="6.33677">
        <ele>1373</ele>
        <time>2026-08-19T06:09:08.566Z</time>
      </trkpt>
      <trkpt lat="45.91176" lon="6.33677">
        <ele>1373</ele>
        <time>2026-08-19T06:09:09.566Z</time>
      </trkpt>
      <trkpt lat="45.91176" lon="6.33677">
        <ele>1373</ele>
        <time>2026-08-19T06:09:10.566Z</time>
      </trkpt>
      <trkpt lat="45.91177" lon="6.33677">
        <ele>1373</ele>
        <time>2026-08-19T06:09:11.566Z</time>
      </trkpt>
      <trkpt lat="45.91177" lon="6.33677">
        <ele>1373</ele>
        <time>2026-08-19T06:09:12.566Z</time>
      </trkpt>
      <trkpt lat="45.91178" lon="6.33676">
        <ele>1373</ele>
        <time>2026-08-19T06:09:13.566Z</time>
      </trkpt>
      <trkpt lat="45.91178" lon="6.33677">
        <ele>1374</ele>
        <time>2026-08-19T06:09:14.566Z</time>
      </trkpt>
      <trkpt lat="45.91179" lon="6.33676">
        <ele>1374</ele>
        <time>2026-08-19T06:09:15.566Z</time>
      </trkpt>
      <trkpt lat="45.91179" lon="6.33676">
        <ele>1374</ele>
        <time>2026-08-19T06:09:16.566Z</time>
      </trkpt>
      <trkpt lat="45.91179" lon="6.33675">
        <ele>1375</ele>
        <time>2026-08-19T06:09:17.566Z</time>
      </trkpt>
      <trkpt lat="45.91179" lon="6.33675">
        <ele>1375</ele>
        <time>2026-08-19T06:09:18.566Z</time>
      </trkpt>
      <trkpt lat="45.9118" lon="6.33675">
        <ele>1375</ele>
        <time>2026-08-19T06:09:19.566Z</time>
      </trkpt>
      <trkpt lat="45.91181" lon="6.33675">
        <ele>1376</ele>
        <time>2026-08-19T06:09:20.566Z</time>
      </trkpt>
      <trkpt lat="45.91182" lon="6.33674">
        <ele>1376</ele>
        <time>2026-08-19T06:09:21.566Z</time>
      </trkpt>
      <trkpt lat="45.91183" lon="6.33674">
        <ele>1376</ele>
        <time>2026-08-19T06:09:22.566Z</time>
      </trkpt>
      <trkpt lat="45.91184" lon="6.33674">
        <ele>1377</ele>
        <time>2026-08-19T06:09:23.566Z</time>
      </trkpt>
      <trkpt lat="45.91185" lon="6.33674">
        <ele>1377</ele>
        <time>2026-08-19T06:09:24.566Z</time>
      </trkpt>
      <trkpt lat="45.91186" lon="6.33675">
        <ele>1378</ele>
        <time>2026-08-19T06:09:25.566Z</time>
      </trkpt>
      <trkpt lat="45.91187" lon="6.33675">
        <ele>1378</ele>
        <time>2026-08-19T06:09:26.566Z</time>
      </trkpt>
      <trkpt lat="45.91187" lon="6.33674">
        <ele>1379</ele>
        <time>2026-08-19T06:09:27.566Z</time>
      </trkpt>
      <trkpt lat="45.91188" lon="6.33674">
        <ele>1379</ele>
        <time>2026-08-19T06:09:28.566Z</time>
      </trkpt>
      <trkpt lat="45.9119" lon="6.33673">
        <ele>1379</ele>
        <time>2026-08-19T06:09:29.566Z</time>
      </trkpt>
      <trkpt lat="45.9119" lon="6.33673">
        <ele>1380</ele>
        <time>2026-08-19T06:09:30.566Z</time>
      </trkpt>
      <trkpt lat="45.91191" lon="6.33673">
        <ele>1380</ele>
        <time>2026-08-19T06:09:31.566Z</time>
      </trkpt>
      <trkpt lat="45.91191" lon="6.33672">
        <ele>1381</ele>
        <time>2026-08-19T06:09:32.566Z</time>
      </trkpt>
      <trkpt lat="45.91192" lon="6.33672">
        <ele>1381</ele>
        <time>2026-08-19T06:09:33.566Z</time>
      </trkpt>
      <trkpt lat="45.91194" lon="6.33671">
        <ele>1381</ele>
        <time>2026-08-19T06:09:34.566Z</time>
      </trkpt>
      <trkpt lat="45.91194" lon="6.33671">
        <ele>1382</ele>
        <time>2026-08-19T06:09:35.566Z</time>
      </trkpt>
      <trkpt lat="45.91195" lon="6.33672">
        <ele>1382</ele>
        <time>2026-08-19T06:09:36.566Z</time>
      </trkpt>
      <trkpt lat="45.91196" lon="6.33672">
        <ele>1382</ele>
        <time>2026-08-19T06:09:37.566Z</time>
      </trkpt>
      <trkpt lat="45.91197" lon="6.3367">
        <ele>1383</ele>
        <time>2026-08-19T06:09:38.566Z</time>
      </trkpt>
      <trkpt lat="45.91198" lon="6.33669">
        <ele>1383</ele>
        <time>2026-08-19T06:09:39.566Z</time>
      </trkpt>
      <trkpt lat="45.91198" lon="6.33669">
        <ele>1383</ele>
        <time>2026-08-19T06:09:40.566Z</time>
      </trkpt>
      <trkpt lat="45.91199" lon="6.33669">
        <ele>1383</ele>
        <time>2026-08-19T06:09:41.566Z</time>
      </trkpt>
      <trkpt lat="45.912" lon="6.33669">
        <ele>1384</ele>
        <time>2026-08-19T06:09:42.566Z</time>
      </trkpt>
      <trkpt lat="45.912" lon="6.33669">
        <ele>1384</ele>
        <time>2026-08-19T06:09:43.566Z</time>
      </trkpt>
      <trkpt lat="45.912" lon="6.33668">
        <ele>1385</ele>
        <time>2026-08-19T06:09:44.566Z</time>
      </trkpt>
      <trkpt lat="45.91201" lon="6.33668">
        <ele>1385</ele>
        <time>2026-08-19T06:09:45.566Z</time>
      </trkpt>
      <trkpt lat="45.91202" lon="6.33668">
        <ele>1385</ele>
        <time>2026-08-19T06:09:46.566Z</time>
      </trkpt>
      <trkpt lat="45.91203" lon="6.33669">
        <ele>1386</ele>
        <time>2026-08-19T06:09:47.566Z</time>
      </trkpt>
      <trkpt lat="45.91205" lon="6.33669">
        <ele>1386</ele>
        <time>2026-08-19T06:09:48.566Z</time>
      </trkpt>
      <trkpt lat="45.91205" lon="6.33669">
        <ele>1387</ele>
        <time>2026-08-19T06:09:49.566Z</time>
      </trkpt>
      <trkpt lat="45.91205" lon="6.33669">
        <ele>1387</ele>
        <time>2026-08-19T06:09:50.566Z</time>
      </trkpt>
      <trkpt lat="45.91206" lon="6.33669">
        <ele>1388</ele>
        <time>2026-08-19T06:09:51.566Z</time>
      </trkpt>
      <trkpt lat="45.91206" lon="6.3367">
        <ele>1388</ele>
        <time>2026-08-19T06:09:52.566Z</time>
      </trkpt>
      <trkpt lat="45.91207" lon="6.3367">
        <ele>1388</ele>
        <time>2026-08-19T06:09:53.566Z</time>
      </trkpt>
      <trkpt lat="45.91206" lon="6.33671">
        <ele>1388</ele>
        <time>2026-08-19T06:09:54.566Z</time>
      </trkpt>
      <trkpt lat="45.91206" lon="6.33671">
        <ele>1388</ele>
        <time>2026-08-19T06:09:55.566Z</time>
      </trkpt>
      <trkpt lat="45.91206" lon="6.33671">
        <ele>1389</ele>
        <time>2026-08-19T06:09:56.566Z</time>
      </trkpt>
      <trkpt lat="45.91207" lon="6.33673">
        <ele>1389</ele>
        <time>2026-08-19T06:09:57.566Z</time>
      </trkpt>
      <trkpt lat="45.91207" lon="6.33673">
        <ele>1389</ele>
        <time>2026-08-19T06:09:58.566Z</time>
      </trkpt>
      <trkpt lat="45.91207" lon="6.33673">
        <ele>1389</ele>
        <time>2026-08-19T06:09:59.566Z</time>
      </trkpt>
      <trkpt lat="45.91208" lon="6.33673">
        <ele>1389</ele>
        <time>2026-08-19T06:10:00.566Z</time>
      </trkpt>
      <trkpt lat="45.91209" lon="6.33674">
        <ele>1389</ele>
        <time>2026-08-19T06:10:01.566Z</time>
      </trkpt>
      <trkpt lat="45.91209" lon="6.33674">
        <ele>1389</ele>
        <time>2026-08-19T06:10:02.566Z</time>
      </trkpt>
      <trkpt lat="45.91209" lon="6.33674">
        <ele>1389</ele>
        <time>2026-08-19T06:10:03.566Z</time>
      </trkpt>
      <trkpt lat="45.9121" lon="6.33674">
        <ele>1389</ele>
        <time>2026-08-19T06:10:04.566Z</time>
      </trkpt>
      <trkpt lat="45.9121" lon="6.33674">
        <ele>1389</ele>
        <time>2026-08-19T06:10:05.567Z</time>
      </trkpt>
      <trkpt lat="45.9121" lon="6.33674">
        <ele>1389</ele>
        <time>2026-08-19T06:10:06.566Z</time>
      </trkpt>
      <trkpt lat="45.91211" lon="6.33674">
        <ele>1389</ele>
        <time>2026-08-19T06:10:07.566Z</time>
      </trkpt>
      <trkpt lat="45.91211" lon="6.33675">
        <ele>1389</ele>
        <time>2026-08-19T06:10:08.566Z</time>
      </trkpt>
      <trkpt lat="45.91211" lon="6.33675">
        <ele>1389</ele>
        <time>2026-08-19T06:10:09.566Z</time>
      </trkpt>
      <trkpt lat="45.91212" lon="6.33676">
        <ele>1389</ele>
        <time>2026-08-19T06:10:10.566Z</time>
      </trkpt>
      <trkpt lat="45.91213" lon="6.33676">
        <ele>1389</ele>
        <time>2026-08-19T06:10:11.566Z</time>
      </trkpt>
      <trkpt lat="45.91215" lon="6.33676">
        <ele>1389</ele>
        <time>2026-08-19T06:10:12.566Z</time>
      </trkpt>
      <trkpt lat="45.91216" lon="6.33677">
        <ele>1390</ele>
        <time>2026-08-19T06:10:13.566Z</time>
      </trkpt>
      <trkpt lat="45.91217" lon="6.33677">
        <ele>1391</ele>
        <time>2026-08-19T06:10:14.566Z</time>
      </trkpt>
      <trkpt lat="45.91217" lon="6.33677">
        <ele>1391</ele>
        <time>2026-08-19T06:10:15.566Z</time>
      </trkpt>
      <trkpt lat="45.91218" lon="6.33677">
        <ele>1392</ele>
        <time>2026-08-19T06:10:16.566Z</time>
      </trkpt>
      <trkpt lat="45.91218" lon="6.33678">
        <ele>1393</ele>
        <time>2026-08-19T06:10:17.566Z</time>
      </trkpt>
      <trkpt lat="45.91219" lon="6.33678">
        <ele>1393</ele>
        <time>2026-08-19T06:10:18.566Z</time>
      </trkpt>
      <trkpt lat="45.91219" lon="6.33677">
        <ele>1394</ele>
        <time>2026-08-19T06:10:19.566Z</time>
      </trkpt>
      <trkpt lat="45.9122" lon="6.33677">
        <ele>1394</ele>
        <time>2026-08-19T06:10:20.566Z</time>
      </trkpt>
      <trkpt lat="45.9122" lon="6.33677">
        <ele>1395</ele>
        <time>2026-08-19T06:10:21.566Z</time>
      </trkpt>
      <trkpt lat="45.9122" lon="6.33677">
        <ele>1395</ele>
        <time>2026-08-19T06:10:22.566Z</time>
      </trkpt>
      <trkpt lat="45.9122" lon="6.33677">
        <ele>1396</ele>
        <time>2026-08-19T06:10:23.566Z</time>
      </trkpt>
      <trkpt lat="45.91221" lon="6.33677">
        <ele>1396</ele>
        <time>2026-08-19T06:10:24.566Z</time>
      </trkpt>
      <trkpt lat="45.91221" lon="6.33678">
        <ele>1396</ele>
        <time>2026-08-19T06:10:25.566Z</time>
      </trkpt>
      <trkpt lat="45.91222" lon="6.33678">
        <ele>1396</ele>
        <time>2026-08-19T06:10:26.566Z</time>
      </trkpt>
      <trkpt lat="45.91222" lon="6.33679">
        <ele>1396</ele>
        <time>2026-08-19T06:10:27.566Z</time>
      </trkpt>
      <trkpt lat="45.91223" lon="6.3368">
        <ele>1396</ele>
        <time>2026-08-19T06:10:28.566Z</time>
      </trkpt>
      <trkpt lat="45.91223" lon="6.3368">
        <ele>1396</ele>
        <time>2026-08-19T06:10:29.566Z</time>
      </trkpt>
      <trkpt lat="45.91223" lon="6.33681">
        <ele>1396</ele>
        <time>2026-08-19T06:10:30.566Z</time>
      </trkpt>
      <trkpt lat="45.91224" lon="6.33681">
        <ele>1396</ele>
        <time>2026-08-19T06:10:31.566Z</time>
      </trkpt>
      <trkpt lat="45.91224" lon="6.33682">
        <ele>1396</ele>
        <time>2026-08-19T06:10:32.566Z</time>
      </trkpt>
      <trkpt lat="45.91224" lon="6.33682">
        <ele>1396</ele>
        <time>2026-08-19T06:10:33.566Z</time>
      </trkpt>
      <trkpt lat="45.91224" lon="6.33682">
        <ele>1397</ele>
        <time>2026-08-19T06:10:34.566Z</time>
      </trkpt>
      <trkpt lat="45.91225" lon="6.33682">
        <ele>1397</ele>
        <time>2026-08-19T06:10:35.566Z</time>
      </trkpt>
      <trkpt lat="45.91226" lon="6.33682">
        <ele>1397</ele>
        <time>2026-08-19T06:10:36.566Z</time>
      </trkpt>
      <trkpt lat="45.91226" lon="6.33682">
        <ele>1397</ele>
        <time>2026-08-19T06:10:37.566Z</time>
      </trkpt>
      <trkpt lat="45.91227" lon="6.33683">
        <ele>1398</ele>
        <time>2026-08-19T06:10:38.566Z</time>
      </trkpt>
      <trkpt lat="45.91227" lon="6.33683">
        <ele>1398</ele>
        <time>2026-08-19T06:10:39.566Z</time>
      </trkpt>
      <trkpt lat="45.91227" lon="6.33684">
        <ele>1398</ele>
        <time>2026-08-19T06:10:40.566Z</time>
      </trkpt>
      <trkpt lat="45.91228" lon="6.33685">
        <ele>1398</ele>
        <time>2026-08-19T06:10:41.566Z</time>
      </trkpt>
      <trkpt lat="45.91228" lon="6.33686">
        <ele>1398</ele>
        <time>2026-08-19T06:10:42.566Z</time>
      </trkpt>
      <trkpt lat="45.91228" lon="6.33686">
        <ele>1399</ele>
        <time>2026-08-19T06:10:43.566Z</time>
      </trkpt>
      <trkpt lat="45.91228" lon="6.33687">
        <ele>1399</ele>
        <time>2026-08-19T06:10:44.566Z</time>
      </trkpt>
      <trkpt lat="45.91229" lon="6.33688">
        <ele>1399</ele>
        <time>2026-08-19T06:10:45.566Z</time>
      </trkpt>
      <trkpt lat="45.9123" lon="6.33689">
        <ele>1398</ele>
        <time>2026-08-19T06:10:46.566Z</time>
      </trkpt>
      <trkpt lat="45.91232" lon="6.33689">
        <ele>1398</ele>
        <time>2026-08-19T06:10:47.566Z</time>
      </trkpt>
      <trkpt lat="45.91232" lon="6.33689">
        <ele>1398</ele>
        <time>2026-08-19T06:10:48.566Z</time>
      </trkpt>
      <trkpt lat="45.91232" lon="6.3369">
        <ele>1399</ele>
        <time>2026-08-19T06:10:49.566Z</time>
      </trkpt>
      <trkpt lat="45.91233" lon="6.33691">
        <ele>1399</ele>
        <time>2026-08-19T06:10:50.566Z</time>
      </trkpt>
      <trkpt lat="45.91234" lon="6.33691">
        <ele>1400</ele>
        <time>2026-08-19T06:10:51.566Z</time>
      </trkpt>
      <trkpt lat="45.91235" lon="6.33691">
        <ele>1401</ele>
        <time>2026-08-19T06:10:52.566Z</time>
      </trkpt>
      <trkpt lat="45.91236" lon="6.33692">
        <ele>1401</ele>
        <time>2026-08-19T06:10:53.566Z</time>
      </trkpt>
      <trkpt lat="45.91238" lon="6.33692">
        <ele>1402</ele>
        <time>2026-08-19T06:10:54.566Z</time>
      </trkpt>
      <trkpt lat="45.91238" lon="6.33692">
        <ele>1402</ele>
        <time>2026-08-19T06:10:55.566Z</time>
      </trkpt>
      <trkpt lat="45.91239" lon="6.33693">
        <ele>1403</ele>
        <time>2026-08-19T06:10:56.566Z</time>
      </trkpt>
      <trkpt lat="45.91239" lon="6.33693">
        <ele>1403</ele>
        <time>2026-08-19T06:10:57.566Z</time>
      </trkpt>
      <trkpt lat="45.9124" lon="6.33693">
        <ele>1403</ele>
        <time>2026-08-19T06:10:58.566Z</time>
      </trkpt>
      <trkpt lat="45.9124" lon="6.33693">
        <ele>1403</ele>
        <time>2026-08-19T06:10:59.566Z</time>
      </trkpt>
      <trkpt lat="45.91242" lon="6.33692">
        <ele>1403</ele>
        <time>2026-08-19T06:11:00.566Z</time>
      </trkpt>
      <trkpt lat="45.91243" lon="6.33692">
        <ele>1403</ele>
        <time>2026-08-19T06:11:01.566Z</time>
      </trkpt>
      <trkpt lat="45.91243" lon="6.33693">
        <ele>1402</ele>
        <time>2026-08-19T06:11:02.566Z</time>
      </trkpt>
      <trkpt lat="45.91244" lon="6.33694">
        <ele>1402</ele>
        <time>2026-08-19T06:11:03.566Z</time>
      </trkpt>
      <trkpt lat="45.91245" lon="6.33694">
        <ele>1402</ele>
        <time>2026-08-19T06:11:04.566Z</time>
      </trkpt>
      <trkpt lat="45.91246" lon="6.33695">
        <ele>1402</ele>
        <time>2026-08-19T06:11:05.566Z</time>
      </trkpt>
      <trkpt lat="45.91247" lon="6.33695">
        <ele>1402</ele>
        <time>2026-08-19T06:11:06.566Z</time>
      </trkpt>
      <trkpt lat="45.91249" lon="6.33695">
        <ele>1402</ele>
        <time>2026-08-19T06:11:07.566Z</time>
      </trkpt>
      <trkpt lat="45.91249" lon="6.33695">
        <ele>1402</ele>
        <time>2026-08-19T06:11:08.566Z</time>
      </trkpt>
      <trkpt lat="45.91249" lon="6.33696">
        <ele>1402</ele>
        <time>2026-08-19T06:11:09.566Z</time>
      </trkpt>
      <trkpt lat="45.9125" lon="6.33697">
        <ele>1402</ele>
        <time>2026-08-19T06:11:10.566Z</time>
      </trkpt>
      <trkpt lat="45.91251" lon="6.33698">
        <ele>1403</ele>
        <time>2026-08-19T06:11:11.566Z</time>
      </trkpt>
      <trkpt lat="45.91251" lon="6.33699">
        <ele>1403</ele>
        <time>2026-08-19T06:11:12.566Z</time>
      </trkpt>
      <trkpt lat="45.91251" lon="6.33699">
        <ele>1403</ele>
        <time>2026-08-19T06:11:13.566Z</time>
      </trkpt>
      <trkpt lat="45.91252" lon="6.337">
        <ele>1403</ele>
        <time>2026-08-19T06:11:14.566Z</time>
      </trkpt>
      <trkpt lat="45.91252" lon="6.337">
        <ele>1403</ele>
        <time>2026-08-19T06:11:15.566Z</time>
      </trkpt>
      <trkpt lat="45.91252" lon="6.33701">
        <ele>1403</ele>
        <time>2026-08-19T06:11:16.566Z</time>
      </trkpt>
      <trkpt lat="45.91252" lon="6.33702">
        <ele>1404</ele>
        <time>2026-08-19T06:11:17.566Z</time>
      </trkpt>
      <trkpt lat="45.91252" lon="6.33702">
        <ele>1404</ele>
        <time>2026-08-19T06:11:18.566Z</time>
      </trkpt>
      <trkpt lat="45.91252" lon="6.33702">
        <ele>1404</ele>
        <time>2026-08-19T06:11:19.566Z</time>
      </trkpt>
      <trkpt lat="45.91252" lon="6.33703">
        <ele>1404</ele>
        <time>2026-08-19T06:11:20.566Z</time>
      </trkpt>
      <trkpt lat="45.91252" lon="6.33703">
        <ele>1404</ele>
        <time>2026-08-19T06:11:21.566Z</time>
      </trkpt>
      <trkpt lat="45.91252" lon="6.33703">
        <ele>1404</ele>
        <time>2026-08-19T06:11:22.566Z</time>
      </trkpt>
      <trkpt lat="45.91252" lon="6.33703">
        <ele>1405</ele>
        <time>2026-08-19T06:11:23.567Z</time>
      </trkpt>
      <trkpt lat="45.91254" lon="6.33703">
        <ele>1405</ele>
        <time>2026-08-19T06:11:24.566Z</time>
      </trkpt>
      <trkpt lat="45.91254" lon="6.33703">
        <ele>1405</ele>
        <time>2026-08-19T06:11:25.566Z</time>
      </trkpt>
      <trkpt lat="45.91256" lon="6.33704">
        <ele>1405</ele>
        <time>2026-08-19T06:11:26.566Z</time>
      </trkpt>
      <trkpt lat="45.91256" lon="6.33703">
        <ele>1406</ele>
        <time>2026-08-19T06:11:27.566Z</time>
      </trkpt>
      <trkpt lat="45.91256" lon="6.33704">
        <ele>1406</ele>
        <time>2026-08-19T06:11:28.566Z</time>
      </trkpt>
      <trkpt lat="45.91256" lon="6.33704">
        <ele>1407</ele>
        <time>2026-08-19T06:11:29.566Z</time>
      </trkpt>
      <trkpt lat="45.91256" lon="6.33704">
        <ele>1407</ele>
        <time>2026-08-19T06:11:30.566Z</time>
      </trkpt>
      <trkpt lat="45.91257" lon="6.33704">
        <ele>1407</ele>
        <time>2026-08-19T06:11:31.566Z</time>
      </trkpt>
      <trkpt lat="45.91257" lon="6.33704">
        <ele>1407</ele>
        <time>2026-08-19T06:11:32.566Z</time>
      </trkpt>
      <trkpt lat="45.91259" lon="6.33704">
        <ele>1408</ele>
        <time>2026-08-19T06:11:33.566Z</time>
      </trkpt>
      <trkpt lat="45.9126" lon="6.33705">
        <ele>1408</ele>
        <time>2026-08-19T06:11:34.566Z</time>
      </trkpt>
      <trkpt lat="45.91262" lon="6.33705">
        <ele>1408</ele>
        <time>2026-08-19T06:11:35.566Z</time>
      </trkpt>
      <trkpt lat="45.91262" lon="6.33705">
        <ele>1409</ele>
        <time>2026-08-19T06:11:36.566Z</time>
      </trkpt>
      <trkpt lat="45.91263" lon="6.33705">
        <ele>1409</ele>
        <time>2026-08-19T06:11:37.566Z</time>
      </trkpt>
      <trkpt lat="45.91264" lon="6.33705">
        <ele>1410</ele>
        <time>2026-08-19T06:11:38.567Z</time>
      </trkpt>
      <trkpt lat="45.91265" lon="6.33705">
        <ele>1410</ele>
        <time>2026-08-19T06:11:39.566Z</time>
      </trkpt>
      <trkpt lat="45.91266" lon="6.33704">
        <ele>1410</ele>
        <time>2026-08-19T06:11:40.566Z</time>
      </trkpt>
      <trkpt lat="45.91267" lon="6.33704">
        <ele>1411</ele>
        <time>2026-08-19T06:11:41.566Z</time>
      </trkpt>
      <trkpt lat="45.91268" lon="6.33704">
        <ele>1411</ele>
        <time>2026-08-19T06:11:42.566Z</time>
      </trkpt>
      <trkpt lat="45.91268" lon="6.33704">
        <ele>1412</ele>
        <time>2026-08-19T06:11:43.566Z</time>
      </trkpt>
      <trkpt lat="45.91268" lon="6.33704">
        <ele>1412</ele>
        <time>2026-08-19T06:11:44.566Z</time>
      </trkpt>
      <trkpt lat="45.91268" lon="6.33703">
        <ele>1413</ele>
        <time>2026-08-19T06:11:45.566Z</time>
      </trkpt>
      <trkpt lat="45.91268" lon="6.33703">
        <ele>1413</ele>
        <time>2026-08-19T06:11:46.566Z</time>
      </trkpt>
      <trkpt lat="45.91268" lon="6.33704">
        <ele>1414</ele>
        <time>2026-08-19T06:11:47.566Z</time>
      </trkpt>
      <trkpt lat="45.91268" lon="6.33704">
        <ele>1414</ele>
        <time>2026-08-19T06:11:48.566Z</time>
      </trkpt>
      <trkpt lat="45.91268" lon="6.33703">
        <ele>1414</ele>
        <time>2026-08-19T06:11:49.566Z</time>
      </trkpt>
      <trkpt lat="45.91268" lon="6.33702">
        <ele>1414</ele>
        <time>2026-08-19T06:11:50.566Z</time>
      </trkpt>
      <trkpt lat="45.91268" lon="6.33701">
        <ele>1415</ele>
        <time>2026-08-19T06:11:51.566Z</time>
      </trkpt>
      <trkpt lat="45.91268" lon="6.33701">
        <ele>1415</ele>
        <time>2026-08-19T06:11:52.566Z</time>
      </trkpt>
      <trkpt lat="45.91268" lon="6.33701">
        <ele>1415</ele>
        <time>2026-08-19T06:11:53.566Z</time>
      </trkpt>
      <trkpt lat="45.91268" lon="6.337">
        <ele>1415</ele>
        <time>2026-08-19T06:11:54.566Z</time>
      </trkpt>
      <trkpt lat="45.91268" lon="6.337">
        <ele>1415</ele>
        <time>2026-08-19T06:11:55.566Z</time>
      </trkpt>
      <trkpt lat="45.91268" lon="6.33699">
        <ele>1415</ele>
        <time>2026-08-19T06:11:56.566Z</time>
      </trkpt>
      <trkpt lat="45.91268" lon="6.33699">
        <ele>1415</ele>
        <time>2026-08-19T06:11:57.566Z</time>
      </trkpt>
      <trkpt lat="45.91268" lon="6.33698">
        <ele>1415</ele>
        <time>2026-08-19T06:11:58.566Z</time>
      </trkpt>
      <trkpt lat="45.91268" lon="6.33697">
        <ele>1416</ele>
        <time>2026-08-19T06:11:59.566Z</time>
      </trkpt>
      <trkpt lat="45.91268" lon="6.33696">
        <ele>1416</ele>
        <time>2026-08-19T06:12:00.566Z</time>
      </trkpt>
      <trkpt lat="45.91269" lon="6.33696">
        <ele>1416</ele>
        <time>2026-08-19T06:12:01.566Z</time>
      </trkpt>
      <trkpt lat="45.91269" lon="6.33696">
        <ele>1417</ele>
        <time>2026-08-19T06:12:02.566Z</time>
      </trkpt>
      <trkpt lat="45.91269" lon="6.33696">
        <ele>1417</ele>
        <time>2026-08-19T06:12:03.566Z</time>
      </trkpt>
      <trkpt lat="45.9127" lon="6.33695">
        <ele>1417</ele>
        <time>2026-08-19T06:12:04.567Z</time>
      </trkpt>
      <trkpt lat="45.9127" lon="6.33695">
        <ele>1417</ele>
        <time>2026-08-19T06:12:05.566Z</time>
      </trkpt>
      <trkpt lat="45.91271" lon="6.33695">
        <ele>1418</ele>
        <time>2026-08-19T06:12:06.566Z</time>
      </trkpt>
      <trkpt lat="45.91271" lon="6.33695">
        <ele>1418</ele>
        <time>2026-08-19T06:12:07.566Z</time>
      </trkpt>
      <trkpt lat="45.91271" lon="6.33696">
        <ele>1418</ele>
        <time>2026-08-19T06:12:08.566Z</time>
      </trkpt>
      <trkpt lat="45.91271" lon="6.33696">
        <ele>1418</ele>
        <time>2026-08-19T06:12:09.566Z</time>
      </trkpt>
      <trkpt lat="45.91271" lon="6.33696">
        <ele>1418</ele>
        <time>2026-08-19T06:12:10.566Z</time>
      </trkpt>
      <trkpt lat="45.91272" lon="6.33696">
        <ele>1418</ele>
        <time>2026-08-19T06:12:11.566Z</time>
      </trkpt>
      <trkpt lat="45.91272" lon="6.33697">
        <ele>1419</ele>
        <time>2026-08-19T06:12:12.566Z</time>
      </trkpt>
      <trkpt lat="45.91273" lon="6.33697">
        <ele>1419</ele>
        <time>2026-08-19T06:12:13.566Z</time>
      </trkpt>
      <trkpt lat="45.91273" lon="6.33697">
        <ele>1420</ele>
        <time>2026-08-19T06:12:14.566Z</time>
      </trkpt>
      <trkpt lat="45.91274" lon="6.33697">
        <ele>1420</ele>
        <time>2026-08-19T06:12:15.566Z</time>
      </trkpt>
      <trkpt lat="45.91275" lon="6.33697">
        <ele>1421</ele>
        <time>2026-08-19T06:12:16.566Z</time>
      </trkpt>
      <trkpt lat="45.91276" lon="6.33696">
        <ele>1422</ele>
        <time>2026-08-19T06:12:17.566Z</time>
      </trkpt>
      <trkpt lat="45.91276" lon="6.33697">
        <ele>1423</ele>
        <time>2026-08-19T06:12:18.566Z</time>
      </trkpt>
      <trkpt lat="45.91277" lon="6.33697">
        <ele>1423</ele>
        <time>2026-08-19T06:12:19.566Z</time>
      </trkpt>
      <trkpt lat="45.91278" lon="6.33697">
        <ele>1424</ele>
        <time>2026-08-19T06:12:20.566Z</time>
      </trkpt>
      <trkpt lat="45.9128" lon="6.33698">
        <ele>1424</ele>
        <time>2026-08-19T06:12:21.566Z</time>
      </trkpt>
      <trkpt lat="45.91281" lon="6.33698">
        <ele>1424</ele>
        <time>2026-08-19T06:12:22.566Z</time>
      </trkpt>
      <trkpt lat="45.91283" lon="6.33697">
        <ele>1424</ele>
        <time>2026-08-19T06:12:23.566Z</time>
      </trkpt>
      <trkpt lat="45.91284" lon="6.33698">
        <ele>1424</ele>
        <time>2026-08-19T06:12:24.566Z</time>
      </trkpt>
      <trkpt lat="45.91285" lon="6.33697">
        <ele>1425</ele>
        <time>2026-08-19T06:12:25.566Z</time>
      </trkpt>
      <trkpt lat="45.91285" lon="6.33697">
        <ele>1425</ele>
        <time>2026-08-19T06:12:26.566Z</time>
      </trkpt>
      <trkpt lat="45.91285" lon="6.33698">
        <ele>1425</ele>
        <time>2026-08-19T06:12:27.566Z</time>
      </trkpt>
      <trkpt lat="45.91286" lon="6.33698">
        <ele>1425</ele>
        <time>2026-08-19T06:12:28.566Z</time>
      </trkpt>
      <trkpt lat="45.91286" lon="6.33699">
        <ele>1426</ele>
        <time>2026-08-19T06:12:29.566Z</time>
      </trkpt>
      <trkpt lat="45.91286" lon="6.33699">
        <ele>1426</ele>
        <time>2026-08-19T06:12:30.566Z</time>
      </trkpt>
      <trkpt lat="45.91287" lon="6.33699">
        <ele>1426</ele>
        <time>2026-08-19T06:12:31.566Z</time>
      </trkpt>
      <trkpt lat="45.91287" lon="6.337">
        <ele>1426</ele>
        <time>2026-08-19T06:12:32.566Z</time>
      </trkpt>
      <trkpt lat="45.91288" lon="6.337">
        <ele>1427</ele>
        <time>2026-08-19T06:12:33.566Z</time>
      </trkpt>
      <trkpt lat="45.91288" lon="6.337">
        <ele>1427</ele>
        <time>2026-08-19T06:12:34.566Z</time>
      </trkpt>
      <trkpt lat="45.91289" lon="6.337">
        <ele>1427</ele>
        <time>2026-08-19T06:12:35.567Z</time>
      </trkpt>
      <trkpt lat="45.9129" lon="6.337">
        <ele>1426</ele>
        <time>2026-08-19T06:12:36.566Z</time>
      </trkpt>
      <trkpt lat="45.91291" lon="6.337">
        <ele>1426</ele>
        <time>2026-08-19T06:12:37.566Z</time>
      </trkpt>
      <trkpt lat="45.91291" lon="6.337">
        <ele>1426</ele>
        <time>2026-08-19T06:12:38.566Z</time>
      </trkpt>
      <trkpt lat="45.91292" lon="6.337">
        <ele>1426</ele>
        <time>2026-08-19T06:12:39.566Z</time>
      </trkpt>
      <trkpt lat="45.91292" lon="6.33701">
        <ele>1427</ele>
        <time>2026-08-19T06:12:40.566Z</time>
      </trkpt>
      <trkpt lat="45.91292" lon="6.33701">
        <ele>1427</ele>
        <time>2026-08-19T06:12:41.566Z</time>
      </trkpt>
      <trkpt lat="45.91291" lon="6.33701">
        <ele>1428</ele>
        <time>2026-08-19T06:12:42.566Z</time>
      </trkpt>
      <trkpt lat="45.91291" lon="6.33701">
        <ele>1428</ele>
        <time>2026-08-19T06:12:43.566Z</time>
      </trkpt>
      <trkpt lat="45.91291" lon="6.33701">
        <ele>1429</ele>
        <time>2026-08-19T06:12:44.566Z</time>
      </trkpt>
      <trkpt lat="45.91292" lon="6.33701">
        <ele>1429</ele>
        <time>2026-08-19T06:12:45.566Z</time>
      </trkpt>
      <trkpt lat="45.91292" lon="6.33701">
        <ele>1430</ele>
        <time>2026-08-19T06:12:46.566Z</time>
      </trkpt>
      <trkpt lat="45.91292" lon="6.337">
        <ele>1430</ele>
        <time>2026-08-19T06:12:47.566Z</time>
      </trkpt>
      <trkpt lat="45.91292" lon="6.337">
        <ele>1430</ele>
        <time>2026-08-19T06:12:48.566Z</time>
      </trkpt>
      <trkpt lat="45.91292" lon="6.33699">
        <ele>1429</ele>
        <time>2026-08-19T06:12:49.566Z</time>
      </trkpt>
      <trkpt lat="45.91292" lon="6.33698">
        <ele>1429</ele>
        <time>2026-08-19T06:12:50.566Z</time>
      </trkpt>
      <trkpt lat="45.91292" lon="6.33698">
        <ele>1429</ele>
        <time>2026-08-19T06:12:51.566Z</time>
      </trkpt>
      <trkpt lat="45.91292" lon="6.33697">
        <ele>1429</ele>
        <time>2026-08-19T06:12:52.566Z</time>
      </trkpt>
      <trkpt lat="45.91292" lon="6.33696">
        <ele>1429</ele>
        <time>2026-08-19T06:12:53.566Z</time>
      </trkpt>
      <trkpt lat="45.91292" lon="6.33696">
        <ele>1429</ele>
        <time>2026-08-19T06:12:54.566Z</time>
      </trkpt>
      <trkpt lat="45.91292" lon="6.33695">
        <ele>1429</ele>
        <time>2026-08-19T06:12:55.566Z</time>
      </trkpt>
      <trkpt lat="45.91292" lon="6.33695">
        <ele>1429</ele>
        <time>2026-08-19T06:12:56.566Z</time>
      </trkpt>
      <trkpt lat="45.91292" lon="6.33694">
        <ele>1429</ele>
        <time>2026-08-19T06:12:57.566Z</time>
      </trkpt>
      <trkpt lat="45.91291" lon="6.33693">
        <ele>1429</ele>
        <time>2026-08-19T06:12:58.566Z</time>
      </trkpt>
      <trkpt lat="45.91291" lon="6.33693">
        <ele>1430</ele>
        <time>2026-08-19T06:12:59.566Z</time>
      </trkpt>
      <trkpt lat="45.91291" lon="6.33692">
        <ele>1430</ele>
        <time>2026-08-19T06:13:00.566Z</time>
      </trkpt>
      <trkpt lat="45.9129" lon="6.33692">
        <ele>1430</ele>
        <time>2026-08-19T06:13:01.566Z</time>
      </trkpt>
      <trkpt lat="45.9129" lon="6.3369">
        <ele>1430</ele>
        <time>2026-08-19T06:13:02.566Z</time>
      </trkpt>
      <trkpt lat="45.9129" lon="6.3369">
        <ele>1430</ele>
        <time>2026-08-19T06:13:03.566Z</time>
      </trkpt>
      <trkpt lat="45.9129" lon="6.33689">
        <ele>1430</ele>
        <time>2026-08-19T06:13:04.566Z</time>
      </trkpt>
      <trkpt lat="45.9129" lon="6.33687">
        <ele>1430</ele>
        <time>2026-08-19T06:13:05.566Z</time>
      </trkpt>
      <trkpt lat="45.9129" lon="6.33686">
        <ele>1430</ele>
        <time>2026-08-19T06:13:06.566Z</time>
      </trkpt>
      <trkpt lat="45.9129" lon="6.33685">
        <ele>1430</ele>
        <time>2026-08-19T06:13:07.566Z</time>
      </trkpt>
      <trkpt lat="45.9129" lon="6.33684">
        <ele>1430</ele>
        <time>2026-08-19T06:13:08.566Z</time>
      </trkpt>
      <trkpt lat="45.9129" lon="6.33683">
        <ele>1431</ele>
        <time>2026-08-19T06:13:09.566Z</time>
      </trkpt>
      <trkpt lat="45.9129" lon="6.33682">
        <ele>1431</ele>
        <time>2026-08-19T06:13:10.566Z</time>
      </trkpt>
      <trkpt lat="45.9129" lon="6.33682">
        <ele>1431</ele>
        <time>2026-08-19T06:13:11.566Z</time>
      </trkpt>
      <trkpt lat="45.91289" lon="6.33681">
        <ele>1432</ele>
        <time>2026-08-19T06:13:12.566Z</time>
      </trkpt>
      <trkpt lat="45.91289" lon="6.33681">
        <ele>1432</ele>
        <time>2026-08-19T06:13:13.566Z</time>
      </trkpt>
      <trkpt lat="45.91289" lon="6.33681">
        <ele>1432</ele>
        <time>2026-08-19T06:13:14.566Z</time>
      </trkpt>
      <trkpt lat="45.91288" lon="6.33681">
        <ele>1433</ele>
        <time>2026-08-19T06:13:15.566Z</time>
      </trkpt>
      <trkpt lat="45.91288" lon="6.3368">
        <ele>1433</ele>
        <time>2026-08-19T06:13:16.566Z</time>
      </trkpt>
      <trkpt lat="45.91287" lon="6.3368">
        <ele>1434</ele>
        <time>2026-08-19T06:13:17.566Z</time>
      </trkpt>
      <trkpt lat="45.91287" lon="6.3368">
        <ele>1434</ele>
        <time>2026-08-19T06:13:18.566Z</time>
      </trkpt>
      <trkpt lat="45.91286" lon="6.33679">
        <ele>1434</ele>
        <time>2026-08-19T06:13:19.566Z</time>
      </trkpt>
      <trkpt lat="45.91286" lon="6.33678">
        <ele>1435</ele>
        <time>2026-08-19T06:13:20.566Z</time>
      </trkpt>
      <trkpt lat="45.91285" lon="6.33678">
        <ele>1435</ele>
        <time>2026-08-19T06:13:21.566Z</time>
      </trkpt>
      <trkpt lat="45.91285" lon="6.33677">
        <ele>1436</ele>
        <time>2026-08-19T06:13:22.566Z</time>
      </trkpt>
      <trkpt lat="45.91285" lon="6.33677">
        <ele>1435</ele>
        <time>2026-08-19T06:13:23.566Z</time>
      </trkpt>
      <trkpt lat="45.91284" lon="6.33676">
        <ele>1435</ele>
        <time>2026-08-19T06:13:24.566Z</time>
      </trkpt>
      <trkpt lat="45.91284" lon="6.33675">
        <ele>1435</ele>
        <time>2026-08-19T06:13:25.566Z</time>
      </trkpt>
      <trkpt lat="45.91284" lon="6.33675">
        <ele>1435</ele>
        <time>2026-08-19T06:13:26.566Z</time>
      </trkpt>
      <trkpt lat="45.91283" lon="6.33674">
        <ele>1435</ele>
        <time>2026-08-19T06:13:27.566Z</time>
      </trkpt>
      <trkpt lat="45.91283" lon="6.33674">
        <ele>1435</ele>
        <time>2026-08-19T06:13:28.566Z</time>
      </trkpt>
      <trkpt lat="45.91283" lon="6.33673">
        <ele>1435</ele>
        <time>2026-08-19T06:13:29.566Z</time>
      </trkpt>
      <trkpt lat="45.91283" lon="6.33673">
        <ele>1435</ele>
        <time>2026-08-19T06:13:30.566Z</time>
      </trkpt>
      <trkpt lat="45.91282" lon="6.33672">
        <ele>1435</ele>
        <time>2026-08-19T06:13:31.566Z</time>
      </trkpt>
      <trkpt lat="45.91282" lon="6.33671">
        <ele>1435</ele>
        <time>2026-08-19T06:13:32.566Z</time>
      </trkpt>
      <trkpt lat="45.91281" lon="6.3367">
        <ele>1436</ele>
        <time>2026-08-19T06:13:33.566Z</time>
      </trkpt>
      <trkpt lat="45.91281" lon="6.3367">
        <ele>1436</ele>
        <time>2026-08-19T06:13:34.566Z</time>
      </trkpt>
      <trkpt lat="45.9128" lon="6.33669">
        <ele>1437</ele>
        <time>2026-08-19T06:13:35.566Z</time>
      </trkpt>
      <trkpt lat="45.91279" lon="6.33669">
        <ele>1437</ele>
        <time>2026-08-19T06:13:36.566Z</time>
      </trkpt>
      <trkpt lat="45.91279" lon="6.33669">
        <ele>1437</ele>
        <time>2026-08-19T06:13:37.566Z</time>
      </trkpt>
      <trkpt lat="45.91278" lon="6.33668">
        <ele>1437</ele>
        <time>2026-08-19T06:13:38.566Z</time>
      </trkpt>
      <trkpt lat="45.91278" lon="6.33668">
        <ele>1437</ele>
        <time>2026-08-19T06:13:39.566Z</time>
      </trkpt>
      <trkpt lat="45.91277" lon="6.33668">
        <ele>1438</ele>
        <time>2026-08-19T06:13:40.566Z</time>
      </trkpt>
      <trkpt lat="45.91277" lon="6.33669">
        <ele>1438</ele>
        <time>2026-08-19T06:13:41.566Z</time>
      </trkpt>
      <trkpt lat="45.91277" lon="6.33669">
        <ele>1438</ele>
        <time>2026-08-19T06:13:42.566Z</time>
      </trkpt>
      <trkpt lat="45.91277" lon="6.33669">
        <ele>1438</ele>
        <time>2026-08-19T06:13:43.566Z</time>
      </trkpt>
      <trkpt lat="45.91277" lon="6.33669">
        <ele>1439</ele>
        <time>2026-08-19T06:13:44.566Z</time>
      </trkpt>
      <trkpt lat="45.91276" lon="6.3367">
        <ele>1439</ele>
        <time>2026-08-19T06:13:45.566Z</time>
      </trkpt>
      <trkpt lat="45.91276" lon="6.33671">
        <ele>1440</ele>
        <time>2026-08-19T06:13:46.566Z</time>
      </trkpt>
      <trkpt lat="45.91276" lon="6.33671">
        <ele>1440</ele>
        <time>2026-08-19T06:13:47.566Z</time>
      </trkpt>
      <trkpt lat="45.91276" lon="6.3367">
        <ele>1441</ele>
        <time>2026-08-19T06:13:48.566Z</time>
      </trkpt>
      <trkpt lat="45.91276" lon="6.3367">
        <ele>1441</ele>
        <time>2026-08-19T06:13:49.566Z</time>
      </trkpt>
      <trkpt lat="45.91277" lon="6.33669">
        <ele>1442</ele>
        <time>2026-08-19T06:13:50.566Z</time>
      </trkpt>
      <trkpt lat="45.91277" lon="6.33668">
        <ele>1442</ele>
        <time>2026-08-19T06:13:51.566Z</time>
      </trkpt>
      <trkpt lat="45.91278" lon="6.33667">
        <ele>1443</ele>
        <time>2026-08-19T06:13:52.566Z</time>
      </trkpt>
      <trkpt lat="45.91278" lon="6.33665">
        <ele>1443</ele>
        <time>2026-08-19T06:13:53.566Z</time>
      </trkpt>
      <trkpt lat="45.91279" lon="6.33664">
        <ele>1443</ele>
        <time>2026-08-19T06:13:54.566Z</time>
      </trkpt>
      <trkpt lat="45.91279" lon="6.33662">
        <ele>1443</ele>
        <time>2026-08-19T06:13:55.566Z</time>
      </trkpt>
      <trkpt lat="45.9128" lon="6.33661">
        <ele>1444</ele>
        <time>2026-08-19T06:13:56.566Z</time>
      </trkpt>
      <trkpt lat="45.91282" lon="6.33661">
        <ele>1444</ele>
        <time>2026-08-19T06:13:57.566Z</time>
      </trkpt>
      <trkpt lat="45.91282" lon="6.33661">
        <ele>1444</ele>
        <time>2026-08-19T06:13:58.566Z</time>
      </trkpt>
      <trkpt lat="45.91283" lon="6.33661">
        <ele>1444</ele>
        <time>2026-08-19T06:13:59.566Z</time>
      </trkpt>
      <trkpt lat="45.91283" lon="6.33661">
        <ele>1444</ele>
        <time>2026-08-19T06:14:00.566Z</time>
      </trkpt>
      <trkpt lat="45.91283" lon="6.33662">
        <ele>1444</ele>
        <time>2026-08-19T06:14:01.566Z</time>
      </trkpt>
      <trkpt lat="45.91283" lon="6.33662">
        <ele>1444</ele>
        <time>2026-08-19T06:14:02.566Z</time>
      </trkpt>
      <trkpt lat="45.91284" lon="6.33663">
        <ele>1444</ele>
        <time>2026-08-19T06:14:03.566Z</time>
      </trkpt>
      <trkpt lat="45.91284" lon="6.33663">
        <ele>1444</ele>
        <time>2026-08-19T06:14:04.566Z</time>
      </trkpt>
      <trkpt lat="45.91284" lon="6.33663">
        <ele>1444</ele>
        <time>2026-08-19T06:14:05.566Z</time>
      </trkpt>
      <trkpt lat="45.91284" lon="6.33664">
        <ele>1444</ele>
        <time>2026-08-19T06:14:06.566Z</time>
      </trkpt>
      <trkpt lat="45.91285" lon="6.33664">
        <ele>1444</ele>
        <time>2026-08-19T06:14:07.566Z</time>
      </trkpt>
      <trkpt lat="45.91285" lon="6.33664">
        <ele>1445</ele>
        <time>2026-08-19T06:14:08.566Z</time>
      </trkpt>
      <trkpt lat="45.91285" lon="6.33664">
        <ele>1445</ele>
        <time>2026-08-19T06:14:09.566Z</time>
      </trkpt>
      <trkpt lat="45.91286" lon="6.33664">
        <ele>1446</ele>
        <time>2026-08-19T06:14:10.566Z</time>
      </trkpt>
      <trkpt lat="45.91286" lon="6.33664">
        <ele>1446</ele>
        <time>2026-08-19T06:14:11.566Z</time>
      </trkpt>
      <trkpt lat="45.91286" lon="6.33663">
        <ele>1446</ele>
        <time>2026-08-19T06:14:12.566Z</time>
      </trkpt>
      <trkpt lat="45.91286" lon="6.33663">
        <ele>1447</ele>
        <time>2026-08-19T06:14:13.566Z</time>
      </trkpt>
      <trkpt lat="45.91287" lon="6.33662">
        <ele>1447</ele>
        <time>2026-08-19T06:14:14.566Z</time>
      </trkpt>
      <trkpt lat="45.91287" lon="6.33661">
        <ele>1446</ele>
        <time>2026-08-19T06:14:15.566Z</time>
      </trkpt>
      <trkpt lat="45.91287" lon="6.33661">
        <ele>1446</ele>
        <time>2026-08-19T06:14:16.566Z</time>
      </trkpt>
      <trkpt lat="45.91286" lon="6.3366">
        <ele>1446</ele>
        <time>2026-08-19T06:14:17.566Z</time>
      </trkpt>
      <trkpt lat="45.91286" lon="6.3366">
        <ele>1446</ele>
        <time>2026-08-19T06:14:18.566Z</time>
      </trkpt>
      <trkpt lat="45.91286" lon="6.33659">
        <ele>1446</ele>
        <time>2026-08-19T06:14:19.566Z</time>
      </trkpt>
      <trkpt lat="45.91285" lon="6.33658">
        <ele>1446</ele>
        <time>2026-08-19T06:14:20.566Z</time>
      </trkpt>
      <trkpt lat="45.91285" lon="6.33657">
        <ele>1446</ele>
        <time>2026-08-19T06:14:21.566Z</time>
      </trkpt>
      <trkpt lat="45.91285" lon="6.33656">
        <ele>1446</ele>
        <time>2026-08-19T06:14:22.566Z</time>
      </trkpt>
      <trkpt lat="45.91284" lon="6.33655">
        <ele>1447</ele>
        <time>2026-08-19T06:14:23.566Z</time>
      </trkpt>
      <trkpt lat="45.91284" lon="6.33654">
        <ele>1447</ele>
        <time>2026-08-19T06:14:24.566Z</time>
      </trkpt>
      <trkpt lat="45.91284" lon="6.33653">
        <ele>1447</ele>
        <time>2026-08-19T06:14:25.566Z</time>
      </trkpt>
      <trkpt lat="45.91283" lon="6.33653">
        <ele>1447</ele>
        <time>2026-08-19T06:14:26.566Z</time>
      </trkpt>
      <trkpt lat="45.91283" lon="6.33652">
        <ele>1447</ele>
        <time>2026-08-19T06:14:27.566Z</time>
      </trkpt>
      <trkpt lat="45.91283" lon="6.33651">
        <ele>1447</ele>
        <time>2026-08-19T06:14:28.566Z</time>
      </trkpt>
      <trkpt lat="45.91283" lon="6.33651">
        <ele>1447</ele>
        <time>2026-08-19T06:14:29.566Z</time>
      </trkpt>
      <trkpt lat="45.91282" lon="6.3365">
        <ele>1447</ele>
        <time>2026-08-19T06:14:30.566Z</time>
      </trkpt>
      <trkpt lat="45.91282" lon="6.3365">
        <ele>1448</ele>
        <time>2026-08-19T06:14:31.566Z</time>
      </trkpt>
      <trkpt lat="45.91281" lon="6.3365">
        <ele>1448</ele>
        <time>2026-08-19T06:14:32.566Z</time>
      </trkpt>
      <trkpt lat="45.91281" lon="6.33649">
        <ele>1449</ele>
        <time>2026-08-19T06:14:33.566Z</time>
      </trkpt>
      <trkpt lat="45.91281" lon="6.33649">
        <ele>1449</ele>
        <time>2026-08-19T06:14:34.566Z</time>
      </trkpt>
      <trkpt lat="45.9128" lon="6.33648">
        <ele>1449</ele>
        <time>2026-08-19T06:14:35.566Z</time>
      </trkpt>
      <trkpt lat="45.9128" lon="6.33647">
        <ele>1450</ele>
        <time>2026-08-19T06:14:36.566Z</time>
      </trkpt>
      <trkpt lat="45.9128" lon="6.33645">
        <ele>1450</ele>
        <time>2026-08-19T06:14:37.566Z</time>
      </trkpt>
      <trkpt lat="45.91279" lon="6.33644">
        <ele>1450</ele>
        <time>2026-08-19T06:14:38.566Z</time>
      </trkpt>
      <trkpt lat="45.91279" lon="6.33643">
        <ele>1450</ele>
        <time>2026-08-19T06:14:39.566Z</time>
      </trkpt>
      <trkpt lat="45.91278" lon="6.33642">
        <ele>1450</ele>
        <time>2026-08-19T06:14:40.566Z</time>
      </trkpt>
      <trkpt lat="45.91277" lon="6.33642">
        <ele>1450</ele>
        <time>2026-08-19T06:14:41.566Z</time>
      </trkpt>
      <trkpt lat="45.91277" lon="6.33641">
        <ele>1450</ele>
        <time>2026-08-19T06:14:42.566Z</time>
      </trkpt>
      <trkpt lat="45.91277" lon="6.33641">
        <ele>1450</ele>
        <time>2026-08-19T06:14:43.566Z</time>
      </trkpt>
      <trkpt lat="45.91276" lon="6.3364">
        <ele>1450</ele>
        <time>2026-08-19T06:14:44.566Z</time>
      </trkpt>
      <trkpt lat="45.91276" lon="6.3364">
        <ele>1450</ele>
        <time>2026-08-19T06:14:45.566Z</time>
      </trkpt>
      <trkpt lat="45.91276" lon="6.3364">
        <ele>1450</ele>
        <time>2026-08-19T06:14:46.566Z</time>
      </trkpt>
      <trkpt lat="45.91275" lon="6.3364">
        <ele>1450</ele>
        <time>2026-08-19T06:14:47.566Z</time>
      </trkpt>
      <trkpt lat="45.91275" lon="6.33639">
        <ele>1451</ele>
        <time>2026-08-19T06:14:48.566Z</time>
      </trkpt>
      <trkpt lat="45.91275" lon="6.33637">
        <ele>1451</ele>
        <time>2026-08-19T06:14:49.566Z</time>
      </trkpt>
      <trkpt lat="45.91275" lon="6.33636">
        <ele>1451</ele>
        <time>2026-08-19T06:14:50.566Z</time>
      </trkpt>
      <trkpt lat="45.91276" lon="6.33635">
        <ele>1451</ele>
        <time>2026-08-19T06:14:51.566Z</time>
      </trkpt>
      <trkpt lat="45.91276" lon="6.33634">
        <ele>1451</ele>
        <time>2026-08-19T06:14:52.566Z</time>
      </trkpt>
      <trkpt lat="45.91277" lon="6.33634">
        <ele>1452</ele>
        <time>2026-08-19T06:14:53.566Z</time>
      </trkpt>
      <trkpt lat="45.91278" lon="6.33634">
        <ele>1452</ele>
        <time>2026-08-19T06:14:54.566Z</time>
      </trkpt>
      <trkpt lat="45.91278" lon="6.33633">
        <ele>1452</ele>
        <time>2026-08-19T06:14:55.566Z</time>
      </trkpt>
      <trkpt lat="45.91278" lon="6.33633">
        <ele>1453</ele>
        <time>2026-08-19T06:14:56.566Z</time>
      </trkpt>
      <trkpt lat="45.91278" lon="6.33632">
        <ele>1453</ele>
        <time>2026-08-19T06:14:57.566Z</time>
      </trkpt>
      <trkpt lat="45.91278" lon="6.33632">
        <ele>1453</ele>
        <time>2026-08-19T06:14:58.566Z</time>
      </trkpt>
      <trkpt lat="45.91279" lon="6.33632">
        <ele>1453</ele>
        <time>2026-08-19T06:14:59.566Z</time>
      </trkpt>
      <trkpt lat="45.91279" lon="6.33632">
        <ele>1453</ele>
        <time>2026-08-19T06:15:00.566Z</time>
      </trkpt>
      <trkpt lat="45.9128" lon="6.33631">
        <ele>1454</ele>
        <time>2026-08-19T06:15:01.566Z</time>
      </trkpt>
      <trkpt lat="45.9128" lon="6.33631">
        <ele>1454</ele>
        <time>2026-08-19T06:15:02.566Z</time>
      </trkpt>
      <trkpt lat="45.91281" lon="6.33632">
        <ele>1454</ele>
        <time>2026-08-19T06:15:03.566Z</time>
      </trkpt>
      <trkpt lat="45.91281" lon="6.33632">
        <ele>1454</ele>
        <time>2026-08-19T06:15:04.566Z</time>
      </trkpt>
      <trkpt lat="45.91282" lon="6.33632">
        <ele>1455</ele>
        <time>2026-08-19T06:15:05.566Z</time>
      </trkpt>
      <trkpt lat="45.91282" lon="6.33633">
        <ele>1455</ele>
        <time>2026-08-19T06:15:06.566Z</time>
      </trkpt>
      <trkpt lat="45.91283" lon="6.33633">
        <ele>1455</ele>
        <time>2026-08-19T06:15:07.566Z</time>
      </trkpt>
      <trkpt lat="45.91284" lon="6.33633">
        <ele>1456</ele>
        <time>2026-08-19T06:15:08.566Z</time>
      </trkpt>
      <trkpt lat="45.91285" lon="6.33633">
        <ele>1457</ele>
        <time>2026-08-19T06:15:09.566Z</time>
      </trkpt>
      <trkpt lat="45.91285" lon="6.33634">
        <ele>1457</ele>
        <time>2026-08-19T06:15:10.566Z</time>
      </trkpt>
      <trkpt lat="45.91286" lon="6.33634">
        <ele>1458</ele>
        <time>2026-08-19T06:15:11.566Z</time>
      </trkpt>
      <trkpt lat="45.91287" lon="6.33634">
        <ele>1459</ele>
        <time>2026-08-19T06:15:12.566Z</time>
      </trkpt>
      <trkpt lat="45.91287" lon="6.33634">
        <ele>1459</ele>
        <time>2026-08-19T06:15:13.566Z</time>
      </trkpt>
      <trkpt lat="45.91287" lon="6.33634">
        <ele>1460</ele>
        <time>2026-08-19T06:15:14.566Z</time>
      </trkpt>
      <trkpt lat="45.91287" lon="6.33634">
        <ele>1460</ele>
        <time>2026-08-19T06:15:15.566Z</time>
      </trkpt>
      <trkpt lat="45.91288" lon="6.33634">
        <ele>1461</ele>
        <time>2026-08-19T06:15:16.566Z</time>
      </trkpt>
      <trkpt lat="45.91288" lon="6.33635">
        <ele>1461</ele>
        <time>2026-08-19T06:15:17.566Z</time>
      </trkpt>
      <trkpt lat="45.91289" lon="6.33635">
        <ele>1462</ele>
        <time>2026-08-19T06:15:18.566Z</time>
      </trkpt>
      <trkpt lat="45.91289" lon="6.33636">
        <ele>1462</ele>
        <time>2026-08-19T06:15:19.566Z</time>
      </trkpt>
      <trkpt lat="45.91289" lon="6.33636">
        <ele>1462</ele>
        <time>2026-08-19T06:15:20.566Z</time>
      </trkpt>
      <trkpt lat="45.9129" lon="6.33637">
        <ele>1462</ele>
        <time>2026-08-19T06:15:21.566Z</time>
      </trkpt>
      <trkpt lat="45.91291" lon="6.33637">
        <ele>1462</ele>
        <time>2026-08-19T06:15:22.566Z</time>
      </trkpt>
      <trkpt lat="45.91291" lon="6.33637">
        <ele>1462</ele>
        <time>2026-08-19T06:15:23.566Z</time>
      </trkpt>
      <trkpt lat="45.91292" lon="6.33637">
        <ele>1462</ele>
        <time>2026-08-19T06:15:24.566Z</time>
      </trkpt>
      <trkpt lat="45.91293" lon="6.33637">
        <ele>1463</ele>
        <time>2026-08-19T06:15:25.566Z</time>
      </trkpt>
      <trkpt lat="45.91294" lon="6.33637">
        <ele>1463</ele>
        <time>2026-08-19T06:15:26.566Z</time>
      </trkpt>
      <trkpt lat="45.91295" lon="6.33638">
        <ele>1463</ele>
        <time>2026-08-19T06:15:27.566Z</time>
      </trkpt>
      <trkpt lat="45.91296" lon="6.33638">
        <ele>1463</ele>
        <time>2026-08-19T06:15:28.566Z</time>
      </trkpt>
      <trkpt lat="45.91296" lon="6.33639">
        <ele>1463</ele>
        <time>2026-08-19T06:15:29.566Z</time>
      </trkpt>
      <trkpt lat="45.91296" lon="6.33639">
        <ele>1463</ele>
        <time>2026-08-19T06:15:30.566Z</time>
      </trkpt>
      <trkpt lat="45.91297" lon="6.3364">
        <ele>1463</ele>
        <time>2026-08-19T06:15:31.566Z</time>
      </trkpt>
      <trkpt lat="45.91297" lon="6.33642">
        <ele>1463</ele>
        <time>2026-08-19T06:15:32.566Z</time>
      </trkpt>
      <trkpt lat="45.91298" lon="6.33643">
        <ele>1464</ele>
        <time>2026-08-19T06:15:33.566Z</time>
      </trkpt>
      <trkpt lat="45.91299" lon="6.33643">
        <ele>1465</ele>
        <time>2026-08-19T06:15:34.566Z</time>
      </trkpt>
      <trkpt lat="45.913" lon="6.33643">
        <ele>1465</ele>
        <time>2026-08-19T06:15:35.566Z</time>
      </trkpt>
      <trkpt lat="45.91301" lon="6.33642">
        <ele>1466</ele>
        <time>2026-08-19T06:15:36.566Z</time>
      </trkpt>
      <trkpt lat="45.91302" lon="6.33642">
        <ele>1466</ele>
        <time>2026-08-19T06:15:37.566Z</time>
      </trkpt>
      <trkpt lat="45.91304" lon="6.33641">
        <ele>1466</ele>
        <time>2026-08-19T06:15:38.566Z</time>
      </trkpt>
      <trkpt lat="45.91305" lon="6.33641">
        <ele>1466</ele>
        <time>2026-08-19T06:15:39.566Z</time>
      </trkpt>
      <trkpt lat="45.91307" lon="6.33641">
        <ele>1466</ele>
        <time>2026-08-19T06:15:40.566Z</time>
      </trkpt>
      <trkpt lat="45.91309" lon="6.33642">
        <ele>1466</ele>
        <time>2026-08-19T06:15:41.566Z</time>
      </trkpt>
      <trkpt lat="45.91311" lon="6.33643">
        <ele>1466</ele>
        <time>2026-08-19T06:15:42.566Z</time>
      </trkpt>
      <trkpt lat="45.91312" lon="6.33644">
        <ele>1466</ele>
        <time>2026-08-19T06:15:43.566Z</time>
      </trkpt>
      <trkpt lat="45.91313" lon="6.33645">
        <ele>1466</ele>
        <time>2026-08-19T06:15:44.566Z</time>
      </trkpt>
      <trkpt lat="45.91315" lon="6.33645">
        <ele>1466</ele>
        <time>2026-08-19T06:15:45.566Z</time>
      </trkpt>
      <trkpt lat="45.91316" lon="6.33646">
        <ele>1466</ele>
        <time>2026-08-19T06:15:46.566Z</time>
      </trkpt>
      <trkpt lat="45.91318" lon="6.33646">
        <ele>1466</ele>
        <time>2026-08-19T06:15:47.566Z</time>
      </trkpt>
      <trkpt lat="45.91319" lon="6.33647">
        <ele>1466</ele>
        <time>2026-08-19T06:15:48.566Z</time>
      </trkpt>
      <trkpt lat="45.9132" lon="6.33647">
        <ele>1466</ele>
        <time>2026-08-19T06:15:49.566Z</time>
      </trkpt>
      <trkpt lat="45.9132" lon="6.33648">
        <ele>1466</ele>
        <time>2026-08-19T06:15:50.566Z</time>
      </trkpt>
      <trkpt lat="45.91321" lon="6.33649">
        <ele>1466</ele>
        <time>2026-08-19T06:15:51.566Z</time>
      </trkpt>
      <trkpt lat="45.91323" lon="6.3365">
        <ele>1466</ele>
        <time>2026-08-19T06:15:52.566Z</time>
      </trkpt>
      <trkpt lat="45.91324" lon="6.33651">
        <ele>1466</ele>
        <time>2026-08-19T06:15:53.566Z</time>
      </trkpt>
      <trkpt lat="45.91325" lon="6.33651">
        <ele>1466</ele>
        <time>2026-08-19T06:15:54.566Z</time>
      </trkpt>
      <trkpt lat="45.91326" lon="6.33652">
        <ele>1466</ele>
        <time>2026-08-19T06:15:55.566Z</time>
      </trkpt>
      <trkpt lat="45.91327" lon="6.33653">
        <ele>1466</ele>
        <time>2026-08-19T06:15:56.566Z</time>
      </trkpt>
      <trkpt lat="45.91328" lon="6.33654">
        <ele>1466</ele>
        <time>2026-08-19T06:15:57.566Z</time>
      </trkpt>
      <trkpt lat="45.91329" lon="6.33654">
        <ele>1466</ele>
        <time>2026-08-19T06:15:58.566Z</time>
      </trkpt>
      <trkpt lat="45.9133" lon="6.33654">
        <ele>1466</ele>
        <time>2026-08-19T06:15:59.566Z</time>
      </trkpt>
      <trkpt lat="45.91331" lon="6.33653">
        <ele>1466</ele>
        <time>2026-08-19T06:16:00.566Z</time>
      </trkpt>
      <trkpt lat="45.91332" lon="6.33652">
        <ele>1466</ele>
        <time>2026-08-19T06:16:01.566Z</time>
      </trkpt>
      <trkpt lat="45.91333" lon="6.33651">
        <ele>1467</ele>
        <time>2026-08-19T06:16:02.566Z</time>
      </trkpt>
      <trkpt lat="45.91333" lon="6.33651">
        <ele>1467</ele>
        <time>2026-08-19T06:16:03.566Z</time>
      </trkpt>
      <trkpt lat="45.91334" lon="6.33651">
        <ele>1468</ele>
        <time>2026-08-19T06:16:04.566Z</time>
      </trkpt>
      <trkpt lat="45.91335" lon="6.3365">
        <ele>1469</ele>
        <time>2026-08-19T06:16:05.566Z</time>
      </trkpt>
      <trkpt lat="45.91336" lon="6.33649">
        <ele>1469</ele>
        <time>2026-08-19T06:16:06.566Z</time>
      </trkpt>
      <trkpt lat="45.91336" lon="6.33648">
        <ele>1470</ele>
        <time>2026-08-19T06:16:07.566Z</time>
      </trkpt>
      <trkpt lat="45.91337" lon="6.33648">
        <ele>1470</ele>
        <time>2026-08-19T06:16:08.566Z</time>
      </trkpt>
      <trkpt lat="45.91338" lon="6.33647">
        <ele>1470</ele>
        <time>2026-08-19T06:16:09.566Z</time>
      </trkpt>
      <trkpt lat="45.91338" lon="6.33647">
        <ele>1471</ele>
        <time>2026-08-19T06:16:10.566Z</time>
      </trkpt>
      <trkpt lat="45.91338" lon="6.33647">
        <ele>1471</ele>
        <time>2026-08-19T06:16:11.566Z</time>
      </trkpt>
      <trkpt lat="45.91339" lon="6.33647">
        <ele>1472</ele>
        <time>2026-08-19T06:16:12.566Z</time>
      </trkpt>
      <trkpt lat="45.9134" lon="6.33646">
        <ele>1472</ele>
        <time>2026-08-19T06:16:13.566Z</time>
      </trkpt>
      <trkpt lat="45.9134" lon="6.33646">
        <ele>1473</ele>
        <time>2026-08-19T06:16:14.566Z</time>
      </trkpt>
      <trkpt lat="45.91341" lon="6.33646">
        <ele>1473</ele>
        <time>2026-08-19T06:16:15.566Z</time>
      </trkpt>
      <trkpt lat="45.91341" lon="6.33647">
        <ele>1474</ele>
        <time>2026-08-19T06:16:16.566Z</time>
      </trkpt>
      <trkpt lat="45.91341" lon="6.33649">
        <ele>1474</ele>
        <time>2026-08-19T06:16:17.566Z</time>
      </trkpt>
      <trkpt lat="45.91341" lon="6.33651">
        <ele>1474</ele>
        <time>2026-08-19T06:16:18.566Z</time>
      </trkpt>
      <trkpt lat="45.91342" lon="6.33651">
        <ele>1474</ele>
        <time>2026-08-19T06:16:19.566Z</time>
      </trkpt>
      <trkpt lat="45.91342" lon="6.33652">
        <ele>1474</ele>
        <time>2026-08-19T06:16:20.566Z</time>
      </trkpt>
      <trkpt lat="45.91342" lon="6.33652">
        <ele>1475</ele>
        <time>2026-08-19T06:16:21.566Z</time>
      </trkpt>
      <trkpt lat="45.91343" lon="6.33652">
        <ele>1475</ele>
        <time>2026-08-19T06:16:22.566Z</time>
      </trkpt>
      <trkpt lat="45.91343" lon="6.33654">
        <ele>1475</ele>
        <time>2026-08-19T06:16:23.566Z</time>
      </trkpt>
      <trkpt lat="45.91344" lon="6.33654">
        <ele>1476</ele>
        <time>2026-08-19T06:16:24.566Z</time>
      </trkpt>
      <trkpt lat="45.91345" lon="6.33655">
        <ele>1476</ele>
        <time>2026-08-19T06:16:25.566Z</time>
      </trkpt>
      <trkpt lat="45.91345" lon="6.33656">
        <ele>1476</ele>
        <time>2026-08-19T06:16:26.566Z</time>
      </trkpt>
      <trkpt lat="45.91346" lon="6.33656">
        <ele>1476</ele>
        <time>2026-08-19T06:16:27.566Z</time>
      </trkpt>
      <trkpt lat="45.91346" lon="6.33656">
        <ele>1477</ele>
        <time>2026-08-19T06:16:28.566Z</time>
      </trkpt>
      <trkpt lat="45.91347" lon="6.33656">
        <ele>1477</ele>
        <time>2026-08-19T06:16:29.566Z</time>
      </trkpt>
      <trkpt lat="45.91348" lon="6.33656">
        <ele>1478</ele>
        <time>2026-08-19T06:16:30.566Z</time>
      </trkpt>
      <trkpt lat="45.91349" lon="6.33656">
        <ele>1478</ele>
        <time>2026-08-19T06:16:31.566Z</time>
      </trkpt>
      <trkpt lat="45.9135" lon="6.33656">
        <ele>1478</ele>
        <time>2026-08-19T06:16:32.566Z</time>
      </trkpt>
      <trkpt lat="45.91351" lon="6.33656">
        <ele>1479</ele>
        <time>2026-08-19T06:16:33.566Z</time>
      </trkpt>
      <trkpt lat="45.91352" lon="6.33656">
        <ele>1479</ele>
        <time>2026-08-19T06:16:34.566Z</time>
      </trkpt>
      <trkpt lat="45.91352" lon="6.33657">
        <ele>1479</ele>
        <time>2026-08-19T06:16:35.566Z</time>
      </trkpt>
      <trkpt lat="45.91353" lon="6.33658">
        <ele>1480</ele>
        <time>2026-08-19T06:16:36.566Z</time>
      </trkpt>
      <trkpt lat="45.91354" lon="6.33658">
        <ele>1480</ele>
        <time>2026-08-19T06:16:37.566Z</time>
      </trkpt>
      <trkpt lat="45.91354" lon="6.33659">
        <ele>1480</ele>
        <time>2026-08-19T06:16:38.566Z</time>
      </trkpt>
      <trkpt lat="45.91354" lon="6.33659">
        <ele>1480</ele>
        <time>2026-08-19T06:16:39.566Z</time>
      </trkpt>
      <trkpt lat="45.91355" lon="6.3366">
        <ele>1480</ele>
        <time>2026-08-19T06:16:40.566Z</time>
      </trkpt>
      <trkpt lat="45.91356" lon="6.33661">
        <ele>1480</ele>
        <time>2026-08-19T06:16:41.566Z</time>
      </trkpt>
      <trkpt lat="45.91356" lon="6.33661">
        <ele>1480</ele>
        <time>2026-08-19T06:16:42.566Z</time>
      </trkpt>
      <trkpt lat="45.91357" lon="6.33661">
        <ele>1481</ele>
        <time>2026-08-19T06:16:43.566Z</time>
      </trkpt>
      <trkpt lat="45.91358" lon="6.33661">
        <ele>1481</ele>
        <time>2026-08-19T06:16:44.566Z</time>
      </trkpt>
      <trkpt lat="45.91358" lon="6.33662">
        <ele>1481</ele>
        <time>2026-08-19T06:16:45.566Z</time>
      </trkpt>
      <trkpt lat="45.91358" lon="6.33663">
        <ele>1481</ele>
        <time>2026-08-19T06:16:46.566Z</time>
      </trkpt>
      <trkpt lat="45.91359" lon="6.33663">
        <ele>1481</ele>
        <time>2026-08-19T06:16:47.566Z</time>
      </trkpt>
      <trkpt lat="45.9136" lon="6.33664">
        <ele>1481</ele>
        <time>2026-08-19T06:16:48.566Z</time>
      </trkpt>
      <trkpt lat="45.91361" lon="6.33665">
        <ele>1481</ele>
        <time>2026-08-19T06:16:49.566Z</time>
      </trkpt>
      <trkpt lat="45.91362" lon="6.33666">
        <ele>1481</ele>
        <time>2026-08-19T06:16:50.566Z</time>
      </trkpt>
      <trkpt lat="45.91363" lon="6.33667">
        <ele>1481</ele>
        <time>2026-08-19T06:16:51.566Z</time>
      </trkpt>
      <trkpt lat="45.91364" lon="6.33668">
        <ele>1481</ele>
        <time>2026-08-19T06:16:52.566Z</time>
      </trkpt>
      <trkpt lat="45.91365" lon="6.33669">
        <ele>1480</ele>
        <time>2026-08-19T06:16:53.566Z</time>
      </trkpt>
      <trkpt lat="45.91366" lon="6.3367">
        <ele>1480</ele>
        <time>2026-08-19T06:16:54.566Z</time>
      </trkpt>
      <trkpt lat="45.91367" lon="6.3367">
        <ele>1479</ele>
        <time>2026-08-19T06:16:55.566Z</time>
      </trkpt>
      <trkpt lat="45.91368" lon="6.33671">
        <ele>1479</ele>
        <time>2026-08-19T06:16:56.566Z</time>
      </trkpt>
      <trkpt lat="45.91369" lon="6.33671">
        <ele>1479</ele>
        <time>2026-08-19T06:16:57.566Z</time>
      </trkpt>
      <trkpt lat="45.9137" lon="6.33672">
        <ele>1478</ele>
        <time>2026-08-19T06:16:58.566Z</time>
      </trkpt>
      <trkpt lat="45.9137" lon="6.33673">
        <ele>1478</ele>
        <time>2026-08-19T06:16:59.566Z</time>
      </trkpt>
      <trkpt lat="45.9137" lon="6.33673">
        <ele>1478</ele>
        <time>2026-08-19T06:17:00.566Z</time>
      </trkpt>
      <trkpt lat="45.9137" lon="6.33673">
        <ele>1478</ele>
        <time>2026-08-19T06:17:01.566Z</time>
      </trkpt>
      <trkpt lat="45.9137" lon="6.33673">
        <ele>1477</ele>
        <time>2026-08-19T06:17:02.566Z</time>
      </trkpt>
      <trkpt lat="45.9137" lon="6.33673">
        <ele>1477</ele>
        <time>2026-08-19T06:17:03.566Z</time>
      </trkpt>
      <trkpt lat="45.9137" lon="6.33673">
        <ele>1476</ele>
        <time>2026-08-19T06:17:04.566Z</time>
      </trkpt>
      <trkpt lat="45.9137" lon="6.33673">
        <ele>1476</ele>
        <time>2026-08-19T06:17:05.566Z</time>
      </trkpt>
      <trkpt lat="45.9137" lon="6.33673">
        <ele>1475</ele>
        <time>2026-08-19T06:17:06.566Z</time>
      </trkpt>
      <trkpt lat="45.9137" lon="6.33673">
        <ele>1474</ele>
        <time>2026-08-19T06:17:07.566Z</time>
      </trkpt>
      <trkpt lat="45.9137" lon="6.33673">
        <ele>1473</ele>
        <time>2026-08-19T06:17:08.566Z</time>
      </trkpt>
      <trkpt lat="45.9137" lon="6.33673">
        <ele>1473</ele>
        <time>2026-08-19T06:17:09.566Z</time>
      </trkpt>
      <trkpt lat="45.9137" lon="6.33673">
        <ele>1472</ele>
        <time>2026-08-19T06:17:10.566Z</time>
      </trkpt>
      <trkpt lat="45.9137" lon="6.33673">
        <ele>1471</ele>
        <time>2026-08-19T06:17:11.566Z</time>
      </trkpt>
      <trkpt lat="45.9137" lon="6.33673">
        <ele>1471</ele>
        <time>2026-08-19T06:17:12.566Z</time>
      </trkpt>
      <trkpt lat="45.9137" lon="6.33673">
        <ele>1470</ele>
        <time>2026-08-19T06:17:13.566Z</time>
      </trkpt>
      <trkpt lat="45.9137" lon="6.33673">
        <ele>1470</ele>
        <time>2026-08-19T06:17:14.566Z</time>
      </trkpt>
      <trkpt lat="45.9137" lon="6.33673">
        <ele>1469</ele>
        <time>2026-08-19T06:17:15.566Z</time>
      </trkpt>
      <trkpt lat="45.9137" lon="6.33673">
        <ele>1469</ele>
        <time>2026-08-19T06:17:16.566Z</time>
      </trkpt>
      <trkpt lat="45.9137" lon="6.33673">
        <ele>1469</ele>
        <time>2026-08-19T06:17:17.566Z</time>
      </trkpt>
      <trkpt lat="45.91369" lon="6.33673">
        <ele>1468</ele>
        <time>2026-08-19T06:17:18.566Z</time>
      </trkpt>
      <trkpt lat="45.91367" lon="6.33672">
        <ele>1468</ele>
        <time>2026-08-19T06:17:19.566Z</time>
      </trkpt>
      <trkpt lat="45.91366" lon="6.33672">
        <ele>1468</ele>
        <time>2026-08-19T06:17:20.566Z</time>
      </trkpt>
      <trkpt lat="45.91365" lon="6.33671">
        <ele>1468</ele>
        <time>2026-08-19T06:17:21.566Z</time>
      </trkpt>
      <trkpt lat="45.91364" lon="6.33671">
        <ele>1468</ele>
        <time>2026-08-19T06:17:22.566Z</time>
      </trkpt>
      <trkpt lat="45.91363" lon="6.3367">
        <ele>1468</ele>
        <time>2026-08-19T06:17:23.566Z</time>
      </trkpt>
      <trkpt lat="45.91362" lon="6.3367">
        <ele>1468</ele>
        <time>2026-08-19T06:17:24.566Z</time>
      </trkpt>
      <trkpt lat="45.91361" lon="6.3367">
        <ele>1468</ele>
        <time>2026-08-19T06:17:25.566Z</time>
      </trkpt>
      <trkpt lat="45.91359" lon="6.33669">
        <ele>1469</ele>
        <time>2026-08-19T06:17:26.566Z</time>
      </trkpt>
      <trkpt lat="45.91358" lon="6.33669">
        <ele>1469</ele>
        <time>2026-08-19T06:17:27.566Z</time>
      </trkpt>
      <trkpt lat="45.91357" lon="6.33668">
        <ele>1469</ele>
        <time>2026-08-19T06:17:28.566Z</time>
      </trkpt>
      <trkpt lat="45.91356" lon="6.33668">
        <ele>1470</ele>
        <time>2026-08-19T06:17:29.566Z</time>
      </trkpt>
      <trkpt lat="45.91354" lon="6.33668">
        <ele>1470</ele>
        <time>2026-08-19T06:17:30.566Z</time>
      </trkpt>
      <trkpt lat="45.91353" lon="6.33668">
        <ele>1471</ele>
        <time>2026-08-19T06:17:31.566Z</time>
      </trkpt>
      <trkpt lat="45.91351" lon="6.33667">
        <ele>1471</ele>
        <time>2026-08-19T06:17:32.566Z</time>
      </trkpt>
      <trkpt lat="45.9135" lon="6.33667">
        <ele>1472</ele>
        <time>2026-08-19T06:17:33.566Z</time>
      </trkpt>
      <trkpt lat="45.91349" lon="6.33666">
        <ele>1472</ele>
        <time>2026-08-19T06:17:34.566Z</time>
      </trkpt>
      <trkpt lat="45.91347" lon="6.33665">
        <ele>1472</ele>
        <time>2026-08-19T06:17:35.566Z</time>
      </trkpt>
      <trkpt lat="45.91346" lon="6.33663">
        <ele>1472</ele>
        <time>2026-08-19T06:17:36.566Z</time>
      </trkpt>
      <trkpt lat="45.91345" lon="6.33662">
        <ele>1472</ele>
        <time>2026-08-19T06:17:37.566Z</time>
      </trkpt>
      <trkpt lat="45.91344" lon="6.33661">
        <ele>1472</ele>
        <time>2026-08-19T06:17:38.566Z</time>
      </trkpt>
      <trkpt lat="45.91342" lon="6.33659">
        <ele>1472</ele>
        <time>2026-08-19T06:17:39.566Z</time>
      </trkpt>
      <trkpt lat="45.91342" lon="6.33657">
        <ele>1472</ele>
        <time>2026-08-19T06:17:40.566Z</time>
      </trkpt>
      <trkpt lat="45.91341" lon="6.33656">
        <ele>1472</ele>
        <time>2026-08-19T06:17:41.566Z</time>
      </trkpt>
      <trkpt lat="45.91341" lon="6.33655">
        <ele>1473</ele>
        <time>2026-08-19T06:17:42.566Z</time>
      </trkpt>
      <trkpt lat="45.9134" lon="6.33653">
        <ele>1473</ele>
        <time>2026-08-19T06:17:43.566Z</time>
      </trkpt>
      <trkpt lat="45.9134" lon="6.33652">
        <ele>1472</ele>
        <time>2026-08-19T06:17:44.566Z</time>
      </trkpt>
      <trkpt lat="45.91339" lon="6.3365">
        <ele>1472</ele>
        <time>2026-08-19T06:17:45.566Z</time>
      </trkpt>
      <trkpt lat="45.91339" lon="6.3365">
        <ele>1472</ele>
        <time>2026-08-19T06:17:46.566Z</time>
      </trkpt>
      <trkpt lat="45.91338" lon="6.33649">
        <ele>1473</ele>
        <time>2026-08-19T06:17:47.566Z</time>
      </trkpt>
      <trkpt lat="45.91337" lon="6.33649">
        <ele>1473</ele>
        <time>2026-08-19T06:17:48.566Z</time>
      </trkpt>
      <trkpt lat="45.91337" lon="6.33648">
        <ele>1473</ele>
        <time>2026-08-19T06:17:49.566Z</time>
      </trkpt>
      <trkpt lat="45.91336" lon="6.33648">
        <ele>1474</ele>
        <time>2026-08-19T06:17:50.566Z</time>
      </trkpt>
      <trkpt lat="45.91336" lon="6.33647">
        <ele>1474</ele>
        <time>2026-08-19T06:17:51.566Z</time>
      </trkpt>
      <trkpt lat="45.91336" lon="6.33646">
        <ele>1474</ele>
        <time>2026-08-19T06:17:52.566Z</time>
      </trkpt>
      <trkpt lat="45.91335" lon="6.33645">
        <ele>1473</ele>
        <time>2026-08-19T06:17:53.566Z</time>
      </trkpt>
      <trkpt lat="45.91335" lon="6.33644">
        <ele>1473</ele>
        <time>2026-08-19T06:17:54.566Z</time>
      </trkpt>
      <trkpt lat="45.91334" lon="6.33644">
        <ele>1473</ele>
        <time>2026-08-19T06:17:55.566Z</time>
      </trkpt>
      <trkpt lat="45.91334" lon="6.33643">
        <ele>1472</ele>
        <time>2026-08-19T06:17:56.566Z</time>
      </trkpt>
      <trkpt lat="45.91334" lon="6.33643">
        <ele>1472</ele>
        <time>2026-08-19T06:17:57.566Z</time>
      </trkpt>
      <trkpt lat="45.91334" lon="6.33643">
        <ele>1472</ele>
        <time>2026-08-19T06:17:58.566Z</time>
      </trkpt>
      <trkpt lat="45.91333" lon="6.33643">
        <ele>1471</ele>
        <time>2026-08-19T06:17:59.566Z</time>
      </trkpt>
      <trkpt lat="45.91333" lon="6.33643">
        <ele>1471</ele>
        <time>2026-08-19T06:18:00.566Z</time>
      </trkpt>
      <trkpt lat="45.91333" lon="6.33643">
        <ele>1471</ele>
        <time>2026-08-19T06:18:01.566Z</time>
      </trkpt>
      <trkpt lat="45.91334" lon="6.33643">
        <ele>1471</ele>
        <time>2026-08-19T06:18:02.566Z</time>
      </trkpt>
      <trkpt lat="45.91334" lon="6.33643">
        <ele>1470</ele>
        <time>2026-08-19T06:18:03.566Z</time>
      </trkpt>
      <trkpt lat="45.91334" lon="6.33644">
        <ele>1470</ele>
        <time>2026-08-19T06:18:04.566Z</time>
      </trkpt>
      <trkpt lat="45.91334" lon="6.33645">
        <ele>1470</ele>
        <time>2026-08-19T06:18:05.566Z</time>
      </trkpt>
      <trkpt lat="45.91334" lon="6.33646">
        <ele>1470</ele>
        <time>2026-08-19T06:18:06.566Z</time>
      </trkpt>
      <trkpt lat="45.91335" lon="6.33647">
        <ele>1469</ele>
        <time>2026-08-19T06:18:07.566Z</time>
      </trkpt>
      <trkpt lat="45.91336" lon="6.33648">
        <ele>1469</ele>
        <time>2026-08-19T06:18:08.566Z</time>
      </trkpt>
      <trkpt lat="45.91337" lon="6.3365">
        <ele>1470</ele>
        <time>2026-08-19T06:18:09.566Z</time>
      </trkpt>
      <trkpt lat="45.91337" lon="6.33652">
        <ele>1470</ele>
        <time>2026-08-19T06:18:10.566Z</time>
      </trkpt>
      <trkpt lat="45.91337" lon="6.33654">
        <ele>1470</ele>
        <time>2026-08-19T06:18:11.567Z</time>
      </trkpt>
      <trkpt lat="45.91336" lon="6.33655">
        <ele>1470</ele>
        <time>2026-08-19T06:18:12.566Z</time>
      </trkpt>
      <trkpt lat="45.91335" lon="6.33656">
        <ele>1471</ele>
        <time>2026-08-19T06:18:13.566Z</time>
      </trkpt>
      <trkpt lat="45.91334" lon="6.33657">
        <ele>1471</ele>
        <time>2026-08-19T06:18:14.566Z</time>
      </trkpt>
      <trkpt lat="45.91333" lon="6.33657">
        <ele>1471</ele>
        <time>2026-08-19T06:18:15.566Z</time>
      </trkpt>
      <trkpt lat="45.91332" lon="6.33658">
        <ele>1471</ele>
        <time>2026-08-19T06:18:16.566Z</time>
      </trkpt>
      <trkpt lat="45.91331" lon="6.33658">
        <ele>1471</ele>
        <time>2026-08-19T06:18:17.566Z</time>
      </trkpt>
      <trkpt lat="45.9133" lon="6.33659">
        <ele>1471</ele>
        <time>2026-08-19T06:18:18.566Z</time>
      </trkpt>
      <trkpt lat="45.91328" lon="6.3366">
        <ele>1471</ele>
        <time>2026-08-19T06:18:19.566Z</time>
      </trkpt>
      <trkpt lat="45.91328" lon="6.3366">
        <ele>1470</ele>
        <time>2026-08-19T06:18:20.566Z</time>
      </trkpt>
      <trkpt lat="45.91327" lon="6.33661">
        <ele>1470</ele>
        <time>2026-08-19T06:18:21.566Z</time>
      </trkpt>
      <trkpt lat="45.91326" lon="6.33661">
        <ele>1470</ele>
        <time>2026-08-19T06:18:22.566Z</time>
      </trkpt>
      <trkpt lat="45.91325" lon="6.3366">
        <ele>1470</ele>
        <time>2026-08-19T06:18:23.566Z</time>
      </trkpt>
      <trkpt lat="45.91323" lon="6.33659">
        <ele>1470</ele>
        <time>2026-08-19T06:18:24.566Z</time>
      </trkpt>
      <trkpt lat="45.91322" lon="6.33659">
        <ele>1470</ele>
        <time>2026-08-19T06:18:25.566Z</time>
      </trkpt>
      <trkpt lat="45.9132" lon="6.33658">
        <ele>1470</ele>
        <time>2026-08-19T06:18:26.566Z</time>
      </trkpt>
      <trkpt lat="45.91319" lon="6.33657">
        <ele>1470</ele>
        <time>2026-08-19T06:18:27.566Z</time>
      </trkpt>
      <trkpt lat="45.91317" lon="6.33656">
        <ele>1470</ele>
        <time>2026-08-19T06:18:28.566Z</time>
      </trkpt>
      <trkpt lat="45.91315" lon="6.33655">
        <ele>1470</ele>
        <time>2026-08-19T06:18:29.566Z</time>
      </trkpt>
      <trkpt lat="45.91314" lon="6.33653">
        <ele>1471</ele>
        <time>2026-08-19T06:18:30.566Z</time>
      </trkpt>
      <trkpt lat="45.91313" lon="6.33651">
        <ele>1470</ele>
        <time>2026-08-19T06:18:31.566Z</time>
      </trkpt>
      <trkpt lat="45.91312" lon="6.3365">
        <ele>1470</ele>
        <time>2026-08-19T06:18:32.566Z</time>
      </trkpt>
      <trkpt lat="45.91311" lon="6.33649">
        <ele>1470</ele>
        <time>2026-08-19T06:18:33.566Z</time>
      </trkpt>
      <trkpt lat="45.91309" lon="6.33648">
        <ele>1471</ele>
        <time>2026-08-19T06:18:34.566Z</time>
      </trkpt>
      <trkpt lat="45.91307" lon="6.33648">
        <ele>1471</ele>
        <time>2026-08-19T06:18:35.566Z</time>
      </trkpt>
      <trkpt lat="45.91306" lon="6.33649">
        <ele>1471</ele>
        <time>2026-08-19T06:18:36.566Z</time>
      </trkpt>
      <trkpt lat="45.91305" lon="6.33649">
        <ele>1472</ele>
        <time>2026-08-19T06:18:37.566Z</time>
      </trkpt>
      <trkpt lat="45.91304" lon="6.33648">
        <ele>1471</ele>
        <time>2026-08-19T06:18:38.566Z</time>
      </trkpt>
      <trkpt lat="45.91303" lon="6.33648">
        <ele>1472</ele>
        <time>2026-08-19T06:18:39.566Z</time>
      </trkpt>
      <trkpt lat="45.91303" lon="6.33649">
        <ele>1472</ele>
        <time>2026-08-19T06:18:40.566Z</time>
      </trkpt>
      <trkpt lat="45.91303" lon="6.33648">
        <ele>1472</ele>
        <time>2026-08-19T06:18:41.566Z</time>
      </trkpt>
      <trkpt lat="45.91303" lon="6.33648">
        <ele>1472</ele>
        <time>2026-08-19T06:18:42.566Z</time>
      </trkpt>
      <trkpt lat="45.91302" lon="6.33648">
        <ele>1472</ele>
        <time>2026-08-19T06:18:43.566Z</time>
      </trkpt>
      <trkpt lat="45.91301" lon="6.33648">
        <ele>1472</ele>
        <time>2026-08-19T06:18:44.566Z</time>
      </trkpt>
      <trkpt lat="45.913" lon="6.33648">
        <ele>1472</ele>
        <time>2026-08-19T06:18:45.566Z</time>
      </trkpt>
      <trkpt lat="45.91299" lon="6.33647">
        <ele>1472</ele>
        <time>2026-08-19T06:18:46.566Z</time>
      </trkpt>
      <trkpt lat="45.91299" lon="6.33646">
        <ele>1472</ele>
        <time>2026-08-19T06:18:47.566Z</time>
      </trkpt>
      <trkpt lat="45.91298" lon="6.33645">
        <ele>1472</ele>
        <time>2026-08-19T06:18:48.566Z</time>
      </trkpt>
      <trkpt lat="45.91297" lon="6.33644">
        <ele>1472</ele>
        <time>2026-08-19T06:18:49.566Z</time>
      </trkpt>
      <trkpt lat="45.91296" lon="6.33643">
        <ele>1471</ele>
        <time>2026-08-19T06:18:50.566Z</time>
      </trkpt>
      <trkpt lat="45.91296" lon="6.33643">
        <ele>1470</ele>
        <time>2026-08-19T06:18:51.566Z</time>
      </trkpt>
      <trkpt lat="45.91295" lon="6.33643">
        <ele>1469</ele>
        <time>2026-08-19T06:18:52.566Z</time>
      </trkpt>
      <trkpt lat="45.91294" lon="6.33642">
        <ele>1469</ele>
        <time>2026-08-19T06:18:53.566Z</time>
      </trkpt>
      <trkpt lat="45.91293" lon="6.33642">
        <ele>1469</ele>
        <time>2026-08-19T06:18:54.566Z</time>
      </trkpt>
      <trkpt lat="45.91293" lon="6.33641">
        <ele>1469</ele>
        <time>2026-08-19T06:18:55.566Z</time>
      </trkpt>
      <trkpt lat="45.91292" lon="6.33641">
        <ele>1469</ele>
        <time>2026-08-19T06:18:56.566Z</time>
      </trkpt>
      <trkpt lat="45.91291" lon="6.33641">
        <ele>1469</ele>
        <time>2026-08-19T06:18:57.566Z</time>
      </trkpt>
      <trkpt lat="45.9129" lon="6.33641">
        <ele>1469</ele>
        <time>2026-08-19T06:18:58.566Z</time>
      </trkpt>
      <trkpt lat="45.9129" lon="6.33642">
        <ele>1469</ele>
        <time>2026-08-19T06:18:59.566Z</time>
      </trkpt>
      <trkpt lat="45.91289" lon="6.33642">
        <ele>1469</ele>
        <time>2026-08-19T06:19:00.566Z</time>
      </trkpt>
      <trkpt lat="45.91288" lon="6.33642">
        <ele>1469</ele>
        <time>2026-08-19T06:19:01.566Z</time>
      </trkpt>
      <trkpt lat="45.91288" lon="6.33641">
        <ele>1470</ele>
        <time>2026-08-19T06:19:02.566Z</time>
      </trkpt>
      <trkpt lat="45.91287" lon="6.33641">
        <ele>1470</ele>
        <time>2026-08-19T06:19:03.566Z</time>
      </trkpt>
      <trkpt lat="45.91285" lon="6.33641">
        <ele>1470</ele>
        <time>2026-08-19T06:19:04.566Z</time>
      </trkpt>
      <trkpt lat="45.91284" lon="6.33641">
        <ele>1469</ele>
        <time>2026-08-19T06:19:05.566Z</time>
      </trkpt>
      <trkpt lat="45.91283" lon="6.33641">
        <ele>1469</ele>
        <time>2026-08-19T06:19:06.566Z</time>
      </trkpt>
      <trkpt lat="45.91282" lon="6.33641">
        <ele>1469</ele>
        <time>2026-08-19T06:19:07.566Z</time>
      </trkpt>
      <trkpt lat="45.91282" lon="6.33641">
        <ele>1468</ele>
        <time>2026-08-19T06:19:08.566Z</time>
      </trkpt>
      <trkpt lat="45.91281" lon="6.33641">
        <ele>1468</ele>
        <time>2026-08-19T06:19:09.566Z</time>
      </trkpt>
      <trkpt lat="45.91281" lon="6.33641">
        <ele>1467</ele>
        <time>2026-08-19T06:19:10.566Z</time>
      </trkpt>
      <trkpt lat="45.91281" lon="6.33641">
        <ele>1466</ele>
        <time>2026-08-19T06:19:11.566Z</time>
      </trkpt>
      <trkpt lat="45.91281" lon="6.33641">
        <ele>1465</ele>
        <time>2026-08-19T06:19:12.566Z</time>
      </trkpt>
      <trkpt lat="45.9128" lon="6.33641">
        <ele>1465</ele>
        <time>2026-08-19T06:19:13.566Z</time>
      </trkpt>
      <trkpt lat="45.9128" lon="6.33641">
        <ele>1464</ele>
        <time>2026-08-19T06:19:14.566Z</time>
      </trkpt>
      <trkpt lat="45.91279" lon="6.33641">
        <ele>1463</ele>
        <time>2026-08-19T06:19:15.566Z</time>
      </trkpt>
      <trkpt lat="45.91279" lon="6.33641">
        <ele>1463</ele>
        <time>2026-08-19T06:19:16.566Z</time>
      </trkpt>
      <trkpt lat="45.91278" lon="6.33641">
        <ele>1462</ele>
        <time>2026-08-19T06:19:17.566Z</time>
      </trkpt>
      <trkpt lat="45.91278" lon="6.33642">
        <ele>1462</ele>
        <time>2026-08-19T06:19:18.566Z</time>
      </trkpt>
      <trkpt lat="45.91278" lon="6.33643">
        <ele>1462</ele>
        <time>2026-08-19T06:19:19.566Z</time>
      </trkpt>
      <trkpt lat="45.91277" lon="6.33643">
        <ele>1461</ele>
        <time>2026-08-19T06:19:20.566Z</time>
      </trkpt>
      <trkpt lat="45.91277" lon="6.33643">
        <ele>1461</ele>
        <time>2026-08-19T06:19:21.566Z</time>
      </trkpt>
      <trkpt lat="45.91277" lon="6.33643">
        <ele>1460</ele>
        <time>2026-08-19T06:19:22.566Z</time>
      </trkpt>
      <trkpt lat="45.91277" lon="6.33643">
        <ele>1460</ele>
        <time>2026-08-19T06:19:23.566Z</time>
      </trkpt>
      <trkpt lat="45.91277" lon="6.33643">
        <ele>1459</ele>
        <time>2026-08-19T06:19:24.566Z</time>
      </trkpt>
      <trkpt lat="45.91277" lon="6.33643">
        <ele>1459</ele>
        <time>2026-08-19T06:19:25.566Z</time>
      </trkpt>
      <trkpt lat="45.91277" lon="6.33642">
        <ele>1458</ele>
        <time>2026-08-19T06:19:26.566Z</time>
      </trkpt>
      <trkpt lat="45.91277" lon="6.33642">
        <ele>1458</ele>
        <time>2026-08-19T06:19:27.566Z</time>
      </trkpt>
      <trkpt lat="45.91277" lon="6.33641">
        <ele>1458</ele>
        <time>2026-08-19T06:19:28.566Z</time>
      </trkpt>
      <trkpt lat="45.91277" lon="6.33641">
        <ele>1457</ele>
        <time>2026-08-19T06:19:29.566Z</time>
      </trkpt>
      <trkpt lat="45.91277" lon="6.3364">
        <ele>1457</ele>
        <time>2026-08-19T06:19:30.566Z</time>
      </trkpt>
      <trkpt lat="45.91277" lon="6.33639">
        <ele>1457</ele>
        <time>2026-08-19T06:19:31.566Z</time>
      </trkpt>
      <trkpt lat="45.91278" lon="6.33638">
        <ele>1457</ele>
        <time>2026-08-19T06:19:32.566Z</time>
      </trkpt>
      <trkpt lat="45.91278" lon="6.33638">
        <ele>1456</ele>
        <time>2026-08-19T06:19:33.566Z</time>
      </trkpt>
      <trkpt lat="45.91279" lon="6.33638">
        <ele>1456</ele>
        <time>2026-08-19T06:19:34.566Z</time>
      </trkpt>
      <trkpt lat="45.91279" lon="6.33637">
        <ele>1456</ele>
        <time>2026-08-19T06:19:35.566Z</time>
      </trkpt>
      <trkpt lat="45.9128" lon="6.33636">
        <ele>1456</ele>
        <time>2026-08-19T06:19:36.566Z</time>
      </trkpt>
      <trkpt lat="45.9128" lon="6.33636">
        <ele>1456</ele>
        <time>2026-08-19T06:19:37.566Z</time>
      </trkpt>
      <trkpt lat="45.91281" lon="6.33636">
        <ele>1456</ele>
        <time>2026-08-19T06:19:38.566Z</time>
      </trkpt>
      <trkpt lat="45.91281" lon="6.33635">
        <ele>1456</ele>
        <time>2026-08-19T06:19:39.566Z</time>
      </trkpt>
      <trkpt lat="45.91282" lon="6.33635">
        <ele>1456</ele>
        <time>2026-08-19T06:19:40.566Z</time>
      </trkpt>
      <trkpt lat="45.91282" lon="6.33635">
        <ele>1456</ele>
        <time>2026-08-19T06:19:41.566Z</time>
      </trkpt>
      <trkpt lat="45.91282" lon="6.33634">
        <ele>1456</ele>
        <time>2026-08-19T06:19:42.566Z</time>
      </trkpt>
      <trkpt lat="45.91283" lon="6.33634">
        <ele>1456</ele>
        <time>2026-08-19T06:19:43.566Z</time>
      </trkpt>
      <trkpt lat="45.91283" lon="6.33633">
        <ele>1456</ele>
        <time>2026-08-19T06:19:44.566Z</time>
      </trkpt>
      <trkpt lat="45.91283" lon="6.33633">
        <ele>1456</ele>
        <time>2026-08-19T06:19:45.566Z</time>
      </trkpt>
      <trkpt lat="45.91283" lon="6.33633">
        <ele>1456</ele>
        <time>2026-08-19T06:19:46.566Z</time>
      </trkpt>
      <trkpt lat="45.91284" lon="6.33632">
        <ele>1455</ele>
        <time>2026-08-19T06:19:47.566Z</time>
      </trkpt>
      <trkpt lat="45.91285" lon="6.33632">
        <ele>1455</ele>
        <time>2026-08-19T06:19:48.566Z</time>
      </trkpt>
      <trkpt lat="45.91285" lon="6.33631">
        <ele>1455</ele>
        <time>2026-08-19T06:19:49.566Z</time>
      </trkpt>
      <trkpt lat="45.91285" lon="6.33631">
        <ele>1455</ele>
        <time>2026-08-19T06:19:50.566Z</time>
      </trkpt>
      <trkpt lat="45.91286" lon="6.33631">
        <ele>1455</ele>
        <time>2026-08-19T06:19:51.566Z</time>
      </trkpt>
      <trkpt lat="45.91287" lon="6.3363">
        <ele>1455</ele>
        <time>2026-08-19T06:19:52.566Z</time>
      </trkpt>
      <trkpt lat="45.91287" lon="6.3363">
        <ele>1456</ele>
        <time>2026-08-19T06:19:53.566Z</time>
      </trkpt>
      <trkpt lat="45.91287" lon="6.33629">
        <ele>1456</ele>
        <time>2026-08-19T06:19:54.566Z</time>
      </trkpt>
      <trkpt lat="45.91288" lon="6.33629">
        <ele>1456</ele>
        <time>2026-08-19T06:19:55.566Z</time>
      </trkpt>
      <trkpt lat="45.91289" lon="6.33629">
        <ele>1456</ele>
        <time>2026-08-19T06:19:56.567Z</time>
      </trkpt>
      <trkpt lat="45.9129" lon="6.33629">
        <ele>1456</ele>
        <time>2026-08-19T06:19:57.566Z</time>
      </trkpt>
      <trkpt lat="45.9129" lon="6.33629">
        <ele>1457</ele>
        <time>2026-08-19T06:19:58.566Z</time>
      </trkpt>
      <trkpt lat="45.91291" lon="6.33629">
        <ele>1457</ele>
        <time>2026-08-19T06:19:59.566Z</time>
      </trkpt>
      <trkpt lat="45.91292" lon="6.33629">
        <ele>1457</ele>
        <time>2026-08-19T06:20:00.566Z</time>
      </trkpt>
      <trkpt lat="45.91292" lon="6.33629">
        <ele>1457</ele>
        <time>2026-08-19T06:20:01.566Z</time>
      </trkpt>
      <trkpt lat="45.91292" lon="6.33629">
        <ele>1457</ele>
        <time>2026-08-19T06:20:02.566Z</time>
      </trkpt>
      <trkpt lat="45.91293" lon="6.33629">
        <ele>1458</ele>
        <time>2026-08-19T06:20:03.566Z</time>
      </trkpt>
      <trkpt lat="45.91293" lon="6.33629">
        <ele>1458</ele>
        <time>2026-08-19T06:20:04.566Z</time>
      </trkpt>
      <trkpt lat="45.91293" lon="6.3363">
        <ele>1458</ele>
        <time>2026-08-19T06:20:05.566Z</time>
      </trkpt>
      <trkpt lat="45.91294" lon="6.33631">
        <ele>1458</ele>
        <time>2026-08-19T06:20:06.566Z</time>
      </trkpt>
      <trkpt lat="45.91294" lon="6.33632">
        <ele>1459</ele>
        <time>2026-08-19T06:20:07.566Z</time>
      </trkpt>
      <trkpt lat="45.91294" lon="6.33632">
        <ele>1459</ele>
        <time>2026-08-19T06:20:08.566Z</time>
      </trkpt>
      <trkpt lat="45.91294" lon="6.33633">
        <ele>1460</ele>
        <time>2026-08-19T06:20:09.566Z</time>
      </trkpt>
      <trkpt lat="45.91294" lon="6.33633">
        <ele>1460</ele>
        <time>2026-08-19T06:20:10.566Z</time>
      </trkpt>
      <trkpt lat="45.91295" lon="6.33634">
        <ele>1461</ele>
        <time>2026-08-19T06:20:11.566Z</time>
      </trkpt>
      <trkpt lat="45.91295" lon="6.33635">
        <ele>1461</ele>
        <time>2026-08-19T06:20:12.566Z</time>
      </trkpt>
      <trkpt lat="45.91295" lon="6.33635">
        <ele>1462</ele>
        <time>2026-08-19T06:20:13.566Z</time>
      </trkpt>
      <trkpt lat="45.91296" lon="6.33636">
        <ele>1462</ele>
        <time>2026-08-19T06:20:14.566Z</time>
      </trkpt>
      <trkpt lat="45.91296" lon="6.33637">
        <ele>1463</ele>
        <time>2026-08-19T06:20:15.566Z</time>
      </trkpt>
      <trkpt lat="45.91296" lon="6.33638">
        <ele>1463</ele>
        <time>2026-08-19T06:20:16.566Z</time>
      </trkpt>
      <trkpt lat="45.91296" lon="6.33639">
        <ele>1464</ele>
        <time>2026-08-19T06:20:17.566Z</time>
      </trkpt>
      <trkpt lat="45.91296" lon="6.3364">
        <ele>1464</ele>
        <time>2026-08-19T06:20:18.566Z</time>
      </trkpt>
      <trkpt lat="45.91297" lon="6.3364">
        <ele>1465</ele>
        <time>2026-08-19T06:20:19.566Z</time>
      </trkpt>
      <trkpt lat="45.91298" lon="6.3364">
        <ele>1465</ele>
        <time>2026-08-19T06:20:20.566Z</time>
      </trkpt>
      <trkpt lat="45.91299" lon="6.3364">
        <ele>1465</ele>
        <time>2026-08-19T06:20:21.566Z</time>
      </trkpt>
      <trkpt lat="45.913" lon="6.33641">
        <ele>1466</ele>
        <time>2026-08-19T06:20:22.566Z</time>
      </trkpt>
      <trkpt lat="45.91302" lon="6.33641">
        <ele>1467</ele>
        <time>2026-08-19T06:20:23.566Z</time>
      </trkpt>
      <trkpt lat="45.91303" lon="6.33641">
        <ele>1467</ele>
        <time>2026-08-19T06:20:24.566Z</time>
      </trkpt>
      <trkpt lat="45.91304" lon="6.33642">
        <ele>1468</ele>
        <time>2026-08-19T06:20:25.566Z</time>
      </trkpt>
      <trkpt lat="45.91306" lon="6.33643">
        <ele>1468</ele>
        <time>2026-08-19T06:20:26.566Z</time>
      </trkpt>
      <trkpt lat="45.91307" lon="6.33643">
        <ele>1469</ele>
        <time>2026-08-19T06:20:27.566Z</time>
      </trkpt>
      <trkpt lat="45.91308" lon="6.33644">
        <ele>1469</ele>
        <time>2026-08-19T06:20:28.566Z</time>
      </trkpt>
      <trkpt lat="45.91309" lon="6.33645">
        <ele>1469</ele>
        <time>2026-08-19T06:20:29.566Z</time>
      </trkpt>
      <trkpt lat="45.9131" lon="6.33646">
        <ele>1469</ele>
        <time>2026-08-19T06:20:30.566Z</time>
      </trkpt>
      <trkpt lat="45.91311" lon="6.33647">
        <ele>1469</ele>
        <time>2026-08-19T06:20:31.566Z</time>
      </trkpt>
      <trkpt lat="45.91312" lon="6.33647">
        <ele>1469</ele>
        <time>2026-08-19T06:20:32.566Z</time>
      </trkpt>
      <trkpt lat="45.91313" lon="6.33648">
        <ele>1470</ele>
        <time>2026-08-19T06:20:33.566Z</time>
      </trkpt>
      <trkpt lat="45.91315" lon="6.33649">
        <ele>1470</ele>
        <time>2026-08-19T06:20:34.566Z</time>
      </trkpt>
      <trkpt lat="45.91316" lon="6.33651">
        <ele>1470</ele>
        <time>2026-08-19T06:20:35.566Z</time>
      </trkpt>
      <trkpt lat="45.91317" lon="6.33652">
        <ele>1470</ele>
        <time>2026-08-19T06:20:36.566Z</time>
      </trkpt>
      <trkpt lat="45.91317" lon="6.33652">
        <ele>1470</ele>
        <time>2026-08-19T06:20:37.566Z</time>
      </trkpt>
      <trkpt lat="45.91318" lon="6.33653">
        <ele>1471</ele>
        <time>2026-08-19T06:20:38.566Z</time>
      </trkpt>
      <trkpt lat="45.91319" lon="6.33654">
        <ele>1471</ele>
        <time>2026-08-19T06:20:39.566Z</time>
      </trkpt>
      <trkpt lat="45.91321" lon="6.33654">
        <ele>1472</ele>
        <time>2026-08-19T06:20:40.566Z</time>
      </trkpt>
      <trkpt lat="45.91322" lon="6.33654">
        <ele>1472</ele>
        <time>2026-08-19T06:20:41.566Z</time>
      </trkpt>
      <trkpt lat="45.91323" lon="6.33654">
        <ele>1472</ele>
        <time>2026-08-19T06:20:42.566Z</time>
      </trkpt>
      <trkpt lat="45.91325" lon="6.33653">
        <ele>1472</ele>
        <time>2026-08-19T06:20:43.566Z</time>
      </trkpt>
      <trkpt lat="45.91326" lon="6.33653">
        <ele>1473</ele>
        <time>2026-08-19T06:20:44.566Z</time>
      </trkpt>
      <trkpt lat="45.91327" lon="6.33652">
        <ele>1473</ele>
        <time>2026-08-19T06:20:45.566Z</time>
      </trkpt>
      <trkpt lat="45.91328" lon="6.3365">
        <ele>1473</ele>
        <time>2026-08-19T06:20:46.566Z</time>
      </trkpt>
      <trkpt lat="45.91329" lon="6.33649">
        <ele>1473</ele>
        <time>2026-08-19T06:20:47.566Z</time>
      </trkpt>
      <trkpt lat="45.91331" lon="6.33649">
        <ele>1473</ele>
        <time>2026-08-19T06:20:48.566Z</time>
      </trkpt>
      <trkpt lat="45.91332" lon="6.3365">
        <ele>1473</ele>
        <time>2026-08-19T06:20:49.566Z</time>
      </trkpt>
      <trkpt lat="45.91333" lon="6.33651">
        <ele>1473</ele>
        <time>2026-08-19T06:20:50.566Z</time>
      </trkpt>
      <trkpt lat="45.91334" lon="6.33653">
        <ele>1474</ele>
        <time>2026-08-19T06:20:51.566Z</time>
      </trkpt>
      <trkpt lat="45.91335" lon="6.33654">
        <ele>1474</ele>
        <time>2026-08-19T06:20:52.566Z</time>
      </trkpt>
      <trkpt lat="45.91336" lon="6.33655">
        <ele>1474</ele>
        <time>2026-08-19T06:20:53.566Z</time>
      </trkpt>
      <trkpt lat="45.91338" lon="6.33656">
        <ele>1474</ele>
        <time>2026-08-19T06:20:54.566Z</time>
      </trkpt>
      <trkpt lat="45.91339" lon="6.33656">
        <ele>1474</ele>
        <time>2026-08-19T06:20:55.566Z</time>
      </trkpt>
      <trkpt lat="45.9134" lon="6.33657">
        <ele>1474</ele>
        <time>2026-08-19T06:20:56.566Z</time>
      </trkpt>
      <trkpt lat="45.91341" lon="6.33659">
        <ele>1475</ele>
        <time>2026-08-19T06:20:57.566Z</time>
      </trkpt>
      <trkpt lat="45.91342" lon="6.33661">
        <ele>1475</ele>
        <time>2026-08-19T06:20:58.566Z</time>
      </trkpt>
      <trkpt lat="45.91344" lon="6.33662">
        <ele>1475</ele>
        <time>2026-08-19T06:20:59.566Z</time>
      </trkpt>
      <trkpt lat="45.91345" lon="6.33663">
        <ele>1475</ele>
        <time>2026-08-19T06:21:00.566Z</time>
      </trkpt>
      <trkpt lat="45.91347" lon="6.33663">
        <ele>1476</ele>
        <time>2026-08-19T06:21:01.566Z</time>
      </trkpt>
      <trkpt lat="45.91348" lon="6.33664">
        <ele>1476</ele>
        <time>2026-08-19T06:21:02.566Z</time>
      </trkpt>
      <trkpt lat="45.91348" lon="6.33664">
        <ele>1476</ele>
        <time>2026-08-19T06:21:03.566Z</time>
      </trkpt>
      <trkpt lat="45.91349" lon="6.33665">
        <ele>1476</ele>
        <time>2026-08-19T06:21:04.566Z</time>
      </trkpt>
      <trkpt lat="45.9135" lon="6.33665">
        <ele>1476</ele>
        <time>2026-08-19T06:21:05.566Z</time>
      </trkpt>
      <trkpt lat="45.91351" lon="6.33666">
        <ele>1476</ele>
        <time>2026-08-19T06:21:06.566Z</time>
      </trkpt>
      <trkpt lat="45.91352" lon="6.33667">
        <ele>1477</ele>
        <time>2026-08-19T06:21:07.566Z</time>
      </trkpt>
      <trkpt lat="45.91352" lon="6.33668">
        <ele>1477</ele>
        <time>2026-08-19T06:21:08.566Z</time>
      </trkpt>
      <trkpt lat="45.91353" lon="6.33669">
        <ele>1477</ele>
        <time>2026-08-19T06:21:09.566Z</time>
      </trkpt>
      <trkpt lat="45.91353" lon="6.3367">
        <ele>1477</ele>
        <time>2026-08-19T06:21:10.566Z</time>
      </trkpt>
      <trkpt lat="45.91354" lon="6.33671">
        <ele>1477</ele>
        <time>2026-08-19T06:21:11.566Z</time>
      </trkpt>
      <trkpt lat="45.91355" lon="6.33672">
        <ele>1477</ele>
        <time>2026-08-19T06:21:12.566Z</time>
      </trkpt>
      <trkpt lat="45.91356" lon="6.33673">
        <ele>1478</ele>
        <time>2026-08-19T06:21:13.566Z</time>
      </trkpt>
      <trkpt lat="45.91357" lon="6.33673">
        <ele>1478</ele>
        <time>2026-08-19T06:21:14.566Z</time>
      </trkpt>
      <trkpt lat="45.91358" lon="6.33673">
        <ele>1478</ele>
        <time>2026-08-19T06:21:15.566Z</time>
      </trkpt>
      <trkpt lat="45.91359" lon="6.33674">
        <ele>1478</ele>
        <time>2026-08-19T06:21:16.566Z</time>
      </trkpt>
      <trkpt lat="45.9136" lon="6.33675">
        <ele>1478</ele>
        <time>2026-08-19T06:21:17.566Z</time>
      </trkpt>
      <trkpt lat="45.91362" lon="6.33676">
        <ele>1478</ele>
        <time>2026-08-19T06:21:18.566Z</time>
      </trkpt>
      <trkpt lat="45.91363" lon="6.33677">
        <ele>1478</ele>
        <time>2026-08-19T06:21:19.566Z</time>
      </trkpt>
      <trkpt lat="45.91364" lon="6.33676">
        <ele>1478</ele>
        <time>2026-08-19T06:21:20.566Z</time>
      </trkpt>
      <trkpt lat="45.91365" lon="6.33676">
        <ele>1477</ele>
        <time>2026-08-19T06:21:21.566Z</time>
      </trkpt>
      <trkpt lat="45.91367" lon="6.33676">
        <ele>1477</ele>
        <time>2026-08-19T06:21:22.566Z</time>
      </trkpt>
      <trkpt lat="45.91368" lon="6.33676">
        <ele>1476</ele>
        <time>2026-08-19T06:21:23.566Z</time>
      </trkpt>
      <trkpt lat="45.91369" lon="6.33677">
        <ele>1476</ele>
        <time>2026-08-19T06:21:24.566Z</time>
      </trkpt>
      <trkpt lat="45.9137" lon="6.33678">
        <ele>1476</ele>
        <time>2026-08-19T06:21:25.566Z</time>
      </trkpt>
      <trkpt lat="45.91371" lon="6.33678">
        <ele>1476</ele>
        <time>2026-08-19T06:21:26.566Z</time>
      </trkpt>
      <trkpt lat="45.91372" lon="6.33679">
        <ele>1476</ele>
        <time>2026-08-19T06:21:27.566Z</time>
      </trkpt>
      <trkpt lat="45.91372" lon="6.33679">
        <ele>1477</ele>
        <time>2026-08-19T06:21:28.566Z</time>
      </trkpt>
      <trkpt lat="45.91372" lon="6.33679">
        <ele>1477</ele>
        <time>2026-08-19T06:21:29.566Z</time>
      </trkpt>
      <trkpt lat="45.91373" lon="6.3368">
        <ele>1478</ele>
        <time>2026-08-19T06:21:30.566Z</time>
      </trkpt>
      <trkpt lat="45.91374" lon="6.33681">
        <ele>1478</ele>
        <time>2026-08-19T06:21:31.566Z</time>
      </trkpt>
      <trkpt lat="45.91375" lon="6.33681">
        <ele>1477</ele>
        <time>2026-08-19T06:21:32.566Z</time>
      </trkpt>
      <trkpt lat="45.91376" lon="6.3368">
        <ele>1477</ele>
        <time>2026-08-19T06:21:33.566Z</time>
      </trkpt>
      <trkpt lat="45.91377" lon="6.33681">
        <ele>1477</ele>
        <time>2026-08-19T06:21:34.566Z</time>
      </trkpt>
      <trkpt lat="45.91378" lon="6.33681">
        <ele>1477</ele>
        <time>2026-08-19T06:21:35.566Z</time>
      </trkpt>
      <trkpt lat="45.91379" lon="6.33681">
        <ele>1477</ele>
        <time>2026-08-19T06:21:36.566Z</time>
      </trkpt>
      <trkpt lat="45.9138" lon="6.33681">
        <ele>1478</ele>
        <time>2026-08-19T06:21:37.566Z</time>
      </trkpt>
      <trkpt lat="45.91381" lon="6.33681">
        <ele>1478</ele>
        <time>2026-08-19T06:21:38.566Z</time>
      </trkpt>
      <trkpt lat="45.91382" lon="6.33681">
        <ele>1479</ele>
        <time>2026-08-19T06:21:39.566Z</time>
      </trkpt>
      <trkpt lat="45.91382" lon="6.3368">
        <ele>1479</ele>
        <time>2026-08-19T06:21:40.566Z</time>
      </trkpt>
      <trkpt lat="45.91383" lon="6.3368">
        <ele>1479</ele>
        <time>2026-08-19T06:21:41.566Z</time>
      </trkpt>
      <trkpt lat="45.91384" lon="6.3368">
        <ele>1480</ele>
        <time>2026-08-19T06:21:42.566Z</time>
      </trkpt>
      <trkpt lat="45.91384" lon="6.33679">
        <ele>1480</ele>
        <time>2026-08-19T06:21:43.566Z</time>
      </trkpt>
      <trkpt lat="45.91385" lon="6.33679">
        <ele>1481</ele>
        <time>2026-08-19T06:21:44.566Z</time>
      </trkpt>
      <trkpt lat="45.91386" lon="6.33679">
        <ele>1481</ele>
        <time>2026-08-19T06:21:45.566Z</time>
      </trkpt>
      <trkpt lat="45.91387" lon="6.33678">
        <ele>1481</ele>
        <time>2026-08-19T06:21:46.566Z</time>
      </trkpt>
      <trkpt lat="45.91388" lon="6.33677">
        <ele>1481</ele>
        <time>2026-08-19T06:21:47.566Z</time>
      </trkpt>
      <trkpt lat="45.91389" lon="6.33677">
        <ele>1481</ele>
        <time>2026-08-19T06:21:48.566Z</time>
      </trkpt>
      <trkpt lat="45.9139" lon="6.33677">
        <ele>1481</ele>
        <time>2026-08-19T06:21:49.566Z</time>
      </trkpt>
      <trkpt lat="45.91391" lon="6.33677">
        <ele>1481</ele>
        <time>2026-08-19T06:21:50.566Z</time>
      </trkpt>
      <trkpt lat="45.91391" lon="6.33677">
        <ele>1481</ele>
        <time>2026-08-19T06:21:51.566Z</time>
      </trkpt>
      <trkpt lat="45.91392" lon="6.33677">
        <ele>1481</ele>
        <time>2026-08-19T06:21:52.566Z</time>
      </trkpt>
      <trkpt lat="45.91392" lon="6.33677">
        <ele>1481</ele>
        <time>2026-08-19T06:21:53.566Z</time>
      </trkpt>
      <trkpt lat="45.91393" lon="6.33677">
        <ele>1482</ele>
        <time>2026-08-19T06:21:54.566Z</time>
      </trkpt>
      <trkpt lat="45.91394" lon="6.33677">
        <ele>1482</ele>
        <time>2026-08-19T06:21:55.566Z</time>
      </trkpt>
      <trkpt lat="45.91395" lon="6.33677">
        <ele>1482</ele>
        <time>2026-08-19T06:21:56.566Z</time>
      </trkpt>
      <trkpt lat="45.91395" lon="6.33677">
        <ele>1483</ele>
        <time>2026-08-19T06:21:57.566Z</time>
      </trkpt>
      <trkpt lat="45.91396" lon="6.33677">
        <ele>1483</ele>
        <time>2026-08-19T06:21:58.566Z</time>
      </trkpt>
      <trkpt lat="45.91397" lon="6.33676">
        <ele>1484</ele>
        <time>2026-08-19T06:21:59.566Z</time>
      </trkpt>
      <trkpt lat="45.91397" lon="6.33676">
        <ele>1484</ele>
        <time>2026-08-19T06:22:00.566Z</time>
      </trkpt>
      <trkpt lat="45.91398" lon="6.33675">
        <ele>1485</ele>
        <time>2026-08-19T06:22:01.566Z</time>
      </trkpt>
      <trkpt lat="45.91399" lon="6.33675">
        <ele>1485</ele>
        <time>2026-08-19T06:22:02.566Z</time>
      </trkpt>
      <trkpt lat="45.91399" lon="6.33675">
        <ele>1485</ele>
        <time>2026-08-19T06:22:03.566Z</time>
      </trkpt>
      <trkpt lat="45.91398" lon="6.33675">
        <ele>1486</ele>
        <time>2026-08-19T06:22:04.566Z</time>
      </trkpt>
      <trkpt lat="45.91398" lon="6.33675">
        <ele>1486</ele>
        <time>2026-08-19T06:22:05.566Z</time>
      </trkpt>
      <trkpt lat="45.91398" lon="6.33675">
        <ele>1485</ele>
        <time>2026-08-19T06:22:06.566Z</time>
      </trkpt>
      <trkpt lat="45.91398" lon="6.33675">
        <ele>1485</ele>
        <time>2026-08-19T06:22:07.566Z</time>
      </trkpt>
      <trkpt lat="45.91399" lon="6.33675">
        <ele>1485</ele>
        <time>2026-08-19T06:22:08.566Z</time>
      </trkpt>
      <trkpt lat="45.91399" lon="6.33675">
        <ele>1485</ele>
        <time>2026-08-19T06:22:09.566Z</time>
      </trkpt>
      <trkpt lat="45.914" lon="6.33675">
        <ele>1485</ele>
        <time>2026-08-19T06:22:10.566Z</time>
      </trkpt>
      <trkpt lat="45.914" lon="6.33675">
        <ele>1485</ele>
        <time>2026-08-19T06:22:11.566Z</time>
      </trkpt>
      <trkpt lat="45.91401" lon="6.33676">
        <ele>1485</ele>
        <time>2026-08-19T06:22:12.566Z</time>
      </trkpt>
      <trkpt lat="45.91402" lon="6.33676">
        <ele>1485</ele>
        <time>2026-08-19T06:22:13.566Z</time>
      </trkpt>
      <trkpt lat="45.91403" lon="6.33677">
        <ele>1485</ele>
        <time>2026-08-19T06:22:14.566Z</time>
      </trkpt>
      <trkpt lat="45.91404" lon="6.33677">
        <ele>1486</ele>
        <time>2026-08-19T06:22:15.566Z</time>
      </trkpt>
      <trkpt lat="45.91405" lon="6.33677">
        <ele>1486</ele>
        <time>2026-08-19T06:22:16.566Z</time>
      </trkpt>
      <trkpt lat="45.91407" lon="6.33678">
        <ele>1486</ele>
        <time>2026-08-19T06:22:17.566Z</time>
      </trkpt>
      <trkpt lat="45.91408" lon="6.33678">
        <ele>1486</ele>
        <time>2026-08-19T06:22:18.566Z</time>
      </trkpt>
      <trkpt lat="45.91409" lon="6.33678">
        <ele>1486</ele>
        <time>2026-08-19T06:22:19.566Z</time>
      </trkpt>
      <trkpt lat="45.9141" lon="6.33679">
        <ele>1487</ele>
        <time>2026-08-19T06:22:20.566Z</time>
      </trkpt>
      <trkpt lat="45.91412" lon="6.3368">
        <ele>1487</ele>
        <time>2026-08-19T06:22:21.566Z</time>
      </trkpt>
      <trkpt lat="45.91413" lon="6.3368">
        <ele>1487</ele>
        <time>2026-08-19T06:22:22.566Z</time>
      </trkpt>
      <trkpt lat="45.91414" lon="6.33681">
        <ele>1487</ele>
        <time>2026-08-19T06:22:23.566Z</time>
      </trkpt>
      <trkpt lat="45.91414" lon="6.33682">
        <ele>1488</ele>
        <time>2026-08-19T06:22:24.566Z</time>
      </trkpt>
      <trkpt lat="45.91415" lon="6.33684">
        <ele>1488</ele>
        <time>2026-08-19T06:22:25.566Z</time>
      </trkpt>
      <trkpt lat="45.91416" lon="6.33685">
        <ele>1488</ele>
        <time>2026-08-19T06:22:26.566Z</time>
      </trkpt>
      <trkpt lat="45.91417" lon="6.33686">
        <ele>1488</ele>
        <time>2026-08-19T06:22:27.566Z</time>
      </trkpt>
      <trkpt lat="45.91418" lon="6.33686">
        <ele>1488</ele>
        <time>2026-08-19T06:22:28.566Z</time>
      </trkpt>
      <trkpt lat="45.91419" lon="6.33686">
        <ele>1488</ele>
        <time>2026-08-19T06:22:29.566Z</time>
      </trkpt>
      <trkpt lat="45.9142" lon="6.33687">
        <ele>1488</ele>
        <time>2026-08-19T06:22:30.566Z</time>
      </trkpt>
      <trkpt lat="45.91421" lon="6.33687">
        <ele>1489</ele>
        <time>2026-08-19T06:22:31.566Z</time>
      </trkpt>
      <trkpt lat="45.91423" lon="6.33687">
        <ele>1489</ele>
        <time>2026-08-19T06:22:32.566Z</time>
      </trkpt>
      <trkpt lat="45.91424" lon="6.33688">
        <ele>1489</ele>
        <time>2026-08-19T06:22:33.566Z</time>
      </trkpt>
      <trkpt lat="45.91425" lon="6.33688">
        <ele>1489</ele>
        <time>2026-08-19T06:22:34.566Z</time>
      </trkpt>
      <trkpt lat="45.91426" lon="6.33689">
        <ele>1488</ele>
        <time>2026-08-19T06:22:35.566Z</time>
      </trkpt>
      <trkpt lat="45.91427" lon="6.33689">
        <ele>1488</ele>
        <time>2026-08-19T06:22:36.566Z</time>
      </trkpt>
      <trkpt lat="45.91429" lon="6.33689">
        <ele>1488</ele>
        <time>2026-08-19T06:22:37.566Z</time>
      </trkpt>
      <trkpt lat="45.9143" lon="6.3369">
        <ele>1488</ele>
        <time>2026-08-19T06:22:38.566Z</time>
      </trkpt>
      <trkpt lat="45.91431" lon="6.33691">
        <ele>1488</ele>
        <time>2026-08-19T06:22:39.566Z</time>
      </trkpt>
      <trkpt lat="45.91431" lon="6.33692">
        <ele>1489</ele>
        <time>2026-08-19T06:22:40.566Z</time>
      </trkpt>
      <trkpt lat="45.91432" lon="6.33694">
        <ele>1489</ele>
        <time>2026-08-19T06:22:41.566Z</time>
      </trkpt>
      <trkpt lat="45.91433" lon="6.33696">
        <ele>1489</ele>
        <time>2026-08-19T06:22:42.566Z</time>
      </trkpt>
      <trkpt lat="45.91434" lon="6.33697">
        <ele>1489</ele>
        <time>2026-08-19T06:22:43.566Z</time>
      </trkpt>
      <trkpt lat="45.91435" lon="6.33699">
        <ele>1489</ele>
        <time>2026-08-19T06:22:44.566Z</time>
      </trkpt>
      <trkpt lat="45.91436" lon="6.337">
        <ele>1489</ele>
        <time>2026-08-19T06:22:45.566Z</time>
      </trkpt>
      <trkpt lat="45.91437" lon="6.33701">
        <ele>1489</ele>
        <time>2026-08-19T06:22:46.566Z</time>
      </trkpt>
      <trkpt lat="45.91438" lon="6.33702">
        <ele>1489</ele>
        <time>2026-08-19T06:22:47.566Z</time>
      </trkpt>
      <trkpt lat="45.91439" lon="6.33702">
        <ele>1490</ele>
        <time>2026-08-19T06:22:48.566Z</time>
      </trkpt>
      <trkpt lat="45.9144" lon="6.33703">
        <ele>1490</ele>
        <time>2026-08-19T06:22:49.566Z</time>
      </trkpt>
      <trkpt lat="45.91441" lon="6.33703">
        <ele>1491</ele>
        <time>2026-08-19T06:22:50.566Z</time>
      </trkpt>
      <trkpt lat="45.91442" lon="6.33704">
        <ele>1491</ele>
        <time>2026-08-19T06:22:51.566Z</time>
      </trkpt>
      <trkpt lat="45.91443" lon="6.33705">
        <ele>1491</ele>
        <time>2026-08-19T06:22:52.566Z</time>
      </trkpt>
      <trkpt lat="45.91444" lon="6.33706">
        <ele>1491</ele>
        <time>2026-08-19T06:22:53.566Z</time>
      </trkpt>
      <trkpt lat="45.91445" lon="6.33707">
        <ele>1492</ele>
        <time>2026-08-19T06:22:54.566Z</time>
      </trkpt>
      <trkpt lat="45.91446" lon="6.33707">
        <ele>1492</ele>
        <time>2026-08-19T06:22:55.566Z</time>
      </trkpt>
      <trkpt lat="45.91447" lon="6.33708">
        <ele>1492</ele>
        <time>2026-08-19T06:22:56.566Z</time>
      </trkpt>
      <trkpt lat="45.91447" lon="6.33709">
        <ele>1492</ele>
        <time>2026-08-19T06:22:57.566Z</time>
      </trkpt>
      <trkpt lat="45.91448" lon="6.33709">
        <ele>1492</ele>
        <time>2026-08-19T06:22:58.566Z</time>
      </trkpt>
      <trkpt lat="45.91449" lon="6.3371">
        <ele>1493</ele>
        <time>2026-08-19T06:22:59.566Z</time>
      </trkpt>
      <trkpt lat="45.9145" lon="6.3371">
        <ele>1493</ele>
        <time>2026-08-19T06:23:00.566Z</time>
      </trkpt>
      <trkpt lat="45.91451" lon="6.3371">
        <ele>1493</ele>
        <time>2026-08-19T06:23:01.566Z</time>
      </trkpt>
      <trkpt lat="45.91452" lon="6.3371">
        <ele>1493</ele>
        <time>2026-08-19T06:23:02.566Z</time>
      </trkpt>
      <trkpt lat="45.91453" lon="6.33711">
        <ele>1493</ele>
        <time>2026-08-19T06:23:03.566Z</time>
      </trkpt>
      <trkpt lat="45.91454" lon="6.33711">
        <ele>1493</ele>
        <time>2026-08-19T06:23:04.566Z</time>
      </trkpt>
      <trkpt lat="45.91455" lon="6.33711">
        <ele>1493</ele>
        <time>2026-08-19T06:23:05.566Z</time>
      </trkpt>
      <trkpt lat="45.91456" lon="6.33712">
        <ele>1493</ele>
        <time>2026-08-19T06:23:06.566Z</time>
      </trkpt>
      <trkpt lat="45.91457" lon="6.33713">
        <ele>1493</ele>
        <time>2026-08-19T06:23:07.566Z</time>
      </trkpt>
      <trkpt lat="45.91457" lon="6.33713">
        <ele>1493</ele>
        <time>2026-08-19T06:23:08.566Z</time>
      </trkpt>
      <trkpt lat="45.91458" lon="6.33714">
        <ele>1492</ele>
        <time>2026-08-19T06:23:09.566Z</time>
      </trkpt>
      <trkpt lat="45.91459" lon="6.33714">
        <ele>1492</ele>
        <time>2026-08-19T06:23:10.566Z</time>
      </trkpt>
      <trkpt lat="45.91459" lon="6.33714">
        <ele>1492</ele>
        <time>2026-08-19T06:23:11.566Z</time>
      </trkpt>
      <trkpt lat="45.9146" lon="6.33714">
        <ele>1492</ele>
        <time>2026-08-19T06:23:12.566Z</time>
      </trkpt>
      <trkpt lat="45.91461" lon="6.33714">
        <ele>1492</ele>
        <time>2026-08-19T06:23:13.566Z</time>
      </trkpt>
      <trkpt lat="45.91462" lon="6.33714">
        <ele>1492</ele>
        <time>2026-08-19T06:23:14.566Z</time>
      </trkpt>
      <trkpt lat="45.91462" lon="6.33714">
        <ele>1492</ele>
        <time>2026-08-19T06:23:15.566Z</time>
      </trkpt>
      <trkpt lat="45.91463" lon="6.33714">
        <ele>1492</ele>
        <time>2026-08-19T06:23:16.566Z</time>
      </trkpt>
      <trkpt lat="45.91463" lon="6.33713">
        <ele>1492</ele>
        <time>2026-08-19T06:23:17.566Z</time>
      </trkpt>
      <trkpt lat="45.91464" lon="6.33713">
        <ele>1492</ele>
        <time>2026-08-19T06:23:18.566Z</time>
      </trkpt>
      <trkpt lat="45.91465" lon="6.33712">
        <ele>1492</ele>
        <time>2026-08-19T06:23:19.566Z</time>
      </trkpt>
      <trkpt lat="45.91467" lon="6.33712">
        <ele>1492</ele>
        <time>2026-08-19T06:23:20.566Z</time>
      </trkpt>
      <trkpt lat="45.91468" lon="6.33711">
        <ele>1492</ele>
        <time>2026-08-19T06:23:21.566Z</time>
      </trkpt>
      <trkpt lat="45.9147" lon="6.3371">
        <ele>1492</ele>
        <time>2026-08-19T06:23:22.566Z</time>
      </trkpt>
      <trkpt lat="45.91471" lon="6.33709">
        <ele>1493</ele>
        <time>2026-08-19T06:23:23.566Z</time>
      </trkpt>
      <trkpt lat="45.91472" lon="6.33709">
        <ele>1493</ele>
        <time>2026-08-19T06:23:24.566Z</time>
      </trkpt>
      <trkpt lat="45.91474" lon="6.33708">
        <ele>1493</ele>
        <time>2026-08-19T06:23:25.566Z</time>
      </trkpt>
      <trkpt lat="45.91475" lon="6.33708">
        <ele>1493</ele>
        <time>2026-08-19T06:23:26.566Z</time>
      </trkpt>
      <trkpt lat="45.91476" lon="6.33708">
        <ele>1494</ele>
        <time>2026-08-19T06:23:27.566Z</time>
      </trkpt>
      <trkpt lat="45.91476" lon="6.33707">
        <ele>1494</ele>
        <time>2026-08-19T06:23:28.566Z</time>
      </trkpt>
      <trkpt lat="45.91477" lon="6.33708">
        <ele>1494</ele>
        <time>2026-08-19T06:23:29.566Z</time>
      </trkpt>
      <trkpt lat="45.91477" lon="6.33708">
        <ele>1495</ele>
        <time>2026-08-19T06:23:30.566Z</time>
      </trkpt>
      <trkpt lat="45.91478" lon="6.33709">
        <ele>1495</ele>
        <time>2026-08-19T06:23:31.566Z</time>
      </trkpt>
      <trkpt lat="45.91479" lon="6.33709">
        <ele>1495</ele>
        <time>2026-08-19T06:23:32.566Z</time>
      </trkpt>
      <trkpt lat="45.91479" lon="6.33709">
        <ele>1495</ele>
        <time>2026-08-19T06:23:33.566Z</time>
      </trkpt>
      <trkpt lat="45.91481" lon="6.3371">
        <ele>1495</ele>
        <time>2026-08-19T06:23:34.566Z</time>
      </trkpt>
      <trkpt lat="45.91482" lon="6.33711">
        <ele>1496</ele>
        <time>2026-08-19T06:23:35.566Z</time>
      </trkpt>
      <trkpt lat="45.91483" lon="6.33711">
        <ele>1496</ele>
        <time>2026-08-19T06:23:36.566Z</time>
      </trkpt>
      <trkpt lat="45.91484" lon="6.33712">
        <ele>1496</ele>
        <time>2026-08-19T06:23:37.566Z</time>
      </trkpt>
      <trkpt lat="45.91485" lon="6.33713">
        <ele>1497</ele>
        <time>2026-08-19T06:23:38.566Z</time>
      </trkpt>
      <trkpt lat="45.91486" lon="6.33714">
        <ele>1497</ele>
        <time>2026-08-19T06:23:39.566Z</time>
      </trkpt>
      <trkpt lat="45.91487" lon="6.33714">
        <ele>1498</ele>
        <time>2026-08-19T06:23:40.566Z</time>
      </trkpt>
      <trkpt lat="45.91488" lon="6.33715">
        <ele>1498</ele>
        <time>2026-08-19T06:23:41.566Z</time>
      </trkpt>
      <trkpt lat="45.9149" lon="6.33716">
        <ele>1498</ele>
        <time>2026-08-19T06:23:42.566Z</time>
      </trkpt>
      <trkpt lat="45.91491" lon="6.33717">
        <ele>1498</ele>
        <time>2026-08-19T06:23:43.566Z</time>
      </trkpt>
      <trkpt lat="45.91492" lon="6.33719">
        <ele>1498</ele>
        <time>2026-08-19T06:23:44.566Z</time>
      </trkpt>
      <trkpt lat="45.91494" lon="6.3372">
        <ele>1499</ele>
        <time>2026-08-19T06:23:45.566Z</time>
      </trkpt>
      <trkpt lat="45.91495" lon="6.33719">
        <ele>1499</ele>
        <time>2026-08-19T06:23:46.566Z</time>
      </trkpt>
      <trkpt lat="45.91496" lon="6.3372">
        <ele>1500</ele>
        <time>2026-08-19T06:23:47.566Z</time>
      </trkpt>
      <trkpt lat="45.91498" lon="6.33721">
        <ele>1500</ele>
        <time>2026-08-19T06:23:48.566Z</time>
      </trkpt>
      <trkpt lat="45.91498" lon="6.33722">
        <ele>1501</ele>
        <time>2026-08-19T06:23:49.566Z</time>
      </trkpt>
      <trkpt lat="45.91499" lon="6.33723">
        <ele>1501</ele>
        <time>2026-08-19T06:23:50.566Z</time>
      </trkpt>
      <trkpt lat="45.915" lon="6.33724">
        <ele>1501</ele>
        <time>2026-08-19T06:23:51.566Z</time>
      </trkpt>
      <trkpt lat="45.91501" lon="6.33724">
        <ele>1502</ele>
        <time>2026-08-19T06:23:52.566Z</time>
      </trkpt>
      <trkpt lat="45.91502" lon="6.33724">
        <ele>1502</ele>
        <time>2026-08-19T06:23:53.566Z</time>
      </trkpt>
      <trkpt lat="45.91503" lon="6.33725">
        <ele>1502</ele>
        <time>2026-08-19T06:23:54.566Z</time>
      </trkpt>
      <trkpt lat="45.91505" lon="6.33726">
        <ele>1502</ele>
        <time>2026-08-19T06:23:55.566Z</time>
      </trkpt>
      <trkpt lat="45.91506" lon="6.33729">
        <ele>1502</ele>
        <time>2026-08-19T06:23:56.566Z</time>
      </trkpt>
      <trkpt lat="45.91507" lon="6.3373">
        <ele>1502</ele>
        <time>2026-08-19T06:23:57.566Z</time>
      </trkpt>
      <trkpt lat="45.91507" lon="6.33732">
        <ele>1502</ele>
        <time>2026-08-19T06:23:58.566Z</time>
      </trkpt>
      <trkpt lat="45.91507" lon="6.33734">
        <ele>1502</ele>
        <time>2026-08-19T06:23:59.566Z</time>
      </trkpt>
      <trkpt lat="45.91508" lon="6.33737">
        <ele>1502</ele>
        <time>2026-08-19T06:24:00.566Z</time>
      </trkpt>
      <trkpt lat="45.91509" lon="6.33739">
        <ele>1503</ele>
        <time>2026-08-19T06:24:01.566Z</time>
      </trkpt>
      <trkpt lat="45.9151" lon="6.33742">
        <ele>1503</ele>
        <time>2026-08-19T06:24:02.566Z</time>
      </trkpt>
      <trkpt lat="45.91511" lon="6.33744">
        <ele>1503</ele>
        <time>2026-08-19T06:24:03.566Z</time>
      </trkpt>
      <trkpt lat="45.91511" lon="6.33746">
        <ele>1503</ele>
        <time>2026-08-19T06:24:04.566Z</time>
      </trkpt>
      <trkpt lat="45.91512" lon="6.33747">
        <ele>1503</ele>
        <time>2026-08-19T06:24:05.566Z</time>
      </trkpt>
      <trkpt lat="45.91513" lon="6.33747">
        <ele>1504</ele>
        <time>2026-08-19T06:24:06.566Z</time>
      </trkpt>
      <trkpt lat="45.91513" lon="6.33748">
        <ele>1504</ele>
        <time>2026-08-19T06:24:07.566Z</time>
      </trkpt>
      <trkpt lat="45.91514" lon="6.33749">
        <ele>1504</ele>
        <time>2026-08-19T06:24:08.566Z</time>
      </trkpt>
      <trkpt lat="45.91514" lon="6.3375">
        <ele>1504</ele>
        <time>2026-08-19T06:24:09.566Z</time>
      </trkpt>
      <trkpt lat="45.91514" lon="6.33751">
        <ele>1504</ele>
        <time>2026-08-19T06:24:10.566Z</time>
      </trkpt>
      <trkpt lat="45.91515" lon="6.33752">
        <ele>1504</ele>
        <time>2026-08-19T06:24:11.566Z</time>
      </trkpt>
      <trkpt lat="45.91516" lon="6.33753">
        <ele>1504</ele>
        <time>2026-08-19T06:24:12.566Z</time>
      </trkpt>
      <trkpt lat="45.91517" lon="6.33754">
        <ele>1504</ele>
        <time>2026-08-19T06:24:13.566Z</time>
      </trkpt>
      <trkpt lat="45.91518" lon="6.33755">
        <ele>1504</ele>
        <time>2026-08-19T06:24:14.566Z</time>
      </trkpt>
      <trkpt lat="45.91519" lon="6.33755">
        <ele>1504</ele>
        <time>2026-08-19T06:24:15.566Z</time>
      </trkpt>
      <trkpt lat="45.9152" lon="6.33756">
        <ele>1504</ele>
        <time>2026-08-19T06:24:16.566Z</time>
      </trkpt>
      <trkpt lat="45.9152" lon="6.33757">
        <ele>1504</ele>
        <time>2026-08-19T06:24:17.566Z</time>
      </trkpt>
      <trkpt lat="45.91521" lon="6.33758">
        <ele>1504</ele>
        <time>2026-08-19T06:24:18.566Z</time>
      </trkpt>
      <trkpt lat="45.91522" lon="6.33759">
        <ele>1504</ele>
        <time>2026-08-19T06:24:19.566Z</time>
      </trkpt>
      <trkpt lat="45.91522" lon="6.3376">
        <ele>1504</ele>
        <time>2026-08-19T06:24:20.566Z</time>
      </trkpt>
      <trkpt lat="45.91523" lon="6.33761">
        <ele>1503</ele>
        <time>2026-08-19T06:24:21.566Z</time>
      </trkpt>
      <trkpt lat="45.91523" lon="6.33762">
        <ele>1503</ele>
        <time>2026-08-19T06:24:22.566Z</time>
      </trkpt>
      <trkpt lat="45.91524" lon="6.33764">
        <ele>1503</ele>
        <time>2026-08-19T06:24:23.566Z</time>
      </trkpt>
      <trkpt lat="45.91525" lon="6.33765">
        <ele>1503</ele>
        <time>2026-08-19T06:24:24.566Z</time>
      </trkpt>
      <trkpt lat="45.91525" lon="6.33765">
        <ele>1503</ele>
        <time>2026-08-19T06:24:25.566Z</time>
      </trkpt>
      <trkpt lat="45.91525" lon="6.33766">
        <ele>1504</ele>
        <time>2026-08-19T06:24:26.566Z</time>
      </trkpt>
      <trkpt lat="45.91525" lon="6.33766">
        <ele>1505</ele>
        <time>2026-08-19T06:24:27.566Z</time>
      </trkpt>
      <trkpt lat="45.91525" lon="6.33765">
        <ele>1506</ele>
        <time>2026-08-19T06:24:28.566Z</time>
      </trkpt>
      <trkpt lat="45.91524" lon="6.33765">
        <ele>1507</ele>
        <time>2026-08-19T06:24:29.566Z</time>
      </trkpt>
      <trkpt lat="45.91523" lon="6.33767">
        <ele>1507</ele>
        <time>2026-08-19T06:24:30.566Z</time>
      </trkpt>
      <trkpt lat="45.91522" lon="6.33766">
        <ele>1508</ele>
        <time>2026-08-19T06:24:31.566Z</time>
      </trkpt>
      <trkpt lat="45.91522" lon="6.33766">
        <ele>1508</ele>
        <time>2026-08-19T06:24:32.566Z</time>
      </trkpt>
      <trkpt lat="45.91522" lon="6.33766">
        <ele>1508</ele>
        <time>2026-08-19T06:24:33.566Z</time>
      </trkpt>
      <trkpt lat="45.91523" lon="6.33766">
        <ele>1508</ele>
        <time>2026-08-19T06:24:34.566Z</time>
      </trkpt>
      <trkpt lat="45.91523" lon="6.33767">
        <ele>1508</ele>
        <time>2026-08-19T06:24:35.566Z</time>
      </trkpt>
      <trkpt lat="45.91523" lon="6.33767">
        <ele>1508</ele>
        <time>2026-08-19T06:24:36.566Z</time>
      </trkpt>
      <trkpt lat="45.91523" lon="6.33766">
        <ele>1508</ele>
        <time>2026-08-19T06:24:37.566Z</time>
      </trkpt>
      <trkpt lat="45.91523" lon="6.33766">
        <ele>1508</ele>
        <time>2026-08-19T06:24:38.566Z</time>
      </trkpt>
      <trkpt lat="45.91523" lon="6.33766">
        <ele>1509</ele>
        <time>2026-08-19T06:24:39.566Z</time>
      </trkpt>
      <trkpt lat="45.91523" lon="6.33766">
        <ele>1509</ele>
        <time>2026-08-19T06:24:40.566Z</time>
      </trkpt>
      <trkpt lat="45.91523" lon="6.33766">
        <ele>1509</ele>
        <time>2026-08-19T06:24:41.566Z</time>
      </trkpt>
      <trkpt lat="45.91523" lon="6.33766">
        <ele>1509</ele>
        <time>2026-08-19T06:24:42.566Z</time>
      </trkpt>
      <trkpt lat="45.91523" lon="6.33766">
        <ele>1509</ele>
        <time>2026-08-19T06:24:43.566Z</time>
      </trkpt>
      <trkpt lat="45.91523" lon="6.33766">
        <ele>1509</ele>
        <time>2026-08-19T06:24:44.566Z</time>
      </trkpt>
      <trkpt lat="45.91523" lon="6.33766">
        <ele>1509</ele>
        <time>2026-08-19T06:24:45.566Z</time>
      </trkpt>
      <trkpt lat="45.91523" lon="6.33766">
        <ele>1509</ele>
        <time>2026-08-19T06:24:46.566Z</time>
      </trkpt>
      <trkpt lat="45.91523" lon="6.33766">
        <ele>1509</ele>
        <time>2026-08-19T06:24:47.566Z</time>
      </trkpt>
      <trkpt lat="45.91523" lon="6.33766">
        <ele>1510</ele>
        <time>2026-08-19T06:24:48.566Z</time>
      </trkpt>
      <trkpt lat="45.91523" lon="6.33766">
        <ele>1510</ele>
        <time>2026-08-19T06:24:49.566Z</time>
      </trkpt>
      <trkpt lat="45.91523" lon="6.33766">
        <ele>1510</ele>
        <time>2026-08-19T06:24:50.566Z</time>
      </trkpt>
      <trkpt lat="45.91523" lon="6.33766">
        <ele>1510</ele>
        <time>2026-08-19T06:24:51.566Z</time>
      </trkpt>
      <trkpt lat="45.91524" lon="6.33767">
        <ele>1510</ele>
        <time>2026-08-19T06:24:52.566Z</time>
      </trkpt>
      <trkpt lat="45.91525" lon="6.33769">
        <ele>1510</ele>
        <time>2026-08-19T06:24:53.566Z</time>
      </trkpt>
      <trkpt lat="45.91527" lon="6.33771">
        <ele>1510</ele>
        <time>2026-08-19T06:24:54.566Z</time>
      </trkpt>
      <trkpt lat="45.91528" lon="6.33773">
        <ele>1510</ele>
        <time>2026-08-19T06:24:55.566Z</time>
      </trkpt>
      <trkpt lat="45.9153" lon="6.33775">
        <ele>1510</ele>
        <time>2026-08-19T06:24:56.566Z</time>
      </trkpt>
      <trkpt lat="45.91531" lon="6.33776">
        <ele>1510</ele>
        <time>2026-08-19T06:24:57.566Z</time>
      </trkpt>
      <trkpt lat="45.91532" lon="6.33778">
        <ele>1510</ele>
        <time>2026-08-19T06:24:58.566Z</time>
      </trkpt>
      <trkpt lat="45.91534" lon="6.3378">
        <ele>1510</ele>
        <time>2026-08-19T06:24:59.566Z</time>
      </trkpt>
      <trkpt lat="45.91535" lon="6.33782">
        <ele>1510</ele>
        <time>2026-08-19T06:25:00.566Z</time>
      </trkpt>
      <trkpt lat="45.91537" lon="6.33785">
        <ele>1510</ele>
        <time>2026-08-19T06:25:01.566Z</time>
      </trkpt>
      <trkpt lat="45.91538" lon="6.33787">
        <ele>1511</ele>
        <time>2026-08-19T06:25:02.566Z</time>
      </trkpt>
      <trkpt lat="45.91538" lon="6.33789">
        <ele>1511</ele>
        <time>2026-08-19T06:25:03.566Z</time>
      </trkpt>
      <trkpt lat="45.91539" lon="6.33791">
        <ele>1511</ele>
        <time>2026-08-19T06:25:04.566Z</time>
      </trkpt>
      <trkpt lat="45.91541" lon="6.33792">
        <ele>1510</ele>
        <time>2026-08-19T06:25:05.566Z</time>
      </trkpt>
      <trkpt lat="45.91542" lon="6.33793">
        <ele>1510</ele>
        <time>2026-08-19T06:25:06.566Z</time>
      </trkpt>
      <trkpt lat="45.91543" lon="6.33793">
        <ele>1511</ele>
        <time>2026-08-19T06:25:07.566Z</time>
      </trkpt>
      <trkpt lat="45.91544" lon="6.33794">
        <ele>1511</ele>
        <time>2026-08-19T06:25:08.566Z</time>
      </trkpt>
      <trkpt lat="45.91545" lon="6.33795">
        <ele>1511</ele>
        <time>2026-08-19T06:25:09.566Z</time>
      </trkpt>
      <trkpt lat="45.91546" lon="6.33796">
        <ele>1511</ele>
        <time>2026-08-19T06:25:10.566Z</time>
      </trkpt>
      <trkpt lat="45.91546" lon="6.33797">
        <ele>1511</ele>
        <time>2026-08-19T06:25:11.566Z</time>
      </trkpt>
      <trkpt lat="45.91547" lon="6.33798">
        <ele>1511</ele>
        <time>2026-08-19T06:25:12.566Z</time>
      </trkpt>
      <trkpt lat="45.91548" lon="6.33799">
        <ele>1511</ele>
        <time>2026-08-19T06:25:13.566Z</time>
      </trkpt>
      <trkpt lat="45.91549" lon="6.338">
        <ele>1511</ele>
        <time>2026-08-19T06:25:14.566Z</time>
      </trkpt>
      <trkpt lat="45.9155" lon="6.338">
        <ele>1511</ele>
        <time>2026-08-19T06:25:15.566Z</time>
      </trkpt>
      <trkpt lat="45.91551" lon="6.33801">
        <ele>1511</ele>
        <time>2026-08-19T06:25:16.566Z</time>
      </trkpt>
      <trkpt lat="45.91552" lon="6.33802">
        <ele>1511</ele>
        <time>2026-08-19T06:25:17.566Z</time>
      </trkpt>
      <trkpt lat="45.91553" lon="6.33802">
        <ele>1511</ele>
        <time>2026-08-19T06:25:18.566Z</time>
      </trkpt>
      <trkpt lat="45.91554" lon="6.33802">
        <ele>1511</ele>
        <time>2026-08-19T06:25:19.566Z</time>
      </trkpt>
      <trkpt lat="45.91555" lon="6.33803">
        <ele>1512</ele>
        <time>2026-08-19T06:25:20.566Z</time>
      </trkpt>
      <trkpt lat="45.91556" lon="6.33803">
        <ele>1512</ele>
        <time>2026-08-19T06:25:21.566Z</time>
      </trkpt>
      <trkpt lat="45.91557" lon="6.33803">
        <ele>1512</ele>
        <time>2026-08-19T06:25:22.566Z</time>
      </trkpt>
      <trkpt lat="45.91558" lon="6.33804">
        <ele>1512</ele>
        <time>2026-08-19T06:25:23.566Z</time>
      </trkpt>
      <trkpt lat="45.91559" lon="6.33805">
        <ele>1512</ele>
        <time>2026-08-19T06:25:24.566Z</time>
      </trkpt>
      <trkpt lat="45.9156" lon="6.33805">
        <ele>1512</ele>
        <time>2026-08-19T06:25:25.566Z</time>
      </trkpt>
      <trkpt lat="45.91561" lon="6.33806">
        <ele>1512</ele>
        <time>2026-08-19T06:25:26.566Z</time>
      </trkpt>
      <trkpt lat="45.91561" lon="6.33808">
        <ele>1512</ele>
        <time>2026-08-19T06:25:27.566Z</time>
      </trkpt>
      <trkpt lat="45.91561" lon="6.33809">
        <ele>1513</ele>
        <time>2026-08-19T06:25:28.566Z</time>
      </trkpt>
      <trkpt lat="45.91562" lon="6.3381">
        <ele>1513</ele>
        <time>2026-08-19T06:25:29.566Z</time>
      </trkpt>
      <trkpt lat="45.91562" lon="6.33811">
        <ele>1513</ele>
        <time>2026-08-19T06:25:30.566Z</time>
      </trkpt>
      <trkpt lat="45.91563" lon="6.33812">
        <ele>1513</ele>
        <time>2026-08-19T06:25:31.566Z</time>
      </trkpt>
      <trkpt lat="45.91564" lon="6.33813">
        <ele>1514</ele>
        <time>2026-08-19T06:25:32.566Z</time>
      </trkpt>
      <trkpt lat="45.91564" lon="6.33814">
        <ele>1514</ele>
        <time>2026-08-19T06:25:33.566Z</time>
      </trkpt>
      <trkpt lat="45.91564" lon="6.33815">
        <ele>1514</ele>
        <time>2026-08-19T06:25:34.566Z</time>
      </trkpt>
      <trkpt lat="45.91565" lon="6.33815">
        <ele>1514</ele>
        <time>2026-08-19T06:25:35.566Z</time>
      </trkpt>
      <trkpt lat="45.91566" lon="6.33815">
        <ele>1515</ele>
        <time>2026-08-19T06:25:36.566Z</time>
      </trkpt>
      <trkpt lat="45.91567" lon="6.33816">
        <ele>1515</ele>
        <time>2026-08-19T06:25:37.566Z</time>
      </trkpt>
      <trkpt lat="45.91567" lon="6.33816">
        <ele>1515</ele>
        <time>2026-08-19T06:25:38.566Z</time>
      </trkpt>
      <trkpt lat="45.91568" lon="6.33817">
        <ele>1515</ele>
        <time>2026-08-19T06:25:39.566Z</time>
      </trkpt>
      <trkpt lat="45.91569" lon="6.33818">
        <ele>1515</ele>
        <time>2026-08-19T06:25:40.566Z</time>
      </trkpt>
      <trkpt lat="45.9157" lon="6.33819">
        <ele>1515</ele>
        <time>2026-08-19T06:25:41.566Z</time>
      </trkpt>
      <trkpt lat="45.91571" lon="6.3382">
        <ele>1515</ele>
        <time>2026-08-19T06:25:42.566Z</time>
      </trkpt>
      <trkpt lat="45.91571" lon="6.3382">
        <ele>1515</ele>
        <time>2026-08-19T06:25:43.566Z</time>
      </trkpt>
      <trkpt lat="45.91572" lon="6.3382">
        <ele>1516</ele>
        <time>2026-08-19T06:25:44.566Z</time>
      </trkpt>
      <trkpt lat="45.91573" lon="6.3382">
        <ele>1516</ele>
        <time>2026-08-19T06:25:45.566Z</time>
      </trkpt>
      <trkpt lat="45.91574" lon="6.3382">
        <ele>1516</ele>
        <time>2026-08-19T06:25:46.566Z</time>
      </trkpt>
      <trkpt lat="45.91574" lon="6.3382">
        <ele>1517</ele>
        <time>2026-08-19T06:25:47.566Z</time>
      </trkpt>
      <trkpt lat="45.91575" lon="6.33821">
        <ele>1517</ele>
        <time>2026-08-19T06:25:48.566Z</time>
      </trkpt>
      <trkpt lat="45.91576" lon="6.33821">
        <ele>1518</ele>
        <time>2026-08-19T06:25:49.566Z</time>
      </trkpt>
      <trkpt lat="45.91577" lon="6.33821">
        <ele>1518</ele>
        <time>2026-08-19T06:25:50.566Z</time>
      </trkpt>
      <trkpt lat="45.91577" lon="6.33822">
        <ele>1518</ele>
        <time>2026-08-19T06:25:51.566Z</time>
      </trkpt>
      <trkpt lat="45.91578" lon="6.33823">
        <ele>1519</ele>
        <time>2026-08-19T06:25:52.566Z</time>
      </trkpt>
      <trkpt lat="45.91579" lon="6.33823">
        <ele>1519</ele>
        <time>2026-08-19T06:25:53.566Z</time>
      </trkpt>
      <trkpt lat="45.91579" lon="6.33824">
        <ele>1519</ele>
        <time>2026-08-19T06:25:54.566Z</time>
      </trkpt>
      <trkpt lat="45.9158" lon="6.33824">
        <ele>1519</ele>
        <time>2026-08-19T06:25:55.566Z</time>
      </trkpt>
      <trkpt lat="45.9158" lon="6.33825">
        <ele>1519</ele>
        <time>2026-08-19T06:25:56.566Z</time>
      </trkpt>
      <trkpt lat="45.91581" lon="6.33826">
        <ele>1519</ele>
        <time>2026-08-19T06:25:57.566Z</time>
      </trkpt>
      <trkpt lat="45.91581" lon="6.33827">
        <ele>1519</ele>
        <time>2026-08-19T06:25:58.566Z</time>
      </trkpt>
      <trkpt lat="45.91582" lon="6.33828">
        <ele>1520</ele>
        <time>2026-08-19T06:25:59.566Z</time>
      </trkpt>
      <trkpt lat="45.91582" lon="6.33828">
        <ele>1520</ele>
        <time>2026-08-19T06:26:00.566Z</time>
      </trkpt>
      <trkpt lat="45.91583" lon="6.33829">
        <ele>1520</ele>
        <time>2026-08-19T06:26:01.566Z</time>
      </trkpt>
      <trkpt lat="45.91584" lon="6.33829">
        <ele>1520</ele>
        <time>2026-08-19T06:26:02.566Z</time>
      </trkpt>
      <trkpt lat="45.91585" lon="6.3383">
        <ele>1520</ele>
        <time>2026-08-19T06:26:03.566Z</time>
      </trkpt>
      <trkpt lat="45.91586" lon="6.33831">
        <ele>1520</ele>
        <time>2026-08-19T06:26:04.566Z</time>
      </trkpt>
      <trkpt lat="45.91586" lon="6.33831">
        <ele>1521</ele>
        <time>2026-08-19T06:26:05.566Z</time>
      </trkpt>
      <trkpt lat="45.91586" lon="6.33832">
        <ele>1521</ele>
        <time>2026-08-19T06:26:06.566Z</time>
      </trkpt>
      <trkpt lat="45.91586" lon="6.33834">
        <ele>1520</ele>
        <time>2026-08-19T06:26:07.566Z</time>
      </trkpt>
      <trkpt lat="45.91586" lon="6.33835">
        <ele>1520</ele>
        <time>2026-08-19T06:26:08.566Z</time>
      </trkpt>
      <trkpt lat="45.91586" lon="6.33836">
        <ele>1520</ele>
        <time>2026-08-19T06:26:09.566Z</time>
      </trkpt>
      <trkpt lat="45.91586" lon="6.33837">
        <ele>1520</ele>
        <time>2026-08-19T06:26:10.566Z</time>
      </trkpt>
      <trkpt lat="45.91587" lon="6.33839">
        <ele>1521</ele>
        <time>2026-08-19T06:26:11.566Z</time>
      </trkpt>
      <trkpt lat="45.91587" lon="6.3384">
        <ele>1521</ele>
        <time>2026-08-19T06:26:12.566Z</time>
      </trkpt>
      <trkpt lat="45.91588" lon="6.3384">
        <ele>1522</ele>
        <time>2026-08-19T06:26:13.566Z</time>
      </trkpt>
      <trkpt lat="45.91589" lon="6.33841">
        <ele>1522</ele>
        <time>2026-08-19T06:26:14.566Z</time>
      </trkpt>
      <trkpt lat="45.91589" lon="6.33842">
        <ele>1522</ele>
        <time>2026-08-19T06:26:15.566Z</time>
      </trkpt>
      <trkpt lat="45.9159" lon="6.33842">
        <ele>1522</ele>
        <time>2026-08-19T06:26:16.566Z</time>
      </trkpt>
      <trkpt lat="45.9159" lon="6.33843">
        <ele>1522</ele>
        <time>2026-08-19T06:26:17.566Z</time>
      </trkpt>
      <trkpt lat="45.9159" lon="6.33843">
        <ele>1522</ele>
        <time>2026-08-19T06:26:18.566Z</time>
      </trkpt>
      <trkpt lat="45.9159" lon="6.33843">
        <ele>1522</ele>
        <time>2026-08-19T06:26:19.566Z</time>
      </trkpt>
      <trkpt lat="45.9159" lon="6.33843">
        <ele>1523</ele>
        <time>2026-08-19T06:26:20.566Z</time>
      </trkpt>
      <trkpt lat="45.9159" lon="6.33844">
        <ele>1523</ele>
        <time>2026-08-19T06:26:21.566Z</time>
      </trkpt>
      <trkpt lat="45.9159" lon="6.33844">
        <ele>1523</ele>
        <time>2026-08-19T06:26:22.566Z</time>
      </trkpt>
      <trkpt lat="45.9159" lon="6.33844">
        <ele>1522</ele>
        <time>2026-08-19T06:26:23.566Z</time>
      </trkpt>
      <trkpt lat="45.9159" lon="6.33844">
        <ele>1522</ele>
        <time>2026-08-19T06:26:24.566Z</time>
      </trkpt>
      <trkpt lat="45.91591" lon="6.33844">
        <ele>1523</ele>
        <time>2026-08-19T06:26:25.566Z</time>
      </trkpt>
      <trkpt lat="45.91591" lon="6.33844">
        <ele>1523</ele>
        <time>2026-08-19T06:26:26.566Z</time>
      </trkpt>
      <trkpt lat="45.91592" lon="6.33844">
        <ele>1523</ele>
        <time>2026-08-19T06:26:27.566Z</time>
      </trkpt>
      <trkpt lat="45.91593" lon="6.33845">
        <ele>1523</ele>
        <time>2026-08-19T06:26:28.566Z</time>
      </trkpt>
      <trkpt lat="45.91593" lon="6.33845">
        <ele>1524</ele>
        <time>2026-08-19T06:26:29.566Z</time>
      </trkpt>
      <trkpt lat="45.91594" lon="6.33846">
        <ele>1524</ele>
        <time>2026-08-19T06:26:30.566Z</time>
      </trkpt>
      <trkpt lat="45.91594" lon="6.33847">
        <ele>1524</ele>
        <time>2026-08-19T06:26:31.566Z</time>
      </trkpt>
      <trkpt lat="45.91595" lon="6.33848">
        <ele>1524</ele>
        <time>2026-08-19T06:26:32.566Z</time>
      </trkpt>
      <trkpt lat="45.91596" lon="6.33849">
        <ele>1524</ele>
        <time>2026-08-19T06:26:33.566Z</time>
      </trkpt>
      <trkpt lat="45.91597" lon="6.3385">
        <ele>1524</ele>
        <time>2026-08-19T06:26:34.566Z</time>
      </trkpt>
      <trkpt lat="45.91597" lon="6.3385">
        <ele>1524</ele>
        <time>2026-08-19T06:26:35.566Z</time>
      </trkpt>
      <trkpt lat="45.91598" lon="6.33851">
        <ele>1524</ele>
        <time>2026-08-19T06:26:36.566Z</time>
      </trkpt>
      <trkpt lat="45.91599" lon="6.33851">
        <ele>1524</ele>
        <time>2026-08-19T06:26:37.566Z</time>
      </trkpt>
      <trkpt lat="45.91599" lon="6.33851">
        <ele>1525</ele>
        <time>2026-08-19T06:26:38.566Z</time>
      </trkpt>
      <trkpt lat="45.916" lon="6.3385">
        <ele>1525</ele>
        <time>2026-08-19T06:26:39.566Z</time>
      </trkpt>
      <trkpt lat="45.91601" lon="6.3385">
        <ele>1526</ele>
        <time>2026-08-19T06:26:40.566Z</time>
      </trkpt>
      <trkpt lat="45.91602" lon="6.3385">
        <ele>1527</ele>
        <time>2026-08-19T06:26:41.566Z</time>
      </trkpt>
      <trkpt lat="45.91603" lon="6.3385">
        <ele>1527</ele>
        <time>2026-08-19T06:26:42.566Z</time>
      </trkpt>
      <trkpt lat="45.91604" lon="6.3385">
        <ele>1528</ele>
        <time>2026-08-19T06:26:43.566Z</time>
      </trkpt>
      <trkpt lat="45.91605" lon="6.3385">
        <ele>1528</ele>
        <time>2026-08-19T06:26:44.566Z</time>
      </trkpt>
      <trkpt lat="45.91606" lon="6.33851">
        <ele>1529</ele>
        <time>2026-08-19T06:26:45.566Z</time>
      </trkpt>
      <trkpt lat="45.91607" lon="6.33852">
        <ele>1529</ele>
        <time>2026-08-19T06:26:46.566Z</time>
      </trkpt>
      <trkpt lat="45.91608" lon="6.33852">
        <ele>1530</ele>
        <time>2026-08-19T06:26:47.566Z</time>
      </trkpt>
      <trkpt lat="45.91609" lon="6.33853">
        <ele>1530</ele>
        <time>2026-08-19T06:26:48.566Z</time>
      </trkpt>
      <trkpt lat="45.9161" lon="6.33853">
        <ele>1530</ele>
        <time>2026-08-19T06:26:49.566Z</time>
      </trkpt>
      <trkpt lat="45.91611" lon="6.33854">
        <ele>1531</ele>
        <time>2026-08-19T06:26:50.566Z</time>
      </trkpt>
      <trkpt lat="45.91611" lon="6.33854">
        <ele>1531</ele>
        <time>2026-08-19T06:26:51.566Z</time>
      </trkpt>
      <trkpt lat="45.91611" lon="6.33855">
        <ele>1531</ele>
        <time>2026-08-19T06:26:52.566Z</time>
      </trkpt>
      <trkpt lat="45.91612" lon="6.33856">
        <ele>1531</ele>
        <time>2026-08-19T06:26:53.566Z</time>
      </trkpt>
      <trkpt lat="45.91612" lon="6.33857">
        <ele>1531</ele>
        <time>2026-08-19T06:26:54.566Z</time>
      </trkpt>
      <trkpt lat="45.91613" lon="6.33858">
        <ele>1532</ele>
        <time>2026-08-19T06:26:55.566Z</time>
      </trkpt>
      <trkpt lat="45.91613" lon="6.33859">
        <ele>1532</ele>
        <time>2026-08-19T06:26:56.566Z</time>
      </trkpt>
      <trkpt lat="45.91614" lon="6.3386">
        <ele>1531</ele>
        <time>2026-08-19T06:26:57.566Z</time>
      </trkpt>
      <trkpt lat="45.91614" lon="6.33861">
        <ele>1531</ele>
        <time>2026-08-19T06:26:58.566Z</time>
      </trkpt>
      <trkpt lat="45.91615" lon="6.33862">
        <ele>1531</ele>
        <time>2026-08-19T06:26:59.566Z</time>
      </trkpt>
      <trkpt lat="45.91616" lon="6.33863">
        <ele>1532</ele>
        <time>2026-08-19T06:27:00.566Z</time>
      </trkpt>
      <trkpt lat="45.91616" lon="6.33865">
        <ele>1532</ele>
        <time>2026-08-19T06:27:01.566Z</time>
      </trkpt>
      <trkpt lat="45.91617" lon="6.33866">
        <ele>1532</ele>
        <time>2026-08-19T06:27:02.566Z</time>
      </trkpt>
      <trkpt lat="45.91617" lon="6.33868">
        <ele>1532</ele>
        <time>2026-08-19T06:27:03.567Z</time>
      </trkpt>
      <trkpt lat="45.91618" lon="6.33869">
        <ele>1533</ele>
        <time>2026-08-19T06:27:04.566Z</time>
      </trkpt>
      <trkpt lat="45.91618" lon="6.33871">
        <ele>1532</ele>
        <time>2026-08-19T06:27:05.566Z</time>
      </trkpt>
      <trkpt lat="45.91619" lon="6.33872">
        <ele>1532</ele>
        <time>2026-08-19T06:27:06.566Z</time>
      </trkpt>
      <trkpt lat="45.9162" lon="6.33873">
        <ele>1532</ele>
        <time>2026-08-19T06:27:07.566Z</time>
      </trkpt>
      <trkpt lat="45.9162" lon="6.33874">
        <ele>1532</ele>
        <time>2026-08-19T06:27:08.566Z</time>
      </trkpt>
      <trkpt lat="45.91621" lon="6.33875">
        <ele>1532</ele>
        <time>2026-08-19T06:27:09.566Z</time>
      </trkpt>
      <trkpt lat="45.91622" lon="6.33875">
        <ele>1532</ele>
        <time>2026-08-19T06:27:10.566Z</time>
      </trkpt>
      <trkpt lat="45.91623" lon="6.33874">
        <ele>1532</ele>
        <time>2026-08-19T06:27:11.566Z</time>
      </trkpt>
      <trkpt lat="45.91624" lon="6.33874">
        <ele>1533</ele>
        <time>2026-08-19T06:27:12.566Z</time>
      </trkpt>
      <trkpt lat="45.91624" lon="6.33875">
        <ele>1533</ele>
        <time>2026-08-19T06:27:13.566Z</time>
      </trkpt>
      <trkpt lat="45.91625" lon="6.33876">
        <ele>1533</ele>
        <time>2026-08-19T06:27:14.566Z</time>
      </trkpt>
      <trkpt lat="45.91625" lon="6.33877">
        <ele>1533</ele>
        <time>2026-08-19T06:27:15.566Z</time>
      </trkpt>
      <trkpt lat="45.91626" lon="6.33878">
        <ele>1534</ele>
        <time>2026-08-19T06:27:16.566Z</time>
      </trkpt>
      <trkpt lat="45.91626" lon="6.33879">
        <ele>1534</ele>
        <time>2026-08-19T06:27:17.566Z</time>
      </trkpt>
      <trkpt lat="45.91626" lon="6.3388">
        <ele>1535</ele>
        <time>2026-08-19T06:27:18.566Z</time>
      </trkpt>
      <trkpt lat="45.91627" lon="6.3388">
        <ele>1535</ele>
        <time>2026-08-19T06:27:19.566Z</time>
      </trkpt>
      <trkpt lat="45.91627" lon="6.33881">
        <ele>1536</ele>
        <time>2026-08-19T06:27:20.566Z</time>
      </trkpt>
      <trkpt lat="45.91627" lon="6.33882">
        <ele>1536</ele>
        <time>2026-08-19T06:27:21.566Z</time>
      </trkpt>
      <trkpt lat="45.91628" lon="6.33883">
        <ele>1536</ele>
        <time>2026-08-19T06:27:22.566Z</time>
      </trkpt>
      <trkpt lat="45.91628" lon="6.33884">
        <ele>1537</ele>
        <time>2026-08-19T06:27:23.566Z</time>
      </trkpt>
      <trkpt lat="45.91628" lon="6.33885">
        <ele>1537</ele>
        <time>2026-08-19T06:27:24.566Z</time>
      </trkpt>
      <trkpt lat="45.91628" lon="6.33886">
        <ele>1538</ele>
        <time>2026-08-19T06:27:25.566Z</time>
      </trkpt>
      <trkpt lat="45.91629" lon="6.33887">
        <ele>1538</ele>
        <time>2026-08-19T06:27:26.566Z</time>
      </trkpt>
      <trkpt lat="45.9163" lon="6.33889">
        <ele>1538</ele>
        <time>2026-08-19T06:27:27.566Z</time>
      </trkpt>
      <trkpt lat="45.91631" lon="6.3389">
        <ele>1538</ele>
        <time>2026-08-19T06:27:28.566Z</time>
      </trkpt>
      <trkpt lat="45.91631" lon="6.3389">
        <ele>1538</ele>
        <time>2026-08-19T06:27:29.566Z</time>
      </trkpt>
      <trkpt lat="45.91632" lon="6.33891">
        <ele>1539</ele>
        <time>2026-08-19T06:27:30.566Z</time>
      </trkpt>
      <trkpt lat="45.91633" lon="6.33893">
        <ele>1539</ele>
        <time>2026-08-19T06:27:31.566Z</time>
      </trkpt>
      <trkpt lat="45.91633" lon="6.33894">
        <ele>1539</ele>
        <time>2026-08-19T06:27:32.566Z</time>
      </trkpt>
      <trkpt lat="45.91634" lon="6.33895">
        <ele>1540</ele>
        <time>2026-08-19T06:27:33.566Z</time>
      </trkpt>
      <trkpt lat="45.91635" lon="6.33896">
        <ele>1540</ele>
        <time>2026-08-19T06:27:34.566Z</time>
      </trkpt>
      <trkpt lat="45.91636" lon="6.33897">
        <ele>1540</ele>
        <time>2026-08-19T06:27:35.566Z</time>
      </trkpt>
      <trkpt lat="45.91636" lon="6.33899">
        <ele>1540</ele>
        <time>2026-08-19T06:27:36.566Z</time>
      </trkpt>
      <trkpt lat="45.91637" lon="6.339">
        <ele>1540</ele>
        <time>2026-08-19T06:27:37.566Z</time>
      </trkpt>
      <trkpt lat="45.91637" lon="6.33902">
        <ele>1541</ele>
        <time>2026-08-19T06:27:38.566Z</time>
      </trkpt>
      <trkpt lat="45.91638" lon="6.33902">
        <ele>1541</ele>
        <time>2026-08-19T06:27:39.566Z</time>
      </trkpt>
      <trkpt lat="45.91639" lon="6.33903">
        <ele>1541</ele>
        <time>2026-08-19T06:27:40.566Z</time>
      </trkpt>
      <trkpt lat="45.91639" lon="6.33903">
        <ele>1541</ele>
        <time>2026-08-19T06:27:41.566Z</time>
      </trkpt>
      <trkpt lat="45.9164" lon="6.33904">
        <ele>1542</ele>
        <time>2026-08-19T06:27:42.566Z</time>
      </trkpt>
      <trkpt lat="45.91641" lon="6.33904">
        <ele>1542</ele>
        <time>2026-08-19T06:27:43.566Z</time>
      </trkpt>
      <trkpt lat="45.91642" lon="6.33905">
        <ele>1543</ele>
        <time>2026-08-19T06:27:44.566Z</time>
      </trkpt>
      <trkpt lat="45.91643" lon="6.33906">
        <ele>1543</ele>
        <time>2026-08-19T06:27:45.566Z</time>
      </trkpt>
      <trkpt lat="45.91643" lon="6.33907">
        <ele>1543</ele>
        <time>2026-08-19T06:27:46.566Z</time>
      </trkpt>
      <trkpt lat="45.91644" lon="6.33909">
        <ele>1543</ele>
        <time>2026-08-19T06:27:47.566Z</time>
      </trkpt>
      <trkpt lat="45.91644" lon="6.33911">
        <ele>1543</ele>
        <time>2026-08-19T06:27:48.566Z</time>
      </trkpt>
      <trkpt lat="45.91645" lon="6.33913">
        <ele>1544</ele>
        <time>2026-08-19T06:27:49.566Z</time>
      </trkpt>
      <trkpt lat="45.91645" lon="6.33914">
        <ele>1544</ele>
        <time>2026-08-19T06:27:50.566Z</time>
      </trkpt>
      <trkpt lat="45.91645" lon="6.33915">
        <ele>1544</ele>
        <time>2026-08-19T06:27:51.566Z</time>
      </trkpt>
      <trkpt lat="45.91645" lon="6.33917">
        <ele>1544</ele>
        <time>2026-08-19T06:27:52.566Z</time>
      </trkpt>
      <trkpt lat="45.91645" lon="6.33918">
        <ele>1545</ele>
        <time>2026-08-19T06:27:53.566Z</time>
      </trkpt>
      <trkpt lat="45.91645" lon="6.33918">
        <ele>1545</ele>
        <time>2026-08-19T06:27:54.566Z</time>
      </trkpt>
      <trkpt lat="45.91646" lon="6.33919">
        <ele>1545</ele>
        <time>2026-08-19T06:27:55.566Z</time>
      </trkpt>
      <trkpt lat="45.91646" lon="6.33919">
        <ele>1545</ele>
        <time>2026-08-19T06:27:56.566Z</time>
      </trkpt>
      <trkpt lat="45.91646" lon="6.3392">
        <ele>1545</ele>
        <time>2026-08-19T06:27:57.566Z</time>
      </trkpt>
      <trkpt lat="45.91647" lon="6.33921">
        <ele>1546</ele>
        <time>2026-08-19T06:27:58.566Z</time>
      </trkpt>
      <trkpt lat="45.91648" lon="6.33922">
        <ele>1546</ele>
        <time>2026-08-19T06:27:59.566Z</time>
      </trkpt>
      <trkpt lat="45.91649" lon="6.33923">
        <ele>1546</ele>
        <time>2026-08-19T06:28:00.566Z</time>
      </trkpt>
      <trkpt lat="45.91649" lon="6.33925">
        <ele>1546</ele>
        <time>2026-08-19T06:28:01.566Z</time>
      </trkpt>
      <trkpt lat="45.9165" lon="6.33927">
        <ele>1546</ele>
        <time>2026-08-19T06:28:02.566Z</time>
      </trkpt>
      <trkpt lat="45.91651" lon="6.33928">
        <ele>1546</ele>
        <time>2026-08-19T06:28:03.566Z</time>
      </trkpt>
      <trkpt lat="45.91651" lon="6.33929">
        <ele>1547</ele>
        <time>2026-08-19T06:28:04.566Z</time>
      </trkpt>
      <trkpt lat="45.91652" lon="6.33931">
        <ele>1547</ele>
        <time>2026-08-19T06:28:05.566Z</time>
      </trkpt>
      <trkpt lat="45.91652" lon="6.33933">
        <ele>1547</ele>
        <time>2026-08-19T06:28:06.566Z</time>
      </trkpt>
      <trkpt lat="45.91653" lon="6.33935">
        <ele>1547</ele>
        <time>2026-08-19T06:28:07.566Z</time>
      </trkpt>
      <trkpt lat="45.91653" lon="6.33936">
        <ele>1547</ele>
        <time>2026-08-19T06:28:08.566Z</time>
      </trkpt>
      <trkpt lat="45.91653" lon="6.33938">
        <ele>1547</ele>
        <time>2026-08-19T06:28:09.566Z</time>
      </trkpt>
      <trkpt lat="45.91654" lon="6.3394">
        <ele>1547</ele>
        <time>2026-08-19T06:28:10.566Z</time>
      </trkpt>
      <trkpt lat="45.91654" lon="6.33941">
        <ele>1547</ele>
        <time>2026-08-19T06:28:11.566Z</time>
      </trkpt>
      <trkpt lat="45.91655" lon="6.33942">
        <ele>1547</ele>
        <time>2026-08-19T06:28:12.566Z</time>
      </trkpt>
      <trkpt lat="45.91656" lon="6.33943">
        <ele>1547</ele>
        <time>2026-08-19T06:28:13.566Z</time>
      </trkpt>
      <trkpt lat="45.91656" lon="6.33944">
        <ele>1547</ele>
        <time>2026-08-19T06:28:14.566Z</time>
      </trkpt>
      <trkpt lat="45.91657" lon="6.33945">
        <ele>1547</ele>
        <time>2026-08-19T06:28:15.566Z</time>
      </trkpt>
      <trkpt lat="45.91658" lon="6.33946">
        <ele>1548</ele>
        <time>2026-08-19T06:28:16.566Z</time>
      </trkpt>
      <trkpt lat="45.91659" lon="6.33947">
        <ele>1548</ele>
        <time>2026-08-19T06:28:17.566Z</time>
      </trkpt>
      <trkpt lat="45.9166" lon="6.33949">
        <ele>1549</ele>
        <time>2026-08-19T06:28:18.566Z</time>
      </trkpt>
      <trkpt lat="45.91661" lon="6.33951">
        <ele>1550</ele>
        <time>2026-08-19T06:28:19.566Z</time>
      </trkpt>
      <trkpt lat="45.91662" lon="6.33952">
        <ele>1550</ele>
        <time>2026-08-19T06:28:20.566Z</time>
      </trkpt>
      <trkpt lat="45.91662" lon="6.33954">
        <ele>1550</ele>
        <time>2026-08-19T06:28:21.566Z</time>
      </trkpt>
      <trkpt lat="45.91663" lon="6.33956">
        <ele>1551</ele>
        <time>2026-08-19T06:28:22.566Z</time>
      </trkpt>
      <trkpt lat="45.91663" lon="6.33958">
        <ele>1551</ele>
        <time>2026-08-19T06:28:23.566Z</time>
      </trkpt>
      <trkpt lat="45.91664" lon="6.33959">
        <ele>1551</ele>
        <time>2026-08-19T06:28:24.566Z</time>
      </trkpt>
      <trkpt lat="45.91665" lon="6.3396">
        <ele>1551</ele>
        <time>2026-08-19T06:28:25.566Z</time>
      </trkpt>
      <trkpt lat="45.91665" lon="6.33961">
        <ele>1551</ele>
        <time>2026-08-19T06:28:26.566Z</time>
      </trkpt>
      <trkpt lat="45.91666" lon="6.33961">
        <ele>1551</ele>
        <time>2026-08-19T06:28:27.566Z</time>
      </trkpt>
      <trkpt lat="45.91667" lon="6.33962">
        <ele>1551</ele>
        <time>2026-08-19T06:28:28.566Z</time>
      </trkpt>
      <trkpt lat="45.91668" lon="6.33962">
        <ele>1551</ele>
        <time>2026-08-19T06:28:29.566Z</time>
      </trkpt>
      <trkpt lat="45.91668" lon="6.33963">
        <ele>1551</ele>
        <time>2026-08-19T06:28:30.566Z</time>
      </trkpt>
      <trkpt lat="45.9167" lon="6.33964">
        <ele>1551</ele>
        <time>2026-08-19T06:28:31.566Z</time>
      </trkpt>
      <trkpt lat="45.9167" lon="6.33965">
        <ele>1551</ele>
        <time>2026-08-19T06:28:32.566Z</time>
      </trkpt>
      <trkpt lat="45.9167" lon="6.33966">
        <ele>1551</ele>
        <time>2026-08-19T06:28:33.566Z</time>
      </trkpt>
      <trkpt lat="45.9167" lon="6.33967">
        <ele>1552</ele>
        <time>2026-08-19T06:28:34.566Z</time>
      </trkpt>
      <trkpt lat="45.91671" lon="6.33968">
        <ele>1552</ele>
        <time>2026-08-19T06:28:35.566Z</time>
      </trkpt>
      <trkpt lat="45.91672" lon="6.33969">
        <ele>1553</ele>
        <time>2026-08-19T06:28:36.566Z</time>
      </trkpt>
      <trkpt lat="45.91673" lon="6.3397">
        <ele>1553</ele>
        <time>2026-08-19T06:28:37.566Z</time>
      </trkpt>
      <trkpt lat="45.91675" lon="6.33972">
        <ele>1553</ele>
        <time>2026-08-19T06:28:38.566Z</time>
      </trkpt>
      <trkpt lat="45.91676" lon="6.33973">
        <ele>1553</ele>
        <time>2026-08-19T06:28:39.566Z</time>
      </trkpt>
      <trkpt lat="45.91677" lon="6.33974">
        <ele>1553</ele>
        <time>2026-08-19T06:28:40.566Z</time>
      </trkpt>
      <trkpt lat="45.91678" lon="6.33975">
        <ele>1553</ele>
        <time>2026-08-19T06:28:41.566Z</time>
      </trkpt>
      <trkpt lat="45.91679" lon="6.33975">
        <ele>1553</ele>
        <time>2026-08-19T06:28:42.566Z</time>
      </trkpt>
      <trkpt lat="45.9168" lon="6.33976">
        <ele>1553</ele>
        <time>2026-08-19T06:28:43.566Z</time>
      </trkpt>
      <trkpt lat="45.91681" lon="6.33976">
        <ele>1554</ele>
        <time>2026-08-19T06:28:44.566Z</time>
      </trkpt>
      <trkpt lat="45.91682" lon="6.33976">
        <ele>1554</ele>
        <time>2026-08-19T06:28:45.566Z</time>
      </trkpt>
      <trkpt lat="45.91683" lon="6.33977">
        <ele>1554</ele>
        <time>2026-08-19T06:28:46.566Z</time>
      </trkpt>
      <trkpt lat="45.91684" lon="6.33977">
        <ele>1553</ele>
        <time>2026-08-19T06:28:47.566Z</time>
      </trkpt>
      <trkpt lat="45.91685" lon="6.33978">
        <ele>1553</ele>
        <time>2026-08-19T06:28:48.566Z</time>
      </trkpt>
      <trkpt lat="45.91686" lon="6.33978">
        <ele>1554</ele>
        <time>2026-08-19T06:28:49.566Z</time>
      </trkpt>
      <trkpt lat="45.91686" lon="6.33979">
        <ele>1554</ele>
        <time>2026-08-19T06:28:50.566Z</time>
      </trkpt>
      <trkpt lat="45.91687" lon="6.33979">
        <ele>1554</ele>
        <time>2026-08-19T06:28:51.566Z</time>
      </trkpt>
      <trkpt lat="45.91688" lon="6.3398">
        <ele>1554</ele>
        <time>2026-08-19T06:28:52.566Z</time>
      </trkpt>
      <trkpt lat="45.91688" lon="6.33981">
        <ele>1554</ele>
        <time>2026-08-19T06:28:53.566Z</time>
      </trkpt>
      <trkpt lat="45.91689" lon="6.33982">
        <ele>1553</ele>
        <time>2026-08-19T06:28:54.566Z</time>
      </trkpt>
      <trkpt lat="45.9169" lon="6.33983">
        <ele>1553</ele>
        <time>2026-08-19T06:28:55.566Z</time>
      </trkpt>
      <trkpt lat="45.91691" lon="6.33983">
        <ele>1554</ele>
        <time>2026-08-19T06:28:56.566Z</time>
      </trkpt>
      <trkpt lat="45.91692" lon="6.33983">
        <ele>1554</ele>
        <time>2026-08-19T06:28:57.566Z</time>
      </trkpt>
      <trkpt lat="45.91693" lon="6.33983">
        <ele>1555</ele>
        <time>2026-08-19T06:28:58.566Z</time>
      </trkpt>
      <trkpt lat="45.91694" lon="6.33983">
        <ele>1555</ele>
        <time>2026-08-19T06:28:59.566Z</time>
      </trkpt>
      <trkpt lat="45.91695" lon="6.33984">
        <ele>1555</ele>
        <time>2026-08-19T06:29:00.566Z</time>
      </trkpt>
      <trkpt lat="45.91696" lon="6.33984">
        <ele>1555</ele>
        <time>2026-08-19T06:29:01.566Z</time>
      </trkpt>
      <trkpt lat="45.91696" lon="6.33984">
        <ele>1556</ele>
        <time>2026-08-19T06:29:02.566Z</time>
      </trkpt>
      <trkpt lat="45.91697" lon="6.33985">
        <ele>1556</ele>
        <time>2026-08-19T06:29:03.566Z</time>
      </trkpt>
      <trkpt lat="45.91698" lon="6.33985">
        <ele>1556</ele>
        <time>2026-08-19T06:29:04.566Z</time>
      </trkpt>
      <trkpt lat="45.91699" lon="6.33986">
        <ele>1557</ele>
        <time>2026-08-19T06:29:05.566Z</time>
      </trkpt>
      <trkpt lat="45.917" lon="6.33986">
        <ele>1557</ele>
        <time>2026-08-19T06:29:06.566Z</time>
      </trkpt>
      <trkpt lat="45.91701" lon="6.33987">
        <ele>1557</ele>
        <time>2026-08-19T06:29:07.566Z</time>
      </trkpt>
      <trkpt lat="45.91702" lon="6.33987">
        <ele>1558</ele>
        <time>2026-08-19T06:29:08.566Z</time>
      </trkpt>
      <trkpt lat="45.91702" lon="6.33987">
        <ele>1558</ele>
        <time>2026-08-19T06:29:09.566Z</time>
      </trkpt>
      <trkpt lat="45.91703" lon="6.33987">
        <ele>1558</ele>
        <time>2026-08-19T06:29:10.566Z</time>
      </trkpt>
      <trkpt lat="45.91704" lon="6.33987">
        <ele>1558</ele>
        <time>2026-08-19T06:29:11.566Z</time>
      </trkpt>
      <trkpt lat="45.91704" lon="6.33986">
        <ele>1558</ele>
        <time>2026-08-19T06:29:12.566Z</time>
      </trkpt>
      <trkpt lat="45.91705" lon="6.33986">
        <ele>1558</ele>
        <time>2026-08-19T06:29:13.566Z</time>
      </trkpt>
      <trkpt lat="45.91705" lon="6.33986">
        <ele>1559</ele>
        <time>2026-08-19T06:29:14.566Z</time>
      </trkpt>
      <trkpt lat="45.91706" lon="6.33986">
        <ele>1559</ele>
        <time>2026-08-19T06:29:15.566Z</time>
      </trkpt>
      <trkpt lat="45.91707" lon="6.33987">
        <ele>1559</ele>
        <time>2026-08-19T06:29:16.566Z</time>
      </trkpt>
      <trkpt lat="45.91708" lon="6.33988">
        <ele>1560</ele>
        <time>2026-08-19T06:29:17.566Z</time>
      </trkpt>
      <trkpt lat="45.91709" lon="6.33989">
        <ele>1560</ele>
        <time>2026-08-19T06:29:18.566Z</time>
      </trkpt>
      <trkpt lat="45.9171" lon="6.33991">
        <ele>1560</ele>
        <time>2026-08-19T06:29:19.566Z</time>
      </trkpt>
      <trkpt lat="45.9171" lon="6.33992">
        <ele>1560</ele>
        <time>2026-08-19T06:29:20.566Z</time>
      </trkpt>
      <trkpt lat="45.9171" lon="6.33993">
        <ele>1561</ele>
        <time>2026-08-19T06:29:21.566Z</time>
      </trkpt>
      <trkpt lat="45.91711" lon="6.33993">
        <ele>1561</ele>
        <time>2026-08-19T06:29:22.566Z</time>
      </trkpt>
      <trkpt lat="45.91711" lon="6.33994">
        <ele>1561</ele>
        <time>2026-08-19T06:29:23.566Z</time>
      </trkpt>
      <trkpt lat="45.91712" lon="6.33994">
        <ele>1561</ele>
        <time>2026-08-19T06:29:24.566Z</time>
      </trkpt>
      <trkpt lat="45.91712" lon="6.33994">
        <ele>1562</ele>
        <time>2026-08-19T06:29:25.566Z</time>
      </trkpt>
      <trkpt lat="45.91713" lon="6.33994">
        <ele>1562</ele>
        <time>2026-08-19T06:29:26.566Z</time>
      </trkpt>
      <trkpt lat="45.91713" lon="6.33994">
        <ele>1562</ele>
        <time>2026-08-19T06:29:27.566Z</time>
      </trkpt>
      <trkpt lat="45.91714" lon="6.33993">
        <ele>1563</ele>
        <time>2026-08-19T06:29:28.566Z</time>
      </trkpt>
      <trkpt lat="45.91714" lon="6.33992">
        <ele>1563</ele>
        <time>2026-08-19T06:29:29.566Z</time>
      </trkpt>
      <trkpt lat="45.91715" lon="6.33991">
        <ele>1563</ele>
        <time>2026-08-19T06:29:30.566Z</time>
      </trkpt>
      <trkpt lat="45.91715" lon="6.33991">
        <ele>1563</ele>
        <time>2026-08-19T06:29:31.566Z</time>
      </trkpt>
      <trkpt lat="45.91716" lon="6.33991">
        <ele>1564</ele>
        <time>2026-08-19T06:29:32.566Z</time>
      </trkpt>
      <trkpt lat="45.91716" lon="6.33991">
        <ele>1564</ele>
        <time>2026-08-19T06:29:33.566Z</time>
      </trkpt>
      <trkpt lat="45.91716" lon="6.33991">
        <ele>1565</ele>
        <time>2026-08-19T06:29:34.566Z</time>
      </trkpt>
      <trkpt lat="45.91716" lon="6.3399">
        <ele>1566</ele>
        <time>2026-08-19T06:29:35.566Z</time>
      </trkpt>
      <trkpt lat="45.91717" lon="6.3399">
        <ele>1567</ele>
        <time>2026-08-19T06:29:36.566Z</time>
      </trkpt>
      <trkpt lat="45.91717" lon="6.3399">
        <ele>1567</ele>
        <time>2026-08-19T06:29:37.566Z</time>
      </trkpt>
      <trkpt lat="45.91717" lon="6.33989">
        <ele>1568</ele>
        <time>2026-08-19T06:29:38.566Z</time>
      </trkpt>
      <trkpt lat="45.91718" lon="6.33988">
        <ele>1569</ele>
        <time>2026-08-19T06:29:39.566Z</time>
      </trkpt>
      <trkpt lat="45.91719" lon="6.33987">
        <ele>1569</ele>
        <time>2026-08-19T06:29:40.566Z</time>
      </trkpt>
      <trkpt lat="45.9172" lon="6.33986">
        <ele>1570</ele>
        <time>2026-08-19T06:29:41.566Z</time>
      </trkpt>
      <trkpt lat="45.9172" lon="6.33986">
        <ele>1570</ele>
        <time>2026-08-19T06:29:42.566Z</time>
      </trkpt>
      <trkpt lat="45.91721" lon="6.33985">
        <ele>1570</ele>
        <time>2026-08-19T06:29:43.566Z</time>
      </trkpt>
      <trkpt lat="45.91721" lon="6.33985">
        <ele>1571</ele>
        <time>2026-08-19T06:29:44.566Z</time>
      </trkpt>
      <trkpt lat="45.91721" lon="6.33985">
        <ele>1571</ele>
        <time>2026-08-19T06:29:45.566Z</time>
      </trkpt>
      <trkpt lat="45.91722" lon="6.33985">
        <ele>1571</ele>
        <time>2026-08-19T06:29:46.566Z</time>
      </trkpt>
      <trkpt lat="45.91722" lon="6.33984">
        <ele>1570</ele>
        <time>2026-08-19T06:29:47.566Z</time>
      </trkpt>
      <trkpt lat="45.91722" lon="6.33984">
        <ele>1570</ele>
        <time>2026-08-19T06:29:48.566Z</time>
      </trkpt>
      <trkpt lat="45.91723" lon="6.33984">
        <ele>1570</ele>
        <time>2026-08-19T06:29:49.566Z</time>
      </trkpt>
      <trkpt lat="45.91723" lon="6.33984">
        <ele>1570</ele>
        <time>2026-08-19T06:29:50.566Z</time>
      </trkpt>
      <trkpt lat="45.91724" lon="6.33984">
        <ele>1571</ele>
        <time>2026-08-19T06:29:51.566Z</time>
      </trkpt>
      <trkpt lat="45.91725" lon="6.33985">
        <ele>1571</ele>
        <time>2026-08-19T06:29:52.566Z</time>
      </trkpt>
      <trkpt lat="45.91725" lon="6.33985">
        <ele>1571</ele>
        <time>2026-08-19T06:29:53.566Z</time>
      </trkpt>
      <trkpt lat="45.91726" lon="6.33985">
        <ele>1571</ele>
        <time>2026-08-19T06:29:54.566Z</time>
      </trkpt>
      <trkpt lat="45.91727" lon="6.33985">
        <ele>1571</ele>
        <time>2026-08-19T06:29:55.566Z</time>
      </trkpt>
      <trkpt lat="45.91728" lon="6.33985">
        <ele>1571</ele>
        <time>2026-08-19T06:29:56.566Z</time>
      </trkpt>
      <trkpt lat="45.91728" lon="6.33985">
        <ele>1571</ele>
        <time>2026-08-19T06:29:57.566Z</time>
      </trkpt>
      <trkpt lat="45.91729" lon="6.33985">
        <ele>1571</ele>
        <time>2026-08-19T06:29:58.566Z</time>
      </trkpt>
      <trkpt lat="45.91731" lon="6.33985">
        <ele>1571</ele>
        <time>2026-08-19T06:29:59.566Z</time>
      </trkpt>
      <trkpt lat="45.91732" lon="6.33986">
        <ele>1572</ele>
        <time>2026-08-19T06:30:00.566Z</time>
      </trkpt>
      <trkpt lat="45.91732" lon="6.33985">
        <ele>1572</ele>
        <time>2026-08-19T06:30:01.566Z</time>
      </trkpt>
      <trkpt lat="45.91733" lon="6.33986">
        <ele>1572</ele>
        <time>2026-08-19T06:30:02.566Z</time>
      </trkpt>
      <trkpt lat="45.91734" lon="6.33986">
        <ele>1573</ele>
        <time>2026-08-19T06:30:03.566Z</time>
      </trkpt>
      <trkpt lat="45.91735" lon="6.33987">
        <ele>1573</ele>
        <time>2026-08-19T06:30:04.566Z</time>
      </trkpt>
      <trkpt lat="45.91736" lon="6.33987">
        <ele>1573</ele>
        <time>2026-08-19T06:30:05.566Z</time>
      </trkpt>
      <trkpt lat="45.91736" lon="6.33987">
        <ele>1573</ele>
        <time>2026-08-19T06:30:06.566Z</time>
      </trkpt>
      <trkpt lat="45.91737" lon="6.33988">
        <ele>1573</ele>
        <time>2026-08-19T06:30:07.566Z</time>
      </trkpt>
      <trkpt lat="45.91737" lon="6.33988">
        <ele>1574</ele>
        <time>2026-08-19T06:30:08.566Z</time>
      </trkpt>
      <trkpt lat="45.91738" lon="6.33988">
        <ele>1574</ele>
        <time>2026-08-19T06:30:09.566Z</time>
      </trkpt>
      <trkpt lat="45.91738" lon="6.33988">
        <ele>1573</ele>
        <time>2026-08-19T06:30:10.566Z</time>
      </trkpt>
      <trkpt lat="45.91738" lon="6.33988">
        <ele>1573</ele>
        <time>2026-08-19T06:30:11.566Z</time>
      </trkpt>
      <trkpt lat="45.91738" lon="6.33989">
        <ele>1573</ele>
        <time>2026-08-19T06:30:12.566Z</time>
      </trkpt>
      <trkpt lat="45.91738" lon="6.33989">
        <ele>1572</ele>
        <time>2026-08-19T06:30:13.566Z</time>
      </trkpt>
      <trkpt lat="45.91738" lon="6.33989">
        <ele>1572</ele>
        <time>2026-08-19T06:30:14.566Z</time>
      </trkpt>
      <trkpt lat="45.91738" lon="6.33989">
        <ele>1572</ele>
        <time>2026-08-19T06:30:15.566Z</time>
      </trkpt>
      <trkpt lat="45.91738" lon="6.33989">
        <ele>1572</ele>
        <time>2026-08-19T06:30:16.566Z</time>
      </trkpt>
      <trkpt lat="45.91738" lon="6.33988">
        <ele>1572</ele>
        <time>2026-08-19T06:30:17.566Z</time>
      </trkpt>
      <trkpt lat="45.91739" lon="6.33988">
        <ele>1573</ele>
        <time>2026-08-19T06:30:18.566Z</time>
      </trkpt>
      <trkpt lat="45.9174" lon="6.33989">
        <ele>1573</ele>
        <time>2026-08-19T06:30:19.566Z</time>
      </trkpt>
      <trkpt lat="45.91741" lon="6.33989">
        <ele>1573</ele>
        <time>2026-08-19T06:30:20.566Z</time>
      </trkpt>
      <trkpt lat="45.91742" lon="6.3399">
        <ele>1573</ele>
        <time>2026-08-19T06:30:21.566Z</time>
      </trkpt>
      <trkpt lat="45.91742" lon="6.33991">
        <ele>1574</ele>
        <time>2026-08-19T06:30:22.566Z</time>
      </trkpt>
      <trkpt lat="45.91743" lon="6.33992">
        <ele>1574</ele>
        <time>2026-08-19T06:30:23.566Z</time>
      </trkpt>
      <trkpt lat="45.91744" lon="6.33993">
        <ele>1575</ele>
        <time>2026-08-19T06:30:24.566Z</time>
      </trkpt>
      <trkpt lat="45.91745" lon="6.33993">
        <ele>1575</ele>
        <time>2026-08-19T06:30:25.566Z</time>
      </trkpt>
      <trkpt lat="45.91746" lon="6.33995">
        <ele>1575</ele>
        <time>2026-08-19T06:30:26.566Z</time>
      </trkpt>
      <trkpt lat="45.91747" lon="6.33996">
        <ele>1576</ele>
        <time>2026-08-19T06:30:27.566Z</time>
      </trkpt>
      <trkpt lat="45.91748" lon="6.33997">
        <ele>1576</ele>
        <time>2026-08-19T06:30:28.566Z</time>
      </trkpt>
      <trkpt lat="45.91749" lon="6.33999">
        <ele>1576</ele>
        <time>2026-08-19T06:30:29.566Z</time>
      </trkpt>
      <trkpt lat="45.9175" lon="6.34">
        <ele>1576</ele>
        <time>2026-08-19T06:30:30.566Z</time>
      </trkpt>
      <trkpt lat="45.91751" lon="6.34002">
        <ele>1576</ele>
        <time>2026-08-19T06:30:31.566Z</time>
      </trkpt>
      <trkpt lat="45.91751" lon="6.34003">
        <ele>1576</ele>
        <time>2026-08-19T06:30:32.566Z</time>
      </trkpt>
      <trkpt lat="45.91753" lon="6.34004">
        <ele>1576</ele>
        <time>2026-08-19T06:30:33.566Z</time>
      </trkpt>
      <trkpt lat="45.91753" lon="6.34004">
        <ele>1576</ele>
        <time>2026-08-19T06:30:34.566Z</time>
      </trkpt>
      <trkpt lat="45.91754" lon="6.34006">
        <ele>1576</ele>
        <time>2026-08-19T06:30:35.566Z</time>
      </trkpt>
      <trkpt lat="45.91755" lon="6.34006">
        <ele>1576</ele>
        <time>2026-08-19T06:30:36.566Z</time>
      </trkpt>
      <trkpt lat="45.91756" lon="6.34006">
        <ele>1576</ele>
        <time>2026-08-19T06:30:37.566Z</time>
      </trkpt>
      <trkpt lat="45.91758" lon="6.34007">
        <ele>1576</ele>
        <time>2026-08-19T06:30:38.566Z</time>
      </trkpt>
      <trkpt lat="45.91759" lon="6.34007">
        <ele>1576</ele>
        <time>2026-08-19T06:30:39.566Z</time>
      </trkpt>
      <trkpt lat="45.91761" lon="6.34007">
        <ele>1576</ele>
        <time>2026-08-19T06:30:40.566Z</time>
      </trkpt>
      <trkpt lat="45.91762" lon="6.34007">
        <ele>1576</ele>
        <time>2026-08-19T06:30:41.566Z</time>
      </trkpt>
      <trkpt lat="45.91764" lon="6.34009">
        <ele>1576</ele>
        <time>2026-08-19T06:30:42.566Z</time>
      </trkpt>
      <trkpt lat="45.91765" lon="6.3401">
        <ele>1577</ele>
        <time>2026-08-19T06:30:43.566Z</time>
      </trkpt>
      <trkpt lat="45.91766" lon="6.34012">
        <ele>1577</ele>
        <time>2026-08-19T06:30:44.566Z</time>
      </trkpt>
      <trkpt lat="45.91767" lon="6.34013">
        <ele>1578</ele>
        <time>2026-08-19T06:30:45.566Z</time>
      </trkpt>
      <trkpt lat="45.91768" lon="6.34014">
        <ele>1578</ele>
        <time>2026-08-19T06:30:46.566Z</time>
      </trkpt>
      <trkpt lat="45.91769" lon="6.34016">
        <ele>1578</ele>
        <time>2026-08-19T06:30:47.566Z</time>
      </trkpt>
      <trkpt lat="45.9177" lon="6.34018">
        <ele>1578</ele>
        <time>2026-08-19T06:30:48.566Z</time>
      </trkpt>
      <trkpt lat="45.91771" lon="6.3402">
        <ele>1578</ele>
        <time>2026-08-19T06:30:49.566Z</time>
      </trkpt>
      <trkpt lat="45.91771" lon="6.34023">
        <ele>1578</ele>
        <time>2026-08-19T06:30:50.566Z</time>
      </trkpt>
      <trkpt lat="45.91772" lon="6.34025">
        <ele>1578</ele>
        <time>2026-08-19T06:30:51.566Z</time>
      </trkpt>
      <trkpt lat="45.91773" lon="6.34027">
        <ele>1579</ele>
        <time>2026-08-19T06:30:52.566Z</time>
      </trkpt>
      <trkpt lat="45.91774" lon="6.34028">
        <ele>1579</ele>
        <time>2026-08-19T06:30:53.566Z</time>
      </trkpt>
      <trkpt lat="45.91775" lon="6.34029">
        <ele>1579</ele>
        <time>2026-08-19T06:30:54.566Z</time>
      </trkpt>
      <trkpt lat="45.91776" lon="6.3403">
        <ele>1579</ele>
        <time>2026-08-19T06:30:55.566Z</time>
      </trkpt>
      <trkpt lat="45.91778" lon="6.34031">
        <ele>1579</ele>
        <time>2026-08-19T06:30:56.566Z</time>
      </trkpt>
      <trkpt lat="45.91779" lon="6.34032">
        <ele>1580</ele>
        <time>2026-08-19T06:30:57.566Z</time>
      </trkpt>
      <trkpt lat="45.9178" lon="6.34033">
        <ele>1579</ele>
        <time>2026-08-19T06:30:58.566Z</time>
      </trkpt>
      <trkpt lat="45.91782" lon="6.34035">
        <ele>1579</ele>
        <time>2026-08-19T06:30:59.566Z</time>
      </trkpt>
      <trkpt lat="45.91783" lon="6.34036">
        <ele>1579</ele>
        <time>2026-08-19T06:31:00.566Z</time>
      </trkpt>
      <trkpt lat="45.91785" lon="6.34037">
        <ele>1579</ele>
        <time>2026-08-19T06:31:01.566Z</time>
      </trkpt>
      <trkpt lat="45.91786" lon="6.34038">
        <ele>1579</ele>
        <time>2026-08-19T06:31:02.566Z</time>
      </trkpt>
      <trkpt lat="45.91787" lon="6.3404">
        <ele>1579</ele>
        <time>2026-08-19T06:31:03.566Z</time>
      </trkpt>
      <trkpt lat="45.91789" lon="6.34042">
        <ele>1580</ele>
        <time>2026-08-19T06:31:04.566Z</time>
      </trkpt>
      <trkpt lat="45.91791" lon="6.34043">
        <ele>1580</ele>
        <time>2026-08-19T06:31:05.566Z</time>
      </trkpt>
      <trkpt lat="45.91792" lon="6.34045">
        <ele>1580</ele>
        <time>2026-08-19T06:31:06.566Z</time>
      </trkpt>
      <trkpt lat="45.91793" lon="6.34046">
        <ele>1581</ele>
        <time>2026-08-19T06:31:07.566Z</time>
      </trkpt>
      <trkpt lat="45.91794" lon="6.34048">
        <ele>1581</ele>
        <time>2026-08-19T06:31:08.566Z</time>
      </trkpt>
      <trkpt lat="45.91796" lon="6.34049">
        <ele>1581</ele>
        <time>2026-08-19T06:31:09.566Z</time>
      </trkpt>
      <trkpt lat="45.91797" lon="6.34051">
        <ele>1582</ele>
        <time>2026-08-19T06:31:10.566Z</time>
      </trkpt>
      <trkpt lat="45.91799" lon="6.34052">
        <ele>1582</ele>
        <time>2026-08-19T06:31:11.566Z</time>
      </trkpt>
      <trkpt lat="45.91801" lon="6.34053">
        <ele>1582</ele>
        <time>2026-08-19T06:31:12.566Z</time>
      </trkpt>
      <trkpt lat="45.91802" lon="6.34054">
        <ele>1582</ele>
        <time>2026-08-19T06:31:13.566Z</time>
      </trkpt>
      <trkpt lat="45.91804" lon="6.34055">
        <ele>1582</ele>
        <time>2026-08-19T06:31:14.566Z</time>
      </trkpt>
      <trkpt lat="45.91806" lon="6.34056">
        <ele>1582</ele>
        <time>2026-08-19T06:31:15.566Z</time>
      </trkpt>
      <trkpt lat="45.91808" lon="6.34057">
        <ele>1582</ele>
        <time>2026-08-19T06:31:16.566Z</time>
      </trkpt>
      <trkpt lat="45.91809" lon="6.34058">
        <ele>1583</ele>
        <time>2026-08-19T06:31:17.566Z</time>
      </trkpt>
      <trkpt lat="45.9181" lon="6.34059">
        <ele>1583</ele>
        <time>2026-08-19T06:31:18.566Z</time>
      </trkpt>
      <trkpt lat="45.91812" lon="6.3406">
        <ele>1582</ele>
        <time>2026-08-19T06:31:19.566Z</time>
      </trkpt>
      <trkpt lat="45.91813" lon="6.34063">
        <ele>1582</ele>
        <time>2026-08-19T06:31:20.566Z</time>
      </trkpt>
      <trkpt lat="45.91815" lon="6.34064">
        <ele>1582</ele>
        <time>2026-08-19T06:31:21.566Z</time>
      </trkpt>
      <trkpt lat="45.91816" lon="6.34066">
        <ele>1581</ele>
        <time>2026-08-19T06:31:22.566Z</time>
      </trkpt>
      <trkpt lat="45.91818" lon="6.34067">
        <ele>1581</ele>
        <time>2026-08-19T06:31:23.566Z</time>
      </trkpt>
      <trkpt lat="45.9182" lon="6.34068">
        <ele>1581</ele>
        <time>2026-08-19T06:31:24.566Z</time>
      </trkpt>
      <trkpt lat="45.91821" lon="6.34069">
        <ele>1581</ele>
        <time>2026-08-19T06:31:25.566Z</time>
      </trkpt>
      <trkpt lat="45.91823" lon="6.3407">
        <ele>1581</ele>
        <time>2026-08-19T06:31:26.566Z</time>
      </trkpt>
      <trkpt lat="45.91824" lon="6.34071">
        <ele>1582</ele>
        <time>2026-08-19T06:31:27.566Z</time>
      </trkpt>
      <trkpt lat="45.91826" lon="6.34072">
        <ele>1582</ele>
        <time>2026-08-19T06:31:28.566Z</time>
      </trkpt>
      <trkpt lat="45.91828" lon="6.34073">
        <ele>1583</ele>
        <time>2026-08-19T06:31:29.566Z</time>
      </trkpt>
      <trkpt lat="45.91829" lon="6.34074">
        <ele>1583</ele>
        <time>2026-08-19T06:31:30.566Z</time>
      </trkpt>
      <trkpt lat="45.91831" lon="6.34075">
        <ele>1583</ele>
        <time>2026-08-19T06:31:31.566Z</time>
      </trkpt>
      <trkpt lat="45.91832" lon="6.34076">
        <ele>1584</ele>
        <time>2026-08-19T06:31:32.566Z</time>
      </trkpt>
      <trkpt lat="45.91834" lon="6.34077">
        <ele>1583</ele>
        <time>2026-08-19T06:31:33.566Z</time>
      </trkpt>
      <trkpt lat="45.91835" lon="6.34077">
        <ele>1583</ele>
        <time>2026-08-19T06:31:34.566Z</time>
      </trkpt>
      <trkpt lat="45.91836" lon="6.34078">
        <ele>1583</ele>
        <time>2026-08-19T06:31:35.566Z</time>
      </trkpt>
      <trkpt lat="45.91837" lon="6.34078">
        <ele>1583</ele>
        <time>2026-08-19T06:31:36.566Z</time>
      </trkpt>
      <trkpt lat="45.91838" lon="6.34079">
        <ele>1583</ele>
        <time>2026-08-19T06:31:37.566Z</time>
      </trkpt>
      <trkpt lat="45.91839" lon="6.34079">
        <ele>1583</ele>
        <time>2026-08-19T06:31:38.566Z</time>
      </trkpt>
      <trkpt lat="45.9184" lon="6.3408">
        <ele>1583</ele>
        <time>2026-08-19T06:31:39.566Z</time>
      </trkpt>
      <trkpt lat="45.91841" lon="6.3408">
        <ele>1583</ele>
        <time>2026-08-19T06:31:40.566Z</time>
      </trkpt>
      <trkpt lat="45.91842" lon="6.34081">
        <ele>1583</ele>
        <time>2026-08-19T06:31:41.566Z</time>
      </trkpt>
      <trkpt lat="45.91843" lon="6.34082">
        <ele>1583</ele>
        <time>2026-08-19T06:31:42.566Z</time>
      </trkpt>
      <trkpt lat="45.91844" lon="6.34084">
        <ele>1583</ele>
        <time>2026-08-19T06:31:43.566Z</time>
      </trkpt>
      <trkpt lat="45.91844" lon="6.34085">
        <ele>1583</ele>
        <time>2026-08-19T06:31:44.566Z</time>
      </trkpt>
      <trkpt lat="45.91844" lon="6.34086">
        <ele>1583</ele>
        <time>2026-08-19T06:31:45.566Z</time>
      </trkpt>
      <trkpt lat="45.91845" lon="6.34087">
        <ele>1583</ele>
        <time>2026-08-19T06:31:46.566Z</time>
      </trkpt>
      <trkpt lat="45.91845" lon="6.34089">
        <ele>1583</ele>
        <time>2026-08-19T06:31:47.566Z</time>
      </trkpt>
      <trkpt lat="45.91845" lon="6.3409">
        <ele>1583</ele>
        <time>2026-08-19T06:31:48.566Z</time>
      </trkpt>
      <trkpt lat="45.91846" lon="6.34091">
        <ele>1584</ele>
        <time>2026-08-19T06:31:49.566Z</time>
      </trkpt>
      <trkpt lat="45.91846" lon="6.34092">
        <ele>1584</ele>
        <time>2026-08-19T06:31:50.566Z</time>
      </trkpt>
      <trkpt lat="45.91845" lon="6.34093">
        <ele>1584</ele>
        <time>2026-08-19T06:31:51.566Z</time>
      </trkpt>
      <trkpt lat="45.91845" lon="6.34094">
        <ele>1585</ele>
        <time>2026-08-19T06:31:52.566Z</time>
      </trkpt>
      <trkpt lat="45.91845" lon="6.34095">
        <ele>1585</ele>
        <time>2026-08-19T06:31:53.566Z</time>
      </trkpt>
      <trkpt lat="45.91846" lon="6.34097">
        <ele>1585</ele>
        <time>2026-08-19T06:31:54.566Z</time>
      </trkpt>
      <trkpt lat="45.91846" lon="6.34097">
        <ele>1585</ele>
        <time>2026-08-19T06:31:55.566Z</time>
      </trkpt>
      <trkpt lat="45.91847" lon="6.34098">
        <ele>1585</ele>
        <time>2026-08-19T06:31:56.566Z</time>
      </trkpt>
      <trkpt lat="45.91847" lon="6.34099">
        <ele>1586</ele>
        <time>2026-08-19T06:31:57.566Z</time>
      </trkpt>
      <trkpt lat="45.91847" lon="6.341">
        <ele>1586</ele>
        <time>2026-08-19T06:31:58.566Z</time>
      </trkpt>
      <trkpt lat="45.91847" lon="6.34101">
        <ele>1586</ele>
        <time>2026-08-19T06:31:59.566Z</time>
      </trkpt>
      <trkpt lat="45.91848" lon="6.34102">
        <ele>1586</ele>
        <time>2026-08-19T06:32:00.566Z</time>
      </trkpt>
      <trkpt lat="45.91848" lon="6.34103">
        <ele>1586</ele>
        <time>2026-08-19T06:32:01.566Z</time>
      </trkpt>
      <trkpt lat="45.91848" lon="6.34103">
        <ele>1586</ele>
        <time>2026-08-19T06:32:02.566Z</time>
      </trkpt>
      <trkpt lat="45.91848" lon="6.34103">
        <ele>1586</ele>
        <time>2026-08-19T06:32:03.566Z</time>
      </trkpt>
      <trkpt lat="45.91849" lon="6.34104">
        <ele>1586</ele>
        <time>2026-08-19T06:32:04.566Z</time>
      </trkpt>
      <trkpt lat="45.91849" lon="6.34106">
        <ele>1586</ele>
        <time>2026-08-19T06:32:05.566Z</time>
      </trkpt>
      <trkpt lat="45.91849" lon="6.34107">
        <ele>1586</ele>
        <time>2026-08-19T06:32:06.566Z</time>
      </trkpt>
      <trkpt lat="45.9185" lon="6.34107">
        <ele>1587</ele>
        <time>2026-08-19T06:32:07.566Z</time>
      </trkpt>
      <trkpt lat="45.9185" lon="6.34108">
        <ele>1587</ele>
        <time>2026-08-19T06:32:08.566Z</time>
      </trkpt>
      <trkpt lat="45.9185" lon="6.34109">
        <ele>1588</ele>
        <time>2026-08-19T06:32:09.566Z</time>
      </trkpt>
      <trkpt lat="45.9185" lon="6.3411">
        <ele>1588</ele>
        <time>2026-08-19T06:32:10.566Z</time>
      </trkpt>
      <trkpt lat="45.91851" lon="6.3411">
        <ele>1588</ele>
        <time>2026-08-19T06:32:11.566Z</time>
      </trkpt>
      <trkpt lat="45.91851" lon="6.3411">
        <ele>1589</ele>
        <time>2026-08-19T06:32:12.566Z</time>
      </trkpt>
      <trkpt lat="45.91851" lon="6.3411">
        <ele>1589</ele>
        <time>2026-08-19T06:32:13.566Z</time>
      </trkpt>
      <trkpt lat="45.91852" lon="6.3411">
        <ele>1590</ele>
        <time>2026-08-19T06:32:14.566Z</time>
      </trkpt>
      <trkpt lat="45.91852" lon="6.34109">
        <ele>1590</ele>
        <time>2026-08-19T06:32:15.566Z</time>
      </trkpt>
      <trkpt lat="45.91853" lon="6.34108">
        <ele>1590</ele>
        <time>2026-08-19T06:32:16.566Z</time>
      </trkpt>
      <trkpt lat="45.91853" lon="6.34107">
        <ele>1591</ele>
        <time>2026-08-19T06:32:17.566Z</time>
      </trkpt>
      <trkpt lat="45.91853" lon="6.34106">
        <ele>1591</ele>
        <time>2026-08-19T06:32:18.566Z</time>
      </trkpt>
      <trkpt lat="45.91854" lon="6.34106">
        <ele>1591</ele>
        <time>2026-08-19T06:32:19.566Z</time>
      </trkpt>
      <trkpt lat="45.91854" lon="6.34105">
        <ele>1592</ele>
        <time>2026-08-19T06:32:20.566Z</time>
      </trkpt>
      <trkpt lat="45.91855" lon="6.34105">
        <ele>1592</ele>
        <time>2026-08-19T06:32:21.567Z</time>
      </trkpt>
      <trkpt lat="45.91855" lon="6.34105">
        <ele>1593</ele>
        <time>2026-08-19T06:32:22.566Z</time>
      </trkpt>
      <trkpt lat="45.91856" lon="6.34105">
        <ele>1593</ele>
        <time>2026-08-19T06:32:23.566Z</time>
      </trkpt>
      <trkpt lat="45.91856" lon="6.34105">
        <ele>1593</ele>
        <time>2026-08-19T06:32:24.566Z</time>
      </trkpt>
      <trkpt lat="45.91856" lon="6.34106">
        <ele>1594</ele>
        <time>2026-08-19T06:32:25.566Z</time>
      </trkpt>
      <trkpt lat="45.91857" lon="6.34107">
        <ele>1594</ele>
        <time>2026-08-19T06:32:26.566Z</time>
      </trkpt>
      <trkpt lat="45.91858" lon="6.34108">
        <ele>1594</ele>
        <time>2026-08-19T06:32:27.566Z</time>
      </trkpt>
      <trkpt lat="45.91858" lon="6.34108">
        <ele>1594</ele>
        <time>2026-08-19T06:32:28.566Z</time>
      </trkpt>
      <trkpt lat="45.91859" lon="6.34109">
        <ele>1594</ele>
        <time>2026-08-19T06:32:29.566Z</time>
      </trkpt>
      <trkpt lat="45.91859" lon="6.34109">
        <ele>1594</ele>
        <time>2026-08-19T06:32:30.566Z</time>
      </trkpt>
      <trkpt lat="45.9186" lon="6.3411">
        <ele>1594</ele>
        <time>2026-08-19T06:32:31.567Z</time>
      </trkpt>
      <trkpt lat="45.9186" lon="6.34111">
        <ele>1594</ele>
        <time>2026-08-19T06:32:32.566Z</time>
      </trkpt>
      <trkpt lat="45.9186" lon="6.34111">
        <ele>1594</ele>
        <time>2026-08-19T06:32:33.566Z</time>
      </trkpt>
      <trkpt lat="45.91861" lon="6.34111">
        <ele>1594</ele>
        <time>2026-08-19T06:32:34.566Z</time>
      </trkpt>
      <trkpt lat="45.91861" lon="6.34111">
        <ele>1594</ele>
        <time>2026-08-19T06:32:35.566Z</time>
      </trkpt>
      <trkpt lat="45.91861" lon="6.34111">
        <ele>1595</ele>
        <time>2026-08-19T06:32:36.566Z</time>
      </trkpt>
      <trkpt lat="45.91862" lon="6.34111">
        <ele>1595</ele>
        <time>2026-08-19T06:32:37.566Z</time>
      </trkpt>
      <trkpt lat="45.91863" lon="6.34111">
        <ele>1596</ele>
        <time>2026-08-19T06:32:38.566Z</time>
      </trkpt>
      <trkpt lat="45.91864" lon="6.34111">
        <ele>1596</ele>
        <time>2026-08-19T06:32:39.566Z</time>
      </trkpt>
      <trkpt lat="45.91864" lon="6.34112">
        <ele>1596</ele>
        <time>2026-08-19T06:32:40.566Z</time>
      </trkpt>
      <trkpt lat="45.91865" lon="6.34112">
        <ele>1597</ele>
        <time>2026-08-19T06:32:41.566Z</time>
      </trkpt>
      <trkpt lat="45.91865" lon="6.34113">
        <ele>1597</ele>
        <time>2026-08-19T06:32:42.566Z</time>
      </trkpt>
      <trkpt lat="45.91866" lon="6.34113">
        <ele>1597</ele>
        <time>2026-08-19T06:32:43.566Z</time>
      </trkpt>
      <trkpt lat="45.91867" lon="6.34114">
        <ele>1597</ele>
        <time>2026-08-19T06:32:44.566Z</time>
      </trkpt>
      <trkpt lat="45.91867" lon="6.34115">
        <ele>1597</ele>
        <time>2026-08-19T06:32:45.566Z</time>
      </trkpt>
      <trkpt lat="45.91868" lon="6.34116">
        <ele>1597</ele>
        <time>2026-08-19T06:32:46.566Z</time>
      </trkpt>
      <trkpt lat="45.91869" lon="6.34116">
        <ele>1597</ele>
        <time>2026-08-19T06:32:47.566Z</time>
      </trkpt>
      <trkpt lat="45.91869" lon="6.34117">
        <ele>1597</ele>
        <time>2026-08-19T06:32:48.566Z</time>
      </trkpt>
      <trkpt lat="45.9187" lon="6.34118">
        <ele>1597</ele>
        <time>2026-08-19T06:32:49.566Z</time>
      </trkpt>
      <trkpt lat="45.9187" lon="6.34118">
        <ele>1597</ele>
        <time>2026-08-19T06:32:50.566Z</time>
      </trkpt>
      <trkpt lat="45.91871" lon="6.34119">
        <ele>1597</ele>
        <time>2026-08-19T06:32:51.566Z</time>
      </trkpt>
      <trkpt lat="45.91872" lon="6.3412">
        <ele>1598</ele>
        <time>2026-08-19T06:32:52.566Z</time>
      </trkpt>
      <trkpt lat="45.91872" lon="6.34121">
        <ele>1598</ele>
        <time>2026-08-19T06:32:53.566Z</time>
      </trkpt>
      <trkpt lat="45.91873" lon="6.34122">
        <ele>1599</ele>
        <time>2026-08-19T06:32:54.566Z</time>
      </trkpt>
      <trkpt lat="45.91873" lon="6.34123">
        <ele>1599</ele>
        <time>2026-08-19T06:32:55.566Z</time>
      </trkpt>
      <trkpt lat="45.91874" lon="6.34124">
        <ele>1599</ele>
        <time>2026-08-19T06:32:56.566Z</time>
      </trkpt>
      <trkpt lat="45.91875" lon="6.34125">
        <ele>1599</ele>
        <time>2026-08-19T06:32:57.566Z</time>
      </trkpt>
      <trkpt lat="45.91875" lon="6.34126">
        <ele>1600</ele>
        <time>2026-08-19T06:32:58.566Z</time>
      </trkpt>
      <trkpt lat="45.91876" lon="6.34126">
        <ele>1600</ele>
        <time>2026-08-19T06:32:59.566Z</time>
      </trkpt>
      <trkpt lat="45.91876" lon="6.34127">
        <ele>1601</ele>
        <time>2026-08-19T06:33:00.566Z</time>
      </trkpt>
      <trkpt lat="45.91877" lon="6.34128">
        <ele>1601</ele>
        <time>2026-08-19T06:33:01.566Z</time>
      </trkpt>
      <trkpt lat="45.91877" lon="6.34129">
        <ele>1601</ele>
        <time>2026-08-19T06:33:02.566Z</time>
      </trkpt>
      <trkpt lat="45.91878" lon="6.34129">
        <ele>1601</ele>
        <time>2026-08-19T06:33:03.566Z</time>
      </trkpt>
      <trkpt lat="45.91878" lon="6.34129">
        <ele>1601</ele>
        <time>2026-08-19T06:33:04.566Z</time>
      </trkpt>
      <trkpt lat="45.91878" lon="6.3413">
        <ele>1602</ele>
        <time>2026-08-19T06:33:05.566Z</time>
      </trkpt>
      <trkpt lat="45.91878" lon="6.34131">
        <ele>1602</ele>
        <time>2026-08-19T06:33:06.566Z</time>
      </trkpt>
      <trkpt lat="45.91879" lon="6.34132">
        <ele>1602</ele>
        <time>2026-08-19T06:33:07.566Z</time>
      </trkpt>
      <trkpt lat="45.9188" lon="6.34133">
        <ele>1602</ele>
        <time>2026-08-19T06:33:08.566Z</time>
      </trkpt>
      <trkpt lat="45.91882" lon="6.34135">
        <ele>1602</ele>
        <time>2026-08-19T06:33:09.566Z</time>
      </trkpt>
      <trkpt lat="45.91882" lon="6.34136">
        <ele>1602</ele>
        <time>2026-08-19T06:33:10.566Z</time>
      </trkpt>
      <trkpt lat="45.91883" lon="6.34137">
        <ele>1602</ele>
        <time>2026-08-19T06:33:11.566Z</time>
      </trkpt>
      <trkpt lat="45.91884" lon="6.34137">
        <ele>1602</ele>
        <time>2026-08-19T06:33:12.566Z</time>
      </trkpt>
      <trkpt lat="45.91885" lon="6.34138">
        <ele>1602</ele>
        <time>2026-08-19T06:33:13.566Z</time>
      </trkpt>
      <trkpt lat="45.91886" lon="6.34139">
        <ele>1602</ele>
        <time>2026-08-19T06:33:14.566Z</time>
      </trkpt>
      <trkpt lat="45.91886" lon="6.34139">
        <ele>1603</ele>
        <time>2026-08-19T06:33:15.566Z</time>
      </trkpt>
      <trkpt lat="45.91887" lon="6.3414">
        <ele>1603</ele>
        <time>2026-08-19T06:33:16.566Z</time>
      </trkpt>
      <trkpt lat="45.91888" lon="6.34141">
        <ele>1603</ele>
        <time>2026-08-19T06:33:17.566Z</time>
      </trkpt>
      <trkpt lat="45.91889" lon="6.34142">
        <ele>1604</ele>
        <time>2026-08-19T06:33:18.566Z</time>
      </trkpt>
      <trkpt lat="45.9189" lon="6.34143">
        <ele>1604</ele>
        <time>2026-08-19T06:33:19.566Z</time>
      </trkpt>
      <trkpt lat="45.9189" lon="6.34144">
        <ele>1605</ele>
        <time>2026-08-19T06:33:20.566Z</time>
      </trkpt>
      <trkpt lat="45.91891" lon="6.34145">
        <ele>1605</ele>
        <time>2026-08-19T06:33:21.566Z</time>
      </trkpt>
      <trkpt lat="45.91892" lon="6.34146">
        <ele>1606</ele>
        <time>2026-08-19T06:33:22.566Z</time>
      </trkpt>
      <trkpt lat="45.91893" lon="6.34146">
        <ele>1606</ele>
        <time>2026-08-19T06:33:23.566Z</time>
      </trkpt>
      <trkpt lat="45.91893" lon="6.34147">
        <ele>1607</ele>
        <time>2026-08-19T06:33:24.567Z</time>
      </trkpt>
      <trkpt lat="45.91894" lon="6.34148">
        <ele>1607</ele>
        <time>2026-08-19T06:33:25.566Z</time>
      </trkpt>
      <trkpt lat="45.91895" lon="6.34148">
        <ele>1607</ele>
        <time>2026-08-19T06:33:26.566Z</time>
      </trkpt>
      <trkpt lat="45.91895" lon="6.34149">
        <ele>1607</ele>
        <time>2026-08-19T06:33:27.566Z</time>
      </trkpt>
      <trkpt lat="45.91896" lon="6.3415">
        <ele>1607</ele>
        <time>2026-08-19T06:33:28.566Z</time>
      </trkpt>
      <trkpt lat="45.91897" lon="6.3415">
        <ele>1607</ele>
        <time>2026-08-19T06:33:29.566Z</time>
      </trkpt>
      <trkpt lat="45.91898" lon="6.3415">
        <ele>1608</ele>
        <time>2026-08-19T06:33:30.566Z</time>
      </trkpt>
      <trkpt lat="45.91899" lon="6.3415">
        <ele>1608</ele>
        <time>2026-08-19T06:33:31.566Z</time>
      </trkpt>
      <trkpt lat="45.919" lon="6.3415">
        <ele>1608</ele>
        <time>2026-08-19T06:33:32.566Z</time>
      </trkpt>
      <trkpt lat="45.919" lon="6.3415">
        <ele>1609</ele>
        <time>2026-08-19T06:33:33.566Z</time>
      </trkpt>
      <trkpt lat="45.91902" lon="6.34151">
        <ele>1609</ele>
        <time>2026-08-19T06:33:34.566Z</time>
      </trkpt>
      <trkpt lat="45.91903" lon="6.34151">
        <ele>1610</ele>
        <time>2026-08-19T06:33:35.566Z</time>
      </trkpt>
      <trkpt lat="45.91903" lon="6.34152">
        <ele>1610</ele>
        <time>2026-08-19T06:33:36.566Z</time>
      </trkpt>
      <trkpt lat="45.91904" lon="6.34152">
        <ele>1611</ele>
        <time>2026-08-19T06:33:37.566Z</time>
      </trkpt>
      <trkpt lat="45.91904" lon="6.34154">
        <ele>1611</ele>
        <time>2026-08-19T06:33:38.566Z</time>
      </trkpt>
      <trkpt lat="45.91905" lon="6.34155">
        <ele>1611</ele>
        <time>2026-08-19T06:33:39.566Z</time>
      </trkpt>
      <trkpt lat="45.91905" lon="6.34156">
        <ele>1611</ele>
        <time>2026-08-19T06:33:40.566Z</time>
      </trkpt>
      <trkpt lat="45.91905" lon="6.34158">
        <ele>1612</ele>
        <time>2026-08-19T06:33:41.566Z</time>
      </trkpt>
      <trkpt lat="45.91906" lon="6.34159">
        <ele>1612</ele>
        <time>2026-08-19T06:33:42.566Z</time>
      </trkpt>
      <trkpt lat="45.91906" lon="6.34159">
        <ele>1612</ele>
        <time>2026-08-19T06:33:43.566Z</time>
      </trkpt>
      <trkpt lat="45.91907" lon="6.3416">
        <ele>1613</ele>
        <time>2026-08-19T06:33:44.566Z</time>
      </trkpt>
      <trkpt lat="45.91908" lon="6.34161">
        <ele>1613</ele>
        <time>2026-08-19T06:33:45.566Z</time>
      </trkpt>
      <trkpt lat="45.91909" lon="6.34163">
        <ele>1613</ele>
        <time>2026-08-19T06:33:46.566Z</time>
      </trkpt>
      <trkpt lat="45.91909" lon="6.34164">
        <ele>1613</ele>
        <time>2026-08-19T06:33:47.566Z</time>
      </trkpt>
      <trkpt lat="45.9191" lon="6.34165">
        <ele>1613</ele>
        <time>2026-08-19T06:33:48.566Z</time>
      </trkpt>
      <trkpt lat="45.91911" lon="6.34167">
        <ele>1613</ele>
        <time>2026-08-19T06:33:49.566Z</time>
      </trkpt>
      <trkpt lat="45.91911" lon="6.34168">
        <ele>1612</ele>
        <time>2026-08-19T06:33:50.566Z</time>
      </trkpt>
      <trkpt lat="45.91912" lon="6.34169">
        <ele>1612</ele>
        <time>2026-08-19T06:33:51.566Z</time>
      </trkpt>
      <trkpt lat="45.91912" lon="6.3417">
        <ele>1613</ele>
        <time>2026-08-19T06:33:52.566Z</time>
      </trkpt>
      <trkpt lat="45.91913" lon="6.34172">
        <ele>1613</ele>
        <time>2026-08-19T06:33:53.566Z</time>
      </trkpt>
      <trkpt lat="45.91913" lon="6.34173">
        <ele>1613</ele>
        <time>2026-08-19T06:33:54.566Z</time>
      </trkpt>
      <trkpt lat="45.91914" lon="6.34174">
        <ele>1614</ele>
        <time>2026-08-19T06:33:55.566Z</time>
      </trkpt>
      <trkpt lat="45.91914" lon="6.34175">
        <ele>1614</ele>
        <time>2026-08-19T06:33:56.566Z</time>
      </trkpt>
      <trkpt lat="45.91915" lon="6.34176">
        <ele>1614</ele>
        <time>2026-08-19T06:33:57.566Z</time>
      </trkpt>
      <trkpt lat="45.91916" lon="6.34177">
        <ele>1614</ele>
        <time>2026-08-19T06:33:58.566Z</time>
      </trkpt>
      <trkpt lat="45.91916" lon="6.34178">
        <ele>1613</ele>
        <time>2026-08-19T06:33:59.566Z</time>
      </trkpt>
      <trkpt lat="45.91916" lon="6.34179">
        <ele>1613</ele>
        <time>2026-08-19T06:34:00.566Z</time>
      </trkpt>
      <trkpt lat="45.91917" lon="6.3418">
        <ele>1613</ele>
        <time>2026-08-19T06:34:01.566Z</time>
      </trkpt>
      <trkpt lat="45.91917" lon="6.3418">
        <ele>1613</ele>
        <time>2026-08-19T06:34:02.567Z</time>
      </trkpt>
      <trkpt lat="45.91917" lon="6.3418">
        <ele>1612</ele>
        <time>2026-08-19T06:34:03.566Z</time>
      </trkpt>
      <trkpt lat="45.91917" lon="6.34181">
        <ele>1612</ele>
        <time>2026-08-19T06:34:04.566Z</time>
      </trkpt>
      <trkpt lat="45.91917" lon="6.34181">
        <ele>1612</ele>
        <time>2026-08-19T06:34:05.566Z</time>
      </trkpt>
      <trkpt lat="45.91917" lon="6.34182">
        <ele>1611</ele>
        <time>2026-08-19T06:34:06.566Z</time>
      </trkpt>
      <trkpt lat="45.91918" lon="6.34182">
        <ele>1611</ele>
        <time>2026-08-19T06:34:07.566Z</time>
      </trkpt>
      <trkpt lat="45.91918" lon="6.34184">
        <ele>1612</ele>
        <time>2026-08-19T06:34:08.566Z</time>
      </trkpt>
      <trkpt lat="45.91919" lon="6.34185">
        <ele>1612</ele>
        <time>2026-08-19T06:34:09.566Z</time>
      </trkpt>
      <trkpt lat="45.91919" lon="6.34187">
        <ele>1612</ele>
        <time>2026-08-19T06:34:10.566Z</time>
      </trkpt>
      <trkpt lat="45.9192" lon="6.34188">
        <ele>1612</ele>
        <time>2026-08-19T06:34:11.566Z</time>
      </trkpt>
      <trkpt lat="45.9192" lon="6.34189">
        <ele>1612</ele>
        <time>2026-08-19T06:34:12.566Z</time>
      </trkpt>
      <trkpt lat="45.91921" lon="6.34191">
        <ele>1613</ele>
        <time>2026-08-19T06:34:13.566Z</time>
      </trkpt>
      <trkpt lat="45.91922" lon="6.34193">
        <ele>1613</ele>
        <time>2026-08-19T06:34:14.566Z</time>
      </trkpt>
      <trkpt lat="45.91922" lon="6.34194">
        <ele>1613</ele>
        <time>2026-08-19T06:34:15.566Z</time>
      </trkpt>
      <trkpt lat="45.91923" lon="6.34196">
        <ele>1613</ele>
        <time>2026-08-19T06:34:16.566Z</time>
      </trkpt>
      <trkpt lat="45.91924" lon="6.34198">
        <ele>1613</ele>
        <time>2026-08-19T06:34:17.566Z</time>
      </trkpt>
      <trkpt lat="45.91925" lon="6.34199">
        <ele>1613</ele>
        <time>2026-08-19T06:34:18.566Z</time>
      </trkpt>
      <trkpt lat="45.91926" lon="6.34201">
        <ele>1613</ele>
        <time>2026-08-19T06:34:19.566Z</time>
      </trkpt>
      <trkpt lat="45.91927" lon="6.34202">
        <ele>1613</ele>
        <time>2026-08-19T06:34:20.566Z</time>
      </trkpt>
      <trkpt lat="45.91928" lon="6.34204">
        <ele>1613</ele>
        <time>2026-08-19T06:34:21.566Z</time>
      </trkpt>
      <trkpt lat="45.91929" lon="6.34205">
        <ele>1613</ele>
        <time>2026-08-19T06:34:22.566Z</time>
      </trkpt>
      <trkpt lat="45.91929" lon="6.34206">
        <ele>1613</ele>
        <time>2026-08-19T06:34:23.566Z</time>
      </trkpt>
      <trkpt lat="45.9193" lon="6.34208">
        <ele>1613</ele>
        <time>2026-08-19T06:34:24.566Z</time>
      </trkpt>
      <trkpt lat="45.91932" lon="6.34209">
        <ele>1613</ele>
        <time>2026-08-19T06:34:25.566Z</time>
      </trkpt>
      <trkpt lat="45.91932" lon="6.34211">
        <ele>1613</ele>
        <time>2026-08-19T06:34:26.566Z</time>
      </trkpt>
      <trkpt lat="45.91933" lon="6.34212">
        <ele>1614</ele>
        <time>2026-08-19T06:34:27.566Z</time>
      </trkpt>
      <trkpt lat="45.91934" lon="6.34213">
        <ele>1614</ele>
        <time>2026-08-19T06:34:28.566Z</time>
      </trkpt>
      <trkpt lat="45.91934" lon="6.34215">
        <ele>1614</ele>
        <time>2026-08-19T06:34:29.566Z</time>
      </trkpt>
      <trkpt lat="45.91935" lon="6.34217">
        <ele>1614</ele>
        <time>2026-08-19T06:34:30.566Z</time>
      </trkpt>
      <trkpt lat="45.91936" lon="6.34219">
        <ele>1615</ele>
        <time>2026-08-19T06:34:31.566Z</time>
      </trkpt>
      <trkpt lat="45.91937" lon="6.34221">
        <ele>1615</ele>
        <time>2026-08-19T06:34:32.566Z</time>
      </trkpt>
      <trkpt lat="45.91938" lon="6.34223">
        <ele>1615</ele>
        <time>2026-08-19T06:34:33.566Z</time>
      </trkpt>
      <trkpt lat="45.91939" lon="6.34225">
        <ele>1615</ele>
        <time>2026-08-19T06:34:34.566Z</time>
      </trkpt>
      <trkpt lat="45.9194" lon="6.34227">
        <ele>1615</ele>
        <time>2026-08-19T06:34:35.566Z</time>
      </trkpt>
      <trkpt lat="45.91941" lon="6.34229">
        <ele>1615</ele>
        <time>2026-08-19T06:34:36.566Z</time>
      </trkpt>
      <trkpt lat="45.91942" lon="6.34231">
        <ele>1616</ele>
        <time>2026-08-19T06:34:37.566Z</time>
      </trkpt>
      <trkpt lat="45.91943" lon="6.34233">
        <ele>1616</ele>
        <time>2026-08-19T06:34:38.566Z</time>
      </trkpt>
      <trkpt lat="45.91944" lon="6.34235">
        <ele>1616</ele>
        <time>2026-08-19T06:34:39.566Z</time>
      </trkpt>
      <trkpt lat="45.91945" lon="6.34237">
        <ele>1616</ele>
        <time>2026-08-19T06:34:40.566Z</time>
      </trkpt>
      <trkpt lat="45.91946" lon="6.34239">
        <ele>1617</ele>
        <time>2026-08-19T06:34:41.566Z</time>
      </trkpt>
      <trkpt lat="45.91947" lon="6.34241">
        <ele>1617</ele>
        <time>2026-08-19T06:34:42.566Z</time>
      </trkpt>
      <trkpt lat="45.91948" lon="6.34244">
        <ele>1617</ele>
        <time>2026-08-19T06:34:43.566Z</time>
      </trkpt>
      <trkpt lat="45.91949" lon="6.34246">
        <ele>1617</ele>
        <time>2026-08-19T06:34:44.566Z</time>
      </trkpt>
      <trkpt lat="45.9195" lon="6.34247">
        <ele>1618</ele>
        <time>2026-08-19T06:34:45.566Z</time>
      </trkpt>
      <trkpt lat="45.91951" lon="6.34249">
        <ele>1618</ele>
        <time>2026-08-19T06:34:46.566Z</time>
      </trkpt>
      <trkpt lat="45.91952" lon="6.34252">
        <ele>1618</ele>
        <time>2026-08-19T06:34:47.566Z</time>
      </trkpt>
      <trkpt lat="45.91953" lon="6.34255">
        <ele>1619</ele>
        <time>2026-08-19T06:34:48.566Z</time>
      </trkpt>
      <trkpt lat="45.91953" lon="6.34257">
        <ele>1619</ele>
        <time>2026-08-19T06:34:49.566Z</time>
      </trkpt>
      <trkpt lat="45.91954" lon="6.34259">
        <ele>1619</ele>
        <time>2026-08-19T06:34:50.566Z</time>
      </trkpt>
      <trkpt lat="45.91954" lon="6.34261">
        <ele>1619</ele>
        <time>2026-08-19T06:34:51.566Z</time>
      </trkpt>
      <trkpt lat="45.91954" lon="6.34263">
        <ele>1619</ele>
        <time>2026-08-19T06:34:52.566Z</time>
      </trkpt>
      <trkpt lat="45.91955" lon="6.34264">
        <ele>1619</ele>
        <time>2026-08-19T06:34:53.566Z</time>
      </trkpt>
      <trkpt lat="45.91955" lon="6.34266">
        <ele>1619</ele>
        <time>2026-08-19T06:34:54.566Z</time>
      </trkpt>
      <trkpt lat="45.91956" lon="6.34267">
        <ele>1619</ele>
        <time>2026-08-19T06:34:55.566Z</time>
      </trkpt>
      <trkpt lat="45.91956" lon="6.34269">
        <ele>1620</ele>
        <time>2026-08-19T06:34:56.566Z</time>
      </trkpt>
      <trkpt lat="45.91957" lon="6.3427">
        <ele>1620</ele>
        <time>2026-08-19T06:34:57.566Z</time>
      </trkpt>
      <trkpt lat="45.91957" lon="6.34271">
        <ele>1620</ele>
        <time>2026-08-19T06:34:58.566Z</time>
      </trkpt>
      <trkpt lat="45.91958" lon="6.34272">
        <ele>1620</ele>
        <time>2026-08-19T06:34:59.566Z</time>
      </trkpt>
      <trkpt lat="45.91958" lon="6.34273">
        <ele>1620</ele>
        <time>2026-08-19T06:35:00.566Z</time>
      </trkpt>
      <trkpt lat="45.91959" lon="6.34274">
        <ele>1620</ele>
        <time>2026-08-19T06:35:01.566Z</time>
      </trkpt>
      <trkpt lat="45.91959" lon="6.34275">
        <ele>1620</ele>
        <time>2026-08-19T06:35:02.566Z</time>
      </trkpt>
      <trkpt lat="45.9196" lon="6.34276">
        <ele>1620</ele>
        <time>2026-08-19T06:35:03.566Z</time>
      </trkpt>
      <trkpt lat="45.9196" lon="6.34277">
        <ele>1620</ele>
        <time>2026-08-19T06:35:04.566Z</time>
      </trkpt>
      <trkpt lat="45.91961" lon="6.34278">
        <ele>1620</ele>
        <time>2026-08-19T06:35:05.566Z</time>
      </trkpt>
      <trkpt lat="45.91961" lon="6.34278">
        <ele>1620</ele>
        <time>2026-08-19T06:35:06.566Z</time>
      </trkpt>
      <trkpt lat="45.91962" lon="6.34279">
        <ele>1620</ele>
        <time>2026-08-19T06:35:07.566Z</time>
      </trkpt>
      <trkpt lat="45.91962" lon="6.3428">
        <ele>1620</ele>
        <time>2026-08-19T06:35:08.566Z</time>
      </trkpt>
      <trkpt lat="45.91963" lon="6.34281">
        <ele>1621</ele>
        <time>2026-08-19T06:35:09.566Z</time>
      </trkpt>
      <trkpt lat="45.91963" lon="6.34281">
        <ele>1621</ele>
        <time>2026-08-19T06:35:10.566Z</time>
      </trkpt>
      <trkpt lat="45.91964" lon="6.34282">
        <ele>1621</ele>
        <time>2026-08-19T06:35:11.566Z</time>
      </trkpt>
      <trkpt lat="45.91964" lon="6.34283">
        <ele>1621</ele>
        <time>2026-08-19T06:35:12.566Z</time>
      </trkpt>
      <trkpt lat="45.91965" lon="6.34284">
        <ele>1621</ele>
        <time>2026-08-19T06:35:13.566Z</time>
      </trkpt>
      <trkpt lat="45.91965" lon="6.34285">
        <ele>1621</ele>
        <time>2026-08-19T06:35:14.566Z</time>
      </trkpt>
      <trkpt lat="45.91966" lon="6.34285">
        <ele>1622</ele>
        <time>2026-08-19T06:35:15.566Z</time>
      </trkpt>
      <trkpt lat="45.91966" lon="6.34286">
        <ele>1622</ele>
        <time>2026-08-19T06:35:16.566Z</time>
      </trkpt>
      <trkpt lat="45.91967" lon="6.34287">
        <ele>1622</ele>
        <time>2026-08-19T06:35:17.566Z</time>
      </trkpt>
      <trkpt lat="45.91967" lon="6.34288">
        <ele>1622</ele>
        <time>2026-08-19T06:35:18.566Z</time>
      </trkpt>
      <trkpt lat="45.91967" lon="6.34288">
        <ele>1623</ele>
        <time>2026-08-19T06:35:19.566Z</time>
      </trkpt>
      <trkpt lat="45.91967" lon="6.34289">
        <ele>1623</ele>
        <time>2026-08-19T06:35:20.566Z</time>
      </trkpt>
      <trkpt lat="45.91967" lon="6.34289">
        <ele>1622</ele>
        <time>2026-08-19T06:35:21.566Z</time>
      </trkpt>
      <trkpt lat="45.91968" lon="6.34289">
        <ele>1622</ele>
        <time>2026-08-19T06:35:22.566Z</time>
      </trkpt>
      <trkpt lat="45.91968" lon="6.34289">
        <ele>1622</ele>
        <time>2026-08-19T06:35:23.566Z</time>
      </trkpt>
      <trkpt lat="45.91968" lon="6.3429">
        <ele>1622</ele>
        <time>2026-08-19T06:35:24.566Z</time>
      </trkpt>
      <trkpt lat="45.91969" lon="6.34291">
        <ele>1622</ele>
        <time>2026-08-19T06:35:25.566Z</time>
      </trkpt>
      <trkpt lat="45.91969" lon="6.34292">
        <ele>1622</ele>
        <time>2026-08-19T06:35:26.566Z</time>
      </trkpt>
      <trkpt lat="45.91969" lon="6.34293">
        <ele>1622</ele>
        <time>2026-08-19T06:35:27.566Z</time>
      </trkpt>
      <trkpt lat="45.9197" lon="6.34294">
        <ele>1623</ele>
        <time>2026-08-19T06:35:28.566Z</time>
      </trkpt>
      <trkpt lat="45.9197" lon="6.34295">
        <ele>1623</ele>
        <time>2026-08-19T06:35:29.566Z</time>
      </trkpt>
      <trkpt lat="45.91971" lon="6.34296">
        <ele>1623</ele>
        <time>2026-08-19T06:35:30.566Z</time>
      </trkpt>
      <trkpt lat="45.91971" lon="6.34297">
        <ele>1623</ele>
        <time>2026-08-19T06:35:31.566Z</time>
      </trkpt>
      <trkpt lat="45.91971" lon="6.34298">
        <ele>1623</ele>
        <time>2026-08-19T06:35:32.566Z</time>
      </trkpt>
      <trkpt lat="45.91972" lon="6.34299">
        <ele>1623</ele>
        <time>2026-08-19T06:35:33.566Z</time>
      </trkpt>
      <trkpt lat="45.91972" lon="6.343">
        <ele>1623</ele>
        <time>2026-08-19T06:35:34.566Z</time>
      </trkpt>
      <trkpt lat="45.91973" lon="6.343">
        <ele>1624</ele>
        <time>2026-08-19T06:35:35.566Z</time>
      </trkpt>
      <trkpt lat="45.91973" lon="6.34301">
        <ele>1624</ele>
        <time>2026-08-19T06:35:36.566Z</time>
      </trkpt>
      <trkpt lat="45.91973" lon="6.34302">
        <ele>1624</ele>
        <time>2026-08-19T06:35:37.566Z</time>
      </trkpt>
      <trkpt lat="45.91974" lon="6.34304">
        <ele>1624</ele>
        <time>2026-08-19T06:35:38.566Z</time>
      </trkpt>
      <trkpt lat="45.91974" lon="6.34305">
        <ele>1624</ele>
        <time>2026-08-19T06:35:39.566Z</time>
      </trkpt>
      <trkpt lat="45.91975" lon="6.34306">
        <ele>1624</ele>
        <time>2026-08-19T06:35:40.566Z</time>
      </trkpt>
      <trkpt lat="45.91975" lon="6.34307">
        <ele>1624</ele>
        <time>2026-08-19T06:35:41.566Z</time>
      </trkpt>
      <trkpt lat="45.91976" lon="6.34308">
        <ele>1625</ele>
        <time>2026-08-19T06:35:42.566Z</time>
      </trkpt>
      <trkpt lat="45.91977" lon="6.34308">
        <ele>1625</ele>
        <time>2026-08-19T06:35:43.566Z</time>
      </trkpt>
      <trkpt lat="45.91978" lon="6.34309">
        <ele>1625</ele>
        <time>2026-08-19T06:35:44.566Z</time>
      </trkpt>
      <trkpt lat="45.91978" lon="6.34309">
        <ele>1626</ele>
        <time>2026-08-19T06:35:45.566Z</time>
      </trkpt>
      <trkpt lat="45.91979" lon="6.3431">
        <ele>1626</ele>
        <time>2026-08-19T06:35:46.566Z</time>
      </trkpt>
      <trkpt lat="45.91979" lon="6.34311">
        <ele>1626</ele>
        <time>2026-08-19T06:35:47.566Z</time>
      </trkpt>
      <trkpt lat="45.91979" lon="6.34312">
        <ele>1626</ele>
        <time>2026-08-19T06:35:48.566Z</time>
      </trkpt>
      <trkpt lat="45.9198" lon="6.34313">
        <ele>1627</ele>
        <time>2026-08-19T06:35:49.566Z</time>
      </trkpt>
      <trkpt lat="45.9198" lon="6.34313">
        <ele>1627</ele>
        <time>2026-08-19T06:35:50.566Z</time>
      </trkpt>
      <trkpt lat="45.9198" lon="6.34314">
        <ele>1627</ele>
        <time>2026-08-19T06:35:51.566Z</time>
      </trkpt>
      <trkpt lat="45.91981" lon="6.34315">
        <ele>1628</ele>
        <time>2026-08-19T06:35:52.566Z</time>
      </trkpt>
      <trkpt lat="45.91981" lon="6.34316">
        <ele>1628</ele>
        <time>2026-08-19T06:35:53.566Z</time>
      </trkpt>
      <trkpt lat="45.91981" lon="6.34316">
        <ele>1628</ele>
        <time>2026-08-19T06:35:54.566Z</time>
      </trkpt>
      <trkpt lat="45.91981" lon="6.34317">
        <ele>1628</ele>
        <time>2026-08-19T06:35:55.566Z</time>
      </trkpt>
      <trkpt lat="45.91982" lon="6.34318">
        <ele>1629</ele>
        <time>2026-08-19T06:35:56.566Z</time>
      </trkpt>
      <trkpt lat="45.91982" lon="6.34318">
        <ele>1629</ele>
        <time>2026-08-19T06:35:57.566Z</time>
      </trkpt>
      <trkpt lat="45.91982" lon="6.34319">
        <ele>1629</ele>
        <time>2026-08-19T06:35:58.566Z</time>
      </trkpt>
      <trkpt lat="45.91982" lon="6.3432">
        <ele>1629</ele>
        <time>2026-08-19T06:35:59.566Z</time>
      </trkpt>
      <trkpt lat="45.91982" lon="6.3432">
        <ele>1630</ele>
        <time>2026-08-19T06:36:00.566Z</time>
      </trkpt>
      <trkpt lat="45.91983" lon="6.34321">
        <ele>1630</ele>
        <time>2026-08-19T06:36:01.566Z</time>
      </trkpt>
      <trkpt lat="45.91983" lon="6.34322">
        <ele>1631</ele>
        <time>2026-08-19T06:36:02.566Z</time>
      </trkpt>
      <trkpt lat="45.91984" lon="6.34323">
        <ele>1631</ele>
        <time>2026-08-19T06:36:03.566Z</time>
      </trkpt>
      <trkpt lat="45.91985" lon="6.34324">
        <ele>1631</ele>
        <time>2026-08-19T06:36:04.566Z</time>
      </trkpt>
      <trkpt lat="45.91985" lon="6.34325">
        <ele>1632</ele>
        <time>2026-08-19T06:36:05.566Z</time>
      </trkpt>
      <trkpt lat="45.91985" lon="6.34325">
        <ele>1632</ele>
        <time>2026-08-19T06:36:06.566Z</time>
      </trkpt>
      <trkpt lat="45.91986" lon="6.34326">
        <ele>1632</ele>
        <time>2026-08-19T06:36:07.566Z</time>
      </trkpt>
      <trkpt lat="45.91986" lon="6.34327">
        <ele>1633</ele>
        <time>2026-08-19T06:36:08.566Z</time>
      </trkpt>
      <trkpt lat="45.91986" lon="6.34328">
        <ele>1633</ele>
        <time>2026-08-19T06:36:09.566Z</time>
      </trkpt>
      <trkpt lat="45.91986" lon="6.34328">
        <ele>1633</ele>
        <time>2026-08-19T06:36:10.566Z</time>
      </trkpt>
      <trkpt lat="45.91987" lon="6.34329">
        <ele>1633</ele>
        <time>2026-08-19T06:36:11.566Z</time>
      </trkpt>
      <trkpt lat="45.91988" lon="6.34329">
        <ele>1634</ele>
        <time>2026-08-19T06:36:12.566Z</time>
      </trkpt>
      <trkpt lat="45.91988" lon="6.34329">
        <ele>1634</ele>
        <time>2026-08-19T06:36:13.566Z</time>
      </trkpt>
      <trkpt lat="45.91988" lon="6.3433">
        <ele>1634</ele>
        <time>2026-08-19T06:36:14.566Z</time>
      </trkpt>
      <trkpt lat="45.91989" lon="6.34331">
        <ele>1634</ele>
        <time>2026-08-19T06:36:15.566Z</time>
      </trkpt>
      <trkpt lat="45.91989" lon="6.34332">
        <ele>1634</ele>
        <time>2026-08-19T06:36:16.566Z</time>
      </trkpt>
      <trkpt lat="45.9199" lon="6.34333">
        <ele>1634</ele>
        <time>2026-08-19T06:36:17.566Z</time>
      </trkpt>
      <trkpt lat="45.9199" lon="6.34333">
        <ele>1635</ele>
        <time>2026-08-19T06:36:18.566Z</time>
      </trkpt>
      <trkpt lat="45.9199" lon="6.34334">
        <ele>1635</ele>
        <time>2026-08-19T06:36:19.566Z</time>
      </trkpt>
      <trkpt lat="45.9199" lon="6.34334">
        <ele>1636</ele>
        <time>2026-08-19T06:36:20.566Z</time>
      </trkpt>
      <trkpt lat="45.91991" lon="6.34335">
        <ele>1636</ele>
        <time>2026-08-19T06:36:21.566Z</time>
      </trkpt>
      <trkpt lat="45.91991" lon="6.34336">
        <ele>1636</ele>
        <time>2026-08-19T06:36:22.566Z</time>
      </trkpt>
      <trkpt lat="45.91991" lon="6.34336">
        <ele>1637</ele>
        <time>2026-08-19T06:36:23.566Z</time>
      </trkpt>
      <trkpt lat="45.91991" lon="6.34337">
        <ele>1637</ele>
        <time>2026-08-19T06:36:24.566Z</time>
      </trkpt>
      <trkpt lat="45.91992" lon="6.34337">
        <ele>1638</ele>
        <time>2026-08-19T06:36:25.566Z</time>
      </trkpt>
      <trkpt lat="45.91992" lon="6.34338">
        <ele>1638</ele>
        <time>2026-08-19T06:36:26.566Z</time>
      </trkpt>
      <trkpt lat="45.91992" lon="6.34338">
        <ele>1639</ele>
        <time>2026-08-19T06:36:27.566Z</time>
      </trkpt>
      <trkpt lat="45.91993" lon="6.34339">
        <ele>1639</ele>
        <time>2026-08-19T06:36:28.566Z</time>
      </trkpt>
      <trkpt lat="45.91993" lon="6.34339">
        <ele>1640</ele>
        <time>2026-08-19T06:36:29.566Z</time>
      </trkpt>
      <trkpt lat="45.91994" lon="6.3434">
        <ele>1640</ele>
        <time>2026-08-19T06:36:30.566Z</time>
      </trkpt>
      <trkpt lat="45.91995" lon="6.34341">
        <ele>1640</ele>
        <time>2026-08-19T06:36:31.566Z</time>
      </trkpt>
      <trkpt lat="45.91995" lon="6.34341">
        <ele>1640</ele>
        <time>2026-08-19T06:36:32.566Z</time>
      </trkpt>
      <trkpt lat="45.91996" lon="6.34342">
        <ele>1640</ele>
        <time>2026-08-19T06:36:33.566Z</time>
      </trkpt>
      <trkpt lat="45.91997" lon="6.34343">
        <ele>1640</ele>
        <time>2026-08-19T06:36:34.566Z</time>
      </trkpt>
      <trkpt lat="45.91997" lon="6.34343">
        <ele>1640</ele>
        <time>2026-08-19T06:36:35.566Z</time>
      </trkpt>
      <trkpt lat="45.91998" lon="6.34344">
        <ele>1641</ele>
        <time>2026-08-19T06:36:36.566Z</time>
      </trkpt>
      <trkpt lat="45.91998" lon="6.34344">
        <ele>1641</ele>
        <time>2026-08-19T06:36:37.566Z</time>
      </trkpt>
      <trkpt lat="45.91998" lon="6.34345">
        <ele>1641</ele>
        <time>2026-08-19T06:36:38.566Z</time>
      </trkpt>
      <trkpt lat="45.91999" lon="6.34345">
        <ele>1642</ele>
        <time>2026-08-19T06:36:39.566Z</time>
      </trkpt>
      <trkpt lat="45.91999" lon="6.34346">
        <ele>1642</ele>
        <time>2026-08-19T06:36:40.566Z</time>
      </trkpt>
      <trkpt lat="45.92" lon="6.34346">
        <ele>1642</ele>
        <time>2026-08-19T06:36:41.566Z</time>
      </trkpt>
      <trkpt lat="45.92001" lon="6.34347">
        <ele>1642</ele>
        <time>2026-08-19T06:36:42.566Z</time>
      </trkpt>
      <trkpt lat="45.92001" lon="6.34347">
        <ele>1642</ele>
        <time>2026-08-19T06:36:43.566Z</time>
      </trkpt>
      <trkpt lat="45.92001" lon="6.34348">
        <ele>1643</ele>
        <time>2026-08-19T06:36:44.566Z</time>
      </trkpt>
      <trkpt lat="45.92001" lon="6.34349">
        <ele>1643</ele>
        <time>2026-08-19T06:36:45.566Z</time>
      </trkpt>
      <trkpt lat="45.92002" lon="6.34349">
        <ele>1643</ele>
        <time>2026-08-19T06:36:46.566Z</time>
      </trkpt>
      <trkpt lat="45.92002" lon="6.3435">
        <ele>1643</ele>
        <time>2026-08-19T06:36:47.566Z</time>
      </trkpt>
      <trkpt lat="45.92002" lon="6.3435">
        <ele>1643</ele>
        <time>2026-08-19T06:36:48.566Z</time>
      </trkpt>
      <trkpt lat="45.92003" lon="6.34351">
        <ele>1644</ele>
        <time>2026-08-19T06:36:49.566Z</time>
      </trkpt>
      <trkpt lat="45.92002" lon="6.34351">
        <ele>1644</ele>
        <time>2026-08-19T06:36:50.566Z</time>
      </trkpt>
      <trkpt lat="45.92002" lon="6.34352">
        <ele>1644</ele>
        <time>2026-08-19T06:36:51.566Z</time>
      </trkpt>
      <trkpt lat="45.92002" lon="6.34352">
        <ele>1645</ele>
        <time>2026-08-19T06:36:52.566Z</time>
      </trkpt>
      <trkpt lat="45.92003" lon="6.34353">
        <ele>1645</ele>
        <time>2026-08-19T06:36:53.566Z</time>
      </trkpt>
      <trkpt lat="45.92003" lon="6.34353">
        <ele>1645</ele>
        <time>2026-08-19T06:36:54.566Z</time>
      </trkpt>
      <trkpt lat="45.92003" lon="6.34354">
        <ele>1645</ele>
        <time>2026-08-19T06:36:55.566Z</time>
      </trkpt>
      <trkpt lat="45.92004" lon="6.34354">
        <ele>1646</ele>
        <time>2026-08-19T06:36:56.566Z</time>
      </trkpt>
      <trkpt lat="45.92004" lon="6.34354">
        <ele>1646</ele>
        <time>2026-08-19T06:36:57.566Z</time>
      </trkpt>
      <trkpt lat="45.92005" lon="6.34355">
        <ele>1647</ele>
        <time>2026-08-19T06:36:58.566Z</time>
      </trkpt>
      <trkpt lat="45.92005" lon="6.34355">
        <ele>1647</ele>
        <time>2026-08-19T06:36:59.566Z</time>
      </trkpt>
      <trkpt lat="45.92006" lon="6.34355">
        <ele>1647</ele>
        <time>2026-08-19T06:37:00.566Z</time>
      </trkpt>
      <trkpt lat="45.92006" lon="6.34355">
        <ele>1647</ele>
        <time>2026-08-19T06:37:01.566Z</time>
      </trkpt>
      <trkpt lat="45.92007" lon="6.34356">
        <ele>1648</ele>
        <time>2026-08-19T06:37:02.566Z</time>
      </trkpt>
      <trkpt lat="45.92007" lon="6.34356">
        <ele>1648</ele>
        <time>2026-08-19T06:37:03.566Z</time>
      </trkpt>
      <trkpt lat="45.92008" lon="6.34357">
        <ele>1648</ele>
        <time>2026-08-19T06:37:04.566Z</time>
      </trkpt>
      <trkpt lat="45.92008" lon="6.34357">
        <ele>1649</ele>
        <time>2026-08-19T06:37:05.566Z</time>
      </trkpt>
      <trkpt lat="45.92008" lon="6.34358">
        <ele>1649</ele>
        <time>2026-08-19T06:37:06.566Z</time>
      </trkpt>
      <trkpt lat="45.92009" lon="6.34359">
        <ele>1650</ele>
        <time>2026-08-19T06:37:07.566Z</time>
      </trkpt>
      <trkpt lat="45.92009" lon="6.34359">
        <ele>1650</ele>
        <time>2026-08-19T06:37:08.566Z</time>
      </trkpt>
      <trkpt lat="45.92009" lon="6.3436">
        <ele>1650</ele>
        <time>2026-08-19T06:37:09.566Z</time>
      </trkpt>
      <trkpt lat="45.92009" lon="6.34361">
        <ele>1650</ele>
        <time>2026-08-19T06:37:10.566Z</time>
      </trkpt>
      <trkpt lat="45.92009" lon="6.34362">
        <ele>1650</ele>
        <time>2026-08-19T06:37:11.566Z</time>
      </trkpt>
      <trkpt lat="45.92009" lon="6.34362">
        <ele>1651</ele>
        <time>2026-08-19T06:37:12.566Z</time>
      </trkpt>
      <trkpt lat="45.9201" lon="6.34363">
        <ele>1651</ele>
        <time>2026-08-19T06:37:13.566Z</time>
      </trkpt>
      <trkpt lat="45.9201" lon="6.34364">
        <ele>1651</ele>
        <time>2026-08-19T06:37:14.566Z</time>
      </trkpt>
      <trkpt lat="45.9201" lon="6.34365">
        <ele>1652</ele>
        <time>2026-08-19T06:37:15.566Z</time>
      </trkpt>
      <trkpt lat="45.92011" lon="6.34366">
        <ele>1652</ele>
        <time>2026-08-19T06:37:16.566Z</time>
      </trkpt>
      <trkpt lat="45.92011" lon="6.34366">
        <ele>1652</ele>
        <time>2026-08-19T06:37:17.566Z</time>
      </trkpt>
      <trkpt lat="45.92011" lon="6.34367">
        <ele>1652</ele>
        <time>2026-08-19T06:37:18.566Z</time>
      </trkpt>
      <trkpt lat="45.92012" lon="6.34368">
        <ele>1652</ele>
        <time>2026-08-19T06:37:19.566Z</time>
      </trkpt>
      <trkpt lat="45.92012" lon="6.34368">
        <ele>1652</ele>
        <time>2026-08-19T06:37:20.566Z</time>
      </trkpt>
      <trkpt lat="45.92012" lon="6.34369">
        <ele>1653</ele>
        <time>2026-08-19T06:37:21.566Z</time>
      </trkpt>
      <trkpt lat="45.92012" lon="6.34368">
        <ele>1653</ele>
        <time>2026-08-19T06:37:22.566Z</time>
      </trkpt>
      <trkpt lat="45.92012" lon="6.34368">
        <ele>1653</ele>
        <time>2026-08-19T06:37:23.566Z</time>
      </trkpt>
      <trkpt lat="45.92012" lon="6.34368">
        <ele>1653</ele>
        <time>2026-08-19T06:37:24.566Z</time>
      </trkpt>
      <trkpt lat="45.92012" lon="6.34368">
        <ele>1654</ele>
        <time>2026-08-19T06:37:25.566Z</time>
      </trkpt>
      <trkpt lat="45.92012" lon="6.34368">
        <ele>1654</ele>
        <time>2026-08-19T06:37:26.566Z</time>
      </trkpt>
      <trkpt lat="45.92013" lon="6.34368">
        <ele>1655</ele>
        <time>2026-08-19T06:37:27.566Z</time>
      </trkpt>
      <trkpt lat="45.92013" lon="6.34367">
        <ele>1655</ele>
        <time>2026-08-19T06:37:28.566Z</time>
      </trkpt>
      <trkpt lat="45.92013" lon="6.34367">
        <ele>1655</ele>
        <time>2026-08-19T06:37:29.566Z</time>
      </trkpt>
      <trkpt lat="45.92013" lon="6.34367">
        <ele>1656</ele>
        <time>2026-08-19T06:37:30.566Z</time>
      </trkpt>
      <trkpt lat="45.92013" lon="6.34367">
        <ele>1656</ele>
        <time>2026-08-19T06:37:31.566Z</time>
      </trkpt>
      <trkpt lat="45.92013" lon="6.34367">
        <ele>1656</ele>
        <time>2026-08-19T06:37:32.566Z</time>
      </trkpt>
      <trkpt lat="45.92013" lon="6.34367">
        <ele>1656</ele>
        <time>2026-08-19T06:37:33.566Z</time>
      </trkpt>
      <trkpt lat="45.92013" lon="6.34367">
        <ele>1656</ele>
        <time>2026-08-19T06:37:34.566Z</time>
      </trkpt>
      <trkpt lat="45.92013" lon="6.34367">
        <ele>1656</ele>
        <time>2026-08-19T06:37:35.566Z</time>
      </trkpt>
      <trkpt lat="45.92013" lon="6.34367">
        <ele>1656</ele>
        <time>2026-08-19T06:37:36.566Z</time>
      </trkpt>
      <trkpt lat="45.92013" lon="6.34367">
        <ele>1655</ele>
        <time>2026-08-19T06:37:37.566Z</time>
      </trkpt>
      <trkpt lat="45.92013" lon="6.34367">
        <ele>1655</ele>
        <time>2026-08-19T06:37:38.566Z</time>
      </trkpt>
      <trkpt lat="45.92013" lon="6.34367">
        <ele>1655</ele>
        <time>2026-08-19T06:37:39.566Z</time>
      </trkpt>
      <trkpt lat="45.92013" lon="6.34367">
        <ele>1655</ele>
        <time>2026-08-19T06:37:40.566Z</time>
      </trkpt>
      <trkpt lat="45.92013" lon="6.34368">
        <ele>1655</ele>
        <time>2026-08-19T06:37:41.566Z</time>
      </trkpt>
      <trkpt lat="45.92013" lon="6.34368">
        <ele>1655</ele>
        <time>2026-08-19T06:37:42.566Z</time>
      </trkpt>
      <trkpt lat="45.92013" lon="6.34368">
        <ele>1655</ele>
        <time>2026-08-19T06:37:43.566Z</time>
      </trkpt>
      <trkpt lat="45.92013" lon="6.34368">
        <ele>1655</ele>
        <time>2026-08-19T06:37:44.566Z</time>
      </trkpt>
      <trkpt lat="45.92013" lon="6.34368">
        <ele>1655</ele>
        <time>2026-08-19T06:37:45.566Z</time>
      </trkpt>
      <trkpt lat="45.92013" lon="6.34368">
        <ele>1655</ele>
        <time>2026-08-19T06:37:46.566Z</time>
      </trkpt>
      <trkpt lat="45.92013" lon="6.34368">
        <ele>1655</ele>
        <time>2026-08-19T06:37:47.566Z</time>
      </trkpt>
      <trkpt lat="45.92013" lon="6.34368">
        <ele>1655</ele>
        <time>2026-08-19T06:37:48.566Z</time>
      </trkpt>
      <trkpt lat="45.92013" lon="6.34368">
        <ele>1655</ele>
        <time>2026-08-19T06:37:49.566Z</time>
      </trkpt>
      <trkpt lat="45.92013" lon="6.34368">
        <ele>1655</ele>
        <time>2026-08-19T06:37:50.566Z</time>
      </trkpt>
      <trkpt lat="45.92013" lon="6.34369">
        <ele>1655</ele>
        <time>2026-08-19T06:37:51.566Z</time>
      </trkpt>
      <trkpt lat="45.92014" lon="6.34371">
        <ele>1655</ele>
        <time>2026-08-19T06:37:52.566Z</time>
      </trkpt>
      <trkpt lat="45.92014" lon="6.34372">
        <ele>1655</ele>
        <time>2026-08-19T06:37:53.566Z</time>
      </trkpt>
      <trkpt lat="45.92015" lon="6.34373">
        <ele>1655</ele>
        <time>2026-08-19T06:37:54.566Z</time>
      </trkpt>
      <trkpt lat="45.92015" lon="6.34374">
        <ele>1655</ele>
        <time>2026-08-19T06:37:55.566Z</time>
      </trkpt>
      <trkpt lat="45.92016" lon="6.34374">
        <ele>1656</ele>
        <time>2026-08-19T06:37:56.566Z</time>
      </trkpt>
      <trkpt lat="45.92016" lon="6.34375">
        <ele>1656</ele>
        <time>2026-08-19T06:37:57.566Z</time>
      </trkpt>
      <trkpt lat="45.92016" lon="6.34376">
        <ele>1656</ele>
        <time>2026-08-19T06:37:58.566Z</time>
      </trkpt>
      <trkpt lat="45.92017" lon="6.34376">
        <ele>1656</ele>
        <time>2026-08-19T06:37:59.566Z</time>
      </trkpt>
      <trkpt lat="45.92017" lon="6.34376">
        <ele>1656</ele>
        <time>2026-08-19T06:38:00.566Z</time>
      </trkpt>
      <trkpt lat="45.92017" lon="6.34376">
        <ele>1656</ele>
        <time>2026-08-19T06:38:01.566Z</time>
      </trkpt>
      <trkpt lat="45.92017" lon="6.34376">
        <ele>1657</ele>
        <time>2026-08-19T06:38:02.566Z</time>
      </trkpt>
      <trkpt lat="45.92017" lon="6.34376">
        <ele>1657</ele>
        <time>2026-08-19T06:38:03.566Z</time>
      </trkpt>
      <trkpt lat="45.92017" lon="6.34376">
        <ele>1657</ele>
        <time>2026-08-19T06:38:04.566Z</time>
      </trkpt>
      <trkpt lat="45.92017" lon="6.34376">
        <ele>1658</ele>
        <time>2026-08-19T06:38:05.566Z</time>
      </trkpt>
      <trkpt lat="45.92017" lon="6.34377">
        <ele>1658</ele>
        <time>2026-08-19T06:38:06.566Z</time>
      </trkpt>
      <trkpt lat="45.92017" lon="6.34377">
        <ele>1658</ele>
        <time>2026-08-19T06:38:07.566Z</time>
      </trkpt>
      <trkpt lat="45.92017" lon="6.34377">
        <ele>1658</ele>
        <time>2026-08-19T06:38:08.566Z</time>
      </trkpt>
      <trkpt lat="45.92017" lon="6.34377">
        <ele>1659</ele>
        <time>2026-08-19T06:38:09.566Z</time>
      </trkpt>
      <trkpt lat="45.92017" lon="6.34378">
        <ele>1659</ele>
        <time>2026-08-19T06:38:10.566Z</time>
      </trkpt>
      <trkpt lat="45.92017" lon="6.34378">
        <ele>1659</ele>
        <time>2026-08-19T06:38:11.566Z</time>
      </trkpt>
      <trkpt lat="45.92017" lon="6.34378">
        <ele>1659</ele>
        <time>2026-08-19T06:38:12.566Z</time>
      </trkpt>
      <trkpt lat="45.92017" lon="6.34378">
        <ele>1659</ele>
        <time>2026-08-19T06:38:13.566Z</time>
      </trkpt>
      <trkpt lat="45.92017" lon="6.34378">
        <ele>1659</ele>
        <time>2026-08-19T06:38:14.566Z</time>
      </trkpt>
      <trkpt lat="45.92017" lon="6.34378">
        <ele>1660</ele>
        <time>2026-08-19T06:38:15.566Z</time>
      </trkpt>
      <trkpt lat="45.92017" lon="6.34378">
        <ele>1660</ele>
        <time>2026-08-19T06:38:16.566Z</time>
      </trkpt>
      <trkpt lat="45.92017" lon="6.34378">
        <ele>1660</ele>
        <time>2026-08-19T06:38:17.566Z</time>
      </trkpt>
      <trkpt lat="45.92017" lon="6.34378">
        <ele>1660</ele>
        <time>2026-08-19T06:38:18.566Z</time>
      </trkpt>
      <trkpt lat="45.92017" lon="6.34378">
        <ele>1660</ele>
        <time>2026-08-19T06:38:19.567Z</time>
      </trkpt>
      <trkpt lat="45.92017" lon="6.34378">
        <ele>1660</ele>
        <time>2026-08-19T06:38:20.566Z</time>
      </trkpt>
      <trkpt lat="45.92017" lon="6.34378">
        <ele>1660</ele>
        <time>2026-08-19T06:38:21.566Z</time>
      </trkpt>
      <trkpt lat="45.92017" lon="6.34377">
        <ele>1660</ele>
        <time>2026-08-19T06:38:22.566Z</time>
      </trkpt>
      <trkpt lat="45.92017" lon="6.34377">
        <ele>1660</ele>
        <time>2026-08-19T06:38:23.566Z</time>
      </trkpt>
      <trkpt lat="45.92017" lon="6.34377">
        <ele>1660</ele>
        <time>2026-08-19T06:38:24.566Z</time>
      </trkpt>
      <trkpt lat="45.92017" lon="6.34377">
        <ele>1660</ele>
        <time>2026-08-19T06:38:25.566Z</time>
      </trkpt>
      <trkpt lat="45.92017" lon="6.34377">
        <ele>1660</ele>
        <time>2026-08-19T06:38:26.566Z</time>
      </trkpt>
      <trkpt lat="45.92017" lon="6.34377">
        <ele>1660</ele>
        <time>2026-08-19T06:38:27.566Z</time>
      </trkpt>
      <trkpt lat="45.92017" lon="6.34377">
        <ele>1660</ele>
        <time>2026-08-19T06:38:28.566Z</time>
      </trkpt>
      <trkpt lat="45.92017" lon="6.34377">
        <ele>1660</ele>
        <time>2026-08-19T06:38:29.566Z</time>
      </trkpt>
      <trkpt lat="45.92017" lon="6.34377">
        <ele>1661</ele>
        <time>2026-08-19T06:38:30.566Z</time>
      </trkpt>
      <trkpt lat="45.92017" lon="6.34377">
        <ele>1661</ele>
        <time>2026-08-19T06:38:31.566Z</time>
      </trkpt>
      <trkpt lat="45.92017" lon="6.34377">
        <ele>1661</ele>
        <time>2026-08-19T06:38:32.566Z</time>
      </trkpt>
      <trkpt lat="45.92017" lon="6.34377">
        <ele>1661</ele>
        <time>2026-08-19T06:38:33.566Z</time>
      </trkpt>
      <trkpt lat="45.92017" lon="6.34377">
        <ele>1661</ele>
        <time>2026-08-19T06:38:34.566Z</time>
      </trkpt>
      <trkpt lat="45.92017" lon="6.34376">
        <ele>1661</ele>
        <time>2026-08-19T06:38:35.566Z</time>
      </trkpt>
      <trkpt lat="45.92017" lon="6.34376">
        <ele>1661</ele>
        <time>2026-08-19T06:38:36.566Z</time>
      </trkpt>
      <trkpt lat="45.92017" lon="6.34376">
        <ele>1661</ele>
        <time>2026-08-19T06:38:37.566Z</time>
      </trkpt>
      <trkpt lat="45.92017" lon="6.34376">
        <ele>1661</ele>
        <time>2026-08-19T06:38:38.566Z</time>
      </trkpt>
      <trkpt lat="45.92017" lon="6.34376">
        <ele>1661</ele>
        <time>2026-08-19T06:38:39.567Z</time>
      </trkpt>
      <trkpt lat="45.92017" lon="6.34376">
        <ele>1661</ele>
        <time>2026-08-19T06:38:40.566Z</time>
      </trkpt>
      <trkpt lat="45.92017" lon="6.34376">
        <ele>1661</ele>
        <time>2026-08-19T06:38:41.566Z</time>
      </trkpt>
      <trkpt lat="45.92017" lon="6.34376">
        <ele>1661</ele>
        <time>2026-08-19T06:38:42.566Z</time>
      </trkpt>
      <trkpt lat="45.92017" lon="6.34376">
        <ele>1661</ele>
        <time>2026-08-19T06:38:43.566Z</time>
      </trkpt>
      <trkpt lat="45.92017" lon="6.34376">
        <ele>1661</ele>
        <time>2026-08-19T06:38:44.566Z</time>
      </trkpt>
      <trkpt lat="45.92017" lon="6.34376">
        <ele>1661</ele>
        <time>2026-08-19T06:38:45.566Z</time>
      </trkpt>
      <trkpt lat="45.92017" lon="6.34376">
        <ele>1661</ele>
        <time>2026-08-19T06:38:46.566Z</time>
      </trkpt>
      <trkpt lat="45.92017" lon="6.34376">
        <ele>1661</ele>
        <time>2026-08-19T06:38:47.566Z</time>
      </trkpt>
      <trkpt lat="45.92017" lon="6.34376">
        <ele>1661</ele>
        <time>2026-08-19T06:38:48.566Z</time>
      </trkpt>
      <trkpt lat="45.92017" lon="6.34376">
        <ele>1661</ele>
        <time>2026-08-19T06:38:49.566Z</time>
      </trkpt>
      <trkpt lat="45.92017" lon="6.34376">
        <ele>1661</ele>
        <time>2026-08-19T06:38:50.566Z</time>
      </trkpt>
      <trkpt lat="45.92017" lon="6.34376">
        <ele>1661</ele>
        <time>2026-08-19T06:38:51.566Z</time>
      </trkpt>
      <trkpt lat="45.92017" lon="6.34376">
        <ele>1661</ele>
        <time>2026-08-19T06:38:52.566Z</time>
      </trkpt>
      <trkpt lat="45.92017" lon="6.34376">
        <ele>1661</ele>
        <time>2026-08-19T06:38:53.566Z</time>
      </trkpt>
      <trkpt lat="45.92017" lon="6.34376">
        <ele>1661</ele>
        <time>2026-08-19T06:38:54.566Z</time>
      </trkpt>
      <trkpt lat="45.92017" lon="6.34376">
        <ele>1661</ele>
        <time>2026-08-19T06:38:55.566Z</time>
      </trkpt>
      <trkpt lat="45.92017" lon="6.34376">
        <ele>1661</ele>
        <time>2026-08-19T06:38:56.566Z</time>
      </trkpt>
      <trkpt lat="45.92017" lon="6.34376">
        <ele>1661</ele>
        <time>2026-08-19T06:38:57.566Z</time>
      </trkpt>
      <trkpt lat="45.92017" lon="6.34376">
        <ele>1661</ele>
        <time>2026-08-19T06:38:58.566Z</time>
      </trkpt>
      <trkpt lat="45.92017" lon="6.34376">
        <ele>1661</ele>
        <time>2026-08-19T06:38:59.566Z</time>
      </trkpt>
      <trkpt lat="45.92017" lon="6.34376">
        <ele>1661</ele>
        <time>2026-08-19T06:39:00.566Z</time>
      </trkpt>
      <trkpt lat="45.92017" lon="6.34376">
        <ele>1661</ele>
        <time>2026-08-19T06:39:01.566Z</time>
      </trkpt>
      <trkpt lat="45.92017" lon="6.34376">
        <ele>1661</ele>
        <time>2026-08-19T06:39:02.566Z</time>
      </trkpt>
      <trkpt lat="45.92017" lon="6.34376">
        <ele>1661</ele>
        <time>2026-08-19T06:39:03.566Z</time>
      </trkpt>
      <trkpt lat="45.92017" lon="6.34375">
        <ele>1661</ele>
        <time>2026-08-19T06:39:04.566Z</time>
      </trkpt>
      <trkpt lat="45.92017" lon="6.34375">
        <ele>1661</ele>
        <time>2026-08-19T06:39:05.566Z</time>
      </trkpt>
      <trkpt lat="45.92017" lon="6.34375">
        <ele>1661</ele>
        <time>2026-08-19T06:39:06.566Z</time>
      </trkpt>
      <trkpt lat="45.92017" lon="6.34375">
        <ele>1661</ele>
        <time>2026-08-19T06:39:07.566Z</time>
      </trkpt>
      <trkpt lat="45.92017" lon="6.34374">
        <ele>1661</ele>
        <time>2026-08-19T06:39:08.566Z</time>
      </trkpt>
      <trkpt lat="45.92017" lon="6.34374">
        <ele>1661</ele>
        <time>2026-08-19T06:39:09.566Z</time>
      </trkpt>
      <trkpt lat="45.92017" lon="6.34374">
        <ele>1661</ele>
        <time>2026-08-19T06:39:10.566Z</time>
      </trkpt>
      <trkpt lat="45.92017" lon="6.34374">
        <ele>1661</ele>
        <time>2026-08-19T06:39:11.566Z</time>
      </trkpt>
      <trkpt lat="45.92017" lon="6.34374">
        <ele>1661</ele>
        <time>2026-08-19T06:39:12.566Z</time>
      </trkpt>
      <trkpt lat="45.92017" lon="6.34374">
        <ele>1661</ele>
        <time>2026-08-19T06:39:13.566Z</time>
      </trkpt>
      <trkpt lat="45.92017" lon="6.34374">
        <ele>1661</ele>
        <time>2026-08-19T06:39:14.566Z</time>
      </trkpt>
      <trkpt lat="45.92017" lon="6.34374">
        <ele>1661</ele>
        <time>2026-08-19T06:39:15.566Z</time>
      </trkpt>
      <trkpt lat="45.92017" lon="6.34374">
        <ele>1661</ele>
        <time>2026-08-19T06:39:16.566Z</time>
      </trkpt>
      <trkpt lat="45.92017" lon="6.34374">
        <ele>1661</ele>
        <time>2026-08-19T06:39:17.566Z</time>
      </trkpt>
      <trkpt lat="45.92017" lon="6.34374">
        <ele>1661</ele>
        <time>2026-08-19T06:39:18.566Z</time>
      </trkpt>
      <trkpt lat="45.92017" lon="6.34373">
        <ele>1661</ele>
        <time>2026-08-19T06:39:19.566Z</time>
      </trkpt>
      <trkpt lat="45.92017" lon="6.34373">
        <ele>1661</ele>
        <time>2026-08-19T06:39:20.566Z</time>
      </trkpt>
      <trkpt lat="45.92017" lon="6.34373">
        <ele>1661</ele>
        <time>2026-08-19T06:39:21.566Z</time>
      </trkpt>
      <trkpt lat="45.92017" lon="6.34373">
        <ele>1661</ele>
        <time>2026-08-19T06:39:22.566Z</time>
      </trkpt>
      <trkpt lat="45.92017" lon="6.34373">
        <ele>1661</ele>
        <time>2026-08-19T06:39:23.566Z</time>
      </trkpt>
      <trkpt lat="45.92017" lon="6.34372">
        <ele>1661</ele>
        <time>2026-08-19T06:39:24.566Z</time>
      </trkpt>
      <trkpt lat="45.92017" lon="6.34372">
        <ele>1661</ele>
        <time>2026-08-19T06:39:25.566Z</time>
      </trkpt>
      <trkpt lat="45.92017" lon="6.34372">
        <ele>1661</ele>
        <time>2026-08-19T06:39:26.566Z</time>
      </trkpt>
      <trkpt lat="45.92017" lon="6.34372">
        <ele>1661</ele>
        <time>2026-08-19T06:39:27.566Z</time>
      </trkpt>
      <trkpt lat="45.92017" lon="6.34372">
        <ele>1661</ele>
        <time>2026-08-19T06:39:28.566Z</time>
      </trkpt>
      <trkpt lat="45.92017" lon="6.34371">
        <ele>1661</ele>
        <time>2026-08-19T06:39:29.566Z</time>
      </trkpt>
      <trkpt lat="45.92017" lon="6.34371">
        <ele>1661</ele>
        <time>2026-08-19T06:39:30.566Z</time>
      </trkpt>
      <trkpt lat="45.92017" lon="6.34371">
        <ele>1661</ele>
        <time>2026-08-19T06:39:31.566Z</time>
      </trkpt>
      <trkpt lat="45.92017" lon="6.34371">
        <ele>1661</ele>
        <time>2026-08-19T06:39:32.566Z</time>
      </trkpt>
      <trkpt lat="45.92017" lon="6.34371">
        <ele>1661</ele>
        <time>2026-08-19T06:39:33.566Z</time>
      </trkpt>
      <trkpt lat="45.92017" lon="6.34371">
        <ele>1661</ele>
        <time>2026-08-19T06:39:34.566Z</time>
      </trkpt>
      <trkpt lat="45.92017" lon="6.34371">
        <ele>1661</ele>
        <time>2026-08-19T06:39:35.566Z</time>
      </trkpt>
      <trkpt lat="45.92017" lon="6.34371">
        <ele>1661</ele>
        <time>2026-08-19T06:39:36.566Z</time>
      </trkpt>
      <trkpt lat="45.92017" lon="6.34371">
        <ele>1661</ele>
        <time>2026-08-19T06:39:37.566Z</time>
      </trkpt>
      <trkpt lat="45.92017" lon="6.34371">
        <ele>1661</ele>
        <time>2026-08-19T06:39:38.566Z</time>
      </trkpt>
      <trkpt lat="45.92017" lon="6.34371">
        <ele>1661</ele>
        <time>2026-08-19T06:39:39.566Z</time>
      </trkpt>
      <trkpt lat="45.92017" lon="6.34371">
        <ele>1662</ele>
        <time>2026-08-19T06:39:40.566Z</time>
      </trkpt>
      <trkpt lat="45.92017" lon="6.34371">
        <ele>1662</ele>
        <time>2026-08-19T06:39:41.566Z</time>
      </trkpt>
      <trkpt lat="45.92017" lon="6.34371">
        <ele>1662</ele>
        <time>2026-08-19T06:39:42.566Z</time>
      </trkpt>
      <trkpt lat="45.92017" lon="6.34371">
        <ele>1662</ele>
        <time>2026-08-19T06:39:43.566Z</time>
      </trkpt>
      <trkpt lat="45.92017" lon="6.34371">
        <ele>1662</ele>
        <time>2026-08-19T06:39:44.566Z</time>
      </trkpt>
      <trkpt lat="45.92017" lon="6.34371">
        <ele>1662</ele>
        <time>2026-08-19T06:39:45.566Z</time>
      </trkpt>
      <trkpt lat="45.92017" lon="6.34371">
        <ele>1662</ele>
        <time>2026-08-19T06:39:46.566Z</time>
      </trkpt>
      <trkpt lat="45.92017" lon="6.34371">
        <ele>1662</ele>
        <time>2026-08-19T06:39:47.566Z</time>
      </trkpt>
      <trkpt lat="45.92017" lon="6.34371">
        <ele>1662</ele>
        <time>2026-08-19T06:39:48.566Z</time>
      </trkpt>
      <trkpt lat="45.92017" lon="6.34371">
        <ele>1662</ele>
        <time>2026-08-19T06:39:49.566Z</time>
      </trkpt>
      <trkpt lat="45.92017" lon="6.34371">
        <ele>1662</ele>
        <time>2026-08-19T06:39:50.566Z</time>
      </trkpt>
      <trkpt lat="45.92017" lon="6.34371">
        <ele>1662</ele>
        <time>2026-08-19T06:39:51.566Z</time>
      </trkpt>
      <trkpt lat="45.92017" lon="6.34371">
        <ele>1662</ele>
        <time>2026-08-19T06:39:52.566Z</time>
      </trkpt>
      <trkpt lat="45.92017" lon="6.34371">
        <ele>1662</ele>
        <time>2026-08-19T06:39:53.566Z</time>
      </trkpt>
      <trkpt lat="45.92017" lon="6.34371">
        <ele>1662</ele>
        <time>2026-08-19T06:39:54.566Z</time>
      </trkpt>
      <trkpt lat="45.92017" lon="6.34371">
        <ele>1662</ele>
        <time>2026-08-19T06:39:55.566Z</time>
      </trkpt>
      <trkpt lat="45.92017" lon="6.34371">
        <ele>1662</ele>
        <time>2026-08-19T06:39:56.566Z</time>
      </trkpt>
      <trkpt lat="45.92017" lon="6.34371">
        <ele>1662</ele>
        <time>2026-08-19T06:39:57.566Z</time>
      </trkpt>
      <trkpt lat="45.92017" lon="6.34371">
        <ele>1662</ele>
        <time>2026-08-19T06:39:58.566Z</time>
      </trkpt>
      <trkpt lat="45.92017" lon="6.34371">
        <ele>1662</ele>
        <time>2026-08-19T06:39:59.566Z</time>
      </trkpt>
      <trkpt lat="45.92017" lon="6.34371">
        <ele>1662</ele>
        <time>2026-08-19T06:40:00.566Z</time>
      </trkpt>
      <trkpt lat="45.92017" lon="6.34371">
        <ele>1662</ele>
        <time>2026-08-19T06:40:01.566Z</time>
      </trkpt>
      <trkpt lat="45.92017" lon="6.34371">
        <ele>1662</ele>
        <time>2026-08-19T06:40:02.566Z</time>
      </trkpt>
      <trkpt lat="45.92017" lon="6.34371">
        <ele>1662</ele>
        <time>2026-08-19T06:40:03.566Z</time>
      </trkpt>
      <trkpt lat="45.92017" lon="6.34371">
        <ele>1662</ele>
        <time>2026-08-19T06:40:04.566Z</time>
      </trkpt>
      <trkpt lat="45.92017" lon="6.34371">
        <ele>1662</ele>
        <time>2026-08-19T06:40:05.566Z</time>
      </trkpt>
      <trkpt lat="45.92017" lon="6.34371">
        <ele>1662</ele>
        <time>2026-08-19T06:40:06.566Z</time>
      </trkpt>
      <trkpt lat="45.92017" lon="6.34371">
        <ele>1662</ele>
        <time>2026-08-19T06:40:07.566Z</time>
      </trkpt>
      <trkpt lat="45.92017" lon="6.34371">
        <ele>1662</ele>
        <time>2026-08-19T06:40:08.566Z</time>
      </trkpt>
      <trkpt lat="45.92017" lon="6.34371">
        <ele>1662</ele>
        <time>2026-08-19T06:40:09.566Z</time>
      </trkpt>
      <trkpt lat="45.92017" lon="6.34372">
        <ele>1662</ele>
        <time>2026-08-19T06:40:10.566Z</time>
      </trkpt>
      <trkpt lat="45.92017" lon="6.34372">
        <ele>1662</ele>
        <time>2026-08-19T06:40:11.566Z</time>
      </trkpt>
      <trkpt lat="45.92017" lon="6.34372">
        <ele>1662</ele>
        <time>2026-08-19T06:40:12.566Z</time>
      </trkpt>
      <trkpt lat="45.92017" lon="6.34372">
        <ele>1662</ele>
        <time>2026-08-19T06:40:13.566Z</time>
      </trkpt>
      <trkpt lat="45.92017" lon="6.34372">
        <ele>1662</ele>
        <time>2026-08-19T06:40:14.566Z</time>
      </trkpt>
      <trkpt lat="45.92018" lon="6.34372">
        <ele>1662</ele>
        <time>2026-08-19T06:40:15.566Z</time>
      </trkpt>
      <trkpt lat="45.92018" lon="6.34372">
        <ele>1662</ele>
        <time>2026-08-19T06:40:16.566Z</time>
      </trkpt>
      <trkpt lat="45.92018" lon="6.34372">
        <ele>1662</ele>
        <time>2026-08-19T06:40:17.566Z</time>
      </trkpt>
      <trkpt lat="45.92018" lon="6.34372">
        <ele>1662</ele>
        <time>2026-08-19T06:40:18.566Z</time>
      </trkpt>
      <trkpt lat="45.92018" lon="6.34372">
        <ele>1662</ele>
        <time>2026-08-19T06:40:19.566Z</time>
      </trkpt>
      <trkpt lat="45.92018" lon="6.34372">
        <ele>1662</ele>
        <time>2026-08-19T06:40:20.566Z</time>
      </trkpt>
      <trkpt lat="45.92018" lon="6.34372">
        <ele>1662</ele>
        <time>2026-08-19T06:40:21.566Z</time>
      </trkpt>
      <trkpt lat="45.92018" lon="6.34372">
        <ele>1662</ele>
        <time>2026-08-19T06:40:22.566Z</time>
      </trkpt>
      <trkpt lat="45.92018" lon="6.34372">
        <ele>1662</ele>
        <time>2026-08-19T06:40:23.566Z</time>
      </trkpt>
      <trkpt lat="45.92018" lon="6.34372">
        <ele>1662</ele>
        <time>2026-08-19T06:40:24.566Z</time>
      </trkpt>
      <trkpt lat="45.92018" lon="6.34372">
        <ele>1662</ele>
        <time>2026-08-19T06:40:25.566Z</time>
      </trkpt>
      <trkpt lat="45.92018" lon="6.34372">
        <ele>1662</ele>
        <time>2026-08-19T06:40:26.566Z</time>
      </trkpt>
      <trkpt lat="45.92018" lon="6.34372">
        <ele>1662</ele>
        <time>2026-08-19T06:40:27.566Z</time>
      </trkpt>
      <trkpt lat="45.92018" lon="6.34372">
        <ele>1662</ele>
        <time>2026-08-19T06:40:28.566Z</time>
      </trkpt>
      <trkpt lat="45.92018" lon="6.34372">
        <ele>1662</ele>
        <time>2026-08-19T06:40:29.566Z</time>
      </trkpt>
      <trkpt lat="45.92018" lon="6.34372">
        <ele>1662</ele>
        <time>2026-08-19T06:40:30.566Z</time>
      </trkpt>
      <trkpt lat="45.92018" lon="6.34372">
        <ele>1662</ele>
        <time>2026-08-19T06:40:31.566Z</time>
      </trkpt>
      <trkpt lat="45.92018" lon="6.34372">
        <ele>1662</ele>
        <time>2026-08-19T06:40:32.566Z</time>
      </trkpt>
      <trkpt lat="45.92018" lon="6.34372">
        <ele>1662</ele>
        <time>2026-08-19T06:40:33.566Z</time>
      </trkpt>
      <trkpt lat="45.92018" lon="6.34372">
        <ele>1662</ele>
        <time>2026-08-19T06:40:34.566Z</time>
      </trkpt>
      <trkpt lat="45.92018" lon="6.34372">
        <ele>1662</ele>
        <time>2026-08-19T06:40:35.566Z</time>
      </trkpt>
      <trkpt lat="45.92018" lon="6.34372">
        <ele>1662</ele>
        <time>2026-08-19T06:40:36.566Z</time>
      </trkpt>
      <trkpt lat="45.92018" lon="6.34372">
        <ele>1662</ele>
        <time>2026-08-19T06:40:37.566Z</time>
      </trkpt>
      <trkpt lat="45.92018" lon="6.34372">
        <ele>1662</ele>
        <time>2026-08-19T06:40:38.566Z</time>
      </trkpt>
      <trkpt lat="45.92019" lon="6.34372">
        <ele>1662</ele>
        <time>2026-08-19T06:40:39.566Z</time>
      </trkpt>
      <trkpt lat="45.92019" lon="6.34372">
        <ele>1662</ele>
        <time>2026-08-19T06:40:40.566Z</time>
      </trkpt>
      <trkpt lat="45.92019" lon="6.34372">
        <ele>1662</ele>
        <time>2026-08-19T06:40:41.566Z</time>
      </trkpt>
      <trkpt lat="45.92019" lon="6.34372">
        <ele>1662</ele>
        <time>2026-08-19T06:40:42.566Z</time>
      </trkpt>
      <trkpt lat="45.92019" lon="6.34373">
        <ele>1662</ele>
        <time>2026-08-19T06:40:43.566Z</time>
      </trkpt>
      <trkpt lat="45.92019" lon="6.34374">
        <ele>1662</ele>
        <time>2026-08-19T06:40:44.566Z</time>
      </trkpt>
      <trkpt lat="45.9202" lon="6.34376">
        <ele>1662</ele>
        <time>2026-08-19T06:40:45.566Z</time>
      </trkpt>
      <trkpt lat="45.9202" lon="6.34378">
        <ele>1662</ele>
        <time>2026-08-19T06:40:46.566Z</time>
      </trkpt>
      <trkpt lat="45.92021" lon="6.3438">
        <ele>1662</ele>
        <time>2026-08-19T06:40:47.566Z</time>
      </trkpt>
      <trkpt lat="45.92021" lon="6.34381">
        <ele>1662</ele>
        <time>2026-08-19T06:40:48.566Z</time>
      </trkpt>
      <trkpt lat="45.92021" lon="6.34382">
        <ele>1663</ele>
        <time>2026-08-19T06:40:49.566Z</time>
      </trkpt>
      <trkpt lat="45.92021" lon="6.34383">
        <ele>1663</ele>
        <time>2026-08-19T06:40:50.566Z</time>
      </trkpt>
      <trkpt lat="45.92021" lon="6.34385">
        <ele>1664</ele>
        <time>2026-08-19T06:40:51.566Z</time>
      </trkpt>
      <trkpt lat="45.92021" lon="6.34386">
        <ele>1664</ele>
        <time>2026-08-19T06:40:52.566Z</time>
      </trkpt>
      <trkpt lat="45.9202" lon="6.34386">
        <ele>1665</ele>
        <time>2026-08-19T06:40:53.566Z</time>
      </trkpt>
      <trkpt lat="45.92019" lon="6.34387">
        <ele>1665</ele>
        <time>2026-08-19T06:40:54.566Z</time>
      </trkpt>
      <trkpt lat="45.92019" lon="6.34387">
        <ele>1665</ele>
        <time>2026-08-19T06:40:55.566Z</time>
      </trkpt>
      <trkpt lat="45.92019" lon="6.34387">
        <ele>1666</ele>
        <time>2026-08-19T06:40:56.566Z</time>
      </trkpt>
      <trkpt lat="45.92019" lon="6.34387">
        <ele>1666</ele>
        <time>2026-08-19T06:40:57.566Z</time>
      </trkpt>
      <trkpt lat="45.9202" lon="6.34388">
        <ele>1666</ele>
        <time>2026-08-19T06:40:58.566Z</time>
      </trkpt>
      <trkpt lat="45.9202" lon="6.34389">
        <ele>1666</ele>
        <time>2026-08-19T06:40:59.566Z</time>
      </trkpt>
      <trkpt lat="45.9202" lon="6.3439">
        <ele>1666</ele>
        <time>2026-08-19T06:41:00.566Z</time>
      </trkpt>
      <trkpt lat="45.9202" lon="6.34391">
        <ele>1667</ele>
        <time>2026-08-19T06:41:01.566Z</time>
      </trkpt>
      <trkpt lat="45.9202" lon="6.34392">
        <ele>1667</ele>
        <time>2026-08-19T06:41:02.566Z</time>
      </trkpt>
      <trkpt lat="45.9202" lon="6.34392">
        <ele>1668</ele>
        <time>2026-08-19T06:41:03.566Z</time>
      </trkpt>
      <trkpt lat="45.9202" lon="6.34392">
        <ele>1668</ele>
        <time>2026-08-19T06:41:04.566Z</time>
      </trkpt>
      <trkpt lat="45.9202" lon="6.34392">
        <ele>1669</ele>
        <time>2026-08-19T06:41:05.566Z</time>
      </trkpt>
      <trkpt lat="45.92019" lon="6.34392">
        <ele>1669</ele>
        <time>2026-08-19T06:41:06.566Z</time>
      </trkpt>
      <trkpt lat="45.92019" lon="6.34391">
        <ele>1669</ele>
        <time>2026-08-19T06:41:07.566Z</time>
      </trkpt>
      <trkpt lat="45.92019" lon="6.34391">
        <ele>1670</ele>
        <time>2026-08-19T06:41:08.566Z</time>
      </trkpt>
      <trkpt lat="45.92019" lon="6.34391">
        <ele>1670</ele>
        <time>2026-08-19T06:41:09.566Z</time>
      </trkpt>
      <trkpt lat="45.92019" lon="6.34391">
        <ele>1670</ele>
        <time>2026-08-19T06:41:10.566Z</time>
      </trkpt>
      <trkpt lat="45.92019" lon="6.34391">
        <ele>1670</ele>
        <time>2026-08-19T06:41:11.566Z</time>
      </trkpt>
      <trkpt lat="45.92019" lon="6.34391">
        <ele>1670</ele>
        <time>2026-08-19T06:41:12.566Z</time>
      </trkpt>
      <trkpt lat="45.92019" lon="6.34391">
        <ele>1670</ele>
        <time>2026-08-19T06:41:13.566Z</time>
      </trkpt>
      <trkpt lat="45.92019" lon="6.34391">
        <ele>1670</ele>
        <time>2026-08-19T06:41:14.566Z</time>
      </trkpt>
      <trkpt lat="45.92019" lon="6.34391">
        <ele>1670</ele>
        <time>2026-08-19T06:41:15.566Z</time>
      </trkpt>
      <trkpt lat="45.92019" lon="6.34391">
        <ele>1670</ele>
        <time>2026-08-19T06:41:16.566Z</time>
      </trkpt>
      <trkpt lat="45.92019" lon="6.34391">
        <ele>1670</ele>
        <time>2026-08-19T06:41:17.566Z</time>
      </trkpt>
      <trkpt lat="45.92019" lon="6.34391">
        <ele>1670</ele>
        <time>2026-08-19T06:41:18.566Z</time>
      </trkpt>
      <trkpt lat="45.92019" lon="6.34391">
        <ele>1670</ele>
        <time>2026-08-19T06:41:19.566Z</time>
      </trkpt>
      <trkpt lat="45.92019" lon="6.34391">
        <ele>1670</ele>
        <time>2026-08-19T06:41:20.566Z</time>
      </trkpt>
      <trkpt lat="45.92019" lon="6.34391">
        <ele>1670</ele>
        <time>2026-08-19T06:41:21.566Z</time>
      </trkpt>
      <trkpt lat="45.92019" lon="6.34391">
        <ele>1670</ele>
        <time>2026-08-19T06:41:22.566Z</time>
      </trkpt>
      <trkpt lat="45.92019" lon="6.34391">
        <ele>1670</ele>
        <time>2026-08-19T06:41:23.566Z</time>
      </trkpt>
      <trkpt lat="45.92019" lon="6.34392">
        <ele>1670</ele>
        <time>2026-08-19T06:41:24.566Z</time>
      </trkpt>
      <trkpt lat="45.92019" lon="6.34392">
        <ele>1670</ele>
        <time>2026-08-19T06:41:25.566Z</time>
      </trkpt>
      <trkpt lat="45.92019" lon="6.34392">
        <ele>1670</ele>
        <time>2026-08-19T06:41:26.566Z</time>
      </trkpt>
      <trkpt lat="45.92019" lon="6.34392">
        <ele>1670</ele>
        <time>2026-08-19T06:41:27.566Z</time>
      </trkpt>
      <trkpt lat="45.92019" lon="6.34391">
        <ele>1670</ele>
        <time>2026-08-19T06:41:28.566Z</time>
      </trkpt>
      <trkpt lat="45.92019" lon="6.3439">
        <ele>1670</ele>
        <time>2026-08-19T06:41:29.566Z</time>
      </trkpt>
      <trkpt lat="45.92018" lon="6.3439">
        <ele>1670</ele>
        <time>2026-08-19T06:41:30.566Z</time>
      </trkpt>
      <trkpt lat="45.92018" lon="6.3439">
        <ele>1670</ele>
        <time>2026-08-19T06:41:31.566Z</time>
      </trkpt>
      <trkpt lat="45.92018" lon="6.3439">
        <ele>1670</ele>
        <time>2026-08-19T06:41:32.566Z</time>
      </trkpt>
      <trkpt lat="45.92018" lon="6.34389">
        <ele>1670</ele>
        <time>2026-08-19T06:41:33.566Z</time>
      </trkpt>
      <trkpt lat="45.92019" lon="6.3439">
        <ele>1670</ele>
        <time>2026-08-19T06:41:34.566Z</time>
      </trkpt>
      <trkpt lat="45.92019" lon="6.3439">
        <ele>1669</ele>
        <time>2026-08-19T06:41:35.566Z</time>
      </trkpt>
      <trkpt lat="45.92019" lon="6.3439">
        <ele>1669</ele>
        <time>2026-08-19T06:41:36.566Z</time>
      </trkpt>
      <trkpt lat="45.92018" lon="6.3439">
        <ele>1669</ele>
        <time>2026-08-19T06:41:37.566Z</time>
      </trkpt>
      <trkpt lat="45.92018" lon="6.3439">
        <ele>1669</ele>
        <time>2026-08-19T06:41:38.566Z</time>
      </trkpt>
      <trkpt lat="45.92017" lon="6.34389">
        <ele>1669</ele>
        <time>2026-08-19T06:41:39.566Z</time>
      </trkpt>
      <trkpt lat="45.92017" lon="6.3439">
        <ele>1669</ele>
        <time>2026-08-19T06:41:40.566Z</time>
      </trkpt>
      <trkpt lat="45.92017" lon="6.3439">
        <ele>1669</ele>
        <time>2026-08-19T06:41:41.566Z</time>
      </trkpt>
      <trkpt lat="45.92017" lon="6.3439">
        <ele>1669</ele>
        <time>2026-08-19T06:41:42.566Z</time>
      </trkpt>
      <trkpt lat="45.92017" lon="6.3439">
        <ele>1669</ele>
        <time>2026-08-19T06:41:43.566Z</time>
      </trkpt>
      <trkpt lat="45.92017" lon="6.3439">
        <ele>1670</ele>
        <time>2026-08-19T06:41:44.566Z</time>
      </trkpt>
      <trkpt lat="45.92017" lon="6.3439">
        <ele>1670</ele>
        <time>2026-08-19T06:41:45.566Z</time>
      </trkpt>
      <trkpt lat="45.92017" lon="6.34389">
        <ele>1671</ele>
        <time>2026-08-19T06:41:46.566Z</time>
      </trkpt>
      <trkpt lat="45.92017" lon="6.34389">
        <ele>1671</ele>
        <time>2026-08-19T06:41:47.566Z</time>
      </trkpt>
      <trkpt lat="45.92017" lon="6.34389">
        <ele>1672</ele>
        <time>2026-08-19T06:41:48.566Z</time>
      </trkpt>
      <trkpt lat="45.92017" lon="6.34389">
        <ele>1673</ele>
        <time>2026-08-19T06:41:49.566Z</time>
      </trkpt>
      <trkpt lat="45.92017" lon="6.34389">
        <ele>1674</ele>
        <time>2026-08-19T06:41:50.566Z</time>
      </trkpt>
      <trkpt lat="45.92017" lon="6.34389">
        <ele>1675</ele>
        <time>2026-08-19T06:41:51.566Z</time>
      </trkpt>
      <trkpt lat="45.92017" lon="6.34389">
        <ele>1676</ele>
        <time>2026-08-19T06:41:52.566Z</time>
      </trkpt>
      <trkpt lat="45.92017" lon="6.34389">
        <ele>1676</ele>
        <time>2026-08-19T06:41:53.566Z</time>
      </trkpt>
      <trkpt lat="45.92017" lon="6.34389">
        <ele>1676</ele>
        <time>2026-08-19T06:41:54.566Z</time>
      </trkpt>
      <trkpt lat="45.92017" lon="6.34389">
        <ele>1676</ele>
        <time>2026-08-19T06:41:55.566Z</time>
      </trkpt>
      <trkpt lat="45.92017" lon="6.34389">
        <ele>1676</ele>
        <time>2026-08-19T06:41:56.566Z</time>
      </trkpt>
      <trkpt lat="45.92017" lon="6.34389">
        <ele>1676</ele>
        <time>2026-08-19T06:41:57.566Z</time>
      </trkpt>
      <trkpt lat="45.92017" lon="6.34389">
        <ele>1676</ele>
        <time>2026-08-19T06:41:58.566Z</time>
      </trkpt>
      <trkpt lat="45.92017" lon="6.34389">
        <ele>1677</ele>
        <time>2026-08-19T06:41:59.566Z</time>
      </trkpt>
      <trkpt lat="45.92017" lon="6.34389">
        <ele>1677</ele>
        <time>2026-08-19T06:42:00.566Z</time>
      </trkpt>
      <trkpt lat="45.92017" lon="6.34389">
        <ele>1677</ele>
        <time>2026-08-19T06:42:01.566Z</time>
      </trkpt>
      <trkpt lat="45.92017" lon="6.34389">
        <ele>1677</ele>
        <time>2026-08-19T06:42:02.566Z</time>
      </trkpt>
      <trkpt lat="45.92017" lon="6.34389">
        <ele>1677</ele>
        <time>2026-08-19T06:42:03.566Z</time>
      </trkpt>
      <trkpt lat="45.92017" lon="6.34389">
        <ele>1677</ele>
        <time>2026-08-19T06:42:04.566Z</time>
      </trkpt>
      <trkpt lat="45.92017" lon="6.34389">
        <ele>1677</ele>
        <time>2026-08-19T06:42:05.566Z</time>
      </trkpt>
      <trkpt lat="45.92017" lon="6.34389">
        <ele>1677</ele>
        <time>2026-08-19T06:42:06.566Z</time>
      </trkpt>
      <trkpt lat="45.92017" lon="6.34389">
        <ele>1677</ele>
        <time>2026-08-19T06:42:07.566Z</time>
      </trkpt>
      <trkpt lat="45.92017" lon="6.34389">
        <ele>1677</ele>
        <time>2026-08-19T06:42:08.566Z</time>
      </trkpt>
      <trkpt lat="45.92017" lon="6.3439">
        <ele>1677</ele>
        <time>2026-08-19T06:42:09.566Z</time>
      </trkpt>
      <trkpt lat="45.92017" lon="6.3439">
        <ele>1677</ele>
        <time>2026-08-19T06:42:10.566Z</time>
      </trkpt>
      <trkpt lat="45.92017" lon="6.3439">
        <ele>1677</ele>
        <time>2026-08-19T06:42:11.566Z</time>
      </trkpt>
      <trkpt lat="45.92017" lon="6.3439">
        <ele>1677</ele>
        <time>2026-08-19T06:42:12.566Z</time>
      </trkpt>
      <trkpt lat="45.92017" lon="6.3439">
        <ele>1677</ele>
        <time>2026-08-19T06:42:13.566Z</time>
      </trkpt>
      <trkpt lat="45.92017" lon="6.3439">
        <ele>1677</ele>
        <time>2026-08-19T06:42:14.566Z</time>
      </trkpt>
      <trkpt lat="45.92017" lon="6.3439">
        <ele>1677</ele>
        <time>2026-08-19T06:42:15.566Z</time>
      </trkpt>
      <trkpt lat="45.92017" lon="6.3439">
        <ele>1677</ele>
        <time>2026-08-19T06:42:16.566Z</time>
      </trkpt>
      <trkpt lat="45.92017" lon="6.3439">
        <ele>1677</ele>
        <time>2026-08-19T06:42:17.566Z</time>
      </trkpt>
      <trkpt lat="45.92017" lon="6.3439">
        <ele>1677</ele>
        <time>2026-08-19T06:42:18.566Z</time>
      </trkpt>
      <trkpt lat="45.92016" lon="6.34391">
        <ele>1677</ele>
        <time>2026-08-19T06:42:19.566Z</time>
      </trkpt>
      <trkpt lat="45.92016" lon="6.34391">
        <ele>1677</ele>
        <time>2026-08-19T06:42:20.566Z</time>
      </trkpt>
      <trkpt lat="45.92016" lon="6.34392">
        <ele>1677</ele>
        <time>2026-08-19T06:42:21.566Z</time>
      </trkpt>
      <trkpt lat="45.92016" lon="6.34392">
        <ele>1677</ele>
        <time>2026-08-19T06:42:22.566Z</time>
      </trkpt>
      <trkpt lat="45.92016" lon="6.34392">
        <ele>1677</ele>
        <time>2026-08-19T06:42:23.566Z</time>
      </trkpt>
      <trkpt lat="45.92016" lon="6.34392">
        <ele>1677</ele>
        <time>2026-08-19T06:42:24.566Z</time>
      </trkpt>
      <trkpt lat="45.92016" lon="6.34392">
        <ele>1677</ele>
        <time>2026-08-19T06:42:25.566Z</time>
      </trkpt>
      <trkpt lat="45.92015" lon="6.34393">
        <ele>1677</ele>
        <time>2026-08-19T06:42:26.566Z</time>
      </trkpt>
      <trkpt lat="45.92015" lon="6.34393">
        <ele>1677</ele>
        <time>2026-08-19T06:42:27.566Z</time>
      </trkpt>
      <trkpt lat="45.92015" lon="6.34394">
        <ele>1677</ele>
        <time>2026-08-19T06:42:28.566Z</time>
      </trkpt>
      <trkpt lat="45.92016" lon="6.34396">
        <ele>1677</ele>
        <time>2026-08-19T06:42:29.566Z</time>
      </trkpt>
      <trkpt lat="45.92016" lon="6.34397">
        <ele>1677</ele>
        <time>2026-08-19T06:42:30.566Z</time>
      </trkpt>
      <trkpt lat="45.92016" lon="6.34398">
        <ele>1677</ele>
        <time>2026-08-19T06:42:31.566Z</time>
      </trkpt>
      <trkpt lat="45.92016" lon="6.344">
        <ele>1677</ele>
        <time>2026-08-19T06:42:32.566Z</time>
      </trkpt>
      <trkpt lat="45.92016" lon="6.34401">
        <ele>1677</ele>
        <time>2026-08-19T06:42:33.566Z</time>
      </trkpt>
      <trkpt lat="45.92016" lon="6.34403">
        <ele>1677</ele>
        <time>2026-08-19T06:42:34.566Z</time>
      </trkpt>
      <trkpt lat="45.92016" lon="6.34404">
        <ele>1678</ele>
        <time>2026-08-19T06:42:35.566Z</time>
      </trkpt>
      <trkpt lat="45.92016" lon="6.34405">
        <ele>1678</ele>
        <time>2026-08-19T06:42:36.566Z</time>
      </trkpt>
      <trkpt lat="45.92016" lon="6.34406">
        <ele>1678</ele>
        <time>2026-08-19T06:42:37.566Z</time>
      </trkpt>
      <trkpt lat="45.92016" lon="6.34406">
        <ele>1678</ele>
        <time>2026-08-19T06:42:38.566Z</time>
      </trkpt>
      <trkpt lat="45.92016" lon="6.34406">
        <ele>1678</ele>
        <time>2026-08-19T06:42:39.566Z</time>
      </trkpt>
      <trkpt lat="45.92016" lon="6.34406">
        <ele>1679</ele>
        <time>2026-08-19T06:42:40.566Z</time>
      </trkpt>
      <trkpt lat="45.92017" lon="6.34407">
        <ele>1679</ele>
        <time>2026-08-19T06:42:41.566Z</time>
      </trkpt>
      <trkpt lat="45.92017" lon="6.34407">
        <ele>1679</ele>
        <time>2026-08-19T06:42:42.566Z</time>
      </trkpt>
      <trkpt lat="45.92017" lon="6.34407">
        <ele>1679</ele>
        <time>2026-08-19T06:42:43.566Z</time>
      </trkpt>
      <trkpt lat="45.92018" lon="6.34407">
        <ele>1679</ele>
        <time>2026-08-19T06:42:44.566Z</time>
      </trkpt>
      <trkpt lat="45.92018" lon="6.34406">
        <ele>1680</ele>
        <time>2026-08-19T06:42:45.566Z</time>
      </trkpt>
      <trkpt lat="45.92019" lon="6.34406">
        <ele>1680</ele>
        <time>2026-08-19T06:42:46.566Z</time>
      </trkpt>
      <trkpt lat="45.92019" lon="6.34405">
        <ele>1680</ele>
        <time>2026-08-19T06:42:47.566Z</time>
      </trkpt>
      <trkpt lat="45.9202" lon="6.34405">
        <ele>1681</ele>
        <time>2026-08-19T06:42:48.566Z</time>
      </trkpt>
      <trkpt lat="45.9202" lon="6.34405">
        <ele>1681</ele>
        <time>2026-08-19T06:42:49.566Z</time>
      </trkpt>
      <trkpt lat="45.9202" lon="6.34406">
        <ele>1682</ele>
        <time>2026-08-19T06:42:50.566Z</time>
      </trkpt>
      <trkpt lat="45.92021" lon="6.34406">
        <ele>1682</ele>
        <time>2026-08-19T06:42:51.566Z</time>
      </trkpt>
      <trkpt lat="45.92021" lon="6.34407">
        <ele>1682</ele>
        <time>2026-08-19T06:42:52.566Z</time>
      </trkpt>
      <trkpt lat="45.92021" lon="6.34407">
        <ele>1682</ele>
        <time>2026-08-19T06:42:53.566Z</time>
      </trkpt>
      <trkpt lat="45.92022" lon="6.34407">
        <ele>1682</ele>
        <time>2026-08-19T06:42:54.566Z</time>
      </trkpt>
      <trkpt lat="45.92022" lon="6.34407">
        <ele>1682</ele>
        <time>2026-08-19T06:42:55.566Z</time>
      </trkpt>
      <trkpt lat="45.92022" lon="6.34408">
        <ele>1682</ele>
        <time>2026-08-19T06:42:56.566Z</time>
      </trkpt>
      <trkpt lat="45.92023" lon="6.34408">
        <ele>1682</ele>
        <time>2026-08-19T06:42:57.566Z</time>
      </trkpt>
      <trkpt lat="45.92023" lon="6.34408">
        <ele>1682</ele>
        <time>2026-08-19T06:42:58.566Z</time>
      </trkpt>
      <trkpt lat="45.92023" lon="6.34409">
        <ele>1682</ele>
        <time>2026-08-19T06:42:59.566Z</time>
      </trkpt>
      <trkpt lat="45.92023" lon="6.3441">
        <ele>1682</ele>
        <time>2026-08-19T06:43:00.566Z</time>
      </trkpt>
      <trkpt lat="45.92024" lon="6.3441">
        <ele>1682</ele>
        <time>2026-08-19T06:43:01.566Z</time>
      </trkpt>
      <trkpt lat="45.92024" lon="6.34411">
        <ele>1682</ele>
        <time>2026-08-19T06:43:02.566Z</time>
      </trkpt>
      <trkpt lat="45.92025" lon="6.34411">
        <ele>1682</ele>
        <time>2026-08-19T06:43:03.566Z</time>
      </trkpt>
      <trkpt lat="45.92026" lon="6.34411">
        <ele>1683</ele>
        <time>2026-08-19T06:43:04.566Z</time>
      </trkpt>
      <trkpt lat="45.92026" lon="6.34411">
        <ele>1683</ele>
        <time>2026-08-19T06:43:05.566Z</time>
      </trkpt>
      <trkpt lat="45.92027" lon="6.34411">
        <ele>1683</ele>
        <time>2026-08-19T06:43:06.566Z</time>
      </trkpt>
      <trkpt lat="45.92027" lon="6.34411">
        <ele>1683</ele>
        <time>2026-08-19T06:43:07.566Z</time>
      </trkpt>
      <trkpt lat="45.92028" lon="6.34411">
        <ele>1683</ele>
        <time>2026-08-19T06:43:08.566Z</time>
      </trkpt>
      <trkpt lat="45.92028" lon="6.34412">
        <ele>1683</ele>
        <time>2026-08-19T06:43:09.566Z</time>
      </trkpt>
      <trkpt lat="45.92029" lon="6.34412">
        <ele>1684</ele>
        <time>2026-08-19T06:43:10.566Z</time>
      </trkpt>
      <trkpt lat="45.92029" lon="6.34412">
        <ele>1684</ele>
        <time>2026-08-19T06:43:11.566Z</time>
      </trkpt>
      <trkpt lat="45.92029" lon="6.34412">
        <ele>1684</ele>
        <time>2026-08-19T06:43:12.566Z</time>
      </trkpt>
      <trkpt lat="45.9203" lon="6.34413">
        <ele>1684</ele>
        <time>2026-08-19T06:43:13.566Z</time>
      </trkpt>
      <trkpt lat="45.92031" lon="6.34413">
        <ele>1685</ele>
        <time>2026-08-19T06:43:14.566Z</time>
      </trkpt>
      <trkpt lat="45.92032" lon="6.34413">
        <ele>1685</ele>
        <time>2026-08-19T06:43:15.566Z</time>
      </trkpt>
      <trkpt lat="45.92032" lon="6.34414">
        <ele>1686</ele>
        <time>2026-08-19T06:43:16.566Z</time>
      </trkpt>
      <trkpt lat="45.92033" lon="6.34414">
        <ele>1686</ele>
        <time>2026-08-19T06:43:17.566Z</time>
      </trkpt>
      <trkpt lat="45.92033" lon="6.34415">
        <ele>1687</ele>
        <time>2026-08-19T06:43:18.566Z</time>
      </trkpt>
      <trkpt lat="45.92034" lon="6.34415">
        <ele>1687</ele>
        <time>2026-08-19T06:43:19.566Z</time>
      </trkpt>
      <trkpt lat="45.92035" lon="6.34416">
        <ele>1688</ele>
        <time>2026-08-19T06:43:20.566Z</time>
      </trkpt>
      <trkpt lat="45.92035" lon="6.34416">
        <ele>1688</ele>
        <time>2026-08-19T06:43:21.566Z</time>
      </trkpt>
      <trkpt lat="45.92035" lon="6.34417">
        <ele>1688</ele>
        <time>2026-08-19T06:43:22.566Z</time>
      </trkpt>
      <trkpt lat="45.92036" lon="6.34417">
        <ele>1689</ele>
        <time>2026-08-19T06:43:23.566Z</time>
      </trkpt>
      <trkpt lat="45.92036" lon="6.34418">
        <ele>1689</ele>
        <time>2026-08-19T06:43:24.566Z</time>
      </trkpt>
      <trkpt lat="45.92037" lon="6.34419">
        <ele>1689</ele>
        <time>2026-08-19T06:43:25.566Z</time>
      </trkpt>
      <trkpt lat="45.92038" lon="6.34421">
        <ele>1689</ele>
        <time>2026-08-19T06:43:26.566Z</time>
      </trkpt>
      <trkpt lat="45.92038" lon="6.34422">
        <ele>1690</ele>
        <time>2026-08-19T06:43:27.566Z</time>
      </trkpt>
      <trkpt lat="45.92039" lon="6.34423">
        <ele>1690</ele>
        <time>2026-08-19T06:43:28.566Z</time>
      </trkpt>
      <trkpt lat="45.92039" lon="6.34424">
        <ele>1690</ele>
        <time>2026-08-19T06:43:29.566Z</time>
      </trkpt>
      <trkpt lat="45.9204" lon="6.34425">
        <ele>1690</ele>
        <time>2026-08-19T06:43:30.566Z</time>
      </trkpt>
      <trkpt lat="45.9204" lon="6.34425">
        <ele>1690</ele>
        <time>2026-08-19T06:43:31.566Z</time>
      </trkpt>
      <trkpt lat="45.92041" lon="6.34426">
        <ele>1690</ele>
        <time>2026-08-19T06:43:32.566Z</time>
      </trkpt>
      <trkpt lat="45.92041" lon="6.34427">
        <ele>1691</ele>
        <time>2026-08-19T06:43:33.566Z</time>
      </trkpt>
      <trkpt lat="45.92041" lon="6.34427">
        <ele>1691</ele>
        <time>2026-08-19T06:43:34.566Z</time>
      </trkpt>
      <trkpt lat="45.92041" lon="6.34427">
        <ele>1692</ele>
        <time>2026-08-19T06:43:35.566Z</time>
      </trkpt>
      <trkpt lat="45.92041" lon="6.34427">
        <ele>1692</ele>
        <time>2026-08-19T06:43:36.566Z</time>
      </trkpt>
      <trkpt lat="45.92041" lon="6.34427">
        <ele>1693</ele>
        <time>2026-08-19T06:43:37.566Z</time>
      </trkpt>
      <trkpt lat="45.92041" lon="6.34427">
        <ele>1693</ele>
        <time>2026-08-19T06:43:38.566Z</time>
      </trkpt>
      <trkpt lat="45.92041" lon="6.34427">
        <ele>1693</ele>
        <time>2026-08-19T06:43:39.566Z</time>
      </trkpt>
      <trkpt lat="45.92041" lon="6.34427">
        <ele>1693</ele>
        <time>2026-08-19T06:43:40.566Z</time>
      </trkpt>
      <trkpt lat="45.92041" lon="6.34427">
        <ele>1693</ele>
        <time>2026-08-19T06:43:41.566Z</time>
      </trkpt>
      <trkpt lat="45.92041" lon="6.34427">
        <ele>1694</ele>
        <time>2026-08-19T06:43:42.566Z</time>
      </trkpt>
      <trkpt lat="45.92041" lon="6.34428">
        <ele>1694</ele>
        <time>2026-08-19T06:43:43.566Z</time>
      </trkpt>
      <trkpt lat="45.92042" lon="6.34429">
        <ele>1694</ele>
        <time>2026-08-19T06:43:44.566Z</time>
      </trkpt>
      <trkpt lat="45.92042" lon="6.3443">
        <ele>1694</ele>
        <time>2026-08-19T06:43:45.566Z</time>
      </trkpt>
      <trkpt lat="45.92042" lon="6.34431">
        <ele>1695</ele>
        <time>2026-08-19T06:43:46.566Z</time>
      </trkpt>
      <trkpt lat="45.92042" lon="6.34431">
        <ele>1695</ele>
        <time>2026-08-19T06:43:47.566Z</time>
      </trkpt>
      <trkpt lat="45.92043" lon="6.34432">
        <ele>1695</ele>
        <time>2026-08-19T06:43:48.566Z</time>
      </trkpt>
      <trkpt lat="45.92044" lon="6.34433">
        <ele>1695</ele>
        <time>2026-08-19T06:43:49.566Z</time>
      </trkpt>
      <trkpt lat="45.92044" lon="6.34434">
        <ele>1695</ele>
        <time>2026-08-19T06:43:50.566Z</time>
      </trkpt>
      <trkpt lat="45.92045" lon="6.34435">
        <ele>1695</ele>
        <time>2026-08-19T06:43:51.566Z</time>
      </trkpt>
      <trkpt lat="45.92046" lon="6.34436">
        <ele>1695</ele>
        <time>2026-08-19T06:43:52.566Z</time>
      </trkpt>
      <trkpt lat="45.92046" lon="6.34438">
        <ele>1695</ele>
        <time>2026-08-19T06:43:53.566Z</time>
      </trkpt>
      <trkpt lat="45.92047" lon="6.34439">
        <ele>1695</ele>
        <time>2026-08-19T06:43:54.566Z</time>
      </trkpt>
      <trkpt lat="45.92047" lon="6.34441">
        <ele>1695</ele>
        <time>2026-08-19T06:43:55.566Z</time>
      </trkpt>
      <trkpt lat="45.92048" lon="6.34442">
        <ele>1695</ele>
        <time>2026-08-19T06:43:56.566Z</time>
      </trkpt>
      <trkpt lat="45.92049" lon="6.34443">
        <ele>1695</ele>
        <time>2026-08-19T06:43:57.566Z</time>
      </trkpt>
      <trkpt lat="45.92049" lon="6.34444">
        <ele>1695</ele>
        <time>2026-08-19T06:43:58.566Z</time>
      </trkpt>
      <trkpt lat="45.92049" lon="6.34445">
        <ele>1695</ele>
        <time>2026-08-19T06:43:59.566Z</time>
      </trkpt>
      <trkpt lat="45.9205" lon="6.34446">
        <ele>1695</ele>
        <time>2026-08-19T06:44:00.566Z</time>
      </trkpt>
      <trkpt lat="45.9205" lon="6.34448">
        <ele>1695</ele>
        <time>2026-08-19T06:44:01.566Z</time>
      </trkpt>
      <trkpt lat="45.92051" lon="6.34449">
        <ele>1695</ele>
        <time>2026-08-19T06:44:02.567Z</time>
      </trkpt>
      <trkpt lat="45.92051" lon="6.34451">
        <ele>1695</ele>
        <time>2026-08-19T06:44:03.566Z</time>
      </trkpt>
      <trkpt lat="45.92051" lon="6.34452">
        <ele>1695</ele>
        <time>2026-08-19T06:44:04.566Z</time>
      </trkpt>
      <trkpt lat="45.92052" lon="6.34453">
        <ele>1695</ele>
        <time>2026-08-19T06:44:05.566Z</time>
      </trkpt>
      <trkpt lat="45.92052" lon="6.34454">
        <ele>1695</ele>
        <time>2026-08-19T06:44:06.566Z</time>
      </trkpt>
      <trkpt lat="45.92053" lon="6.34456">
        <ele>1695</ele>
        <time>2026-08-19T06:44:07.566Z</time>
      </trkpt>
      <trkpt lat="45.92053" lon="6.34457">
        <ele>1695</ele>
        <time>2026-08-19T06:44:08.566Z</time>
      </trkpt>
      <trkpt lat="45.92053" lon="6.34459">
        <ele>1695</ele>
        <time>2026-08-19T06:44:09.566Z</time>
      </trkpt>
      <trkpt lat="45.92053" lon="6.34461">
        <ele>1695</ele>
        <time>2026-08-19T06:44:10.566Z</time>
      </trkpt>
      <trkpt lat="45.92053" lon="6.34463">
        <ele>1695</ele>
        <time>2026-08-19T06:44:11.566Z</time>
      </trkpt>
      <trkpt lat="45.92053" lon="6.34465">
        <ele>1695</ele>
        <time>2026-08-19T06:44:12.566Z</time>
      </trkpt>
      <trkpt lat="45.92054" lon="6.34467">
        <ele>1695</ele>
        <time>2026-08-19T06:44:13.566Z</time>
      </trkpt>
      <trkpt lat="45.92054" lon="6.34469">
        <ele>1695</ele>
        <time>2026-08-19T06:44:14.566Z</time>
      </trkpt>
      <trkpt lat="45.92055" lon="6.34471">
        <ele>1696</ele>
        <time>2026-08-19T06:44:15.566Z</time>
      </trkpt>
      <trkpt lat="45.92055" lon="6.34473">
        <ele>1696</ele>
        <time>2026-08-19T06:44:16.566Z</time>
      </trkpt>
      <trkpt lat="45.92055" lon="6.34474">
        <ele>1696</ele>
        <time>2026-08-19T06:44:17.566Z</time>
      </trkpt>
      <trkpt lat="45.92055" lon="6.34475">
        <ele>1695</ele>
        <time>2026-08-19T06:44:18.566Z</time>
      </trkpt>
      <trkpt lat="45.92055" lon="6.34477">
        <ele>1695</ele>
        <time>2026-08-19T06:44:19.566Z</time>
      </trkpt>
      <trkpt lat="45.92054" lon="6.34478">
        <ele>1695</ele>
        <time>2026-08-19T06:44:20.566Z</time>
      </trkpt>
      <trkpt lat="45.92054" lon="6.34479">
        <ele>1695</ele>
        <time>2026-08-19T06:44:21.566Z</time>
      </trkpt>
      <trkpt lat="45.92054" lon="6.3448">
        <ele>1695</ele>
        <time>2026-08-19T06:44:22.566Z</time>
      </trkpt>
      <trkpt lat="45.92054" lon="6.34481">
        <ele>1695</ele>
        <time>2026-08-19T06:44:23.566Z</time>
      </trkpt>
      <trkpt lat="45.92054" lon="6.34483">
        <ele>1696</ele>
        <time>2026-08-19T06:44:24.566Z</time>
      </trkpt>
      <trkpt lat="45.92054" lon="6.34484">
        <ele>1696</ele>
        <time>2026-08-19T06:44:25.566Z</time>
      </trkpt>
      <trkpt lat="45.92054" lon="6.34485">
        <ele>1695</ele>
        <time>2026-08-19T06:44:26.566Z</time>
      </trkpt>
      <trkpt lat="45.92054" lon="6.34487">
        <ele>1695</ele>
        <time>2026-08-19T06:44:27.566Z</time>
      </trkpt>
      <trkpt lat="45.92054" lon="6.34488">
        <ele>1695</ele>
        <time>2026-08-19T06:44:28.566Z</time>
      </trkpt>
      <trkpt lat="45.92054" lon="6.34489">
        <ele>1696</ele>
        <time>2026-08-19T06:44:29.566Z</time>
      </trkpt>
      <trkpt lat="45.92054" lon="6.3449">
        <ele>1696</ele>
        <time>2026-08-19T06:44:30.566Z</time>
      </trkpt>
      <trkpt lat="45.92054" lon="6.34492">
        <ele>1696</ele>
        <time>2026-08-19T06:44:31.566Z</time>
      </trkpt>
      <trkpt lat="45.92054" lon="6.34493">
        <ele>1696</ele>
        <time>2026-08-19T06:44:32.566Z</time>
      </trkpt>
      <trkpt lat="45.92054" lon="6.34495">
        <ele>1696</ele>
        <time>2026-08-19T06:44:33.566Z</time>
      </trkpt>
      <trkpt lat="45.92054" lon="6.34497">
        <ele>1696</ele>
        <time>2026-08-19T06:44:34.566Z</time>
      </trkpt>
      <trkpt lat="45.92053" lon="6.34499">
        <ele>1696</ele>
        <time>2026-08-19T06:44:35.566Z</time>
      </trkpt>
      <trkpt lat="45.92053" lon="6.345">
        <ele>1696</ele>
        <time>2026-08-19T06:44:36.566Z</time>
      </trkpt>
      <trkpt lat="45.92052" lon="6.34501">
        <ele>1696</ele>
        <time>2026-08-19T06:44:37.566Z</time>
      </trkpt>
      <trkpt lat="45.92052" lon="6.34502">
        <ele>1696</ele>
        <time>2026-08-19T06:44:38.566Z</time>
      </trkpt>
      <trkpt lat="45.92052" lon="6.34503">
        <ele>1696</ele>
        <time>2026-08-19T06:44:39.566Z</time>
      </trkpt>
      <trkpt lat="45.92052" lon="6.34504">
        <ele>1696</ele>
        <time>2026-08-19T06:44:40.566Z</time>
      </trkpt>
      <trkpt lat="45.92052" lon="6.34505">
        <ele>1696</ele>
        <time>2026-08-19T06:44:41.566Z</time>
      </trkpt>
      <trkpt lat="45.92052" lon="6.34506">
        <ele>1696</ele>
        <time>2026-08-19T06:44:42.566Z</time>
      </trkpt>
      <trkpt lat="45.92052" lon="6.34507">
        <ele>1696</ele>
        <time>2026-08-19T06:44:43.566Z</time>
      </trkpt>
      <trkpt lat="45.92052" lon="6.34509">
        <ele>1696</ele>
        <time>2026-08-19T06:44:44.566Z</time>
      </trkpt>
      <trkpt lat="45.92052" lon="6.3451">
        <ele>1696</ele>
        <time>2026-08-19T06:44:45.566Z</time>
      </trkpt>
      <trkpt lat="45.92052" lon="6.34511">
        <ele>1695</ele>
        <time>2026-08-19T06:44:46.566Z</time>
      </trkpt>
      <trkpt lat="45.92052" lon="6.34513">
        <ele>1695</ele>
        <time>2026-08-19T06:44:47.566Z</time>
      </trkpt>
      <trkpt lat="45.92052" lon="6.34514">
        <ele>1695</ele>
        <time>2026-08-19T06:44:48.566Z</time>
      </trkpt>
      <trkpt lat="45.92052" lon="6.34515">
        <ele>1694</ele>
        <time>2026-08-19T06:44:49.566Z</time>
      </trkpt>
      <trkpt lat="45.92052" lon="6.34516">
        <ele>1694</ele>
        <time>2026-08-19T06:44:50.566Z</time>
      </trkpt>
      <trkpt lat="45.92052" lon="6.34518">
        <ele>1695</ele>
        <time>2026-08-19T06:44:51.566Z</time>
      </trkpt>
      <trkpt lat="45.92051" lon="6.34519">
        <ele>1695</ele>
        <time>2026-08-19T06:44:52.566Z</time>
      </trkpt>
      <trkpt lat="45.92051" lon="6.34519">
        <ele>1694</ele>
        <time>2026-08-19T06:44:53.566Z</time>
      </trkpt>
      <trkpt lat="45.92051" lon="6.34519">
        <ele>1694</ele>
        <time>2026-08-19T06:44:54.566Z</time>
      </trkpt>
      <trkpt lat="45.92051" lon="6.3452">
        <ele>1694</ele>
        <time>2026-08-19T06:44:55.566Z</time>
      </trkpt>
      <trkpt lat="45.92051" lon="6.3452">
        <ele>1694</ele>
        <time>2026-08-19T06:44:56.566Z</time>
      </trkpt>
      <trkpt lat="45.92051" lon="6.34519">
        <ele>1694</ele>
        <time>2026-08-19T06:44:57.566Z</time>
      </trkpt>
      <trkpt lat="45.92051" lon="6.34519">
        <ele>1694</ele>
        <time>2026-08-19T06:44:58.566Z</time>
      </trkpt>
      <trkpt lat="45.92051" lon="6.34519">
        <ele>1694</ele>
        <time>2026-08-19T06:44:59.566Z</time>
      </trkpt>
      <trkpt lat="45.92051" lon="6.34519">
        <ele>1694</ele>
        <time>2026-08-19T06:45:00.566Z</time>
      </trkpt>
      <trkpt lat="45.92051" lon="6.34519">
        <ele>1695</ele>
        <time>2026-08-19T06:45:01.566Z</time>
      </trkpt>
      <trkpt lat="45.92051" lon="6.34519">
        <ele>1695</ele>
        <time>2026-08-19T06:45:02.566Z</time>
      </trkpt>
      <trkpt lat="45.92051" lon="6.34519">
        <ele>1696</ele>
        <time>2026-08-19T06:45:03.566Z</time>
      </trkpt>
      <trkpt lat="45.92051" lon="6.34519">
        <ele>1696</ele>
        <time>2026-08-19T06:45:04.566Z</time>
      </trkpt>
      <trkpt lat="45.92051" lon="6.34519">
        <ele>1697</ele>
        <time>2026-08-19T06:45:05.566Z</time>
      </trkpt>
      <trkpt lat="45.92051" lon="6.34519">
        <ele>1698</ele>
        <time>2026-08-19T06:45:06.566Z</time>
      </trkpt>
      <trkpt lat="45.92051" lon="6.34519">
        <ele>1698</ele>
        <time>2026-08-19T06:45:07.566Z</time>
      </trkpt>
      <trkpt lat="45.92051" lon="6.34519">
        <ele>1699</ele>
        <time>2026-08-19T06:45:08.566Z</time>
      </trkpt>
      <trkpt lat="45.92051" lon="6.34519">
        <ele>1699</ele>
        <time>2026-08-19T06:45:09.566Z</time>
      </trkpt>
      <trkpt lat="45.92051" lon="6.34519">
        <ele>1699</ele>
        <time>2026-08-19T06:45:10.566Z</time>
      </trkpt>
      <trkpt lat="45.92051" lon="6.34519">
        <ele>1699</ele>
        <time>2026-08-19T06:45:11.566Z</time>
      </trkpt>
      <trkpt lat="45.92051" lon="6.34519">
        <ele>1700</ele>
        <time>2026-08-19T06:45:12.566Z</time>
      </trkpt>
      <trkpt lat="45.92051" lon="6.34519">
        <ele>1700</ele>
        <time>2026-08-19T06:45:13.566Z</time>
      </trkpt>
      <trkpt lat="45.92051" lon="6.34519">
        <ele>1700</ele>
        <time>2026-08-19T06:45:14.566Z</time>
      </trkpt>
      <trkpt lat="45.92051" lon="6.34519">
        <ele>1700</ele>
        <time>2026-08-19T06:45:15.566Z</time>
      </trkpt>
      <trkpt lat="45.92051" lon="6.34519">
        <ele>1700</ele>
        <time>2026-08-19T06:45:16.566Z</time>
      </trkpt>
      <trkpt lat="45.92051" lon="6.34519">
        <ele>1700</ele>
        <time>2026-08-19T06:45:17.566Z</time>
      </trkpt>
      <trkpt lat="45.92051" lon="6.34519">
        <ele>1701</ele>
        <time>2026-08-19T06:45:18.566Z</time>
      </trkpt>
      <trkpt lat="45.92051" lon="6.34519">
        <ele>1701</ele>
        <time>2026-08-19T06:45:19.566Z</time>
      </trkpt>
      <trkpt lat="45.92051" lon="6.34519">
        <ele>1701</ele>
        <time>2026-08-19T06:45:20.566Z</time>
      </trkpt>
      <trkpt lat="45.92051" lon="6.34519">
        <ele>1701</ele>
        <time>2026-08-19T06:45:21.566Z</time>
      </trkpt>
      <trkpt lat="45.92051" lon="6.34519">
        <ele>1701</ele>
        <time>2026-08-19T06:45:22.566Z</time>
      </trkpt>
      <trkpt lat="45.92051" lon="6.34517">
        <ele>1701</ele>
        <time>2026-08-19T06:45:23.566Z</time>
      </trkpt>
      <trkpt lat="45.92051" lon="6.34517">
        <ele>1701</ele>
        <time>2026-08-19T06:45:24.566Z</time>
      </trkpt>
      <trkpt lat="45.92051" lon="6.34517">
        <ele>1701</ele>
        <time>2026-08-19T06:45:25.566Z</time>
      </trkpt>
      <trkpt lat="45.92051" lon="6.34518">
        <ele>1701</ele>
        <time>2026-08-19T06:45:26.566Z</time>
      </trkpt>
      <trkpt lat="45.92051" lon="6.34519">
        <ele>1701</ele>
        <time>2026-08-19T06:45:27.566Z</time>
      </trkpt>
      <trkpt lat="45.92051" lon="6.3452">
        <ele>1701</ele>
        <time>2026-08-19T06:45:28.566Z</time>
      </trkpt>
      <trkpt lat="45.92051" lon="6.34521">
        <ele>1701</ele>
        <time>2026-08-19T06:45:29.566Z</time>
      </trkpt>
      <trkpt lat="45.92051" lon="6.34522">
        <ele>1701</ele>
        <time>2026-08-19T06:45:30.566Z</time>
      </trkpt>
      <trkpt lat="45.92051" lon="6.34524">
        <ele>1701</ele>
        <time>2026-08-19T06:45:31.566Z</time>
      </trkpt>
      <trkpt lat="45.9205" lon="6.34525">
        <ele>1701</ele>
        <time>2026-08-19T06:45:32.566Z</time>
      </trkpt>
      <trkpt lat="45.9205" lon="6.34526">
        <ele>1702</ele>
        <time>2026-08-19T06:45:33.566Z</time>
      </trkpt>
      <trkpt lat="45.9205" lon="6.34527">
        <ele>1702</ele>
        <time>2026-08-19T06:45:34.566Z</time>
      </trkpt>
      <trkpt lat="45.92049" lon="6.34528">
        <ele>1702</ele>
        <time>2026-08-19T06:45:35.566Z</time>
      </trkpt>
      <trkpt lat="45.92049" lon="6.34529">
        <ele>1702</ele>
        <time>2026-08-19T06:45:36.566Z</time>
      </trkpt>
      <trkpt lat="45.92049" lon="6.3453">
        <ele>1702</ele>
        <time>2026-08-19T06:45:37.566Z</time>
      </trkpt>
      <trkpt lat="45.92048" lon="6.34531">
        <ele>1702</ele>
        <time>2026-08-19T06:45:38.566Z</time>
      </trkpt>
      <trkpt lat="45.92048" lon="6.34532">
        <ele>1702</ele>
        <time>2026-08-19T06:45:39.566Z</time>
      </trkpt>
      <trkpt lat="45.92047" lon="6.34533">
        <ele>1702</ele>
        <time>2026-08-19T06:45:40.566Z</time>
      </trkpt>
      <trkpt lat="45.92047" lon="6.34534">
        <ele>1702</ele>
        <time>2026-08-19T06:45:41.566Z</time>
      </trkpt>
      <trkpt lat="45.92047" lon="6.34535">
        <ele>1702</ele>
        <time>2026-08-19T06:45:42.566Z</time>
      </trkpt>
      <trkpt lat="45.92046" lon="6.34536">
        <ele>1702</ele>
        <time>2026-08-19T06:45:43.566Z</time>
      </trkpt>
      <trkpt lat="45.92046" lon="6.34537">
        <ele>1701</ele>
        <time>2026-08-19T06:45:44.566Z</time>
      </trkpt>
      <trkpt lat="45.92046" lon="6.34539">
        <ele>1701</ele>
        <time>2026-08-19T06:45:45.566Z</time>
      </trkpt>
      <trkpt lat="45.92045" lon="6.3454">
        <ele>1701</ele>
        <time>2026-08-19T06:45:46.566Z</time>
      </trkpt>
      <trkpt lat="45.92045" lon="6.34541">
        <ele>1700</ele>
        <time>2026-08-19T06:45:47.566Z</time>
      </trkpt>
      <trkpt lat="45.92045" lon="6.34541">
        <ele>1700</ele>
        <time>2026-08-19T06:45:48.566Z</time>
      </trkpt>
      <trkpt lat="45.92045" lon="6.34542">
        <ele>1700</ele>
        <time>2026-08-19T06:45:49.566Z</time>
      </trkpt>
      <trkpt lat="45.92045" lon="6.34542">
        <ele>1701</ele>
        <time>2026-08-19T06:45:50.566Z</time>
      </trkpt>
      <trkpt lat="45.92045" lon="6.34542">
        <ele>1701</ele>
        <time>2026-08-19T06:45:51.566Z</time>
      </trkpt>
      <trkpt lat="45.92044" lon="6.34542">
        <ele>1700</ele>
        <time>2026-08-19T06:45:52.566Z</time>
      </trkpt>
      <trkpt lat="45.92044" lon="6.34543">
        <ele>1700</ele>
        <time>2026-08-19T06:45:53.566Z</time>
      </trkpt>
      <trkpt lat="45.92044" lon="6.34543">
        <ele>1700</ele>
        <time>2026-08-19T06:45:54.566Z</time>
      </trkpt>
      <trkpt lat="45.92043" lon="6.34544">
        <ele>1700</ele>
        <time>2026-08-19T06:45:55.566Z</time>
      </trkpt>
      <trkpt lat="45.92043" lon="6.34545">
        <ele>1700</ele>
        <time>2026-08-19T06:45:56.566Z</time>
      </trkpt>
      <trkpt lat="45.92042" lon="6.34545">
        <ele>1700</ele>
        <time>2026-08-19T06:45:57.566Z</time>
      </trkpt>
      <trkpt lat="45.92042" lon="6.34545">
        <ele>1701</ele>
        <time>2026-08-19T06:45:58.566Z</time>
      </trkpt>
      <trkpt lat="45.92041" lon="6.34545">
        <ele>1701</ele>
        <time>2026-08-19T06:45:59.566Z</time>
      </trkpt>
      <trkpt lat="45.92041" lon="6.34546">
        <ele>1700</ele>
        <time>2026-08-19T06:46:00.566Z</time>
      </trkpt>
      <trkpt lat="45.92041" lon="6.34547">
        <ele>1700</ele>
        <time>2026-08-19T06:46:01.566Z</time>
      </trkpt>
      <trkpt lat="45.9204" lon="6.34547">
        <ele>1700</ele>
        <time>2026-08-19T06:46:02.566Z</time>
      </trkpt>
      <trkpt lat="45.9204" lon="6.34548">
        <ele>1700</ele>
        <time>2026-08-19T06:46:03.566Z</time>
      </trkpt>
      <trkpt lat="45.92039" lon="6.34549">
        <ele>1700</ele>
        <time>2026-08-19T06:46:04.566Z</time>
      </trkpt>
      <trkpt lat="45.92039" lon="6.34549">
        <ele>1700</ele>
        <time>2026-08-19T06:46:05.566Z</time>
      </trkpt>
      <trkpt lat="45.92038" lon="6.34549">
        <ele>1700</ele>
        <time>2026-08-19T06:46:06.566Z</time>
      </trkpt>
      <trkpt lat="45.92038" lon="6.3455">
        <ele>1700</ele>
        <time>2026-08-19T06:46:07.566Z</time>
      </trkpt>
      <trkpt lat="45.92037" lon="6.3455">
        <ele>1700</ele>
        <time>2026-08-19T06:46:08.566Z</time>
      </trkpt>
      <trkpt lat="45.92036" lon="6.3455">
        <ele>1700</ele>
        <time>2026-08-19T06:46:09.566Z</time>
      </trkpt>
      <trkpt lat="45.92035" lon="6.34551">
        <ele>1700</ele>
        <time>2026-08-19T06:46:10.566Z</time>
      </trkpt>
      <trkpt lat="45.92035" lon="6.34551">
        <ele>1700</ele>
        <time>2026-08-19T06:46:11.566Z</time>
      </trkpt>
      <trkpt lat="45.92034" lon="6.34551">
        <ele>1700</ele>
        <time>2026-08-19T06:46:12.566Z</time>
      </trkpt>
      <trkpt lat="45.92034" lon="6.34551">
        <ele>1700</ele>
        <time>2026-08-19T06:46:13.566Z</time>
      </trkpt>
      <trkpt lat="45.92033" lon="6.34552">
        <ele>1700</ele>
        <time>2026-08-19T06:46:14.566Z</time>
      </trkpt>
      <trkpt lat="45.92033" lon="6.34552">
        <ele>1700</ele>
        <time>2026-08-19T06:46:15.566Z</time>
      </trkpt>
      <trkpt lat="45.92033" lon="6.34553">
        <ele>1700</ele>
        <time>2026-08-19T06:46:16.566Z</time>
      </trkpt>
      <trkpt lat="45.92033" lon="6.34554">
        <ele>1700</ele>
        <time>2026-08-19T06:46:17.566Z</time>
      </trkpt>
      <trkpt lat="45.92032" lon="6.34553">
        <ele>1700</ele>
        <time>2026-08-19T06:46:18.566Z</time>
      </trkpt>
      <trkpt lat="45.92031" lon="6.34553">
        <ele>1700</ele>
        <time>2026-08-19T06:46:19.566Z</time>
      </trkpt>
      <trkpt lat="45.92031" lon="6.34553">
        <ele>1700</ele>
        <time>2026-08-19T06:46:20.566Z</time>
      </trkpt>
      <trkpt lat="45.92031" lon="6.34553">
        <ele>1700</ele>
        <time>2026-08-19T06:46:21.566Z</time>
      </trkpt>
      <trkpt lat="45.9203" lon="6.34553">
        <ele>1700</ele>
        <time>2026-08-19T06:46:22.566Z</time>
      </trkpt>
      <trkpt lat="45.9203" lon="6.34553">
        <ele>1701</ele>
        <time>2026-08-19T06:46:23.566Z</time>
      </trkpt>
      <trkpt lat="45.9203" lon="6.34553">
        <ele>1701</ele>
        <time>2026-08-19T06:46:24.566Z</time>
      </trkpt>
      <trkpt lat="45.9203" lon="6.34553">
        <ele>1701</ele>
        <time>2026-08-19T06:46:25.566Z</time>
      </trkpt>
      <trkpt lat="45.9203" lon="6.34553">
        <ele>1702</ele>
        <time>2026-08-19T06:46:26.566Z</time>
      </trkpt>
      <trkpt lat="45.92029" lon="6.34553">
        <ele>1702</ele>
        <time>2026-08-19T06:46:27.566Z</time>
      </trkpt>
      <trkpt lat="45.92029" lon="6.34553">
        <ele>1702</ele>
        <time>2026-08-19T06:46:28.566Z</time>
      </trkpt>
      <trkpt lat="45.92029" lon="6.34553">
        <ele>1702</ele>
        <time>2026-08-19T06:46:29.566Z</time>
      </trkpt>
      <trkpt lat="45.92029" lon="6.34553">
        <ele>1702</ele>
        <time>2026-08-19T06:46:30.566Z</time>
      </trkpt>
      <trkpt lat="45.92029" lon="6.34553">
        <ele>1702</ele>
        <time>2026-08-19T06:46:31.566Z</time>
      </trkpt>
      <trkpt lat="45.92029" lon="6.34553">
        <ele>1702</ele>
        <time>2026-08-19T06:46:32.566Z</time>
      </trkpt>
      <trkpt lat="45.92029" lon="6.34553">
        <ele>1702</ele>
        <time>2026-08-19T06:46:33.566Z</time>
      </trkpt>
      <trkpt lat="45.92029" lon="6.34553">
        <ele>1701</ele>
        <time>2026-08-19T06:46:34.566Z</time>
      </trkpt>
      <trkpt lat="45.92029" lon="6.34553">
        <ele>1701</ele>
        <time>2026-08-19T06:46:35.566Z</time>
      </trkpt>
      <trkpt lat="45.92029" lon="6.34553">
        <ele>1701</ele>
        <time>2026-08-19T06:46:36.566Z</time>
      </trkpt>
      <trkpt lat="45.92029" lon="6.34553">
        <ele>1700</ele>
        <time>2026-08-19T06:46:37.566Z</time>
      </trkpt>
      <trkpt lat="45.92029" lon="6.34553">
        <ele>1700</ele>
        <time>2026-08-19T06:46:38.566Z</time>
      </trkpt>
      <trkpt lat="45.92029" lon="6.34553">
        <ele>1700</ele>
        <time>2026-08-19T06:46:39.566Z</time>
      </trkpt>
      <trkpt lat="45.92029" lon="6.34553">
        <ele>1700</ele>
        <time>2026-08-19T06:46:40.566Z</time>
      </trkpt>
      <trkpt lat="45.92029" lon="6.34552">
        <ele>1700</ele>
        <time>2026-08-19T06:46:41.566Z</time>
      </trkpt>
      <trkpt lat="45.9203" lon="6.34552">
        <ele>1699</ele>
        <time>2026-08-19T06:46:42.566Z</time>
      </trkpt>
      <trkpt lat="45.9203" lon="6.34552">
        <ele>1699</ele>
        <time>2026-08-19T06:46:43.566Z</time>
      </trkpt>
      <trkpt lat="45.9203" lon="6.34552">
        <ele>1699</ele>
        <time>2026-08-19T06:46:44.566Z</time>
      </trkpt>
      <trkpt lat="45.9203" lon="6.34552">
        <ele>1698</ele>
        <time>2026-08-19T06:46:45.567Z</time>
      </trkpt>
      <trkpt lat="45.9203" lon="6.34551">
        <ele>1697</ele>
        <time>2026-08-19T06:46:46.566Z</time>
      </trkpt>
      <trkpt lat="45.9203" lon="6.34551">
        <ele>1697</ele>
        <time>2026-08-19T06:46:47.566Z</time>
      </trkpt>
      <trkpt lat="45.9203" lon="6.34551">
        <ele>1696</ele>
        <time>2026-08-19T06:46:48.566Z</time>
      </trkpt>
      <trkpt lat="45.9203" lon="6.34551">
        <ele>1696</ele>
        <time>2026-08-19T06:46:49.566Z</time>
      </trkpt>
      <trkpt lat="45.9203" lon="6.34552">
        <ele>1696</ele>
        <time>2026-08-19T06:46:50.566Z</time>
      </trkpt>
      <trkpt lat="45.9203" lon="6.34552">
        <ele>1696</ele>
        <time>2026-08-19T06:46:51.566Z</time>
      </trkpt>
      <trkpt lat="45.9203" lon="6.34552">
        <ele>1696</ele>
        <time>2026-08-19T06:46:52.566Z</time>
      </trkpt>
      <trkpt lat="45.92031" lon="6.34552">
        <ele>1695</ele>
        <time>2026-08-19T06:46:53.566Z</time>
      </trkpt>
      <trkpt lat="45.92031" lon="6.34552">
        <ele>1695</ele>
        <time>2026-08-19T06:46:54.566Z</time>
      </trkpt>
      <trkpt lat="45.92031" lon="6.34552">
        <ele>1696</ele>
        <time>2026-08-19T06:46:55.566Z</time>
      </trkpt>
      <trkpt lat="45.92031" lon="6.34552">
        <ele>1696</ele>
        <time>2026-08-19T06:46:56.566Z</time>
      </trkpt>
      <trkpt lat="45.92031" lon="6.34552">
        <ele>1696</ele>
        <time>2026-08-19T06:46:57.566Z</time>
      </trkpt>
      <trkpt lat="45.92031" lon="6.34552">
        <ele>1696</ele>
        <time>2026-08-19T06:46:58.566Z</time>
      </trkpt>
      <trkpt lat="45.92031" lon="6.34552">
        <ele>1696</ele>
        <time>2026-08-19T06:46:59.566Z</time>
      </trkpt>
      <trkpt lat="45.92031" lon="6.34552">
        <ele>1696</ele>
        <time>2026-08-19T06:47:00.566Z</time>
      </trkpt>
      <trkpt lat="45.92031" lon="6.34552">
        <ele>1696</ele>
        <time>2026-08-19T06:47:01.566Z</time>
      </trkpt>
      <trkpt lat="45.92031" lon="6.34552">
        <ele>1696</ele>
        <time>2026-08-19T06:47:02.566Z</time>
      </trkpt>
      <trkpt lat="45.92031" lon="6.34552">
        <ele>1696</ele>
        <time>2026-08-19T06:47:03.566Z</time>
      </trkpt>
      <trkpt lat="45.92031" lon="6.34552">
        <ele>1696</ele>
        <time>2026-08-19T06:47:04.566Z</time>
      </trkpt>
      <trkpt lat="45.92031" lon="6.34552">
        <ele>1696</ele>
        <time>2026-08-19T06:47:05.566Z</time>
      </trkpt>
      <trkpt lat="45.92031" lon="6.34552">
        <ele>1697</ele>
        <time>2026-08-19T06:47:06.566Z</time>
      </trkpt>
      <trkpt lat="45.92031" lon="6.34552">
        <ele>1697</ele>
        <time>2026-08-19T06:47:07.566Z</time>
      </trkpt>
      <trkpt lat="45.92031" lon="6.34552">
        <ele>1697</ele>
        <time>2026-08-19T06:47:08.566Z</time>
      </trkpt>
      <trkpt lat="45.92031" lon="6.34553">
        <ele>1697</ele>
        <time>2026-08-19T06:47:09.566Z</time>
      </trkpt>
      <trkpt lat="45.92031" lon="6.34553">
        <ele>1697</ele>
        <time>2026-08-19T06:47:10.566Z</time>
      </trkpt>
      <trkpt lat="45.92031" lon="6.34553">
        <ele>1697</ele>
        <time>2026-08-19T06:47:11.566Z</time>
      </trkpt>
      <trkpt lat="45.92031" lon="6.34553">
        <ele>1697</ele>
        <time>2026-08-19T06:47:12.566Z</time>
      </trkpt>
      <trkpt lat="45.92031" lon="6.34553">
        <ele>1697</ele>
        <time>2026-08-19T06:47:13.566Z</time>
      </trkpt>
      <trkpt lat="45.92031" lon="6.34553">
        <ele>1697</ele>
        <time>2026-08-19T06:47:14.566Z</time>
      </trkpt>
      <trkpt lat="45.92031" lon="6.34553">
        <ele>1697</ele>
        <time>2026-08-19T06:47:15.566Z</time>
      </trkpt>
      <trkpt lat="45.92031" lon="6.34553">
        <ele>1697</ele>
        <time>2026-08-19T06:47:16.566Z</time>
      </trkpt>
      <trkpt lat="45.92031" lon="6.34553">
        <ele>1697</ele>
        <time>2026-08-19T06:47:17.566Z</time>
      </trkpt>
      <trkpt lat="45.92031" lon="6.34553">
        <ele>1697</ele>
        <time>2026-08-19T06:47:18.566Z</time>
      </trkpt>
      <trkpt lat="45.92031" lon="6.34553">
        <ele>1697</ele>
        <time>2026-08-19T06:47:19.566Z</time>
      </trkpt>
      <trkpt lat="45.92031" lon="6.34553">
        <ele>1697</ele>
        <time>2026-08-19T06:47:20.566Z</time>
      </trkpt>
      <trkpt lat="45.92031" lon="6.34553">
        <ele>1697</ele>
        <time>2026-08-19T06:47:21.566Z</time>
      </trkpt>
      <trkpt lat="45.92031" lon="6.34553">
        <ele>1697</ele>
        <time>2026-08-19T06:47:22.566Z</time>
      </trkpt>
      <trkpt lat="45.92031" lon="6.34553">
        <ele>1697</ele>
        <time>2026-08-19T06:47:23.566Z</time>
      </trkpt>
      <trkpt lat="45.92031" lon="6.34553">
        <ele>1698</ele>
        <time>2026-08-19T06:47:24.566Z</time>
      </trkpt>
      <trkpt lat="45.92031" lon="6.34553">
        <ele>1698</ele>
        <time>2026-08-19T06:47:25.566Z</time>
      </trkpt>
      <trkpt lat="45.92031" lon="6.34553">
        <ele>1698</ele>
        <time>2026-08-19T06:47:26.566Z</time>
      </trkpt>
      <trkpt lat="45.92031" lon="6.34553">
        <ele>1698</ele>
        <time>2026-08-19T06:47:27.566Z</time>
      </trkpt>
      <trkpt lat="45.92031" lon="6.34553">
        <ele>1698</ele>
        <time>2026-08-19T06:47:28.566Z</time>
      </trkpt>
      <trkpt lat="45.92031" lon="6.34553">
        <ele>1698</ele>
        <time>2026-08-19T06:47:29.566Z</time>
      </trkpt>
      <trkpt lat="45.92031" lon="6.34553">
        <ele>1698</ele>
        <time>2026-08-19T06:47:30.566Z</time>
      </trkpt>
      <trkpt lat="45.92031" lon="6.34553">
        <ele>1698</ele>
        <time>2026-08-19T06:47:31.566Z</time>
      </trkpt>
      <trkpt lat="45.92031" lon="6.34553">
        <ele>1698</ele>
        <time>2026-08-19T06:47:32.566Z</time>
      </trkpt>
      <trkpt lat="45.92032" lon="6.34553">
        <ele>1698</ele>
        <time>2026-08-19T06:47:33.566Z</time>
      </trkpt>
      <trkpt lat="45.92032" lon="6.34553">
        <ele>1698</ele>
        <time>2026-08-19T06:47:34.566Z</time>
      </trkpt>
      <trkpt lat="45.92032" lon="6.34553">
        <ele>1698</ele>
        <time>2026-08-19T06:47:35.566Z</time>
      </trkpt>
      <trkpt lat="45.92032" lon="6.34553">
        <ele>1698</ele>
        <time>2026-08-19T06:47:36.566Z</time>
      </trkpt>
      <trkpt lat="45.92032" lon="6.34553">
        <ele>1698</ele>
        <time>2026-08-19T06:47:37.566Z</time>
      </trkpt>
      <trkpt lat="45.92032" lon="6.34553">
        <ele>1698</ele>
        <time>2026-08-19T06:47:38.566Z</time>
      </trkpt>
      <trkpt lat="45.92032" lon="6.34553">
        <ele>1698</ele>
        <time>2026-08-19T06:47:39.566Z</time>
      </trkpt>
      <trkpt lat="45.92032" lon="6.34553">
        <ele>1698</ele>
        <time>2026-08-19T06:47:40.566Z</time>
      </trkpt>
      <trkpt lat="45.92032" lon="6.34553">
        <ele>1699</ele>
        <time>2026-08-19T06:47:41.566Z</time>
      </trkpt>
      <trkpt lat="45.92032" lon="6.34553">
        <ele>1699</ele>
        <time>2026-08-19T06:47:42.566Z</time>
      </trkpt>
      <trkpt lat="45.92032" lon="6.34553">
        <ele>1699</ele>
        <time>2026-08-19T06:47:43.566Z</time>
      </trkpt>
      <trkpt lat="45.92032" lon="6.34553">
        <ele>1699</ele>
        <time>2026-08-19T06:47:44.566Z</time>
      </trkpt>
      <trkpt lat="45.92032" lon="6.34553">
        <ele>1699</ele>
        <time>2026-08-19T06:47:45.566Z</time>
      </trkpt>
      <trkpt lat="45.92032" lon="6.34554">
        <ele>1699</ele>
        <time>2026-08-19T06:47:46.566Z</time>
      </trkpt>
      <trkpt lat="45.92033" lon="6.34554">
        <ele>1699</ele>
        <time>2026-08-19T06:47:47.566Z</time>
      </trkpt>
      <trkpt lat="45.92033" lon="6.34554">
        <ele>1699</ele>
        <time>2026-08-19T06:47:48.566Z</time>
      </trkpt>
      <trkpt lat="45.92033" lon="6.34554">
        <ele>1699</ele>
        <time>2026-08-19T06:47:49.566Z</time>
      </trkpt>
      <trkpt lat="45.92033" lon="6.34554">
        <ele>1699</ele>
        <time>2026-08-19T06:47:50.566Z</time>
      </trkpt>
      <trkpt lat="45.92033" lon="6.34554">
        <ele>1699</ele>
        <time>2026-08-19T06:47:51.566Z</time>
      </trkpt>
      <trkpt lat="45.92033" lon="6.34554">
        <ele>1699</ele>
        <time>2026-08-19T06:47:52.566Z</time>
      </trkpt>
      <trkpt lat="45.92033" lon="6.34554">
        <ele>1699</ele>
        <time>2026-08-19T06:47:53.566Z</time>
      </trkpt>
      <trkpt lat="45.92033" lon="6.34554">
        <ele>1699</ele>
        <time>2026-08-19T06:47:54.566Z</time>
      </trkpt>
      <trkpt lat="45.92033" lon="6.34554">
        <ele>1699</ele>
        <time>2026-08-19T06:47:55.566Z</time>
      </trkpt>
      <trkpt lat="45.92033" lon="6.34554">
        <ele>1699</ele>
        <time>2026-08-19T06:47:56.566Z</time>
      </trkpt>
      <trkpt lat="45.92033" lon="6.34555">
        <ele>1699</ele>
        <time>2026-08-19T06:47:57.566Z</time>
      </trkpt>
      <trkpt lat="45.92033" lon="6.34555">
        <ele>1699</ele>
        <time>2026-08-19T06:47:58.566Z</time>
      </trkpt>
      <trkpt lat="45.92033" lon="6.34555">
        <ele>1699</ele>
        <time>2026-08-19T06:47:59.566Z</time>
      </trkpt>
      <trkpt lat="45.92033" lon="6.34555">
        <ele>1699</ele>
        <time>2026-08-19T06:48:00.566Z</time>
      </trkpt>
      <trkpt lat="45.92033" lon="6.34555">
        <ele>1699</ele>
        <time>2026-08-19T06:48:01.566Z</time>
      </trkpt>
      <trkpt lat="45.92033" lon="6.34555">
        <ele>1699</ele>
        <time>2026-08-19T06:48:02.566Z</time>
      </trkpt>
      <trkpt lat="45.92033" lon="6.34555">
        <ele>1699</ele>
        <time>2026-08-19T06:48:03.566Z</time>
      </trkpt>
      <trkpt lat="45.92033" lon="6.34555">
        <ele>1699</ele>
        <time>2026-08-19T06:48:04.566Z</time>
      </trkpt>
      <trkpt lat="45.92034" lon="6.34555">
        <ele>1699</ele>
        <time>2026-08-19T06:48:05.566Z</time>
      </trkpt>
      <trkpt lat="45.92034" lon="6.34555">
        <ele>1700</ele>
        <time>2026-08-19T06:48:06.566Z</time>
      </trkpt>
      <trkpt lat="45.92034" lon="6.34555">
        <ele>1700</ele>
        <time>2026-08-19T06:48:07.566Z</time>
      </trkpt>
      <trkpt lat="45.92034" lon="6.34555">
        <ele>1700</ele>
        <time>2026-08-19T06:48:08.566Z</time>
      </trkpt>
      <trkpt lat="45.92034" lon="6.34555">
        <ele>1700</ele>
        <time>2026-08-19T06:48:09.566Z</time>
      </trkpt>
      <trkpt lat="45.92034" lon="6.34555">
        <ele>1700</ele>
        <time>2026-08-19T06:48:10.566Z</time>
      </trkpt>
      <trkpt lat="45.92034" lon="6.34555">
        <ele>1700</ele>
        <time>2026-08-19T06:48:11.566Z</time>
      </trkpt>
      <trkpt lat="45.92034" lon="6.34555">
        <ele>1700</ele>
        <time>2026-08-19T06:48:12.566Z</time>
      </trkpt>
      <trkpt lat="45.92034" lon="6.34556">
        <ele>1700</ele>
        <time>2026-08-19T06:48:13.566Z</time>
      </trkpt>
      <trkpt lat="45.92034" lon="6.34556">
        <ele>1700</ele>
        <time>2026-08-19T06:48:14.566Z</time>
      </trkpt>
      <trkpt lat="45.92034" lon="6.34556">
        <ele>1700</ele>
        <time>2026-08-19T06:48:15.566Z</time>
      </trkpt>
      <trkpt lat="45.92034" lon="6.34556">
        <ele>1700</ele>
        <time>2026-08-19T06:48:16.566Z</time>
      </trkpt>
      <trkpt lat="45.92034" lon="6.34556">
        <ele>1700</ele>
        <time>2026-08-19T06:48:17.566Z</time>
      </trkpt>
      <trkpt lat="45.92034" lon="6.34556">
        <ele>1700</ele>
        <time>2026-08-19T06:48:18.566Z</time>
      </trkpt>
      <trkpt lat="45.92034" lon="6.34556">
        <ele>1700</ele>
        <time>2026-08-19T06:48:19.566Z</time>
      </trkpt>
      <trkpt lat="45.92034" lon="6.34556">
        <ele>1700</ele>
        <time>2026-08-19T06:48:20.566Z</time>
      </trkpt>
      <trkpt lat="45.92034" lon="6.34556">
        <ele>1700</ele>
        <time>2026-08-19T06:48:21.566Z</time>
      </trkpt>
      <trkpt lat="45.92034" lon="6.34556">
        <ele>1700</ele>
        <time>2026-08-19T06:48:22.566Z</time>
      </trkpt>
      <trkpt lat="45.92034" lon="6.34556">
        <ele>1700</ele>
        <time>2026-08-19T06:48:23.566Z</time>
      </trkpt>
      <trkpt lat="45.92034" lon="6.34556">
        <ele>1700</ele>
        <time>2026-08-19T06:48:24.566Z</time>
      </trkpt>
      <trkpt lat="45.92034" lon="6.34557">
        <ele>1700</ele>
        <time>2026-08-19T06:48:25.566Z</time>
      </trkpt>
      <trkpt lat="45.92034" lon="6.34558">
        <ele>1701</ele>
        <time>2026-08-19T06:48:26.566Z</time>
      </trkpt>
      <trkpt lat="45.92034" lon="6.34559">
        <ele>1701</ele>
        <time>2026-08-19T06:48:27.566Z</time>
      </trkpt>
      <trkpt lat="45.92034" lon="6.34559">
        <ele>1701</ele>
        <time>2026-08-19T06:48:28.566Z</time>
      </trkpt>
      <trkpt lat="45.92034" lon="6.3456">
        <ele>1701</ele>
        <time>2026-08-19T06:48:29.566Z</time>
      </trkpt>
      <trkpt lat="45.92034" lon="6.3456">
        <ele>1701</ele>
        <time>2026-08-19T06:48:30.566Z</time>
      </trkpt>
      <trkpt lat="45.92034" lon="6.3456">
        <ele>1701</ele>
        <time>2026-08-19T06:48:31.566Z</time>
      </trkpt>
      <trkpt lat="45.92034" lon="6.3456">
        <ele>1701</ele>
        <time>2026-08-19T06:48:32.567Z</time>
      </trkpt>
      <trkpt lat="45.92034" lon="6.34561">
        <ele>1702</ele>
        <time>2026-08-19T06:48:33.566Z</time>
      </trkpt>
      <trkpt lat="45.92034" lon="6.3456">
        <ele>1702</ele>
        <time>2026-08-19T06:48:34.566Z</time>
      </trkpt>
      <trkpt lat="45.92034" lon="6.34561">
        <ele>1702</ele>
        <time>2026-08-19T06:48:35.566Z</time>
      </trkpt>
      <trkpt lat="45.92033" lon="6.34561">
        <ele>1702</ele>
        <time>2026-08-19T06:48:36.566Z</time>
      </trkpt>
      <trkpt lat="45.92033" lon="6.34561">
        <ele>1702</ele>
        <time>2026-08-19T06:48:37.566Z</time>
      </trkpt>
      <trkpt lat="45.92033" lon="6.34562">
        <ele>1703</ele>
        <time>2026-08-19T06:48:38.566Z</time>
      </trkpt>
      <trkpt lat="45.92032" lon="6.34562">
        <ele>1703</ele>
        <time>2026-08-19T06:48:39.566Z</time>
      </trkpt>
      <trkpt lat="45.92032" lon="6.34562">
        <ele>1703</ele>
        <time>2026-08-19T06:48:40.566Z</time>
      </trkpt>
      <trkpt lat="45.92032" lon="6.34562">
        <ele>1703</ele>
        <time>2026-08-19T06:48:41.566Z</time>
      </trkpt>
      <trkpt lat="45.92032" lon="6.34562">
        <ele>1704</ele>
        <time>2026-08-19T06:48:42.566Z</time>
      </trkpt>
      <trkpt lat="45.92032" lon="6.34563">
        <ele>1704</ele>
        <time>2026-08-19T06:48:43.566Z</time>
      </trkpt>
      <trkpt lat="45.92032" lon="6.34563">
        <ele>1704</ele>
        <time>2026-08-19T06:48:44.566Z</time>
      </trkpt>
      <trkpt lat="45.92032" lon="6.34563">
        <ele>1705</ele>
        <time>2026-08-19T06:48:45.566Z</time>
      </trkpt>
      <trkpt lat="45.92032" lon="6.34564">
        <ele>1705</ele>
        <time>2026-08-19T06:48:46.566Z</time>
      </trkpt>
      <trkpt lat="45.92032" lon="6.34564">
        <ele>1705</ele>
        <time>2026-08-19T06:48:47.566Z</time>
      </trkpt>
      <trkpt lat="45.92032" lon="6.34564">
        <ele>1706</ele>
        <time>2026-08-19T06:48:48.566Z</time>
      </trkpt>
      <trkpt lat="45.92032" lon="6.34565">
        <ele>1706</ele>
        <time>2026-08-19T06:48:49.566Z</time>
      </trkpt>
      <trkpt lat="45.92032" lon="6.34565">
        <ele>1707</ele>
        <time>2026-08-19T06:48:50.566Z</time>
      </trkpt>
      <trkpt lat="45.92032" lon="6.34565">
        <ele>1707</ele>
        <time>2026-08-19T06:48:51.566Z</time>
      </trkpt>
      <trkpt lat="45.92032" lon="6.34565">
        <ele>1708</ele>
        <time>2026-08-19T06:48:52.566Z</time>
      </trkpt>
      <trkpt lat="45.92033" lon="6.34566">
        <ele>1708</ele>
        <time>2026-08-19T06:48:53.566Z</time>
      </trkpt>
      <trkpt lat="45.92033" lon="6.34566">
        <ele>1708</ele>
        <time>2026-08-19T06:48:54.566Z</time>
      </trkpt>
      <trkpt lat="45.92033" lon="6.34567">
        <ele>1709</ele>
        <time>2026-08-19T06:48:55.566Z</time>
      </trkpt>
      <trkpt lat="45.92033" lon="6.34567">
        <ele>1709</ele>
        <time>2026-08-19T06:48:56.566Z</time>
      </trkpt>
      <trkpt lat="45.92033" lon="6.34567">
        <ele>1710</ele>
        <time>2026-08-19T06:48:57.566Z</time>
      </trkpt>
      <trkpt lat="45.92033" lon="6.34567">
        <ele>1710</ele>
        <time>2026-08-19T06:48:58.566Z</time>
      </trkpt>
      <trkpt lat="45.92034" lon="6.34567">
        <ele>1710</ele>
        <time>2026-08-19T06:48:59.567Z</time>
      </trkpt>
      <trkpt lat="45.92034" lon="6.34568">
        <ele>1711</ele>
        <time>2026-08-19T06:49:00.566Z</time>
      </trkpt>
      <trkpt lat="45.92033" lon="6.34568">
        <ele>1711</ele>
        <time>2026-08-19T06:49:01.566Z</time>
      </trkpt>
      <trkpt lat="45.92033" lon="6.34568">
        <ele>1711</ele>
        <time>2026-08-19T06:49:02.566Z</time>
      </trkpt>
      <trkpt lat="45.92033" lon="6.34568">
        <ele>1712</ele>
        <time>2026-08-19T06:49:03.566Z</time>
      </trkpt>
      <trkpt lat="45.92033" lon="6.34568">
        <ele>1712</ele>
        <time>2026-08-19T06:49:04.566Z</time>
      </trkpt>
      <trkpt lat="45.92033" lon="6.34568">
        <ele>1712</ele>
        <time>2026-08-19T06:49:05.566Z</time>
      </trkpt>
      <trkpt lat="45.92033" lon="6.34568">
        <ele>1713</ele>
        <time>2026-08-19T06:49:06.566Z</time>
      </trkpt>
      <trkpt lat="45.92033" lon="6.34568">
        <ele>1713</ele>
        <time>2026-08-19T06:49:07.566Z</time>
      </trkpt>
      <trkpt lat="45.92033" lon="6.34568">
        <ele>1713</ele>
        <time>2026-08-19T06:49:08.566Z</time>
      </trkpt>
      <trkpt lat="45.92033" lon="6.34568">
        <ele>1713</ele>
        <time>2026-08-19T06:49:09.566Z</time>
      </trkpt>
      <trkpt lat="45.92033" lon="6.34568">
        <ele>1713</ele>
        <time>2026-08-19T06:49:10.566Z</time>
      </trkpt>
      <trkpt lat="45.92033" lon="6.34568">
        <ele>1713</ele>
        <time>2026-08-19T06:49:11.566Z</time>
      </trkpt>
      <trkpt lat="45.92033" lon="6.34568">
        <ele>1713</ele>
        <time>2026-08-19T06:49:12.566Z</time>
      </trkpt>
      <trkpt lat="45.92033" lon="6.34568">
        <ele>1713</ele>
        <time>2026-08-19T06:49:13.566Z</time>
      </trkpt>
      <trkpt lat="45.92033" lon="6.34568">
        <ele>1713</ele>
        <time>2026-08-19T06:49:14.566Z</time>
      </trkpt>
      <trkpt lat="45.92033" lon="6.34568">
        <ele>1713</ele>
        <time>2026-08-19T06:49:15.566Z</time>
      </trkpt>
      <trkpt lat="45.92033" lon="6.34568">
        <ele>1713</ele>
        <time>2026-08-19T06:49:16.566Z</time>
      </trkpt>
      <trkpt lat="45.92033" lon="6.34568">
        <ele>1713</ele>
        <time>2026-08-19T06:49:17.567Z</time>
      </trkpt>
      <trkpt lat="45.92033" lon="6.34568">
        <ele>1713</ele>
        <time>2026-08-19T06:49:18.566Z</time>
      </trkpt>
      <trkpt lat="45.92033" lon="6.34568">
        <ele>1713</ele>
        <time>2026-08-19T06:49:19.566Z</time>
      </trkpt>
      <trkpt lat="45.92033" lon="6.34568">
        <ele>1713</ele>
        <time>2026-08-19T06:49:20.566Z</time>
      </trkpt>
      <trkpt lat="45.92033" lon="6.34568">
        <ele>1713</ele>
        <time>2026-08-19T06:49:21.566Z</time>
      </trkpt>
      <trkpt lat="45.92033" lon="6.34568">
        <ele>1713</ele>
        <time>2026-08-19T06:49:22.566Z</time>
      </trkpt>
      <trkpt lat="45.92033" lon="6.34568">
        <ele>1713</ele>
        <time>2026-08-19T06:49:23.566Z</time>
      </trkpt>
      <trkpt lat="45.92033" lon="6.34568">
        <ele>1713</ele>
        <time>2026-08-19T06:49:24.566Z</time>
      </trkpt>
      <trkpt lat="45.92033" lon="6.34568">
        <ele>1713</ele>
        <time>2026-08-19T06:49:25.566Z</time>
      </trkpt>
      <trkpt lat="45.92033" lon="6.34568">
        <ele>1713</ele>
        <time>2026-08-19T06:49:26.566Z</time>
      </trkpt>
      <trkpt lat="45.92033" lon="6.34568">
        <ele>1713</ele>
        <time>2026-08-19T06:49:27.566Z</time>
      </trkpt>
      <trkpt lat="45.92033" lon="6.34568">
        <ele>1713</ele>
        <time>2026-08-19T06:49:28.566Z</time>
      </trkpt>
      <trkpt lat="45.92033" lon="6.34568">
        <ele>1713</ele>
        <time>2026-08-19T06:49:29.566Z</time>
      </trkpt>
      <trkpt lat="45.92033" lon="6.34568">
        <ele>1713</ele>
        <time>2026-08-19T06:49:30.566Z</time>
      </trkpt>
      <trkpt lat="45.92033" lon="6.34568">
        <ele>1713</ele>
        <time>2026-08-19T06:49:31.566Z</time>
      </trkpt>
      <trkpt lat="45.92033" lon="6.34568">
        <ele>1713</ele>
        <time>2026-08-19T06:49:32.566Z</time>
      </trkpt>
      <trkpt lat="45.92033" lon="6.34568">
        <ele>1713</ele>
        <time>2026-08-19T06:49:33.566Z</time>
      </trkpt>
      <trkpt lat="45.92033" lon="6.34568">
        <ele>1713</ele>
        <time>2026-08-19T06:49:34.566Z</time>
      </trkpt>
      <trkpt lat="45.92033" lon="6.34568">
        <ele>1713</ele>
        <time>2026-08-19T06:49:35.566Z</time>
      </trkpt>
      <trkpt lat="45.92032" lon="6.34568">
        <ele>1713</ele>
        <time>2026-08-19T06:49:36.566Z</time>
      </trkpt>
      <trkpt lat="45.92032" lon="6.34568">
        <ele>1713</ele>
        <time>2026-08-19T06:49:37.566Z</time>
      </trkpt>
      <trkpt lat="45.92032" lon="6.34568">
        <ele>1713</ele>
        <time>2026-08-19T06:49:38.566Z</time>
      </trkpt>
      <trkpt lat="45.92032" lon="6.34568">
        <ele>1713</ele>
        <time>2026-08-19T06:49:39.566Z</time>
      </trkpt>
      <trkpt lat="45.92032" lon="6.34568">
        <ele>1713</ele>
        <time>2026-08-19T06:49:40.566Z</time>
      </trkpt>
      <trkpt lat="45.92032" lon="6.34568">
        <ele>1713</ele>
        <time>2026-08-19T06:49:41.566Z</time>
      </trkpt>
      <trkpt lat="45.92032" lon="6.34567">
        <ele>1713</ele>
        <time>2026-08-19T06:49:42.566Z</time>
      </trkpt>
      <trkpt lat="45.92032" lon="6.34567">
        <ele>1713</ele>
        <time>2026-08-19T06:49:43.566Z</time>
      </trkpt>
      <trkpt lat="45.92032" lon="6.34567">
        <ele>1713</ele>
        <time>2026-08-19T06:49:44.566Z</time>
      </trkpt>
      <trkpt lat="45.92032" lon="6.34567">
        <ele>1713</ele>
        <time>2026-08-19T06:49:45.566Z</time>
      </trkpt>
      <trkpt lat="45.92031" lon="6.34567">
        <ele>1713</ele>
        <time>2026-08-19T06:49:46.566Z</time>
      </trkpt>
      <trkpt lat="45.92031" lon="6.34567">
        <ele>1713</ele>
        <time>2026-08-19T06:49:47.566Z</time>
      </trkpt>
      <trkpt lat="45.92031" lon="6.34567">
        <ele>1713</ele>
        <time>2026-08-19T06:49:48.566Z</time>
      </trkpt>
      <trkpt lat="45.92031" lon="6.34567">
        <ele>1713</ele>
        <time>2026-08-19T06:49:49.566Z</time>
      </trkpt>
      <trkpt lat="45.9203" lon="6.34567">
        <ele>1713</ele>
        <time>2026-08-19T06:49:50.566Z</time>
      </trkpt>
      <trkpt lat="45.9203" lon="6.34567">
        <ele>1713</ele>
        <time>2026-08-19T06:49:51.566Z</time>
      </trkpt>
      <trkpt lat="45.9203" lon="6.34567">
        <ele>1713</ele>
        <time>2026-08-19T06:49:52.566Z</time>
      </trkpt>
      <trkpt lat="45.9203" lon="6.34567">
        <ele>1713</ele>
        <time>2026-08-19T06:49:53.566Z</time>
      </trkpt>
      <trkpt lat="45.9203" lon="6.34567">
        <ele>1713</ele>
        <time>2026-08-19T06:49:54.566Z</time>
      </trkpt>
      <trkpt lat="45.9203" lon="6.34567">
        <ele>1713</ele>
        <time>2026-08-19T06:49:55.566Z</time>
      </trkpt>
      <trkpt lat="45.9203" lon="6.34567">
        <ele>1713</ele>
        <time>2026-08-19T06:49:56.566Z</time>
      </trkpt>
      <trkpt lat="45.9203" lon="6.34567">
        <ele>1713</ele>
        <time>2026-08-19T06:49:57.566Z</time>
      </trkpt>
      <trkpt lat="45.9203" lon="6.34567">
        <ele>1713</ele>
        <time>2026-08-19T06:49:58.566Z</time>
      </trkpt>
      <trkpt lat="45.9203" lon="6.34566">
        <ele>1713</ele>
        <time>2026-08-19T06:49:59.566Z</time>
      </trkpt>
      <trkpt lat="45.9203" lon="6.34566">
        <ele>1713</ele>
        <time>2026-08-19T06:50:00.566Z</time>
      </trkpt>
      <trkpt lat="45.9203" lon="6.34566">
        <ele>1713</ele>
        <time>2026-08-19T06:50:01.566Z</time>
      </trkpt>
      <trkpt lat="45.9203" lon="6.34566">
        <ele>1713</ele>
        <time>2026-08-19T06:50:02.566Z</time>
      </trkpt>
      <trkpt lat="45.9203" lon="6.34566">
        <ele>1713</ele>
        <time>2026-08-19T06:50:03.566Z</time>
      </trkpt>
      <trkpt lat="45.9203" lon="6.34566">
        <ele>1713</ele>
        <time>2026-08-19T06:50:04.566Z</time>
      </trkpt>
      <trkpt lat="45.9203" lon="6.34566">
        <ele>1713</ele>
        <time>2026-08-19T06:50:05.566Z</time>
      </trkpt>
      <trkpt lat="45.9203" lon="6.34566">
        <ele>1713</ele>
        <time>2026-08-19T06:50:06.566Z</time>
      </trkpt>
      <trkpt lat="45.9203" lon="6.34566">
        <ele>1713</ele>
        <time>2026-08-19T06:50:07.566Z</time>
      </trkpt>
      <trkpt lat="45.9203" lon="6.34566">
        <ele>1713</ele>
        <time>2026-08-19T06:50:08.566Z</time>
      </trkpt>
      <trkpt lat="45.9203" lon="6.34566">
        <ele>1713</ele>
        <time>2026-08-19T06:50:09.566Z</time>
      </trkpt>
      <trkpt lat="45.9203" lon="6.34566">
        <ele>1713</ele>
        <time>2026-08-19T06:50:10.566Z</time>
      </trkpt>
      <trkpt lat="45.9203" lon="6.34566">
        <ele>1713</ele>
        <time>2026-08-19T06:50:11.566Z</time>
      </trkpt>
      <trkpt lat="45.9203" lon="6.34566">
        <ele>1713</ele>
        <time>2026-08-19T06:50:12.566Z</time>
      </trkpt>
      <trkpt lat="45.9203" lon="6.34566">
        <ele>1713</ele>
        <time>2026-08-19T06:50:13.566Z</time>
      </trkpt>
      <trkpt lat="45.92031" lon="6.34566">
        <ele>1713</ele>
        <time>2026-08-19T06:50:14.566Z</time>
      </trkpt>
      <trkpt lat="45.92031" lon="6.34566">
        <ele>1713</ele>
        <time>2026-08-19T06:50:15.566Z</time>
      </trkpt>
      <trkpt lat="45.92031" lon="6.34566">
        <ele>1713</ele>
        <time>2026-08-19T06:50:16.566Z</time>
      </trkpt>
      <trkpt lat="45.92031" lon="6.34566">
        <ele>1713</ele>
        <time>2026-08-19T06:50:17.566Z</time>
      </trkpt>
      <trkpt lat="45.92031" lon="6.34566">
        <ele>1713</ele>
        <time>2026-08-19T06:50:18.566Z</time>
      </trkpt>
      <trkpt lat="45.92031" lon="6.34566">
        <ele>1713</ele>
        <time>2026-08-19T06:50:19.566Z</time>
      </trkpt>
      <trkpt lat="45.92031" lon="6.34566">
        <ele>1713</ele>
        <time>2026-08-19T06:50:20.566Z</time>
      </trkpt>
      <trkpt lat="45.92031" lon="6.34567">
        <ele>1714</ele>
        <time>2026-08-19T06:50:21.566Z</time>
      </trkpt>
      <trkpt lat="45.92031" lon="6.34567">
        <ele>1714</ele>
        <time>2026-08-19T06:50:22.566Z</time>
      </trkpt>
      <trkpt lat="45.92031" lon="6.34567">
        <ele>1714</ele>
        <time>2026-08-19T06:50:23.566Z</time>
      </trkpt>
      <trkpt lat="45.92031" lon="6.34567">
        <ele>1714</ele>
        <time>2026-08-19T06:50:24.566Z</time>
      </trkpt>
      <trkpt lat="45.92031" lon="6.34567">
        <ele>1714</ele>
        <time>2026-08-19T06:50:25.566Z</time>
      </trkpt>
      <trkpt lat="45.92031" lon="6.34567">
        <ele>1714</ele>
        <time>2026-08-19T06:50:26.566Z</time>
      </trkpt>
      <trkpt lat="45.92031" lon="6.34567">
        <ele>1714</ele>
        <time>2026-08-19T06:50:27.566Z</time>
      </trkpt>
      <trkpt lat="45.92031" lon="6.34567">
        <ele>1714</ele>
        <time>2026-08-19T06:50:28.566Z</time>
      </trkpt>
      <trkpt lat="45.92031" lon="6.34567">
        <ele>1714</ele>
        <time>2026-08-19T06:50:29.566Z</time>
      </trkpt>
      <trkpt lat="45.92031" lon="6.34567">
        <ele>1714</ele>
        <time>2026-08-19T06:50:30.566Z</time>
      </trkpt>
      <trkpt lat="45.92031" lon="6.34567">
        <ele>1714</ele>
        <time>2026-08-19T06:50:31.566Z</time>
      </trkpt>
      <trkpt lat="45.92031" lon="6.34568">
        <ele>1714</ele>
        <time>2026-08-19T06:50:32.566Z</time>
      </trkpt>
      <trkpt lat="45.92031" lon="6.34568">
        <ele>1714</ele>
        <time>2026-08-19T06:50:33.566Z</time>
      </trkpt>
      <trkpt lat="45.92031" lon="6.34568">
        <ele>1714</ele>
        <time>2026-08-19T06:50:34.566Z</time>
      </trkpt>
      <trkpt lat="45.92031" lon="6.34568">
        <ele>1714</ele>
        <time>2026-08-19T06:50:35.566Z</time>
      </trkpt>
      <trkpt lat="45.92031" lon="6.34568">
        <ele>1714</ele>
        <time>2026-08-19T06:50:36.566Z</time>
      </trkpt>
      <trkpt lat="45.92031" lon="6.34568">
        <ele>1714</ele>
        <time>2026-08-19T06:50:37.566Z</time>
      </trkpt>
      <trkpt lat="45.92031" lon="6.34568">
        <ele>1714</ele>
        <time>2026-08-19T06:50:38.566Z</time>
      </trkpt>
      <trkpt lat="45.92031" lon="6.34568">
        <ele>1714</ele>
        <time>2026-08-19T06:50:39.566Z</time>
      </trkpt>
      <trkpt lat="45.92031" lon="6.34568">
        <ele>1714</ele>
        <time>2026-08-19T06:50:40.566Z</time>
      </trkpt>
      <trkpt lat="45.92031" lon="6.34568">
        <ele>1714</ele>
        <time>2026-08-19T06:50:41.566Z</time>
      </trkpt>
      <trkpt lat="45.92031" lon="6.34568">
        <ele>1714</ele>
        <time>2026-08-19T06:50:42.566Z</time>
      </trkpt>
      <trkpt lat="45.92031" lon="6.34568">
        <ele>1714</ele>
        <time>2026-08-19T06:50:43.566Z</time>
      </trkpt>
      <trkpt lat="45.92031" lon="6.34568">
        <ele>1714</ele>
        <time>2026-08-19T06:50:44.566Z</time>
      </trkpt>
      <trkpt lat="45.92031" lon="6.34568">
        <ele>1714</ele>
        <time>2026-08-19T06:50:45.566Z</time>
      </trkpt>
      <trkpt lat="45.92031" lon="6.34568">
        <ele>1714</ele>
        <time>2026-08-19T06:50:46.566Z</time>
      </trkpt>
      <trkpt lat="45.92031" lon="6.34568">
        <ele>1714</ele>
        <time>2026-08-19T06:50:47.566Z</time>
      </trkpt>
      <trkpt lat="45.92031" lon="6.34568">
        <ele>1714</ele>
        <time>2026-08-19T06:50:48.566Z</time>
      </trkpt>
      <trkpt lat="45.92031" lon="6.34568">
        <ele>1714</ele>
        <time>2026-08-19T06:50:49.566Z</time>
      </trkpt>
      <trkpt lat="45.92031" lon="6.34569">
        <ele>1714</ele>
        <time>2026-08-19T06:50:50.566Z</time>
      </trkpt>
      <trkpt lat="45.92031" lon="6.34569">
        <ele>1714</ele>
        <time>2026-08-19T06:50:51.566Z</time>
      </trkpt>
      <trkpt lat="45.92031" lon="6.34569">
        <ele>1714</ele>
        <time>2026-08-19T06:50:52.566Z</time>
      </trkpt>
      <trkpt lat="45.92031" lon="6.34569">
        <ele>1714</ele>
        <time>2026-08-19T06:50:53.566Z</time>
      </trkpt>
      <trkpt lat="45.92031" lon="6.3457">
        <ele>1714</ele>
        <time>2026-08-19T06:50:54.566Z</time>
      </trkpt>
      <trkpt lat="45.92031" lon="6.34571">
        <ele>1714</ele>
        <time>2026-08-19T06:50:55.566Z</time>
      </trkpt>
      <trkpt lat="45.9203" lon="6.34572">
        <ele>1715</ele>
        <time>2026-08-19T06:50:56.566Z</time>
      </trkpt>
      <trkpt lat="45.9203" lon="6.34573">
        <ele>1715</ele>
        <time>2026-08-19T06:50:57.566Z</time>
      </trkpt>
      <trkpt lat="45.92031" lon="6.34573">
        <ele>1716</ele>
        <time>2026-08-19T06:50:58.566Z</time>
      </trkpt>
      <trkpt lat="45.92031" lon="6.34574">
        <ele>1716</ele>
        <time>2026-08-19T06:50:59.566Z</time>
      </trkpt>
      <trkpt lat="45.92031" lon="6.34575">
        <ele>1716</ele>
        <time>2026-08-19T06:51:00.566Z</time>
      </trkpt>
      <trkpt lat="45.92032" lon="6.34576">
        <ele>1717</ele>
        <time>2026-08-19T06:51:01.566Z</time>
      </trkpt>
      <trkpt lat="45.92032" lon="6.34577">
        <ele>1717</ele>
        <time>2026-08-19T06:51:02.566Z</time>
      </trkpt>
      <trkpt lat="45.92032" lon="6.34578">
        <ele>1718</ele>
        <time>2026-08-19T06:51:03.566Z</time>
      </trkpt>
      <trkpt lat="45.92032" lon="6.34578">
        <ele>1719</ele>
        <time>2026-08-19T06:51:04.566Z</time>
      </trkpt>
      <trkpt lat="45.92032" lon="6.34579">
        <ele>1719</ele>
        <time>2026-08-19T06:51:05.566Z</time>
      </trkpt>
      <trkpt lat="45.92032" lon="6.3458">
        <ele>1719</ele>
        <time>2026-08-19T06:51:06.566Z</time>
      </trkpt>
      <trkpt lat="45.92032" lon="6.3458">
        <ele>1718</ele>
        <time>2026-08-19T06:51:07.566Z</time>
      </trkpt>
      <trkpt lat="45.92032" lon="6.3458">
        <ele>1718</ele>
        <time>2026-08-19T06:51:08.566Z</time>
      </trkpt>
      <trkpt lat="45.92032" lon="6.3458">
        <ele>1718</ele>
        <time>2026-08-19T06:51:09.566Z</time>
      </trkpt>
      <trkpt lat="45.92033" lon="6.3458">
        <ele>1719</ele>
        <time>2026-08-19T06:51:10.566Z</time>
      </trkpt>
      <trkpt lat="45.92033" lon="6.3458">
        <ele>1719</ele>
        <time>2026-08-19T06:51:11.566Z</time>
      </trkpt>
      <trkpt lat="45.92033" lon="6.3458">
        <ele>1719</ele>
        <time>2026-08-19T06:51:12.566Z</time>
      </trkpt>
      <trkpt lat="45.92033" lon="6.3458">
        <ele>1719</ele>
        <time>2026-08-19T06:51:13.566Z</time>
      </trkpt>
      <trkpt lat="45.92033" lon="6.3458">
        <ele>1719</ele>
        <time>2026-08-19T06:51:14.566Z</time>
      </trkpt>
      <trkpt lat="45.92033" lon="6.3458">
        <ele>1719</ele>
        <time>2026-08-19T06:51:15.566Z</time>
      </trkpt>
      <trkpt lat="45.92033" lon="6.3458">
        <ele>1720</ele>
        <time>2026-08-19T06:51:16.566Z</time>
      </trkpt>
      <trkpt lat="45.92033" lon="6.3458">
        <ele>1720</ele>
        <time>2026-08-19T06:51:17.566Z</time>
      </trkpt>
      <trkpt lat="45.92033" lon="6.3458">
        <ele>1720</ele>
        <time>2026-08-19T06:51:18.566Z</time>
      </trkpt>
      <trkpt lat="45.92033" lon="6.3458">
        <ele>1721</ele>
        <time>2026-08-19T06:51:19.566Z</time>
      </trkpt>
      <trkpt lat="45.92033" lon="6.3458">
        <ele>1721</ele>
        <time>2026-08-19T06:51:20.566Z</time>
      </trkpt>
      <trkpt lat="45.92033" lon="6.3458">
        <ele>1721</ele>
        <time>2026-08-19T06:51:21.566Z</time>
      </trkpt>
      <trkpt lat="45.92033" lon="6.3458">
        <ele>1721</ele>
        <time>2026-08-19T06:51:22.566Z</time>
      </trkpt>
      <trkpt lat="45.92033" lon="6.3458">
        <ele>1721</ele>
        <time>2026-08-19T06:51:23.566Z</time>
      </trkpt>
      <trkpt lat="45.92033" lon="6.3458">
        <ele>1721</ele>
        <time>2026-08-19T06:51:24.566Z</time>
      </trkpt>
      <trkpt lat="45.92033" lon="6.3458">
        <ele>1721</ele>
        <time>2026-08-19T06:51:25.566Z</time>
      </trkpt>
      <trkpt lat="45.92033" lon="6.3458">
        <ele>1721</ele>
        <time>2026-08-19T06:51:26.566Z</time>
      </trkpt>
      <trkpt lat="45.92033" lon="6.3458">
        <ele>1721</ele>
        <time>2026-08-19T06:51:27.566Z</time>
      </trkpt>
      <trkpt lat="45.92033" lon="6.3458">
        <ele>1721</ele>
        <time>2026-08-19T06:51:28.566Z</time>
      </trkpt>
      <trkpt lat="45.92033" lon="6.3458">
        <ele>1722</ele>
        <time>2026-08-19T06:51:29.566Z</time>
      </trkpt>
      <trkpt lat="45.92033" lon="6.3458">
        <ele>1722</ele>
        <time>2026-08-19T06:51:30.566Z</time>
      </trkpt>
      <trkpt lat="45.92033" lon="6.3458">
        <ele>1722</ele>
        <time>2026-08-19T06:51:31.566Z</time>
      </trkpt>
      <trkpt lat="45.92033" lon="6.3458">
        <ele>1722</ele>
        <time>2026-08-19T06:51:32.566Z</time>
      </trkpt>
      <trkpt lat="45.92033" lon="6.3458">
        <ele>1722</ele>
        <time>2026-08-19T06:51:33.566Z</time>
      </trkpt>
      <trkpt lat="45.92033" lon="6.3458">
        <ele>1722</ele>
        <time>2026-08-19T06:51:34.566Z</time>
      </trkpt>
      <trkpt lat="45.92033" lon="6.3458">
        <ele>1722</ele>
        <time>2026-08-19T06:51:35.566Z</time>
      </trkpt>
      <trkpt lat="45.92033" lon="6.3458">
        <ele>1722</ele>
        <time>2026-08-19T06:51:36.566Z</time>
      </trkpt>
      <trkpt lat="45.92033" lon="6.3458">
        <ele>1722</ele>
        <time>2026-08-19T06:51:37.566Z</time>
      </trkpt>
      <trkpt lat="45.92033" lon="6.3458">
        <ele>1722</ele>
        <time>2026-08-19T06:51:38.566Z</time>
      </trkpt>
      <trkpt lat="45.92033" lon="6.3458">
        <ele>1722</ele>
        <time>2026-08-19T06:51:39.566Z</time>
      </trkpt>
      <trkpt lat="45.92033" lon="6.3458">
        <ele>1722</ele>
        <time>2026-08-19T06:51:40.566Z</time>
      </trkpt>
      <trkpt lat="45.92033" lon="6.3458">
        <ele>1722</ele>
        <time>2026-08-19T06:51:41.566Z</time>
      </trkpt>
      <trkpt lat="45.92033" lon="6.3458">
        <ele>1722</ele>
        <time>2026-08-19T06:51:42.566Z</time>
      </trkpt>
      <trkpt lat="45.92033" lon="6.34581">
        <ele>1722</ele>
        <time>2026-08-19T06:51:43.566Z</time>
      </trkpt>
      <trkpt lat="45.92033" lon="6.34581">
        <ele>1722</ele>
        <time>2026-08-19T06:51:44.566Z</time>
      </trkpt>
      <trkpt lat="45.92033" lon="6.34581">
        <ele>1722</ele>
        <time>2026-08-19T06:51:45.566Z</time>
      </trkpt>
      <trkpt lat="45.92033" lon="6.34581">
        <ele>1722</ele>
        <time>2026-08-19T06:51:46.566Z</time>
      </trkpt>
      <trkpt lat="45.92033" lon="6.34581">
        <ele>1722</ele>
        <time>2026-08-19T06:51:47.566Z</time>
      </trkpt>
      <trkpt lat="45.92033" lon="6.34581">
        <ele>1722</ele>
        <time>2026-08-19T06:51:48.566Z</time>
      </trkpt>
      <trkpt lat="45.92033" lon="6.34581">
        <ele>1722</ele>
        <time>2026-08-19T06:51:49.566Z</time>
      </trkpt>
      <trkpt lat="45.92033" lon="6.34581">
        <ele>1722</ele>
        <time>2026-08-19T06:51:50.566Z</time>
      </trkpt>
      <trkpt lat="45.92034" lon="6.34582">
        <ele>1722</ele>
        <time>2026-08-19T06:51:51.566Z</time>
      </trkpt>
      <trkpt lat="45.92034" lon="6.34582">
        <ele>1722</ele>
        <time>2026-08-19T06:51:52.566Z</time>
      </trkpt>
      <trkpt lat="45.92034" lon="6.34582">
        <ele>1722</ele>
        <time>2026-08-19T06:51:53.566Z</time>
      </trkpt>
      <trkpt lat="45.92034" lon="6.34582">
        <ele>1722</ele>
        <time>2026-08-19T06:51:54.567Z</time>
      </trkpt>
      <trkpt lat="45.92034" lon="6.34582">
        <ele>1722</ele>
        <time>2026-08-19T06:51:55.566Z</time>
      </trkpt>
      <trkpt lat="45.92034" lon="6.34582">
        <ele>1722</ele>
        <time>2026-08-19T06:51:56.566Z</time>
      </trkpt>
      <trkpt lat="45.92034" lon="6.34582">
        <ele>1722</ele>
        <time>2026-08-19T06:51:57.566Z</time>
      </trkpt>
      <trkpt lat="45.92034" lon="6.34582">
        <ele>1722</ele>
        <time>2026-08-19T06:51:58.566Z</time>
      </trkpt>
      <trkpt lat="45.92034" lon="6.34582">
        <ele>1722</ele>
        <time>2026-08-19T06:51:59.566Z</time>
      </trkpt>
      <trkpt lat="45.92034" lon="6.34583">
        <ele>1722</ele>
        <time>2026-08-19T06:52:00.566Z</time>
      </trkpt>
      <trkpt lat="45.92034" lon="6.34583">
        <ele>1722</ele>
        <time>2026-08-19T06:52:01.566Z</time>
      </trkpt>
      <trkpt lat="45.92034" lon="6.34583">
        <ele>1722</ele>
        <time>2026-08-19T06:52:02.566Z</time>
      </trkpt>
      <trkpt lat="45.92034" lon="6.34583">
        <ele>1722</ele>
        <time>2026-08-19T06:52:03.566Z</time>
      </trkpt>
      <trkpt lat="45.92034" lon="6.34583">
        <ele>1722</ele>
        <time>2026-08-19T06:52:04.566Z</time>
      </trkpt>
      <trkpt lat="45.92034" lon="6.34583">
        <ele>1722</ele>
        <time>2026-08-19T06:52:05.566Z</time>
      </trkpt>
      <trkpt lat="45.92034" lon="6.34583">
        <ele>1722</ele>
        <time>2026-08-19T06:52:06.566Z</time>
      </trkpt>
      <trkpt lat="45.92034" lon="6.34583">
        <ele>1722</ele>
        <time>2026-08-19T06:52:07.566Z</time>
      </trkpt>
      <trkpt lat="45.92034" lon="6.34583">
        <ele>1722</ele>
        <time>2026-08-19T06:52:08.566Z</time>
      </trkpt>
      <trkpt lat="45.92034" lon="6.34583">
        <ele>1723</ele>
        <time>2026-08-19T06:52:09.566Z</time>
      </trkpt>
      <trkpt lat="45.92034" lon="6.34583">
        <ele>1723</ele>
        <time>2026-08-19T06:52:10.567Z</time>
      </trkpt>
      <trkpt lat="45.92034" lon="6.34583">
        <ele>1723</ele>
        <time>2026-08-19T06:52:11.566Z</time>
      </trkpt>
      <trkpt lat="45.92034" lon="6.34583">
        <ele>1723</ele>
        <time>2026-08-19T06:52:12.566Z</time>
      </trkpt>
      <trkpt lat="45.92034" lon="6.34583">
        <ele>1723</ele>
        <time>2026-08-19T06:52:13.566Z</time>
      </trkpt>
      <trkpt lat="45.92034" lon="6.34583">
        <ele>1723</ele>
        <time>2026-08-19T06:52:14.566Z</time>
      </trkpt>
      <trkpt lat="45.92034" lon="6.34583">
        <ele>1723</ele>
        <time>2026-08-19T06:52:15.566Z</time>
      </trkpt>
      <trkpt lat="45.92034" lon="6.34583">
        <ele>1723</ele>
        <time>2026-08-19T06:52:16.566Z</time>
      </trkpt>
      <trkpt lat="45.92034" lon="6.34583">
        <ele>1723</ele>
        <time>2026-08-19T06:52:17.566Z</time>
      </trkpt>
      <trkpt lat="45.92034" lon="6.34583">
        <ele>1723</ele>
        <time>2026-08-19T06:52:18.566Z</time>
      </trkpt>
      <trkpt lat="45.92034" lon="6.34583">
        <ele>1723</ele>
        <time>2026-08-19T06:52:19.566Z</time>
      </trkpt>
      <trkpt lat="45.92034" lon="6.34583">
        <ele>1723</ele>
        <time>2026-08-19T06:52:20.566Z</time>
      </trkpt>
      <trkpt lat="45.92035" lon="6.34583">
        <ele>1723</ele>
        <time>2026-08-19T06:52:21.566Z</time>
      </trkpt>
      <trkpt lat="45.92035" lon="6.34583">
        <ele>1723</ele>
        <time>2026-08-19T06:52:22.566Z</time>
      </trkpt>
      <trkpt lat="45.92035" lon="6.34583">
        <ele>1723</ele>
        <time>2026-08-19T06:52:23.566Z</time>
      </trkpt>
      <trkpt lat="45.92035" lon="6.34584">
        <ele>1723</ele>
        <time>2026-08-19T06:52:24.566Z</time>
      </trkpt>
      <trkpt lat="45.92035" lon="6.34584">
        <ele>1723</ele>
        <time>2026-08-19T06:52:25.566Z</time>
      </trkpt>
      <trkpt lat="45.92035" lon="6.34584">
        <ele>1723</ele>
        <time>2026-08-19T06:52:26.566Z</time>
      </trkpt>
      <trkpt lat="45.92035" lon="6.34584">
        <ele>1723</ele>
        <time>2026-08-19T06:52:27.566Z</time>
      </trkpt>
      <trkpt lat="45.92035" lon="6.34585">
        <ele>1723</ele>
        <time>2026-08-19T06:52:28.566Z</time>
      </trkpt>
      <trkpt lat="45.92035" lon="6.34585">
        <ele>1723</ele>
        <time>2026-08-19T06:52:29.566Z</time>
      </trkpt>
      <trkpt lat="45.92036" lon="6.34586">
        <ele>1723</ele>
        <time>2026-08-19T06:52:30.566Z</time>
      </trkpt>
      <trkpt lat="45.92036" lon="6.34587">
        <ele>1723</ele>
        <time>2026-08-19T06:52:31.566Z</time>
      </trkpt>
      <trkpt lat="45.92037" lon="6.34588">
        <ele>1724</ele>
        <time>2026-08-19T06:52:32.566Z</time>
      </trkpt>
      <trkpt lat="45.92038" lon="6.34589">
        <ele>1724</ele>
        <time>2026-08-19T06:52:33.566Z</time>
      </trkpt>
      <trkpt lat="45.92038" lon="6.3459">
        <ele>1725</ele>
        <time>2026-08-19T06:52:34.566Z</time>
      </trkpt>
      <trkpt lat="45.92039" lon="6.34591">
        <ele>1725</ele>
        <time>2026-08-19T06:52:35.566Z</time>
      </trkpt>
      <trkpt lat="45.92039" lon="6.34592">
        <ele>1725</ele>
        <time>2026-08-19T06:52:36.566Z</time>
      </trkpt>
      <trkpt lat="45.92039" lon="6.34593">
        <ele>1726</ele>
        <time>2026-08-19T06:52:37.566Z</time>
      </trkpt>
      <trkpt lat="45.9204" lon="6.34594">
        <ele>1726</ele>
        <time>2026-08-19T06:52:38.566Z</time>
      </trkpt>
      <trkpt lat="45.9204" lon="6.34595">
        <ele>1726</ele>
        <time>2026-08-19T06:52:39.566Z</time>
      </trkpt>
      <trkpt lat="45.92039" lon="6.34595">
        <ele>1727</ele>
        <time>2026-08-19T06:52:40.566Z</time>
      </trkpt>
      <trkpt lat="45.92039" lon="6.34596">
        <ele>1727</ele>
        <time>2026-08-19T06:52:41.566Z</time>
      </trkpt>
      <trkpt lat="45.92039" lon="6.34596">
        <ele>1728</ele>
        <time>2026-08-19T06:52:42.566Z</time>
      </trkpt>
      <trkpt lat="45.92039" lon="6.34597">
        <ele>1729</ele>
        <time>2026-08-19T06:52:43.566Z</time>
      </trkpt>
      <trkpt lat="45.92039" lon="6.34598">
        <ele>1729</ele>
        <time>2026-08-19T06:52:44.566Z</time>
      </trkpt>
      <trkpt lat="45.92039" lon="6.34598">
        <ele>1730</ele>
        <time>2026-08-19T06:52:45.566Z</time>
      </trkpt>
      <trkpt lat="45.92039" lon="6.34599">
        <ele>1730</ele>
        <time>2026-08-19T06:52:46.566Z</time>
      </trkpt>
      <trkpt lat="45.92039" lon="6.34599">
        <ele>1731</ele>
        <time>2026-08-19T06:52:47.566Z</time>
      </trkpt>
      <trkpt lat="45.92039" lon="6.34599">
        <ele>1732</ele>
        <time>2026-08-19T06:52:48.566Z</time>
      </trkpt>
      <trkpt lat="45.92039" lon="6.34599">
        <ele>1732</ele>
        <time>2026-08-19T06:52:49.566Z</time>
      </trkpt>
      <trkpt lat="45.92039" lon="6.34599">
        <ele>1733</ele>
        <time>2026-08-19T06:52:50.566Z</time>
      </trkpt>
      <trkpt lat="45.92039" lon="6.34599">
        <ele>1733</ele>
        <time>2026-08-19T06:52:51.566Z</time>
      </trkpt>
      <trkpt lat="45.92039" lon="6.34599">
        <ele>1733</ele>
        <time>2026-08-19T06:52:52.566Z</time>
      </trkpt>
      <trkpt lat="45.92039" lon="6.34599">
        <ele>1734</ele>
        <time>2026-08-19T06:52:53.566Z</time>
      </trkpt>
      <trkpt lat="45.92039" lon="6.34599">
        <ele>1734</ele>
        <time>2026-08-19T06:52:54.566Z</time>
      </trkpt>
      <trkpt lat="45.92039" lon="6.34599">
        <ele>1734</ele>
        <time>2026-08-19T06:52:55.567Z</time>
      </trkpt>
      <trkpt lat="45.92039" lon="6.34599">
        <ele>1734</ele>
        <time>2026-08-19T06:52:56.566Z</time>
      </trkpt>
      <trkpt lat="45.92039" lon="6.34599">
        <ele>1735</ele>
        <time>2026-08-19T06:52:57.566Z</time>
      </trkpt>
      <trkpt lat="45.92039" lon="6.34599">
        <ele>1735</ele>
        <time>2026-08-19T06:52:58.566Z</time>
      </trkpt>
      <trkpt lat="45.92039" lon="6.34599">
        <ele>1735</ele>
        <time>2026-08-19T06:52:59.566Z</time>
      </trkpt>
      <trkpt lat="45.92039" lon="6.34599">
        <ele>1735</ele>
        <time>2026-08-19T06:53:00.566Z</time>
      </trkpt>
      <trkpt lat="45.92039" lon="6.34599">
        <ele>1735</ele>
        <time>2026-08-19T06:53:01.566Z</time>
      </trkpt>
      <trkpt lat="45.92039" lon="6.34599">
        <ele>1735</ele>
        <time>2026-08-19T06:53:02.566Z</time>
      </trkpt>
      <trkpt lat="45.92039" lon="6.34599">
        <ele>1735</ele>
        <time>2026-08-19T06:53:03.566Z</time>
      </trkpt>
      <trkpt lat="45.92039" lon="6.34599">
        <ele>1736</ele>
        <time>2026-08-19T06:53:04.566Z</time>
      </trkpt>
      <trkpt lat="45.92039" lon="6.34599">
        <ele>1736</ele>
        <time>2026-08-19T06:53:05.566Z</time>
      </trkpt>
      <trkpt lat="45.92039" lon="6.34599">
        <ele>1736</ele>
        <time>2026-08-19T06:53:06.566Z</time>
      </trkpt>
      <trkpt lat="45.92039" lon="6.34599">
        <ele>1736</ele>
        <time>2026-08-19T06:53:07.566Z</time>
      </trkpt>
      <trkpt lat="45.92039" lon="6.34599">
        <ele>1736</ele>
        <time>2026-08-19T06:53:08.566Z</time>
      </trkpt>
      <trkpt lat="45.92039" lon="6.34599">
        <ele>1736</ele>
        <time>2026-08-19T06:53:09.567Z</time>
      </trkpt>
      <trkpt lat="45.92039" lon="6.34599">
        <ele>1736</ele>
        <time>2026-08-19T06:53:10.566Z</time>
      </trkpt>
      <trkpt lat="45.92039" lon="6.34599">
        <ele>1736</ele>
        <time>2026-08-19T06:53:11.566Z</time>
      </trkpt>
      <trkpt lat="45.92039" lon="6.34599">
        <ele>1736</ele>
        <time>2026-08-19T06:53:12.566Z</time>
      </trkpt>
      <trkpt lat="45.92039" lon="6.346">
        <ele>1736</ele>
        <time>2026-08-19T06:53:13.566Z</time>
      </trkpt>
      <trkpt lat="45.92039" lon="6.346">
        <ele>1737</ele>
        <time>2026-08-19T06:53:14.566Z</time>
      </trkpt>
      <trkpt lat="45.92039" lon="6.346">
        <ele>1737</ele>
        <time>2026-08-19T06:53:15.566Z</time>
      </trkpt>
      <trkpt lat="45.92038" lon="6.346">
        <ele>1737</ele>
        <time>2026-08-19T06:53:16.566Z</time>
      </trkpt>
      <trkpt lat="45.92038" lon="6.346">
        <ele>1737</ele>
        <time>2026-08-19T06:53:17.566Z</time>
      </trkpt>
      <trkpt lat="45.92038" lon="6.346">
        <ele>1737</ele>
        <time>2026-08-19T06:53:18.566Z</time>
      </trkpt>
      <trkpt lat="45.92038" lon="6.346">
        <ele>1737</ele>
        <time>2026-08-19T06:53:19.566Z</time>
      </trkpt>
      <trkpt lat="45.92038" lon="6.346">
        <ele>1737</ele>
        <time>2026-08-19T06:53:20.566Z</time>
      </trkpt>
      <trkpt lat="45.92038" lon="6.346">
        <ele>1737</ele>
        <time>2026-08-19T06:53:21.566Z</time>
      </trkpt>
      <trkpt lat="45.92038" lon="6.346">
        <ele>1737</ele>
        <time>2026-08-19T06:53:22.566Z</time>
      </trkpt>
      <trkpt lat="45.92038" lon="6.346">
        <ele>1737</ele>
        <time>2026-08-19T06:53:23.566Z</time>
      </trkpt>
      <trkpt lat="45.92038" lon="6.346">
        <ele>1737</ele>
        <time>2026-08-19T06:53:24.566Z</time>
      </trkpt>
      <trkpt lat="45.92038" lon="6.346">
        <ele>1737</ele>
        <time>2026-08-19T06:53:25.566Z</time>
      </trkpt>
      <trkpt lat="45.92038" lon="6.346">
        <ele>1737</ele>
        <time>2026-08-19T06:53:26.566Z</time>
      </trkpt>
      <trkpt lat="45.92038" lon="6.34601">
        <ele>1737</ele>
        <time>2026-08-19T06:53:27.566Z</time>
      </trkpt>
      <trkpt lat="45.92038" lon="6.34601">
        <ele>1737</ele>
        <time>2026-08-19T06:53:28.566Z</time>
      </trkpt>
      <trkpt lat="45.92039" lon="6.34601">
        <ele>1737</ele>
        <time>2026-08-19T06:53:29.566Z</time>
      </trkpt>
      <trkpt lat="45.92039" lon="6.34601">
        <ele>1737</ele>
        <time>2026-08-19T06:53:30.566Z</time>
      </trkpt>
      <trkpt lat="45.92039" lon="6.346">
        <ele>1737</ele>
        <time>2026-08-19T06:53:31.566Z</time>
      </trkpt>
      <trkpt lat="45.92039" lon="6.34601">
        <ele>1737</ele>
        <time>2026-08-19T06:53:32.566Z</time>
      </trkpt>
      <trkpt lat="45.9204" lon="6.34601">
        <ele>1736</ele>
        <time>2026-08-19T06:53:33.566Z</time>
      </trkpt>
      <trkpt lat="45.9204" lon="6.34601">
        <ele>1737</ele>
        <time>2026-08-19T06:53:34.566Z</time>
      </trkpt>
      <trkpt lat="45.9204" lon="6.34601">
        <ele>1737</ele>
        <time>2026-08-19T06:53:35.566Z</time>
      </trkpt>
      <trkpt lat="45.9204" lon="6.34601">
        <ele>1737</ele>
        <time>2026-08-19T06:53:36.566Z</time>
      </trkpt>
      <trkpt lat="45.9204" lon="6.34601">
        <ele>1737</ele>
        <time>2026-08-19T06:53:37.566Z</time>
      </trkpt>
      <trkpt lat="45.9204" lon="6.34601">
        <ele>1737</ele>
        <time>2026-08-19T06:53:38.566Z</time>
      </trkpt>
      <trkpt lat="45.9204" lon="6.34601">
        <ele>1737</ele>
        <time>2026-08-19T06:53:39.566Z</time>
      </trkpt>
      <trkpt lat="45.9204" lon="6.34601">
        <ele>1736</ele>
        <time>2026-08-19T06:53:40.566Z</time>
      </trkpt>
      <trkpt lat="45.9204" lon="6.34601">
        <ele>1736</ele>
        <time>2026-08-19T06:53:41.566Z</time>
      </trkpt>
      <trkpt lat="45.9204" lon="6.34601">
        <ele>1736</ele>
        <time>2026-08-19T06:53:42.566Z</time>
      </trkpt>
      <trkpt lat="45.9204" lon="6.34601">
        <ele>1736</ele>
        <time>2026-08-19T06:53:43.566Z</time>
      </trkpt>
      <trkpt lat="45.9204" lon="6.34601">
        <ele>1736</ele>
        <time>2026-08-19T06:53:44.566Z</time>
      </trkpt>
      <trkpt lat="45.9204" lon="6.34601">
        <ele>1736</ele>
        <time>2026-08-19T06:53:45.566Z</time>
      </trkpt>
      <trkpt lat="45.9204" lon="6.34601">
        <ele>1736</ele>
        <time>2026-08-19T06:53:46.566Z</time>
      </trkpt>
      <trkpt lat="45.9204" lon="6.34601">
        <ele>1736</ele>
        <time>2026-08-19T06:53:47.566Z</time>
      </trkpt>
      <trkpt lat="45.9204" lon="6.34601">
        <ele>1736</ele>
        <time>2026-08-19T06:53:48.566Z</time>
      </trkpt>
      <trkpt lat="45.9204" lon="6.34601">
        <ele>1736</ele>
        <time>2026-08-19T06:53:49.566Z</time>
      </trkpt>
      <trkpt lat="45.9204" lon="6.34601">
        <ele>1736</ele>
        <time>2026-08-19T06:53:50.566Z</time>
      </trkpt>
      <trkpt lat="45.9204" lon="6.34601">
        <ele>1736</ele>
        <time>2026-08-19T06:53:51.567Z</time>
      </trkpt>
      <trkpt lat="45.9204" lon="6.34602">
        <ele>1736</ele>
        <time>2026-08-19T06:53:52.566Z</time>
      </trkpt>
      <trkpt lat="45.9204" lon="6.34602">
        <ele>1736</ele>
        <time>2026-08-19T06:53:53.566Z</time>
      </trkpt>
      <trkpt lat="45.92041" lon="6.34602">
        <ele>1736</ele>
        <time>2026-08-19T06:53:54.566Z</time>
      </trkpt>
      <trkpt lat="45.92041" lon="6.34602">
        <ele>1736</ele>
        <time>2026-08-19T06:53:55.566Z</time>
      </trkpt>
      <trkpt lat="45.92041" lon="6.34603">
        <ele>1736</ele>
        <time>2026-08-19T06:53:56.566Z</time>
      </trkpt>
      <trkpt lat="45.92041" lon="6.34603">
        <ele>1736</ele>
        <time>2026-08-19T06:53:57.566Z</time>
      </trkpt>
      <trkpt lat="45.92041" lon="6.34603">
        <ele>1737</ele>
        <time>2026-08-19T06:53:58.566Z</time>
      </trkpt>
      <trkpt lat="45.92041" lon="6.34604">
        <ele>1737</ele>
        <time>2026-08-19T06:53:59.566Z</time>
      </trkpt>
      <trkpt lat="45.92042" lon="6.34604">
        <ele>1737</ele>
        <time>2026-08-19T06:54:00.566Z</time>
      </trkpt>
      <trkpt lat="45.92042" lon="6.34604">
        <ele>1737</ele>
        <time>2026-08-19T06:54:01.566Z</time>
      </trkpt>
      <trkpt lat="45.92042" lon="6.34604">
        <ele>1737</ele>
        <time>2026-08-19T06:54:02.566Z</time>
      </trkpt>
      <trkpt lat="45.92042" lon="6.34604">
        <ele>1737</ele>
        <time>2026-08-19T06:54:03.566Z</time>
      </trkpt>
      <trkpt lat="45.92043" lon="6.34604">
        <ele>1737</ele>
        <time>2026-08-19T06:54:04.566Z</time>
      </trkpt>
      <trkpt lat="45.92043" lon="6.34605">
        <ele>1737</ele>
        <time>2026-08-19T06:54:05.566Z</time>
      </trkpt>
      <trkpt lat="45.92043" lon="6.34605">
        <ele>1737</ele>
        <time>2026-08-19T06:54:06.566Z</time>
      </trkpt>
      <trkpt lat="45.92043" lon="6.34605">
        <ele>1737</ele>
        <time>2026-08-19T06:54:07.566Z</time>
      </trkpt>
      <trkpt lat="45.92043" lon="6.34605">
        <ele>1737</ele>
        <time>2026-08-19T06:54:08.566Z</time>
      </trkpt>
      <trkpt lat="45.92043" lon="6.34605">
        <ele>1737</ele>
        <time>2026-08-19T06:54:09.566Z</time>
      </trkpt>
      <trkpt lat="45.92043" lon="6.34605">
        <ele>1737</ele>
        <time>2026-08-19T06:54:10.566Z</time>
      </trkpt>
      <trkpt lat="45.92043" lon="6.34606">
        <ele>1737</ele>
        <time>2026-08-19T06:54:11.566Z</time>
      </trkpt>
      <trkpt lat="45.92043" lon="6.34606">
        <ele>1737</ele>
        <time>2026-08-19T06:54:12.566Z</time>
      </trkpt>
      <trkpt lat="45.92043" lon="6.34606">
        <ele>1737</ele>
        <time>2026-08-19T06:54:13.566Z</time>
      </trkpt>
      <trkpt lat="45.92043" lon="6.34606">
        <ele>1737</ele>
        <time>2026-08-19T06:54:14.566Z</time>
      </trkpt>
      <trkpt lat="45.92043" lon="6.34607">
        <ele>1737</ele>
        <time>2026-08-19T06:54:15.566Z</time>
      </trkpt>
      <trkpt lat="45.92043" lon="6.34607">
        <ele>1737</ele>
        <time>2026-08-19T06:54:16.566Z</time>
      </trkpt>
      <trkpt lat="45.92043" lon="6.34607">
        <ele>1737</ele>
        <time>2026-08-19T06:54:17.566Z</time>
      </trkpt>
      <trkpt lat="45.92043" lon="6.34607">
        <ele>1737</ele>
        <time>2026-08-19T06:54:18.567Z</time>
      </trkpt>
      <trkpt lat="45.92043" lon="6.34607">
        <ele>1737</ele>
        <time>2026-08-19T06:54:19.566Z</time>
      </trkpt>
      <trkpt lat="45.92043" lon="6.34607">
        <ele>1737</ele>
        <time>2026-08-19T06:54:20.566Z</time>
      </trkpt>
      <trkpt lat="45.92043" lon="6.34607">
        <ele>1737</ele>
        <time>2026-08-19T06:54:21.566Z</time>
      </trkpt>
      <trkpt lat="45.92044" lon="6.34608">
        <ele>1737</ele>
        <time>2026-08-19T06:54:22.566Z</time>
      </trkpt>
      <trkpt lat="45.92044" lon="6.34608">
        <ele>1737</ele>
        <time>2026-08-19T06:54:23.566Z</time>
      </trkpt>
      <trkpt lat="45.92044" lon="6.34608">
        <ele>1737</ele>
        <time>2026-08-19T06:54:24.566Z</time>
      </trkpt>
      <trkpt lat="45.92044" lon="6.34608">
        <ele>1737</ele>
        <time>2026-08-19T06:54:25.566Z</time>
      </trkpt>
      <trkpt lat="45.92045" lon="6.34608">
        <ele>1737</ele>
        <time>2026-08-19T06:54:26.566Z</time>
      </trkpt>
      <trkpt lat="45.92045" lon="6.34608">
        <ele>1738</ele>
        <time>2026-08-19T06:54:27.566Z</time>
      </trkpt>
      <trkpt lat="45.92045" lon="6.34608">
        <ele>1738</ele>
        <time>2026-08-19T06:54:28.566Z</time>
      </trkpt>
      <trkpt lat="45.92046" lon="6.34608">
        <ele>1738</ele>
        <time>2026-08-19T06:54:29.566Z</time>
      </trkpt>
      <trkpt lat="45.92046" lon="6.34608">
        <ele>1738</ele>
        <time>2026-08-19T06:54:30.566Z</time>
      </trkpt>
      <trkpt lat="45.92046" lon="6.34608">
        <ele>1738</ele>
        <time>2026-08-19T06:54:31.566Z</time>
      </trkpt>
      <trkpt lat="45.92046" lon="6.34608">
        <ele>1738</ele>
        <time>2026-08-19T06:54:32.566Z</time>
      </trkpt>
      <trkpt lat="45.92046" lon="6.34609">
        <ele>1738</ele>
        <time>2026-08-19T06:54:33.566Z</time>
      </trkpt>
      <trkpt lat="45.92046" lon="6.34609">
        <ele>1738</ele>
        <time>2026-08-19T06:54:34.566Z</time>
      </trkpt>
      <trkpt lat="45.92046" lon="6.34609">
        <ele>1738</ele>
        <time>2026-08-19T06:54:35.566Z</time>
      </trkpt>
      <trkpt lat="45.92046" lon="6.3461">
        <ele>1738</ele>
        <time>2026-08-19T06:54:36.566Z</time>
      </trkpt>
      <trkpt lat="45.92046" lon="6.3461">
        <ele>1738</ele>
        <time>2026-08-19T06:54:37.566Z</time>
      </trkpt>
      <trkpt lat="45.92047" lon="6.3461">
        <ele>1738</ele>
        <time>2026-08-19T06:54:38.566Z</time>
      </trkpt>
      <trkpt lat="45.92047" lon="6.3461">
        <ele>1738</ele>
        <time>2026-08-19T06:54:39.566Z</time>
      </trkpt>
      <trkpt lat="45.92047" lon="6.3461">
        <ele>1738</ele>
        <time>2026-08-19T06:54:40.566Z</time>
      </trkpt>
      <trkpt lat="45.92047" lon="6.3461">
        <ele>1738</ele>
        <time>2026-08-19T06:54:41.566Z</time>
      </trkpt>
      <trkpt lat="45.92047" lon="6.3461">
        <ele>1738</ele>
        <time>2026-08-19T06:54:42.566Z</time>
      </trkpt>
      <trkpt lat="45.92047" lon="6.3461">
        <ele>1738</ele>
        <time>2026-08-19T06:54:43.566Z</time>
      </trkpt>
      <trkpt lat="45.92048" lon="6.3461">
        <ele>1738</ele>
        <time>2026-08-19T06:54:44.566Z</time>
      </trkpt>
      <trkpt lat="45.92048" lon="6.3461">
        <ele>1738</ele>
        <time>2026-08-19T06:54:45.566Z</time>
      </trkpt>
      <trkpt lat="45.92048" lon="6.3461">
        <ele>1738</ele>
        <time>2026-08-19T06:54:46.566Z</time>
      </trkpt>
      <trkpt lat="45.92048" lon="6.3461">
        <ele>1738</ele>
        <time>2026-08-19T06:54:47.566Z</time>
      </trkpt>
      <trkpt lat="45.92048" lon="6.3461">
        <ele>1738</ele>
        <time>2026-08-19T06:54:48.566Z</time>
      </trkpt>
      <trkpt lat="45.92048" lon="6.3461">
        <ele>1738</ele>
        <time>2026-08-19T06:54:49.566Z</time>
      </trkpt>
      <trkpt lat="45.92049" lon="6.3461">
        <ele>1739</ele>
        <time>2026-08-19T06:54:50.566Z</time>
      </trkpt>
      <trkpt lat="45.92049" lon="6.3461">
        <ele>1739</ele>
        <time>2026-08-19T06:54:51.566Z</time>
      </trkpt>
      <trkpt lat="45.92049" lon="6.3461">
        <ele>1739</ele>
        <time>2026-08-19T06:54:52.566Z</time>
      </trkpt>
      <trkpt lat="45.92049" lon="6.34611">
        <ele>1739</ele>
        <time>2026-08-19T06:54:53.566Z</time>
      </trkpt>
      <trkpt lat="45.92049" lon="6.34611">
        <ele>1739</ele>
        <time>2026-08-19T06:54:54.566Z</time>
      </trkpt>
      <trkpt lat="45.92049" lon="6.34611">
        <ele>1739</ele>
        <time>2026-08-19T06:54:55.566Z</time>
      </trkpt>
      <trkpt lat="45.92049" lon="6.34611">
        <ele>1739</ele>
        <time>2026-08-19T06:54:56.566Z</time>
      </trkpt>
      <trkpt lat="45.92049" lon="6.34611">
        <ele>1739</ele>
        <time>2026-08-19T06:54:57.566Z</time>
      </trkpt>
      <trkpt lat="45.92049" lon="6.34612">
        <ele>1739</ele>
        <time>2026-08-19T06:54:58.566Z</time>
      </trkpt>
      <trkpt lat="45.92049" lon="6.34613">
        <ele>1739</ele>
        <time>2026-08-19T06:54:59.566Z</time>
      </trkpt>
      <trkpt lat="45.92049" lon="6.34613">
        <ele>1739</ele>
        <time>2026-08-19T06:55:00.566Z</time>
      </trkpt>
      <trkpt lat="45.92049" lon="6.34614">
        <ele>1739</ele>
        <time>2026-08-19T06:55:01.566Z</time>
      </trkpt>
      <trkpt lat="45.92049" lon="6.34614">
        <ele>1739</ele>
        <time>2026-08-19T06:55:02.566Z</time>
      </trkpt>
      <trkpt lat="45.92049" lon="6.34615">
        <ele>1739</ele>
        <time>2026-08-19T06:55:03.566Z</time>
      </trkpt>
      <trkpt lat="45.92049" lon="6.34616">
        <ele>1739</ele>
        <time>2026-08-19T06:55:04.566Z</time>
      </trkpt>
      <trkpt lat="45.92049" lon="6.34617">
        <ele>1739</ele>
        <time>2026-08-19T06:55:05.566Z</time>
      </trkpt>
      <trkpt lat="45.92049" lon="6.34617">
        <ele>1739</ele>
        <time>2026-08-19T06:55:06.566Z</time>
      </trkpt>
      <trkpt lat="45.9205" lon="6.34618">
        <ele>1740</ele>
        <time>2026-08-19T06:55:07.566Z</time>
      </trkpt>
      <trkpt lat="45.9205" lon="6.34619">
        <ele>1740</ele>
        <time>2026-08-19T06:55:08.566Z</time>
      </trkpt>
      <trkpt lat="45.9205" lon="6.3462">
        <ele>1741</ele>
        <time>2026-08-19T06:55:09.566Z</time>
      </trkpt>
      <trkpt lat="45.9205" lon="6.34621">
        <ele>1741</ele>
        <time>2026-08-19T06:55:10.566Z</time>
      </trkpt>
      <trkpt lat="45.9205" lon="6.34623">
        <ele>1742</ele>
        <time>2026-08-19T06:55:11.566Z</time>
      </trkpt>
      <trkpt lat="45.9205" lon="6.34624">
        <ele>1743</ele>
        <time>2026-08-19T06:55:12.566Z</time>
      </trkpt>
      <trkpt lat="45.9205" lon="6.34625">
        <ele>1744</ele>
        <time>2026-08-19T06:55:13.566Z</time>
      </trkpt>
      <trkpt lat="45.9205" lon="6.34625">
        <ele>1745</ele>
        <time>2026-08-19T06:55:14.566Z</time>
      </trkpt>
      <trkpt lat="45.9205" lon="6.34625">
        <ele>1746</ele>
        <time>2026-08-19T06:55:15.566Z</time>
      </trkpt>
      <trkpt lat="45.9205" lon="6.34625">
        <ele>1747</ele>
        <time>2026-08-19T06:55:16.566Z</time>
      </trkpt>
      <trkpt lat="45.9205" lon="6.34625">
        <ele>1747</ele>
        <time>2026-08-19T06:55:17.566Z</time>
      </trkpt>
      <trkpt lat="45.9205" lon="6.34625">
        <ele>1748</ele>
        <time>2026-08-19T06:55:18.566Z</time>
      </trkpt>
      <trkpt lat="45.9205" lon="6.34625">
        <ele>1749</ele>
        <time>2026-08-19T06:55:19.566Z</time>
      </trkpt>
      <trkpt lat="45.9205" lon="6.34625">
        <ele>1749</ele>
        <time>2026-08-19T06:55:20.566Z</time>
      </trkpt>
      <trkpt lat="45.9205" lon="6.34625">
        <ele>1750</ele>
        <time>2026-08-19T06:55:21.566Z</time>
      </trkpt>
      <trkpt lat="45.9205" lon="6.34625">
        <ele>1750</ele>
        <time>2026-08-19T06:55:22.566Z</time>
      </trkpt>
      <trkpt lat="45.9205" lon="6.34625">
        <ele>1751</ele>
        <time>2026-08-19T06:55:23.566Z</time>
      </trkpt>
      <trkpt lat="45.9205" lon="6.34625">
        <ele>1751</ele>
        <time>2026-08-19T06:55:24.566Z</time>
      </trkpt>
      <trkpt lat="45.9205" lon="6.34625">
        <ele>1751</ele>
        <time>2026-08-19T06:55:25.566Z</time>
      </trkpt>
      <trkpt lat="45.9205" lon="6.34625">
        <ele>1752</ele>
        <time>2026-08-19T06:55:26.566Z</time>
      </trkpt>
      <trkpt lat="45.9205" lon="6.34625">
        <ele>1752</ele>
        <time>2026-08-19T06:55:27.566Z</time>
      </trkpt>
      <trkpt lat="45.9205" lon="6.34625">
        <ele>1752</ele>
        <time>2026-08-19T06:55:28.566Z</time>
      </trkpt>
      <trkpt lat="45.9205" lon="6.34625">
        <ele>1752</ele>
        <time>2026-08-19T06:55:29.566Z</time>
      </trkpt>
      <trkpt lat="45.9205" lon="6.34625">
        <ele>1752</ele>
        <time>2026-08-19T06:55:30.566Z</time>
      </trkpt>
      <trkpt lat="45.9205" lon="6.34625">
        <ele>1753</ele>
        <time>2026-08-19T06:55:31.566Z</time>
      </trkpt>
      <trkpt lat="45.9205" lon="6.34625">
        <ele>1753</ele>
        <time>2026-08-19T06:55:32.566Z</time>
      </trkpt>
      <trkpt lat="45.9205" lon="6.34625">
        <ele>1753</ele>
        <time>2026-08-19T06:55:33.566Z</time>
      </trkpt>
      <trkpt lat="45.9205" lon="6.34625">
        <ele>1753</ele>
        <time>2026-08-19T06:55:34.566Z</time>
      </trkpt>
      <trkpt lat="45.9205" lon="6.34625">
        <ele>1753</ele>
        <time>2026-08-19T06:55:35.566Z</time>
      </trkpt>
      <trkpt lat="45.9205" lon="6.34626">
        <ele>1754</ele>
        <time>2026-08-19T06:55:36.566Z</time>
      </trkpt>
      <trkpt lat="45.9205" lon="6.34626">
        <ele>1754</ele>
        <time>2026-08-19T06:55:37.566Z</time>
      </trkpt>
      <trkpt lat="45.9205" lon="6.34626">
        <ele>1754</ele>
        <time>2026-08-19T06:55:38.566Z</time>
      </trkpt>
      <trkpt lat="45.9205" lon="6.34626">
        <ele>1754</ele>
        <time>2026-08-19T06:55:39.566Z</time>
      </trkpt>
      <trkpt lat="45.9205" lon="6.34626">
        <ele>1754</ele>
        <time>2026-08-19T06:55:40.566Z</time>
      </trkpt>
      <trkpt lat="45.9205" lon="6.34626">
        <ele>1754</ele>
        <time>2026-08-19T06:55:41.566Z</time>
      </trkpt>
      <trkpt lat="45.9205" lon="6.34626">
        <ele>1754</ele>
        <time>2026-08-19T06:55:42.566Z</time>
      </trkpt>
      <trkpt lat="45.9205" lon="6.34626">
        <ele>1754</ele>
        <time>2026-08-19T06:55:43.566Z</time>
      </trkpt>
      <trkpt lat="45.9205" lon="6.34626">
        <ele>1755</ele>
        <time>2026-08-19T06:55:44.566Z</time>
      </trkpt>
      <trkpt lat="45.92051" lon="6.34626">
        <ele>1755</ele>
        <time>2026-08-19T06:55:45.566Z</time>
      </trkpt>
      <trkpt lat="45.92051" lon="6.34626">
        <ele>1755</ele>
        <time>2026-08-19T06:55:46.566Z</time>
      </trkpt>
      <trkpt lat="45.92051" lon="6.34626">
        <ele>1755</ele>
        <time>2026-08-19T06:55:47.566Z</time>
      </trkpt>
      <trkpt lat="45.92051" lon="6.34626">
        <ele>1755</ele>
        <time>2026-08-19T06:55:48.566Z</time>
      </trkpt>
      <trkpt lat="45.92051" lon="6.34626">
        <ele>1755</ele>
        <time>2026-08-19T06:55:49.566Z</time>
      </trkpt>
      <trkpt lat="45.92052" lon="6.34626">
        <ele>1755</ele>
        <time>2026-08-19T06:55:50.566Z</time>
      </trkpt>
      <trkpt lat="45.92053" lon="6.34626">
        <ele>1755</ele>
        <time>2026-08-19T06:55:51.566Z</time>
      </trkpt>
      <trkpt lat="45.92054" lon="6.34625">
        <ele>1755</ele>
        <time>2026-08-19T06:55:52.566Z</time>
      </trkpt>
      <trkpt lat="45.92054" lon="6.34625">
        <ele>1756</ele>
        <time>2026-08-19T06:55:53.566Z</time>
      </trkpt>
      <trkpt lat="45.92055" lon="6.34626">
        <ele>1756</ele>
        <time>2026-08-19T06:55:54.566Z</time>
      </trkpt>
      <trkpt lat="45.92056" lon="6.34626">
        <ele>1757</ele>
        <time>2026-08-19T06:55:55.566Z</time>
      </trkpt>
      <trkpt lat="45.92057" lon="6.34626">
        <ele>1758</ele>
        <time>2026-08-19T06:55:56.566Z</time>
      </trkpt>
      <trkpt lat="45.92058" lon="6.34627">
        <ele>1758</ele>
        <time>2026-08-19T06:55:57.566Z</time>
      </trkpt>
      <trkpt lat="45.92058" lon="6.34627">
        <ele>1759</ele>
        <time>2026-08-19T06:55:58.566Z</time>
      </trkpt>
      <trkpt lat="45.92058" lon="6.34626">
        <ele>1759</ele>
        <time>2026-08-19T06:55:59.566Z</time>
      </trkpt>
      <trkpt lat="45.92058" lon="6.34626">
        <ele>1760</ele>
        <time>2026-08-19T06:56:00.566Z</time>
      </trkpt>
      <trkpt lat="45.92058" lon="6.34626">
        <ele>1760</ele>
        <time>2026-08-19T06:56:01.566Z</time>
      </trkpt>
      <trkpt lat="45.92059" lon="6.34626">
        <ele>1761</ele>
        <time>2026-08-19T06:56:02.566Z</time>
      </trkpt>
      <trkpt lat="45.92059" lon="6.34625">
        <ele>1761</ele>
        <time>2026-08-19T06:56:03.566Z</time>
      </trkpt>
      <trkpt lat="45.92059" lon="6.34624">
        <ele>1761</ele>
        <time>2026-08-19T06:56:04.566Z</time>
      </trkpt>
      <trkpt lat="45.92059" lon="6.34624">
        <ele>1762</ele>
        <time>2026-08-19T06:56:05.566Z</time>
      </trkpt>
      <trkpt lat="45.92058" lon="6.34623">
        <ele>1762</ele>
        <time>2026-08-19T06:56:06.566Z</time>
      </trkpt>
      <trkpt lat="45.92058" lon="6.34623">
        <ele>1763</ele>
        <time>2026-08-19T06:56:07.566Z</time>
      </trkpt>
      <trkpt lat="45.92058" lon="6.34623">
        <ele>1763</ele>
        <time>2026-08-19T06:56:08.566Z</time>
      </trkpt>
      <trkpt lat="45.92058" lon="6.34623">
        <ele>1763</ele>
        <time>2026-08-19T06:56:09.566Z</time>
      </trkpt>
      <trkpt lat="45.92059" lon="6.34623">
        <ele>1763</ele>
        <time>2026-08-19T06:56:10.566Z</time>
      </trkpt>
      <trkpt lat="45.92059" lon="6.34623">
        <ele>1763</ele>
        <time>2026-08-19T06:56:11.566Z</time>
      </trkpt>
      <trkpt lat="45.92059" lon="6.34624">
        <ele>1763</ele>
        <time>2026-08-19T06:56:12.566Z</time>
      </trkpt>
      <trkpt lat="45.92059" lon="6.34624">
        <ele>1763</ele>
        <time>2026-08-19T06:56:13.566Z</time>
      </trkpt>
      <trkpt lat="45.92059" lon="6.34624">
        <ele>1763</ele>
        <time>2026-08-19T06:56:14.566Z</time>
      </trkpt>
      <trkpt lat="45.92059" lon="6.34625">
        <ele>1762</ele>
        <time>2026-08-19T06:56:15.566Z</time>
      </trkpt>
      <trkpt lat="45.92059" lon="6.34625">
        <ele>1762</ele>
        <time>2026-08-19T06:56:16.566Z</time>
      </trkpt>
      <trkpt lat="45.92059" lon="6.34625">
        <ele>1762</ele>
        <time>2026-08-19T06:56:17.566Z</time>
      </trkpt>
      <trkpt lat="45.92059" lon="6.34625">
        <ele>1762</ele>
        <time>2026-08-19T06:56:18.566Z</time>
      </trkpt>
      <trkpt lat="45.92059" lon="6.34625">
        <ele>1762</ele>
        <time>2026-08-19T06:56:19.566Z</time>
      </trkpt>
      <trkpt lat="45.92059" lon="6.34625">
        <ele>1763</ele>
        <time>2026-08-19T06:56:20.566Z</time>
      </trkpt>
      <trkpt lat="45.92059" lon="6.34625">
        <ele>1763</ele>
        <time>2026-08-19T06:56:21.566Z</time>
      </trkpt>
      <trkpt lat="45.92059" lon="6.34625">
        <ele>1763</ele>
        <time>2026-08-19T06:56:22.566Z</time>
      </trkpt>
      <trkpt lat="45.92059" lon="6.34625">
        <ele>1763</ele>
        <time>2026-08-19T06:56:23.566Z</time>
      </trkpt>
      <trkpt lat="45.92059" lon="6.34625">
        <ele>1764</ele>
        <time>2026-08-19T06:56:24.566Z</time>
      </trkpt>
      <trkpt lat="45.92059" lon="6.34625">
        <ele>1764</ele>
        <time>2026-08-19T06:56:25.566Z</time>
      </trkpt>
      <trkpt lat="45.92059" lon="6.34625">
        <ele>1764</ele>
        <time>2026-08-19T06:56:26.566Z</time>
      </trkpt>
      <trkpt lat="45.92059" lon="6.34625">
        <ele>1764</ele>
        <time>2026-08-19T06:56:27.566Z</time>
      </trkpt>
      <trkpt lat="45.92059" lon="6.34625">
        <ele>1765</ele>
        <time>2026-08-19T06:56:28.566Z</time>
      </trkpt>
      <trkpt lat="45.92059" lon="6.34625">
        <ele>1765</ele>
        <time>2026-08-19T06:56:29.566Z</time>
      </trkpt>
      <trkpt lat="45.92059" lon="6.34625">
        <ele>1765</ele>
        <time>2026-08-19T06:56:30.566Z</time>
      </trkpt>
      <trkpt lat="45.92059" lon="6.34625">
        <ele>1765</ele>
        <time>2026-08-19T06:56:31.566Z</time>
      </trkpt>
      <trkpt lat="45.92059" lon="6.34625">
        <ele>1765</ele>
        <time>2026-08-19T06:56:32.566Z</time>
      </trkpt>
      <trkpt lat="45.92059" lon="6.34625">
        <ele>1765</ele>
        <time>2026-08-19T06:56:33.566Z</time>
      </trkpt>
      <trkpt lat="45.92059" lon="6.34625">
        <ele>1765</ele>
        <time>2026-08-19T06:56:34.566Z</time>
      </trkpt>
      <trkpt lat="45.92059" lon="6.34625">
        <ele>1765</ele>
        <time>2026-08-19T06:56:35.566Z</time>
      </trkpt>
      <trkpt lat="45.92059" lon="6.34624">
        <ele>1765</ele>
        <time>2026-08-19T06:56:36.566Z</time>
      </trkpt>
      <trkpt lat="45.92059" lon="6.34624">
        <ele>1765</ele>
        <time>2026-08-19T06:56:37.566Z</time>
      </trkpt>
      <trkpt lat="45.92059" lon="6.34624">
        <ele>1765</ele>
        <time>2026-08-19T06:56:38.566Z</time>
      </trkpt>
      <trkpt lat="45.92059" lon="6.34624">
        <ele>1765</ele>
        <time>2026-08-19T06:56:39.566Z</time>
      </trkpt>
      <trkpt lat="45.92059" lon="6.34624">
        <ele>1765</ele>
        <time>2026-08-19T06:56:40.566Z</time>
      </trkpt>
      <trkpt lat="45.92059" lon="6.34624">
        <ele>1765</ele>
        <time>2026-08-19T06:56:41.566Z</time>
      </trkpt>
      <trkpt lat="45.92059" lon="6.34624">
        <ele>1765</ele>
        <time>2026-08-19T06:56:42.566Z</time>
      </trkpt>
      <trkpt lat="45.92059" lon="6.34624">
        <ele>1765</ele>
        <time>2026-08-19T06:56:43.566Z</time>
      </trkpt>
      <trkpt lat="45.92059" lon="6.34624">
        <ele>1765</ele>
        <time>2026-08-19T06:56:44.566Z</time>
      </trkpt>
      <trkpt lat="45.92059" lon="6.34624">
        <ele>1765</ele>
        <time>2026-08-19T06:56:45.566Z</time>
      </trkpt>
      <trkpt lat="45.92059" lon="6.34624">
        <ele>1765</ele>
        <time>2026-08-19T06:56:46.566Z</time>
      </trkpt>
      <trkpt lat="45.92058" lon="6.34624">
        <ele>1765</ele>
        <time>2026-08-19T06:56:47.566Z</time>
      </trkpt>
      <trkpt lat="45.92058" lon="6.34624">
        <ele>1765</ele>
        <time>2026-08-19T06:56:48.566Z</time>
      </trkpt>
      <trkpt lat="45.92058" lon="6.34624">
        <ele>1765</ele>
        <time>2026-08-19T06:56:49.566Z</time>
      </trkpt>
      <trkpt lat="45.92058" lon="6.34624">
        <ele>1765</ele>
        <time>2026-08-19T06:56:50.566Z</time>
      </trkpt>
      <trkpt lat="45.92058" lon="6.34624">
        <ele>1765</ele>
        <time>2026-08-19T06:56:51.566Z</time>
      </trkpt>
      <trkpt lat="45.92058" lon="6.34624">
        <ele>1765</ele>
        <time>2026-08-19T06:56:52.566Z</time>
      </trkpt>
      <trkpt lat="45.92058" lon="6.34624">
        <ele>1765</ele>
        <time>2026-08-19T06:56:53.566Z</time>
      </trkpt>
      <trkpt lat="45.92058" lon="6.34624">
        <ele>1765</ele>
        <time>2026-08-19T06:56:54.566Z</time>
      </trkpt>
      <trkpt lat="45.92058" lon="6.34624">
        <ele>1765</ele>
        <time>2026-08-19T06:56:55.566Z</time>
      </trkpt>
      <trkpt lat="45.92058" lon="6.34624">
        <ele>1765</ele>
        <time>2026-08-19T06:56:56.566Z</time>
      </trkpt>
      <trkpt lat="45.92058" lon="6.34624">
        <ele>1765</ele>
        <time>2026-08-19T06:56:57.566Z</time>
      </trkpt>
      <trkpt lat="45.92057" lon="6.34624">
        <ele>1765</ele>
        <time>2026-08-19T06:56:58.566Z</time>
      </trkpt>
      <trkpt lat="45.92056" lon="6.34624">
        <ele>1765</ele>
        <time>2026-08-19T06:56:59.566Z</time>
      </trkpt>
      <trkpt lat="45.92055" lon="6.34624">
        <ele>1765</ele>
        <time>2026-08-19T06:57:00.566Z</time>
      </trkpt>
      <trkpt lat="45.92053" lon="6.34624">
        <ele>1765</ele>
        <time>2026-08-19T06:57:01.566Z</time>
      </trkpt>
      <trkpt lat="45.92052" lon="6.34624">
        <ele>1765</ele>
        <time>2026-08-19T06:57:02.566Z</time>
      </trkpt>
      <trkpt lat="45.92051" lon="6.34625">
        <ele>1765</ele>
        <time>2026-08-19T06:57:03.566Z</time>
      </trkpt>
      <trkpt lat="45.92049" lon="6.34625">
        <ele>1765</ele>
        <time>2026-08-19T06:57:04.566Z</time>
      </trkpt>
      <trkpt lat="45.92048" lon="6.34626">
        <ele>1765</ele>
        <time>2026-08-19T06:57:05.566Z</time>
      </trkpt>
      <trkpt lat="45.92047" lon="6.34627">
        <ele>1765</ele>
        <time>2026-08-19T06:57:06.566Z</time>
      </trkpt>
      <trkpt lat="45.92046" lon="6.34628">
        <ele>1765</ele>
        <time>2026-08-19T06:57:07.566Z</time>
      </trkpt>
      <trkpt lat="45.92046" lon="6.34628">
        <ele>1764</ele>
        <time>2026-08-19T06:57:08.566Z</time>
      </trkpt>
      <trkpt lat="45.92046" lon="6.34628">
        <ele>1764</ele>
        <time>2026-08-19T06:57:09.566Z</time>
      </trkpt>
      <trkpt lat="45.92046" lon="6.34628">
        <ele>1764</ele>
        <time>2026-08-19T06:57:10.566Z</time>
      </trkpt>
      <trkpt lat="45.92046" lon="6.34628">
        <ele>1763</ele>
        <time>2026-08-19T06:57:11.566Z</time>
      </trkpt>
      <trkpt lat="45.92047" lon="6.34629">
        <ele>1763</ele>
        <time>2026-08-19T06:57:12.566Z</time>
      </trkpt>
      <trkpt lat="45.92046" lon="6.34629">
        <ele>1763</ele>
        <time>2026-08-19T06:57:13.566Z</time>
      </trkpt>
      <trkpt lat="45.92046" lon="6.34629">
        <ele>1763</ele>
        <time>2026-08-19T06:57:14.566Z</time>
      </trkpt>
      <trkpt lat="45.92046" lon="6.34629">
        <ele>1763</ele>
        <time>2026-08-19T06:57:15.566Z</time>
      </trkpt>
      <trkpt lat="45.92046" lon="6.34629">
        <ele>1763</ele>
        <time>2026-08-19T06:57:16.566Z</time>
      </trkpt>
      <trkpt lat="45.92047" lon="6.34629">
        <ele>1763</ele>
        <time>2026-08-19T06:57:17.566Z</time>
      </trkpt>
      <trkpt lat="45.92047" lon="6.34629">
        <ele>1763</ele>
        <time>2026-08-19T06:57:18.566Z</time>
      </trkpt>
      <trkpt lat="45.92047" lon="6.34629">
        <ele>1763</ele>
        <time>2026-08-19T06:57:19.566Z</time>
      </trkpt>
      <trkpt lat="45.92047" lon="6.34629">
        <ele>1763</ele>
        <time>2026-08-19T06:57:20.566Z</time>
      </trkpt>
      <trkpt lat="45.92047" lon="6.3463">
        <ele>1763</ele>
        <time>2026-08-19T06:57:21.566Z</time>
      </trkpt>
      <trkpt lat="45.92047" lon="6.3463">
        <ele>1763</ele>
        <time>2026-08-19T06:57:22.566Z</time>
      </trkpt>
      <trkpt lat="45.92047" lon="6.34631">
        <ele>1763</ele>
        <time>2026-08-19T06:57:23.566Z</time>
      </trkpt>
      <trkpt lat="45.92046" lon="6.34632">
        <ele>1763</ele>
        <time>2026-08-19T06:57:24.566Z</time>
      </trkpt>
      <trkpt lat="45.92046" lon="6.34633">
        <ele>1763</ele>
        <time>2026-08-19T06:57:25.566Z</time>
      </trkpt>
      <trkpt lat="45.92046" lon="6.34634">
        <ele>1763</ele>
        <time>2026-08-19T06:57:26.566Z</time>
      </trkpt>
      <trkpt lat="45.92046" lon="6.34635">
        <ele>1763</ele>
        <time>2026-08-19T06:57:27.566Z</time>
      </trkpt>
      <trkpt lat="45.92045" lon="6.34636">
        <ele>1763</ele>
        <time>2026-08-19T06:57:28.566Z</time>
      </trkpt>
      <trkpt lat="45.92045" lon="6.34637">
        <ele>1763</ele>
        <time>2026-08-19T06:57:29.566Z</time>
      </trkpt>
      <trkpt lat="45.92044" lon="6.34637">
        <ele>1763</ele>
        <time>2026-08-19T06:57:30.566Z</time>
      </trkpt>
      <trkpt lat="45.92043" lon="6.34638">
        <ele>1763</ele>
        <time>2026-08-19T06:57:31.566Z</time>
      </trkpt>
      <trkpt lat="45.92043" lon="6.34639">
        <ele>1763</ele>
        <time>2026-08-19T06:57:32.566Z</time>
      </trkpt>
      <trkpt lat="45.92042" lon="6.34639">
        <ele>1764</ele>
        <time>2026-08-19T06:57:33.566Z</time>
      </trkpt>
      <trkpt lat="45.92041" lon="6.3464">
        <ele>1764</ele>
        <time>2026-08-19T06:57:34.566Z</time>
      </trkpt>
      <trkpt lat="45.9204" lon="6.3464">
        <ele>1765</ele>
        <time>2026-08-19T06:57:35.566Z</time>
      </trkpt>
      <trkpt lat="45.9204" lon="6.3464">
        <ele>1765</ele>
        <time>2026-08-19T06:57:36.566Z</time>
      </trkpt>
      <trkpt lat="45.9204" lon="6.34641">
        <ele>1765</ele>
        <time>2026-08-19T06:57:37.566Z</time>
      </trkpt>
      <trkpt lat="45.9204" lon="6.34642">
        <ele>1765</ele>
        <time>2026-08-19T06:57:38.566Z</time>
      </trkpt>
      <trkpt lat="45.9204" lon="6.34642">
        <ele>1766</ele>
        <time>2026-08-19T06:57:39.566Z</time>
      </trkpt>
      <trkpt lat="45.9204" lon="6.34642">
        <ele>1766</ele>
        <time>2026-08-19T06:57:40.566Z</time>
      </trkpt>
      <trkpt lat="45.9204" lon="6.34642">
        <ele>1766</ele>
        <time>2026-08-19T06:57:41.566Z</time>
      </trkpt>
      <trkpt lat="45.92041" lon="6.34642">
        <ele>1766</ele>
        <time>2026-08-19T06:57:42.566Z</time>
      </trkpt>
      <trkpt lat="45.92041" lon="6.34642">
        <ele>1766</ele>
        <time>2026-08-19T06:57:43.566Z</time>
      </trkpt>
      <trkpt lat="45.92041" lon="6.34642">
        <ele>1767</ele>
        <time>2026-08-19T06:57:44.566Z</time>
      </trkpt>
      <trkpt lat="45.92041" lon="6.34642">
        <ele>1767</ele>
        <time>2026-08-19T06:57:45.566Z</time>
      </trkpt>
      <trkpt lat="45.92041" lon="6.34642">
        <ele>1767</ele>
        <time>2026-08-19T06:57:46.566Z</time>
      </trkpt>
      <trkpt lat="45.92041" lon="6.34642">
        <ele>1767</ele>
        <time>2026-08-19T06:57:47.566Z</time>
      </trkpt>
      <trkpt lat="45.92041" lon="6.34642">
        <ele>1767</ele>
        <time>2026-08-19T06:57:48.566Z</time>
      </trkpt>
      <trkpt lat="45.92041" lon="6.34642">
        <ele>1767</ele>
        <time>2026-08-19T06:57:49.566Z</time>
      </trkpt>
      <trkpt lat="45.92041" lon="6.34642">
        <ele>1767</ele>
        <time>2026-08-19T06:57:50.566Z</time>
      </trkpt>
      <trkpt lat="45.92041" lon="6.34642">
        <ele>1767</ele>
        <time>2026-08-19T06:57:51.566Z</time>
      </trkpt>
      <trkpt lat="45.92041" lon="6.34642">
        <ele>1767</ele>
        <time>2026-08-19T06:57:52.566Z</time>
      </trkpt>
      <trkpt lat="45.92041" lon="6.34642">
        <ele>1767</ele>
        <time>2026-08-19T06:57:53.566Z</time>
      </trkpt>
      <trkpt lat="45.92041" lon="6.34642">
        <ele>1767</ele>
        <time>2026-08-19T06:57:54.566Z</time>
      </trkpt>
      <trkpt lat="45.92041" lon="6.34642">
        <ele>1767</ele>
        <time>2026-08-19T06:57:55.567Z</time>
      </trkpt>
      <trkpt lat="45.92041" lon="6.34642">
        <ele>1767</ele>
        <time>2026-08-19T06:57:56.566Z</time>
      </trkpt>
      <trkpt lat="45.92041" lon="6.34642">
        <ele>1767</ele>
        <time>2026-08-19T06:57:57.566Z</time>
      </trkpt>
      <trkpt lat="45.92041" lon="6.34642">
        <ele>1767</ele>
        <time>2026-08-19T06:57:58.566Z</time>
      </trkpt>
      <trkpt lat="45.92041" lon="6.34642">
        <ele>1767</ele>
        <time>2026-08-19T06:57:59.566Z</time>
      </trkpt>
      <trkpt lat="45.92041" lon="6.34642">
        <ele>1767</ele>
        <time>2026-08-19T06:58:00.566Z</time>
      </trkpt>
      <trkpt lat="45.92041" lon="6.34642">
        <ele>1767</ele>
        <time>2026-08-19T06:58:01.566Z</time>
      </trkpt>
      <trkpt lat="45.92041" lon="6.34642">
        <ele>1767</ele>
        <time>2026-08-19T06:58:02.566Z</time>
      </trkpt>
      <trkpt lat="45.92041" lon="6.34642">
        <ele>1767</ele>
        <time>2026-08-19T06:58:03.566Z</time>
      </trkpt>
      <trkpt lat="45.92041" lon="6.34642">
        <ele>1767</ele>
        <time>2026-08-19T06:58:04.566Z</time>
      </trkpt>
      <trkpt lat="45.92041" lon="6.34642">
        <ele>1767</ele>
        <time>2026-08-19T06:58:05.566Z</time>
      </trkpt>
      <trkpt lat="45.92041" lon="6.34642">
        <ele>1767</ele>
        <time>2026-08-19T06:58:06.566Z</time>
      </trkpt>
      <trkpt lat="45.92041" lon="6.34642">
        <ele>1767</ele>
        <time>2026-08-19T06:58:07.566Z</time>
      </trkpt>
      <trkpt lat="45.92041" lon="6.34642">
        <ele>1767</ele>
        <time>2026-08-19T06:58:08.566Z</time>
      </trkpt>
      <trkpt lat="45.92041" lon="6.34642">
        <ele>1767</ele>
        <time>2026-08-19T06:58:09.566Z</time>
      </trkpt>
      <trkpt lat="45.92041" lon="6.34642">
        <ele>1767</ele>
        <time>2026-08-19T06:58:10.566Z</time>
      </trkpt>
      <trkpt lat="45.92041" lon="6.34641">
        <ele>1767</ele>
        <time>2026-08-19T06:58:11.566Z</time>
      </trkpt>
      <trkpt lat="45.92041" lon="6.34641">
        <ele>1767</ele>
        <time>2026-08-19T06:58:12.566Z</time>
      </trkpt>
      <trkpt lat="45.92042" lon="6.34641">
        <ele>1767</ele>
        <time>2026-08-19T06:58:13.566Z</time>
      </trkpt>
      <trkpt lat="45.92042" lon="6.34641">
        <ele>1767</ele>
        <time>2026-08-19T06:58:14.566Z</time>
      </trkpt>
      <trkpt lat="45.92042" lon="6.34641">
        <ele>1767</ele>
        <time>2026-08-19T06:58:15.566Z</time>
      </trkpt>
      <trkpt lat="45.92042" lon="6.34641">
        <ele>1767</ele>
        <time>2026-08-19T06:58:16.566Z</time>
      </trkpt>
      <trkpt lat="45.92042" lon="6.34641">
        <ele>1767</ele>
        <time>2026-08-19T06:58:17.566Z</time>
      </trkpt>
      <trkpt lat="45.92042" lon="6.34641">
        <ele>1767</ele>
        <time>2026-08-19T06:58:18.566Z</time>
      </trkpt>
      <trkpt lat="45.92042" lon="6.34641">
        <ele>1767</ele>
        <time>2026-08-19T06:58:19.566Z</time>
      </trkpt>
      <trkpt lat="45.92042" lon="6.34641">
        <ele>1767</ele>
        <time>2026-08-19T06:58:20.566Z</time>
      </trkpt>
      <trkpt lat="45.92042" lon="6.34641">
        <ele>1767</ele>
        <time>2026-08-19T06:58:21.566Z</time>
      </trkpt>
      <trkpt lat="45.92042" lon="6.34641">
        <ele>1767</ele>
        <time>2026-08-19T06:58:22.566Z</time>
      </trkpt>
      <trkpt lat="45.92042" lon="6.34641">
        <ele>1767</ele>
        <time>2026-08-19T06:58:23.566Z</time>
      </trkpt>
      <trkpt lat="45.92042" lon="6.34641">
        <ele>1767</ele>
        <time>2026-08-19T06:58:24.566Z</time>
      </trkpt>
      <trkpt lat="45.92044" lon="6.3464">
        <ele>1767</ele>
        <time>2026-08-19T06:58:25.566Z</time>
      </trkpt>
      <trkpt lat="45.92045" lon="6.34639">
        <ele>1767</ele>
        <time>2026-08-19T06:58:26.566Z</time>
      </trkpt>
      <trkpt lat="45.92046" lon="6.34638">
        <ele>1767</ele>
        <time>2026-08-19T06:58:27.566Z</time>
      </trkpt>
      <trkpt lat="45.92047" lon="6.34638">
        <ele>1767</ele>
        <time>2026-08-19T06:58:28.566Z</time>
      </trkpt>
      <trkpt lat="45.92048" lon="6.34638">
        <ele>1767</ele>
        <time>2026-08-19T06:58:29.566Z</time>
      </trkpt>
      <trkpt lat="45.92048" lon="6.34638">
        <ele>1767</ele>
        <time>2026-08-19T06:58:30.566Z</time>
      </trkpt>
      <trkpt lat="45.92049" lon="6.34638">
        <ele>1767</ele>
        <time>2026-08-19T06:58:31.566Z</time>
      </trkpt>
      <trkpt lat="45.9205" lon="6.34637">
        <ele>1767</ele>
        <time>2026-08-19T06:58:32.566Z</time>
      </trkpt>
      <trkpt lat="45.9205" lon="6.34637">
        <ele>1768</ele>
        <time>2026-08-19T06:58:33.566Z</time>
      </trkpt>
      <trkpt lat="45.9205" lon="6.34637">
        <ele>1768</ele>
        <time>2026-08-19T06:58:34.566Z</time>
      </trkpt>
      <trkpt lat="45.9205" lon="6.34637">
        <ele>1768</ele>
        <time>2026-08-19T06:58:35.566Z</time>
      </trkpt>
      <trkpt lat="45.9205" lon="6.34637">
        <ele>1768</ele>
        <time>2026-08-19T06:58:36.566Z</time>
      </trkpt>
      <trkpt lat="45.92051" lon="6.34638">
        <ele>1768</ele>
        <time>2026-08-19T06:58:37.566Z</time>
      </trkpt>
      <trkpt lat="45.92051" lon="6.34638">
        <ele>1768</ele>
        <time>2026-08-19T06:58:38.566Z</time>
      </trkpt>
      <trkpt lat="45.92051" lon="6.34638">
        <ele>1768</ele>
        <time>2026-08-19T06:58:39.566Z</time>
      </trkpt>
      <trkpt lat="45.92051" lon="6.34639">
        <ele>1768</ele>
        <time>2026-08-19T06:58:40.566Z</time>
      </trkpt>
      <trkpt lat="45.92051" lon="6.34639">
        <ele>1769</ele>
        <time>2026-08-19T06:58:41.566Z</time>
      </trkpt>
      <trkpt lat="45.92052" lon="6.34639">
        <ele>1769</ele>
        <time>2026-08-19T06:58:42.566Z</time>
      </trkpt>
      <trkpt lat="45.92052" lon="6.34639">
        <ele>1769</ele>
        <time>2026-08-19T06:58:43.566Z</time>
      </trkpt>
      <trkpt lat="45.92053" lon="6.34639">
        <ele>1770</ele>
        <time>2026-08-19T06:58:44.566Z</time>
      </trkpt>
      <trkpt lat="45.92053" lon="6.34639">
        <ele>1770</ele>
        <time>2026-08-19T06:58:45.566Z</time>
      </trkpt>
      <trkpt lat="45.92054" lon="6.34639">
        <ele>1771</ele>
        <time>2026-08-19T06:58:46.566Z</time>
      </trkpt>
      <trkpt lat="45.92054" lon="6.34639">
        <ele>1771</ele>
        <time>2026-08-19T06:58:47.566Z</time>
      </trkpt>
      <trkpt lat="45.92054" lon="6.34639">
        <ele>1772</ele>
        <time>2026-08-19T06:58:48.566Z</time>
      </trkpt>
      <trkpt lat="45.92055" lon="6.34639">
        <ele>1772</ele>
        <time>2026-08-19T06:58:49.566Z</time>
      </trkpt>
      <trkpt lat="45.92055" lon="6.3464">
        <ele>1772</ele>
        <time>2026-08-19T06:58:50.566Z</time>
      </trkpt>
      <trkpt lat="45.92055" lon="6.3464">
        <ele>1772</ele>
        <time>2026-08-19T06:58:51.566Z</time>
      </trkpt>
      <trkpt lat="45.92055" lon="6.34641">
        <ele>1773</ele>
        <time>2026-08-19T06:58:52.566Z</time>
      </trkpt>
      <trkpt lat="45.92055" lon="6.34641">
        <ele>1772</ele>
        <time>2026-08-19T06:58:53.566Z</time>
      </trkpt>
      <trkpt lat="45.92056" lon="6.34641">
        <ele>1772</ele>
        <time>2026-08-19T06:58:54.566Z</time>
      </trkpt>
      <trkpt lat="45.92056" lon="6.34641">
        <ele>1772</ele>
        <time>2026-08-19T06:58:55.566Z</time>
      </trkpt>
      <trkpt lat="45.92056" lon="6.34641">
        <ele>1772</ele>
        <time>2026-08-19T06:58:56.566Z</time>
      </trkpt>
      <trkpt lat="45.92056" lon="6.34641">
        <ele>1772</ele>
        <time>2026-08-19T06:58:57.566Z</time>
      </trkpt>
      <trkpt lat="45.92056" lon="6.34641">
        <ele>1772</ele>
        <time>2026-08-19T06:58:58.566Z</time>
      </trkpt>
      <trkpt lat="45.92056" lon="6.34641">
        <ele>1772</ele>
        <time>2026-08-19T06:58:59.566Z</time>
      </trkpt>
      <trkpt lat="45.92056" lon="6.34641">
        <ele>1772</ele>
        <time>2026-08-19T06:59:00.566Z</time>
      </trkpt>
      <trkpt lat="45.92056" lon="6.34641">
        <ele>1772</ele>
        <time>2026-08-19T06:59:01.566Z</time>
      </trkpt>
      <trkpt lat="45.92056" lon="6.34641">
        <ele>1772</ele>
        <time>2026-08-19T06:59:02.566Z</time>
      </trkpt>
      <trkpt lat="45.92056" lon="6.34641">
        <ele>1772</ele>
        <time>2026-08-19T06:59:03.566Z</time>
      </trkpt>
      <trkpt lat="45.92056" lon="6.34641">
        <ele>1772</ele>
        <time>2026-08-19T06:59:04.566Z</time>
      </trkpt>
      <trkpt lat="45.92056" lon="6.34641">
        <ele>1772</ele>
        <time>2026-08-19T06:59:05.566Z</time>
      </trkpt>
      <trkpt lat="45.92056" lon="6.34641">
        <ele>1772</ele>
        <time>2026-08-19T06:59:06.566Z</time>
      </trkpt>
      <trkpt lat="45.92056" lon="6.34641">
        <ele>1772</ele>
        <time>2026-08-19T06:59:07.566Z</time>
      </trkpt>
      <trkpt lat="45.92056" lon="6.34641">
        <ele>1772</ele>
        <time>2026-08-19T06:59:08.566Z</time>
      </trkpt>
      <trkpt lat="45.92056" lon="6.34641">
        <ele>1772</ele>
        <time>2026-08-19T06:59:09.566Z</time>
      </trkpt>
      <trkpt lat="45.92056" lon="6.34641">
        <ele>1772</ele>
        <time>2026-08-19T06:59:10.566Z</time>
      </trkpt>
      <trkpt lat="45.92056" lon="6.34641">
        <ele>1772</ele>
        <time>2026-08-19T06:59:11.566Z</time>
      </trkpt>
      <trkpt lat="45.92056" lon="6.34641">
        <ele>1772</ele>
        <time>2026-08-19T06:59:12.566Z</time>
      </trkpt>
      <trkpt lat="45.92056" lon="6.34641">
        <ele>1772</ele>
        <time>2026-08-19T06:59:13.566Z</time>
      </trkpt>
      <trkpt lat="45.92056" lon="6.34641">
        <ele>1772</ele>
        <time>2026-08-19T06:59:14.566Z</time>
      </trkpt>
      <trkpt lat="45.92056" lon="6.34641">
        <ele>1772</ele>
        <time>2026-08-19T06:59:15.566Z</time>
      </trkpt>
      <trkpt lat="45.92056" lon="6.34641">
        <ele>1772</ele>
        <time>2026-08-19T06:59:16.566Z</time>
      </trkpt>
      <trkpt lat="45.92056" lon="6.34641">
        <ele>1772</ele>
        <time>2026-08-19T06:59:17.566Z</time>
      </trkpt>
      <trkpt lat="45.92056" lon="6.34641">
        <ele>1772</ele>
        <time>2026-08-19T06:59:18.566Z</time>
      </trkpt>
      <trkpt lat="45.92056" lon="6.34641">
        <ele>1772</ele>
        <time>2026-08-19T06:59:19.566Z</time>
      </trkpt>
      <trkpt lat="45.92056" lon="6.34641">
        <ele>1772</ele>
        <time>2026-08-19T06:59:20.566Z</time>
      </trkpt>
      <trkpt lat="45.92056" lon="6.34641">
        <ele>1772</ele>
        <time>2026-08-19T06:59:21.566Z</time>
      </trkpt>
      <trkpt lat="45.92056" lon="6.34641">
        <ele>1772</ele>
        <time>2026-08-19T06:59:22.566Z</time>
      </trkpt>
      <trkpt lat="45.92056" lon="6.34642">
        <ele>1772</ele>
        <time>2026-08-19T06:59:23.566Z</time>
      </trkpt>
      <trkpt lat="45.92056" lon="6.34642">
        <ele>1772</ele>
        <time>2026-08-19T06:59:24.566Z</time>
      </trkpt>
      <trkpt lat="45.92056" lon="6.34642">
        <ele>1772</ele>
        <time>2026-08-19T06:59:25.566Z</time>
      </trkpt>
      <trkpt lat="45.92056" lon="6.34642">
        <ele>1772</ele>
        <time>2026-08-19T06:59:26.566Z</time>
      </trkpt>
      <trkpt lat="45.92056" lon="6.34642">
        <ele>1772</ele>
        <time>2026-08-19T06:59:27.566Z</time>
      </trkpt>
      <trkpt lat="45.92056" lon="6.34642">
        <ele>1772</ele>
        <time>2026-08-19T06:59:28.566Z</time>
      </trkpt>
      <trkpt lat="45.92056" lon="6.34642">
        <ele>1772</ele>
        <time>2026-08-19T06:59:29.566Z</time>
      </trkpt>
      <trkpt lat="45.92056" lon="6.34642">
        <ele>1772</ele>
        <time>2026-08-19T06:59:30.566Z</time>
      </trkpt>
      <trkpt lat="45.92056" lon="6.34642">
        <ele>1772</ele>
        <time>2026-08-19T06:59:31.566Z</time>
      </trkpt>
      <trkpt lat="45.92056" lon="6.34642">
        <ele>1772</ele>
        <time>2026-08-19T06:59:32.566Z</time>
      </trkpt>
      <trkpt lat="45.92056" lon="6.34642">
        <ele>1772</ele>
        <time>2026-08-19T06:59:33.566Z</time>
      </trkpt>
      <trkpt lat="45.92056" lon="6.34642">
        <ele>1772</ele>
        <time>2026-08-19T06:59:34.566Z</time>
      </trkpt>
      <trkpt lat="45.92056" lon="6.34642">
        <ele>1772</ele>
        <time>2026-08-19T06:59:35.566Z</time>
      </trkpt>
      <trkpt lat="45.92056" lon="6.34642">
        <ele>1773</ele>
        <time>2026-08-19T06:59:36.566Z</time>
      </trkpt>
      <trkpt lat="45.92056" lon="6.34642">
        <ele>1773</ele>
        <time>2026-08-19T06:59:37.566Z</time>
      </trkpt>
      <trkpt lat="45.92056" lon="6.34642">
        <ele>1773</ele>
        <time>2026-08-19T06:59:38.566Z</time>
      </trkpt>
      <trkpt lat="45.92056" lon="6.34642">
        <ele>1773</ele>
        <time>2026-08-19T06:59:39.566Z</time>
      </trkpt>
      <trkpt lat="45.92056" lon="6.34642">
        <ele>1773</ele>
        <time>2026-08-19T06:59:40.566Z</time>
      </trkpt>
      <trkpt lat="45.92056" lon="6.34642">
        <ele>1773</ele>
        <time>2026-08-19T06:59:41.566Z</time>
      </trkpt>
      <trkpt lat="45.92056" lon="6.34642">
        <ele>1773</ele>
        <time>2026-08-19T06:59:42.566Z</time>
      </trkpt>
      <trkpt lat="45.92056" lon="6.34642">
        <ele>1773</ele>
        <time>2026-08-19T06:59:43.566Z</time>
      </trkpt>
      <trkpt lat="45.92056" lon="6.34642">
        <ele>1773</ele>
        <time>2026-08-19T06:59:44.566Z</time>
      </trkpt>
      <trkpt lat="45.92056" lon="6.34642">
        <ele>1773</ele>
        <time>2026-08-19T06:59:45.566Z</time>
      </trkpt>
      <trkpt lat="45.92056" lon="6.34642">
        <ele>1773</ele>
        <time>2026-08-19T06:59:46.566Z</time>
      </trkpt>
      <trkpt lat="45.92056" lon="6.34642">
        <ele>1773</ele>
        <time>2026-08-19T06:59:47.566Z</time>
      </trkpt>
      <trkpt lat="45.92056" lon="6.34642">
        <ele>1773</ele>
        <time>2026-08-19T06:59:48.566Z</time>
      </trkpt>
      <trkpt lat="45.92056" lon="6.34642">
        <ele>1773</ele>
        <time>2026-08-19T06:59:49.566Z</time>
      </trkpt>
      <trkpt lat="45.92056" lon="6.34642">
        <ele>1773</ele>
        <time>2026-08-19T06:59:50.566Z</time>
      </trkpt>
      <trkpt lat="45.92056" lon="6.34642">
        <ele>1773</ele>
        <time>2026-08-19T06:59:51.566Z</time>
      </trkpt>
      <trkpt lat="45.92056" lon="6.34642">
        <ele>1773</ele>
        <time>2026-08-19T06:59:52.566Z</time>
      </trkpt>
      <trkpt lat="45.92056" lon="6.34642">
        <ele>1773</ele>
        <time>2026-08-19T06:59:53.566Z</time>
      </trkpt>
      <trkpt lat="45.92056" lon="6.34642">
        <ele>1773</ele>
        <time>2026-08-19T06:59:54.566Z</time>
      </trkpt>
      <trkpt lat="45.92056" lon="6.34642">
        <ele>1773</ele>
        <time>2026-08-19T06:59:55.566Z</time>
      </trkpt>
      <trkpt lat="45.92056" lon="6.34642">
        <ele>1773</ele>
        <time>2026-08-19T06:59:56.566Z</time>
      </trkpt>
      <trkpt lat="45.92056" lon="6.34642">
        <ele>1773</ele>
        <time>2026-08-19T06:59:57.566Z</time>
      </trkpt>
      <trkpt lat="45.92056" lon="6.34642">
        <ele>1773</ele>
        <time>2026-08-19T06:59:58.566Z</time>
      </trkpt>
      <trkpt lat="45.92056" lon="6.34642">
        <ele>1773</ele>
        <time>2026-08-19T06:59:59.566Z</time>
      </trkpt>
      <trkpt lat="45.92056" lon="6.34643">
        <ele>1773</ele>
        <time>2026-08-19T07:00:00.566Z</time>
      </trkpt>
      <trkpt lat="45.92056" lon="6.34643">
        <ele>1773</ele>
        <time>2026-08-19T07:00:01.566Z</time>
      </trkpt>
      <trkpt lat="45.92056" lon="6.34643">
        <ele>1773</ele>
        <time>2026-08-19T07:00:02.566Z</time>
      </trkpt>
      <trkpt lat="45.92056" lon="6.34643">
        <ele>1773</ele>
        <time>2026-08-19T07:00:03.566Z</time>
      </trkpt>
      <trkpt lat="45.92056" lon="6.34643">
        <ele>1773</ele>
        <time>2026-08-19T07:00:04.566Z</time>
      </trkpt>
      <trkpt lat="45.92056" lon="6.34643">
        <ele>1773</ele>
        <time>2026-08-19T07:00:05.566Z</time>
      </trkpt>
      <trkpt lat="45.92056" lon="6.34643">
        <ele>1773</ele>
        <time>2026-08-19T07:00:06.566Z</time>
      </trkpt>
      <trkpt lat="45.92056" lon="6.34643">
        <ele>1773</ele>
        <time>2026-08-19T07:00:07.566Z</time>
      </trkpt>
      <trkpt lat="45.92056" lon="6.34643">
        <ele>1773</ele>
        <time>2026-08-19T07:00:08.566Z</time>
      </trkpt>
      <trkpt lat="45.92056" lon="6.34643">
        <ele>1773</ele>
        <time>2026-08-19T07:00:09.566Z</time>
      </trkpt>
      <trkpt lat="45.92056" lon="6.34643">
        <ele>1773</ele>
        <time>2026-08-19T07:00:10.566Z</time>
      </trkpt>
      <trkpt lat="45.92056" lon="6.34643">
        <ele>1773</ele>
        <time>2026-08-19T07:00:11.566Z</time>
      </trkpt>
      <trkpt lat="45.92056" lon="6.34643">
        <ele>1773</ele>
        <time>2026-08-19T07:00:12.566Z</time>
      </trkpt>
      <trkpt lat="45.92056" lon="6.34643">
        <ele>1773</ele>
        <time>2026-08-19T07:00:13.566Z</time>
      </trkpt>
      <trkpt lat="45.92056" lon="6.34643">
        <ele>1773</ele>
        <time>2026-08-19T07:00:14.567Z</time>
      </trkpt>
      <trkpt lat="45.92056" lon="6.34643">
        <ele>1773</ele>
        <time>2026-08-19T07:00:15.566Z</time>
      </trkpt>
      <trkpt lat="45.92056" lon="6.34643">
        <ele>1773</ele>
        <time>2026-08-19T07:00:16.566Z</time>
      </trkpt>
      <trkpt lat="45.92057" lon="6.34643">
        <ele>1773</ele>
        <time>2026-08-19T07:00:17.566Z</time>
      </trkpt>
      <trkpt lat="45.92057" lon="6.34643">
        <ele>1773</ele>
        <time>2026-08-19T07:00:18.566Z</time>
      </trkpt>
      <trkpt lat="45.92057" lon="6.34643">
        <ele>1773</ele>
        <time>2026-08-19T07:00:19.566Z</time>
      </trkpt>
      <trkpt lat="45.92057" lon="6.34643">
        <ele>1773</ele>
        <time>2026-08-19T07:00:20.566Z</time>
      </trkpt>
      <trkpt lat="45.92057" lon="6.34643">
        <ele>1773</ele>
        <time>2026-08-19T07:00:21.566Z</time>
      </trkpt>
      <trkpt lat="45.92057" lon="6.34643">
        <ele>1773</ele>
        <time>2026-08-19T07:00:22.566Z</time>
      </trkpt>
      <trkpt lat="45.92057" lon="6.34643">
        <ele>1773</ele>
        <time>2026-08-19T07:00:23.566Z</time>
      </trkpt>
      <trkpt lat="45.92057" lon="6.34642">
        <ele>1773</ele>
        <time>2026-08-19T07:00:24.566Z</time>
      </trkpt>
      <trkpt lat="45.92057" lon="6.34642">
        <ele>1773</ele>
        <time>2026-08-19T07:00:25.566Z</time>
      </trkpt>
      <trkpt lat="45.92057" lon="6.34642">
        <ele>1773</ele>
        <time>2026-08-19T07:00:26.566Z</time>
      </trkpt>
      <trkpt lat="45.92057" lon="6.34642">
        <ele>1773</ele>
        <time>2026-08-19T07:00:27.566Z</time>
      </trkpt>
      <trkpt lat="45.92057" lon="6.34642">
        <ele>1773</ele>
        <time>2026-08-19T07:00:28.566Z</time>
      </trkpt>
      <trkpt lat="45.92057" lon="6.34642">
        <ele>1773</ele>
        <time>2026-08-19T07:00:29.566Z</time>
      </trkpt>
      <trkpt lat="45.92057" lon="6.34642">
        <ele>1773</ele>
        <time>2026-08-19T07:00:30.566Z</time>
      </trkpt>
      <trkpt lat="45.92057" lon="6.34642">
        <ele>1773</ele>
        <time>2026-08-19T07:00:31.566Z</time>
      </trkpt>
      <trkpt lat="45.92057" lon="6.34642">
        <ele>1773</ele>
        <time>2026-08-19T07:00:32.566Z</time>
      </trkpt>
      <trkpt lat="45.92057" lon="6.34642">
        <ele>1773</ele>
        <time>2026-08-19T07:00:33.566Z</time>
      </trkpt>
      <trkpt lat="45.92057" lon="6.34642">
        <ele>1773</ele>
        <time>2026-08-19T07:00:34.566Z</time>
      </trkpt>
      <trkpt lat="45.92057" lon="6.34642">
        <ele>1773</ele>
        <time>2026-08-19T07:00:35.566Z</time>
      </trkpt>
      <trkpt lat="45.92057" lon="6.34642">
        <ele>1773</ele>
        <time>2026-08-19T07:00:36.566Z</time>
      </trkpt>
      <trkpt lat="45.92057" lon="6.34642">
        <ele>1773</ele>
        <time>2026-08-19T07:00:37.566Z</time>
      </trkpt>
      <trkpt lat="45.92057" lon="6.34641">
        <ele>1773</ele>
        <time>2026-08-19T07:00:38.566Z</time>
      </trkpt>
      <trkpt lat="45.92057" lon="6.34641">
        <ele>1773</ele>
        <time>2026-08-19T07:00:39.566Z</time>
      </trkpt>
      <trkpt lat="45.92057" lon="6.34641">
        <ele>1773</ele>
        <time>2026-08-19T07:00:40.566Z</time>
      </trkpt>
      <trkpt lat="45.92057" lon="6.34641">
        <ele>1773</ele>
        <time>2026-08-19T07:00:41.566Z</time>
      </trkpt>
      <trkpt lat="45.92057" lon="6.34641">
        <ele>1773</ele>
        <time>2026-08-19T07:00:42.566Z</time>
      </trkpt>
      <trkpt lat="45.92057" lon="6.34641">
        <ele>1773</ele>
        <time>2026-08-19T07:00:43.566Z</time>
      </trkpt>
      <trkpt lat="45.92057" lon="6.34641">
        <ele>1772</ele>
        <time>2026-08-19T07:00:44.566Z</time>
      </trkpt>
      <trkpt lat="45.92057" lon="6.34641">
        <ele>1772</ele>
        <time>2026-08-19T07:00:45.566Z</time>
      </trkpt>
      <trkpt lat="45.92057" lon="6.34641">
        <ele>1772</ele>
        <time>2026-08-19T07:00:46.566Z</time>
      </trkpt>
      <trkpt lat="45.92057" lon="6.34641">
        <ele>1772</ele>
        <time>2026-08-19T07:00:47.566Z</time>
      </trkpt>
      <trkpt lat="45.92057" lon="6.34641">
        <ele>1773</ele>
        <time>2026-08-19T07:00:48.566Z</time>
      </trkpt>
      <trkpt lat="45.92057" lon="6.34641">
        <ele>1773</ele>
        <time>2026-08-19T07:00:49.566Z</time>
      </trkpt>
      <trkpt lat="45.92057" lon="6.34641">
        <ele>1773</ele>
        <time>2026-08-19T07:00:50.566Z</time>
      </trkpt>
      <trkpt lat="45.92057" lon="6.34641">
        <ele>1773</ele>
        <time>2026-08-19T07:00:51.566Z</time>
      </trkpt>
      <trkpt lat="45.92057" lon="6.34641">
        <ele>1773</ele>
        <time>2026-08-19T07:00:52.566Z</time>
      </trkpt>
      <trkpt lat="45.92057" lon="6.34641">
        <ele>1773</ele>
        <time>2026-08-19T07:00:53.566Z</time>
      </trkpt>
      <trkpt lat="45.92057" lon="6.34641">
        <ele>1773</ele>
        <time>2026-08-19T07:00:54.566Z</time>
      </trkpt>
      <trkpt lat="45.92057" lon="6.34641">
        <ele>1773</ele>
        <time>2026-08-19T07:00:55.566Z</time>
      </trkpt>
      <trkpt lat="45.92057" lon="6.34641">
        <ele>1773</ele>
        <time>2026-08-19T07:00:56.566Z</time>
      </trkpt>
      <trkpt lat="45.92057" lon="6.34641">
        <ele>1773</ele>
        <time>2026-08-19T07:00:57.566Z</time>
      </trkpt>
      <trkpt lat="45.92057" lon="6.34641">
        <ele>1773</ele>
        <time>2026-08-19T07:00:58.566Z</time>
      </trkpt>
      <trkpt lat="45.92056" lon="6.34641">
        <ele>1773</ele>
        <time>2026-08-19T07:00:59.566Z</time>
      </trkpt>
      <trkpt lat="45.92056" lon="6.34641">
        <ele>1773</ele>
        <time>2026-08-19T07:01:00.566Z</time>
      </trkpt>
      <trkpt lat="45.92056" lon="6.34641">
        <ele>1773</ele>
        <time>2026-08-19T07:01:01.566Z</time>
      </trkpt>
      <trkpt lat="45.92056" lon="6.34641">
        <ele>1773</ele>
        <time>2026-08-19T07:01:02.566Z</time>
      </trkpt>
      <trkpt lat="45.92056" lon="6.34641">
        <ele>1773</ele>
        <time>2026-08-19T07:01:03.566Z</time>
      </trkpt>
      <trkpt lat="45.92056" lon="6.34641">
        <ele>1773</ele>
        <time>2026-08-19T07:01:04.566Z</time>
      </trkpt>
      <trkpt lat="45.92056" lon="6.34641">
        <ele>1773</ele>
        <time>2026-08-19T07:01:05.566Z</time>
      </trkpt>
      <trkpt lat="45.92056" lon="6.34641">
        <ele>1773</ele>
        <time>2026-08-19T07:01:06.566Z</time>
      </trkpt>
      <trkpt lat="45.92056" lon="6.34641">
        <ele>1773</ele>
        <time>2026-08-19T07:01:07.566Z</time>
      </trkpt>
      <trkpt lat="45.92056" lon="6.34641">
        <ele>1773</ele>
        <time>2026-08-19T07:01:08.566Z</time>
      </trkpt>
      <trkpt lat="45.92056" lon="6.34641">
        <ele>1773</ele>
        <time>2026-08-19T07:01:09.566Z</time>
      </trkpt>
      <trkpt lat="45.92056" lon="6.34641">
        <ele>1773</ele>
        <time>2026-08-19T07:01:10.566Z</time>
      </trkpt>
      <trkpt lat="45.92056" lon="6.34641">
        <ele>1773</ele>
        <time>2026-08-19T07:01:11.566Z</time>
      </trkpt>
      <trkpt lat="45.92056" lon="6.34641">
        <ele>1773</ele>
        <time>2026-08-19T07:01:12.566Z</time>
      </trkpt>
      <trkpt lat="45.92056" lon="6.34641">
        <ele>1773</ele>
        <time>2026-08-19T07:01:13.566Z</time>
      </trkpt>
      <trkpt lat="45.92056" lon="6.34641">
        <ele>1773</ele>
        <time>2026-08-19T07:01:14.566Z</time>
      </trkpt>
      <trkpt lat="45.92056" lon="6.34641">
        <ele>1773</ele>
        <time>2026-08-19T07:01:15.566Z</time>
      </trkpt>
      <trkpt lat="45.92056" lon="6.34641">
        <ele>1773</ele>
        <time>2026-08-19T07:01:16.566Z</time>
      </trkpt>
      <trkpt lat="45.92056" lon="6.34641">
        <ele>1773</ele>
        <time>2026-08-19T07:01:17.566Z</time>
      </trkpt>
      <trkpt lat="45.92056" lon="6.34641">
        <ele>1773</ele>
        <time>2026-08-19T07:01:18.566Z</time>
      </trkpt>
      <trkpt lat="45.92056" lon="6.34641">
        <ele>1773</ele>
        <time>2026-08-19T07:01:19.566Z</time>
      </trkpt>
      <trkpt lat="45.92056" lon="6.34641">
        <ele>1773</ele>
        <time>2026-08-19T07:01:20.566Z</time>
      </trkpt>
      <trkpt lat="45.92056" lon="6.34641">
        <ele>1773</ele>
        <time>2026-08-19T07:01:21.566Z</time>
      </trkpt>
      <trkpt lat="45.92056" lon="6.34641">
        <ele>1773</ele>
        <time>2026-08-19T07:01:22.566Z</time>
      </trkpt>
      <trkpt lat="45.92056" lon="6.34641">
        <ele>1773</ele>
        <time>2026-08-19T07:01:23.566Z</time>
      </trkpt>
      <trkpt lat="45.92056" lon="6.34641">
        <ele>1773</ele>
        <time>2026-08-19T07:01:24.566Z</time>
      </trkpt>
      <trkpt lat="45.92056" lon="6.34641">
        <ele>1773</ele>
        <time>2026-08-19T07:01:25.566Z</time>
      </trkpt>
      <trkpt lat="45.92056" lon="6.34641">
        <ele>1773</ele>
        <time>2026-08-19T07:01:26.566Z</time>
      </trkpt>
      <trkpt lat="45.92056" lon="6.34641">
        <ele>1773</ele>
        <time>2026-08-19T07:01:27.566Z</time>
      </trkpt>
      <trkpt lat="45.92056" lon="6.34641">
        <ele>1773</ele>
        <time>2026-08-19T07:01:28.566Z</time>
      </trkpt>
      <trkpt lat="45.92056" lon="6.34641">
        <ele>1773</ele>
        <time>2026-08-19T07:01:29.566Z</time>
      </trkpt>
      <trkpt lat="45.92056" lon="6.34641">
        <ele>1773</ele>
        <time>2026-08-19T07:01:30.566Z</time>
      </trkpt>
      <trkpt lat="45.92056" lon="6.34641">
        <ele>1773</ele>
        <time>2026-08-19T07:01:31.566Z</time>
      </trkpt>
      <trkpt lat="45.92056" lon="6.34641">
        <ele>1773</ele>
        <time>2026-08-19T07:01:32.566Z</time>
      </trkpt>
      <trkpt lat="45.92056" lon="6.34641">
        <ele>1773</ele>
        <time>2026-08-19T07:01:33.566Z</time>
      </trkpt>
      <trkpt lat="45.92056" lon="6.34641">
        <ele>1773</ele>
        <time>2026-08-19T07:01:34.566Z</time>
      </trkpt>
      <trkpt lat="45.92056" lon="6.34641">
        <ele>1773</ele>
        <time>2026-08-19T07:01:35.566Z</time>
      </trkpt>
      <trkpt lat="45.92056" lon="6.34641">
        <ele>1773</ele>
        <time>2026-08-19T07:01:36.567Z</time>
      </trkpt>
      <trkpt lat="45.92056" lon="6.34641">
        <ele>1773</ele>
        <time>2026-08-19T07:01:37.566Z</time>
      </trkpt>
      <trkpt lat="45.92056" lon="6.34641">
        <ele>1773</ele>
        <time>2026-08-19T07:01:38.566Z</time>
      </trkpt>
      <trkpt lat="45.92056" lon="6.34641">
        <ele>1773</ele>
        <time>2026-08-19T07:01:39.566Z</time>
      </trkpt>
      <trkpt lat="45.92056" lon="6.34641">
        <ele>1773</ele>
        <time>2026-08-19T07:01:40.566Z</time>
      </trkpt>
      <trkpt lat="45.92056" lon="6.3464">
        <ele>1773</ele>
        <time>2026-08-19T07:01:41.566Z</time>
      </trkpt>
      <trkpt lat="45.92056" lon="6.3464">
        <ele>1773</ele>
        <time>2026-08-19T07:01:42.566Z</time>
      </trkpt>
      <trkpt lat="45.92056" lon="6.3464">
        <ele>1773</ele>
        <time>2026-08-19T07:01:43.566Z</time>
      </trkpt>
      <trkpt lat="45.92056" lon="6.3464">
        <ele>1773</ele>
        <time>2026-08-19T07:01:44.566Z</time>
      </trkpt>
      <trkpt lat="45.92057" lon="6.3464">
        <ele>1773</ele>
        <time>2026-08-19T07:01:45.566Z</time>
      </trkpt>
      <trkpt lat="45.92058" lon="6.3464">
        <ele>1773</ele>
        <time>2026-08-19T07:01:46.566Z</time>
      </trkpt>
      <trkpt lat="45.92058" lon="6.34639">
        <ele>1773</ele>
        <time>2026-08-19T07:01:47.566Z</time>
      </trkpt>
      <trkpt lat="45.92059" lon="6.34639">
        <ele>1773</ele>
        <time>2026-08-19T07:01:48.566Z</time>
      </trkpt>
      <trkpt lat="45.9206" lon="6.34639">
        <ele>1773</ele>
        <time>2026-08-19T07:01:49.566Z</time>
      </trkpt>
      <trkpt lat="45.9206" lon="6.34638">
        <ele>1774</ele>
        <time>2026-08-19T07:01:50.566Z</time>
      </trkpt>
      <trkpt lat="45.9206" lon="6.34638">
        <ele>1774</ele>
        <time>2026-08-19T07:01:51.566Z</time>
      </trkpt>
      <trkpt lat="45.9206" lon="6.34638">
        <ele>1775</ele>
        <time>2026-08-19T07:01:52.566Z</time>
      </trkpt>
      <trkpt lat="45.9206" lon="6.34638">
        <ele>1775</ele>
        <time>2026-08-19T07:01:53.566Z</time>
      </trkpt>
      <trkpt lat="45.9206" lon="6.34638">
        <ele>1775</ele>
        <time>2026-08-19T07:01:54.566Z</time>
      </trkpt>
      <trkpt lat="45.9206" lon="6.34638">
        <ele>1776</ele>
        <time>2026-08-19T07:01:55.566Z</time>
      </trkpt>
      <trkpt lat="45.9206" lon="6.34638">
        <ele>1776</ele>
        <time>2026-08-19T07:01:56.566Z</time>
      </trkpt>
      <trkpt lat="45.92061" lon="6.34638">
        <ele>1776</ele>
        <time>2026-08-19T07:01:57.566Z</time>
      </trkpt>
      <trkpt lat="45.92062" lon="6.34638">
        <ele>1777</ele>
        <time>2026-08-19T07:01:58.566Z</time>
      </trkpt>
      <trkpt lat="45.92062" lon="6.34638">
        <ele>1777</ele>
        <time>2026-08-19T07:01:59.566Z</time>
      </trkpt>
      <trkpt lat="45.92063" lon="6.34638">
        <ele>1777</ele>
        <time>2026-08-19T07:02:00.566Z</time>
      </trkpt>
      <trkpt lat="45.92063" lon="6.34638">
        <ele>1777</ele>
        <time>2026-08-19T07:02:01.566Z</time>
      </trkpt>
      <trkpt lat="45.92063" lon="6.34638">
        <ele>1778</ele>
        <time>2026-08-19T07:02:02.566Z</time>
      </trkpt>
      <trkpt lat="45.92063" lon="6.34638">
        <ele>1778</ele>
        <time>2026-08-19T07:02:03.567Z</time>
      </trkpt>
      <trkpt lat="45.92063" lon="6.34638">
        <ele>1778</ele>
        <time>2026-08-19T07:02:04.566Z</time>
      </trkpt>
      <trkpt lat="45.92063" lon="6.34638">
        <ele>1778</ele>
        <time>2026-08-19T07:02:05.566Z</time>
      </trkpt>
      <trkpt lat="45.92063" lon="6.34638">
        <ele>1778</ele>
        <time>2026-08-19T07:02:06.566Z</time>
      </trkpt>
      <trkpt lat="45.92063" lon="6.34638">
        <ele>1778</ele>
        <time>2026-08-19T07:02:07.566Z</time>
      </trkpt>
      <trkpt lat="45.92063" lon="6.34638">
        <ele>1779</ele>
        <time>2026-08-19T07:02:08.566Z</time>
      </trkpt>
      <trkpt lat="45.92063" lon="6.34638">
        <ele>1779</ele>
        <time>2026-08-19T07:02:09.566Z</time>
      </trkpt>
      <trkpt lat="45.92063" lon="6.34638">
        <ele>1779</ele>
        <time>2026-08-19T07:02:10.566Z</time>
      </trkpt>
      <trkpt lat="45.92063" lon="6.34638">
        <ele>1779</ele>
        <time>2026-08-19T07:02:11.566Z</time>
      </trkpt>
      <trkpt lat="45.92063" lon="6.34638">
        <ele>1779</ele>
        <time>2026-08-19T07:02:12.566Z</time>
      </trkpt>
      <trkpt lat="45.92063" lon="6.34638">
        <ele>1779</ele>
        <time>2026-08-19T07:02:13.566Z</time>
      </trkpt>
      <trkpt lat="45.92063" lon="6.34638">
        <ele>1779</ele>
        <time>2026-08-19T07:02:14.566Z</time>
      </trkpt>
      <trkpt lat="45.92063" lon="6.34638">
        <ele>1779</ele>
        <time>2026-08-19T07:02:15.566Z</time>
      </trkpt>
      <trkpt lat="45.92063" lon="6.34638">
        <ele>1779</ele>
        <time>2026-08-19T07:02:16.566Z</time>
      </trkpt>
      <trkpt lat="45.92063" lon="6.34638">
        <ele>1779</ele>
        <time>2026-08-19T07:02:17.566Z</time>
      </trkpt>
      <trkpt lat="45.92063" lon="6.34638">
        <ele>1779</ele>
        <time>2026-08-19T07:02:18.566Z</time>
      </trkpt>
      <trkpt lat="45.92063" lon="6.34638">
        <ele>1779</ele>
        <time>2026-08-19T07:02:19.566Z</time>
      </trkpt>
      <trkpt lat="45.92063" lon="6.34638">
        <ele>1779</ele>
        <time>2026-08-19T07:02:20.566Z</time>
      </trkpt>
      <trkpt lat="45.92064" lon="6.34638">
        <ele>1779</ele>
        <time>2026-08-19T07:02:21.566Z</time>
      </trkpt>
      <trkpt lat="45.92064" lon="6.34638">
        <ele>1780</ele>
        <time>2026-08-19T07:02:22.566Z</time>
      </trkpt>
      <trkpt lat="45.92064" lon="6.34638">
        <ele>1780</ele>
        <time>2026-08-19T07:02:23.566Z</time>
      </trkpt>
      <trkpt lat="45.92065" lon="6.34637">
        <ele>1780</ele>
        <time>2026-08-19T07:02:24.566Z</time>
      </trkpt>
      <trkpt lat="45.92065" lon="6.34637">
        <ele>1780</ele>
        <time>2026-08-19T07:02:25.566Z</time>
      </trkpt>
      <trkpt lat="45.92065" lon="6.34637">
        <ele>1780</ele>
        <time>2026-08-19T07:02:26.566Z</time>
      </trkpt>
      <trkpt lat="45.92065" lon="6.34637">
        <ele>1780</ele>
        <time>2026-08-19T07:02:27.566Z</time>
      </trkpt>
      <trkpt lat="45.92065" lon="6.34637">
        <ele>1780</ele>
        <time>2026-08-19T07:02:28.566Z</time>
      </trkpt>
      <trkpt lat="45.92065" lon="6.34637">
        <ele>1780</ele>
        <time>2026-08-19T07:02:29.566Z</time>
      </trkpt>
      <trkpt lat="45.92065" lon="6.34637">
        <ele>1780</ele>
        <time>2026-08-19T07:02:30.567Z</time>
      </trkpt>
      <trkpt lat="45.92065" lon="6.34637">
        <ele>1780</ele>
        <time>2026-08-19T07:02:31.566Z</time>
      </trkpt>
      <trkpt lat="45.92065" lon="6.34637">
        <ele>1780</ele>
        <time>2026-08-19T07:02:32.566Z</time>
      </trkpt>
      <trkpt lat="45.92065" lon="6.34636">
        <ele>1780</ele>
        <time>2026-08-19T07:02:33.566Z</time>
      </trkpt>
      <trkpt lat="45.92065" lon="6.34636">
        <ele>1780</ele>
        <time>2026-08-19T07:02:34.567Z</time>
      </trkpt>
      <trkpt lat="45.92065" lon="6.34636">
        <ele>1780</ele>
        <time>2026-08-19T07:02:35.566Z</time>
      </trkpt>
      <trkpt lat="45.92066" lon="6.34636">
        <ele>1780</ele>
        <time>2026-08-19T07:02:36.566Z</time>
      </trkpt>
      <trkpt lat="45.92066" lon="6.34636">
        <ele>1780</ele>
        <time>2026-08-19T07:02:37.566Z</time>
      </trkpt>
      <trkpt lat="45.92066" lon="6.34636">
        <ele>1780</ele>
        <time>2026-08-19T07:02:38.566Z</time>
      </trkpt>
      <trkpt lat="45.92067" lon="6.34636">
        <ele>1780</ele>
        <time>2026-08-19T07:02:39.566Z</time>
      </trkpt>
      <trkpt lat="45.92067" lon="6.34635">
        <ele>1780</ele>
        <time>2026-08-19T07:02:40.566Z</time>
      </trkpt>
      <trkpt lat="45.92067" lon="6.34635">
        <ele>1780</ele>
        <time>2026-08-19T07:02:41.566Z</time>
      </trkpt>
      <trkpt lat="45.92068" lon="6.34635">
        <ele>1780</ele>
        <time>2026-08-19T07:02:42.566Z</time>
      </trkpt>
      <trkpt lat="45.92068" lon="6.34635">
        <ele>1780</ele>
        <time>2026-08-19T07:02:43.566Z</time>
      </trkpt>
      <trkpt lat="45.92068" lon="6.34634">
        <ele>1780</ele>
        <time>2026-08-19T07:02:44.566Z</time>
      </trkpt>
      <trkpt lat="45.92069" lon="6.34634">
        <ele>1780</ele>
        <time>2026-08-19T07:02:45.566Z</time>
      </trkpt>
      <trkpt lat="45.92069" lon="6.34633">
        <ele>1781</ele>
        <time>2026-08-19T07:02:46.566Z</time>
      </trkpt>
      <trkpt lat="45.9207" lon="6.34632">
        <ele>1781</ele>
        <time>2026-08-19T07:02:47.566Z</time>
      </trkpt>
      <trkpt lat="45.9207" lon="6.34631">
        <ele>1781</ele>
        <time>2026-08-19T07:02:48.566Z</time>
      </trkpt>
      <trkpt lat="45.92071" lon="6.34631">
        <ele>1781</ele>
        <time>2026-08-19T07:02:49.566Z</time>
      </trkpt>
      <trkpt lat="45.92072" lon="6.3463">
        <ele>1781</ele>
        <time>2026-08-19T07:02:50.566Z</time>
      </trkpt>
      <trkpt lat="45.92072" lon="6.34629">
        <ele>1782</ele>
        <time>2026-08-19T07:02:51.566Z</time>
      </trkpt>
      <trkpt lat="45.92073" lon="6.34628">
        <ele>1782</ele>
        <time>2026-08-19T07:02:52.566Z</time>
      </trkpt>
      <trkpt lat="45.92073" lon="6.34627">
        <ele>1783</ele>
        <time>2026-08-19T07:02:53.566Z</time>
      </trkpt>
      <trkpt lat="45.92073" lon="6.34626">
        <ele>1784</ele>
        <time>2026-08-19T07:02:54.566Z</time>
      </trkpt>
      <trkpt lat="45.92073" lon="6.34626">
        <ele>1784</ele>
        <time>2026-08-19T07:02:55.566Z</time>
      </trkpt>
      <trkpt lat="45.92073" lon="6.34625">
        <ele>1785</ele>
        <time>2026-08-19T07:02:56.566Z</time>
      </trkpt>
      <trkpt lat="45.92074" lon="6.34625">
        <ele>1785</ele>
        <time>2026-08-19T07:02:57.566Z</time>
      </trkpt>
      <trkpt lat="45.92074" lon="6.34625">
        <ele>1785</ele>
        <time>2026-08-19T07:02:58.566Z</time>
      </trkpt>
      <trkpt lat="45.92075" lon="6.34626">
        <ele>1785</ele>
        <time>2026-08-19T07:02:59.566Z</time>
      </trkpt>
      <trkpt lat="45.92075" lon="6.34626">
        <ele>1786</ele>
        <time>2026-08-19T07:03:00.566Z</time>
      </trkpt>
      <trkpt lat="45.92076" lon="6.34626">
        <ele>1786</ele>
        <time>2026-08-19T07:03:01.566Z</time>
      </trkpt>
      <trkpt lat="45.92076" lon="6.34627">
        <ele>1786</ele>
        <time>2026-08-19T07:03:02.566Z</time>
      </trkpt>
      <trkpt lat="45.92076" lon="6.34627">
        <ele>1786</ele>
        <time>2026-08-19T07:03:03.566Z</time>
      </trkpt>
      <trkpt lat="45.92077" lon="6.34627">
        <ele>1787</ele>
        <time>2026-08-19T07:03:04.566Z</time>
      </trkpt>
      <trkpt lat="45.92077" lon="6.34628">
        <ele>1787</ele>
        <time>2026-08-19T07:03:05.566Z</time>
      </trkpt>
      <trkpt lat="45.92077" lon="6.34628">
        <ele>1787</ele>
        <time>2026-08-19T07:03:06.566Z</time>
      </trkpt>
      <trkpt lat="45.92078" lon="6.34628">
        <ele>1787</ele>
        <time>2026-08-19T07:03:07.566Z</time>
      </trkpt>
      <trkpt lat="45.92078" lon="6.34629">
        <ele>1787</ele>
        <time>2026-08-19T07:03:08.566Z</time>
      </trkpt>
      <trkpt lat="45.92079" lon="6.34629">
        <ele>1787</ele>
        <time>2026-08-19T07:03:09.566Z</time>
      </trkpt>
      <trkpt lat="45.92079" lon="6.3463">
        <ele>1787</ele>
        <time>2026-08-19T07:03:10.566Z</time>
      </trkpt>
      <trkpt lat="45.92079" lon="6.3463">
        <ele>1787</ele>
        <time>2026-08-19T07:03:11.566Z</time>
      </trkpt>
      <trkpt lat="45.9208" lon="6.34631">
        <ele>1787</ele>
        <time>2026-08-19T07:03:12.566Z</time>
      </trkpt>
      <trkpt lat="45.92081" lon="6.34631">
        <ele>1787</ele>
        <time>2026-08-19T07:03:13.566Z</time>
      </trkpt>
      <trkpt lat="45.92081" lon="6.3463">
        <ele>1787</ele>
        <time>2026-08-19T07:03:14.566Z</time>
      </trkpt>
      <trkpt lat="45.92082" lon="6.3463">
        <ele>1787</ele>
        <time>2026-08-19T07:03:15.566Z</time>
      </trkpt>
      <trkpt lat="45.92082" lon="6.3463">
        <ele>1786</ele>
        <time>2026-08-19T07:03:16.566Z</time>
      </trkpt>
      <trkpt lat="45.92082" lon="6.3463">
        <ele>1786</ele>
        <time>2026-08-19T07:03:17.566Z</time>
      </trkpt>
      <trkpt lat="45.92082" lon="6.34631">
        <ele>1787</ele>
        <time>2026-08-19T07:03:18.566Z</time>
      </trkpt>
      <trkpt lat="45.92083" lon="6.34631">
        <ele>1787</ele>
        <time>2026-08-19T07:03:19.566Z</time>
      </trkpt>
      <trkpt lat="45.92083" lon="6.3463">
        <ele>1787</ele>
        <time>2026-08-19T07:03:20.566Z</time>
      </trkpt>
      <trkpt lat="45.92083" lon="6.3463">
        <ele>1788</ele>
        <time>2026-08-19T07:03:21.566Z</time>
      </trkpt>
      <trkpt lat="45.92083" lon="6.34631">
        <ele>1788</ele>
        <time>2026-08-19T07:03:22.566Z</time>
      </trkpt>
      <trkpt lat="45.92082" lon="6.34631">
        <ele>1788</ele>
        <time>2026-08-19T07:03:23.566Z</time>
      </trkpt>
      <trkpt lat="45.92083" lon="6.34631">
        <ele>1788</ele>
        <time>2026-08-19T07:03:24.566Z</time>
      </trkpt>
      <trkpt lat="45.92083" lon="6.34631">
        <ele>1788</ele>
        <time>2026-08-19T07:03:25.566Z</time>
      </trkpt>
      <trkpt lat="45.92083" lon="6.34631">
        <ele>1788</ele>
        <time>2026-08-19T07:03:26.566Z</time>
      </trkpt>
      <trkpt lat="45.92083" lon="6.34631">
        <ele>1788</ele>
        <time>2026-08-19T07:03:27.566Z</time>
      </trkpt>
      <trkpt lat="45.92083" lon="6.34631">
        <ele>1788</ele>
        <time>2026-08-19T07:03:28.566Z</time>
      </trkpt>
      <trkpt lat="45.92083" lon="6.34631">
        <ele>1787</ele>
        <time>2026-08-19T07:03:29.566Z</time>
      </trkpt>
      <trkpt lat="45.92083" lon="6.34631">
        <ele>1787</ele>
        <time>2026-08-19T07:03:30.566Z</time>
      </trkpt>
      <trkpt lat="45.92083" lon="6.34631">
        <ele>1787</ele>
        <time>2026-08-19T07:03:31.566Z</time>
      </trkpt>
      <trkpt lat="45.92083" lon="6.34631">
        <ele>1787</ele>
        <time>2026-08-19T07:03:32.566Z</time>
      </trkpt>
      <trkpt lat="45.92083" lon="6.34631">
        <ele>1787</ele>
        <time>2026-08-19T07:03:33.566Z</time>
      </trkpt>
      <trkpt lat="45.92083" lon="6.34631">
        <ele>1787</ele>
        <time>2026-08-19T07:03:34.566Z</time>
      </trkpt>
      <trkpt lat="45.92083" lon="6.34631">
        <ele>1787</ele>
        <time>2026-08-19T07:03:35.566Z</time>
      </trkpt>
      <trkpt lat="45.92083" lon="6.34631">
        <ele>1788</ele>
        <time>2026-08-19T07:03:36.566Z</time>
      </trkpt>
      <trkpt lat="45.92083" lon="6.34631">
        <ele>1788</ele>
        <time>2026-08-19T07:03:37.566Z</time>
      </trkpt>
      <trkpt lat="45.92083" lon="6.34631">
        <ele>1788</ele>
        <time>2026-08-19T07:03:38.566Z</time>
      </trkpt>
      <trkpt lat="45.92083" lon="6.34631">
        <ele>1788</ele>
        <time>2026-08-19T07:03:39.566Z</time>
      </trkpt>
      <trkpt lat="45.92083" lon="6.34631">
        <ele>1788</ele>
        <time>2026-08-19T07:03:40.566Z</time>
      </trkpt>
      <trkpt lat="45.92082" lon="6.34631">
        <ele>1789</ele>
        <time>2026-08-19T07:03:41.566Z</time>
      </trkpt>
      <trkpt lat="45.92082" lon="6.34631">
        <ele>1789</ele>
        <time>2026-08-19T07:03:42.566Z</time>
      </trkpt>
      <trkpt lat="45.92082" lon="6.34631">
        <ele>1789</ele>
        <time>2026-08-19T07:03:43.566Z</time>
      </trkpt>
      <trkpt lat="45.92082" lon="6.3463">
        <ele>1789</ele>
        <time>2026-08-19T07:03:44.566Z</time>
      </trkpt>
      <trkpt lat="45.92082" lon="6.3463">
        <ele>1789</ele>
        <time>2026-08-19T07:03:45.566Z</time>
      </trkpt>
      <trkpt lat="45.92082" lon="6.3463">
        <ele>1789</ele>
        <time>2026-08-19T07:03:46.566Z</time>
      </trkpt>
      <trkpt lat="45.92082" lon="6.3463">
        <ele>1789</ele>
        <time>2026-08-19T07:03:47.566Z</time>
      </trkpt>
      <trkpt lat="45.92082" lon="6.3463">
        <ele>1789</ele>
        <time>2026-08-19T07:03:48.566Z</time>
      </trkpt>
      <trkpt lat="45.92082" lon="6.3463">
        <ele>1789</ele>
        <time>2026-08-19T07:03:49.566Z</time>
      </trkpt>
      <trkpt lat="45.92082" lon="6.3463">
        <ele>1790</ele>
        <time>2026-08-19T07:03:50.566Z</time>
      </trkpt>
      <trkpt lat="45.92082" lon="6.3463">
        <ele>1790</ele>
        <time>2026-08-19T07:03:51.566Z</time>
      </trkpt>
      <trkpt lat="45.92082" lon="6.3463">
        <ele>1790</ele>
        <time>2026-08-19T07:03:52.566Z</time>
      </trkpt>
      <trkpt lat="45.92082" lon="6.3463">
        <ele>1790</ele>
        <time>2026-08-19T07:03:53.566Z</time>
      </trkpt>
      <trkpt lat="45.92082" lon="6.3463">
        <ele>1790</ele>
        <time>2026-08-19T07:03:54.566Z</time>
      </trkpt>
      <trkpt lat="45.92082" lon="6.3463">
        <ele>1790</ele>
        <time>2026-08-19T07:03:55.566Z</time>
      </trkpt>
      <trkpt lat="45.92082" lon="6.3463">
        <ele>1790</ele>
        <time>2026-08-19T07:03:56.566Z</time>
      </trkpt>
      <trkpt lat="45.92082" lon="6.3463">
        <ele>1790</ele>
        <time>2026-08-19T07:03:57.566Z</time>
      </trkpt>
      <trkpt lat="45.92082" lon="6.3463">
        <ele>1790</ele>
        <time>2026-08-19T07:03:58.566Z</time>
      </trkpt>
      <trkpt lat="45.92082" lon="6.3463">
        <ele>1790</ele>
        <time>2026-08-19T07:03:59.566Z</time>
      </trkpt>
      <trkpt lat="45.92082" lon="6.3463">
        <ele>1790</ele>
        <time>2026-08-19T07:04:00.566Z</time>
      </trkpt>
      <trkpt lat="45.92082" lon="6.3463">
        <ele>1790</ele>
        <time>2026-08-19T07:04:01.566Z</time>
      </trkpt>
      <trkpt lat="45.92082" lon="6.3463">
        <ele>1790</ele>
        <time>2026-08-19T07:04:02.566Z</time>
      </trkpt>
      <trkpt lat="45.92082" lon="6.3463">
        <ele>1790</ele>
        <time>2026-08-19T07:04:03.566Z</time>
      </trkpt>
      <trkpt lat="45.92082" lon="6.3463">
        <ele>1790</ele>
        <time>2026-08-19T07:04:04.566Z</time>
      </trkpt>
      <trkpt lat="45.92082" lon="6.3463">
        <ele>1790</ele>
        <time>2026-08-19T07:04:05.566Z</time>
      </trkpt>
      <trkpt lat="45.92082" lon="6.3463">
        <ele>1790</ele>
        <time>2026-08-19T07:04:06.566Z</time>
      </trkpt>
      <trkpt lat="45.92082" lon="6.3463">
        <ele>1790</ele>
        <time>2026-08-19T07:04:07.566Z</time>
      </trkpt>
      <trkpt lat="45.92082" lon="6.3463">
        <ele>1791</ele>
        <time>2026-08-19T07:04:08.566Z</time>
      </trkpt>
      <trkpt lat="45.92082" lon="6.3463">
        <ele>1791</ele>
        <time>2026-08-19T07:04:09.566Z</time>
      </trkpt>
      <trkpt lat="45.92082" lon="6.3463">
        <ele>1791</ele>
        <time>2026-08-19T07:04:10.566Z</time>
      </trkpt>
      <trkpt lat="45.92082" lon="6.3463">
        <ele>1791</ele>
        <time>2026-08-19T07:04:11.566Z</time>
      </trkpt>
      <trkpt lat="45.92082" lon="6.3463">
        <ele>1791</ele>
        <time>2026-08-19T07:04:12.566Z</time>
      </trkpt>
      <trkpt lat="45.92082" lon="6.3463">
        <ele>1791</ele>
        <time>2026-08-19T07:04:13.566Z</time>
      </trkpt>
      <trkpt lat="45.92082" lon="6.3463">
        <ele>1791</ele>
        <time>2026-08-19T07:04:14.566Z</time>
      </trkpt>
      <trkpt lat="45.92082" lon="6.3463">
        <ele>1791</ele>
        <time>2026-08-19T07:04:15.566Z</time>
      </trkpt>
      <trkpt lat="45.92082" lon="6.3463">
        <ele>1791</ele>
        <time>2026-08-19T07:04:16.566Z</time>
      </trkpt>
      <trkpt lat="45.92082" lon="6.3463">
        <ele>1791</ele>
        <time>2026-08-19T07:04:17.566Z</time>
      </trkpt>
      <trkpt lat="45.92082" lon="6.3463">
        <ele>1791</ele>
        <time>2026-08-19T07:04:18.566Z</time>
      </trkpt>
      <trkpt lat="45.92082" lon="6.3463">
        <ele>1791</ele>
        <time>2026-08-19T07:04:19.566Z</time>
      </trkpt>
      <trkpt lat="45.92082" lon="6.3463">
        <ele>1791</ele>
        <time>2026-08-19T07:04:20.566Z</time>
      </trkpt>
      <trkpt lat="45.92082" lon="6.3463">
        <ele>1791</ele>
        <time>2026-08-19T07:04:21.566Z</time>
      </trkpt>
      <trkpt lat="45.92082" lon="6.34631">
        <ele>1791</ele>
        <time>2026-08-19T07:04:22.566Z</time>
      </trkpt>
      <trkpt lat="45.92082" lon="6.34631">
        <ele>1791</ele>
        <time>2026-08-19T07:04:23.566Z</time>
      </trkpt>
      <trkpt lat="45.92082" lon="6.34631">
        <ele>1791</ele>
        <time>2026-08-19T07:04:24.566Z</time>
      </trkpt>
      <trkpt lat="45.92082" lon="6.34631">
        <ele>1791</ele>
        <time>2026-08-19T07:04:25.566Z</time>
      </trkpt>
      <trkpt lat="45.92082" lon="6.34631">
        <ele>1791</ele>
        <time>2026-08-19T07:04:26.566Z</time>
      </trkpt>
      <trkpt lat="45.92082" lon="6.34631">
        <ele>1791</ele>
        <time>2026-08-19T07:04:27.566Z</time>
      </trkpt>
      <trkpt lat="45.92082" lon="6.34631">
        <ele>1791</ele>
        <time>2026-08-19T07:04:28.566Z</time>
      </trkpt>
      <trkpt lat="45.92082" lon="6.34631">
        <ele>1791</ele>
        <time>2026-08-19T07:04:29.566Z</time>
      </trkpt>
      <trkpt lat="45.92082" lon="6.3463">
        <ele>1791</ele>
        <time>2026-08-19T07:04:30.566Z</time>
      </trkpt>
      <trkpt lat="45.92083" lon="6.3463">
        <ele>1791</ele>
        <time>2026-08-19T07:04:31.566Z</time>
      </trkpt>
      <trkpt lat="45.92083" lon="6.3463">
        <ele>1791</ele>
        <time>2026-08-19T07:04:32.566Z</time>
      </trkpt>
      <trkpt lat="45.92083" lon="6.3463">
        <ele>1791</ele>
        <time>2026-08-19T07:04:33.566Z</time>
      </trkpt>
      <trkpt lat="45.92083" lon="6.3463">
        <ele>1791</ele>
        <time>2026-08-19T07:04:34.566Z</time>
      </trkpt>
      <trkpt lat="45.92083" lon="6.3463">
        <ele>1791</ele>
        <time>2026-08-19T07:04:35.566Z</time>
      </trkpt>
      <trkpt lat="45.92083" lon="6.3463">
        <ele>1791</ele>
        <time>2026-08-19T07:04:36.566Z</time>
      </trkpt>
      <trkpt lat="45.92083" lon="6.3463">
        <ele>1792</ele>
        <time>2026-08-19T07:04:37.566Z</time>
      </trkpt>
      <trkpt lat="45.92083" lon="6.3463">
        <ele>1792</ele>
        <time>2026-08-19T07:04:38.566Z</time>
      </trkpt>
      <trkpt lat="45.92083" lon="6.3463">
        <ele>1792</ele>
        <time>2026-08-19T07:04:39.566Z</time>
      </trkpt>
      <trkpt lat="45.92083" lon="6.3463">
        <ele>1792</ele>
        <time>2026-08-19T07:04:40.566Z</time>
      </trkpt>
      <trkpt lat="45.92083" lon="6.3463">
        <ele>1792</ele>
        <time>2026-08-19T07:04:41.566Z</time>
      </trkpt>
      <trkpt lat="45.92083" lon="6.3463">
        <ele>1792</ele>
        <time>2026-08-19T07:04:42.566Z</time>
      </trkpt>
      <trkpt lat="45.92083" lon="6.3463">
        <ele>1792</ele>
        <time>2026-08-19T07:04:43.566Z</time>
      </trkpt>
      <trkpt lat="45.92083" lon="6.3463">
        <ele>1792</ele>
        <time>2026-08-19T07:04:44.566Z</time>
      </trkpt>
      <trkpt lat="45.92083" lon="6.34629">
        <ele>1792</ele>
        <time>2026-08-19T07:04:45.566Z</time>
      </trkpt>
      <trkpt lat="45.92083" lon="6.34629">
        <ele>1792</ele>
        <time>2026-08-19T07:04:46.566Z</time>
      </trkpt>
      <trkpt lat="45.92083" lon="6.34628">
        <ele>1792</ele>
        <time>2026-08-19T07:04:47.566Z</time>
      </trkpt>
      <trkpt lat="45.92083" lon="6.34628">
        <ele>1792</ele>
        <time>2026-08-19T07:04:48.566Z</time>
      </trkpt>
      <trkpt lat="45.92083" lon="6.34628">
        <ele>1792</ele>
        <time>2026-08-19T07:04:49.566Z</time>
      </trkpt>
      <trkpt lat="45.92084" lon="6.34627">
        <ele>1792</ele>
        <time>2026-08-19T07:04:50.566Z</time>
      </trkpt>
      <trkpt lat="45.92084" lon="6.34626">
        <ele>1792</ele>
        <time>2026-08-19T07:04:51.566Z</time>
      </trkpt>
      <trkpt lat="45.92084" lon="6.34626">
        <ele>1792</ele>
        <time>2026-08-19T07:04:52.566Z</time>
      </trkpt>
      <trkpt lat="45.92085" lon="6.34625">
        <ele>1793</ele>
        <time>2026-08-19T07:04:53.566Z</time>
      </trkpt>
      <trkpt lat="45.92085" lon="6.34625">
        <ele>1793</ele>
        <time>2026-08-19T07:04:54.566Z</time>
      </trkpt>
      <trkpt lat="45.92085" lon="6.34624">
        <ele>1794</ele>
        <time>2026-08-19T07:04:55.566Z</time>
      </trkpt>
      <trkpt lat="45.92085" lon="6.34624">
        <ele>1794</ele>
        <time>2026-08-19T07:04:56.566Z</time>
      </trkpt>
      <trkpt lat="45.92085" lon="6.34624">
        <ele>1794</ele>
        <time>2026-08-19T07:04:57.566Z</time>
      </trkpt>
      <trkpt lat="45.92085" lon="6.34624">
        <ele>1794</ele>
        <time>2026-08-19T07:04:58.566Z</time>
      </trkpt>
      <trkpt lat="45.92085" lon="6.34624">
        <ele>1794</ele>
        <time>2026-08-19T07:04:59.566Z</time>
      </trkpt>
      <trkpt lat="45.92085" lon="6.34624">
        <ele>1794</ele>
        <time>2026-08-19T07:05:00.566Z</time>
      </trkpt>
      <trkpt lat="45.92085" lon="6.34624">
        <ele>1794</ele>
        <time>2026-08-19T07:05:01.566Z</time>
      </trkpt>
      <trkpt lat="45.92085" lon="6.34624">
        <ele>1794</ele>
        <time>2026-08-19T07:05:02.566Z</time>
      </trkpt>
      <trkpt lat="45.92085" lon="6.34624">
        <ele>1794</ele>
        <time>2026-08-19T07:05:03.566Z</time>
      </trkpt>
      <trkpt lat="45.92085" lon="6.34624">
        <ele>1795</ele>
        <time>2026-08-19T07:05:04.566Z</time>
      </trkpt>
      <trkpt lat="45.92085" lon="6.34624">
        <ele>1795</ele>
        <time>2026-08-19T07:05:05.566Z</time>
      </trkpt>
      <trkpt lat="45.92085" lon="6.34624">
        <ele>1795</ele>
        <time>2026-08-19T07:05:06.566Z</time>
      </trkpt>
      <trkpt lat="45.92085" lon="6.34624">
        <ele>1795</ele>
        <time>2026-08-19T07:05:07.566Z</time>
      </trkpt>
      <trkpt lat="45.92085" lon="6.34624">
        <ele>1795</ele>
        <time>2026-08-19T07:05:08.566Z</time>
      </trkpt>
      <trkpt lat="45.92085" lon="6.34624">
        <ele>1795</ele>
        <time>2026-08-19T07:05:09.566Z</time>
      </trkpt>
      <trkpt lat="45.92085" lon="6.34624">
        <ele>1795</ele>
        <time>2026-08-19T07:05:10.566Z</time>
      </trkpt>
      <trkpt lat="45.92085" lon="6.34624">
        <ele>1796</ele>
        <time>2026-08-19T07:05:11.566Z</time>
      </trkpt>
      <trkpt lat="45.92085" lon="6.34624">
        <ele>1796</ele>
        <time>2026-08-19T07:05:12.566Z</time>
      </trkpt>
      <trkpt lat="45.92085" lon="6.34624">
        <ele>1796</ele>
        <time>2026-08-19T07:05:13.566Z</time>
      </trkpt>
      <trkpt lat="45.92086" lon="6.34624">
        <ele>1796</ele>
        <time>2026-08-19T07:05:14.566Z</time>
      </trkpt>
      <trkpt lat="45.92086" lon="6.34624">
        <ele>1796</ele>
        <time>2026-08-19T07:05:15.566Z</time>
      </trkpt>
      <trkpt lat="45.92086" lon="6.34624">
        <ele>1796</ele>
        <time>2026-08-19T07:05:16.566Z</time>
      </trkpt>
      <trkpt lat="45.92086" lon="6.34624">
        <ele>1796</ele>
        <time>2026-08-19T07:05:17.566Z</time>
      </trkpt>
      <trkpt lat="45.92087" lon="6.34624">
        <ele>1796</ele>
        <time>2026-08-19T07:05:18.566Z</time>
      </trkpt>
      <trkpt lat="45.92087" lon="6.34624">
        <ele>1796</ele>
        <time>2026-08-19T07:05:19.566Z</time>
      </trkpt>
      <trkpt lat="45.92087" lon="6.34624">
        <ele>1796</ele>
        <time>2026-08-19T07:05:20.566Z</time>
      </trkpt>
      <trkpt lat="45.92087" lon="6.34624">
        <ele>1796</ele>
        <time>2026-08-19T07:05:21.566Z</time>
      </trkpt>
      <trkpt lat="45.92088" lon="6.34624">
        <ele>1796</ele>
        <time>2026-08-19T07:05:22.566Z</time>
      </trkpt>
      <trkpt lat="45.92088" lon="6.34624">
        <ele>1796</ele>
        <time>2026-08-19T07:05:23.566Z</time>
      </trkpt>
      <trkpt lat="45.9209" lon="6.34624">
        <ele>1797</ele>
        <time>2026-08-19T07:05:24.566Z</time>
      </trkpt>
      <trkpt lat="45.9209" lon="6.34625">
        <ele>1797</ele>
        <time>2026-08-19T07:05:25.566Z</time>
      </trkpt>
      <trkpt lat="45.92091" lon="6.34625">
        <ele>1797</ele>
        <time>2026-08-19T07:05:26.566Z</time>
      </trkpt>
      <trkpt lat="45.92092" lon="6.34625">
        <ele>1798</ele>
        <time>2026-08-19T07:05:27.566Z</time>
      </trkpt>
      <trkpt lat="45.92092" lon="6.34626">
        <ele>1798</ele>
        <time>2026-08-19T07:05:28.566Z</time>
      </trkpt>
      <trkpt lat="45.92093" lon="6.34626">
        <ele>1799</ele>
        <time>2026-08-19T07:05:29.566Z</time>
      </trkpt>
      <trkpt lat="45.92094" lon="6.34626">
        <ele>1799</ele>
        <time>2026-08-19T07:05:30.566Z</time>
      </trkpt>
      <trkpt lat="45.92094" lon="6.34626">
        <ele>1799</ele>
        <time>2026-08-19T07:05:31.566Z</time>
      </trkpt>
      <trkpt lat="45.92094" lon="6.34625">
        <ele>1799</ele>
        <time>2026-08-19T07:05:32.566Z</time>
      </trkpt>
      <trkpt lat="45.92094" lon="6.34625">
        <ele>1799</ele>
        <time>2026-08-19T07:05:33.566Z</time>
      </trkpt>
      <trkpt lat="45.92094" lon="6.34624">
        <ele>1799</ele>
        <time>2026-08-19T07:05:34.566Z</time>
      </trkpt>
      <trkpt lat="45.92095" lon="6.34624">
        <ele>1800</ele>
        <time>2026-08-19T07:05:35.566Z</time>
      </trkpt>
      <trkpt lat="45.92095" lon="6.34623">
        <ele>1800</ele>
        <time>2026-08-19T07:05:36.566Z</time>
      </trkpt>
      <trkpt lat="45.92095" lon="6.34622">
        <ele>1800</ele>
        <time>2026-08-19T07:05:37.566Z</time>
      </trkpt>
      <trkpt lat="45.92095" lon="6.34622">
        <ele>1801</ele>
        <time>2026-08-19T07:05:38.566Z</time>
      </trkpt>
      <trkpt lat="45.92095" lon="6.34621">
        <ele>1802</ele>
        <time>2026-08-19T07:05:39.566Z</time>
      </trkpt>
      <trkpt lat="45.92095" lon="6.34621">
        <ele>1802</ele>
        <time>2026-08-19T07:05:40.566Z</time>
      </trkpt>
      <trkpt lat="45.92095" lon="6.3462">
        <ele>1803</ele>
        <time>2026-08-19T07:05:41.566Z</time>
      </trkpt>
      <trkpt lat="45.92095" lon="6.34619">
        <ele>1803</ele>
        <time>2026-08-19T07:05:42.566Z</time>
      </trkpt>
      <trkpt lat="45.92096" lon="6.34619">
        <ele>1803</ele>
        <time>2026-08-19T07:05:43.566Z</time>
      </trkpt>
      <trkpt lat="45.92096" lon="6.34619">
        <ele>1804</ele>
        <time>2026-08-19T07:05:44.566Z</time>
      </trkpt>
      <trkpt lat="45.92097" lon="6.34618">
        <ele>1804</ele>
        <time>2026-08-19T07:05:45.566Z</time>
      </trkpt>
      <trkpt lat="45.92097" lon="6.34617">
        <ele>1804</ele>
        <time>2026-08-19T07:05:46.566Z</time>
      </trkpt>
      <trkpt lat="45.92096" lon="6.34617">
        <ele>1804</ele>
        <time>2026-08-19T07:05:47.566Z</time>
      </trkpt>
      <trkpt lat="45.92097" lon="6.34616">
        <ele>1805</ele>
        <time>2026-08-19T07:05:48.566Z</time>
      </trkpt>
      <trkpt lat="45.92097" lon="6.34616">
        <ele>1805</ele>
        <time>2026-08-19T07:05:49.566Z</time>
      </trkpt>
      <trkpt lat="45.92097" lon="6.34615">
        <ele>1805</ele>
        <time>2026-08-19T07:05:50.566Z</time>
      </trkpt>
      <trkpt lat="45.92097" lon="6.34615">
        <ele>1805</ele>
        <time>2026-08-19T07:05:51.566Z</time>
      </trkpt>
      <trkpt lat="45.92097" lon="6.34614">
        <ele>1805</ele>
        <time>2026-08-19T07:05:52.566Z</time>
      </trkpt>
      <trkpt lat="45.92097" lon="6.34614">
        <ele>1805</ele>
        <time>2026-08-19T07:05:53.566Z</time>
      </trkpt>
      <trkpt lat="45.92097" lon="6.34613">
        <ele>1805</ele>
        <time>2026-08-19T07:05:54.566Z</time>
      </trkpt>
      <trkpt lat="45.92097" lon="6.34612">
        <ele>1805</ele>
        <time>2026-08-19T07:05:55.566Z</time>
      </trkpt>
      <trkpt lat="45.92097" lon="6.34612">
        <ele>1805</ele>
        <time>2026-08-19T07:05:56.566Z</time>
      </trkpt>
      <trkpt lat="45.92097" lon="6.34611">
        <ele>1805</ele>
        <time>2026-08-19T07:05:57.566Z</time>
      </trkpt>
      <trkpt lat="45.92097" lon="6.34611">
        <ele>1806</ele>
        <time>2026-08-19T07:05:58.566Z</time>
      </trkpt>
      <trkpt lat="45.92097" lon="6.34611">
        <ele>1806</ele>
        <time>2026-08-19T07:05:59.566Z</time>
      </trkpt>
      <trkpt lat="45.92097" lon="6.3461">
        <ele>1806</ele>
        <time>2026-08-19T07:06:00.566Z</time>
      </trkpt>
      <trkpt lat="45.92097" lon="6.34609">
        <ele>1807</ele>
        <time>2026-08-19T07:06:01.566Z</time>
      </trkpt>
      <trkpt lat="45.92097" lon="6.34609">
        <ele>1807</ele>
        <time>2026-08-19T07:06:02.566Z</time>
      </trkpt>
      <trkpt lat="45.92097" lon="6.34609">
        <ele>1807</ele>
        <time>2026-08-19T07:06:03.566Z</time>
      </trkpt>
      <trkpt lat="45.92097" lon="6.34609">
        <ele>1808</ele>
        <time>2026-08-19T07:06:04.566Z</time>
      </trkpt>
      <trkpt lat="45.92097" lon="6.34609">
        <ele>1809</ele>
        <time>2026-08-19T07:06:05.566Z</time>
      </trkpt>
      <trkpt lat="45.92097" lon="6.34609">
        <ele>1809</ele>
        <time>2026-08-19T07:06:06.566Z</time>
      </trkpt>
      <trkpt lat="45.92097" lon="6.34609">
        <ele>1809</ele>
        <time>2026-08-19T07:06:07.566Z</time>
      </trkpt>
      <trkpt lat="45.92097" lon="6.34608">
        <ele>1810</ele>
        <time>2026-08-19T07:06:08.566Z</time>
      </trkpt>
      <trkpt lat="45.92097" lon="6.34607">
        <ele>1810</ele>
        <time>2026-08-19T07:06:09.566Z</time>
      </trkpt>
      <trkpt lat="45.92097" lon="6.34607">
        <ele>1810</ele>
        <time>2026-08-19T07:06:10.566Z</time>
      </trkpt>
      <trkpt lat="45.92097" lon="6.34606">
        <ele>1810</ele>
        <time>2026-08-19T07:06:11.566Z</time>
      </trkpt>
      <trkpt lat="45.92097" lon="6.34606">
        <ele>1810</ele>
        <time>2026-08-19T07:06:12.566Z</time>
      </trkpt>
      <trkpt lat="45.92097" lon="6.34605">
        <ele>1810</ele>
        <time>2026-08-19T07:06:13.566Z</time>
      </trkpt>
      <trkpt lat="45.92097" lon="6.34604">
        <ele>1810</ele>
        <time>2026-08-19T07:06:14.566Z</time>
      </trkpt>
      <trkpt lat="45.92097" lon="6.34604">
        <ele>1811</ele>
        <time>2026-08-19T07:06:15.566Z</time>
      </trkpt>
      <trkpt lat="45.92097" lon="6.34603">
        <ele>1811</ele>
        <time>2026-08-19T07:06:16.566Z</time>
      </trkpt>
      <trkpt lat="45.92097" lon="6.34602">
        <ele>1811</ele>
        <time>2026-08-19T07:06:17.566Z</time>
      </trkpt>
      <trkpt lat="45.92097" lon="6.34602">
        <ele>1811</ele>
        <time>2026-08-19T07:06:18.566Z</time>
      </trkpt>
      <trkpt lat="45.92097" lon="6.34601">
        <ele>1811</ele>
        <time>2026-08-19T07:06:19.566Z</time>
      </trkpt>
      <trkpt lat="45.92097" lon="6.34601">
        <ele>1811</ele>
        <time>2026-08-19T07:06:20.566Z</time>
      </trkpt>
      <trkpt lat="45.92097" lon="6.346">
        <ele>1811</ele>
        <time>2026-08-19T07:06:21.566Z</time>
      </trkpt>
      <trkpt lat="45.92097" lon="6.346">
        <ele>1811</ele>
        <time>2026-08-19T07:06:22.566Z</time>
      </trkpt>
      <trkpt lat="45.92097" lon="6.34599">
        <ele>1811</ele>
        <time>2026-08-19T07:06:23.566Z</time>
      </trkpt>
      <trkpt lat="45.92097" lon="6.34599">
        <ele>1811</ele>
        <time>2026-08-19T07:06:24.566Z</time>
      </trkpt>
      <trkpt lat="45.92097" lon="6.34598">
        <ele>1811</ele>
        <time>2026-08-19T07:06:25.566Z</time>
      </trkpt>
      <trkpt lat="45.92097" lon="6.34598">
        <ele>1811</ele>
        <time>2026-08-19T07:06:26.566Z</time>
      </trkpt>
      <trkpt lat="45.92097" lon="6.34598">
        <ele>1811</ele>
        <time>2026-08-19T07:06:27.566Z</time>
      </trkpt>
      <trkpt lat="45.92097" lon="6.34597">
        <ele>1811</ele>
        <time>2026-08-19T07:06:28.566Z</time>
      </trkpt>
      <trkpt lat="45.92097" lon="6.34597">
        <ele>1811</ele>
        <time>2026-08-19T07:06:29.566Z</time>
      </trkpt>
      <trkpt lat="45.92097" lon="6.34596">
        <ele>1811</ele>
        <time>2026-08-19T07:06:30.566Z</time>
      </trkpt>
      <trkpt lat="45.92098" lon="6.34596">
        <ele>1811</ele>
        <time>2026-08-19T07:06:31.566Z</time>
      </trkpt>
      <trkpt lat="45.92099" lon="6.34596">
        <ele>1812</ele>
        <time>2026-08-19T07:06:32.566Z</time>
      </trkpt>
      <trkpt lat="45.92098" lon="6.34596">
        <ele>1812</ele>
        <time>2026-08-19T07:06:33.566Z</time>
      </trkpt>
      <trkpt lat="45.92098" lon="6.34596">
        <ele>1812</ele>
        <time>2026-08-19T07:06:34.566Z</time>
      </trkpt>
      <trkpt lat="45.92098" lon="6.34595">
        <ele>1813</ele>
        <time>2026-08-19T07:06:35.566Z</time>
      </trkpt>
      <trkpt lat="45.92098" lon="6.34595">
        <ele>1814</ele>
        <time>2026-08-19T07:06:36.566Z</time>
      </trkpt>
      <trkpt lat="45.92099" lon="6.34594">
        <ele>1814</ele>
        <time>2026-08-19T07:06:37.566Z</time>
      </trkpt>
      <trkpt lat="45.92099" lon="6.34594">
        <ele>1815</ele>
        <time>2026-08-19T07:06:38.566Z</time>
      </trkpt>
      <trkpt lat="45.92099" lon="6.34594">
        <ele>1815</ele>
        <time>2026-08-19T07:06:39.566Z</time>
      </trkpt>
      <trkpt lat="45.92099" lon="6.34593">
        <ele>1816</ele>
        <time>2026-08-19T07:06:40.566Z</time>
      </trkpt>
      <trkpt lat="45.92099" lon="6.34593">
        <ele>1817</ele>
        <time>2026-08-19T07:06:41.566Z</time>
      </trkpt>
      <trkpt lat="45.92099" lon="6.34593">
        <ele>1817</ele>
        <time>2026-08-19T07:06:42.566Z</time>
      </trkpt>
      <trkpt lat="45.921" lon="6.34593">
        <ele>1818</ele>
        <time>2026-08-19T07:06:43.566Z</time>
      </trkpt>
      <trkpt lat="45.921" lon="6.34593">
        <ele>1818</ele>
        <time>2026-08-19T07:06:44.567Z</time>
      </trkpt>
      <trkpt lat="45.92101" lon="6.34593">
        <ele>1819</ele>
        <time>2026-08-19T07:06:45.566Z</time>
      </trkpt>
      <trkpt lat="45.92101" lon="6.34593">
        <ele>1819</ele>
        <time>2026-08-19T07:06:46.566Z</time>
      </trkpt>
      <trkpt lat="45.92102" lon="6.34592">
        <ele>1820</ele>
        <time>2026-08-19T07:06:47.566Z</time>
      </trkpt>
      <trkpt lat="45.92102" lon="6.34592">
        <ele>1820</ele>
        <time>2026-08-19T07:06:48.566Z</time>
      </trkpt>
      <trkpt lat="45.92102" lon="6.34592">
        <ele>1821</ele>
        <time>2026-08-19T07:06:49.566Z</time>
      </trkpt>
      <trkpt lat="45.92102" lon="6.34591">
        <ele>1821</ele>
        <time>2026-08-19T07:06:50.566Z</time>
      </trkpt>
      <trkpt lat="45.92103" lon="6.34591">
        <ele>1821</ele>
        <time>2026-08-19T07:06:51.566Z</time>
      </trkpt>
      <trkpt lat="45.92103" lon="6.3459">
        <ele>1821</ele>
        <time>2026-08-19T07:06:52.566Z</time>
      </trkpt>
      <trkpt lat="45.92103" lon="6.3459">
        <ele>1821</ele>
        <time>2026-08-19T07:06:53.566Z</time>
      </trkpt>
      <trkpt lat="45.92103" lon="6.34589">
        <ele>1821</ele>
        <time>2026-08-19T07:06:54.566Z</time>
      </trkpt>
      <trkpt lat="45.92104" lon="6.34589">
        <ele>1821</ele>
        <time>2026-08-19T07:06:55.566Z</time>
      </trkpt>
      <trkpt lat="45.92105" lon="6.34588">
        <ele>1821</ele>
        <time>2026-08-19T07:06:56.566Z</time>
      </trkpt>
      <trkpt lat="45.92105" lon="6.34588">
        <ele>1821</ele>
        <time>2026-08-19T07:06:57.566Z</time>
      </trkpt>
      <trkpt lat="45.92105" lon="6.34588">
        <ele>1821</ele>
        <time>2026-08-19T07:06:58.566Z</time>
      </trkpt>
      <trkpt lat="45.92106" lon="6.34588">
        <ele>1822</ele>
        <time>2026-08-19T07:06:59.566Z</time>
      </trkpt>
      <trkpt lat="45.92106" lon="6.34588">
        <ele>1822</ele>
        <time>2026-08-19T07:07:00.566Z</time>
      </trkpt>
      <trkpt lat="45.92106" lon="6.34587">
        <ele>1822</ele>
        <time>2026-08-19T07:07:01.566Z</time>
      </trkpt>
      <trkpt lat="45.92106" lon="6.34587">
        <ele>1822</ele>
        <time>2026-08-19T07:07:02.566Z</time>
      </trkpt>
      <trkpt lat="45.92106" lon="6.34587">
        <ele>1823</ele>
        <time>2026-08-19T07:07:03.566Z</time>
      </trkpt>
      <trkpt lat="45.92106" lon="6.34587">
        <ele>1823</ele>
        <time>2026-08-19T07:07:04.566Z</time>
      </trkpt>
      <trkpt lat="45.92106" lon="6.34587">
        <ele>1823</ele>
        <time>2026-08-19T07:07:05.566Z</time>
      </trkpt>
      <trkpt lat="45.92106" lon="6.34587">
        <ele>1823</ele>
        <time>2026-08-19T07:07:06.566Z</time>
      </trkpt>
      <trkpt lat="45.92106" lon="6.34587">
        <ele>1823</ele>
        <time>2026-08-19T07:07:07.566Z</time>
      </trkpt>
      <trkpt lat="45.92106" lon="6.34587">
        <ele>1824</ele>
        <time>2026-08-19T07:07:08.566Z</time>
      </trkpt>
      <trkpt lat="45.92106" lon="6.34587">
        <ele>1824</ele>
        <time>2026-08-19T07:07:09.566Z</time>
      </trkpt>
      <trkpt lat="45.92106" lon="6.34587">
        <ele>1824</ele>
        <time>2026-08-19T07:07:10.566Z</time>
      </trkpt>
      <trkpt lat="45.92106" lon="6.34587">
        <ele>1824</ele>
        <time>2026-08-19T07:07:11.566Z</time>
      </trkpt>
      <trkpt lat="45.92106" lon="6.34587">
        <ele>1824</ele>
        <time>2026-08-19T07:07:12.566Z</time>
      </trkpt>
      <trkpt lat="45.92106" lon="6.34587">
        <ele>1824</ele>
        <time>2026-08-19T07:07:13.566Z</time>
      </trkpt>
      <trkpt lat="45.92106" lon="6.34587">
        <ele>1824</ele>
        <time>2026-08-19T07:07:14.566Z</time>
      </trkpt>
      <trkpt lat="45.92106" lon="6.34587">
        <ele>1823</ele>
        <time>2026-08-19T07:07:15.566Z</time>
      </trkpt>
      <trkpt lat="45.92106" lon="6.34587">
        <ele>1823</ele>
        <time>2026-08-19T07:07:16.566Z</time>
      </trkpt>
      <trkpt lat="45.92106" lon="6.34587">
        <ele>1823</ele>
        <time>2026-08-19T07:07:17.566Z</time>
      </trkpt>
      <trkpt lat="45.92106" lon="6.34587">
        <ele>1823</ele>
        <time>2026-08-19T07:07:18.566Z</time>
      </trkpt>
      <trkpt lat="45.92106" lon="6.34587">
        <ele>1823</ele>
        <time>2026-08-19T07:07:19.566Z</time>
      </trkpt>
      <trkpt lat="45.92106" lon="6.34587">
        <ele>1823</ele>
        <time>2026-08-19T07:07:20.566Z</time>
      </trkpt>
      <trkpt lat="45.92106" lon="6.34587">
        <ele>1823</ele>
        <time>2026-08-19T07:07:21.566Z</time>
      </trkpt>
      <trkpt lat="45.92106" lon="6.34587">
        <ele>1823</ele>
        <time>2026-08-19T07:07:22.566Z</time>
      </trkpt>
      <trkpt lat="45.92106" lon="6.34587">
        <ele>1823</ele>
        <time>2026-08-19T07:07:23.566Z</time>
      </trkpt>
      <trkpt lat="45.92107" lon="6.34588">
        <ele>1823</ele>
        <time>2026-08-19T07:07:24.566Z</time>
      </trkpt>
      <trkpt lat="45.92107" lon="6.3459">
        <ele>1823</ele>
        <time>2026-08-19T07:07:25.566Z</time>
      </trkpt>
      <trkpt lat="45.92107" lon="6.34592">
        <ele>1823</ele>
        <time>2026-08-19T07:07:26.566Z</time>
      </trkpt>
      <trkpt lat="45.92108" lon="6.34593">
        <ele>1823</ele>
        <time>2026-08-19T07:07:27.566Z</time>
      </trkpt>
      <trkpt lat="45.92109" lon="6.34595">
        <ele>1824</ele>
        <time>2026-08-19T07:07:28.566Z</time>
      </trkpt>
      <trkpt lat="45.92109" lon="6.34597">
        <ele>1824</ele>
        <time>2026-08-19T07:07:29.566Z</time>
      </trkpt>
      <trkpt lat="45.9211" lon="6.34598">
        <ele>1824</ele>
        <time>2026-08-19T07:07:30.566Z</time>
      </trkpt>
      <trkpt lat="45.92111" lon="6.346">
        <ele>1825</ele>
        <time>2026-08-19T07:07:31.566Z</time>
      </trkpt>
      <trkpt lat="45.92111" lon="6.34601">
        <ele>1825</ele>
        <time>2026-08-19T07:07:32.566Z</time>
      </trkpt>
      <trkpt lat="45.92112" lon="6.34603">
        <ele>1825</ele>
        <time>2026-08-19T07:07:33.566Z</time>
      </trkpt>
      <trkpt lat="45.92113" lon="6.34604">
        <ele>1826</ele>
        <time>2026-08-19T07:07:34.566Z</time>
      </trkpt>
      <trkpt lat="45.92113" lon="6.34605">
        <ele>1826</ele>
        <time>2026-08-19T07:07:35.566Z</time>
      </trkpt>
      <trkpt lat="45.92113" lon="6.34605">
        <ele>1826</ele>
        <time>2026-08-19T07:07:36.566Z</time>
      </trkpt>
      <trkpt lat="45.92114" lon="6.34606">
        <ele>1826</ele>
        <time>2026-08-19T07:07:37.566Z</time>
      </trkpt>
      <trkpt lat="45.92114" lon="6.34607">
        <ele>1826</ele>
        <time>2026-08-19T07:07:38.566Z</time>
      </trkpt>
      <trkpt lat="45.92114" lon="6.34607">
        <ele>1826</ele>
        <time>2026-08-19T07:07:39.566Z</time>
      </trkpt>
      <trkpt lat="45.92114" lon="6.34607">
        <ele>1826</ele>
        <time>2026-08-19T07:07:40.566Z</time>
      </trkpt>
      <trkpt lat="45.92114" lon="6.34608">
        <ele>1826</ele>
        <time>2026-08-19T07:07:41.566Z</time>
      </trkpt>
      <trkpt lat="45.92113" lon="6.34608">
        <ele>1827</ele>
        <time>2026-08-19T07:07:42.566Z</time>
      </trkpt>
      <trkpt lat="45.92113" lon="6.34608">
        <ele>1827</ele>
        <time>2026-08-19T07:07:43.566Z</time>
      </trkpt>
      <trkpt lat="45.92113" lon="6.34609">
        <ele>1827</ele>
        <time>2026-08-19T07:07:44.566Z</time>
      </trkpt>
      <trkpt lat="45.92113" lon="6.34609">
        <ele>1827</ele>
        <time>2026-08-19T07:07:45.566Z</time>
      </trkpt>
      <trkpt lat="45.92113" lon="6.34609">
        <ele>1827</ele>
        <time>2026-08-19T07:07:46.566Z</time>
      </trkpt>
      <trkpt lat="45.92113" lon="6.3461">
        <ele>1826</ele>
        <time>2026-08-19T07:07:47.566Z</time>
      </trkpt>
      <trkpt lat="45.92113" lon="6.3461">
        <ele>1826</ele>
        <time>2026-08-19T07:07:48.566Z</time>
      </trkpt>
      <trkpt lat="45.92113" lon="6.3461">
        <ele>1826</ele>
        <time>2026-08-19T07:07:49.566Z</time>
      </trkpt>
      <trkpt lat="45.92113" lon="6.34611">
        <ele>1826</ele>
        <time>2026-08-19T07:07:50.566Z</time>
      </trkpt>
      <trkpt lat="45.92113" lon="6.34611">
        <ele>1825</ele>
        <time>2026-08-19T07:07:51.566Z</time>
      </trkpt>
      <trkpt lat="45.92113" lon="6.34611">
        <ele>1825</ele>
        <time>2026-08-19T07:07:52.566Z</time>
      </trkpt>
      <trkpt lat="45.92114" lon="6.34611">
        <ele>1825</ele>
        <time>2026-08-19T07:07:53.566Z</time>
      </trkpt>
      <trkpt lat="45.92114" lon="6.34611">
        <ele>1825</ele>
        <time>2026-08-19T07:07:54.566Z</time>
      </trkpt>
      <trkpt lat="45.92115" lon="6.34611">
        <ele>1825</ele>
        <time>2026-08-19T07:07:55.566Z</time>
      </trkpt>
      <trkpt lat="45.92116" lon="6.34612">
        <ele>1824</ele>
        <time>2026-08-19T07:07:56.566Z</time>
      </trkpt>
      <trkpt lat="45.92117" lon="6.34612">
        <ele>1824</ele>
        <time>2026-08-19T07:07:57.566Z</time>
      </trkpt>
      <trkpt lat="45.92118" lon="6.34612">
        <ele>1824</ele>
        <time>2026-08-19T07:07:58.566Z</time>
      </trkpt>
      <trkpt lat="45.92118" lon="6.34612">
        <ele>1824</ele>
        <time>2026-08-19T07:07:59.566Z</time>
      </trkpt>
      <trkpt lat="45.92119" lon="6.34613">
        <ele>1823</ele>
        <time>2026-08-19T07:08:00.566Z</time>
      </trkpt>
      <trkpt lat="45.9212" lon="6.34613">
        <ele>1823</ele>
        <time>2026-08-19T07:08:01.566Z</time>
      </trkpt>
      <trkpt lat="45.92121" lon="6.34614">
        <ele>1823</ele>
        <time>2026-08-19T07:08:02.566Z</time>
      </trkpt>
      <trkpt lat="45.92121" lon="6.34614">
        <ele>1823</ele>
        <time>2026-08-19T07:08:03.566Z</time>
      </trkpt>
      <trkpt lat="45.92122" lon="6.34615">
        <ele>1823</ele>
        <time>2026-08-19T07:08:04.566Z</time>
      </trkpt>
      <trkpt lat="45.92122" lon="6.34615">
        <ele>1823</ele>
        <time>2026-08-19T07:08:05.566Z</time>
      </trkpt>
      <trkpt lat="45.92122" lon="6.34616">
        <ele>1823</ele>
        <time>2026-08-19T07:08:06.566Z</time>
      </trkpt>
      <trkpt lat="45.92122" lon="6.34616">
        <ele>1823</ele>
        <time>2026-08-19T07:08:07.566Z</time>
      </trkpt>
      <trkpt lat="45.92122" lon="6.34617">
        <ele>1823</ele>
        <time>2026-08-19T07:08:08.566Z</time>
      </trkpt>
      <trkpt lat="45.92123" lon="6.34617">
        <ele>1823</ele>
        <time>2026-08-19T07:08:09.566Z</time>
      </trkpt>
      <trkpt lat="45.92123" lon="6.34617">
        <ele>1823</ele>
        <time>2026-08-19T07:08:10.566Z</time>
      </trkpt>
      <trkpt lat="45.92123" lon="6.34618">
        <ele>1823</ele>
        <time>2026-08-19T07:08:11.566Z</time>
      </trkpt>
      <trkpt lat="45.92123" lon="6.34618">
        <ele>1823</ele>
        <time>2026-08-19T07:08:12.566Z</time>
      </trkpt>
      <trkpt lat="45.92124" lon="6.34618">
        <ele>1823</ele>
        <time>2026-08-19T07:08:13.566Z</time>
      </trkpt>
      <trkpt lat="45.92124" lon="6.34618">
        <ele>1823</ele>
        <time>2026-08-19T07:08:14.566Z</time>
      </trkpt>
      <trkpt lat="45.92124" lon="6.34618">
        <ele>1823</ele>
        <time>2026-08-19T07:08:15.566Z</time>
      </trkpt>
      <trkpt lat="45.92124" lon="6.34618">
        <ele>1823</ele>
        <time>2026-08-19T07:08:16.566Z</time>
      </trkpt>
      <trkpt lat="45.92124" lon="6.34619">
        <ele>1823</ele>
        <time>2026-08-19T07:08:17.566Z</time>
      </trkpt>
      <trkpt lat="45.92125" lon="6.34619">
        <ele>1823</ele>
        <time>2026-08-19T07:08:18.566Z</time>
      </trkpt>
      <trkpt lat="45.92125" lon="6.34619">
        <ele>1823</ele>
        <time>2026-08-19T07:08:19.566Z</time>
      </trkpt>
      <trkpt lat="45.92126" lon="6.34619">
        <ele>1823</ele>
        <time>2026-08-19T07:08:20.566Z</time>
      </trkpt>
      <trkpt lat="45.92126" lon="6.3462">
        <ele>1823</ele>
        <time>2026-08-19T07:08:21.566Z</time>
      </trkpt>
      <trkpt lat="45.92126" lon="6.3462">
        <ele>1823</ele>
        <time>2026-08-19T07:08:22.566Z</time>
      </trkpt>
      <trkpt lat="45.92126" lon="6.3462">
        <ele>1823</ele>
        <time>2026-08-19T07:08:23.566Z</time>
      </trkpt>
      <trkpt lat="45.92126" lon="6.3462">
        <ele>1823</ele>
        <time>2026-08-19T07:08:24.566Z</time>
      </trkpt>
      <trkpt lat="45.92126" lon="6.3462">
        <ele>1823</ele>
        <time>2026-08-19T07:08:25.566Z</time>
      </trkpt>
      <trkpt lat="45.92126" lon="6.3462">
        <ele>1823</ele>
        <time>2026-08-19T07:08:26.566Z</time>
      </trkpt>
      <trkpt lat="45.92126" lon="6.3462">
        <ele>1823</ele>
        <time>2026-08-19T07:08:27.566Z</time>
      </trkpt>
      <trkpt lat="45.92126" lon="6.3462">
        <ele>1823</ele>
        <time>2026-08-19T07:08:28.566Z</time>
      </trkpt>
      <trkpt lat="45.92126" lon="6.3462">
        <ele>1823</ele>
        <time>2026-08-19T07:08:29.566Z</time>
      </trkpt>
      <trkpt lat="45.92126" lon="6.3462">
        <ele>1823</ele>
        <time>2026-08-19T07:08:30.566Z</time>
      </trkpt>
      <trkpt lat="45.92126" lon="6.3462">
        <ele>1823</ele>
        <time>2026-08-19T07:08:31.566Z</time>
      </trkpt>
      <trkpt lat="45.92126" lon="6.3462">
        <ele>1823</ele>
        <time>2026-08-19T07:08:32.566Z</time>
      </trkpt>
      <trkpt lat="45.92126" lon="6.3462">
        <ele>1823</ele>
        <time>2026-08-19T07:08:33.566Z</time>
      </trkpt>
      <trkpt lat="45.92126" lon="6.3462">
        <ele>1823</ele>
        <time>2026-08-19T07:08:34.566Z</time>
      </trkpt>
      <trkpt lat="45.92126" lon="6.3462">
        <ele>1823</ele>
        <time>2026-08-19T07:08:35.566Z</time>
      </trkpt>
      <trkpt lat="45.92126" lon="6.3462">
        <ele>1823</ele>
        <time>2026-08-19T07:08:36.566Z</time>
      </trkpt>
      <trkpt lat="45.92126" lon="6.3462">
        <ele>1823</ele>
        <time>2026-08-19T07:08:37.566Z</time>
      </trkpt>
      <trkpt lat="45.92126" lon="6.3462">
        <ele>1823</ele>
        <time>2026-08-19T07:08:38.566Z</time>
      </trkpt>
      <trkpt lat="45.92126" lon="6.3462">
        <ele>1823</ele>
        <time>2026-08-19T07:08:39.566Z</time>
      </trkpt>
      <trkpt lat="45.92127" lon="6.34619">
        <ele>1823</ele>
        <time>2026-08-19T07:08:40.566Z</time>
      </trkpt>
      <trkpt lat="45.92127" lon="6.34619">
        <ele>1823</ele>
        <time>2026-08-19T07:08:41.566Z</time>
      </trkpt>
      <trkpt lat="45.92127" lon="6.34619">
        <ele>1823</ele>
        <time>2026-08-19T07:08:42.566Z</time>
      </trkpt>
      <trkpt lat="45.92127" lon="6.34619">
        <ele>1823</ele>
        <time>2026-08-19T07:08:43.566Z</time>
      </trkpt>
      <trkpt lat="45.92127" lon="6.34619">
        <ele>1823</ele>
        <time>2026-08-19T07:08:44.566Z</time>
      </trkpt>
      <trkpt lat="45.92127" lon="6.34619">
        <ele>1823</ele>
        <time>2026-08-19T07:08:45.566Z</time>
      </trkpt>
      <trkpt lat="45.92127" lon="6.34619">
        <ele>1823</ele>
        <time>2026-08-19T07:08:46.566Z</time>
      </trkpt>
      <trkpt lat="45.92128" lon="6.34619">
        <ele>1823</ele>
        <time>2026-08-19T07:08:47.566Z</time>
      </trkpt>
      <trkpt lat="45.92128" lon="6.34619">
        <ele>1823</ele>
        <time>2026-08-19T07:08:48.566Z</time>
      </trkpt>
      <trkpt lat="45.92129" lon="6.3462">
        <ele>1823</ele>
        <time>2026-08-19T07:08:49.566Z</time>
      </trkpt>
      <trkpt lat="45.92131" lon="6.3462">
        <ele>1823</ele>
        <time>2026-08-19T07:08:50.566Z</time>
      </trkpt>
      <trkpt lat="45.92132" lon="6.34621">
        <ele>1823</ele>
        <time>2026-08-19T07:08:51.566Z</time>
      </trkpt>
      <trkpt lat="45.92133" lon="6.34621">
        <ele>1824</ele>
        <time>2026-08-19T07:08:52.566Z</time>
      </trkpt>
      <trkpt lat="45.92135" lon="6.34621">
        <ele>1824</ele>
        <time>2026-08-19T07:08:53.566Z</time>
      </trkpt>
      <trkpt lat="45.92136" lon="6.34622">
        <ele>1824</ele>
        <time>2026-08-19T07:08:54.566Z</time>
      </trkpt>
      <trkpt lat="45.92137" lon="6.34622">
        <ele>1824</ele>
        <time>2026-08-19T07:08:55.566Z</time>
      </trkpt>
      <trkpt lat="45.92138" lon="6.34623">
        <ele>1824</ele>
        <time>2026-08-19T07:08:56.566Z</time>
      </trkpt>
      <trkpt lat="45.92139" lon="6.34623">
        <ele>1824</ele>
        <time>2026-08-19T07:08:57.566Z</time>
      </trkpt>
      <trkpt lat="45.9214" lon="6.34623">
        <ele>1824</ele>
        <time>2026-08-19T07:08:58.566Z</time>
      </trkpt>
      <trkpt lat="45.92141" lon="6.34624">
        <ele>1824</ele>
        <time>2026-08-19T07:08:59.566Z</time>
      </trkpt>
      <trkpt lat="45.92142" lon="6.34624">
        <ele>1824</ele>
        <time>2026-08-19T07:09:00.566Z</time>
      </trkpt>
      <trkpt lat="45.92143" lon="6.34624">
        <ele>1824</ele>
        <time>2026-08-19T07:09:01.566Z</time>
      </trkpt>
      <trkpt lat="45.92143" lon="6.34625">
        <ele>1825</ele>
        <time>2026-08-19T07:09:02.566Z</time>
      </trkpt>
      <trkpt lat="45.92143" lon="6.34625">
        <ele>1825</ele>
        <time>2026-08-19T07:09:03.567Z</time>
      </trkpt>
      <trkpt lat="45.92144" lon="6.34626">
        <ele>1825</ele>
        <time>2026-08-19T07:09:04.566Z</time>
      </trkpt>
      <trkpt lat="45.92144" lon="6.34626">
        <ele>1826</ele>
        <time>2026-08-19T07:09:05.566Z</time>
      </trkpt>
      <trkpt lat="45.92145" lon="6.34626">
        <ele>1826</ele>
        <time>2026-08-19T07:09:06.566Z</time>
      </trkpt>
      <trkpt lat="45.92145" lon="6.34626">
        <ele>1827</ele>
        <time>2026-08-19T07:09:07.566Z</time>
      </trkpt>
      <trkpt lat="45.92146" lon="6.34626">
        <ele>1828</ele>
        <time>2026-08-19T07:09:08.566Z</time>
      </trkpt>
      <trkpt lat="45.92146" lon="6.34626">
        <ele>1828</ele>
        <time>2026-08-19T07:09:09.566Z</time>
      </trkpt>
      <trkpt lat="45.92147" lon="6.34626">
        <ele>1829</ele>
        <time>2026-08-19T07:09:10.566Z</time>
      </trkpt>
      <trkpt lat="45.92147" lon="6.34626">
        <ele>1829</ele>
        <time>2026-08-19T07:09:11.566Z</time>
      </trkpt>
      <trkpt lat="45.92148" lon="6.34626">
        <ele>1830</ele>
        <time>2026-08-19T07:09:12.566Z</time>
      </trkpt>
      <trkpt lat="45.92148" lon="6.34626">
        <ele>1831</ele>
        <time>2026-08-19T07:09:13.566Z</time>
      </trkpt>
      <trkpt lat="45.92148" lon="6.34626">
        <ele>1831</ele>
        <time>2026-08-19T07:09:14.566Z</time>
      </trkpt>
      <trkpt lat="45.92149" lon="6.34626">
        <ele>1832</ele>
        <time>2026-08-19T07:09:15.566Z</time>
      </trkpt>
      <trkpt lat="45.92149" lon="6.34626">
        <ele>1832</ele>
        <time>2026-08-19T07:09:16.566Z</time>
      </trkpt>
      <trkpt lat="45.92149" lon="6.34625">
        <ele>1832</ele>
        <time>2026-08-19T07:09:17.566Z</time>
      </trkpt>
      <trkpt lat="45.9215" lon="6.34625">
        <ele>1833</ele>
        <time>2026-08-19T07:09:18.566Z</time>
      </trkpt>
      <trkpt lat="45.9215" lon="6.34625">
        <ele>1833</ele>
        <time>2026-08-19T07:09:19.566Z</time>
      </trkpt>
      <trkpt lat="45.92151" lon="6.34626">
        <ele>1833</ele>
        <time>2026-08-19T07:09:20.566Z</time>
      </trkpt>
      <trkpt lat="45.92151" lon="6.34626">
        <ele>1833</ele>
        <time>2026-08-19T07:09:21.566Z</time>
      </trkpt>
      <trkpt lat="45.92151" lon="6.34626">
        <ele>1834</ele>
        <time>2026-08-19T07:09:22.566Z</time>
      </trkpt>
      <trkpt lat="45.92152" lon="6.34625">
        <ele>1834</ele>
        <time>2026-08-19T07:09:23.566Z</time>
      </trkpt>
      <trkpt lat="45.92152" lon="6.34625">
        <ele>1834</ele>
        <time>2026-08-19T07:09:24.566Z</time>
      </trkpt>
      <trkpt lat="45.92153" lon="6.34625">
        <ele>1833</ele>
        <time>2026-08-19T07:09:25.566Z</time>
      </trkpt>
      <trkpt lat="45.92153" lon="6.34626">
        <ele>1833</ele>
        <time>2026-08-19T07:09:26.566Z</time>
      </trkpt>
      <trkpt lat="45.92154" lon="6.34626">
        <ele>1834</ele>
        <time>2026-08-19T07:09:27.566Z</time>
      </trkpt>
      <trkpt lat="45.92154" lon="6.34627">
        <ele>1834</ele>
        <time>2026-08-19T07:09:28.566Z</time>
      </trkpt>
      <trkpt lat="45.92154" lon="6.34627">
        <ele>1834</ele>
        <time>2026-08-19T07:09:29.566Z</time>
      </trkpt>
      <trkpt lat="45.92154" lon="6.34627">
        <ele>1835</ele>
        <time>2026-08-19T07:09:30.566Z</time>
      </trkpt>
      <trkpt lat="45.92155" lon="6.34628">
        <ele>1835</ele>
        <time>2026-08-19T07:09:31.566Z</time>
      </trkpt>
      <trkpt lat="45.92155" lon="6.3463">
        <ele>1835</ele>
        <time>2026-08-19T07:09:32.566Z</time>
      </trkpt>
      <trkpt lat="45.92155" lon="6.3463">
        <ele>1836</ele>
        <time>2026-08-19T07:09:33.566Z</time>
      </trkpt>
      <trkpt lat="45.92156" lon="6.34631">
        <ele>1836</ele>
        <time>2026-08-19T07:09:34.566Z</time>
      </trkpt>
      <trkpt lat="45.92157" lon="6.34631">
        <ele>1836</ele>
        <time>2026-08-19T07:09:35.566Z</time>
      </trkpt>
      <trkpt lat="45.92157" lon="6.34632">
        <ele>1836</ele>
        <time>2026-08-19T07:09:36.566Z</time>
      </trkpt>
      <trkpt lat="45.92158" lon="6.34633">
        <ele>1836</ele>
        <time>2026-08-19T07:09:37.566Z</time>
      </trkpt>
      <trkpt lat="45.92158" lon="6.34633">
        <ele>1837</ele>
        <time>2026-08-19T07:09:38.566Z</time>
      </trkpt>
      <trkpt lat="45.92158" lon="6.34634">
        <ele>1837</ele>
        <time>2026-08-19T07:09:39.566Z</time>
      </trkpt>
      <trkpt lat="45.92158" lon="6.34634">
        <ele>1838</ele>
        <time>2026-08-19T07:09:40.566Z</time>
      </trkpt>
      <trkpt lat="45.92159" lon="6.34634">
        <ele>1838</ele>
        <time>2026-08-19T07:09:41.566Z</time>
      </trkpt>
      <trkpt lat="45.92159" lon="6.34635">
        <ele>1838</ele>
        <time>2026-08-19T07:09:42.566Z</time>
      </trkpt>
      <trkpt lat="45.92159" lon="6.34635">
        <ele>1839</ele>
        <time>2026-08-19T07:09:43.566Z</time>
      </trkpt>
      <trkpt lat="45.92159" lon="6.34636">
        <ele>1839</ele>
        <time>2026-08-19T07:09:44.566Z</time>
      </trkpt>
      <trkpt lat="45.92159" lon="6.34637">
        <ele>1839</ele>
        <time>2026-08-19T07:09:45.566Z</time>
      </trkpt>
      <trkpt lat="45.92158" lon="6.34638">
        <ele>1840</ele>
        <time>2026-08-19T07:09:46.566Z</time>
      </trkpt>
      <trkpt lat="45.92158" lon="6.34638">
        <ele>1840</ele>
        <time>2026-08-19T07:09:47.566Z</time>
      </trkpt>
      <trkpt lat="45.92158" lon="6.34638">
        <ele>1840</ele>
        <time>2026-08-19T07:09:48.566Z</time>
      </trkpt>
      <trkpt lat="45.92159" lon="6.34639">
        <ele>1840</ele>
        <time>2026-08-19T07:09:49.566Z</time>
      </trkpt>
      <trkpt lat="45.92159" lon="6.34639">
        <ele>1840</ele>
        <time>2026-08-19T07:09:50.566Z</time>
      </trkpt>
      <trkpt lat="45.92159" lon="6.34639">
        <ele>1840</ele>
        <time>2026-08-19T07:09:51.566Z</time>
      </trkpt>
      <trkpt lat="45.92158" lon="6.34639">
        <ele>1840</ele>
        <time>2026-08-19T07:09:52.566Z</time>
      </trkpt>
      <trkpt lat="45.92158" lon="6.34639">
        <ele>1840</ele>
        <time>2026-08-19T07:09:53.566Z</time>
      </trkpt>
      <trkpt lat="45.92158" lon="6.34639">
        <ele>1840</ele>
        <time>2026-08-19T07:09:54.566Z</time>
      </trkpt>
      <trkpt lat="45.92158" lon="6.34638">
        <ele>1840</ele>
        <time>2026-08-19T07:09:55.566Z</time>
      </trkpt>
      <trkpt lat="45.92158" lon="6.34638">
        <ele>1840</ele>
        <time>2026-08-19T07:09:56.566Z</time>
      </trkpt>
      <trkpt lat="45.92159" lon="6.34638">
        <ele>1840</ele>
        <time>2026-08-19T07:09:57.566Z</time>
      </trkpt>
      <trkpt lat="45.92159" lon="6.34638">
        <ele>1840</ele>
        <time>2026-08-19T07:09:58.566Z</time>
      </trkpt>
      <trkpt lat="45.92159" lon="6.34638">
        <ele>1840</ele>
        <time>2026-08-19T07:09:59.566Z</time>
      </trkpt>
      <trkpt lat="45.92159" lon="6.34639">
        <ele>1840</ele>
        <time>2026-08-19T07:10:00.566Z</time>
      </trkpt>
      <trkpt lat="45.92159" lon="6.34639">
        <ele>1840</ele>
        <time>2026-08-19T07:10:01.566Z</time>
      </trkpt>
      <trkpt lat="45.92159" lon="6.34639">
        <ele>1840</ele>
        <time>2026-08-19T07:10:02.566Z</time>
      </trkpt>
      <trkpt lat="45.92159" lon="6.34639">
        <ele>1840</ele>
        <time>2026-08-19T07:10:03.566Z</time>
      </trkpt>
      <trkpt lat="45.92159" lon="6.34639">
        <ele>1840</ele>
        <time>2026-08-19T07:10:04.566Z</time>
      </trkpt>
      <trkpt lat="45.9216" lon="6.34639">
        <ele>1840</ele>
        <time>2026-08-19T07:10:05.566Z</time>
      </trkpt>
      <trkpt lat="45.9216" lon="6.34639">
        <ele>1840</ele>
        <time>2026-08-19T07:10:06.566Z</time>
      </trkpt>
      <trkpt lat="45.9216" lon="6.34639">
        <ele>1840</ele>
        <time>2026-08-19T07:10:07.566Z</time>
      </trkpt>
      <trkpt lat="45.9216" lon="6.34639">
        <ele>1840</ele>
        <time>2026-08-19T07:10:08.566Z</time>
      </trkpt>
      <trkpt lat="45.9216" lon="6.34639">
        <ele>1840</ele>
        <time>2026-08-19T07:10:09.566Z</time>
      </trkpt>
      <trkpt lat="45.9216" lon="6.34638">
        <ele>1841</ele>
        <time>2026-08-19T07:10:10.566Z</time>
      </trkpt>
      <trkpt lat="45.9216" lon="6.34638">
        <ele>1841</ele>
        <time>2026-08-19T07:10:11.566Z</time>
      </trkpt>
      <trkpt lat="45.9216" lon="6.34638">
        <ele>1841</ele>
        <time>2026-08-19T07:10:12.566Z</time>
      </trkpt>
      <trkpt lat="45.9216" lon="6.34638">
        <ele>1841</ele>
        <time>2026-08-19T07:10:13.566Z</time>
      </trkpt>
      <trkpt lat="45.9216" lon="6.34638">
        <ele>1841</ele>
        <time>2026-08-19T07:10:14.566Z</time>
      </trkpt>
      <trkpt lat="45.92161" lon="6.34637">
        <ele>1841</ele>
        <time>2026-08-19T07:10:15.566Z</time>
      </trkpt>
      <trkpt lat="45.92161" lon="6.34637">
        <ele>1842</ele>
        <time>2026-08-19T07:10:16.566Z</time>
      </trkpt>
      <trkpt lat="45.92161" lon="6.34637">
        <ele>1842</ele>
        <time>2026-08-19T07:10:17.566Z</time>
      </trkpt>
      <trkpt lat="45.92161" lon="6.34637">
        <ele>1842</ele>
        <time>2026-08-19T07:10:18.566Z</time>
      </trkpt>
      <trkpt lat="45.92161" lon="6.34637">
        <ele>1842</ele>
        <time>2026-08-19T07:10:19.566Z</time>
      </trkpt>
      <trkpt lat="45.92161" lon="6.34637">
        <ele>1842</ele>
        <time>2026-08-19T07:10:20.566Z</time>
      </trkpt>
      <trkpt lat="45.92161" lon="6.34637">
        <ele>1842</ele>
        <time>2026-08-19T07:10:21.566Z</time>
      </trkpt>
      <trkpt lat="45.92161" lon="6.34637">
        <ele>1842</ele>
        <time>2026-08-19T07:10:22.566Z</time>
      </trkpt>
      <trkpt lat="45.92161" lon="6.34637">
        <ele>1843</ele>
        <time>2026-08-19T07:10:23.566Z</time>
      </trkpt>
      <trkpt lat="45.92161" lon="6.34637">
        <ele>1843</ele>
        <time>2026-08-19T07:10:24.566Z</time>
      </trkpt>
      <trkpt lat="45.92161" lon="6.34637">
        <ele>1843</ele>
        <time>2026-08-19T07:10:25.566Z</time>
      </trkpt>
      <trkpt lat="45.92161" lon="6.34637">
        <ele>1843</ele>
        <time>2026-08-19T07:10:26.566Z</time>
      </trkpt>
      <trkpt lat="45.92161" lon="6.34637">
        <ele>1843</ele>
        <time>2026-08-19T07:10:27.566Z</time>
      </trkpt>
      <trkpt lat="45.92161" lon="6.34638">
        <ele>1843</ele>
        <time>2026-08-19T07:10:28.566Z</time>
      </trkpt>
      <trkpt lat="45.92162" lon="6.34638">
        <ele>1843</ele>
        <time>2026-08-19T07:10:29.566Z</time>
      </trkpt>
      <trkpt lat="45.92163" lon="6.34638">
        <ele>1844</ele>
        <time>2026-08-19T07:10:30.566Z</time>
      </trkpt>
      <trkpt lat="45.92165" lon="6.34638">
        <ele>1844</ele>
        <time>2026-08-19T07:10:31.566Z</time>
      </trkpt>
      <trkpt lat="45.92166" lon="6.34639">
        <ele>1844</ele>
        <time>2026-08-19T07:10:32.566Z</time>
      </trkpt>
      <trkpt lat="45.92167" lon="6.3464">
        <ele>1845</ele>
        <time>2026-08-19T07:10:33.566Z</time>
      </trkpt>
      <trkpt lat="45.92168" lon="6.3464">
        <ele>1845</ele>
        <time>2026-08-19T07:10:34.566Z</time>
      </trkpt>
      <trkpt lat="45.92168" lon="6.34641">
        <ele>1845</ele>
        <time>2026-08-19T07:10:35.566Z</time>
      </trkpt>
      <trkpt lat="45.92169" lon="6.34641">
        <ele>1845</ele>
        <time>2026-08-19T07:10:36.566Z</time>
      </trkpt>
      <trkpt lat="45.92169" lon="6.34641">
        <ele>1845</ele>
        <time>2026-08-19T07:10:37.566Z</time>
      </trkpt>
      <trkpt lat="45.92169" lon="6.34641">
        <ele>1845</ele>
        <time>2026-08-19T07:10:38.566Z</time>
      </trkpt>
      <trkpt lat="45.92169" lon="6.34641">
        <ele>1844</ele>
        <time>2026-08-19T07:10:39.566Z</time>
      </trkpt>
      <trkpt lat="45.9217" lon="6.34642">
        <ele>1844</ele>
        <time>2026-08-19T07:10:40.566Z</time>
      </trkpt>
      <trkpt lat="45.9217" lon="6.34642">
        <ele>1844</ele>
        <time>2026-08-19T07:10:41.566Z</time>
      </trkpt>
      <trkpt lat="45.9217" lon="6.34642">
        <ele>1844</ele>
        <time>2026-08-19T07:10:42.566Z</time>
      </trkpt>
      <trkpt lat="45.9217" lon="6.34642">
        <ele>1844</ele>
        <time>2026-08-19T07:10:43.566Z</time>
      </trkpt>
      <trkpt lat="45.9217" lon="6.34643">
        <ele>1844</ele>
        <time>2026-08-19T07:10:44.566Z</time>
      </trkpt>
      <trkpt lat="45.9217" lon="6.34643">
        <ele>1844</ele>
        <time>2026-08-19T07:10:45.566Z</time>
      </trkpt>
      <trkpt lat="45.92171" lon="6.34643">
        <ele>1844</ele>
        <time>2026-08-19T07:10:46.566Z</time>
      </trkpt>
      <trkpt lat="45.92171" lon="6.34643">
        <ele>1845</ele>
        <time>2026-08-19T07:10:47.566Z</time>
      </trkpt>
      <trkpt lat="45.92171" lon="6.34644">
        <ele>1844</ele>
        <time>2026-08-19T07:10:48.566Z</time>
      </trkpt>
      <trkpt lat="45.92171" lon="6.34644">
        <ele>1844</ele>
        <time>2026-08-19T07:10:49.566Z</time>
      </trkpt>
      <trkpt lat="45.92171" lon="6.34644">
        <ele>1844</ele>
        <time>2026-08-19T07:10:50.566Z</time>
      </trkpt>
      <trkpt lat="45.92171" lon="6.34644">
        <ele>1844</ele>
        <time>2026-08-19T07:10:51.566Z</time>
      </trkpt>
      <trkpt lat="45.92171" lon="6.34644">
        <ele>1844</ele>
        <time>2026-08-19T07:10:52.566Z</time>
      </trkpt>
      <trkpt lat="45.92171" lon="6.34644">
        <ele>1844</ele>
        <time>2026-08-19T07:10:53.566Z</time>
      </trkpt>
      <trkpt lat="45.92171" lon="6.34644">
        <ele>1844</ele>
        <time>2026-08-19T07:10:54.566Z</time>
      </trkpt>
      <trkpt lat="45.92171" lon="6.34644">
        <ele>1844</ele>
        <time>2026-08-19T07:10:55.566Z</time>
      </trkpt>
      <trkpt lat="45.92171" lon="6.34644">
        <ele>1844</ele>
        <time>2026-08-19T07:10:56.566Z</time>
      </trkpt>
      <trkpt lat="45.92171" lon="6.34644">
        <ele>1844</ele>
        <time>2026-08-19T07:10:57.566Z</time>
      </trkpt>
      <trkpt lat="45.92171" lon="6.34644">
        <ele>1844</ele>
        <time>2026-08-19T07:10:58.566Z</time>
      </trkpt>
      <trkpt lat="45.92171" lon="6.34644">
        <ele>1844</ele>
        <time>2026-08-19T07:10:59.566Z</time>
      </trkpt>
      <trkpt lat="45.92171" lon="6.34644">
        <ele>1844</ele>
        <time>2026-08-19T07:11:00.566Z</time>
      </trkpt>
      <trkpt lat="45.92171" lon="6.34644">
        <ele>1844</ele>
        <time>2026-08-19T07:11:01.566Z</time>
      </trkpt>
      <trkpt lat="45.92171" lon="6.34644">
        <ele>1844</ele>
        <time>2026-08-19T07:11:02.566Z</time>
      </trkpt>
      <trkpt lat="45.92171" lon="6.34644">
        <ele>1844</ele>
        <time>2026-08-19T07:11:03.566Z</time>
      </trkpt>
      <trkpt lat="45.92171" lon="6.34644">
        <ele>1844</ele>
        <time>2026-08-19T07:11:04.566Z</time>
      </trkpt>
      <trkpt lat="45.92171" lon="6.34644">
        <ele>1844</ele>
        <time>2026-08-19T07:11:05.566Z</time>
      </trkpt>
      <trkpt lat="45.92171" lon="6.34644">
        <ele>1844</ele>
        <time>2026-08-19T07:11:06.566Z</time>
      </trkpt>
      <trkpt lat="45.92171" lon="6.34644">
        <ele>1844</ele>
        <time>2026-08-19T07:11:07.566Z</time>
      </trkpt>
      <trkpt lat="45.92171" lon="6.34644">
        <ele>1844</ele>
        <time>2026-08-19T07:11:08.566Z</time>
      </trkpt>
      <trkpt lat="45.92171" lon="6.34645">
        <ele>1844</ele>
        <time>2026-08-19T07:11:09.566Z</time>
      </trkpt>
      <trkpt lat="45.92171" lon="6.34645">
        <ele>1844</ele>
        <time>2026-08-19T07:11:10.566Z</time>
      </trkpt>
      <trkpt lat="45.92171" lon="6.34645">
        <ele>1844</ele>
        <time>2026-08-19T07:11:11.566Z</time>
      </trkpt>
      <trkpt lat="45.92171" lon="6.34645">
        <ele>1844</ele>
        <time>2026-08-19T07:11:12.566Z</time>
      </trkpt>
      <trkpt lat="45.92171" lon="6.34645">
        <ele>1844</ele>
        <time>2026-08-19T07:11:13.566Z</time>
      </trkpt>
      <trkpt lat="45.92171" lon="6.34646">
        <ele>1844</ele>
        <time>2026-08-19T07:11:14.566Z</time>
      </trkpt>
      <trkpt lat="45.92171" lon="6.34646">
        <ele>1844</ele>
        <time>2026-08-19T07:11:15.566Z</time>
      </trkpt>
      <trkpt lat="45.92171" lon="6.34646">
        <ele>1844</ele>
        <time>2026-08-19T07:11:16.566Z</time>
      </trkpt>
      <trkpt lat="45.92171" lon="6.34646">
        <ele>1844</ele>
        <time>2026-08-19T07:11:17.566Z</time>
      </trkpt>
      <trkpt lat="45.92171" lon="6.34646">
        <ele>1844</ele>
        <time>2026-08-19T07:11:18.566Z</time>
      </trkpt>
      <trkpt lat="45.92171" lon="6.34646">
        <ele>1844</ele>
        <time>2026-08-19T07:11:19.566Z</time>
      </trkpt>
      <trkpt lat="45.92171" lon="6.34646">
        <ele>1845</ele>
        <time>2026-08-19T07:11:20.566Z</time>
      </trkpt>
      <trkpt lat="45.92171" lon="6.34646">
        <ele>1845</ele>
        <time>2026-08-19T07:11:21.566Z</time>
      </trkpt>
      <trkpt lat="45.92171" lon="6.34646">
        <ele>1845</ele>
        <time>2026-08-19T07:11:22.566Z</time>
      </trkpt>
      <trkpt lat="45.92171" lon="6.34646">
        <ele>1845</ele>
        <time>2026-08-19T07:11:23.566Z</time>
      </trkpt>
      <trkpt lat="45.92172" lon="6.34646">
        <ele>1845</ele>
        <time>2026-08-19T07:11:24.566Z</time>
      </trkpt>
      <trkpt lat="45.92172" lon="6.34646">
        <ele>1845</ele>
        <time>2026-08-19T07:11:25.566Z</time>
      </trkpt>
      <trkpt lat="45.92172" lon="6.34646">
        <ele>1845</ele>
        <time>2026-08-19T07:11:26.566Z</time>
      </trkpt>
      <trkpt lat="45.92172" lon="6.34646">
        <ele>1845</ele>
        <time>2026-08-19T07:11:27.566Z</time>
      </trkpt>
      <trkpt lat="45.92172" lon="6.34646">
        <ele>1844</ele>
        <time>2026-08-19T07:11:28.566Z</time>
      </trkpt>
      <trkpt lat="45.92172" lon="6.34646">
        <ele>1844</ele>
        <time>2026-08-19T07:11:29.566Z</time>
      </trkpt>
      <trkpt lat="45.92172" lon="6.34646">
        <ele>1844</ele>
        <time>2026-08-19T07:11:30.566Z</time>
      </trkpt>
      <trkpt lat="45.92172" lon="6.34647">
        <ele>1844</ele>
        <time>2026-08-19T07:11:31.566Z</time>
      </trkpt>
      <trkpt lat="45.92172" lon="6.34647">
        <ele>1844</ele>
        <time>2026-08-19T07:11:32.566Z</time>
      </trkpt>
      <trkpt lat="45.92172" lon="6.34647">
        <ele>1844</ele>
        <time>2026-08-19T07:11:33.566Z</time>
      </trkpt>
      <trkpt lat="45.92172" lon="6.34647">
        <ele>1844</ele>
        <time>2026-08-19T07:11:34.566Z</time>
      </trkpt>
      <trkpt lat="45.92173" lon="6.34647">
        <ele>1844</ele>
        <time>2026-08-19T07:11:35.566Z</time>
      </trkpt>
      <trkpt lat="45.92174" lon="6.34648">
        <ele>1844</ele>
        <time>2026-08-19T07:11:36.566Z</time>
      </trkpt>
      <trkpt lat="45.92175" lon="6.34648">
        <ele>1844</ele>
        <time>2026-08-19T07:11:37.566Z</time>
      </trkpt>
      <trkpt lat="45.92176" lon="6.34649">
        <ele>1844</ele>
        <time>2026-08-19T07:11:38.566Z</time>
      </trkpt>
      <trkpt lat="45.92178" lon="6.34649">
        <ele>1845</ele>
        <time>2026-08-19T07:11:39.566Z</time>
      </trkpt>
      <trkpt lat="45.92179" lon="6.34649">
        <ele>1845</ele>
        <time>2026-08-19T07:11:40.566Z</time>
      </trkpt>
      <trkpt lat="45.9218" lon="6.3465">
        <ele>1845</ele>
        <time>2026-08-19T07:11:41.566Z</time>
      </trkpt>
      <trkpt lat="45.92181" lon="6.3465">
        <ele>1846</ele>
        <time>2026-08-19T07:11:42.566Z</time>
      </trkpt>
      <trkpt lat="45.92182" lon="6.3465">
        <ele>1846</ele>
        <time>2026-08-19T07:11:43.566Z</time>
      </trkpt>
      <trkpt lat="45.92182" lon="6.34651">
        <ele>1846</ele>
        <time>2026-08-19T07:11:44.566Z</time>
      </trkpt>
      <trkpt lat="45.92182" lon="6.34651">
        <ele>1846</ele>
        <time>2026-08-19T07:11:45.566Z</time>
      </trkpt>
      <trkpt lat="45.92183" lon="6.34651">
        <ele>1847</ele>
        <time>2026-08-19T07:11:46.566Z</time>
      </trkpt>
      <trkpt lat="45.92183" lon="6.34651">
        <ele>1847</ele>
        <time>2026-08-19T07:11:47.566Z</time>
      </trkpt>
      <trkpt lat="45.92183" lon="6.34651">
        <ele>1847</ele>
        <time>2026-08-19T07:11:48.566Z</time>
      </trkpt>
      <trkpt lat="45.92183" lon="6.34651">
        <ele>1848</ele>
        <time>2026-08-19T07:11:49.566Z</time>
      </trkpt>
      <trkpt lat="45.92182" lon="6.34651">
        <ele>1848</ele>
        <time>2026-08-19T07:11:50.566Z</time>
      </trkpt>
      <trkpt lat="45.92182" lon="6.34651">
        <ele>1848</ele>
        <time>2026-08-19T07:11:51.566Z</time>
      </trkpt>
      <trkpt lat="45.92182" lon="6.34651">
        <ele>1848</ele>
        <time>2026-08-19T07:11:52.566Z</time>
      </trkpt>
      <trkpt lat="45.92182" lon="6.34651">
        <ele>1847</ele>
        <time>2026-08-19T07:11:53.566Z</time>
      </trkpt>
      <trkpt lat="45.92182" lon="6.34651">
        <ele>1847</ele>
        <time>2026-08-19T07:11:54.566Z</time>
      </trkpt>
      <trkpt lat="45.92182" lon="6.34651">
        <ele>1847</ele>
        <time>2026-08-19T07:11:55.566Z</time>
      </trkpt>
      <trkpt lat="45.92182" lon="6.34651">
        <ele>1847</ele>
        <time>2026-08-19T07:11:56.566Z</time>
      </trkpt>
      <trkpt lat="45.92182" lon="6.34651">
        <ele>1847</ele>
        <time>2026-08-19T07:11:57.566Z</time>
      </trkpt>
      <trkpt lat="45.92182" lon="6.34651">
        <ele>1847</ele>
        <time>2026-08-19T07:11:58.566Z</time>
      </trkpt>
      <trkpt lat="45.92182" lon="6.34651">
        <ele>1847</ele>
        <time>2026-08-19T07:11:59.566Z</time>
      </trkpt>
      <trkpt lat="45.92183" lon="6.34651">
        <ele>1847</ele>
        <time>2026-08-19T07:12:00.566Z</time>
      </trkpt>
      <trkpt lat="45.92184" lon="6.3465">
        <ele>1847</ele>
        <time>2026-08-19T07:12:01.566Z</time>
      </trkpt>
      <trkpt lat="45.92184" lon="6.3465">
        <ele>1847</ele>
        <time>2026-08-19T07:12:02.566Z</time>
      </trkpt>
      <trkpt lat="45.92185" lon="6.3465">
        <ele>1847</ele>
        <time>2026-08-19T07:12:03.566Z</time>
      </trkpt>
      <trkpt lat="45.92186" lon="6.3465">
        <ele>1847</ele>
        <time>2026-08-19T07:12:04.566Z</time>
      </trkpt>
      <trkpt lat="45.92186" lon="6.34649">
        <ele>1847</ele>
        <time>2026-08-19T07:12:05.566Z</time>
      </trkpt>
      <trkpt lat="45.92186" lon="6.34649">
        <ele>1847</ele>
        <time>2026-08-19T07:12:06.566Z</time>
      </trkpt>
      <trkpt lat="45.92186" lon="6.34649">
        <ele>1847</ele>
        <time>2026-08-19T07:12:07.566Z</time>
      </trkpt>
      <trkpt lat="45.92186" lon="6.34648">
        <ele>1847</ele>
        <time>2026-08-19T07:12:08.566Z</time>
      </trkpt>
      <trkpt lat="45.92186" lon="6.34648">
        <ele>1847</ele>
        <time>2026-08-19T07:12:09.566Z</time>
      </trkpt>
      <trkpt lat="45.92186" lon="6.34648">
        <ele>1847</ele>
        <time>2026-08-19T07:12:10.566Z</time>
      </trkpt>
      <trkpt lat="45.92185" lon="6.34649">
        <ele>1847</ele>
        <time>2026-08-19T07:12:11.566Z</time>
      </trkpt>
      <trkpt lat="45.92185" lon="6.3465">
        <ele>1847</ele>
        <time>2026-08-19T07:12:12.566Z</time>
      </trkpt>
      <trkpt lat="45.92184" lon="6.3465">
        <ele>1847</ele>
        <time>2026-08-19T07:12:13.566Z</time>
      </trkpt>
      <trkpt lat="45.92184" lon="6.34651">
        <ele>1847</ele>
        <time>2026-08-19T07:12:14.566Z</time>
      </trkpt>
      <trkpt lat="45.92184" lon="6.34651">
        <ele>1848</ele>
        <time>2026-08-19T07:12:15.566Z</time>
      </trkpt>
      <trkpt lat="45.92184" lon="6.34652">
        <ele>1848</ele>
        <time>2026-08-19T07:12:16.566Z</time>
      </trkpt>
      <trkpt lat="45.92184" lon="6.34652">
        <ele>1848</ele>
        <time>2026-08-19T07:12:17.566Z</time>
      </trkpt>
      <trkpt lat="45.92184" lon="6.34653">
        <ele>1847</ele>
        <time>2026-08-19T07:12:18.566Z</time>
      </trkpt>
      <trkpt lat="45.92184" lon="6.34653">
        <ele>1847</ele>
        <time>2026-08-19T07:12:19.566Z</time>
      </trkpt>
      <trkpt lat="45.92185" lon="6.34654">
        <ele>1847</ele>
        <time>2026-08-19T07:12:20.566Z</time>
      </trkpt>
      <trkpt lat="45.92185" lon="6.34654">
        <ele>1847</ele>
        <time>2026-08-19T07:12:21.566Z</time>
      </trkpt>
      <trkpt lat="45.92185" lon="6.34655">
        <ele>1847</ele>
        <time>2026-08-19T07:12:22.566Z</time>
      </trkpt>
      <trkpt lat="45.92186" lon="6.34656">
        <ele>1847</ele>
        <time>2026-08-19T07:12:23.566Z</time>
      </trkpt>
      <trkpt lat="45.92187" lon="6.34656">
        <ele>1847</ele>
        <time>2026-08-19T07:12:24.566Z</time>
      </trkpt>
      <trkpt lat="45.92188" lon="6.34657">
        <ele>1847</ele>
        <time>2026-08-19T07:12:25.566Z</time>
      </trkpt>
      <trkpt lat="45.92188" lon="6.34658">
        <ele>1847</ele>
        <time>2026-08-19T07:12:26.566Z</time>
      </trkpt>
      <trkpt lat="45.92189" lon="6.34659">
        <ele>1847</ele>
        <time>2026-08-19T07:12:27.566Z</time>
      </trkpt>
      <trkpt lat="45.9219" lon="6.34659">
        <ele>1847</ele>
        <time>2026-08-19T07:12:28.566Z</time>
      </trkpt>
      <trkpt lat="45.9219" lon="6.3466">
        <ele>1848</ele>
        <time>2026-08-19T07:12:29.566Z</time>
      </trkpt>
      <trkpt lat="45.92191" lon="6.34661">
        <ele>1848</ele>
        <time>2026-08-19T07:12:30.566Z</time>
      </trkpt>
      <trkpt lat="45.92191" lon="6.34661">
        <ele>1848</ele>
        <time>2026-08-19T07:12:31.566Z</time>
      </trkpt>
      <trkpt lat="45.92192" lon="6.34662">
        <ele>1847</ele>
        <time>2026-08-19T07:12:32.566Z</time>
      </trkpt>
      <trkpt lat="45.92192" lon="6.34662">
        <ele>1847</ele>
        <time>2026-08-19T07:12:33.566Z</time>
      </trkpt>
      <trkpt lat="45.92193" lon="6.34662">
        <ele>1847</ele>
        <time>2026-08-19T07:12:34.566Z</time>
      </trkpt>
      <trkpt lat="45.92193" lon="6.34662">
        <ele>1847</ele>
        <time>2026-08-19T07:12:35.566Z</time>
      </trkpt>
      <trkpt lat="45.92194" lon="6.34662">
        <ele>1846</ele>
        <time>2026-08-19T07:12:36.566Z</time>
      </trkpt>
      <trkpt lat="45.92194" lon="6.34662">
        <ele>1846</ele>
        <time>2026-08-19T07:12:37.566Z</time>
      </trkpt>
      <trkpt lat="45.92195" lon="6.34662">
        <ele>1846</ele>
        <time>2026-08-19T07:12:38.566Z</time>
      </trkpt>
      <trkpt lat="45.92196" lon="6.34662">
        <ele>1846</ele>
        <time>2026-08-19T07:12:39.566Z</time>
      </trkpt>
      <trkpt lat="45.92197" lon="6.34662">
        <ele>1845</ele>
        <time>2026-08-19T07:12:40.566Z</time>
      </trkpt>
      <trkpt lat="45.92197" lon="6.34663">
        <ele>1845</ele>
        <time>2026-08-19T07:12:41.566Z</time>
      </trkpt>
      <trkpt lat="45.92198" lon="6.34663">
        <ele>1845</ele>
        <time>2026-08-19T07:12:42.566Z</time>
      </trkpt>
      <trkpt lat="45.92199" lon="6.34664">
        <ele>1845</ele>
        <time>2026-08-19T07:12:43.566Z</time>
      </trkpt>
      <trkpt lat="45.92199" lon="6.34664">
        <ele>1845</ele>
        <time>2026-08-19T07:12:44.566Z</time>
      </trkpt>
      <trkpt lat="45.922" lon="6.34665">
        <ele>1846</ele>
        <time>2026-08-19T07:12:45.566Z</time>
      </trkpt>
      <trkpt lat="45.922" lon="6.34666">
        <ele>1846</ele>
        <time>2026-08-19T07:12:46.566Z</time>
      </trkpt>
      <trkpt lat="45.92201" lon="6.34666">
        <ele>1846</ele>
        <time>2026-08-19T07:12:47.566Z</time>
      </trkpt>
      <trkpt lat="45.92201" lon="6.34666">
        <ele>1846</ele>
        <time>2026-08-19T07:12:48.566Z</time>
      </trkpt>
      <trkpt lat="45.92202" lon="6.34667">
        <ele>1846</ele>
        <time>2026-08-19T07:12:49.566Z</time>
      </trkpt>
      <trkpt lat="45.92202" lon="6.34667">
        <ele>1847</ele>
        <time>2026-08-19T07:12:50.566Z</time>
      </trkpt>
      <trkpt lat="45.92203" lon="6.34667">
        <ele>1847</ele>
        <time>2026-08-19T07:12:51.566Z</time>
      </trkpt>
      <trkpt lat="45.92204" lon="6.34667">
        <ele>1847</ele>
        <time>2026-08-19T07:12:52.566Z</time>
      </trkpt>
      <trkpt lat="45.92204" lon="6.34668">
        <ele>1847</ele>
        <time>2026-08-19T07:12:53.566Z</time>
      </trkpt>
      <trkpt lat="45.92205" lon="6.34669">
        <ele>1846</ele>
        <time>2026-08-19T07:12:54.566Z</time>
      </trkpt>
      <trkpt lat="45.92205" lon="6.3467">
        <ele>1846</ele>
        <time>2026-08-19T07:12:55.566Z</time>
      </trkpt>
      <trkpt lat="45.92205" lon="6.3467">
        <ele>1846</ele>
        <time>2026-08-19T07:12:56.566Z</time>
      </trkpt>
      <trkpt lat="45.92206" lon="6.3467">
        <ele>1846</ele>
        <time>2026-08-19T07:12:57.566Z</time>
      </trkpt>
      <trkpt lat="45.92206" lon="6.34671">
        <ele>1846</ele>
        <time>2026-08-19T07:12:58.566Z</time>
      </trkpt>
      <trkpt lat="45.92206" lon="6.34671">
        <ele>1845</ele>
        <time>2026-08-19T07:12:59.566Z</time>
      </trkpt>
      <trkpt lat="45.92206" lon="6.34672">
        <ele>1844</ele>
        <time>2026-08-19T07:13:00.566Z</time>
      </trkpt>
      <trkpt lat="45.92207" lon="6.34672">
        <ele>1844</ele>
        <time>2026-08-19T07:13:01.566Z</time>
      </trkpt>
      <trkpt lat="45.92207" lon="6.34673">
        <ele>1843</ele>
        <time>2026-08-19T07:13:02.566Z</time>
      </trkpt>
      <trkpt lat="45.92207" lon="6.34673">
        <ele>1843</ele>
        <time>2026-08-19T07:13:03.566Z</time>
      </trkpt>
      <trkpt lat="45.92207" lon="6.34674">
        <ele>1843</ele>
        <time>2026-08-19T07:13:04.566Z</time>
      </trkpt>
      <trkpt lat="45.92208" lon="6.34675">
        <ele>1843</ele>
        <time>2026-08-19T07:13:05.566Z</time>
      </trkpt>
      <trkpt lat="45.92209" lon="6.34676">
        <ele>1844</ele>
        <time>2026-08-19T07:13:06.566Z</time>
      </trkpt>
      <trkpt lat="45.92209" lon="6.34676">
        <ele>1844</ele>
        <time>2026-08-19T07:13:07.566Z</time>
      </trkpt>
      <trkpt lat="45.9221" lon="6.34677">
        <ele>1844</ele>
        <time>2026-08-19T07:13:08.566Z</time>
      </trkpt>
      <trkpt lat="45.92211" lon="6.34677">
        <ele>1844</ele>
        <time>2026-08-19T07:13:09.566Z</time>
      </trkpt>
      <trkpt lat="45.92211" lon="6.34678">
        <ele>1844</ele>
        <time>2026-08-19T07:13:10.566Z</time>
      </trkpt>
      <trkpt lat="45.92212" lon="6.34678">
        <ele>1844</ele>
        <time>2026-08-19T07:13:11.566Z</time>
      </trkpt>
      <trkpt lat="45.92212" lon="6.34678">
        <ele>1844</ele>
        <time>2026-08-19T07:13:12.566Z</time>
      </trkpt>
      <trkpt lat="45.92213" lon="6.34678">
        <ele>1845</ele>
        <time>2026-08-19T07:13:13.566Z</time>
      </trkpt>
      <trkpt lat="45.92213" lon="6.34679">
        <ele>1845</ele>
        <time>2026-08-19T07:13:14.566Z</time>
      </trkpt>
      <trkpt lat="45.92214" lon="6.3468">
        <ele>1845</ele>
        <time>2026-08-19T07:13:15.566Z</time>
      </trkpt>
      <trkpt lat="45.92214" lon="6.3468">
        <ele>1845</ele>
        <time>2026-08-19T07:13:16.566Z</time>
      </trkpt>
      <trkpt lat="45.92214" lon="6.34681">
        <ele>1845</ele>
        <time>2026-08-19T07:13:17.566Z</time>
      </trkpt>
      <trkpt lat="45.92214" lon="6.34681">
        <ele>1845</ele>
        <time>2026-08-19T07:13:18.566Z</time>
      </trkpt>
      <trkpt lat="45.92214" lon="6.34682">
        <ele>1845</ele>
        <time>2026-08-19T07:13:19.566Z</time>
      </trkpt>
      <trkpt lat="45.92215" lon="6.34683">
        <ele>1845</ele>
        <time>2026-08-19T07:13:20.566Z</time>
      </trkpt>
      <trkpt lat="45.92215" lon="6.34684">
        <ele>1845</ele>
        <time>2026-08-19T07:13:21.566Z</time>
      </trkpt>
      <trkpt lat="45.92216" lon="6.34684">
        <ele>1845</ele>
        <time>2026-08-19T07:13:22.566Z</time>
      </trkpt>
      <trkpt lat="45.92216" lon="6.34685">
        <ele>1845</ele>
        <time>2026-08-19T07:13:23.566Z</time>
      </trkpt>
      <trkpt lat="45.92217" lon="6.34685">
        <ele>1845</ele>
        <time>2026-08-19T07:13:24.566Z</time>
      </trkpt>
      <trkpt lat="45.92217" lon="6.34686">
        <ele>1845</ele>
        <time>2026-08-19T07:13:25.566Z</time>
      </trkpt>
      <trkpt lat="45.92218" lon="6.34686">
        <ele>1845</ele>
        <time>2026-08-19T07:13:26.566Z</time>
      </trkpt>
      <trkpt lat="45.92218" lon="6.34687">
        <ele>1846</ele>
        <time>2026-08-19T07:13:27.566Z</time>
      </trkpt>
      <trkpt lat="45.92218" lon="6.34688">
        <ele>1846</ele>
        <time>2026-08-19T07:13:28.566Z</time>
      </trkpt>
      <trkpt lat="45.92218" lon="6.34689">
        <ele>1846</ele>
        <time>2026-08-19T07:13:29.566Z</time>
      </trkpt>
      <trkpt lat="45.92219" lon="6.3469">
        <ele>1846</ele>
        <time>2026-08-19T07:13:30.566Z</time>
      </trkpt>
      <trkpt lat="45.92219" lon="6.34692">
        <ele>1846</ele>
        <time>2026-08-19T07:13:31.566Z</time>
      </trkpt>
      <trkpt lat="45.92219" lon="6.34692">
        <ele>1846</ele>
        <time>2026-08-19T07:13:32.566Z</time>
      </trkpt>
      <trkpt lat="45.92219" lon="6.34693">
        <ele>1846</ele>
        <time>2026-08-19T07:13:33.566Z</time>
      </trkpt>
      <trkpt lat="45.92219" lon="6.34694">
        <ele>1847</ele>
        <time>2026-08-19T07:13:34.566Z</time>
      </trkpt>
      <trkpt lat="45.9222" lon="6.34694">
        <ele>1846</ele>
        <time>2026-08-19T07:13:35.566Z</time>
      </trkpt>
      <trkpt lat="45.9222" lon="6.34695">
        <ele>1846</ele>
        <time>2026-08-19T07:13:36.566Z</time>
      </trkpt>
      <trkpt lat="45.9222" lon="6.34696">
        <ele>1846</ele>
        <time>2026-08-19T07:13:37.566Z</time>
      </trkpt>
      <trkpt lat="45.9222" lon="6.34696">
        <ele>1846</ele>
        <time>2026-08-19T07:13:38.566Z</time>
      </trkpt>
      <trkpt lat="45.92221" lon="6.34697">
        <ele>1846</ele>
        <time>2026-08-19T07:13:39.566Z</time>
      </trkpt>
      <trkpt lat="45.92221" lon="6.34698">
        <ele>1846</ele>
        <time>2026-08-19T07:13:40.566Z</time>
      </trkpt>
      <trkpt lat="45.92221" lon="6.34699">
        <ele>1846</ele>
        <time>2026-08-19T07:13:41.566Z</time>
      </trkpt>
      <trkpt lat="45.92222" lon="6.34699">
        <ele>1847</ele>
        <time>2026-08-19T07:13:42.566Z</time>
      </trkpt>
      <trkpt lat="45.92223" lon="6.347">
        <ele>1847</ele>
        <time>2026-08-19T07:13:43.566Z</time>
      </trkpt>
      <trkpt lat="45.92224" lon="6.34701">
        <ele>1847</ele>
        <time>2026-08-19T07:13:44.566Z</time>
      </trkpt>
      <trkpt lat="45.92224" lon="6.34702">
        <ele>1847</ele>
        <time>2026-08-19T07:13:45.566Z</time>
      </trkpt>
      <trkpt lat="45.92225" lon="6.34702">
        <ele>1847</ele>
        <time>2026-08-19T07:13:46.566Z</time>
      </trkpt>
      <trkpt lat="45.92225" lon="6.34703">
        <ele>1847</ele>
        <time>2026-08-19T07:13:47.566Z</time>
      </trkpt>
      <trkpt lat="45.92226" lon="6.34704">
        <ele>1847</ele>
        <time>2026-08-19T07:13:48.566Z</time>
      </trkpt>
      <trkpt lat="45.92227" lon="6.34704">
        <ele>1847</ele>
        <time>2026-08-19T07:13:49.566Z</time>
      </trkpt>
      <trkpt lat="45.92227" lon="6.34705">
        <ele>1847</ele>
        <time>2026-08-19T07:13:50.566Z</time>
      </trkpt>
      <trkpt lat="45.92228" lon="6.34705">
        <ele>1847</ele>
        <time>2026-08-19T07:13:51.566Z</time>
      </trkpt>
      <trkpt lat="45.92228" lon="6.34706">
        <ele>1847</ele>
        <time>2026-08-19T07:13:52.566Z</time>
      </trkpt>
      <trkpt lat="45.92229" lon="6.34706">
        <ele>1847</ele>
        <time>2026-08-19T07:13:53.566Z</time>
      </trkpt>
      <trkpt lat="45.92229" lon="6.34707">
        <ele>1847</ele>
        <time>2026-08-19T07:13:54.566Z</time>
      </trkpt>
      <trkpt lat="45.9223" lon="6.34707">
        <ele>1847</ele>
        <time>2026-08-19T07:13:55.566Z</time>
      </trkpt>
      <trkpt lat="45.92231" lon="6.34707">
        <ele>1848</ele>
        <time>2026-08-19T07:13:56.566Z</time>
      </trkpt>
      <trkpt lat="45.92231" lon="6.34708">
        <ele>1847</ele>
        <time>2026-08-19T07:13:57.566Z</time>
      </trkpt>
      <trkpt lat="45.92232" lon="6.34708">
        <ele>1847</ele>
        <time>2026-08-19T07:13:58.566Z</time>
      </trkpt>
      <trkpt lat="45.92233" lon="6.34709">
        <ele>1847</ele>
        <time>2026-08-19T07:13:59.566Z</time>
      </trkpt>
      <trkpt lat="45.92233" lon="6.34709">
        <ele>1846</ele>
        <time>2026-08-19T07:14:00.566Z</time>
      </trkpt>
      <trkpt lat="45.92234" lon="6.34709">
        <ele>1845</ele>
        <time>2026-08-19T07:14:01.566Z</time>
      </trkpt>
      <trkpt lat="45.92234" lon="6.3471">
        <ele>1845</ele>
        <time>2026-08-19T07:14:02.566Z</time>
      </trkpt>
      <trkpt lat="45.92234" lon="6.3471">
        <ele>1844</ele>
        <time>2026-08-19T07:14:03.566Z</time>
      </trkpt>
      <trkpt lat="45.92234" lon="6.3471">
        <ele>1844</ele>
        <time>2026-08-19T07:14:04.567Z</time>
      </trkpt>
      <trkpt lat="45.92234" lon="6.3471">
        <ele>1844</ele>
        <time>2026-08-19T07:14:05.566Z</time>
      </trkpt>
      <trkpt lat="45.92234" lon="6.3471">
        <ele>1844</ele>
        <time>2026-08-19T07:14:06.566Z</time>
      </trkpt>
      <trkpt lat="45.92235" lon="6.3471">
        <ele>1844</ele>
        <time>2026-08-19T07:14:07.566Z</time>
      </trkpt>
      <trkpt lat="45.92235" lon="6.3471">
        <ele>1845</ele>
        <time>2026-08-19T07:14:08.566Z</time>
      </trkpt>
      <trkpt lat="45.92235" lon="6.3471">
        <ele>1845</ele>
        <time>2026-08-19T07:14:09.566Z</time>
      </trkpt>
      <trkpt lat="45.92235" lon="6.3471">
        <ele>1845</ele>
        <time>2026-08-19T07:14:10.566Z</time>
      </trkpt>
      <trkpt lat="45.92235" lon="6.3471">
        <ele>1845</ele>
        <time>2026-08-19T07:14:11.566Z</time>
      </trkpt>
      <trkpt lat="45.92235" lon="6.3471">
        <ele>1845</ele>
        <time>2026-08-19T07:14:12.566Z</time>
      </trkpt>
      <trkpt lat="45.92235" lon="6.3471">
        <ele>1846</ele>
        <time>2026-08-19T07:14:13.566Z</time>
      </trkpt>
      <trkpt lat="45.92235" lon="6.3471">
        <ele>1846</ele>
        <time>2026-08-19T07:14:14.566Z</time>
      </trkpt>
      <trkpt lat="45.92235" lon="6.3471">
        <ele>1846</ele>
        <time>2026-08-19T07:14:15.566Z</time>
      </trkpt>
      <trkpt lat="45.92235" lon="6.3471">
        <ele>1846</ele>
        <time>2026-08-19T07:14:16.566Z</time>
      </trkpt>
      <trkpt lat="45.92235" lon="6.3471">
        <ele>1846</ele>
        <time>2026-08-19T07:14:17.566Z</time>
      </trkpt>
      <trkpt lat="45.92235" lon="6.3471">
        <ele>1846</ele>
        <time>2026-08-19T07:14:18.566Z</time>
      </trkpt>
      <trkpt lat="45.92235" lon="6.3471">
        <ele>1846</ele>
        <time>2026-08-19T07:14:19.566Z</time>
      </trkpt>
      <trkpt lat="45.92235" lon="6.3471">
        <ele>1846</ele>
        <time>2026-08-19T07:14:20.566Z</time>
      </trkpt>
      <trkpt lat="45.92235" lon="6.3471">
        <ele>1846</ele>
        <time>2026-08-19T07:14:21.566Z</time>
      </trkpt>
      <trkpt lat="45.92235" lon="6.3471">
        <ele>1847</ele>
        <time>2026-08-19T07:14:22.566Z</time>
      </trkpt>
      <trkpt lat="45.92235" lon="6.3471">
        <ele>1847</ele>
        <time>2026-08-19T07:14:23.566Z</time>
      </trkpt>
      <trkpt lat="45.92235" lon="6.3471">
        <ele>1847</ele>
        <time>2026-08-19T07:14:24.566Z</time>
      </trkpt>
      <trkpt lat="45.92235" lon="6.3471">
        <ele>1847</ele>
        <time>2026-08-19T07:14:25.566Z</time>
      </trkpt>
      <trkpt lat="45.92235" lon="6.3471">
        <ele>1847</ele>
        <time>2026-08-19T07:14:26.566Z</time>
      </trkpt>
      <trkpt lat="45.92235" lon="6.3471">
        <ele>1847</ele>
        <time>2026-08-19T07:14:27.566Z</time>
      </trkpt>
      <trkpt lat="45.92235" lon="6.3471">
        <ele>1847</ele>
        <time>2026-08-19T07:14:28.566Z</time>
      </trkpt>
      <trkpt lat="45.92235" lon="6.3471">
        <ele>1847</ele>
        <time>2026-08-19T07:14:29.566Z</time>
      </trkpt>
      <trkpt lat="45.92235" lon="6.3471">
        <ele>1847</ele>
        <time>2026-08-19T07:14:30.566Z</time>
      </trkpt>
      <trkpt lat="45.92235" lon="6.3471">
        <ele>1847</ele>
        <time>2026-08-19T07:14:31.566Z</time>
      </trkpt>
      <trkpt lat="45.92235" lon="6.3471">
        <ele>1847</ele>
        <time>2026-08-19T07:14:32.566Z</time>
      </trkpt>
      <trkpt lat="45.92235" lon="6.34709">
        <ele>1847</ele>
        <time>2026-08-19T07:14:33.566Z</time>
      </trkpt>
      <trkpt lat="45.92235" lon="6.34709">
        <ele>1847</ele>
        <time>2026-08-19T07:14:34.566Z</time>
      </trkpt>
      <trkpt lat="45.92235" lon="6.34709">
        <ele>1847</ele>
        <time>2026-08-19T07:14:35.566Z</time>
      </trkpt>
      <trkpt lat="45.92235" lon="6.34709">
        <ele>1847</ele>
        <time>2026-08-19T07:14:36.566Z</time>
      </trkpt>
      <trkpt lat="45.92235" lon="6.34709">
        <ele>1847</ele>
        <time>2026-08-19T07:14:37.566Z</time>
      </trkpt>
      <trkpt lat="45.92235" lon="6.34709">
        <ele>1848</ele>
        <time>2026-08-19T07:14:38.566Z</time>
      </trkpt>
      <trkpt lat="45.92235" lon="6.34708">
        <ele>1848</ele>
        <time>2026-08-19T07:14:39.566Z</time>
      </trkpt>
      <trkpt lat="45.92235" lon="6.34708">
        <ele>1848</ele>
        <time>2026-08-19T07:14:40.566Z</time>
      </trkpt>
      <trkpt lat="45.92235" lon="6.34708">
        <ele>1848</ele>
        <time>2026-08-19T07:14:41.566Z</time>
      </trkpt>
      <trkpt lat="45.92235" lon="6.34708">
        <ele>1848</ele>
        <time>2026-08-19T07:14:42.566Z</time>
      </trkpt>
      <trkpt lat="45.92235" lon="6.34708">
        <ele>1848</ele>
        <time>2026-08-19T07:14:43.566Z</time>
      </trkpt>
      <trkpt lat="45.92235" lon="6.34708">
        <ele>1848</ele>
        <time>2026-08-19T07:14:44.566Z</time>
      </trkpt>
      <trkpt lat="45.92235" lon="6.34708">
        <ele>1848</ele>
        <time>2026-08-19T07:14:45.566Z</time>
      </trkpt>
      <trkpt lat="45.92235" lon="6.34708">
        <ele>1848</ele>
        <time>2026-08-19T07:14:46.566Z</time>
      </trkpt>
      <trkpt lat="45.92235" lon="6.34708">
        <ele>1848</ele>
        <time>2026-08-19T07:14:47.566Z</time>
      </trkpt>
      <trkpt lat="45.92235" lon="6.34708">
        <ele>1848</ele>
        <time>2026-08-19T07:14:48.566Z</time>
      </trkpt>
      <trkpt lat="45.92235" lon="6.34708">
        <ele>1848</ele>
        <time>2026-08-19T07:14:49.566Z</time>
      </trkpt>
      <trkpt lat="45.92235" lon="6.34708">
        <ele>1848</ele>
        <time>2026-08-19T07:14:50.566Z</time>
      </trkpt>
      <trkpt lat="45.92235" lon="6.34708">
        <ele>1848</ele>
        <time>2026-08-19T07:14:51.566Z</time>
      </trkpt>
      <trkpt lat="45.92235" lon="6.34708">
        <ele>1848</ele>
        <time>2026-08-19T07:14:52.566Z</time>
      </trkpt>
      <trkpt lat="45.92235" lon="6.34708">
        <ele>1848</ele>
        <time>2026-08-19T07:14:53.566Z</time>
      </trkpt>
      <trkpt lat="45.92235" lon="6.34708">
        <ele>1848</ele>
        <time>2026-08-19T07:14:54.566Z</time>
      </trkpt>
      <trkpt lat="45.92235" lon="6.34708">
        <ele>1848</ele>
        <time>2026-08-19T07:14:55.566Z</time>
      </trkpt>
      <trkpt lat="45.92235" lon="6.34708">
        <ele>1848</ele>
        <time>2026-08-19T07:14:56.566Z</time>
      </trkpt>
      <trkpt lat="45.92235" lon="6.34708">
        <ele>1848</ele>
        <time>2026-08-19T07:14:57.566Z</time>
      </trkpt>
      <trkpt lat="45.92234" lon="6.34708">
        <ele>1848</ele>
        <time>2026-08-19T07:14:58.566Z</time>
      </trkpt>
      <trkpt lat="45.92234" lon="6.34708">
        <ele>1848</ele>
        <time>2026-08-19T07:14:59.566Z</time>
      </trkpt>
      <trkpt lat="45.92234" lon="6.34708">
        <ele>1848</ele>
        <time>2026-08-19T07:15:00.566Z</time>
      </trkpt>
      <trkpt lat="45.92234" lon="6.34708">
        <ele>1848</ele>
        <time>2026-08-19T07:15:01.566Z</time>
      </trkpt>
      <trkpt lat="45.92234" lon="6.34708">
        <ele>1848</ele>
        <time>2026-08-19T07:15:02.566Z</time>
      </trkpt>
      <trkpt lat="45.92234" lon="6.34708">
        <ele>1848</ele>
        <time>2026-08-19T07:15:03.566Z</time>
      </trkpt>
      <trkpt lat="45.92234" lon="6.34708">
        <ele>1848</ele>
        <time>2026-08-19T07:15:04.566Z</time>
      </trkpt>
      <trkpt lat="45.92234" lon="6.34708">
        <ele>1848</ele>
        <time>2026-08-19T07:15:05.566Z</time>
      </trkpt>
      <trkpt lat="45.92234" lon="6.34708">
        <ele>1848</ele>
        <time>2026-08-19T07:15:06.566Z</time>
      </trkpt>
      <trkpt lat="45.92234" lon="6.34708">
        <ele>1848</ele>
        <time>2026-08-19T07:15:07.566Z</time>
      </trkpt>
      <trkpt lat="45.92234" lon="6.34708">
        <ele>1848</ele>
        <time>2026-08-19T07:15:08.566Z</time>
      </trkpt>
      <trkpt lat="45.92234" lon="6.34708">
        <ele>1848</ele>
        <time>2026-08-19T07:15:09.566Z</time>
      </trkpt>
      <trkpt lat="45.92234" lon="6.34708">
        <ele>1848</ele>
        <time>2026-08-19T07:15:10.566Z</time>
      </trkpt>
      <trkpt lat="45.92234" lon="6.34708">
        <ele>1848</ele>
        <time>2026-08-19T07:15:11.566Z</time>
      </trkpt>
      <trkpt lat="45.92234" lon="6.34708">
        <ele>1848</ele>
        <time>2026-08-19T07:15:12.566Z</time>
      </trkpt>
      <trkpt lat="45.92234" lon="6.34708">
        <ele>1848</ele>
        <time>2026-08-19T07:15:13.566Z</time>
      </trkpt>
      <trkpt lat="45.92234" lon="6.34708">
        <ele>1848</ele>
        <time>2026-08-19T07:15:14.566Z</time>
      </trkpt>
      <trkpt lat="45.92234" lon="6.34708">
        <ele>1848</ele>
        <time>2026-08-19T07:15:15.566Z</time>
      </trkpt>
      <trkpt lat="45.92234" lon="6.34708">
        <ele>1848</ele>
        <time>2026-08-19T07:15:16.566Z</time>
      </trkpt>
      <trkpt lat="45.92234" lon="6.34708">
        <ele>1848</ele>
        <time>2026-08-19T07:15:17.566Z</time>
      </trkpt>
      <trkpt lat="45.92234" lon="6.34708">
        <ele>1848</ele>
        <time>2026-08-19T07:15:18.566Z</time>
      </trkpt>
      <trkpt lat="45.92234" lon="6.34708">
        <ele>1848</ele>
        <time>2026-08-19T07:15:19.566Z</time>
      </trkpt>
      <trkpt lat="45.92234" lon="6.34708">
        <ele>1848</ele>
        <time>2026-08-19T07:15:20.566Z</time>
      </trkpt>
      <trkpt lat="45.92234" lon="6.34708">
        <ele>1848</ele>
        <time>2026-08-19T07:15:21.566Z</time>
      </trkpt>
      <trkpt lat="45.92234" lon="6.34708">
        <ele>1848</ele>
        <time>2026-08-19T07:15:22.566Z</time>
      </trkpt>
      <trkpt lat="45.92234" lon="6.34708">
        <ele>1848</ele>
        <time>2026-08-19T07:15:23.566Z</time>
      </trkpt>
      <trkpt lat="45.92234" lon="6.34708">
        <ele>1848</ele>
        <time>2026-08-19T07:15:24.566Z</time>
      </trkpt>
      <trkpt lat="45.92234" lon="6.34708">
        <ele>1848</ele>
        <time>2026-08-19T07:15:25.566Z</time>
      </trkpt>
      <trkpt lat="45.92234" lon="6.34708">
        <ele>1848</ele>
        <time>2026-08-19T07:15:26.566Z</time>
      </trkpt>
      <trkpt lat="45.92235" lon="6.34708">
        <ele>1848</ele>
        <time>2026-08-19T07:15:27.566Z</time>
      </trkpt>
      <trkpt lat="45.92235" lon="6.34708">
        <ele>1848</ele>
        <time>2026-08-19T07:15:28.566Z</time>
      </trkpt>
      <trkpt lat="45.92235" lon="6.34708">
        <ele>1848</ele>
        <time>2026-08-19T07:15:29.566Z</time>
      </trkpt>
      <trkpt lat="45.92235" lon="6.34708">
        <ele>1848</ele>
        <time>2026-08-19T07:15:30.566Z</time>
      </trkpt>
      <trkpt lat="45.92235" lon="6.34708">
        <ele>1848</ele>
        <time>2026-08-19T07:15:31.566Z</time>
      </trkpt>
      <trkpt lat="45.92235" lon="6.34708">
        <ele>1848</ele>
        <time>2026-08-19T07:15:32.566Z</time>
      </trkpt>
      <trkpt lat="45.92235" lon="6.34708">
        <ele>1848</ele>
        <time>2026-08-19T07:15:33.566Z</time>
      </trkpt>
      <trkpt lat="45.92236" lon="6.34708">
        <ele>1848</ele>
        <time>2026-08-19T07:15:34.566Z</time>
      </trkpt>
      <trkpt lat="45.92236" lon="6.34708">
        <ele>1848</ele>
        <time>2026-08-19T07:15:35.566Z</time>
      </trkpt>
      <trkpt lat="45.92236" lon="6.34708">
        <ele>1848</ele>
        <time>2026-08-19T07:15:36.566Z</time>
      </trkpt>
      <trkpt lat="45.92236" lon="6.34708">
        <ele>1848</ele>
        <time>2026-08-19T07:15:37.566Z</time>
      </trkpt>
      <trkpt lat="45.92236" lon="6.34708">
        <ele>1848</ele>
        <time>2026-08-19T07:15:38.566Z</time>
      </trkpt>
      <trkpt lat="45.92236" lon="6.34708">
        <ele>1848</ele>
        <time>2026-08-19T07:15:39.566Z</time>
      </trkpt>
      <trkpt lat="45.92236" lon="6.34708">
        <ele>1848</ele>
        <time>2026-08-19T07:15:40.566Z</time>
      </trkpt>
      <trkpt lat="45.92236" lon="6.34708">
        <ele>1848</ele>
        <time>2026-08-19T07:15:41.566Z</time>
      </trkpt>
      <trkpt lat="45.92236" lon="6.34708">
        <ele>1847</ele>
        <time>2026-08-19T07:15:42.566Z</time>
      </trkpt>
      <trkpt lat="45.92236" lon="6.34708">
        <ele>1847</ele>
        <time>2026-08-19T07:15:43.566Z</time>
      </trkpt>
      <trkpt lat="45.92236" lon="6.34708">
        <ele>1847</ele>
        <time>2026-08-19T07:15:44.566Z</time>
      </trkpt>
      <trkpt lat="45.92237" lon="6.34708">
        <ele>1847</ele>
        <time>2026-08-19T07:15:45.566Z</time>
      </trkpt>
      <trkpt lat="45.92237" lon="6.34708">
        <ele>1847</ele>
        <time>2026-08-19T07:15:46.566Z</time>
      </trkpt>
      <trkpt lat="45.92238" lon="6.34708">
        <ele>1847</ele>
        <time>2026-08-19T07:15:47.566Z</time>
      </trkpt>
      <trkpt lat="45.92238" lon="6.34708">
        <ele>1847</ele>
        <time>2026-08-19T07:15:48.566Z</time>
      </trkpt>
      <trkpt lat="45.92238" lon="6.34708">
        <ele>1847</ele>
        <time>2026-08-19T07:15:49.566Z</time>
      </trkpt>
      <trkpt lat="45.92238" lon="6.34708">
        <ele>1847</ele>
        <time>2026-08-19T07:15:50.566Z</time>
      </trkpt>
      <trkpt lat="45.92238" lon="6.34708">
        <ele>1847</ele>
        <time>2026-08-19T07:15:51.566Z</time>
      </trkpt>
      <trkpt lat="45.92238" lon="6.34708">
        <ele>1847</ele>
        <time>2026-08-19T07:15:52.566Z</time>
      </trkpt>
      <trkpt lat="45.92238" lon="6.34708">
        <ele>1847</ele>
        <time>2026-08-19T07:15:53.566Z</time>
      </trkpt>
      <trkpt lat="45.92238" lon="6.34708">
        <ele>1847</ele>
        <time>2026-08-19T07:15:54.566Z</time>
      </trkpt>
      <trkpt lat="45.92238" lon="6.34708">
        <ele>1847</ele>
        <time>2026-08-19T07:15:55.566Z</time>
      </trkpt>
      <trkpt lat="45.92238" lon="6.34708">
        <ele>1847</ele>
        <time>2026-08-19T07:15:56.566Z</time>
      </trkpt>
      <trkpt lat="45.92238" lon="6.34708">
        <ele>1847</ele>
        <time>2026-08-19T07:15:57.566Z</time>
      </trkpt>
      <trkpt lat="45.92238" lon="6.34708">
        <ele>1847</ele>
        <time>2026-08-19T07:15:58.566Z</time>
      </trkpt>
      <trkpt lat="45.92238" lon="6.34708">
        <ele>1847</ele>
        <time>2026-08-19T07:15:59.566Z</time>
      </trkpt>
      <trkpt lat="45.92238" lon="6.34708">
        <ele>1847</ele>
        <time>2026-08-19T07:16:00.566Z</time>
      </trkpt>
      <trkpt lat="45.92238" lon="6.34708">
        <ele>1847</ele>
        <time>2026-08-19T07:16:01.566Z</time>
      </trkpt>
      <trkpt lat="45.92238" lon="6.34708">
        <ele>1847</ele>
        <time>2026-08-19T07:16:02.566Z</time>
      </trkpt>
      <trkpt lat="45.92238" lon="6.34708">
        <ele>1847</ele>
        <time>2026-08-19T07:16:03.566Z</time>
      </trkpt>
      <trkpt lat="45.92239" lon="6.34708">
        <ele>1847</ele>
        <time>2026-08-19T07:16:04.566Z</time>
      </trkpt>
      <trkpt lat="45.9224" lon="6.34708">
        <ele>1847</ele>
        <time>2026-08-19T07:16:05.566Z</time>
      </trkpt>
      <trkpt lat="45.9224" lon="6.34708">
        <ele>1847</ele>
        <time>2026-08-19T07:16:06.566Z</time>
      </trkpt>
      <trkpt lat="45.9224" lon="6.34708">
        <ele>1847</ele>
        <time>2026-08-19T07:16:07.566Z</time>
      </trkpt>
      <trkpt lat="45.9224" lon="6.34708">
        <ele>1847</ele>
        <time>2026-08-19T07:16:08.566Z</time>
      </trkpt>
      <trkpt lat="45.9224" lon="6.34708">
        <ele>1847</ele>
        <time>2026-08-19T07:16:09.566Z</time>
      </trkpt>
      <trkpt lat="45.9224" lon="6.34709">
        <ele>1847</ele>
        <time>2026-08-19T07:16:10.566Z</time>
      </trkpt>
      <trkpt lat="45.9224" lon="6.34709">
        <ele>1847</ele>
        <time>2026-08-19T07:16:11.566Z</time>
      </trkpt>
      <trkpt lat="45.9224" lon="6.3471">
        <ele>1847</ele>
        <time>2026-08-19T07:16:12.566Z</time>
      </trkpt>
      <trkpt lat="45.9224" lon="6.3471">
        <ele>1847</ele>
        <time>2026-08-19T07:16:13.566Z</time>
      </trkpt>
      <trkpt lat="45.9224" lon="6.3471">
        <ele>1847</ele>
        <time>2026-08-19T07:16:14.567Z</time>
      </trkpt>
      <trkpt lat="45.9224" lon="6.3471">
        <ele>1847</ele>
        <time>2026-08-19T07:16:15.566Z</time>
      </trkpt>
      <trkpt lat="45.9224" lon="6.3471">
        <ele>1847</ele>
        <time>2026-08-19T07:16:16.566Z</time>
      </trkpt>
      <trkpt lat="45.9224" lon="6.3471">
        <ele>1847</ele>
        <time>2026-08-19T07:16:17.566Z</time>
      </trkpt>
      <trkpt lat="45.9224" lon="6.3471">
        <ele>1847</ele>
        <time>2026-08-19T07:16:18.566Z</time>
      </trkpt>
      <trkpt lat="45.92241" lon="6.3471">
        <ele>1847</ele>
        <time>2026-08-19T07:16:19.566Z</time>
      </trkpt>
      <trkpt lat="45.92241" lon="6.3471">
        <ele>1847</ele>
        <time>2026-08-19T07:16:20.566Z</time>
      </trkpt>
      <trkpt lat="45.92241" lon="6.34711">
        <ele>1847</ele>
        <time>2026-08-19T07:16:21.566Z</time>
      </trkpt>
      <trkpt lat="45.92241" lon="6.34711">
        <ele>1847</ele>
        <time>2026-08-19T07:16:22.566Z</time>
      </trkpt>
      <trkpt lat="45.92241" lon="6.34711">
        <ele>1847</ele>
        <time>2026-08-19T07:16:23.566Z</time>
      </trkpt>
      <trkpt lat="45.92242" lon="6.34711">
        <ele>1847</ele>
        <time>2026-08-19T07:16:24.566Z</time>
      </trkpt>
      <trkpt lat="45.92242" lon="6.34711">
        <ele>1847</ele>
        <time>2026-08-19T07:16:25.566Z</time>
      </trkpt>
      <trkpt lat="45.92242" lon="6.34711">
        <ele>1847</ele>
        <time>2026-08-19T07:16:26.566Z</time>
      </trkpt>
      <trkpt lat="45.92242" lon="6.34711">
        <ele>1847</ele>
        <time>2026-08-19T07:16:27.566Z</time>
      </trkpt>
      <trkpt lat="45.92242" lon="6.34711">
        <ele>1847</ele>
        <time>2026-08-19T07:16:28.566Z</time>
      </trkpt>
      <trkpt lat="45.92242" lon="6.34711">
        <ele>1847</ele>
        <time>2026-08-19T07:16:29.566Z</time>
      </trkpt>
      <trkpt lat="45.92242" lon="6.34711">
        <ele>1847</ele>
        <time>2026-08-19T07:16:30.566Z</time>
      </trkpt>
      <trkpt lat="45.92242" lon="6.34711">
        <ele>1847</ele>
        <time>2026-08-19T07:16:31.566Z</time>
      </trkpt>
      <trkpt lat="45.92242" lon="6.34711">
        <ele>1847</ele>
        <time>2026-08-19T07:16:32.566Z</time>
      </trkpt>
      <trkpt lat="45.92242" lon="6.34711">
        <ele>1847</ele>
        <time>2026-08-19T07:16:33.566Z</time>
      </trkpt>
      <trkpt lat="45.92242" lon="6.34711">
        <ele>1847</ele>
        <time>2026-08-19T07:16:34.566Z</time>
      </trkpt>
      <trkpt lat="45.92242" lon="6.34711">
        <ele>1847</ele>
        <time>2026-08-19T07:16:35.566Z</time>
      </trkpt>
      <trkpt lat="45.92242" lon="6.34711">
        <ele>1847</ele>
        <time>2026-08-19T07:16:36.566Z</time>
      </trkpt>
      <trkpt lat="45.92242" lon="6.34711">
        <ele>1847</ele>
        <time>2026-08-19T07:16:37.566Z</time>
      </trkpt>
      <trkpt lat="45.92242" lon="6.34711">
        <ele>1847</ele>
        <time>2026-08-19T07:16:38.566Z</time>
      </trkpt>
      <trkpt lat="45.92242" lon="6.34711">
        <ele>1847</ele>
        <time>2026-08-19T07:16:39.566Z</time>
      </trkpt>
      <trkpt lat="45.92242" lon="6.34711">
        <ele>1847</ele>
        <time>2026-08-19T07:16:40.566Z</time>
      </trkpt>
      <trkpt lat="45.92243" lon="6.34711">
        <ele>1847</ele>
        <time>2026-08-19T07:16:41.566Z</time>
      </trkpt>
      <trkpt lat="45.92243" lon="6.34711">
        <ele>1847</ele>
        <time>2026-08-19T07:16:42.566Z</time>
      </trkpt>
      <trkpt lat="45.92243" lon="6.34711">
        <ele>1847</ele>
        <time>2026-08-19T07:16:43.566Z</time>
      </trkpt>
      <trkpt lat="45.92243" lon="6.34711">
        <ele>1847</ele>
        <time>2026-08-19T07:16:44.566Z</time>
      </trkpt>
      <trkpt lat="45.92243" lon="6.34711">
        <ele>1847</ele>
        <time>2026-08-19T07:16:45.566Z</time>
      </trkpt>
      <trkpt lat="45.92243" lon="6.34712">
        <ele>1847</ele>
        <time>2026-08-19T07:16:46.566Z</time>
      </trkpt>
      <trkpt lat="45.92243" lon="6.34712">
        <ele>1847</ele>
        <time>2026-08-19T07:16:47.566Z</time>
      </trkpt>
      <trkpt lat="45.92243" lon="6.34712">
        <ele>1847</ele>
        <time>2026-08-19T07:16:48.566Z</time>
      </trkpt>
      <trkpt lat="45.92243" lon="6.34712">
        <ele>1847</ele>
        <time>2026-08-19T07:16:49.566Z</time>
      </trkpt>
      <trkpt lat="45.92243" lon="6.34712">
        <ele>1847</ele>
        <time>2026-08-19T07:16:50.566Z</time>
      </trkpt>
      <trkpt lat="45.92243" lon="6.34712">
        <ele>1847</ele>
        <time>2026-08-19T07:16:51.566Z</time>
      </trkpt>
      <trkpt lat="45.92243" lon="6.34712">
        <ele>1847</ele>
        <time>2026-08-19T07:16:52.566Z</time>
      </trkpt>
      <trkpt lat="45.92243" lon="6.34712">
        <ele>1847</ele>
        <time>2026-08-19T07:16:53.566Z</time>
      </trkpt>
      <trkpt lat="45.92243" lon="6.34712">
        <ele>1847</ele>
        <time>2026-08-19T07:16:54.566Z</time>
      </trkpt>
      <trkpt lat="45.92243" lon="6.34712">
        <ele>1847</ele>
        <time>2026-08-19T07:16:55.566Z</time>
      </trkpt>
      <trkpt lat="45.92243" lon="6.34712">
        <ele>1847</ele>
        <time>2026-08-19T07:16:56.566Z</time>
      </trkpt>
      <trkpt lat="45.92243" lon="6.34712">
        <ele>1847</ele>
        <time>2026-08-19T07:16:57.566Z</time>
      </trkpt>
      <trkpt lat="45.92243" lon="6.34712">
        <ele>1847</ele>
        <time>2026-08-19T07:16:58.566Z</time>
      </trkpt>
      <trkpt lat="45.92243" lon="6.34712">
        <ele>1847</ele>
        <time>2026-08-19T07:16:59.566Z</time>
      </trkpt>
      <trkpt lat="45.92243" lon="6.34712">
        <ele>1847</ele>
        <time>2026-08-19T07:17:00.566Z</time>
      </trkpt>
      <trkpt lat="45.92244" lon="6.34712">
        <ele>1847</ele>
        <time>2026-08-19T07:17:01.566Z</time>
      </trkpt>
      <trkpt lat="45.92244" lon="6.34712">
        <ele>1847</ele>
        <time>2026-08-19T07:17:02.566Z</time>
      </trkpt>
      <trkpt lat="45.92244" lon="6.34712">
        <ele>1847</ele>
        <time>2026-08-19T07:17:03.566Z</time>
      </trkpt>
      <trkpt lat="45.92244" lon="6.34712">
        <ele>1847</ele>
        <time>2026-08-19T07:17:04.566Z</time>
      </trkpt>
      <trkpt lat="45.92244" lon="6.34713">
        <ele>1847</ele>
        <time>2026-08-19T07:17:05.566Z</time>
      </trkpt>
      <trkpt lat="45.92244" lon="6.34713">
        <ele>1848</ele>
        <time>2026-08-19T07:17:06.566Z</time>
      </trkpt>
      <trkpt lat="45.92244" lon="6.34713">
        <ele>1848</ele>
        <time>2026-08-19T07:17:07.566Z</time>
      </trkpt>
      <trkpt lat="45.92244" lon="6.34713">
        <ele>1848</ele>
        <time>2026-08-19T07:17:08.566Z</time>
      </trkpt>
      <trkpt lat="45.92244" lon="6.34713">
        <ele>1848</ele>
        <time>2026-08-19T07:17:09.566Z</time>
      </trkpt>
      <trkpt lat="45.92244" lon="6.34713">
        <ele>1848</ele>
        <time>2026-08-19T07:17:10.566Z</time>
      </trkpt>
      <trkpt lat="45.92244" lon="6.34713">
        <ele>1848</ele>
        <time>2026-08-19T07:17:11.566Z</time>
      </trkpt>
      <trkpt lat="45.92244" lon="6.34713">
        <ele>1848</ele>
        <time>2026-08-19T07:17:12.566Z</time>
      </trkpt>
      <trkpt lat="45.92245" lon="6.34713">
        <ele>1848</ele>
        <time>2026-08-19T07:17:13.566Z</time>
      </trkpt>
      <trkpt lat="45.92245" lon="6.34713">
        <ele>1848</ele>
        <time>2026-08-19T07:17:14.566Z</time>
      </trkpt>
      <trkpt lat="45.92245" lon="6.34713">
        <ele>1848</ele>
        <time>2026-08-19T07:17:15.566Z</time>
      </trkpt>
      <trkpt lat="45.92245" lon="6.34713">
        <ele>1848</ele>
        <time>2026-08-19T07:17:16.566Z</time>
      </trkpt>
      <trkpt lat="45.92246" lon="6.34713">
        <ele>1848</ele>
        <time>2026-08-19T07:17:17.566Z</time>
      </trkpt>
      <trkpt lat="45.92246" lon="6.34713">
        <ele>1848</ele>
        <time>2026-08-19T07:17:18.566Z</time>
      </trkpt>
      <trkpt lat="45.92246" lon="6.34713">
        <ele>1848</ele>
        <time>2026-08-19T07:17:19.566Z</time>
      </trkpt>
      <trkpt lat="45.92246" lon="6.34713">
        <ele>1848</ele>
        <time>2026-08-19T07:17:20.566Z</time>
      </trkpt>
      <trkpt lat="45.92247" lon="6.34713">
        <ele>1848</ele>
        <time>2026-08-19T07:17:21.566Z</time>
      </trkpt>
      <trkpt lat="45.92247" lon="6.34713">
        <ele>1848</ele>
        <time>2026-08-19T07:17:22.566Z</time>
      </trkpt>
      <trkpt lat="45.92247" lon="6.34713">
        <ele>1848</ele>
        <time>2026-08-19T07:17:23.566Z</time>
      </trkpt>
      <trkpt lat="45.92247" lon="6.34713">
        <ele>1848</ele>
        <time>2026-08-19T07:17:24.566Z</time>
      </trkpt>
      <trkpt lat="45.92247" lon="6.34713">
        <ele>1848</ele>
        <time>2026-08-19T07:17:25.566Z</time>
      </trkpt>
      <trkpt lat="45.92247" lon="6.34713">
        <ele>1848</ele>
        <time>2026-08-19T07:17:26.566Z</time>
      </trkpt>
      <trkpt lat="45.92247" lon="6.34713">
        <ele>1848</ele>
        <time>2026-08-19T07:17:27.566Z</time>
      </trkpt>
      <trkpt lat="45.92247" lon="6.34713">
        <ele>1848</ele>
        <time>2026-08-19T07:17:28.566Z</time>
      </trkpt>
      <trkpt lat="45.92247" lon="6.34713">
        <ele>1848</ele>
        <time>2026-08-19T07:17:29.566Z</time>
      </trkpt>
      <trkpt lat="45.92247" lon="6.34713">
        <ele>1848</ele>
        <time>2026-08-19T07:17:30.566Z</time>
      </trkpt>
      <trkpt lat="45.92247" lon="6.34713">
        <ele>1848</ele>
        <time>2026-08-19T07:17:31.566Z</time>
      </trkpt>
      <trkpt lat="45.92247" lon="6.34713">
        <ele>1848</ele>
        <time>2026-08-19T07:17:32.566Z</time>
      </trkpt>
      <trkpt lat="45.92247" lon="6.34713">
        <ele>1848</ele>
        <time>2026-08-19T07:17:33.566Z</time>
      </trkpt>
      <trkpt lat="45.92247" lon="6.34713">
        <ele>1848</ele>
        <time>2026-08-19T07:17:34.566Z</time>
      </trkpt>
      <trkpt lat="45.92247" lon="6.34712">
        <ele>1848</ele>
        <time>2026-08-19T07:17:35.566Z</time>
      </trkpt>
      <trkpt lat="45.92247" lon="6.34712">
        <ele>1848</ele>
        <time>2026-08-19T07:17:36.566Z</time>
      </trkpt>
      <trkpt lat="45.92247" lon="6.34712">
        <ele>1848</ele>
        <time>2026-08-19T07:17:37.566Z</time>
      </trkpt>
      <trkpt lat="45.92247" lon="6.34712">
        <ele>1848</ele>
        <time>2026-08-19T07:17:38.566Z</time>
      </trkpt>
      <trkpt lat="45.92247" lon="6.34712">
        <ele>1848</ele>
        <time>2026-08-19T07:17:39.566Z</time>
      </trkpt>
      <trkpt lat="45.92248" lon="6.34711">
        <ele>1848</ele>
        <time>2026-08-19T07:17:40.566Z</time>
      </trkpt>
      <trkpt lat="45.92248" lon="6.34711">
        <ele>1849</ele>
        <time>2026-08-19T07:17:41.566Z</time>
      </trkpt>
      <trkpt lat="45.92248" lon="6.34711">
        <ele>1849</ele>
        <time>2026-08-19T07:17:42.566Z</time>
      </trkpt>
      <trkpt lat="45.92248" lon="6.34711">
        <ele>1849</ele>
        <time>2026-08-19T07:17:43.566Z</time>
      </trkpt>
      <trkpt lat="45.92248" lon="6.34711">
        <ele>1849</ele>
        <time>2026-08-19T07:17:44.566Z</time>
      </trkpt>
      <trkpt lat="45.92248" lon="6.34711">
        <ele>1849</ele>
        <time>2026-08-19T07:17:45.566Z</time>
      </trkpt>
      <trkpt lat="45.92249" lon="6.34711">
        <ele>1849</ele>
        <time>2026-08-19T07:17:46.566Z</time>
      </trkpt>
      <trkpt lat="45.92249" lon="6.34711">
        <ele>1849</ele>
        <time>2026-08-19T07:17:47.566Z</time>
      </trkpt>
      <trkpt lat="45.92249" lon="6.34711">
        <ele>1849</ele>
        <time>2026-08-19T07:17:48.566Z</time>
      </trkpt>
      <trkpt lat="45.92249" lon="6.34711">
        <ele>1849</ele>
        <time>2026-08-19T07:17:49.567Z</time>
      </trkpt>
      <trkpt lat="45.9225" lon="6.34711">
        <ele>1849</ele>
        <time>2026-08-19T07:17:50.566Z</time>
      </trkpt>
      <trkpt lat="45.9225" lon="6.34711">
        <ele>1849</ele>
        <time>2026-08-19T07:17:51.566Z</time>
      </trkpt>
      <trkpt lat="45.9225" lon="6.34711">
        <ele>1850</ele>
        <time>2026-08-19T07:17:52.566Z</time>
      </trkpt>
      <trkpt lat="45.92251" lon="6.34711">
        <ele>1850</ele>
        <time>2026-08-19T07:17:53.566Z</time>
      </trkpt>
      <trkpt lat="45.92251" lon="6.34711">
        <ele>1850</ele>
        <time>2026-08-19T07:17:54.566Z</time>
      </trkpt>
      <trkpt lat="45.92251" lon="6.34711">
        <ele>1850</ele>
        <time>2026-08-19T07:17:55.566Z</time>
      </trkpt>
      <trkpt lat="45.92252" lon="6.34711">
        <ele>1850</ele>
        <time>2026-08-19T07:17:56.566Z</time>
      </trkpt>
      <trkpt lat="45.92252" lon="6.34711">
        <ele>1850</ele>
        <time>2026-08-19T07:17:57.566Z</time>
      </trkpt>
      <trkpt lat="45.92252" lon="6.34712">
        <ele>1850</ele>
        <time>2026-08-19T07:17:58.566Z</time>
      </trkpt>
      <trkpt lat="45.92252" lon="6.34712">
        <ele>1850</ele>
        <time>2026-08-19T07:17:59.566Z</time>
      </trkpt>
      <trkpt lat="45.92252" lon="6.34712">
        <ele>1850</ele>
        <time>2026-08-19T07:18:00.566Z</time>
      </trkpt>
      <trkpt lat="45.92253" lon="6.34712">
        <ele>1850</ele>
        <time>2026-08-19T07:18:01.566Z</time>
      </trkpt>
      <trkpt lat="45.92253" lon="6.34712">
        <ele>1850</ele>
        <time>2026-08-19T07:18:02.566Z</time>
      </trkpt>
      <trkpt lat="45.92253" lon="6.34713">
        <ele>1850</ele>
        <time>2026-08-19T07:18:03.566Z</time>
      </trkpt>
      <trkpt lat="45.92253" lon="6.34713">
        <ele>1850</ele>
        <time>2026-08-19T07:18:04.566Z</time>
      </trkpt>
      <trkpt lat="45.92253" lon="6.34713">
        <ele>1850</ele>
        <time>2026-08-19T07:18:05.566Z</time>
      </trkpt>
      <trkpt lat="45.92253" lon="6.34713">
        <ele>1850</ele>
        <time>2026-08-19T07:18:06.566Z</time>
      </trkpt>
      <trkpt lat="45.92253" lon="6.34713">
        <ele>1850</ele>
        <time>2026-08-19T07:18:07.566Z</time>
      </trkpt>
      <trkpt lat="45.92253" lon="6.34714">
        <ele>1850</ele>
        <time>2026-08-19T07:18:08.566Z</time>
      </trkpt>
      <trkpt lat="45.92253" lon="6.34714">
        <ele>1850</ele>
        <time>2026-08-19T07:18:09.566Z</time>
      </trkpt>
      <trkpt lat="45.92253" lon="6.34714">
        <ele>1850</ele>
        <time>2026-08-19T07:18:10.566Z</time>
      </trkpt>
      <trkpt lat="45.92253" lon="6.34715">
        <ele>1850</ele>
        <time>2026-08-19T07:18:11.566Z</time>
      </trkpt>
      <trkpt lat="45.92253" lon="6.34715">
        <ele>1850</ele>
        <time>2026-08-19T07:18:12.566Z</time>
      </trkpt>
      <trkpt lat="45.92253" lon="6.34715">
        <ele>1850</ele>
        <time>2026-08-19T07:18:13.566Z</time>
      </trkpt>
      <trkpt lat="45.92253" lon="6.34716">
        <ele>1850</ele>
        <time>2026-08-19T07:18:14.566Z</time>
      </trkpt>
      <trkpt lat="45.92253" lon="6.34716">
        <ele>1850</ele>
        <time>2026-08-19T07:18:15.566Z</time>
      </trkpt>
      <trkpt lat="45.92253" lon="6.34717">
        <ele>1851</ele>
        <time>2026-08-19T07:18:16.566Z</time>
      </trkpt>
      <trkpt lat="45.92253" lon="6.34717">
        <ele>1851</ele>
        <time>2026-08-19T07:18:17.566Z</time>
      </trkpt>
      <trkpt lat="45.92253" lon="6.34718">
        <ele>1851</ele>
        <time>2026-08-19T07:18:18.566Z</time>
      </trkpt>
      <trkpt lat="45.92253" lon="6.34718">
        <ele>1851</ele>
        <time>2026-08-19T07:18:19.566Z</time>
      </trkpt>
      <trkpt lat="45.92253" lon="6.34718">
        <ele>1851</ele>
        <time>2026-08-19T07:18:20.566Z</time>
      </trkpt>
      <trkpt lat="45.92253" lon="6.34718">
        <ele>1851</ele>
        <time>2026-08-19T07:18:21.566Z</time>
      </trkpt>
      <trkpt lat="45.92253" lon="6.34719">
        <ele>1851</ele>
        <time>2026-08-19T07:18:22.566Z</time>
      </trkpt>
      <trkpt lat="45.92253" lon="6.34719">
        <ele>1851</ele>
        <time>2026-08-19T07:18:23.566Z</time>
      </trkpt>
      <trkpt lat="45.92254" lon="6.34719">
        <ele>1851</ele>
        <time>2026-08-19T07:18:24.566Z</time>
      </trkpt>
      <trkpt lat="45.92254" lon="6.34719">
        <ele>1851</ele>
        <time>2026-08-19T07:18:25.566Z</time>
      </trkpt>
      <trkpt lat="45.92254" lon="6.34719">
        <ele>1851</ele>
        <time>2026-08-19T07:18:26.566Z</time>
      </trkpt>
      <trkpt lat="45.92254" lon="6.34719">
        <ele>1851</ele>
        <time>2026-08-19T07:18:27.566Z</time>
      </trkpt>
      <trkpt lat="45.92254" lon="6.34719">
        <ele>1851</ele>
        <time>2026-08-19T07:18:28.566Z</time>
      </trkpt>
      <trkpt lat="45.92254" lon="6.34719">
        <ele>1851</ele>
        <time>2026-08-19T07:18:29.566Z</time>
      </trkpt>
      <trkpt lat="45.92254" lon="6.34719">
        <ele>1851</ele>
        <time>2026-08-19T07:18:30.566Z</time>
      </trkpt>
      <trkpt lat="45.92254" lon="6.34719">
        <ele>1851</ele>
        <time>2026-08-19T07:18:31.566Z</time>
      </trkpt>
      <trkpt lat="45.92254" lon="6.34719">
        <ele>1851</ele>
        <time>2026-08-19T07:18:32.566Z</time>
      </trkpt>
      <trkpt lat="45.92254" lon="6.34719">
        <ele>1851</ele>
        <time>2026-08-19T07:18:33.566Z</time>
      </trkpt>
      <trkpt lat="45.92254" lon="6.34719">
        <ele>1851</ele>
        <time>2026-08-19T07:18:34.566Z</time>
      </trkpt>
      <trkpt lat="45.92255" lon="6.34719">
        <ele>1851</ele>
        <time>2026-08-19T07:18:35.566Z</time>
      </trkpt>
      <trkpt lat="45.92255" lon="6.34719">
        <ele>1851</ele>
        <time>2026-08-19T07:18:36.566Z</time>
      </trkpt>
      <trkpt lat="45.92255" lon="6.34719">
        <ele>1851</ele>
        <time>2026-08-19T07:18:37.566Z</time>
      </trkpt>
      <trkpt lat="45.92255" lon="6.34719">
        <ele>1851</ele>
        <time>2026-08-19T07:18:38.566Z</time>
      </trkpt>
      <trkpt lat="45.92255" lon="6.34719">
        <ele>1851</ele>
        <time>2026-08-19T07:18:39.566Z</time>
      </trkpt>
      <trkpt lat="45.92255" lon="6.34719">
        <ele>1851</ele>
        <time>2026-08-19T07:18:40.566Z</time>
      </trkpt>
      <trkpt lat="45.92255" lon="6.34719">
        <ele>1852</ele>
        <time>2026-08-19T07:18:41.566Z</time>
      </trkpt>
      <trkpt lat="45.92255" lon="6.34719">
        <ele>1852</ele>
        <time>2026-08-19T07:18:42.566Z</time>
      </trkpt>
      <trkpt lat="45.92256" lon="6.34719">
        <ele>1852</ele>
        <time>2026-08-19T07:18:43.566Z</time>
      </trkpt>
      <trkpt lat="45.92257" lon="6.34721">
        <ele>1852</ele>
        <time>2026-08-19T07:18:44.566Z</time>
      </trkpt>
      <trkpt lat="45.92258" lon="6.34722">
        <ele>1852</ele>
        <time>2026-08-19T07:18:45.566Z</time>
      </trkpt>
      <trkpt lat="45.92258" lon="6.34724">
        <ele>1853</ele>
        <time>2026-08-19T07:18:46.566Z</time>
      </trkpt>
      <trkpt lat="45.92259" lon="6.34725">
        <ele>1853</ele>
        <time>2026-08-19T07:18:47.566Z</time>
      </trkpt>
      <trkpt lat="45.9226" lon="6.34727">
        <ele>1854</ele>
        <time>2026-08-19T07:18:48.566Z</time>
      </trkpt>
      <trkpt lat="45.9226" lon="6.34728">
        <ele>1854</ele>
        <time>2026-08-19T07:18:49.566Z</time>
      </trkpt>
      <trkpt lat="45.92261" lon="6.3473">
        <ele>1855</ele>
        <time>2026-08-19T07:18:50.566Z</time>
      </trkpt>
      <trkpt lat="45.92262" lon="6.34731">
        <ele>1855</ele>
        <time>2026-08-19T07:18:51.566Z</time>
      </trkpt>
      <trkpt lat="45.92263" lon="6.34732">
        <ele>1856</ele>
        <time>2026-08-19T07:18:52.566Z</time>
      </trkpt>
      <trkpt lat="45.92263" lon="6.34733">
        <ele>1857</ele>
        <time>2026-08-19T07:18:53.566Z</time>
      </trkpt>
      <trkpt lat="45.92263" lon="6.34734">
        <ele>1857</ele>
        <time>2026-08-19T07:18:54.566Z</time>
      </trkpt>
      <trkpt lat="45.92263" lon="6.34734">
        <ele>1858</ele>
        <time>2026-08-19T07:18:55.566Z</time>
      </trkpt>
      <trkpt lat="45.92263" lon="6.34734">
        <ele>1858</ele>
        <time>2026-08-19T07:18:56.566Z</time>
      </trkpt>
      <trkpt lat="45.92264" lon="6.34734">
        <ele>1859</ele>
        <time>2026-08-19T07:18:57.566Z</time>
      </trkpt>
      <trkpt lat="45.92263" lon="6.34734">
        <ele>1860</ele>
        <time>2026-08-19T07:18:58.566Z</time>
      </trkpt>
      <trkpt lat="45.92263" lon="6.34734">
        <ele>1860</ele>
        <time>2026-08-19T07:18:59.566Z</time>
      </trkpt>
      <trkpt lat="45.92263" lon="6.34734">
        <ele>1861</ele>
        <time>2026-08-19T07:19:00.566Z</time>
      </trkpt>
      <trkpt lat="45.92263" lon="6.34734">
        <ele>1861</ele>
        <time>2026-08-19T07:19:01.566Z</time>
      </trkpt>
      <trkpt lat="45.92263" lon="6.34734">
        <ele>1861</ele>
        <time>2026-08-19T07:19:02.566Z</time>
      </trkpt>
      <trkpt lat="45.92264" lon="6.34734">
        <ele>1862</ele>
        <time>2026-08-19T07:19:03.566Z</time>
      </trkpt>
      <trkpt lat="45.92264" lon="6.34734">
        <ele>1862</ele>
        <time>2026-08-19T07:19:04.566Z</time>
      </trkpt>
      <trkpt lat="45.92264" lon="6.34733">
        <ele>1862</ele>
        <time>2026-08-19T07:19:05.566Z</time>
      </trkpt>
      <trkpt lat="45.92264" lon="6.34734">
        <ele>1862</ele>
        <time>2026-08-19T07:19:06.567Z</time>
      </trkpt>
      <trkpt lat="45.92263" lon="6.34734">
        <ele>1862</ele>
        <time>2026-08-19T07:19:07.566Z</time>
      </trkpt>
      <trkpt lat="45.92263" lon="6.34734">
        <ele>1862</ele>
        <time>2026-08-19T07:19:08.566Z</time>
      </trkpt>
      <trkpt lat="45.92263" lon="6.34734">
        <ele>1863</ele>
        <time>2026-08-19T07:19:09.566Z</time>
      </trkpt>
      <trkpt lat="45.92263" lon="6.34735">
        <ele>1863</ele>
        <time>2026-08-19T07:19:10.566Z</time>
      </trkpt>
      <trkpt lat="45.92263" lon="6.34735">
        <ele>1863</ele>
        <time>2026-08-19T07:19:11.566Z</time>
      </trkpt>
      <trkpt lat="45.92262" lon="6.34735">
        <ele>1864</ele>
        <time>2026-08-19T07:19:12.566Z</time>
      </trkpt>
      <trkpt lat="45.92262" lon="6.34734">
        <ele>1864</ele>
        <time>2026-08-19T07:19:13.566Z</time>
      </trkpt>
      <trkpt lat="45.92262" lon="6.34734">
        <ele>1865</ele>
        <time>2026-08-19T07:19:14.566Z</time>
      </trkpt>
      <trkpt lat="45.92262" lon="6.34734">
        <ele>1865</ele>
        <time>2026-08-19T07:19:15.566Z</time>
      </trkpt>
      <trkpt lat="45.92262" lon="6.34734">
        <ele>1865</ele>
        <time>2026-08-19T07:19:16.566Z</time>
      </trkpt>
      <trkpt lat="45.92262" lon="6.34734">
        <ele>1866</ele>
        <time>2026-08-19T07:19:17.566Z</time>
      </trkpt>
      <trkpt lat="45.92262" lon="6.34734">
        <ele>1866</ele>
        <time>2026-08-19T07:19:18.566Z</time>
      </trkpt>
      <trkpt lat="45.92262" lon="6.34734">
        <ele>1866</ele>
        <time>2026-08-19T07:19:19.566Z</time>
      </trkpt>
      <trkpt lat="45.92262" lon="6.34734">
        <ele>1866</ele>
        <time>2026-08-19T07:19:20.566Z</time>
      </trkpt>
      <trkpt lat="45.92262" lon="6.34734">
        <ele>1867</ele>
        <time>2026-08-19T07:19:21.566Z</time>
      </trkpt>
      <trkpt lat="45.92262" lon="6.34734">
        <ele>1867</ele>
        <time>2026-08-19T07:19:22.566Z</time>
      </trkpt>
      <trkpt lat="45.92262" lon="6.34734">
        <ele>1867</ele>
        <time>2026-08-19T07:19:23.566Z</time>
      </trkpt>
      <trkpt lat="45.92262" lon="6.34734">
        <ele>1867</ele>
        <time>2026-08-19T07:19:24.566Z</time>
      </trkpt>
      <trkpt lat="45.92262" lon="6.34734">
        <ele>1867</ele>
        <time>2026-08-19T07:19:25.566Z</time>
      </trkpt>
      <trkpt lat="45.92262" lon="6.34734">
        <ele>1867</ele>
        <time>2026-08-19T07:19:26.566Z</time>
      </trkpt>
      <trkpt lat="45.92262" lon="6.34734">
        <ele>1867</ele>
        <time>2026-08-19T07:19:27.566Z</time>
      </trkpt>
      <trkpt lat="45.92262" lon="6.34734">
        <ele>1867</ele>
        <time>2026-08-19T07:19:28.566Z</time>
      </trkpt>
      <trkpt lat="45.92262" lon="6.34734">
        <ele>1867</ele>
        <time>2026-08-19T07:19:29.566Z</time>
      </trkpt>
      <trkpt lat="45.92262" lon="6.34734">
        <ele>1868</ele>
        <time>2026-08-19T07:19:30.566Z</time>
      </trkpt>
      <trkpt lat="45.92262" lon="6.34734">
        <ele>1868</ele>
        <time>2026-08-19T07:19:31.566Z</time>
      </trkpt>
      <trkpt lat="45.92262" lon="6.34734">
        <ele>1868</ele>
        <time>2026-08-19T07:19:32.566Z</time>
      </trkpt>
      <trkpt lat="45.92262" lon="6.34734">
        <ele>1868</ele>
        <time>2026-08-19T07:19:33.566Z</time>
      </trkpt>
      <trkpt lat="45.92262" lon="6.34735">
        <ele>1868</ele>
        <time>2026-08-19T07:19:34.566Z</time>
      </trkpt>
      <trkpt lat="45.92262" lon="6.34735">
        <ele>1868</ele>
        <time>2026-08-19T07:19:35.566Z</time>
      </trkpt>
      <trkpt lat="45.92262" lon="6.34735">
        <ele>1868</ele>
        <time>2026-08-19T07:19:36.566Z</time>
      </trkpt>
      <trkpt lat="45.92262" lon="6.34735">
        <ele>1868</ele>
        <time>2026-08-19T07:19:37.566Z</time>
      </trkpt>
      <trkpt lat="45.92262" lon="6.34735">
        <ele>1868</ele>
        <time>2026-08-19T07:19:38.566Z</time>
      </trkpt>
      <trkpt lat="45.92262" lon="6.34735">
        <ele>1868</ele>
        <time>2026-08-19T07:19:39.566Z</time>
      </trkpt>
      <trkpt lat="45.92262" lon="6.34735">
        <ele>1868</ele>
        <time>2026-08-19T07:19:40.566Z</time>
      </trkpt>
      <trkpt lat="45.92262" lon="6.34735">
        <ele>1868</ele>
        <time>2026-08-19T07:19:41.566Z</time>
      </trkpt>
      <trkpt lat="45.92262" lon="6.34735">
        <ele>1868</ele>
        <time>2026-08-19T07:19:42.566Z</time>
      </trkpt>
      <trkpt lat="45.92262" lon="6.34735">
        <ele>1868</ele>
        <time>2026-08-19T07:19:43.566Z</time>
      </trkpt>
      <trkpt lat="45.92262" lon="6.34735">
        <ele>1868</ele>
        <time>2026-08-19T07:19:44.566Z</time>
      </trkpt>
      <trkpt lat="45.92262" lon="6.34735">
        <ele>1868</ele>
        <time>2026-08-19T07:19:45.566Z</time>
      </trkpt>
      <trkpt lat="45.92262" lon="6.34735">
        <ele>1868</ele>
        <time>2026-08-19T07:19:46.566Z</time>
      </trkpt>
      <trkpt lat="45.92262" lon="6.34735">
        <ele>1868</ele>
        <time>2026-08-19T07:19:47.566Z</time>
      </trkpt>
      <trkpt lat="45.92262" lon="6.34735">
        <ele>1868</ele>
        <time>2026-08-19T07:19:48.566Z</time>
      </trkpt>
      <trkpt lat="45.92262" lon="6.34735">
        <ele>1868</ele>
        <time>2026-08-19T07:19:49.566Z</time>
      </trkpt>
      <trkpt lat="45.92262" lon="6.34735">
        <ele>1868</ele>
        <time>2026-08-19T07:19:50.566Z</time>
      </trkpt>
      <trkpt lat="45.92262" lon="6.34735">
        <ele>1868</ele>
        <time>2026-08-19T07:19:51.566Z</time>
      </trkpt>
      <trkpt lat="45.92262" lon="6.34735">
        <ele>1868</ele>
        <time>2026-08-19T07:19:52.566Z</time>
      </trkpt>
      <trkpt lat="45.92262" lon="6.34735">
        <ele>1868</ele>
        <time>2026-08-19T07:19:53.566Z</time>
      </trkpt>
      <trkpt lat="45.92262" lon="6.34735">
        <ele>1868</ele>
        <time>2026-08-19T07:19:54.566Z</time>
      </trkpt>
      <trkpt lat="45.92262" lon="6.34735">
        <ele>1868</ele>
        <time>2026-08-19T07:19:55.566Z</time>
      </trkpt>
      <trkpt lat="45.92262" lon="6.34735">
        <ele>1868</ele>
        <time>2026-08-19T07:19:56.566Z</time>
      </trkpt>
      <trkpt lat="45.92264" lon="6.34734">
        <ele>1868</ele>
        <time>2026-08-19T07:19:57.566Z</time>
      </trkpt>
      <trkpt lat="45.92265" lon="6.34733">
        <ele>1868</ele>
        <time>2026-08-19T07:19:58.566Z</time>
      </trkpt>
      <trkpt lat="45.92266" lon="6.34732">
        <ele>1868</ele>
        <time>2026-08-19T07:19:59.566Z</time>
      </trkpt>
      <trkpt lat="45.92268" lon="6.34731">
        <ele>1868</ele>
        <time>2026-08-19T07:20:00.566Z</time>
      </trkpt>
      <trkpt lat="45.9227" lon="6.34731">
        <ele>1868</ele>
        <time>2026-08-19T07:20:01.566Z</time>
      </trkpt>
      <trkpt lat="45.92271" lon="6.3473">
        <ele>1868</ele>
        <time>2026-08-19T07:20:02.566Z</time>
      </trkpt>
      <trkpt lat="45.92273" lon="6.34729">
        <ele>1869</ele>
        <time>2026-08-19T07:20:03.566Z</time>
      </trkpt>
      <trkpt lat="45.92275" lon="6.34729">
        <ele>1869</ele>
        <time>2026-08-19T07:20:04.566Z</time>
      </trkpt>
      <trkpt lat="45.92276" lon="6.34728">
        <ele>1869</ele>
        <time>2026-08-19T07:20:05.566Z</time>
      </trkpt>
      <trkpt lat="45.92277" lon="6.34729">
        <ele>1869</ele>
        <time>2026-08-19T07:20:06.566Z</time>
      </trkpt>
      <trkpt lat="45.92278" lon="6.34729">
        <ele>1869</ele>
        <time>2026-08-19T07:20:07.566Z</time>
      </trkpt>
      <trkpt lat="45.92279" lon="6.34729">
        <ele>1869</ele>
        <time>2026-08-19T07:20:08.566Z</time>
      </trkpt>
      <trkpt lat="45.9228" lon="6.3473">
        <ele>1869</ele>
        <time>2026-08-19T07:20:09.566Z</time>
      </trkpt>
      <trkpt lat="45.9228" lon="6.34731">
        <ele>1869</ele>
        <time>2026-08-19T07:20:10.566Z</time>
      </trkpt>
      <trkpt lat="45.92281" lon="6.34731">
        <ele>1870</ele>
        <time>2026-08-19T07:20:11.566Z</time>
      </trkpt>
      <trkpt lat="45.92281" lon="6.3473">
        <ele>1870</ele>
        <time>2026-08-19T07:20:12.566Z</time>
      </trkpt>
      <trkpt lat="45.92282" lon="6.3473">
        <ele>1870</ele>
        <time>2026-08-19T07:20:13.566Z</time>
      </trkpt>
      <trkpt lat="45.92283" lon="6.34731">
        <ele>1871</ele>
        <time>2026-08-19T07:20:14.566Z</time>
      </trkpt>
      <trkpt lat="45.92284" lon="6.34731">
        <ele>1871</ele>
        <time>2026-08-19T07:20:15.566Z</time>
      </trkpt>
      <trkpt lat="45.92285" lon="6.34731">
        <ele>1871</ele>
        <time>2026-08-19T07:20:16.566Z</time>
      </trkpt>
      <trkpt lat="45.92285" lon="6.34731">
        <ele>1871</ele>
        <time>2026-08-19T07:20:17.566Z</time>
      </trkpt>
      <trkpt lat="45.92286" lon="6.34731">
        <ele>1871</ele>
        <time>2026-08-19T07:20:18.566Z</time>
      </trkpt>
      <trkpt lat="45.92287" lon="6.34732">
        <ele>1872</ele>
        <time>2026-08-19T07:20:19.566Z</time>
      </trkpt>
      <trkpt lat="45.92288" lon="6.34732">
        <ele>1872</ele>
        <time>2026-08-19T07:20:20.566Z</time>
      </trkpt>
      <trkpt lat="45.92289" lon="6.34732">
        <ele>1872</ele>
        <time>2026-08-19T07:20:21.566Z</time>
      </trkpt>
      <trkpt lat="45.9229" lon="6.34733">
        <ele>1872</ele>
        <time>2026-08-19T07:20:22.566Z</time>
      </trkpt>
      <trkpt lat="45.92291" lon="6.34733">
        <ele>1872</ele>
        <time>2026-08-19T07:20:23.566Z</time>
      </trkpt>
      <trkpt lat="45.92292" lon="6.34733">
        <ele>1872</ele>
        <time>2026-08-19T07:20:24.566Z</time>
      </trkpt>
      <trkpt lat="45.92293" lon="6.34734">
        <ele>1872</ele>
        <time>2026-08-19T07:20:25.566Z</time>
      </trkpt>
      <trkpt lat="45.92294" lon="6.34734">
        <ele>1872</ele>
        <time>2026-08-19T07:20:26.566Z</time>
      </trkpt>
      <trkpt lat="45.92295" lon="6.34734">
        <ele>1873</ele>
        <time>2026-08-19T07:20:27.566Z</time>
      </trkpt>
      <trkpt lat="45.92295" lon="6.34733">
        <ele>1873</ele>
        <time>2026-08-19T07:20:28.566Z</time>
      </trkpt>
      <trkpt lat="45.92296" lon="6.34733">
        <ele>1873</ele>
        <time>2026-08-19T07:20:29.566Z</time>
      </trkpt>
      <trkpt lat="45.92297" lon="6.34732">
        <ele>1873</ele>
        <time>2026-08-19T07:20:30.566Z</time>
      </trkpt>
      <trkpt lat="45.92298" lon="6.34732">
        <ele>1874</ele>
        <time>2026-08-19T07:20:31.566Z</time>
      </trkpt>
      <trkpt lat="45.92298" lon="6.34732">
        <ele>1874</ele>
        <time>2026-08-19T07:20:32.566Z</time>
      </trkpt>
      <trkpt lat="45.92299" lon="6.34732">
        <ele>1874</ele>
        <time>2026-08-19T07:20:33.566Z</time>
      </trkpt>
      <trkpt lat="45.923" lon="6.34733">
        <ele>1874</ele>
        <time>2026-08-19T07:20:34.566Z</time>
      </trkpt>
      <trkpt lat="45.92301" lon="6.34733">
        <ele>1874</ele>
        <time>2026-08-19T07:20:35.566Z</time>
      </trkpt>
      <trkpt lat="45.92302" lon="6.34734">
        <ele>1875</ele>
        <time>2026-08-19T07:20:36.566Z</time>
      </trkpt>
      <trkpt lat="45.92303" lon="6.34735">
        <ele>1875</ele>
        <time>2026-08-19T07:20:37.566Z</time>
      </trkpt>
      <trkpt lat="45.92303" lon="6.34736">
        <ele>1875</ele>
        <time>2026-08-19T07:20:38.566Z</time>
      </trkpt>
      <trkpt lat="45.92304" lon="6.34737">
        <ele>1875</ele>
        <time>2026-08-19T07:20:39.566Z</time>
      </trkpt>
      <trkpt lat="45.92305" lon="6.34738">
        <ele>1875</ele>
        <time>2026-08-19T07:20:40.566Z</time>
      </trkpt>
      <trkpt lat="45.92306" lon="6.34739">
        <ele>1875</ele>
        <time>2026-08-19T07:20:41.566Z</time>
      </trkpt>
      <trkpt lat="45.92307" lon="6.34739">
        <ele>1875</ele>
        <time>2026-08-19T07:20:42.566Z</time>
      </trkpt>
      <trkpt lat="45.92307" lon="6.3474">
        <ele>1876</ele>
        <time>2026-08-19T07:20:43.566Z</time>
      </trkpt>
      <trkpt lat="45.92308" lon="6.3474">
        <ele>1876</ele>
        <time>2026-08-19T07:20:44.566Z</time>
      </trkpt>
      <trkpt lat="45.92309" lon="6.3474">
        <ele>1876</ele>
        <time>2026-08-19T07:20:45.566Z</time>
      </trkpt>
      <trkpt lat="45.9231" lon="6.3474">
        <ele>1877</ele>
        <time>2026-08-19T07:20:46.566Z</time>
      </trkpt>
      <trkpt lat="45.92311" lon="6.3474">
        <ele>1877</ele>
        <time>2026-08-19T07:20:47.566Z</time>
      </trkpt>
      <trkpt lat="45.92312" lon="6.34741">
        <ele>1878</ele>
        <time>2026-08-19T07:20:48.566Z</time>
      </trkpt>
      <trkpt lat="45.92313" lon="6.34742">
        <ele>1878</ele>
        <time>2026-08-19T07:20:49.566Z</time>
      </trkpt>
      <trkpt lat="45.92314" lon="6.34743">
        <ele>1878</ele>
        <time>2026-08-19T07:20:50.566Z</time>
      </trkpt>
      <trkpt lat="45.92315" lon="6.34743">
        <ele>1878</ele>
        <time>2026-08-19T07:20:51.566Z</time>
      </trkpt>
      <trkpt lat="45.92316" lon="6.34744">
        <ele>1878</ele>
        <time>2026-08-19T07:20:52.566Z</time>
      </trkpt>
      <trkpt lat="45.92316" lon="6.34745">
        <ele>1878</ele>
        <time>2026-08-19T07:20:53.566Z</time>
      </trkpt>
      <trkpt lat="45.92317" lon="6.34745">
        <ele>1878</ele>
        <time>2026-08-19T07:20:54.566Z</time>
      </trkpt>
      <trkpt lat="45.92318" lon="6.34745">
        <ele>1878</ele>
        <time>2026-08-19T07:20:55.566Z</time>
      </trkpt>
      <trkpt lat="45.92319" lon="6.34745">
        <ele>1878</ele>
        <time>2026-08-19T07:20:56.566Z</time>
      </trkpt>
      <trkpt lat="45.92319" lon="6.34746">
        <ele>1879</ele>
        <time>2026-08-19T07:20:57.566Z</time>
      </trkpt>
      <trkpt lat="45.9232" lon="6.34746">
        <ele>1879</ele>
        <time>2026-08-19T07:20:58.566Z</time>
      </trkpt>
      <trkpt lat="45.92321" lon="6.34746">
        <ele>1879</ele>
        <time>2026-08-19T07:20:59.566Z</time>
      </trkpt>
      <trkpt lat="45.92321" lon="6.34747">
        <ele>1879</ele>
        <time>2026-08-19T07:21:00.566Z</time>
      </trkpt>
      <trkpt lat="45.92322" lon="6.34747">
        <ele>1879</ele>
        <time>2026-08-19T07:21:01.566Z</time>
      </trkpt>
      <trkpt lat="45.92323" lon="6.34747">
        <ele>1879</ele>
        <time>2026-08-19T07:21:02.566Z</time>
      </trkpt>
      <trkpt lat="45.92324" lon="6.34747">
        <ele>1879</ele>
        <time>2026-08-19T07:21:03.566Z</time>
      </trkpt>
      <trkpt lat="45.92324" lon="6.34748">
        <ele>1879</ele>
        <time>2026-08-19T07:21:04.566Z</time>
      </trkpt>
      <trkpt lat="45.92325" lon="6.34748">
        <ele>1880</ele>
        <time>2026-08-19T07:21:05.566Z</time>
      </trkpt>
      <trkpt lat="45.92326" lon="6.34748">
        <ele>1880</ele>
        <time>2026-08-19T07:21:06.566Z</time>
      </trkpt>
      <trkpt lat="45.92327" lon="6.34748">
        <ele>1880</ele>
        <time>2026-08-19T07:21:07.566Z</time>
      </trkpt>
      <trkpt lat="45.92327" lon="6.34748">
        <ele>1880</ele>
        <time>2026-08-19T07:21:08.566Z</time>
      </trkpt>
      <trkpt lat="45.92328" lon="6.34748">
        <ele>1881</ele>
        <time>2026-08-19T07:21:09.566Z</time>
      </trkpt>
      <trkpt lat="45.92328" lon="6.34748">
        <ele>1881</ele>
        <time>2026-08-19T07:21:10.566Z</time>
      </trkpt>
      <trkpt lat="45.92329" lon="6.34749">
        <ele>1881</ele>
        <time>2026-08-19T07:21:11.566Z</time>
      </trkpt>
      <trkpt lat="45.9233" lon="6.34749">
        <ele>1881</ele>
        <time>2026-08-19T07:21:12.566Z</time>
      </trkpt>
      <trkpt lat="45.92331" lon="6.34749">
        <ele>1881</ele>
        <time>2026-08-19T07:21:13.566Z</time>
      </trkpt>
      <trkpt lat="45.92331" lon="6.3475">
        <ele>1882</ele>
        <time>2026-08-19T07:21:14.566Z</time>
      </trkpt>
      <trkpt lat="45.92332" lon="6.3475">
        <ele>1882</ele>
        <time>2026-08-19T07:21:15.566Z</time>
      </trkpt>
      <trkpt lat="45.92333" lon="6.3475">
        <ele>1882</ele>
        <time>2026-08-19T07:21:16.566Z</time>
      </trkpt>
      <trkpt lat="45.92333" lon="6.3475">
        <ele>1883</ele>
        <time>2026-08-19T07:21:17.566Z</time>
      </trkpt>
      <trkpt lat="45.92334" lon="6.3475">
        <ele>1883</ele>
        <time>2026-08-19T07:21:18.566Z</time>
      </trkpt>
      <trkpt lat="45.92334" lon="6.34749">
        <ele>1883</ele>
        <time>2026-08-19T07:21:19.566Z</time>
      </trkpt>
      <trkpt lat="45.92335" lon="6.34749">
        <ele>1884</ele>
        <time>2026-08-19T07:21:20.566Z</time>
      </trkpt>
      <trkpt lat="45.92335" lon="6.34749">
        <ele>1884</ele>
        <time>2026-08-19T07:21:21.566Z</time>
      </trkpt>
      <trkpt lat="45.92336" lon="6.34749">
        <ele>1884</ele>
        <time>2026-08-19T07:21:22.566Z</time>
      </trkpt>
      <trkpt lat="45.92336" lon="6.34749">
        <ele>1885</ele>
        <time>2026-08-19T07:21:23.566Z</time>
      </trkpt>
      <trkpt lat="45.92337" lon="6.34749">
        <ele>1885</ele>
        <time>2026-08-19T07:21:24.566Z</time>
      </trkpt>
      <trkpt lat="45.92337" lon="6.34749">
        <ele>1885</ele>
        <time>2026-08-19T07:21:25.566Z</time>
      </trkpt>
      <trkpt lat="45.92338" lon="6.34749">
        <ele>1885</ele>
        <time>2026-08-19T07:21:26.566Z</time>
      </trkpt>
      <trkpt lat="45.92338" lon="6.34749">
        <ele>1886</ele>
        <time>2026-08-19T07:21:27.566Z</time>
      </trkpt>
      <trkpt lat="45.92339" lon="6.34749">
        <ele>1886</ele>
        <time>2026-08-19T07:21:28.566Z</time>
      </trkpt>
      <trkpt lat="45.9234" lon="6.34749">
        <ele>1887</ele>
        <time>2026-08-19T07:21:29.566Z</time>
      </trkpt>
      <trkpt lat="45.9234" lon="6.34749">
        <ele>1887</ele>
        <time>2026-08-19T07:21:30.566Z</time>
      </trkpt>
      <trkpt lat="45.92341" lon="6.34749">
        <ele>1888</ele>
        <time>2026-08-19T07:21:31.566Z</time>
      </trkpt>
      <trkpt lat="45.92341" lon="6.34749">
        <ele>1887</ele>
        <time>2026-08-19T07:21:32.566Z</time>
      </trkpt>
      <trkpt lat="45.92341" lon="6.34749">
        <ele>1887</ele>
        <time>2026-08-19T07:21:33.566Z</time>
      </trkpt>
      <trkpt lat="45.92341" lon="6.34749">
        <ele>1888</ele>
        <time>2026-08-19T07:21:34.566Z</time>
      </trkpt>
      <trkpt lat="45.92341" lon="6.34749">
        <ele>1888</ele>
        <time>2026-08-19T07:21:35.566Z</time>
      </trkpt>
      <trkpt lat="45.92341" lon="6.34749">
        <ele>1888</ele>
        <time>2026-08-19T07:21:36.566Z</time>
      </trkpt>
      <trkpt lat="45.92342" lon="6.3475">
        <ele>1889</ele>
        <time>2026-08-19T07:21:37.566Z</time>
      </trkpt>
      <trkpt lat="45.92342" lon="6.34751">
        <ele>1889</ele>
        <time>2026-08-19T07:21:38.566Z</time>
      </trkpt>
      <trkpt lat="45.92342" lon="6.34751">
        <ele>1889</ele>
        <time>2026-08-19T07:21:39.566Z</time>
      </trkpt>
      <trkpt lat="45.92342" lon="6.34751">
        <ele>1889</ele>
        <time>2026-08-19T07:21:40.566Z</time>
      </trkpt>
      <trkpt lat="45.92342" lon="6.34752">
        <ele>1889</ele>
        <time>2026-08-19T07:21:41.566Z</time>
      </trkpt>
      <trkpt lat="45.92342" lon="6.34752">
        <ele>1889</ele>
        <time>2026-08-19T07:21:42.566Z</time>
      </trkpt>
      <trkpt lat="45.92342" lon="6.34752">
        <ele>1889</ele>
        <time>2026-08-19T07:21:43.566Z</time>
      </trkpt>
      <trkpt lat="45.92342" lon="6.34753">
        <ele>1889</ele>
        <time>2026-08-19T07:21:44.566Z</time>
      </trkpt>
      <trkpt lat="45.92342" lon="6.34753">
        <ele>1889</ele>
        <time>2026-08-19T07:21:45.566Z</time>
      </trkpt>
      <trkpt lat="45.92343" lon="6.34753">
        <ele>1889</ele>
        <time>2026-08-19T07:21:46.566Z</time>
      </trkpt>
      <trkpt lat="45.92343" lon="6.34754">
        <ele>1890</ele>
        <time>2026-08-19T07:21:47.566Z</time>
      </trkpt>
      <trkpt lat="45.92344" lon="6.34755">
        <ele>1890</ele>
        <time>2026-08-19T07:21:48.566Z</time>
      </trkpt>
      <trkpt lat="45.92345" lon="6.34755">
        <ele>1890</ele>
        <time>2026-08-19T07:21:49.566Z</time>
      </trkpt>
      <trkpt lat="45.92345" lon="6.34756">
        <ele>1890</ele>
        <time>2026-08-19T07:21:50.566Z</time>
      </trkpt>
      <trkpt lat="45.92346" lon="6.34756">
        <ele>1890</ele>
        <time>2026-08-19T07:21:51.566Z</time>
      </trkpt>
      <trkpt lat="45.92347" lon="6.34757">
        <ele>1890</ele>
        <time>2026-08-19T07:21:52.566Z</time>
      </trkpt>
      <trkpt lat="45.92347" lon="6.34757">
        <ele>1890</ele>
        <time>2026-08-19T07:21:53.566Z</time>
      </trkpt>
      <trkpt lat="45.92348" lon="6.34757">
        <ele>1890</ele>
        <time>2026-08-19T07:21:54.566Z</time>
      </trkpt>
      <trkpt lat="45.92349" lon="6.34758">
        <ele>1890</ele>
        <time>2026-08-19T07:21:55.566Z</time>
      </trkpt>
      <trkpt lat="45.92349" lon="6.34759">
        <ele>1890</ele>
        <time>2026-08-19T07:21:56.566Z</time>
      </trkpt>
      <trkpt lat="45.9235" lon="6.34759">
        <ele>1891</ele>
        <time>2026-08-19T07:21:57.566Z</time>
      </trkpt>
      <trkpt lat="45.9235" lon="6.3476">
        <ele>1891</ele>
        <time>2026-08-19T07:21:58.566Z</time>
      </trkpt>
      <trkpt lat="45.9235" lon="6.3476">
        <ele>1890</ele>
        <time>2026-08-19T07:21:59.566Z</time>
      </trkpt>
      <trkpt lat="45.92351" lon="6.34761">
        <ele>1890</ele>
        <time>2026-08-19T07:22:00.566Z</time>
      </trkpt>
      <trkpt lat="45.92352" lon="6.34762">
        <ele>1890</ele>
        <time>2026-08-19T07:22:01.566Z</time>
      </trkpt>
      <trkpt lat="45.92352" lon="6.34762">
        <ele>1890</ele>
        <time>2026-08-19T07:22:02.566Z</time>
      </trkpt>
      <trkpt lat="45.92352" lon="6.34763">
        <ele>1890</ele>
        <time>2026-08-19T07:22:03.566Z</time>
      </trkpt>
      <trkpt lat="45.92353" lon="6.34764">
        <ele>1890</ele>
        <time>2026-08-19T07:22:04.566Z</time>
      </trkpt>
      <trkpt lat="45.92354" lon="6.34765">
        <ele>1890</ele>
        <time>2026-08-19T07:22:05.566Z</time>
      </trkpt>
      <trkpt lat="45.92354" lon="6.34767">
        <ele>1890</ele>
        <time>2026-08-19T07:22:06.566Z</time>
      </trkpt>
      <trkpt lat="45.92355" lon="6.34767">
        <ele>1891</ele>
        <time>2026-08-19T07:22:07.566Z</time>
      </trkpt>
      <trkpt lat="45.92356" lon="6.34768">
        <ele>1891</ele>
        <time>2026-08-19T07:22:08.566Z</time>
      </trkpt>
      <trkpt lat="45.92357" lon="6.34769">
        <ele>1891</ele>
        <time>2026-08-19T07:22:09.566Z</time>
      </trkpt>
      <trkpt lat="45.92358" lon="6.3477">
        <ele>1891</ele>
        <time>2026-08-19T07:22:10.566Z</time>
      </trkpt>
      <trkpt lat="45.92359" lon="6.3477">
        <ele>1891</ele>
        <time>2026-08-19T07:22:11.566Z</time>
      </trkpt>
      <trkpt lat="45.92359" lon="6.34771">
        <ele>1891</ele>
        <time>2026-08-19T07:22:12.566Z</time>
      </trkpt>
      <trkpt lat="45.9236" lon="6.34772">
        <ele>1891</ele>
        <time>2026-08-19T07:22:13.566Z</time>
      </trkpt>
      <trkpt lat="45.9236" lon="6.34772">
        <ele>1891</ele>
        <time>2026-08-19T07:22:14.566Z</time>
      </trkpt>
      <trkpt lat="45.92361" lon="6.34773">
        <ele>1891</ele>
        <time>2026-08-19T07:22:15.566Z</time>
      </trkpt>
      <trkpt lat="45.92361" lon="6.34774">
        <ele>1891</ele>
        <time>2026-08-19T07:22:16.566Z</time>
      </trkpt>
      <trkpt lat="45.92361" lon="6.34774">
        <ele>1891</ele>
        <time>2026-08-19T07:22:17.566Z</time>
      </trkpt>
      <trkpt lat="45.92362" lon="6.34775">
        <ele>1891</ele>
        <time>2026-08-19T07:22:18.566Z</time>
      </trkpt>
      <trkpt lat="45.92362" lon="6.34776">
        <ele>1891</ele>
        <time>2026-08-19T07:22:19.566Z</time>
      </trkpt>
      <trkpt lat="45.92363" lon="6.34777">
        <ele>1892</ele>
        <time>2026-08-19T07:22:20.566Z</time>
      </trkpt>
      <trkpt lat="45.92363" lon="6.34778">
        <ele>1891</ele>
        <time>2026-08-19T07:22:21.566Z</time>
      </trkpt>
      <trkpt lat="45.92363" lon="6.34778">
        <ele>1892</ele>
        <time>2026-08-19T07:22:22.567Z</time>
      </trkpt>
      <trkpt lat="45.92364" lon="6.34779">
        <ele>1891</ele>
        <time>2026-08-19T07:22:23.566Z</time>
      </trkpt>
      <trkpt lat="45.92364" lon="6.34779">
        <ele>1891</ele>
        <time>2026-08-19T07:22:24.567Z</time>
      </trkpt>
      <trkpt lat="45.92364" lon="6.34779">
        <ele>1891</ele>
        <time>2026-08-19T07:22:25.566Z</time>
      </trkpt>
      <trkpt lat="45.92365" lon="6.34779">
        <ele>1891</ele>
        <time>2026-08-19T07:22:26.566Z</time>
      </trkpt>
      <trkpt lat="45.92365" lon="6.34779">
        <ele>1891</ele>
        <time>2026-08-19T07:22:27.566Z</time>
      </trkpt>
      <trkpt lat="45.92365" lon="6.3478">
        <ele>1891</ele>
        <time>2026-08-19T07:22:28.566Z</time>
      </trkpt>
      <trkpt lat="45.92366" lon="6.3478">
        <ele>1891</ele>
        <time>2026-08-19T07:22:29.566Z</time>
      </trkpt>
      <trkpt lat="45.92366" lon="6.34781">
        <ele>1891</ele>
        <time>2026-08-19T07:22:30.566Z</time>
      </trkpt>
      <trkpt lat="45.92366" lon="6.34782">
        <ele>1891</ele>
        <time>2026-08-19T07:22:31.566Z</time>
      </trkpt>
      <trkpt lat="45.92367" lon="6.34782">
        <ele>1891</ele>
        <time>2026-08-19T07:22:32.566Z</time>
      </trkpt>
      <trkpt lat="45.92367" lon="6.34783">
        <ele>1891</ele>
        <time>2026-08-19T07:22:33.566Z</time>
      </trkpt>
      <trkpt lat="45.92368" lon="6.34783">
        <ele>1891</ele>
        <time>2026-08-19T07:22:34.566Z</time>
      </trkpt>
      <trkpt lat="45.92369" lon="6.34784">
        <ele>1891</ele>
        <time>2026-08-19T07:22:35.566Z</time>
      </trkpt>
      <trkpt lat="45.9237" lon="6.34785">
        <ele>1891</ele>
        <time>2026-08-19T07:22:36.566Z</time>
      </trkpt>
      <trkpt lat="45.92371" lon="6.34785">
        <ele>1892</ele>
        <time>2026-08-19T07:22:37.566Z</time>
      </trkpt>
      <trkpt lat="45.92371" lon="6.34786">
        <ele>1892</ele>
        <time>2026-08-19T07:22:38.566Z</time>
      </trkpt>
      <trkpt lat="45.92372" lon="6.34786">
        <ele>1892</ele>
        <time>2026-08-19T07:22:39.566Z</time>
      </trkpt>
      <trkpt lat="45.92373" lon="6.34787">
        <ele>1892</ele>
        <time>2026-08-19T07:22:40.566Z</time>
      </trkpt>
      <trkpt lat="45.92374" lon="6.34788">
        <ele>1892</ele>
        <time>2026-08-19T07:22:41.566Z</time>
      </trkpt>
      <trkpt lat="45.92374" lon="6.34789">
        <ele>1892</ele>
        <time>2026-08-19T07:22:42.566Z</time>
      </trkpt>
      <trkpt lat="45.92375" lon="6.34789">
        <ele>1893</ele>
        <time>2026-08-19T07:22:43.566Z</time>
      </trkpt>
      <trkpt lat="45.92376" lon="6.3479">
        <ele>1893</ele>
        <time>2026-08-19T07:22:44.566Z</time>
      </trkpt>
      <trkpt lat="45.92377" lon="6.3479">
        <ele>1892</ele>
        <time>2026-08-19T07:22:45.566Z</time>
      </trkpt>
      <trkpt lat="45.92377" lon="6.34791">
        <ele>1892</ele>
        <time>2026-08-19T07:22:46.566Z</time>
      </trkpt>
      <trkpt lat="45.92378" lon="6.34792">
        <ele>1892</ele>
        <time>2026-08-19T07:22:47.566Z</time>
      </trkpt>
      <trkpt lat="45.92379" lon="6.34792">
        <ele>1892</ele>
        <time>2026-08-19T07:22:48.566Z</time>
      </trkpt>
      <trkpt lat="45.92379" lon="6.34792">
        <ele>1892</ele>
        <time>2026-08-19T07:22:49.566Z</time>
      </trkpt>
      <trkpt lat="45.9238" lon="6.34793">
        <ele>1892</ele>
        <time>2026-08-19T07:22:50.566Z</time>
      </trkpt>
      <trkpt lat="45.9238" lon="6.34793">
        <ele>1892</ele>
        <time>2026-08-19T07:22:51.566Z</time>
      </trkpt>
      <trkpt lat="45.92381" lon="6.34793">
        <ele>1893</ele>
        <time>2026-08-19T07:22:52.566Z</time>
      </trkpt>
      <trkpt lat="45.92381" lon="6.34794">
        <ele>1893</ele>
        <time>2026-08-19T07:22:53.566Z</time>
      </trkpt>
      <trkpt lat="45.92381" lon="6.34794">
        <ele>1893</ele>
        <time>2026-08-19T07:22:54.566Z</time>
      </trkpt>
      <trkpt lat="45.92381" lon="6.34794">
        <ele>1893</ele>
        <time>2026-08-19T07:22:55.566Z</time>
      </trkpt>
      <trkpt lat="45.92381" lon="6.34795">
        <ele>1893</ele>
        <time>2026-08-19T07:22:56.566Z</time>
      </trkpt>
      <trkpt lat="45.92382" lon="6.34796">
        <ele>1893</ele>
        <time>2026-08-19T07:22:57.566Z</time>
      </trkpt>
      <trkpt lat="45.92382" lon="6.34797">
        <ele>1893</ele>
        <time>2026-08-19T07:22:58.566Z</time>
      </trkpt>
      <trkpt lat="45.92382" lon="6.34798">
        <ele>1893</ele>
        <time>2026-08-19T07:22:59.566Z</time>
      </trkpt>
      <trkpt lat="45.92382" lon="6.34799">
        <ele>1893</ele>
        <time>2026-08-19T07:23:00.566Z</time>
      </trkpt>
      <trkpt lat="45.92383" lon="6.34799">
        <ele>1893</ele>
        <time>2026-08-19T07:23:01.566Z</time>
      </trkpt>
      <trkpt lat="45.92383" lon="6.348">
        <ele>1893</ele>
        <time>2026-08-19T07:23:02.566Z</time>
      </trkpt>
      <trkpt lat="45.92383" lon="6.348">
        <ele>1894</ele>
        <time>2026-08-19T07:23:03.566Z</time>
      </trkpt>
      <trkpt lat="45.92383" lon="6.34801">
        <ele>1894</ele>
        <time>2026-08-19T07:23:04.566Z</time>
      </trkpt>
      <trkpt lat="45.92384" lon="6.34801">
        <ele>1894</ele>
        <time>2026-08-19T07:23:05.566Z</time>
      </trkpt>
      <trkpt lat="45.92384" lon="6.34802">
        <ele>1894</ele>
        <time>2026-08-19T07:23:06.566Z</time>
      </trkpt>
      <trkpt lat="45.92384" lon="6.34802">
        <ele>1894</ele>
        <time>2026-08-19T07:23:07.566Z</time>
      </trkpt>
      <trkpt lat="45.92385" lon="6.34803">
        <ele>1894</ele>
        <time>2026-08-19T07:23:08.566Z</time>
      </trkpt>
      <trkpt lat="45.92385" lon="6.34804">
        <ele>1895</ele>
        <time>2026-08-19T07:23:09.566Z</time>
      </trkpt>
      <trkpt lat="45.92385" lon="6.34805">
        <ele>1895</ele>
        <time>2026-08-19T07:23:10.567Z</time>
      </trkpt>
      <trkpt lat="45.92385" lon="6.34806">
        <ele>1895</ele>
        <time>2026-08-19T07:23:11.566Z</time>
      </trkpt>
      <trkpt lat="45.92386" lon="6.34807">
        <ele>1895</ele>
        <time>2026-08-19T07:23:12.566Z</time>
      </trkpt>
      <trkpt lat="45.92386" lon="6.34808">
        <ele>1896</ele>
        <time>2026-08-19T07:23:13.566Z</time>
      </trkpt>
      <trkpt lat="45.92386" lon="6.34809">
        <ele>1897</ele>
        <time>2026-08-19T07:23:14.566Z</time>
      </trkpt>
      <trkpt lat="45.92387" lon="6.34809">
        <ele>1897</ele>
        <time>2026-08-19T07:23:15.566Z</time>
      </trkpt>
      <trkpt lat="45.92387" lon="6.34809">
        <ele>1898</ele>
        <time>2026-08-19T07:23:16.566Z</time>
      </trkpt>
      <trkpt lat="45.92387" lon="6.3481">
        <ele>1898</ele>
        <time>2026-08-19T07:23:17.566Z</time>
      </trkpt>
      <trkpt lat="45.92387" lon="6.3481">
        <ele>1899</ele>
        <time>2026-08-19T07:23:18.566Z</time>
      </trkpt>
      <trkpt lat="45.92387" lon="6.34809">
        <ele>1899</ele>
        <time>2026-08-19T07:23:19.566Z</time>
      </trkpt>
      <trkpt lat="45.92387" lon="6.34809">
        <ele>1899</ele>
        <time>2026-08-19T07:23:20.566Z</time>
      </trkpt>
      <trkpt lat="45.92387" lon="6.34809">
        <ele>1900</ele>
        <time>2026-08-19T07:23:21.566Z</time>
      </trkpt>
      <trkpt lat="45.92387" lon="6.34809">
        <ele>1900</ele>
        <time>2026-08-19T07:23:22.566Z</time>
      </trkpt>
      <trkpt lat="45.92387" lon="6.34809">
        <ele>1901</ele>
        <time>2026-08-19T07:23:23.566Z</time>
      </trkpt>
      <trkpt lat="45.92387" lon="6.34809">
        <ele>1901</ele>
        <time>2026-08-19T07:23:24.566Z</time>
      </trkpt>
      <trkpt lat="45.92387" lon="6.34809">
        <ele>1901</ele>
        <time>2026-08-19T07:23:25.566Z</time>
      </trkpt>
      <trkpt lat="45.92387" lon="6.34809">
        <ele>1902</ele>
        <time>2026-08-19T07:23:26.566Z</time>
      </trkpt>
      <trkpt lat="45.92388" lon="6.34809">
        <ele>1902</ele>
        <time>2026-08-19T07:23:27.566Z</time>
      </trkpt>
      <trkpt lat="45.92388" lon="6.34809">
        <ele>1902</ele>
        <time>2026-08-19T07:23:28.566Z</time>
      </trkpt>
      <trkpt lat="45.92388" lon="6.3481">
        <ele>1902</ele>
        <time>2026-08-19T07:23:29.566Z</time>
      </trkpt>
      <trkpt lat="45.92388" lon="6.3481">
        <ele>1902</ele>
        <time>2026-08-19T07:23:30.566Z</time>
      </trkpt>
      <trkpt lat="45.92388" lon="6.3481">
        <ele>1902</ele>
        <time>2026-08-19T07:23:31.566Z</time>
      </trkpt>
      <trkpt lat="45.92388" lon="6.3481">
        <ele>1901</ele>
        <time>2026-08-19T07:23:32.566Z</time>
      </trkpt>
      <trkpt lat="45.92388" lon="6.34811">
        <ele>1901</ele>
        <time>2026-08-19T07:23:33.566Z</time>
      </trkpt>
      <trkpt lat="45.92389" lon="6.34811">
        <ele>1901</ele>
        <time>2026-08-19T07:23:34.566Z</time>
      </trkpt>
      <trkpt lat="45.92389" lon="6.34811">
        <ele>1901</ele>
        <time>2026-08-19T07:23:35.566Z</time>
      </trkpt>
      <trkpt lat="45.92389" lon="6.34811">
        <ele>1901</ele>
        <time>2026-08-19T07:23:36.566Z</time>
      </trkpt>
      <trkpt lat="45.92389" lon="6.34811">
        <ele>1901</ele>
        <time>2026-08-19T07:23:37.566Z</time>
      </trkpt>
      <trkpt lat="45.92389" lon="6.34811">
        <ele>1901</ele>
        <time>2026-08-19T07:23:38.566Z</time>
      </trkpt>
      <trkpt lat="45.92389" lon="6.34811">
        <ele>1900</ele>
        <time>2026-08-19T07:23:39.566Z</time>
      </trkpt>
      <trkpt lat="45.92389" lon="6.34811">
        <ele>1900</ele>
        <time>2026-08-19T07:23:40.566Z</time>
      </trkpt>
      <trkpt lat="45.92389" lon="6.34811">
        <ele>1900</ele>
        <time>2026-08-19T07:23:41.566Z</time>
      </trkpt>
      <trkpt lat="45.92389" lon="6.34811">
        <ele>1900</ele>
        <time>2026-08-19T07:23:42.566Z</time>
      </trkpt>
      <trkpt lat="45.92389" lon="6.34811">
        <ele>1900</ele>
        <time>2026-08-19T07:23:43.566Z</time>
      </trkpt>
      <trkpt lat="45.92389" lon="6.34811">
        <ele>1899</ele>
        <time>2026-08-19T07:23:44.566Z</time>
      </trkpt>
      <trkpt lat="45.92389" lon="6.34811">
        <ele>1899</ele>
        <time>2026-08-19T07:23:45.566Z</time>
      </trkpt>
      <trkpt lat="45.92389" lon="6.34811">
        <ele>1899</ele>
        <time>2026-08-19T07:23:46.566Z</time>
      </trkpt>
      <trkpt lat="45.92389" lon="6.34811">
        <ele>1899</ele>
        <time>2026-08-19T07:23:47.566Z</time>
      </trkpt>
      <trkpt lat="45.92389" lon="6.34811">
        <ele>1898</ele>
        <time>2026-08-19T07:23:48.566Z</time>
      </trkpt>
      <trkpt lat="45.92389" lon="6.34811">
        <ele>1898</ele>
        <time>2026-08-19T07:23:49.566Z</time>
      </trkpt>
      <trkpt lat="45.92389" lon="6.34811">
        <ele>1898</ele>
        <time>2026-08-19T07:23:50.566Z</time>
      </trkpt>
      <trkpt lat="45.92389" lon="6.34811">
        <ele>1898</ele>
        <time>2026-08-19T07:23:51.566Z</time>
      </trkpt>
      <trkpt lat="45.92389" lon="6.34811">
        <ele>1898</ele>
        <time>2026-08-19T07:23:52.566Z</time>
      </trkpt>
      <trkpt lat="45.92389" lon="6.34811">
        <ele>1898</ele>
        <time>2026-08-19T07:23:53.566Z</time>
      </trkpt>
      <trkpt lat="45.92389" lon="6.34811">
        <ele>1898</ele>
        <time>2026-08-19T07:23:54.566Z</time>
      </trkpt>
      <trkpt lat="45.92389" lon="6.34811">
        <ele>1898</ele>
        <time>2026-08-19T07:23:55.566Z</time>
      </trkpt>
      <trkpt lat="45.92389" lon="6.34812">
        <ele>1898</ele>
        <time>2026-08-19T07:23:56.566Z</time>
      </trkpt>
      <trkpt lat="45.92389" lon="6.34812">
        <ele>1898</ele>
        <time>2026-08-19T07:23:57.566Z</time>
      </trkpt>
      <trkpt lat="45.92389" lon="6.34812">
        <ele>1897</ele>
        <time>2026-08-19T07:23:58.566Z</time>
      </trkpt>
      <trkpt lat="45.92389" lon="6.34812">
        <ele>1897</ele>
        <time>2026-08-19T07:23:59.566Z</time>
      </trkpt>
      <trkpt lat="45.92389" lon="6.34812">
        <ele>1897</ele>
        <time>2026-08-19T07:24:00.566Z</time>
      </trkpt>
      <trkpt lat="45.92389" lon="6.34812">
        <ele>1897</ele>
        <time>2026-08-19T07:24:01.566Z</time>
      </trkpt>
      <trkpt lat="45.92389" lon="6.34812">
        <ele>1897</ele>
        <time>2026-08-19T07:24:02.566Z</time>
      </trkpt>
      <trkpt lat="45.92389" lon="6.34812">
        <ele>1897</ele>
        <time>2026-08-19T07:24:03.566Z</time>
      </trkpt>
      <trkpt lat="45.92389" lon="6.34812">
        <ele>1897</ele>
        <time>2026-08-19T07:24:04.566Z</time>
      </trkpt>
      <trkpt lat="45.92389" lon="6.34812">
        <ele>1897</ele>
        <time>2026-08-19T07:24:05.566Z</time>
      </trkpt>
      <trkpt lat="45.92389" lon="6.34812">
        <ele>1897</ele>
        <time>2026-08-19T07:24:06.566Z</time>
      </trkpt>
      <trkpt lat="45.92389" lon="6.34812">
        <ele>1897</ele>
        <time>2026-08-19T07:24:07.566Z</time>
      </trkpt>
      <trkpt lat="45.92389" lon="6.34812">
        <ele>1897</ele>
        <time>2026-08-19T07:24:08.566Z</time>
      </trkpt>
      <trkpt lat="45.92389" lon="6.34812">
        <ele>1897</ele>
        <time>2026-08-19T07:24:09.566Z</time>
      </trkpt>
      <trkpt lat="45.92389" lon="6.34812">
        <ele>1897</ele>
        <time>2026-08-19T07:24:10.566Z</time>
      </trkpt>
      <trkpt lat="45.92389" lon="6.34812">
        <ele>1897</ele>
        <time>2026-08-19T07:24:11.566Z</time>
      </trkpt>
      <trkpt lat="45.92389" lon="6.34812">
        <ele>1897</ele>
        <time>2026-08-19T07:24:12.566Z</time>
      </trkpt>
      <trkpt lat="45.92389" lon="6.34812">
        <ele>1897</ele>
        <time>2026-08-19T07:24:13.566Z</time>
      </trkpt>
      <trkpt lat="45.92389" lon="6.34812">
        <ele>1898</ele>
        <time>2026-08-19T07:24:14.566Z</time>
      </trkpt>
      <trkpt lat="45.92389" lon="6.34812">
        <ele>1898</ele>
        <time>2026-08-19T07:24:15.566Z</time>
      </trkpt>
      <trkpt lat="45.92389" lon="6.34812">
        <ele>1898</ele>
        <time>2026-08-19T07:24:16.566Z</time>
      </trkpt>
      <trkpt lat="45.9239" lon="6.34812">
        <ele>1898</ele>
        <time>2026-08-19T07:24:17.566Z</time>
      </trkpt>
      <trkpt lat="45.92391" lon="6.34811">
        <ele>1898</ele>
        <time>2026-08-19T07:24:18.566Z</time>
      </trkpt>
      <trkpt lat="45.92392" lon="6.3481">
        <ele>1898</ele>
        <time>2026-08-19T07:24:19.566Z</time>
      </trkpt>
      <trkpt lat="45.92393" lon="6.34809">
        <ele>1898</ele>
        <time>2026-08-19T07:24:20.566Z</time>
      </trkpt>
      <trkpt lat="45.92394" lon="6.34809">
        <ele>1898</ele>
        <time>2026-08-19T07:24:21.566Z</time>
      </trkpt>
      <trkpt lat="45.92395" lon="6.34808">
        <ele>1898</ele>
        <time>2026-08-19T07:24:22.566Z</time>
      </trkpt>
      <trkpt lat="45.92396" lon="6.34807">
        <ele>1898</ele>
        <time>2026-08-19T07:24:23.566Z</time>
      </trkpt>
      <trkpt lat="45.92397" lon="6.34807">
        <ele>1899</ele>
        <time>2026-08-19T07:24:24.566Z</time>
      </trkpt>
      <trkpt lat="45.92397" lon="6.34806">
        <ele>1899</ele>
        <time>2026-08-19T07:24:25.566Z</time>
      </trkpt>
      <trkpt lat="45.92398" lon="6.34806">
        <ele>1900</ele>
        <time>2026-08-19T07:24:26.566Z</time>
      </trkpt>
      <trkpt lat="45.92398" lon="6.34806">
        <ele>1900</ele>
        <time>2026-08-19T07:24:27.566Z</time>
      </trkpt>
      <trkpt lat="45.92398" lon="6.34806">
        <ele>1900</ele>
        <time>2026-08-19T07:24:28.566Z</time>
      </trkpt>
      <trkpt lat="45.92398" lon="6.34806">
        <ele>1900</ele>
        <time>2026-08-19T07:24:29.566Z</time>
      </trkpt>
      <trkpt lat="45.92398" lon="6.34805">
        <ele>1900</ele>
        <time>2026-08-19T07:24:30.566Z</time>
      </trkpt>
      <trkpt lat="45.92398" lon="6.34804">
        <ele>1900</ele>
        <time>2026-08-19T07:24:31.566Z</time>
      </trkpt>
      <trkpt lat="45.92398" lon="6.34804">
        <ele>1901</ele>
        <time>2026-08-19T07:24:32.566Z</time>
      </trkpt>
      <trkpt lat="45.92397" lon="6.34803">
        <ele>1901</ele>
        <time>2026-08-19T07:24:33.566Z</time>
      </trkpt>
      <trkpt lat="45.92397" lon="6.34802">
        <ele>1902</ele>
        <time>2026-08-19T07:24:34.566Z</time>
      </trkpt>
      <trkpt lat="45.92397" lon="6.34801">
        <ele>1902</ele>
        <time>2026-08-19T07:24:35.566Z</time>
      </trkpt>
      <trkpt lat="45.92398" lon="6.34801">
        <ele>1903</ele>
        <time>2026-08-19T07:24:36.566Z</time>
      </trkpt>
      <trkpt lat="45.92398" lon="6.348">
        <ele>1904</ele>
        <time>2026-08-19T07:24:37.566Z</time>
      </trkpt>
      <trkpt lat="45.92398" lon="6.34799">
        <ele>1904</ele>
        <time>2026-08-19T07:24:38.566Z</time>
      </trkpt>
      <trkpt lat="45.92398" lon="6.34798">
        <ele>1905</ele>
        <time>2026-08-19T07:24:39.566Z</time>
      </trkpt>
      <trkpt lat="45.92398" lon="6.34798">
        <ele>1905</ele>
        <time>2026-08-19T07:24:40.566Z</time>
      </trkpt>
      <trkpt lat="45.92398" lon="6.34798">
        <ele>1905</ele>
        <time>2026-08-19T07:24:41.566Z</time>
      </trkpt>
      <trkpt lat="45.92399" lon="6.34798">
        <ele>1906</ele>
        <time>2026-08-19T07:24:42.567Z</time>
      </trkpt>
      <trkpt lat="45.924" lon="6.34798">
        <ele>1906</ele>
        <time>2026-08-19T07:24:43.566Z</time>
      </trkpt>
      <trkpt lat="45.924" lon="6.34798">
        <ele>1906</ele>
        <time>2026-08-19T07:24:44.566Z</time>
      </trkpt>
      <trkpt lat="45.92401" lon="6.34798">
        <ele>1907</ele>
        <time>2026-08-19T07:24:45.566Z</time>
      </trkpt>
      <trkpt lat="45.92401" lon="6.34798">
        <ele>1907</ele>
        <time>2026-08-19T07:24:46.566Z</time>
      </trkpt>
      <trkpt lat="45.92402" lon="6.34798">
        <ele>1907</ele>
        <time>2026-08-19T07:24:47.566Z</time>
      </trkpt>
      <trkpt lat="45.92402" lon="6.34798">
        <ele>1907</ele>
        <time>2026-08-19T07:24:48.566Z</time>
      </trkpt>
      <trkpt lat="45.92402" lon="6.34798">
        <ele>1908</ele>
        <time>2026-08-19T07:24:49.566Z</time>
      </trkpt>
      <trkpt lat="45.92402" lon="6.34798">
        <ele>1908</ele>
        <time>2026-08-19T07:24:50.566Z</time>
      </trkpt>
      <trkpt lat="45.92402" lon="6.34798">
        <ele>1909</ele>
        <time>2026-08-19T07:24:51.566Z</time>
      </trkpt>
      <trkpt lat="45.92402" lon="6.34798">
        <ele>1910</ele>
        <time>2026-08-19T07:24:52.566Z</time>
      </trkpt>
      <trkpt lat="45.92402" lon="6.34797">
        <ele>1910</ele>
        <time>2026-08-19T07:24:53.566Z</time>
      </trkpt>
      <trkpt lat="45.92402" lon="6.34797">
        <ele>1911</ele>
        <time>2026-08-19T07:24:54.566Z</time>
      </trkpt>
      <trkpt lat="45.92402" lon="6.34797">
        <ele>1911</ele>
        <time>2026-08-19T07:24:55.566Z</time>
      </trkpt>
      <trkpt lat="45.92402" lon="6.34797">
        <ele>1911</ele>
        <time>2026-08-19T07:24:56.566Z</time>
      </trkpt>
      <trkpt lat="45.92403" lon="6.34797">
        <ele>1911</ele>
        <time>2026-08-19T07:24:57.566Z</time>
      </trkpt>
      <trkpt lat="45.92403" lon="6.34797">
        <ele>1912</ele>
        <time>2026-08-19T07:24:58.566Z</time>
      </trkpt>
      <trkpt lat="45.92404" lon="6.34797">
        <ele>1912</ele>
        <time>2026-08-19T07:24:59.566Z</time>
      </trkpt>
      <trkpt lat="45.92404" lon="6.34797">
        <ele>1912</ele>
        <time>2026-08-19T07:25:00.566Z</time>
      </trkpt>
      <trkpt lat="45.92404" lon="6.34797">
        <ele>1913</ele>
        <time>2026-08-19T07:25:01.566Z</time>
      </trkpt>
      <trkpt lat="45.92404" lon="6.34797">
        <ele>1913</ele>
        <time>2026-08-19T07:25:02.566Z</time>
      </trkpt>
      <trkpt lat="45.92404" lon="6.34797">
        <ele>1913</ele>
        <time>2026-08-19T07:25:03.566Z</time>
      </trkpt>
      <trkpt lat="45.92404" lon="6.34797">
        <ele>1913</ele>
        <time>2026-08-19T07:25:04.566Z</time>
      </trkpt>
      <trkpt lat="45.92404" lon="6.34797">
        <ele>1913</ele>
        <time>2026-08-19T07:25:05.566Z</time>
      </trkpt>
      <trkpt lat="45.92404" lon="6.34797">
        <ele>1914</ele>
        <time>2026-08-19T07:25:06.566Z</time>
      </trkpt>
      <trkpt lat="45.92404" lon="6.34797">
        <ele>1914</ele>
        <time>2026-08-19T07:25:07.566Z</time>
      </trkpt>
      <trkpt lat="45.92404" lon="6.34797">
        <ele>1914</ele>
        <time>2026-08-19T07:25:08.566Z</time>
      </trkpt>
      <trkpt lat="45.92404" lon="6.34797">
        <ele>1914</ele>
        <time>2026-08-19T07:25:09.566Z</time>
      </trkpt>
      <trkpt lat="45.92404" lon="6.34797">
        <ele>1914</ele>
        <time>2026-08-19T07:25:10.566Z</time>
      </trkpt>
      <trkpt lat="45.92404" lon="6.34797">
        <ele>1914</ele>
        <time>2026-08-19T07:25:11.566Z</time>
      </trkpt>
      <trkpt lat="45.92404" lon="6.34797">
        <ele>1914</ele>
        <time>2026-08-19T07:25:12.566Z</time>
      </trkpt>
      <trkpt lat="45.92404" lon="6.34797">
        <ele>1914</ele>
        <time>2026-08-19T07:25:13.566Z</time>
      </trkpt>
      <trkpt lat="45.92404" lon="6.34797">
        <ele>1914</ele>
        <time>2026-08-19T07:25:14.566Z</time>
      </trkpt>
      <trkpt lat="45.92404" lon="6.34797">
        <ele>1914</ele>
        <time>2026-08-19T07:25:15.566Z</time>
      </trkpt>
      <trkpt lat="45.92404" lon="6.34797">
        <ele>1914</ele>
        <time>2026-08-19T07:25:16.566Z</time>
      </trkpt>
      <trkpt lat="45.92404" lon="6.34797">
        <ele>1915</ele>
        <time>2026-08-19T07:25:17.566Z</time>
      </trkpt>
      <trkpt lat="45.92404" lon="6.34797">
        <ele>1915</ele>
        <time>2026-08-19T07:25:18.566Z</time>
      </trkpt>
      <trkpt lat="45.92404" lon="6.34797">
        <ele>1915</ele>
        <time>2026-08-19T07:25:19.566Z</time>
      </trkpt>
      <trkpt lat="45.92404" lon="6.34797">
        <ele>1915</ele>
        <time>2026-08-19T07:25:20.566Z</time>
      </trkpt>
      <trkpt lat="45.92404" lon="6.34797">
        <ele>1915</ele>
        <time>2026-08-19T07:25:21.566Z</time>
      </trkpt>
      <trkpt lat="45.92404" lon="6.34796">
        <ele>1915</ele>
        <time>2026-08-19T07:25:22.566Z</time>
      </trkpt>
      <trkpt lat="45.92404" lon="6.34796">
        <ele>1915</ele>
        <time>2026-08-19T07:25:23.566Z</time>
      </trkpt>
      <trkpt lat="45.92404" lon="6.34796">
        <ele>1915</ele>
        <time>2026-08-19T07:25:24.566Z</time>
      </trkpt>
      <trkpt lat="45.92404" lon="6.34795">
        <ele>1915</ele>
        <time>2026-08-19T07:25:25.566Z</time>
      </trkpt>
      <trkpt lat="45.92404" lon="6.34795">
        <ele>1915</ele>
        <time>2026-08-19T07:25:26.566Z</time>
      </trkpt>
      <trkpt lat="45.92404" lon="6.34795">
        <ele>1915</ele>
        <time>2026-08-19T07:25:27.566Z</time>
      </trkpt>
      <trkpt lat="45.92404" lon="6.34795">
        <ele>1915</ele>
        <time>2026-08-19T07:25:28.566Z</time>
      </trkpt>
      <trkpt lat="45.92404" lon="6.34795">
        <ele>1915</ele>
        <time>2026-08-19T07:25:29.566Z</time>
      </trkpt>
      <trkpt lat="45.92404" lon="6.34795">
        <ele>1915</ele>
        <time>2026-08-19T07:25:30.566Z</time>
      </trkpt>
      <trkpt lat="45.92404" lon="6.34795">
        <ele>1915</ele>
        <time>2026-08-19T07:25:31.566Z</time>
      </trkpt>
      <trkpt lat="45.92404" lon="6.34794">
        <ele>1915</ele>
        <time>2026-08-19T07:25:32.566Z</time>
      </trkpt>
      <trkpt lat="45.92404" lon="6.34794">
        <ele>1915</ele>
        <time>2026-08-19T07:25:33.566Z</time>
      </trkpt>
      <trkpt lat="45.92404" lon="6.34794">
        <ele>1915</ele>
        <time>2026-08-19T07:25:34.566Z</time>
      </trkpt>
      <trkpt lat="45.92404" lon="6.34794">
        <ele>1915</ele>
        <time>2026-08-19T07:25:35.566Z</time>
      </trkpt>
      <trkpt lat="45.92404" lon="6.34794">
        <ele>1915</ele>
        <time>2026-08-19T07:25:36.566Z</time>
      </trkpt>
      <trkpt lat="45.92404" lon="6.34794">
        <ele>1915</ele>
        <time>2026-08-19T07:25:37.566Z</time>
      </trkpt>
      <trkpt lat="45.92404" lon="6.34794">
        <ele>1915</ele>
        <time>2026-08-19T07:25:38.566Z</time>
      </trkpt>
      <trkpt lat="45.92404" lon="6.34794">
        <ele>1915</ele>
        <time>2026-08-19T07:25:39.566Z</time>
      </trkpt>
      <trkpt lat="45.92404" lon="6.34794">
        <ele>1915</ele>
        <time>2026-08-19T07:25:40.566Z</time>
      </trkpt>
      <trkpt lat="45.92404" lon="6.34794">
        <ele>1915</ele>
        <time>2026-08-19T07:25:41.566Z</time>
      </trkpt>
      <trkpt lat="45.92404" lon="6.34794">
        <ele>1915</ele>
        <time>2026-08-19T07:25:42.566Z</time>
      </trkpt>
      <trkpt lat="45.92404" lon="6.34794">
        <ele>1915</ele>
        <time>2026-08-19T07:25:43.566Z</time>
      </trkpt>
      <trkpt lat="45.92404" lon="6.34793">
        <ele>1915</ele>
        <time>2026-08-19T07:25:44.566Z</time>
      </trkpt>
      <trkpt lat="45.92404" lon="6.34793">
        <ele>1915</ele>
        <time>2026-08-19T07:25:45.566Z</time>
      </trkpt>
      <trkpt lat="45.92405" lon="6.34793">
        <ele>1915</ele>
        <time>2026-08-19T07:25:46.566Z</time>
      </trkpt>
      <trkpt lat="45.92405" lon="6.34793">
        <ele>1915</ele>
        <time>2026-08-19T07:25:47.566Z</time>
      </trkpt>
      <trkpt lat="45.92405" lon="6.34793">
        <ele>1915</ele>
        <time>2026-08-19T07:25:48.566Z</time>
      </trkpt>
      <trkpt lat="45.92406" lon="6.34793">
        <ele>1915</ele>
        <time>2026-08-19T07:25:49.566Z</time>
      </trkpt>
      <trkpt lat="45.92406" lon="6.34793">
        <ele>1915</ele>
        <time>2026-08-19T07:25:50.566Z</time>
      </trkpt>
      <trkpt lat="45.92406" lon="6.34793">
        <ele>1915</ele>
        <time>2026-08-19T07:25:51.566Z</time>
      </trkpt>
      <trkpt lat="45.92407" lon="6.34793">
        <ele>1915</ele>
        <time>2026-08-19T07:25:52.566Z</time>
      </trkpt>
      <trkpt lat="45.92407" lon="6.34792">
        <ele>1915</ele>
        <time>2026-08-19T07:25:53.566Z</time>
      </trkpt>
      <trkpt lat="45.92408" lon="6.34792">
        <ele>1915</ele>
        <time>2026-08-19T07:25:54.566Z</time>
      </trkpt>
      <trkpt lat="45.92408" lon="6.34792">
        <ele>1915</ele>
        <time>2026-08-19T07:25:55.566Z</time>
      </trkpt>
      <trkpt lat="45.92408" lon="6.34792">
        <ele>1915</ele>
        <time>2026-08-19T07:25:56.566Z</time>
      </trkpt>
      <trkpt lat="45.92408" lon="6.34792">
        <ele>1915</ele>
        <time>2026-08-19T07:25:57.566Z</time>
      </trkpt>
      <trkpt lat="45.92408" lon="6.34792">
        <ele>1915</ele>
        <time>2026-08-19T07:25:58.566Z</time>
      </trkpt>
      <trkpt lat="45.92408" lon="6.34792">
        <ele>1916</ele>
        <time>2026-08-19T07:25:59.566Z</time>
      </trkpt>
      <trkpt lat="45.92408" lon="6.34792">
        <ele>1916</ele>
        <time>2026-08-19T07:26:00.566Z</time>
      </trkpt>
      <trkpt lat="45.92409" lon="6.34792">
        <ele>1916</ele>
        <time>2026-08-19T07:26:01.566Z</time>
      </trkpt>
      <trkpt lat="45.92409" lon="6.34792">
        <ele>1916</ele>
        <time>2026-08-19T07:26:02.566Z</time>
      </trkpt>
      <trkpt lat="45.92409" lon="6.34792">
        <ele>1916</ele>
        <time>2026-08-19T07:26:03.566Z</time>
      </trkpt>
      <trkpt lat="45.92409" lon="6.34792">
        <ele>1916</ele>
        <time>2026-08-19T07:26:04.566Z</time>
      </trkpt>
      <trkpt lat="45.9241" lon="6.34792">
        <ele>1916</ele>
        <time>2026-08-19T07:26:05.566Z</time>
      </trkpt>
      <trkpt lat="45.92411" lon="6.34791">
        <ele>1916</ele>
        <time>2026-08-19T07:26:06.566Z</time>
      </trkpt>
      <trkpt lat="45.92411" lon="6.34791">
        <ele>1916</ele>
        <time>2026-08-19T07:26:07.566Z</time>
      </trkpt>
      <trkpt lat="45.92412" lon="6.3479">
        <ele>1916</ele>
        <time>2026-08-19T07:26:08.566Z</time>
      </trkpt>
      <trkpt lat="45.92413" lon="6.3479">
        <ele>1916</ele>
        <time>2026-08-19T07:26:09.566Z</time>
      </trkpt>
      <trkpt lat="45.92414" lon="6.3479">
        <ele>1917</ele>
        <time>2026-08-19T07:26:10.566Z</time>
      </trkpt>
      <trkpt lat="45.92415" lon="6.3479">
        <ele>1917</ele>
        <time>2026-08-19T07:26:11.566Z</time>
      </trkpt>
      <trkpt lat="45.92415" lon="6.34789">
        <ele>1918</ele>
        <time>2026-08-19T07:26:12.566Z</time>
      </trkpt>
      <trkpt lat="45.92416" lon="6.34789">
        <ele>1918</ele>
        <time>2026-08-19T07:26:13.566Z</time>
      </trkpt>
      <trkpt lat="45.92417" lon="6.34788">
        <ele>1919</ele>
        <time>2026-08-19T07:26:14.566Z</time>
      </trkpt>
      <trkpt lat="45.92417" lon="6.34788">
        <ele>1919</ele>
        <time>2026-08-19T07:26:15.566Z</time>
      </trkpt>
      <trkpt lat="45.92418" lon="6.34788">
        <ele>1920</ele>
        <time>2026-08-19T07:26:16.566Z</time>
      </trkpt>
      <trkpt lat="45.92418" lon="6.34788">
        <ele>1921</ele>
        <time>2026-08-19T07:26:17.566Z</time>
      </trkpt>
      <trkpt lat="45.92418" lon="6.34788">
        <ele>1921</ele>
        <time>2026-08-19T07:26:18.566Z</time>
      </trkpt>
      <trkpt lat="45.92419" lon="6.34788">
        <ele>1922</ele>
        <time>2026-08-19T07:26:19.566Z</time>
      </trkpt>
      <trkpt lat="45.92419" lon="6.34788">
        <ele>1922</ele>
        <time>2026-08-19T07:26:20.566Z</time>
      </trkpt>
      <trkpt lat="45.92419" lon="6.34788">
        <ele>1923</ele>
        <time>2026-08-19T07:26:21.566Z</time>
      </trkpt>
      <trkpt lat="45.92419" lon="6.34788">
        <ele>1923</ele>
        <time>2026-08-19T07:26:22.566Z</time>
      </trkpt>
      <trkpt lat="45.92419" lon="6.34787">
        <ele>1924</ele>
        <time>2026-08-19T07:26:23.566Z</time>
      </trkpt>
      <trkpt lat="45.92419" lon="6.34787">
        <ele>1924</ele>
        <time>2026-08-19T07:26:24.566Z</time>
      </trkpt>
      <trkpt lat="45.92419" lon="6.34787">
        <ele>1925</ele>
        <time>2026-08-19T07:26:25.566Z</time>
      </trkpt>
      <trkpt lat="45.92419" lon="6.34787">
        <ele>1925</ele>
        <time>2026-08-19T07:26:26.566Z</time>
      </trkpt>
      <trkpt lat="45.92419" lon="6.34787">
        <ele>1925</ele>
        <time>2026-08-19T07:26:27.566Z</time>
      </trkpt>
      <trkpt lat="45.92419" lon="6.34787">
        <ele>1925</ele>
        <time>2026-08-19T07:26:28.566Z</time>
      </trkpt>
      <trkpt lat="45.92419" lon="6.34787">
        <ele>1925</ele>
        <time>2026-08-19T07:26:29.566Z</time>
      </trkpt>
      <trkpt lat="45.92419" lon="6.34787">
        <ele>1925</ele>
        <time>2026-08-19T07:26:30.566Z</time>
      </trkpt>
      <trkpt lat="45.92419" lon="6.34787">
        <ele>1925</ele>
        <time>2026-08-19T07:26:31.566Z</time>
      </trkpt>
      <trkpt lat="45.92419" lon="6.34787">
        <ele>1925</ele>
        <time>2026-08-19T07:26:32.566Z</time>
      </trkpt>
      <trkpt lat="45.92419" lon="6.34787">
        <ele>1926</ele>
        <time>2026-08-19T07:26:33.566Z</time>
      </trkpt>
      <trkpt lat="45.92419" lon="6.34787">
        <ele>1926</ele>
        <time>2026-08-19T07:26:34.566Z</time>
      </trkpt>
      <trkpt lat="45.92419" lon="6.34787">
        <ele>1926</ele>
        <time>2026-08-19T07:26:35.566Z</time>
      </trkpt>
      <trkpt lat="45.92419" lon="6.34787">
        <ele>1926</ele>
        <time>2026-08-19T07:26:36.566Z</time>
      </trkpt>
      <trkpt lat="45.92419" lon="6.34787">
        <ele>1926</ele>
        <time>2026-08-19T07:26:37.566Z</time>
      </trkpt>
      <trkpt lat="45.92419" lon="6.34787">
        <ele>1926</ele>
        <time>2026-08-19T07:26:38.566Z</time>
      </trkpt>
      <trkpt lat="45.92419" lon="6.34787">
        <ele>1926</ele>
        <time>2026-08-19T07:26:39.566Z</time>
      </trkpt>
      <trkpt lat="45.92419" lon="6.34787">
        <ele>1926</ele>
        <time>2026-08-19T07:26:40.566Z</time>
      </trkpt>
      <trkpt lat="45.9242" lon="6.34787">
        <ele>1926</ele>
        <time>2026-08-19T07:26:41.566Z</time>
      </trkpt>
      <trkpt lat="45.9242" lon="6.34787">
        <ele>1926</ele>
        <time>2026-08-19T07:26:42.566Z</time>
      </trkpt>
      <trkpt lat="45.92421" lon="6.34787">
        <ele>1926</ele>
        <time>2026-08-19T07:26:43.566Z</time>
      </trkpt>
      <trkpt lat="45.92421" lon="6.34787">
        <ele>1926</ele>
        <time>2026-08-19T07:26:44.566Z</time>
      </trkpt>
      <trkpt lat="45.92421" lon="6.34787">
        <ele>1926</ele>
        <time>2026-08-19T07:26:45.566Z</time>
      </trkpt>
      <trkpt lat="45.92421" lon="6.34787">
        <ele>1926</ele>
        <time>2026-08-19T07:26:46.566Z</time>
      </trkpt>
      <trkpt lat="45.92421" lon="6.34787">
        <ele>1926</ele>
        <time>2026-08-19T07:26:47.566Z</time>
      </trkpt>
      <trkpt lat="45.92421" lon="6.34787">
        <ele>1926</ele>
        <time>2026-08-19T07:26:48.566Z</time>
      </trkpt>
      <trkpt lat="45.92422" lon="6.34787">
        <ele>1926</ele>
        <time>2026-08-19T07:26:49.566Z</time>
      </trkpt>
      <trkpt lat="45.92422" lon="6.34787">
        <ele>1926</ele>
        <time>2026-08-19T07:26:50.566Z</time>
      </trkpt>
      <trkpt lat="45.92422" lon="6.34787">
        <ele>1926</ele>
        <time>2026-08-19T07:26:51.566Z</time>
      </trkpt>
      <trkpt lat="45.92422" lon="6.34787">
        <ele>1926</ele>
        <time>2026-08-19T07:26:52.566Z</time>
      </trkpt>
      <trkpt lat="45.92422" lon="6.34787">
        <ele>1926</ele>
        <time>2026-08-19T07:26:53.566Z</time>
      </trkpt>
      <trkpt lat="45.92423" lon="6.34787">
        <ele>1926</ele>
        <time>2026-08-19T07:26:54.566Z</time>
      </trkpt>
      <trkpt lat="45.92423" lon="6.34788">
        <ele>1926</ele>
        <time>2026-08-19T07:26:55.566Z</time>
      </trkpt>
      <trkpt lat="45.92423" lon="6.34788">
        <ele>1926</ele>
        <time>2026-08-19T07:26:56.566Z</time>
      </trkpt>
      <trkpt lat="45.92424" lon="6.34788">
        <ele>1926</ele>
        <time>2026-08-19T07:26:57.566Z</time>
      </trkpt>
      <trkpt lat="45.92424" lon="6.34788">
        <ele>1926</ele>
        <time>2026-08-19T07:26:58.566Z</time>
      </trkpt>
      <trkpt lat="45.92424" lon="6.34788">
        <ele>1926</ele>
        <time>2026-08-19T07:26:59.566Z</time>
      </trkpt>
      <trkpt lat="45.92424" lon="6.34788">
        <ele>1926</ele>
        <time>2026-08-19T07:27:00.566Z</time>
      </trkpt>
      <trkpt lat="45.92424" lon="6.34789">
        <ele>1926</ele>
        <time>2026-08-19T07:27:01.566Z</time>
      </trkpt>
      <trkpt lat="45.92424" lon="6.34789">
        <ele>1926</ele>
        <time>2026-08-19T07:27:02.566Z</time>
      </trkpt>
      <trkpt lat="45.92424" lon="6.34789">
        <ele>1926</ele>
        <time>2026-08-19T07:27:03.566Z</time>
      </trkpt>
      <trkpt lat="45.92424" lon="6.34789">
        <ele>1926</ele>
        <time>2026-08-19T07:27:04.567Z</time>
      </trkpt>
      <trkpt lat="45.92425" lon="6.3479">
        <ele>1926</ele>
        <time>2026-08-19T07:27:05.566Z</time>
      </trkpt>
      <trkpt lat="45.92425" lon="6.3479">
        <ele>1926</ele>
        <time>2026-08-19T07:27:06.566Z</time>
      </trkpt>
      <trkpt lat="45.92425" lon="6.3479">
        <ele>1926</ele>
        <time>2026-08-19T07:27:07.566Z</time>
      </trkpt>
      <trkpt lat="45.92425" lon="6.3479">
        <ele>1926</ele>
        <time>2026-08-19T07:27:08.566Z</time>
      </trkpt>
      <trkpt lat="45.92425" lon="6.34791">
        <ele>1926</ele>
        <time>2026-08-19T07:27:09.566Z</time>
      </trkpt>
      <trkpt lat="45.92426" lon="6.34791">
        <ele>1926</ele>
        <time>2026-08-19T07:27:10.566Z</time>
      </trkpt>
      <trkpt lat="45.92426" lon="6.34792">
        <ele>1926</ele>
        <time>2026-08-19T07:27:11.566Z</time>
      </trkpt>
      <trkpt lat="45.92427" lon="6.34793">
        <ele>1926</ele>
        <time>2026-08-19T07:27:12.566Z</time>
      </trkpt>
      <trkpt lat="45.92427" lon="6.34794">
        <ele>1925</ele>
        <time>2026-08-19T07:27:13.566Z</time>
      </trkpt>
      <trkpt lat="45.92428" lon="6.34795">
        <ele>1925</ele>
        <time>2026-08-19T07:27:14.566Z</time>
      </trkpt>
      <trkpt lat="45.92428" lon="6.34796">
        <ele>1925</ele>
        <time>2026-08-19T07:27:15.566Z</time>
      </trkpt>
      <trkpt lat="45.92429" lon="6.34798">
        <ele>1925</ele>
        <time>2026-08-19T07:27:16.566Z</time>
      </trkpt>
      <trkpt lat="45.92429" lon="6.34799">
        <ele>1925</ele>
        <time>2026-08-19T07:27:17.566Z</time>
      </trkpt>
      <trkpt lat="45.9243" lon="6.34801">
        <ele>1924</ele>
        <time>2026-08-19T07:27:18.566Z</time>
      </trkpt>
      <trkpt lat="45.9243" lon="6.34802">
        <ele>1924</ele>
        <time>2026-08-19T07:27:19.566Z</time>
      </trkpt>
      <trkpt lat="45.92431" lon="6.34804">
        <ele>1924</ele>
        <time>2026-08-19T07:27:20.566Z</time>
      </trkpt>
      <trkpt lat="45.92431" lon="6.34804">
        <ele>1924</ele>
        <time>2026-08-19T07:27:21.566Z</time>
      </trkpt>
      <trkpt lat="45.92431" lon="6.34805">
        <ele>1923</ele>
        <time>2026-08-19T07:27:22.566Z</time>
      </trkpt>
      <trkpt lat="45.92432" lon="6.34806">
        <ele>1923</ele>
        <time>2026-08-19T07:27:23.566Z</time>
      </trkpt>
      <trkpt lat="45.92432" lon="6.34807">
        <ele>1923</ele>
        <time>2026-08-19T07:27:24.566Z</time>
      </trkpt>
      <trkpt lat="45.92433" lon="6.34808">
        <ele>1922</ele>
        <time>2026-08-19T07:27:25.566Z</time>
      </trkpt>
      <trkpt lat="45.92433" lon="6.34808">
        <ele>1922</ele>
        <time>2026-08-19T07:27:26.566Z</time>
      </trkpt>
      <trkpt lat="45.92434" lon="6.34809">
        <ele>1922</ele>
        <time>2026-08-19T07:27:27.566Z</time>
      </trkpt>
      <trkpt lat="45.92434" lon="6.3481">
        <ele>1922</ele>
        <time>2026-08-19T07:27:28.566Z</time>
      </trkpt>
      <trkpt lat="45.92435" lon="6.3481">
        <ele>1921</ele>
        <time>2026-08-19T07:27:29.566Z</time>
      </trkpt>
      <trkpt lat="45.92435" lon="6.34811">
        <ele>1921</ele>
        <time>2026-08-19T07:27:30.566Z</time>
      </trkpt>
      <trkpt lat="45.92435" lon="6.34811">
        <ele>1921</ele>
        <time>2026-08-19T07:27:31.566Z</time>
      </trkpt>
      <trkpt lat="45.92436" lon="6.34812">
        <ele>1920</ele>
        <time>2026-08-19T07:27:32.566Z</time>
      </trkpt>
      <trkpt lat="45.92436" lon="6.34813">
        <ele>1920</ele>
        <time>2026-08-19T07:27:33.566Z</time>
      </trkpt>
      <trkpt lat="45.92437" lon="6.34814">
        <ele>1920</ele>
        <time>2026-08-19T07:27:34.566Z</time>
      </trkpt>
      <trkpt lat="45.92437" lon="6.34815">
        <ele>1920</ele>
        <time>2026-08-19T07:27:35.566Z</time>
      </trkpt>
      <trkpt lat="45.92437" lon="6.34815">
        <ele>1920</ele>
        <time>2026-08-19T07:27:36.566Z</time>
      </trkpt>
      <trkpt lat="45.92438" lon="6.34816">
        <ele>1920</ele>
        <time>2026-08-19T07:27:37.566Z</time>
      </trkpt>
      <trkpt lat="45.92438" lon="6.34817">
        <ele>1920</ele>
        <time>2026-08-19T07:27:38.566Z</time>
      </trkpt>
      <trkpt lat="45.92439" lon="6.34818">
        <ele>1919</ele>
        <time>2026-08-19T07:27:39.566Z</time>
      </trkpt>
      <trkpt lat="45.92439" lon="6.34818">
        <ele>1919</ele>
        <time>2026-08-19T07:27:40.566Z</time>
      </trkpt>
      <trkpt lat="45.9244" lon="6.34819">
        <ele>1919</ele>
        <time>2026-08-19T07:27:41.566Z</time>
      </trkpt>
      <trkpt lat="45.9244" lon="6.3482">
        <ele>1919</ele>
        <time>2026-08-19T07:27:42.566Z</time>
      </trkpt>
      <trkpt lat="45.92441" lon="6.34821">
        <ele>1919</ele>
        <time>2026-08-19T07:27:43.566Z</time>
      </trkpt>
      <trkpt lat="45.92441" lon="6.34821">
        <ele>1919</ele>
        <time>2026-08-19T07:27:44.566Z</time>
      </trkpt>
      <trkpt lat="45.92442" lon="6.34822">
        <ele>1919</ele>
        <time>2026-08-19T07:27:45.566Z</time>
      </trkpt>
      <trkpt lat="45.92443" lon="6.34823">
        <ele>1919</ele>
        <time>2026-08-19T07:27:46.566Z</time>
      </trkpt>
      <trkpt lat="45.92443" lon="6.34823">
        <ele>1919</ele>
        <time>2026-08-19T07:27:47.566Z</time>
      </trkpt>
      <trkpt lat="45.92444" lon="6.34824">
        <ele>1919</ele>
        <time>2026-08-19T07:27:48.566Z</time>
      </trkpt>
      <trkpt lat="45.92444" lon="6.34824">
        <ele>1919</ele>
        <time>2026-08-19T07:27:49.566Z</time>
      </trkpt>
      <trkpt lat="45.92445" lon="6.34825">
        <ele>1920</ele>
        <time>2026-08-19T07:27:50.566Z</time>
      </trkpt>
      <trkpt lat="45.92445" lon="6.34826">
        <ele>1920</ele>
        <time>2026-08-19T07:27:51.566Z</time>
      </trkpt>
      <trkpt lat="45.92444" lon="6.34826">
        <ele>1919</ele>
        <time>2026-08-19T07:27:52.566Z</time>
      </trkpt>
      <trkpt lat="45.92444" lon="6.34826">
        <ele>1919</ele>
        <time>2026-08-19T07:27:53.566Z</time>
      </trkpt>
      <trkpt lat="45.92444" lon="6.34826">
        <ele>1918</ele>
        <time>2026-08-19T07:27:54.566Z</time>
      </trkpt>
      <trkpt lat="45.92444" lon="6.34827">
        <ele>1918</ele>
        <time>2026-08-19T07:27:55.566Z</time>
      </trkpt>
      <trkpt lat="45.92444" lon="6.34827">
        <ele>1918</ele>
        <time>2026-08-19T07:27:56.566Z</time>
      </trkpt>
      <trkpt lat="45.92444" lon="6.34827">
        <ele>1918</ele>
        <time>2026-08-19T07:27:57.566Z</time>
      </trkpt>
      <trkpt lat="45.92444" lon="6.34827">
        <ele>1917</ele>
        <time>2026-08-19T07:27:58.566Z</time>
      </trkpt>
      <trkpt lat="45.92444" lon="6.34827">
        <ele>1917</ele>
        <time>2026-08-19T07:27:59.566Z</time>
      </trkpt>
      <trkpt lat="45.92444" lon="6.34828">
        <ele>1916</ele>
        <time>2026-08-19T07:28:00.566Z</time>
      </trkpt>
      <trkpt lat="45.92444" lon="6.34828">
        <ele>1916</ele>
        <time>2026-08-19T07:28:01.566Z</time>
      </trkpt>
      <trkpt lat="45.92444" lon="6.34829">
        <ele>1915</ele>
        <time>2026-08-19T07:28:02.566Z</time>
      </trkpt>
      <trkpt lat="45.92445" lon="6.34829">
        <ele>1915</ele>
        <time>2026-08-19T07:28:03.566Z</time>
      </trkpt>
      <trkpt lat="45.92445" lon="6.3483">
        <ele>1915</ele>
        <time>2026-08-19T07:28:04.566Z</time>
      </trkpt>
      <trkpt lat="45.92446" lon="6.3483">
        <ele>1915</ele>
        <time>2026-08-19T07:28:05.566Z</time>
      </trkpt>
      <trkpt lat="45.92446" lon="6.34831">
        <ele>1915</ele>
        <time>2026-08-19T07:28:06.566Z</time>
      </trkpt>
      <trkpt lat="45.92446" lon="6.34831">
        <ele>1915</ele>
        <time>2026-08-19T07:28:07.566Z</time>
      </trkpt>
      <trkpt lat="45.92447" lon="6.34832">
        <ele>1914</ele>
        <time>2026-08-19T07:28:08.566Z</time>
      </trkpt>
      <trkpt lat="45.92447" lon="6.34832">
        <ele>1914</ele>
        <time>2026-08-19T07:28:09.566Z</time>
      </trkpt>
      <trkpt lat="45.92447" lon="6.34832">
        <ele>1915</ele>
        <time>2026-08-19T07:28:10.566Z</time>
      </trkpt>
      <trkpt lat="45.92448" lon="6.34833">
        <ele>1915</ele>
        <time>2026-08-19T07:28:11.566Z</time>
      </trkpt>
      <trkpt lat="45.92448" lon="6.34834">
        <ele>1915</ele>
        <time>2026-08-19T07:28:12.566Z</time>
      </trkpt>
      <trkpt lat="45.92448" lon="6.34834">
        <ele>1915</ele>
        <time>2026-08-19T07:28:13.566Z</time>
      </trkpt>
      <trkpt lat="45.92448" lon="6.34835">
        <ele>1915</ele>
        <time>2026-08-19T07:28:14.566Z</time>
      </trkpt>
      <trkpt lat="45.92448" lon="6.34835">
        <ele>1915</ele>
        <time>2026-08-19T07:28:15.566Z</time>
      </trkpt>
      <trkpt lat="45.92448" lon="6.34836">
        <ele>1915</ele>
        <time>2026-08-19T07:28:16.566Z</time>
      </trkpt>
      <trkpt lat="45.92448" lon="6.34836">
        <ele>1915</ele>
        <time>2026-08-19T07:28:17.566Z</time>
      </trkpt>
      <trkpt lat="45.92448" lon="6.34836">
        <ele>1915</ele>
        <time>2026-08-19T07:28:18.566Z</time>
      </trkpt>
      <trkpt lat="45.92448" lon="6.34837">
        <ele>1915</ele>
        <time>2026-08-19T07:28:19.566Z</time>
      </trkpt>
      <trkpt lat="45.92448" lon="6.34837">
        <ele>1915</ele>
        <time>2026-08-19T07:28:20.566Z</time>
      </trkpt>
      <trkpt lat="45.92448" lon="6.34838">
        <ele>1915</ele>
        <time>2026-08-19T07:28:21.566Z</time>
      </trkpt>
      <trkpt lat="45.92448" lon="6.34838">
        <ele>1915</ele>
        <time>2026-08-19T07:28:22.566Z</time>
      </trkpt>
      <trkpt lat="45.92448" lon="6.34839">
        <ele>1915</ele>
        <time>2026-08-19T07:28:23.566Z</time>
      </trkpt>
      <trkpt lat="45.92448" lon="6.34839">
        <ele>1915</ele>
        <time>2026-08-19T07:28:24.566Z</time>
      </trkpt>
      <trkpt lat="45.92448" lon="6.34839">
        <ele>1914</ele>
        <time>2026-08-19T07:28:25.566Z</time>
      </trkpt>
      <trkpt lat="45.92448" lon="6.34839">
        <ele>1914</ele>
        <time>2026-08-19T07:28:26.566Z</time>
      </trkpt>
      <trkpt lat="45.92448" lon="6.34839">
        <ele>1914</ele>
        <time>2026-08-19T07:28:27.566Z</time>
      </trkpt>
      <trkpt lat="45.92448" lon="6.34839">
        <ele>1914</ele>
        <time>2026-08-19T07:28:28.566Z</time>
      </trkpt>
      <trkpt lat="45.92448" lon="6.34839">
        <ele>1914</ele>
        <time>2026-08-19T07:28:29.566Z</time>
      </trkpt>
      <trkpt lat="45.92448" lon="6.34839">
        <ele>1914</ele>
        <time>2026-08-19T07:28:30.566Z</time>
      </trkpt>
      <trkpt lat="45.92448" lon="6.34839">
        <ele>1914</ele>
        <time>2026-08-19T07:28:31.566Z</time>
      </trkpt>
      <trkpt lat="45.92448" lon="6.34839">
        <ele>1914</ele>
        <time>2026-08-19T07:28:32.566Z</time>
      </trkpt>
      <trkpt lat="45.92448" lon="6.34839">
        <ele>1914</ele>
        <time>2026-08-19T07:28:33.566Z</time>
      </trkpt>
      <trkpt lat="45.92448" lon="6.34839">
        <ele>1914</ele>
        <time>2026-08-19T07:28:34.566Z</time>
      </trkpt>
      <trkpt lat="45.92448" lon="6.34839">
        <ele>1914</ele>
        <time>2026-08-19T07:28:35.566Z</time>
      </trkpt>
      <trkpt lat="45.92448" lon="6.34839">
        <ele>1914</ele>
        <time>2026-08-19T07:28:36.566Z</time>
      </trkpt>
      <trkpt lat="45.92448" lon="6.34839">
        <ele>1914</ele>
        <time>2026-08-19T07:28:37.566Z</time>
      </trkpt>
      <trkpt lat="45.92448" lon="6.34839">
        <ele>1914</ele>
        <time>2026-08-19T07:28:38.566Z</time>
      </trkpt>
      <trkpt lat="45.92448" lon="6.34839">
        <ele>1914</ele>
        <time>2026-08-19T07:28:39.566Z</time>
      </trkpt>
      <trkpt lat="45.92448" lon="6.34839">
        <ele>1914</ele>
        <time>2026-08-19T07:28:40.567Z</time>
      </trkpt>
      <trkpt lat="45.92448" lon="6.34839">
        <ele>1914</ele>
        <time>2026-08-19T07:28:41.566Z</time>
      </trkpt>
      <trkpt lat="45.92449" lon="6.34839">
        <ele>1914</ele>
        <time>2026-08-19T07:28:42.566Z</time>
      </trkpt>
      <trkpt lat="45.9245" lon="6.34839">
        <ele>1914</ele>
        <time>2026-08-19T07:28:43.566Z</time>
      </trkpt>
      <trkpt lat="45.9245" lon="6.34839">
        <ele>1913</ele>
        <time>2026-08-19T07:28:44.566Z</time>
      </trkpt>
      <trkpt lat="45.9245" lon="6.34839">
        <ele>1913</ele>
        <time>2026-08-19T07:28:45.566Z</time>
      </trkpt>
      <trkpt lat="45.9245" lon="6.34839">
        <ele>1913</ele>
        <time>2026-08-19T07:28:46.566Z</time>
      </trkpt>
      <trkpt lat="45.92451" lon="6.34839">
        <ele>1913</ele>
        <time>2026-08-19T07:28:47.566Z</time>
      </trkpt>
      <trkpt lat="45.92451" lon="6.34839">
        <ele>1913</ele>
        <time>2026-08-19T07:28:48.566Z</time>
      </trkpt>
      <trkpt lat="45.92451" lon="6.34839">
        <ele>1913</ele>
        <time>2026-08-19T07:28:49.566Z</time>
      </trkpt>
      <trkpt lat="45.92451" lon="6.34839">
        <ele>1913</ele>
        <time>2026-08-19T07:28:50.566Z</time>
      </trkpt>
      <trkpt lat="45.92451" lon="6.34839">
        <ele>1913</ele>
        <time>2026-08-19T07:28:51.566Z</time>
      </trkpt>
      <trkpt lat="45.92451" lon="6.34839">
        <ele>1913</ele>
        <time>2026-08-19T07:28:52.566Z</time>
      </trkpt>
      <trkpt lat="45.92451" lon="6.34839">
        <ele>1913</ele>
        <time>2026-08-19T07:28:53.566Z</time>
      </trkpt>
      <trkpt lat="45.92451" lon="6.34839">
        <ele>1913</ele>
        <time>2026-08-19T07:28:54.566Z</time>
      </trkpt>
      <trkpt lat="45.92451" lon="6.34839">
        <ele>1913</ele>
        <time>2026-08-19T07:28:55.566Z</time>
      </trkpt>
      <trkpt lat="45.92451" lon="6.34839">
        <ele>1913</ele>
        <time>2026-08-19T07:28:56.566Z</time>
      </trkpt>
      <trkpt lat="45.92451" lon="6.34839">
        <ele>1913</ele>
        <time>2026-08-19T07:28:57.566Z</time>
      </trkpt>
      <trkpt lat="45.92451" lon="6.34839">
        <ele>1913</ele>
        <time>2026-08-19T07:28:58.566Z</time>
      </trkpt>
      <trkpt lat="45.92451" lon="6.34839">
        <ele>1913</ele>
        <time>2026-08-19T07:28:59.566Z</time>
      </trkpt>
      <trkpt lat="45.92451" lon="6.34839">
        <ele>1913</ele>
        <time>2026-08-19T07:29:00.566Z</time>
      </trkpt>
      <trkpt lat="45.92451" lon="6.34839">
        <ele>1913</ele>
        <time>2026-08-19T07:29:01.566Z</time>
      </trkpt>
      <trkpt lat="45.92451" lon="6.34839">
        <ele>1913</ele>
        <time>2026-08-19T07:29:02.566Z</time>
      </trkpt>
      <trkpt lat="45.92451" lon="6.34839">
        <ele>1913</ele>
        <time>2026-08-19T07:29:03.566Z</time>
      </trkpt>
      <trkpt lat="45.92451" lon="6.34839">
        <ele>1913</ele>
        <time>2026-08-19T07:29:04.566Z</time>
      </trkpt>
      <trkpt lat="45.92451" lon="6.34839">
        <ele>1913</ele>
        <time>2026-08-19T07:29:05.566Z</time>
      </trkpt>
      <trkpt lat="45.9245" lon="6.3484">
        <ele>1913</ele>
        <time>2026-08-19T07:29:06.566Z</time>
      </trkpt>
      <trkpt lat="45.9245" lon="6.3484">
        <ele>1913</ele>
        <time>2026-08-19T07:29:07.566Z</time>
      </trkpt>
      <trkpt lat="45.9245" lon="6.3484">
        <ele>1913</ele>
        <time>2026-08-19T07:29:08.566Z</time>
      </trkpt>
      <trkpt lat="45.9245" lon="6.3484">
        <ele>1913</ele>
        <time>2026-08-19T07:29:09.566Z</time>
      </trkpt>
      <trkpt lat="45.9245" lon="6.3484">
        <ele>1913</ele>
        <time>2026-08-19T07:29:10.566Z</time>
      </trkpt>
      <trkpt lat="45.9245" lon="6.3484">
        <ele>1913</ele>
        <time>2026-08-19T07:29:11.566Z</time>
      </trkpt>
      <trkpt lat="45.9245" lon="6.3484">
        <ele>1913</ele>
        <time>2026-08-19T07:29:12.566Z</time>
      </trkpt>
      <trkpt lat="45.9245" lon="6.3484">
        <ele>1912</ele>
        <time>2026-08-19T07:29:13.566Z</time>
      </trkpt>
      <trkpt lat="45.9245" lon="6.3484">
        <ele>1912</ele>
        <time>2026-08-19T07:29:14.566Z</time>
      </trkpt>
      <trkpt lat="45.9245" lon="6.3484">
        <ele>1912</ele>
        <time>2026-08-19T07:29:15.566Z</time>
      </trkpt>
      <trkpt lat="45.9245" lon="6.34841">
        <ele>1912</ele>
        <time>2026-08-19T07:29:16.566Z</time>
      </trkpt>
      <trkpt lat="45.9245" lon="6.34841">
        <ele>1912</ele>
        <time>2026-08-19T07:29:17.566Z</time>
      </trkpt>
      <trkpt lat="45.9245" lon="6.34842">
        <ele>1912</ele>
        <time>2026-08-19T07:29:18.566Z</time>
      </trkpt>
      <trkpt lat="45.9245" lon="6.34842">
        <ele>1912</ele>
        <time>2026-08-19T07:29:19.566Z</time>
      </trkpt>
      <trkpt lat="45.9245" lon="6.34842">
        <ele>1912</ele>
        <time>2026-08-19T07:29:20.566Z</time>
      </trkpt>
      <trkpt lat="45.9245" lon="6.34842">
        <ele>1912</ele>
        <time>2026-08-19T07:29:21.566Z</time>
      </trkpt>
      <trkpt lat="45.9245" lon="6.34842">
        <ele>1912</ele>
        <time>2026-08-19T07:29:22.566Z</time>
      </trkpt>
      <trkpt lat="45.9245" lon="6.34842">
        <ele>1912</ele>
        <time>2026-08-19T07:29:23.566Z</time>
      </trkpt>
      <trkpt lat="45.92449" lon="6.34843">
        <ele>1912</ele>
        <time>2026-08-19T07:29:24.566Z</time>
      </trkpt>
      <trkpt lat="45.92449" lon="6.34843">
        <ele>1912</ele>
        <time>2026-08-19T07:29:25.566Z</time>
      </trkpt>
      <trkpt lat="45.92449" lon="6.34843">
        <ele>1912</ele>
        <time>2026-08-19T07:29:26.566Z</time>
      </trkpt>
      <trkpt lat="45.92449" lon="6.34843">
        <ele>1912</ele>
        <time>2026-08-19T07:29:27.566Z</time>
      </trkpt>
      <trkpt lat="45.92449" lon="6.34843">
        <ele>1912</ele>
        <time>2026-08-19T07:29:28.566Z</time>
      </trkpt>
      <trkpt lat="45.92449" lon="6.34844">
        <ele>1912</ele>
        <time>2026-08-19T07:29:29.566Z</time>
      </trkpt>
      <trkpt lat="45.92448" lon="6.34844">
        <ele>1912</ele>
        <time>2026-08-19T07:29:30.566Z</time>
      </trkpt>
      <trkpt lat="45.92448" lon="6.34844">
        <ele>1911</ele>
        <time>2026-08-19T07:29:31.566Z</time>
      </trkpt>
      <trkpt lat="45.92448" lon="6.34845">
        <ele>1911</ele>
        <time>2026-08-19T07:29:32.566Z</time>
      </trkpt>
      <trkpt lat="45.92448" lon="6.34845">
        <ele>1911</ele>
        <time>2026-08-19T07:29:33.566Z</time>
      </trkpt>
      <trkpt lat="45.92448" lon="6.34845">
        <ele>1911</ele>
        <time>2026-08-19T07:29:34.566Z</time>
      </trkpt>
      <trkpt lat="45.92448" lon="6.34846">
        <ele>1911</ele>
        <time>2026-08-19T07:29:35.566Z</time>
      </trkpt>
      <trkpt lat="45.92448" lon="6.34846">
        <ele>1911</ele>
        <time>2026-08-19T07:29:36.566Z</time>
      </trkpt>
      <trkpt lat="45.92447" lon="6.34846">
        <ele>1911</ele>
        <time>2026-08-19T07:29:37.566Z</time>
      </trkpt>
      <trkpt lat="45.92447" lon="6.34847">
        <ele>1911</ele>
        <time>2026-08-19T07:29:38.566Z</time>
      </trkpt>
      <trkpt lat="45.92447" lon="6.34847">
        <ele>1911</ele>
        <time>2026-08-19T07:29:39.566Z</time>
      </trkpt>
      <trkpt lat="45.92447" lon="6.34847">
        <ele>1911</ele>
        <time>2026-08-19T07:29:40.566Z</time>
      </trkpt>
      <trkpt lat="45.92447" lon="6.34847">
        <ele>1911</ele>
        <time>2026-08-19T07:29:41.566Z</time>
      </trkpt>
      <trkpt lat="45.92447" lon="6.34847">
        <ele>1911</ele>
        <time>2026-08-19T07:29:42.566Z</time>
      </trkpt>
      <trkpt lat="45.92447" lon="6.34847">
        <ele>1911</ele>
        <time>2026-08-19T07:29:43.566Z</time>
      </trkpt>
      <trkpt lat="45.92447" lon="6.34847">
        <ele>1911</ele>
        <time>2026-08-19T07:29:44.566Z</time>
      </trkpt>
      <trkpt lat="45.92447" lon="6.34848">
        <ele>1911</ele>
        <time>2026-08-19T07:29:45.566Z</time>
      </trkpt>
      <trkpt lat="45.92447" lon="6.34848">
        <ele>1911</ele>
        <time>2026-08-19T07:29:46.566Z</time>
      </trkpt>
      <trkpt lat="45.92447" lon="6.34848">
        <ele>1911</ele>
        <time>2026-08-19T07:29:47.566Z</time>
      </trkpt>
      <trkpt lat="45.92447" lon="6.34849">
        <ele>1911</ele>
        <time>2026-08-19T07:29:48.566Z</time>
      </trkpt>
      <trkpt lat="45.92447" lon="6.34849">
        <ele>1911</ele>
        <time>2026-08-19T07:29:49.566Z</time>
      </trkpt>
      <trkpt lat="45.92447" lon="6.34849">
        <ele>1910</ele>
        <time>2026-08-19T07:29:50.566Z</time>
      </trkpt>
      <trkpt lat="45.92447" lon="6.3485">
        <ele>1910</ele>
        <time>2026-08-19T07:29:51.566Z</time>
      </trkpt>
      <trkpt lat="45.92447" lon="6.3485">
        <ele>1910</ele>
        <time>2026-08-19T07:29:52.566Z</time>
      </trkpt>
      <trkpt lat="45.92447" lon="6.3485">
        <ele>1910</ele>
        <time>2026-08-19T07:29:53.566Z</time>
      </trkpt>
      <trkpt lat="45.92447" lon="6.34851">
        <ele>1910</ele>
        <time>2026-08-19T07:29:54.566Z</time>
      </trkpt>
      <trkpt lat="45.92448" lon="6.34851">
        <ele>1910</ele>
        <time>2026-08-19T07:29:55.566Z</time>
      </trkpt>
      <trkpt lat="45.92448" lon="6.34851">
        <ele>1910</ele>
        <time>2026-08-19T07:29:56.566Z</time>
      </trkpt>
      <trkpt lat="45.92448" lon="6.34851">
        <ele>1910</ele>
        <time>2026-08-19T07:29:57.566Z</time>
      </trkpt>
      <trkpt lat="45.92448" lon="6.34852">
        <ele>1910</ele>
        <time>2026-08-19T07:29:58.566Z</time>
      </trkpt>
      <trkpt lat="45.92448" lon="6.34852">
        <ele>1910</ele>
        <time>2026-08-19T07:29:59.566Z</time>
      </trkpt>
      <trkpt lat="45.92448" lon="6.34852">
        <ele>1910</ele>
        <time>2026-08-19T07:30:00.566Z</time>
      </trkpt>
      <trkpt lat="45.92448" lon="6.34853">
        <ele>1909</ele>
        <time>2026-08-19T07:30:01.566Z</time>
      </trkpt>
      <trkpt lat="45.92448" lon="6.34853">
        <ele>1909</ele>
        <time>2026-08-19T07:30:02.566Z</time>
      </trkpt>
      <trkpt lat="45.92448" lon="6.34853">
        <ele>1909</ele>
        <time>2026-08-19T07:30:03.566Z</time>
      </trkpt>
      <trkpt lat="45.92448" lon="6.34853">
        <ele>1909</ele>
        <time>2026-08-19T07:30:04.566Z</time>
      </trkpt>
      <trkpt lat="45.92448" lon="6.34853">
        <ele>1909</ele>
        <time>2026-08-19T07:30:05.566Z</time>
      </trkpt>
      <trkpt lat="45.92448" lon="6.34853">
        <ele>1909</ele>
        <time>2026-08-19T07:30:06.566Z</time>
      </trkpt>
      <trkpt lat="45.92448" lon="6.34853">
        <ele>1909</ele>
        <time>2026-08-19T07:30:07.566Z</time>
      </trkpt>
      <trkpt lat="45.92447" lon="6.34853">
        <ele>1909</ele>
        <time>2026-08-19T07:30:08.566Z</time>
      </trkpt>
      <trkpt lat="45.92447" lon="6.34853">
        <ele>1909</ele>
        <time>2026-08-19T07:30:09.566Z</time>
      </trkpt>
      <trkpt lat="45.92447" lon="6.34853">
        <ele>1909</ele>
        <time>2026-08-19T07:30:10.566Z</time>
      </trkpt>
      <trkpt lat="45.92447" lon="6.34854">
        <ele>1909</ele>
        <time>2026-08-19T07:30:11.566Z</time>
      </trkpt>
      <trkpt lat="45.92447" lon="6.34854">
        <ele>1909</ele>
        <time>2026-08-19T07:30:12.567Z</time>
      </trkpt>
      <trkpt lat="45.92447" lon="6.34854">
        <ele>1909</ele>
        <time>2026-08-19T07:30:13.566Z</time>
      </trkpt>
      <trkpt lat="45.92447" lon="6.34854">
        <ele>1909</ele>
        <time>2026-08-19T07:30:14.566Z</time>
      </trkpt>
      <trkpt lat="45.92447" lon="6.34855">
        <ele>1908</ele>
        <time>2026-08-19T07:30:15.566Z</time>
      </trkpt>
      <trkpt lat="45.92447" lon="6.34855">
        <ele>1908</ele>
        <time>2026-08-19T07:30:16.566Z</time>
      </trkpt>
      <trkpt lat="45.92447" lon="6.34856">
        <ele>1908</ele>
        <time>2026-08-19T07:30:17.566Z</time>
      </trkpt>
      <trkpt lat="45.92447" lon="6.34856">
        <ele>1908</ele>
        <time>2026-08-19T07:30:18.566Z</time>
      </trkpt>
      <trkpt lat="45.92447" lon="6.34856">
        <ele>1908</ele>
        <time>2026-08-19T07:30:19.566Z</time>
      </trkpt>
      <trkpt lat="45.92447" lon="6.34857">
        <ele>1908</ele>
        <time>2026-08-19T07:30:20.566Z</time>
      </trkpt>
      <trkpt lat="45.92447" lon="6.34857">
        <ele>1908</ele>
        <time>2026-08-19T07:30:21.566Z</time>
      </trkpt>
      <trkpt lat="45.92447" lon="6.34857">
        <ele>1908</ele>
        <time>2026-08-19T07:30:22.566Z</time>
      </trkpt>
      <trkpt lat="45.92447" lon="6.34857">
        <ele>1908</ele>
        <time>2026-08-19T07:30:23.566Z</time>
      </trkpt>
      <trkpt lat="45.92447" lon="6.34858">
        <ele>1908</ele>
        <time>2026-08-19T07:30:24.566Z</time>
      </trkpt>
      <trkpt lat="45.92447" lon="6.34858">
        <ele>1908</ele>
        <time>2026-08-19T07:30:25.566Z</time>
      </trkpt>
      <trkpt lat="45.92447" lon="6.34858">
        <ele>1908</ele>
        <time>2026-08-19T07:30:26.566Z</time>
      </trkpt>
      <trkpt lat="45.92447" lon="6.34858">
        <ele>1908</ele>
        <time>2026-08-19T07:30:27.566Z</time>
      </trkpt>
      <trkpt lat="45.92447" lon="6.34858">
        <ele>1908</ele>
        <time>2026-08-19T07:30:28.566Z</time>
      </trkpt>
      <trkpt lat="45.92447" lon="6.34858">
        <ele>1908</ele>
        <time>2026-08-19T07:30:29.566Z</time>
      </trkpt>
      <trkpt lat="45.92447" lon="6.34858">
        <ele>1908</ele>
        <time>2026-08-19T07:30:30.566Z</time>
      </trkpt>
      <trkpt lat="45.92448" lon="6.34858">
        <ele>1908</ele>
        <time>2026-08-19T07:30:31.566Z</time>
      </trkpt>
      <trkpt lat="45.92448" lon="6.34858">
        <ele>1908</ele>
        <time>2026-08-19T07:30:32.566Z</time>
      </trkpt>
      <trkpt lat="45.92449" lon="6.34858">
        <ele>1908</ele>
        <time>2026-08-19T07:30:33.566Z</time>
      </trkpt>
      <trkpt lat="45.92449" lon="6.34857">
        <ele>1907</ele>
        <time>2026-08-19T07:30:34.566Z</time>
      </trkpt>
      <trkpt lat="45.9245" lon="6.34857">
        <ele>1907</ele>
        <time>2026-08-19T07:30:35.566Z</time>
      </trkpt>
      <trkpt lat="45.9245" lon="6.34856">
        <ele>1906</ele>
        <time>2026-08-19T07:30:36.566Z</time>
      </trkpt>
      <trkpt lat="45.92451" lon="6.34856">
        <ele>1905</ele>
        <time>2026-08-19T07:30:37.566Z</time>
      </trkpt>
      <trkpt lat="45.92452" lon="6.34856">
        <ele>1905</ele>
        <time>2026-08-19T07:30:38.566Z</time>
      </trkpt>
      <trkpt lat="45.92452" lon="6.34856">
        <ele>1904</ele>
        <time>2026-08-19T07:30:39.566Z</time>
      </trkpt>
      <trkpt lat="45.92453" lon="6.34856">
        <ele>1904</ele>
        <time>2026-08-19T07:30:40.566Z</time>
      </trkpt>
      <trkpt lat="45.92453" lon="6.34856">
        <ele>1904</ele>
        <time>2026-08-19T07:30:41.566Z</time>
      </trkpt>
      <trkpt lat="45.92453" lon="6.34856">
        <ele>1903</ele>
        <time>2026-08-19T07:30:42.566Z</time>
      </trkpt>
      <trkpt lat="45.92453" lon="6.34855">
        <ele>1903</ele>
        <time>2026-08-19T07:30:43.566Z</time>
      </trkpt>
      <trkpt lat="45.92454" lon="6.34855">
        <ele>1902</ele>
        <time>2026-08-19T07:30:44.566Z</time>
      </trkpt>
      <trkpt lat="45.92454" lon="6.34855">
        <ele>1902</ele>
        <time>2026-08-19T07:30:45.566Z</time>
      </trkpt>
      <trkpt lat="45.92455" lon="6.34855">
        <ele>1902</ele>
        <time>2026-08-19T07:30:46.566Z</time>
      </trkpt>
      <trkpt lat="45.92456" lon="6.34855">
        <ele>1901</ele>
        <time>2026-08-19T07:30:47.566Z</time>
      </trkpt>
      <trkpt lat="45.92456" lon="6.34855">
        <ele>1901</ele>
        <time>2026-08-19T07:30:48.566Z</time>
      </trkpt>
      <trkpt lat="45.92457" lon="6.34854">
        <ele>1901</ele>
        <time>2026-08-19T07:30:49.566Z</time>
      </trkpt>
      <trkpt lat="45.92457" lon="6.34854">
        <ele>1901</ele>
        <time>2026-08-19T07:30:50.566Z</time>
      </trkpt>
      <trkpt lat="45.92458" lon="6.34854">
        <ele>1900</ele>
        <time>2026-08-19T07:30:51.566Z</time>
      </trkpt>
      <trkpt lat="45.92458" lon="6.34854">
        <ele>1900</ele>
        <time>2026-08-19T07:30:52.566Z</time>
      </trkpt>
      <trkpt lat="45.92458" lon="6.34854">
        <ele>1900</ele>
        <time>2026-08-19T07:30:53.566Z</time>
      </trkpt>
      <trkpt lat="45.92458" lon="6.34854">
        <ele>1900</ele>
        <time>2026-08-19T07:30:54.566Z</time>
      </trkpt>
      <trkpt lat="45.92458" lon="6.34855">
        <ele>1900</ele>
        <time>2026-08-19T07:30:55.566Z</time>
      </trkpt>
      <trkpt lat="45.92458" lon="6.34855">
        <ele>1899</ele>
        <time>2026-08-19T07:30:56.566Z</time>
      </trkpt>
      <trkpt lat="45.92458" lon="6.34855">
        <ele>1899</ele>
        <time>2026-08-19T07:30:57.566Z</time>
      </trkpt>
      <trkpt lat="45.92458" lon="6.34855">
        <ele>1899</ele>
        <time>2026-08-19T07:30:58.566Z</time>
      </trkpt>
      <trkpt lat="45.92458" lon="6.34855">
        <ele>1900</ele>
        <time>2026-08-19T07:30:59.566Z</time>
      </trkpt>
      <trkpt lat="45.92458" lon="6.34855">
        <ele>1900</ele>
        <time>2026-08-19T07:31:00.566Z</time>
      </trkpt>
      <trkpt lat="45.92459" lon="6.34855">
        <ele>1900</ele>
        <time>2026-08-19T07:31:01.566Z</time>
      </trkpt>
      <trkpt lat="45.92459" lon="6.34854">
        <ele>1901</ele>
        <time>2026-08-19T07:31:02.566Z</time>
      </trkpt>
      <trkpt lat="45.92459" lon="6.34854">
        <ele>1901</ele>
        <time>2026-08-19T07:31:03.567Z</time>
      </trkpt>
      <trkpt lat="45.9246" lon="6.34855">
        <ele>1900</ele>
        <time>2026-08-19T07:31:04.566Z</time>
      </trkpt>
      <trkpt lat="45.92461" lon="6.34856">
        <ele>1900</ele>
        <time>2026-08-19T07:31:05.566Z</time>
      </trkpt>
      <trkpt lat="45.92461" lon="6.34856">
        <ele>1900</ele>
        <time>2026-08-19T07:31:06.566Z</time>
      </trkpt>
      <trkpt lat="45.92461" lon="6.34857">
        <ele>1900</ele>
        <time>2026-08-19T07:31:07.566Z</time>
      </trkpt>
      <trkpt lat="45.92462" lon="6.34858">
        <ele>1899</ele>
        <time>2026-08-19T07:31:08.566Z</time>
      </trkpt>
      <trkpt lat="45.92462" lon="6.34859">
        <ele>1899</ele>
        <time>2026-08-19T07:31:09.566Z</time>
      </trkpt>
      <trkpt lat="45.92463" lon="6.3486">
        <ele>1899</ele>
        <time>2026-08-19T07:31:10.566Z</time>
      </trkpt>
      <trkpt lat="45.92463" lon="6.3486">
        <ele>1899</ele>
        <time>2026-08-19T07:31:11.566Z</time>
      </trkpt>
      <trkpt lat="45.92463" lon="6.34861">
        <ele>1899</ele>
        <time>2026-08-19T07:31:12.566Z</time>
      </trkpt>
      <trkpt lat="45.92464" lon="6.34862">
        <ele>1899</ele>
        <time>2026-08-19T07:31:13.566Z</time>
      </trkpt>
      <trkpt lat="45.92464" lon="6.34862">
        <ele>1899</ele>
        <time>2026-08-19T07:31:14.566Z</time>
      </trkpt>
      <trkpt lat="45.92465" lon="6.34863">
        <ele>1899</ele>
        <time>2026-08-19T07:31:15.566Z</time>
      </trkpt>
      <trkpt lat="45.92466" lon="6.34863">
        <ele>1899</ele>
        <time>2026-08-19T07:31:16.566Z</time>
      </trkpt>
      <trkpt lat="45.92467" lon="6.34864">
        <ele>1899</ele>
        <time>2026-08-19T07:31:17.566Z</time>
      </trkpt>
      <trkpt lat="45.92467" lon="6.34864">
        <ele>1898</ele>
        <time>2026-08-19T07:31:18.566Z</time>
      </trkpt>
      <trkpt lat="45.92468" lon="6.34865">
        <ele>1898</ele>
        <time>2026-08-19T07:31:19.566Z</time>
      </trkpt>
      <trkpt lat="45.92468" lon="6.34866">
        <ele>1898</ele>
        <time>2026-08-19T07:31:20.566Z</time>
      </trkpt>
      <trkpt lat="45.92468" lon="6.34866">
        <ele>1898</ele>
        <time>2026-08-19T07:31:21.566Z</time>
      </trkpt>
      <trkpt lat="45.92468" lon="6.34867">
        <ele>1898</ele>
        <time>2026-08-19T07:31:22.566Z</time>
      </trkpt>
      <trkpt lat="45.92469" lon="6.34868">
        <ele>1898</ele>
        <time>2026-08-19T07:31:23.566Z</time>
      </trkpt>
      <trkpt lat="45.9247" lon="6.34869">
        <ele>1898</ele>
        <time>2026-08-19T07:31:24.566Z</time>
      </trkpt>
      <trkpt lat="45.92471" lon="6.3487">
        <ele>1898</ele>
        <time>2026-08-19T07:31:25.566Z</time>
      </trkpt>
      <trkpt lat="45.92472" lon="6.34871">
        <ele>1898</ele>
        <time>2026-08-19T07:31:26.566Z</time>
      </trkpt>
      <trkpt lat="45.92473" lon="6.34872">
        <ele>1898</ele>
        <time>2026-08-19T07:31:27.566Z</time>
      </trkpt>
      <trkpt lat="45.92473" lon="6.34873">
        <ele>1898</ele>
        <time>2026-08-19T07:31:28.566Z</time>
      </trkpt>
      <trkpt lat="45.92474" lon="6.34874">
        <ele>1899</ele>
        <time>2026-08-19T07:31:29.566Z</time>
      </trkpt>
      <trkpt lat="45.92474" lon="6.34875">
        <ele>1899</ele>
        <time>2026-08-19T07:31:30.566Z</time>
      </trkpt>
      <trkpt lat="45.92475" lon="6.34876">
        <ele>1899</ele>
        <time>2026-08-19T07:31:31.566Z</time>
      </trkpt>
      <trkpt lat="45.92476" lon="6.34877">
        <ele>1899</ele>
        <time>2026-08-19T07:31:32.566Z</time>
      </trkpt>
      <trkpt lat="45.92477" lon="6.34879">
        <ele>1900</ele>
        <time>2026-08-19T07:31:33.566Z</time>
      </trkpt>
      <trkpt lat="45.92478" lon="6.3488">
        <ele>1900</ele>
        <time>2026-08-19T07:31:34.566Z</time>
      </trkpt>
      <trkpt lat="45.92479" lon="6.34882">
        <ele>1900</ele>
        <time>2026-08-19T07:31:35.566Z</time>
      </trkpt>
      <trkpt lat="45.92479" lon="6.34883">
        <ele>1901</ele>
        <time>2026-08-19T07:31:36.566Z</time>
      </trkpt>
      <trkpt lat="45.9248" lon="6.34883">
        <ele>1901</ele>
        <time>2026-08-19T07:31:37.566Z</time>
      </trkpt>
      <trkpt lat="45.9248" lon="6.34884">
        <ele>1902</ele>
        <time>2026-08-19T07:31:38.566Z</time>
      </trkpt>
      <trkpt lat="45.9248" lon="6.34885">
        <ele>1902</ele>
        <time>2026-08-19T07:31:39.566Z</time>
      </trkpt>
      <trkpt lat="45.9248" lon="6.34886">
        <ele>1902</ele>
        <time>2026-08-19T07:31:40.566Z</time>
      </trkpt>
      <trkpt lat="45.92481" lon="6.34887">
        <ele>1903</ele>
        <time>2026-08-19T07:31:41.566Z</time>
      </trkpt>
      <trkpt lat="45.92481" lon="6.34888">
        <ele>1903</ele>
        <time>2026-08-19T07:31:42.566Z</time>
      </trkpt>
      <trkpt lat="45.92482" lon="6.34889">
        <ele>1904</ele>
        <time>2026-08-19T07:31:43.566Z</time>
      </trkpt>
      <trkpt lat="45.92483" lon="6.34889">
        <ele>1904</ele>
        <time>2026-08-19T07:31:44.566Z</time>
      </trkpt>
      <trkpt lat="45.92485" lon="6.3489">
        <ele>1904</ele>
        <time>2026-08-19T07:31:45.566Z</time>
      </trkpt>
      <trkpt lat="45.92485" lon="6.34891">
        <ele>1904</ele>
        <time>2026-08-19T07:31:46.566Z</time>
      </trkpt>
      <trkpt lat="45.92486" lon="6.34892">
        <ele>1905</ele>
        <time>2026-08-19T07:31:47.566Z</time>
      </trkpt>
      <trkpt lat="45.92486" lon="6.34893">
        <ele>1905</ele>
        <time>2026-08-19T07:31:48.566Z</time>
      </trkpt>
      <trkpt lat="45.92487" lon="6.34894">
        <ele>1905</ele>
        <time>2026-08-19T07:31:49.566Z</time>
      </trkpt>
      <trkpt lat="45.92487" lon="6.34896">
        <ele>1905</ele>
        <time>2026-08-19T07:31:50.566Z</time>
      </trkpt>
      <trkpt lat="45.92487" lon="6.34897">
        <ele>1905</ele>
        <time>2026-08-19T07:31:51.566Z</time>
      </trkpt>
      <trkpt lat="45.92488" lon="6.34899">
        <ele>1906</ele>
        <time>2026-08-19T07:31:52.566Z</time>
      </trkpt>
      <trkpt lat="45.92488" lon="6.349">
        <ele>1906</ele>
        <time>2026-08-19T07:31:53.566Z</time>
      </trkpt>
      <trkpt lat="45.92488" lon="6.34901">
        <ele>1906</ele>
        <time>2026-08-19T07:31:54.566Z</time>
      </trkpt>
      <trkpt lat="45.92488" lon="6.34902">
        <ele>1907</ele>
        <time>2026-08-19T07:31:55.566Z</time>
      </trkpt>
      <trkpt lat="45.92488" lon="6.34902">
        <ele>1907</ele>
        <time>2026-08-19T07:31:56.566Z</time>
      </trkpt>
      <trkpt lat="45.92488" lon="6.34902">
        <ele>1907</ele>
        <time>2026-08-19T07:31:57.566Z</time>
      </trkpt>
      <trkpt lat="45.92488" lon="6.34903">
        <ele>1907</ele>
        <time>2026-08-19T07:31:58.566Z</time>
      </trkpt>
      <trkpt lat="45.92489" lon="6.34903">
        <ele>1907</ele>
        <time>2026-08-19T07:31:59.566Z</time>
      </trkpt>
      <trkpt lat="45.9249" lon="6.34903">
        <ele>1907</ele>
        <time>2026-08-19T07:32:00.566Z</time>
      </trkpt>
      <trkpt lat="45.92489" lon="6.34903">
        <ele>1908</ele>
        <time>2026-08-19T07:32:01.566Z</time>
      </trkpt>
      <trkpt lat="45.92489" lon="6.34904">
        <ele>1908</ele>
        <time>2026-08-19T07:32:02.566Z</time>
      </trkpt>
      <trkpt lat="45.92489" lon="6.34905">
        <ele>1908</ele>
        <time>2026-08-19T07:32:03.566Z</time>
      </trkpt>
      <trkpt lat="45.92489" lon="6.34906">
        <ele>1908</ele>
        <time>2026-08-19T07:32:04.566Z</time>
      </trkpt>
      <trkpt lat="45.92489" lon="6.34905">
        <ele>1908</ele>
        <time>2026-08-19T07:32:05.566Z</time>
      </trkpt>
      <trkpt lat="45.9249" lon="6.34904">
        <ele>1909</ele>
        <time>2026-08-19T07:32:06.566Z</time>
      </trkpt>
      <trkpt lat="45.9249" lon="6.34904">
        <ele>1909</ele>
        <time>2026-08-19T07:32:07.566Z</time>
      </trkpt>
      <trkpt lat="45.92489" lon="6.34903">
        <ele>1909</ele>
        <time>2026-08-19T07:32:08.566Z</time>
      </trkpt>
      <trkpt lat="45.92489" lon="6.34903">
        <ele>1909</ele>
        <time>2026-08-19T07:32:09.566Z</time>
      </trkpt>
      <trkpt lat="45.9249" lon="6.34902">
        <ele>1909</ele>
        <time>2026-08-19T07:32:10.566Z</time>
      </trkpt>
      <trkpt lat="45.9249" lon="6.34901">
        <ele>1909</ele>
        <time>2026-08-19T07:32:11.566Z</time>
      </trkpt>
      <trkpt lat="45.92489" lon="6.349">
        <ele>1909</ele>
        <time>2026-08-19T07:32:12.566Z</time>
      </trkpt>
      <trkpt lat="45.92488" lon="6.34901">
        <ele>1909</ele>
        <time>2026-08-19T07:32:13.566Z</time>
      </trkpt>
      <trkpt lat="45.92488" lon="6.34901">
        <ele>1909</ele>
        <time>2026-08-19T07:32:14.566Z</time>
      </trkpt>
      <trkpt lat="45.92487" lon="6.34901">
        <ele>1910</ele>
        <time>2026-08-19T07:32:15.566Z</time>
      </trkpt>
      <trkpt lat="45.92487" lon="6.34901">
        <ele>1910</ele>
        <time>2026-08-19T07:32:16.566Z</time>
      </trkpt>
      <trkpt lat="45.92487" lon="6.34902">
        <ele>1910</ele>
        <time>2026-08-19T07:32:17.566Z</time>
      </trkpt>
      <trkpt lat="45.92487" lon="6.34903">
        <ele>1911</ele>
        <time>2026-08-19T07:32:18.566Z</time>
      </trkpt>
      <trkpt lat="45.92488" lon="6.34904">
        <ele>1911</ele>
        <time>2026-08-19T07:32:19.566Z</time>
      </trkpt>
      <trkpt lat="45.92488" lon="6.34905">
        <ele>1911</ele>
        <time>2026-08-19T07:32:20.566Z</time>
      </trkpt>
      <trkpt lat="45.92488" lon="6.34906">
        <ele>1911</ele>
        <time>2026-08-19T07:32:21.566Z</time>
      </trkpt>
      <trkpt lat="45.92489" lon="6.34906">
        <ele>1911</ele>
        <time>2026-08-19T07:32:22.566Z</time>
      </trkpt>
      <trkpt lat="45.92489" lon="6.34906">
        <ele>1911</ele>
        <time>2026-08-19T07:32:23.566Z</time>
      </trkpt>
      <trkpt lat="45.9249" lon="6.34905">
        <ele>1911</ele>
        <time>2026-08-19T07:32:24.566Z</time>
      </trkpt>
      <trkpt lat="45.9249" lon="6.34905">
        <ele>1911</ele>
        <time>2026-08-19T07:32:25.566Z</time>
      </trkpt>
      <trkpt lat="45.9249" lon="6.34904">
        <ele>1911</ele>
        <time>2026-08-19T07:32:26.566Z</time>
      </trkpt>
      <trkpt lat="45.9249" lon="6.34904">
        <ele>1911</ele>
        <time>2026-08-19T07:32:27.567Z</time>
      </trkpt>
      <trkpt lat="45.9249" lon="6.34905">
        <ele>1911</ele>
        <time>2026-08-19T07:32:28.566Z</time>
      </trkpt>
      <trkpt lat="45.9249" lon="6.34908">
        <ele>1911</ele>
        <time>2026-08-19T07:32:29.566Z</time>
      </trkpt>
      <trkpt lat="45.92489" lon="6.34907">
        <ele>1911</ele>
        <time>2026-08-19T07:32:30.566Z</time>
      </trkpt>
      <trkpt lat="45.92488" lon="6.34908">
        <ele>1912</ele>
        <time>2026-08-19T07:32:31.566Z</time>
      </trkpt>
      <trkpt lat="45.92488" lon="6.34908">
        <ele>1912</ele>
        <time>2026-08-19T07:32:32.566Z</time>
      </trkpt>
      <trkpt lat="45.92488" lon="6.34909">
        <ele>1913</ele>
        <time>2026-08-19T07:32:33.566Z</time>
      </trkpt>
      <trkpt lat="45.92488" lon="6.34909">
        <ele>1913</ele>
        <time>2026-08-19T07:32:34.566Z</time>
      </trkpt>
      <trkpt lat="45.92489" lon="6.34909">
        <ele>1913</ele>
        <time>2026-08-19T07:32:35.566Z</time>
      </trkpt>
      <trkpt lat="45.92491" lon="6.34908">
        <ele>1913</ele>
        <time>2026-08-19T07:32:36.566Z</time>
      </trkpt>
      <trkpt lat="45.92492" lon="6.34909">
        <ele>1913</ele>
        <time>2026-08-19T07:32:37.566Z</time>
      </trkpt>
      <trkpt lat="45.92492" lon="6.34909">
        <ele>1913</ele>
        <time>2026-08-19T07:32:38.566Z</time>
      </trkpt>
      <trkpt lat="45.92492" lon="6.34909">
        <ele>1913</ele>
        <time>2026-08-19T07:32:39.566Z</time>
      </trkpt>
      <trkpt lat="45.92492" lon="6.34909">
        <ele>1913</ele>
        <time>2026-08-19T07:32:40.566Z</time>
      </trkpt>
      <trkpt lat="45.92492" lon="6.34909">
        <ele>1913</ele>
        <time>2026-08-19T07:32:41.566Z</time>
      </trkpt>
      <trkpt lat="45.92493" lon="6.34909">
        <ele>1913</ele>
        <time>2026-08-19T07:32:42.566Z</time>
      </trkpt>
      <trkpt lat="45.92493" lon="6.34909">
        <ele>1913</ele>
        <time>2026-08-19T07:32:43.566Z</time>
      </trkpt>
      <trkpt lat="45.92494" lon="6.34909">
        <ele>1914</ele>
        <time>2026-08-19T07:32:44.566Z</time>
      </trkpt>
      <trkpt lat="45.92494" lon="6.34908">
        <ele>1914</ele>
        <time>2026-08-19T07:32:45.566Z</time>
      </trkpt>
      <trkpt lat="45.92495" lon="6.34908">
        <ele>1914</ele>
        <time>2026-08-19T07:32:46.566Z</time>
      </trkpt>
      <trkpt lat="45.92495" lon="6.34909">
        <ele>1914</ele>
        <time>2026-08-19T07:32:47.566Z</time>
      </trkpt>
      <trkpt lat="45.92495" lon="6.34909">
        <ele>1915</ele>
        <time>2026-08-19T07:32:48.566Z</time>
      </trkpt>
      <trkpt lat="45.92495" lon="6.34909">
        <ele>1915</ele>
        <time>2026-08-19T07:32:49.566Z</time>
      </trkpt>
      <trkpt lat="45.92495" lon="6.34908">
        <ele>1915</ele>
        <time>2026-08-19T07:32:50.566Z</time>
      </trkpt>
      <trkpt lat="45.92495" lon="6.34908">
        <ele>1915</ele>
        <time>2026-08-19T07:32:51.566Z</time>
      </trkpt>
      <trkpt lat="45.92495" lon="6.34908">
        <ele>1916</ele>
        <time>2026-08-19T07:32:52.566Z</time>
      </trkpt>
      <trkpt lat="45.92494" lon="6.34909">
        <ele>1916</ele>
        <time>2026-08-19T07:32:53.566Z</time>
      </trkpt>
      <trkpt lat="45.92494" lon="6.34909">
        <ele>1916</ele>
        <time>2026-08-19T07:32:54.566Z</time>
      </trkpt>
      <trkpt lat="45.92494" lon="6.34909">
        <ele>1917</ele>
        <time>2026-08-19T07:32:55.566Z</time>
      </trkpt>
      <trkpt lat="45.92494" lon="6.34909">
        <ele>1917</ele>
        <time>2026-08-19T07:32:56.566Z</time>
      </trkpt>
      <trkpt lat="45.92495" lon="6.34909">
        <ele>1917</ele>
        <time>2026-08-19T07:32:57.566Z</time>
      </trkpt>
      <trkpt lat="45.92495" lon="6.34909">
        <ele>1917</ele>
        <time>2026-08-19T07:32:58.566Z</time>
      </trkpt>
      <trkpt lat="45.92495" lon="6.34909">
        <ele>1917</ele>
        <time>2026-08-19T07:32:59.566Z</time>
      </trkpt>
      <trkpt lat="45.92496" lon="6.34909">
        <ele>1917</ele>
        <time>2026-08-19T07:33:00.566Z</time>
      </trkpt>
      <trkpt lat="45.92496" lon="6.34909">
        <ele>1917</ele>
        <time>2026-08-19T07:33:01.566Z</time>
      </trkpt>
      <trkpt lat="45.92496" lon="6.34909">
        <ele>1917</ele>
        <time>2026-08-19T07:33:02.566Z</time>
      </trkpt>
      <trkpt lat="45.92496" lon="6.34909">
        <ele>1917</ele>
        <time>2026-08-19T07:33:03.566Z</time>
      </trkpt>
      <trkpt lat="45.92496" lon="6.34909">
        <ele>1917</ele>
        <time>2026-08-19T07:33:04.566Z</time>
      </trkpt>
      <trkpt lat="45.92497" lon="6.34909">
        <ele>1917</ele>
        <time>2026-08-19T07:33:05.566Z</time>
      </trkpt>
      <trkpt lat="45.92497" lon="6.34909">
        <ele>1918</ele>
        <time>2026-08-19T07:33:06.566Z</time>
      </trkpt>
      <trkpt lat="45.92498" lon="6.34909">
        <ele>1918</ele>
        <time>2026-08-19T07:33:07.566Z</time>
      </trkpt>
      <trkpt lat="45.92499" lon="6.34909">
        <ele>1918</ele>
        <time>2026-08-19T07:33:08.567Z</time>
      </trkpt>
      <trkpt lat="45.92499" lon="6.34909">
        <ele>1918</ele>
        <time>2026-08-19T07:33:09.566Z</time>
      </trkpt>
      <trkpt lat="45.92499" lon="6.3491">
        <ele>1919</ele>
        <time>2026-08-19T07:33:10.566Z</time>
      </trkpt>
      <trkpt lat="45.92499" lon="6.3491">
        <ele>1919</ele>
        <time>2026-08-19T07:33:11.566Z</time>
      </trkpt>
      <trkpt lat="45.92499" lon="6.3491">
        <ele>1919</ele>
        <time>2026-08-19T07:33:12.566Z</time>
      </trkpt>
      <trkpt lat="45.925" lon="6.3491">
        <ele>1919</ele>
        <time>2026-08-19T07:33:13.566Z</time>
      </trkpt>
      <trkpt lat="45.925" lon="6.3491">
        <ele>1919</ele>
        <time>2026-08-19T07:33:14.566Z</time>
      </trkpt>
      <trkpt lat="45.92501" lon="6.3491">
        <ele>1919</ele>
        <time>2026-08-19T07:33:15.566Z</time>
      </trkpt>
      <trkpt lat="45.92502" lon="6.3491">
        <ele>1919</ele>
        <time>2026-08-19T07:33:16.566Z</time>
      </trkpt>
      <trkpt lat="45.92502" lon="6.3491">
        <ele>1920</ele>
        <time>2026-08-19T07:33:17.566Z</time>
      </trkpt>
      <trkpt lat="45.92502" lon="6.3491">
        <ele>1920</ele>
        <time>2026-08-19T07:33:18.566Z</time>
      </trkpt>
      <trkpt lat="45.92502" lon="6.3491">
        <ele>1921</ele>
        <time>2026-08-19T07:33:19.566Z</time>
      </trkpt>
      <trkpt lat="45.92502" lon="6.3491">
        <ele>1921</ele>
        <time>2026-08-19T07:33:20.566Z</time>
      </trkpt>
      <trkpt lat="45.92502" lon="6.3491">
        <ele>1921</ele>
        <time>2026-08-19T07:33:21.566Z</time>
      </trkpt>
      <trkpt lat="45.92502" lon="6.34909">
        <ele>1921</ele>
        <time>2026-08-19T07:33:22.566Z</time>
      </trkpt>
      <trkpt lat="45.92502" lon="6.3491">
        <ele>1921</ele>
        <time>2026-08-19T07:33:23.566Z</time>
      </trkpt>
      <trkpt lat="45.92503" lon="6.3491">
        <ele>1921</ele>
        <time>2026-08-19T07:33:24.566Z</time>
      </trkpt>
      <trkpt lat="45.92503" lon="6.3491">
        <ele>1921</ele>
        <time>2026-08-19T07:33:25.566Z</time>
      </trkpt>
      <trkpt lat="45.92503" lon="6.3491">
        <ele>1922</ele>
        <time>2026-08-19T07:33:26.566Z</time>
      </trkpt>
      <trkpt lat="45.92503" lon="6.3491">
        <ele>1922</ele>
        <time>2026-08-19T07:33:27.566Z</time>
      </trkpt>
      <trkpt lat="45.92504" lon="6.3491">
        <ele>1922</ele>
        <time>2026-08-19T07:33:28.566Z</time>
      </trkpt>
      <trkpt lat="45.92503" lon="6.3491">
        <ele>1922</ele>
        <time>2026-08-19T07:33:29.566Z</time>
      </trkpt>
      <trkpt lat="45.92504" lon="6.3491">
        <ele>1922</ele>
        <time>2026-08-19T07:33:30.566Z</time>
      </trkpt>
      <trkpt lat="45.92504" lon="6.3491">
        <ele>1922</ele>
        <time>2026-08-19T07:33:31.566Z</time>
      </trkpt>
      <trkpt lat="45.92504" lon="6.3491">
        <ele>1922</ele>
        <time>2026-08-19T07:33:32.566Z</time>
      </trkpt>
      <trkpt lat="45.92504" lon="6.34911">
        <ele>1922</ele>
        <time>2026-08-19T07:33:33.566Z</time>
      </trkpt>
      <trkpt lat="45.92504" lon="6.34911">
        <ele>1922</ele>
        <time>2026-08-19T07:33:34.566Z</time>
      </trkpt>
      <trkpt lat="45.92504" lon="6.34911">
        <ele>1922</ele>
        <time>2026-08-19T07:33:35.566Z</time>
      </trkpt>
      <trkpt lat="45.92503" lon="6.34911">
        <ele>1922</ele>
        <time>2026-08-19T07:33:36.566Z</time>
      </trkpt>
      <trkpt lat="45.92503" lon="6.34911">
        <ele>1923</ele>
        <time>2026-08-19T07:33:37.566Z</time>
      </trkpt>
      <trkpt lat="45.92503" lon="6.34911">
        <ele>1923</ele>
        <time>2026-08-19T07:33:38.566Z</time>
      </trkpt>
      <trkpt lat="45.92503" lon="6.3491">
        <ele>1923</ele>
        <time>2026-08-19T07:33:39.566Z</time>
      </trkpt>
      <trkpt lat="45.92503" lon="6.3491">
        <ele>1923</ele>
        <time>2026-08-19T07:33:40.566Z</time>
      </trkpt>
      <trkpt lat="45.92503" lon="6.3491">
        <ele>1923</ele>
        <time>2026-08-19T07:33:41.566Z</time>
      </trkpt>
      <trkpt lat="45.92503" lon="6.3491">
        <ele>1923</ele>
        <time>2026-08-19T07:33:42.566Z</time>
      </trkpt>
      <trkpt lat="45.92503" lon="6.3491">
        <ele>1923</ele>
        <time>2026-08-19T07:33:43.566Z</time>
      </trkpt>
      <trkpt lat="45.92503" lon="6.34911">
        <ele>1924</ele>
        <time>2026-08-19T07:33:44.566Z</time>
      </trkpt>
      <trkpt lat="45.92503" lon="6.34911">
        <ele>1924</ele>
        <time>2026-08-19T07:33:45.566Z</time>
      </trkpt>
      <trkpt lat="45.92503" lon="6.34911">
        <ele>1924</ele>
        <time>2026-08-19T07:33:46.566Z</time>
      </trkpt>
      <trkpt lat="45.92503" lon="6.34912">
        <ele>1924</ele>
        <time>2026-08-19T07:33:47.566Z</time>
      </trkpt>
      <trkpt lat="45.92503" lon="6.34912">
        <ele>1925</ele>
        <time>2026-08-19T07:33:48.566Z</time>
      </trkpt>
      <trkpt lat="45.92503" lon="6.34913">
        <ele>1925</ele>
        <time>2026-08-19T07:33:49.566Z</time>
      </trkpt>
      <trkpt lat="45.92502" lon="6.34913">
        <ele>1925</ele>
        <time>2026-08-19T07:33:50.566Z</time>
      </trkpt>
      <trkpt lat="45.92501" lon="6.34914">
        <ele>1925</ele>
        <time>2026-08-19T07:33:51.566Z</time>
      </trkpt>
      <trkpt lat="45.92501" lon="6.34914">
        <ele>1926</ele>
        <time>2026-08-19T07:33:52.566Z</time>
      </trkpt>
      <trkpt lat="45.925" lon="6.34915">
        <ele>1926</ele>
        <time>2026-08-19T07:33:53.566Z</time>
      </trkpt>
      <trkpt lat="45.92499" lon="6.34916">
        <ele>1926</ele>
        <time>2026-08-19T07:33:54.566Z</time>
      </trkpt>
      <trkpt lat="45.92499" lon="6.34916">
        <ele>1926</ele>
        <time>2026-08-19T07:33:55.566Z</time>
      </trkpt>
      <trkpt lat="45.92499" lon="6.34917">
        <ele>1927</ele>
        <time>2026-08-19T07:33:56.566Z</time>
      </trkpt>
      <trkpt lat="45.92499" lon="6.34917">
        <ele>1927</ele>
        <time>2026-08-19T07:33:57.567Z</time>
      </trkpt>
      <trkpt lat="45.925" lon="6.34917">
        <ele>1927</ele>
        <time>2026-08-19T07:33:58.566Z</time>
      </trkpt>
      <trkpt lat="45.925" lon="6.34918">
        <ele>1927</ele>
        <time>2026-08-19T07:33:59.566Z</time>
      </trkpt>
      <trkpt lat="45.92499" lon="6.34919">
        <ele>1927</ele>
        <time>2026-08-19T07:34:00.566Z</time>
      </trkpt>
      <trkpt lat="45.925" lon="6.34919">
        <ele>1927</ele>
        <time>2026-08-19T07:34:01.566Z</time>
      </trkpt>
      <trkpt lat="45.92499" lon="6.34919">
        <ele>1928</ele>
        <time>2026-08-19T07:34:02.566Z</time>
      </trkpt>
      <trkpt lat="45.92499" lon="6.34918">
        <ele>1928</ele>
        <time>2026-08-19T07:34:03.566Z</time>
      </trkpt>
      <trkpt lat="45.925" lon="6.34918">
        <ele>1928</ele>
        <time>2026-08-19T07:34:04.566Z</time>
      </trkpt>
      <trkpt lat="45.92501" lon="6.34918">
        <ele>1928</ele>
        <time>2026-08-19T07:34:05.566Z</time>
      </trkpt>
      <trkpt lat="45.92502" lon="6.34917">
        <ele>1928</ele>
        <time>2026-08-19T07:34:06.566Z</time>
      </trkpt>
      <trkpt lat="45.92502" lon="6.34917">
        <ele>1929</ele>
        <time>2026-08-19T07:34:07.566Z</time>
      </trkpt>
      <trkpt lat="45.92503" lon="6.34916">
        <ele>1929</ele>
        <time>2026-08-19T07:34:08.566Z</time>
      </trkpt>
      <trkpt lat="45.92504" lon="6.34915">
        <ele>1929</ele>
        <time>2026-08-19T07:34:09.566Z</time>
      </trkpt>
      <trkpt lat="45.92505" lon="6.34917">
        <ele>1930</ele>
        <time>2026-08-19T07:34:10.566Z</time>
      </trkpt>
      <trkpt lat="45.92506" lon="6.34918">
        <ele>1930</ele>
        <time>2026-08-19T07:34:11.566Z</time>
      </trkpt>
      <trkpt lat="45.92507" lon="6.34919">
        <ele>1930</ele>
        <time>2026-08-19T07:34:12.566Z</time>
      </trkpt>
      <trkpt lat="45.92507" lon="6.3492">
        <ele>1930</ele>
        <time>2026-08-19T07:34:13.566Z</time>
      </trkpt>
      <trkpt lat="45.92507" lon="6.3492">
        <ele>1931</ele>
        <time>2026-08-19T07:34:14.566Z</time>
      </trkpt>
      <trkpt lat="45.92507" lon="6.34921">
        <ele>1931</ele>
        <time>2026-08-19T07:34:15.566Z</time>
      </trkpt>
      <trkpt lat="45.92508" lon="6.34921">
        <ele>1931</ele>
        <time>2026-08-19T07:34:16.566Z</time>
      </trkpt>
      <trkpt lat="45.92507" lon="6.34921">
        <ele>1931</ele>
        <time>2026-08-19T07:34:17.566Z</time>
      </trkpt>
      <trkpt lat="45.92507" lon="6.34922">
        <ele>1932</ele>
        <time>2026-08-19T07:34:18.566Z</time>
      </trkpt>
      <trkpt lat="45.92506" lon="6.34923">
        <ele>1932</ele>
        <time>2026-08-19T07:34:19.566Z</time>
      </trkpt>
      <trkpt lat="45.92506" lon="6.34923">
        <ele>1933</ele>
        <time>2026-08-19T07:34:20.566Z</time>
      </trkpt>
      <trkpt lat="45.92506" lon="6.34924">
        <ele>1933</ele>
        <time>2026-08-19T07:34:21.566Z</time>
      </trkpt>
      <trkpt lat="45.92505" lon="6.34924">
        <ele>1934</ele>
        <time>2026-08-19T07:34:22.566Z</time>
      </trkpt>
      <trkpt lat="45.92505" lon="6.34924">
        <ele>1935</ele>
        <time>2026-08-19T07:34:23.566Z</time>
      </trkpt>
      <trkpt lat="45.92505" lon="6.34925">
        <ele>1935</ele>
        <time>2026-08-19T07:34:24.566Z</time>
      </trkpt>
      <trkpt lat="45.92505" lon="6.34925">
        <ele>1936</ele>
        <time>2026-08-19T07:34:25.566Z</time>
      </trkpt>
      <trkpt lat="45.92504" lon="6.34925">
        <ele>1936</ele>
        <time>2026-08-19T07:34:26.566Z</time>
      </trkpt>
      <trkpt lat="45.92504" lon="6.34926">
        <ele>1937</ele>
        <time>2026-08-19T07:34:27.566Z</time>
      </trkpt>
      <trkpt lat="45.92504" lon="6.34926">
        <ele>1938</ele>
        <time>2026-08-19T07:34:28.566Z</time>
      </trkpt>
      <trkpt lat="45.92504" lon="6.34926">
        <ele>1939</ele>
        <time>2026-08-19T07:34:29.566Z</time>
      </trkpt>
      <trkpt lat="45.92504" lon="6.34925">
        <ele>1939</ele>
        <time>2026-08-19T07:34:30.566Z</time>
      </trkpt>
      <trkpt lat="45.92503" lon="6.34925">
        <ele>1940</ele>
        <time>2026-08-19T07:34:31.566Z</time>
      </trkpt>
      <trkpt lat="45.92503" lon="6.34925">
        <ele>1940</ele>
        <time>2026-08-19T07:34:32.566Z</time>
      </trkpt>
      <trkpt lat="45.92503" lon="6.34925">
        <ele>1941</ele>
        <time>2026-08-19T07:34:33.566Z</time>
      </trkpt>
      <trkpt lat="45.92503" lon="6.34926">
        <ele>1941</ele>
        <time>2026-08-19T07:34:34.566Z</time>
      </trkpt>
      <trkpt lat="45.92503" lon="6.34926">
        <ele>1941</ele>
        <time>2026-08-19T07:34:35.566Z</time>
      </trkpt>
      <trkpt lat="45.92503" lon="6.34926">
        <ele>1942</ele>
        <time>2026-08-19T07:34:36.566Z</time>
      </trkpt>
      <trkpt lat="45.92504" lon="6.34926">
        <ele>1942</ele>
        <time>2026-08-19T07:34:37.566Z</time>
      </trkpt>
      <trkpt lat="45.92504" lon="6.34926">
        <ele>1942</ele>
        <time>2026-08-19T07:34:38.566Z</time>
      </trkpt>
      <trkpt lat="45.92504" lon="6.34926">
        <ele>1942</ele>
        <time>2026-08-19T07:34:39.566Z</time>
      </trkpt>
      <trkpt lat="45.92504" lon="6.34926">
        <ele>1942</ele>
        <time>2026-08-19T07:34:40.566Z</time>
      </trkpt>
      <trkpt lat="45.92504" lon="6.34926">
        <ele>1942</ele>
        <time>2026-08-19T07:34:41.566Z</time>
      </trkpt>
      <trkpt lat="45.92504" lon="6.34926">
        <ele>1943</ele>
        <time>2026-08-19T07:34:42.566Z</time>
      </trkpt>
      <trkpt lat="45.92504" lon="6.34926">
        <ele>1943</ele>
        <time>2026-08-19T07:34:43.566Z</time>
      </trkpt>
      <trkpt lat="45.92504" lon="6.34926">
        <ele>1942</ele>
        <time>2026-08-19T07:34:44.566Z</time>
      </trkpt>
      <trkpt lat="45.92504" lon="6.34926">
        <ele>1942</ele>
        <time>2026-08-19T07:34:45.566Z</time>
      </trkpt>
      <trkpt lat="45.92504" lon="6.34926">
        <ele>1942</ele>
        <time>2026-08-19T07:34:46.566Z</time>
      </trkpt>
      <trkpt lat="45.92504" lon="6.34926">
        <ele>1942</ele>
        <time>2026-08-19T07:34:47.566Z</time>
      </trkpt>
      <trkpt lat="45.92504" lon="6.34926">
        <ele>1942</ele>
        <time>2026-08-19T07:34:48.566Z</time>
      </trkpt>
      <trkpt lat="45.92504" lon="6.34926">
        <ele>1942</ele>
        <time>2026-08-19T07:34:49.566Z</time>
      </trkpt>
      <trkpt lat="45.92504" lon="6.34926">
        <ele>1942</ele>
        <time>2026-08-19T07:34:50.567Z</time>
      </trkpt>
      <trkpt lat="45.92504" lon="6.34926">
        <ele>1942</ele>
        <time>2026-08-19T07:34:51.566Z</time>
      </trkpt>
      <trkpt lat="45.92504" lon="6.34926">
        <ele>1942</ele>
        <time>2026-08-19T07:34:52.566Z</time>
      </trkpt>
      <trkpt lat="45.92504" lon="6.34926">
        <ele>1942</ele>
        <time>2026-08-19T07:34:53.566Z</time>
      </trkpt>
      <trkpt lat="45.92504" lon="6.34926">
        <ele>1942</ele>
        <time>2026-08-19T07:34:54.566Z</time>
      </trkpt>
      <trkpt lat="45.92504" lon="6.34926">
        <ele>1942</ele>
        <time>2026-08-19T07:34:55.566Z</time>
      </trkpt>
      <trkpt lat="45.92504" lon="6.34926">
        <ele>1942</ele>
        <time>2026-08-19T07:34:56.566Z</time>
      </trkpt>
      <trkpt lat="45.92504" lon="6.34926">
        <ele>1942</ele>
        <time>2026-08-19T07:34:57.566Z</time>
      </trkpt>
      <trkpt lat="45.92504" lon="6.34926">
        <ele>1942</ele>
        <time>2026-08-19T07:34:58.566Z</time>
      </trkpt>
      <trkpt lat="45.92504" lon="6.34926">
        <ele>1942</ele>
        <time>2026-08-19T07:34:59.566Z</time>
      </trkpt>
      <trkpt lat="45.92504" lon="6.34927">
        <ele>1942</ele>
        <time>2026-08-19T07:35:00.566Z</time>
      </trkpt>
      <trkpt lat="45.92504" lon="6.34927">
        <ele>1942</ele>
        <time>2026-08-19T07:35:01.566Z</time>
      </trkpt>
      <trkpt lat="45.92504" lon="6.34927">
        <ele>1942</ele>
        <time>2026-08-19T07:35:02.566Z</time>
      </trkpt>
      <trkpt lat="45.92504" lon="6.34927">
        <ele>1942</ele>
        <time>2026-08-19T07:35:03.566Z</time>
      </trkpt>
      <trkpt lat="45.92504" lon="6.34927">
        <ele>1942</ele>
        <time>2026-08-19T07:35:04.566Z</time>
      </trkpt>
      <trkpt lat="45.92504" lon="6.34927">
        <ele>1942</ele>
        <time>2026-08-19T07:35:05.566Z</time>
      </trkpt>
      <trkpt lat="45.92504" lon="6.34927">
        <ele>1941</ele>
        <time>2026-08-19T07:35:06.566Z</time>
      </trkpt>
      <trkpt lat="45.92504" lon="6.34928">
        <ele>1941</ele>
        <time>2026-08-19T07:35:07.566Z</time>
      </trkpt>
      <trkpt lat="45.92504" lon="6.34928">
        <ele>1941</ele>
        <time>2026-08-19T07:35:08.566Z</time>
      </trkpt>
      <trkpt lat="45.92504" lon="6.34928">
        <ele>1941</ele>
        <time>2026-08-19T07:35:09.566Z</time>
      </trkpt>
      <trkpt lat="45.92504" lon="6.34928">
        <ele>1941</ele>
        <time>2026-08-19T07:35:10.566Z</time>
      </trkpt>
      <trkpt lat="45.92504" lon="6.34928">
        <ele>1941</ele>
        <time>2026-08-19T07:35:11.566Z</time>
      </trkpt>
      <trkpt lat="45.92504" lon="6.34928">
        <ele>1941</ele>
        <time>2026-08-19T07:35:12.566Z</time>
      </trkpt>
      <trkpt lat="45.92504" lon="6.34929">
        <ele>1941</ele>
        <time>2026-08-19T07:35:13.566Z</time>
      </trkpt>
      <trkpt lat="45.92504" lon="6.34929">
        <ele>1941</ele>
        <time>2026-08-19T07:35:14.566Z</time>
      </trkpt>
      <trkpt lat="45.92504" lon="6.3493">
        <ele>1940</ele>
        <time>2026-08-19T07:35:15.566Z</time>
      </trkpt>
      <trkpt lat="45.92503" lon="6.3493">
        <ele>1940</ele>
        <time>2026-08-19T07:35:16.566Z</time>
      </trkpt>
      <trkpt lat="45.92503" lon="6.3493">
        <ele>1940</ele>
        <time>2026-08-19T07:35:17.566Z</time>
      </trkpt>
      <trkpt lat="45.92503" lon="6.3493">
        <ele>1940</ele>
        <time>2026-08-19T07:35:18.566Z</time>
      </trkpt>
      <trkpt lat="45.92503" lon="6.3493">
        <ele>1940</ele>
        <time>2026-08-19T07:35:19.566Z</time>
      </trkpt>
      <trkpt lat="45.92502" lon="6.34931">
        <ele>1940</ele>
        <time>2026-08-19T07:35:20.566Z</time>
      </trkpt>
      <trkpt lat="45.92502" lon="6.34931">
        <ele>1940</ele>
        <time>2026-08-19T07:35:21.566Z</time>
      </trkpt>
      <trkpt lat="45.92502" lon="6.34931">
        <ele>1940</ele>
        <time>2026-08-19T07:35:22.566Z</time>
      </trkpt>
      <trkpt lat="45.92502" lon="6.34932">
        <ele>1940</ele>
        <time>2026-08-19T07:35:23.566Z</time>
      </trkpt>
      <trkpt lat="45.92502" lon="6.34932">
        <ele>1940</ele>
        <time>2026-08-19T07:35:24.566Z</time>
      </trkpt>
      <trkpt lat="45.92502" lon="6.34932">
        <ele>1939</ele>
        <time>2026-08-19T07:35:25.567Z</time>
      </trkpt>
      <trkpt lat="45.92502" lon="6.34932">
        <ele>1939</ele>
        <time>2026-08-19T07:35:26.566Z</time>
      </trkpt>
      <trkpt lat="45.92502" lon="6.34932">
        <ele>1939</ele>
        <time>2026-08-19T07:35:27.566Z</time>
      </trkpt>
      <trkpt lat="45.92502" lon="6.34932">
        <ele>1939</ele>
        <time>2026-08-19T07:35:28.566Z</time>
      </trkpt>
      <trkpt lat="45.92502" lon="6.34932">
        <ele>1939</ele>
        <time>2026-08-19T07:35:29.566Z</time>
      </trkpt>
      <trkpt lat="45.92502" lon="6.34932">
        <ele>1939</ele>
        <time>2026-08-19T07:35:30.566Z</time>
      </trkpt>
      <trkpt lat="45.92502" lon="6.34932">
        <ele>1939</ele>
        <time>2026-08-19T07:35:31.566Z</time>
      </trkpt>
      <trkpt lat="45.92502" lon="6.34932">
        <ele>1939</ele>
        <time>2026-08-19T07:35:32.566Z</time>
      </trkpt>
      <trkpt lat="45.92502" lon="6.34932">
        <ele>1938</ele>
        <time>2026-08-19T07:35:33.566Z</time>
      </trkpt>
      <trkpt lat="45.92502" lon="6.34933">
        <ele>1938</ele>
        <time>2026-08-19T07:35:34.566Z</time>
      </trkpt>
      <trkpt lat="45.92502" lon="6.34933">
        <ele>1938</ele>
        <time>2026-08-19T07:35:35.566Z</time>
      </trkpt>
      <trkpt lat="45.92502" lon="6.34934">
        <ele>1938</ele>
        <time>2026-08-19T07:35:36.566Z</time>
      </trkpt>
      <trkpt lat="45.92502" lon="6.34934">
        <ele>1938</ele>
        <time>2026-08-19T07:35:37.566Z</time>
      </trkpt>
      <trkpt lat="45.92502" lon="6.34935">
        <ele>1938</ele>
        <time>2026-08-19T07:35:38.566Z</time>
      </trkpt>
      <trkpt lat="45.92502" lon="6.34935">
        <ele>1938</ele>
        <time>2026-08-19T07:35:39.566Z</time>
      </trkpt>
      <trkpt lat="45.92502" lon="6.34936">
        <ele>1938</ele>
        <time>2026-08-19T07:35:40.566Z</time>
      </trkpt>
      <trkpt lat="45.92502" lon="6.34936">
        <ele>1938</ele>
        <time>2026-08-19T07:35:41.566Z</time>
      </trkpt>
      <trkpt lat="45.92502" lon="6.34936">
        <ele>1938</ele>
        <time>2026-08-19T07:35:42.566Z</time>
      </trkpt>
      <trkpt lat="45.92503" lon="6.34936">
        <ele>1938</ele>
        <time>2026-08-19T07:35:43.566Z</time>
      </trkpt>
      <trkpt lat="45.92503" lon="6.34936">
        <ele>1937</ele>
        <time>2026-08-19T07:35:44.566Z</time>
      </trkpt>
      <trkpt lat="45.92503" lon="6.34936">
        <ele>1937</ele>
        <time>2026-08-19T07:35:45.566Z</time>
      </trkpt>
      <trkpt lat="45.92503" lon="6.34936">
        <ele>1937</ele>
        <time>2026-08-19T07:35:46.566Z</time>
      </trkpt>
      <trkpt lat="45.92504" lon="6.34936">
        <ele>1937</ele>
        <time>2026-08-19T07:35:47.566Z</time>
      </trkpt>
      <trkpt lat="45.92504" lon="6.34936">
        <ele>1937</ele>
        <time>2026-08-19T07:35:48.566Z</time>
      </trkpt>
      <trkpt lat="45.92504" lon="6.34936">
        <ele>1937</ele>
        <time>2026-08-19T07:35:49.566Z</time>
      </trkpt>
      <trkpt lat="45.92505" lon="6.34936">
        <ele>1937</ele>
        <time>2026-08-19T07:35:50.566Z</time>
      </trkpt>
      <trkpt lat="45.92506" lon="6.34936">
        <ele>1937</ele>
        <time>2026-08-19T07:35:51.566Z</time>
      </trkpt>
      <trkpt lat="45.92506" lon="6.34936">
        <ele>1937</ele>
        <time>2026-08-19T07:35:52.566Z</time>
      </trkpt>
      <trkpt lat="45.92507" lon="6.34936">
        <ele>1937</ele>
        <time>2026-08-19T07:35:53.566Z</time>
      </trkpt>
      <trkpt lat="45.92508" lon="6.34936">
        <ele>1937</ele>
        <time>2026-08-19T07:35:54.566Z</time>
      </trkpt>
      <trkpt lat="45.92509" lon="6.34936">
        <ele>1937</ele>
        <time>2026-08-19T07:35:55.566Z</time>
      </trkpt>
      <trkpt lat="45.9251" lon="6.34935">
        <ele>1936</ele>
        <time>2026-08-19T07:35:56.566Z</time>
      </trkpt>
      <trkpt lat="45.92511" lon="6.34935">
        <ele>1936</ele>
        <time>2026-08-19T07:35:57.566Z</time>
      </trkpt>
      <trkpt lat="45.92512" lon="6.34935">
        <ele>1937</ele>
        <time>2026-08-19T07:35:58.566Z</time>
      </trkpt>
      <trkpt lat="45.92513" lon="6.34934">
        <ele>1937</ele>
        <time>2026-08-19T07:35:59.566Z</time>
      </trkpt>
      <trkpt lat="45.92514" lon="6.34934">
        <ele>1937</ele>
        <time>2026-08-19T07:36:00.566Z</time>
      </trkpt>
      <trkpt lat="45.92515" lon="6.34934">
        <ele>1937</ele>
        <time>2026-08-19T07:36:01.566Z</time>
      </trkpt>
      <trkpt lat="45.92516" lon="6.34934">
        <ele>1937</ele>
        <time>2026-08-19T07:36:02.566Z</time>
      </trkpt>
      <trkpt lat="45.92516" lon="6.34935">
        <ele>1937</ele>
        <time>2026-08-19T07:36:03.566Z</time>
      </trkpt>
      <trkpt lat="45.92516" lon="6.34935">
        <ele>1937</ele>
        <time>2026-08-19T07:36:04.566Z</time>
      </trkpt>
      <trkpt lat="45.92516" lon="6.34935">
        <ele>1937</ele>
        <time>2026-08-19T07:36:05.566Z</time>
      </trkpt>
      <trkpt lat="45.92517" lon="6.34935">
        <ele>1938</ele>
        <time>2026-08-19T07:36:06.566Z</time>
      </trkpt>
      <trkpt lat="45.92517" lon="6.34935">
        <ele>1938</ele>
        <time>2026-08-19T07:36:07.566Z</time>
      </trkpt>
      <trkpt lat="45.92517" lon="6.34936">
        <ele>1938</ele>
        <time>2026-08-19T07:36:08.566Z</time>
      </trkpt>
      <trkpt lat="45.92517" lon="6.34936">
        <ele>1937</ele>
        <time>2026-08-19T07:36:09.566Z</time>
      </trkpt>
      <trkpt lat="45.92517" lon="6.34936">
        <ele>1937</ele>
        <time>2026-08-19T07:36:10.566Z</time>
      </trkpt>
      <trkpt lat="45.92517" lon="6.34936">
        <ele>1937</ele>
        <time>2026-08-19T07:36:11.566Z</time>
      </trkpt>
      <trkpt lat="45.92517" lon="6.34936">
        <ele>1937</ele>
        <time>2026-08-19T07:36:12.566Z</time>
      </trkpt>
      <trkpt lat="45.92518" lon="6.34937">
        <ele>1937</ele>
        <time>2026-08-19T07:36:13.566Z</time>
      </trkpt>
      <trkpt lat="45.92518" lon="6.34937">
        <ele>1936</ele>
        <time>2026-08-19T07:36:14.566Z</time>
      </trkpt>
      <trkpt lat="45.92518" lon="6.34937">
        <ele>1936</ele>
        <time>2026-08-19T07:36:15.566Z</time>
      </trkpt>
      <trkpt lat="45.92518" lon="6.34937">
        <ele>1936</ele>
        <time>2026-08-19T07:36:16.566Z</time>
      </trkpt>
      <trkpt lat="45.92518" lon="6.34937">
        <ele>1936</ele>
        <time>2026-08-19T07:36:17.566Z</time>
      </trkpt>
      <trkpt lat="45.92518" lon="6.34937">
        <ele>1936</ele>
        <time>2026-08-19T07:36:18.566Z</time>
      </trkpt>
      <trkpt lat="45.92518" lon="6.34937">
        <ele>1936</ele>
        <time>2026-08-19T07:36:19.566Z</time>
      </trkpt>
      <trkpt lat="45.92518" lon="6.34937">
        <ele>1936</ele>
        <time>2026-08-19T07:36:20.566Z</time>
      </trkpt>
      <trkpt lat="45.92518" lon="6.34937">
        <ele>1937</ele>
        <time>2026-08-19T07:36:21.566Z</time>
      </trkpt>
      <trkpt lat="45.92518" lon="6.34937">
        <ele>1937</ele>
        <time>2026-08-19T07:36:22.566Z</time>
      </trkpt>
      <trkpt lat="45.92518" lon="6.34937">
        <ele>1937</ele>
        <time>2026-08-19T07:36:23.566Z</time>
      </trkpt>
      <trkpt lat="45.92518" lon="6.34937">
        <ele>1937</ele>
        <time>2026-08-19T07:36:24.566Z</time>
      </trkpt>
      <trkpt lat="45.92518" lon="6.34937">
        <ele>1937</ele>
        <time>2026-08-19T07:36:25.566Z</time>
      </trkpt>
      <trkpt lat="45.92518" lon="6.34937">
        <ele>1937</ele>
        <time>2026-08-19T07:36:26.566Z</time>
      </trkpt>
      <trkpt lat="45.92518" lon="6.34937">
        <ele>1937</ele>
        <time>2026-08-19T07:36:27.566Z</time>
      </trkpt>
      <trkpt lat="45.92518" lon="6.34937">
        <ele>1937</ele>
        <time>2026-08-19T07:36:28.566Z</time>
      </trkpt>
      <trkpt lat="45.92518" lon="6.34937">
        <ele>1937</ele>
        <time>2026-08-19T07:36:29.566Z</time>
      </trkpt>
      <trkpt lat="45.92518" lon="6.34937">
        <ele>1937</ele>
        <time>2026-08-19T07:36:30.566Z</time>
      </trkpt>
      <trkpt lat="45.92518" lon="6.34937">
        <ele>1937</ele>
        <time>2026-08-19T07:36:31.566Z</time>
      </trkpt>
      <trkpt lat="45.92518" lon="6.34937">
        <ele>1937</ele>
        <time>2026-08-19T07:36:32.566Z</time>
      </trkpt>
      <trkpt lat="45.92519" lon="6.34936">
        <ele>1938</ele>
        <time>2026-08-19T07:36:33.566Z</time>
      </trkpt>
      <trkpt lat="45.92519" lon="6.34936">
        <ele>1938</ele>
        <time>2026-08-19T07:36:34.566Z</time>
      </trkpt>
      <trkpt lat="45.9252" lon="6.34936">
        <ele>1938</ele>
        <time>2026-08-19T07:36:35.566Z</time>
      </trkpt>
      <trkpt lat="45.92521" lon="6.34936">
        <ele>1939</ele>
        <time>2026-08-19T07:36:36.566Z</time>
      </trkpt>
      <trkpt lat="45.92522" lon="6.34936">
        <ele>1939</ele>
        <time>2026-08-19T07:36:37.566Z</time>
      </trkpt>
      <trkpt lat="45.92523" lon="6.34936">
        <ele>1939</ele>
        <time>2026-08-19T07:36:38.566Z</time>
      </trkpt>
      <trkpt lat="45.92523" lon="6.34937">
        <ele>1939</ele>
        <time>2026-08-19T07:36:39.566Z</time>
      </trkpt>
      <trkpt lat="45.92524" lon="6.34937">
        <ele>1940</ele>
        <time>2026-08-19T07:36:40.566Z</time>
      </trkpt>
      <trkpt lat="45.92524" lon="6.34937">
        <ele>1940</ele>
        <time>2026-08-19T07:36:41.566Z</time>
      </trkpt>
      <trkpt lat="45.92524" lon="6.34937">
        <ele>1940</ele>
        <time>2026-08-19T07:36:42.566Z</time>
      </trkpt>
      <trkpt lat="45.92524" lon="6.34937">
        <ele>1940</ele>
        <time>2026-08-19T07:36:43.566Z</time>
      </trkpt>
      <trkpt lat="45.92524" lon="6.34937">
        <ele>1941</ele>
        <time>2026-08-19T07:36:44.566Z</time>
      </trkpt>
      <trkpt lat="45.92524" lon="6.34937">
        <ele>1941</ele>
        <time>2026-08-19T07:36:45.566Z</time>
      </trkpt>
      <trkpt lat="45.92524" lon="6.34937">
        <ele>1941</ele>
        <time>2026-08-19T07:36:46.566Z</time>
      </trkpt>
      <trkpt lat="45.92524" lon="6.34937">
        <ele>1942</ele>
        <time>2026-08-19T07:36:47.566Z</time>
      </trkpt>
      <trkpt lat="45.92524" lon="6.34937">
        <ele>1942</ele>
        <time>2026-08-19T07:36:48.566Z</time>
      </trkpt>
      <trkpt lat="45.92524" lon="6.34937">
        <ele>1942</ele>
        <time>2026-08-19T07:36:49.566Z</time>
      </trkpt>
      <trkpt lat="45.92524" lon="6.34937">
        <ele>1942</ele>
        <time>2026-08-19T07:36:50.566Z</time>
      </trkpt>
      <trkpt lat="45.92524" lon="6.34937">
        <ele>1943</ele>
        <time>2026-08-19T07:36:51.566Z</time>
      </trkpt>
      <trkpt lat="45.92524" lon="6.34937">
        <ele>1943</ele>
        <time>2026-08-19T07:36:52.566Z</time>
      </trkpt>
      <trkpt lat="45.92524" lon="6.34937">
        <ele>1943</ele>
        <time>2026-08-19T07:36:53.566Z</time>
      </trkpt>
      <trkpt lat="45.92524" lon="6.34936">
        <ele>1943</ele>
        <time>2026-08-19T07:36:54.566Z</time>
      </trkpt>
      <trkpt lat="45.92524" lon="6.34936">
        <ele>1943</ele>
        <time>2026-08-19T07:36:55.566Z</time>
      </trkpt>
      <trkpt lat="45.92524" lon="6.34936">
        <ele>1943</ele>
        <time>2026-08-19T07:36:56.566Z</time>
      </trkpt>
      <trkpt lat="45.92525" lon="6.34936">
        <ele>1944</ele>
        <time>2026-08-19T07:36:57.566Z</time>
      </trkpt>
      <trkpt lat="45.92525" lon="6.34936">
        <ele>1944</ele>
        <time>2026-08-19T07:36:58.566Z</time>
      </trkpt>
      <trkpt lat="45.92525" lon="6.34936">
        <ele>1944</ele>
        <time>2026-08-19T07:36:59.566Z</time>
      </trkpt>
      <trkpt lat="45.92525" lon="6.34936">
        <ele>1944</ele>
        <time>2026-08-19T07:37:00.566Z</time>
      </trkpt>
      <trkpt lat="45.92525" lon="6.34936">
        <ele>1944</ele>
        <time>2026-08-19T07:37:01.566Z</time>
      </trkpt>
      <trkpt lat="45.92525" lon="6.34936">
        <ele>1944</ele>
        <time>2026-08-19T07:37:02.566Z</time>
      </trkpt>
      <trkpt lat="45.92525" lon="6.34935">
        <ele>1944</ele>
        <time>2026-08-19T07:37:03.566Z</time>
      </trkpt>
      <trkpt lat="45.92526" lon="6.34934">
        <ele>1944</ele>
        <time>2026-08-19T07:37:04.566Z</time>
      </trkpt>
      <trkpt lat="45.92526" lon="6.34934">
        <ele>1944</ele>
        <time>2026-08-19T07:37:05.566Z</time>
      </trkpt>
      <trkpt lat="45.92527" lon="6.34934">
        <ele>1944</ele>
        <time>2026-08-19T07:37:06.566Z</time>
      </trkpt>
      <trkpt lat="45.92527" lon="6.34934">
        <ele>1944</ele>
        <time>2026-08-19T07:37:07.566Z</time>
      </trkpt>
      <trkpt lat="45.92528" lon="6.34934">
        <ele>1944</ele>
        <time>2026-08-19T07:37:08.566Z</time>
      </trkpt>
      <trkpt lat="45.92528" lon="6.34934">
        <ele>1944</ele>
        <time>2026-08-19T07:37:09.566Z</time>
      </trkpt>
      <trkpt lat="45.92528" lon="6.34933">
        <ele>1945</ele>
        <time>2026-08-19T07:37:10.566Z</time>
      </trkpt>
      <trkpt lat="45.92528" lon="6.34933">
        <ele>1945</ele>
        <time>2026-08-19T07:37:11.566Z</time>
      </trkpt>
      <trkpt lat="45.92528" lon="6.34933">
        <ele>1945</ele>
        <time>2026-08-19T07:37:12.566Z</time>
      </trkpt>
      <trkpt lat="45.92529" lon="6.34933">
        <ele>1945</ele>
        <time>2026-08-19T07:37:13.566Z</time>
      </trkpt>
      <trkpt lat="45.92529" lon="6.34933">
        <ele>1945</ele>
        <time>2026-08-19T07:37:14.566Z</time>
      </trkpt>
      <trkpt lat="45.92529" lon="6.34933">
        <ele>1945</ele>
        <time>2026-08-19T07:37:15.566Z</time>
      </trkpt>
      <trkpt lat="45.92529" lon="6.34933">
        <ele>1945</ele>
        <time>2026-08-19T07:37:16.566Z</time>
      </trkpt>
      <trkpt lat="45.92529" lon="6.34933">
        <ele>1945</ele>
        <time>2026-08-19T07:37:17.566Z</time>
      </trkpt>
      <trkpt lat="45.92529" lon="6.34933">
        <ele>1945</ele>
        <time>2026-08-19T07:37:18.566Z</time>
      </trkpt>
      <trkpt lat="45.9253" lon="6.34933">
        <ele>1945</ele>
        <time>2026-08-19T07:37:19.566Z</time>
      </trkpt>
      <trkpt lat="45.9253" lon="6.34933">
        <ele>1945</ele>
        <time>2026-08-19T07:37:20.566Z</time>
      </trkpt>
      <trkpt lat="45.9253" lon="6.34932">
        <ele>1945</ele>
        <time>2026-08-19T07:37:21.566Z</time>
      </trkpt>
      <trkpt lat="45.92531" lon="6.34932">
        <ele>1945</ele>
        <time>2026-08-19T07:37:22.566Z</time>
      </trkpt>
      <trkpt lat="45.92531" lon="6.34932">
        <ele>1945</ele>
        <time>2026-08-19T07:37:23.566Z</time>
      </trkpt>
      <trkpt lat="45.92532" lon="6.34931">
        <ele>1945</ele>
        <time>2026-08-19T07:37:24.566Z</time>
      </trkpt>
      <trkpt lat="45.92532" lon="6.34931">
        <ele>1946</ele>
        <time>2026-08-19T07:37:25.566Z</time>
      </trkpt>
      <trkpt lat="45.92533" lon="6.34931">
        <ele>1946</ele>
        <time>2026-08-19T07:37:26.566Z</time>
      </trkpt>
      <trkpt lat="45.92533" lon="6.3493">
        <ele>1946</ele>
        <time>2026-08-19T07:37:27.566Z</time>
      </trkpt>
      <trkpt lat="45.92534" lon="6.3493">
        <ele>1947</ele>
        <time>2026-08-19T07:37:28.566Z</time>
      </trkpt>
      <trkpt lat="45.92535" lon="6.3493">
        <ele>1947</ele>
        <time>2026-08-19T07:37:29.566Z</time>
      </trkpt>
      <trkpt lat="45.92536" lon="6.3493">
        <ele>1947</ele>
        <time>2026-08-19T07:37:30.566Z</time>
      </trkpt>
      <trkpt lat="45.92537" lon="6.3493">
        <ele>1948</ele>
        <time>2026-08-19T07:37:31.566Z</time>
      </trkpt>
      <trkpt lat="45.92537" lon="6.3493">
        <ele>1948</ele>
        <time>2026-08-19T07:37:32.566Z</time>
      </trkpt>
      <trkpt lat="45.92537" lon="6.3493">
        <ele>1948</ele>
        <time>2026-08-19T07:37:33.567Z</time>
      </trkpt>
      <trkpt lat="45.92537" lon="6.3493">
        <ele>1949</ele>
        <time>2026-08-19T07:37:34.566Z</time>
      </trkpt>
      <trkpt lat="45.92538" lon="6.3493">
        <ele>1949</ele>
        <time>2026-08-19T07:37:35.566Z</time>
      </trkpt>
      <trkpt lat="45.92538" lon="6.3493">
        <ele>1949</ele>
        <time>2026-08-19T07:37:36.566Z</time>
      </trkpt>
      <trkpt lat="45.92538" lon="6.3493">
        <ele>1949</ele>
        <time>2026-08-19T07:37:37.566Z</time>
      </trkpt>
      <trkpt lat="45.92538" lon="6.3493">
        <ele>1949</ele>
        <time>2026-08-19T07:37:38.566Z</time>
      </trkpt>
      <trkpt lat="45.92538" lon="6.34931">
        <ele>1949</ele>
        <time>2026-08-19T07:37:39.566Z</time>
      </trkpt>
      <trkpt lat="45.92538" lon="6.34931">
        <ele>1950</ele>
        <time>2026-08-19T07:37:40.566Z</time>
      </trkpt>
      <trkpt lat="45.92538" lon="6.34931">
        <ele>1950</ele>
        <time>2026-08-19T07:37:41.566Z</time>
      </trkpt>
      <trkpt lat="45.92538" lon="6.34931">
        <ele>1950</ele>
        <time>2026-08-19T07:37:42.566Z</time>
      </trkpt>
      <trkpt lat="45.92538" lon="6.34931">
        <ele>1950</ele>
        <time>2026-08-19T07:37:43.566Z</time>
      </trkpt>
      <trkpt lat="45.92538" lon="6.34931">
        <ele>1950</ele>
        <time>2026-08-19T07:37:44.566Z</time>
      </trkpt>
      <trkpt lat="45.92538" lon="6.34931">
        <ele>1950</ele>
        <time>2026-08-19T07:37:45.566Z</time>
      </trkpt>
      <trkpt lat="45.92538" lon="6.34931">
        <ele>1950</ele>
        <time>2026-08-19T07:37:46.566Z</time>
      </trkpt>
      <trkpt lat="45.92538" lon="6.34931">
        <ele>1950</ele>
        <time>2026-08-19T07:37:47.566Z</time>
      </trkpt>
      <trkpt lat="45.92538" lon="6.34931">
        <ele>1951</ele>
        <time>2026-08-19T07:37:48.566Z</time>
      </trkpt>
      <trkpt lat="45.92538" lon="6.34931">
        <ele>1951</ele>
        <time>2026-08-19T07:37:49.566Z</time>
      </trkpt>
      <trkpt lat="45.92538" lon="6.34931">
        <ele>1951</ele>
        <time>2026-08-19T07:37:50.566Z</time>
      </trkpt>
      <trkpt lat="45.92538" lon="6.34931">
        <ele>1951</ele>
        <time>2026-08-19T07:37:51.566Z</time>
      </trkpt>
      <trkpt lat="45.92538" lon="6.34931">
        <ele>1951</ele>
        <time>2026-08-19T07:37:52.566Z</time>
      </trkpt>
      <trkpt lat="45.92538" lon="6.34931">
        <ele>1951</ele>
        <time>2026-08-19T07:37:53.566Z</time>
      </trkpt>
      <trkpt lat="45.92538" lon="6.34931">
        <ele>1951</ele>
        <time>2026-08-19T07:37:54.566Z</time>
      </trkpt>
      <trkpt lat="45.92538" lon="6.34931">
        <ele>1951</ele>
        <time>2026-08-19T07:37:55.566Z</time>
      </trkpt>
      <trkpt lat="45.92538" lon="6.34931">
        <ele>1951</ele>
        <time>2026-08-19T07:37:56.566Z</time>
      </trkpt>
      <trkpt lat="45.92538" lon="6.34931">
        <ele>1951</ele>
        <time>2026-08-19T07:37:57.566Z</time>
      </trkpt>
      <trkpt lat="45.92538" lon="6.34931">
        <ele>1951</ele>
        <time>2026-08-19T07:37:58.566Z</time>
      </trkpt>
      <trkpt lat="45.92538" lon="6.34931">
        <ele>1951</ele>
        <time>2026-08-19T07:37:59.566Z</time>
      </trkpt>
      <trkpt lat="45.92538" lon="6.34931">
        <ele>1951</ele>
        <time>2026-08-19T07:38:00.566Z</time>
      </trkpt>
      <trkpt lat="45.92538" lon="6.34931">
        <ele>1951</ele>
        <time>2026-08-19T07:38:01.566Z</time>
      </trkpt>
      <trkpt lat="45.92538" lon="6.34931">
        <ele>1951</ele>
        <time>2026-08-19T07:38:02.566Z</time>
      </trkpt>
      <trkpt lat="45.9254" lon="6.34931">
        <ele>1951</ele>
        <time>2026-08-19T07:38:03.566Z</time>
      </trkpt>
      <trkpt lat="45.92541" lon="6.34932">
        <ele>1951</ele>
        <time>2026-08-19T07:38:04.566Z</time>
      </trkpt>
      <trkpt lat="45.92542" lon="6.34933">
        <ele>1952</ele>
        <time>2026-08-19T07:38:05.566Z</time>
      </trkpt>
      <trkpt lat="45.92543" lon="6.34934">
        <ele>1952</ele>
        <time>2026-08-19T07:38:06.566Z</time>
      </trkpt>
      <trkpt lat="45.92544" lon="6.34934">
        <ele>1952</ele>
        <time>2026-08-19T07:38:07.566Z</time>
      </trkpt>
      <trkpt lat="45.92545" lon="6.34935">
        <ele>1953</ele>
        <time>2026-08-19T07:38:08.566Z</time>
      </trkpt>
      <trkpt lat="45.92546" lon="6.34935">
        <ele>1953</ele>
        <time>2026-08-19T07:38:09.566Z</time>
      </trkpt>
      <trkpt lat="45.92547" lon="6.34935">
        <ele>1953</ele>
        <time>2026-08-19T07:38:10.566Z</time>
      </trkpt>
      <trkpt lat="45.92548" lon="6.34935">
        <ele>1953</ele>
        <time>2026-08-19T07:38:11.566Z</time>
      </trkpt>
      <trkpt lat="45.92548" lon="6.34936">
        <ele>1954</ele>
        <time>2026-08-19T07:38:12.566Z</time>
      </trkpt>
      <trkpt lat="45.92548" lon="6.34936">
        <ele>1955</ele>
        <time>2026-08-19T07:38:13.566Z</time>
      </trkpt>
      <trkpt lat="45.92548" lon="6.34935">
        <ele>1956</ele>
        <time>2026-08-19T07:38:14.566Z</time>
      </trkpt>
      <trkpt lat="45.92549" lon="6.34935">
        <ele>1956</ele>
        <time>2026-08-19T07:38:15.566Z</time>
      </trkpt>
      <trkpt lat="45.92549" lon="6.34935">
        <ele>1957</ele>
        <time>2026-08-19T07:38:16.566Z</time>
      </trkpt>
      <trkpt lat="45.92549" lon="6.34935">
        <ele>1957</ele>
        <time>2026-08-19T07:38:17.566Z</time>
      </trkpt>
      <trkpt lat="45.9255" lon="6.34935">
        <ele>1957</ele>
        <time>2026-08-19T07:38:18.566Z</time>
      </trkpt>
      <trkpt lat="45.9255" lon="6.34935">
        <ele>1958</ele>
        <time>2026-08-19T07:38:19.566Z</time>
      </trkpt>
      <trkpt lat="45.9255" lon="6.34935">
        <ele>1958</ele>
        <time>2026-08-19T07:38:20.566Z</time>
      </trkpt>
      <trkpt lat="45.92551" lon="6.34935">
        <ele>1958</ele>
        <time>2026-08-19T07:38:21.566Z</time>
      </trkpt>
      <trkpt lat="45.92551" lon="6.34935">
        <ele>1958</ele>
        <time>2026-08-19T07:38:22.566Z</time>
      </trkpt>
      <trkpt lat="45.92551" lon="6.34935">
        <ele>1959</ele>
        <time>2026-08-19T07:38:23.566Z</time>
      </trkpt>
      <trkpt lat="45.92552" lon="6.34935">
        <ele>1960</ele>
        <time>2026-08-19T07:38:24.566Z</time>
      </trkpt>
      <trkpt lat="45.92552" lon="6.34935">
        <ele>1960</ele>
        <time>2026-08-19T07:38:25.566Z</time>
      </trkpt>
      <trkpt lat="45.92552" lon="6.34936">
        <ele>1961</ele>
        <time>2026-08-19T07:38:26.566Z</time>
      </trkpt>
      <trkpt lat="45.92552" lon="6.34936">
        <ele>1961</ele>
        <time>2026-08-19T07:38:27.566Z</time>
      </trkpt>
      <trkpt lat="45.92553" lon="6.34936">
        <ele>1962</ele>
        <time>2026-08-19T07:38:28.566Z</time>
      </trkpt>
      <trkpt lat="45.92553" lon="6.34936">
        <ele>1962</ele>
        <time>2026-08-19T07:38:29.566Z</time>
      </trkpt>
      <trkpt lat="45.92553" lon="6.34936">
        <ele>1963</ele>
        <time>2026-08-19T07:38:30.566Z</time>
      </trkpt>
      <trkpt lat="45.92553" lon="6.34936">
        <ele>1963</ele>
        <time>2026-08-19T07:38:31.566Z</time>
      </trkpt>
      <trkpt lat="45.92553" lon="6.34936">
        <ele>1963</ele>
        <time>2026-08-19T07:38:32.566Z</time>
      </trkpt>
      <trkpt lat="45.92553" lon="6.34936">
        <ele>1964</ele>
        <time>2026-08-19T07:38:33.566Z</time>
      </trkpt>
      <trkpt lat="45.92553" lon="6.34936">
        <ele>1964</ele>
        <time>2026-08-19T07:38:34.566Z</time>
      </trkpt>
      <trkpt lat="45.92553" lon="6.34936">
        <ele>1965</ele>
        <time>2026-08-19T07:38:35.566Z</time>
      </trkpt>
      <trkpt lat="45.92553" lon="6.34936">
        <ele>1965</ele>
        <time>2026-08-19T07:38:36.566Z</time>
      </trkpt>
      <trkpt lat="45.92553" lon="6.34936">
        <ele>1965</ele>
        <time>2026-08-19T07:38:37.566Z</time>
      </trkpt>
      <trkpt lat="45.92553" lon="6.34936">
        <ele>1966</ele>
        <time>2026-08-19T07:38:38.566Z</time>
      </trkpt>
      <trkpt lat="45.92553" lon="6.34936">
        <ele>1966</ele>
        <time>2026-08-19T07:38:39.566Z</time>
      </trkpt>
      <trkpt lat="45.92553" lon="6.34936">
        <ele>1966</ele>
        <time>2026-08-19T07:38:40.566Z</time>
      </trkpt>
      <trkpt lat="45.92553" lon="6.34936">
        <ele>1966</ele>
        <time>2026-08-19T07:38:41.566Z</time>
      </trkpt>
      <trkpt lat="45.92553" lon="6.34936">
        <ele>1967</ele>
        <time>2026-08-19T07:38:42.566Z</time>
      </trkpt>
      <trkpt lat="45.92553" lon="6.34935">
        <ele>1967</ele>
        <time>2026-08-19T07:38:43.566Z</time>
      </trkpt>
      <trkpt lat="45.92553" lon="6.34935">
        <ele>1967</ele>
        <time>2026-08-19T07:38:44.566Z</time>
      </trkpt>
      <trkpt lat="45.92553" lon="6.34935">
        <ele>1967</ele>
        <time>2026-08-19T07:38:45.566Z</time>
      </trkpt>
      <trkpt lat="45.92553" lon="6.34935">
        <ele>1967</ele>
        <time>2026-08-19T07:38:46.566Z</time>
      </trkpt>
      <trkpt lat="45.92553" lon="6.34935">
        <ele>1967</ele>
        <time>2026-08-19T07:38:47.566Z</time>
      </trkpt>
      <trkpt lat="45.92554" lon="6.34935">
        <ele>1967</ele>
        <time>2026-08-19T07:38:48.566Z</time>
      </trkpt>
      <trkpt lat="45.92555" lon="6.34935">
        <ele>1967</ele>
        <time>2026-08-19T07:38:49.566Z</time>
      </trkpt>
      <trkpt lat="45.92556" lon="6.34935">
        <ele>1968</ele>
        <time>2026-08-19T07:38:50.566Z</time>
      </trkpt>
      <trkpt lat="45.92558" lon="6.34934">
        <ele>1968</ele>
        <time>2026-08-19T07:38:51.566Z</time>
      </trkpt>
      <trkpt lat="45.92558" lon="6.34934">
        <ele>1968</ele>
        <time>2026-08-19T07:38:52.566Z</time>
      </trkpt>
      <trkpt lat="45.92559" lon="6.34934">
        <ele>1968</ele>
        <time>2026-08-19T07:38:53.566Z</time>
      </trkpt>
      <trkpt lat="45.9256" lon="6.34934">
        <ele>1968</ele>
        <time>2026-08-19T07:38:54.566Z</time>
      </trkpt>
      <trkpt lat="45.92561" lon="6.34935">
        <ele>1968</ele>
        <time>2026-08-19T07:38:55.566Z</time>
      </trkpt>
      <trkpt lat="45.92561" lon="6.34935">
        <ele>1968</ele>
        <time>2026-08-19T07:38:56.566Z</time>
      </trkpt>
      <trkpt lat="45.92562" lon="6.34935">
        <ele>1968</ele>
        <time>2026-08-19T07:38:57.566Z</time>
      </trkpt>
      <trkpt lat="45.92562" lon="6.34936">
        <ele>1968</ele>
        <time>2026-08-19T07:38:58.566Z</time>
      </trkpt>
      <trkpt lat="45.92562" lon="6.34936">
        <ele>1968</ele>
        <time>2026-08-19T07:38:59.566Z</time>
      </trkpt>
      <trkpt lat="45.92563" lon="6.34936">
        <ele>1968</ele>
        <time>2026-08-19T07:39:00.566Z</time>
      </trkpt>
      <trkpt lat="45.92563" lon="6.34937">
        <ele>1968</ele>
        <time>2026-08-19T07:39:01.566Z</time>
      </trkpt>
      <trkpt lat="45.92564" lon="6.34937">
        <ele>1968</ele>
        <time>2026-08-19T07:39:02.566Z</time>
      </trkpt>
      <trkpt lat="45.92564" lon="6.34938">
        <ele>1968</ele>
        <time>2026-08-19T07:39:03.566Z</time>
      </trkpt>
      <trkpt lat="45.92565" lon="6.34939">
        <ele>1969</ele>
        <time>2026-08-19T07:39:04.566Z</time>
      </trkpt>
      <trkpt lat="45.92565" lon="6.3494">
        <ele>1969</ele>
        <time>2026-08-19T07:39:05.566Z</time>
      </trkpt>
      <trkpt lat="45.92566" lon="6.34941">
        <ele>1969</ele>
        <time>2026-08-19T07:39:06.566Z</time>
      </trkpt>
      <trkpt lat="45.92566" lon="6.34941">
        <ele>1969</ele>
        <time>2026-08-19T07:39:07.566Z</time>
      </trkpt>
      <trkpt lat="45.92567" lon="6.34941">
        <ele>1970</ele>
        <time>2026-08-19T07:39:08.566Z</time>
      </trkpt>
      <trkpt lat="45.92568" lon="6.34942">
        <ele>1970</ele>
        <time>2026-08-19T07:39:09.566Z</time>
      </trkpt>
      <trkpt lat="45.92568" lon="6.34942">
        <ele>1970</ele>
        <time>2026-08-19T07:39:10.566Z</time>
      </trkpt>
      <trkpt lat="45.92569" lon="6.34943">
        <ele>1970</ele>
        <time>2026-08-19T07:39:11.566Z</time>
      </trkpt>
      <trkpt lat="45.92569" lon="6.34943">
        <ele>1969</ele>
        <time>2026-08-19T07:39:12.566Z</time>
      </trkpt>
      <trkpt lat="45.92569" lon="6.34943">
        <ele>1969</ele>
        <time>2026-08-19T07:39:13.566Z</time>
      </trkpt>
      <trkpt lat="45.9257" lon="6.34943">
        <ele>1969</ele>
        <time>2026-08-19T07:39:14.566Z</time>
      </trkpt>
      <trkpt lat="45.9257" lon="6.34943">
        <ele>1969</ele>
        <time>2026-08-19T07:39:15.566Z</time>
      </trkpt>
      <trkpt lat="45.9257" lon="6.34944">
        <ele>1969</ele>
        <time>2026-08-19T07:39:16.566Z</time>
      </trkpt>
      <trkpt lat="45.92571" lon="6.34944">
        <ele>1969</ele>
        <time>2026-08-19T07:39:17.566Z</time>
      </trkpt>
      <trkpt lat="45.92571" lon="6.34944">
        <ele>1969</ele>
        <time>2026-08-19T07:39:18.566Z</time>
      </trkpt>
      <trkpt lat="45.92572" lon="6.34945">
        <ele>1969</ele>
        <time>2026-08-19T07:39:19.566Z</time>
      </trkpt>
      <trkpt lat="45.92572" lon="6.34945">
        <ele>1969</ele>
        <time>2026-08-19T07:39:20.566Z</time>
      </trkpt>
      <trkpt lat="45.92573" lon="6.34944">
        <ele>1969</ele>
        <time>2026-08-19T07:39:21.566Z</time>
      </trkpt>
      <trkpt lat="45.92573" lon="6.34944">
        <ele>1969</ele>
        <time>2026-08-19T07:39:22.566Z</time>
      </trkpt>
      <trkpt lat="45.92574" lon="6.34944">
        <ele>1969</ele>
        <time>2026-08-19T07:39:23.566Z</time>
      </trkpt>
      <trkpt lat="45.92574" lon="6.34944">
        <ele>1969</ele>
        <time>2026-08-19T07:39:24.566Z</time>
      </trkpt>
      <trkpt lat="45.92574" lon="6.34944">
        <ele>1969</ele>
        <time>2026-08-19T07:39:25.566Z</time>
      </trkpt>
      <trkpt lat="45.92574" lon="6.34944">
        <ele>1970</ele>
        <time>2026-08-19T07:39:26.566Z</time>
      </trkpt>
      <trkpt lat="45.92574" lon="6.34944">
        <ele>1970</ele>
        <time>2026-08-19T07:39:27.566Z</time>
      </trkpt>
      <trkpt lat="45.92574" lon="6.34944">
        <ele>1971</ele>
        <time>2026-08-19T07:39:28.566Z</time>
      </trkpt>
      <trkpt lat="45.92575" lon="6.34944">
        <ele>1971</ele>
        <time>2026-08-19T07:39:29.566Z</time>
      </trkpt>
      <trkpt lat="45.92575" lon="6.34944">
        <ele>1972</ele>
        <time>2026-08-19T07:39:30.566Z</time>
      </trkpt>
      <trkpt lat="45.92575" lon="6.34944">
        <ele>1972</ele>
        <time>2026-08-19T07:39:31.566Z</time>
      </trkpt>
      <trkpt lat="45.92575" lon="6.34945">
        <ele>1972</ele>
        <time>2026-08-19T07:39:32.566Z</time>
      </trkpt>
      <trkpt lat="45.92575" lon="6.34945">
        <ele>1972</ele>
        <time>2026-08-19T07:39:33.566Z</time>
      </trkpt>
      <trkpt lat="45.92575" lon="6.34945">
        <ele>1973</ele>
        <time>2026-08-19T07:39:34.566Z</time>
      </trkpt>
      <trkpt lat="45.92575" lon="6.34945">
        <ele>1973</ele>
        <time>2026-08-19T07:39:35.566Z</time>
      </trkpt>
      <trkpt lat="45.92575" lon="6.34945">
        <ele>1973</ele>
        <time>2026-08-19T07:39:36.566Z</time>
      </trkpt>
      <trkpt lat="45.92575" lon="6.34945">
        <ele>1974</ele>
        <time>2026-08-19T07:39:37.566Z</time>
      </trkpt>
      <trkpt lat="45.92575" lon="6.34945">
        <ele>1974</ele>
        <time>2026-08-19T07:39:38.566Z</time>
      </trkpt>
      <trkpt lat="45.92575" lon="6.34945">
        <ele>1974</ele>
        <time>2026-08-19T07:39:39.566Z</time>
      </trkpt>
      <trkpt lat="45.92575" lon="6.34945">
        <ele>1974</ele>
        <time>2026-08-19T07:39:40.566Z</time>
      </trkpt>
      <trkpt lat="45.92575" lon="6.34945">
        <ele>1975</ele>
        <time>2026-08-19T07:39:41.566Z</time>
      </trkpt>
      <trkpt lat="45.92575" lon="6.34945">
        <ele>1975</ele>
        <time>2026-08-19T07:39:42.566Z</time>
      </trkpt>
      <trkpt lat="45.92575" lon="6.34945">
        <ele>1975</ele>
        <time>2026-08-19T07:39:43.566Z</time>
      </trkpt>
      <trkpt lat="45.92575" lon="6.34945">
        <ele>1975</ele>
        <time>2026-08-19T07:39:44.566Z</time>
      </trkpt>
      <trkpt lat="45.92575" lon="6.34945">
        <ele>1975</ele>
        <time>2026-08-19T07:39:45.566Z</time>
      </trkpt>
      <trkpt lat="45.92575" lon="6.34945">
        <ele>1975</ele>
        <time>2026-08-19T07:39:46.566Z</time>
      </trkpt>
      <trkpt lat="45.92575" lon="6.34945">
        <ele>1975</ele>
        <time>2026-08-19T07:39:47.566Z</time>
      </trkpt>
      <trkpt lat="45.92575" lon="6.34945">
        <ele>1975</ele>
        <time>2026-08-19T07:39:48.566Z</time>
      </trkpt>
      <trkpt lat="45.92575" lon="6.34945">
        <ele>1975</ele>
        <time>2026-08-19T07:39:49.566Z</time>
      </trkpt>
      <trkpt lat="45.92575" lon="6.34945">
        <ele>1975</ele>
        <time>2026-08-19T07:39:50.566Z</time>
      </trkpt>
      <trkpt lat="45.92576" lon="6.34945">
        <ele>1975</ele>
        <time>2026-08-19T07:39:51.566Z</time>
      </trkpt>
      <trkpt lat="45.92576" lon="6.34945">
        <ele>1975</ele>
        <time>2026-08-19T07:39:52.566Z</time>
      </trkpt>
      <trkpt lat="45.92576" lon="6.34945">
        <ele>1975</ele>
        <time>2026-08-19T07:39:53.566Z</time>
      </trkpt>
      <trkpt lat="45.92576" lon="6.34945">
        <ele>1975</ele>
        <time>2026-08-19T07:39:54.566Z</time>
      </trkpt>
      <trkpt lat="45.92576" lon="6.34945">
        <ele>1975</ele>
        <time>2026-08-19T07:39:55.566Z</time>
      </trkpt>
      <trkpt lat="45.92576" lon="6.34945">
        <ele>1975</ele>
        <time>2026-08-19T07:39:56.566Z</time>
      </trkpt>
      <trkpt lat="45.92576" lon="6.34944">
        <ele>1975</ele>
        <time>2026-08-19T07:39:57.566Z</time>
      </trkpt>
      <trkpt lat="45.92576" lon="6.34944">
        <ele>1975</ele>
        <time>2026-08-19T07:39:58.566Z</time>
      </trkpt>
      <trkpt lat="45.92576" lon="6.34944">
        <ele>1975</ele>
        <time>2026-08-19T07:39:59.566Z</time>
      </trkpt>
      <trkpt lat="45.92576" lon="6.34944">
        <ele>1975</ele>
        <time>2026-08-19T07:40:00.566Z</time>
      </trkpt>
      <trkpt lat="45.92576" lon="6.34945">
        <ele>1975</ele>
        <time>2026-08-19T07:40:01.566Z</time>
      </trkpt>
      <trkpt lat="45.92576" lon="6.34945">
        <ele>1975</ele>
        <time>2026-08-19T07:40:02.566Z</time>
      </trkpt>
      <trkpt lat="45.92577" lon="6.34945">
        <ele>1975</ele>
        <time>2026-08-19T07:40:03.566Z</time>
      </trkpt>
      <trkpt lat="45.92577" lon="6.34945">
        <ele>1975</ele>
        <time>2026-08-19T07:40:04.566Z</time>
      </trkpt>
      <trkpt lat="45.92578" lon="6.34945">
        <ele>1975</ele>
        <time>2026-08-19T07:40:05.566Z</time>
      </trkpt>
      <trkpt lat="45.92579" lon="6.34945">
        <ele>1975</ele>
        <time>2026-08-19T07:40:06.566Z</time>
      </trkpt>
      <trkpt lat="45.92581" lon="6.34945">
        <ele>1974</ele>
        <time>2026-08-19T07:40:07.566Z</time>
      </trkpt>
      <trkpt lat="45.92582" lon="6.34945">
        <ele>1974</ele>
        <time>2026-08-19T07:40:08.566Z</time>
      </trkpt>
      <trkpt lat="45.92583" lon="6.34946">
        <ele>1974</ele>
        <time>2026-08-19T07:40:09.566Z</time>
      </trkpt>
      <trkpt lat="45.92585" lon="6.34946">
        <ele>1974</ele>
        <time>2026-08-19T07:40:10.566Z</time>
      </trkpt>
      <trkpt lat="45.92586" lon="6.34946">
        <ele>1974</ele>
        <time>2026-08-19T07:40:11.566Z</time>
      </trkpt>
      <trkpt lat="45.92587" lon="6.34947">
        <ele>1975</ele>
        <time>2026-08-19T07:40:12.566Z</time>
      </trkpt>
      <trkpt lat="45.92588" lon="6.34947">
        <ele>1975</ele>
        <time>2026-08-19T07:40:13.566Z</time>
      </trkpt>
      <trkpt lat="45.92588" lon="6.34947">
        <ele>1975</ele>
        <time>2026-08-19T07:40:14.566Z</time>
      </trkpt>
      <trkpt lat="45.92589" lon="6.34947">
        <ele>1975</ele>
        <time>2026-08-19T07:40:15.566Z</time>
      </trkpt>
      <trkpt lat="45.92589" lon="6.34947">
        <ele>1976</ele>
        <time>2026-08-19T07:40:16.566Z</time>
      </trkpt>
      <trkpt lat="45.9259" lon="6.34947">
        <ele>1976</ele>
        <time>2026-08-19T07:40:17.566Z</time>
      </trkpt>
      <trkpt lat="45.9259" lon="6.34947">
        <ele>1976</ele>
        <time>2026-08-19T07:40:18.566Z</time>
      </trkpt>
      <trkpt lat="45.92591" lon="6.34947">
        <ele>1976</ele>
        <time>2026-08-19T07:40:19.566Z</time>
      </trkpt>
      <trkpt lat="45.92592" lon="6.34947">
        <ele>1976</ele>
        <time>2026-08-19T07:40:20.566Z</time>
      </trkpt>
      <trkpt lat="45.92592" lon="6.34947">
        <ele>1976</ele>
        <time>2026-08-19T07:40:21.566Z</time>
      </trkpt>
      <trkpt lat="45.92592" lon="6.34947">
        <ele>1977</ele>
        <time>2026-08-19T07:40:22.566Z</time>
      </trkpt>
      <trkpt lat="45.92593" lon="6.34947">
        <ele>1977</ele>
        <time>2026-08-19T07:40:23.566Z</time>
      </trkpt>
      <trkpt lat="45.92594" lon="6.34948">
        <ele>1977</ele>
        <time>2026-08-19T07:40:24.566Z</time>
      </trkpt>
      <trkpt lat="45.92594" lon="6.34948">
        <ele>1977</ele>
        <time>2026-08-19T07:40:25.566Z</time>
      </trkpt>
      <trkpt lat="45.92595" lon="6.34949">
        <ele>1977</ele>
        <time>2026-08-19T07:40:26.566Z</time>
      </trkpt>
      <trkpt lat="45.92595" lon="6.34949">
        <ele>1977</ele>
        <time>2026-08-19T07:40:27.566Z</time>
      </trkpt>
      <trkpt lat="45.92596" lon="6.34949">
        <ele>1978</ele>
        <time>2026-08-19T07:40:28.566Z</time>
      </trkpt>
      <trkpt lat="45.92597" lon="6.34949">
        <ele>1978</ele>
        <time>2026-08-19T07:40:29.566Z</time>
      </trkpt>
      <trkpt lat="45.92597" lon="6.34949">
        <ele>1978</ele>
        <time>2026-08-19T07:40:30.566Z</time>
      </trkpt>
      <trkpt lat="45.92598" lon="6.34949">
        <ele>1978</ele>
        <time>2026-08-19T07:40:31.566Z</time>
      </trkpt>
      <trkpt lat="45.92598" lon="6.34949">
        <ele>1978</ele>
        <time>2026-08-19T07:40:32.566Z</time>
      </trkpt>
      <trkpt lat="45.92598" lon="6.3495">
        <ele>1978</ele>
        <time>2026-08-19T07:40:33.566Z</time>
      </trkpt>
      <trkpt lat="45.92599" lon="6.3495">
        <ele>1978</ele>
        <time>2026-08-19T07:40:34.566Z</time>
      </trkpt>
      <trkpt lat="45.92599" lon="6.34951">
        <ele>1979</ele>
        <time>2026-08-19T07:40:35.566Z</time>
      </trkpt>
      <trkpt lat="45.92599" lon="6.34951">
        <ele>1979</ele>
        <time>2026-08-19T07:40:36.566Z</time>
      </trkpt>
      <trkpt lat="45.926" lon="6.34951">
        <ele>1979</ele>
        <time>2026-08-19T07:40:37.566Z</time>
      </trkpt>
      <trkpt lat="45.926" lon="6.34952">
        <ele>1979</ele>
        <time>2026-08-19T07:40:38.566Z</time>
      </trkpt>
      <trkpt lat="45.92601" lon="6.34952">
        <ele>1980</ele>
        <time>2026-08-19T07:40:39.566Z</time>
      </trkpt>
      <trkpt lat="45.92602" lon="6.34953">
        <ele>1980</ele>
        <time>2026-08-19T07:40:40.566Z</time>
      </trkpt>
      <trkpt lat="45.92602" lon="6.34953">
        <ele>1980</ele>
        <time>2026-08-19T07:40:41.566Z</time>
      </trkpt>
      <trkpt lat="45.92603" lon="6.34953">
        <ele>1980</ele>
        <time>2026-08-19T07:40:42.566Z</time>
      </trkpt>
      <trkpt lat="45.92603" lon="6.34953">
        <ele>1980</ele>
        <time>2026-08-19T07:40:43.566Z</time>
      </trkpt>
      <trkpt lat="45.92603" lon="6.34953">
        <ele>1980</ele>
        <time>2026-08-19T07:40:44.566Z</time>
      </trkpt>
      <trkpt lat="45.92603" lon="6.34953">
        <ele>1981</ele>
        <time>2026-08-19T07:40:45.566Z</time>
      </trkpt>
      <trkpt lat="45.92603" lon="6.34953">
        <ele>1981</ele>
        <time>2026-08-19T07:40:46.566Z</time>
      </trkpt>
      <trkpt lat="45.92604" lon="6.34953">
        <ele>1981</ele>
        <time>2026-08-19T07:40:47.566Z</time>
      </trkpt>
      <trkpt lat="45.92604" lon="6.34953">
        <ele>1981</ele>
        <time>2026-08-19T07:40:48.566Z</time>
      </trkpt>
      <trkpt lat="45.92605" lon="6.34953">
        <ele>1982</ele>
        <time>2026-08-19T07:40:49.566Z</time>
      </trkpt>
      <trkpt lat="45.92606" lon="6.34953">
        <ele>1982</ele>
        <time>2026-08-19T07:40:50.566Z</time>
      </trkpt>
      <trkpt lat="45.92607" lon="6.34954">
        <ele>1982</ele>
        <time>2026-08-19T07:40:51.566Z</time>
      </trkpt>
      <trkpt lat="45.92607" lon="6.34954">
        <ele>1982</ele>
        <time>2026-08-19T07:40:52.566Z</time>
      </trkpt>
      <trkpt lat="45.92608" lon="6.34954">
        <ele>1982</ele>
        <time>2026-08-19T07:40:53.566Z</time>
      </trkpt>
      <trkpt lat="45.92608" lon="6.34955">
        <ele>1982</ele>
        <time>2026-08-19T07:40:54.566Z</time>
      </trkpt>
      <trkpt lat="45.92608" lon="6.34955">
        <ele>1983</ele>
        <time>2026-08-19T07:40:55.566Z</time>
      </trkpt>
      <trkpt lat="45.92609" lon="6.34955">
        <ele>1983</ele>
        <time>2026-08-19T07:40:56.566Z</time>
      </trkpt>
      <trkpt lat="45.92609" lon="6.34955">
        <ele>1983</ele>
        <time>2026-08-19T07:40:57.566Z</time>
      </trkpt>
      <trkpt lat="45.9261" lon="6.34955">
        <ele>1983</ele>
        <time>2026-08-19T07:40:58.566Z</time>
      </trkpt>
      <trkpt lat="45.9261" lon="6.34955">
        <ele>1983</ele>
        <time>2026-08-19T07:40:59.566Z</time>
      </trkpt>
      <trkpt lat="45.9261" lon="6.34955">
        <ele>1983</ele>
        <time>2026-08-19T07:41:00.566Z</time>
      </trkpt>
      <trkpt lat="45.92611" lon="6.34955">
        <ele>1983</ele>
        <time>2026-08-19T07:41:01.566Z</time>
      </trkpt>
      <trkpt lat="45.92611" lon="6.34955">
        <ele>1983</ele>
        <time>2026-08-19T07:41:02.566Z</time>
      </trkpt>
      <trkpt lat="45.92612" lon="6.34955">
        <ele>1983</ele>
        <time>2026-08-19T07:41:03.566Z</time>
      </trkpt>
      <trkpt lat="45.92612" lon="6.34955">
        <ele>1983</ele>
        <time>2026-08-19T07:41:04.566Z</time>
      </trkpt>
      <trkpt lat="45.92612" lon="6.34955">
        <ele>1983</ele>
        <time>2026-08-19T07:41:05.566Z</time>
      </trkpt>
      <trkpt lat="45.92612" lon="6.34955">
        <ele>1983</ele>
        <time>2026-08-19T07:41:06.566Z</time>
      </trkpt>
      <trkpt lat="45.92613" lon="6.34955">
        <ele>1983</ele>
        <time>2026-08-19T07:41:07.566Z</time>
      </trkpt>
      <trkpt lat="45.92613" lon="6.34955">
        <ele>1983</ele>
        <time>2026-08-19T07:41:08.566Z</time>
      </trkpt>
      <trkpt lat="45.92613" lon="6.34955">
        <ele>1983</ele>
        <time>2026-08-19T07:41:09.566Z</time>
      </trkpt>
      <trkpt lat="45.92613" lon="6.34955">
        <ele>1983</ele>
        <time>2026-08-19T07:41:10.566Z</time>
      </trkpt>
      <trkpt lat="45.92613" lon="6.34955">
        <ele>1983</ele>
        <time>2026-08-19T07:41:11.566Z</time>
      </trkpt>
      <trkpt lat="45.92613" lon="6.34955">
        <ele>1983</ele>
        <time>2026-08-19T07:41:12.566Z</time>
      </trkpt>
      <trkpt lat="45.92614" lon="6.34955">
        <ele>1983</ele>
        <time>2026-08-19T07:41:13.566Z</time>
      </trkpt>
      <trkpt lat="45.92614" lon="6.34955">
        <ele>1984</ele>
        <time>2026-08-19T07:41:14.566Z</time>
      </trkpt>
      <trkpt lat="45.92614" lon="6.34956">
        <ele>1984</ele>
        <time>2026-08-19T07:41:15.566Z</time>
      </trkpt>
      <trkpt lat="45.92614" lon="6.34956">
        <ele>1984</ele>
        <time>2026-08-19T07:41:16.566Z</time>
      </trkpt>
      <trkpt lat="45.92615" lon="6.34956">
        <ele>1984</ele>
        <time>2026-08-19T07:41:17.566Z</time>
      </trkpt>
      <trkpt lat="45.92615" lon="6.34957">
        <ele>1984</ele>
        <time>2026-08-19T07:41:18.566Z</time>
      </trkpt>
      <trkpt lat="45.92616" lon="6.34957">
        <ele>1984</ele>
        <time>2026-08-19T07:41:19.566Z</time>
      </trkpt>
      <trkpt lat="45.92616" lon="6.34958">
        <ele>1984</ele>
        <time>2026-08-19T07:41:20.567Z</time>
      </trkpt>
      <trkpt lat="45.92617" lon="6.34958">
        <ele>1984</ele>
        <time>2026-08-19T07:41:21.566Z</time>
      </trkpt>
      <trkpt lat="45.92617" lon="6.34958">
        <ele>1983</ele>
        <time>2026-08-19T07:41:22.566Z</time>
      </trkpt>
      <trkpt lat="45.92618" lon="6.34958">
        <ele>1983</ele>
        <time>2026-08-19T07:41:23.566Z</time>
      </trkpt>
      <trkpt lat="45.92618" lon="6.34959">
        <ele>1982</ele>
        <time>2026-08-19T07:41:24.566Z</time>
      </trkpt>
      <trkpt lat="45.92619" lon="6.34959">
        <ele>1982</ele>
        <time>2026-08-19T07:41:25.566Z</time>
      </trkpt>
      <trkpt lat="45.92619" lon="6.3496">
        <ele>1982</ele>
        <time>2026-08-19T07:41:26.566Z</time>
      </trkpt>
      <trkpt lat="45.92619" lon="6.3496">
        <ele>1982</ele>
        <time>2026-08-19T07:41:27.566Z</time>
      </trkpt>
      <trkpt lat="45.9262" lon="6.3496">
        <ele>1983</ele>
        <time>2026-08-19T07:41:28.566Z</time>
      </trkpt>
      <trkpt lat="45.9262" lon="6.34961">
        <ele>1983</ele>
        <time>2026-08-19T07:41:29.566Z</time>
      </trkpt>
      <trkpt lat="45.9262" lon="6.34961">
        <ele>1983</ele>
        <time>2026-08-19T07:41:30.567Z</time>
      </trkpt>
      <trkpt lat="45.92621" lon="6.34961">
        <ele>1983</ele>
        <time>2026-08-19T07:41:31.566Z</time>
      </trkpt>
      <trkpt lat="45.92621" lon="6.34961">
        <ele>1982</ele>
        <time>2026-08-19T07:41:32.566Z</time>
      </trkpt>
      <trkpt lat="45.92622" lon="6.34961">
        <ele>1982</ele>
        <time>2026-08-19T07:41:33.566Z</time>
      </trkpt>
      <trkpt lat="45.92623" lon="6.3496">
        <ele>1983</ele>
        <time>2026-08-19T07:41:34.566Z</time>
      </trkpt>
      <trkpt lat="45.92623" lon="6.3496">
        <ele>1983</ele>
        <time>2026-08-19T07:41:35.566Z</time>
      </trkpt>
      <trkpt lat="45.92624" lon="6.3496">
        <ele>1983</ele>
        <time>2026-08-19T07:41:36.566Z</time>
      </trkpt>
      <trkpt lat="45.92624" lon="6.3496">
        <ele>1983</ele>
        <time>2026-08-19T07:41:37.566Z</time>
      </trkpt>
      <trkpt lat="45.92625" lon="6.3496">
        <ele>1983</ele>
        <time>2026-08-19T07:41:38.566Z</time>
      </trkpt>
      <trkpt lat="45.92625" lon="6.34961">
        <ele>1983</ele>
        <time>2026-08-19T07:41:39.566Z</time>
      </trkpt>
      <trkpt lat="45.92626" lon="6.34961">
        <ele>1984</ele>
        <time>2026-08-19T07:41:40.566Z</time>
      </trkpt>
      <trkpt lat="45.92626" lon="6.34961">
        <ele>1984</ele>
        <time>2026-08-19T07:41:41.566Z</time>
      </trkpt>
      <trkpt lat="45.92627" lon="6.34961">
        <ele>1984</ele>
        <time>2026-08-19T07:41:42.566Z</time>
      </trkpt>
      <trkpt lat="45.92628" lon="6.34962">
        <ele>1984</ele>
        <time>2026-08-19T07:41:43.566Z</time>
      </trkpt>
      <trkpt lat="45.92629" lon="6.34962">
        <ele>1984</ele>
        <time>2026-08-19T07:41:44.566Z</time>
      </trkpt>
      <trkpt lat="45.9263" lon="6.34963">
        <ele>1984</ele>
        <time>2026-08-19T07:41:45.566Z</time>
      </trkpt>
      <trkpt lat="45.9263" lon="6.34963">
        <ele>1984</ele>
        <time>2026-08-19T07:41:46.566Z</time>
      </trkpt>
      <trkpt lat="45.92631" lon="6.34964">
        <ele>1984</ele>
        <time>2026-08-19T07:41:47.566Z</time>
      </trkpt>
      <trkpt lat="45.92632" lon="6.34964">
        <ele>1984</ele>
        <time>2026-08-19T07:41:48.566Z</time>
      </trkpt>
      <trkpt lat="45.92632" lon="6.34965">
        <ele>1984</ele>
        <time>2026-08-19T07:41:49.566Z</time>
      </trkpt>
      <trkpt lat="45.92633" lon="6.34965">
        <ele>1984</ele>
        <time>2026-08-19T07:41:50.566Z</time>
      </trkpt>
      <trkpt lat="45.92633" lon="6.34966">
        <ele>1984</ele>
        <time>2026-08-19T07:41:51.566Z</time>
      </trkpt>
      <trkpt lat="45.92634" lon="6.34966">
        <ele>1984</ele>
        <time>2026-08-19T07:41:52.566Z</time>
      </trkpt>
      <trkpt lat="45.92635" lon="6.34966">
        <ele>1984</ele>
        <time>2026-08-19T07:41:53.566Z</time>
      </trkpt>
      <trkpt lat="45.92636" lon="6.34967">
        <ele>1984</ele>
        <time>2026-08-19T07:41:54.566Z</time>
      </trkpt>
      <trkpt lat="45.92637" lon="6.34967">
        <ele>1983</ele>
        <time>2026-08-19T07:41:55.566Z</time>
      </trkpt>
      <trkpt lat="45.92637" lon="6.34968">
        <ele>1983</ele>
        <time>2026-08-19T07:41:56.566Z</time>
      </trkpt>
      <trkpt lat="45.92638" lon="6.34968">
        <ele>1983</ele>
        <time>2026-08-19T07:41:57.566Z</time>
      </trkpt>
      <trkpt lat="45.92638" lon="6.34969">
        <ele>1984</ele>
        <time>2026-08-19T07:41:58.566Z</time>
      </trkpt>
      <trkpt lat="45.92639" lon="6.34969">
        <ele>1984</ele>
        <time>2026-08-19T07:41:59.566Z</time>
      </trkpt>
      <trkpt lat="45.9264" lon="6.3497">
        <ele>1984</ele>
        <time>2026-08-19T07:42:00.566Z</time>
      </trkpt>
      <trkpt lat="45.9264" lon="6.3497">
        <ele>1983</ele>
        <time>2026-08-19T07:42:01.566Z</time>
      </trkpt>
      <trkpt lat="45.92641" lon="6.3497">
        <ele>1983</ele>
        <time>2026-08-19T07:42:02.566Z</time>
      </trkpt>
      <trkpt lat="45.92641" lon="6.3497">
        <ele>1983</ele>
        <time>2026-08-19T07:42:03.566Z</time>
      </trkpt>
      <trkpt lat="45.92641" lon="6.3497">
        <ele>1983</ele>
        <time>2026-08-19T07:42:04.566Z</time>
      </trkpt>
      <trkpt lat="45.92641" lon="6.3497">
        <ele>1983</ele>
        <time>2026-08-19T07:42:05.566Z</time>
      </trkpt>
      <trkpt lat="45.92641" lon="6.3497">
        <ele>1983</ele>
        <time>2026-08-19T07:42:06.566Z</time>
      </trkpt>
      <trkpt lat="45.92642" lon="6.3497">
        <ele>1984</ele>
        <time>2026-08-19T07:42:07.566Z</time>
      </trkpt>
      <trkpt lat="45.92641" lon="6.3497">
        <ele>1984</ele>
        <time>2026-08-19T07:42:08.566Z</time>
      </trkpt>
      <trkpt lat="45.92641" lon="6.3497">
        <ele>1984</ele>
        <time>2026-08-19T07:42:09.566Z</time>
      </trkpt>
      <trkpt lat="45.92642" lon="6.3497">
        <ele>1984</ele>
        <time>2026-08-19T07:42:10.566Z</time>
      </trkpt>
      <trkpt lat="45.92642" lon="6.3497">
        <ele>1984</ele>
        <time>2026-08-19T07:42:11.566Z</time>
      </trkpt>
      <trkpt lat="45.92642" lon="6.3497">
        <ele>1984</ele>
        <time>2026-08-19T07:42:12.566Z</time>
      </trkpt>
      <trkpt lat="45.92642" lon="6.3497">
        <ele>1985</ele>
        <time>2026-08-19T07:42:13.566Z</time>
      </trkpt>
      <trkpt lat="45.92642" lon="6.3497">
        <ele>1985</ele>
        <time>2026-08-19T07:42:14.566Z</time>
      </trkpt>
      <trkpt lat="45.92642" lon="6.3497">
        <ele>1985</ele>
        <time>2026-08-19T07:42:15.566Z</time>
      </trkpt>
      <trkpt lat="45.92642" lon="6.3497">
        <ele>1986</ele>
        <time>2026-08-19T07:42:16.566Z</time>
      </trkpt>
      <trkpt lat="45.92642" lon="6.3497">
        <ele>1986</ele>
        <time>2026-08-19T07:42:17.566Z</time>
      </trkpt>
      <trkpt lat="45.92642" lon="6.3497">
        <ele>1986</ele>
        <time>2026-08-19T07:42:18.566Z</time>
      </trkpt>
      <trkpt lat="45.92642" lon="6.3497">
        <ele>1986</ele>
        <time>2026-08-19T07:42:19.566Z</time>
      </trkpt>
      <trkpt lat="45.92642" lon="6.3497">
        <ele>1986</ele>
        <time>2026-08-19T07:42:20.566Z</time>
      </trkpt>
      <trkpt lat="45.92642" lon="6.3497">
        <ele>1986</ele>
        <time>2026-08-19T07:42:21.566Z</time>
      </trkpt>
      <trkpt lat="45.92642" lon="6.3497">
        <ele>1986</ele>
        <time>2026-08-19T07:42:22.566Z</time>
      </trkpt>
      <trkpt lat="45.92642" lon="6.3497">
        <ele>1986</ele>
        <time>2026-08-19T07:42:23.566Z</time>
      </trkpt>
      <trkpt lat="45.92642" lon="6.3497">
        <ele>1986</ele>
        <time>2026-08-19T07:42:24.566Z</time>
      </trkpt>
      <trkpt lat="45.92642" lon="6.3497">
        <ele>1986</ele>
        <time>2026-08-19T07:42:25.566Z</time>
      </trkpt>
      <trkpt lat="45.92642" lon="6.3497">
        <ele>1987</ele>
        <time>2026-08-19T07:42:26.566Z</time>
      </trkpt>
      <trkpt lat="45.92642" lon="6.3497">
        <ele>1987</ele>
        <time>2026-08-19T07:42:27.566Z</time>
      </trkpt>
      <trkpt lat="45.92642" lon="6.3497">
        <ele>1987</ele>
        <time>2026-08-19T07:42:28.566Z</time>
      </trkpt>
      <trkpt lat="45.92642" lon="6.3497">
        <ele>1987</ele>
        <time>2026-08-19T07:42:29.566Z</time>
      </trkpt>
      <trkpt lat="45.92642" lon="6.3497">
        <ele>1987</ele>
        <time>2026-08-19T07:42:30.566Z</time>
      </trkpt>
      <trkpt lat="45.92642" lon="6.3497">
        <ele>1987</ele>
        <time>2026-08-19T07:42:31.566Z</time>
      </trkpt>
      <trkpt lat="45.92642" lon="6.3497">
        <ele>1987</ele>
        <time>2026-08-19T07:42:32.566Z</time>
      </trkpt>
      <trkpt lat="45.92642" lon="6.3497">
        <ele>1987</ele>
        <time>2026-08-19T07:42:33.566Z</time>
      </trkpt>
      <trkpt lat="45.92642" lon="6.3497">
        <ele>1987</ele>
        <time>2026-08-19T07:42:34.566Z</time>
      </trkpt>
      <trkpt lat="45.92642" lon="6.3497">
        <ele>1987</ele>
        <time>2026-08-19T07:42:35.566Z</time>
      </trkpt>
      <trkpt lat="45.92642" lon="6.3497">
        <ele>1987</ele>
        <time>2026-08-19T07:42:36.566Z</time>
      </trkpt>
      <trkpt lat="45.92642" lon="6.3497">
        <ele>1987</ele>
        <time>2026-08-19T07:42:37.566Z</time>
      </trkpt>
      <trkpt lat="45.92642" lon="6.3497">
        <ele>1987</ele>
        <time>2026-08-19T07:42:38.566Z</time>
      </trkpt>
      <trkpt lat="45.92642" lon="6.3497">
        <ele>1987</ele>
        <time>2026-08-19T07:42:39.566Z</time>
      </trkpt>
      <trkpt lat="45.92642" lon="6.3497">
        <ele>1987</ele>
        <time>2026-08-19T07:42:40.566Z</time>
      </trkpt>
      <trkpt lat="45.92642" lon="6.3497">
        <ele>1987</ele>
        <time>2026-08-19T07:42:41.566Z</time>
      </trkpt>
      <trkpt lat="45.92642" lon="6.3497">
        <ele>1987</ele>
        <time>2026-08-19T07:42:42.566Z</time>
      </trkpt>
      <trkpt lat="45.92642" lon="6.3497">
        <ele>1987</ele>
        <time>2026-08-19T07:42:43.566Z</time>
      </trkpt>
      <trkpt lat="45.92643" lon="6.3497">
        <ele>1987</ele>
        <time>2026-08-19T07:42:44.567Z</time>
      </trkpt>
      <trkpt lat="45.92643" lon="6.3497">
        <ele>1987</ele>
        <time>2026-08-19T07:42:45.566Z</time>
      </trkpt>
      <trkpt lat="45.92644" lon="6.3497">
        <ele>1987</ele>
        <time>2026-08-19T07:42:46.566Z</time>
      </trkpt>
      <trkpt lat="45.92645" lon="6.34969">
        <ele>1987</ele>
        <time>2026-08-19T07:42:47.566Z</time>
      </trkpt>
      <trkpt lat="45.92645" lon="6.34969">
        <ele>1987</ele>
        <time>2026-08-19T07:42:48.566Z</time>
      </trkpt>
      <trkpt lat="45.92646" lon="6.34969">
        <ele>1987</ele>
        <time>2026-08-19T07:42:49.566Z</time>
      </trkpt>
      <trkpt lat="45.92646" lon="6.34969">
        <ele>1987</ele>
        <time>2026-08-19T07:42:50.566Z</time>
      </trkpt>
      <trkpt lat="45.92646" lon="6.34969">
        <ele>1988</ele>
        <time>2026-08-19T07:42:51.566Z</time>
      </trkpt>
      <trkpt lat="45.92647" lon="6.34968">
        <ele>1988</ele>
        <time>2026-08-19T07:42:52.566Z</time>
      </trkpt>
      <trkpt lat="45.92648" lon="6.34968">
        <ele>1988</ele>
        <time>2026-08-19T07:42:53.566Z</time>
      </trkpt>
      <trkpt lat="45.92649" lon="6.34968">
        <ele>1988</ele>
        <time>2026-08-19T07:42:54.566Z</time>
      </trkpt>
      <trkpt lat="45.9265" lon="6.34968">
        <ele>1988</ele>
        <time>2026-08-19T07:42:55.566Z</time>
      </trkpt>
      <trkpt lat="45.92651" lon="6.34968">
        <ele>1988</ele>
        <time>2026-08-19T07:42:56.566Z</time>
      </trkpt>
      <trkpt lat="45.92653" lon="6.34968">
        <ele>1988</ele>
        <time>2026-08-19T07:42:57.566Z</time>
      </trkpt>
      <trkpt lat="45.92654" lon="6.34968">
        <ele>1988</ele>
        <time>2026-08-19T07:42:58.566Z</time>
      </trkpt>
      <trkpt lat="45.92655" lon="6.34968">
        <ele>1989</ele>
        <time>2026-08-19T07:42:59.566Z</time>
      </trkpt>
      <trkpt lat="45.92656" lon="6.34968">
        <ele>1989</ele>
        <time>2026-08-19T07:43:00.566Z</time>
      </trkpt>
      <trkpt lat="45.92658" lon="6.34968">
        <ele>1989</ele>
        <time>2026-08-19T07:43:01.566Z</time>
      </trkpt>
      <trkpt lat="45.92658" lon="6.34969">
        <ele>1989</ele>
        <time>2026-08-19T07:43:02.566Z</time>
      </trkpt>
      <trkpt lat="45.92658" lon="6.34969">
        <ele>1990</ele>
        <time>2026-08-19T07:43:03.566Z</time>
      </trkpt>
      <trkpt lat="45.92659" lon="6.34969">
        <ele>1990</ele>
        <time>2026-08-19T07:43:04.566Z</time>
      </trkpt>
      <trkpt lat="45.92659" lon="6.34969">
        <ele>1990</ele>
        <time>2026-08-19T07:43:05.566Z</time>
      </trkpt>
      <trkpt lat="45.92659" lon="6.34969">
        <ele>1990</ele>
        <time>2026-08-19T07:43:06.566Z</time>
      </trkpt>
      <trkpt lat="45.9266" lon="6.34969">
        <ele>1991</ele>
        <time>2026-08-19T07:43:07.566Z</time>
      </trkpt>
      <trkpt lat="45.9266" lon="6.34969">
        <ele>1991</ele>
        <time>2026-08-19T07:43:08.566Z</time>
      </trkpt>
      <trkpt lat="45.9266" lon="6.34969">
        <ele>1992</ele>
        <time>2026-08-19T07:43:09.566Z</time>
      </trkpt>
      <trkpt lat="45.9266" lon="6.34969">
        <ele>1992</ele>
        <time>2026-08-19T07:43:10.566Z</time>
      </trkpt>
      <trkpt lat="45.9266" lon="6.34969">
        <ele>1992</ele>
        <time>2026-08-19T07:43:11.566Z</time>
      </trkpt>
      <trkpt lat="45.9266" lon="6.34969">
        <ele>1992</ele>
        <time>2026-08-19T07:43:12.566Z</time>
      </trkpt>
      <trkpt lat="45.9266" lon="6.34969">
        <ele>1992</ele>
        <time>2026-08-19T07:43:13.566Z</time>
      </trkpt>
      <trkpt lat="45.9266" lon="6.34969">
        <ele>1993</ele>
        <time>2026-08-19T07:43:14.566Z</time>
      </trkpt>
      <trkpt lat="45.9266" lon="6.34969">
        <ele>1993</ele>
        <time>2026-08-19T07:43:15.566Z</time>
      </trkpt>
      <trkpt lat="45.9266" lon="6.34969">
        <ele>1993</ele>
        <time>2026-08-19T07:43:16.566Z</time>
      </trkpt>
      <trkpt lat="45.9266" lon="6.34969">
        <ele>1993</ele>
        <time>2026-08-19T07:43:17.566Z</time>
      </trkpt>
      <trkpt lat="45.9266" lon="6.34969">
        <ele>1993</ele>
        <time>2026-08-19T07:43:18.566Z</time>
      </trkpt>
      <trkpt lat="45.9266" lon="6.34969">
        <ele>1993</ele>
        <time>2026-08-19T07:43:19.566Z</time>
      </trkpt>
      <trkpt lat="45.9266" lon="6.34969">
        <ele>1993</ele>
        <time>2026-08-19T07:43:20.566Z</time>
      </trkpt>
      <trkpt lat="45.9266" lon="6.34969">
        <ele>1993</ele>
        <time>2026-08-19T07:43:21.566Z</time>
      </trkpt>
      <trkpt lat="45.9266" lon="6.34969">
        <ele>1993</ele>
        <time>2026-08-19T07:43:22.566Z</time>
      </trkpt>
      <trkpt lat="45.9266" lon="6.34969">
        <ele>1993</ele>
        <time>2026-08-19T07:43:23.566Z</time>
      </trkpt>
      <trkpt lat="45.9266" lon="6.34969">
        <ele>1993</ele>
        <time>2026-08-19T07:43:24.566Z</time>
      </trkpt>
      <trkpt lat="45.9266" lon="6.34969">
        <ele>1993</ele>
        <time>2026-08-19T07:43:25.566Z</time>
      </trkpt>
      <trkpt lat="45.9266" lon="6.34969">
        <ele>1993</ele>
        <time>2026-08-19T07:43:26.566Z</time>
      </trkpt>
      <trkpt lat="45.9266" lon="6.34969">
        <ele>1993</ele>
        <time>2026-08-19T07:43:27.566Z</time>
      </trkpt>
      <trkpt lat="45.9266" lon="6.34969">
        <ele>1993</ele>
        <time>2026-08-19T07:43:28.566Z</time>
      </trkpt>
      <trkpt lat="45.92661" lon="6.34969">
        <ele>1993</ele>
        <time>2026-08-19T07:43:29.566Z</time>
      </trkpt>
      <trkpt lat="45.92661" lon="6.34969">
        <ele>1993</ele>
        <time>2026-08-19T07:43:30.566Z</time>
      </trkpt>
      <trkpt lat="45.92661" lon="6.34969">
        <ele>1993</ele>
        <time>2026-08-19T07:43:31.566Z</time>
      </trkpt>
      <trkpt lat="45.92661" lon="6.34969">
        <ele>1993</ele>
        <time>2026-08-19T07:43:32.566Z</time>
      </trkpt>
      <trkpt lat="45.92661" lon="6.34969">
        <ele>1993</ele>
        <time>2026-08-19T07:43:33.566Z</time>
      </trkpt>
      <trkpt lat="45.92661" lon="6.34969">
        <ele>1993</ele>
        <time>2026-08-19T07:43:34.566Z</time>
      </trkpt>
      <trkpt lat="45.92661" lon="6.34969">
        <ele>1993</ele>
        <time>2026-08-19T07:43:35.566Z</time>
      </trkpt>
      <trkpt lat="45.92661" lon="6.34969">
        <ele>1993</ele>
        <time>2026-08-19T07:43:36.566Z</time>
      </trkpt>
      <trkpt lat="45.92661" lon="6.34969">
        <ele>1993</ele>
        <time>2026-08-19T07:43:37.566Z</time>
      </trkpt>
      <trkpt lat="45.92661" lon="6.34969">
        <ele>1993</ele>
        <time>2026-08-19T07:43:38.566Z</time>
      </trkpt>
      <trkpt lat="45.92661" lon="6.34969">
        <ele>1993</ele>
        <time>2026-08-19T07:43:39.566Z</time>
      </trkpt>
      <trkpt lat="45.92661" lon="6.34969">
        <ele>1993</ele>
        <time>2026-08-19T07:43:40.566Z</time>
      </trkpt>
      <trkpt lat="45.92661" lon="6.34969">
        <ele>1993</ele>
        <time>2026-08-19T07:43:41.566Z</time>
      </trkpt>
      <trkpt lat="45.92662" lon="6.3497">
        <ele>1993</ele>
        <time>2026-08-19T07:43:42.566Z</time>
      </trkpt>
      <trkpt lat="45.92663" lon="6.3497">
        <ele>1993</ele>
        <time>2026-08-19T07:43:43.566Z</time>
      </trkpt>
      <trkpt lat="45.92664" lon="6.34971">
        <ele>1993</ele>
        <time>2026-08-19T07:43:44.566Z</time>
      </trkpt>
      <trkpt lat="45.92665" lon="6.34971">
        <ele>1993</ele>
        <time>2026-08-19T07:43:45.566Z</time>
      </trkpt>
      <trkpt lat="45.92665" lon="6.34971">
        <ele>1993</ele>
        <time>2026-08-19T07:43:46.566Z</time>
      </trkpt>
      <trkpt lat="45.92666" lon="6.34972">
        <ele>1993</ele>
        <time>2026-08-19T07:43:47.566Z</time>
      </trkpt>
      <trkpt lat="45.92667" lon="6.34973">
        <ele>1993</ele>
        <time>2026-08-19T07:43:48.566Z</time>
      </trkpt>
      <trkpt lat="45.92668" lon="6.34973">
        <ele>1993</ele>
        <time>2026-08-19T07:43:49.566Z</time>
      </trkpt>
      <trkpt lat="45.92668" lon="6.34974">
        <ele>1993</ele>
        <time>2026-08-19T07:43:50.566Z</time>
      </trkpt>
      <trkpt lat="45.92669" lon="6.34974">
        <ele>1993</ele>
        <time>2026-08-19T07:43:51.566Z</time>
      </trkpt>
      <trkpt lat="45.92669" lon="6.34974">
        <ele>1993</ele>
        <time>2026-08-19T07:43:52.566Z</time>
      </trkpt>
      <trkpt lat="45.92669" lon="6.34974">
        <ele>1993</ele>
        <time>2026-08-19T07:43:53.566Z</time>
      </trkpt>
      <trkpt lat="45.92669" lon="6.34974">
        <ele>1993</ele>
        <time>2026-08-19T07:43:54.566Z</time>
      </trkpt>
      <trkpt lat="45.92669" lon="6.34974">
        <ele>1993</ele>
        <time>2026-08-19T07:43:55.566Z</time>
      </trkpt>
      <trkpt lat="45.92669" lon="6.34974">
        <ele>1993</ele>
        <time>2026-08-19T07:43:56.566Z</time>
      </trkpt>
      <trkpt lat="45.92669" lon="6.34974">
        <ele>1993</ele>
        <time>2026-08-19T07:43:57.566Z</time>
      </trkpt>
      <trkpt lat="45.92669" lon="6.34974">
        <ele>1992</ele>
        <time>2026-08-19T07:43:58.566Z</time>
      </trkpt>
      <trkpt lat="45.92669" lon="6.34974">
        <ele>1992</ele>
        <time>2026-08-19T07:43:59.566Z</time>
      </trkpt>
      <trkpt lat="45.92669" lon="6.34974">
        <ele>1992</ele>
        <time>2026-08-19T07:44:00.566Z</time>
      </trkpt>
      <trkpt lat="45.92669" lon="6.34974">
        <ele>1992</ele>
        <time>2026-08-19T07:44:01.566Z</time>
      </trkpt>
      <trkpt lat="45.92669" lon="6.34974">
        <ele>1992</ele>
        <time>2026-08-19T07:44:02.566Z</time>
      </trkpt>
      <trkpt lat="45.92669" lon="6.34974">
        <ele>1991</ele>
        <time>2026-08-19T07:44:03.566Z</time>
      </trkpt>
      <trkpt lat="45.92669" lon="6.34974">
        <ele>1991</ele>
        <time>2026-08-19T07:44:04.566Z</time>
      </trkpt>
      <trkpt lat="45.92669" lon="6.34974">
        <ele>1991</ele>
        <time>2026-08-19T07:44:05.566Z</time>
      </trkpt>
      <trkpt lat="45.92669" lon="6.34974">
        <ele>1991</ele>
        <time>2026-08-19T07:44:06.566Z</time>
      </trkpt>
      <trkpt lat="45.92669" lon="6.34974">
        <ele>1991</ele>
        <time>2026-08-19T07:44:07.566Z</time>
      </trkpt>
      <trkpt lat="45.92669" lon="6.34974">
        <ele>1991</ele>
        <time>2026-08-19T07:44:08.566Z</time>
      </trkpt>
      <trkpt lat="45.92669" lon="6.34974">
        <ele>1991</ele>
        <time>2026-08-19T07:44:09.566Z</time>
      </trkpt>
      <trkpt lat="45.92669" lon="6.34974">
        <ele>1991</ele>
        <time>2026-08-19T07:44:10.566Z</time>
      </trkpt>
      <trkpt lat="45.92669" lon="6.34974">
        <ele>1991</ele>
        <time>2026-08-19T07:44:11.566Z</time>
      </trkpt>
      <trkpt lat="45.92669" lon="6.34974">
        <ele>1991</ele>
        <time>2026-08-19T07:44:12.566Z</time>
      </trkpt>
      <trkpt lat="45.92669" lon="6.34974">
        <ele>1991</ele>
        <time>2026-08-19T07:44:13.566Z</time>
      </trkpt>
      <trkpt lat="45.92669" lon="6.34974">
        <ele>1991</ele>
        <time>2026-08-19T07:44:14.566Z</time>
      </trkpt>
      <trkpt lat="45.92669" lon="6.34974">
        <ele>1991</ele>
        <time>2026-08-19T07:44:15.566Z</time>
      </trkpt>
      <trkpt lat="45.92669" lon="6.34974">
        <ele>1991</ele>
        <time>2026-08-19T07:44:16.566Z</time>
      </trkpt>
      <trkpt lat="45.92669" lon="6.34974">
        <ele>1991</ele>
        <time>2026-08-19T07:44:17.566Z</time>
      </trkpt>
      <trkpt lat="45.92669" lon="6.34975">
        <ele>1991</ele>
        <time>2026-08-19T07:44:18.566Z</time>
      </trkpt>
      <trkpt lat="45.92669" lon="6.34975">
        <ele>1991</ele>
        <time>2026-08-19T07:44:19.566Z</time>
      </trkpt>
      <trkpt lat="45.92669" lon="6.34975">
        <ele>1991</ele>
        <time>2026-08-19T07:44:20.566Z</time>
      </trkpt>
      <trkpt lat="45.92669" lon="6.34975">
        <ele>1992</ele>
        <time>2026-08-19T07:44:21.566Z</time>
      </trkpt>
      <trkpt lat="45.92669" lon="6.34975">
        <ele>1992</ele>
        <time>2026-08-19T07:44:22.566Z</time>
      </trkpt>
      <trkpt lat="45.92669" lon="6.34975">
        <ele>1992</ele>
        <time>2026-08-19T07:44:23.566Z</time>
      </trkpt>
      <trkpt lat="45.92669" lon="6.34975">
        <ele>1992</ele>
        <time>2026-08-19T07:44:24.566Z</time>
      </trkpt>
      <trkpt lat="45.92669" lon="6.34975">
        <ele>1992</ele>
        <time>2026-08-19T07:44:25.566Z</time>
      </trkpt>
      <trkpt lat="45.92669" lon="6.34975">
        <ele>1992</ele>
        <time>2026-08-19T07:44:26.566Z</time>
      </trkpt>
      <trkpt lat="45.92669" lon="6.34975">
        <ele>1992</ele>
        <time>2026-08-19T07:44:27.566Z</time>
      </trkpt>
      <trkpt lat="45.92669" lon="6.34975">
        <ele>1992</ele>
        <time>2026-08-19T07:44:28.566Z</time>
      </trkpt>
      <trkpt lat="45.92669" lon="6.34975">
        <ele>1992</ele>
        <time>2026-08-19T07:44:29.566Z</time>
      </trkpt>
      <trkpt lat="45.92669" lon="6.34975">
        <ele>1992</ele>
        <time>2026-08-19T07:44:30.566Z</time>
      </trkpt>
      <trkpt lat="45.92669" lon="6.34975">
        <ele>1992</ele>
        <time>2026-08-19T07:44:31.566Z</time>
      </trkpt>
      <trkpt lat="45.92669" lon="6.34975">
        <ele>1992</ele>
        <time>2026-08-19T07:44:32.566Z</time>
      </trkpt>
      <trkpt lat="45.92669" lon="6.34975">
        <ele>1992</ele>
        <time>2026-08-19T07:44:33.566Z</time>
      </trkpt>
      <trkpt lat="45.92669" lon="6.34976">
        <ele>1992</ele>
        <time>2026-08-19T07:44:34.566Z</time>
      </trkpt>
      <trkpt lat="45.92669" lon="6.34976">
        <ele>1992</ele>
        <time>2026-08-19T07:44:35.566Z</time>
      </trkpt>
      <trkpt lat="45.92669" lon="6.34976">
        <ele>1992</ele>
        <time>2026-08-19T07:44:36.566Z</time>
      </trkpt>
      <trkpt lat="45.92669" lon="6.34976">
        <ele>1992</ele>
        <time>2026-08-19T07:44:37.566Z</time>
      </trkpt>
      <trkpt lat="45.92668" lon="6.34976">
        <ele>1992</ele>
        <time>2026-08-19T07:44:38.566Z</time>
      </trkpt>
      <trkpt lat="45.92668" lon="6.34976">
        <ele>1992</ele>
        <time>2026-08-19T07:44:39.566Z</time>
      </trkpt>
      <trkpt lat="45.92668" lon="6.34976">
        <ele>1992</ele>
        <time>2026-08-19T07:44:40.566Z</time>
      </trkpt>
      <trkpt lat="45.92668" lon="6.34977">
        <ele>1992</ele>
        <time>2026-08-19T07:44:41.566Z</time>
      </trkpt>
      <trkpt lat="45.92668" lon="6.34977">
        <ele>1992</ele>
        <time>2026-08-19T07:44:42.566Z</time>
      </trkpt>
      <trkpt lat="45.92668" lon="6.34977">
        <ele>1992</ele>
        <time>2026-08-19T07:44:43.566Z</time>
      </trkpt>
      <trkpt lat="45.92668" lon="6.34977">
        <ele>1992</ele>
        <time>2026-08-19T07:44:44.566Z</time>
      </trkpt>
      <trkpt lat="45.92668" lon="6.34977">
        <ele>1992</ele>
        <time>2026-08-19T07:44:45.566Z</time>
      </trkpt>
      <trkpt lat="45.92668" lon="6.34977">
        <ele>1992</ele>
        <time>2026-08-19T07:44:46.566Z</time>
      </trkpt>
      <trkpt lat="45.92668" lon="6.34977">
        <ele>1992</ele>
        <time>2026-08-19T07:44:47.566Z</time>
      </trkpt>
      <trkpt lat="45.92668" lon="6.34977">
        <ele>1992</ele>
        <time>2026-08-19T07:44:48.566Z</time>
      </trkpt>
      <trkpt lat="45.92668" lon="6.34977">
        <ele>1992</ele>
        <time>2026-08-19T07:44:49.566Z</time>
      </trkpt>
      <trkpt lat="45.92668" lon="6.34977">
        <ele>1992</ele>
        <time>2026-08-19T07:44:50.566Z</time>
      </trkpt>
      <trkpt lat="45.92668" lon="6.34977">
        <ele>1992</ele>
        <time>2026-08-19T07:44:51.566Z</time>
      </trkpt>
      <trkpt lat="45.92668" lon="6.34977">
        <ele>1992</ele>
        <time>2026-08-19T07:44:52.566Z</time>
      </trkpt>
      <trkpt lat="45.92668" lon="6.34977">
        <ele>1992</ele>
        <time>2026-08-19T07:44:53.566Z</time>
      </trkpt>
      <trkpt lat="45.92668" lon="6.34977">
        <ele>1992</ele>
        <time>2026-08-19T07:44:54.566Z</time>
      </trkpt>
      <trkpt lat="45.92668" lon="6.34977">
        <ele>1992</ele>
        <time>2026-08-19T07:44:55.566Z</time>
      </trkpt>
      <trkpt lat="45.92668" lon="6.34977">
        <ele>1992</ele>
        <time>2026-08-19T07:44:56.566Z</time>
      </trkpt>
      <trkpt lat="45.92668" lon="6.34977">
        <ele>1992</ele>
        <time>2026-08-19T07:44:57.566Z</time>
      </trkpt>
      <trkpt lat="45.92668" lon="6.34977">
        <ele>1992</ele>
        <time>2026-08-19T07:44:58.566Z</time>
      </trkpt>
      <trkpt lat="45.92668" lon="6.34977">
        <ele>1992</ele>
        <time>2026-08-19T07:44:59.566Z</time>
      </trkpt>
      <trkpt lat="45.92668" lon="6.34977">
        <ele>1992</ele>
        <time>2026-08-19T07:45:00.566Z</time>
      </trkpt>
      <trkpt lat="45.92668" lon="6.34978">
        <ele>1992</ele>
        <time>2026-08-19T07:45:01.566Z</time>
      </trkpt>
      <trkpt lat="45.92668" lon="6.34978">
        <ele>1992</ele>
        <time>2026-08-19T07:45:02.566Z</time>
      </trkpt>
      <trkpt lat="45.92668" lon="6.34978">
        <ele>1992</ele>
        <time>2026-08-19T07:45:03.566Z</time>
      </trkpt>
      <trkpt lat="45.92668" lon="6.34978">
        <ele>1992</ele>
        <time>2026-08-19T07:45:04.566Z</time>
      </trkpt>
      <trkpt lat="45.92668" lon="6.34978">
        <ele>1992</ele>
        <time>2026-08-19T07:45:05.566Z</time>
      </trkpt>
      <trkpt lat="45.92668" lon="6.34978">
        <ele>1992</ele>
        <time>2026-08-19T07:45:06.566Z</time>
      </trkpt>
      <trkpt lat="45.92668" lon="6.34978">
        <ele>1992</ele>
        <time>2026-08-19T07:45:07.566Z</time>
      </trkpt>
      <trkpt lat="45.92669" lon="6.34978">
        <ele>1992</ele>
        <time>2026-08-19T07:45:08.566Z</time>
      </trkpt>
      <trkpt lat="45.92669" lon="6.34978">
        <ele>1992</ele>
        <time>2026-08-19T07:45:09.566Z</time>
      </trkpt>
      <trkpt lat="45.92669" lon="6.34978">
        <ele>1992</ele>
        <time>2026-08-19T07:45:10.566Z</time>
      </trkpt>
      <trkpt lat="45.92669" lon="6.34978">
        <ele>1992</ele>
        <time>2026-08-19T07:45:11.566Z</time>
      </trkpt>
      <trkpt lat="45.92669" lon="6.34978">
        <ele>1992</ele>
        <time>2026-08-19T07:45:12.566Z</time>
      </trkpt>
      <trkpt lat="45.92669" lon="6.34978">
        <ele>1992</ele>
        <time>2026-08-19T07:45:13.566Z</time>
      </trkpt>
      <trkpt lat="45.92669" lon="6.34978">
        <ele>1992</ele>
        <time>2026-08-19T07:45:14.566Z</time>
      </trkpt>
      <trkpt lat="45.92669" lon="6.34978">
        <ele>1992</ele>
        <time>2026-08-19T07:45:15.566Z</time>
      </trkpt>
      <trkpt lat="45.92669" lon="6.34978">
        <ele>1992</ele>
        <time>2026-08-19T07:45:16.566Z</time>
      </trkpt>
      <trkpt lat="45.92669" lon="6.34978">
        <ele>1992</ele>
        <time>2026-08-19T07:45:17.566Z</time>
      </trkpt>
      <trkpt lat="45.92669" lon="6.34978">
        <ele>1992</ele>
        <time>2026-08-19T07:45:18.566Z</time>
      </trkpt>
      <trkpt lat="45.92669" lon="6.34978">
        <ele>1992</ele>
        <time>2026-08-19T07:45:19.567Z</time>
      </trkpt>
      <trkpt lat="45.92669" lon="6.34978">
        <ele>1992</ele>
        <time>2026-08-19T07:45:20.566Z</time>
      </trkpt>
      <trkpt lat="45.92669" lon="6.34978">
        <ele>1992</ele>
        <time>2026-08-19T07:45:21.566Z</time>
      </trkpt>
      <trkpt lat="45.92669" lon="6.34978">
        <ele>1992</ele>
        <time>2026-08-19T07:45:22.566Z</time>
      </trkpt>
      <trkpt lat="45.92669" lon="6.34978">
        <ele>1992</ele>
        <time>2026-08-19T07:45:23.566Z</time>
      </trkpt>
      <trkpt lat="45.92669" lon="6.34978">
        <ele>1992</ele>
        <time>2026-08-19T07:45:24.566Z</time>
      </trkpt>
      <trkpt lat="45.92669" lon="6.34978">
        <ele>1992</ele>
        <time>2026-08-19T07:45:25.566Z</time>
      </trkpt>
      <trkpt lat="45.92669" lon="6.34978">
        <ele>1992</ele>
        <time>2026-08-19T07:45:26.566Z</time>
      </trkpt>
      <trkpt lat="45.92669" lon="6.34978">
        <ele>1992</ele>
        <time>2026-08-19T07:45:27.566Z</time>
      </trkpt>
      <trkpt lat="45.92669" lon="6.34978">
        <ele>1992</ele>
        <time>2026-08-19T07:45:28.566Z</time>
      </trkpt>
      <trkpt lat="45.92669" lon="6.34978">
        <ele>1992</ele>
        <time>2026-08-19T07:45:29.566Z</time>
      </trkpt>
      <trkpt lat="45.92669" lon="6.34978">
        <ele>1992</ele>
        <time>2026-08-19T07:45:30.566Z</time>
      </trkpt>
      <trkpt lat="45.92669" lon="6.34978">
        <ele>1992</ele>
        <time>2026-08-19T07:45:31.566Z</time>
      </trkpt>
      <trkpt lat="45.92669" lon="6.34978">
        <ele>1992</ele>
        <time>2026-08-19T07:45:32.566Z</time>
      </trkpt>
      <trkpt lat="45.92669" lon="6.34978">
        <ele>1992</ele>
        <time>2026-08-19T07:45:33.566Z</time>
      </trkpt>
      <trkpt lat="45.92669" lon="6.34978">
        <ele>1992</ele>
        <time>2026-08-19T07:45:34.566Z</time>
      </trkpt>
      <trkpt lat="45.9267" lon="6.34977">
        <ele>1992</ele>
        <time>2026-08-19T07:45:35.566Z</time>
      </trkpt>
      <trkpt lat="45.92671" lon="6.34976">
        <ele>1992</ele>
        <time>2026-08-19T07:45:36.566Z</time>
      </trkpt>
      <trkpt lat="45.92672" lon="6.34976">
        <ele>1992</ele>
        <time>2026-08-19T07:45:37.566Z</time>
      </trkpt>
      <trkpt lat="45.92673" lon="6.34975">
        <ele>1992</ele>
        <time>2026-08-19T07:45:38.566Z</time>
      </trkpt>
      <trkpt lat="45.92673" lon="6.34975">
        <ele>1992</ele>
        <time>2026-08-19T07:45:39.566Z</time>
      </trkpt>
      <trkpt lat="45.92674" lon="6.34975">
        <ele>1992</ele>
        <time>2026-08-19T07:45:40.566Z</time>
      </trkpt>
      <trkpt lat="45.92674" lon="6.34974">
        <ele>1992</ele>
        <time>2026-08-19T07:45:41.566Z</time>
      </trkpt>
      <trkpt lat="45.92674" lon="6.34974">
        <ele>1992</ele>
        <time>2026-08-19T07:45:42.566Z</time>
      </trkpt>
      <trkpt lat="45.92675" lon="6.34974">
        <ele>1992</ele>
        <time>2026-08-19T07:45:43.566Z</time>
      </trkpt>
      <trkpt lat="45.92675" lon="6.34974">
        <ele>1992</ele>
        <time>2026-08-19T07:45:44.566Z</time>
      </trkpt>
      <trkpt lat="45.92674" lon="6.34974">
        <ele>1992</ele>
        <time>2026-08-19T07:45:45.566Z</time>
      </trkpt>
      <trkpt lat="45.92674" lon="6.34974">
        <ele>1992</ele>
        <time>2026-08-19T07:45:46.566Z</time>
      </trkpt>
      <trkpt lat="45.92674" lon="6.34974">
        <ele>1991</ele>
        <time>2026-08-19T07:45:47.566Z</time>
      </trkpt>
      <trkpt lat="45.92674" lon="6.34975">
        <ele>1991</ele>
        <time>2026-08-19T07:45:48.566Z</time>
      </trkpt>
      <trkpt lat="45.92674" lon="6.34975">
        <ele>1991</ele>
        <time>2026-08-19T07:45:49.566Z</time>
      </trkpt>
      <trkpt lat="45.92674" lon="6.34975">
        <ele>1990</ele>
        <time>2026-08-19T07:45:50.566Z</time>
      </trkpt>
      <trkpt lat="45.92674" lon="6.34975">
        <ele>1990</ele>
        <time>2026-08-19T07:45:51.566Z</time>
      </trkpt>
      <trkpt lat="45.92674" lon="6.34975">
        <ele>1990</ele>
        <time>2026-08-19T07:45:52.566Z</time>
      </trkpt>
      <trkpt lat="45.92674" lon="6.34975">
        <ele>1989</ele>
        <time>2026-08-19T07:45:53.566Z</time>
      </trkpt>
      <trkpt lat="45.92674" lon="6.34975">
        <ele>1989</ele>
        <time>2026-08-19T07:45:54.566Z</time>
      </trkpt>
      <trkpt lat="45.92674" lon="6.34975">
        <ele>1989</ele>
        <time>2026-08-19T07:45:55.566Z</time>
      </trkpt>
      <trkpt lat="45.92674" lon="6.34975">
        <ele>1989</ele>
        <time>2026-08-19T07:45:56.566Z</time>
      </trkpt>
      <trkpt lat="45.92674" lon="6.34975">
        <ele>1989</ele>
        <time>2026-08-19T07:45:57.566Z</time>
      </trkpt>
      <trkpt lat="45.92674" lon="6.34975">
        <ele>1989</ele>
        <time>2026-08-19T07:45:58.566Z</time>
      </trkpt>
      <trkpt lat="45.92674" lon="6.34975">
        <ele>1989</ele>
        <time>2026-08-19T07:45:59.566Z</time>
      </trkpt>
      <trkpt lat="45.92674" lon="6.34975">
        <ele>1989</ele>
        <time>2026-08-19T07:46:00.566Z</time>
      </trkpt>
      <trkpt lat="45.92674" lon="6.34975">
        <ele>1989</ele>
        <time>2026-08-19T07:46:01.566Z</time>
      </trkpt>
      <trkpt lat="45.92674" lon="6.34975">
        <ele>1989</ele>
        <time>2026-08-19T07:46:02.566Z</time>
      </trkpt>
      <trkpt lat="45.92674" lon="6.34975">
        <ele>1989</ele>
        <time>2026-08-19T07:46:03.566Z</time>
      </trkpt>
      <trkpt lat="45.92674" lon="6.34975">
        <ele>1989</ele>
        <time>2026-08-19T07:46:04.566Z</time>
      </trkpt>
      <trkpt lat="45.92674" lon="6.34975">
        <ele>1989</ele>
        <time>2026-08-19T07:46:05.566Z</time>
      </trkpt>
      <trkpt lat="45.92674" lon="6.34975">
        <ele>1989</ele>
        <time>2026-08-19T07:46:06.566Z</time>
      </trkpt>
      <trkpt lat="45.92674" lon="6.34975">
        <ele>1989</ele>
        <time>2026-08-19T07:46:07.566Z</time>
      </trkpt>
      <trkpt lat="45.92674" lon="6.34975">
        <ele>1989</ele>
        <time>2026-08-19T07:46:08.566Z</time>
      </trkpt>
      <trkpt lat="45.92674" lon="6.34975">
        <ele>1989</ele>
        <time>2026-08-19T07:46:09.566Z</time>
      </trkpt>
      <trkpt lat="45.92674" lon="6.34975">
        <ele>1989</ele>
        <time>2026-08-19T07:46:10.566Z</time>
      </trkpt>
      <trkpt lat="45.92674" lon="6.34976">
        <ele>1989</ele>
        <time>2026-08-19T07:46:11.566Z</time>
      </trkpt>
      <trkpt lat="45.92674" lon="6.34976">
        <ele>1989</ele>
        <time>2026-08-19T07:46:12.566Z</time>
      </trkpt>
      <trkpt lat="45.92674" lon="6.34976">
        <ele>1989</ele>
        <time>2026-08-19T07:46:13.566Z</time>
      </trkpt>
      <trkpt lat="45.92674" lon="6.34976">
        <ele>1989</ele>
        <time>2026-08-19T07:46:14.566Z</time>
      </trkpt>
      <trkpt lat="45.92674" lon="6.34976">
        <ele>1989</ele>
        <time>2026-08-19T07:46:15.566Z</time>
      </trkpt>
      <trkpt lat="45.92674" lon="6.34976">
        <ele>1989</ele>
        <time>2026-08-19T07:46:16.566Z</time>
      </trkpt>
      <trkpt lat="45.92674" lon="6.34977">
        <ele>1989</ele>
        <time>2026-08-19T07:46:17.566Z</time>
      </trkpt>
      <trkpt lat="45.92674" lon="6.34977">
        <ele>1989</ele>
        <time>2026-08-19T07:46:18.566Z</time>
      </trkpt>
      <trkpt lat="45.92674" lon="6.34977">
        <ele>1989</ele>
        <time>2026-08-19T07:46:19.566Z</time>
      </trkpt>
      <trkpt lat="45.92674" lon="6.34977">
        <ele>1989</ele>
        <time>2026-08-19T07:46:20.566Z</time>
      </trkpt>
      <trkpt lat="45.92674" lon="6.34977">
        <ele>1989</ele>
        <time>2026-08-19T07:46:21.566Z</time>
      </trkpt>
      <trkpt lat="45.92674" lon="6.34977">
        <ele>1989</ele>
        <time>2026-08-19T07:46:22.566Z</time>
      </trkpt>
      <trkpt lat="45.92674" lon="6.34977">
        <ele>1989</ele>
        <time>2026-08-19T07:46:23.566Z</time>
      </trkpt>
      <trkpt lat="45.92674" lon="6.34977">
        <ele>1989</ele>
        <time>2026-08-19T07:46:24.566Z</time>
      </trkpt>
      <trkpt lat="45.92674" lon="6.34977">
        <ele>1988</ele>
        <time>2026-08-19T07:46:25.566Z</time>
      </trkpt>
      <trkpt lat="45.92674" lon="6.34977">
        <ele>1988</ele>
        <time>2026-08-19T07:46:26.566Z</time>
      </trkpt>
      <trkpt lat="45.92674" lon="6.34977">
        <ele>1988</ele>
        <time>2026-08-19T07:46:27.566Z</time>
      </trkpt>
      <trkpt lat="45.92674" lon="6.34977">
        <ele>1988</ele>
        <time>2026-08-19T07:46:28.566Z</time>
      </trkpt>
      <trkpt lat="45.92674" lon="6.34977">
        <ele>1988</ele>
        <time>2026-08-19T07:46:29.566Z</time>
      </trkpt>
      <trkpt lat="45.92674" lon="6.34977">
        <ele>1988</ele>
        <time>2026-08-19T07:46:30.566Z</time>
      </trkpt>
      <trkpt lat="45.92674" lon="6.34978">
        <ele>1988</ele>
        <time>2026-08-19T07:46:31.566Z</time>
      </trkpt>
      <trkpt lat="45.92674" lon="6.34978">
        <ele>1988</ele>
        <time>2026-08-19T07:46:32.566Z</time>
      </trkpt>
      <trkpt lat="45.92674" lon="6.34978">
        <ele>1988</ele>
        <time>2026-08-19T07:46:33.566Z</time>
      </trkpt>
      <trkpt lat="45.92674" lon="6.34978">
        <ele>1988</ele>
        <time>2026-08-19T07:46:34.566Z</time>
      </trkpt>
      <trkpt lat="45.92674" lon="6.34978">
        <ele>1988</ele>
        <time>2026-08-19T07:46:35.566Z</time>
      </trkpt>
      <trkpt lat="45.92674" lon="6.34978">
        <ele>1988</ele>
        <time>2026-08-19T07:46:36.566Z</time>
      </trkpt>
      <trkpt lat="45.92674" lon="6.34978">
        <ele>1988</ele>
        <time>2026-08-19T07:46:37.566Z</time>
      </trkpt>
      <trkpt lat="45.92674" lon="6.34978">
        <ele>1988</ele>
        <time>2026-08-19T07:46:38.566Z</time>
      </trkpt>
      <trkpt lat="45.92674" lon="6.34978">
        <ele>1988</ele>
        <time>2026-08-19T07:46:39.566Z</time>
      </trkpt>
      <trkpt lat="45.92674" lon="6.34978">
        <ele>1988</ele>
        <time>2026-08-19T07:46:40.566Z</time>
      </trkpt>
      <trkpt lat="45.92674" lon="6.34979">
        <ele>1988</ele>
        <time>2026-08-19T07:46:41.566Z</time>
      </trkpt>
      <trkpt lat="45.92674" lon="6.34979">
        <ele>1988</ele>
        <time>2026-08-19T07:46:42.566Z</time>
      </trkpt>
      <trkpt lat="45.92674" lon="6.34979">
        <ele>1988</ele>
        <time>2026-08-19T07:46:43.567Z</time>
      </trkpt>
      <trkpt lat="45.92674" lon="6.34979">
        <ele>1988</ele>
        <time>2026-08-19T07:46:44.566Z</time>
      </trkpt>
      <trkpt lat="45.92674" lon="6.34979">
        <ele>1988</ele>
        <time>2026-08-19T07:46:45.566Z</time>
      </trkpt>
      <trkpt lat="45.92674" lon="6.34979">
        <ele>1988</ele>
        <time>2026-08-19T07:46:46.566Z</time>
      </trkpt>
      <trkpt lat="45.92674" lon="6.34979">
        <ele>1988</ele>
        <time>2026-08-19T07:46:47.566Z</time>
      </trkpt>
      <trkpt lat="45.92674" lon="6.34979">
        <ele>1988</ele>
        <time>2026-08-19T07:46:48.566Z</time>
      </trkpt>
      <trkpt lat="45.92674" lon="6.34979">
        <ele>1988</ele>
        <time>2026-08-19T07:46:49.566Z</time>
      </trkpt>
      <trkpt lat="45.92674" lon="6.34979">
        <ele>1988</ele>
        <time>2026-08-19T07:46:50.566Z</time>
      </trkpt>
      <trkpt lat="45.92674" lon="6.34979">
        <ele>1988</ele>
        <time>2026-08-19T07:46:51.566Z</time>
      </trkpt>
      <trkpt lat="45.92674" lon="6.34979">
        <ele>1988</ele>
        <time>2026-08-19T07:46:52.566Z</time>
      </trkpt>
      <trkpt lat="45.92674" lon="6.34979">
        <ele>1988</ele>
        <time>2026-08-19T07:46:53.566Z</time>
      </trkpt>
      <trkpt lat="45.92674" lon="6.34979">
        <ele>1988</ele>
        <time>2026-08-19T07:46:54.566Z</time>
      </trkpt>
      <trkpt lat="45.92674" lon="6.34979">
        <ele>1988</ele>
        <time>2026-08-19T07:46:55.566Z</time>
      </trkpt>
      <trkpt lat="45.92674" lon="6.34979">
        <ele>1988</ele>
        <time>2026-08-19T07:46:56.566Z</time>
      </trkpt>
      <trkpt lat="45.92674" lon="6.34979">
        <ele>1988</ele>
        <time>2026-08-19T07:46:57.566Z</time>
      </trkpt>
      <trkpt lat="45.92673" lon="6.34979">
        <ele>1988</ele>
        <time>2026-08-19T07:46:58.566Z</time>
      </trkpt>
      <trkpt lat="45.92673" lon="6.34979">
        <ele>1988</ele>
        <time>2026-08-19T07:46:59.566Z</time>
      </trkpt>
      <trkpt lat="45.92673" lon="6.34979">
        <ele>1988</ele>
        <time>2026-08-19T07:47:00.566Z</time>
      </trkpt>
      <trkpt lat="45.92673" lon="6.34979">
        <ele>1988</ele>
        <time>2026-08-19T07:47:01.566Z</time>
      </trkpt>
      <trkpt lat="45.92673" lon="6.34979">
        <ele>1988</ele>
        <time>2026-08-19T07:47:02.566Z</time>
      </trkpt>
      <trkpt lat="45.92673" lon="6.34978">
        <ele>1988</ele>
        <time>2026-08-19T07:47:03.566Z</time>
      </trkpt>
      <trkpt lat="45.92672" lon="6.34978">
        <ele>1988</ele>
        <time>2026-08-19T07:47:04.566Z</time>
      </trkpt>
      <trkpt lat="45.92672" lon="6.34978">
        <ele>1988</ele>
        <time>2026-08-19T07:47:05.566Z</time>
      </trkpt>
      <trkpt lat="45.92672" lon="6.34978">
        <ele>1988</ele>
        <time>2026-08-19T07:47:06.566Z</time>
      </trkpt>
      <trkpt lat="45.92672" lon="6.34978">
        <ele>1988</ele>
        <time>2026-08-19T07:47:07.566Z</time>
      </trkpt>
      <trkpt lat="45.92672" lon="6.34977">
        <ele>1988</ele>
        <time>2026-08-19T07:47:08.566Z</time>
      </trkpt>
      <trkpt lat="45.92672" lon="6.34977">
        <ele>1988</ele>
        <time>2026-08-19T07:47:09.566Z</time>
      </trkpt>
      <trkpt lat="45.92672" lon="6.34977">
        <ele>1988</ele>
        <time>2026-08-19T07:47:10.566Z</time>
      </trkpt>
      <trkpt lat="45.92672" lon="6.34977">
        <ele>1988</ele>
        <time>2026-08-19T07:47:11.566Z</time>
      </trkpt>
      <trkpt lat="45.92672" lon="6.34977">
        <ele>1988</ele>
        <time>2026-08-19T07:47:12.566Z</time>
      </trkpt>
      <trkpt lat="45.92672" lon="6.34977">
        <ele>1988</ele>
        <time>2026-08-19T07:47:13.566Z</time>
      </trkpt>
      <trkpt lat="45.92672" lon="6.34977">
        <ele>1988</ele>
        <time>2026-08-19T07:47:14.566Z</time>
      </trkpt>
      <trkpt lat="45.92672" lon="6.34977">
        <ele>1988</ele>
        <time>2026-08-19T07:47:15.566Z</time>
      </trkpt>
      <trkpt lat="45.92672" lon="6.34977">
        <ele>1988</ele>
        <time>2026-08-19T07:47:16.566Z</time>
      </trkpt>
      <trkpt lat="45.92671" lon="6.34977">
        <ele>1988</ele>
        <time>2026-08-19T07:47:17.566Z</time>
      </trkpt>
      <trkpt lat="45.92671" lon="6.34977">
        <ele>1988</ele>
        <time>2026-08-19T07:47:18.566Z</time>
      </trkpt>
      <trkpt lat="45.92671" lon="6.34977">
        <ele>1988</ele>
        <time>2026-08-19T07:47:19.566Z</time>
      </trkpt>
      <trkpt lat="45.92671" lon="6.34977">
        <ele>1988</ele>
        <time>2026-08-19T07:47:20.566Z</time>
      </trkpt>
      <trkpt lat="45.92671" lon="6.34977">
        <ele>1988</ele>
        <time>2026-08-19T07:47:21.566Z</time>
      </trkpt>
      <trkpt lat="45.92671" lon="6.34977">
        <ele>1988</ele>
        <time>2026-08-19T07:47:22.566Z</time>
      </trkpt>
      <trkpt lat="45.92671" lon="6.34977">
        <ele>1988</ele>
        <time>2026-08-19T07:47:23.566Z</time>
      </trkpt>
      <trkpt lat="45.92671" lon="6.34977">
        <ele>1988</ele>
        <time>2026-08-19T07:47:24.566Z</time>
      </trkpt>
      <trkpt lat="45.92671" lon="6.34977">
        <ele>1988</ele>
        <time>2026-08-19T07:47:25.566Z</time>
      </trkpt>
      <trkpt lat="45.92671" lon="6.34977">
        <ele>1988</ele>
        <time>2026-08-19T07:47:26.566Z</time>
      </trkpt>
      <trkpt lat="45.92671" lon="6.34977">
        <ele>1988</ele>
        <time>2026-08-19T07:47:27.566Z</time>
      </trkpt>
      <trkpt lat="45.92671" lon="6.34977">
        <ele>1988</ele>
        <time>2026-08-19T07:47:28.566Z</time>
      </trkpt>
      <trkpt lat="45.9267" lon="6.34977">
        <ele>1988</ele>
        <time>2026-08-19T07:47:29.566Z</time>
      </trkpt>
      <trkpt lat="45.9267" lon="6.34977">
        <ele>1988</ele>
        <time>2026-08-19T07:47:30.566Z</time>
      </trkpt>
      <trkpt lat="45.9267" lon="6.34977">
        <ele>1988</ele>
        <time>2026-08-19T07:47:31.566Z</time>
      </trkpt>
      <trkpt lat="45.9267" lon="6.34977">
        <ele>1988</ele>
        <time>2026-08-19T07:47:32.566Z</time>
      </trkpt>
      <trkpt lat="45.9267" lon="6.34977">
        <ele>1988</ele>
        <time>2026-08-19T07:47:33.566Z</time>
      </trkpt>
      <trkpt lat="45.9267" lon="6.34977">
        <ele>1988</ele>
        <time>2026-08-19T07:47:34.566Z</time>
      </trkpt>
      <trkpt lat="45.9267" lon="6.34977">
        <ele>1988</ele>
        <time>2026-08-19T07:47:35.566Z</time>
      </trkpt>
      <trkpt lat="45.9267" lon="6.34977">
        <ele>1988</ele>
        <time>2026-08-19T07:47:36.566Z</time>
      </trkpt>
      <trkpt lat="45.9267" lon="6.34977">
        <ele>1988</ele>
        <time>2026-08-19T07:47:37.566Z</time>
      </trkpt>
      <trkpt lat="45.9267" lon="6.34977">
        <ele>1988</ele>
        <time>2026-08-19T07:47:38.566Z</time>
      </trkpt>
      <trkpt lat="45.9267" lon="6.34977">
        <ele>1988</ele>
        <time>2026-08-19T07:47:39.566Z</time>
      </trkpt>
      <trkpt lat="45.9267" lon="6.34977">
        <ele>1988</ele>
        <time>2026-08-19T07:47:40.566Z</time>
      </trkpt>
      <trkpt lat="45.9267" lon="6.34977">
        <ele>1988</ele>
        <time>2026-08-19T07:47:41.566Z</time>
      </trkpt>
      <trkpt lat="45.9267" lon="6.34977">
        <ele>1988</ele>
        <time>2026-08-19T07:47:42.566Z</time>
      </trkpt>
      <trkpt lat="45.9267" lon="6.34977">
        <ele>1988</ele>
        <time>2026-08-19T07:47:43.566Z</time>
      </trkpt>
      <trkpt lat="45.9267" lon="6.34977">
        <ele>1988</ele>
        <time>2026-08-19T07:47:44.566Z</time>
      </trkpt>
      <trkpt lat="45.9267" lon="6.34977">
        <ele>1988</ele>
        <time>2026-08-19T07:47:45.566Z</time>
      </trkpt>
      <trkpt lat="45.9267" lon="6.34977">
        <ele>1988</ele>
        <time>2026-08-19T07:47:46.566Z</time>
      </trkpt>
      <trkpt lat="45.9267" lon="6.34977">
        <ele>1988</ele>
        <time>2026-08-19T07:47:47.566Z</time>
      </trkpt>
      <trkpt lat="45.9267" lon="6.34977">
        <ele>1988</ele>
        <time>2026-08-19T07:47:48.566Z</time>
      </trkpt>
      <trkpt lat="45.9267" lon="6.34977">
        <ele>1988</ele>
        <time>2026-08-19T07:47:49.566Z</time>
      </trkpt>
      <trkpt lat="45.9267" lon="6.34977">
        <ele>1988</ele>
        <time>2026-08-19T07:47:50.566Z</time>
      </trkpt>
      <trkpt lat="45.9267" lon="6.34977">
        <ele>1988</ele>
        <time>2026-08-19T07:47:51.566Z</time>
      </trkpt>
      <trkpt lat="45.9267" lon="6.34976">
        <ele>1988</ele>
        <time>2026-08-19T07:47:52.566Z</time>
      </trkpt>
      <trkpt lat="45.9267" lon="6.34976">
        <ele>1988</ele>
        <time>2026-08-19T07:47:53.566Z</time>
      </trkpt>
      <trkpt lat="45.9267" lon="6.34976">
        <ele>1988</ele>
        <time>2026-08-19T07:47:54.566Z</time>
      </trkpt>
      <trkpt lat="45.9267" lon="6.34975">
        <ele>1988</ele>
        <time>2026-08-19T07:47:55.566Z</time>
      </trkpt>
      <trkpt lat="45.9267" lon="6.34975">
        <ele>1988</ele>
        <time>2026-08-19T07:47:56.566Z</time>
      </trkpt>
      <trkpt lat="45.92669" lon="6.34974">
        <ele>1988</ele>
        <time>2026-08-19T07:47:57.566Z</time>
      </trkpt>
      <trkpt lat="45.92669" lon="6.34974">
        <ele>1988</ele>
        <time>2026-08-19T07:47:58.566Z</time>
      </trkpt>
      <trkpt lat="45.92669" lon="6.34974">
        <ele>1988</ele>
        <time>2026-08-19T07:47:59.566Z</time>
      </trkpt>
      <trkpt lat="45.92669" lon="6.34974">
        <ele>1988</ele>
        <time>2026-08-19T07:48:00.566Z</time>
      </trkpt>
      <trkpt lat="45.92669" lon="6.34974">
        <ele>1988</ele>
        <time>2026-08-19T07:48:01.566Z</time>
      </trkpt>
      <trkpt lat="45.92669" lon="6.34974">
        <ele>1988</ele>
        <time>2026-08-19T07:48:02.566Z</time>
      </trkpt>
      <trkpt lat="45.92669" lon="6.34974">
        <ele>1988</ele>
        <time>2026-08-19T07:48:03.566Z</time>
      </trkpt>
      <trkpt lat="45.92669" lon="6.34974">
        <ele>1988</ele>
        <time>2026-08-19T07:48:04.566Z</time>
      </trkpt>
      <trkpt lat="45.92669" lon="6.34974">
        <ele>1988</ele>
        <time>2026-08-19T07:48:05.566Z</time>
      </trkpt>
      <trkpt lat="45.92669" lon="6.34974">
        <ele>1988</ele>
        <time>2026-08-19T07:48:06.566Z</time>
      </trkpt>
      <trkpt lat="45.92669" lon="6.34974">
        <ele>1988</ele>
        <time>2026-08-19T07:48:07.566Z</time>
      </trkpt>
      <trkpt lat="45.92669" lon="6.34974">
        <ele>1988</ele>
        <time>2026-08-19T07:48:08.566Z</time>
      </trkpt>
      <trkpt lat="45.92669" lon="6.34974">
        <ele>1988</ele>
        <time>2026-08-19T07:48:09.566Z</time>
      </trkpt>
      <trkpt lat="45.92669" lon="6.34973">
        <ele>1989</ele>
        <time>2026-08-19T07:48:10.566Z</time>
      </trkpt>
      <trkpt lat="45.92669" lon="6.34973">
        <ele>1989</ele>
        <time>2026-08-19T07:48:11.566Z</time>
      </trkpt>
      <trkpt lat="45.92669" lon="6.34973">
        <ele>1989</ele>
        <time>2026-08-19T07:48:12.566Z</time>
      </trkpt>
      <trkpt lat="45.92669" lon="6.34973">
        <ele>1989</ele>
        <time>2026-08-19T07:48:13.566Z</time>
      </trkpt>
      <trkpt lat="45.92668" lon="6.34973">
        <ele>1989</ele>
        <time>2026-08-19T07:48:14.566Z</time>
      </trkpt>
      <trkpt lat="45.92668" lon="6.34973">
        <ele>1989</ele>
        <time>2026-08-19T07:48:15.566Z</time>
      </trkpt>
      <trkpt lat="45.92668" lon="6.34973">
        <ele>1989</ele>
        <time>2026-08-19T07:48:16.566Z</time>
      </trkpt>
      <trkpt lat="45.92668" lon="6.34973">
        <ele>1989</ele>
        <time>2026-08-19T07:48:17.566Z</time>
      </trkpt>
      <trkpt lat="45.92668" lon="6.34973">
        <ele>1989</ele>
        <time>2026-08-19T07:48:18.566Z</time>
      </trkpt>
      <trkpt lat="45.92668" lon="6.34973">
        <ele>1989</ele>
        <time>2026-08-19T07:48:19.566Z</time>
      </trkpt>
      <trkpt lat="45.92668" lon="6.34973">
        <ele>1989</ele>
        <time>2026-08-19T07:48:20.566Z</time>
      </trkpt>
      <trkpt lat="45.92667" lon="6.34973">
        <ele>1989</ele>
        <time>2026-08-19T07:48:21.566Z</time>
      </trkpt>
      <trkpt lat="45.92667" lon="6.34973">
        <ele>1989</ele>
        <time>2026-08-19T07:48:22.566Z</time>
      </trkpt>
      <trkpt lat="45.92667" lon="6.34973">
        <ele>1989</ele>
        <time>2026-08-19T07:48:23.566Z</time>
      </trkpt>
      <trkpt lat="45.92667" lon="6.34973">
        <ele>1989</ele>
        <time>2026-08-19T07:48:24.566Z</time>
      </trkpt>
      <trkpt lat="45.92667" lon="6.34973">
        <ele>1989</ele>
        <time>2026-08-19T07:48:25.566Z</time>
      </trkpt>
      <trkpt lat="45.92666" lon="6.34973">
        <ele>1989</ele>
        <time>2026-08-19T07:48:26.566Z</time>
      </trkpt>
      <trkpt lat="45.92666" lon="6.34973">
        <ele>1989</ele>
        <time>2026-08-19T07:48:27.567Z</time>
      </trkpt>
      <trkpt lat="45.92666" lon="6.34972">
        <ele>1989</ele>
        <time>2026-08-19T07:48:28.566Z</time>
      </trkpt>
      <trkpt lat="45.92666" lon="6.34972">
        <ele>1989</ele>
        <time>2026-08-19T07:48:29.566Z</time>
      </trkpt>
      <trkpt lat="45.92665" lon="6.34972">
        <ele>1989</ele>
        <time>2026-08-19T07:48:30.566Z</time>
      </trkpt>
      <trkpt lat="45.92665" lon="6.34972">
        <ele>1990</ele>
        <time>2026-08-19T07:48:31.566Z</time>
      </trkpt>
      <trkpt lat="45.92665" lon="6.34972">
        <ele>1990</ele>
        <time>2026-08-19T07:48:32.566Z</time>
      </trkpt>
      <trkpt lat="45.92665" lon="6.34972">
        <ele>1990</ele>
        <time>2026-08-19T07:48:33.566Z</time>
      </trkpt>
      <trkpt lat="45.92665" lon="6.34972">
        <ele>1990</ele>
        <time>2026-08-19T07:48:34.566Z</time>
      </trkpt>
      <trkpt lat="45.92664" lon="6.34972">
        <ele>1990</ele>
        <time>2026-08-19T07:48:35.566Z</time>
      </trkpt>
      <trkpt lat="45.92664" lon="6.34972">
        <ele>1990</ele>
        <time>2026-08-19T07:48:36.566Z</time>
      </trkpt>
      <trkpt lat="45.92664" lon="6.34972">
        <ele>1990</ele>
        <time>2026-08-19T07:48:37.566Z</time>
      </trkpt>
      <trkpt lat="45.92664" lon="6.34972">
        <ele>1990</ele>
        <time>2026-08-19T07:48:38.566Z</time>
      </trkpt>
      <trkpt lat="45.92664" lon="6.34972">
        <ele>1990</ele>
        <time>2026-08-19T07:48:39.566Z</time>
      </trkpt>
      <trkpt lat="45.92664" lon="6.34972">
        <ele>1990</ele>
        <time>2026-08-19T07:48:40.566Z</time>
      </trkpt>
      <trkpt lat="45.92664" lon="6.34973">
        <ele>1990</ele>
        <time>2026-08-19T07:48:41.566Z</time>
      </trkpt>
      <trkpt lat="45.92664" lon="6.34973">
        <ele>1990</ele>
        <time>2026-08-19T07:48:42.566Z</time>
      </trkpt>
      <trkpt lat="45.92664" lon="6.34973">
        <ele>1990</ele>
        <time>2026-08-19T07:48:43.566Z</time>
      </trkpt>
      <trkpt lat="45.92664" lon="6.34973">
        <ele>1990</ele>
        <time>2026-08-19T07:48:44.566Z</time>
      </trkpt>
      <trkpt lat="45.92664" lon="6.34973">
        <ele>1990</ele>
        <time>2026-08-19T07:48:45.566Z</time>
      </trkpt>
      <trkpt lat="45.92664" lon="6.34973">
        <ele>1990</ele>
        <time>2026-08-19T07:48:46.566Z</time>
      </trkpt>
      <trkpt lat="45.92664" lon="6.34974">
        <ele>1990</ele>
        <time>2026-08-19T07:48:47.566Z</time>
      </trkpt>
      <trkpt lat="45.92664" lon="6.34974">
        <ele>1990</ele>
        <time>2026-08-19T07:48:48.566Z</time>
      </trkpt>
      <trkpt lat="45.92664" lon="6.34974">
        <ele>1990</ele>
        <time>2026-08-19T07:48:49.566Z</time>
      </trkpt>
      <trkpt lat="45.92664" lon="6.34974">
        <ele>1990</ele>
        <time>2026-08-19T07:48:50.566Z</time>
      </trkpt>
      <trkpt lat="45.92663" lon="6.34974">
        <ele>1990</ele>
        <time>2026-08-19T07:48:51.566Z</time>
      </trkpt>
      <trkpt lat="45.92663" lon="6.34974">
        <ele>1990</ele>
        <time>2026-08-19T07:48:52.566Z</time>
      </trkpt>
      <trkpt lat="45.92663" lon="6.34974">
        <ele>1990</ele>
        <time>2026-08-19T07:48:53.566Z</time>
      </trkpt>
      <trkpt lat="45.92663" lon="6.34974">
        <ele>1990</ele>
        <time>2026-08-19T07:48:54.566Z</time>
      </trkpt>
      <trkpt lat="45.92663" lon="6.34974">
        <ele>1990</ele>
        <time>2026-08-19T07:48:55.566Z</time>
      </trkpt>
      <trkpt lat="45.92663" lon="6.34974">
        <ele>1990</ele>
        <time>2026-08-19T07:48:56.566Z</time>
      </trkpt>
      <trkpt lat="45.92663" lon="6.34975">
        <ele>1990</ele>
        <time>2026-08-19T07:48:57.566Z</time>
      </trkpt>
      <trkpt lat="45.92663" lon="6.34975">
        <ele>1990</ele>
        <time>2026-08-19T07:48:58.566Z</time>
      </trkpt>
      <trkpt lat="45.92663" lon="6.34975">
        <ele>1990</ele>
        <time>2026-08-19T07:48:59.566Z</time>
      </trkpt>
      <trkpt lat="45.92663" lon="6.34975">
        <ele>1990</ele>
        <time>2026-08-19T07:49:00.566Z</time>
      </trkpt>
      <trkpt lat="45.92663" lon="6.34975">
        <ele>1990</ele>
        <time>2026-08-19T07:49:01.566Z</time>
      </trkpt>
      <trkpt lat="45.92663" lon="6.34975">
        <ele>1990</ele>
        <time>2026-08-19T07:49:02.566Z</time>
      </trkpt>
      <trkpt lat="45.92663" lon="6.34975">
        <ele>1989</ele>
        <time>2026-08-19T07:49:03.566Z</time>
      </trkpt>
      <trkpt lat="45.92663" lon="6.34975">
        <ele>1989</ele>
        <time>2026-08-19T07:49:04.566Z</time>
      </trkpt>
      <trkpt lat="45.92663" lon="6.34975">
        <ele>1989</ele>
        <time>2026-08-19T07:49:05.566Z</time>
      </trkpt>
      <trkpt lat="45.92663" lon="6.34975">
        <ele>1989</ele>
        <time>2026-08-19T07:49:06.566Z</time>
      </trkpt>
      <trkpt lat="45.92662" lon="6.34975">
        <ele>1989</ele>
        <time>2026-08-19T07:49:07.566Z</time>
      </trkpt>
      <trkpt lat="45.92662" lon="6.34976">
        <ele>1989</ele>
        <time>2026-08-19T07:49:08.566Z</time>
      </trkpt>
      <trkpt lat="45.92662" lon="6.34976">
        <ele>1989</ele>
        <time>2026-08-19T07:49:09.566Z</time>
      </trkpt>
      <trkpt lat="45.92662" lon="6.34976">
        <ele>1989</ele>
        <time>2026-08-19T07:49:10.566Z</time>
      </trkpt>
      <trkpt lat="45.92662" lon="6.34976">
        <ele>1989</ele>
        <time>2026-08-19T07:49:11.566Z</time>
      </trkpt>
      <trkpt lat="45.92662" lon="6.34976">
        <ele>1989</ele>
        <time>2026-08-19T07:49:12.566Z</time>
      </trkpt>
      <trkpt lat="45.92662" lon="6.34976">
        <ele>1989</ele>
        <time>2026-08-19T07:49:13.566Z</time>
      </trkpt>
      <trkpt lat="45.92662" lon="6.34976">
        <ele>1989</ele>
        <time>2026-08-19T07:49:14.566Z</time>
      </trkpt>
      <trkpt lat="45.92661" lon="6.34976">
        <ele>1989</ele>
        <time>2026-08-19T07:49:15.566Z</time>
      </trkpt>
      <trkpt lat="45.92661" lon="6.34977">
        <ele>1989</ele>
        <time>2026-08-19T07:49:16.566Z</time>
      </trkpt>
      <trkpt lat="45.92661" lon="6.34978">
        <ele>1989</ele>
        <time>2026-08-19T07:49:17.566Z</time>
      </trkpt>
      <trkpt lat="45.92661" lon="6.34978">
        <ele>1989</ele>
        <time>2026-08-19T07:49:18.566Z</time>
      </trkpt>
      <trkpt lat="45.9266" lon="6.34979">
        <ele>1988</ele>
        <time>2026-08-19T07:49:19.566Z</time>
      </trkpt>
      <trkpt lat="45.9266" lon="6.3498">
        <ele>1988</ele>
        <time>2026-08-19T07:49:20.566Z</time>
      </trkpt>
      <trkpt lat="45.9266" lon="6.3498">
        <ele>1988</ele>
        <time>2026-08-19T07:49:21.566Z</time>
      </trkpt>
      <trkpt lat="45.9266" lon="6.34981">
        <ele>1988</ele>
        <time>2026-08-19T07:49:22.566Z</time>
      </trkpt>
      <trkpt lat="45.9266" lon="6.34981">
        <ele>1988</ele>
        <time>2026-08-19T07:49:23.566Z</time>
      </trkpt>
      <trkpt lat="45.9266" lon="6.34981">
        <ele>1988</ele>
        <time>2026-08-19T07:49:24.566Z</time>
      </trkpt>
      <trkpt lat="45.9266" lon="6.34981">
        <ele>1987</ele>
        <time>2026-08-19T07:49:25.566Z</time>
      </trkpt>
      <trkpt lat="45.9266" lon="6.34982">
        <ele>1987</ele>
        <time>2026-08-19T07:49:26.566Z</time>
      </trkpt>
      <trkpt lat="45.9266" lon="6.34982">
        <ele>1986</ele>
        <time>2026-08-19T07:49:27.566Z</time>
      </trkpt>
      <trkpt lat="45.9266" lon="6.34982">
        <ele>1985</ele>
        <time>2026-08-19T07:49:28.566Z</time>
      </trkpt>
      <trkpt lat="45.9266" lon="6.34982">
        <ele>1985</ele>
        <time>2026-08-19T07:49:29.566Z</time>
      </trkpt>
      <trkpt lat="45.9266" lon="6.34982">
        <ele>1984</ele>
        <time>2026-08-19T07:49:30.566Z</time>
      </trkpt>
      <trkpt lat="45.9266" lon="6.34982">
        <ele>1984</ele>
        <time>2026-08-19T07:49:31.566Z</time>
      </trkpt>
      <trkpt lat="45.9266" lon="6.34982">
        <ele>1983</ele>
        <time>2026-08-19T07:49:32.566Z</time>
      </trkpt>
      <trkpt lat="45.9266" lon="6.34982">
        <ele>1983</ele>
        <time>2026-08-19T07:49:33.566Z</time>
      </trkpt>
      <trkpt lat="45.9266" lon="6.34982">
        <ele>1983</ele>
        <time>2026-08-19T07:49:34.566Z</time>
      </trkpt>
      <trkpt lat="45.9266" lon="6.34982">
        <ele>1982</ele>
        <time>2026-08-19T07:49:35.566Z</time>
      </trkpt>
      <trkpt lat="45.9266" lon="6.34982">
        <ele>1982</ele>
        <time>2026-08-19T07:49:36.566Z</time>
      </trkpt>
      <trkpt lat="45.9266" lon="6.34982">
        <ele>1982</ele>
        <time>2026-08-19T07:49:37.566Z</time>
      </trkpt>
      <trkpt lat="45.9266" lon="6.34981">
        <ele>1982</ele>
        <time>2026-08-19T07:49:38.566Z</time>
      </trkpt>
      <trkpt lat="45.9266" lon="6.34981">
        <ele>1982</ele>
        <time>2026-08-19T07:49:39.566Z</time>
      </trkpt>
      <trkpt lat="45.9266" lon="6.34981">
        <ele>1982</ele>
        <time>2026-08-19T07:49:40.566Z</time>
      </trkpt>
      <trkpt lat="45.9266" lon="6.34981">
        <ele>1982</ele>
        <time>2026-08-19T07:49:41.566Z</time>
      </trkpt>
      <trkpt lat="45.9266" lon="6.34981">
        <ele>1982</ele>
        <time>2026-08-19T07:49:42.566Z</time>
      </trkpt>
      <trkpt lat="45.9266" lon="6.34981">
        <ele>1982</ele>
        <time>2026-08-19T07:49:43.566Z</time>
      </trkpt>
      <trkpt lat="45.9266" lon="6.34981">
        <ele>1982</ele>
        <time>2026-08-19T07:49:44.566Z</time>
      </trkpt>
      <trkpt lat="45.9266" lon="6.34981">
        <ele>1982</ele>
        <time>2026-08-19T07:49:45.566Z</time>
      </trkpt>
      <trkpt lat="45.9266" lon="6.34981">
        <ele>1982</ele>
        <time>2026-08-19T07:49:46.566Z</time>
      </trkpt>
      <trkpt lat="45.9266" lon="6.34981">
        <ele>1982</ele>
        <time>2026-08-19T07:49:47.566Z</time>
      </trkpt>
      <trkpt lat="45.9266" lon="6.34981">
        <ele>1982</ele>
        <time>2026-08-19T07:49:48.566Z</time>
      </trkpt>
      <trkpt lat="45.9266" lon="6.34981">
        <ele>1982</ele>
        <time>2026-08-19T07:49:49.566Z</time>
      </trkpt>
      <trkpt lat="45.9266" lon="6.34981">
        <ele>1982</ele>
        <time>2026-08-19T07:49:50.566Z</time>
      </trkpt>
      <trkpt lat="45.9266" lon="6.34981">
        <ele>1982</ele>
        <time>2026-08-19T07:49:51.566Z</time>
      </trkpt>
      <trkpt lat="45.9266" lon="6.34981">
        <ele>1982</ele>
        <time>2026-08-19T07:49:52.566Z</time>
      </trkpt>
      <trkpt lat="45.9266" lon="6.34981">
        <ele>1982</ele>
        <time>2026-08-19T07:49:53.566Z</time>
      </trkpt>
      <trkpt lat="45.9266" lon="6.34981">
        <ele>1982</ele>
        <time>2026-08-19T07:49:54.566Z</time>
      </trkpt>
      <trkpt lat="45.9266" lon="6.34981">
        <ele>1982</ele>
        <time>2026-08-19T07:49:55.566Z</time>
      </trkpt>
      <trkpt lat="45.9266" lon="6.34981">
        <ele>1982</ele>
        <time>2026-08-19T07:49:56.566Z</time>
      </trkpt>
      <trkpt lat="45.9266" lon="6.34981">
        <ele>1982</ele>
        <time>2026-08-19T07:49:57.566Z</time>
      </trkpt>
      <trkpt lat="45.9266" lon="6.34981">
        <ele>1982</ele>
        <time>2026-08-19T07:49:58.566Z</time>
      </trkpt>
      <trkpt lat="45.9266" lon="6.34981">
        <ele>1982</ele>
        <time>2026-08-19T07:49:59.566Z</time>
      </trkpt>
      <trkpt lat="45.9266" lon="6.34981">
        <ele>1982</ele>
        <time>2026-08-19T07:50:00.566Z</time>
      </trkpt>
      <trkpt lat="45.9266" lon="6.34981">
        <ele>1982</ele>
        <time>2026-08-19T07:50:01.566Z</time>
      </trkpt>
      <trkpt lat="45.9266" lon="6.34981">
        <ele>1982</ele>
        <time>2026-08-19T07:50:02.566Z</time>
      </trkpt>
      <trkpt lat="45.9266" lon="6.34981">
        <ele>1982</ele>
        <time>2026-08-19T07:50:03.566Z</time>
      </trkpt>
      <trkpt lat="45.9266" lon="6.34981">
        <ele>1982</ele>
        <time>2026-08-19T07:50:04.566Z</time>
      </trkpt>
      <trkpt lat="45.9266" lon="6.34981">
        <ele>1982</ele>
        <time>2026-08-19T07:50:05.566Z</time>
      </trkpt>
      <trkpt lat="45.9266" lon="6.34981">
        <ele>1982</ele>
        <time>2026-08-19T07:50:06.566Z</time>
      </trkpt>
      <trkpt lat="45.9266" lon="6.34981">
        <ele>1982</ele>
        <time>2026-08-19T07:50:07.566Z</time>
      </trkpt>
      <trkpt lat="45.9266" lon="6.34981">
        <ele>1982</ele>
        <time>2026-08-19T07:50:08.566Z</time>
      </trkpt>
      <trkpt lat="45.9266" lon="6.34981">
        <ele>1982</ele>
        <time>2026-08-19T07:50:09.566Z</time>
      </trkpt>
      <trkpt lat="45.9266" lon="6.34982">
        <ele>1982</ele>
        <time>2026-08-19T07:50:10.566Z</time>
      </trkpt>
      <trkpt lat="45.9266" lon="6.34982">
        <ele>1982</ele>
        <time>2026-08-19T07:50:11.566Z</time>
      </trkpt>
      <trkpt lat="45.9266" lon="6.34982">
        <ele>1982</ele>
        <time>2026-08-19T07:50:12.566Z</time>
      </trkpt>
      <trkpt lat="45.9266" lon="6.34982">
        <ele>1982</ele>
        <time>2026-08-19T07:50:13.566Z</time>
      </trkpt>
      <trkpt lat="45.9266" lon="6.34982">
        <ele>1982</ele>
        <time>2026-08-19T07:50:14.566Z</time>
      </trkpt>
      <trkpt lat="45.9266" lon="6.34982">
        <ele>1982</ele>
        <time>2026-08-19T07:50:15.566Z</time>
      </trkpt>
      <trkpt lat="45.9266" lon="6.34982">
        <ele>1982</ele>
        <time>2026-08-19T07:50:16.566Z</time>
      </trkpt>
      <trkpt lat="45.9266" lon="6.34982">
        <ele>1982</ele>
        <time>2026-08-19T07:50:17.566Z</time>
      </trkpt>
      <trkpt lat="45.9266" lon="6.34982">
        <ele>1982</ele>
        <time>2026-08-19T07:50:18.566Z</time>
      </trkpt>
      <trkpt lat="45.9266" lon="6.34982">
        <ele>1982</ele>
        <time>2026-08-19T07:50:19.566Z</time>
      </trkpt>
      <trkpt lat="45.9266" lon="6.34982">
        <ele>1982</ele>
        <time>2026-08-19T07:50:20.566Z</time>
      </trkpt>
      <trkpt lat="45.9266" lon="6.34982">
        <ele>1982</ele>
        <time>2026-08-19T07:50:21.566Z</time>
      </trkpt>
      <trkpt lat="45.9266" lon="6.34983">
        <ele>1982</ele>
        <time>2026-08-19T07:50:22.566Z</time>
      </trkpt>
      <trkpt lat="45.9266" lon="6.34983">
        <ele>1982</ele>
        <time>2026-08-19T07:50:23.566Z</time>
      </trkpt>
      <trkpt lat="45.9266" lon="6.34983">
        <ele>1982</ele>
        <time>2026-08-19T07:50:24.566Z</time>
      </trkpt>
      <trkpt lat="45.9266" lon="6.34984">
        <ele>1982</ele>
        <time>2026-08-19T07:50:25.566Z</time>
      </trkpt>
      <trkpt lat="45.9266" lon="6.34984">
        <ele>1982</ele>
        <time>2026-08-19T07:50:26.566Z</time>
      </trkpt>
      <trkpt lat="45.9266" lon="6.34984">
        <ele>1982</ele>
        <time>2026-08-19T07:50:27.566Z</time>
      </trkpt>
      <trkpt lat="45.9266" lon="6.34984">
        <ele>1982</ele>
        <time>2026-08-19T07:50:28.566Z</time>
      </trkpt>
      <trkpt lat="45.9266" lon="6.34984">
        <ele>1983</ele>
        <time>2026-08-19T07:50:29.566Z</time>
      </trkpt>
      <trkpt lat="45.9266" lon="6.34984">
        <ele>1983</ele>
        <time>2026-08-19T07:50:30.566Z</time>
      </trkpt>
      <trkpt lat="45.9266" lon="6.34984">
        <ele>1983</ele>
        <time>2026-08-19T07:50:31.566Z</time>
      </trkpt>
      <trkpt lat="45.9266" lon="6.34984">
        <ele>1983</ele>
        <time>2026-08-19T07:50:32.566Z</time>
      </trkpt>
      <trkpt lat="45.9266" lon="6.34984">
        <ele>1983</ele>
        <time>2026-08-19T07:50:33.566Z</time>
      </trkpt>
      <trkpt lat="45.9266" lon="6.34984">
        <ele>1983</ele>
        <time>2026-08-19T07:50:34.566Z</time>
      </trkpt>
      <trkpt lat="45.9266" lon="6.34984">
        <ele>1983</ele>
        <time>2026-08-19T07:50:35.566Z</time>
      </trkpt>
      <trkpt lat="45.9266" lon="6.34984">
        <ele>1983</ele>
        <time>2026-08-19T07:50:36.566Z</time>
      </trkpt>
      <trkpt lat="45.9266" lon="6.34985">
        <ele>1983</ele>
        <time>2026-08-19T07:50:37.566Z</time>
      </trkpt>
      <trkpt lat="45.92661" lon="6.34985">
        <ele>1983</ele>
        <time>2026-08-19T07:50:38.566Z</time>
      </trkpt>
      <trkpt lat="45.92661" lon="6.34985">
        <ele>1983</ele>
        <time>2026-08-19T07:50:39.566Z</time>
      </trkpt>
      <trkpt lat="45.92661" lon="6.34985">
        <ele>1983</ele>
        <time>2026-08-19T07:50:40.566Z</time>
      </trkpt>
      <trkpt lat="45.92661" lon="6.34985">
        <ele>1983</ele>
        <time>2026-08-19T07:50:41.566Z</time>
      </trkpt>
      <trkpt lat="45.92661" lon="6.34985">
        <ele>1983</ele>
        <time>2026-08-19T07:50:42.566Z</time>
      </trkpt>
      <trkpt lat="45.92661" lon="6.34985">
        <ele>1983</ele>
        <time>2026-08-19T07:50:43.566Z</time>
      </trkpt>
      <trkpt lat="45.92661" lon="6.34985">
        <ele>1983</ele>
        <time>2026-08-19T07:50:44.566Z</time>
      </trkpt>
      <trkpt lat="45.92661" lon="6.34985">
        <ele>1983</ele>
        <time>2026-08-19T07:50:45.566Z</time>
      </trkpt>
      <trkpt lat="45.92661" lon="6.34985">
        <ele>1983</ele>
        <time>2026-08-19T07:50:46.566Z</time>
      </trkpt>
      <trkpt lat="45.92661" lon="6.34986">
        <ele>1983</ele>
        <time>2026-08-19T07:50:47.566Z</time>
      </trkpt>
      <trkpt lat="45.92661" lon="6.34986">
        <ele>1983</ele>
        <time>2026-08-19T07:50:48.566Z</time>
      </trkpt>
      <trkpt lat="45.92661" lon="6.34986">
        <ele>1983</ele>
        <time>2026-08-19T07:50:49.566Z</time>
      </trkpt>
      <trkpt lat="45.92661" lon="6.34986">
        <ele>1983</ele>
        <time>2026-08-19T07:50:50.566Z</time>
      </trkpt>
      <trkpt lat="45.92661" lon="6.34986">
        <ele>1983</ele>
        <time>2026-08-19T07:50:51.566Z</time>
      </trkpt>
      <trkpt lat="45.92661" lon="6.34986">
        <ele>1983</ele>
        <time>2026-08-19T07:50:52.566Z</time>
      </trkpt>
      <trkpt lat="45.92661" lon="6.34986">
        <ele>1983</ele>
        <time>2026-08-19T07:50:53.566Z</time>
      </trkpt>
      <trkpt lat="45.92661" lon="6.34986">
        <ele>1983</ele>
        <time>2026-08-19T07:50:54.566Z</time>
      </trkpt>
      <trkpt lat="45.92661" lon="6.34986">
        <ele>1983</ele>
        <time>2026-08-19T07:50:55.566Z</time>
      </trkpt>
      <trkpt lat="45.92661" lon="6.34987">
        <ele>1983</ele>
        <time>2026-08-19T07:50:56.566Z</time>
      </trkpt>
      <trkpt lat="45.92661" lon="6.34987">
        <ele>1983</ele>
        <time>2026-08-19T07:50:57.566Z</time>
      </trkpt>
      <trkpt lat="45.92661" lon="6.34987">
        <ele>1983</ele>
        <time>2026-08-19T07:50:58.566Z</time>
      </trkpt>
      <trkpt lat="45.92661" lon="6.34987">
        <ele>1983</ele>
        <time>2026-08-19T07:50:59.566Z</time>
      </trkpt>
      <trkpt lat="45.92661" lon="6.34987">
        <ele>1983</ele>
        <time>2026-08-19T07:51:00.566Z</time>
      </trkpt>
      <trkpt lat="45.92661" lon="6.34987">
        <ele>1983</ele>
        <time>2026-08-19T07:51:01.566Z</time>
      </trkpt>
      <trkpt lat="45.92661" lon="6.34987">
        <ele>1983</ele>
        <time>2026-08-19T07:51:02.566Z</time>
      </trkpt>
      <trkpt lat="45.92661" lon="6.34987">
        <ele>1983</ele>
        <time>2026-08-19T07:51:03.566Z</time>
      </trkpt>
      <trkpt lat="45.92661" lon="6.34987">
        <ele>1983</ele>
        <time>2026-08-19T07:51:04.566Z</time>
      </trkpt>
      <trkpt lat="45.92661" lon="6.34987">
        <ele>1983</ele>
        <time>2026-08-19T07:51:05.566Z</time>
      </trkpt>
      <trkpt lat="45.92661" lon="6.34987">
        <ele>1983</ele>
        <time>2026-08-19T07:51:06.566Z</time>
      </trkpt>
      <trkpt lat="45.92661" lon="6.34987">
        <ele>1983</ele>
        <time>2026-08-19T07:51:07.566Z</time>
      </trkpt>
      <trkpt lat="45.92661" lon="6.34987">
        <ele>1983</ele>
        <time>2026-08-19T07:51:08.566Z</time>
      </trkpt>
      <trkpt lat="45.92662" lon="6.34987">
        <ele>1983</ele>
        <time>2026-08-19T07:51:09.566Z</time>
      </trkpt>
      <trkpt lat="45.92662" lon="6.34987">
        <ele>1983</ele>
        <time>2026-08-19T07:51:10.566Z</time>
      </trkpt>
      <trkpt lat="45.92662" lon="6.34987">
        <ele>1983</ele>
        <time>2026-08-19T07:51:11.566Z</time>
      </trkpt>
      <trkpt lat="45.92662" lon="6.34988">
        <ele>1983</ele>
        <time>2026-08-19T07:51:12.566Z</time>
      </trkpt>
      <trkpt lat="45.92662" lon="6.34988">
        <ele>1983</ele>
        <time>2026-08-19T07:51:13.566Z</time>
      </trkpt>
      <trkpt lat="45.92663" lon="6.34988">
        <ele>1983</ele>
        <time>2026-08-19T07:51:14.566Z</time>
      </trkpt>
      <trkpt lat="45.92663" lon="6.34988">
        <ele>1983</ele>
        <time>2026-08-19T07:51:15.566Z</time>
      </trkpt>
      <trkpt lat="45.92663" lon="6.34988">
        <ele>1983</ele>
        <time>2026-08-19T07:51:16.566Z</time>
      </trkpt>
      <trkpt lat="45.92663" lon="6.34988">
        <ele>1983</ele>
        <time>2026-08-19T07:51:17.566Z</time>
      </trkpt>
      <trkpt lat="45.92664" lon="6.34988">
        <ele>1983</ele>
        <time>2026-08-19T07:51:18.566Z</time>
      </trkpt>
      <trkpt lat="45.92664" lon="6.34988">
        <ele>1983</ele>
        <time>2026-08-19T07:51:19.566Z</time>
      </trkpt>
      <trkpt lat="45.92664" lon="6.34988">
        <ele>1983</ele>
        <time>2026-08-19T07:51:20.566Z</time>
      </trkpt>
      <trkpt lat="45.92664" lon="6.34988">
        <ele>1983</ele>
        <time>2026-08-19T07:51:21.566Z</time>
      </trkpt>
      <trkpt lat="45.92664" lon="6.34988">
        <ele>1983</ele>
        <time>2026-08-19T07:51:22.566Z</time>
      </trkpt>
      <trkpt lat="45.92664" lon="6.34988">
        <ele>1983</ele>
        <time>2026-08-19T07:51:23.566Z</time>
      </trkpt>
      <trkpt lat="45.92665" lon="6.34988">
        <ele>1983</ele>
        <time>2026-08-19T07:51:24.566Z</time>
      </trkpt>
      <trkpt lat="45.92665" lon="6.34988">
        <ele>1983</ele>
        <time>2026-08-19T07:51:25.566Z</time>
      </trkpt>
      <trkpt lat="45.92666" lon="6.34988">
        <ele>1983</ele>
        <time>2026-08-19T07:51:26.566Z</time>
      </trkpt>
      <trkpt lat="45.92666" lon="6.34988">
        <ele>1983</ele>
        <time>2026-08-19T07:51:27.566Z</time>
      </trkpt>
      <trkpt lat="45.92667" lon="6.34988">
        <ele>1983</ele>
        <time>2026-08-19T07:51:28.566Z</time>
      </trkpt>
      <trkpt lat="45.92667" lon="6.34988">
        <ele>1983</ele>
        <time>2026-08-19T07:51:29.566Z</time>
      </trkpt>
      <trkpt lat="45.92668" lon="6.34989">
        <ele>1983</ele>
        <time>2026-08-19T07:51:30.566Z</time>
      </trkpt>
      <trkpt lat="45.92668" lon="6.34989">
        <ele>1983</ele>
        <time>2026-08-19T07:51:31.566Z</time>
      </trkpt>
      <trkpt lat="45.92668" lon="6.34989">
        <ele>1983</ele>
        <time>2026-08-19T07:51:32.566Z</time>
      </trkpt>
      <trkpt lat="45.92668" lon="6.34989">
        <ele>1983</ele>
        <time>2026-08-19T07:51:33.566Z</time>
      </trkpt>
      <trkpt lat="45.92668" lon="6.34989">
        <ele>1983</ele>
        <time>2026-08-19T07:51:34.566Z</time>
      </trkpt>
      <trkpt lat="45.92668" lon="6.34989">
        <ele>1983</ele>
        <time>2026-08-19T07:51:35.566Z</time>
      </trkpt>
      <trkpt lat="45.92668" lon="6.34989">
        <ele>1983</ele>
        <time>2026-08-19T07:51:36.566Z</time>
      </trkpt>
      <trkpt lat="45.92669" lon="6.34989">
        <ele>1983</ele>
        <time>2026-08-19T07:51:37.566Z</time>
      </trkpt>
      <trkpt lat="45.92669" lon="6.3499">
        <ele>1983</ele>
        <time>2026-08-19T07:51:38.566Z</time>
      </trkpt>
      <trkpt lat="45.92669" lon="6.3499">
        <ele>1983</ele>
        <time>2026-08-19T07:51:39.566Z</time>
      </trkpt>
      <trkpt lat="45.92669" lon="6.3499">
        <ele>1983</ele>
        <time>2026-08-19T07:51:40.566Z</time>
      </trkpt>
      <trkpt lat="45.92669" lon="6.3499">
        <ele>1983</ele>
        <time>2026-08-19T07:51:41.566Z</time>
      </trkpt>
      <trkpt lat="45.92669" lon="6.3499">
        <ele>1983</ele>
        <time>2026-08-19T07:51:42.566Z</time>
      </trkpt>
      <trkpt lat="45.92669" lon="6.3499">
        <ele>1983</ele>
        <time>2026-08-19T07:51:43.566Z</time>
      </trkpt>
      <trkpt lat="45.92669" lon="6.3499">
        <ele>1983</ele>
        <time>2026-08-19T07:51:44.566Z</time>
      </trkpt>
      <trkpt lat="45.92669" lon="6.3499">
        <ele>1983</ele>
        <time>2026-08-19T07:51:45.566Z</time>
      </trkpt>
      <trkpt lat="45.92669" lon="6.3499">
        <ele>1983</ele>
        <time>2026-08-19T07:51:46.566Z</time>
      </trkpt>
      <trkpt lat="45.92669" lon="6.34991">
        <ele>1983</ele>
        <time>2026-08-19T07:51:47.566Z</time>
      </trkpt>
      <trkpt lat="45.92669" lon="6.34991">
        <ele>1983</ele>
        <time>2026-08-19T07:51:48.566Z</time>
      </trkpt>
      <trkpt lat="45.92669" lon="6.34991">
        <ele>1983</ele>
        <time>2026-08-19T07:51:49.566Z</time>
      </trkpt>
      <trkpt lat="45.92669" lon="6.34991">
        <ele>1983</ele>
        <time>2026-08-19T07:51:50.566Z</time>
      </trkpt>
      <trkpt lat="45.92669" lon="6.34991">
        <ele>1983</ele>
        <time>2026-08-19T07:51:51.566Z</time>
      </trkpt>
      <trkpt lat="45.92669" lon="6.34991">
        <ele>1983</ele>
        <time>2026-08-19T07:51:52.566Z</time>
      </trkpt>
      <trkpt lat="45.92669" lon="6.34991">
        <ele>1983</ele>
        <time>2026-08-19T07:51:53.566Z</time>
      </trkpt>
      <trkpt lat="45.92669" lon="6.34991">
        <ele>1983</ele>
        <time>2026-08-19T07:51:54.566Z</time>
      </trkpt>
      <trkpt lat="45.92669" lon="6.34992">
        <ele>1983</ele>
        <time>2026-08-19T07:51:55.566Z</time>
      </trkpt>
      <trkpt lat="45.92669" lon="6.34992">
        <ele>1983</ele>
        <time>2026-08-19T07:51:56.566Z</time>
      </trkpt>
      <trkpt lat="45.92668" lon="6.34992">
        <ele>1982</ele>
        <time>2026-08-19T07:51:57.566Z</time>
      </trkpt>
      <trkpt lat="45.92668" lon="6.34992">
        <ele>1982</ele>
        <time>2026-08-19T07:51:58.566Z</time>
      </trkpt>
      <trkpt lat="45.92668" lon="6.34992">
        <ele>1982</ele>
        <time>2026-08-19T07:51:59.566Z</time>
      </trkpt>
      <trkpt lat="45.92668" lon="6.34992">
        <ele>1982</ele>
        <time>2026-08-19T07:52:00.566Z</time>
      </trkpt>
      <trkpt lat="45.92668" lon="6.34992">
        <ele>1982</ele>
        <time>2026-08-19T07:52:01.566Z</time>
      </trkpt>
      <trkpt lat="45.92668" lon="6.34992">
        <ele>1982</ele>
        <time>2026-08-19T07:52:02.566Z</time>
      </trkpt>
      <trkpt lat="45.92667" lon="6.34992">
        <ele>1982</ele>
        <time>2026-08-19T07:52:03.566Z</time>
      </trkpt>
      <trkpt lat="45.92667" lon="6.34992">
        <ele>1982</ele>
        <time>2026-08-19T07:52:04.566Z</time>
      </trkpt>
      <trkpt lat="45.92667" lon="6.34992">
        <ele>1982</ele>
        <time>2026-08-19T07:52:05.566Z</time>
      </trkpt>
      <trkpt lat="45.92667" lon="6.34992">
        <ele>1982</ele>
        <time>2026-08-19T07:52:06.566Z</time>
      </trkpt>
      <trkpt lat="45.92667" lon="6.34992">
        <ele>1982</ele>
        <time>2026-08-19T07:52:07.566Z</time>
      </trkpt>
      <trkpt lat="45.92667" lon="6.34992">
        <ele>1982</ele>
        <time>2026-08-19T07:52:08.566Z</time>
      </trkpt>
      <trkpt lat="45.92667" lon="6.34992">
        <ele>1982</ele>
        <time>2026-08-19T07:52:09.566Z</time>
      </trkpt>
      <trkpt lat="45.92667" lon="6.34992">
        <ele>1982</ele>
        <time>2026-08-19T07:52:10.566Z</time>
      </trkpt>
      <trkpt lat="45.92667" lon="6.34992">
        <ele>1982</ele>
        <time>2026-08-19T07:52:11.566Z</time>
      </trkpt>
      <trkpt lat="45.92667" lon="6.34992">
        <ele>1982</ele>
        <time>2026-08-19T07:52:12.566Z</time>
      </trkpt>
      <trkpt lat="45.92667" lon="6.34992">
        <ele>1982</ele>
        <time>2026-08-19T07:52:13.566Z</time>
      </trkpt>
      <trkpt lat="45.92667" lon="6.34992">
        <ele>1982</ele>
        <time>2026-08-19T07:52:14.566Z</time>
      </trkpt>
      <trkpt lat="45.92667" lon="6.34992">
        <ele>1982</ele>
        <time>2026-08-19T07:52:15.566Z</time>
      </trkpt>
      <trkpt lat="45.92667" lon="6.34993">
        <ele>1982</ele>
        <time>2026-08-19T07:52:16.566Z</time>
      </trkpt>
      <trkpt lat="45.92667" lon="6.34993">
        <ele>1982</ele>
        <time>2026-08-19T07:52:17.566Z</time>
      </trkpt>
      <trkpt lat="45.92667" lon="6.34993">
        <ele>1982</ele>
        <time>2026-08-19T07:52:18.566Z</time>
      </trkpt>
      <trkpt lat="45.92667" lon="6.34993">
        <ele>1982</ele>
        <time>2026-08-19T07:52:19.566Z</time>
      </trkpt>
      <trkpt lat="45.92667" lon="6.34993">
        <ele>1982</ele>
        <time>2026-08-19T07:52:20.566Z</time>
      </trkpt>
      <trkpt lat="45.92667" lon="6.34993">
        <ele>1982</ele>
        <time>2026-08-19T07:52:21.566Z</time>
      </trkpt>
      <trkpt lat="45.92667" lon="6.34993">
        <ele>1982</ele>
        <time>2026-08-19T07:52:22.566Z</time>
      </trkpt>
      <trkpt lat="45.92667" lon="6.34993">
        <ele>1982</ele>
        <time>2026-08-19T07:52:23.566Z</time>
      </trkpt>
      <trkpt lat="45.92666" lon="6.34993">
        <ele>1982</ele>
        <time>2026-08-19T07:52:24.566Z</time>
      </trkpt>
      <trkpt lat="45.92666" lon="6.34993">
        <ele>1982</ele>
        <time>2026-08-19T07:52:25.566Z</time>
      </trkpt>
      <trkpt lat="45.92666" lon="6.34994">
        <ele>1982</ele>
        <time>2026-08-19T07:52:26.566Z</time>
      </trkpt>
      <trkpt lat="45.92666" lon="6.34994">
        <ele>1981</ele>
        <time>2026-08-19T07:52:27.566Z</time>
      </trkpt>
      <trkpt lat="45.92666" lon="6.34994">
        <ele>1981</ele>
        <time>2026-08-19T07:52:28.566Z</time>
      </trkpt>
      <trkpt lat="45.92666" lon="6.34994">
        <ele>1981</ele>
        <time>2026-08-19T07:52:29.566Z</time>
      </trkpt>
      <trkpt lat="45.92666" lon="6.34994">
        <ele>1981</ele>
        <time>2026-08-19T07:52:30.566Z</time>
      </trkpt>
      <trkpt lat="45.92666" lon="6.34994">
        <ele>1981</ele>
        <time>2026-08-19T07:52:31.566Z</time>
      </trkpt>
      <trkpt lat="45.92666" lon="6.34994">
        <ele>1981</ele>
        <time>2026-08-19T07:52:32.566Z</time>
      </trkpt>
      <trkpt lat="45.92666" lon="6.34994">
        <ele>1981</ele>
        <time>2026-08-19T07:52:33.566Z</time>
      </trkpt>
      <trkpt lat="45.92666" lon="6.34994">
        <ele>1981</ele>
        <time>2026-08-19T07:52:34.566Z</time>
      </trkpt>
      <trkpt lat="45.92666" lon="6.34994">
        <ele>1981</ele>
        <time>2026-08-19T07:52:35.566Z</time>
      </trkpt>
      <trkpt lat="45.92666" lon="6.34994">
        <ele>1981</ele>
        <time>2026-08-19T07:52:36.566Z</time>
      </trkpt>
      <trkpt lat="45.92666" lon="6.34994">
        <ele>1981</ele>
        <time>2026-08-19T07:52:37.566Z</time>
      </trkpt>
      <trkpt lat="45.92666" lon="6.34994">
        <ele>1981</ele>
        <time>2026-08-19T07:52:38.566Z</time>
      </trkpt>
      <trkpt lat="45.92666" lon="6.34994">
        <ele>1981</ele>
        <time>2026-08-19T07:52:39.566Z</time>
      </trkpt>
      <trkpt lat="45.92666" lon="6.34994">
        <ele>1981</ele>
        <time>2026-08-19T07:52:40.566Z</time>
      </trkpt>
      <trkpt lat="45.92666" lon="6.34994">
        <ele>1981</ele>
        <time>2026-08-19T07:52:41.566Z</time>
      </trkpt>
      <trkpt lat="45.92666" lon="6.34994">
        <ele>1981</ele>
        <time>2026-08-19T07:52:42.566Z</time>
      </trkpt>
      <trkpt lat="45.92666" lon="6.34994">
        <ele>1981</ele>
        <time>2026-08-19T07:52:43.566Z</time>
      </trkpt>
      <trkpt lat="45.92666" lon="6.34994">
        <ele>1981</ele>
        <time>2026-08-19T07:52:44.566Z</time>
      </trkpt>
      <trkpt lat="45.92666" lon="6.34994">
        <ele>1981</ele>
        <time>2026-08-19T07:52:45.566Z</time>
      </trkpt>
      <trkpt lat="45.92666" lon="6.34994">
        <ele>1981</ele>
        <time>2026-08-19T07:52:46.566Z</time>
      </trkpt>
      <trkpt lat="45.92666" lon="6.34994">
        <ele>1981</ele>
        <time>2026-08-19T07:52:47.566Z</time>
      </trkpt>
      <trkpt lat="45.92666" lon="6.34994">
        <ele>1981</ele>
        <time>2026-08-19T07:52:48.566Z</time>
      </trkpt>
      <trkpt lat="45.92666" lon="6.34994">
        <ele>1981</ele>
        <time>2026-08-19T07:52:49.566Z</time>
      </trkpt>
      <trkpt lat="45.92666" lon="6.34994">
        <ele>1981</ele>
        <time>2026-08-19T07:52:50.566Z</time>
      </trkpt>
      <trkpt lat="45.92666" lon="6.34994">
        <ele>1981</ele>
        <time>2026-08-19T07:52:51.566Z</time>
      </trkpt>
      <trkpt lat="45.92666" lon="6.34994">
        <ele>1981</ele>
        <time>2026-08-19T07:52:52.566Z</time>
      </trkpt>
      <trkpt lat="45.92666" lon="6.34994">
        <ele>1981</ele>
        <time>2026-08-19T07:52:53.567Z</time>
      </trkpt>
      <trkpt lat="45.92666" lon="6.34994">
        <ele>1981</ele>
        <time>2026-08-19T07:52:54.566Z</time>
      </trkpt>
      <trkpt lat="45.92666" lon="6.34994">
        <ele>1981</ele>
        <time>2026-08-19T07:52:55.566Z</time>
      </trkpt>
      <trkpt lat="45.92666" lon="6.34994">
        <ele>1981</ele>
        <time>2026-08-19T07:52:56.566Z</time>
      </trkpt>
      <trkpt lat="45.92666" lon="6.34994">
        <ele>1981</ele>
        <time>2026-08-19T07:52:57.566Z</time>
      </trkpt>
      <trkpt lat="45.92666" lon="6.34994">
        <ele>1980</ele>
        <time>2026-08-19T07:52:58.566Z</time>
      </trkpt>
      <trkpt lat="45.92666" lon="6.34994">
        <ele>1980</ele>
        <time>2026-08-19T07:52:59.566Z</time>
      </trkpt>
      <trkpt lat="45.92666" lon="6.34994">
        <ele>1980</ele>
        <time>2026-08-19T07:53:00.566Z</time>
      </trkpt>
      <trkpt lat="45.92666" lon="6.34994">
        <ele>1980</ele>
        <time>2026-08-19T07:53:01.566Z</time>
      </trkpt>
      <trkpt lat="45.92666" lon="6.34994">
        <ele>1980</ele>
        <time>2026-08-19T07:53:02.566Z</time>
      </trkpt>
      <trkpt lat="45.92666" lon="6.34994">
        <ele>1980</ele>
        <time>2026-08-19T07:53:03.566Z</time>
      </trkpt>
      <trkpt lat="45.92666" lon="6.34994">
        <ele>1980</ele>
        <time>2026-08-19T07:53:04.566Z</time>
      </trkpt>
      <trkpt lat="45.92666" lon="6.34994">
        <ele>1980</ele>
        <time>2026-08-19T07:53:05.566Z</time>
      </trkpt>
      <trkpt lat="45.92666" lon="6.34994">
        <ele>1980</ele>
        <time>2026-08-19T07:53:06.566Z</time>
      </trkpt>
      <trkpt lat="45.92666" lon="6.34994">
        <ele>1980</ele>
        <time>2026-08-19T07:53:07.566Z</time>
      </trkpt>
      <trkpt lat="45.92666" lon="6.34994">
        <ele>1980</ele>
        <time>2026-08-19T07:53:08.566Z</time>
      </trkpt>
      <trkpt lat="45.92666" lon="6.34994">
        <ele>1980</ele>
        <time>2026-08-19T07:53:09.566Z</time>
      </trkpt>
      <trkpt lat="45.92666" lon="6.34994">
        <ele>1980</ele>
        <time>2026-08-19T07:53:10.566Z</time>
      </trkpt>
      <trkpt lat="45.92666" lon="6.34994">
        <ele>1980</ele>
        <time>2026-08-19T07:53:11.566Z</time>
      </trkpt>
      <trkpt lat="45.92666" lon="6.34994">
        <ele>1979</ele>
        <time>2026-08-19T07:53:12.566Z</time>
      </trkpt>
      <trkpt lat="45.92666" lon="6.34994">
        <ele>1979</ele>
        <time>2026-08-19T07:53:13.566Z</time>
      </trkpt>
      <trkpt lat="45.92666" lon="6.34994">
        <ele>1979</ele>
        <time>2026-08-19T07:53:14.566Z</time>
      </trkpt>
      <trkpt lat="45.92666" lon="6.34994">
        <ele>1979</ele>
        <time>2026-08-19T07:53:15.566Z</time>
      </trkpt>
      <trkpt lat="45.92666" lon="6.34994">
        <ele>1979</ele>
        <time>2026-08-19T07:53:16.566Z</time>
      </trkpt>
      <trkpt lat="45.92666" lon="6.34994">
        <ele>1979</ele>
        <time>2026-08-19T07:53:17.566Z</time>
      </trkpt>
      <trkpt lat="45.92666" lon="6.34994">
        <ele>1979</ele>
        <time>2026-08-19T07:53:18.566Z</time>
      </trkpt>
      <trkpt lat="45.92666" lon="6.34994">
        <ele>1979</ele>
        <time>2026-08-19T07:53:19.566Z</time>
      </trkpt>
      <trkpt lat="45.92666" lon="6.34994">
        <ele>1979</ele>
        <time>2026-08-19T07:53:20.566Z</time>
      </trkpt>
      <trkpt lat="45.92666" lon="6.34994">
        <ele>1979</ele>
        <time>2026-08-19T07:53:21.566Z</time>
      </trkpt>
      <trkpt lat="45.92666" lon="6.34994">
        <ele>1979</ele>
        <time>2026-08-19T07:53:22.566Z</time>
      </trkpt>
      <trkpt lat="45.92666" lon="6.34994">
        <ele>1979</ele>
        <time>2026-08-19T07:53:23.566Z</time>
      </trkpt>
      <trkpt lat="45.92666" lon="6.34994">
        <ele>1979</ele>
        <time>2026-08-19T07:53:24.566Z</time>
      </trkpt>
      <trkpt lat="45.92666" lon="6.34994">
        <ele>1979</ele>
        <time>2026-08-19T07:53:25.566Z</time>
      </trkpt>
      <trkpt lat="45.92666" lon="6.34994">
        <ele>1979</ele>
        <time>2026-08-19T07:53:26.566Z</time>
      </trkpt>
      <trkpt lat="45.92666" lon="6.34994">
        <ele>1978</ele>
        <time>2026-08-19T07:53:27.566Z</time>
      </trkpt>
      <trkpt lat="45.92666" lon="6.34994">
        <ele>1978</ele>
        <time>2026-08-19T07:53:28.566Z</time>
      </trkpt>
      <trkpt lat="45.92666" lon="6.34994">
        <ele>1978</ele>
        <time>2026-08-19T07:53:29.566Z</time>
      </trkpt>
      <trkpt lat="45.92666" lon="6.34994">
        <ele>1978</ele>
        <time>2026-08-19T07:53:30.566Z</time>
      </trkpt>
      <trkpt lat="45.92666" lon="6.34994">
        <ele>1978</ele>
        <time>2026-08-19T07:53:31.566Z</time>
      </trkpt>
      <trkpt lat="45.92666" lon="6.34994">
        <ele>1978</ele>
        <time>2026-08-19T07:53:32.566Z</time>
      </trkpt>
      <trkpt lat="45.92666" lon="6.34994">
        <ele>1978</ele>
        <time>2026-08-19T07:53:33.566Z</time>
      </trkpt>
      <trkpt lat="45.92666" lon="6.34994">
        <ele>1978</ele>
        <time>2026-08-19T07:53:34.566Z</time>
      </trkpt>
      <trkpt lat="45.92666" lon="6.34994">
        <ele>1978</ele>
        <time>2026-08-19T07:53:35.566Z</time>
      </trkpt>
      <trkpt lat="45.92666" lon="6.34994">
        <ele>1978</ele>
        <time>2026-08-19T07:53:36.566Z</time>
      </trkpt>
      <trkpt lat="45.92666" lon="6.34994">
        <ele>1978</ele>
        <time>2026-08-19T07:53:37.566Z</time>
      </trkpt>
      <trkpt lat="45.92666" lon="6.34994">
        <ele>1978</ele>
        <time>2026-08-19T07:53:38.566Z</time>
      </trkpt>
      <trkpt lat="45.92666" lon="6.34994">
        <ele>1978</ele>
        <time>2026-08-19T07:53:39.566Z</time>
      </trkpt>
      <trkpt lat="45.92666" lon="6.34994">
        <ele>1978</ele>
        <time>2026-08-19T07:53:40.566Z</time>
      </trkpt>
      <trkpt lat="45.92666" lon="6.34994">
        <ele>1978</ele>
        <time>2026-08-19T07:53:41.566Z</time>
      </trkpt>
      <trkpt lat="45.92666" lon="6.34994">
        <ele>1978</ele>
        <time>2026-08-19T07:53:42.566Z</time>
      </trkpt>
      <trkpt lat="45.92666" lon="6.34994">
        <ele>1978</ele>
        <time>2026-08-19T07:53:43.566Z</time>
      </trkpt>
      <trkpt lat="45.92666" lon="6.34994">
        <ele>1978</ele>
        <time>2026-08-19T07:53:44.566Z</time>
      </trkpt>
      <trkpt lat="45.92666" lon="6.34994">
        <ele>1978</ele>
        <time>2026-08-19T07:53:45.566Z</time>
      </trkpt>
      <trkpt lat="45.92666" lon="6.34994">
        <ele>1978</ele>
        <time>2026-08-19T07:53:46.566Z</time>
      </trkpt>
      <trkpt lat="45.92666" lon="6.34994">
        <ele>1978</ele>
        <time>2026-08-19T07:53:47.566Z</time>
      </trkpt>
      <trkpt lat="45.92666" lon="6.34994">
        <ele>1978</ele>
        <time>2026-08-19T07:53:48.566Z</time>
      </trkpt>
      <trkpt lat="45.92666" lon="6.34994">
        <ele>1978</ele>
        <time>2026-08-19T07:53:49.566Z</time>
      </trkpt>
      <trkpt lat="45.92666" lon="6.34994">
        <ele>1978</ele>
        <time>2026-08-19T07:53:50.566Z</time>
      </trkpt>
      <trkpt lat="45.92666" lon="6.34994">
        <ele>1978</ele>
        <time>2026-08-19T07:53:51.566Z</time>
      </trkpt>
      <trkpt lat="45.92666" lon="6.34994">
        <ele>1978</ele>
        <time>2026-08-19T07:53:52.566Z</time>
      </trkpt>
      <trkpt lat="45.92666" lon="6.34994">
        <ele>1978</ele>
        <time>2026-08-19T07:53:53.566Z</time>
      </trkpt>
      <trkpt lat="45.92666" lon="6.34994">
        <ele>1978</ele>
        <time>2026-08-19T07:53:54.566Z</time>
      </trkpt>
      <trkpt lat="45.92665" lon="6.34994">
        <ele>1978</ele>
        <time>2026-08-19T07:53:55.566Z</time>
      </trkpt>
      <trkpt lat="45.92665" lon="6.34994">
        <ele>1978</ele>
        <time>2026-08-19T07:53:56.566Z</time>
      </trkpt>
      <trkpt lat="45.92665" lon="6.34994">
        <ele>1978</ele>
        <time>2026-08-19T07:53:57.566Z</time>
      </trkpt>
      <trkpt lat="45.92665" lon="6.34993">
        <ele>1978</ele>
        <time>2026-08-19T07:53:58.566Z</time>
      </trkpt>
      <trkpt lat="45.92665" lon="6.34994">
        <ele>1978</ele>
        <time>2026-08-19T07:53:59.566Z</time>
      </trkpt>
      <trkpt lat="45.92665" lon="6.34994">
        <ele>1978</ele>
        <time>2026-08-19T07:54:00.566Z</time>
      </trkpt>
      <trkpt lat="45.92665" lon="6.34994">
        <ele>1977</ele>
        <time>2026-08-19T07:54:01.566Z</time>
      </trkpt>
      <trkpt lat="45.92665" lon="6.34993">
        <ele>1977</ele>
        <time>2026-08-19T07:54:02.566Z</time>
      </trkpt>
      <trkpt lat="45.92664" lon="6.34993">
        <ele>1977</ele>
        <time>2026-08-19T07:54:03.566Z</time>
      </trkpt>
      <trkpt lat="45.92664" lon="6.34992">
        <ele>1977</ele>
        <time>2026-08-19T07:54:04.566Z</time>
      </trkpt>
      <trkpt lat="45.92664" lon="6.34992">
        <ele>1976</ele>
        <time>2026-08-19T07:54:05.566Z</time>
      </trkpt>
      <trkpt lat="45.92664" lon="6.34992">
        <ele>1976</ele>
        <time>2026-08-19T07:54:06.566Z</time>
      </trkpt>
      <trkpt lat="45.92664" lon="6.34991">
        <ele>1975</ele>
        <time>2026-08-19T07:54:07.566Z</time>
      </trkpt>
      <trkpt lat="45.92664" lon="6.34991">
        <ele>1975</ele>
        <time>2026-08-19T07:54:08.566Z</time>
      </trkpt>
      <trkpt lat="45.92664" lon="6.34991">
        <ele>1975</ele>
        <time>2026-08-19T07:54:09.566Z</time>
      </trkpt>
      <trkpt lat="45.92664" lon="6.34991">
        <ele>1975</ele>
        <time>2026-08-19T07:54:10.566Z</time>
      </trkpt>
      <trkpt lat="45.92664" lon="6.34991">
        <ele>1975</ele>
        <time>2026-08-19T07:54:11.566Z</time>
      </trkpt>
      <trkpt lat="45.92664" lon="6.34991">
        <ele>1975</ele>
        <time>2026-08-19T07:54:12.566Z</time>
      </trkpt>
      <trkpt lat="45.92664" lon="6.34991">
        <ele>1975</ele>
        <time>2026-08-19T07:54:13.566Z</time>
      </trkpt>
      <trkpt lat="45.92664" lon="6.34991">
        <ele>1975</ele>
        <time>2026-08-19T07:54:14.566Z</time>
      </trkpt>
      <trkpt lat="45.92664" lon="6.34991">
        <ele>1975</ele>
        <time>2026-08-19T07:54:15.566Z</time>
      </trkpt>
      <trkpt lat="45.92664" lon="6.34991">
        <ele>1975</ele>
        <time>2026-08-19T07:54:16.566Z</time>
      </trkpt>
      <trkpt lat="45.92664" lon="6.34991">
        <ele>1976</ele>
        <time>2026-08-19T07:54:17.566Z</time>
      </trkpt>
      <trkpt lat="45.92664" lon="6.34991">
        <ele>1976</ele>
        <time>2026-08-19T07:54:18.566Z</time>
      </trkpt>
      <trkpt lat="45.92664" lon="6.34991">
        <ele>1976</ele>
        <time>2026-08-19T07:54:19.566Z</time>
      </trkpt>
      <trkpt lat="45.92664" lon="6.34991">
        <ele>1976</ele>
        <time>2026-08-19T07:54:20.566Z</time>
      </trkpt>
      <trkpt lat="45.92664" lon="6.34991">
        <ele>1975</ele>
        <time>2026-08-19T07:54:21.566Z</time>
      </trkpt>
      <trkpt lat="45.92664" lon="6.34991">
        <ele>1975</ele>
        <time>2026-08-19T07:54:22.566Z</time>
      </trkpt>
      <trkpt lat="45.92664" lon="6.34991">
        <ele>1975</ele>
        <time>2026-08-19T07:54:23.566Z</time>
      </trkpt>
      <trkpt lat="45.92664" lon="6.34991">
        <ele>1975</ele>
        <time>2026-08-19T07:54:24.566Z</time>
      </trkpt>
      <trkpt lat="45.92664" lon="6.34991">
        <ele>1975</ele>
        <time>2026-08-19T07:54:25.566Z</time>
      </trkpt>
      <trkpt lat="45.92664" lon="6.34991">
        <ele>1975</ele>
        <time>2026-08-19T07:54:26.566Z</time>
      </trkpt>
      <trkpt lat="45.92664" lon="6.34992">
        <ele>1976</ele>
        <time>2026-08-19T07:54:27.566Z</time>
      </trkpt>
      <trkpt lat="45.92664" lon="6.34992">
        <ele>1976</ele>
        <time>2026-08-19T07:54:28.566Z</time>
      </trkpt>
      <trkpt lat="45.92664" lon="6.34992">
        <ele>1976</ele>
        <time>2026-08-19T07:54:29.566Z</time>
      </trkpt>
      <trkpt lat="45.92664" lon="6.34991">
        <ele>1976</ele>
        <time>2026-08-19T07:54:30.566Z</time>
      </trkpt>
      <trkpt lat="45.92664" lon="6.34991">
        <ele>1976</ele>
        <time>2026-08-19T07:54:31.566Z</time>
      </trkpt>
      <trkpt lat="45.92663" lon="6.34991">
        <ele>1976</ele>
        <time>2026-08-19T07:54:32.566Z</time>
      </trkpt>
      <trkpt lat="45.92663" lon="6.3499">
        <ele>1976</ele>
        <time>2026-08-19T07:54:33.566Z</time>
      </trkpt>
      <trkpt lat="45.92663" lon="6.3499">
        <ele>1976</ele>
        <time>2026-08-19T07:54:34.566Z</time>
      </trkpt>
      <trkpt lat="45.92663" lon="6.3499">
        <ele>1976</ele>
        <time>2026-08-19T07:54:35.566Z</time>
      </trkpt>
      <trkpt lat="45.92663" lon="6.3499">
        <ele>1976</ele>
        <time>2026-08-19T07:54:36.566Z</time>
      </trkpt>
      <trkpt lat="45.92663" lon="6.3499">
        <ele>1976</ele>
        <time>2026-08-19T07:54:37.566Z</time>
      </trkpt>
      <trkpt lat="45.92663" lon="6.3499">
        <ele>1976</ele>
        <time>2026-08-19T07:54:38.566Z</time>
      </trkpt>
      <trkpt lat="45.92663" lon="6.3499">
        <ele>1976</ele>
        <time>2026-08-19T07:54:39.566Z</time>
      </trkpt>
      <trkpt lat="45.92663" lon="6.3499">
        <ele>1976</ele>
        <time>2026-08-19T07:54:40.566Z</time>
      </trkpt>
      <trkpt lat="45.92662" lon="6.3499">
        <ele>1976</ele>
        <time>2026-08-19T07:54:41.566Z</time>
      </trkpt>
      <trkpt lat="45.92662" lon="6.3499">
        <ele>1976</ele>
        <time>2026-08-19T07:54:42.566Z</time>
      </trkpt>
      <trkpt lat="45.92662" lon="6.3499">
        <ele>1976</ele>
        <time>2026-08-19T07:54:43.566Z</time>
      </trkpt>
      <trkpt lat="45.92662" lon="6.3499">
        <ele>1976</ele>
        <time>2026-08-19T07:54:44.566Z</time>
      </trkpt>
      <trkpt lat="45.92662" lon="6.3499">
        <ele>1976</ele>
        <time>2026-08-19T07:54:45.566Z</time>
      </trkpt>
      <trkpt lat="45.92662" lon="6.3499">
        <ele>1976</ele>
        <time>2026-08-19T07:54:46.566Z</time>
      </trkpt>
      <trkpt lat="45.92662" lon="6.3499">
        <ele>1976</ele>
        <time>2026-08-19T07:54:47.566Z</time>
      </trkpt>
      <trkpt lat="45.92662" lon="6.3499">
        <ele>1976</ele>
        <time>2026-08-19T07:54:48.566Z</time>
      </trkpt>
      <trkpt lat="45.92662" lon="6.3499">
        <ele>1976</ele>
        <time>2026-08-19T07:54:49.566Z</time>
      </trkpt>
      <trkpt lat="45.92662" lon="6.3499">
        <ele>1976</ele>
        <time>2026-08-19T07:54:50.566Z</time>
      </trkpt>
      <trkpt lat="45.92662" lon="6.3499">
        <ele>1977</ele>
        <time>2026-08-19T07:54:51.566Z</time>
      </trkpt>
      <trkpt lat="45.92662" lon="6.3499">
        <ele>1977</ele>
        <time>2026-08-19T07:54:52.566Z</time>
      </trkpt>
      <trkpt lat="45.92662" lon="6.3499">
        <ele>1977</ele>
        <time>2026-08-19T07:54:53.566Z</time>
      </trkpt>
      <trkpt lat="45.92662" lon="6.34989">
        <ele>1977</ele>
        <time>2026-08-19T07:54:54.566Z</time>
      </trkpt>
      <trkpt lat="45.92662" lon="6.34989">
        <ele>1977</ele>
        <time>2026-08-19T07:54:55.566Z</time>
      </trkpt>
      <trkpt lat="45.92662" lon="6.34989">
        <ele>1977</ele>
        <time>2026-08-19T07:54:56.566Z</time>
      </trkpt>
      <trkpt lat="45.92662" lon="6.34989">
        <ele>1977</ele>
        <time>2026-08-19T07:54:57.566Z</time>
      </trkpt>
      <trkpt lat="45.92662" lon="6.34989">
        <ele>1977</ele>
        <time>2026-08-19T07:54:58.566Z</time>
      </trkpt>
      <trkpt lat="45.92662" lon="6.34989">
        <ele>1977</ele>
        <time>2026-08-19T07:54:59.566Z</time>
      </trkpt>
      <trkpt lat="45.92662" lon="6.34989">
        <ele>1977</ele>
        <time>2026-08-19T07:55:00.566Z</time>
      </trkpt>
      <trkpt lat="45.92662" lon="6.34989">
        <ele>1977</ele>
        <time>2026-08-19T07:55:01.567Z</time>
      </trkpt>
      <trkpt lat="45.92662" lon="6.34989">
        <ele>1977</ele>
        <time>2026-08-19T07:55:02.566Z</time>
      </trkpt>
      <trkpt lat="45.92662" lon="6.34989">
        <ele>1977</ele>
        <time>2026-08-19T07:55:03.566Z</time>
      </trkpt>
      <trkpt lat="45.92662" lon="6.34989">
        <ele>1977</ele>
        <time>2026-08-19T07:55:04.566Z</time>
      </trkpt>
      <trkpt lat="45.92662" lon="6.34989">
        <ele>1977</ele>
        <time>2026-08-19T07:55:05.566Z</time>
      </trkpt>
      <trkpt lat="45.92662" lon="6.34989">
        <ele>1977</ele>
        <time>2026-08-19T07:55:06.566Z</time>
      </trkpt>
      <trkpt lat="45.92662" lon="6.34989">
        <ele>1977</ele>
        <time>2026-08-19T07:55:07.566Z</time>
      </trkpt>
      <trkpt lat="45.92661" lon="6.34989">
        <ele>1977</ele>
        <time>2026-08-19T07:55:08.566Z</time>
      </trkpt>
      <trkpt lat="45.92661" lon="6.34989">
        <ele>1977</ele>
        <time>2026-08-19T07:55:09.566Z</time>
      </trkpt>
      <trkpt lat="45.92661" lon="6.34989">
        <ele>1977</ele>
        <time>2026-08-19T07:55:10.566Z</time>
      </trkpt>
      <trkpt lat="45.92661" lon="6.34989">
        <ele>1977</ele>
        <time>2026-08-19T07:55:11.566Z</time>
      </trkpt>
      <trkpt lat="45.92661" lon="6.34989">
        <ele>1978</ele>
        <time>2026-08-19T07:55:12.566Z</time>
      </trkpt>
      <trkpt lat="45.92661" lon="6.34989">
        <ele>1978</ele>
        <time>2026-08-19T07:55:13.566Z</time>
      </trkpt>
      <trkpt lat="45.92661" lon="6.34989">
        <ele>1978</ele>
        <time>2026-08-19T07:55:14.566Z</time>
      </trkpt>
      <trkpt lat="45.92661" lon="6.3499">
        <ele>1978</ele>
        <time>2026-08-19T07:55:15.566Z</time>
      </trkpt>
      <trkpt lat="45.92661" lon="6.3499">
        <ele>1978</ele>
        <time>2026-08-19T07:55:16.566Z</time>
      </trkpt>
      <trkpt lat="45.92661" lon="6.3499">
        <ele>1978</ele>
        <time>2026-08-19T07:55:17.566Z</time>
      </trkpt>
      <trkpt lat="45.92662" lon="6.34992">
        <ele>1978</ele>
        <time>2026-08-19T07:55:18.566Z</time>
      </trkpt>
      <trkpt lat="45.92662" lon="6.34993">
        <ele>1978</ele>
        <time>2026-08-19T07:55:19.566Z</time>
      </trkpt>
      <trkpt lat="45.92663" lon="6.34993">
        <ele>1978</ele>
        <time>2026-08-19T07:55:20.566Z</time>
      </trkpt>
      <trkpt lat="45.92663" lon="6.34994">
        <ele>1978</ele>
        <time>2026-08-19T07:55:21.566Z</time>
      </trkpt>
      <trkpt lat="45.92663" lon="6.34995">
        <ele>1978</ele>
        <time>2026-08-19T07:55:22.566Z</time>
      </trkpt>
      <trkpt lat="45.92664" lon="6.34996">
        <ele>1978</ele>
        <time>2026-08-19T07:55:23.566Z</time>
      </trkpt>
      <trkpt lat="45.92664" lon="6.34996">
        <ele>1979</ele>
        <time>2026-08-19T07:55:24.566Z</time>
      </trkpt>
      <trkpt lat="45.92664" lon="6.34997">
        <ele>1979</ele>
        <time>2026-08-19T07:55:25.566Z</time>
      </trkpt>
      <trkpt lat="45.92664" lon="6.34997">
        <ele>1979</ele>
        <time>2026-08-19T07:55:26.566Z</time>
      </trkpt>
      <trkpt lat="45.92664" lon="6.34997">
        <ele>1980</ele>
        <time>2026-08-19T07:55:27.566Z</time>
      </trkpt>
      <trkpt lat="45.92664" lon="6.34997">
        <ele>1981</ele>
        <time>2026-08-19T07:55:28.566Z</time>
      </trkpt>
      <trkpt lat="45.92664" lon="6.34997">
        <ele>1981</ele>
        <time>2026-08-19T07:55:29.566Z</time>
      </trkpt>
      <trkpt lat="45.92665" lon="6.34997">
        <ele>1982</ele>
        <time>2026-08-19T07:55:30.566Z</time>
      </trkpt>
      <trkpt lat="45.92665" lon="6.34997">
        <ele>1982</ele>
        <time>2026-08-19T07:55:31.566Z</time>
      </trkpt>
      <trkpt lat="45.92665" lon="6.34997">
        <ele>1983</ele>
        <time>2026-08-19T07:55:32.566Z</time>
      </trkpt>
      <trkpt lat="45.92665" lon="6.34997">
        <ele>1983</ele>
        <time>2026-08-19T07:55:33.566Z</time>
      </trkpt>
      <trkpt lat="45.92665" lon="6.34997">
        <ele>1984</ele>
        <time>2026-08-19T07:55:34.566Z</time>
      </trkpt>
      <trkpt lat="45.92665" lon="6.34997">
        <ele>1984</ele>
        <time>2026-08-19T07:55:35.566Z</time>
      </trkpt>
      <trkpt lat="45.92665" lon="6.34997">
        <ele>1984</ele>
        <time>2026-08-19T07:55:36.566Z</time>
      </trkpt>
      <trkpt lat="45.92665" lon="6.34997">
        <ele>1984</ele>
        <time>2026-08-19T07:55:37.566Z</time>
      </trkpt>
      <trkpt lat="45.92665" lon="6.34997">
        <ele>1984</ele>
        <time>2026-08-19T07:55:38.566Z</time>
      </trkpt>
      <trkpt lat="45.92665" lon="6.34997">
        <ele>1983</ele>
        <time>2026-08-19T07:55:39.566Z</time>
      </trkpt>
      <trkpt lat="45.92665" lon="6.34997">
        <ele>1983</ele>
        <time>2026-08-19T07:55:40.566Z</time>
      </trkpt>
      <trkpt lat="45.92665" lon="6.34997">
        <ele>1983</ele>
        <time>2026-08-19T07:55:41.566Z</time>
      </trkpt>
      <trkpt lat="45.92665" lon="6.34997">
        <ele>1983</ele>
        <time>2026-08-19T07:55:42.566Z</time>
      </trkpt>
      <trkpt lat="45.92665" lon="6.34997">
        <ele>1983</ele>
        <time>2026-08-19T07:55:43.566Z</time>
      </trkpt>
      <trkpt lat="45.92665" lon="6.34997">
        <ele>1983</ele>
        <time>2026-08-19T07:55:44.566Z</time>
      </trkpt>
      <trkpt lat="45.92665" lon="6.34997">
        <ele>1983</ele>
        <time>2026-08-19T07:55:45.566Z</time>
      </trkpt>
      <trkpt lat="45.92665" lon="6.34997">
        <ele>1982</ele>
        <time>2026-08-19T07:55:46.566Z</time>
      </trkpt>
      <trkpt lat="45.92665" lon="6.34997">
        <ele>1982</ele>
        <time>2026-08-19T07:55:47.566Z</time>
      </trkpt>
      <trkpt lat="45.92665" lon="6.34997">
        <ele>1982</ele>
        <time>2026-08-19T07:55:48.566Z</time>
      </trkpt>
      <trkpt lat="45.92665" lon="6.34997">
        <ele>1982</ele>
        <time>2026-08-19T07:55:49.566Z</time>
      </trkpt>
      <trkpt lat="45.92665" lon="6.34996">
        <ele>1982</ele>
        <time>2026-08-19T07:55:50.566Z</time>
      </trkpt>
      <trkpt lat="45.92665" lon="6.34996">
        <ele>1981</ele>
        <time>2026-08-19T07:55:51.566Z</time>
      </trkpt>
      <trkpt lat="45.92665" lon="6.34996">
        <ele>1981</ele>
        <time>2026-08-19T07:55:52.566Z</time>
      </trkpt>
      <trkpt lat="45.92665" lon="6.34995">
        <ele>1981</ele>
        <time>2026-08-19T07:55:53.566Z</time>
      </trkpt>
      <trkpt lat="45.92666" lon="6.34995">
        <ele>1981</ele>
        <time>2026-08-19T07:55:54.566Z</time>
      </trkpt>
      <trkpt lat="45.92666" lon="6.34995">
        <ele>1981</ele>
        <time>2026-08-19T07:55:55.566Z</time>
      </trkpt>
      <trkpt lat="45.92666" lon="6.34995">
        <ele>1981</ele>
        <time>2026-08-19T07:55:56.566Z</time>
      </trkpt>
      <trkpt lat="45.92666" lon="6.34995">
        <ele>1980</ele>
        <time>2026-08-19T07:55:57.566Z</time>
      </trkpt>
      <trkpt lat="45.92667" lon="6.34995">
        <ele>1980</ele>
        <time>2026-08-19T07:55:58.566Z</time>
      </trkpt>
      <trkpt lat="45.92667" lon="6.34995">
        <ele>1980</ele>
        <time>2026-08-19T07:55:59.566Z</time>
      </trkpt>
      <trkpt lat="45.92667" lon="6.34994">
        <ele>1980</ele>
        <time>2026-08-19T07:56:00.566Z</time>
      </trkpt>
      <trkpt lat="45.92667" lon="6.34993">
        <ele>1980</ele>
        <time>2026-08-19T07:56:01.566Z</time>
      </trkpt>
      <trkpt lat="45.92668" lon="6.34992">
        <ele>1980</ele>
        <time>2026-08-19T07:56:02.566Z</time>
      </trkpt>
      <trkpt lat="45.92668" lon="6.34992">
        <ele>1980</ele>
        <time>2026-08-19T07:56:03.566Z</time>
      </trkpt>
      <trkpt lat="45.92668" lon="6.34992">
        <ele>1980</ele>
        <time>2026-08-19T07:56:04.566Z</time>
      </trkpt>
      <trkpt lat="45.92668" lon="6.34992">
        <ele>1980</ele>
        <time>2026-08-19T07:56:05.566Z</time>
      </trkpt>
      <trkpt lat="45.92668" lon="6.34992">
        <ele>1980</ele>
        <time>2026-08-19T07:56:06.566Z</time>
      </trkpt>
      <trkpt lat="45.92668" lon="6.34992">
        <ele>1980</ele>
        <time>2026-08-19T07:56:07.566Z</time>
      </trkpt>
      <trkpt lat="45.92668" lon="6.34991">
        <ele>1980</ele>
        <time>2026-08-19T07:56:08.566Z</time>
      </trkpt>
      <trkpt lat="45.92668" lon="6.34991">
        <ele>1979</ele>
        <time>2026-08-19T07:56:09.566Z</time>
      </trkpt>
      <trkpt lat="45.92668" lon="6.34991">
        <ele>1979</ele>
        <time>2026-08-19T07:56:10.566Z</time>
      </trkpt>
      <trkpt lat="45.92668" lon="6.34991">
        <ele>1979</ele>
        <time>2026-08-19T07:56:11.566Z</time>
      </trkpt>
      <trkpt lat="45.92668" lon="6.3499">
        <ele>1979</ele>
        <time>2026-08-19T07:56:12.566Z</time>
      </trkpt>
      <trkpt lat="45.92668" lon="6.3499">
        <ele>1979</ele>
        <time>2026-08-19T07:56:13.566Z</time>
      </trkpt>
      <trkpt lat="45.92668" lon="6.34989">
        <ele>1979</ele>
        <time>2026-08-19T07:56:14.566Z</time>
      </trkpt>
      <trkpt lat="45.92668" lon="6.34989">
        <ele>1979</ele>
        <time>2026-08-19T07:56:15.566Z</time>
      </trkpt>
      <trkpt lat="45.92668" lon="6.34989">
        <ele>1979</ele>
        <time>2026-08-19T07:56:16.566Z</time>
      </trkpt>
      <trkpt lat="45.92668" lon="6.34988">
        <ele>1979</ele>
        <time>2026-08-19T07:56:17.566Z</time>
      </trkpt>
      <trkpt lat="45.92668" lon="6.34988">
        <ele>1979</ele>
        <time>2026-08-19T07:56:18.566Z</time>
      </trkpt>
      <trkpt lat="45.92668" lon="6.34988">
        <ele>1979</ele>
        <time>2026-08-19T07:56:19.566Z</time>
      </trkpt>
      <trkpt lat="45.92668" lon="6.34988">
        <ele>1979</ele>
        <time>2026-08-19T07:56:20.566Z</time>
      </trkpt>
      <trkpt lat="45.92668" lon="6.34987">
        <ele>1979</ele>
        <time>2026-08-19T07:56:21.566Z</time>
      </trkpt>
      <trkpt lat="45.92668" lon="6.34987">
        <ele>1979</ele>
        <time>2026-08-19T07:56:22.566Z</time>
      </trkpt>
      <trkpt lat="45.92668" lon="6.34987">
        <ele>1979</ele>
        <time>2026-08-19T07:56:23.566Z</time>
      </trkpt>
      <trkpt lat="45.92668" lon="6.34987">
        <ele>1979</ele>
        <time>2026-08-19T07:56:24.566Z</time>
      </trkpt>
      <trkpt lat="45.92669" lon="6.34987">
        <ele>1979</ele>
        <time>2026-08-19T07:56:25.566Z</time>
      </trkpt>
      <trkpt lat="45.92669" lon="6.34986">
        <ele>1979</ele>
        <time>2026-08-19T07:56:26.566Z</time>
      </trkpt>
      <trkpt lat="45.92669" lon="6.34986">
        <ele>1979</ele>
        <time>2026-08-19T07:56:27.566Z</time>
      </trkpt>
      <trkpt lat="45.92669" lon="6.34986">
        <ele>1979</ele>
        <time>2026-08-19T07:56:28.566Z</time>
      </trkpt>
      <trkpt lat="45.92669" lon="6.34986">
        <ele>1979</ele>
        <time>2026-08-19T07:56:29.566Z</time>
      </trkpt>
      <trkpt lat="45.92669" lon="6.34986">
        <ele>1979</ele>
        <time>2026-08-19T07:56:30.566Z</time>
      </trkpt>
      <trkpt lat="45.9267" lon="6.34986">
        <ele>1979</ele>
        <time>2026-08-19T07:56:31.566Z</time>
      </trkpt>
      <trkpt lat="45.9267" lon="6.34986">
        <ele>1979</ele>
        <time>2026-08-19T07:56:32.566Z</time>
      </trkpt>
      <trkpt lat="45.9267" lon="6.34986">
        <ele>1979</ele>
        <time>2026-08-19T07:56:33.566Z</time>
      </trkpt>
      <trkpt lat="45.9267" lon="6.34986">
        <ele>1978</ele>
        <time>2026-08-19T07:56:34.566Z</time>
      </trkpt>
      <trkpt lat="45.9267" lon="6.34986">
        <ele>1978</ele>
        <time>2026-08-19T07:56:35.566Z</time>
      </trkpt>
      <trkpt lat="45.92671" lon="6.34986">
        <ele>1978</ele>
        <time>2026-08-19T07:56:36.566Z</time>
      </trkpt>
      <trkpt lat="45.92672" lon="6.34986">
        <ele>1978</ele>
        <time>2026-08-19T07:56:37.566Z</time>
      </trkpt>
      <trkpt lat="45.92672" lon="6.34986">
        <ele>1978</ele>
        <time>2026-08-19T07:56:38.566Z</time>
      </trkpt>
      <trkpt lat="45.92673" lon="6.34986">
        <ele>1978</ele>
        <time>2026-08-19T07:56:39.567Z</time>
      </trkpt>
      <trkpt lat="45.92674" lon="6.34986">
        <ele>1978</ele>
        <time>2026-08-19T07:56:40.566Z</time>
      </trkpt>
      <trkpt lat="45.92675" lon="6.34986">
        <ele>1978</ele>
        <time>2026-08-19T07:56:41.566Z</time>
      </trkpt>
      <trkpt lat="45.92675" lon="6.34985">
        <ele>1978</ele>
        <time>2026-08-19T07:56:42.566Z</time>
      </trkpt>
      <trkpt lat="45.92674" lon="6.34984">
        <ele>1978</ele>
        <time>2026-08-19T07:56:43.566Z</time>
      </trkpt>
      <trkpt lat="45.92673" lon="6.34984">
        <ele>1978</ele>
        <time>2026-08-19T07:56:44.566Z</time>
      </trkpt>
      <trkpt lat="45.92673" lon="6.34983">
        <ele>1978</ele>
        <time>2026-08-19T07:56:45.566Z</time>
      </trkpt>
      <trkpt lat="45.92673" lon="6.34983">
        <ele>1978</ele>
        <time>2026-08-19T07:56:46.566Z</time>
      </trkpt>
      <trkpt lat="45.92673" lon="6.34983">
        <ele>1978</ele>
        <time>2026-08-19T07:56:47.566Z</time>
      </trkpt>
      <trkpt lat="45.92673" lon="6.34983">
        <ele>1979</ele>
        <time>2026-08-19T07:56:48.566Z</time>
      </trkpt>
      <trkpt lat="45.92673" lon="6.34983">
        <ele>1979</ele>
        <time>2026-08-19T07:56:49.566Z</time>
      </trkpt>
      <trkpt lat="45.92673" lon="6.34983">
        <ele>1979</ele>
        <time>2026-08-19T07:56:50.566Z</time>
      </trkpt>
      <trkpt lat="45.92673" lon="6.34983">
        <ele>1980</ele>
        <time>2026-08-19T07:56:51.566Z</time>
      </trkpt>
      <trkpt lat="45.92673" lon="6.34983">
        <ele>1980</ele>
        <time>2026-08-19T07:56:52.566Z</time>
      </trkpt>
      <trkpt lat="45.92674" lon="6.34982">
        <ele>1980</ele>
        <time>2026-08-19T07:56:53.566Z</time>
      </trkpt>
      <trkpt lat="45.92674" lon="6.34982">
        <ele>1980</ele>
        <time>2026-08-19T07:56:54.566Z</time>
      </trkpt>
      <trkpt lat="45.92675" lon="6.34982">
        <ele>1980</ele>
        <time>2026-08-19T07:56:55.566Z</time>
      </trkpt>
      <trkpt lat="45.92675" lon="6.34981">
        <ele>1980</ele>
        <time>2026-08-19T07:56:56.566Z</time>
      </trkpt>
      <trkpt lat="45.92676" lon="6.34981">
        <ele>1981</ele>
        <time>2026-08-19T07:56:57.566Z</time>
      </trkpt>
      <trkpt lat="45.92676" lon="6.34981">
        <ele>1981</ele>
        <time>2026-08-19T07:56:58.566Z</time>
      </trkpt>
      <trkpt lat="45.92676" lon="6.34981">
        <ele>1981</ele>
        <time>2026-08-19T07:56:59.566Z</time>
      </trkpt>
      <trkpt lat="45.92676" lon="6.34981">
        <ele>1981</ele>
        <time>2026-08-19T07:57:00.566Z</time>
      </trkpt>
      <trkpt lat="45.92676" lon="6.34981">
        <ele>1982</ele>
        <time>2026-08-19T07:57:01.566Z</time>
      </trkpt>
      <trkpt lat="45.92676" lon="6.34981">
        <ele>1982</ele>
        <time>2026-08-19T07:57:02.566Z</time>
      </trkpt>
      <trkpt lat="45.92676" lon="6.34981">
        <ele>1983</ele>
        <time>2026-08-19T07:57:03.566Z</time>
      </trkpt>
      <trkpt lat="45.92676" lon="6.34981">
        <ele>1983</ele>
        <time>2026-08-19T07:57:04.566Z</time>
      </trkpt>
      <trkpt lat="45.92676" lon="6.34981">
        <ele>1983</ele>
        <time>2026-08-19T07:57:05.566Z</time>
      </trkpt>
      <trkpt lat="45.92676" lon="6.34981">
        <ele>1984</ele>
        <time>2026-08-19T07:57:06.566Z</time>
      </trkpt>
      <trkpt lat="45.92676" lon="6.34981">
        <ele>1984</ele>
        <time>2026-08-19T07:57:07.566Z</time>
      </trkpt>
      <trkpt lat="45.92676" lon="6.34981">
        <ele>1984</ele>
        <time>2026-08-19T07:57:08.566Z</time>
      </trkpt>
      <trkpt lat="45.92676" lon="6.34981">
        <ele>1984</ele>
        <time>2026-08-19T07:57:09.566Z</time>
      </trkpt>
      <trkpt lat="45.92676" lon="6.34981">
        <ele>1985</ele>
        <time>2026-08-19T07:57:10.566Z</time>
      </trkpt>
      <trkpt lat="45.92676" lon="6.34981">
        <ele>1985</ele>
        <time>2026-08-19T07:57:11.566Z</time>
      </trkpt>
      <trkpt lat="45.92676" lon="6.34981">
        <ele>1985</ele>
        <time>2026-08-19T07:57:12.566Z</time>
      </trkpt>
      <trkpt lat="45.92676" lon="6.34981">
        <ele>1985</ele>
        <time>2026-08-19T07:57:13.566Z</time>
      </trkpt>
      <trkpt lat="45.92676" lon="6.34981">
        <ele>1985</ele>
        <time>2026-08-19T07:57:14.566Z</time>
      </trkpt>
      <trkpt lat="45.92676" lon="6.34981">
        <ele>1985</ele>
        <time>2026-08-19T07:57:15.567Z</time>
      </trkpt>
      <trkpt lat="45.92676" lon="6.34981">
        <ele>1985</ele>
        <time>2026-08-19T07:57:16.566Z</time>
      </trkpt>
      <trkpt lat="45.92676" lon="6.34981">
        <ele>1985</ele>
        <time>2026-08-19T07:57:17.566Z</time>
      </trkpt>
      <trkpt lat="45.92676" lon="6.34981">
        <ele>1986</ele>
        <time>2026-08-19T07:57:18.566Z</time>
      </trkpt>
      <trkpt lat="45.92676" lon="6.34981">
        <ele>1986</ele>
        <time>2026-08-19T07:57:19.566Z</time>
      </trkpt>
      <trkpt lat="45.92676" lon="6.34981">
        <ele>1986</ele>
        <time>2026-08-19T07:57:20.566Z</time>
      </trkpt>
      <trkpt lat="45.92676" lon="6.34981">
        <ele>1986</ele>
        <time>2026-08-19T07:57:21.566Z</time>
      </trkpt>
      <trkpt lat="45.92676" lon="6.34981">
        <ele>1986</ele>
        <time>2026-08-19T07:57:22.566Z</time>
      </trkpt>
      <trkpt lat="45.92676" lon="6.34981">
        <ele>1986</ele>
        <time>2026-08-19T07:57:23.566Z</time>
      </trkpt>
      <trkpt lat="45.92677" lon="6.34981">
        <ele>1986</ele>
        <time>2026-08-19T07:57:24.566Z</time>
      </trkpt>
      <trkpt lat="45.92677" lon="6.34981">
        <ele>1986</ele>
        <time>2026-08-19T07:57:25.566Z</time>
      </trkpt>
      <trkpt lat="45.92678" lon="6.3498">
        <ele>1986</ele>
        <time>2026-08-19T07:57:26.566Z</time>
      </trkpt>
      <trkpt lat="45.92678" lon="6.3498">
        <ele>1986</ele>
        <time>2026-08-19T07:57:27.566Z</time>
      </trkpt>
      <trkpt lat="45.92679" lon="6.3498">
        <ele>1986</ele>
        <time>2026-08-19T07:57:28.566Z</time>
      </trkpt>
      <trkpt lat="45.9268" lon="6.3498">
        <ele>1986</ele>
        <time>2026-08-19T07:57:29.566Z</time>
      </trkpt>
      <trkpt lat="45.92681" lon="6.3498">
        <ele>1986</ele>
        <time>2026-08-19T07:57:30.566Z</time>
      </trkpt>
      <trkpt lat="45.92681" lon="6.3498">
        <ele>1986</ele>
        <time>2026-08-19T07:57:31.566Z</time>
      </trkpt>
      <trkpt lat="45.92681" lon="6.3498">
        <ele>1986</ele>
        <time>2026-08-19T07:57:32.566Z</time>
      </trkpt>
      <trkpt lat="45.92682" lon="6.3498">
        <ele>1986</ele>
        <time>2026-08-19T07:57:33.566Z</time>
      </trkpt>
      <trkpt lat="45.92682" lon="6.3498">
        <ele>1985</ele>
        <time>2026-08-19T07:57:34.566Z</time>
      </trkpt>
      <trkpt lat="45.92682" lon="6.34981">
        <ele>1985</ele>
        <time>2026-08-19T07:57:35.566Z</time>
      </trkpt>
      <trkpt lat="45.92682" lon="6.34982">
        <ele>1985</ele>
        <time>2026-08-19T07:57:36.566Z</time>
      </trkpt>
      <trkpt lat="45.92683" lon="6.34983">
        <ele>1985</ele>
        <time>2026-08-19T07:57:37.566Z</time>
      </trkpt>
      <trkpt lat="45.92683" lon="6.34983">
        <ele>1985</ele>
        <time>2026-08-19T07:57:38.566Z</time>
      </trkpt>
      <trkpt lat="45.92684" lon="6.34984">
        <ele>1985</ele>
        <time>2026-08-19T07:57:39.566Z</time>
      </trkpt>
      <trkpt lat="45.92684" lon="6.34984">
        <ele>1985</ele>
        <time>2026-08-19T07:57:40.566Z</time>
      </trkpt>
      <trkpt lat="45.92684" lon="6.34985">
        <ele>1985</ele>
        <time>2026-08-19T07:57:41.566Z</time>
      </trkpt>
      <trkpt lat="45.92684" lon="6.34985">
        <ele>1985</ele>
        <time>2026-08-19T07:57:42.566Z</time>
      </trkpt>
      <trkpt lat="45.92684" lon="6.34985">
        <ele>1985</ele>
        <time>2026-08-19T07:57:43.566Z</time>
      </trkpt>
      <trkpt lat="45.92684" lon="6.34985">
        <ele>1985</ele>
        <time>2026-08-19T07:57:44.566Z</time>
      </trkpt>
      <trkpt lat="45.92685" lon="6.34985">
        <ele>1985</ele>
        <time>2026-08-19T07:57:45.566Z</time>
      </trkpt>
      <trkpt lat="45.92685" lon="6.34986">
        <ele>1985</ele>
        <time>2026-08-19T07:57:46.566Z</time>
      </trkpt>
      <trkpt lat="45.92685" lon="6.34986">
        <ele>1986</ele>
        <time>2026-08-19T07:57:47.566Z</time>
      </trkpt>
      <trkpt lat="45.92686" lon="6.34986">
        <ele>1986</ele>
        <time>2026-08-19T07:57:48.566Z</time>
      </trkpt>
      <trkpt lat="45.92686" lon="6.34986">
        <ele>1987</ele>
        <time>2026-08-19T07:57:49.566Z</time>
      </trkpt>
      <trkpt lat="45.92686" lon="6.34986">
        <ele>1987</ele>
        <time>2026-08-19T07:57:50.566Z</time>
      </trkpt>
      <trkpt lat="45.92686" lon="6.34986">
        <ele>1988</ele>
        <time>2026-08-19T07:57:51.566Z</time>
      </trkpt>
      <trkpt lat="45.92686" lon="6.34986">
        <ele>1988</ele>
        <time>2026-08-19T07:57:52.566Z</time>
      </trkpt>
      <trkpt lat="45.92686" lon="6.34986">
        <ele>1989</ele>
        <time>2026-08-19T07:57:53.566Z</time>
      </trkpt>
      <trkpt lat="45.92686" lon="6.34986">
        <ele>1989</ele>
        <time>2026-08-19T07:57:54.566Z</time>
      </trkpt>
      <trkpt lat="45.92686" lon="6.34986">
        <ele>1989</ele>
        <time>2026-08-19T07:57:55.566Z</time>
      </trkpt>
      <trkpt lat="45.92686" lon="6.34986">
        <ele>1989</ele>
        <time>2026-08-19T07:57:56.566Z</time>
      </trkpt>
      <trkpt lat="45.92686" lon="6.34986">
        <ele>1989</ele>
        <time>2026-08-19T07:57:57.566Z</time>
      </trkpt>
      <trkpt lat="45.92686" lon="6.34986">
        <ele>1990</ele>
        <time>2026-08-19T07:57:58.566Z</time>
      </trkpt>
      <trkpt lat="45.92686" lon="6.34986">
        <ele>1990</ele>
        <time>2026-08-19T07:57:59.566Z</time>
      </trkpt>
      <trkpt lat="45.92686" lon="6.34986">
        <ele>1990</ele>
        <time>2026-08-19T07:58:00.566Z</time>
      </trkpt>
      <trkpt lat="45.92686" lon="6.34986">
        <ele>1990</ele>
        <time>2026-08-19T07:58:01.566Z</time>
      </trkpt>
      <trkpt lat="45.92686" lon="6.34986">
        <ele>1990</ele>
        <time>2026-08-19T07:58:02.566Z</time>
      </trkpt>
      <trkpt lat="45.92686" lon="6.34986">
        <ele>1990</ele>
        <time>2026-08-19T07:58:03.566Z</time>
      </trkpt>
      <trkpt lat="45.92686" lon="6.34986">
        <ele>1990</ele>
        <time>2026-08-19T07:58:04.566Z</time>
      </trkpt>
      <trkpt lat="45.92686" lon="6.34986">
        <ele>1990</ele>
        <time>2026-08-19T07:58:05.566Z</time>
      </trkpt>
      <trkpt lat="45.92686" lon="6.34986">
        <ele>1990</ele>
        <time>2026-08-19T07:58:06.566Z</time>
      </trkpt>
      <trkpt lat="45.92686" lon="6.34986">
        <ele>1990</ele>
        <time>2026-08-19T07:58:07.566Z</time>
      </trkpt>
      <trkpt lat="45.92686" lon="6.34987">
        <ele>1990</ele>
        <time>2026-08-19T07:58:08.566Z</time>
      </trkpt>
      <trkpt lat="45.92686" lon="6.34987">
        <ele>1991</ele>
        <time>2026-08-19T07:58:09.566Z</time>
      </trkpt>
      <trkpt lat="45.92686" lon="6.34987">
        <ele>1991</ele>
        <time>2026-08-19T07:58:10.566Z</time>
      </trkpt>
      <trkpt lat="45.92686" lon="6.34987">
        <ele>1991</ele>
        <time>2026-08-19T07:58:11.566Z</time>
      </trkpt>
      <trkpt lat="45.92686" lon="6.34987">
        <ele>1991</ele>
        <time>2026-08-19T07:58:12.566Z</time>
      </trkpt>
      <trkpt lat="45.92686" lon="6.34987">
        <ele>1991</ele>
        <time>2026-08-19T07:58:13.566Z</time>
      </trkpt>
      <trkpt lat="45.92686" lon="6.34988">
        <ele>1991</ele>
        <time>2026-08-19T07:58:14.566Z</time>
      </trkpt>
      <trkpt lat="45.92686" lon="6.34988">
        <ele>1991</ele>
        <time>2026-08-19T07:58:15.566Z</time>
      </trkpt>
      <trkpt lat="45.92686" lon="6.34988">
        <ele>1991</ele>
        <time>2026-08-19T07:58:16.566Z</time>
      </trkpt>
      <trkpt lat="45.92686" lon="6.34988">
        <ele>1991</ele>
        <time>2026-08-19T07:58:17.566Z</time>
      </trkpt>
      <trkpt lat="45.92686" lon="6.34988">
        <ele>1991</ele>
        <time>2026-08-19T07:58:18.566Z</time>
      </trkpt>
      <trkpt lat="45.92686" lon="6.34988">
        <ele>1991</ele>
        <time>2026-08-19T07:58:19.566Z</time>
      </trkpt>
      <trkpt lat="45.92686" lon="6.34988">
        <ele>1991</ele>
        <time>2026-08-19T07:58:20.566Z</time>
      </trkpt>
      <trkpt lat="45.92687" lon="6.34988">
        <ele>1991</ele>
        <time>2026-08-19T07:58:21.566Z</time>
      </trkpt>
      <trkpt lat="45.92687" lon="6.34988">
        <ele>1991</ele>
        <time>2026-08-19T07:58:22.566Z</time>
      </trkpt>
      <trkpt lat="45.92687" lon="6.34988">
        <ele>1991</ele>
        <time>2026-08-19T07:58:23.566Z</time>
      </trkpt>
      <trkpt lat="45.92687" lon="6.34988">
        <ele>1991</ele>
        <time>2026-08-19T07:58:24.566Z</time>
      </trkpt>
      <trkpt lat="45.92688" lon="6.34988">
        <ele>1991</ele>
        <time>2026-08-19T07:58:25.566Z</time>
      </trkpt>
      <trkpt lat="45.92689" lon="6.34988">
        <ele>1991</ele>
        <time>2026-08-19T07:58:26.566Z</time>
      </trkpt>
      <trkpt lat="45.92689" lon="6.34987">
        <ele>1991</ele>
        <time>2026-08-19T07:58:27.566Z</time>
      </trkpt>
      <trkpt lat="45.9269" lon="6.34987">
        <ele>1991</ele>
        <time>2026-08-19T07:58:28.566Z</time>
      </trkpt>
      <trkpt lat="45.9269" lon="6.34987">
        <ele>1992</ele>
        <time>2026-08-19T07:58:29.566Z</time>
      </trkpt>
      <trkpt lat="45.92691" lon="6.34987">
        <ele>1992</ele>
        <time>2026-08-19T07:58:30.566Z</time>
      </trkpt>
      <trkpt lat="45.92692" lon="6.34987">
        <ele>1993</ele>
        <time>2026-08-19T07:58:31.566Z</time>
      </trkpt>
      <trkpt lat="45.92693" lon="6.34987">
        <ele>1993</ele>
        <time>2026-08-19T07:58:32.566Z</time>
      </trkpt>
      <trkpt lat="45.92694" lon="6.34987">
        <ele>1993</ele>
        <time>2026-08-19T07:58:33.566Z</time>
      </trkpt>
      <trkpt lat="45.92694" lon="6.34987">
        <ele>1993</ele>
        <time>2026-08-19T07:58:34.566Z</time>
      </trkpt>
      <trkpt lat="45.92695" lon="6.34987">
        <ele>1993</ele>
        <time>2026-08-19T07:58:35.566Z</time>
      </trkpt>
      <trkpt lat="45.92695" lon="6.34988">
        <ele>1993</ele>
        <time>2026-08-19T07:58:36.566Z</time>
      </trkpt>
      <trkpt lat="45.92695" lon="6.34988">
        <ele>1994</ele>
        <time>2026-08-19T07:58:37.566Z</time>
      </trkpt>
      <trkpt lat="45.92695" lon="6.34988">
        <ele>1994</ele>
        <time>2026-08-19T07:58:38.566Z</time>
      </trkpt>
      <trkpt lat="45.92695" lon="6.34988">
        <ele>1994</ele>
        <time>2026-08-19T07:58:39.566Z</time>
      </trkpt>
      <trkpt lat="45.92695" lon="6.34988">
        <ele>1994</ele>
        <time>2026-08-19T07:58:40.566Z</time>
      </trkpt>
      <trkpt lat="45.92695" lon="6.34988">
        <ele>1994</ele>
        <time>2026-08-19T07:58:41.566Z</time>
      </trkpt>
      <trkpt lat="45.92695" lon="6.34988">
        <ele>1995</ele>
        <time>2026-08-19T07:58:42.566Z</time>
      </trkpt>
      <trkpt lat="45.92695" lon="6.34988">
        <ele>1995</ele>
        <time>2026-08-19T07:58:43.566Z</time>
      </trkpt>
      <trkpt lat="45.92695" lon="6.34988">
        <ele>1995</ele>
        <time>2026-08-19T07:58:44.566Z</time>
      </trkpt>
      <trkpt lat="45.92695" lon="6.34988">
        <ele>1995</ele>
        <time>2026-08-19T07:58:45.566Z</time>
      </trkpt>
      <trkpt lat="45.92695" lon="6.34988">
        <ele>1996</ele>
        <time>2026-08-19T07:58:46.566Z</time>
      </trkpt>
      <trkpt lat="45.92695" lon="6.34988">
        <ele>1996</ele>
        <time>2026-08-19T07:58:47.566Z</time>
      </trkpt>
      <trkpt lat="45.92695" lon="6.34988">
        <ele>1996</ele>
        <time>2026-08-19T07:58:48.566Z</time>
      </trkpt>
      <trkpt lat="45.92695" lon="6.34988">
        <ele>1996</ele>
        <time>2026-08-19T07:58:49.566Z</time>
      </trkpt>
      <trkpt lat="45.92695" lon="6.34988">
        <ele>1996</ele>
        <time>2026-08-19T07:58:50.566Z</time>
      </trkpt>
      <trkpt lat="45.92696" lon="6.34988">
        <ele>1996</ele>
        <time>2026-08-19T07:58:51.566Z</time>
      </trkpt>
      <trkpt lat="45.92697" lon="6.34989">
        <ele>1996</ele>
        <time>2026-08-19T07:58:52.566Z</time>
      </trkpt>
      <trkpt lat="45.92698" lon="6.3499">
        <ele>1997</ele>
        <time>2026-08-19T07:58:53.566Z</time>
      </trkpt>
      <trkpt lat="45.92699" lon="6.34991">
        <ele>1997</ele>
        <time>2026-08-19T07:58:54.566Z</time>
      </trkpt>
      <trkpt lat="45.927" lon="6.34991">
        <ele>1997</ele>
        <time>2026-08-19T07:58:55.566Z</time>
      </trkpt>
      <trkpt lat="45.927" lon="6.34992">
        <ele>1997</ele>
        <time>2026-08-19T07:58:56.566Z</time>
      </trkpt>
      <trkpt lat="45.92701" lon="6.34992">
        <ele>1998</ele>
        <time>2026-08-19T07:58:57.566Z</time>
      </trkpt>
      <trkpt lat="45.92702" lon="6.34993">
        <ele>1998</ele>
        <time>2026-08-19T07:58:58.566Z</time>
      </trkpt>
      <trkpt lat="45.92703" lon="6.34993">
        <ele>1998</ele>
        <time>2026-08-19T07:58:59.566Z</time>
      </trkpt>
      <trkpt lat="45.92703" lon="6.34994">
        <ele>1999</ele>
        <time>2026-08-19T07:59:00.566Z</time>
      </trkpt>
      <trkpt lat="45.92703" lon="6.34994">
        <ele>1999</ele>
        <time>2026-08-19T07:59:01.566Z</time>
      </trkpt>
      <trkpt lat="45.92703" lon="6.34994">
        <ele>1999</ele>
        <time>2026-08-19T07:59:02.566Z</time>
      </trkpt>
      <trkpt lat="45.92703" lon="6.34994">
        <ele>1999</ele>
        <time>2026-08-19T07:59:03.566Z</time>
      </trkpt>
      <trkpt lat="45.92702" lon="6.34994">
        <ele>1999</ele>
        <time>2026-08-19T07:59:04.566Z</time>
      </trkpt>
      <trkpt lat="45.92702" lon="6.34994">
        <ele>2000</ele>
        <time>2026-08-19T07:59:05.566Z</time>
      </trkpt>
      <trkpt lat="45.92702" lon="6.34994">
        <ele>2000</ele>
        <time>2026-08-19T07:59:06.566Z</time>
      </trkpt>
      <trkpt lat="45.92702" lon="6.34994">
        <ele>2000</ele>
        <time>2026-08-19T07:59:07.566Z</time>
      </trkpt>
      <trkpt lat="45.92702" lon="6.34994">
        <ele>2000</ele>
        <time>2026-08-19T07:59:08.566Z</time>
      </trkpt>
      <trkpt lat="45.92702" lon="6.34994">
        <ele>2000</ele>
        <time>2026-08-19T07:59:09.566Z</time>
      </trkpt>
      <trkpt lat="45.92702" lon="6.34994">
        <ele>2000</ele>
        <time>2026-08-19T07:59:10.566Z</time>
      </trkpt>
      <trkpt lat="45.92702" lon="6.34994">
        <ele>2000</ele>
        <time>2026-08-19T07:59:11.566Z</time>
      </trkpt>
      <trkpt lat="45.92702" lon="6.34994">
        <ele>2000</ele>
        <time>2026-08-19T07:59:12.566Z</time>
      </trkpt>
      <trkpt lat="45.92702" lon="6.34994">
        <ele>2000</ele>
        <time>2026-08-19T07:59:13.566Z</time>
      </trkpt>
      <trkpt lat="45.92702" lon="6.34994">
        <ele>2000</ele>
        <time>2026-08-19T07:59:14.566Z</time>
      </trkpt>
      <trkpt lat="45.92702" lon="6.34994">
        <ele>2000</ele>
        <time>2026-08-19T07:59:15.566Z</time>
      </trkpt>
      <trkpt lat="45.92703" lon="6.34994">
        <ele>2000</ele>
        <time>2026-08-19T07:59:16.566Z</time>
      </trkpt>
      <trkpt lat="45.92703" lon="6.34994">
        <ele>1999</ele>
        <time>2026-08-19T07:59:17.566Z</time>
      </trkpt>
      <trkpt lat="45.92703" lon="6.34994">
        <ele>1999</ele>
        <time>2026-08-19T07:59:18.566Z</time>
      </trkpt>
      <trkpt lat="45.92703" lon="6.34994">
        <ele>1999</ele>
        <time>2026-08-19T07:59:19.566Z</time>
      </trkpt>
      <trkpt lat="45.92703" lon="6.34994">
        <ele>1999</ele>
        <time>2026-08-19T07:59:20.566Z</time>
      </trkpt>
      <trkpt lat="45.92703" lon="6.34994">
        <ele>1999</ele>
        <time>2026-08-19T07:59:21.566Z</time>
      </trkpt>
      <trkpt lat="45.92703" lon="6.34994">
        <ele>1999</ele>
        <time>2026-08-19T07:59:22.566Z</time>
      </trkpt>
      <trkpt lat="45.92703" lon="6.34995">
        <ele>1999</ele>
        <time>2026-08-19T07:59:23.566Z</time>
      </trkpt>
      <trkpt lat="45.92703" lon="6.34995">
        <ele>1999</ele>
        <time>2026-08-19T07:59:24.566Z</time>
      </trkpt>
      <trkpt lat="45.92704" lon="6.34996">
        <ele>1999</ele>
        <time>2026-08-19T07:59:25.566Z</time>
      </trkpt>
      <trkpt lat="45.92704" lon="6.34996">
        <ele>1999</ele>
        <time>2026-08-19T07:59:26.566Z</time>
      </trkpt>
      <trkpt lat="45.92704" lon="6.34997">
        <ele>1999</ele>
        <time>2026-08-19T07:59:27.566Z</time>
      </trkpt>
      <trkpt lat="45.92704" lon="6.34997">
        <ele>1999</ele>
        <time>2026-08-19T07:59:28.566Z</time>
      </trkpt>
      <trkpt lat="45.92704" lon="6.34998">
        <ele>1999</ele>
        <time>2026-08-19T07:59:29.566Z</time>
      </trkpt>
      <trkpt lat="45.92704" lon="6.34998">
        <ele>1999</ele>
        <time>2026-08-19T07:59:30.566Z</time>
      </trkpt>
      <trkpt lat="45.92704" lon="6.34999">
        <ele>1999</ele>
        <time>2026-08-19T07:59:31.566Z</time>
      </trkpt>
      <trkpt lat="45.92705" lon="6.35">
        <ele>1999</ele>
        <time>2026-08-19T07:59:32.566Z</time>
      </trkpt>
      <trkpt lat="45.92706" lon="6.35001">
        <ele>1999</ele>
        <time>2026-08-19T07:59:33.566Z</time>
      </trkpt>
      <trkpt lat="45.92707" lon="6.35003">
        <ele>1999</ele>
        <time>2026-08-19T07:59:34.566Z</time>
      </trkpt>
      <trkpt lat="45.92709" lon="6.35004">
        <ele>1999</ele>
        <time>2026-08-19T07:59:35.566Z</time>
      </trkpt>
      <trkpt lat="45.92709" lon="6.35005">
        <ele>1999</ele>
        <time>2026-08-19T07:59:36.566Z</time>
      </trkpt>
      <trkpt lat="45.9271" lon="6.35006">
        <ele>2000</ele>
        <time>2026-08-19T07:59:37.566Z</time>
      </trkpt>
      <trkpt lat="45.92711" lon="6.35008">
        <ele>2000</ele>
        <time>2026-08-19T07:59:38.566Z</time>
      </trkpt>
      <trkpt lat="45.92713" lon="6.35009">
        <ele>2000</ele>
        <time>2026-08-19T07:59:39.566Z</time>
      </trkpt>
      <trkpt lat="45.92714" lon="6.3501">
        <ele>2001</ele>
        <time>2026-08-19T07:59:40.566Z</time>
      </trkpt>
      <trkpt lat="45.92714" lon="6.35011">
        <ele>2001</ele>
        <time>2026-08-19T07:59:41.566Z</time>
      </trkpt>
      <trkpt lat="45.92715" lon="6.35011">
        <ele>2001</ele>
        <time>2026-08-19T07:59:42.566Z</time>
      </trkpt>
      <trkpt lat="45.92715" lon="6.35012">
        <ele>2001</ele>
        <time>2026-08-19T07:59:43.566Z</time>
      </trkpt>
      <trkpt lat="45.92716" lon="6.35013">
        <ele>2002</ele>
        <time>2026-08-19T07:59:44.566Z</time>
      </trkpt>
      <trkpt lat="45.92717" lon="6.35013">
        <ele>2002</ele>
        <time>2026-08-19T07:59:45.566Z</time>
      </trkpt>
      <trkpt lat="45.92717" lon="6.35013">
        <ele>2002</ele>
        <time>2026-08-19T07:59:46.566Z</time>
      </trkpt>
      <trkpt lat="45.92718" lon="6.35014">
        <ele>2002</ele>
        <time>2026-08-19T07:59:47.566Z</time>
      </trkpt>
      <trkpt lat="45.92718" lon="6.35014">
        <ele>2003</ele>
        <time>2026-08-19T07:59:48.566Z</time>
      </trkpt>
      <trkpt lat="45.92719" lon="6.35014">
        <ele>2003</ele>
        <time>2026-08-19T07:59:49.566Z</time>
      </trkpt>
      <trkpt lat="45.92719" lon="6.35014">
        <ele>2003</ele>
        <time>2026-08-19T07:59:50.566Z</time>
      </trkpt>
      <trkpt lat="45.9272" lon="6.35015">
        <ele>2003</ele>
        <time>2026-08-19T07:59:51.566Z</time>
      </trkpt>
      <trkpt lat="45.92721" lon="6.35015">
        <ele>2004</ele>
        <time>2026-08-19T07:59:52.566Z</time>
      </trkpt>
      <trkpt lat="45.92721" lon="6.35016">
        <ele>2004</ele>
        <time>2026-08-19T07:59:53.566Z</time>
      </trkpt>
      <trkpt lat="45.92721" lon="6.35016">
        <ele>2004</ele>
        <time>2026-08-19T07:59:54.566Z</time>
      </trkpt>
      <trkpt lat="45.92721" lon="6.35016">
        <ele>2004</ele>
        <time>2026-08-19T07:59:55.566Z</time>
      </trkpt>
      <trkpt lat="45.92722" lon="6.35016">
        <ele>2004</ele>
        <time>2026-08-19T07:59:56.566Z</time>
      </trkpt>
      <trkpt lat="45.92722" lon="6.35016">
        <ele>2004</ele>
        <time>2026-08-19T07:59:57.566Z</time>
      </trkpt>
      <trkpt lat="45.92722" lon="6.35017">
        <ele>2004</ele>
        <time>2026-08-19T07:59:58.566Z</time>
      </trkpt>
      <trkpt lat="45.92722" lon="6.35017">
        <ele>2004</ele>
        <time>2026-08-19T07:59:59.566Z</time>
      </trkpt>
      <trkpt lat="45.92722" lon="6.35017">
        <ele>2004</ele>
        <time>2026-08-19T08:00:00.566Z</time>
      </trkpt>
      <trkpt lat="45.92722" lon="6.35017">
        <ele>2004</ele>
        <time>2026-08-19T08:00:01.566Z</time>
      </trkpt>
      <trkpt lat="45.92722" lon="6.35017">
        <ele>2004</ele>
        <time>2026-08-19T08:00:02.566Z</time>
      </trkpt>
      <trkpt lat="45.92722" lon="6.35017">
        <ele>2004</ele>
        <time>2026-08-19T08:00:03.566Z</time>
      </trkpt>
      <trkpt lat="45.92722" lon="6.35017">
        <ele>2004</ele>
        <time>2026-08-19T08:00:04.566Z</time>
      </trkpt>
      <trkpt lat="45.92722" lon="6.35017">
        <ele>2004</ele>
        <time>2026-08-19T08:00:05.566Z</time>
      </trkpt>
      <trkpt lat="45.92722" lon="6.35017">
        <ele>2004</ele>
        <time>2026-08-19T08:00:06.566Z</time>
      </trkpt>
      <trkpt lat="45.92722" lon="6.35017">
        <ele>2005</ele>
        <time>2026-08-19T08:00:07.566Z</time>
      </trkpt>
      <trkpt lat="45.92722" lon="6.35017">
        <ele>2005</ele>
        <time>2026-08-19T08:00:08.566Z</time>
      </trkpt>
      <trkpt lat="45.92722" lon="6.35017">
        <ele>2005</ele>
        <time>2026-08-19T08:00:09.566Z</time>
      </trkpt>
      <trkpt lat="45.92722" lon="6.35017">
        <ele>2004</ele>
        <time>2026-08-19T08:00:10.567Z</time>
      </trkpt>
      <trkpt lat="45.92722" lon="6.35017">
        <ele>2004</ele>
        <time>2026-08-19T08:00:11.566Z</time>
      </trkpt>
      <trkpt lat="45.92722" lon="6.35017">
        <ele>2004</ele>
        <time>2026-08-19T08:00:12.566Z</time>
      </trkpt>
      <trkpt lat="45.92722" lon="6.35017">
        <ele>2004</ele>
        <time>2026-08-19T08:00:13.566Z</time>
      </trkpt>
      <trkpt lat="45.92722" lon="6.35017">
        <ele>2004</ele>
        <time>2026-08-19T08:00:14.566Z</time>
      </trkpt>
      <trkpt lat="45.92722" lon="6.35017">
        <ele>2004</ele>
        <time>2026-08-19T08:00:15.566Z</time>
      </trkpt>
      <trkpt lat="45.92722" lon="6.35017">
        <ele>2004</ele>
        <time>2026-08-19T08:00:16.566Z</time>
      </trkpt>
      <trkpt lat="45.92722" lon="6.35017">
        <ele>2004</ele>
        <time>2026-08-19T08:00:17.566Z</time>
      </trkpt>
      <trkpt lat="45.92722" lon="6.35017">
        <ele>2004</ele>
        <time>2026-08-19T08:00:18.566Z</time>
      </trkpt>
      <trkpt lat="45.92722" lon="6.35017">
        <ele>2004</ele>
        <time>2026-08-19T08:00:19.566Z</time>
      </trkpt>
      <trkpt lat="45.92722" lon="6.35017">
        <ele>2004</ele>
        <time>2026-08-19T08:00:20.566Z</time>
      </trkpt>
      <trkpt lat="45.92722" lon="6.35017">
        <ele>2004</ele>
        <time>2026-08-19T08:00:21.566Z</time>
      </trkpt>
      <trkpt lat="45.92722" lon="6.35017">
        <ele>2004</ele>
        <time>2026-08-19T08:00:22.566Z</time>
      </trkpt>
      <trkpt lat="45.92722" lon="6.35017">
        <ele>2004</ele>
        <time>2026-08-19T08:00:23.566Z</time>
      </trkpt>
      <trkpt lat="45.92722" lon="6.35017">
        <ele>2004</ele>
        <time>2026-08-19T08:00:24.566Z</time>
      </trkpt>
      <trkpt lat="45.92723" lon="6.35018">
        <ele>2004</ele>
        <time>2026-08-19T08:00:25.566Z</time>
      </trkpt>
      <trkpt lat="45.92723" lon="6.3502">
        <ele>2004</ele>
        <time>2026-08-19T08:00:26.566Z</time>
      </trkpt>
      <trkpt lat="45.92724" lon="6.35021">
        <ele>2004</ele>
        <time>2026-08-19T08:00:27.566Z</time>
      </trkpt>
      <trkpt lat="45.92725" lon="6.35023">
        <ele>2004</ele>
        <time>2026-08-19T08:00:28.566Z</time>
      </trkpt>
      <trkpt lat="45.92725" lon="6.35024">
        <ele>2004</ele>
        <time>2026-08-19T08:00:29.566Z</time>
      </trkpt>
      <trkpt lat="45.92726" lon="6.35026">
        <ele>2004</ele>
        <time>2026-08-19T08:00:30.566Z</time>
      </trkpt>
      <trkpt lat="45.92727" lon="6.35028">
        <ele>2004</ele>
        <time>2026-08-19T08:00:31.566Z</time>
      </trkpt>
      <trkpt lat="45.92727" lon="6.3503">
        <ele>2004</ele>
        <time>2026-08-19T08:00:32.566Z</time>
      </trkpt>
      <trkpt lat="45.92728" lon="6.35032">
        <ele>2004</ele>
        <time>2026-08-19T08:00:33.566Z</time>
      </trkpt>
      <trkpt lat="45.92729" lon="6.35033">
        <ele>2003</ele>
        <time>2026-08-19T08:00:34.566Z</time>
      </trkpt>
      <trkpt lat="45.9273" lon="6.35034">
        <ele>2003</ele>
        <time>2026-08-19T08:00:35.566Z</time>
      </trkpt>
      <trkpt lat="45.9273" lon="6.35036">
        <ele>2003</ele>
        <time>2026-08-19T08:00:36.566Z</time>
      </trkpt>
      <trkpt lat="45.9273" lon="6.35037">
        <ele>2003</ele>
        <time>2026-08-19T08:00:37.566Z</time>
      </trkpt>
      <trkpt lat="45.9273" lon="6.35038">
        <ele>2003</ele>
        <time>2026-08-19T08:00:38.566Z</time>
      </trkpt>
      <trkpt lat="45.92731" lon="6.35038">
        <ele>2003</ele>
        <time>2026-08-19T08:00:39.566Z</time>
      </trkpt>
      <trkpt lat="45.92731" lon="6.35039">
        <ele>2003</ele>
        <time>2026-08-19T08:00:40.566Z</time>
      </trkpt>
      <trkpt lat="45.92732" lon="6.3504">
        <ele>2003</ele>
        <time>2026-08-19T08:00:41.566Z</time>
      </trkpt>
      <trkpt lat="45.92732" lon="6.35042">
        <ele>2003</ele>
        <time>2026-08-19T08:00:42.566Z</time>
      </trkpt>
      <trkpt lat="45.92732" lon="6.35043">
        <ele>2003</ele>
        <time>2026-08-19T08:00:43.566Z</time>
      </trkpt>
      <trkpt lat="45.92733" lon="6.35044">
        <ele>2003</ele>
        <time>2026-08-19T08:00:44.566Z</time>
      </trkpt>
      <trkpt lat="45.92733" lon="6.35044">
        <ele>2004</ele>
        <time>2026-08-19T08:00:45.566Z</time>
      </trkpt>
      <trkpt lat="45.92733" lon="6.35045">
        <ele>2003</ele>
        <time>2026-08-19T08:00:46.566Z</time>
      </trkpt>
      <trkpt lat="45.92734" lon="6.35045">
        <ele>2004</ele>
        <time>2026-08-19T08:00:47.566Z</time>
      </trkpt>
      <trkpt lat="45.92734" lon="6.35046">
        <ele>2004</ele>
        <time>2026-08-19T08:00:48.566Z</time>
      </trkpt>
      <trkpt lat="45.92734" lon="6.35046">
        <ele>2004</ele>
        <time>2026-08-19T08:00:49.566Z</time>
      </trkpt>
      <trkpt lat="45.92735" lon="6.35047">
        <ele>2004</ele>
        <time>2026-08-19T08:00:50.566Z</time>
      </trkpt>
      <trkpt lat="45.92735" lon="6.35047">
        <ele>2004</ele>
        <time>2026-08-19T08:00:51.566Z</time>
      </trkpt>
      <trkpt lat="45.92735" lon="6.35047">
        <ele>2004</ele>
        <time>2026-08-19T08:00:52.566Z</time>
      </trkpt>
      <trkpt lat="45.92735" lon="6.35047">
        <ele>2005</ele>
        <time>2026-08-19T08:00:53.566Z</time>
      </trkpt>
      <trkpt lat="45.92735" lon="6.35047">
        <ele>2005</ele>
        <time>2026-08-19T08:00:54.566Z</time>
      </trkpt>
      <trkpt lat="45.92735" lon="6.35047">
        <ele>2005</ele>
        <time>2026-08-19T08:00:55.566Z</time>
      </trkpt>
      <trkpt lat="45.92734" lon="6.35047">
        <ele>2005</ele>
        <time>2026-08-19T08:00:56.566Z</time>
      </trkpt>
      <trkpt lat="45.92734" lon="6.35047">
        <ele>2005</ele>
        <time>2026-08-19T08:00:57.566Z</time>
      </trkpt>
      <trkpt lat="45.92734" lon="6.35047">
        <ele>2005</ele>
        <time>2026-08-19T08:00:58.566Z</time>
      </trkpt>
      <trkpt lat="45.92734" lon="6.35047">
        <ele>2005</ele>
        <time>2026-08-19T08:00:59.566Z</time>
      </trkpt>
      <trkpt lat="45.92734" lon="6.35047">
        <ele>2005</ele>
        <time>2026-08-19T08:01:00.566Z</time>
      </trkpt>
      <trkpt lat="45.92734" lon="6.35047">
        <ele>2005</ele>
        <time>2026-08-19T08:01:01.566Z</time>
      </trkpt>
      <trkpt lat="45.92734" lon="6.35047">
        <ele>2004</ele>
        <time>2026-08-19T08:01:02.566Z</time>
      </trkpt>
      <trkpt lat="45.92733" lon="6.35048">
        <ele>2004</ele>
        <time>2026-08-19T08:01:03.566Z</time>
      </trkpt>
      <trkpt lat="45.92733" lon="6.35048">
        <ele>2004</ele>
        <time>2026-08-19T08:01:04.566Z</time>
      </trkpt>
      <trkpt lat="45.92733" lon="6.35048">
        <ele>2004</ele>
        <time>2026-08-19T08:01:05.566Z</time>
      </trkpt>
      <trkpt lat="45.92733" lon="6.35048">
        <ele>2004</ele>
        <time>2026-08-19T08:01:06.566Z</time>
      </trkpt>
      <trkpt lat="45.92733" lon="6.35048">
        <ele>2004</ele>
        <time>2026-08-19T08:01:07.566Z</time>
      </trkpt>
      <trkpt lat="45.92733" lon="6.35049">
        <ele>2004</ele>
        <time>2026-08-19T08:01:08.566Z</time>
      </trkpt>
      <trkpt lat="45.92733" lon="6.3505">
        <ele>2004</ele>
        <time>2026-08-19T08:01:09.566Z</time>
      </trkpt>
      <trkpt lat="45.92733" lon="6.3505">
        <ele>2005</ele>
        <time>2026-08-19T08:01:10.566Z</time>
      </trkpt>
      <trkpt lat="45.92733" lon="6.3505">
        <ele>2005</ele>
        <time>2026-08-19T08:01:11.566Z</time>
      </trkpt>
      <trkpt lat="45.92733" lon="6.3505">
        <ele>2005</ele>
        <time>2026-08-19T08:01:12.566Z</time>
      </trkpt>
      <trkpt lat="45.92733" lon="6.3505">
        <ele>2005</ele>
        <time>2026-08-19T08:01:13.566Z</time>
      </trkpt>
      <trkpt lat="45.92733" lon="6.3505">
        <ele>2006</ele>
        <time>2026-08-19T08:01:14.566Z</time>
      </trkpt>
      <trkpt lat="45.92733" lon="6.3505">
        <ele>2006</ele>
        <time>2026-08-19T08:01:15.566Z</time>
      </trkpt>
      <trkpt lat="45.92733" lon="6.3505">
        <ele>2006</ele>
        <time>2026-08-19T08:01:16.566Z</time>
      </trkpt>
      <trkpt lat="45.92733" lon="6.3505">
        <ele>2006</ele>
        <time>2026-08-19T08:01:17.566Z</time>
      </trkpt>
      <trkpt lat="45.92733" lon="6.3505">
        <ele>2006</ele>
        <time>2026-08-19T08:01:18.566Z</time>
      </trkpt>
      <trkpt lat="45.92733" lon="6.3505">
        <ele>2006</ele>
        <time>2026-08-19T08:01:19.566Z</time>
      </trkpt>
      <trkpt lat="45.92733" lon="6.35051">
        <ele>2005</ele>
        <time>2026-08-19T08:01:20.566Z</time>
      </trkpt>
      <trkpt lat="45.92733" lon="6.35052">
        <ele>2005</ele>
        <time>2026-08-19T08:01:21.566Z</time>
      </trkpt>
      <trkpt lat="45.92734" lon="6.35053">
        <ele>2005</ele>
        <time>2026-08-19T08:01:22.566Z</time>
      </trkpt>
      <trkpt lat="45.92735" lon="6.35055">
        <ele>2006</ele>
        <time>2026-08-19T08:01:23.566Z</time>
      </trkpt>
      <trkpt lat="45.92735" lon="6.35056">
        <ele>2006</ele>
        <time>2026-08-19T08:01:24.566Z</time>
      </trkpt>
      <trkpt lat="45.92736" lon="6.35057">
        <ele>2006</ele>
        <time>2026-08-19T08:01:25.566Z</time>
      </trkpt>
      <trkpt lat="45.92736" lon="6.35059">
        <ele>2006</ele>
        <time>2026-08-19T08:01:26.566Z</time>
      </trkpt>
      <trkpt lat="45.92737" lon="6.3506">
        <ele>2006</ele>
        <time>2026-08-19T08:01:27.566Z</time>
      </trkpt>
      <trkpt lat="45.92737" lon="6.35061">
        <ele>2005</ele>
        <time>2026-08-19T08:01:28.566Z</time>
      </trkpt>
      <trkpt lat="45.92738" lon="6.35063">
        <ele>2005</ele>
        <time>2026-08-19T08:01:29.566Z</time>
      </trkpt>
      <trkpt lat="45.92739" lon="6.35063">
        <ele>2005</ele>
        <time>2026-08-19T08:01:30.566Z</time>
      </trkpt>
      <trkpt lat="45.92739" lon="6.35064">
        <ele>2005</ele>
        <time>2026-08-19T08:01:31.566Z</time>
      </trkpt>
      <trkpt lat="45.9274" lon="6.35064">
        <ele>2005</ele>
        <time>2026-08-19T08:01:32.566Z</time>
      </trkpt>
      <trkpt lat="45.9274" lon="6.35064">
        <ele>2005</ele>
        <time>2026-08-19T08:01:33.566Z</time>
      </trkpt>
      <trkpt lat="45.9274" lon="6.35065">
        <ele>2005</ele>
        <time>2026-08-19T08:01:34.566Z</time>
      </trkpt>
      <trkpt lat="45.9274" lon="6.35065">
        <ele>2005</ele>
        <time>2026-08-19T08:01:35.566Z</time>
      </trkpt>
      <trkpt lat="45.9274" lon="6.35065">
        <ele>2005</ele>
        <time>2026-08-19T08:01:36.566Z</time>
      </trkpt>
      <trkpt lat="45.9274" lon="6.35065">
        <ele>2006</ele>
        <time>2026-08-19T08:01:37.566Z</time>
      </trkpt>
      <trkpt lat="45.9274" lon="6.35065">
        <ele>2006</ele>
        <time>2026-08-19T08:01:38.566Z</time>
      </trkpt>
      <trkpt lat="45.92741" lon="6.35065">
        <ele>2006</ele>
        <time>2026-08-19T08:01:39.566Z</time>
      </trkpt>
      <trkpt lat="45.92741" lon="6.35065">
        <ele>2006</ele>
        <time>2026-08-19T08:01:40.566Z</time>
      </trkpt>
      <trkpt lat="45.92741" lon="6.35065">
        <ele>2006</ele>
        <time>2026-08-19T08:01:41.566Z</time>
      </trkpt>
      <trkpt lat="45.92742" lon="6.35066">
        <ele>2006</ele>
        <time>2026-08-19T08:01:42.566Z</time>
      </trkpt>
      <trkpt lat="45.92742" lon="6.35067">
        <ele>2006</ele>
        <time>2026-08-19T08:01:43.566Z</time>
      </trkpt>
      <trkpt lat="45.92743" lon="6.35067">
        <ele>2006</ele>
        <time>2026-08-19T08:01:44.566Z</time>
      </trkpt>
      <trkpt lat="45.92743" lon="6.35067">
        <ele>2006</ele>
        <time>2026-08-19T08:01:45.566Z</time>
      </trkpt>
      <trkpt lat="45.92744" lon="6.35068">
        <ele>2006</ele>
        <time>2026-08-19T08:01:46.566Z</time>
      </trkpt>
      <trkpt lat="45.92744" lon="6.35068">
        <ele>2006</ele>
        <time>2026-08-19T08:01:47.566Z</time>
      </trkpt>
      <trkpt lat="45.92744" lon="6.35068">
        <ele>2006</ele>
        <time>2026-08-19T08:01:48.566Z</time>
      </trkpt>
      <trkpt lat="45.92744" lon="6.35068">
        <ele>2006</ele>
        <time>2026-08-19T08:01:49.566Z</time>
      </trkpt>
      <trkpt lat="45.92745" lon="6.35068">
        <ele>2006</ele>
        <time>2026-08-19T08:01:50.566Z</time>
      </trkpt>
      <trkpt lat="45.92745" lon="6.35068">
        <ele>2006</ele>
        <time>2026-08-19T08:01:51.566Z</time>
      </trkpt>
      <trkpt lat="45.92745" lon="6.35069">
        <ele>2006</ele>
        <time>2026-08-19T08:01:52.566Z</time>
      </trkpt>
      <trkpt lat="45.92746" lon="6.35069">
        <ele>2006</ele>
        <time>2026-08-19T08:01:53.566Z</time>
      </trkpt>
      <trkpt lat="45.92746" lon="6.3507">
        <ele>2006</ele>
        <time>2026-08-19T08:01:54.566Z</time>
      </trkpt>
      <trkpt lat="45.92747" lon="6.3507">
        <ele>2007</ele>
        <time>2026-08-19T08:01:55.566Z</time>
      </trkpt>
      <trkpt lat="45.92747" lon="6.3507">
        <ele>2007</ele>
        <time>2026-08-19T08:01:56.566Z</time>
      </trkpt>
      <trkpt lat="45.92748" lon="6.35071">
        <ele>2007</ele>
        <time>2026-08-19T08:01:57.566Z</time>
      </trkpt>
      <trkpt lat="45.92748" lon="6.35071">
        <ele>2008</ele>
        <time>2026-08-19T08:01:58.566Z</time>
      </trkpt>
      <trkpt lat="45.92748" lon="6.3507">
        <ele>2008</ele>
        <time>2026-08-19T08:01:59.566Z</time>
      </trkpt>
      <trkpt lat="45.92748" lon="6.3507">
        <ele>2008</ele>
        <time>2026-08-19T08:02:00.566Z</time>
      </trkpt>
      <trkpt lat="45.92749" lon="6.3507">
        <ele>2008</ele>
        <time>2026-08-19T08:02:01.566Z</time>
      </trkpt>
      <trkpt lat="45.92749" lon="6.3507">
        <ele>2009</ele>
        <time>2026-08-19T08:02:02.566Z</time>
      </trkpt>
      <trkpt lat="45.9275" lon="6.3507">
        <ele>2009</ele>
        <time>2026-08-19T08:02:03.566Z</time>
      </trkpt>
      <trkpt lat="45.9275" lon="6.3507">
        <ele>2009</ele>
        <time>2026-08-19T08:02:04.566Z</time>
      </trkpt>
      <trkpt lat="45.9275" lon="6.3507">
        <ele>2010</ele>
        <time>2026-08-19T08:02:05.566Z</time>
      </trkpt>
      <trkpt lat="45.9275" lon="6.3507">
        <ele>2010</ele>
        <time>2026-08-19T08:02:06.566Z</time>
      </trkpt>
      <trkpt lat="45.9275" lon="6.35071">
        <ele>2010</ele>
        <time>2026-08-19T08:02:07.566Z</time>
      </trkpt>
      <trkpt lat="45.9275" lon="6.35071">
        <ele>2010</ele>
        <time>2026-08-19T08:02:08.567Z</time>
      </trkpt>
      <trkpt lat="45.92751" lon="6.35071">
        <ele>2010</ele>
        <time>2026-08-19T08:02:09.566Z</time>
      </trkpt>
      <trkpt lat="45.92751" lon="6.35072">
        <ele>2010</ele>
        <time>2026-08-19T08:02:10.566Z</time>
      </trkpt>
      <trkpt lat="45.92751" lon="6.35072">
        <ele>2011</ele>
        <time>2026-08-19T08:02:11.566Z</time>
      </trkpt>
      <trkpt lat="45.92751" lon="6.35072">
        <ele>2011</ele>
        <time>2026-08-19T08:02:12.566Z</time>
      </trkpt>
      <trkpt lat="45.92752" lon="6.35073">
        <ele>2012</ele>
        <time>2026-08-19T08:02:13.566Z</time>
      </trkpt>
      <trkpt lat="45.92752" lon="6.35073">
        <ele>2012</ele>
        <time>2026-08-19T08:02:14.566Z</time>
      </trkpt>
      <trkpt lat="45.92752" lon="6.35073">
        <ele>2012</ele>
        <time>2026-08-19T08:02:15.566Z</time>
      </trkpt>
      <trkpt lat="45.92753" lon="6.35073">
        <ele>2013</ele>
        <time>2026-08-19T08:02:16.566Z</time>
      </trkpt>
      <trkpt lat="45.92753" lon="6.35074">
        <ele>2013</ele>
        <time>2026-08-19T08:02:17.566Z</time>
      </trkpt>
      <trkpt lat="45.92754" lon="6.35075">
        <ele>2013</ele>
        <time>2026-08-19T08:02:18.566Z</time>
      </trkpt>
      <trkpt lat="45.92754" lon="6.35075">
        <ele>2013</ele>
        <time>2026-08-19T08:02:19.566Z</time>
      </trkpt>
      <trkpt lat="45.92755" lon="6.35075">
        <ele>2014</ele>
        <time>2026-08-19T08:02:20.566Z</time>
      </trkpt>
      <trkpt lat="45.92755" lon="6.35076">
        <ele>2014</ele>
        <time>2026-08-19T08:02:21.566Z</time>
      </trkpt>
      <trkpt lat="45.92755" lon="6.35076">
        <ele>2014</ele>
        <time>2026-08-19T08:02:22.566Z</time>
      </trkpt>
      <trkpt lat="45.92755" lon="6.35076">
        <ele>2014</ele>
        <time>2026-08-19T08:02:23.566Z</time>
      </trkpt>
      <trkpt lat="45.92756" lon="6.35076">
        <ele>2014</ele>
        <time>2026-08-19T08:02:24.566Z</time>
      </trkpt>
      <trkpt lat="45.92756" lon="6.35076">
        <ele>2015</ele>
        <time>2026-08-19T08:02:25.566Z</time>
      </trkpt>
      <trkpt lat="45.92757" lon="6.35075">
        <ele>2015</ele>
        <time>2026-08-19T08:02:26.566Z</time>
      </trkpt>
      <trkpt lat="45.92757" lon="6.35076">
        <ele>2016</ele>
        <time>2026-08-19T08:02:27.566Z</time>
      </trkpt>
      <trkpt lat="45.92758" lon="6.35076">
        <ele>2016</ele>
        <time>2026-08-19T08:02:28.566Z</time>
      </trkpt>
      <trkpt lat="45.92758" lon="6.35076">
        <ele>2016</ele>
        <time>2026-08-19T08:02:29.566Z</time>
      </trkpt>
      <trkpt lat="45.92759" lon="6.35076">
        <ele>2016</ele>
        <time>2026-08-19T08:02:30.566Z</time>
      </trkpt>
      <trkpt lat="45.92759" lon="6.35076">
        <ele>2016</ele>
        <time>2026-08-19T08:02:31.566Z</time>
      </trkpt>
      <trkpt lat="45.9276" lon="6.35077">
        <ele>2016</ele>
        <time>2026-08-19T08:02:32.566Z</time>
      </trkpt>
      <trkpt lat="45.9276" lon="6.35077">
        <ele>2017</ele>
        <time>2026-08-19T08:02:33.566Z</time>
      </trkpt>
      <trkpt lat="45.9276" lon="6.35077">
        <ele>2017</ele>
        <time>2026-08-19T08:02:34.566Z</time>
      </trkpt>
      <trkpt lat="45.9276" lon="6.35077">
        <ele>2017</ele>
        <time>2026-08-19T08:02:35.566Z</time>
      </trkpt>
      <trkpt lat="45.9276" lon="6.35076">
        <ele>2017</ele>
        <time>2026-08-19T08:02:36.566Z</time>
      </trkpt>
      <trkpt lat="45.92761" lon="6.35076">
        <ele>2018</ele>
        <time>2026-08-19T08:02:37.566Z</time>
      </trkpt>
      <trkpt lat="45.9276" lon="6.35075">
        <ele>2018</ele>
        <time>2026-08-19T08:02:38.566Z</time>
      </trkpt>
      <trkpt lat="45.9276" lon="6.35074">
        <ele>2019</ele>
        <time>2026-08-19T08:02:39.566Z</time>
      </trkpt>
      <trkpt lat="45.9276" lon="6.35074">
        <ele>2020</ele>
        <time>2026-08-19T08:02:40.566Z</time>
      </trkpt>
      <trkpt lat="45.9276" lon="6.35073">
        <ele>2020</ele>
        <time>2026-08-19T08:02:41.566Z</time>
      </trkpt>
      <trkpt lat="45.9276" lon="6.35073">
        <ele>2020</ele>
        <time>2026-08-19T08:02:42.566Z</time>
      </trkpt>
      <trkpt lat="45.9276" lon="6.35073">
        <ele>2021</ele>
        <time>2026-08-19T08:02:43.566Z</time>
      </trkpt>
      <trkpt lat="45.9276" lon="6.35072">
        <ele>2021</ele>
        <time>2026-08-19T08:02:44.566Z</time>
      </trkpt>
      <trkpt lat="45.9276" lon="6.35071">
        <ele>2022</ele>
        <time>2026-08-19T08:02:45.566Z</time>
      </trkpt>
      <trkpt lat="45.9276" lon="6.35071">
        <ele>2022</ele>
        <time>2026-08-19T08:02:46.566Z</time>
      </trkpt>
      <trkpt lat="45.9276" lon="6.3507">
        <ele>2022</ele>
        <time>2026-08-19T08:02:47.566Z</time>
      </trkpt>
      <trkpt lat="45.9276" lon="6.3507">
        <ele>2022</ele>
        <time>2026-08-19T08:02:48.566Z</time>
      </trkpt>
      <trkpt lat="45.9276" lon="6.35069">
        <ele>2022</ele>
        <time>2026-08-19T08:02:49.566Z</time>
      </trkpt>
      <trkpt lat="45.9276" lon="6.35069">
        <ele>2022</ele>
        <time>2026-08-19T08:02:50.566Z</time>
      </trkpt>
      <trkpt lat="45.9276" lon="6.35068">
        <ele>2022</ele>
        <time>2026-08-19T08:02:51.566Z</time>
      </trkpt>
      <trkpt lat="45.9276" lon="6.35068">
        <ele>2022</ele>
        <time>2026-08-19T08:02:52.566Z</time>
      </trkpt>
      <trkpt lat="45.9276" lon="6.35067">
        <ele>2022</ele>
        <time>2026-08-19T08:02:53.566Z</time>
      </trkpt>
      <trkpt lat="45.9276" lon="6.35067">
        <ele>2022</ele>
        <time>2026-08-19T08:02:54.566Z</time>
      </trkpt>
      <trkpt lat="45.9276" lon="6.35067">
        <ele>2022</ele>
        <time>2026-08-19T08:02:55.566Z</time>
      </trkpt>
      <trkpt lat="45.9276" lon="6.35068">
        <ele>2022</ele>
        <time>2026-08-19T08:02:56.566Z</time>
      </trkpt>
      <trkpt lat="45.9276" lon="6.35068">
        <ele>2022</ele>
        <time>2026-08-19T08:02:57.566Z</time>
      </trkpt>
      <trkpt lat="45.9276" lon="6.35068">
        <ele>2022</ele>
        <time>2026-08-19T08:02:58.566Z</time>
      </trkpt>
      <trkpt lat="45.9276" lon="6.35068">
        <ele>2022</ele>
        <time>2026-08-19T08:02:59.566Z</time>
      </trkpt>
      <trkpt lat="45.9276" lon="6.35068">
        <ele>2023</ele>
        <time>2026-08-19T08:03:00.566Z</time>
      </trkpt>
      <trkpt lat="45.9276" lon="6.35068">
        <ele>2023</ele>
        <time>2026-08-19T08:03:01.566Z</time>
      </trkpt>
      <trkpt lat="45.9276" lon="6.35068">
        <ele>2023</ele>
        <time>2026-08-19T08:03:02.566Z</time>
      </trkpt>
      <trkpt lat="45.9276" lon="6.35068">
        <ele>2023</ele>
        <time>2026-08-19T08:03:03.566Z</time>
      </trkpt>
      <trkpt lat="45.9276" lon="6.35068">
        <ele>2023</ele>
        <time>2026-08-19T08:03:04.566Z</time>
      </trkpt>
      <trkpt lat="45.9276" lon="6.35068">
        <ele>2024</ele>
        <time>2026-08-19T08:03:05.566Z</time>
      </trkpt>
      <trkpt lat="45.9276" lon="6.35068">
        <ele>2024</ele>
        <time>2026-08-19T08:03:06.566Z</time>
      </trkpt>
      <trkpt lat="45.9276" lon="6.35068">
        <ele>2024</ele>
        <time>2026-08-19T08:03:07.566Z</time>
      </trkpt>
      <trkpt lat="45.9276" lon="6.35068">
        <ele>2024</ele>
        <time>2026-08-19T08:03:08.566Z</time>
      </trkpt>
      <trkpt lat="45.9276" lon="6.35068">
        <ele>2024</ele>
        <time>2026-08-19T08:03:09.566Z</time>
      </trkpt>
      <trkpt lat="45.9276" lon="6.35068">
        <ele>2024</ele>
        <time>2026-08-19T08:03:10.566Z</time>
      </trkpt>
      <trkpt lat="45.9276" lon="6.35068">
        <ele>2024</ele>
        <time>2026-08-19T08:03:11.566Z</time>
      </trkpt>
      <trkpt lat="45.9276" lon="6.35068">
        <ele>2024</ele>
        <time>2026-08-19T08:03:12.566Z</time>
      </trkpt>
      <trkpt lat="45.9276" lon="6.35068">
        <ele>2024</ele>
        <time>2026-08-19T08:03:13.566Z</time>
      </trkpt>
      <trkpt lat="45.9276" lon="6.35067">
        <ele>2024</ele>
        <time>2026-08-19T08:03:14.566Z</time>
      </trkpt>
      <trkpt lat="45.9276" lon="6.35067">
        <ele>2024</ele>
        <time>2026-08-19T08:03:15.566Z</time>
      </trkpt>
      <trkpt lat="45.9276" lon="6.35067">
        <ele>2024</ele>
        <time>2026-08-19T08:03:16.566Z</time>
      </trkpt>
      <trkpt lat="45.9276" lon="6.35067">
        <ele>2024</ele>
        <time>2026-08-19T08:03:17.566Z</time>
      </trkpt>
      <trkpt lat="45.92759" lon="6.35067">
        <ele>2024</ele>
        <time>2026-08-19T08:03:18.566Z</time>
      </trkpt>
      <trkpt lat="45.92759" lon="6.35067">
        <ele>2024</ele>
        <time>2026-08-19T08:03:19.566Z</time>
      </trkpt>
      <trkpt lat="45.92759" lon="6.35067">
        <ele>2024</ele>
        <time>2026-08-19T08:03:20.566Z</time>
      </trkpt>
      <trkpt lat="45.92759" lon="6.35067">
        <ele>2024</ele>
        <time>2026-08-19T08:03:21.566Z</time>
      </trkpt>
      <trkpt lat="45.92759" lon="6.35067">
        <ele>2024</ele>
        <time>2026-08-19T08:03:22.566Z</time>
      </trkpt>
      <trkpt lat="45.92759" lon="6.35067">
        <ele>2024</ele>
        <time>2026-08-19T08:03:23.566Z</time>
      </trkpt>
      <trkpt lat="45.92759" lon="6.35066">
        <ele>2024</ele>
        <time>2026-08-19T08:03:24.566Z</time>
      </trkpt>
      <trkpt lat="45.92758" lon="6.35065">
        <ele>2024</ele>
        <time>2026-08-19T08:03:25.566Z</time>
      </trkpt>
      <trkpt lat="45.92758" lon="6.35064">
        <ele>2024</ele>
        <time>2026-08-19T08:03:26.566Z</time>
      </trkpt>
      <trkpt lat="45.92757" lon="6.35063">
        <ele>2024</ele>
        <time>2026-08-19T08:03:27.566Z</time>
      </trkpt>
      <trkpt lat="45.92757" lon="6.35062">
        <ele>2024</ele>
        <time>2026-08-19T08:03:28.566Z</time>
      </trkpt>
      <trkpt lat="45.92756" lon="6.35061">
        <ele>2024</ele>
        <time>2026-08-19T08:03:29.566Z</time>
      </trkpt>
      <trkpt lat="45.92756" lon="6.3506">
        <ele>2024</ele>
        <time>2026-08-19T08:03:30.566Z</time>
      </trkpt>
      <trkpt lat="45.92756" lon="6.35059">
        <ele>2024</ele>
        <time>2026-08-19T08:03:31.566Z</time>
      </trkpt>
      <trkpt lat="45.92755" lon="6.35058">
        <ele>2024</ele>
        <time>2026-08-19T08:03:32.566Z</time>
      </trkpt>
      <trkpt lat="45.92755" lon="6.35058">
        <ele>2023</ele>
        <time>2026-08-19T08:03:33.566Z</time>
      </trkpt>
      <trkpt lat="45.92755" lon="6.35058">
        <ele>2023</ele>
        <time>2026-08-19T08:03:34.566Z</time>
      </trkpt>
      <trkpt lat="45.92755" lon="6.35058">
        <ele>2023</ele>
        <time>2026-08-19T08:03:35.566Z</time>
      </trkpt>
      <trkpt lat="45.92755" lon="6.35058">
        <ele>2023</ele>
        <time>2026-08-19T08:03:36.566Z</time>
      </trkpt>
      <trkpt lat="45.92755" lon="6.35058">
        <ele>2023</ele>
        <time>2026-08-19T08:03:37.566Z</time>
      </trkpt>
      <trkpt lat="45.92755" lon="6.35058">
        <ele>2023</ele>
        <time>2026-08-19T08:03:38.566Z</time>
      </trkpt>
      <trkpt lat="45.92755" lon="6.35058">
        <ele>2023</ele>
        <time>2026-08-19T08:03:39.566Z</time>
      </trkpt>
      <trkpt lat="45.92755" lon="6.35058">
        <ele>2022</ele>
        <time>2026-08-19T08:03:40.566Z</time>
      </trkpt>
      <trkpt lat="45.92755" lon="6.35058">
        <ele>2022</ele>
        <time>2026-08-19T08:03:41.566Z</time>
      </trkpt>
      <trkpt lat="45.92755" lon="6.35058">
        <ele>2022</ele>
        <time>2026-08-19T08:03:42.566Z</time>
      </trkpt>
      <trkpt lat="45.92755" lon="6.35058">
        <ele>2022</ele>
        <time>2026-08-19T08:03:43.566Z</time>
      </trkpt>
      <trkpt lat="45.92755" lon="6.35058">
        <ele>2022</ele>
        <time>2026-08-19T08:03:44.566Z</time>
      </trkpt>
      <trkpt lat="45.92755" lon="6.35058">
        <ele>2022</ele>
        <time>2026-08-19T08:03:45.566Z</time>
      </trkpt>
      <trkpt lat="45.92755" lon="6.35058">
        <ele>2022</ele>
        <time>2026-08-19T08:03:46.566Z</time>
      </trkpt>
      <trkpt lat="45.92755" lon="6.35058">
        <ele>2022</ele>
        <time>2026-08-19T08:03:47.566Z</time>
      </trkpt>
      <trkpt lat="45.92755" lon="6.35058">
        <ele>2022</ele>
        <time>2026-08-19T08:03:48.566Z</time>
      </trkpt>
      <trkpt lat="45.92755" lon="6.35058">
        <ele>2022</ele>
        <time>2026-08-19T08:03:49.566Z</time>
      </trkpt>
      <trkpt lat="45.92755" lon="6.35058">
        <ele>2022</ele>
        <time>2026-08-19T08:03:50.566Z</time>
      </trkpt>
      <trkpt lat="45.92755" lon="6.35058">
        <ele>2022</ele>
        <time>2026-08-19T08:03:51.566Z</time>
      </trkpt>
      <trkpt lat="45.92755" lon="6.35058">
        <ele>2022</ele>
        <time>2026-08-19T08:03:52.566Z</time>
      </trkpt>
      <trkpt lat="45.92755" lon="6.35058">
        <ele>2022</ele>
        <time>2026-08-19T08:03:53.566Z</time>
      </trkpt>
      <trkpt lat="45.92755" lon="6.35058">
        <ele>2022</ele>
        <time>2026-08-19T08:03:54.566Z</time>
      </trkpt>
      <trkpt lat="45.92755" lon="6.35058">
        <ele>2022</ele>
        <time>2026-08-19T08:03:55.566Z</time>
      </trkpt>
      <trkpt lat="45.92755" lon="6.35058">
        <ele>2022</ele>
        <time>2026-08-19T08:03:56.566Z</time>
      </trkpt>
      <trkpt lat="45.92755" lon="6.35058">
        <ele>2022</ele>
        <time>2026-08-19T08:03:57.566Z</time>
      </trkpt>
      <trkpt lat="45.92755" lon="6.35058">
        <ele>2022</ele>
        <time>2026-08-19T08:03:58.566Z</time>
      </trkpt>
      <trkpt lat="45.92755" lon="6.35058">
        <ele>2022</ele>
        <time>2026-08-19T08:03:59.566Z</time>
      </trkpt>
      <trkpt lat="45.92755" lon="6.35058">
        <ele>2022</ele>
        <time>2026-08-19T08:04:00.566Z</time>
      </trkpt>
      <trkpt lat="45.92755" lon="6.35058">
        <ele>2022</ele>
        <time>2026-08-19T08:04:01.566Z</time>
      </trkpt>
      <trkpt lat="45.92755" lon="6.35058">
        <ele>2022</ele>
        <time>2026-08-19T08:04:02.566Z</time>
      </trkpt>
      <trkpt lat="45.92755" lon="6.35058">
        <ele>2022</ele>
        <time>2026-08-19T08:04:03.566Z</time>
      </trkpt>
      <trkpt lat="45.92756" lon="6.35058">
        <ele>2023</ele>
        <time>2026-08-19T08:04:04.566Z</time>
      </trkpt>
      <trkpt lat="45.92756" lon="6.35058">
        <ele>2023</ele>
        <time>2026-08-19T08:04:05.566Z</time>
      </trkpt>
      <trkpt lat="45.92756" lon="6.35058">
        <ele>2023</ele>
        <time>2026-08-19T08:04:06.566Z</time>
      </trkpt>
      <trkpt lat="45.92756" lon="6.35058">
        <ele>2023</ele>
        <time>2026-08-19T08:04:07.566Z</time>
      </trkpt>
      <trkpt lat="45.92756" lon="6.35058">
        <ele>2023</ele>
        <time>2026-08-19T08:04:08.566Z</time>
      </trkpt>
      <trkpt lat="45.92756" lon="6.35058">
        <ele>2023</ele>
        <time>2026-08-19T08:04:09.566Z</time>
      </trkpt>
      <trkpt lat="45.92756" lon="6.35058">
        <ele>2023</ele>
        <time>2026-08-19T08:04:10.566Z</time>
      </trkpt>
      <trkpt lat="45.92756" lon="6.35058">
        <ele>2023</ele>
        <time>2026-08-19T08:04:11.566Z</time>
      </trkpt>
      <trkpt lat="45.92756" lon="6.35058">
        <ele>2023</ele>
        <time>2026-08-19T08:04:12.566Z</time>
      </trkpt>
      <trkpt lat="45.92756" lon="6.35058">
        <ele>2023</ele>
        <time>2026-08-19T08:04:13.566Z</time>
      </trkpt>
      <trkpt lat="45.92756" lon="6.35058">
        <ele>2023</ele>
        <time>2026-08-19T08:04:14.567Z</time>
      </trkpt>
      <trkpt lat="45.92756" lon="6.35058">
        <ele>2023</ele>
        <time>2026-08-19T08:04:15.566Z</time>
      </trkpt>
      <trkpt lat="45.92756" lon="6.35058">
        <ele>2023</ele>
        <time>2026-08-19T08:04:16.566Z</time>
      </trkpt>
      <trkpt lat="45.92756" lon="6.35058">
        <ele>2023</ele>
        <time>2026-08-19T08:04:17.566Z</time>
      </trkpt>
      <trkpt lat="45.92756" lon="6.35058">
        <ele>2023</ele>
        <time>2026-08-19T08:04:18.566Z</time>
      </trkpt>
      <trkpt lat="45.92756" lon="6.35058">
        <ele>2023</ele>
        <time>2026-08-19T08:04:19.566Z</time>
      </trkpt>
      <trkpt lat="45.92756" lon="6.35058">
        <ele>2023</ele>
        <time>2026-08-19T08:04:20.566Z</time>
      </trkpt>
      <trkpt lat="45.92756" lon="6.35058">
        <ele>2023</ele>
        <time>2026-08-19T08:04:21.566Z</time>
      </trkpt>
      <trkpt lat="45.92756" lon="6.35058">
        <ele>2023</ele>
        <time>2026-08-19T08:04:22.566Z</time>
      </trkpt>
      <trkpt lat="45.92756" lon="6.35058">
        <ele>2023</ele>
        <time>2026-08-19T08:04:23.566Z</time>
      </trkpt>
      <trkpt lat="45.92756" lon="6.35058">
        <ele>2023</ele>
        <time>2026-08-19T08:04:24.566Z</time>
      </trkpt>
      <trkpt lat="45.92756" lon="6.35058">
        <ele>2023</ele>
        <time>2026-08-19T08:04:25.566Z</time>
      </trkpt>
      <trkpt lat="45.92756" lon="6.35058">
        <ele>2023</ele>
        <time>2026-08-19T08:04:26.566Z</time>
      </trkpt>
      <trkpt lat="45.92756" lon="6.35058">
        <ele>2023</ele>
        <time>2026-08-19T08:04:27.566Z</time>
      </trkpt>
      <trkpt lat="45.92756" lon="6.35058">
        <ele>2023</ele>
        <time>2026-08-19T08:04:28.566Z</time>
      </trkpt>
      <trkpt lat="45.92756" lon="6.35058">
        <ele>2023</ele>
        <time>2026-08-19T08:04:29.566Z</time>
      </trkpt>
      <trkpt lat="45.92756" lon="6.35058">
        <ele>2023</ele>
        <time>2026-08-19T08:04:30.566Z</time>
      </trkpt>
      <trkpt lat="45.92756" lon="6.35058">
        <ele>2023</ele>
        <time>2026-08-19T08:04:31.566Z</time>
      </trkpt>
      <trkpt lat="45.92756" lon="6.35058">
        <ele>2023</ele>
        <time>2026-08-19T08:04:32.566Z</time>
      </trkpt>
      <trkpt lat="45.92756" lon="6.35058">
        <ele>2023</ele>
        <time>2026-08-19T08:04:33.566Z</time>
      </trkpt>
      <trkpt lat="45.92756" lon="6.35058">
        <ele>2023</ele>
        <time>2026-08-19T08:04:34.566Z</time>
      </trkpt>
      <trkpt lat="45.92756" lon="6.35058">
        <ele>2023</ele>
        <time>2026-08-19T08:04:35.566Z</time>
      </trkpt>
      <trkpt lat="45.92756" lon="6.35058">
        <ele>2023</ele>
        <time>2026-08-19T08:04:36.566Z</time>
      </trkpt>
      <trkpt lat="45.92756" lon="6.35058">
        <ele>2023</ele>
        <time>2026-08-19T08:04:37.566Z</time>
      </trkpt>
      <trkpt lat="45.92756" lon="6.35058">
        <ele>2023</ele>
        <time>2026-08-19T08:04:38.566Z</time>
      </trkpt>
      <trkpt lat="45.92756" lon="6.35058">
        <ele>2023</ele>
        <time>2026-08-19T08:04:39.566Z</time>
      </trkpt>
      <trkpt lat="45.92756" lon="6.35058">
        <ele>2023</ele>
        <time>2026-08-19T08:04:40.566Z</time>
      </trkpt>
      <trkpt lat="45.92756" lon="6.35058">
        <ele>2023</ele>
        <time>2026-08-19T08:04:41.566Z</time>
      </trkpt>
      <trkpt lat="45.92757" lon="6.35058">
        <ele>2023</ele>
        <time>2026-08-19T08:04:42.566Z</time>
      </trkpt>
      <trkpt lat="45.92757" lon="6.35058">
        <ele>2023</ele>
        <time>2026-08-19T08:04:43.566Z</time>
      </trkpt>
      <trkpt lat="45.92757" lon="6.35058">
        <ele>2023</ele>
        <time>2026-08-19T08:04:44.566Z</time>
      </trkpt>
      <trkpt lat="45.92757" lon="6.35058">
        <ele>2024</ele>
        <time>2026-08-19T08:04:45.567Z</time>
      </trkpt>
      <trkpt lat="45.92757" lon="6.35058">
        <ele>2024</ele>
        <time>2026-08-19T08:04:46.566Z</time>
      </trkpt>
      <trkpt lat="45.92757" lon="6.35058">
        <ele>2024</ele>
        <time>2026-08-19T08:04:47.566Z</time>
      </trkpt>
      <trkpt lat="45.92757" lon="6.35058">
        <ele>2024</ele>
        <time>2026-08-19T08:04:48.566Z</time>
      </trkpt>
      <trkpt lat="45.92757" lon="6.35058">
        <ele>2024</ele>
        <time>2026-08-19T08:04:49.566Z</time>
      </trkpt>
      <trkpt lat="45.92757" lon="6.35058">
        <ele>2024</ele>
        <time>2026-08-19T08:04:50.566Z</time>
      </trkpt>
      <trkpt lat="45.92757" lon="6.35058">
        <ele>2024</ele>
        <time>2026-08-19T08:04:51.566Z</time>
      </trkpt>
      <trkpt lat="45.92757" lon="6.35058">
        <ele>2024</ele>
        <time>2026-08-19T08:04:52.566Z</time>
      </trkpt>
      <trkpt lat="45.92757" lon="6.35058">
        <ele>2024</ele>
        <time>2026-08-19T08:04:53.566Z</time>
      </trkpt>
      <trkpt lat="45.92757" lon="6.35058">
        <ele>2024</ele>
        <time>2026-08-19T08:04:54.566Z</time>
      </trkpt>
      <trkpt lat="45.92757" lon="6.35058">
        <ele>2024</ele>
        <time>2026-08-19T08:04:55.566Z</time>
      </trkpt>
      <trkpt lat="45.92757" lon="6.35058">
        <ele>2024</ele>
        <time>2026-08-19T08:04:56.566Z</time>
      </trkpt>
      <trkpt lat="45.92757" lon="6.35058">
        <ele>2024</ele>
        <time>2026-08-19T08:04:57.566Z</time>
      </trkpt>
      <trkpt lat="45.92757" lon="6.35058">
        <ele>2024</ele>
        <time>2026-08-19T08:04:58.566Z</time>
      </trkpt>
      <trkpt lat="45.92757" lon="6.35058">
        <ele>2024</ele>
        <time>2026-08-19T08:04:59.566Z</time>
      </trkpt>
      <trkpt lat="45.92756" lon="6.35058">
        <ele>2024</ele>
        <time>2026-08-19T08:05:00.566Z</time>
      </trkpt>
      <trkpt lat="45.92756" lon="6.35058">
        <ele>2024</ele>
        <time>2026-08-19T08:05:01.566Z</time>
      </trkpt>
      <trkpt lat="45.92756" lon="6.35058">
        <ele>2023</ele>
        <time>2026-08-19T08:05:02.566Z</time>
      </trkpt>
      <trkpt lat="45.92756" lon="6.35058">
        <ele>2023</ele>
        <time>2026-08-19T08:05:03.566Z</time>
      </trkpt>
      <trkpt lat="45.92756" lon="6.35058">
        <ele>2023</ele>
        <time>2026-08-19T08:05:04.566Z</time>
      </trkpt>
      <trkpt lat="45.92756" lon="6.35058">
        <ele>2023</ele>
        <time>2026-08-19T08:05:05.566Z</time>
      </trkpt>
      <trkpt lat="45.92756" lon="6.35058">
        <ele>2023</ele>
        <time>2026-08-19T08:05:06.566Z</time>
      </trkpt>
      <trkpt lat="45.92756" lon="6.35058">
        <ele>2023</ele>
        <time>2026-08-19T08:05:07.566Z</time>
      </trkpt>
      <trkpt lat="45.92756" lon="6.35058">
        <ele>2023</ele>
        <time>2026-08-19T08:05:08.566Z</time>
      </trkpt>
      <trkpt lat="45.92756" lon="6.35058">
        <ele>2023</ele>
        <time>2026-08-19T08:05:09.566Z</time>
      </trkpt>
      <trkpt lat="45.92756" lon="6.35058">
        <ele>2023</ele>
        <time>2026-08-19T08:05:10.566Z</time>
      </trkpt>
      <trkpt lat="45.92756" lon="6.35058">
        <ele>2023</ele>
        <time>2026-08-19T08:05:11.566Z</time>
      </trkpt>
      <trkpt lat="45.92756" lon="6.35058">
        <ele>2023</ele>
        <time>2026-08-19T08:05:12.566Z</time>
      </trkpt>
      <trkpt lat="45.92756" lon="6.35058">
        <ele>2023</ele>
        <time>2026-08-19T08:05:13.566Z</time>
      </trkpt>
      <trkpt lat="45.92756" lon="6.35058">
        <ele>2023</ele>
        <time>2026-08-19T08:05:14.566Z</time>
      </trkpt>
      <trkpt lat="45.92756" lon="6.35058">
        <ele>2023</ele>
        <time>2026-08-19T08:05:15.566Z</time>
      </trkpt>
      <trkpt lat="45.92756" lon="6.35058">
        <ele>2023</ele>
        <time>2026-08-19T08:05:16.566Z</time>
      </trkpt>
      <trkpt lat="45.92756" lon="6.35058">
        <ele>2023</ele>
        <time>2026-08-19T08:05:17.566Z</time>
      </trkpt>
      <trkpt lat="45.92756" lon="6.35057">
        <ele>2023</ele>
        <time>2026-08-19T08:05:18.566Z</time>
      </trkpt>
      <trkpt lat="45.92756" lon="6.35057">
        <ele>2023</ele>
        <time>2026-08-19T08:05:19.566Z</time>
      </trkpt>
      <trkpt lat="45.92756" lon="6.35057">
        <ele>2023</ele>
        <time>2026-08-19T08:05:20.566Z</time>
      </trkpt>
      <trkpt lat="45.92756" lon="6.35057">
        <ele>2023</ele>
        <time>2026-08-19T08:05:21.566Z</time>
      </trkpt>
      <trkpt lat="45.92756" lon="6.35057">
        <ele>2023</ele>
        <time>2026-08-19T08:05:22.566Z</time>
      </trkpt>
      <trkpt lat="45.92756" lon="6.35057">
        <ele>2023</ele>
        <time>2026-08-19T08:05:23.566Z</time>
      </trkpt>
      <trkpt lat="45.92756" lon="6.35057">
        <ele>2023</ele>
        <time>2026-08-19T08:05:24.566Z</time>
      </trkpt>
      <trkpt lat="45.92756" lon="6.35057">
        <ele>2023</ele>
        <time>2026-08-19T08:05:25.566Z</time>
      </trkpt>
      <trkpt lat="45.92756" lon="6.35057">
        <ele>2023</ele>
        <time>2026-08-19T08:05:26.566Z</time>
      </trkpt>
      <trkpt lat="45.92756" lon="6.35056">
        <ele>2023</ele>
        <time>2026-08-19T08:05:27.566Z</time>
      </trkpt>
      <trkpt lat="45.92756" lon="6.35056">
        <ele>2023</ele>
        <time>2026-08-19T08:05:28.566Z</time>
      </trkpt>
      <trkpt lat="45.92755" lon="6.35056">
        <ele>2023</ele>
        <time>2026-08-19T08:05:29.566Z</time>
      </trkpt>
      <trkpt lat="45.92755" lon="6.35056">
        <ele>2023</ele>
        <time>2026-08-19T08:05:30.566Z</time>
      </trkpt>
      <trkpt lat="45.92755" lon="6.35055">
        <ele>2023</ele>
        <time>2026-08-19T08:05:31.566Z</time>
      </trkpt>
      <trkpt lat="45.92755" lon="6.35055">
        <ele>2023</ele>
        <time>2026-08-19T08:05:32.566Z</time>
      </trkpt>
      <trkpt lat="45.92755" lon="6.35055">
        <ele>2023</ele>
        <time>2026-08-19T08:05:33.566Z</time>
      </trkpt>
      <trkpt lat="45.92755" lon="6.35054">
        <ele>2023</ele>
        <time>2026-08-19T08:05:34.566Z</time>
      </trkpt>
      <trkpt lat="45.92754" lon="6.35054">
        <ele>2023</ele>
        <time>2026-08-19T08:05:35.566Z</time>
      </trkpt>
      <trkpt lat="45.92754" lon="6.35054">
        <ele>2023</ele>
        <time>2026-08-19T08:05:36.566Z</time>
      </trkpt>
      <trkpt lat="45.92754" lon="6.35054">
        <ele>2023</ele>
        <time>2026-08-19T08:05:37.566Z</time>
      </trkpt>
      <trkpt lat="45.92754" lon="6.35054">
        <ele>2023</ele>
        <time>2026-08-19T08:05:38.566Z</time>
      </trkpt>
      <trkpt lat="45.92754" lon="6.35054">
        <ele>2023</ele>
        <time>2026-08-19T08:05:39.566Z</time>
      </trkpt>
      <trkpt lat="45.92754" lon="6.35054">
        <ele>2023</ele>
        <time>2026-08-19T08:05:40.566Z</time>
      </trkpt>
      <trkpt lat="45.92754" lon="6.35054">
        <ele>2023</ele>
        <time>2026-08-19T08:05:41.566Z</time>
      </trkpt>
      <trkpt lat="45.92754" lon="6.35054">
        <ele>2023</ele>
        <time>2026-08-19T08:05:42.566Z</time>
      </trkpt>
      <trkpt lat="45.92754" lon="6.35054">
        <ele>2023</ele>
        <time>2026-08-19T08:05:43.566Z</time>
      </trkpt>
      <trkpt lat="45.92754" lon="6.35054">
        <ele>2023</ele>
        <time>2026-08-19T08:05:44.566Z</time>
      </trkpt>
      <trkpt lat="45.92754" lon="6.35054">
        <ele>2023</ele>
        <time>2026-08-19T08:05:45.566Z</time>
      </trkpt>
      <trkpt lat="45.92754" lon="6.35054">
        <ele>2023</ele>
        <time>2026-08-19T08:05:46.566Z</time>
      </trkpt>
      <trkpt lat="45.92754" lon="6.35054">
        <ele>2023</ele>
        <time>2026-08-19T08:05:47.566Z</time>
      </trkpt>
      <trkpt lat="45.92754" lon="6.35054">
        <ele>2023</ele>
        <time>2026-08-19T08:05:48.566Z</time>
      </trkpt>
      <trkpt lat="45.92754" lon="6.35054">
        <ele>2023</ele>
        <time>2026-08-19T08:05:49.566Z</time>
      </trkpt>
      <trkpt lat="45.92754" lon="6.35054">
        <ele>2023</ele>
        <time>2026-08-19T08:05:50.566Z</time>
      </trkpt>
      <trkpt lat="45.92754" lon="6.35054">
        <ele>2023</ele>
        <time>2026-08-19T08:05:51.566Z</time>
      </trkpt>
      <trkpt lat="45.92754" lon="6.35054">
        <ele>2023</ele>
        <time>2026-08-19T08:05:52.566Z</time>
      </trkpt>
      <trkpt lat="45.92754" lon="6.35054">
        <ele>2023</ele>
        <time>2026-08-19T08:05:53.566Z</time>
      </trkpt>
      <trkpt lat="45.92754" lon="6.35054">
        <ele>2023</ele>
        <time>2026-08-19T08:05:54.566Z</time>
      </trkpt>
      <trkpt lat="45.92754" lon="6.35054">
        <ele>2023</ele>
        <time>2026-08-19T08:05:55.566Z</time>
      </trkpt>
      <trkpt lat="45.92754" lon="6.35054">
        <ele>2023</ele>
        <time>2026-08-19T08:05:56.566Z</time>
      </trkpt>
      <trkpt lat="45.92754" lon="6.35054">
        <ele>2023</ele>
        <time>2026-08-19T08:05:57.566Z</time>
      </trkpt>
      <trkpt lat="45.92754" lon="6.35054">
        <ele>2023</ele>
        <time>2026-08-19T08:05:58.566Z</time>
      </trkpt>
      <trkpt lat="45.92754" lon="6.35054">
        <ele>2023</ele>
        <time>2026-08-19T08:05:59.566Z</time>
      </trkpt>
      <trkpt lat="45.92754" lon="6.35055">
        <ele>2023</ele>
        <time>2026-08-19T08:06:00.566Z</time>
      </trkpt>
      <trkpt lat="45.92754" lon="6.35055">
        <ele>2023</ele>
        <time>2026-08-19T08:06:01.566Z</time>
      </trkpt>
      <trkpt lat="45.92754" lon="6.35055">
        <ele>2023</ele>
        <time>2026-08-19T08:06:02.566Z</time>
      </trkpt>
      <trkpt lat="45.92754" lon="6.35055">
        <ele>2023</ele>
        <time>2026-08-19T08:06:03.566Z</time>
      </trkpt>
      <trkpt lat="45.92754" lon="6.35055">
        <ele>2023</ele>
        <time>2026-08-19T08:06:04.566Z</time>
      </trkpt>
      <trkpt lat="45.92754" lon="6.35055">
        <ele>2023</ele>
        <time>2026-08-19T08:06:05.566Z</time>
      </trkpt>
      <trkpt lat="45.92754" lon="6.35055">
        <ele>2023</ele>
        <time>2026-08-19T08:06:06.566Z</time>
      </trkpt>
      <trkpt lat="45.92754" lon="6.35055">
        <ele>2023</ele>
        <time>2026-08-19T08:06:07.566Z</time>
      </trkpt>
      <trkpt lat="45.92754" lon="6.35055">
        <ele>2023</ele>
        <time>2026-08-19T08:06:08.566Z</time>
      </trkpt>
      <trkpt lat="45.92754" lon="6.35055">
        <ele>2023</ele>
        <time>2026-08-19T08:06:09.566Z</time>
      </trkpt>
      <trkpt lat="45.92754" lon="6.35055">
        <ele>2023</ele>
        <time>2026-08-19T08:06:10.566Z</time>
      </trkpt>
      <trkpt lat="45.92754" lon="6.35055">
        <ele>2023</ele>
        <time>2026-08-19T08:06:11.566Z</time>
      </trkpt>
      <trkpt lat="45.92754" lon="6.35055">
        <ele>2023</ele>
        <time>2026-08-19T08:06:12.566Z</time>
      </trkpt>
      <trkpt lat="45.92754" lon="6.35055">
        <ele>2023</ele>
        <time>2026-08-19T08:06:13.566Z</time>
      </trkpt>
      <trkpt lat="45.92754" lon="6.35055">
        <ele>2023</ele>
        <time>2026-08-19T08:06:14.566Z</time>
      </trkpt>
      <trkpt lat="45.92754" lon="6.35056">
        <ele>2023</ele>
        <time>2026-08-19T08:06:15.566Z</time>
      </trkpt>
      <trkpt lat="45.92754" lon="6.35056">
        <ele>2023</ele>
        <time>2026-08-19T08:06:16.566Z</time>
      </trkpt>
      <trkpt lat="45.92754" lon="6.35056">
        <ele>2023</ele>
        <time>2026-08-19T08:06:17.566Z</time>
      </trkpt>
      <trkpt lat="45.92754" lon="6.35056">
        <ele>2023</ele>
        <time>2026-08-19T08:06:18.566Z</time>
      </trkpt>
      <trkpt lat="45.92754" lon="6.35056">
        <ele>2023</ele>
        <time>2026-08-19T08:06:19.566Z</time>
      </trkpt>
      <trkpt lat="45.92754" lon="6.35056">
        <ele>2023</ele>
        <time>2026-08-19T08:06:20.566Z</time>
      </trkpt>
      <trkpt lat="45.92754" lon="6.35056">
        <ele>2022</ele>
        <time>2026-08-19T08:06:21.566Z</time>
      </trkpt>
      <trkpt lat="45.92754" lon="6.35056">
        <ele>2022</ele>
        <time>2026-08-19T08:06:22.566Z</time>
      </trkpt>
      <trkpt lat="45.92754" lon="6.35056">
        <ele>2022</ele>
        <time>2026-08-19T08:06:23.566Z</time>
      </trkpt>
      <trkpt lat="45.92754" lon="6.35056">
        <ele>2022</ele>
        <time>2026-08-19T08:06:24.566Z</time>
      </trkpt>
      <trkpt lat="45.92754" lon="6.35056">
        <ele>2022</ele>
        <time>2026-08-19T08:06:25.566Z</time>
      </trkpt>
      <trkpt lat="45.92754" lon="6.35056">
        <ele>2022</ele>
        <time>2026-08-19T08:06:26.566Z</time>
      </trkpt>
      <trkpt lat="45.92754" lon="6.35056">
        <ele>2022</ele>
        <time>2026-08-19T08:06:27.566Z</time>
      </trkpt>
      <trkpt lat="45.92754" lon="6.35056">
        <ele>2022</ele>
        <time>2026-08-19T08:06:28.566Z</time>
      </trkpt>
      <trkpt lat="45.92754" lon="6.35056">
        <ele>2022</ele>
        <time>2026-08-19T08:06:29.566Z</time>
      </trkpt>
      <trkpt lat="45.92754" lon="6.35056">
        <ele>2022</ele>
        <time>2026-08-19T08:06:30.566Z</time>
      </trkpt>
      <trkpt lat="45.92754" lon="6.35056">
        <ele>2022</ele>
        <time>2026-08-19T08:06:31.566Z</time>
      </trkpt>
      <trkpt lat="45.92754" lon="6.35056">
        <ele>2022</ele>
        <time>2026-08-19T08:06:32.566Z</time>
      </trkpt>
      <trkpt lat="45.92754" lon="6.35056">
        <ele>2022</ele>
        <time>2026-08-19T08:06:33.566Z</time>
      </trkpt>
      <trkpt lat="45.92754" lon="6.35056">
        <ele>2022</ele>
        <time>2026-08-19T08:06:34.566Z</time>
      </trkpt>
      <trkpt lat="45.92754" lon="6.35055">
        <ele>2022</ele>
        <time>2026-08-19T08:06:35.566Z</time>
      </trkpt>
      <trkpt lat="45.92754" lon="6.35055">
        <ele>2022</ele>
        <time>2026-08-19T08:06:36.566Z</time>
      </trkpt>
      <trkpt lat="45.92754" lon="6.35055">
        <ele>2022</ele>
        <time>2026-08-19T08:06:37.566Z</time>
      </trkpt>
      <trkpt lat="45.92754" lon="6.35055">
        <ele>2022</ele>
        <time>2026-08-19T08:06:38.566Z</time>
      </trkpt>
      <trkpt lat="45.92754" lon="6.35055">
        <ele>2022</ele>
        <time>2026-08-19T08:06:39.566Z</time>
      </trkpt>
      <trkpt lat="45.92754" lon="6.35055">
        <ele>2022</ele>
        <time>2026-08-19T08:06:40.566Z</time>
      </trkpt>
      <trkpt lat="45.92754" lon="6.35055">
        <ele>2022</ele>
        <time>2026-08-19T08:06:41.566Z</time>
      </trkpt>
      <trkpt lat="45.92754" lon="6.35055">
        <ele>2022</ele>
        <time>2026-08-19T08:06:42.566Z</time>
      </trkpt>
      <trkpt lat="45.92754" lon="6.35055">
        <ele>2022</ele>
        <time>2026-08-19T08:06:43.566Z</time>
      </trkpt>
      <trkpt lat="45.92754" lon="6.35055">
        <ele>2022</ele>
        <time>2026-08-19T08:06:44.566Z</time>
      </trkpt>
      <trkpt lat="45.92754" lon="6.35055">
        <ele>2022</ele>
        <time>2026-08-19T08:06:45.566Z</time>
      </trkpt>
      <trkpt lat="45.92754" lon="6.35055">
        <ele>2022</ele>
        <time>2026-08-19T08:06:46.566Z</time>
      </trkpt>
      <trkpt lat="45.92754" lon="6.35055">
        <ele>2022</ele>
        <time>2026-08-19T08:06:47.566Z</time>
      </trkpt>
      <trkpt lat="45.92754" lon="6.35055">
        <ele>2022</ele>
        <time>2026-08-19T08:06:48.566Z</time>
      </trkpt>
      <trkpt lat="45.92754" lon="6.35055">
        <ele>2022</ele>
        <time>2026-08-19T08:06:49.566Z</time>
      </trkpt>
      <trkpt lat="45.92754" lon="6.35055">
        <ele>2022</ele>
        <time>2026-08-19T08:06:50.566Z</time>
      </trkpt>
      <trkpt lat="45.92754" lon="6.35055">
        <ele>2022</ele>
        <time>2026-08-19T08:06:51.566Z</time>
      </trkpt>
      <trkpt lat="45.92754" lon="6.35055">
        <ele>2022</ele>
        <time>2026-08-19T08:06:52.566Z</time>
      </trkpt>
      <trkpt lat="45.92754" lon="6.35055">
        <ele>2022</ele>
        <time>2026-08-19T08:06:53.566Z</time>
      </trkpt>
      <trkpt lat="45.92754" lon="6.35055">
        <ele>2022</ele>
        <time>2026-08-19T08:06:54.566Z</time>
      </trkpt>
      <trkpt lat="45.92754" lon="6.35055">
        <ele>2022</ele>
        <time>2026-08-19T08:06:55.566Z</time>
      </trkpt>
      <trkpt lat="45.92754" lon="6.35055">
        <ele>2022</ele>
        <time>2026-08-19T08:06:56.566Z</time>
      </trkpt>
      <trkpt lat="45.92754" lon="6.35055">
        <ele>2022</ele>
        <time>2026-08-19T08:06:57.566Z</time>
      </trkpt>
      <trkpt lat="45.92754" lon="6.35055">
        <ele>2022</ele>
        <time>2026-08-19T08:06:58.566Z</time>
      </trkpt>
      <trkpt lat="45.92754" lon="6.35055">
        <ele>2022</ele>
        <time>2026-08-19T08:06:59.566Z</time>
      </trkpt>
      <trkpt lat="45.92754" lon="6.35055">
        <ele>2022</ele>
        <time>2026-08-19T08:07:00.566Z</time>
      </trkpt>
      <trkpt lat="45.92754" lon="6.35055">
        <ele>2022</ele>
        <time>2026-08-19T08:07:01.566Z</time>
      </trkpt>
      <trkpt lat="45.92754" lon="6.35055">
        <ele>2022</ele>
        <time>2026-08-19T08:07:02.566Z</time>
      </trkpt>
      <trkpt lat="45.92754" lon="6.35055">
        <ele>2022</ele>
        <time>2026-08-19T08:07:03.566Z</time>
      </trkpt>
      <trkpt lat="45.92754" lon="6.35055">
        <ele>2022</ele>
        <time>2026-08-19T08:07:04.566Z</time>
      </trkpt>
      <trkpt lat="45.92754" lon="6.35055">
        <ele>2022</ele>
        <time>2026-08-19T08:07:05.566Z</time>
      </trkpt>
      <trkpt lat="45.92754" lon="6.35055">
        <ele>2022</ele>
        <time>2026-08-19T08:07:06.566Z</time>
      </trkpt>
      <trkpt lat="45.92754" lon="6.35055">
        <ele>2022</ele>
        <time>2026-08-19T08:07:07.566Z</time>
      </trkpt>
      <trkpt lat="45.92754" lon="6.35055">
        <ele>2022</ele>
        <time>2026-08-19T08:07:08.566Z</time>
      </trkpt>
      <trkpt lat="45.92754" lon="6.35055">
        <ele>2022</ele>
        <time>2026-08-19T08:07:09.566Z</time>
      </trkpt>
      <trkpt lat="45.92754" lon="6.35055">
        <ele>2022</ele>
        <time>2026-08-19T08:07:10.566Z</time>
      </trkpt>
      <trkpt lat="45.92754" lon="6.35055">
        <ele>2022</ele>
        <time>2026-08-19T08:07:11.566Z</time>
      </trkpt>
      <trkpt lat="45.92754" lon="6.35055">
        <ele>2022</ele>
        <time>2026-08-19T08:07:12.566Z</time>
      </trkpt>
      <trkpt lat="45.92754" lon="6.35055">
        <ele>2022</ele>
        <time>2026-08-19T08:07:13.566Z</time>
      </trkpt>
      <trkpt lat="45.92754" lon="6.35055">
        <ele>2022</ele>
        <time>2026-08-19T08:07:14.566Z</time>
      </trkpt>
      <trkpt lat="45.92754" lon="6.35055">
        <ele>2022</ele>
        <time>2026-08-19T08:07:15.566Z</time>
      </trkpt>
      <trkpt lat="45.92754" lon="6.35055">
        <ele>2022</ele>
        <time>2026-08-19T08:07:16.566Z</time>
      </trkpt>
      <trkpt lat="45.92754" lon="6.35055">
        <ele>2021</ele>
        <time>2026-08-19T08:07:17.566Z</time>
      </trkpt>
      <trkpt lat="45.92754" lon="6.35055">
        <ele>2021</ele>
        <time>2026-08-19T08:07:18.566Z</time>
      </trkpt>
      <trkpt lat="45.92754" lon="6.35055">
        <ele>2021</ele>
        <time>2026-08-19T08:07:19.566Z</time>
      </trkpt>
      <trkpt lat="45.92754" lon="6.35055">
        <ele>2021</ele>
        <time>2026-08-19T08:07:20.566Z</time>
      </trkpt>
      <trkpt lat="45.92754" lon="6.35055">
        <ele>2021</ele>
        <time>2026-08-19T08:07:21.566Z</time>
      </trkpt>
      <trkpt lat="45.92754" lon="6.35055">
        <ele>2021</ele>
        <time>2026-08-19T08:07:22.566Z</time>
      </trkpt>
      <trkpt lat="45.92754" lon="6.35055">
        <ele>2021</ele>
        <time>2026-08-19T08:07:23.566Z</time>
      </trkpt>
      <trkpt lat="45.92754" lon="6.35055">
        <ele>2021</ele>
        <time>2026-08-19T08:07:24.566Z</time>
      </trkpt>
      <trkpt lat="45.92754" lon="6.35055">
        <ele>2021</ele>
        <time>2026-08-19T08:07:25.566Z</time>
      </trkpt>
      <trkpt lat="45.92754" lon="6.35055">
        <ele>2021</ele>
        <time>2026-08-19T08:07:26.566Z</time>
      </trkpt>
      <trkpt lat="45.92754" lon="6.35055">
        <ele>2021</ele>
        <time>2026-08-19T08:07:27.566Z</time>
      </trkpt>
      <trkpt lat="45.92754" lon="6.35055">
        <ele>2021</ele>
        <time>2026-08-19T08:07:28.566Z</time>
      </trkpt>
      <trkpt lat="45.92754" lon="6.35055">
        <ele>2021</ele>
        <time>2026-08-19T08:07:29.566Z</time>
      </trkpt>
      <trkpt lat="45.92754" lon="6.35055">
        <ele>2021</ele>
        <time>2026-08-19T08:07:30.566Z</time>
      </trkpt>
      <trkpt lat="45.92754" lon="6.35055">
        <ele>2021</ele>
        <time>2026-08-19T08:07:31.566Z</time>
      </trkpt>
      <trkpt lat="45.92754" lon="6.35055">
        <ele>2021</ele>
        <time>2026-08-19T08:07:32.566Z</time>
      </trkpt>
      <trkpt lat="45.92754" lon="6.35055">
        <ele>2021</ele>
        <time>2026-08-19T08:07:33.566Z</time>
      </trkpt>
      <trkpt lat="45.92754" lon="6.35055">
        <ele>2021</ele>
        <time>2026-08-19T08:07:34.566Z</time>
      </trkpt>
      <trkpt lat="45.92754" lon="6.35055">
        <ele>2021</ele>
        <time>2026-08-19T08:07:35.566Z</time>
      </trkpt>
      <trkpt lat="45.92754" lon="6.35055">
        <ele>2021</ele>
        <time>2026-08-19T08:07:36.566Z</time>
      </trkpt>
      <trkpt lat="45.92754" lon="6.35055">
        <ele>2021</ele>
        <time>2026-08-19T08:07:37.566Z</time>
      </trkpt>
      <trkpt lat="45.92754" lon="6.35055">
        <ele>2021</ele>
        <time>2026-08-19T08:07:38.567Z</time>
      </trkpt>
      <trkpt lat="45.92754" lon="6.35055">
        <ele>2021</ele>
        <time>2026-08-19T08:07:39.566Z</time>
      </trkpt>
      <trkpt lat="45.92754" lon="6.35055">
        <ele>2021</ele>
        <time>2026-08-19T08:07:40.566Z</time>
      </trkpt>
      <trkpt lat="45.92754" lon="6.35055">
        <ele>2021</ele>
        <time>2026-08-19T08:07:41.566Z</time>
      </trkpt>
      <trkpt lat="45.92754" lon="6.35055">
        <ele>2021</ele>
        <time>2026-08-19T08:07:42.566Z</time>
      </trkpt>
      <trkpt lat="45.92754" lon="6.35055">
        <ele>2021</ele>
        <time>2026-08-19T08:07:43.566Z</time>
      </trkpt>
      <trkpt lat="45.92754" lon="6.35055">
        <ele>2021</ele>
        <time>2026-08-19T08:07:44.566Z</time>
      </trkpt>
      <trkpt lat="45.92754" lon="6.35055">
        <ele>2021</ele>
        <time>2026-08-19T08:07:45.566Z</time>
      </trkpt>
      <trkpt lat="45.92754" lon="6.35055">
        <ele>2021</ele>
        <time>2026-08-19T08:07:46.566Z</time>
      </trkpt>
      <trkpt lat="45.92754" lon="6.35055">
        <ele>2021</ele>
        <time>2026-08-19T08:07:47.566Z</time>
      </trkpt>
      <trkpt lat="45.92754" lon="6.35055">
        <ele>2021</ele>
        <time>2026-08-19T08:07:48.566Z</time>
      </trkpt>
      <trkpt lat="45.92754" lon="6.35055">
        <ele>2021</ele>
        <time>2026-08-19T08:07:49.566Z</time>
      </trkpt>
      <trkpt lat="45.92754" lon="6.35055">
        <ele>2021</ele>
        <time>2026-08-19T08:07:50.566Z</time>
      </trkpt>
      <trkpt lat="45.92754" lon="6.35055">
        <ele>2021</ele>
        <time>2026-08-19T08:07:51.566Z</time>
      </trkpt>
      <trkpt lat="45.92754" lon="6.35055">
        <ele>2021</ele>
        <time>2026-08-19T08:07:52.566Z</time>
      </trkpt>
      <trkpt lat="45.92754" lon="6.35055">
        <ele>2021</ele>
        <time>2026-08-19T08:07:53.566Z</time>
      </trkpt>
      <trkpt lat="45.92754" lon="6.35055">
        <ele>2021</ele>
        <time>2026-08-19T08:07:54.566Z</time>
      </trkpt>
      <trkpt lat="45.92754" lon="6.35055">
        <ele>2021</ele>
        <time>2026-08-19T08:07:55.566Z</time>
      </trkpt>
      <trkpt lat="45.92754" lon="6.35055">
        <ele>2021</ele>
        <time>2026-08-19T08:07:56.566Z</time>
      </trkpt>
      <trkpt lat="45.92754" lon="6.35055">
        <ele>2021</ele>
        <time>2026-08-19T08:07:57.566Z</time>
      </trkpt>
      <trkpt lat="45.92754" lon="6.35055">
        <ele>2021</ele>
        <time>2026-08-19T08:07:58.566Z</time>
      </trkpt>
      <trkpt lat="45.92754" lon="6.35055">
        <ele>2021</ele>
        <time>2026-08-19T08:07:59.566Z</time>
      </trkpt>
      <trkpt lat="45.92754" lon="6.35055">
        <ele>2021</ele>
        <time>2026-08-19T08:08:00.566Z</time>
      </trkpt>
      <trkpt lat="45.92754" lon="6.35055">
        <ele>2021</ele>
        <time>2026-08-19T08:08:01.566Z</time>
      </trkpt>
      <trkpt lat="45.92754" lon="6.35055">
        <ele>2021</ele>
        <time>2026-08-19T08:08:02.566Z</time>
      </trkpt>
      <trkpt lat="45.92754" lon="6.35055">
        <ele>2021</ele>
        <time>2026-08-19T08:08:03.566Z</time>
      </trkpt>
      <trkpt lat="45.92754" lon="6.35055">
        <ele>2022</ele>
        <time>2026-08-19T08:08:04.566Z</time>
      </trkpt>
      <trkpt lat="45.92754" lon="6.35055">
        <ele>2022</ele>
        <time>2026-08-19T08:08:05.566Z</time>
      </trkpt>
      <trkpt lat="45.92754" lon="6.35055">
        <ele>2022</ele>
        <time>2026-08-19T08:08:06.566Z</time>
      </trkpt>
      <trkpt lat="45.92754" lon="6.35055">
        <ele>2022</ele>
        <time>2026-08-19T08:08:07.566Z</time>
      </trkpt>
      <trkpt lat="45.92754" lon="6.35055">
        <ele>2022</ele>
        <time>2026-08-19T08:08:08.566Z</time>
      </trkpt>
      <trkpt lat="45.92754" lon="6.35055">
        <ele>2022</ele>
        <time>2026-08-19T08:08:09.566Z</time>
      </trkpt>
      <trkpt lat="45.92754" lon="6.35055">
        <ele>2022</ele>
        <time>2026-08-19T08:08:10.566Z</time>
      </trkpt>
      <trkpt lat="45.92754" lon="6.35055">
        <ele>2022</ele>
        <time>2026-08-19T08:08:11.566Z</time>
      </trkpt>
      <trkpt lat="45.92754" lon="6.35055">
        <ele>2022</ele>
        <time>2026-08-19T08:08:12.566Z</time>
      </trkpt>
      <trkpt lat="45.92754" lon="6.35055">
        <ele>2022</ele>
        <time>2026-08-19T08:08:13.566Z</time>
      </trkpt>
      <trkpt lat="45.92754" lon="6.35055">
        <ele>2022</ele>
        <time>2026-08-19T08:08:14.566Z</time>
      </trkpt>
      <trkpt lat="45.92754" lon="6.35055">
        <ele>2022</ele>
        <time>2026-08-19T08:08:15.566Z</time>
      </trkpt>
      <trkpt lat="45.92754" lon="6.35055">
        <ele>2022</ele>
        <time>2026-08-19T08:08:16.566Z</time>
      </trkpt>
      <trkpt lat="45.92754" lon="6.35055">
        <ele>2022</ele>
        <time>2026-08-19T08:08:17.566Z</time>
      </trkpt>
      <trkpt lat="45.92754" lon="6.35055">
        <ele>2022</ele>
        <time>2026-08-19T08:08:18.566Z</time>
      </trkpt>
      <trkpt lat="45.92754" lon="6.35055">
        <ele>2022</ele>
        <time>2026-08-19T08:08:19.566Z</time>
      </trkpt>
      <trkpt lat="45.92754" lon="6.35055">
        <ele>2022</ele>
        <time>2026-08-19T08:08:20.566Z</time>
      </trkpt>
      <trkpt lat="45.92754" lon="6.35055">
        <ele>2022</ele>
        <time>2026-08-19T08:08:21.566Z</time>
      </trkpt>
      <trkpt lat="45.92754" lon="6.35055">
        <ele>2022</ele>
        <time>2026-08-19T08:08:22.566Z</time>
      </trkpt>
      <trkpt lat="45.92754" lon="6.35055">
        <ele>2022</ele>
        <time>2026-08-19T08:08:23.566Z</time>
      </trkpt>
      <trkpt lat="45.92754" lon="6.35055">
        <ele>2022</ele>
        <time>2026-08-19T08:08:24.566Z</time>
      </trkpt>
      <trkpt lat="45.92754" lon="6.35055">
        <ele>2022</ele>
        <time>2026-08-19T08:08:25.566Z</time>
      </trkpt>
      <trkpt lat="45.92754" lon="6.35055">
        <ele>2022</ele>
        <time>2026-08-19T08:08:26.566Z</time>
      </trkpt>
      <trkpt lat="45.92754" lon="6.35055">
        <ele>2022</ele>
        <time>2026-08-19T08:08:27.566Z</time>
      </trkpt>
      <trkpt lat="45.92754" lon="6.35055">
        <ele>2022</ele>
        <time>2026-08-19T08:08:28.566Z</time>
      </trkpt>
      <trkpt lat="45.92754" lon="6.35055">
        <ele>2022</ele>
        <time>2026-08-19T08:08:29.566Z</time>
      </trkpt>
      <trkpt lat="45.92754" lon="6.35055">
        <ele>2022</ele>
        <time>2026-08-19T08:08:30.566Z</time>
      </trkpt>
      <trkpt lat="45.92754" lon="6.35055">
        <ele>2022</ele>
        <time>2026-08-19T08:08:31.566Z</time>
      </trkpt>
      <trkpt lat="45.92754" lon="6.35055">
        <ele>2022</ele>
        <time>2026-08-19T08:08:32.566Z</time>
      </trkpt>
      <trkpt lat="45.92754" lon="6.35055">
        <ele>2022</ele>
        <time>2026-08-19T08:08:33.566Z</time>
      </trkpt>
      <trkpt lat="45.92754" lon="6.35055">
        <ele>2022</ele>
        <time>2026-08-19T08:08:34.566Z</time>
      </trkpt>
      <trkpt lat="45.92754" lon="6.35055">
        <ele>2022</ele>
        <time>2026-08-19T08:08:35.566Z</time>
      </trkpt>
      <trkpt lat="45.92754" lon="6.35055">
        <ele>2022</ele>
        <time>2026-08-19T08:08:36.566Z</time>
      </trkpt>
      <trkpt lat="45.92754" lon="6.35055">
        <ele>2022</ele>
        <time>2026-08-19T08:08:37.566Z</time>
      </trkpt>
      <trkpt lat="45.92754" lon="6.35055">
        <ele>2022</ele>
        <time>2026-08-19T08:08:38.566Z</time>
      </trkpt>
      <trkpt lat="45.92754" lon="6.35055">
        <ele>2022</ele>
        <time>2026-08-19T08:08:39.567Z</time>
      </trkpt>
      <trkpt lat="45.92754" lon="6.35055">
        <ele>2022</ele>
        <time>2026-08-19T08:08:40.566Z</time>
      </trkpt>
      <trkpt lat="45.92754" lon="6.35055">
        <ele>2022</ele>
        <time>2026-08-19T08:08:41.566Z</time>
      </trkpt>
      <trkpt lat="45.92754" lon="6.35055">
        <ele>2022</ele>
        <time>2026-08-19T08:08:42.566Z</time>
      </trkpt>
      <trkpt lat="45.92754" lon="6.35055">
        <ele>2022</ele>
        <time>2026-08-19T08:08:43.566Z</time>
      </trkpt>
      <trkpt lat="45.92754" lon="6.35055">
        <ele>2022</ele>
        <time>2026-08-19T08:08:44.566Z</time>
      </trkpt>
      <trkpt lat="45.92754" lon="6.35055">
        <ele>2022</ele>
        <time>2026-08-19T08:08:45.566Z</time>
      </trkpt>
      <trkpt lat="45.92754" lon="6.35055">
        <ele>2022</ele>
        <time>2026-08-19T08:08:46.566Z</time>
      </trkpt>
      <trkpt lat="45.92754" lon="6.35055">
        <ele>2022</ele>
        <time>2026-08-19T08:08:47.566Z</time>
      </trkpt>
      <trkpt lat="45.92754" lon="6.35055">
        <ele>2022</ele>
        <time>2026-08-19T08:08:48.566Z</time>
      </trkpt>
      <trkpt lat="45.92754" lon="6.35055">
        <ele>2022</ele>
        <time>2026-08-19T08:08:49.566Z</time>
      </trkpt>
      <trkpt lat="45.92754" lon="6.35055">
        <ele>2022</ele>
        <time>2026-08-19T08:08:50.566Z</time>
      </trkpt>
      <trkpt lat="45.92754" lon="6.35055">
        <ele>2022</ele>
        <time>2026-08-19T08:08:51.566Z</time>
      </trkpt>
      <trkpt lat="45.92754" lon="6.35055">
        <ele>2022</ele>
        <time>2026-08-19T08:08:52.566Z</time>
      </trkpt>
      <trkpt lat="45.92754" lon="6.35055">
        <ele>2022</ele>
        <time>2026-08-19T08:08:53.566Z</time>
      </trkpt>
      <trkpt lat="45.92754" lon="6.35055">
        <ele>2022</ele>
        <time>2026-08-19T08:08:54.566Z</time>
      </trkpt>
      <trkpt lat="45.92754" lon="6.35055">
        <ele>2022</ele>
        <time>2026-08-19T08:08:55.566Z</time>
      </trkpt>
      <trkpt lat="45.92754" lon="6.35055">
        <ele>2022</ele>
        <time>2026-08-19T08:08:56.566Z</time>
      </trkpt>
      <trkpt lat="45.92754" lon="6.35055">
        <ele>2022</ele>
        <time>2026-08-19T08:08:57.566Z</time>
      </trkpt>
      <trkpt lat="45.92754" lon="6.35055">
        <ele>2022</ele>
        <time>2026-08-19T08:08:58.566Z</time>
      </trkpt>
      <trkpt lat="45.92754" lon="6.35055">
        <ele>2022</ele>
        <time>2026-08-19T08:08:59.566Z</time>
      </trkpt>
      <trkpt lat="45.92754" lon="6.35055">
        <ele>2022</ele>
        <time>2026-08-19T08:09:00.566Z</time>
      </trkpt>
      <trkpt lat="45.92755" lon="6.35057">
        <ele>2022</ele>
        <time>2026-08-19T08:09:01.566Z</time>
      </trkpt>
      <trkpt lat="45.92756" lon="6.35058">
        <ele>2022</ele>
        <time>2026-08-19T08:09:02.566Z</time>
      </trkpt>
      <trkpt lat="45.92757" lon="6.35059">
        <ele>2022</ele>
        <time>2026-08-19T08:09:03.566Z</time>
      </trkpt>
      <trkpt lat="45.92757" lon="6.35059">
        <ele>2022</ele>
        <time>2026-08-19T08:09:04.566Z</time>
      </trkpt>
      <trkpt lat="45.92757" lon="6.3506">
        <ele>2022</ele>
        <time>2026-08-19T08:09:05.566Z</time>
      </trkpt>
      <trkpt lat="45.92758" lon="6.3506">
        <ele>2023</ele>
        <time>2026-08-19T08:09:06.566Z</time>
      </trkpt>
      <trkpt lat="45.92759" lon="6.35061">
        <ele>2023</ele>
        <time>2026-08-19T08:09:07.566Z</time>
      </trkpt>
      <trkpt lat="45.92759" lon="6.35063">
        <ele>2023</ele>
        <time>2026-08-19T08:09:08.566Z</time>
      </trkpt>
      <trkpt lat="45.9276" lon="6.35065">
        <ele>2023</ele>
        <time>2026-08-19T08:09:09.566Z</time>
      </trkpt>
      <trkpt lat="45.92761" lon="6.35067">
        <ele>2022</ele>
        <time>2026-08-19T08:09:10.566Z</time>
      </trkpt>
      <trkpt lat="45.92762" lon="6.35069">
        <ele>2022</ele>
        <time>2026-08-19T08:09:11.566Z</time>
      </trkpt>
      <trkpt lat="45.92763" lon="6.35071">
        <ele>2022</ele>
        <time>2026-08-19T08:09:12.566Z</time>
      </trkpt>
      <trkpt lat="45.92763" lon="6.35073">
        <ele>2022</ele>
        <time>2026-08-19T08:09:13.566Z</time>
      </trkpt>
      <trkpt lat="45.92764" lon="6.35075">
        <ele>2022</ele>
        <time>2026-08-19T08:09:14.566Z</time>
      </trkpt>
      <trkpt lat="45.92765" lon="6.35077">
        <ele>2022</ele>
        <time>2026-08-19T08:09:15.566Z</time>
      </trkpt>
      <trkpt lat="45.92765" lon="6.35078">
        <ele>2022</ele>
        <time>2026-08-19T08:09:16.566Z</time>
      </trkpt>
      <trkpt lat="45.92765" lon="6.3508">
        <ele>2022</ele>
        <time>2026-08-19T08:09:17.566Z</time>
      </trkpt>
      <trkpt lat="45.92765" lon="6.35082">
        <ele>2022</ele>
        <time>2026-08-19T08:09:18.566Z</time>
      </trkpt>
      <trkpt lat="45.92765" lon="6.35084">
        <ele>2022</ele>
        <time>2026-08-19T08:09:19.566Z</time>
      </trkpt>
      <trkpt lat="45.92765" lon="6.35086">
        <ele>2023</ele>
        <time>2026-08-19T08:09:20.566Z</time>
      </trkpt>
      <trkpt lat="45.92765" lon="6.35087">
        <ele>2023</ele>
        <time>2026-08-19T08:09:21.566Z</time>
      </trkpt>
      <trkpt lat="45.92765" lon="6.35089">
        <ele>2023</ele>
        <time>2026-08-19T08:09:22.566Z</time>
      </trkpt>
      <trkpt lat="45.92765" lon="6.3509">
        <ele>2023</ele>
        <time>2026-08-19T08:09:23.566Z</time>
      </trkpt>
      <trkpt lat="45.92765" lon="6.35091">
        <ele>2024</ele>
        <time>2026-08-19T08:09:24.566Z</time>
      </trkpt>
      <trkpt lat="45.92765" lon="6.35092">
        <ele>2024</ele>
        <time>2026-08-19T08:09:25.566Z</time>
      </trkpt>
      <trkpt lat="45.92765" lon="6.35092">
        <ele>2024</ele>
        <time>2026-08-19T08:09:26.566Z</time>
      </trkpt>
      <trkpt lat="45.92768" lon="6.35097">
        <ele>2024</ele>
        <time>2026-08-19T08:10:27.344Z</time>
      </trkpt>
      <trkpt lat="45.92768" lon="6.35097">
        <ele>2024</ele>
        <time>2026-08-19T08:10:28.344Z</time>
      </trkpt>
      <trkpt lat="45.92768" lon="6.35097">
        <ele>2024</ele>
        <time>2026-08-19T08:10:29.344Z</time>
      </trkpt>
      <trkpt lat="45.92768" lon="6.35097">
        <ele>2024</ele>
        <time>2026-08-19T08:10:30.344Z</time>
      </trkpt>
      <trkpt lat="45.92768" lon="6.35097">
        <ele>2024</ele>
        <time>2026-08-19T08:10:31.344Z</time>
      </trkpt>
      <trkpt lat="45.92768" lon="6.35097">
        <ele>2024</ele>
        <time>2026-08-19T08:10:32.344Z</time>
      </trkpt>
      <trkpt lat="45.92768" lon="6.35097">
        <ele>2024</ele>
        <time>2026-08-19T08:10:33.344Z</time>
      </trkpt>
      <trkpt lat="45.92768" lon="6.35097">
        <ele>2024</ele>
        <time>2026-08-19T08:10:34.344Z</time>
      </trkpt>
      <trkpt lat="45.92768" lon="6.35097">
        <ele>2024</ele>
        <time>2026-08-19T08:10:35.345Z</time>
      </trkpt>
      <trkpt lat="45.92768" lon="6.35097">
        <ele>2024</ele>
        <time>2026-08-19T08:10:36.344Z</time>
      </trkpt>
      <trkpt lat="45.92768" lon="6.35097">
        <ele>2024</ele>
        <time>2026-08-19T08:10:37.344Z</time>
      </trkpt>
      <trkpt lat="45.92768" lon="6.35097">
        <ele>2024</ele>
        <time>2026-08-19T08:10:38.344Z</time>
      </trkpt>
      <trkpt lat="45.92768" lon="6.35097">
        <ele>2024</ele>
        <time>2026-08-19T08:10:39.344Z</time>
      </trkpt>
      <trkpt lat="45.92768" lon="6.35097">
        <ele>2024</ele>
        <time>2026-08-19T08:10:40.344Z</time>
      </trkpt>
      <trkpt lat="45.92768" lon="6.35097">
        <ele>2024</ele>
        <time>2026-08-19T08:10:41.344Z</time>
      </trkpt>
      <trkpt lat="45.92768" lon="6.35097">
        <ele>2024</ele>
        <time>2026-08-19T08:10:42.344Z</time>
      </trkpt>
      <trkpt lat="45.92768" lon="6.35097">
        <ele>2024</ele>
        <time>2026-08-19T08:10:43.344Z</time>
      </trkpt>
      <trkpt lat="45.92768" lon="6.35097">
        <ele>2024</ele>
        <time>2026-08-19T08:10:44.344Z</time>
      </trkpt>
      <trkpt lat="45.92768" lon="6.35097">
        <ele>2024</ele>
        <time>2026-08-19T08:10:45.345Z</time>
      </trkpt>
      <trkpt lat="45.92768" lon="6.35098">
        <ele>2024</ele>
        <time>2026-08-19T08:10:46.344Z</time>
      </trkpt>
      <trkpt lat="45.92768" lon="6.35098">
        <ele>2024</ele>
        <time>2026-08-19T08:10:47.345Z</time>
      </trkpt>
      <trkpt lat="45.92768" lon="6.35098">
        <ele>2024</ele>
        <time>2026-08-19T08:10:48.344Z</time>
      </trkpt>
      <trkpt lat="45.92767" lon="6.35098">
        <ele>2024</ele>
        <time>2026-08-19T08:10:49.344Z</time>
      </trkpt>
      <trkpt lat="45.92767" lon="6.35099">
        <ele>2024</ele>
        <time>2026-08-19T08:10:50.344Z</time>
      </trkpt>
      <trkpt lat="45.92767" lon="6.35099">
        <ele>2024</ele>
        <time>2026-08-19T08:10:51.344Z</time>
      </trkpt>
      <trkpt lat="45.92767" lon="6.351">
        <ele>2024</ele>
        <time>2026-08-19T08:10:52.344Z</time>
      </trkpt>
      <trkpt lat="45.92767" lon="6.35101">
        <ele>2024</ele>
        <time>2026-08-19T08:10:53.344Z</time>
      </trkpt>
      <trkpt lat="45.92767" lon="6.35102">
        <ele>2024</ele>
        <time>2026-08-19T08:10:54.344Z</time>
      </trkpt>
      <trkpt lat="45.92767" lon="6.35104">
        <ele>2024</ele>
        <time>2026-08-19T08:10:55.344Z</time>
      </trkpt>
      <trkpt lat="45.92767" lon="6.35105">
        <ele>2023</ele>
        <time>2026-08-19T08:10:56.344Z</time>
      </trkpt>
      <trkpt lat="45.92767" lon="6.35106">
        <ele>2023</ele>
        <time>2026-08-19T08:10:57.344Z</time>
      </trkpt>
      <trkpt lat="45.92767" lon="6.35108">
        <ele>2022</ele>
        <time>2026-08-19T08:10:58.344Z</time>
      </trkpt>
      <trkpt lat="45.92766" lon="6.35109">
        <ele>2022</ele>
        <time>2026-08-19T08:10:59.344Z</time>
      </trkpt>
      <trkpt lat="45.92766" lon="6.3511">
        <ele>2021</ele>
        <time>2026-08-19T08:11:00.344Z</time>
      </trkpt>
      <trkpt lat="45.92766" lon="6.35112">
        <ele>2021</ele>
        <time>2026-08-19T08:11:01.344Z</time>
      </trkpt>
      <trkpt lat="45.92766" lon="6.35113">
        <ele>2020</ele>
        <time>2026-08-19T08:11:02.344Z</time>
      </trkpt>
      <trkpt lat="45.92766" lon="6.35113">
        <ele>2020</ele>
        <time>2026-08-19T08:11:03.344Z</time>
      </trkpt>
      <trkpt lat="45.92766" lon="6.35113">
        <ele>2019</ele>
        <time>2026-08-19T08:11:04.344Z</time>
      </trkpt>
      <trkpt lat="45.92766" lon="6.35113">
        <ele>2019</ele>
        <time>2026-08-19T08:11:05.344Z</time>
      </trkpt>
      <trkpt lat="45.92766" lon="6.35113">
        <ele>2018</ele>
        <time>2026-08-19T08:11:06.344Z</time>
      </trkpt>
      <trkpt lat="45.92765" lon="6.35114">
        <ele>2018</ele>
        <time>2026-08-19T08:11:07.345Z</time>
      </trkpt>
      <trkpt lat="45.92765" lon="6.35113">
        <ele>2018</ele>
        <time>2026-08-19T08:11:08.344Z</time>
      </trkpt>
      <trkpt lat="45.92765" lon="6.35114">
        <ele>2017</ele>
        <time>2026-08-19T08:11:09.344Z</time>
      </trkpt>
      <trkpt lat="45.92765" lon="6.35114">
        <ele>2017</ele>
        <time>2026-08-19T08:11:10.344Z</time>
      </trkpt>
      <trkpt lat="45.92764" lon="6.35114">
        <ele>2017</ele>
        <time>2026-08-19T08:11:11.344Z</time>
      </trkpt>
      <trkpt lat="45.92764" lon="6.35114">
        <ele>2016</ele>
        <time>2026-08-19T08:11:12.344Z</time>
      </trkpt>
      <trkpt lat="45.92764" lon="6.35115">
        <ele>2016</ele>
        <time>2026-08-19T08:11:13.344Z</time>
      </trkpt>
      <trkpt lat="45.92764" lon="6.35116">
        <ele>2016</ele>
        <time>2026-08-19T08:11:14.344Z</time>
      </trkpt>
      <trkpt lat="45.92765" lon="6.35117">
        <ele>2016</ele>
        <time>2026-08-19T08:11:15.344Z</time>
      </trkpt>
      <trkpt lat="45.92765" lon="6.35119">
        <ele>2016</ele>
        <time>2026-08-19T08:11:16.344Z</time>
      </trkpt>
      <trkpt lat="45.92765" lon="6.3512">
        <ele>2016</ele>
        <time>2026-08-19T08:11:17.344Z</time>
      </trkpt>
      <trkpt lat="45.92765" lon="6.35121">
        <ele>2016</ele>
        <time>2026-08-19T08:11:18.344Z</time>
      </trkpt>
      <trkpt lat="45.92765" lon="6.35121">
        <ele>2016</ele>
        <time>2026-08-19T08:11:19.344Z</time>
      </trkpt>
      <trkpt lat="45.92765" lon="6.35122">
        <ele>2016</ele>
        <time>2026-08-19T08:11:20.344Z</time>
      </trkpt>
      <trkpt lat="45.92765" lon="6.35123">
        <ele>2015</ele>
        <time>2026-08-19T08:11:21.344Z</time>
      </trkpt>
      <trkpt lat="45.92765" lon="6.35124">
        <ele>2015</ele>
        <time>2026-08-19T08:11:22.344Z</time>
      </trkpt>
      <trkpt lat="45.92765" lon="6.35125">
        <ele>2015</ele>
        <time>2026-08-19T08:11:23.344Z</time>
      </trkpt>
      <trkpt lat="45.92765" lon="6.35126">
        <ele>2014</ele>
        <time>2026-08-19T08:11:24.344Z</time>
      </trkpt>
      <trkpt lat="45.92765" lon="6.35127">
        <ele>2014</ele>
        <time>2026-08-19T08:11:25.344Z</time>
      </trkpt>
      <trkpt lat="45.92764" lon="6.35128">
        <ele>2014</ele>
        <time>2026-08-19T08:11:26.344Z</time>
      </trkpt>
      <trkpt lat="45.92764" lon="6.35129">
        <ele>2013</ele>
        <time>2026-08-19T08:11:27.344Z</time>
      </trkpt>
      <trkpt lat="45.92764" lon="6.35129">
        <ele>2013</ele>
        <time>2026-08-19T08:11:28.344Z</time>
      </trkpt>
      <trkpt lat="45.92764" lon="6.35131">
        <ele>2012</ele>
        <time>2026-08-19T08:11:29.344Z</time>
      </trkpt>
      <trkpt lat="45.92764" lon="6.35132">
        <ele>2012</ele>
        <time>2026-08-19T08:11:30.344Z</time>
      </trkpt>
      <trkpt lat="45.92765" lon="6.35133">
        <ele>2012</ele>
        <time>2026-08-19T08:11:31.344Z</time>
      </trkpt>
      <trkpt lat="45.92765" lon="6.35134">
        <ele>2012</ele>
        <time>2026-08-19T08:11:32.344Z</time>
      </trkpt>
      <trkpt lat="45.92766" lon="6.35135">
        <ele>2012</ele>
        <time>2026-08-19T08:11:33.344Z</time>
      </trkpt>
      <trkpt lat="45.92766" lon="6.35136">
        <ele>2011</ele>
        <time>2026-08-19T08:11:34.344Z</time>
      </trkpt>
      <trkpt lat="45.92766" lon="6.35137">
        <ele>2011</ele>
        <time>2026-08-19T08:11:35.344Z</time>
      </trkpt>
      <trkpt lat="45.92766" lon="6.35138">
        <ele>2011</ele>
        <time>2026-08-19T08:11:36.344Z</time>
      </trkpt>
      <trkpt lat="45.92766" lon="6.35138">
        <ele>2011</ele>
        <time>2026-08-19T08:11:37.344Z</time>
      </trkpt>
      <trkpt lat="45.92766" lon="6.35139">
        <ele>2011</ele>
        <time>2026-08-19T08:11:38.344Z</time>
      </trkpt>
      <trkpt lat="45.92765" lon="6.35139">
        <ele>2010</ele>
        <time>2026-08-19T08:11:39.344Z</time>
      </trkpt>
      <trkpt lat="45.92765" lon="6.35139">
        <ele>2010</ele>
        <time>2026-08-19T08:11:40.344Z</time>
      </trkpt>
      <trkpt lat="45.92764" lon="6.35139">
        <ele>2009</ele>
        <time>2026-08-19T08:11:41.344Z</time>
      </trkpt>
      <trkpt lat="45.92764" lon="6.35139">
        <ele>2008</ele>
        <time>2026-08-19T08:11:42.344Z</time>
      </trkpt>
      <trkpt lat="45.92763" lon="6.35139">
        <ele>2008</ele>
        <time>2026-08-19T08:11:43.345Z</time>
      </trkpt>
      <trkpt lat="45.92763" lon="6.35139">
        <ele>2007</ele>
        <time>2026-08-19T08:11:44.344Z</time>
      </trkpt>
      <trkpt lat="45.92762" lon="6.35139">
        <ele>2007</ele>
        <time>2026-08-19T08:11:45.344Z</time>
      </trkpt>
      <trkpt lat="45.92762" lon="6.3514">
        <ele>2007</ele>
        <time>2026-08-19T08:11:46.344Z</time>
      </trkpt>
      <trkpt lat="45.92762" lon="6.3514">
        <ele>2007</ele>
        <time>2026-08-19T08:11:47.344Z</time>
      </trkpt>
      <trkpt lat="45.92762" lon="6.3514">
        <ele>2007</ele>
        <time>2026-08-19T08:11:48.344Z</time>
      </trkpt>
      <trkpt lat="45.92762" lon="6.35141">
        <ele>2007</ele>
        <time>2026-08-19T08:11:49.344Z</time>
      </trkpt>
      <trkpt lat="45.92762" lon="6.35141">
        <ele>2006</ele>
        <time>2026-08-19T08:11:50.344Z</time>
      </trkpt>
      <trkpt lat="45.92761" lon="6.35142">
        <ele>2006</ele>
        <time>2026-08-19T08:11:51.344Z</time>
      </trkpt>
      <trkpt lat="45.92761" lon="6.35143">
        <ele>2006</ele>
        <time>2026-08-19T08:11:52.344Z</time>
      </trkpt>
      <trkpt lat="45.92761" lon="6.35144">
        <ele>2006</ele>
        <time>2026-08-19T08:11:53.344Z</time>
      </trkpt>
      <trkpt lat="45.92762" lon="6.35146">
        <ele>2006</ele>
        <time>2026-08-19T08:11:54.344Z</time>
      </trkpt>
      <trkpt lat="45.92762" lon="6.35147">
        <ele>2005</ele>
        <time>2026-08-19T08:11:55.344Z</time>
      </trkpt>
      <trkpt lat="45.92762" lon="6.35148">
        <ele>2005</ele>
        <time>2026-08-19T08:11:56.344Z</time>
      </trkpt>
      <trkpt lat="45.92762" lon="6.35149">
        <ele>2005</ele>
        <time>2026-08-19T08:11:57.344Z</time>
      </trkpt>
      <trkpt lat="45.92762" lon="6.3515">
        <ele>2005</ele>
        <time>2026-08-19T08:11:58.344Z</time>
      </trkpt>
      <trkpt lat="45.92762" lon="6.3515">
        <ele>2005</ele>
        <time>2026-08-19T08:11:59.344Z</time>
      </trkpt>
      <trkpt lat="45.92761" lon="6.3515">
        <ele>2004</ele>
        <time>2026-08-19T08:12:00.344Z</time>
      </trkpt>
      <trkpt lat="45.92761" lon="6.3515">
        <ele>2004</ele>
        <time>2026-08-19T08:12:01.344Z</time>
      </trkpt>
      <trkpt lat="45.9276" lon="6.35149">
        <ele>2003</ele>
        <time>2026-08-19T08:12:02.344Z</time>
      </trkpt>
      <trkpt lat="45.9276" lon="6.3515">
        <ele>2003</ele>
        <time>2026-08-19T08:12:03.344Z</time>
      </trkpt>
      <trkpt lat="45.9276" lon="6.3515">
        <ele>2003</ele>
        <time>2026-08-19T08:12:04.344Z</time>
      </trkpt>
      <trkpt lat="45.92759" lon="6.3515">
        <ele>2003</ele>
        <time>2026-08-19T08:12:05.344Z</time>
      </trkpt>
      <trkpt lat="45.92759" lon="6.3515">
        <ele>2002</ele>
        <time>2026-08-19T08:12:06.344Z</time>
      </trkpt>
      <trkpt lat="45.92758" lon="6.35149">
        <ele>2002</ele>
        <time>2026-08-19T08:12:07.344Z</time>
      </trkpt>
      <trkpt lat="45.92758" lon="6.3515">
        <ele>2001</ele>
        <time>2026-08-19T08:12:08.344Z</time>
      </trkpt>
      <trkpt lat="45.92757" lon="6.3515">
        <ele>2001</ele>
        <time>2026-08-19T08:12:09.344Z</time>
      </trkpt>
      <trkpt lat="45.92757" lon="6.3515">
        <ele>2001</ele>
        <time>2026-08-19T08:12:10.344Z</time>
      </trkpt>
      <trkpt lat="45.92757" lon="6.3515">
        <ele>2000</ele>
        <time>2026-08-19T08:12:11.344Z</time>
      </trkpt>
      <trkpt lat="45.92756" lon="6.3515">
        <ele>2001</ele>
        <time>2026-08-19T08:12:12.344Z</time>
      </trkpt>
      <trkpt lat="45.92756" lon="6.35151">
        <ele>2001</ele>
        <time>2026-08-19T08:12:13.344Z</time>
      </trkpt>
      <trkpt lat="45.92756" lon="6.35151">
        <ele>2001</ele>
        <time>2026-08-19T08:12:14.344Z</time>
      </trkpt>
      <trkpt lat="45.92755" lon="6.35151">
        <ele>2001</ele>
        <time>2026-08-19T08:12:15.344Z</time>
      </trkpt>
      <trkpt lat="45.92755" lon="6.35151">
        <ele>2001</ele>
        <time>2026-08-19T08:12:16.344Z</time>
      </trkpt>
      <trkpt lat="45.92755" lon="6.35151">
        <ele>2000</ele>
        <time>2026-08-19T08:12:17.344Z</time>
      </trkpt>
      <trkpt lat="45.92755" lon="6.35151">
        <ele>2000</ele>
        <time>2026-08-19T08:12:18.344Z</time>
      </trkpt>
      <trkpt lat="45.92755" lon="6.35151">
        <ele>2000</ele>
        <time>2026-08-19T08:12:19.344Z</time>
      </trkpt>
      <trkpt lat="45.92755" lon="6.35151">
        <ele>1999</ele>
        <time>2026-08-19T08:12:20.344Z</time>
      </trkpt>
      <trkpt lat="45.92755" lon="6.35152">
        <ele>1999</ele>
        <time>2026-08-19T08:12:21.344Z</time>
      </trkpt>
      <trkpt lat="45.92755" lon="6.35152">
        <ele>1999</ele>
        <time>2026-08-19T08:12:22.344Z</time>
      </trkpt>
      <trkpt lat="45.92755" lon="6.35153">
        <ele>1998</ele>
        <time>2026-08-19T08:12:23.344Z</time>
      </trkpt>
      <trkpt lat="45.92755" lon="6.35153">
        <ele>1998</ele>
        <time>2026-08-19T08:12:24.344Z</time>
      </trkpt>
      <trkpt lat="45.92755" lon="6.35153">
        <ele>1997</ele>
        <time>2026-08-19T08:12:25.344Z</time>
      </trkpt>
      <trkpt lat="45.92755" lon="6.35153">
        <ele>1997</ele>
        <time>2026-08-19T08:12:26.344Z</time>
      </trkpt>
      <trkpt lat="45.92755" lon="6.35153">
        <ele>1997</ele>
        <time>2026-08-19T08:12:27.344Z</time>
      </trkpt>
      <trkpt lat="45.92755" lon="6.35153">
        <ele>1997</ele>
        <time>2026-08-19T08:12:28.344Z</time>
      </trkpt>
      <trkpt lat="45.92755" lon="6.35153">
        <ele>1997</ele>
        <time>2026-08-19T08:12:29.344Z</time>
      </trkpt>
      <trkpt lat="45.92755" lon="6.35153">
        <ele>1996</ele>
        <time>2026-08-19T08:12:30.344Z</time>
      </trkpt>
      <trkpt lat="45.92755" lon="6.35153">
        <ele>1996</ele>
        <time>2026-08-19T08:12:31.344Z</time>
      </trkpt>
      <trkpt lat="45.92755" lon="6.35153">
        <ele>1996</ele>
        <time>2026-08-19T08:12:32.344Z</time>
      </trkpt>
      <trkpt lat="45.92755" lon="6.35153">
        <ele>1995</ele>
        <time>2026-08-19T08:12:33.344Z</time>
      </trkpt>
      <trkpt lat="45.92755" lon="6.35153">
        <ele>1995</ele>
        <time>2026-08-19T08:12:34.344Z</time>
      </trkpt>
      <trkpt lat="45.92755" lon="6.35153">
        <ele>1995</ele>
        <time>2026-08-19T08:12:35.345Z</time>
      </trkpt>
      <trkpt lat="45.92755" lon="6.35153">
        <ele>1995</ele>
        <time>2026-08-19T08:12:36.344Z</time>
      </trkpt>
      <trkpt lat="45.92755" lon="6.35153">
        <ele>1995</ele>
        <time>2026-08-19T08:12:37.344Z</time>
      </trkpt>
      <trkpt lat="45.92755" lon="6.35153">
        <ele>1995</ele>
        <time>2026-08-19T08:12:38.344Z</time>
      </trkpt>
      <trkpt lat="45.92755" lon="6.35153">
        <ele>1995</ele>
        <time>2026-08-19T08:12:39.344Z</time>
      </trkpt>
      <trkpt lat="45.92755" lon="6.35153">
        <ele>1995</ele>
        <time>2026-08-19T08:12:40.344Z</time>
      </trkpt>
      <trkpt lat="45.92755" lon="6.35153">
        <ele>1995</ele>
        <time>2026-08-19T08:12:41.344Z</time>
      </trkpt>
      <trkpt lat="45.92755" lon="6.35153">
        <ele>1995</ele>
        <time>2026-08-19T08:12:42.344Z</time>
      </trkpt>
      <trkpt lat="45.92755" lon="6.35153">
        <ele>1995</ele>
        <time>2026-08-19T08:12:43.344Z</time>
      </trkpt>
      <trkpt lat="45.92755" lon="6.35153">
        <ele>1995</ele>
        <time>2026-08-19T08:12:44.344Z</time>
      </trkpt>
      <trkpt lat="45.92755" lon="6.35153">
        <ele>1995</ele>
        <time>2026-08-19T08:12:45.344Z</time>
      </trkpt>
      <trkpt lat="45.92755" lon="6.35153">
        <ele>1995</ele>
        <time>2026-08-19T08:12:46.344Z</time>
      </trkpt>
      <trkpt lat="45.92755" lon="6.35153">
        <ele>1995</ele>
        <time>2026-08-19T08:12:47.344Z</time>
      </trkpt>
      <trkpt lat="45.92755" lon="6.35154">
        <ele>1995</ele>
        <time>2026-08-19T08:12:48.344Z</time>
      </trkpt>
      <trkpt lat="45.92755" lon="6.35156">
        <ele>1995</ele>
        <time>2026-08-19T08:12:49.344Z</time>
      </trkpt>
      <trkpt lat="45.92756" lon="6.35158">
        <ele>1995</ele>
        <time>2026-08-19T08:12:50.344Z</time>
      </trkpt>
      <trkpt lat="45.92756" lon="6.35159">
        <ele>1995</ele>
        <time>2026-08-19T08:12:51.344Z</time>
      </trkpt>
      <trkpt lat="45.92757" lon="6.35161">
        <ele>1995</ele>
        <time>2026-08-19T08:12:52.344Z</time>
      </trkpt>
      <trkpt lat="45.92757" lon="6.35163">
        <ele>1995</ele>
        <time>2026-08-19T08:12:53.344Z</time>
      </trkpt>
      <trkpt lat="45.92757" lon="6.35165">
        <ele>1995</ele>
        <time>2026-08-19T08:12:54.344Z</time>
      </trkpt>
      <trkpt lat="45.92758" lon="6.35167">
        <ele>1995</ele>
        <time>2026-08-19T08:12:55.344Z</time>
      </trkpt>
      <trkpt lat="45.92758" lon="6.35169">
        <ele>1994</ele>
        <time>2026-08-19T08:12:56.345Z</time>
      </trkpt>
      <trkpt lat="45.92759" lon="6.35172">
        <ele>1994</ele>
        <time>2026-08-19T08:12:57.344Z</time>
      </trkpt>
      <trkpt lat="45.92759" lon="6.35172">
        <ele>1994</ele>
        <time>2026-08-19T08:12:58.344Z</time>
      </trkpt>
      <trkpt lat="45.92759" lon="6.35173">
        <ele>1994</ele>
        <time>2026-08-19T08:12:59.344Z</time>
      </trkpt>
      <trkpt lat="45.92759" lon="6.35174">
        <ele>1994</ele>
        <time>2026-08-19T08:13:00.344Z</time>
      </trkpt>
      <trkpt lat="45.92759" lon="6.35175">
        <ele>1994</ele>
        <time>2026-08-19T08:13:01.344Z</time>
      </trkpt>
      <trkpt lat="45.92759" lon="6.35177">
        <ele>1994</ele>
        <time>2026-08-19T08:13:02.344Z</time>
      </trkpt>
      <trkpt lat="45.92758" lon="6.35179">
        <ele>1994</ele>
        <time>2026-08-19T08:13:03.344Z</time>
      </trkpt>
      <trkpt lat="45.92758" lon="6.35181">
        <ele>1994</ele>
        <time>2026-08-19T08:13:04.344Z</time>
      </trkpt>
      <trkpt lat="45.92758" lon="6.35182">
        <ele>1994</ele>
        <time>2026-08-19T08:13:05.344Z</time>
      </trkpt>
      <trkpt lat="45.92758" lon="6.35184">
        <ele>1994</ele>
        <time>2026-08-19T08:13:06.344Z</time>
      </trkpt>
      <trkpt lat="45.92758" lon="6.35186">
        <ele>1994</ele>
        <time>2026-08-19T08:13:07.344Z</time>
      </trkpt>
      <trkpt lat="45.92758" lon="6.35187">
        <ele>1994</ele>
        <time>2026-08-19T08:13:08.344Z</time>
      </trkpt>
      <trkpt lat="45.92758" lon="6.35188">
        <ele>1994</ele>
        <time>2026-08-19T08:13:09.345Z</time>
      </trkpt>
      <trkpt lat="45.92758" lon="6.35189">
        <ele>1994</ele>
        <time>2026-08-19T08:13:10.344Z</time>
      </trkpt>
      <trkpt lat="45.92758" lon="6.35191">
        <ele>1994</ele>
        <time>2026-08-19T08:13:11.344Z</time>
      </trkpt>
      <trkpt lat="45.92759" lon="6.35193">
        <ele>1994</ele>
        <time>2026-08-19T08:13:12.344Z</time>
      </trkpt>
      <trkpt lat="45.92759" lon="6.35194">
        <ele>1994</ele>
        <time>2026-08-19T08:13:13.344Z</time>
      </trkpt>
      <trkpt lat="45.92758" lon="6.35196">
        <ele>1994</ele>
        <time>2026-08-19T08:13:14.344Z</time>
      </trkpt>
      <trkpt lat="45.92758" lon="6.35198">
        <ele>1995</ele>
        <time>2026-08-19T08:13:15.344Z</time>
      </trkpt>
      <trkpt lat="45.92758" lon="6.352">
        <ele>1995</ele>
        <time>2026-08-19T08:13:16.344Z</time>
      </trkpt>
      <trkpt lat="45.92757" lon="6.35201">
        <ele>1995</ele>
        <time>2026-08-19T08:13:17.344Z</time>
      </trkpt>
      <trkpt lat="45.92756" lon="6.35202">
        <ele>1995</ele>
        <time>2026-08-19T08:13:18.344Z</time>
      </trkpt>
      <trkpt lat="45.92756" lon="6.35204">
        <ele>1995</ele>
        <time>2026-08-19T08:13:19.344Z</time>
      </trkpt>
      <trkpt lat="45.92756" lon="6.35205">
        <ele>1995</ele>
        <time>2026-08-19T08:13:20.344Z</time>
      </trkpt>
      <trkpt lat="45.92756" lon="6.35207">
        <ele>1995</ele>
        <time>2026-08-19T08:13:21.344Z</time>
      </trkpt>
      <trkpt lat="45.92756" lon="6.35208">
        <ele>1995</ele>
        <time>2026-08-19T08:13:22.344Z</time>
      </trkpt>
      <trkpt lat="45.92757" lon="6.35209">
        <ele>1995</ele>
        <time>2026-08-19T08:13:23.344Z</time>
      </trkpt>
      <trkpt lat="45.92757" lon="6.3521">
        <ele>1995</ele>
        <time>2026-08-19T08:13:24.345Z</time>
      </trkpt>
      <trkpt lat="45.92757" lon="6.35212">
        <ele>1995</ele>
        <time>2026-08-19T08:13:25.344Z</time>
      </trkpt>
      <trkpt lat="45.92757" lon="6.35213">
        <ele>1995</ele>
        <time>2026-08-19T08:13:26.344Z</time>
      </trkpt>
      <trkpt lat="45.92758" lon="6.35214">
        <ele>1994</ele>
        <time>2026-08-19T08:13:27.344Z</time>
      </trkpt>
      <trkpt lat="45.92758" lon="6.35215">
        <ele>1994</ele>
        <time>2026-08-19T08:13:28.344Z</time>
      </trkpt>
      <trkpt lat="45.92759" lon="6.35216">
        <ele>1993</ele>
        <time>2026-08-19T08:13:29.344Z</time>
      </trkpt>
      <trkpt lat="45.92758" lon="6.35218">
        <ele>1993</ele>
        <time>2026-08-19T08:13:30.344Z</time>
      </trkpt>
      <trkpt lat="45.92759" lon="6.35219">
        <ele>1993</ele>
        <time>2026-08-19T08:13:31.344Z</time>
      </trkpt>
      <trkpt lat="45.92759" lon="6.35219">
        <ele>1992</ele>
        <time>2026-08-19T08:13:32.344Z</time>
      </trkpt>
      <trkpt lat="45.92759" lon="6.3522">
        <ele>1992</ele>
        <time>2026-08-19T08:13:33.345Z</time>
      </trkpt>
      <trkpt lat="45.92759" lon="6.35221">
        <ele>1991</ele>
        <time>2026-08-19T08:13:34.344Z</time>
      </trkpt>
      <trkpt lat="45.92759" lon="6.35222">
        <ele>1990</ele>
        <time>2026-08-19T08:13:35.344Z</time>
      </trkpt>
      <trkpt lat="45.9276" lon="6.35223">
        <ele>1990</ele>
        <time>2026-08-19T08:13:36.344Z</time>
      </trkpt>
      <trkpt lat="45.9276" lon="6.35224">
        <ele>1989</ele>
        <time>2026-08-19T08:13:37.344Z</time>
      </trkpt>
      <trkpt lat="45.92761" lon="6.35225">
        <ele>1989</ele>
        <time>2026-08-19T08:13:38.344Z</time>
      </trkpt>
      <trkpt lat="45.9276" lon="6.35226">
        <ele>1988</ele>
        <time>2026-08-19T08:13:39.345Z</time>
      </trkpt>
      <trkpt lat="45.9276" lon="6.35226">
        <ele>1988</ele>
        <time>2026-08-19T08:13:40.344Z</time>
      </trkpt>
      <trkpt lat="45.9276" lon="6.35227">
        <ele>1987</ele>
        <time>2026-08-19T08:13:41.344Z</time>
      </trkpt>
      <trkpt lat="45.9276" lon="6.35228">
        <ele>1987</ele>
        <time>2026-08-19T08:13:42.344Z</time>
      </trkpt>
      <trkpt lat="45.9276" lon="6.35229">
        <ele>1987</ele>
        <time>2026-08-19T08:13:43.344Z</time>
      </trkpt>
      <trkpt lat="45.9276" lon="6.35229">
        <ele>1986</ele>
        <time>2026-08-19T08:13:44.344Z</time>
      </trkpt>
      <trkpt lat="45.9276" lon="6.3523">
        <ele>1986</ele>
        <time>2026-08-19T08:13:45.344Z</time>
      </trkpt>
      <trkpt lat="45.9276" lon="6.35231">
        <ele>1986</ele>
        <time>2026-08-19T08:13:46.344Z</time>
      </trkpt>
      <trkpt lat="45.9276" lon="6.35231">
        <ele>1985</ele>
        <time>2026-08-19T08:13:47.344Z</time>
      </trkpt>
      <trkpt lat="45.9276" lon="6.35232">
        <ele>1985</ele>
        <time>2026-08-19T08:13:48.344Z</time>
      </trkpt>
      <trkpt lat="45.9276" lon="6.35232">
        <ele>1985</ele>
        <time>2026-08-19T08:13:49.344Z</time>
      </trkpt>
      <trkpt lat="45.9276" lon="6.35233">
        <ele>1984</ele>
        <time>2026-08-19T08:13:50.344Z</time>
      </trkpt>
      <trkpt lat="45.9276" lon="6.35233">
        <ele>1984</ele>
        <time>2026-08-19T08:13:51.344Z</time>
      </trkpt>
      <trkpt lat="45.9276" lon="6.35233">
        <ele>1983</ele>
        <time>2026-08-19T08:13:52.344Z</time>
      </trkpt>
      <trkpt lat="45.9276" lon="6.35233">
        <ele>1983</ele>
        <time>2026-08-19T08:13:53.344Z</time>
      </trkpt>
      <trkpt lat="45.9276" lon="6.35233">
        <ele>1982</ele>
        <time>2026-08-19T08:13:54.344Z</time>
      </trkpt>
      <trkpt lat="45.9276" lon="6.35233">
        <ele>1982</ele>
        <time>2026-08-19T08:13:55.344Z</time>
      </trkpt>
      <trkpt lat="45.9276" lon="6.35233">
        <ele>1981</ele>
        <time>2026-08-19T08:13:56.345Z</time>
      </trkpt>
      <trkpt lat="45.9276" lon="6.35233">
        <ele>1981</ele>
        <time>2026-08-19T08:13:57.344Z</time>
      </trkpt>
      <trkpt lat="45.9276" lon="6.35233">
        <ele>1981</ele>
        <time>2026-08-19T08:13:58.344Z</time>
      </trkpt>
      <trkpt lat="45.9276" lon="6.35233">
        <ele>1980</ele>
        <time>2026-08-19T08:13:59.344Z</time>
      </trkpt>
      <trkpt lat="45.9276" lon="6.35233">
        <ele>1980</ele>
        <time>2026-08-19T08:14:00.344Z</time>
      </trkpt>
      <trkpt lat="45.9276" lon="6.35233">
        <ele>1980</ele>
        <time>2026-08-19T08:14:01.344Z</time>
      </trkpt>
      <trkpt lat="45.9276" lon="6.35233">
        <ele>1980</ele>
        <time>2026-08-19T08:14:02.344Z</time>
      </trkpt>
      <trkpt lat="45.9276" lon="6.35233">
        <ele>1980</ele>
        <time>2026-08-19T08:14:03.344Z</time>
      </trkpt>
      <trkpt lat="45.9276" lon="6.35233">
        <ele>1980</ele>
        <time>2026-08-19T08:14:04.344Z</time>
      </trkpt>
      <trkpt lat="45.9276" lon="6.35233">
        <ele>1980</ele>
        <time>2026-08-19T08:14:05.344Z</time>
      </trkpt>
      <trkpt lat="45.9276" lon="6.35233">
        <ele>1980</ele>
        <time>2026-08-19T08:14:06.344Z</time>
      </trkpt>
      <trkpt lat="45.9276" lon="6.35233">
        <ele>1980</ele>
        <time>2026-08-19T08:14:07.344Z</time>
      </trkpt>
      <trkpt lat="45.9276" lon="6.35233">
        <ele>1980</ele>
        <time>2026-08-19T08:14:08.344Z</time>
      </trkpt>
      <trkpt lat="45.9276" lon="6.35233">
        <ele>1980</ele>
        <time>2026-08-19T08:14:09.344Z</time>
      </trkpt>
      <trkpt lat="45.9276" lon="6.35233">
        <ele>1980</ele>
        <time>2026-08-19T08:14:10.344Z</time>
      </trkpt>
      <trkpt lat="45.9276" lon="6.35233">
        <ele>1980</ele>
        <time>2026-08-19T08:14:11.344Z</time>
      </trkpt>
      <trkpt lat="45.9276" lon="6.35233">
        <ele>1980</ele>
        <time>2026-08-19T08:14:12.344Z</time>
      </trkpt>
      <trkpt lat="45.9276" lon="6.35234">
        <ele>1980</ele>
        <time>2026-08-19T08:14:13.344Z</time>
      </trkpt>
      <trkpt lat="45.9276" lon="6.35234">
        <ele>1980</ele>
        <time>2026-08-19T08:14:14.344Z</time>
      </trkpt>
      <trkpt lat="45.9276" lon="6.35234">
        <ele>1979</ele>
        <time>2026-08-19T08:14:15.344Z</time>
      </trkpt>
      <trkpt lat="45.9276" lon="6.35234">
        <ele>1979</ele>
        <time>2026-08-19T08:14:16.344Z</time>
      </trkpt>
      <trkpt lat="45.9276" lon="6.35234">
        <ele>1979</ele>
        <time>2026-08-19T08:14:17.344Z</time>
      </trkpt>
      <trkpt lat="45.9276" lon="6.35234">
        <ele>1979</ele>
        <time>2026-08-19T08:14:18.344Z</time>
      </trkpt>
      <trkpt lat="45.9276" lon="6.35234">
        <ele>1979</ele>
        <time>2026-08-19T08:14:19.344Z</time>
      </trkpt>
      <trkpt lat="45.9276" lon="6.35234">
        <ele>1979</ele>
        <time>2026-08-19T08:14:20.345Z</time>
      </trkpt>
      <trkpt lat="45.9276" lon="6.35234">
        <ele>1979</ele>
        <time>2026-08-19T08:14:21.344Z</time>
      </trkpt>
      <trkpt lat="45.9276" lon="6.35234">
        <ele>1979</ele>
        <time>2026-08-19T08:14:22.344Z</time>
      </trkpt>
      <trkpt lat="45.9276" lon="6.35234">
        <ele>1979</ele>
        <time>2026-08-19T08:14:23.344Z</time>
      </trkpt>
      <trkpt lat="45.9276" lon="6.35235">
        <ele>1979</ele>
        <time>2026-08-19T08:14:24.344Z</time>
      </trkpt>
      <trkpt lat="45.9276" lon="6.35235">
        <ele>1979</ele>
        <time>2026-08-19T08:14:25.344Z</time>
      </trkpt>
      <trkpt lat="45.9276" lon="6.35235">
        <ele>1979</ele>
        <time>2026-08-19T08:14:26.344Z</time>
      </trkpt>
      <trkpt lat="45.9276" lon="6.35235">
        <ele>1979</ele>
        <time>2026-08-19T08:14:27.344Z</time>
      </trkpt>
      <trkpt lat="45.9276" lon="6.35235">
        <ele>1979</ele>
        <time>2026-08-19T08:14:28.344Z</time>
      </trkpt>
      <trkpt lat="45.9276" lon="6.35235">
        <ele>1979</ele>
        <time>2026-08-19T08:14:29.344Z</time>
      </trkpt>
      <trkpt lat="45.9276" lon="6.35235">
        <ele>1979</ele>
        <time>2026-08-19T08:14:30.344Z</time>
      </trkpt>
      <trkpt lat="45.9276" lon="6.35235">
        <ele>1979</ele>
        <time>2026-08-19T08:14:31.344Z</time>
      </trkpt>
      <trkpt lat="45.9276" lon="6.35235">
        <ele>1979</ele>
        <time>2026-08-19T08:14:32.344Z</time>
      </trkpt>
      <trkpt lat="45.9276" lon="6.35235">
        <ele>1979</ele>
        <time>2026-08-19T08:14:33.344Z</time>
      </trkpt>
      <trkpt lat="45.9276" lon="6.35236">
        <ele>1979</ele>
        <time>2026-08-19T08:14:34.344Z</time>
      </trkpt>
      <trkpt lat="45.9276" lon="6.35236">
        <ele>1979</ele>
        <time>2026-08-19T08:14:35.344Z</time>
      </trkpt>
      <trkpt lat="45.9276" lon="6.35236">
        <ele>1979</ele>
        <time>2026-08-19T08:14:36.344Z</time>
      </trkpt>
      <trkpt lat="45.92759" lon="6.35237">
        <ele>1979</ele>
        <time>2026-08-19T08:14:37.344Z</time>
      </trkpt>
      <trkpt lat="45.92758" lon="6.35237">
        <ele>1979</ele>
        <time>2026-08-19T08:14:38.345Z</time>
      </trkpt>
      <trkpt lat="45.92757" lon="6.35238">
        <ele>1979</ele>
        <time>2026-08-19T08:14:39.344Z</time>
      </trkpt>
      <trkpt lat="45.92756" lon="6.35238">
        <ele>1979</ele>
        <time>2026-08-19T08:14:40.344Z</time>
      </trkpt>
      <trkpt lat="45.92755" lon="6.35239">
        <ele>1979</ele>
        <time>2026-08-19T08:14:41.344Z</time>
      </trkpt>
      <trkpt lat="45.92754" lon="6.3524">
        <ele>1979</ele>
        <time>2026-08-19T08:14:42.344Z</time>
      </trkpt>
      <trkpt lat="45.92753" lon="6.35241">
        <ele>1978</ele>
        <time>2026-08-19T08:14:43.344Z</time>
      </trkpt>
      <trkpt lat="45.92752" lon="6.35242">
        <ele>1978</ele>
        <time>2026-08-19T08:14:44.344Z</time>
      </trkpt>
      <trkpt lat="45.92751" lon="6.35243">
        <ele>1978</ele>
        <time>2026-08-19T08:14:45.344Z</time>
      </trkpt>
      <trkpt lat="45.9275" lon="6.35243">
        <ele>1978</ele>
        <time>2026-08-19T08:14:46.345Z</time>
      </trkpt>
      <trkpt lat="45.92749" lon="6.35243">
        <ele>1978</ele>
        <time>2026-08-19T08:14:47.344Z</time>
      </trkpt>
      <trkpt lat="45.92748" lon="6.35243">
        <ele>1978</ele>
        <time>2026-08-19T08:14:48.344Z</time>
      </trkpt>
      <trkpt lat="45.92747" lon="6.35243">
        <ele>1977</ele>
        <time>2026-08-19T08:14:49.344Z</time>
      </trkpt>
      <trkpt lat="45.92746" lon="6.35243">
        <ele>1977</ele>
        <time>2026-08-19T08:14:50.344Z</time>
      </trkpt>
      <trkpt lat="45.92746" lon="6.35243">
        <ele>1977</ele>
        <time>2026-08-19T08:14:51.344Z</time>
      </trkpt>
      <trkpt lat="45.92745" lon="6.35244">
        <ele>1977</ele>
        <time>2026-08-19T08:14:52.344Z</time>
      </trkpt>
      <trkpt lat="45.92744" lon="6.35244">
        <ele>1977</ele>
        <time>2026-08-19T08:14:53.344Z</time>
      </trkpt>
      <trkpt lat="45.92743" lon="6.35244">
        <ele>1976</ele>
        <time>2026-08-19T08:14:54.344Z</time>
      </trkpt>
      <trkpt lat="45.92742" lon="6.35244">
        <ele>1976</ele>
        <time>2026-08-19T08:14:55.344Z</time>
      </trkpt>
      <trkpt lat="45.92741" lon="6.35244">
        <ele>1976</ele>
        <time>2026-08-19T08:14:56.344Z</time>
      </trkpt>
      <trkpt lat="45.9274" lon="6.35244">
        <ele>1976</ele>
        <time>2026-08-19T08:14:57.344Z</time>
      </trkpt>
      <trkpt lat="45.92739" lon="6.35243">
        <ele>1975</ele>
        <time>2026-08-19T08:14:58.344Z</time>
      </trkpt>
      <trkpt lat="45.92738" lon="6.35243">
        <ele>1974</ele>
        <time>2026-08-19T08:14:59.344Z</time>
      </trkpt>
      <trkpt lat="45.92737" lon="6.35243">
        <ele>1974</ele>
        <time>2026-08-19T08:15:00.344Z</time>
      </trkpt>
      <trkpt lat="45.92736" lon="6.35243">
        <ele>1973</ele>
        <time>2026-08-19T08:15:01.344Z</time>
      </trkpt>
      <trkpt lat="45.92735" lon="6.35243">
        <ele>1973</ele>
        <time>2026-08-19T08:15:02.345Z</time>
      </trkpt>
      <trkpt lat="45.92734" lon="6.35243">
        <ele>1972</ele>
        <time>2026-08-19T08:15:03.344Z</time>
      </trkpt>
      <trkpt lat="45.92733" lon="6.35243">
        <ele>1972</ele>
        <time>2026-08-19T08:15:04.344Z</time>
      </trkpt>
      <trkpt lat="45.92732" lon="6.35242">
        <ele>1972</ele>
        <time>2026-08-19T08:15:05.344Z</time>
      </trkpt>
      <trkpt lat="45.92731" lon="6.35242">
        <ele>1971</ele>
        <time>2026-08-19T08:15:06.344Z</time>
      </trkpt>
      <trkpt lat="45.9273" lon="6.35242">
        <ele>1971</ele>
        <time>2026-08-19T08:15:07.344Z</time>
      </trkpt>
      <trkpt lat="45.92729" lon="6.35241">
        <ele>1970</ele>
        <time>2026-08-19T08:15:08.344Z</time>
      </trkpt>
      <trkpt lat="45.92728" lon="6.35241">
        <ele>1970</ele>
        <time>2026-08-19T08:15:09.344Z</time>
      </trkpt>
      <trkpt lat="45.92727" lon="6.35241">
        <ele>1970</ele>
        <time>2026-08-19T08:15:10.344Z</time>
      </trkpt>
      <trkpt lat="45.92726" lon="6.3524">
        <ele>1969</ele>
        <time>2026-08-19T08:15:11.345Z</time>
      </trkpt>
      <trkpt lat="45.92725" lon="6.3524">
        <ele>1969</ele>
        <time>2026-08-19T08:15:12.344Z</time>
      </trkpt>
      <trkpt lat="45.92724" lon="6.3524">
        <ele>1969</ele>
        <time>2026-08-19T08:15:13.344Z</time>
      </trkpt>
      <trkpt lat="45.92723" lon="6.35239">
        <ele>1969</ele>
        <time>2026-08-19T08:15:14.344Z</time>
      </trkpt>
      <trkpt lat="45.92723" lon="6.35239">
        <ele>1969</ele>
        <time>2026-08-19T08:15:15.344Z</time>
      </trkpt>
      <trkpt lat="45.92722" lon="6.35238">
        <ele>1968</ele>
        <time>2026-08-19T08:15:16.344Z</time>
      </trkpt>
      <trkpt lat="45.92722" lon="6.35238">
        <ele>1968</ele>
        <time>2026-08-19T08:15:17.344Z</time>
      </trkpt>
      <trkpt lat="45.92721" lon="6.35238">
        <ele>1968</ele>
        <time>2026-08-19T08:15:18.344Z</time>
      </trkpt>
      <trkpt lat="45.92721" lon="6.35238">
        <ele>1968</ele>
        <time>2026-08-19T08:15:19.344Z</time>
      </trkpt>
      <trkpt lat="45.92721" lon="6.35238">
        <ele>1968</ele>
        <time>2026-08-19T08:15:20.344Z</time>
      </trkpt>
      <trkpt lat="45.9272" lon="6.35238">
        <ele>1968</ele>
        <time>2026-08-19T08:15:21.344Z</time>
      </trkpt>
      <trkpt lat="45.9272" lon="6.35238">
        <ele>1968</ele>
        <time>2026-08-19T08:15:22.344Z</time>
      </trkpt>
      <trkpt lat="45.92719" lon="6.35238">
        <ele>1967</ele>
        <time>2026-08-19T08:15:23.344Z</time>
      </trkpt>
      <trkpt lat="45.92719" lon="6.35238">
        <ele>1967</ele>
        <time>2026-08-19T08:15:24.344Z</time>
      </trkpt>
      <trkpt lat="45.92718" lon="6.35238">
        <ele>1967</ele>
        <time>2026-08-19T08:15:25.344Z</time>
      </trkpt>
      <trkpt lat="45.92718" lon="6.35238">
        <ele>1967</ele>
        <time>2026-08-19T08:15:26.345Z</time>
      </trkpt>
      <trkpt lat="45.92717" lon="6.35237">
        <ele>1967</ele>
        <time>2026-08-19T08:15:27.344Z</time>
      </trkpt>
      <trkpt lat="45.92716" lon="6.35237">
        <ele>1967</ele>
        <time>2026-08-19T08:15:28.344Z</time>
      </trkpt>
      <trkpt lat="45.92716" lon="6.35236">
        <ele>1967</ele>
        <time>2026-08-19T08:15:29.344Z</time>
      </trkpt>
      <trkpt lat="45.92715" lon="6.35236">
        <ele>1966</ele>
        <time>2026-08-19T08:15:30.344Z</time>
      </trkpt>
      <trkpt lat="45.92715" lon="6.35236">
        <ele>1966</ele>
        <time>2026-08-19T08:15:31.344Z</time>
      </trkpt>
      <trkpt lat="45.92714" lon="6.35236">
        <ele>1966</ele>
        <time>2026-08-19T08:15:32.344Z</time>
      </trkpt>
      <trkpt lat="45.92714" lon="6.35236">
        <ele>1965</ele>
        <time>2026-08-19T08:15:33.344Z</time>
      </trkpt>
      <trkpt lat="45.92713" lon="6.35235">
        <ele>1965</ele>
        <time>2026-08-19T08:15:34.344Z</time>
      </trkpt>
      <trkpt lat="45.92713" lon="6.35235">
        <ele>1965</ele>
        <time>2026-08-19T08:15:35.344Z</time>
      </trkpt>
      <trkpt lat="45.92712" lon="6.35235">
        <ele>1964</ele>
        <time>2026-08-19T08:15:36.344Z</time>
      </trkpt>
      <trkpt lat="45.92712" lon="6.35235">
        <ele>1964</ele>
        <time>2026-08-19T08:15:37.344Z</time>
      </trkpt>
      <trkpt lat="45.92712" lon="6.35235">
        <ele>1964</ele>
        <time>2026-08-19T08:15:38.344Z</time>
      </trkpt>
      <trkpt lat="45.92712" lon="6.35235">
        <ele>1964</ele>
        <time>2026-08-19T08:15:39.344Z</time>
      </trkpt>
      <trkpt lat="45.92712" lon="6.35235">
        <ele>1964</ele>
        <time>2026-08-19T08:15:40.344Z</time>
      </trkpt>
      <trkpt lat="45.92711" lon="6.35236">
        <ele>1964</ele>
        <time>2026-08-19T08:15:41.344Z</time>
      </trkpt>
      <trkpt lat="45.92711" lon="6.35236">
        <ele>1963</ele>
        <time>2026-08-19T08:15:42.344Z</time>
      </trkpt>
      <trkpt lat="45.92711" lon="6.35236">
        <ele>1963</ele>
        <time>2026-08-19T08:15:43.344Z</time>
      </trkpt>
      <trkpt lat="45.92711" lon="6.35236">
        <ele>1963</ele>
        <time>2026-08-19T08:15:44.344Z</time>
      </trkpt>
      <trkpt lat="45.9271" lon="6.35236">
        <ele>1962</ele>
        <time>2026-08-19T08:15:45.344Z</time>
      </trkpt>
      <trkpt lat="45.9271" lon="6.35235">
        <ele>1962</ele>
        <time>2026-08-19T08:15:46.344Z</time>
      </trkpt>
      <trkpt lat="45.9271" lon="6.35235">
        <ele>1961</ele>
        <time>2026-08-19T08:15:47.344Z</time>
      </trkpt>
      <trkpt lat="45.9271" lon="6.35235">
        <ele>1961</ele>
        <time>2026-08-19T08:15:48.344Z</time>
      </trkpt>
      <trkpt lat="45.9271" lon="6.35235">
        <ele>1961</ele>
        <time>2026-08-19T08:15:49.344Z</time>
      </trkpt>
      <trkpt lat="45.9271" lon="6.35235">
        <ele>1960</ele>
        <time>2026-08-19T08:15:50.344Z</time>
      </trkpt>
      <trkpt lat="45.9271" lon="6.35235">
        <ele>1960</ele>
        <time>2026-08-19T08:15:51.345Z</time>
      </trkpt>
      <trkpt lat="45.9271" lon="6.35235">
        <ele>1960</ele>
        <time>2026-08-19T08:15:52.344Z</time>
      </trkpt>
      <trkpt lat="45.9271" lon="6.35235">
        <ele>1960</ele>
        <time>2026-08-19T08:15:53.344Z</time>
      </trkpt>
      <trkpt lat="45.9271" lon="6.35235">
        <ele>1959</ele>
        <time>2026-08-19T08:15:54.344Z</time>
      </trkpt>
      <trkpt lat="45.9271" lon="6.35235">
        <ele>1959</ele>
        <time>2026-08-19T08:15:55.344Z</time>
      </trkpt>
      <trkpt lat="45.9271" lon="6.35235">
        <ele>1959</ele>
        <time>2026-08-19T08:15:56.344Z</time>
      </trkpt>
      <trkpt lat="45.9271" lon="6.35235">
        <ele>1958</ele>
        <time>2026-08-19T08:15:57.344Z</time>
      </trkpt>
      <trkpt lat="45.9271" lon="6.35235">
        <ele>1958</ele>
        <time>2026-08-19T08:15:58.344Z</time>
      </trkpt>
      <trkpt lat="45.9271" lon="6.35235">
        <ele>1958</ele>
        <time>2026-08-19T08:15:59.344Z</time>
      </trkpt>
      <trkpt lat="45.9271" lon="6.35235">
        <ele>1958</ele>
        <time>2026-08-19T08:16:00.344Z</time>
      </trkpt>
      <trkpt lat="45.9271" lon="6.35235">
        <ele>1958</ele>
        <time>2026-08-19T08:16:01.344Z</time>
      </trkpt>
      <trkpt lat="45.9271" lon="6.35235">
        <ele>1958</ele>
        <time>2026-08-19T08:16:02.344Z</time>
      </trkpt>
      <trkpt lat="45.9271" lon="6.35235">
        <ele>1957</ele>
        <time>2026-08-19T08:16:03.344Z</time>
      </trkpt>
      <trkpt lat="45.9271" lon="6.35235">
        <ele>1957</ele>
        <time>2026-08-19T08:16:04.344Z</time>
      </trkpt>
      <trkpt lat="45.9271" lon="6.35235">
        <ele>1957</ele>
        <time>2026-08-19T08:16:05.344Z</time>
      </trkpt>
      <trkpt lat="45.9271" lon="6.35235">
        <ele>1957</ele>
        <time>2026-08-19T08:16:06.344Z</time>
      </trkpt>
      <trkpt lat="45.9271" lon="6.35235">
        <ele>1957</ele>
        <time>2026-08-19T08:16:07.344Z</time>
      </trkpt>
      <trkpt lat="45.9271" lon="6.35235">
        <ele>1957</ele>
        <time>2026-08-19T08:16:08.344Z</time>
      </trkpt>
      <trkpt lat="45.9271" lon="6.35235">
        <ele>1957</ele>
        <time>2026-08-19T08:16:09.344Z</time>
      </trkpt>
      <trkpt lat="45.9271" lon="6.35235">
        <ele>1957</ele>
        <time>2026-08-19T08:16:10.344Z</time>
      </trkpt>
      <trkpt lat="45.9271" lon="6.35235">
        <ele>1957</ele>
        <time>2026-08-19T08:16:11.344Z</time>
      </trkpt>
      <trkpt lat="45.9271" lon="6.35235">
        <ele>1957</ele>
        <time>2026-08-19T08:16:12.344Z</time>
      </trkpt>
      <trkpt lat="45.9271" lon="6.35235">
        <ele>1957</ele>
        <time>2026-08-19T08:16:13.344Z</time>
      </trkpt>
      <trkpt lat="45.92709" lon="6.35235">
        <ele>1957</ele>
        <time>2026-08-19T08:16:14.344Z</time>
      </trkpt>
      <trkpt lat="45.92709" lon="6.35235">
        <ele>1957</ele>
        <time>2026-08-19T08:16:15.344Z</time>
      </trkpt>
      <trkpt lat="45.92709" lon="6.35235">
        <ele>1957</ele>
        <time>2026-08-19T08:16:16.344Z</time>
      </trkpt>
      <trkpt lat="45.92709" lon="6.35235">
        <ele>1957</ele>
        <time>2026-08-19T08:16:17.344Z</time>
      </trkpt>
      <trkpt lat="45.92709" lon="6.35236">
        <ele>1957</ele>
        <time>2026-08-19T08:16:18.344Z</time>
      </trkpt>
      <trkpt lat="45.92709" lon="6.35236">
        <ele>1957</ele>
        <time>2026-08-19T08:16:19.344Z</time>
      </trkpt>
      <trkpt lat="45.92709" lon="6.35236">
        <ele>1957</ele>
        <time>2026-08-19T08:16:20.344Z</time>
      </trkpt>
      <trkpt lat="45.92709" lon="6.35236">
        <ele>1957</ele>
        <time>2026-08-19T08:16:21.344Z</time>
      </trkpt>
      <trkpt lat="45.92709" lon="6.35236">
        <ele>1957</ele>
        <time>2026-08-19T08:16:22.344Z</time>
      </trkpt>
      <trkpt lat="45.92708" lon="6.35237">
        <ele>1957</ele>
        <time>2026-08-19T08:16:23.344Z</time>
      </trkpt>
      <trkpt lat="45.92708" lon="6.35237">
        <ele>1957</ele>
        <time>2026-08-19T08:16:24.344Z</time>
      </trkpt>
      <trkpt lat="45.92708" lon="6.35237">
        <ele>1957</ele>
        <time>2026-08-19T08:16:25.344Z</time>
      </trkpt>
      <trkpt lat="45.92708" lon="6.35237">
        <ele>1957</ele>
        <time>2026-08-19T08:16:26.344Z</time>
      </trkpt>
      <trkpt lat="45.92708" lon="6.35237">
        <ele>1957</ele>
        <time>2026-08-19T08:16:27.344Z</time>
      </trkpt>
      <trkpt lat="45.92708" lon="6.35237">
        <ele>1957</ele>
        <time>2026-08-19T08:16:28.344Z</time>
      </trkpt>
      <trkpt lat="45.92708" lon="6.35237">
        <ele>1957</ele>
        <time>2026-08-19T08:16:29.344Z</time>
      </trkpt>
      <trkpt lat="45.92708" lon="6.35238">
        <ele>1957</ele>
        <time>2026-08-19T08:16:30.344Z</time>
      </trkpt>
      <trkpt lat="45.92708" lon="6.35238">
        <ele>1957</ele>
        <time>2026-08-19T08:16:31.344Z</time>
      </trkpt>
      <trkpt lat="45.92708" lon="6.35238">
        <ele>1956</ele>
        <time>2026-08-19T08:16:32.344Z</time>
      </trkpt>
      <trkpt lat="45.92708" lon="6.35238">
        <ele>1956</ele>
        <time>2026-08-19T08:16:33.344Z</time>
      </trkpt>
      <trkpt lat="45.92708" lon="6.35238">
        <ele>1956</ele>
        <time>2026-08-19T08:16:34.344Z</time>
      </trkpt>
      <trkpt lat="45.92708" lon="6.35238">
        <ele>1956</ele>
        <time>2026-08-19T08:16:35.344Z</time>
      </trkpt>
      <trkpt lat="45.92707" lon="6.35238">
        <ele>1956</ele>
        <time>2026-08-19T08:16:36.345Z</time>
      </trkpt>
      <trkpt lat="45.92707" lon="6.35238">
        <ele>1956</ele>
        <time>2026-08-19T08:16:37.344Z</time>
      </trkpt>
      <trkpt lat="45.92707" lon="6.35238">
        <ele>1956</ele>
        <time>2026-08-19T08:16:38.344Z</time>
      </trkpt>
      <trkpt lat="45.92707" lon="6.35238">
        <ele>1956</ele>
        <time>2026-08-19T08:16:39.344Z</time>
      </trkpt>
      <trkpt lat="45.92706" lon="6.35239">
        <ele>1956</ele>
        <time>2026-08-19T08:16:40.344Z</time>
      </trkpt>
      <trkpt lat="45.92706" lon="6.35239">
        <ele>1956</ele>
        <time>2026-08-19T08:16:41.344Z</time>
      </trkpt>
      <trkpt lat="45.92706" lon="6.35239">
        <ele>1956</ele>
        <time>2026-08-19T08:16:42.344Z</time>
      </trkpt>
      <trkpt lat="45.92706" lon="6.35239">
        <ele>1956</ele>
        <time>2026-08-19T08:16:43.344Z</time>
      </trkpt>
      <trkpt lat="45.92705" lon="6.35239">
        <ele>1956</ele>
        <time>2026-08-19T08:16:44.344Z</time>
      </trkpt>
      <trkpt lat="45.92705" lon="6.35239">
        <ele>1956</ele>
        <time>2026-08-19T08:16:45.344Z</time>
      </trkpt>
      <trkpt lat="45.92705" lon="6.3524">
        <ele>1956</ele>
        <time>2026-08-19T08:16:46.344Z</time>
      </trkpt>
      <trkpt lat="45.92705" lon="6.3524">
        <ele>1956</ele>
        <time>2026-08-19T08:16:47.344Z</time>
      </trkpt>
      <trkpt lat="45.92704" lon="6.3524">
        <ele>1956</ele>
        <time>2026-08-19T08:16:48.344Z</time>
      </trkpt>
      <trkpt lat="45.92704" lon="6.3524">
        <ele>1955</ele>
        <time>2026-08-19T08:16:49.344Z</time>
      </trkpt>
      <trkpt lat="45.92704" lon="6.3524">
        <ele>1955</ele>
        <time>2026-08-19T08:16:50.344Z</time>
      </trkpt>
      <trkpt lat="45.92704" lon="6.3524">
        <ele>1955</ele>
        <time>2026-08-19T08:16:51.344Z</time>
      </trkpt>
      <trkpt lat="45.92704" lon="6.35241">
        <ele>1955</ele>
        <time>2026-08-19T08:16:52.344Z</time>
      </trkpt>
      <trkpt lat="45.92704" lon="6.35241">
        <ele>1955</ele>
        <time>2026-08-19T08:16:53.344Z</time>
      </trkpt>
      <trkpt lat="45.92703" lon="6.35242">
        <ele>1955</ele>
        <time>2026-08-19T08:16:54.344Z</time>
      </trkpt>
      <trkpt lat="45.92703" lon="6.35243">
        <ele>1955</ele>
        <time>2026-08-19T08:16:55.344Z</time>
      </trkpt>
      <trkpt lat="45.92703" lon="6.35243">
        <ele>1955</ele>
        <time>2026-08-19T08:16:56.344Z</time>
      </trkpt>
      <trkpt lat="45.92703" lon="6.35243">
        <ele>1955</ele>
        <time>2026-08-19T08:16:57.344Z</time>
      </trkpt>
      <trkpt lat="45.92703" lon="6.35243">
        <ele>1955</ele>
        <time>2026-08-19T08:16:58.344Z</time>
      </trkpt>
      <trkpt lat="45.92703" lon="6.35244">
        <ele>1955</ele>
        <time>2026-08-19T08:16:59.344Z</time>
      </trkpt>
      <trkpt lat="45.92703" lon="6.35244">
        <ele>1955</ele>
        <time>2026-08-19T08:17:00.344Z</time>
      </trkpt>
      <trkpt lat="45.92703" lon="6.35244">
        <ele>1955</ele>
        <time>2026-08-19T08:17:01.344Z</time>
      </trkpt>
      <trkpt lat="45.92703" lon="6.35245">
        <ele>1955</ele>
        <time>2026-08-19T08:17:02.344Z</time>
      </trkpt>
      <trkpt lat="45.92703" lon="6.35245">
        <ele>1955</ele>
        <time>2026-08-19T08:17:03.344Z</time>
      </trkpt>
      <trkpt lat="45.92703" lon="6.35245">
        <ele>1955</ele>
        <time>2026-08-19T08:17:04.344Z</time>
      </trkpt>
      <trkpt lat="45.92703" lon="6.35246">
        <ele>1955</ele>
        <time>2026-08-19T08:17:05.344Z</time>
      </trkpt>
      <trkpt lat="45.92703" lon="6.35246">
        <ele>1955</ele>
        <time>2026-08-19T08:17:06.344Z</time>
      </trkpt>
      <trkpt lat="45.92703" lon="6.35247">
        <ele>1955</ele>
        <time>2026-08-19T08:17:07.344Z</time>
      </trkpt>
      <trkpt lat="45.92703" lon="6.35247">
        <ele>1955</ele>
        <time>2026-08-19T08:17:08.344Z</time>
      </trkpt>
      <trkpt lat="45.92703" lon="6.35248">
        <ele>1955</ele>
        <time>2026-08-19T08:17:09.344Z</time>
      </trkpt>
      <trkpt lat="45.92703" lon="6.35248">
        <ele>1955</ele>
        <time>2026-08-19T08:17:10.344Z</time>
      </trkpt>
      <trkpt lat="45.92703" lon="6.35249">
        <ele>1954</ele>
        <time>2026-08-19T08:17:11.344Z</time>
      </trkpt>
      <trkpt lat="45.92703" lon="6.35249">
        <ele>1954</ele>
        <time>2026-08-19T08:17:12.344Z</time>
      </trkpt>
      <trkpt lat="45.92703" lon="6.35249">
        <ele>1954</ele>
        <time>2026-08-19T08:17:13.344Z</time>
      </trkpt>
      <trkpt lat="45.92703" lon="6.35249">
        <ele>1954</ele>
        <time>2026-08-19T08:17:14.344Z</time>
      </trkpt>
      <trkpt lat="45.92703" lon="6.3525">
        <ele>1954</ele>
        <time>2026-08-19T08:17:15.344Z</time>
      </trkpt>
      <trkpt lat="45.92704" lon="6.35252">
        <ele>1954</ele>
        <time>2026-08-19T08:17:16.344Z</time>
      </trkpt>
      <trkpt lat="45.92704" lon="6.35254">
        <ele>1954</ele>
        <time>2026-08-19T08:17:17.344Z</time>
      </trkpt>
      <trkpt lat="45.92704" lon="6.35256">
        <ele>1954</ele>
        <time>2026-08-19T08:17:18.344Z</time>
      </trkpt>
      <trkpt lat="45.92705" lon="6.35257">
        <ele>1953</ele>
        <time>2026-08-19T08:17:19.344Z</time>
      </trkpt>
      <trkpt lat="45.92705" lon="6.35259">
        <ele>1953</ele>
        <time>2026-08-19T08:17:20.344Z</time>
      </trkpt>
      <trkpt lat="45.92706" lon="6.35261">
        <ele>1952</ele>
        <time>2026-08-19T08:17:21.344Z</time>
      </trkpt>
      <trkpt lat="45.92706" lon="6.35263">
        <ele>1951</ele>
        <time>2026-08-19T08:17:22.344Z</time>
      </trkpt>
      <trkpt lat="45.92707" lon="6.35264">
        <ele>1951</ele>
        <time>2026-08-19T08:17:23.344Z</time>
      </trkpt>
      <trkpt lat="45.92707" lon="6.35265">
        <ele>1951</ele>
        <time>2026-08-19T08:17:24.344Z</time>
      </trkpt>
      <trkpt lat="45.92707" lon="6.35265">
        <ele>1950</ele>
        <time>2026-08-19T08:17:25.344Z</time>
      </trkpt>
      <trkpt lat="45.92707" lon="6.35265">
        <ele>1950</ele>
        <time>2026-08-19T08:17:26.344Z</time>
      </trkpt>
      <trkpt lat="45.92707" lon="6.35265">
        <ele>1949</ele>
        <time>2026-08-19T08:17:27.344Z</time>
      </trkpt>
      <trkpt lat="45.92707" lon="6.35265">
        <ele>1948</ele>
        <time>2026-08-19T08:17:28.344Z</time>
      </trkpt>
      <trkpt lat="45.92708" lon="6.35265">
        <ele>1948</ele>
        <time>2026-08-19T08:17:29.344Z</time>
      </trkpt>
      <trkpt lat="45.92708" lon="6.35265">
        <ele>1947</ele>
        <time>2026-08-19T08:17:30.344Z</time>
      </trkpt>
      <trkpt lat="45.92708" lon="6.35265">
        <ele>1947</ele>
        <time>2026-08-19T08:17:31.344Z</time>
      </trkpt>
      <trkpt lat="45.92708" lon="6.35265">
        <ele>1946</ele>
        <time>2026-08-19T08:17:32.344Z</time>
      </trkpt>
      <trkpt lat="45.92708" lon="6.35265">
        <ele>1946</ele>
        <time>2026-08-19T08:17:33.344Z</time>
      </trkpt>
      <trkpt lat="45.92708" lon="6.35265">
        <ele>1945</ele>
        <time>2026-08-19T08:17:34.344Z</time>
      </trkpt>
      <trkpt lat="45.92708" lon="6.35266">
        <ele>1945</ele>
        <time>2026-08-19T08:17:35.344Z</time>
      </trkpt>
      <trkpt lat="45.92709" lon="6.35266">
        <ele>1945</ele>
        <time>2026-08-19T08:17:36.344Z</time>
      </trkpt>
      <trkpt lat="45.92709" lon="6.35267">
        <ele>1945</ele>
        <time>2026-08-19T08:17:37.344Z</time>
      </trkpt>
      <trkpt lat="45.92709" lon="6.35267">
        <ele>1945</ele>
        <time>2026-08-19T08:17:38.344Z</time>
      </trkpt>
      <trkpt lat="45.92709" lon="6.35268">
        <ele>1945</ele>
        <time>2026-08-19T08:17:39.344Z</time>
      </trkpt>
      <trkpt lat="45.92709" lon="6.35268">
        <ele>1944</ele>
        <time>2026-08-19T08:17:40.344Z</time>
      </trkpt>
      <trkpt lat="45.92709" lon="6.35268">
        <ele>1944</ele>
        <time>2026-08-19T08:17:41.344Z</time>
      </trkpt>
      <trkpt lat="45.92709" lon="6.35268">
        <ele>1944</ele>
        <time>2026-08-19T08:17:42.344Z</time>
      </trkpt>
      <trkpt lat="45.92709" lon="6.35269">
        <ele>1944</ele>
        <time>2026-08-19T08:17:43.344Z</time>
      </trkpt>
      <trkpt lat="45.92709" lon="6.35269">
        <ele>1943</ele>
        <time>2026-08-19T08:17:44.344Z</time>
      </trkpt>
      <trkpt lat="45.92709" lon="6.35269">
        <ele>1943</ele>
        <time>2026-08-19T08:17:45.344Z</time>
      </trkpt>
      <trkpt lat="45.92709" lon="6.3527">
        <ele>1943</ele>
        <time>2026-08-19T08:17:46.344Z</time>
      </trkpt>
      <trkpt lat="45.92709" lon="6.3527">
        <ele>1943</ele>
        <time>2026-08-19T08:17:47.344Z</time>
      </trkpt>
      <trkpt lat="45.92709" lon="6.3527">
        <ele>1943</ele>
        <time>2026-08-19T08:17:48.344Z</time>
      </trkpt>
      <trkpt lat="45.92709" lon="6.3527">
        <ele>1942</ele>
        <time>2026-08-19T08:17:49.344Z</time>
      </trkpt>
      <trkpt lat="45.92708" lon="6.35269">
        <ele>1942</ele>
        <time>2026-08-19T08:17:50.345Z</time>
      </trkpt>
      <trkpt lat="45.92708" lon="6.35269">
        <ele>1941</ele>
        <time>2026-08-19T08:17:51.344Z</time>
      </trkpt>
      <trkpt lat="45.92708" lon="6.35269">
        <ele>1941</ele>
        <time>2026-08-19T08:17:52.344Z</time>
      </trkpt>
      <trkpt lat="45.92708" lon="6.35269">
        <ele>1941</ele>
        <time>2026-08-19T08:17:53.344Z</time>
      </trkpt>
      <trkpt lat="45.92708" lon="6.35269">
        <ele>1941</ele>
        <time>2026-08-19T08:17:54.344Z</time>
      </trkpt>
      <trkpt lat="45.92708" lon="6.35269">
        <ele>1941</ele>
        <time>2026-08-19T08:17:55.344Z</time>
      </trkpt>
      <trkpt lat="45.92708" lon="6.35269">
        <ele>1941</ele>
        <time>2026-08-19T08:17:56.344Z</time>
      </trkpt>
      <trkpt lat="45.92708" lon="6.35269">
        <ele>1940</ele>
        <time>2026-08-19T08:17:57.344Z</time>
      </trkpt>
      <trkpt lat="45.92708" lon="6.35269">
        <ele>1940</ele>
        <time>2026-08-19T08:17:58.344Z</time>
      </trkpt>
      <trkpt lat="45.92708" lon="6.35269">
        <ele>1939</ele>
        <time>2026-08-19T08:17:59.344Z</time>
      </trkpt>
      <trkpt lat="45.92708" lon="6.35269">
        <ele>1939</ele>
        <time>2026-08-19T08:18:00.344Z</time>
      </trkpt>
      <trkpt lat="45.92708" lon="6.35269">
        <ele>1939</ele>
        <time>2026-08-19T08:18:01.344Z</time>
      </trkpt>
      <trkpt lat="45.92708" lon="6.35269">
        <ele>1938</ele>
        <time>2026-08-19T08:18:02.344Z</time>
      </trkpt>
      <trkpt lat="45.92708" lon="6.35269">
        <ele>1938</ele>
        <time>2026-08-19T08:18:03.344Z</time>
      </trkpt>
      <trkpt lat="45.92708" lon="6.35269">
        <ele>1938</ele>
        <time>2026-08-19T08:18:04.344Z</time>
      </trkpt>
      <trkpt lat="45.92708" lon="6.35269">
        <ele>1938</ele>
        <time>2026-08-19T08:18:05.344Z</time>
      </trkpt>
      <trkpt lat="45.92708" lon="6.3527">
        <ele>1937</ele>
        <time>2026-08-19T08:18:06.344Z</time>
      </trkpt>
      <trkpt lat="45.92708" lon="6.3527">
        <ele>1937</ele>
        <time>2026-08-19T08:18:07.344Z</time>
      </trkpt>
      <trkpt lat="45.92708" lon="6.3527">
        <ele>1937</ele>
        <time>2026-08-19T08:18:08.344Z</time>
      </trkpt>
      <trkpt lat="45.92708" lon="6.3527">
        <ele>1937</ele>
        <time>2026-08-19T08:18:09.344Z</time>
      </trkpt>
      <trkpt lat="45.92708" lon="6.3527">
        <ele>1937</ele>
        <time>2026-08-19T08:18:10.344Z</time>
      </trkpt>
      <trkpt lat="45.92708" lon="6.35271">
        <ele>1937</ele>
        <time>2026-08-19T08:18:11.344Z</time>
      </trkpt>
      <trkpt lat="45.92708" lon="6.35271">
        <ele>1937</ele>
        <time>2026-08-19T08:18:12.345Z</time>
      </trkpt>
      <trkpt lat="45.92708" lon="6.35271">
        <ele>1936</ele>
        <time>2026-08-19T08:18:13.344Z</time>
      </trkpt>
      <trkpt lat="45.92708" lon="6.35271">
        <ele>1936</ele>
        <time>2026-08-19T08:18:14.344Z</time>
      </trkpt>
      <trkpt lat="45.92708" lon="6.35272">
        <ele>1936</ele>
        <time>2026-08-19T08:18:15.344Z</time>
      </trkpt>
      <trkpt lat="45.92708" lon="6.35272">
        <ele>1936</ele>
        <time>2026-08-19T08:18:16.344Z</time>
      </trkpt>
      <trkpt lat="45.92708" lon="6.35272">
        <ele>1936</ele>
        <time>2026-08-19T08:18:17.344Z</time>
      </trkpt>
      <trkpt lat="45.92708" lon="6.35272">
        <ele>1936</ele>
        <time>2026-08-19T08:18:18.344Z</time>
      </trkpt>
      <trkpt lat="45.92708" lon="6.35273">
        <ele>1936</ele>
        <time>2026-08-19T08:18:19.344Z</time>
      </trkpt>
      <trkpt lat="45.92708" lon="6.35273">
        <ele>1936</ele>
        <time>2026-08-19T08:18:20.344Z</time>
      </trkpt>
      <trkpt lat="45.92708" lon="6.35274">
        <ele>1936</ele>
        <time>2026-08-19T08:18:21.344Z</time>
      </trkpt>
      <trkpt lat="45.92708" lon="6.35274">
        <ele>1936</ele>
        <time>2026-08-19T08:18:22.344Z</time>
      </trkpt>
      <trkpt lat="45.92708" lon="6.35274">
        <ele>1936</ele>
        <time>2026-08-19T08:18:23.344Z</time>
      </trkpt>
      <trkpt lat="45.92708" lon="6.35274">
        <ele>1936</ele>
        <time>2026-08-19T08:18:24.344Z</time>
      </trkpt>
      <trkpt lat="45.92708" lon="6.35274">
        <ele>1935</ele>
        <time>2026-08-19T08:18:25.344Z</time>
      </trkpt>
      <trkpt lat="45.92708" lon="6.35274">
        <ele>1935</ele>
        <time>2026-08-19T08:18:26.344Z</time>
      </trkpt>
      <trkpt lat="45.92708" lon="6.35274">
        <ele>1935</ele>
        <time>2026-08-19T08:18:27.344Z</time>
      </trkpt>
      <trkpt lat="45.92708" lon="6.35274">
        <ele>1935</ele>
        <time>2026-08-19T08:18:28.344Z</time>
      </trkpt>
      <trkpt lat="45.92708" lon="6.35274">
        <ele>1935</ele>
        <time>2026-08-19T08:18:29.344Z</time>
      </trkpt>
      <trkpt lat="45.92708" lon="6.35275">
        <ele>1935</ele>
        <time>2026-08-19T08:18:30.344Z</time>
      </trkpt>
      <trkpt lat="45.92708" lon="6.35275">
        <ele>1935</ele>
        <time>2026-08-19T08:18:31.344Z</time>
      </trkpt>
      <trkpt lat="45.92708" lon="6.35275">
        <ele>1935</ele>
        <time>2026-08-19T08:18:32.344Z</time>
      </trkpt>
      <trkpt lat="45.92708" lon="6.35276">
        <ele>1935</ele>
        <time>2026-08-19T08:18:33.344Z</time>
      </trkpt>
      <trkpt lat="45.92706" lon="6.35276">
        <ele>1935</ele>
        <time>2026-08-19T08:18:34.344Z</time>
      </trkpt>
      <trkpt lat="45.92706" lon="6.35276">
        <ele>1935</ele>
        <time>2026-08-19T08:18:35.344Z</time>
      </trkpt>
      <trkpt lat="45.92705" lon="6.35277">
        <ele>1934</ele>
        <time>2026-08-19T08:18:36.344Z</time>
      </trkpt>
      <trkpt lat="45.92704" lon="6.35278">
        <ele>1934</ele>
        <time>2026-08-19T08:18:37.344Z</time>
      </trkpt>
      <trkpt lat="45.92704" lon="6.3528">
        <ele>1934</ele>
        <time>2026-08-19T08:18:38.344Z</time>
      </trkpt>
      <trkpt lat="45.92704" lon="6.35282">
        <ele>1933</ele>
        <time>2026-08-19T08:18:39.344Z</time>
      </trkpt>
      <trkpt lat="45.92704" lon="6.35284">
        <ele>1933</ele>
        <time>2026-08-19T08:18:40.344Z</time>
      </trkpt>
      <trkpt lat="45.92704" lon="6.35286">
        <ele>1933</ele>
        <time>2026-08-19T08:18:41.344Z</time>
      </trkpt>
      <trkpt lat="45.92704" lon="6.35287">
        <ele>1932</ele>
        <time>2026-08-19T08:18:42.344Z</time>
      </trkpt>
      <trkpt lat="45.92705" lon="6.35289">
        <ele>1932</ele>
        <time>2026-08-19T08:18:43.345Z</time>
      </trkpt>
      <trkpt lat="45.92705" lon="6.3529">
        <ele>1931</ele>
        <time>2026-08-19T08:18:44.344Z</time>
      </trkpt>
      <trkpt lat="45.92706" lon="6.35291">
        <ele>1931</ele>
        <time>2026-08-19T08:18:45.344Z</time>
      </trkpt>
      <trkpt lat="45.92706" lon="6.35293">
        <ele>1930</ele>
        <time>2026-08-19T08:18:46.344Z</time>
      </trkpt>
      <trkpt lat="45.92707" lon="6.35295">
        <ele>1929</ele>
        <time>2026-08-19T08:18:47.344Z</time>
      </trkpt>
      <trkpt lat="45.92708" lon="6.35297">
        <ele>1929</ele>
        <time>2026-08-19T08:18:48.344Z</time>
      </trkpt>
      <trkpt lat="45.9271" lon="6.35299">
        <ele>1929</ele>
        <time>2026-08-19T08:18:49.344Z</time>
      </trkpt>
      <trkpt lat="45.92712" lon="6.353">
        <ele>1929</ele>
        <time>2026-08-19T08:18:50.344Z</time>
      </trkpt>
      <trkpt lat="45.92713" lon="6.35302">
        <ele>1928</ele>
        <time>2026-08-19T08:18:51.344Z</time>
      </trkpt>
      <trkpt lat="45.92714" lon="6.35302">
        <ele>1928</ele>
        <time>2026-08-19T08:18:52.344Z</time>
      </trkpt>
      <trkpt lat="45.92715" lon="6.35303">
        <ele>1928</ele>
        <time>2026-08-19T08:18:53.344Z</time>
      </trkpt>
      <trkpt lat="45.92716" lon="6.35304">
        <ele>1927</ele>
        <time>2026-08-19T08:18:54.344Z</time>
      </trkpt>
      <trkpt lat="45.92717" lon="6.35305">
        <ele>1927</ele>
        <time>2026-08-19T08:18:55.344Z</time>
      </trkpt>
      <trkpt lat="45.92718" lon="6.35307">
        <ele>1927</ele>
        <time>2026-08-19T08:18:56.344Z</time>
      </trkpt>
      <trkpt lat="45.9272" lon="6.35308">
        <ele>1927</ele>
        <time>2026-08-19T08:18:57.344Z</time>
      </trkpt>
      <trkpt lat="45.92721" lon="6.3531">
        <ele>1926</ele>
        <time>2026-08-19T08:18:58.344Z</time>
      </trkpt>
      <trkpt lat="45.92723" lon="6.35311">
        <ele>1926</ele>
        <time>2026-08-19T08:18:59.344Z</time>
      </trkpt>
      <trkpt lat="45.92724" lon="6.35312">
        <ele>1926</ele>
        <time>2026-08-19T08:19:00.344Z</time>
      </trkpt>
      <trkpt lat="45.92725" lon="6.35313">
        <ele>1926</ele>
        <time>2026-08-19T08:19:01.344Z</time>
      </trkpt>
      <trkpt lat="45.92725" lon="6.35314">
        <ele>1926</ele>
        <time>2026-08-19T08:19:02.344Z</time>
      </trkpt>
      <trkpt lat="45.92725" lon="6.35314">
        <ele>1926</ele>
        <time>2026-08-19T08:19:03.344Z</time>
      </trkpt>
      <trkpt lat="45.92726" lon="6.35315">
        <ele>1926</ele>
        <time>2026-08-19T08:19:04.344Z</time>
      </trkpt>
      <trkpt lat="45.92726" lon="6.35315">
        <ele>1926</ele>
        <time>2026-08-19T08:19:05.344Z</time>
      </trkpt>
      <trkpt lat="45.92726" lon="6.35316">
        <ele>1926</ele>
        <time>2026-08-19T08:19:06.344Z</time>
      </trkpt>
      <trkpt lat="45.92726" lon="6.35316">
        <ele>1926</ele>
        <time>2026-08-19T08:19:07.344Z</time>
      </trkpt>
      <trkpt lat="45.92726" lon="6.35317">
        <ele>1925</ele>
        <time>2026-08-19T08:19:08.344Z</time>
      </trkpt>
      <trkpt lat="45.92726" lon="6.35317">
        <ele>1925</ele>
        <time>2026-08-19T08:19:09.344Z</time>
      </trkpt>
      <trkpt lat="45.92726" lon="6.35318">
        <ele>1925</ele>
        <time>2026-08-19T08:19:10.344Z</time>
      </trkpt>
      <trkpt lat="45.92727" lon="6.35318">
        <ele>1925</ele>
        <time>2026-08-19T08:19:11.344Z</time>
      </trkpt>
      <trkpt lat="45.92727" lon="6.35319">
        <ele>1925</ele>
        <time>2026-08-19T08:19:12.344Z</time>
      </trkpt>
      <trkpt lat="45.92727" lon="6.35319">
        <ele>1925</ele>
        <time>2026-08-19T08:19:13.344Z</time>
      </trkpt>
      <trkpt lat="45.92727" lon="6.35319">
        <ele>1924</ele>
        <time>2026-08-19T08:19:14.344Z</time>
      </trkpt>
      <trkpt lat="45.92727" lon="6.3532">
        <ele>1924</ele>
        <time>2026-08-19T08:19:15.344Z</time>
      </trkpt>
      <trkpt lat="45.92728" lon="6.3532">
        <ele>1924</ele>
        <time>2026-08-19T08:19:16.344Z</time>
      </trkpt>
      <trkpt lat="45.92727" lon="6.35321">
        <ele>1924</ele>
        <time>2026-08-19T08:19:17.344Z</time>
      </trkpt>
      <trkpt lat="45.92727" lon="6.35321">
        <ele>1924</ele>
        <time>2026-08-19T08:19:18.344Z</time>
      </trkpt>
      <trkpt lat="45.92727" lon="6.35321">
        <ele>1923</ele>
        <time>2026-08-19T08:19:19.344Z</time>
      </trkpt>
      <trkpt lat="45.92727" lon="6.35322">
        <ele>1923</ele>
        <time>2026-08-19T08:19:20.344Z</time>
      </trkpt>
      <trkpt lat="45.92727" lon="6.35322">
        <ele>1923</ele>
        <time>2026-08-19T08:19:21.344Z</time>
      </trkpt>
      <trkpt lat="45.92727" lon="6.35323">
        <ele>1923</ele>
        <time>2026-08-19T08:19:22.344Z</time>
      </trkpt>
      <trkpt lat="45.92727" lon="6.35324">
        <ele>1922</ele>
        <time>2026-08-19T08:19:23.344Z</time>
      </trkpt>
      <trkpt lat="45.92727" lon="6.35325">
        <ele>1922</ele>
        <time>2026-08-19T08:19:24.344Z</time>
      </trkpt>
      <trkpt lat="45.92727" lon="6.35325">
        <ele>1922</ele>
        <time>2026-08-19T08:19:25.344Z</time>
      </trkpt>
      <trkpt lat="45.92727" lon="6.35326">
        <ele>1921</ele>
        <time>2026-08-19T08:19:26.344Z</time>
      </trkpt>
      <trkpt lat="45.92727" lon="6.35326">
        <ele>1921</ele>
        <time>2026-08-19T08:19:27.344Z</time>
      </trkpt>
      <trkpt lat="45.92727" lon="6.35327">
        <ele>1921</ele>
        <time>2026-08-19T08:19:28.344Z</time>
      </trkpt>
      <trkpt lat="45.92727" lon="6.35327">
        <ele>1921</ele>
        <time>2026-08-19T08:19:29.344Z</time>
      </trkpt>
      <trkpt lat="45.92727" lon="6.35328">
        <ele>1921</ele>
        <time>2026-08-19T08:19:30.344Z</time>
      </trkpt>
      <trkpt lat="45.92728" lon="6.35328">
        <ele>1921</ele>
        <time>2026-08-19T08:19:31.345Z</time>
      </trkpt>
      <trkpt lat="45.92728" lon="6.35328">
        <ele>1921</ele>
        <time>2026-08-19T08:19:32.344Z</time>
      </trkpt>
      <trkpt lat="45.92728" lon="6.35329">
        <ele>1921</ele>
        <time>2026-08-19T08:19:33.344Z</time>
      </trkpt>
      <trkpt lat="45.92728" lon="6.3533">
        <ele>1920</ele>
        <time>2026-08-19T08:19:34.344Z</time>
      </trkpt>
      <trkpt lat="45.92728" lon="6.3533">
        <ele>1920</ele>
        <time>2026-08-19T08:19:35.344Z</time>
      </trkpt>
      <trkpt lat="45.92729" lon="6.35331">
        <ele>1920</ele>
        <time>2026-08-19T08:19:36.344Z</time>
      </trkpt>
      <trkpt lat="45.92729" lon="6.35331">
        <ele>1919</ele>
        <time>2026-08-19T08:19:37.344Z</time>
      </trkpt>
      <trkpt lat="45.92729" lon="6.35332">
        <ele>1919</ele>
        <time>2026-08-19T08:19:38.344Z</time>
      </trkpt>
      <trkpt lat="45.9273" lon="6.35333">
        <ele>1919</ele>
        <time>2026-08-19T08:19:39.344Z</time>
      </trkpt>
      <trkpt lat="45.92731" lon="6.35334">
        <ele>1919</ele>
        <time>2026-08-19T08:19:40.344Z</time>
      </trkpt>
      <trkpt lat="45.92731" lon="6.35336">
        <ele>1919</ele>
        <time>2026-08-19T08:19:41.344Z</time>
      </trkpt>
      <trkpt lat="45.92732" lon="6.35337">
        <ele>1919</ele>
        <time>2026-08-19T08:19:42.344Z</time>
      </trkpt>
      <trkpt lat="45.92733" lon="6.35338">
        <ele>1919</ele>
        <time>2026-08-19T08:19:43.344Z</time>
      </trkpt>
      <trkpt lat="45.92734" lon="6.3534">
        <ele>1919</ele>
        <time>2026-08-19T08:19:44.344Z</time>
      </trkpt>
      <trkpt lat="45.92735" lon="6.35341">
        <ele>1919</ele>
        <time>2026-08-19T08:19:45.344Z</time>
      </trkpt>
      <trkpt lat="45.92736" lon="6.35343">
        <ele>1919</ele>
        <time>2026-08-19T08:19:46.344Z</time>
      </trkpt>
      <trkpt lat="45.92737" lon="6.35344">
        <ele>1919</ele>
        <time>2026-08-19T08:19:47.344Z</time>
      </trkpt>
      <trkpt lat="45.92738" lon="6.35346">
        <ele>1919</ele>
        <time>2026-08-19T08:19:48.344Z</time>
      </trkpt>
      <trkpt lat="45.92739" lon="6.35347">
        <ele>1919</ele>
        <time>2026-08-19T08:19:49.344Z</time>
      </trkpt>
      <trkpt lat="45.9274" lon="6.35349">
        <ele>1919</ele>
        <time>2026-08-19T08:19:50.344Z</time>
      </trkpt>
      <trkpt lat="45.92742" lon="6.3535">
        <ele>1919</ele>
        <time>2026-08-19T08:19:51.344Z</time>
      </trkpt>
      <trkpt lat="45.92743" lon="6.35351">
        <ele>1919</ele>
        <time>2026-08-19T08:19:52.344Z</time>
      </trkpt>
      <trkpt lat="45.92744" lon="6.35352">
        <ele>1919</ele>
        <time>2026-08-19T08:19:53.344Z</time>
      </trkpt>
      <trkpt lat="45.92745" lon="6.35353">
        <ele>1920</ele>
        <time>2026-08-19T08:19:54.344Z</time>
      </trkpt>
      <trkpt lat="45.92746" lon="6.35354">
        <ele>1920</ele>
        <time>2026-08-19T08:19:55.344Z</time>
      </trkpt>
      <trkpt lat="45.92746" lon="6.35355">
        <ele>1920</ele>
        <time>2026-08-19T08:19:56.344Z</time>
      </trkpt>
      <trkpt lat="45.92746" lon="6.35356">
        <ele>1920</ele>
        <time>2026-08-19T08:19:57.344Z</time>
      </trkpt>
      <trkpt lat="45.92747" lon="6.35357">
        <ele>1920</ele>
        <time>2026-08-19T08:19:58.344Z</time>
      </trkpt>
      <trkpt lat="45.92748" lon="6.35357">
        <ele>1920</ele>
        <time>2026-08-19T08:19:59.344Z</time>
      </trkpt>
      <trkpt lat="45.92748" lon="6.35357">
        <ele>1921</ele>
        <time>2026-08-19T08:20:00.344Z</time>
      </trkpt>
      <trkpt lat="45.92748" lon="6.35357">
        <ele>1921</ele>
        <time>2026-08-19T08:20:01.344Z</time>
      </trkpt>
      <trkpt lat="45.92749" lon="6.35357">
        <ele>1922</ele>
        <time>2026-08-19T08:20:02.344Z</time>
      </trkpt>
      <trkpt lat="45.92749" lon="6.35357">
        <ele>1922</ele>
        <time>2026-08-19T08:20:03.344Z</time>
      </trkpt>
      <trkpt lat="45.92749" lon="6.35357">
        <ele>1922</ele>
        <time>2026-08-19T08:20:04.344Z</time>
      </trkpt>
      <trkpt lat="45.9275" lon="6.35357">
        <ele>1922</ele>
        <time>2026-08-19T08:20:05.345Z</time>
      </trkpt>
      <trkpt lat="45.92751" lon="6.35356">
        <ele>1921</ele>
        <time>2026-08-19T08:20:06.344Z</time>
      </trkpt>
      <trkpt lat="45.92751" lon="6.35355">
        <ele>1920</ele>
        <time>2026-08-19T08:20:07.344Z</time>
      </trkpt>
      <trkpt lat="45.92752" lon="6.35355">
        <ele>1920</ele>
        <time>2026-08-19T08:20:08.344Z</time>
      </trkpt>
      <trkpt lat="45.92752" lon="6.35355">
        <ele>1919</ele>
        <time>2026-08-19T08:20:09.344Z</time>
      </trkpt>
      <trkpt lat="45.92752" lon="6.35355">
        <ele>1919</ele>
        <time>2026-08-19T08:20:10.344Z</time>
      </trkpt>
      <trkpt lat="45.92753" lon="6.35355">
        <ele>1919</ele>
        <time>2026-08-19T08:20:11.344Z</time>
      </trkpt>
      <trkpt lat="45.92754" lon="6.35355">
        <ele>1918</ele>
        <time>2026-08-19T08:20:12.344Z</time>
      </trkpt>
      <trkpt lat="45.92755" lon="6.35355">
        <ele>1918</ele>
        <time>2026-08-19T08:20:13.344Z</time>
      </trkpt>
      <trkpt lat="45.92757" lon="6.35354">
        <ele>1917</ele>
        <time>2026-08-19T08:20:14.344Z</time>
      </trkpt>
      <trkpt lat="45.92758" lon="6.35354">
        <ele>1917</ele>
        <time>2026-08-19T08:20:15.344Z</time>
      </trkpt>
      <trkpt lat="45.92759" lon="6.35353">
        <ele>1916</ele>
        <time>2026-08-19T08:20:16.344Z</time>
      </trkpt>
      <trkpt lat="45.9276" lon="6.35353">
        <ele>1916</ele>
        <time>2026-08-19T08:20:17.344Z</time>
      </trkpt>
      <trkpt lat="45.92762" lon="6.35352">
        <ele>1915</ele>
        <time>2026-08-19T08:20:18.344Z</time>
      </trkpt>
      <trkpt lat="45.92763" lon="6.35351">
        <ele>1915</ele>
        <time>2026-08-19T08:20:19.344Z</time>
      </trkpt>
      <trkpt lat="45.92764" lon="6.3535">
        <ele>1915</ele>
        <time>2026-08-19T08:20:20.344Z</time>
      </trkpt>
      <trkpt lat="45.92765" lon="6.35349">
        <ele>1914</ele>
        <time>2026-08-19T08:20:21.344Z</time>
      </trkpt>
      <trkpt lat="45.92765" lon="6.35349">
        <ele>1914</ele>
        <time>2026-08-19T08:20:22.344Z</time>
      </trkpt>
      <trkpt lat="45.92765" lon="6.35349">
        <ele>1914</ele>
        <time>2026-08-19T08:20:23.344Z</time>
      </trkpt>
      <trkpt lat="45.92765" lon="6.35349">
        <ele>1913</ele>
        <time>2026-08-19T08:20:24.345Z</time>
      </trkpt>
      <trkpt lat="45.92765" lon="6.35349">
        <ele>1913</ele>
        <time>2026-08-19T08:20:25.344Z</time>
      </trkpt>
      <trkpt lat="45.92765" lon="6.35348">
        <ele>1913</ele>
        <time>2026-08-19T08:20:26.344Z</time>
      </trkpt>
      <trkpt lat="45.92765" lon="6.35348">
        <ele>1913</ele>
        <time>2026-08-19T08:20:27.344Z</time>
      </trkpt>
      <trkpt lat="45.92765" lon="6.35348">
        <ele>1912</ele>
        <time>2026-08-19T08:20:28.344Z</time>
      </trkpt>
      <trkpt lat="45.92765" lon="6.35348">
        <ele>1912</ele>
        <time>2026-08-19T08:20:29.344Z</time>
      </trkpt>
      <trkpt lat="45.92765" lon="6.35348">
        <ele>1912</ele>
        <time>2026-08-19T08:20:30.344Z</time>
      </trkpt>
      <trkpt lat="45.92765" lon="6.35347">
        <ele>1912</ele>
        <time>2026-08-19T08:20:31.344Z</time>
      </trkpt>
      <trkpt lat="45.92765" lon="6.35347">
        <ele>1912</ele>
        <time>2026-08-19T08:20:32.344Z</time>
      </trkpt>
      <trkpt lat="45.92766" lon="6.35347">
        <ele>1911</ele>
        <time>2026-08-19T08:20:33.344Z</time>
      </trkpt>
      <trkpt lat="45.92767" lon="6.35347">
        <ele>1910</ele>
        <time>2026-08-19T08:20:34.344Z</time>
      </trkpt>
      <trkpt lat="45.92767" lon="6.35347">
        <ele>1909</ele>
        <time>2026-08-19T08:20:35.344Z</time>
      </trkpt>
      <trkpt lat="45.92767" lon="6.35348">
        <ele>1909</ele>
        <time>2026-08-19T08:20:36.344Z</time>
      </trkpt>
      <trkpt lat="45.92767" lon="6.35348">
        <ele>1908</ele>
        <time>2026-08-19T08:20:37.344Z</time>
      </trkpt>
      <trkpt lat="45.92768" lon="6.35348">
        <ele>1908</ele>
        <time>2026-08-19T08:20:38.344Z</time>
      </trkpt>
      <trkpt lat="45.92768" lon="6.35348">
        <ele>1907</ele>
        <time>2026-08-19T08:20:39.344Z</time>
      </trkpt>
      <trkpt lat="45.92768" lon="6.35348">
        <ele>1907</ele>
        <time>2026-08-19T08:20:40.344Z</time>
      </trkpt>
      <trkpt lat="45.92768" lon="6.35348">
        <ele>1907</ele>
        <time>2026-08-19T08:20:41.344Z</time>
      </trkpt>
      <trkpt lat="45.92769" lon="6.35347">
        <ele>1907</ele>
        <time>2026-08-19T08:20:42.344Z</time>
      </trkpt>
      <trkpt lat="45.92769" lon="6.35347">
        <ele>1907</ele>
        <time>2026-08-19T08:20:43.344Z</time>
      </trkpt>
      <trkpt lat="45.9277" lon="6.35347">
        <ele>1907</ele>
        <time>2026-08-19T08:20:44.344Z</time>
      </trkpt>
      <trkpt lat="45.92771" lon="6.35346">
        <ele>1907</ele>
        <time>2026-08-19T08:20:45.344Z</time>
      </trkpt>
      <trkpt lat="45.92772" lon="6.35346">
        <ele>1907</ele>
        <time>2026-08-19T08:20:46.344Z</time>
      </trkpt>
      <trkpt lat="45.92773" lon="6.35346">
        <ele>1907</ele>
        <time>2026-08-19T08:20:47.344Z</time>
      </trkpt>
      <trkpt lat="45.92774" lon="6.35346">
        <ele>1907</ele>
        <time>2026-08-19T08:20:48.344Z</time>
      </trkpt>
      <trkpt lat="45.92774" lon="6.35346">
        <ele>1907</ele>
        <time>2026-08-19T08:20:49.344Z</time>
      </trkpt>
      <trkpt lat="45.92775" lon="6.35345">
        <ele>1907</ele>
        <time>2026-08-19T08:20:50.344Z</time>
      </trkpt>
      <trkpt lat="45.92776" lon="6.35345">
        <ele>1907</ele>
        <time>2026-08-19T08:20:51.344Z</time>
      </trkpt>
      <trkpt lat="45.92777" lon="6.35345">
        <ele>1907</ele>
        <time>2026-08-19T08:20:52.344Z</time>
      </trkpt>
      <trkpt lat="45.92779" lon="6.35345">
        <ele>1907</ele>
        <time>2026-08-19T08:20:53.344Z</time>
      </trkpt>
      <trkpt lat="45.9278" lon="6.35346">
        <ele>1907</ele>
        <time>2026-08-19T08:20:54.344Z</time>
      </trkpt>
      <trkpt lat="45.92781" lon="6.35346">
        <ele>1906</ele>
        <time>2026-08-19T08:20:55.344Z</time>
      </trkpt>
      <trkpt lat="45.92783" lon="6.35346">
        <ele>1906</ele>
        <time>2026-08-19T08:20:56.344Z</time>
      </trkpt>
      <trkpt lat="45.92784" lon="6.35347">
        <ele>1906</ele>
        <time>2026-08-19T08:20:57.344Z</time>
      </trkpt>
      <trkpt lat="45.92786" lon="6.35347">
        <ele>1906</ele>
        <time>2026-08-19T08:20:58.344Z</time>
      </trkpt>
      <trkpt lat="45.92788" lon="6.35347">
        <ele>1906</ele>
        <time>2026-08-19T08:20:59.344Z</time>
      </trkpt>
      <trkpt lat="45.92789" lon="6.35346">
        <ele>1906</ele>
        <time>2026-08-19T08:21:00.344Z</time>
      </trkpt>
      <trkpt lat="45.9279" lon="6.35345">
        <ele>1906</ele>
        <time>2026-08-19T08:21:01.344Z</time>
      </trkpt>
      <trkpt lat="45.92791" lon="6.35344">
        <ele>1906</ele>
        <time>2026-08-19T08:21:02.344Z</time>
      </trkpt>
      <trkpt lat="45.92792" lon="6.35343">
        <ele>1906</ele>
        <time>2026-08-19T08:21:03.344Z</time>
      </trkpt>
      <trkpt lat="45.92793" lon="6.35343">
        <ele>1905</ele>
        <time>2026-08-19T08:21:04.344Z</time>
      </trkpt>
      <trkpt lat="45.92794" lon="6.35343">
        <ele>1905</ele>
        <time>2026-08-19T08:21:05.344Z</time>
      </trkpt>
      <trkpt lat="45.92795" lon="6.35343">
        <ele>1905</ele>
        <time>2026-08-19T08:21:06.344Z</time>
      </trkpt>
      <trkpt lat="45.92796" lon="6.35343">
        <ele>1905</ele>
        <time>2026-08-19T08:21:07.344Z</time>
      </trkpt>
      <trkpt lat="45.92797" lon="6.35343">
        <ele>1905</ele>
        <time>2026-08-19T08:21:08.344Z</time>
      </trkpt>
      <trkpt lat="45.92798" lon="6.35343">
        <ele>1905</ele>
        <time>2026-08-19T08:21:09.344Z</time>
      </trkpt>
      <trkpt lat="45.92798" lon="6.35343">
        <ele>1904</ele>
        <time>2026-08-19T08:21:10.344Z</time>
      </trkpt>
      <trkpt lat="45.92799" lon="6.35344">
        <ele>1904</ele>
        <time>2026-08-19T08:21:11.344Z</time>
      </trkpt>
      <trkpt lat="45.928" lon="6.35345">
        <ele>1903</ele>
        <time>2026-08-19T08:21:12.344Z</time>
      </trkpt>
      <trkpt lat="45.92801" lon="6.35345">
        <ele>1903</ele>
        <time>2026-08-19T08:21:13.344Z</time>
      </trkpt>
      <trkpt lat="45.92802" lon="6.35345">
        <ele>1902</ele>
        <time>2026-08-19T08:21:14.344Z</time>
      </trkpt>
      <trkpt lat="45.92803" lon="6.35345">
        <ele>1902</ele>
        <time>2026-08-19T08:21:15.344Z</time>
      </trkpt>
      <trkpt lat="45.92804" lon="6.35344">
        <ele>1902</ele>
        <time>2026-08-19T08:21:16.344Z</time>
      </trkpt>
      <trkpt lat="45.92805" lon="6.35344">
        <ele>1902</ele>
        <time>2026-08-19T08:21:17.344Z</time>
      </trkpt>
      <trkpt lat="45.92806" lon="6.35344">
        <ele>1901</ele>
        <time>2026-08-19T08:21:18.344Z</time>
      </trkpt>
      <trkpt lat="45.92807" lon="6.35344">
        <ele>1901</ele>
        <time>2026-08-19T08:21:19.344Z</time>
      </trkpt>
      <trkpt lat="45.92808" lon="6.35345">
        <ele>1901</ele>
        <time>2026-08-19T08:21:20.344Z</time>
      </trkpt>
      <trkpt lat="45.92808" lon="6.35346">
        <ele>1901</ele>
        <time>2026-08-19T08:21:21.344Z</time>
      </trkpt>
      <trkpt lat="45.9281" lon="6.35346">
        <ele>1901</ele>
        <time>2026-08-19T08:21:22.345Z</time>
      </trkpt>
      <trkpt lat="45.9281" lon="6.35347">
        <ele>1901</ele>
        <time>2026-08-19T08:21:23.344Z</time>
      </trkpt>
      <trkpt lat="45.92811" lon="6.35348">
        <ele>1901</ele>
        <time>2026-08-19T08:21:24.344Z</time>
      </trkpt>
      <trkpt lat="45.92812" lon="6.35349">
        <ele>1901</ele>
        <time>2026-08-19T08:21:25.344Z</time>
      </trkpt>
      <trkpt lat="45.92813" lon="6.35349">
        <ele>1901</ele>
        <time>2026-08-19T08:21:26.345Z</time>
      </trkpt>
      <trkpt lat="45.92814" lon="6.3535">
        <ele>1900</ele>
        <time>2026-08-19T08:21:27.344Z</time>
      </trkpt>
      <trkpt lat="45.92815" lon="6.35351">
        <ele>1900</ele>
        <time>2026-08-19T08:21:28.344Z</time>
      </trkpt>
      <trkpt lat="45.92816" lon="6.35351">
        <ele>1899</ele>
        <time>2026-08-19T08:21:29.344Z</time>
      </trkpt>
      <trkpt lat="45.92817" lon="6.35352">
        <ele>1898</ele>
        <time>2026-08-19T08:21:30.344Z</time>
      </trkpt>
      <trkpt lat="45.92818" lon="6.35353">
        <ele>1898</ele>
        <time>2026-08-19T08:21:31.344Z</time>
      </trkpt>
      <trkpt lat="45.92819" lon="6.35354">
        <ele>1897</ele>
        <time>2026-08-19T08:21:32.344Z</time>
      </trkpt>
      <trkpt lat="45.9282" lon="6.35358">
        <ele>1897</ele>
        <time>2026-08-19T08:21:33.344Z</time>
      </trkpt>
      <trkpt lat="45.9282" lon="6.35359">
        <ele>1897</ele>
        <time>2026-08-19T08:21:34.344Z</time>
      </trkpt>
      <trkpt lat="45.9282" lon="6.35361">
        <ele>1896</ele>
        <time>2026-08-19T08:21:35.344Z</time>
      </trkpt>
      <trkpt lat="45.9282" lon="6.35363">
        <ele>1896</ele>
        <time>2026-08-19T08:21:36.344Z</time>
      </trkpt>
      <trkpt lat="45.9282" lon="6.35363">
        <ele>1896</ele>
        <time>2026-08-19T08:21:37.344Z</time>
      </trkpt>
      <trkpt lat="45.9282" lon="6.35365">
        <ele>1896</ele>
        <time>2026-08-19T08:21:38.344Z</time>
      </trkpt>
      <trkpt lat="45.9282" lon="6.35365">
        <ele>1896</ele>
        <time>2026-08-19T08:21:39.344Z</time>
      </trkpt>
      <trkpt lat="45.92821" lon="6.35366">
        <ele>1896</ele>
        <time>2026-08-19T08:21:40.344Z</time>
      </trkpt>
      <trkpt lat="45.92823" lon="6.35366">
        <ele>1896</ele>
        <time>2026-08-19T08:21:41.344Z</time>
      </trkpt>
      <trkpt lat="45.92824" lon="6.35367">
        <ele>1895</ele>
        <time>2026-08-19T08:21:42.344Z</time>
      </trkpt>
      <trkpt lat="45.92825" lon="6.35367">
        <ele>1894</ele>
        <time>2026-08-19T08:21:43.344Z</time>
      </trkpt>
      <trkpt lat="45.92825" lon="6.35369">
        <ele>1893</ele>
        <time>2026-08-19T08:21:44.344Z</time>
      </trkpt>
      <trkpt lat="45.92825" lon="6.3537">
        <ele>1893</ele>
        <time>2026-08-19T08:21:45.344Z</time>
      </trkpt>
      <trkpt lat="45.92824" lon="6.35371">
        <ele>1892</ele>
        <time>2026-08-19T08:21:46.344Z</time>
      </trkpt>
      <trkpt lat="45.92824" lon="6.35372">
        <ele>1891</ele>
        <time>2026-08-19T08:21:47.344Z</time>
      </trkpt>
      <trkpt lat="45.92823" lon="6.35373">
        <ele>1889</ele>
        <time>2026-08-19T08:21:48.344Z</time>
      </trkpt>
      <trkpt lat="45.92823" lon="6.35374">
        <ele>1888</ele>
        <time>2026-08-19T08:21:49.344Z</time>
      </trkpt>
      <trkpt lat="45.92823" lon="6.35375">
        <ele>1888</ele>
        <time>2026-08-19T08:21:50.344Z</time>
      </trkpt>
      <trkpt lat="45.92824" lon="6.35375">
        <ele>1887</ele>
        <time>2026-08-19T08:21:51.345Z</time>
      </trkpt>
      <trkpt lat="45.92824" lon="6.35376">
        <ele>1886</ele>
        <time>2026-08-19T08:21:52.344Z</time>
      </trkpt>
      <trkpt lat="45.92825" lon="6.35376">
        <ele>1886</ele>
        <time>2026-08-19T08:21:53.344Z</time>
      </trkpt>
      <trkpt lat="45.92827" lon="6.35377">
        <ele>1886</ele>
        <time>2026-08-19T08:21:54.344Z</time>
      </trkpt>
      <trkpt lat="45.92828" lon="6.35378">
        <ele>1886</ele>
        <time>2026-08-19T08:21:55.344Z</time>
      </trkpt>
      <trkpt lat="45.9283" lon="6.35378">
        <ele>1886</ele>
        <time>2026-08-19T08:21:56.344Z</time>
      </trkpt>
      <trkpt lat="45.92831" lon="6.35379">
        <ele>1886</ele>
        <time>2026-08-19T08:21:57.344Z</time>
      </trkpt>
      <trkpt lat="45.92832" lon="6.3538">
        <ele>1886</ele>
        <time>2026-08-19T08:21:58.344Z</time>
      </trkpt>
      <trkpt lat="45.92833" lon="6.35381">
        <ele>1886</ele>
        <time>2026-08-19T08:21:59.344Z</time>
      </trkpt>
      <trkpt lat="45.92834" lon="6.35382">
        <ele>1885</ele>
        <time>2026-08-19T08:22:00.344Z</time>
      </trkpt>
      <trkpt lat="45.92834" lon="6.35383">
        <ele>1885</ele>
        <time>2026-08-19T08:22:01.344Z</time>
      </trkpt>
      <trkpt lat="45.92835" lon="6.35383">
        <ele>1885</ele>
        <time>2026-08-19T08:22:02.344Z</time>
      </trkpt>
      <trkpt lat="45.92837" lon="6.35385">
        <ele>1884</ele>
        <time>2026-08-19T08:22:03.344Z</time>
      </trkpt>
      <trkpt lat="45.92837" lon="6.35386">
        <ele>1884</ele>
        <time>2026-08-19T08:22:04.344Z</time>
      </trkpt>
      <trkpt lat="45.92838" lon="6.35387">
        <ele>1884</ele>
        <time>2026-08-19T08:22:05.344Z</time>
      </trkpt>
      <trkpt lat="45.92839" lon="6.35388">
        <ele>1883</ele>
        <time>2026-08-19T08:22:06.344Z</time>
      </trkpt>
      <trkpt lat="45.92839" lon="6.35389">
        <ele>1883</ele>
        <time>2026-08-19T08:22:07.344Z</time>
      </trkpt>
      <trkpt lat="45.9284" lon="6.3539">
        <ele>1883</ele>
        <time>2026-08-19T08:22:08.344Z</time>
      </trkpt>
      <trkpt lat="45.92841" lon="6.35392">
        <ele>1882</ele>
        <time>2026-08-19T08:22:09.344Z</time>
      </trkpt>
      <trkpt lat="45.92842" lon="6.35393">
        <ele>1881</ele>
        <time>2026-08-19T08:22:10.344Z</time>
      </trkpt>
      <trkpt lat="45.92843" lon="6.35394">
        <ele>1881</ele>
        <time>2026-08-19T08:22:11.344Z</time>
      </trkpt>
      <trkpt lat="45.92844" lon="6.35394">
        <ele>1881</ele>
        <time>2026-08-19T08:22:12.344Z</time>
      </trkpt>
      <trkpt lat="45.92845" lon="6.35395">
        <ele>1880</ele>
        <time>2026-08-19T08:22:13.344Z</time>
      </trkpt>
      <trkpt lat="45.92846" lon="6.35396">
        <ele>1879</ele>
        <time>2026-08-19T08:22:14.344Z</time>
      </trkpt>
      <trkpt lat="45.92846" lon="6.35398">
        <ele>1878</ele>
        <time>2026-08-19T08:22:15.344Z</time>
      </trkpt>
      <trkpt lat="45.92846" lon="6.35399">
        <ele>1878</ele>
        <time>2026-08-19T08:22:16.344Z</time>
      </trkpt>
      <trkpt lat="45.92846" lon="6.35401">
        <ele>1877</ele>
        <time>2026-08-19T08:22:17.344Z</time>
      </trkpt>
      <trkpt lat="45.92846" lon="6.35402">
        <ele>1876</ele>
        <time>2026-08-19T08:22:18.344Z</time>
      </trkpt>
      <trkpt lat="45.92847" lon="6.35403">
        <ele>1876</ele>
        <time>2026-08-19T08:22:19.344Z</time>
      </trkpt>
      <trkpt lat="45.92848" lon="6.35405">
        <ele>1875</ele>
        <time>2026-08-19T08:22:20.344Z</time>
      </trkpt>
      <trkpt lat="45.92849" lon="6.35406">
        <ele>1875</ele>
        <time>2026-08-19T08:22:21.344Z</time>
      </trkpt>
      <trkpt lat="45.9285" lon="6.35408">
        <ele>1875</ele>
        <time>2026-08-19T08:22:22.344Z</time>
      </trkpt>
      <trkpt lat="45.92851" lon="6.35409">
        <ele>1874</ele>
        <time>2026-08-19T08:22:23.344Z</time>
      </trkpt>
      <trkpt lat="45.92852" lon="6.35411">
        <ele>1874</ele>
        <time>2026-08-19T08:22:24.344Z</time>
      </trkpt>
      <trkpt lat="45.92853" lon="6.35413">
        <ele>1874</ele>
        <time>2026-08-19T08:22:25.344Z</time>
      </trkpt>
      <trkpt lat="45.92854" lon="6.35414">
        <ele>1874</ele>
        <time>2026-08-19T08:22:26.345Z</time>
      </trkpt>
      <trkpt lat="45.92856" lon="6.35416">
        <ele>1874</ele>
        <time>2026-08-19T08:22:27.344Z</time>
      </trkpt>
      <trkpt lat="45.92857" lon="6.35418">
        <ele>1874</ele>
        <time>2026-08-19T08:22:28.344Z</time>
      </trkpt>
      <trkpt lat="45.92858" lon="6.3542">
        <ele>1873</ele>
        <time>2026-08-19T08:22:29.344Z</time>
      </trkpt>
      <trkpt lat="45.92858" lon="6.35422">
        <ele>1873</ele>
        <time>2026-08-19T08:22:30.344Z</time>
      </trkpt>
      <trkpt lat="45.92859" lon="6.35424">
        <ele>1872</ele>
        <time>2026-08-19T08:22:31.344Z</time>
      </trkpt>
      <trkpt lat="45.92859" lon="6.35426">
        <ele>1871</ele>
        <time>2026-08-19T08:22:32.344Z</time>
      </trkpt>
      <trkpt lat="45.92859" lon="6.35428">
        <ele>1871</ele>
        <time>2026-08-19T08:22:33.344Z</time>
      </trkpt>
      <trkpt lat="45.92859" lon="6.3543">
        <ele>1870</ele>
        <time>2026-08-19T08:22:34.344Z</time>
      </trkpt>
      <trkpt lat="45.9286" lon="6.35432">
        <ele>1869</ele>
        <time>2026-08-19T08:22:35.344Z</time>
      </trkpt>
      <trkpt lat="45.9286" lon="6.35434">
        <ele>1868</ele>
        <time>2026-08-19T08:22:36.344Z</time>
      </trkpt>
      <trkpt lat="45.9286" lon="6.35435">
        <ele>1867</ele>
        <time>2026-08-19T08:22:37.344Z</time>
      </trkpt>
      <trkpt lat="45.92859" lon="6.35436">
        <ele>1867</ele>
        <time>2026-08-19T08:22:38.344Z</time>
      </trkpt>
      <trkpt lat="45.9286" lon="6.35438">
        <ele>1866</ele>
        <time>2026-08-19T08:22:39.344Z</time>
      </trkpt>
      <trkpt lat="45.9286" lon="6.35439">
        <ele>1866</ele>
        <time>2026-08-19T08:22:40.344Z</time>
      </trkpt>
      <trkpt lat="45.9286" lon="6.35441">
        <ele>1865</ele>
        <time>2026-08-19T08:22:41.344Z</time>
      </trkpt>
      <trkpt lat="45.92861" lon="6.35442">
        <ele>1865</ele>
        <time>2026-08-19T08:22:42.344Z</time>
      </trkpt>
      <trkpt lat="45.92861" lon="6.35444">
        <ele>1864</ele>
        <time>2026-08-19T08:22:43.344Z</time>
      </trkpt>
      <trkpt lat="45.92862" lon="6.35445">
        <ele>1864</ele>
        <time>2026-08-19T08:22:44.344Z</time>
      </trkpt>
      <trkpt lat="45.92862" lon="6.35446">
        <ele>1863</ele>
        <time>2026-08-19T08:22:45.344Z</time>
      </trkpt>
      <trkpt lat="45.92862" lon="6.35447">
        <ele>1863</ele>
        <time>2026-08-19T08:22:46.344Z</time>
      </trkpt>
      <trkpt lat="45.92862" lon="6.35448">
        <ele>1862</ele>
        <time>2026-08-19T08:22:47.344Z</time>
      </trkpt>
      <trkpt lat="45.92862" lon="6.35448">
        <ele>1862</ele>
        <time>2026-08-19T08:22:48.344Z</time>
      </trkpt>
      <trkpt lat="45.92861" lon="6.35449">
        <ele>1861</ele>
        <time>2026-08-19T08:22:49.344Z</time>
      </trkpt>
      <trkpt lat="45.9286" lon="6.35449">
        <ele>1861</ele>
        <time>2026-08-19T08:22:50.344Z</time>
      </trkpt>
      <trkpt lat="45.9286" lon="6.35449">
        <ele>1860</ele>
        <time>2026-08-19T08:22:51.344Z</time>
      </trkpt>
      <trkpt lat="45.92859" lon="6.3545">
        <ele>1860</ele>
        <time>2026-08-19T08:22:52.344Z</time>
      </trkpt>
      <trkpt lat="45.92859" lon="6.3545">
        <ele>1859</ele>
        <time>2026-08-19T08:22:53.344Z</time>
      </trkpt>
      <trkpt lat="45.92859" lon="6.35451">
        <ele>1859</ele>
        <time>2026-08-19T08:22:54.344Z</time>
      </trkpt>
      <trkpt lat="45.9286" lon="6.35451">
        <ele>1859</ele>
        <time>2026-08-19T08:22:55.344Z</time>
      </trkpt>
      <trkpt lat="45.9286" lon="6.35451">
        <ele>1859</ele>
        <time>2026-08-19T08:22:56.344Z</time>
      </trkpt>
      <trkpt lat="45.9286" lon="6.35452">
        <ele>1859</ele>
        <time>2026-08-19T08:22:57.344Z</time>
      </trkpt>
      <trkpt lat="45.9286" lon="6.35453">
        <ele>1858</ele>
        <time>2026-08-19T08:22:58.344Z</time>
      </trkpt>
      <trkpt lat="45.9286" lon="6.35453">
        <ele>1858</ele>
        <time>2026-08-19T08:22:59.344Z</time>
      </trkpt>
      <trkpt lat="45.92861" lon="6.35454">
        <ele>1858</ele>
        <time>2026-08-19T08:23:00.344Z</time>
      </trkpt>
      <trkpt lat="45.9286" lon="6.35455">
        <ele>1858</ele>
        <time>2026-08-19T08:23:01.344Z</time>
      </trkpt>
      <trkpt lat="45.9286" lon="6.35456">
        <ele>1858</ele>
        <time>2026-08-19T08:23:02.344Z</time>
      </trkpt>
      <trkpt lat="45.9286" lon="6.35456">
        <ele>1857</ele>
        <time>2026-08-19T08:23:03.344Z</time>
      </trkpt>
      <trkpt lat="45.9286" lon="6.35457">
        <ele>1857</ele>
        <time>2026-08-19T08:23:04.344Z</time>
      </trkpt>
      <trkpt lat="45.9286" lon="6.35458">
        <ele>1856</ele>
        <time>2026-08-19T08:23:05.344Z</time>
      </trkpt>
      <trkpt lat="45.9286" lon="6.35458">
        <ele>1856</ele>
        <time>2026-08-19T08:23:06.344Z</time>
      </trkpt>
      <trkpt lat="45.92861" lon="6.35459">
        <ele>1855</ele>
        <time>2026-08-19T08:23:07.344Z</time>
      </trkpt>
      <trkpt lat="45.92861" lon="6.3546">
        <ele>1855</ele>
        <time>2026-08-19T08:23:08.344Z</time>
      </trkpt>
      <trkpt lat="45.92861" lon="6.35462">
        <ele>1854</ele>
        <time>2026-08-19T08:23:09.344Z</time>
      </trkpt>
      <trkpt lat="45.92862" lon="6.35464">
        <ele>1854</ele>
        <time>2026-08-19T08:23:10.344Z</time>
      </trkpt>
      <trkpt lat="45.92862" lon="6.35465">
        <ele>1853</ele>
        <time>2026-08-19T08:23:11.344Z</time>
      </trkpt>
      <trkpt lat="45.92863" lon="6.35468">
        <ele>1853</ele>
        <time>2026-08-19T08:23:12.344Z</time>
      </trkpt>
      <trkpt lat="45.92863" lon="6.35469">
        <ele>1853</ele>
        <time>2026-08-19T08:23:13.344Z</time>
      </trkpt>
      <trkpt lat="45.92863" lon="6.35471">
        <ele>1853</ele>
        <time>2026-08-19T08:23:14.344Z</time>
      </trkpt>
      <trkpt lat="45.92864" lon="6.35472">
        <ele>1853</ele>
        <time>2026-08-19T08:23:15.344Z</time>
      </trkpt>
      <trkpt lat="45.92864" lon="6.35473">
        <ele>1853</ele>
        <time>2026-08-19T08:23:16.344Z</time>
      </trkpt>
      <trkpt lat="45.92865" lon="6.35474">
        <ele>1852</ele>
        <time>2026-08-19T08:23:17.344Z</time>
      </trkpt>
      <trkpt lat="45.92865" lon="6.35475">
        <ele>1852</ele>
        <time>2026-08-19T08:23:18.344Z</time>
      </trkpt>
      <trkpt lat="45.92865" lon="6.35476">
        <ele>1852</ele>
        <time>2026-08-19T08:23:19.344Z</time>
      </trkpt>
      <trkpt lat="45.92866" lon="6.35478">
        <ele>1852</ele>
        <time>2026-08-19T08:23:20.344Z</time>
      </trkpt>
      <trkpt lat="45.92865" lon="6.35479">
        <ele>1851</ele>
        <time>2026-08-19T08:23:21.344Z</time>
      </trkpt>
      <trkpt lat="45.92865" lon="6.3548">
        <ele>1851</ele>
        <time>2026-08-19T08:23:22.344Z</time>
      </trkpt>
      <trkpt lat="45.92865" lon="6.3548">
        <ele>1851</ele>
        <time>2026-08-19T08:23:23.344Z</time>
      </trkpt>
      <trkpt lat="45.92865" lon="6.3548">
        <ele>1850</ele>
        <time>2026-08-19T08:23:24.344Z</time>
      </trkpt>
      <trkpt lat="45.92865" lon="6.3548">
        <ele>1850</ele>
        <time>2026-08-19T08:23:25.344Z</time>
      </trkpt>
      <trkpt lat="45.92864" lon="6.35481">
        <ele>1850</ele>
        <time>2026-08-19T08:23:26.344Z</time>
      </trkpt>
      <trkpt lat="45.92864" lon="6.35481">
        <ele>1849</ele>
        <time>2026-08-19T08:23:27.344Z</time>
      </trkpt>
      <trkpt lat="45.92863" lon="6.35481">
        <ele>1848</ele>
        <time>2026-08-19T08:23:28.344Z</time>
      </trkpt>
      <trkpt lat="45.92862" lon="6.35481">
        <ele>1848</ele>
        <time>2026-08-19T08:23:29.344Z</time>
      </trkpt>
      <trkpt lat="45.92861" lon="6.35482">
        <ele>1848</ele>
        <time>2026-08-19T08:23:30.344Z</time>
      </trkpt>
      <trkpt lat="45.92861" lon="6.35483">
        <ele>1847</ele>
        <time>2026-08-19T08:23:31.344Z</time>
      </trkpt>
      <trkpt lat="45.92861" lon="6.35484">
        <ele>1846</ele>
        <time>2026-08-19T08:23:32.345Z</time>
      </trkpt>
      <trkpt lat="45.92861" lon="6.35485">
        <ele>1846</ele>
        <time>2026-08-19T08:23:33.344Z</time>
      </trkpt>
      <trkpt lat="45.92861" lon="6.35486">
        <ele>1846</ele>
        <time>2026-08-19T08:23:34.344Z</time>
      </trkpt>
      <trkpt lat="45.92861" lon="6.35488">
        <ele>1846</ele>
        <time>2026-08-19T08:23:35.344Z</time>
      </trkpt>
      <trkpt lat="45.92861" lon="6.35489">
        <ele>1845</ele>
        <time>2026-08-19T08:23:36.344Z</time>
      </trkpt>
      <trkpt lat="45.9286" lon="6.35491">
        <ele>1845</ele>
        <time>2026-08-19T08:23:37.344Z</time>
      </trkpt>
      <trkpt lat="45.9286" lon="6.35492">
        <ele>1845</ele>
        <time>2026-08-19T08:23:38.344Z</time>
      </trkpt>
      <trkpt lat="45.9286" lon="6.35493">
        <ele>1845</ele>
        <time>2026-08-19T08:23:39.344Z</time>
      </trkpt>
      <trkpt lat="45.92859" lon="6.35495">
        <ele>1844</ele>
        <time>2026-08-19T08:23:40.344Z</time>
      </trkpt>
      <trkpt lat="45.92859" lon="6.35497">
        <ele>1844</ele>
        <time>2026-08-19T08:23:41.344Z</time>
      </trkpt>
      <trkpt lat="45.92859" lon="6.35498">
        <ele>1844</ele>
        <time>2026-08-19T08:23:42.344Z</time>
      </trkpt>
      <trkpt lat="45.92859" lon="6.355">
        <ele>1844</ele>
        <time>2026-08-19T08:23:43.344Z</time>
      </trkpt>
      <trkpt lat="45.92858" lon="6.35502">
        <ele>1843</ele>
        <time>2026-08-19T08:23:44.344Z</time>
      </trkpt>
      <trkpt lat="45.92858" lon="6.35504">
        <ele>1843</ele>
        <time>2026-08-19T08:23:45.344Z</time>
      </trkpt>
      <trkpt lat="45.92858" lon="6.35505">
        <ele>1842</ele>
        <time>2026-08-19T08:23:46.345Z</time>
      </trkpt>
      <trkpt lat="45.92858" lon="6.35506">
        <ele>1842</ele>
        <time>2026-08-19T08:23:47.344Z</time>
      </trkpt>
      <trkpt lat="45.92858" lon="6.35507">
        <ele>1841</ele>
        <time>2026-08-19T08:23:48.344Z</time>
      </trkpt>
      <trkpt lat="45.92859" lon="6.35509">
        <ele>1841</ele>
        <time>2026-08-19T08:23:49.344Z</time>
      </trkpt>
      <trkpt lat="45.92858" lon="6.3551">
        <ele>1841</ele>
        <time>2026-08-19T08:23:50.344Z</time>
      </trkpt>
      <trkpt lat="45.92858" lon="6.35512">
        <ele>1840</ele>
        <time>2026-08-19T08:23:51.344Z</time>
      </trkpt>
      <trkpt lat="45.92858" lon="6.35513">
        <ele>1840</ele>
        <time>2026-08-19T08:23:52.344Z</time>
      </trkpt>
      <trkpt lat="45.92858" lon="6.35514">
        <ele>1839</ele>
        <time>2026-08-19T08:23:53.344Z</time>
      </trkpt>
      <trkpt lat="45.92857" lon="6.35515">
        <ele>1839</ele>
        <time>2026-08-19T08:23:54.344Z</time>
      </trkpt>
      <trkpt lat="45.92857" lon="6.35516">
        <ele>1838</ele>
        <time>2026-08-19T08:23:55.345Z</time>
      </trkpt>
      <trkpt lat="45.92857" lon="6.35517">
        <ele>1838</ele>
        <time>2026-08-19T08:23:56.344Z</time>
      </trkpt>
      <trkpt lat="45.92856" lon="6.35517">
        <ele>1838</ele>
        <time>2026-08-19T08:23:57.345Z</time>
      </trkpt>
      <trkpt lat="45.92856" lon="6.35518">
        <ele>1838</ele>
        <time>2026-08-19T08:23:58.344Z</time>
      </trkpt>
      <trkpt lat="45.92855" lon="6.35519">
        <ele>1838</ele>
        <time>2026-08-19T08:23:59.344Z</time>
      </trkpt>
      <trkpt lat="45.92854" lon="6.3552">
        <ele>1838</ele>
        <time>2026-08-19T08:24:00.344Z</time>
      </trkpt>
      <trkpt lat="45.92853" lon="6.35521">
        <ele>1837</ele>
        <time>2026-08-19T08:24:01.344Z</time>
      </trkpt>
      <trkpt lat="45.92853" lon="6.35522">
        <ele>1837</ele>
        <time>2026-08-19T08:24:02.344Z</time>
      </trkpt>
      <trkpt lat="45.92852" lon="6.35523">
        <ele>1837</ele>
        <time>2026-08-19T08:24:03.344Z</time>
      </trkpt>
      <trkpt lat="45.92852" lon="6.35524">
        <ele>1837</ele>
        <time>2026-08-19T08:24:04.344Z</time>
      </trkpt>
      <trkpt lat="45.92851" lon="6.35526">
        <ele>1836</ele>
        <time>2026-08-19T08:24:05.344Z</time>
      </trkpt>
      <trkpt lat="45.92851" lon="6.35527">
        <ele>1836</ele>
        <time>2026-08-19T08:24:06.344Z</time>
      </trkpt>
      <trkpt lat="45.92851" lon="6.35529">
        <ele>1836</ele>
        <time>2026-08-19T08:24:07.344Z</time>
      </trkpt>
      <trkpt lat="45.92851" lon="6.35531">
        <ele>1835</ele>
        <time>2026-08-19T08:24:08.344Z</time>
      </trkpt>
      <trkpt lat="45.92851" lon="6.35532">
        <ele>1835</ele>
        <time>2026-08-19T08:24:09.344Z</time>
      </trkpt>
      <trkpt lat="45.92851" lon="6.35534">
        <ele>1834</ele>
        <time>2026-08-19T08:24:10.344Z</time>
      </trkpt>
      <trkpt lat="45.92851" lon="6.35536">
        <ele>1834</ele>
        <time>2026-08-19T08:24:11.344Z</time>
      </trkpt>
      <trkpt lat="45.92851" lon="6.35537">
        <ele>1833</ele>
        <time>2026-08-19T08:24:12.344Z</time>
      </trkpt>
      <trkpt lat="45.92851" lon="6.35538">
        <ele>1833</ele>
        <time>2026-08-19T08:24:13.344Z</time>
      </trkpt>
      <trkpt lat="45.9285" lon="6.35539">
        <ele>1833</ele>
        <time>2026-08-19T08:24:14.344Z</time>
      </trkpt>
      <trkpt lat="45.9285" lon="6.35539">
        <ele>1832</ele>
        <time>2026-08-19T08:24:15.344Z</time>
      </trkpt>
      <trkpt lat="45.9285" lon="6.3554">
        <ele>1832</ele>
        <time>2026-08-19T08:24:16.344Z</time>
      </trkpt>
      <trkpt lat="45.9285" lon="6.35541">
        <ele>1831</ele>
        <time>2026-08-19T08:24:17.344Z</time>
      </trkpt>
      <trkpt lat="45.92849" lon="6.35542">
        <ele>1831</ele>
        <time>2026-08-19T08:24:18.344Z</time>
      </trkpt>
      <trkpt lat="45.92849" lon="6.35542">
        <ele>1831</ele>
        <time>2026-08-19T08:24:19.344Z</time>
      </trkpt>
      <trkpt lat="45.92848" lon="6.35542">
        <ele>1830</ele>
        <time>2026-08-19T08:24:20.344Z</time>
      </trkpt>
      <trkpt lat="45.92847" lon="6.35542">
        <ele>1830</ele>
        <time>2026-08-19T08:24:21.344Z</time>
      </trkpt>
      <trkpt lat="45.92847" lon="6.35542">
        <ele>1830</ele>
        <time>2026-08-19T08:24:22.344Z</time>
      </trkpt>
      <trkpt lat="45.92846" lon="6.35542">
        <ele>1829</ele>
        <time>2026-08-19T08:24:23.344Z</time>
      </trkpt>
      <trkpt lat="45.92846" lon="6.35543">
        <ele>1829</ele>
        <time>2026-08-19T08:24:24.344Z</time>
      </trkpt>
      <trkpt lat="45.92846" lon="6.35544">
        <ele>1829</ele>
        <time>2026-08-19T08:24:25.344Z</time>
      </trkpt>
      <trkpt lat="45.92846" lon="6.35546">
        <ele>1828</ele>
        <time>2026-08-19T08:24:26.344Z</time>
      </trkpt>
      <trkpt lat="45.92845" lon="6.35547">
        <ele>1828</ele>
        <time>2026-08-19T08:24:27.344Z</time>
      </trkpt>
      <trkpt lat="45.92845" lon="6.35547">
        <ele>1827</ele>
        <time>2026-08-19T08:24:28.344Z</time>
      </trkpt>
      <trkpt lat="45.92844" lon="6.35547">
        <ele>1827</ele>
        <time>2026-08-19T08:24:29.344Z</time>
      </trkpt>
      <trkpt lat="45.92843" lon="6.35546">
        <ele>1827</ele>
        <time>2026-08-19T08:24:30.344Z</time>
      </trkpt>
      <trkpt lat="45.92842" lon="6.35546">
        <ele>1827</ele>
        <time>2026-08-19T08:24:31.344Z</time>
      </trkpt>
      <trkpt lat="45.92842" lon="6.35545">
        <ele>1826</ele>
        <time>2026-08-19T08:24:32.345Z</time>
      </trkpt>
      <trkpt lat="45.92841" lon="6.35545">
        <ele>1826</ele>
        <time>2026-08-19T08:24:33.344Z</time>
      </trkpt>
      <trkpt lat="45.92841" lon="6.35545">
        <ele>1825</ele>
        <time>2026-08-19T08:24:34.344Z</time>
      </trkpt>
      <trkpt lat="45.92841" lon="6.35546">
        <ele>1825</ele>
        <time>2026-08-19T08:24:35.344Z</time>
      </trkpt>
      <trkpt lat="45.9284" lon="6.35547">
        <ele>1825</ele>
        <time>2026-08-19T08:24:36.344Z</time>
      </trkpt>
      <trkpt lat="45.9284" lon="6.35548">
        <ele>1824</ele>
        <time>2026-08-19T08:24:37.344Z</time>
      </trkpt>
      <trkpt lat="45.9284" lon="6.35549">
        <ele>1824</ele>
        <time>2026-08-19T08:24:38.344Z</time>
      </trkpt>
      <trkpt lat="45.9284" lon="6.3555">
        <ele>1824</ele>
        <time>2026-08-19T08:24:39.344Z</time>
      </trkpt>
      <trkpt lat="45.9284" lon="6.35552">
        <ele>1824</ele>
        <time>2026-08-19T08:24:40.344Z</time>
      </trkpt>
      <trkpt lat="45.9284" lon="6.35553">
        <ele>1823</ele>
        <time>2026-08-19T08:24:41.344Z</time>
      </trkpt>
      <trkpt lat="45.9284" lon="6.35554">
        <ele>1823</ele>
        <time>2026-08-19T08:24:42.344Z</time>
      </trkpt>
      <trkpt lat="45.92839" lon="6.35555">
        <ele>1823</ele>
        <time>2026-08-19T08:24:43.344Z</time>
      </trkpt>
      <trkpt lat="45.92839" lon="6.35557">
        <ele>1822</ele>
        <time>2026-08-19T08:24:44.344Z</time>
      </trkpt>
      <trkpt lat="45.92839" lon="6.35558">
        <ele>1821</ele>
        <time>2026-08-19T08:24:45.344Z</time>
      </trkpt>
      <trkpt lat="45.92839" lon="6.35559">
        <ele>1821</ele>
        <time>2026-08-19T08:24:46.344Z</time>
      </trkpt>
      <trkpt lat="45.92839" lon="6.3556">
        <ele>1820</ele>
        <time>2026-08-19T08:24:47.344Z</time>
      </trkpt>
      <trkpt lat="45.92838" lon="6.35561">
        <ele>1820</ele>
        <time>2026-08-19T08:24:48.344Z</time>
      </trkpt>
      <trkpt lat="45.92838" lon="6.35563">
        <ele>1819</ele>
        <time>2026-08-19T08:24:49.344Z</time>
      </trkpt>
      <trkpt lat="45.92838" lon="6.35564">
        <ele>1818</ele>
        <time>2026-08-19T08:24:50.344Z</time>
      </trkpt>
      <trkpt lat="45.92838" lon="6.35565">
        <ele>1818</ele>
        <time>2026-08-19T08:24:51.344Z</time>
      </trkpt>
      <trkpt lat="45.92838" lon="6.35566">
        <ele>1818</ele>
        <time>2026-08-19T08:24:52.344Z</time>
      </trkpt>
      <trkpt lat="45.92838" lon="6.35567">
        <ele>1818</ele>
        <time>2026-08-19T08:24:53.344Z</time>
      </trkpt>
      <trkpt lat="45.92837" lon="6.35567">
        <ele>1818</ele>
        <time>2026-08-19T08:24:54.344Z</time>
      </trkpt>
      <trkpt lat="45.92837" lon="6.35567">
        <ele>1818</ele>
        <time>2026-08-19T08:24:55.344Z</time>
      </trkpt>
      <trkpt lat="45.92836" lon="6.35567">
        <ele>1817</ele>
        <time>2026-08-19T08:24:56.344Z</time>
      </trkpt>
      <trkpt lat="45.92835" lon="6.35568">
        <ele>1817</ele>
        <time>2026-08-19T08:24:57.344Z</time>
      </trkpt>
      <trkpt lat="45.92835" lon="6.3557">
        <ele>1817</ele>
        <time>2026-08-19T08:24:58.344Z</time>
      </trkpt>
      <trkpt lat="45.92835" lon="6.35571">
        <ele>1817</ele>
        <time>2026-08-19T08:24:59.344Z</time>
      </trkpt>
      <trkpt lat="45.92835" lon="6.35572">
        <ele>1817</ele>
        <time>2026-08-19T08:25:00.344Z</time>
      </trkpt>
      <trkpt lat="45.92834" lon="6.35574">
        <ele>1816</ele>
        <time>2026-08-19T08:25:01.344Z</time>
      </trkpt>
      <trkpt lat="45.92834" lon="6.35575">
        <ele>1816</ele>
        <time>2026-08-19T08:25:02.344Z</time>
      </trkpt>
      <trkpt lat="45.92833" lon="6.35576">
        <ele>1816</ele>
        <time>2026-08-19T08:25:03.344Z</time>
      </trkpt>
      <trkpt lat="45.92832" lon="6.35576">
        <ele>1815</ele>
        <time>2026-08-19T08:25:04.344Z</time>
      </trkpt>
      <trkpt lat="45.92831" lon="6.35577">
        <ele>1815</ele>
        <time>2026-08-19T08:25:05.344Z</time>
      </trkpt>
      <trkpt lat="45.92831" lon="6.35577">
        <ele>1815</ele>
        <time>2026-08-19T08:25:06.344Z</time>
      </trkpt>
      <trkpt lat="45.9283" lon="6.35579">
        <ele>1815</ele>
        <time>2026-08-19T08:25:07.344Z</time>
      </trkpt>
      <trkpt lat="45.9283" lon="6.3558">
        <ele>1814</ele>
        <time>2026-08-19T08:25:08.344Z</time>
      </trkpt>
      <trkpt lat="45.9283" lon="6.35582">
        <ele>1814</ele>
        <time>2026-08-19T08:25:09.344Z</time>
      </trkpt>
      <trkpt lat="45.9283" lon="6.35583">
        <ele>1814</ele>
        <time>2026-08-19T08:25:10.344Z</time>
      </trkpt>
      <trkpt lat="45.9283" lon="6.35584">
        <ele>1814</ele>
        <time>2026-08-19T08:25:11.344Z</time>
      </trkpt>
      <trkpt lat="45.92829" lon="6.35585">
        <ele>1814</ele>
        <time>2026-08-19T08:25:12.344Z</time>
      </trkpt>
      <trkpt lat="45.92829" lon="6.35586">
        <ele>1813</ele>
        <time>2026-08-19T08:25:13.344Z</time>
      </trkpt>
      <trkpt lat="45.92829" lon="6.35587">
        <ele>1812</ele>
        <time>2026-08-19T08:25:14.344Z</time>
      </trkpt>
      <trkpt lat="45.92829" lon="6.35588">
        <ele>1812</ele>
        <time>2026-08-19T08:25:15.344Z</time>
      </trkpt>
      <trkpt lat="45.92828" lon="6.35589">
        <ele>1811</ele>
        <time>2026-08-19T08:25:16.344Z</time>
      </trkpt>
      <trkpt lat="45.92828" lon="6.3559">
        <ele>1811</ele>
        <time>2026-08-19T08:25:17.344Z</time>
      </trkpt>
      <trkpt lat="45.92827" lon="6.35592">
        <ele>1810</ele>
        <time>2026-08-19T08:25:18.344Z</time>
      </trkpt>
      <trkpt lat="45.92826" lon="6.35592">
        <ele>1810</ele>
        <time>2026-08-19T08:25:19.344Z</time>
      </trkpt>
      <trkpt lat="45.92825" lon="6.35592">
        <ele>1809</ele>
        <time>2026-08-19T08:25:20.344Z</time>
      </trkpt>
      <trkpt lat="45.92824" lon="6.35592">
        <ele>1809</ele>
        <time>2026-08-19T08:25:21.344Z</time>
      </trkpt>
      <trkpt lat="45.92823" lon="6.35592">
        <ele>1808</ele>
        <time>2026-08-19T08:25:22.344Z</time>
      </trkpt>
      <trkpt lat="45.92823" lon="6.35592">
        <ele>1808</ele>
        <time>2026-08-19T08:25:23.344Z</time>
      </trkpt>
      <trkpt lat="45.92823" lon="6.35593">
        <ele>1808</ele>
        <time>2026-08-19T08:25:24.344Z</time>
      </trkpt>
      <trkpt lat="45.92822" lon="6.35593">
        <ele>1807</ele>
        <time>2026-08-19T08:25:25.344Z</time>
      </trkpt>
      <trkpt lat="45.92821" lon="6.35593">
        <ele>1807</ele>
        <time>2026-08-19T08:25:26.344Z</time>
      </trkpt>
      <trkpt lat="45.92821" lon="6.35593">
        <ele>1806</ele>
        <time>2026-08-19T08:25:27.344Z</time>
      </trkpt>
      <trkpt lat="45.9282" lon="6.35593">
        <ele>1806</ele>
        <time>2026-08-19T08:25:28.344Z</time>
      </trkpt>
      <trkpt lat="45.92819" lon="6.35592">
        <ele>1806</ele>
        <time>2026-08-19T08:25:29.344Z</time>
      </trkpt>
      <trkpt lat="45.92819" lon="6.35592">
        <ele>1806</ele>
        <time>2026-08-19T08:25:30.344Z</time>
      </trkpt>
      <trkpt lat="45.92818" lon="6.35591">
        <ele>1806</ele>
        <time>2026-08-19T08:25:31.344Z</time>
      </trkpt>
      <trkpt lat="45.92818" lon="6.3559">
        <ele>1805</ele>
        <time>2026-08-19T08:25:32.344Z</time>
      </trkpt>
      <trkpt lat="45.92817" lon="6.3559">
        <ele>1805</ele>
        <time>2026-08-19T08:25:33.344Z</time>
      </trkpt>
      <trkpt lat="45.92817" lon="6.35591">
        <ele>1805</ele>
        <time>2026-08-19T08:25:34.344Z</time>
      </trkpt>
      <trkpt lat="45.92816" lon="6.3559">
        <ele>1804</ele>
        <time>2026-08-19T08:25:35.344Z</time>
      </trkpt>
      <trkpt lat="45.92815" lon="6.3559">
        <ele>1804</ele>
        <time>2026-08-19T08:25:36.344Z</time>
      </trkpt>
      <trkpt lat="45.92815" lon="6.35589">
        <ele>1803</ele>
        <time>2026-08-19T08:25:37.344Z</time>
      </trkpt>
      <trkpt lat="45.92814" lon="6.35588">
        <ele>1802</ele>
        <time>2026-08-19T08:25:38.344Z</time>
      </trkpt>
      <trkpt lat="45.92814" lon="6.35587">
        <ele>1802</ele>
        <time>2026-08-19T08:25:39.344Z</time>
      </trkpt>
      <trkpt lat="45.92814" lon="6.35587">
        <ele>1801</ele>
        <time>2026-08-19T08:25:40.344Z</time>
      </trkpt>
      <trkpt lat="45.92813" lon="6.35587">
        <ele>1801</ele>
        <time>2026-08-19T08:25:41.344Z</time>
      </trkpt>
      <trkpt lat="45.92812" lon="6.35587">
        <ele>1801</ele>
        <time>2026-08-19T08:25:42.344Z</time>
      </trkpt>
      <trkpt lat="45.92812" lon="6.35587">
        <ele>1800</ele>
        <time>2026-08-19T08:25:43.344Z</time>
      </trkpt>
      <trkpt lat="45.92812" lon="6.35587">
        <ele>1800</ele>
        <time>2026-08-19T08:25:44.344Z</time>
      </trkpt>
      <trkpt lat="45.92811" lon="6.35587">
        <ele>1799</ele>
        <time>2026-08-19T08:25:45.345Z</time>
      </trkpt>
      <trkpt lat="45.92811" lon="6.35587">
        <ele>1799</ele>
        <time>2026-08-19T08:25:46.344Z</time>
      </trkpt>
      <trkpt lat="45.9281" lon="6.35588">
        <ele>1799</ele>
        <time>2026-08-19T08:25:47.344Z</time>
      </trkpt>
      <trkpt lat="45.9281" lon="6.35588">
        <ele>1799</ele>
        <time>2026-08-19T08:25:48.344Z</time>
      </trkpt>
      <trkpt lat="45.92809" lon="6.35588">
        <ele>1799</ele>
        <time>2026-08-19T08:25:49.344Z</time>
      </trkpt>
      <trkpt lat="45.92808" lon="6.35587">
        <ele>1799</ele>
        <time>2026-08-19T08:25:50.344Z</time>
      </trkpt>
      <trkpt lat="45.92808" lon="6.35586">
        <ele>1799</ele>
        <time>2026-08-19T08:25:51.344Z</time>
      </trkpt>
      <trkpt lat="45.92807" lon="6.35586">
        <ele>1799</ele>
        <time>2026-08-19T08:25:52.344Z</time>
      </trkpt>
      <trkpt lat="45.92807" lon="6.35586">
        <ele>1799</ele>
        <time>2026-08-19T08:25:53.344Z</time>
      </trkpt>
      <trkpt lat="45.92806" lon="6.35586">
        <ele>1798</ele>
        <time>2026-08-19T08:25:54.344Z</time>
      </trkpt>
      <trkpt lat="45.92806" lon="6.35587">
        <ele>1798</ele>
        <time>2026-08-19T08:25:55.344Z</time>
      </trkpt>
      <trkpt lat="45.92805" lon="6.35588">
        <ele>1798</ele>
        <time>2026-08-19T08:25:56.344Z</time>
      </trkpt>
      <trkpt lat="45.92805" lon="6.35589">
        <ele>1798</ele>
        <time>2026-08-19T08:25:57.344Z</time>
      </trkpt>
      <trkpt lat="45.92805" lon="6.3559">
        <ele>1798</ele>
        <time>2026-08-19T08:25:58.344Z</time>
      </trkpt>
      <trkpt lat="45.92805" lon="6.35592">
        <ele>1797</ele>
        <time>2026-08-19T08:25:59.344Z</time>
      </trkpt>
      <trkpt lat="45.92805" lon="6.35593">
        <ele>1797</ele>
        <time>2026-08-19T08:26:00.344Z</time>
      </trkpt>
      <trkpt lat="45.92805" lon="6.35594">
        <ele>1797</ele>
        <time>2026-08-19T08:26:01.344Z</time>
      </trkpt>
      <trkpt lat="45.92806" lon="6.35596">
        <ele>1796</ele>
        <time>2026-08-19T08:26:02.344Z</time>
      </trkpt>
      <trkpt lat="45.92806" lon="6.35597">
        <ele>1796</ele>
        <time>2026-08-19T08:26:03.344Z</time>
      </trkpt>
      <trkpt lat="45.92806" lon="6.35598">
        <ele>1795</ele>
        <time>2026-08-19T08:26:04.344Z</time>
      </trkpt>
      <trkpt lat="45.92806" lon="6.35599">
        <ele>1795</ele>
        <time>2026-08-19T08:26:05.344Z</time>
      </trkpt>
      <trkpt lat="45.92805" lon="6.356">
        <ele>1795</ele>
        <time>2026-08-19T08:26:06.344Z</time>
      </trkpt>
      <trkpt lat="45.92804" lon="6.35601">
        <ele>1794</ele>
        <time>2026-08-19T08:26:07.344Z</time>
      </trkpt>
      <trkpt lat="45.92803" lon="6.35601">
        <ele>1794</ele>
        <time>2026-08-19T08:26:08.344Z</time>
      </trkpt>
      <trkpt lat="45.92802" lon="6.35601">
        <ele>1794</ele>
        <time>2026-08-19T08:26:09.344Z</time>
      </trkpt>
      <trkpt lat="45.92801" lon="6.356">
        <ele>1793</ele>
        <time>2026-08-19T08:26:10.344Z</time>
      </trkpt>
      <trkpt lat="45.928" lon="6.356">
        <ele>1793</ele>
        <time>2026-08-19T08:26:11.344Z</time>
      </trkpt>
      <trkpt lat="45.92799" lon="6.35599">
        <ele>1793</ele>
        <time>2026-08-19T08:26:12.344Z</time>
      </trkpt>
      <trkpt lat="45.92798" lon="6.35599">
        <ele>1792</ele>
        <time>2026-08-19T08:26:13.344Z</time>
      </trkpt>
      <trkpt lat="45.92798" lon="6.35599">
        <ele>1792</ele>
        <time>2026-08-19T08:26:14.344Z</time>
      </trkpt>
      <trkpt lat="45.92798" lon="6.356">
        <ele>1792</ele>
        <time>2026-08-19T08:26:15.345Z</time>
      </trkpt>
      <trkpt lat="45.92798" lon="6.35601">
        <ele>1791</ele>
        <time>2026-08-19T08:26:16.344Z</time>
      </trkpt>
      <trkpt lat="45.92798" lon="6.35603">
        <ele>1791</ele>
        <time>2026-08-19T08:26:17.344Z</time>
      </trkpt>
      <trkpt lat="45.92799" lon="6.35604">
        <ele>1791</ele>
        <time>2026-08-19T08:26:18.344Z</time>
      </trkpt>
      <trkpt lat="45.92799" lon="6.35606">
        <ele>1791</ele>
        <time>2026-08-19T08:26:19.344Z</time>
      </trkpt>
      <trkpt lat="45.92799" lon="6.35608">
        <ele>1790</ele>
        <time>2026-08-19T08:26:20.344Z</time>
      </trkpt>
      <trkpt lat="45.92798" lon="6.35609">
        <ele>1790</ele>
        <time>2026-08-19T08:26:21.344Z</time>
      </trkpt>
      <trkpt lat="45.92798" lon="6.3561">
        <ele>1789</ele>
        <time>2026-08-19T08:26:22.344Z</time>
      </trkpt>
      <trkpt lat="45.92797" lon="6.35611">
        <ele>1789</ele>
        <time>2026-08-19T08:26:23.344Z</time>
      </trkpt>
      <trkpt lat="45.92796" lon="6.35611">
        <ele>1788</ele>
        <time>2026-08-19T08:26:24.344Z</time>
      </trkpt>
      <trkpt lat="45.92795" lon="6.35611">
        <ele>1788</ele>
        <time>2026-08-19T08:26:25.344Z</time>
      </trkpt>
      <trkpt lat="45.92794" lon="6.35611">
        <ele>1787</ele>
        <time>2026-08-19T08:26:26.345Z</time>
      </trkpt>
      <trkpt lat="45.92794" lon="6.35611">
        <ele>1787</ele>
        <time>2026-08-19T08:26:27.344Z</time>
      </trkpt>
      <trkpt lat="45.92794" lon="6.35612">
        <ele>1787</ele>
        <time>2026-08-19T08:26:28.344Z</time>
      </trkpt>
      <trkpt lat="45.92794" lon="6.35614">
        <ele>1786</ele>
        <time>2026-08-19T08:26:29.344Z</time>
      </trkpt>
      <trkpt lat="45.92794" lon="6.35615">
        <ele>1786</ele>
        <time>2026-08-19T08:26:30.344Z</time>
      </trkpt>
      <trkpt lat="45.92794" lon="6.35616">
        <ele>1785</ele>
        <time>2026-08-19T08:26:31.344Z</time>
      </trkpt>
      <trkpt lat="45.92794" lon="6.35618">
        <ele>1785</ele>
        <time>2026-08-19T08:26:32.344Z</time>
      </trkpt>
      <trkpt lat="45.92793" lon="6.35619">
        <ele>1785</ele>
        <time>2026-08-19T08:26:33.344Z</time>
      </trkpt>
      <trkpt lat="45.92793" lon="6.3562">
        <ele>1784</ele>
        <time>2026-08-19T08:26:34.344Z</time>
      </trkpt>
      <trkpt lat="45.92792" lon="6.3562">
        <ele>1784</ele>
        <time>2026-08-19T08:26:35.344Z</time>
      </trkpt>
      <trkpt lat="45.92791" lon="6.35621">
        <ele>1784</ele>
        <time>2026-08-19T08:26:36.344Z</time>
      </trkpt>
      <trkpt lat="45.9279" lon="6.35621">
        <ele>1783</ele>
        <time>2026-08-19T08:26:37.345Z</time>
      </trkpt>
      <trkpt lat="45.92789" lon="6.35621">
        <ele>1783</ele>
        <time>2026-08-19T08:26:38.344Z</time>
      </trkpt>
      <trkpt lat="45.92789" lon="6.3562">
        <ele>1782</ele>
        <time>2026-08-19T08:26:39.344Z</time>
      </trkpt>
      <trkpt lat="45.92788" lon="6.3562">
        <ele>1782</ele>
        <time>2026-08-19T08:26:40.344Z</time>
      </trkpt>
      <trkpt lat="45.92787" lon="6.3562">
        <ele>1781</ele>
        <time>2026-08-19T08:26:41.344Z</time>
      </trkpt>
      <trkpt lat="45.92786" lon="6.3562">
        <ele>1781</ele>
        <time>2026-08-19T08:26:42.344Z</time>
      </trkpt>
      <trkpt lat="45.92785" lon="6.3562">
        <ele>1780</ele>
        <time>2026-08-19T08:26:43.344Z</time>
      </trkpt>
      <trkpt lat="45.92784" lon="6.3562">
        <ele>1779</ele>
        <time>2026-08-19T08:26:44.344Z</time>
      </trkpt>
      <trkpt lat="45.92783" lon="6.3562">
        <ele>1779</ele>
        <time>2026-08-19T08:26:45.344Z</time>
      </trkpt>
      <trkpt lat="45.92782" lon="6.3562">
        <ele>1778</ele>
        <time>2026-08-19T08:26:46.344Z</time>
      </trkpt>
      <trkpt lat="45.92781" lon="6.35619">
        <ele>1777</ele>
        <time>2026-08-19T08:26:47.344Z</time>
      </trkpt>
      <trkpt lat="45.92781" lon="6.3562">
        <ele>1777</ele>
        <time>2026-08-19T08:26:48.344Z</time>
      </trkpt>
      <trkpt lat="45.92781" lon="6.3562">
        <ele>1776</ele>
        <time>2026-08-19T08:26:49.344Z</time>
      </trkpt>
      <trkpt lat="45.9278" lon="6.3562">
        <ele>1776</ele>
        <time>2026-08-19T08:26:50.344Z</time>
      </trkpt>
      <trkpt lat="45.9278" lon="6.35621">
        <ele>1776</ele>
        <time>2026-08-19T08:26:51.344Z</time>
      </trkpt>
      <trkpt lat="45.9278" lon="6.35621">
        <ele>1776</ele>
        <time>2026-08-19T08:26:52.344Z</time>
      </trkpt>
      <trkpt lat="45.92781" lon="6.35621">
        <ele>1776</ele>
        <time>2026-08-19T08:26:53.344Z</time>
      </trkpt>
      <trkpt lat="45.92781" lon="6.35622">
        <ele>1776</ele>
        <time>2026-08-19T08:26:54.344Z</time>
      </trkpt>
      <trkpt lat="45.92781" lon="6.35622">
        <ele>1776</ele>
        <time>2026-08-19T08:26:55.344Z</time>
      </trkpt>
      <trkpt lat="45.92781" lon="6.35623">
        <ele>1775</ele>
        <time>2026-08-19T08:26:56.344Z</time>
      </trkpt>
      <trkpt lat="45.92781" lon="6.35624">
        <ele>1775</ele>
        <time>2026-08-19T08:26:57.344Z</time>
      </trkpt>
      <trkpt lat="45.92781" lon="6.35625">
        <ele>1775</ele>
        <time>2026-08-19T08:26:58.344Z</time>
      </trkpt>
      <trkpt lat="45.92782" lon="6.35626">
        <ele>1775</ele>
        <time>2026-08-19T08:26:59.344Z</time>
      </trkpt>
      <trkpt lat="45.92782" lon="6.35627">
        <ele>1775</ele>
        <time>2026-08-19T08:27:00.344Z</time>
      </trkpt>
      <trkpt lat="45.92782" lon="6.35629">
        <ele>1775</ele>
        <time>2026-08-19T08:27:01.344Z</time>
      </trkpt>
      <trkpt lat="45.92783" lon="6.3563">
        <ele>1774</ele>
        <time>2026-08-19T08:27:02.344Z</time>
      </trkpt>
      <trkpt lat="45.92783" lon="6.35631">
        <ele>1774</ele>
        <time>2026-08-19T08:27:03.344Z</time>
      </trkpt>
      <trkpt lat="45.92783" lon="6.35633">
        <ele>1774</ele>
        <time>2026-08-19T08:27:04.344Z</time>
      </trkpt>
      <trkpt lat="45.92782" lon="6.35633">
        <ele>1773</ele>
        <time>2026-08-19T08:27:05.344Z</time>
      </trkpt>
      <trkpt lat="45.92781" lon="6.35634">
        <ele>1773</ele>
        <time>2026-08-19T08:27:06.344Z</time>
      </trkpt>
      <trkpt lat="45.92781" lon="6.35634">
        <ele>1773</ele>
        <time>2026-08-19T08:27:07.345Z</time>
      </trkpt>
      <trkpt lat="45.92781" lon="6.35635">
        <ele>1773</ele>
        <time>2026-08-19T08:27:08.344Z</time>
      </trkpt>
      <trkpt lat="45.92781" lon="6.35636">
        <ele>1772</ele>
        <time>2026-08-19T08:27:09.344Z</time>
      </trkpt>
      <trkpt lat="45.92781" lon="6.35637">
        <ele>1772</ele>
        <time>2026-08-19T08:27:10.344Z</time>
      </trkpt>
      <trkpt lat="45.9278" lon="6.35639">
        <ele>1772</ele>
        <time>2026-08-19T08:27:11.344Z</time>
      </trkpt>
      <trkpt lat="45.9278" lon="6.3564">
        <ele>1772</ele>
        <time>2026-08-19T08:27:12.344Z</time>
      </trkpt>
      <trkpt lat="45.9278" lon="6.35641">
        <ele>1771</ele>
        <time>2026-08-19T08:27:13.344Z</time>
      </trkpt>
      <trkpt lat="45.9278" lon="6.35642">
        <ele>1771</ele>
        <time>2026-08-19T08:27:14.344Z</time>
      </trkpt>
      <trkpt lat="45.92779" lon="6.35643">
        <ele>1770</ele>
        <time>2026-08-19T08:27:15.344Z</time>
      </trkpt>
      <trkpt lat="45.92779" lon="6.35643">
        <ele>1770</ele>
        <time>2026-08-19T08:27:16.344Z</time>
      </trkpt>
      <trkpt lat="45.92779" lon="6.35643">
        <ele>1770</ele>
        <time>2026-08-19T08:27:17.344Z</time>
      </trkpt>
      <trkpt lat="45.92779" lon="6.35643">
        <ele>1769</ele>
        <time>2026-08-19T08:27:18.344Z</time>
      </trkpt>
      <trkpt lat="45.92779" lon="6.35643">
        <ele>1769</ele>
        <time>2026-08-19T08:27:19.344Z</time>
      </trkpt>
      <trkpt lat="45.92779" lon="6.35643">
        <ele>1769</ele>
        <time>2026-08-19T08:27:20.344Z</time>
      </trkpt>
      <trkpt lat="45.92779" lon="6.35643">
        <ele>1768</ele>
        <time>2026-08-19T08:27:21.344Z</time>
      </trkpt>
      <trkpt lat="45.92779" lon="6.35643">
        <ele>1768</ele>
        <time>2026-08-19T08:27:22.344Z</time>
      </trkpt>
      <trkpt lat="45.92779" lon="6.35643">
        <ele>1768</ele>
        <time>2026-08-19T08:27:23.344Z</time>
      </trkpt>
      <trkpt lat="45.92779" lon="6.35643">
        <ele>1768</ele>
        <time>2026-08-19T08:27:24.344Z</time>
      </trkpt>
      <trkpt lat="45.92779" lon="6.35643">
        <ele>1768</ele>
        <time>2026-08-19T08:27:25.344Z</time>
      </trkpt>
      <trkpt lat="45.92779" lon="6.35643">
        <ele>1768</ele>
        <time>2026-08-19T08:27:26.344Z</time>
      </trkpt>
      <trkpt lat="45.92779" lon="6.35643">
        <ele>1768</ele>
        <time>2026-08-19T08:27:27.344Z</time>
      </trkpt>
      <trkpt lat="45.92779" lon="6.35643">
        <ele>1768</ele>
        <time>2026-08-19T08:27:28.344Z</time>
      </trkpt>
      <trkpt lat="45.92779" lon="6.35643">
        <ele>1769</ele>
        <time>2026-08-19T08:27:29.344Z</time>
      </trkpt>
      <trkpt lat="45.92779" lon="6.35643">
        <ele>1769</ele>
        <time>2026-08-19T08:27:30.344Z</time>
      </trkpt>
      <trkpt lat="45.92779" lon="6.35643">
        <ele>1769</ele>
        <time>2026-08-19T08:27:31.344Z</time>
      </trkpt>
      <trkpt lat="45.92779" lon="6.35643">
        <ele>1769</ele>
        <time>2026-08-19T08:27:32.344Z</time>
      </trkpt>
      <trkpt lat="45.92779" lon="6.35643">
        <ele>1770</ele>
        <time>2026-08-19T08:27:33.344Z</time>
      </trkpt>
      <trkpt lat="45.92779" lon="6.35643">
        <ele>1770</ele>
        <time>2026-08-19T08:27:34.344Z</time>
      </trkpt>
      <trkpt lat="45.92779" lon="6.35644">
        <ele>1770</ele>
        <time>2026-08-19T08:27:35.344Z</time>
      </trkpt>
      <trkpt lat="45.92778" lon="6.35644">
        <ele>1770</ele>
        <time>2026-08-19T08:27:36.344Z</time>
      </trkpt>
      <trkpt lat="45.92776" lon="6.35645">
        <ele>1770</ele>
        <time>2026-08-19T08:27:37.344Z</time>
      </trkpt>
      <trkpt lat="45.92774" lon="6.35645">
        <ele>1769</ele>
        <time>2026-08-19T08:27:38.344Z</time>
      </trkpt>
      <trkpt lat="45.92773" lon="6.35644">
        <ele>1768</ele>
        <time>2026-08-19T08:27:39.344Z</time>
      </trkpt>
      <trkpt lat="45.92772" lon="6.35644">
        <ele>1768</ele>
        <time>2026-08-19T08:27:40.344Z</time>
      </trkpt>
      <trkpt lat="45.9277" lon="6.35644">
        <ele>1767</ele>
        <time>2026-08-19T08:27:41.344Z</time>
      </trkpt>
      <trkpt lat="45.92769" lon="6.35644">
        <ele>1767</ele>
        <time>2026-08-19T08:27:42.345Z</time>
      </trkpt>
      <trkpt lat="45.92768" lon="6.35643">
        <ele>1766</ele>
        <time>2026-08-19T08:27:43.344Z</time>
      </trkpt>
      <trkpt lat="45.92767" lon="6.35644">
        <ele>1766</ele>
        <time>2026-08-19T08:27:44.344Z</time>
      </trkpt>
      <trkpt lat="45.92767" lon="6.35644">
        <ele>1766</ele>
        <time>2026-08-19T08:27:45.344Z</time>
      </trkpt>
      <trkpt lat="45.92766" lon="6.35643">
        <ele>1766</ele>
        <time>2026-08-19T08:27:46.344Z</time>
      </trkpt>
      <trkpt lat="45.92766" lon="6.35643">
        <ele>1766</ele>
        <time>2026-08-19T08:27:47.344Z</time>
      </trkpt>
      <trkpt lat="45.92765" lon="6.35643">
        <ele>1765</ele>
        <time>2026-08-19T08:27:48.344Z</time>
      </trkpt>
      <trkpt lat="45.92764" lon="6.35643">
        <ele>1765</ele>
        <time>2026-08-19T08:27:49.344Z</time>
      </trkpt>
      <trkpt lat="45.92763" lon="6.35643">
        <ele>1764</ele>
        <time>2026-08-19T08:27:50.344Z</time>
      </trkpt>
      <trkpt lat="45.92762" lon="6.35643">
        <ele>1764</ele>
        <time>2026-08-19T08:27:51.344Z</time>
      </trkpt>
      <trkpt lat="45.92761" lon="6.35643">
        <ele>1763</ele>
        <time>2026-08-19T08:27:52.344Z</time>
      </trkpt>
      <trkpt lat="45.9276" lon="6.35643">
        <ele>1763</ele>
        <time>2026-08-19T08:27:53.344Z</time>
      </trkpt>
      <trkpt lat="45.92759" lon="6.35643">
        <ele>1762</ele>
        <time>2026-08-19T08:27:54.344Z</time>
      </trkpt>
      <trkpt lat="45.92758" lon="6.35643">
        <ele>1762</ele>
        <time>2026-08-19T08:27:55.344Z</time>
      </trkpt>
      <trkpt lat="45.92757" lon="6.35643">
        <ele>1761</ele>
        <time>2026-08-19T08:27:56.345Z</time>
      </trkpt>
      <trkpt lat="45.92757" lon="6.35643">
        <ele>1761</ele>
        <time>2026-08-19T08:27:57.345Z</time>
      </trkpt>
      <trkpt lat="45.92756" lon="6.35642">
        <ele>1761</ele>
        <time>2026-08-19T08:27:58.344Z</time>
      </trkpt>
      <trkpt lat="45.92756" lon="6.35642">
        <ele>1760</ele>
        <time>2026-08-19T08:27:59.344Z</time>
      </trkpt>
      <trkpt lat="45.92755" lon="6.35642">
        <ele>1760</ele>
        <time>2026-08-19T08:28:00.344Z</time>
      </trkpt>
      <trkpt lat="45.92755" lon="6.35642">
        <ele>1759</ele>
        <time>2026-08-19T08:28:01.344Z</time>
      </trkpt>
      <trkpt lat="45.92754" lon="6.35642">
        <ele>1759</ele>
        <time>2026-08-19T08:28:02.344Z</time>
      </trkpt>
      <trkpt lat="45.92753" lon="6.35642">
        <ele>1759</ele>
        <time>2026-08-19T08:28:03.344Z</time>
      </trkpt>
      <trkpt lat="45.92752" lon="6.35642">
        <ele>1759</ele>
        <time>2026-08-19T08:28:04.344Z</time>
      </trkpt>
      <trkpt lat="45.92751" lon="6.35642">
        <ele>1759</ele>
        <time>2026-08-19T08:28:05.344Z</time>
      </trkpt>
      <trkpt lat="45.9275" lon="6.35642">
        <ele>1759</ele>
        <time>2026-08-19T08:28:06.344Z</time>
      </trkpt>
      <trkpt lat="45.92748" lon="6.35642">
        <ele>1758</ele>
        <time>2026-08-19T08:28:07.344Z</time>
      </trkpt>
      <trkpt lat="45.92747" lon="6.35641">
        <ele>1758</ele>
        <time>2026-08-19T08:28:08.344Z</time>
      </trkpt>
      <trkpt lat="45.92746" lon="6.35641">
        <ele>1758</ele>
        <time>2026-08-19T08:28:09.344Z</time>
      </trkpt>
      <trkpt lat="45.92745" lon="6.3564">
        <ele>1758</ele>
        <time>2026-08-19T08:28:10.344Z</time>
      </trkpt>
      <trkpt lat="45.92744" lon="6.3564">
        <ele>1758</ele>
        <time>2026-08-19T08:28:11.344Z</time>
      </trkpt>
      <trkpt lat="45.92742" lon="6.3564">
        <ele>1757</ele>
        <time>2026-08-19T08:28:12.344Z</time>
      </trkpt>
      <trkpt lat="45.92741" lon="6.35639">
        <ele>1757</ele>
        <time>2026-08-19T08:28:13.344Z</time>
      </trkpt>
      <trkpt lat="45.92739" lon="6.35638">
        <ele>1757</ele>
        <time>2026-08-19T08:28:14.344Z</time>
      </trkpt>
      <trkpt lat="45.92738" lon="6.35637">
        <ele>1757</ele>
        <time>2026-08-19T08:28:15.344Z</time>
      </trkpt>
      <trkpt lat="45.92737" lon="6.35636">
        <ele>1757</ele>
        <time>2026-08-19T08:28:16.344Z</time>
      </trkpt>
      <trkpt lat="45.92736" lon="6.35635">
        <ele>1756</ele>
        <time>2026-08-19T08:28:17.344Z</time>
      </trkpt>
      <trkpt lat="45.92736" lon="6.35635">
        <ele>1756</ele>
        <time>2026-08-19T08:28:18.344Z</time>
      </trkpt>
      <trkpt lat="45.92736" lon="6.35634">
        <ele>1756</ele>
        <time>2026-08-19T08:28:19.344Z</time>
      </trkpt>
      <trkpt lat="45.92736" lon="6.35634">
        <ele>1756</ele>
        <time>2026-08-19T08:28:20.344Z</time>
      </trkpt>
      <trkpt lat="45.92736" lon="6.35634">
        <ele>1756</ele>
        <time>2026-08-19T08:28:21.344Z</time>
      </trkpt>
      <trkpt lat="45.92736" lon="6.35634">
        <ele>1756</ele>
        <time>2026-08-19T08:28:22.344Z</time>
      </trkpt>
      <trkpt lat="45.92736" lon="6.35634">
        <ele>1756</ele>
        <time>2026-08-19T08:28:23.344Z</time>
      </trkpt>
      <trkpt lat="45.92736" lon="6.35634">
        <ele>1756</ele>
        <time>2026-08-19T08:28:24.344Z</time>
      </trkpt>
      <trkpt lat="45.92736" lon="6.35634">
        <ele>1756</ele>
        <time>2026-08-19T08:28:25.345Z</time>
      </trkpt>
      <trkpt lat="45.92736" lon="6.35634">
        <ele>1756</ele>
        <time>2026-08-19T08:28:26.344Z</time>
      </trkpt>
      <trkpt lat="45.92736" lon="6.35634">
        <ele>1755</ele>
        <time>2026-08-19T08:28:27.344Z</time>
      </trkpt>
      <trkpt lat="45.92736" lon="6.35634">
        <ele>1755</ele>
        <time>2026-08-19T08:28:28.344Z</time>
      </trkpt>
      <trkpt lat="45.92736" lon="6.35634">
        <ele>1755</ele>
        <time>2026-08-19T08:28:29.344Z</time>
      </trkpt>
      <trkpt lat="45.92736" lon="6.35634">
        <ele>1755</ele>
        <time>2026-08-19T08:28:30.344Z</time>
      </trkpt>
      <trkpt lat="45.92736" lon="6.35634">
        <ele>1755</ele>
        <time>2026-08-19T08:28:31.344Z</time>
      </trkpt>
      <trkpt lat="45.92736" lon="6.35634">
        <ele>1755</ele>
        <time>2026-08-19T08:28:32.344Z</time>
      </trkpt>
      <trkpt lat="45.92736" lon="6.35634">
        <ele>1756</ele>
        <time>2026-08-19T08:28:33.345Z</time>
      </trkpt>
      <trkpt lat="45.92736" lon="6.35634">
        <ele>1756</ele>
        <time>2026-08-19T08:28:34.344Z</time>
      </trkpt>
      <trkpt lat="45.92736" lon="6.35634">
        <ele>1756</ele>
        <time>2026-08-19T08:28:35.344Z</time>
      </trkpt>
      <trkpt lat="45.92736" lon="6.35634">
        <ele>1757</ele>
        <time>2026-08-19T08:28:36.344Z</time>
      </trkpt>
      <trkpt lat="45.92736" lon="6.35634">
        <ele>1757</ele>
        <time>2026-08-19T08:28:37.344Z</time>
      </trkpt>
      <trkpt lat="45.92736" lon="6.35634">
        <ele>1757</ele>
        <time>2026-08-19T08:28:38.344Z</time>
      </trkpt>
      <trkpt lat="45.92736" lon="6.35634">
        <ele>1757</ele>
        <time>2026-08-19T08:28:39.344Z</time>
      </trkpt>
      <trkpt lat="45.92736" lon="6.35634">
        <ele>1757</ele>
        <time>2026-08-19T08:28:40.344Z</time>
      </trkpt>
      <trkpt lat="45.92736" lon="6.35634">
        <ele>1757</ele>
        <time>2026-08-19T08:28:41.345Z</time>
      </trkpt>
      <trkpt lat="45.92736" lon="6.35634">
        <ele>1757</ele>
        <time>2026-08-19T08:28:42.345Z</time>
      </trkpt>
      <trkpt lat="45.92736" lon="6.35634">
        <ele>1758</ele>
        <time>2026-08-19T08:28:43.345Z</time>
      </trkpt>
      <trkpt lat="45.92736" lon="6.35634">
        <ele>1758</ele>
        <time>2026-08-19T08:28:44.344Z</time>
      </trkpt>
      <trkpt lat="45.92736" lon="6.35634">
        <ele>1758</ele>
        <time>2026-08-19T08:28:45.344Z</time>
      </trkpt>
      <trkpt lat="45.92736" lon="6.35634">
        <ele>1758</ele>
        <time>2026-08-19T08:28:46.344Z</time>
      </trkpt>
      <trkpt lat="45.92736" lon="6.35634">
        <ele>1758</ele>
        <time>2026-08-19T08:28:47.344Z</time>
      </trkpt>
      <trkpt lat="45.92736" lon="6.35634">
        <ele>1758</ele>
        <time>2026-08-19T08:28:48.344Z</time>
      </trkpt>
      <trkpt lat="45.92736" lon="6.35634">
        <ele>1758</ele>
        <time>2026-08-19T08:28:49.344Z</time>
      </trkpt>
      <trkpt lat="45.92736" lon="6.35634">
        <ele>1758</ele>
        <time>2026-08-19T08:28:50.344Z</time>
      </trkpt>
      <trkpt lat="45.92735" lon="6.35634">
        <ele>1758</ele>
        <time>2026-08-19T08:28:51.344Z</time>
      </trkpt>
      <trkpt lat="45.92733" lon="6.35633">
        <ele>1758</ele>
        <time>2026-08-19T08:28:52.344Z</time>
      </trkpt>
      <trkpt lat="45.92731" lon="6.35633">
        <ele>1758</ele>
        <time>2026-08-19T08:28:53.344Z</time>
      </trkpt>
      <trkpt lat="45.92728" lon="6.35632">
        <ele>1758</ele>
        <time>2026-08-19T08:28:54.344Z</time>
      </trkpt>
      <trkpt lat="45.92726" lon="6.35632">
        <ele>1758</ele>
        <time>2026-08-19T08:28:55.344Z</time>
      </trkpt>
      <trkpt lat="45.92724" lon="6.35631">
        <ele>1758</ele>
        <time>2026-08-19T08:28:56.344Z</time>
      </trkpt>
      <trkpt lat="45.92721" lon="6.35631">
        <ele>1758</ele>
        <time>2026-08-19T08:28:57.344Z</time>
      </trkpt>
      <trkpt lat="45.92719" lon="6.35631">
        <ele>1757</ele>
        <time>2026-08-19T08:28:58.344Z</time>
      </trkpt>
      <trkpt lat="45.92716" lon="6.35631">
        <ele>1757</ele>
        <time>2026-08-19T08:28:59.345Z</time>
      </trkpt>
      <trkpt lat="45.92713" lon="6.35631">
        <ele>1756</ele>
        <time>2026-08-19T08:29:00.344Z</time>
      </trkpt>
      <trkpt lat="45.92711" lon="6.35631">
        <ele>1755</ele>
        <time>2026-08-19T08:29:01.344Z</time>
      </trkpt>
      <trkpt lat="45.9271" lon="6.35631">
        <ele>1755</ele>
        <time>2026-08-19T08:29:02.344Z</time>
      </trkpt>
      <trkpt lat="45.92708" lon="6.35631">
        <ele>1754</ele>
        <time>2026-08-19T08:29:03.344Z</time>
      </trkpt>
      <trkpt lat="45.92706" lon="6.3563">
        <ele>1754</ele>
        <time>2026-08-19T08:29:04.344Z</time>
      </trkpt>
      <trkpt lat="45.92704" lon="6.3563">
        <ele>1753</ele>
        <time>2026-08-19T08:29:05.344Z</time>
      </trkpt>
      <trkpt lat="45.92703" lon="6.3563">
        <ele>1753</ele>
        <time>2026-08-19T08:29:06.344Z</time>
      </trkpt>
      <trkpt lat="45.92701" lon="6.35629">
        <ele>1753</ele>
        <time>2026-08-19T08:29:07.344Z</time>
      </trkpt>
      <trkpt lat="45.927" lon="6.35629">
        <ele>1753</ele>
        <time>2026-08-19T08:29:08.344Z</time>
      </trkpt>
      <trkpt lat="45.92699" lon="6.35628">
        <ele>1753</ele>
        <time>2026-08-19T08:29:09.344Z</time>
      </trkpt>
      <trkpt lat="45.92697" lon="6.35628">
        <ele>1752</ele>
        <time>2026-08-19T08:29:10.344Z</time>
      </trkpt>
      <trkpt lat="45.92696" lon="6.35629">
        <ele>1752</ele>
        <time>2026-08-19T08:29:11.344Z</time>
      </trkpt>
      <trkpt lat="45.92695" lon="6.35629">
        <ele>1751</ele>
        <time>2026-08-19T08:29:12.344Z</time>
      </trkpt>
      <trkpt lat="45.92694" lon="6.35629">
        <ele>1751</ele>
        <time>2026-08-19T08:29:13.344Z</time>
      </trkpt>
      <trkpt lat="45.92693" lon="6.35629">
        <ele>1751</ele>
        <time>2026-08-19T08:29:14.344Z</time>
      </trkpt>
      <trkpt lat="45.92692" lon="6.35629">
        <ele>1751</ele>
        <time>2026-08-19T08:29:15.344Z</time>
      </trkpt>
      <trkpt lat="45.92692" lon="6.35629">
        <ele>1750</ele>
        <time>2026-08-19T08:29:16.344Z</time>
      </trkpt>
      <trkpt lat="45.92691" lon="6.35629">
        <ele>1749</ele>
        <time>2026-08-19T08:29:17.344Z</time>
      </trkpt>
      <trkpt lat="45.9269" lon="6.3563">
        <ele>1749</ele>
        <time>2026-08-19T08:29:18.344Z</time>
      </trkpt>
      <trkpt lat="45.9269" lon="6.3563">
        <ele>1749</ele>
        <time>2026-08-19T08:29:19.344Z</time>
      </trkpt>
      <trkpt lat="45.92689" lon="6.35631">
        <ele>1748</ele>
        <time>2026-08-19T08:29:20.344Z</time>
      </trkpt>
      <trkpt lat="45.92689" lon="6.35631">
        <ele>1748</ele>
        <time>2026-08-19T08:29:21.344Z</time>
      </trkpt>
      <trkpt lat="45.92688" lon="6.35632">
        <ele>1748</ele>
        <time>2026-08-19T08:29:22.344Z</time>
      </trkpt>
      <trkpt lat="45.92687" lon="6.35632">
        <ele>1747</ele>
        <time>2026-08-19T08:29:23.344Z</time>
      </trkpt>
      <trkpt lat="45.92687" lon="6.35633">
        <ele>1747</ele>
        <time>2026-08-19T08:29:24.344Z</time>
      </trkpt>
      <trkpt lat="45.92686" lon="6.35633">
        <ele>1747</ele>
        <time>2026-08-19T08:29:25.344Z</time>
      </trkpt>
      <trkpt lat="45.92686" lon="6.35634">
        <ele>1747</ele>
        <time>2026-08-19T08:29:26.344Z</time>
      </trkpt>
      <trkpt lat="45.92685" lon="6.35634">
        <ele>1746</ele>
        <time>2026-08-19T08:29:27.344Z</time>
      </trkpt>
      <trkpt lat="45.92684" lon="6.35634">
        <ele>1746</ele>
        <time>2026-08-19T08:29:28.344Z</time>
      </trkpt>
      <trkpt lat="45.92684" lon="6.35634">
        <ele>1745</ele>
        <time>2026-08-19T08:29:29.344Z</time>
      </trkpt>
      <trkpt lat="45.92683" lon="6.35634">
        <ele>1745</ele>
        <time>2026-08-19T08:29:30.344Z</time>
      </trkpt>
      <trkpt lat="45.92683" lon="6.35634">
        <ele>1745</ele>
        <time>2026-08-19T08:29:31.344Z</time>
      </trkpt>
      <trkpt lat="45.92682" lon="6.35634">
        <ele>1745</ele>
        <time>2026-08-19T08:29:32.344Z</time>
      </trkpt>
      <trkpt lat="45.92681" lon="6.35634">
        <ele>1744</ele>
        <time>2026-08-19T08:29:33.345Z</time>
      </trkpt>
      <trkpt lat="45.9268" lon="6.35634">
        <ele>1744</ele>
        <time>2026-08-19T08:29:34.344Z</time>
      </trkpt>
      <trkpt lat="45.92679" lon="6.35633">
        <ele>1743</ele>
        <time>2026-08-19T08:29:35.344Z</time>
      </trkpt>
      <trkpt lat="45.92678" lon="6.35633">
        <ele>1743</ele>
        <time>2026-08-19T08:29:36.344Z</time>
      </trkpt>
      <trkpt lat="45.92677" lon="6.35633">
        <ele>1742</ele>
        <time>2026-08-19T08:29:37.344Z</time>
      </trkpt>
      <trkpt lat="45.92677" lon="6.35633">
        <ele>1742</ele>
        <time>2026-08-19T08:29:38.344Z</time>
      </trkpt>
      <trkpt lat="45.92676" lon="6.35633">
        <ele>1741</ele>
        <time>2026-08-19T08:29:39.344Z</time>
      </trkpt>
      <trkpt lat="45.92676" lon="6.35633">
        <ele>1741</ele>
        <time>2026-08-19T08:29:40.344Z</time>
      </trkpt>
      <trkpt lat="45.92675" lon="6.35634">
        <ele>1741</ele>
        <time>2026-08-19T08:29:41.344Z</time>
      </trkpt>
      <trkpt lat="45.92674" lon="6.35634">
        <ele>1741</ele>
        <time>2026-08-19T08:29:42.344Z</time>
      </trkpt>
      <trkpt lat="45.92673" lon="6.35634">
        <ele>1741</ele>
        <time>2026-08-19T08:29:43.344Z</time>
      </trkpt>
      <trkpt lat="45.92673" lon="6.35634">
        <ele>1741</ele>
        <time>2026-08-19T08:29:44.344Z</time>
      </trkpt>
      <trkpt lat="45.92673" lon="6.35635">
        <ele>1740</ele>
        <time>2026-08-19T08:29:45.344Z</time>
      </trkpt>
      <trkpt lat="45.92673" lon="6.35636">
        <ele>1740</ele>
        <time>2026-08-19T08:29:46.344Z</time>
      </trkpt>
      <trkpt lat="45.92674" lon="6.35638">
        <ele>1740</ele>
        <time>2026-08-19T08:29:47.344Z</time>
      </trkpt>
      <trkpt lat="45.92674" lon="6.35639">
        <ele>1739</ele>
        <time>2026-08-19T08:29:48.344Z</time>
      </trkpt>
      <trkpt lat="45.92674" lon="6.3564">
        <ele>1739</ele>
        <time>2026-08-19T08:29:49.344Z</time>
      </trkpt>
      <trkpt lat="45.92673" lon="6.35641">
        <ele>1739</ele>
        <time>2026-08-19T08:29:50.344Z</time>
      </trkpt>
      <trkpt lat="45.92672" lon="6.35642">
        <ele>1739</ele>
        <time>2026-08-19T08:29:51.344Z</time>
      </trkpt>
      <trkpt lat="45.92671" lon="6.35641">
        <ele>1738</ele>
        <time>2026-08-19T08:29:52.344Z</time>
      </trkpt>
      <trkpt lat="45.9267" lon="6.35641">
        <ele>1738</ele>
        <time>2026-08-19T08:29:53.344Z</time>
      </trkpt>
      <trkpt lat="45.92669" lon="6.35641">
        <ele>1738</ele>
        <time>2026-08-19T08:29:54.344Z</time>
      </trkpt>
      <trkpt lat="45.92669" lon="6.35641">
        <ele>1738</ele>
        <time>2026-08-19T08:29:55.344Z</time>
      </trkpt>
      <trkpt lat="45.92668" lon="6.35641">
        <ele>1737</ele>
        <time>2026-08-19T08:29:56.344Z</time>
      </trkpt>
      <trkpt lat="45.92667" lon="6.35641">
        <ele>1737</ele>
        <time>2026-08-19T08:29:57.344Z</time>
      </trkpt>
      <trkpt lat="45.92667" lon="6.35641">
        <ele>1736</ele>
        <time>2026-08-19T08:29:58.344Z</time>
      </trkpt>
      <trkpt lat="45.92666" lon="6.35642">
        <ele>1736</ele>
        <time>2026-08-19T08:29:59.344Z</time>
      </trkpt>
      <trkpt lat="45.92665" lon="6.35642">
        <ele>1735</ele>
        <time>2026-08-19T08:30:00.344Z</time>
      </trkpt>
      <trkpt lat="45.92663" lon="6.35643">
        <ele>1735</ele>
        <time>2026-08-19T08:30:01.344Z</time>
      </trkpt>
      <trkpt lat="45.92662" lon="6.35643">
        <ele>1734</ele>
        <time>2026-08-19T08:30:02.344Z</time>
      </trkpt>
      <trkpt lat="45.9266" lon="6.35643">
        <ele>1734</ele>
        <time>2026-08-19T08:30:03.344Z</time>
      </trkpt>
      <trkpt lat="45.92658" lon="6.35643">
        <ele>1734</ele>
        <time>2026-08-19T08:30:04.344Z</time>
      </trkpt>
      <trkpt lat="45.92656" lon="6.35644">
        <ele>1733</ele>
        <time>2026-08-19T08:30:05.344Z</time>
      </trkpt>
      <trkpt lat="45.92655" lon="6.35644">
        <ele>1733</ele>
        <time>2026-08-19T08:30:06.344Z</time>
      </trkpt>
      <trkpt lat="45.92653" lon="6.35644">
        <ele>1733</ele>
        <time>2026-08-19T08:30:07.344Z</time>
      </trkpt>
      <trkpt lat="45.92652" lon="6.35645">
        <ele>1733</ele>
        <time>2026-08-19T08:30:08.344Z</time>
      </trkpt>
      <trkpt lat="45.92651" lon="6.35645">
        <ele>1732</ele>
        <time>2026-08-19T08:30:09.344Z</time>
      </trkpt>
      <trkpt lat="45.9265" lon="6.35645">
        <ele>1731</ele>
        <time>2026-08-19T08:30:10.344Z</time>
      </trkpt>
      <trkpt lat="45.92648" lon="6.35646">
        <ele>1731</ele>
        <time>2026-08-19T08:30:11.344Z</time>
      </trkpt>
      <trkpt lat="45.92648" lon="6.35646">
        <ele>1730</ele>
        <time>2026-08-19T08:30:12.344Z</time>
      </trkpt>
      <trkpt lat="45.92647" lon="6.35647">
        <ele>1730</ele>
        <time>2026-08-19T08:30:13.344Z</time>
      </trkpt>
      <trkpt lat="45.92646" lon="6.35648">
        <ele>1729</ele>
        <time>2026-08-19T08:30:14.344Z</time>
      </trkpt>
      <trkpt lat="45.92645" lon="6.35648">
        <ele>1729</ele>
        <time>2026-08-19T08:30:15.344Z</time>
      </trkpt>
      <trkpt lat="45.92644" lon="6.35648">
        <ele>1728</ele>
        <time>2026-08-19T08:30:16.344Z</time>
      </trkpt>
      <trkpt lat="45.92643" lon="6.35648">
        <ele>1728</ele>
        <time>2026-08-19T08:30:17.344Z</time>
      </trkpt>
      <trkpt lat="45.92642" lon="6.35648">
        <ele>1727</ele>
        <time>2026-08-19T08:30:18.344Z</time>
      </trkpt>
      <trkpt lat="45.92641" lon="6.35648">
        <ele>1727</ele>
        <time>2026-08-19T08:30:19.344Z</time>
      </trkpt>
      <trkpt lat="45.9264" lon="6.35648">
        <ele>1727</ele>
        <time>2026-08-19T08:30:20.344Z</time>
      </trkpt>
      <trkpt lat="45.92639" lon="6.35648">
        <ele>1726</ele>
        <time>2026-08-19T08:30:21.344Z</time>
      </trkpt>
      <trkpt lat="45.92638" lon="6.35648">
        <ele>1726</ele>
        <time>2026-08-19T08:30:22.344Z</time>
      </trkpt>
      <trkpt lat="45.92637" lon="6.35649">
        <ele>1726</ele>
        <time>2026-08-19T08:30:23.344Z</time>
      </trkpt>
      <trkpt lat="45.92636" lon="6.35649">
        <ele>1725</ele>
        <time>2026-08-19T08:30:24.344Z</time>
      </trkpt>
      <trkpt lat="45.92636" lon="6.3565">
        <ele>1725</ele>
        <time>2026-08-19T08:30:25.344Z</time>
      </trkpt>
      <trkpt lat="45.92635" lon="6.35651">
        <ele>1725</ele>
        <time>2026-08-19T08:30:26.344Z</time>
      </trkpt>
      <trkpt lat="45.92634" lon="6.35652">
        <ele>1725</ele>
        <time>2026-08-19T08:30:27.344Z</time>
      </trkpt>
      <trkpt lat="45.92632" lon="6.35653">
        <ele>1725</ele>
        <time>2026-08-19T08:30:28.344Z</time>
      </trkpt>
      <trkpt lat="45.92631" lon="6.35653">
        <ele>1725</ele>
        <time>2026-08-19T08:30:29.344Z</time>
      </trkpt>
      <trkpt lat="45.92629" lon="6.35653">
        <ele>1725</ele>
        <time>2026-08-19T08:30:30.344Z</time>
      </trkpt>
      <trkpt lat="45.92628" lon="6.35653">
        <ele>1725</ele>
        <time>2026-08-19T08:30:31.344Z</time>
      </trkpt>
      <trkpt lat="45.92628" lon="6.35653">
        <ele>1725</ele>
        <time>2026-08-19T08:30:32.344Z</time>
      </trkpt>
      <trkpt lat="45.92627" lon="6.35653">
        <ele>1725</ele>
        <time>2026-08-19T08:30:33.344Z</time>
      </trkpt>
      <trkpt lat="45.92626" lon="6.35653">
        <ele>1725</ele>
        <time>2026-08-19T08:30:34.344Z</time>
      </trkpt>
      <trkpt lat="45.92626" lon="6.35653">
        <ele>1724</ele>
        <time>2026-08-19T08:30:35.344Z</time>
      </trkpt>
      <trkpt lat="45.92626" lon="6.35654">
        <ele>1724</ele>
        <time>2026-08-19T08:30:36.344Z</time>
      </trkpt>
      <trkpt lat="45.92625" lon="6.35653">
        <ele>1723</ele>
        <time>2026-08-19T08:30:37.344Z</time>
      </trkpt>
      <trkpt lat="45.92625" lon="6.35654">
        <ele>1723</ele>
        <time>2026-08-19T08:30:38.345Z</time>
      </trkpt>
      <trkpt lat="45.92624" lon="6.35654">
        <ele>1723</ele>
        <time>2026-08-19T08:30:39.344Z</time>
      </trkpt>
      <trkpt lat="45.92623" lon="6.35654">
        <ele>1723</ele>
        <time>2026-08-19T08:30:40.344Z</time>
      </trkpt>
      <trkpt lat="45.92623" lon="6.35654">
        <ele>1723</ele>
        <time>2026-08-19T08:30:41.344Z</time>
      </trkpt>
      <trkpt lat="45.92622" lon="6.35654">
        <ele>1723</ele>
        <time>2026-08-19T08:30:42.344Z</time>
      </trkpt>
      <trkpt lat="45.92621" lon="6.35654">
        <ele>1723</ele>
        <time>2026-08-19T08:30:43.344Z</time>
      </trkpt>
      <trkpt lat="45.92619" lon="6.35654">
        <ele>1723</ele>
        <time>2026-08-19T08:30:44.344Z</time>
      </trkpt>
      <trkpt lat="45.92618" lon="6.35653">
        <ele>1722</ele>
        <time>2026-08-19T08:30:45.344Z</time>
      </trkpt>
      <trkpt lat="45.92616" lon="6.35653">
        <ele>1722</ele>
        <time>2026-08-19T08:30:46.344Z</time>
      </trkpt>
      <trkpt lat="45.92615" lon="6.35652">
        <ele>1722</ele>
        <time>2026-08-19T08:30:47.344Z</time>
      </trkpt>
      <trkpt lat="45.92613" lon="6.35652">
        <ele>1722</ele>
        <time>2026-08-19T08:30:48.344Z</time>
      </trkpt>
      <trkpt lat="45.92612" lon="6.35652">
        <ele>1722</ele>
        <time>2026-08-19T08:30:49.344Z</time>
      </trkpt>
      <trkpt lat="45.92611" lon="6.35652">
        <ele>1722</ele>
        <time>2026-08-19T08:30:50.344Z</time>
      </trkpt>
      <trkpt lat="45.92609" lon="6.35652">
        <ele>1723</ele>
        <time>2026-08-19T08:30:51.344Z</time>
      </trkpt>
      <trkpt lat="45.92608" lon="6.35652">
        <ele>1723</ele>
        <time>2026-08-19T08:30:52.345Z</time>
      </trkpt>
      <trkpt lat="45.92607" lon="6.35652">
        <ele>1723</ele>
        <time>2026-08-19T08:30:53.344Z</time>
      </trkpt>
      <trkpt lat="45.92606" lon="6.35652">
        <ele>1723</ele>
        <time>2026-08-19T08:30:54.344Z</time>
      </trkpt>
      <trkpt lat="45.92605" lon="6.35651">
        <ele>1722</ele>
        <time>2026-08-19T08:30:55.345Z</time>
      </trkpt>
      <trkpt lat="45.92604" lon="6.35651">
        <ele>1722</ele>
        <time>2026-08-19T08:30:56.344Z</time>
      </trkpt>
      <trkpt lat="45.92603" lon="6.3565">
        <ele>1722</ele>
        <time>2026-08-19T08:30:57.344Z</time>
      </trkpt>
      <trkpt lat="45.92602" lon="6.3565">
        <ele>1721</ele>
        <time>2026-08-19T08:30:58.344Z</time>
      </trkpt>
      <trkpt lat="45.92601" lon="6.35649">
        <ele>1721</ele>
        <time>2026-08-19T08:30:59.344Z</time>
      </trkpt>
      <trkpt lat="45.926" lon="6.35649">
        <ele>1721</ele>
        <time>2026-08-19T08:31:00.344Z</time>
      </trkpt>
      <trkpt lat="45.92599" lon="6.35649">
        <ele>1721</ele>
        <time>2026-08-19T08:31:01.344Z</time>
      </trkpt>
      <trkpt lat="45.92597" lon="6.35649">
        <ele>1721</ele>
        <time>2026-08-19T08:31:02.344Z</time>
      </trkpt>
      <trkpt lat="45.92596" lon="6.35649">
        <ele>1721</ele>
        <time>2026-08-19T08:31:03.344Z</time>
      </trkpt>
      <trkpt lat="45.92596" lon="6.35649">
        <ele>1721</ele>
        <time>2026-08-19T08:31:04.344Z</time>
      </trkpt>
      <trkpt lat="45.92595" lon="6.3565">
        <ele>1721</ele>
        <time>2026-08-19T08:31:05.344Z</time>
      </trkpt>
      <trkpt lat="45.92594" lon="6.3565">
        <ele>1721</ele>
        <time>2026-08-19T08:31:06.344Z</time>
      </trkpt>
      <trkpt lat="45.92593" lon="6.3565">
        <ele>1720</ele>
        <time>2026-08-19T08:31:07.344Z</time>
      </trkpt>
      <trkpt lat="45.92592" lon="6.3565">
        <ele>1720</ele>
        <time>2026-08-19T08:31:08.344Z</time>
      </trkpt>
      <trkpt lat="45.92591" lon="6.3565">
        <ele>1720</ele>
        <time>2026-08-19T08:31:09.344Z</time>
      </trkpt>
      <trkpt lat="45.9259" lon="6.3565">
        <ele>1720</ele>
        <time>2026-08-19T08:31:10.344Z</time>
      </trkpt>
      <trkpt lat="45.92589" lon="6.35649">
        <ele>1720</ele>
        <time>2026-08-19T08:31:11.344Z</time>
      </trkpt>
      <trkpt lat="45.92588" lon="6.35649">
        <ele>1719</ele>
        <time>2026-08-19T08:31:12.345Z</time>
      </trkpt>
      <trkpt lat="45.92587" lon="6.35649">
        <ele>1719</ele>
        <time>2026-08-19T08:31:13.344Z</time>
      </trkpt>
      <trkpt lat="45.92586" lon="6.35649">
        <ele>1718</ele>
        <time>2026-08-19T08:31:14.344Z</time>
      </trkpt>
      <trkpt lat="45.92586" lon="6.35649">
        <ele>1718</ele>
        <time>2026-08-19T08:31:15.344Z</time>
      </trkpt>
      <trkpt lat="45.92585" lon="6.35648">
        <ele>1717</ele>
        <time>2026-08-19T08:31:16.344Z</time>
      </trkpt>
      <trkpt lat="45.92585" lon="6.35648">
        <ele>1717</ele>
        <time>2026-08-19T08:31:17.344Z</time>
      </trkpt>
      <trkpt lat="45.92584" lon="6.35647">
        <ele>1717</ele>
        <time>2026-08-19T08:31:18.344Z</time>
      </trkpt>
      <trkpt lat="45.92583" lon="6.35647">
        <ele>1716</ele>
        <time>2026-08-19T08:31:19.344Z</time>
      </trkpt>
      <trkpt lat="45.92583" lon="6.35647">
        <ele>1716</ele>
        <time>2026-08-19T08:31:20.344Z</time>
      </trkpt>
      <trkpt lat="45.92582" lon="6.35646">
        <ele>1716</ele>
        <time>2026-08-19T08:31:21.344Z</time>
      </trkpt>
      <trkpt lat="45.9258" lon="6.35645">
        <ele>1716</ele>
        <time>2026-08-19T08:31:22.344Z</time>
      </trkpt>
      <trkpt lat="45.92579" lon="6.35645">
        <ele>1716</ele>
        <time>2026-08-19T08:31:23.344Z</time>
      </trkpt>
      <trkpt lat="45.92578" lon="6.35644">
        <ele>1716</ele>
        <time>2026-08-19T08:31:24.345Z</time>
      </trkpt>
      <trkpt lat="45.92577" lon="6.35644">
        <ele>1716</ele>
        <time>2026-08-19T08:31:25.344Z</time>
      </trkpt>
      <trkpt lat="45.92575" lon="6.35643">
        <ele>1716</ele>
        <time>2026-08-19T08:31:26.344Z</time>
      </trkpt>
      <trkpt lat="45.92574" lon="6.35643">
        <ele>1715</ele>
        <time>2026-08-19T08:31:27.344Z</time>
      </trkpt>
      <trkpt lat="45.92573" lon="6.35643">
        <ele>1715</ele>
        <time>2026-08-19T08:31:28.344Z</time>
      </trkpt>
      <trkpt lat="45.92571" lon="6.35643">
        <ele>1715</ele>
        <time>2026-08-19T08:31:29.344Z</time>
      </trkpt>
      <trkpt lat="45.9257" lon="6.35643">
        <ele>1714</ele>
        <time>2026-08-19T08:31:30.344Z</time>
      </trkpt>
      <trkpt lat="45.92569" lon="6.35643">
        <ele>1714</ele>
        <time>2026-08-19T08:31:31.344Z</time>
      </trkpt>
      <trkpt lat="45.92568" lon="6.35642">
        <ele>1714</ele>
        <time>2026-08-19T08:31:32.344Z</time>
      </trkpt>
      <trkpt lat="45.92566" lon="6.35642">
        <ele>1714</ele>
        <time>2026-08-19T08:31:33.344Z</time>
      </trkpt>
      <trkpt lat="45.92565" lon="6.35642">
        <ele>1714</ele>
        <time>2026-08-19T08:31:34.344Z</time>
      </trkpt>
      <trkpt lat="45.92564" lon="6.35642">
        <ele>1714</ele>
        <time>2026-08-19T08:31:35.344Z</time>
      </trkpt>
      <trkpt lat="45.92563" lon="6.35642">
        <ele>1713</ele>
        <time>2026-08-19T08:31:36.344Z</time>
      </trkpt>
      <trkpt lat="45.92561" lon="6.35642">
        <ele>1712</ele>
        <time>2026-08-19T08:31:37.344Z</time>
      </trkpt>
      <trkpt lat="45.9256" lon="6.35641">
        <ele>1712</ele>
        <time>2026-08-19T08:31:38.344Z</time>
      </trkpt>
      <trkpt lat="45.92559" lon="6.35641">
        <ele>1712</ele>
        <time>2026-08-19T08:31:39.344Z</time>
      </trkpt>
      <trkpt lat="45.92559" lon="6.35642">
        <ele>1711</ele>
        <time>2026-08-19T08:31:40.344Z</time>
      </trkpt>
      <trkpt lat="45.92557" lon="6.35642">
        <ele>1711</ele>
        <time>2026-08-19T08:31:41.344Z</time>
      </trkpt>
      <trkpt lat="45.92557" lon="6.35641">
        <ele>1711</ele>
        <time>2026-08-19T08:31:42.345Z</time>
      </trkpt>
      <trkpt lat="45.92556" lon="6.35641">
        <ele>1711</ele>
        <time>2026-08-19T08:31:43.344Z</time>
      </trkpt>
      <trkpt lat="45.92555" lon="6.35641">
        <ele>1711</ele>
        <time>2026-08-19T08:31:44.344Z</time>
      </trkpt>
      <trkpt lat="45.92555" lon="6.35642">
        <ele>1710</ele>
        <time>2026-08-19T08:31:45.344Z</time>
      </trkpt>
      <trkpt lat="45.92555" lon="6.35642">
        <ele>1710</ele>
        <time>2026-08-19T08:31:46.344Z</time>
      </trkpt>
      <trkpt lat="45.92555" lon="6.35642">
        <ele>1709</ele>
        <time>2026-08-19T08:31:47.344Z</time>
      </trkpt>
      <trkpt lat="45.92555" lon="6.35643">
        <ele>1708</ele>
        <time>2026-08-19T08:31:48.344Z</time>
      </trkpt>
      <trkpt lat="45.92554" lon="6.35644">
        <ele>1708</ele>
        <time>2026-08-19T08:31:49.344Z</time>
      </trkpt>
      <trkpt lat="45.92553" lon="6.35645">
        <ele>1708</ele>
        <time>2026-08-19T08:31:50.344Z</time>
      </trkpt>
      <trkpt lat="45.92552" lon="6.35645">
        <ele>1708</ele>
        <time>2026-08-19T08:31:51.344Z</time>
      </trkpt>
      <trkpt lat="45.92552" lon="6.35645">
        <ele>1707</ele>
        <time>2026-08-19T08:31:52.344Z</time>
      </trkpt>
      <trkpt lat="45.92551" lon="6.35645">
        <ele>1707</ele>
        <time>2026-08-19T08:31:53.344Z</time>
      </trkpt>
      <trkpt lat="45.9255" lon="6.35645">
        <ele>1707</ele>
        <time>2026-08-19T08:31:54.344Z</time>
      </trkpt>
      <trkpt lat="45.9255" lon="6.35645">
        <ele>1707</ele>
        <time>2026-08-19T08:31:55.344Z</time>
      </trkpt>
      <trkpt lat="45.9255" lon="6.35645">
        <ele>1706</ele>
        <time>2026-08-19T08:31:56.344Z</time>
      </trkpt>
      <trkpt lat="45.9255" lon="6.35645">
        <ele>1706</ele>
        <time>2026-08-19T08:31:57.344Z</time>
      </trkpt>
      <trkpt lat="45.9255" lon="6.35645">
        <ele>1706</ele>
        <time>2026-08-19T08:31:58.345Z</time>
      </trkpt>
      <trkpt lat="45.92549" lon="6.35645">
        <ele>1705</ele>
        <time>2026-08-19T08:31:59.344Z</time>
      </trkpt>
      <trkpt lat="45.92549" lon="6.35645">
        <ele>1705</ele>
        <time>2026-08-19T08:32:00.344Z</time>
      </trkpt>
      <trkpt lat="45.92548" lon="6.35645">
        <ele>1705</ele>
        <time>2026-08-19T08:32:01.344Z</time>
      </trkpt>
      <trkpt lat="45.92547" lon="6.35645">
        <ele>1704</ele>
        <time>2026-08-19T08:32:02.344Z</time>
      </trkpt>
      <trkpt lat="45.92547" lon="6.35645">
        <ele>1704</ele>
        <time>2026-08-19T08:32:03.344Z</time>
      </trkpt>
      <trkpt lat="45.92546" lon="6.35645">
        <ele>1703</ele>
        <time>2026-08-19T08:32:04.344Z</time>
      </trkpt>
      <trkpt lat="45.92546" lon="6.35646">
        <ele>1703</ele>
        <time>2026-08-19T08:32:05.344Z</time>
      </trkpt>
      <trkpt lat="45.92545" lon="6.35646">
        <ele>1703</ele>
        <time>2026-08-19T08:32:06.344Z</time>
      </trkpt>
      <trkpt lat="45.92543" lon="6.35647">
        <ele>1702</ele>
        <time>2026-08-19T08:32:07.344Z</time>
      </trkpt>
      <trkpt lat="45.92542" lon="6.35647">
        <ele>1702</ele>
        <time>2026-08-19T08:32:08.344Z</time>
      </trkpt>
      <trkpt lat="45.92541" lon="6.35647">
        <ele>1702</ele>
        <time>2026-08-19T08:32:09.344Z</time>
      </trkpt>
      <trkpt lat="45.92539" lon="6.35646">
        <ele>1701</ele>
        <time>2026-08-19T08:32:10.344Z</time>
      </trkpt>
      <trkpt lat="45.92538" lon="6.35646">
        <ele>1701</ele>
        <time>2026-08-19T08:32:11.344Z</time>
      </trkpt>
      <trkpt lat="45.92536" lon="6.35646">
        <ele>1701</ele>
        <time>2026-08-19T08:32:12.344Z</time>
      </trkpt>
      <trkpt lat="45.92536" lon="6.35646">
        <ele>1701</ele>
        <time>2026-08-19T08:32:13.344Z</time>
      </trkpt>
      <trkpt lat="45.92535" lon="6.35646">
        <ele>1701</ele>
        <time>2026-08-19T08:32:14.344Z</time>
      </trkpt>
      <trkpt lat="45.92534" lon="6.35647">
        <ele>1700</ele>
        <time>2026-08-19T08:32:15.344Z</time>
      </trkpt>
      <trkpt lat="45.92533" lon="6.35647">
        <ele>1700</ele>
        <time>2026-08-19T08:32:16.344Z</time>
      </trkpt>
      <trkpt lat="45.92532" lon="6.35648">
        <ele>1700</ele>
        <time>2026-08-19T08:32:17.344Z</time>
      </trkpt>
      <trkpt lat="45.92531" lon="6.35648">
        <ele>1700</ele>
        <time>2026-08-19T08:32:18.344Z</time>
      </trkpt>
      <trkpt lat="45.92529" lon="6.35648">
        <ele>1700</ele>
        <time>2026-08-19T08:32:19.344Z</time>
      </trkpt>
      <trkpt lat="45.92528" lon="6.35649">
        <ele>1700</ele>
        <time>2026-08-19T08:32:20.344Z</time>
      </trkpt>
      <trkpt lat="45.92527" lon="6.3565">
        <ele>1700</ele>
        <time>2026-08-19T08:32:21.344Z</time>
      </trkpt>
      <trkpt lat="45.92527" lon="6.35651">
        <ele>1700</ele>
        <time>2026-08-19T08:32:22.344Z</time>
      </trkpt>
      <trkpt lat="45.92526" lon="6.35651">
        <ele>1700</ele>
        <time>2026-08-19T08:32:23.344Z</time>
      </trkpt>
      <trkpt lat="45.92525" lon="6.35652">
        <ele>1699</ele>
        <time>2026-08-19T08:32:24.344Z</time>
      </trkpt>
      <trkpt lat="45.92524" lon="6.35652">
        <ele>1699</ele>
        <time>2026-08-19T08:32:25.344Z</time>
      </trkpt>
      <trkpt lat="45.92524" lon="6.35653">
        <ele>1699</ele>
        <time>2026-08-19T08:32:26.344Z</time>
      </trkpt>
      <trkpt lat="45.92523" lon="6.35653">
        <ele>1699</ele>
        <time>2026-08-19T08:32:27.344Z</time>
      </trkpt>
      <trkpt lat="45.92523" lon="6.35653">
        <ele>1698</ele>
        <time>2026-08-19T08:32:28.344Z</time>
      </trkpt>
      <trkpt lat="45.92522" lon="6.35653">
        <ele>1698</ele>
        <time>2026-08-19T08:32:29.344Z</time>
      </trkpt>
      <trkpt lat="45.92522" lon="6.35654">
        <ele>1698</ele>
        <time>2026-08-19T08:32:30.344Z</time>
      </trkpt>
      <trkpt lat="45.92522" lon="6.35654">
        <ele>1698</ele>
        <time>2026-08-19T08:32:31.344Z</time>
      </trkpt>
      <trkpt lat="45.92522" lon="6.35655">
        <ele>1698</ele>
        <time>2026-08-19T08:32:32.344Z</time>
      </trkpt>
      <trkpt lat="45.92522" lon="6.35655">
        <ele>1698</ele>
        <time>2026-08-19T08:32:33.344Z</time>
      </trkpt>
      <trkpt lat="45.92521" lon="6.35655">
        <ele>1698</ele>
        <time>2026-08-19T08:32:34.344Z</time>
      </trkpt>
      <trkpt lat="45.92521" lon="6.35656">
        <ele>1698</ele>
        <time>2026-08-19T08:32:35.344Z</time>
      </trkpt>
      <trkpt lat="45.92521" lon="6.35657">
        <ele>1697</ele>
        <time>2026-08-19T08:32:36.344Z</time>
      </trkpt>
      <trkpt lat="45.92521" lon="6.35657">
        <ele>1697</ele>
        <time>2026-08-19T08:32:37.344Z</time>
      </trkpt>
      <trkpt lat="45.92521" lon="6.35658">
        <ele>1697</ele>
        <time>2026-08-19T08:32:38.344Z</time>
      </trkpt>
      <trkpt lat="45.92521" lon="6.35659">
        <ele>1698</ele>
        <time>2026-08-19T08:32:39.344Z</time>
      </trkpt>
      <trkpt lat="45.92521" lon="6.3566">
        <ele>1698</ele>
        <time>2026-08-19T08:32:40.344Z</time>
      </trkpt>
      <trkpt lat="45.9252" lon="6.3566">
        <ele>1698</ele>
        <time>2026-08-19T08:32:41.344Z</time>
      </trkpt>
      <trkpt lat="45.9252" lon="6.35661">
        <ele>1698</ele>
        <time>2026-08-19T08:32:42.344Z</time>
      </trkpt>
      <trkpt lat="45.9252" lon="6.35661">
        <ele>1698</ele>
        <time>2026-08-19T08:32:43.344Z</time>
      </trkpt>
      <trkpt lat="45.9252" lon="6.35661">
        <ele>1698</ele>
        <time>2026-08-19T08:32:44.344Z</time>
      </trkpt>
      <trkpt lat="45.92519" lon="6.3566">
        <ele>1698</ele>
        <time>2026-08-19T08:32:45.344Z</time>
      </trkpt>
      <trkpt lat="45.92519" lon="6.3566">
        <ele>1697</ele>
        <time>2026-08-19T08:32:46.344Z</time>
      </trkpt>
      <trkpt lat="45.92519" lon="6.3566">
        <ele>1696</ele>
        <time>2026-08-19T08:32:47.344Z</time>
      </trkpt>
      <trkpt lat="45.92519" lon="6.35661">
        <ele>1696</ele>
        <time>2026-08-19T08:32:48.344Z</time>
      </trkpt>
      <trkpt lat="45.92519" lon="6.35662">
        <ele>1696</ele>
        <time>2026-08-19T08:32:49.344Z</time>
      </trkpt>
      <trkpt lat="45.92519" lon="6.35663">
        <ele>1696</ele>
        <time>2026-08-19T08:32:50.344Z</time>
      </trkpt>
      <trkpt lat="45.92519" lon="6.35663">
        <ele>1695</ele>
        <time>2026-08-19T08:32:51.345Z</time>
      </trkpt>
      <trkpt lat="45.92519" lon="6.35664">
        <ele>1695</ele>
        <time>2026-08-19T08:32:52.344Z</time>
      </trkpt>
      <trkpt lat="45.92519" lon="6.35665">
        <ele>1694</ele>
        <time>2026-08-19T08:32:53.345Z</time>
      </trkpt>
      <trkpt lat="45.92518" lon="6.35665">
        <ele>1694</ele>
        <time>2026-08-19T08:32:54.344Z</time>
      </trkpt>
      <trkpt lat="45.92518" lon="6.35666">
        <ele>1694</ele>
        <time>2026-08-19T08:32:55.344Z</time>
      </trkpt>
      <trkpt lat="45.92518" lon="6.35666">
        <ele>1693</ele>
        <time>2026-08-19T08:32:56.344Z</time>
      </trkpt>
      <trkpt lat="45.92518" lon="6.35666">
        <ele>1693</ele>
        <time>2026-08-19T08:32:57.344Z</time>
      </trkpt>
      <trkpt lat="45.92518" lon="6.35666">
        <ele>1693</ele>
        <time>2026-08-19T08:32:58.344Z</time>
      </trkpt>
      <trkpt lat="45.92518" lon="6.35666">
        <ele>1693</ele>
        <time>2026-08-19T08:32:59.344Z</time>
      </trkpt>
      <trkpt lat="45.92518" lon="6.35666">
        <ele>1693</ele>
        <time>2026-08-19T08:33:00.344Z</time>
      </trkpt>
      <trkpt lat="45.92518" lon="6.35666">
        <ele>1693</ele>
        <time>2026-08-19T08:33:01.344Z</time>
      </trkpt>
      <trkpt lat="45.92518" lon="6.35666">
        <ele>1693</ele>
        <time>2026-08-19T08:33:02.344Z</time>
      </trkpt>
      <trkpt lat="45.92518" lon="6.35666">
        <ele>1693</ele>
        <time>2026-08-19T08:33:03.345Z</time>
      </trkpt>
      <trkpt lat="45.92518" lon="6.35666">
        <ele>1693</ele>
        <time>2026-08-19T08:33:04.344Z</time>
      </trkpt>
      <trkpt lat="45.92518" lon="6.35666">
        <ele>1693</ele>
        <time>2026-08-19T08:33:05.344Z</time>
      </trkpt>
      <trkpt lat="45.92518" lon="6.35666">
        <ele>1693</ele>
        <time>2026-08-19T08:33:06.344Z</time>
      </trkpt>
      <trkpt lat="45.92519" lon="6.35666">
        <ele>1693</ele>
        <time>2026-08-19T08:33:07.344Z</time>
      </trkpt>
      <trkpt lat="45.9252" lon="6.35666">
        <ele>1693</ele>
        <time>2026-08-19T08:33:08.344Z</time>
      </trkpt>
      <trkpt lat="45.92522" lon="6.35666">
        <ele>1693</ele>
        <time>2026-08-19T08:33:09.344Z</time>
      </trkpt>
      <trkpt lat="45.92523" lon="6.35666">
        <ele>1693</ele>
        <time>2026-08-19T08:33:10.344Z</time>
      </trkpt>
      <trkpt lat="45.92524" lon="6.35666">
        <ele>1693</ele>
        <time>2026-08-19T08:33:11.344Z</time>
      </trkpt>
      <trkpt lat="45.92525" lon="6.35666">
        <ele>1693</ele>
        <time>2026-08-19T08:33:12.344Z</time>
      </trkpt>
      <trkpt lat="45.92526" lon="6.35666">
        <ele>1693</ele>
        <time>2026-08-19T08:33:13.344Z</time>
      </trkpt>
      <trkpt lat="45.92527" lon="6.35665">
        <ele>1693</ele>
        <time>2026-08-19T08:33:14.344Z</time>
      </trkpt>
      <trkpt lat="45.92528" lon="6.35665">
        <ele>1693</ele>
        <time>2026-08-19T08:33:15.344Z</time>
      </trkpt>
      <trkpt lat="45.92528" lon="6.35664">
        <ele>1694</ele>
        <time>2026-08-19T08:33:16.344Z</time>
      </trkpt>
      <trkpt lat="45.92529" lon="6.35664">
        <ele>1694</ele>
        <time>2026-08-19T08:33:17.344Z</time>
      </trkpt>
      <trkpt lat="45.92529" lon="6.35664">
        <ele>1694</ele>
        <time>2026-08-19T08:33:18.344Z</time>
      </trkpt>
      <trkpt lat="45.9253" lon="6.35663">
        <ele>1694</ele>
        <time>2026-08-19T08:33:19.344Z</time>
      </trkpt>
      <trkpt lat="45.9253" lon="6.35663">
        <ele>1694</ele>
        <time>2026-08-19T08:33:20.344Z</time>
      </trkpt>
      <trkpt lat="45.92531" lon="6.35662">
        <ele>1695</ele>
        <time>2026-08-19T08:33:21.344Z</time>
      </trkpt>
      <trkpt lat="45.92531" lon="6.35662">
        <ele>1695</ele>
        <time>2026-08-19T08:33:22.344Z</time>
      </trkpt>
      <trkpt lat="45.92533" lon="6.35661">
        <ele>1695</ele>
        <time>2026-08-19T08:33:23.344Z</time>
      </trkpt>
      <trkpt lat="45.92534" lon="6.35661">
        <ele>1695</ele>
        <time>2026-08-19T08:33:24.344Z</time>
      </trkpt>
      <trkpt lat="45.92535" lon="6.35661">
        <ele>1694</ele>
        <time>2026-08-19T08:33:25.344Z</time>
      </trkpt>
      <trkpt lat="45.92536" lon="6.3566">
        <ele>1694</ele>
        <time>2026-08-19T08:33:26.344Z</time>
      </trkpt>
      <trkpt lat="45.92537" lon="6.3566">
        <ele>1694</ele>
        <time>2026-08-19T08:33:27.344Z</time>
      </trkpt>
      <trkpt lat="45.92538" lon="6.35659">
        <ele>1694</ele>
        <time>2026-08-19T08:33:28.344Z</time>
      </trkpt>
      <trkpt lat="45.92538" lon="6.35659">
        <ele>1694</ele>
        <time>2026-08-19T08:33:29.344Z</time>
      </trkpt>
      <trkpt lat="45.92539" lon="6.35659">
        <ele>1695</ele>
        <time>2026-08-19T08:33:30.344Z</time>
      </trkpt>
      <trkpt lat="45.9254" lon="6.3566">
        <ele>1695</ele>
        <time>2026-08-19T08:33:31.344Z</time>
      </trkpt>
      <trkpt lat="45.92541" lon="6.3566">
        <ele>1695</ele>
        <time>2026-08-19T08:33:32.345Z</time>
      </trkpt>
      <trkpt lat="45.92542" lon="6.3566">
        <ele>1695</ele>
        <time>2026-08-19T08:33:33.344Z</time>
      </trkpt>
      <trkpt lat="45.92544" lon="6.35661">
        <ele>1695</ele>
        <time>2026-08-19T08:33:34.344Z</time>
      </trkpt>
      <trkpt lat="45.92545" lon="6.35661">
        <ele>1695</ele>
        <time>2026-08-19T08:33:35.344Z</time>
      </trkpt>
      <trkpt lat="45.92546" lon="6.35662">
        <ele>1695</ele>
        <time>2026-08-19T08:33:36.344Z</time>
      </trkpt>
      <trkpt lat="45.92547" lon="6.35663">
        <ele>1695</ele>
        <time>2026-08-19T08:33:37.344Z</time>
      </trkpt>
      <trkpt lat="45.92547" lon="6.35664">
        <ele>1695</ele>
        <time>2026-08-19T08:33:38.344Z</time>
      </trkpt>
      <trkpt lat="45.92549" lon="6.35664">
        <ele>1695</ele>
        <time>2026-08-19T08:33:39.344Z</time>
      </trkpt>
      <trkpt lat="45.9255" lon="6.35665">
        <ele>1695</ele>
        <time>2026-08-19T08:33:40.344Z</time>
      </trkpt>
      <trkpt lat="45.92551" lon="6.35666">
        <ele>1695</ele>
        <time>2026-08-19T08:33:41.344Z</time>
      </trkpt>
      <trkpt lat="45.92553" lon="6.35666">
        <ele>1695</ele>
        <time>2026-08-19T08:33:42.344Z</time>
      </trkpt>
      <trkpt lat="45.92554" lon="6.35667">
        <ele>1695</ele>
        <time>2026-08-19T08:33:43.344Z</time>
      </trkpt>
      <trkpt lat="45.92555" lon="6.35667">
        <ele>1695</ele>
        <time>2026-08-19T08:33:44.344Z</time>
      </trkpt>
      <trkpt lat="45.92557" lon="6.35667">
        <ele>1695</ele>
        <time>2026-08-19T08:33:45.344Z</time>
      </trkpt>
      <trkpt lat="45.92558" lon="6.35667">
        <ele>1695</ele>
        <time>2026-08-19T08:33:46.344Z</time>
      </trkpt>
      <trkpt lat="45.92558" lon="6.35668">
        <ele>1695</ele>
        <time>2026-08-19T08:33:47.344Z</time>
      </trkpt>
      <trkpt lat="45.92559" lon="6.35669">
        <ele>1694</ele>
        <time>2026-08-19T08:33:48.344Z</time>
      </trkpt>
      <trkpt lat="45.9256" lon="6.3567">
        <ele>1694</ele>
        <time>2026-08-19T08:33:49.344Z</time>
      </trkpt>
      <trkpt lat="45.92561" lon="6.35671">
        <ele>1695</ele>
        <time>2026-08-19T08:33:50.344Z</time>
      </trkpt>
      <trkpt lat="45.92563" lon="6.35672">
        <ele>1695</ele>
        <time>2026-08-19T08:33:51.344Z</time>
      </trkpt>
      <trkpt lat="45.92564" lon="6.35673">
        <ele>1695</ele>
        <time>2026-08-19T08:33:52.344Z</time>
      </trkpt>
      <trkpt lat="45.92565" lon="6.35674">
        <ele>1696</ele>
        <time>2026-08-19T08:33:53.344Z</time>
      </trkpt>
      <trkpt lat="45.92566" lon="6.35675">
        <ele>1696</ele>
        <time>2026-08-19T08:33:54.344Z</time>
      </trkpt>
      <trkpt lat="45.92568" lon="6.35675">
        <ele>1696</ele>
        <time>2026-08-19T08:33:55.344Z</time>
      </trkpt>
      <trkpt lat="45.92569" lon="6.35676">
        <ele>1696</ele>
        <time>2026-08-19T08:33:56.344Z</time>
      </trkpt>
      <trkpt lat="45.9257" lon="6.35677">
        <ele>1696</ele>
        <time>2026-08-19T08:33:57.344Z</time>
      </trkpt>
      <trkpt lat="45.92571" lon="6.35678">
        <ele>1696</ele>
        <time>2026-08-19T08:33:58.344Z</time>
      </trkpt>
      <trkpt lat="45.92572" lon="6.35679">
        <ele>1697</ele>
        <time>2026-08-19T08:33:59.345Z</time>
      </trkpt>
      <trkpt lat="45.92574" lon="6.3568">
        <ele>1697</ele>
        <time>2026-08-19T08:34:00.344Z</time>
      </trkpt>
      <trkpt lat="45.92575" lon="6.35681">
        <ele>1697</ele>
        <time>2026-08-19T08:34:01.344Z</time>
      </trkpt>
      <trkpt lat="45.92575" lon="6.35682">
        <ele>1697</ele>
        <time>2026-08-19T08:34:02.344Z</time>
      </trkpt>
      <trkpt lat="45.92576" lon="6.35683">
        <ele>1697</ele>
        <time>2026-08-19T08:34:03.344Z</time>
      </trkpt>
      <trkpt lat="45.92578" lon="6.35683">
        <ele>1697</ele>
        <time>2026-08-19T08:34:04.344Z</time>
      </trkpt>
      <trkpt lat="45.92579" lon="6.35684">
        <ele>1697</ele>
        <time>2026-08-19T08:34:05.344Z</time>
      </trkpt>
      <trkpt lat="45.9258" lon="6.35684">
        <ele>1697</ele>
        <time>2026-08-19T08:34:06.344Z</time>
      </trkpt>
      <trkpt lat="45.92581" lon="6.35685">
        <ele>1698</ele>
        <time>2026-08-19T08:34:07.344Z</time>
      </trkpt>
      <trkpt lat="45.92582" lon="6.35686">
        <ele>1698</ele>
        <time>2026-08-19T08:34:08.344Z</time>
      </trkpt>
      <trkpt lat="45.92584" lon="6.35687">
        <ele>1698</ele>
        <time>2026-08-19T08:34:09.344Z</time>
      </trkpt>
      <trkpt lat="45.92585" lon="6.35688">
        <ele>1699</ele>
        <time>2026-08-19T08:34:10.344Z</time>
      </trkpt>
      <trkpt lat="45.92586" lon="6.35689">
        <ele>1699</ele>
        <time>2026-08-19T08:34:11.344Z</time>
      </trkpt>
      <trkpt lat="45.92587" lon="6.35689">
        <ele>1699</ele>
        <time>2026-08-19T08:34:12.345Z</time>
      </trkpt>
      <trkpt lat="45.92588" lon="6.35689">
        <ele>1699</ele>
        <time>2026-08-19T08:34:13.344Z</time>
      </trkpt>
      <trkpt lat="45.92589" lon="6.3569">
        <ele>1699</ele>
        <time>2026-08-19T08:34:14.344Z</time>
      </trkpt>
      <trkpt lat="45.9259" lon="6.35691">
        <ele>1699</ele>
        <time>2026-08-19T08:34:15.344Z</time>
      </trkpt>
      <trkpt lat="45.92591" lon="6.35691">
        <ele>1699</ele>
        <time>2026-08-19T08:34:16.344Z</time>
      </trkpt>
      <trkpt lat="45.92591" lon="6.35692">
        <ele>1699</ele>
        <time>2026-08-19T08:34:17.344Z</time>
      </trkpt>
      <trkpt lat="45.92592" lon="6.35693">
        <ele>1698</ele>
        <time>2026-08-19T08:34:18.344Z</time>
      </trkpt>
      <trkpt lat="45.92593" lon="6.35694">
        <ele>1698</ele>
        <time>2026-08-19T08:34:19.344Z</time>
      </trkpt>
      <trkpt lat="45.92594" lon="6.35695">
        <ele>1698</ele>
        <time>2026-08-19T08:34:20.344Z</time>
      </trkpt>
      <trkpt lat="45.92595" lon="6.35695">
        <ele>1698</ele>
        <time>2026-08-19T08:34:21.344Z</time>
      </trkpt>
      <trkpt lat="45.92596" lon="6.35696">
        <ele>1698</ele>
        <time>2026-08-19T08:34:22.344Z</time>
      </trkpt>
      <trkpt lat="45.92596" lon="6.35696">
        <ele>1698</ele>
        <time>2026-08-19T08:34:23.344Z</time>
      </trkpt>
      <trkpt lat="45.92597" lon="6.35697">
        <ele>1698</ele>
        <time>2026-08-19T08:34:24.344Z</time>
      </trkpt>
      <trkpt lat="45.92597" lon="6.35697">
        <ele>1698</ele>
        <time>2026-08-19T08:34:25.344Z</time>
      </trkpt>
      <trkpt lat="45.92598" lon="6.35698">
        <ele>1698</ele>
        <time>2026-08-19T08:34:26.344Z</time>
      </trkpt>
      <trkpt lat="45.92598" lon="6.35699">
        <ele>1698</ele>
        <time>2026-08-19T08:34:27.344Z</time>
      </trkpt>
      <trkpt lat="45.92599" lon="6.357">
        <ele>1697</ele>
        <time>2026-08-19T08:34:28.344Z</time>
      </trkpt>
      <trkpt lat="45.92599" lon="6.357">
        <ele>1697</ele>
        <time>2026-08-19T08:34:29.344Z</time>
      </trkpt>
      <trkpt lat="45.926" lon="6.35701">
        <ele>1697</ele>
        <time>2026-08-19T08:34:30.344Z</time>
      </trkpt>
      <trkpt lat="45.92601" lon="6.35702">
        <ele>1697</ele>
        <time>2026-08-19T08:34:31.344Z</time>
      </trkpt>
      <trkpt lat="45.92601" lon="6.35703">
        <ele>1697</ele>
        <time>2026-08-19T08:34:32.345Z</time>
      </trkpt>
      <trkpt lat="45.92602" lon="6.35704">
        <ele>1697</ele>
        <time>2026-08-19T08:34:33.344Z</time>
      </trkpt>
      <trkpt lat="45.92603" lon="6.35704">
        <ele>1698</ele>
        <time>2026-08-19T08:34:34.344Z</time>
      </trkpt>
      <trkpt lat="45.92604" lon="6.35705">
        <ele>1698</ele>
        <time>2026-08-19T08:34:35.344Z</time>
      </trkpt>
      <trkpt lat="45.92605" lon="6.35706">
        <ele>1698</ele>
        <time>2026-08-19T08:34:36.344Z</time>
      </trkpt>
      <trkpt lat="45.92605" lon="6.35707">
        <ele>1698</ele>
        <time>2026-08-19T08:34:37.344Z</time>
      </trkpt>
      <trkpt lat="45.92606" lon="6.35708">
        <ele>1698</ele>
        <time>2026-08-19T08:34:38.344Z</time>
      </trkpt>
      <trkpt lat="45.92606" lon="6.35708">
        <ele>1698</ele>
        <time>2026-08-19T08:34:39.344Z</time>
      </trkpt>
      <trkpt lat="45.92607" lon="6.35709">
        <ele>1698</ele>
        <time>2026-08-19T08:34:40.344Z</time>
      </trkpt>
      <trkpt lat="45.92608" lon="6.3571">
        <ele>1698</ele>
        <time>2026-08-19T08:34:41.344Z</time>
      </trkpt>
      <trkpt lat="45.92609" lon="6.3571">
        <ele>1698</ele>
        <time>2026-08-19T08:34:42.344Z</time>
      </trkpt>
      <trkpt lat="45.9261" lon="6.35711">
        <ele>1698</ele>
        <time>2026-08-19T08:34:43.344Z</time>
      </trkpt>
      <trkpt lat="45.92611" lon="6.35711">
        <ele>1697</ele>
        <time>2026-08-19T08:34:44.344Z</time>
      </trkpt>
      <trkpt lat="45.92612" lon="6.35712">
        <ele>1697</ele>
        <time>2026-08-19T08:34:45.344Z</time>
      </trkpt>
      <trkpt lat="45.92613" lon="6.35713">
        <ele>1697</ele>
        <time>2026-08-19T08:34:46.345Z</time>
      </trkpt>
      <trkpt lat="45.92613" lon="6.35713">
        <ele>1697</ele>
        <time>2026-08-19T08:34:47.344Z</time>
      </trkpt>
      <trkpt lat="45.92614" lon="6.35714">
        <ele>1696</ele>
        <time>2026-08-19T08:34:48.344Z</time>
      </trkpt>
      <trkpt lat="45.92615" lon="6.35715">
        <ele>1696</ele>
        <time>2026-08-19T08:34:49.344Z</time>
      </trkpt>
      <trkpt lat="45.92616" lon="6.35715">
        <ele>1696</ele>
        <time>2026-08-19T08:34:50.344Z</time>
      </trkpt>
      <trkpt lat="45.92616" lon="6.35716">
        <ele>1696</ele>
        <time>2026-08-19T08:34:51.344Z</time>
      </trkpt>
      <trkpt lat="45.92617" lon="6.35716">
        <ele>1695</ele>
        <time>2026-08-19T08:34:52.344Z</time>
      </trkpt>
      <trkpt lat="45.92618" lon="6.35717">
        <ele>1695</ele>
        <time>2026-08-19T08:34:53.344Z</time>
      </trkpt>
      <trkpt lat="45.92618" lon="6.35718">
        <ele>1695</ele>
        <time>2026-08-19T08:34:54.344Z</time>
      </trkpt>
      <trkpt lat="45.92618" lon="6.35719">
        <ele>1695</ele>
        <time>2026-08-19T08:34:55.344Z</time>
      </trkpt>
      <trkpt lat="45.92619" lon="6.3572">
        <ele>1695</ele>
        <time>2026-08-19T08:34:56.344Z</time>
      </trkpt>
      <trkpt lat="45.92619" lon="6.35721">
        <ele>1694</ele>
        <time>2026-08-19T08:34:57.344Z</time>
      </trkpt>
      <trkpt lat="45.9262" lon="6.35722">
        <ele>1694</ele>
        <time>2026-08-19T08:34:58.344Z</time>
      </trkpt>
      <trkpt lat="45.9262" lon="6.35723">
        <ele>1695</ele>
        <time>2026-08-19T08:34:59.344Z</time>
      </trkpt>
      <trkpt lat="45.92621" lon="6.35723">
        <ele>1695</ele>
        <time>2026-08-19T08:35:00.344Z</time>
      </trkpt>
      <trkpt lat="45.92621" lon="6.35724">
        <ele>1695</ele>
        <time>2026-08-19T08:35:01.344Z</time>
      </trkpt>
      <trkpt lat="45.92622" lon="6.35724">
        <ele>1695</ele>
        <time>2026-08-19T08:35:02.344Z</time>
      </trkpt>
      <trkpt lat="45.92622" lon="6.35725">
        <ele>1695</ele>
        <time>2026-08-19T08:35:03.344Z</time>
      </trkpt>
      <trkpt lat="45.92623" lon="6.35726">
        <ele>1695</ele>
        <time>2026-08-19T08:35:04.344Z</time>
      </trkpt>
      <trkpt lat="45.92624" lon="6.35727">
        <ele>1695</ele>
        <time>2026-08-19T08:35:05.344Z</time>
      </trkpt>
      <trkpt lat="45.92625" lon="6.35728">
        <ele>1695</ele>
        <time>2026-08-19T08:35:06.344Z</time>
      </trkpt>
      <trkpt lat="45.92626" lon="6.35729">
        <ele>1695</ele>
        <time>2026-08-19T08:35:07.344Z</time>
      </trkpt>
      <trkpt lat="45.92627" lon="6.3573">
        <ele>1695</ele>
        <time>2026-08-19T08:35:08.344Z</time>
      </trkpt>
      <trkpt lat="45.92628" lon="6.35731">
        <ele>1695</ele>
        <time>2026-08-19T08:35:09.344Z</time>
      </trkpt>
      <trkpt lat="45.92628" lon="6.35732">
        <ele>1696</ele>
        <time>2026-08-19T08:35:10.344Z</time>
      </trkpt>
      <trkpt lat="45.92629" lon="6.35733">
        <ele>1696</ele>
        <time>2026-08-19T08:35:11.344Z</time>
      </trkpt>
      <trkpt lat="45.92629" lon="6.35734">
        <ele>1696</ele>
        <time>2026-08-19T08:35:12.344Z</time>
      </trkpt>
      <trkpt lat="45.9263" lon="6.35734">
        <ele>1696</ele>
        <time>2026-08-19T08:35:13.344Z</time>
      </trkpt>
      <trkpt lat="45.9263" lon="6.35735">
        <ele>1696</ele>
        <time>2026-08-19T08:35:14.344Z</time>
      </trkpt>
      <trkpt lat="45.92631" lon="6.35736">
        <ele>1697</ele>
        <time>2026-08-19T08:35:15.344Z</time>
      </trkpt>
      <trkpt lat="45.92631" lon="6.35737">
        <ele>1697</ele>
        <time>2026-08-19T08:35:16.344Z</time>
      </trkpt>
      <trkpt lat="45.92631" lon="6.35738">
        <ele>1697</ele>
        <time>2026-08-19T08:35:17.344Z</time>
      </trkpt>
      <trkpt lat="45.92632" lon="6.35738">
        <ele>1697</ele>
        <time>2026-08-19T08:35:18.344Z</time>
      </trkpt>
      <trkpt lat="45.92632" lon="6.35739">
        <ele>1698</ele>
        <time>2026-08-19T08:35:19.345Z</time>
      </trkpt>
      <trkpt lat="45.92633" lon="6.3574">
        <ele>1698</ele>
        <time>2026-08-19T08:35:20.344Z</time>
      </trkpt>
      <trkpt lat="45.92634" lon="6.35741">
        <ele>1699</ele>
        <time>2026-08-19T08:35:21.344Z</time>
      </trkpt>
      <trkpt lat="45.92634" lon="6.35741">
        <ele>1699</ele>
        <time>2026-08-19T08:35:22.344Z</time>
      </trkpt>
      <trkpt lat="45.92635" lon="6.35742">
        <ele>1700</ele>
        <time>2026-08-19T08:35:23.344Z</time>
      </trkpt>
      <trkpt lat="45.92636" lon="6.35742">
        <ele>1700</ele>
        <time>2026-08-19T08:35:24.344Z</time>
      </trkpt>
      <trkpt lat="45.92637" lon="6.35742">
        <ele>1700</ele>
        <time>2026-08-19T08:35:25.344Z</time>
      </trkpt>
      <trkpt lat="45.92637" lon="6.35743">
        <ele>1700</ele>
        <time>2026-08-19T08:35:26.344Z</time>
      </trkpt>
      <trkpt lat="45.92639" lon="6.35744">
        <ele>1701</ele>
        <time>2026-08-19T08:35:27.344Z</time>
      </trkpt>
      <trkpt lat="45.9264" lon="6.35745">
        <ele>1701</ele>
        <time>2026-08-19T08:35:28.344Z</time>
      </trkpt>
      <trkpt lat="45.9264" lon="6.35746">
        <ele>1701</ele>
        <time>2026-08-19T08:35:29.345Z</time>
      </trkpt>
      <trkpt lat="45.92641" lon="6.35747">
        <ele>1701</ele>
        <time>2026-08-19T08:35:30.344Z</time>
      </trkpt>
      <trkpt lat="45.92641" lon="6.35748">
        <ele>1701</ele>
        <time>2026-08-19T08:35:31.344Z</time>
      </trkpt>
      <trkpt lat="45.92643" lon="6.35749">
        <ele>1701</ele>
        <time>2026-08-19T08:35:32.344Z</time>
      </trkpt>
      <trkpt lat="45.92643" lon="6.35749">
        <ele>1701</ele>
        <time>2026-08-19T08:35:33.344Z</time>
      </trkpt>
      <trkpt lat="45.92644" lon="6.3575">
        <ele>1701</ele>
        <time>2026-08-19T08:35:34.344Z</time>
      </trkpt>
      <trkpt lat="45.92644" lon="6.35752">
        <ele>1701</ele>
        <time>2026-08-19T08:35:35.344Z</time>
      </trkpt>
      <trkpt lat="45.92644" lon="6.35753">
        <ele>1700</ele>
        <time>2026-08-19T08:35:36.344Z</time>
      </trkpt>
      <trkpt lat="45.92644" lon="6.35755">
        <ele>1700</ele>
        <time>2026-08-19T08:35:37.344Z</time>
      </trkpt>
      <trkpt lat="45.92644" lon="6.35756">
        <ele>1700</ele>
        <time>2026-08-19T08:35:38.344Z</time>
      </trkpt>
      <trkpt lat="45.92645" lon="6.35757">
        <ele>1700</ele>
        <time>2026-08-19T08:35:39.345Z</time>
      </trkpt>
      <trkpt lat="45.92645" lon="6.35758">
        <ele>1700</ele>
        <time>2026-08-19T08:35:40.344Z</time>
      </trkpt>
      <trkpt lat="45.92646" lon="6.35759">
        <ele>1700</ele>
        <time>2026-08-19T08:35:41.345Z</time>
      </trkpt>
      <trkpt lat="45.92647" lon="6.3576">
        <ele>1700</ele>
        <time>2026-08-19T08:35:42.344Z</time>
      </trkpt>
      <trkpt lat="45.92648" lon="6.35761">
        <ele>1700</ele>
        <time>2026-08-19T08:35:43.344Z</time>
      </trkpt>
      <trkpt lat="45.92648" lon="6.35762">
        <ele>1700</ele>
        <time>2026-08-19T08:35:44.344Z</time>
      </trkpt>
      <trkpt lat="45.92649" lon="6.35763">
        <ele>1701</ele>
        <time>2026-08-19T08:35:45.345Z</time>
      </trkpt>
      <trkpt lat="45.9265" lon="6.35764">
        <ele>1701</ele>
        <time>2026-08-19T08:35:46.344Z</time>
      </trkpt>
      <trkpt lat="45.92651" lon="6.35765">
        <ele>1701</ele>
        <time>2026-08-19T08:35:47.344Z</time>
      </trkpt>
      <trkpt lat="45.92652" lon="6.35766">
        <ele>1701</ele>
        <time>2026-08-19T08:35:48.344Z</time>
      </trkpt>
      <trkpt lat="45.92652" lon="6.35767">
        <ele>1701</ele>
        <time>2026-08-19T08:35:49.344Z</time>
      </trkpt>
      <trkpt lat="45.92653" lon="6.35767">
        <ele>1701</ele>
        <time>2026-08-19T08:35:50.344Z</time>
      </trkpt>
      <trkpt lat="45.92653" lon="6.35768">
        <ele>1701</ele>
        <time>2026-08-19T08:35:51.344Z</time>
      </trkpt>
      <trkpt lat="45.92654" lon="6.35769">
        <ele>1701</ele>
        <time>2026-08-19T08:35:52.344Z</time>
      </trkpt>
      <trkpt lat="45.92655" lon="6.35772">
        <ele>1701</ele>
        <time>2026-08-19T08:35:53.344Z</time>
      </trkpt>
      <trkpt lat="45.92656" lon="6.35774">
        <ele>1701</ele>
        <time>2026-08-19T08:35:54.344Z</time>
      </trkpt>
      <trkpt lat="45.92657" lon="6.35775">
        <ele>1701</ele>
        <time>2026-08-19T08:35:55.344Z</time>
      </trkpt>
      <trkpt lat="45.92658" lon="6.35775">
        <ele>1700</ele>
        <time>2026-08-19T08:35:56.344Z</time>
      </trkpt>
      <trkpt lat="45.92658" lon="6.35776">
        <ele>1700</ele>
        <time>2026-08-19T08:35:57.344Z</time>
      </trkpt>
      <trkpt lat="45.92659" lon="6.35777">
        <ele>1700</ele>
        <time>2026-08-19T08:35:58.345Z</time>
      </trkpt>
      <trkpt lat="45.9266" lon="6.35778">
        <ele>1701</ele>
        <time>2026-08-19T08:35:59.345Z</time>
      </trkpt>
      <trkpt lat="45.92662" lon="6.3578">
        <ele>1701</ele>
        <time>2026-08-19T08:36:00.344Z</time>
      </trkpt>
      <trkpt lat="45.92663" lon="6.35781">
        <ele>1702</ele>
        <time>2026-08-19T08:36:01.344Z</time>
      </trkpt>
      <trkpt lat="45.92664" lon="6.35782">
        <ele>1702</ele>
        <time>2026-08-19T08:36:02.344Z</time>
      </trkpt>
      <trkpt lat="45.92665" lon="6.35782">
        <ele>1702</ele>
        <time>2026-08-19T08:36:03.344Z</time>
      </trkpt>
      <trkpt lat="45.92666" lon="6.35783">
        <ele>1702</ele>
        <time>2026-08-19T08:36:04.344Z</time>
      </trkpt>
      <trkpt lat="45.92667" lon="6.35784">
        <ele>1703</ele>
        <time>2026-08-19T08:36:05.344Z</time>
      </trkpt>
      <trkpt lat="45.92668" lon="6.35785">
        <ele>1703</ele>
        <time>2026-08-19T08:36:06.344Z</time>
      </trkpt>
      <trkpt lat="45.9267" lon="6.35786">
        <ele>1703</ele>
        <time>2026-08-19T08:36:07.344Z</time>
      </trkpt>
      <trkpt lat="45.9267" lon="6.35787">
        <ele>1703</ele>
        <time>2026-08-19T08:36:08.344Z</time>
      </trkpt>
      <trkpt lat="45.92671" lon="6.35788">
        <ele>1704</ele>
        <time>2026-08-19T08:36:09.344Z</time>
      </trkpt>
      <trkpt lat="45.92672" lon="6.35789">
        <ele>1704</ele>
        <time>2026-08-19T08:36:10.344Z</time>
      </trkpt>
      <trkpt lat="45.92674" lon="6.3579">
        <ele>1704</ele>
        <time>2026-08-19T08:36:11.344Z</time>
      </trkpt>
      <trkpt lat="45.92675" lon="6.3579">
        <ele>1704</ele>
        <time>2026-08-19T08:36:12.344Z</time>
      </trkpt>
      <trkpt lat="45.92676" lon="6.35791">
        <ele>1705</ele>
        <time>2026-08-19T08:36:13.344Z</time>
      </trkpt>
      <trkpt lat="45.92676" lon="6.3579">
        <ele>1705</ele>
        <time>2026-08-19T08:36:14.344Z</time>
      </trkpt>
      <trkpt lat="45.92677" lon="6.35791">
        <ele>1705</ele>
        <time>2026-08-19T08:36:15.344Z</time>
      </trkpt>
      <trkpt lat="45.92678" lon="6.35792">
        <ele>1705</ele>
        <time>2026-08-19T08:36:16.344Z</time>
      </trkpt>
      <trkpt lat="45.92679" lon="6.35793">
        <ele>1705</ele>
        <time>2026-08-19T08:36:17.344Z</time>
      </trkpt>
      <trkpt lat="45.9268" lon="6.35794">
        <ele>1705</ele>
        <time>2026-08-19T08:36:18.344Z</time>
      </trkpt>
      <trkpt lat="45.9268" lon="6.35795">
        <ele>1705</ele>
        <time>2026-08-19T08:36:19.344Z</time>
      </trkpt>
      <trkpt lat="45.92681" lon="6.35796">
        <ele>1706</ele>
        <time>2026-08-19T08:36:20.345Z</time>
      </trkpt>
      <trkpt lat="45.92681" lon="6.35797">
        <ele>1706</ele>
        <time>2026-08-19T08:36:21.344Z</time>
      </trkpt>
      <trkpt lat="45.92682" lon="6.35798">
        <ele>1706</ele>
        <time>2026-08-19T08:36:22.344Z</time>
      </trkpt>
      <trkpt lat="45.92683" lon="6.35799">
        <ele>1706</ele>
        <time>2026-08-19T08:36:23.344Z</time>
      </trkpt>
      <trkpt lat="45.92684" lon="6.35799">
        <ele>1706</ele>
        <time>2026-08-19T08:36:24.344Z</time>
      </trkpt>
      <trkpt lat="45.92684" lon="6.358">
        <ele>1705</ele>
        <time>2026-08-19T08:36:25.344Z</time>
      </trkpt>
      <trkpt lat="45.92684" lon="6.35801">
        <ele>1706</ele>
        <time>2026-08-19T08:36:26.344Z</time>
      </trkpt>
      <trkpt lat="45.92684" lon="6.35803">
        <ele>1705</ele>
        <time>2026-08-19T08:36:27.344Z</time>
      </trkpt>
      <trkpt lat="45.92684" lon="6.35805">
        <ele>1706</ele>
        <time>2026-08-19T08:36:28.345Z</time>
      </trkpt>
      <trkpt lat="45.92685" lon="6.35806">
        <ele>1706</ele>
        <time>2026-08-19T08:36:29.344Z</time>
      </trkpt>
      <trkpt lat="45.92685" lon="6.35808">
        <ele>1706</ele>
        <time>2026-08-19T08:36:30.344Z</time>
      </trkpt>
      <trkpt lat="45.92685" lon="6.3581">
        <ele>1706</ele>
        <time>2026-08-19T08:36:31.344Z</time>
      </trkpt>
      <trkpt lat="45.92686" lon="6.35811">
        <ele>1706</ele>
        <time>2026-08-19T08:36:32.344Z</time>
      </trkpt>
      <trkpt lat="45.92686" lon="6.35813">
        <ele>1706</ele>
        <time>2026-08-19T08:36:33.344Z</time>
      </trkpt>
      <trkpt lat="45.92687" lon="6.35815">
        <ele>1706</ele>
        <time>2026-08-19T08:36:34.344Z</time>
      </trkpt>
      <trkpt lat="45.92688" lon="6.35817">
        <ele>1706</ele>
        <time>2026-08-19T08:36:35.344Z</time>
      </trkpt>
      <trkpt lat="45.92688" lon="6.35818">
        <ele>1705</ele>
        <time>2026-08-19T08:36:36.344Z</time>
      </trkpt>
      <trkpt lat="45.92689" lon="6.3582">
        <ele>1705</ele>
        <time>2026-08-19T08:36:37.344Z</time>
      </trkpt>
      <trkpt lat="45.9269" lon="6.35821">
        <ele>1705</ele>
        <time>2026-08-19T08:36:38.344Z</time>
      </trkpt>
      <trkpt lat="45.9269" lon="6.35823">
        <ele>1705</ele>
        <time>2026-08-19T08:36:39.344Z</time>
      </trkpt>
      <trkpt lat="45.92691" lon="6.35824">
        <ele>1704</ele>
        <time>2026-08-19T08:36:40.344Z</time>
      </trkpt>
      <trkpt lat="45.92691" lon="6.35825">
        <ele>1703</ele>
        <time>2026-08-19T08:36:41.344Z</time>
      </trkpt>
      <trkpt lat="45.92692" lon="6.35827">
        <ele>1703</ele>
        <time>2026-08-19T08:36:42.344Z</time>
      </trkpt>
      <trkpt lat="45.92692" lon="6.35828">
        <ele>1702</ele>
        <time>2026-08-19T08:36:43.344Z</time>
      </trkpt>
      <trkpt lat="45.92693" lon="6.3583">
        <ele>1702</ele>
        <time>2026-08-19T08:36:44.344Z</time>
      </trkpt>
      <trkpt lat="45.92694" lon="6.35831">
        <ele>1702</ele>
        <time>2026-08-19T08:36:45.344Z</time>
      </trkpt>
      <trkpt lat="45.92695" lon="6.35833">
        <ele>1702</ele>
        <time>2026-08-19T08:36:46.344Z</time>
      </trkpt>
      <trkpt lat="45.92696" lon="6.35834">
        <ele>1702</ele>
        <time>2026-08-19T08:36:47.344Z</time>
      </trkpt>
      <trkpt lat="45.92697" lon="6.35835">
        <ele>1702</ele>
        <time>2026-08-19T08:36:48.344Z</time>
      </trkpt>
      <trkpt lat="45.92698" lon="6.35837">
        <ele>1702</ele>
        <time>2026-08-19T08:36:49.345Z</time>
      </trkpt>
      <trkpt lat="45.92699" lon="6.35837">
        <ele>1701</ele>
        <time>2026-08-19T08:36:50.344Z</time>
      </trkpt>
      <trkpt lat="45.92699" lon="6.35838">
        <ele>1701</ele>
        <time>2026-08-19T08:36:51.344Z</time>
      </trkpt>
      <trkpt lat="45.927" lon="6.35839">
        <ele>1701</ele>
        <time>2026-08-19T08:36:52.344Z</time>
      </trkpt>
      <trkpt lat="45.92701" lon="6.35841">
        <ele>1700</ele>
        <time>2026-08-19T08:36:53.344Z</time>
      </trkpt>
      <trkpt lat="45.92702" lon="6.35842">
        <ele>1700</ele>
        <time>2026-08-19T08:36:54.344Z</time>
      </trkpt>
      <trkpt lat="45.92703" lon="6.35843">
        <ele>1700</ele>
        <time>2026-08-19T08:36:55.344Z</time>
      </trkpt>
      <trkpt lat="45.92704" lon="6.35844">
        <ele>1699</ele>
        <time>2026-08-19T08:36:56.344Z</time>
      </trkpt>
      <trkpt lat="45.92705" lon="6.35845">
        <ele>1699</ele>
        <time>2026-08-19T08:36:57.344Z</time>
      </trkpt>
      <trkpt lat="45.92706" lon="6.35845">
        <ele>1699</ele>
        <time>2026-08-19T08:36:58.344Z</time>
      </trkpt>
      <trkpt lat="45.92707" lon="6.35846">
        <ele>1699</ele>
        <time>2026-08-19T08:36:59.344Z</time>
      </trkpt>
      <trkpt lat="45.92708" lon="6.35847">
        <ele>1699</ele>
        <time>2026-08-19T08:37:00.344Z</time>
      </trkpt>
      <trkpt lat="45.92709" lon="6.35848">
        <ele>1699</ele>
        <time>2026-08-19T08:37:01.344Z</time>
      </trkpt>
      <trkpt lat="45.9271" lon="6.35849">
        <ele>1699</ele>
        <time>2026-08-19T08:37:02.344Z</time>
      </trkpt>
      <trkpt lat="45.92711" lon="6.3585">
        <ele>1699</ele>
        <time>2026-08-19T08:37:03.344Z</time>
      </trkpt>
      <trkpt lat="45.92713" lon="6.35851">
        <ele>1699</ele>
        <time>2026-08-19T08:37:04.344Z</time>
      </trkpt>
      <trkpt lat="45.92714" lon="6.35852">
        <ele>1700</ele>
        <time>2026-08-19T08:37:05.344Z</time>
      </trkpt>
      <trkpt lat="45.92715" lon="6.35853">
        <ele>1700</ele>
        <time>2026-08-19T08:37:06.344Z</time>
      </trkpt>
      <trkpt lat="45.92716" lon="6.35855">
        <ele>1700</ele>
        <time>2026-08-19T08:37:07.344Z</time>
      </trkpt>
      <trkpt lat="45.92717" lon="6.35856">
        <ele>1700</ele>
        <time>2026-08-19T08:37:08.344Z</time>
      </trkpt>
      <trkpt lat="45.92718" lon="6.35857">
        <ele>1700</ele>
        <time>2026-08-19T08:37:09.344Z</time>
      </trkpt>
      <trkpt lat="45.92719" lon="6.35858">
        <ele>1700</ele>
        <time>2026-08-19T08:37:10.344Z</time>
      </trkpt>
      <trkpt lat="45.9272" lon="6.35859">
        <ele>1700</ele>
        <time>2026-08-19T08:37:11.344Z</time>
      </trkpt>
      <trkpt lat="45.92722" lon="6.3586">
        <ele>1700</ele>
        <time>2026-08-19T08:37:12.344Z</time>
      </trkpt>
      <trkpt lat="45.92723" lon="6.35861">
        <ele>1700</ele>
        <time>2026-08-19T08:37:13.344Z</time>
      </trkpt>
      <trkpt lat="45.92724" lon="6.35862">
        <ele>1700</ele>
        <time>2026-08-19T08:37:14.344Z</time>
      </trkpt>
      <trkpt lat="45.92726" lon="6.35863">
        <ele>1699</ele>
        <time>2026-08-19T08:37:15.344Z</time>
      </trkpt>
      <trkpt lat="45.92726" lon="6.35863">
        <ele>1699</ele>
        <time>2026-08-19T08:37:16.345Z</time>
      </trkpt>
      <trkpt lat="45.92727" lon="6.35863">
        <ele>1699</ele>
        <time>2026-08-19T08:37:17.344Z</time>
      </trkpt>
      <trkpt lat="45.92728" lon="6.35865">
        <ele>1699</ele>
        <time>2026-08-19T08:37:18.344Z</time>
      </trkpt>
      <trkpt lat="45.92729" lon="6.35866">
        <ele>1699</ele>
        <time>2026-08-19T08:37:19.344Z</time>
      </trkpt>
      <trkpt lat="45.92729" lon="6.35868">
        <ele>1699</ele>
        <time>2026-08-19T08:37:20.344Z</time>
      </trkpt>
      <trkpt lat="45.9273" lon="6.35869">
        <ele>1698</ele>
        <time>2026-08-19T08:37:21.344Z</time>
      </trkpt>
      <trkpt lat="45.92731" lon="6.3587">
        <ele>1698</ele>
        <time>2026-08-19T08:37:22.344Z</time>
      </trkpt>
      <trkpt lat="45.92733" lon="6.3587">
        <ele>1698</ele>
        <time>2026-08-19T08:37:23.344Z</time>
      </trkpt>
      <trkpt lat="45.92734" lon="6.3587">
        <ele>1697</ele>
        <time>2026-08-19T08:37:24.345Z</time>
      </trkpt>
      <trkpt lat="45.92735" lon="6.3587">
        <ele>1697</ele>
        <time>2026-08-19T08:37:25.344Z</time>
      </trkpt>
      <trkpt lat="45.92736" lon="6.35871">
        <ele>1696</ele>
        <time>2026-08-19T08:37:26.344Z</time>
      </trkpt>
      <trkpt lat="45.92738" lon="6.35871">
        <ele>1696</ele>
        <time>2026-08-19T08:37:27.344Z</time>
      </trkpt>
      <trkpt lat="45.9274" lon="6.35871">
        <ele>1696</ele>
        <time>2026-08-19T08:37:28.344Z</time>
      </trkpt>
      <trkpt lat="45.9274" lon="6.35871">
        <ele>1696</ele>
        <time>2026-08-19T08:37:29.344Z</time>
      </trkpt>
      <trkpt lat="45.92741" lon="6.35871">
        <ele>1695</ele>
        <time>2026-08-19T08:37:30.344Z</time>
      </trkpt>
      <trkpt lat="45.92742" lon="6.35871">
        <ele>1695</ele>
        <time>2026-08-19T08:37:31.344Z</time>
      </trkpt>
      <trkpt lat="45.92743" lon="6.35872">
        <ele>1696</ele>
        <time>2026-08-19T08:37:32.345Z</time>
      </trkpt>
      <trkpt lat="45.92743" lon="6.35872">
        <ele>1696</ele>
        <time>2026-08-19T08:37:33.344Z</time>
      </trkpt>
      <trkpt lat="45.92744" lon="6.35873">
        <ele>1697</ele>
        <time>2026-08-19T08:37:34.344Z</time>
      </trkpt>
      <trkpt lat="45.92745" lon="6.35873">
        <ele>1697</ele>
        <time>2026-08-19T08:37:35.344Z</time>
      </trkpt>
      <trkpt lat="45.92745" lon="6.35873">
        <ele>1697</ele>
        <time>2026-08-19T08:37:36.344Z</time>
      </trkpt>
      <trkpt lat="45.92745" lon="6.35874">
        <ele>1698</ele>
        <time>2026-08-19T08:37:37.344Z</time>
      </trkpt>
      <trkpt lat="45.92745" lon="6.35875">
        <ele>1698</ele>
        <time>2026-08-19T08:37:38.344Z</time>
      </trkpt>
      <trkpt lat="45.92745" lon="6.35875">
        <ele>1699</ele>
        <time>2026-08-19T08:37:39.344Z</time>
      </trkpt>
      <trkpt lat="45.92746" lon="6.35874">
        <ele>1699</ele>
        <time>2026-08-19T08:37:40.344Z</time>
      </trkpt>
      <trkpt lat="45.92747" lon="6.35875">
        <ele>1699</ele>
        <time>2026-08-19T08:37:41.344Z</time>
      </trkpt>
      <trkpt lat="45.92748" lon="6.35875">
        <ele>1700</ele>
        <time>2026-08-19T08:37:42.344Z</time>
      </trkpt>
      <trkpt lat="45.92749" lon="6.35876">
        <ele>1700</ele>
        <time>2026-08-19T08:37:43.344Z</time>
      </trkpt>
      <trkpt lat="45.9275" lon="6.35877">
        <ele>1701</ele>
        <time>2026-08-19T08:37:44.344Z</time>
      </trkpt>
      <trkpt lat="45.9275" lon="6.35878">
        <ele>1701</ele>
        <time>2026-08-19T08:37:45.344Z</time>
      </trkpt>
      <trkpt lat="45.92751" lon="6.35879">
        <ele>1701</ele>
        <time>2026-08-19T08:37:46.344Z</time>
      </trkpt>
      <trkpt lat="45.92751" lon="6.35879">
        <ele>1701</ele>
        <time>2026-08-19T08:37:47.344Z</time>
      </trkpt>
      <trkpt lat="45.92752" lon="6.3588">
        <ele>1701</ele>
        <time>2026-08-19T08:37:48.344Z</time>
      </trkpt>
      <trkpt lat="45.92753" lon="6.35881">
        <ele>1701</ele>
        <time>2026-08-19T08:37:49.344Z</time>
      </trkpt>
      <trkpt lat="45.92753" lon="6.35883">
        <ele>1701</ele>
        <time>2026-08-19T08:37:50.344Z</time>
      </trkpt>
      <trkpt lat="45.92753" lon="6.35884">
        <ele>1701</ele>
        <time>2026-08-19T08:37:51.344Z</time>
      </trkpt>
      <trkpt lat="45.92753" lon="6.35885">
        <ele>1701</ele>
        <time>2026-08-19T08:37:52.344Z</time>
      </trkpt>
      <trkpt lat="45.92754" lon="6.35886">
        <ele>1701</ele>
        <time>2026-08-19T08:37:53.344Z</time>
      </trkpt>
      <trkpt lat="45.92754" lon="6.35888">
        <ele>1701</ele>
        <time>2026-08-19T08:37:54.344Z</time>
      </trkpt>
      <trkpt lat="45.92755" lon="6.35889">
        <ele>1701</ele>
        <time>2026-08-19T08:37:55.344Z</time>
      </trkpt>
      <trkpt lat="45.92755" lon="6.35889">
        <ele>1702</ele>
        <time>2026-08-19T08:37:56.344Z</time>
      </trkpt>
      <trkpt lat="45.92755" lon="6.3589">
        <ele>1702</ele>
        <time>2026-08-19T08:37:57.344Z</time>
      </trkpt>
      <trkpt lat="45.92755" lon="6.3589">
        <ele>1702</ele>
        <time>2026-08-19T08:37:58.344Z</time>
      </trkpt>
      <trkpt lat="45.92755" lon="6.3589">
        <ele>1702</ele>
        <time>2026-08-19T08:37:59.344Z</time>
      </trkpt>
      <trkpt lat="45.92756" lon="6.3589">
        <ele>1702</ele>
        <time>2026-08-19T08:38:00.344Z</time>
      </trkpt>
      <trkpt lat="45.92756" lon="6.3589">
        <ele>1703</ele>
        <time>2026-08-19T08:38:01.344Z</time>
      </trkpt>
      <trkpt lat="45.92756" lon="6.35891">
        <ele>1703</ele>
        <time>2026-08-19T08:38:02.344Z</time>
      </trkpt>
      <trkpt lat="45.92757" lon="6.35892">
        <ele>1703</ele>
        <time>2026-08-19T08:38:03.344Z</time>
      </trkpt>
      <trkpt lat="45.92758" lon="6.35892">
        <ele>1703</ele>
        <time>2026-08-19T08:38:04.344Z</time>
      </trkpt>
      <trkpt lat="45.92759" lon="6.35893">
        <ele>1703</ele>
        <time>2026-08-19T08:38:05.345Z</time>
      </trkpt>
      <trkpt lat="45.9276" lon="6.35893">
        <ele>1703</ele>
        <time>2026-08-19T08:38:06.344Z</time>
      </trkpt>
      <trkpt lat="45.92761" lon="6.35894">
        <ele>1702</ele>
        <time>2026-08-19T08:38:07.344Z</time>
      </trkpt>
      <trkpt lat="45.92762" lon="6.35894">
        <ele>1702</ele>
        <time>2026-08-19T08:38:08.344Z</time>
      </trkpt>
      <trkpt lat="45.92763" lon="6.35894">
        <ele>1702</ele>
        <time>2026-08-19T08:38:09.344Z</time>
      </trkpt>
      <trkpt lat="45.92763" lon="6.35894">
        <ele>1702</ele>
        <time>2026-08-19T08:38:10.344Z</time>
      </trkpt>
      <trkpt lat="45.92764" lon="6.35894">
        <ele>1702</ele>
        <time>2026-08-19T08:38:11.344Z</time>
      </trkpt>
      <trkpt lat="45.92764" lon="6.35894">
        <ele>1702</ele>
        <time>2026-08-19T08:38:12.344Z</time>
      </trkpt>
      <trkpt lat="45.92764" lon="6.35894">
        <ele>1702</ele>
        <time>2026-08-19T08:38:13.344Z</time>
      </trkpt>
      <trkpt lat="45.92764" lon="6.35894">
        <ele>1702</ele>
        <time>2026-08-19T08:38:14.345Z</time>
      </trkpt>
      <trkpt lat="45.92763" lon="6.35894">
        <ele>1703</ele>
        <time>2026-08-19T08:38:15.344Z</time>
      </trkpt>
      <trkpt lat="45.92762" lon="6.35893">
        <ele>1702</ele>
        <time>2026-08-19T08:38:16.344Z</time>
      </trkpt>
      <trkpt lat="45.9276" lon="6.35892">
        <ele>1702</ele>
        <time>2026-08-19T08:38:17.344Z</time>
      </trkpt>
      <trkpt lat="45.92759" lon="6.35892">
        <ele>1702</ele>
        <time>2026-08-19T08:38:18.345Z</time>
      </trkpt>
      <trkpt lat="45.92758" lon="6.35891">
        <ele>1702</ele>
        <time>2026-08-19T08:38:19.344Z</time>
      </trkpt>
      <trkpt lat="45.92757" lon="6.3589">
        <ele>1702</ele>
        <time>2026-08-19T08:38:20.344Z</time>
      </trkpt>
      <trkpt lat="45.92756" lon="6.3589">
        <ele>1702</ele>
        <time>2026-08-19T08:38:21.344Z</time>
      </trkpt>
      <trkpt lat="45.92755" lon="6.3589">
        <ele>1702</ele>
        <time>2026-08-19T08:38:22.344Z</time>
      </trkpt>
      <trkpt lat="45.92754" lon="6.35889">
        <ele>1702</ele>
        <time>2026-08-19T08:38:23.344Z</time>
      </trkpt>
      <trkpt lat="45.92753" lon="6.35889">
        <ele>1702</ele>
        <time>2026-08-19T08:38:24.344Z</time>
      </trkpt>
      <trkpt lat="45.92752" lon="6.35889">
        <ele>1702</ele>
        <time>2026-08-19T08:38:25.344Z</time>
      </trkpt>
      <trkpt lat="45.92751" lon="6.35888">
        <ele>1702</ele>
        <time>2026-08-19T08:38:26.344Z</time>
      </trkpt>
      <trkpt lat="45.92751" lon="6.35887">
        <ele>1702</ele>
        <time>2026-08-19T08:38:27.344Z</time>
      </trkpt>
      <trkpt lat="45.92751" lon="6.35885">
        <ele>1702</ele>
        <time>2026-08-19T08:38:28.344Z</time>
      </trkpt>
      <trkpt lat="45.9275" lon="6.35883">
        <ele>1701</ele>
        <time>2026-08-19T08:38:29.344Z</time>
      </trkpt>
      <trkpt lat="45.9275" lon="6.35882">
        <ele>1701</ele>
        <time>2026-08-19T08:38:30.344Z</time>
      </trkpt>
      <trkpt lat="45.9275" lon="6.3588">
        <ele>1701</ele>
        <time>2026-08-19T08:38:31.344Z</time>
      </trkpt>
      <trkpt lat="45.92749" lon="6.35879">
        <ele>1701</ele>
        <time>2026-08-19T08:38:32.344Z</time>
      </trkpt>
      <trkpt lat="45.92749" lon="6.35878">
        <ele>1701</ele>
        <time>2026-08-19T08:38:33.344Z</time>
      </trkpt>
      <trkpt lat="45.92748" lon="6.35876">
        <ele>1701</ele>
        <time>2026-08-19T08:38:34.344Z</time>
      </trkpt>
      <trkpt lat="45.92747" lon="6.35875">
        <ele>1701</ele>
        <time>2026-08-19T08:38:35.344Z</time>
      </trkpt>
      <trkpt lat="45.92746" lon="6.35875">
        <ele>1701</ele>
        <time>2026-08-19T08:38:36.344Z</time>
      </trkpt>
      <trkpt lat="45.92746" lon="6.35874">
        <ele>1701</ele>
        <time>2026-08-19T08:38:37.344Z</time>
      </trkpt>
      <trkpt lat="45.92745" lon="6.35875">
        <ele>1701</ele>
        <time>2026-08-19T08:38:38.344Z</time>
      </trkpt>
      <trkpt lat="45.92744" lon="6.35874">
        <ele>1701</ele>
        <time>2026-08-19T08:38:39.344Z</time>
      </trkpt>
      <trkpt lat="45.92743" lon="6.35875">
        <ele>1702</ele>
        <time>2026-08-19T08:38:40.344Z</time>
      </trkpt>
      <trkpt lat="45.92743" lon="6.35874">
        <ele>1702</ele>
        <time>2026-08-19T08:38:41.344Z</time>
      </trkpt>
      <trkpt lat="45.92742" lon="6.35874">
        <ele>1702</ele>
        <time>2026-08-19T08:38:42.344Z</time>
      </trkpt>
      <trkpt lat="45.92742" lon="6.35874">
        <ele>1703</ele>
        <time>2026-08-19T08:38:43.344Z</time>
      </trkpt>
      <trkpt lat="45.92741" lon="6.35873">
        <ele>1703</ele>
        <time>2026-08-19T08:38:44.344Z</time>
      </trkpt>
      <trkpt lat="45.92741" lon="6.35873">
        <ele>1702</ele>
        <time>2026-08-19T08:38:45.344Z</time>
      </trkpt>
      <trkpt lat="45.9274" lon="6.35872">
        <ele>1702</ele>
        <time>2026-08-19T08:38:46.344Z</time>
      </trkpt>
      <trkpt lat="45.9274" lon="6.35871">
        <ele>1702</ele>
        <time>2026-08-19T08:38:47.344Z</time>
      </trkpt>
      <trkpt lat="45.92739" lon="6.35871">
        <ele>1702</ele>
        <time>2026-08-19T08:38:48.344Z</time>
      </trkpt>
      <trkpt lat="45.92739" lon="6.35871">
        <ele>1702</ele>
        <time>2026-08-19T08:38:49.344Z</time>
      </trkpt>
      <trkpt lat="45.92738" lon="6.35871">
        <ele>1702</ele>
        <time>2026-08-19T08:38:50.344Z</time>
      </trkpt>
      <trkpt lat="45.92737" lon="6.35871">
        <ele>1703</ele>
        <time>2026-08-19T08:38:51.344Z</time>
      </trkpt>
      <trkpt lat="45.92737" lon="6.35871">
        <ele>1703</ele>
        <time>2026-08-19T08:38:52.344Z</time>
      </trkpt>
      <trkpt lat="45.92736" lon="6.35871">
        <ele>1702</ele>
        <time>2026-08-19T08:38:53.344Z</time>
      </trkpt>
      <trkpt lat="45.92735" lon="6.35871">
        <ele>1702</ele>
        <time>2026-08-19T08:38:54.344Z</time>
      </trkpt>
      <trkpt lat="45.92735" lon="6.35871">
        <ele>1702</ele>
        <time>2026-08-19T08:38:55.344Z</time>
      </trkpt>
      <trkpt lat="45.92734" lon="6.35871">
        <ele>1701</ele>
        <time>2026-08-19T08:38:56.344Z</time>
      </trkpt>
      <trkpt lat="45.92733" lon="6.35871">
        <ele>1701</ele>
        <time>2026-08-19T08:38:57.345Z</time>
      </trkpt>
      <trkpt lat="45.92732" lon="6.35871">
        <ele>1701</ele>
        <time>2026-08-19T08:38:58.344Z</time>
      </trkpt>
      <trkpt lat="45.92731" lon="6.35871">
        <ele>1701</ele>
        <time>2026-08-19T08:38:59.344Z</time>
      </trkpt>
      <trkpt lat="45.9273" lon="6.35871">
        <ele>1701</ele>
        <time>2026-08-19T08:39:00.344Z</time>
      </trkpt>
      <trkpt lat="45.92729" lon="6.3587">
        <ele>1701</ele>
        <time>2026-08-19T08:39:01.344Z</time>
      </trkpt>
      <trkpt lat="45.92728" lon="6.35869">
        <ele>1700</ele>
        <time>2026-08-19T08:39:02.344Z</time>
      </trkpt>
      <trkpt lat="45.92727" lon="6.35868">
        <ele>1700</ele>
        <time>2026-08-19T08:39:03.344Z</time>
      </trkpt>
      <trkpt lat="45.92726" lon="6.35866">
        <ele>1700</ele>
        <time>2026-08-19T08:39:04.344Z</time>
      </trkpt>
      <trkpt lat="45.92725" lon="6.35864">
        <ele>1700</ele>
        <time>2026-08-19T08:39:05.344Z</time>
      </trkpt>
      <trkpt lat="45.92724" lon="6.35863">
        <ele>1700</ele>
        <time>2026-08-19T08:39:06.344Z</time>
      </trkpt>
      <trkpt lat="45.92722" lon="6.35861">
        <ele>1700</ele>
        <time>2026-08-19T08:39:07.344Z</time>
      </trkpt>
      <trkpt lat="45.9272" lon="6.3586">
        <ele>1700</ele>
        <time>2026-08-19T08:39:08.344Z</time>
      </trkpt>
      <trkpt lat="45.92719" lon="6.35859">
        <ele>1700</ele>
        <time>2026-08-19T08:39:09.344Z</time>
      </trkpt>
      <trkpt lat="45.92718" lon="6.35858">
        <ele>1700</ele>
        <time>2026-08-19T08:39:10.344Z</time>
      </trkpt>
      <trkpt lat="45.92717" lon="6.35857">
        <ele>1700</ele>
        <time>2026-08-19T08:39:11.344Z</time>
      </trkpt>
      <trkpt lat="45.92716" lon="6.35856">
        <ele>1700</ele>
        <time>2026-08-19T08:39:12.344Z</time>
      </trkpt>
      <trkpt lat="45.92715" lon="6.35855">
        <ele>1700</ele>
        <time>2026-08-19T08:39:13.344Z</time>
      </trkpt>
      <trkpt lat="45.92714" lon="6.35854">
        <ele>1700</ele>
        <time>2026-08-19T08:39:14.344Z</time>
      </trkpt>
      <trkpt lat="45.92714" lon="6.35854">
        <ele>1700</ele>
        <time>2026-08-19T08:39:15.344Z</time>
      </trkpt>
      <trkpt lat="45.92714" lon="6.35855">
        <ele>1700</ele>
        <time>2026-08-19T08:39:16.344Z</time>
      </trkpt>
      <trkpt lat="45.92714" lon="6.35856">
        <ele>1701</ele>
        <time>2026-08-19T08:39:17.344Z</time>
      </trkpt>
      <trkpt lat="45.92715" lon="6.35857">
        <ele>1701</ele>
        <time>2026-08-19T08:39:18.344Z</time>
      </trkpt>
      <trkpt lat="45.92716" lon="6.35857">
        <ele>1701</ele>
        <time>2026-08-19T08:39:19.344Z</time>
      </trkpt>
      <trkpt lat="45.92717" lon="6.35858">
        <ele>1700</ele>
        <time>2026-08-19T08:39:20.344Z</time>
      </trkpt>
      <trkpt lat="45.92718" lon="6.35858">
        <ele>1700</ele>
        <time>2026-08-19T08:39:21.344Z</time>
      </trkpt>
      <trkpt lat="45.92718" lon="6.35858">
        <ele>1700</ele>
        <time>2026-08-19T08:39:22.344Z</time>
      </trkpt>
      <trkpt lat="45.92719" lon="6.35859">
        <ele>1700</ele>
        <time>2026-08-19T08:39:23.344Z</time>
      </trkpt>
      <trkpt lat="45.92719" lon="6.35859">
        <ele>1699</ele>
        <time>2026-08-19T08:39:24.344Z</time>
      </trkpt>
      <trkpt lat="45.92719" lon="6.35859">
        <ele>1699</ele>
        <time>2026-08-19T08:39:25.344Z</time>
      </trkpt>
      <trkpt lat="45.92719" lon="6.3586">
        <ele>1698</ele>
        <time>2026-08-19T08:39:26.344Z</time>
      </trkpt>
      <trkpt lat="45.9272" lon="6.3586">
        <ele>1698</ele>
        <time>2026-08-19T08:39:27.344Z</time>
      </trkpt>
      <trkpt lat="45.9272" lon="6.3586">
        <ele>1698</ele>
        <time>2026-08-19T08:39:28.344Z</time>
      </trkpt>
      <trkpt lat="45.9272" lon="6.3586">
        <ele>1699</ele>
        <time>2026-08-19T08:39:29.344Z</time>
      </trkpt>
      <trkpt lat="45.9272" lon="6.3586">
        <ele>1699</ele>
        <time>2026-08-19T08:39:30.344Z</time>
      </trkpt>
      <trkpt lat="45.9272" lon="6.3586">
        <ele>1699</ele>
        <time>2026-08-19T08:39:31.344Z</time>
      </trkpt>
      <trkpt lat="45.9272" lon="6.3586">
        <ele>1699</ele>
        <time>2026-08-19T08:39:32.345Z</time>
      </trkpt>
      <trkpt lat="45.9272" lon="6.3586">
        <ele>1699</ele>
        <time>2026-08-19T08:39:33.344Z</time>
      </trkpt>
      <trkpt lat="45.9272" lon="6.3586">
        <ele>1699</ele>
        <time>2026-08-19T08:39:34.344Z</time>
      </trkpt>
      <trkpt lat="45.9272" lon="6.3586">
        <ele>1699</ele>
        <time>2026-08-19T08:39:35.344Z</time>
      </trkpt>
      <trkpt lat="45.92722" lon="6.35861">
        <ele>1699</ele>
        <time>2026-08-19T08:39:36.344Z</time>
      </trkpt>
      <trkpt lat="45.92724" lon="6.35862">
        <ele>1699</ele>
        <time>2026-08-19T08:39:37.344Z</time>
      </trkpt>
      <trkpt lat="45.92725" lon="6.35863">
        <ele>1700</ele>
        <time>2026-08-19T08:39:38.344Z</time>
      </trkpt>
      <trkpt lat="45.92726" lon="6.35864">
        <ele>1700</ele>
        <time>2026-08-19T08:39:39.344Z</time>
      </trkpt>
      <trkpt lat="45.92726" lon="6.35864">
        <ele>1700</ele>
        <time>2026-08-19T08:39:40.344Z</time>
      </trkpt>
      <trkpt lat="45.92727" lon="6.35864">
        <ele>1699</ele>
        <time>2026-08-19T08:39:41.344Z</time>
      </trkpt>
      <trkpt lat="45.92728" lon="6.35865">
        <ele>1699</ele>
        <time>2026-08-19T08:39:42.344Z</time>
      </trkpt>
      <trkpt lat="45.92728" lon="6.35865">
        <ele>1699</ele>
        <time>2026-08-19T08:39:43.344Z</time>
      </trkpt>
      <trkpt lat="45.92728" lon="6.35865">
        <ele>1700</ele>
        <time>2026-08-19T08:39:44.344Z</time>
      </trkpt>
      <trkpt lat="45.92728" lon="6.35866">
        <ele>1700</ele>
        <time>2026-08-19T08:39:45.344Z</time>
      </trkpt>
      <trkpt lat="45.92729" lon="6.35866">
        <ele>1700</ele>
        <time>2026-08-19T08:39:46.344Z</time>
      </trkpt>
      <trkpt lat="45.9273" lon="6.35866">
        <ele>1700</ele>
        <time>2026-08-19T08:39:47.344Z</time>
      </trkpt>
      <trkpt lat="45.9273" lon="6.35868">
        <ele>1700</ele>
        <time>2026-08-19T08:39:48.344Z</time>
      </trkpt>
      <trkpt lat="45.92731" lon="6.35869">
        <ele>1700</ele>
        <time>2026-08-19T08:39:49.344Z</time>
      </trkpt>
      <trkpt lat="45.92732" lon="6.35871">
        <ele>1700</ele>
        <time>2026-08-19T08:39:50.344Z</time>
      </trkpt>
      <trkpt lat="45.92733" lon="6.35871">
        <ele>1700</ele>
        <time>2026-08-19T08:39:51.344Z</time>
      </trkpt>
      <trkpt lat="45.92734" lon="6.35872">
        <ele>1700</ele>
        <time>2026-08-19T08:39:52.344Z</time>
      </trkpt>
      <trkpt lat="45.92734" lon="6.35872">
        <ele>1700</ele>
        <time>2026-08-19T08:39:53.344Z</time>
      </trkpt>
      <trkpt lat="45.92735" lon="6.35872">
        <ele>1700</ele>
        <time>2026-08-19T08:39:54.344Z</time>
      </trkpt>
      <trkpt lat="45.92736" lon="6.35872">
        <ele>1700</ele>
        <time>2026-08-19T08:39:55.344Z</time>
      </trkpt>
      <trkpt lat="45.92737" lon="6.35873">
        <ele>1700</ele>
        <time>2026-08-19T08:39:56.344Z</time>
      </trkpt>
      <trkpt lat="45.92738" lon="6.35874">
        <ele>1700</ele>
        <time>2026-08-19T08:39:57.344Z</time>
      </trkpt>
      <trkpt lat="45.92739" lon="6.35875">
        <ele>1700</ele>
        <time>2026-08-19T08:39:58.344Z</time>
      </trkpt>
      <trkpt lat="45.9274" lon="6.35875">
        <ele>1700</ele>
        <time>2026-08-19T08:39:59.344Z</time>
      </trkpt>
      <trkpt lat="45.92741" lon="6.35876">
        <ele>1700</ele>
        <time>2026-08-19T08:40:00.344Z</time>
      </trkpt>
      <trkpt lat="45.92742" lon="6.35876">
        <ele>1700</ele>
        <time>2026-08-19T08:40:01.344Z</time>
      </trkpt>
      <trkpt lat="45.92744" lon="6.35877">
        <ele>1701</ele>
        <time>2026-08-19T08:40:02.344Z</time>
      </trkpt>
      <trkpt lat="45.92745" lon="6.35877">
        <ele>1701</ele>
        <time>2026-08-19T08:40:03.344Z</time>
      </trkpt>
      <trkpt lat="45.92746" lon="6.35878">
        <ele>1701</ele>
        <time>2026-08-19T08:40:04.344Z</time>
      </trkpt>
      <trkpt lat="45.92747" lon="6.35879">
        <ele>1701</ele>
        <time>2026-08-19T08:40:05.344Z</time>
      </trkpt>
      <trkpt lat="45.92748" lon="6.35881">
        <ele>1701</ele>
        <time>2026-08-19T08:40:06.344Z</time>
      </trkpt>
      <trkpt lat="45.92749" lon="6.35883">
        <ele>1701</ele>
        <time>2026-08-19T08:40:07.344Z</time>
      </trkpt>
      <trkpt lat="45.92749" lon="6.35885">
        <ele>1702</ele>
        <time>2026-08-19T08:40:08.344Z</time>
      </trkpt>
      <trkpt lat="45.9275" lon="6.35886">
        <ele>1702</ele>
        <time>2026-08-19T08:40:09.344Z</time>
      </trkpt>
      <trkpt lat="45.9275" lon="6.35888">
        <ele>1702</ele>
        <time>2026-08-19T08:40:10.344Z</time>
      </trkpt>
      <trkpt lat="45.92751" lon="6.35889">
        <ele>1702</ele>
        <time>2026-08-19T08:40:11.344Z</time>
      </trkpt>
      <trkpt lat="45.92752" lon="6.3589">
        <ele>1702</ele>
        <time>2026-08-19T08:40:12.344Z</time>
      </trkpt>
      <trkpt lat="45.92753" lon="6.35891">
        <ele>1702</ele>
        <time>2026-08-19T08:40:13.344Z</time>
      </trkpt>
      <trkpt lat="45.92755" lon="6.35891">
        <ele>1703</ele>
        <time>2026-08-19T08:40:14.344Z</time>
      </trkpt>
      <trkpt lat="45.92756" lon="6.35892">
        <ele>1703</ele>
        <time>2026-08-19T08:40:15.344Z</time>
      </trkpt>
      <trkpt lat="45.92757" lon="6.35892">
        <ele>1703</ele>
        <time>2026-08-19T08:40:16.344Z</time>
      </trkpt>
      <trkpt lat="45.92758" lon="6.35893">
        <ele>1703</ele>
        <time>2026-08-19T08:40:17.344Z</time>
      </trkpt>
      <trkpt lat="45.92759" lon="6.35894">
        <ele>1703</ele>
        <time>2026-08-19T08:40:18.344Z</time>
      </trkpt>
      <trkpt lat="45.9276" lon="6.35894">
        <ele>1703</ele>
        <time>2026-08-19T08:40:19.344Z</time>
      </trkpt>
      <trkpt lat="45.92761" lon="6.35895">
        <ele>1703</ele>
        <time>2026-08-19T08:40:20.344Z</time>
      </trkpt>
      <trkpt lat="45.92762" lon="6.35895">
        <ele>1703</ele>
        <time>2026-08-19T08:40:21.344Z</time>
      </trkpt>
      <trkpt lat="45.92763" lon="6.35896">
        <ele>1703</ele>
        <time>2026-08-19T08:40:22.344Z</time>
      </trkpt>
      <trkpt lat="45.92764" lon="6.35896">
        <ele>1703</ele>
        <time>2026-08-19T08:40:23.344Z</time>
      </trkpt>
      <trkpt lat="45.92765" lon="6.35898">
        <ele>1703</ele>
        <time>2026-08-19T08:40:24.344Z</time>
      </trkpt>
      <trkpt lat="45.92766" lon="6.35898">
        <ele>1703</ele>
        <time>2026-08-19T08:40:25.344Z</time>
      </trkpt>
      <trkpt lat="45.92767" lon="6.35899">
        <ele>1704</ele>
        <time>2026-08-19T08:40:26.344Z</time>
      </trkpt>
      <trkpt lat="45.92768" lon="6.359">
        <ele>1704</ele>
        <time>2026-08-19T08:40:27.344Z</time>
      </trkpt>
      <trkpt lat="45.92769" lon="6.35901">
        <ele>1704</ele>
        <time>2026-08-19T08:40:28.344Z</time>
      </trkpt>
      <trkpt lat="45.92769" lon="6.35903">
        <ele>1704</ele>
        <time>2026-08-19T08:40:29.344Z</time>
      </trkpt>
      <trkpt lat="45.9277" lon="6.35904">
        <ele>1703</ele>
        <time>2026-08-19T08:40:30.344Z</time>
      </trkpt>
      <trkpt lat="45.92771" lon="6.35905">
        <ele>1703</ele>
        <time>2026-08-19T08:40:31.344Z</time>
      </trkpt>
      <trkpt lat="45.92771" lon="6.35906">
        <ele>1704</ele>
        <time>2026-08-19T08:40:32.344Z</time>
      </trkpt>
      <trkpt lat="45.92772" lon="6.35907">
        <ele>1704</ele>
        <time>2026-08-19T08:40:33.344Z</time>
      </trkpt>
      <trkpt lat="45.92773" lon="6.35908">
        <ele>1704</ele>
        <time>2026-08-19T08:40:34.344Z</time>
      </trkpt>
      <trkpt lat="45.92774" lon="6.35908">
        <ele>1705</ele>
        <time>2026-08-19T08:40:35.344Z</time>
      </trkpt>
      <trkpt lat="45.92775" lon="6.35909">
        <ele>1705</ele>
        <time>2026-08-19T08:40:36.345Z</time>
      </trkpt>
      <trkpt lat="45.92776" lon="6.3591">
        <ele>1705</ele>
        <time>2026-08-19T08:40:37.344Z</time>
      </trkpt>
      <trkpt lat="45.92778" lon="6.3591">
        <ele>1705</ele>
        <time>2026-08-19T08:40:38.344Z</time>
      </trkpt>
      <trkpt lat="45.92779" lon="6.35911">
        <ele>1705</ele>
        <time>2026-08-19T08:40:39.344Z</time>
      </trkpt>
      <trkpt lat="45.9278" lon="6.35912">
        <ele>1706</ele>
        <time>2026-08-19T08:40:40.344Z</time>
      </trkpt>
      <trkpt lat="45.92781" lon="6.35913">
        <ele>1706</ele>
        <time>2026-08-19T08:40:41.344Z</time>
      </trkpt>
      <trkpt lat="45.92782" lon="6.35913">
        <ele>1706</ele>
        <time>2026-08-19T08:40:42.344Z</time>
      </trkpt>
      <trkpt lat="45.92783" lon="6.35914">
        <ele>1706</ele>
        <time>2026-08-19T08:40:43.344Z</time>
      </trkpt>
      <trkpt lat="45.92784" lon="6.35915">
        <ele>1706</ele>
        <time>2026-08-19T08:40:44.344Z</time>
      </trkpt>
      <trkpt lat="45.92785" lon="6.35916">
        <ele>1706</ele>
        <time>2026-08-19T08:40:45.344Z</time>
      </trkpt>
      <trkpt lat="45.92786" lon="6.35916">
        <ele>1706</ele>
        <time>2026-08-19T08:40:46.344Z</time>
      </trkpt>
      <trkpt lat="45.92788" lon="6.35917">
        <ele>1706</ele>
        <time>2026-08-19T08:40:47.344Z</time>
      </trkpt>
      <trkpt lat="45.92788" lon="6.35917">
        <ele>1706</ele>
        <time>2026-08-19T08:40:48.344Z</time>
      </trkpt>
      <trkpt lat="45.92789" lon="6.35917">
        <ele>1706</ele>
        <time>2026-08-19T08:40:49.344Z</time>
      </trkpt>
      <trkpt lat="45.9279" lon="6.35918">
        <ele>1706</ele>
        <time>2026-08-19T08:40:50.344Z</time>
      </trkpt>
      <trkpt lat="45.92791" lon="6.35918">
        <ele>1706</ele>
        <time>2026-08-19T08:40:51.344Z</time>
      </trkpt>
      <trkpt lat="45.92791" lon="6.35919">
        <ele>1706</ele>
        <time>2026-08-19T08:40:52.344Z</time>
      </trkpt>
      <trkpt lat="45.92792" lon="6.35919">
        <ele>1706</ele>
        <time>2026-08-19T08:40:53.344Z</time>
      </trkpt>
      <trkpt lat="45.92792" lon="6.3592">
        <ele>1706</ele>
        <time>2026-08-19T08:40:54.344Z</time>
      </trkpt>
      <trkpt lat="45.92793" lon="6.3592">
        <ele>1705</ele>
        <time>2026-08-19T08:40:55.344Z</time>
      </trkpt>
      <trkpt lat="45.92794" lon="6.35921">
        <ele>1705</ele>
        <time>2026-08-19T08:40:56.344Z</time>
      </trkpt>
      <trkpt lat="45.92795" lon="6.35921">
        <ele>1705</ele>
        <time>2026-08-19T08:40:57.344Z</time>
      </trkpt>
      <trkpt lat="45.92796" lon="6.35922">
        <ele>1706</ele>
        <time>2026-08-19T08:40:58.345Z</time>
      </trkpt>
      <trkpt lat="45.92797" lon="6.35923">
        <ele>1706</ele>
        <time>2026-08-19T08:40:59.345Z</time>
      </trkpt>
      <trkpt lat="45.92798" lon="6.35924">
        <ele>1706</ele>
        <time>2026-08-19T08:41:00.344Z</time>
      </trkpt>
      <trkpt lat="45.92799" lon="6.35925">
        <ele>1707</ele>
        <time>2026-08-19T08:41:01.344Z</time>
      </trkpt>
      <trkpt lat="45.92799" lon="6.35926">
        <ele>1707</ele>
        <time>2026-08-19T08:41:02.344Z</time>
      </trkpt>
      <trkpt lat="45.92801" lon="6.35927">
        <ele>1707</ele>
        <time>2026-08-19T08:41:03.344Z</time>
      </trkpt>
      <trkpt lat="45.92802" lon="6.35927">
        <ele>1708</ele>
        <time>2026-08-19T08:41:04.344Z</time>
      </trkpt>
      <trkpt lat="45.92803" lon="6.35928">
        <ele>1708</ele>
        <time>2026-08-19T08:41:05.344Z</time>
      </trkpt>
      <trkpt lat="45.92803" lon="6.35928">
        <ele>1708</ele>
        <time>2026-08-19T08:41:06.344Z</time>
      </trkpt>
      <trkpt lat="45.92804" lon="6.35928">
        <ele>1708</ele>
        <time>2026-08-19T08:41:07.344Z</time>
      </trkpt>
      <trkpt lat="45.92804" lon="6.35929">
        <ele>1708</ele>
        <time>2026-08-19T08:41:08.344Z</time>
      </trkpt>
      <trkpt lat="45.92804" lon="6.35929">
        <ele>1708</ele>
        <time>2026-08-19T08:41:09.344Z</time>
      </trkpt>
      <trkpt lat="45.92804" lon="6.35929">
        <ele>1708</ele>
        <time>2026-08-19T08:41:10.344Z</time>
      </trkpt>
      <trkpt lat="45.92804" lon="6.35929">
        <ele>1709</ele>
        <time>2026-08-19T08:41:11.344Z</time>
      </trkpt>
      <trkpt lat="45.92804" lon="6.35929">
        <ele>1709</ele>
        <time>2026-08-19T08:41:12.344Z</time>
      </trkpt>
      <trkpt lat="45.92804" lon="6.35929">
        <ele>1709</ele>
        <time>2026-08-19T08:41:13.344Z</time>
      </trkpt>
      <trkpt lat="45.92804" lon="6.35929">
        <ele>1710</ele>
        <time>2026-08-19T08:41:14.344Z</time>
      </trkpt>
      <trkpt lat="45.92804" lon="6.35929">
        <ele>1711</ele>
        <time>2026-08-19T08:41:15.344Z</time>
      </trkpt>
      <trkpt lat="45.92804" lon="6.35929">
        <ele>1711</ele>
        <time>2026-08-19T08:41:16.344Z</time>
      </trkpt>
      <trkpt lat="45.92805" lon="6.35929">
        <ele>1712</ele>
        <time>2026-08-19T08:41:17.344Z</time>
      </trkpt>
      <trkpt lat="45.92805" lon="6.35929">
        <ele>1712</ele>
        <time>2026-08-19T08:41:18.344Z</time>
      </trkpt>
      <trkpt lat="45.92806" lon="6.3593">
        <ele>1712</ele>
        <time>2026-08-19T08:41:19.344Z</time>
      </trkpt>
      <trkpt lat="45.92806" lon="6.35931">
        <ele>1712</ele>
        <time>2026-08-19T08:41:20.344Z</time>
      </trkpt>
      <trkpt lat="45.92807" lon="6.35932">
        <ele>1713</ele>
        <time>2026-08-19T08:41:21.344Z</time>
      </trkpt>
      <trkpt lat="45.92808" lon="6.35934">
        <ele>1713</ele>
        <time>2026-08-19T08:41:22.344Z</time>
      </trkpt>
      <trkpt lat="45.92809" lon="6.35935">
        <ele>1713</ele>
        <time>2026-08-19T08:41:23.344Z</time>
      </trkpt>
      <trkpt lat="45.9281" lon="6.35935">
        <ele>1714</ele>
        <time>2026-08-19T08:41:24.344Z</time>
      </trkpt>
      <trkpt lat="45.92811" lon="6.35937">
        <ele>1714</ele>
        <time>2026-08-19T08:41:25.344Z</time>
      </trkpt>
      <trkpt lat="45.92811" lon="6.35938">
        <ele>1714</ele>
        <time>2026-08-19T08:41:26.345Z</time>
      </trkpt>
      <trkpt lat="45.92812" lon="6.35939">
        <ele>1714</ele>
        <time>2026-08-19T08:41:27.344Z</time>
      </trkpt>
      <trkpt lat="45.92813" lon="6.3594">
        <ele>1714</ele>
        <time>2026-08-19T08:41:28.344Z</time>
      </trkpt>
      <trkpt lat="45.92813" lon="6.35942">
        <ele>1714</ele>
        <time>2026-08-19T08:41:29.344Z</time>
      </trkpt>
      <trkpt lat="45.92814" lon="6.35943">
        <ele>1715</ele>
        <time>2026-08-19T08:41:30.344Z</time>
      </trkpt>
      <trkpt lat="45.92815" lon="6.35944">
        <ele>1715</ele>
        <time>2026-08-19T08:41:31.344Z</time>
      </trkpt>
      <trkpt lat="45.92816" lon="6.35945">
        <ele>1715</ele>
        <time>2026-08-19T08:41:32.344Z</time>
      </trkpt>
      <trkpt lat="45.92816" lon="6.35946">
        <ele>1715</ele>
        <time>2026-08-19T08:41:33.344Z</time>
      </trkpt>
      <trkpt lat="45.92817" lon="6.35947">
        <ele>1715</ele>
        <time>2026-08-19T08:41:34.344Z</time>
      </trkpt>
      <trkpt lat="45.92818" lon="6.35948">
        <ele>1715</ele>
        <time>2026-08-19T08:41:35.344Z</time>
      </trkpt>
      <trkpt lat="45.92819" lon="6.35949">
        <ele>1715</ele>
        <time>2026-08-19T08:41:36.344Z</time>
      </trkpt>
      <trkpt lat="45.9282" lon="6.3595">
        <ele>1715</ele>
        <time>2026-08-19T08:41:37.345Z</time>
      </trkpt>
      <trkpt lat="45.92821" lon="6.35951">
        <ele>1715</ele>
        <time>2026-08-19T08:41:38.344Z</time>
      </trkpt>
      <trkpt lat="45.92821" lon="6.35952">
        <ele>1715</ele>
        <time>2026-08-19T08:41:39.344Z</time>
      </trkpt>
      <trkpt lat="45.92822" lon="6.35953">
        <ele>1715</ele>
        <time>2026-08-19T08:41:40.344Z</time>
      </trkpt>
      <trkpt lat="45.92822" lon="6.35955">
        <ele>1715</ele>
        <time>2026-08-19T08:41:41.344Z</time>
      </trkpt>
      <trkpt lat="45.92823" lon="6.35956">
        <ele>1715</ele>
        <time>2026-08-19T08:41:42.344Z</time>
      </trkpt>
      <trkpt lat="45.92824" lon="6.35958">
        <ele>1715</ele>
        <time>2026-08-19T08:41:43.344Z</time>
      </trkpt>
      <trkpt lat="45.92824" lon="6.35959">
        <ele>1715</ele>
        <time>2026-08-19T08:41:44.344Z</time>
      </trkpt>
      <trkpt lat="45.92825" lon="6.35961">
        <ele>1716</ele>
        <time>2026-08-19T08:41:45.344Z</time>
      </trkpt>
      <trkpt lat="45.92826" lon="6.35962">
        <ele>1716</ele>
        <time>2026-08-19T08:41:46.344Z</time>
      </trkpt>
      <trkpt lat="45.92827" lon="6.35964">
        <ele>1717</ele>
        <time>2026-08-19T08:41:47.344Z</time>
      </trkpt>
      <trkpt lat="45.92828" lon="6.35964">
        <ele>1717</ele>
        <time>2026-08-19T08:41:48.344Z</time>
      </trkpt>
      <trkpt lat="45.92829" lon="6.35966">
        <ele>1717</ele>
        <time>2026-08-19T08:41:49.344Z</time>
      </trkpt>
      <trkpt lat="45.92831" lon="6.35967">
        <ele>1716</ele>
        <time>2026-08-19T08:41:50.344Z</time>
      </trkpt>
      <trkpt lat="45.92832" lon="6.35968">
        <ele>1716</ele>
        <time>2026-08-19T08:41:51.344Z</time>
      </trkpt>
      <trkpt lat="45.92832" lon="6.3597">
        <ele>1716</ele>
        <time>2026-08-19T08:41:52.344Z</time>
      </trkpt>
      <trkpt lat="45.92833" lon="6.35972">
        <ele>1716</ele>
        <time>2026-08-19T08:41:53.344Z</time>
      </trkpt>
      <trkpt lat="45.92834" lon="6.35973">
        <ele>1716</ele>
        <time>2026-08-19T08:41:54.344Z</time>
      </trkpt>
      <trkpt lat="45.92835" lon="6.35974">
        <ele>1717</ele>
        <time>2026-08-19T08:41:55.344Z</time>
      </trkpt>
      <trkpt lat="45.92835" lon="6.35974">
        <ele>1717</ele>
        <time>2026-08-19T08:41:56.344Z</time>
      </trkpt>
      <trkpt lat="45.92837" lon="6.35974">
        <ele>1717</ele>
        <time>2026-08-19T08:41:57.344Z</time>
      </trkpt>
      <trkpt lat="45.92838" lon="6.35976">
        <ele>1717</ele>
        <time>2026-08-19T08:41:58.344Z</time>
      </trkpt>
      <trkpt lat="45.92839" lon="6.35978">
        <ele>1718</ele>
        <time>2026-08-19T08:41:59.344Z</time>
      </trkpt>
      <trkpt lat="45.92839" lon="6.35979">
        <ele>1718</ele>
        <time>2026-08-19T08:42:00.344Z</time>
      </trkpt>
      <trkpt lat="45.9284" lon="6.3598">
        <ele>1718</ele>
        <time>2026-08-19T08:42:01.344Z</time>
      </trkpt>
      <trkpt lat="45.92841" lon="6.35982">
        <ele>1719</ele>
        <time>2026-08-19T08:42:02.344Z</time>
      </trkpt>
      <trkpt lat="45.92842" lon="6.35983">
        <ele>1720</ele>
        <time>2026-08-19T08:42:03.344Z</time>
      </trkpt>
      <trkpt lat="45.92843" lon="6.35984">
        <ele>1720</ele>
        <time>2026-08-19T08:42:04.344Z</time>
      </trkpt>
      <trkpt lat="45.92844" lon="6.35986">
        <ele>1720</ele>
        <time>2026-08-19T08:42:05.344Z</time>
      </trkpt>
      <trkpt lat="45.92845" lon="6.35987">
        <ele>1720</ele>
        <time>2026-08-19T08:42:06.344Z</time>
      </trkpt>
      <trkpt lat="45.92847" lon="6.35988">
        <ele>1720</ele>
        <time>2026-08-19T08:42:07.344Z</time>
      </trkpt>
      <trkpt lat="45.92848" lon="6.3599">
        <ele>1720</ele>
        <time>2026-08-19T08:42:08.344Z</time>
      </trkpt>
      <trkpt lat="45.92849" lon="6.35991">
        <ele>1720</ele>
        <time>2026-08-19T08:42:09.344Z</time>
      </trkpt>
      <trkpt lat="45.92849" lon="6.35992">
        <ele>1720</ele>
        <time>2026-08-19T08:42:10.344Z</time>
      </trkpt>
      <trkpt lat="45.9285" lon="6.35994">
        <ele>1720</ele>
        <time>2026-08-19T08:42:11.344Z</time>
      </trkpt>
      <trkpt lat="45.92851" lon="6.35995">
        <ele>1720</ele>
        <time>2026-08-19T08:42:12.344Z</time>
      </trkpt>
      <trkpt lat="45.92851" lon="6.35996">
        <ele>1720</ele>
        <time>2026-08-19T08:42:13.344Z</time>
      </trkpt>
      <trkpt lat="45.92852" lon="6.35998">
        <ele>1720</ele>
        <time>2026-08-19T08:42:14.344Z</time>
      </trkpt>
      <trkpt lat="45.92852" lon="6.35999">
        <ele>1720</ele>
        <time>2026-08-19T08:42:15.344Z</time>
      </trkpt>
      <trkpt lat="45.92853" lon="6.36">
        <ele>1720</ele>
        <time>2026-08-19T08:42:16.344Z</time>
      </trkpt>
      <trkpt lat="45.92854" lon="6.36002">
        <ele>1720</ele>
        <time>2026-08-19T08:42:17.344Z</time>
      </trkpt>
      <trkpt lat="45.92854" lon="6.36003">
        <ele>1720</ele>
        <time>2026-08-19T08:42:18.344Z</time>
      </trkpt>
      <trkpt lat="45.92855" lon="6.36005">
        <ele>1720</ele>
        <time>2026-08-19T08:42:19.344Z</time>
      </trkpt>
      <trkpt lat="45.92855" lon="6.36006">
        <ele>1720</ele>
        <time>2026-08-19T08:42:20.344Z</time>
      </trkpt>
      <trkpt lat="45.92855" lon="6.36008">
        <ele>1720</ele>
        <time>2026-08-19T08:42:21.344Z</time>
      </trkpt>
      <trkpt lat="45.92854" lon="6.3601">
        <ele>1719</ele>
        <time>2026-08-19T08:42:22.344Z</time>
      </trkpt>
      <trkpt lat="45.92854" lon="6.36012">
        <ele>1719</ele>
        <time>2026-08-19T08:42:23.344Z</time>
      </trkpt>
      <trkpt lat="45.92855" lon="6.36013">
        <ele>1719</ele>
        <time>2026-08-19T08:42:24.344Z</time>
      </trkpt>
      <trkpt lat="45.92855" lon="6.36015">
        <ele>1719</ele>
        <time>2026-08-19T08:42:25.344Z</time>
      </trkpt>
      <trkpt lat="45.92855" lon="6.36017">
        <ele>1719</ele>
        <time>2026-08-19T08:42:26.344Z</time>
      </trkpt>
      <trkpt lat="45.92856" lon="6.36019">
        <ele>1718</ele>
        <time>2026-08-19T08:42:27.344Z</time>
      </trkpt>
      <trkpt lat="45.92856" lon="6.3602">
        <ele>1718</ele>
        <time>2026-08-19T08:42:28.344Z</time>
      </trkpt>
      <trkpt lat="45.92857" lon="6.36022">
        <ele>1718</ele>
        <time>2026-08-19T08:42:29.344Z</time>
      </trkpt>
      <trkpt lat="45.92857" lon="6.36023">
        <ele>1719</ele>
        <time>2026-08-19T08:42:30.344Z</time>
      </trkpt>
      <trkpt lat="45.92857" lon="6.36025">
        <ele>1719</ele>
        <time>2026-08-19T08:42:31.344Z</time>
      </trkpt>
      <trkpt lat="45.92857" lon="6.36026">
        <ele>1719</ele>
        <time>2026-08-19T08:42:32.344Z</time>
      </trkpt>
      <trkpt lat="45.92856" lon="6.36027">
        <ele>1719</ele>
        <time>2026-08-19T08:42:33.344Z</time>
      </trkpt>
      <trkpt lat="45.92856" lon="6.36029">
        <ele>1719</ele>
        <time>2026-08-19T08:42:34.344Z</time>
      </trkpt>
      <trkpt lat="45.92856" lon="6.3603">
        <ele>1718</ele>
        <time>2026-08-19T08:42:35.344Z</time>
      </trkpt>
      <trkpt lat="45.92856" lon="6.36032">
        <ele>1718</ele>
        <time>2026-08-19T08:42:36.344Z</time>
      </trkpt>
      <trkpt lat="45.92856" lon="6.36034">
        <ele>1718</ele>
        <time>2026-08-19T08:42:37.344Z</time>
      </trkpt>
      <trkpt lat="45.92856" lon="6.36036">
        <ele>1718</ele>
        <time>2026-08-19T08:42:38.344Z</time>
      </trkpt>
      <trkpt lat="45.92855" lon="6.36038">
        <ele>1717</ele>
        <time>2026-08-19T08:42:39.344Z</time>
      </trkpt>
      <trkpt lat="45.92855" lon="6.36039">
        <ele>1717</ele>
        <time>2026-08-19T08:42:40.344Z</time>
      </trkpt>
      <trkpt lat="45.92855" lon="6.36041">
        <ele>1717</ele>
        <time>2026-08-19T08:42:41.345Z</time>
      </trkpt>
      <trkpt lat="45.92854" lon="6.36042">
        <ele>1717</ele>
        <time>2026-08-19T08:42:42.344Z</time>
      </trkpt>
      <trkpt lat="45.92854" lon="6.36044">
        <ele>1717</ele>
        <time>2026-08-19T08:42:43.344Z</time>
      </trkpt>
      <trkpt lat="45.92855" lon="6.36046">
        <ele>1717</ele>
        <time>2026-08-19T08:42:44.344Z</time>
      </trkpt>
      <trkpt lat="45.92855" lon="6.36048">
        <ele>1717</ele>
        <time>2026-08-19T08:42:45.344Z</time>
      </trkpt>
      <trkpt lat="45.92855" lon="6.3605">
        <ele>1717</ele>
        <time>2026-08-19T08:42:46.344Z</time>
      </trkpt>
      <trkpt lat="45.92855" lon="6.36052">
        <ele>1717</ele>
        <time>2026-08-19T08:42:47.344Z</time>
      </trkpt>
      <trkpt lat="45.92855" lon="6.36054">
        <ele>1717</ele>
        <time>2026-08-19T08:42:48.344Z</time>
      </trkpt>
      <trkpt lat="45.92856" lon="6.36055">
        <ele>1717</ele>
        <time>2026-08-19T08:42:49.344Z</time>
      </trkpt>
      <trkpt lat="45.92857" lon="6.36057">
        <ele>1717</ele>
        <time>2026-08-19T08:42:50.344Z</time>
      </trkpt>
      <trkpt lat="45.92857" lon="6.3606">
        <ele>1717</ele>
        <time>2026-08-19T08:42:51.344Z</time>
      </trkpt>
      <trkpt lat="45.92858" lon="6.36062">
        <ele>1717</ele>
        <time>2026-08-19T08:42:52.344Z</time>
      </trkpt>
      <trkpt lat="45.92859" lon="6.36064">
        <ele>1716</ele>
        <time>2026-08-19T08:42:53.345Z</time>
      </trkpt>
      <trkpt lat="45.92859" lon="6.36066">
        <ele>1716</ele>
        <time>2026-08-19T08:42:54.344Z</time>
      </trkpt>
      <trkpt lat="45.9286" lon="6.36067">
        <ele>1716</ele>
        <time>2026-08-19T08:42:55.344Z</time>
      </trkpt>
      <trkpt lat="45.92861" lon="6.36069">
        <ele>1716</ele>
        <time>2026-08-19T08:42:56.344Z</time>
      </trkpt>
      <trkpt lat="45.92863" lon="6.3607">
        <ele>1716</ele>
        <time>2026-08-19T08:42:57.344Z</time>
      </trkpt>
      <trkpt lat="45.92864" lon="6.36071">
        <ele>1716</ele>
        <time>2026-08-19T08:42:58.344Z</time>
      </trkpt>
      <trkpt lat="45.92865" lon="6.36072">
        <ele>1716</ele>
        <time>2026-08-19T08:42:59.344Z</time>
      </trkpt>
      <trkpt lat="45.92866" lon="6.36073">
        <ele>1716</ele>
        <time>2026-08-19T08:43:00.344Z</time>
      </trkpt>
      <trkpt lat="45.92867" lon="6.36074">
        <ele>1716</ele>
        <time>2026-08-19T08:43:01.344Z</time>
      </trkpt>
      <trkpt lat="45.92868" lon="6.36075">
        <ele>1716</ele>
        <time>2026-08-19T08:43:02.344Z</time>
      </trkpt>
      <trkpt lat="45.92868" lon="6.36076">
        <ele>1715</ele>
        <time>2026-08-19T08:43:03.344Z</time>
      </trkpt>
      <trkpt lat="45.92869" lon="6.36077">
        <ele>1715</ele>
        <time>2026-08-19T08:43:04.344Z</time>
      </trkpt>
      <trkpt lat="45.92869" lon="6.36079">
        <ele>1714</ele>
        <time>2026-08-19T08:43:05.344Z</time>
      </trkpt>
      <trkpt lat="45.9287" lon="6.3608">
        <ele>1714</ele>
        <time>2026-08-19T08:43:06.344Z</time>
      </trkpt>
      <trkpt lat="45.9287" lon="6.36081">
        <ele>1714</ele>
        <time>2026-08-19T08:43:07.344Z</time>
      </trkpt>
      <trkpt lat="45.9287" lon="6.36082">
        <ele>1714</ele>
        <time>2026-08-19T08:43:08.344Z</time>
      </trkpt>
      <trkpt lat="45.92871" lon="6.36084">
        <ele>1714</ele>
        <time>2026-08-19T08:43:09.344Z</time>
      </trkpt>
      <trkpt lat="45.92871" lon="6.36085">
        <ele>1714</ele>
        <time>2026-08-19T08:43:10.344Z</time>
      </trkpt>
      <trkpt lat="45.92872" lon="6.36085">
        <ele>1714</ele>
        <time>2026-08-19T08:43:11.344Z</time>
      </trkpt>
      <trkpt lat="45.92873" lon="6.36087">
        <ele>1714</ele>
        <time>2026-08-19T08:43:12.344Z</time>
      </trkpt>
      <trkpt lat="45.92875" lon="6.36088">
        <ele>1714</ele>
        <time>2026-08-19T08:43:13.344Z</time>
      </trkpt>
      <trkpt lat="45.92876" lon="6.36089">
        <ele>1714</ele>
        <time>2026-08-19T08:43:14.344Z</time>
      </trkpt>
      <trkpt lat="45.92878" lon="6.3609">
        <ele>1714</ele>
        <time>2026-08-19T08:43:15.344Z</time>
      </trkpt>
      <trkpt lat="45.92879" lon="6.36091">
        <ele>1714</ele>
        <time>2026-08-19T08:43:16.344Z</time>
      </trkpt>
      <trkpt lat="45.9288" lon="6.36092">
        <ele>1714</ele>
        <time>2026-08-19T08:43:17.344Z</time>
      </trkpt>
      <trkpt lat="45.92881" lon="6.36094">
        <ele>1715</ele>
        <time>2026-08-19T08:43:18.344Z</time>
      </trkpt>
      <trkpt lat="45.92882" lon="6.36095">
        <ele>1715</ele>
        <time>2026-08-19T08:43:19.344Z</time>
      </trkpt>
      <trkpt lat="45.92883" lon="6.36096">
        <ele>1715</ele>
        <time>2026-08-19T08:43:20.344Z</time>
      </trkpt>
      <trkpt lat="45.92884" lon="6.36097">
        <ele>1715</ele>
        <time>2026-08-19T08:43:21.344Z</time>
      </trkpt>
      <trkpt lat="45.92886" lon="6.36098">
        <ele>1715</ele>
        <time>2026-08-19T08:43:22.344Z</time>
      </trkpt>
      <trkpt lat="45.92887" lon="6.36099">
        <ele>1715</ele>
        <time>2026-08-19T08:43:23.344Z</time>
      </trkpt>
      <trkpt lat="45.92887" lon="6.361">
        <ele>1715</ele>
        <time>2026-08-19T08:43:24.344Z</time>
      </trkpt>
      <trkpt lat="45.92888" lon="6.36102">
        <ele>1715</ele>
        <time>2026-08-19T08:43:25.344Z</time>
      </trkpt>
      <trkpt lat="45.92889" lon="6.36103">
        <ele>1715</ele>
        <time>2026-08-19T08:43:26.345Z</time>
      </trkpt>
      <trkpt lat="45.9289" lon="6.36104">
        <ele>1715</ele>
        <time>2026-08-19T08:43:27.344Z</time>
      </trkpt>
      <trkpt lat="45.92891" lon="6.36105">
        <ele>1714</ele>
        <time>2026-08-19T08:43:28.344Z</time>
      </trkpt>
      <trkpt lat="45.92891" lon="6.36106">
        <ele>1714</ele>
        <time>2026-08-19T08:43:29.344Z</time>
      </trkpt>
      <trkpt lat="45.92892" lon="6.36106">
        <ele>1714</ele>
        <time>2026-08-19T08:43:30.345Z</time>
      </trkpt>
      <trkpt lat="45.92894" lon="6.36107">
        <ele>1714</ele>
        <time>2026-08-19T08:43:31.344Z</time>
      </trkpt>
      <trkpt lat="45.92895" lon="6.36107">
        <ele>1714</ele>
        <time>2026-08-19T08:43:32.344Z</time>
      </trkpt>
      <trkpt lat="45.92897" lon="6.36108">
        <ele>1714</ele>
        <time>2026-08-19T08:43:33.344Z</time>
      </trkpt>
      <trkpt lat="45.92899" lon="6.36109">
        <ele>1714</ele>
        <time>2026-08-19T08:43:34.344Z</time>
      </trkpt>
      <trkpt lat="45.929" lon="6.3611">
        <ele>1714</ele>
        <time>2026-08-19T08:43:35.344Z</time>
      </trkpt>
      <trkpt lat="45.92901" lon="6.36111">
        <ele>1713</ele>
        <time>2026-08-19T08:43:36.344Z</time>
      </trkpt>
      <trkpt lat="45.92903" lon="6.36112">
        <ele>1713</ele>
        <time>2026-08-19T08:43:37.344Z</time>
      </trkpt>
      <trkpt lat="45.92904" lon="6.36113">
        <ele>1713</ele>
        <time>2026-08-19T08:43:38.344Z</time>
      </trkpt>
      <trkpt lat="45.92905" lon="6.36113">
        <ele>1712</ele>
        <time>2026-08-19T08:43:39.345Z</time>
      </trkpt>
      <trkpt lat="45.92905" lon="6.36113">
        <ele>1712</ele>
        <time>2026-08-19T08:43:40.344Z</time>
      </trkpt>
      <trkpt lat="45.92906" lon="6.36113">
        <ele>1712</ele>
        <time>2026-08-19T08:43:41.344Z</time>
      </trkpt>
      <trkpt lat="45.92907" lon="6.36113">
        <ele>1711</ele>
        <time>2026-08-19T08:43:42.345Z</time>
      </trkpt>
      <trkpt lat="45.92908" lon="6.36113">
        <ele>1711</ele>
        <time>2026-08-19T08:43:43.344Z</time>
      </trkpt>
      <trkpt lat="45.92909" lon="6.36113">
        <ele>1712</ele>
        <time>2026-08-19T08:43:44.344Z</time>
      </trkpt>
      <trkpt lat="45.9291" lon="6.36113">
        <ele>1712</ele>
        <time>2026-08-19T08:43:45.344Z</time>
      </trkpt>
      <trkpt lat="45.9291" lon="6.36113">
        <ele>1712</ele>
        <time>2026-08-19T08:43:46.344Z</time>
      </trkpt>
      <trkpt lat="45.92911" lon="6.36114">
        <ele>1712</ele>
        <time>2026-08-19T08:43:47.344Z</time>
      </trkpt>
      <trkpt lat="45.92912" lon="6.36114">
        <ele>1712</ele>
        <time>2026-08-19T08:43:48.345Z</time>
      </trkpt>
      <trkpt lat="45.92913" lon="6.36114">
        <ele>1712</ele>
        <time>2026-08-19T08:43:49.344Z</time>
      </trkpt>
      <trkpt lat="45.92914" lon="6.36115">
        <ele>1712</ele>
        <time>2026-08-19T08:43:50.344Z</time>
      </trkpt>
      <trkpt lat="45.92915" lon="6.36115">
        <ele>1712</ele>
        <time>2026-08-19T08:43:51.344Z</time>
      </trkpt>
      <trkpt lat="45.92916" lon="6.36115">
        <ele>1712</ele>
        <time>2026-08-19T08:43:52.344Z</time>
      </trkpt>
      <trkpt lat="45.92916" lon="6.36116">
        <ele>1712</ele>
        <time>2026-08-19T08:43:53.344Z</time>
      </trkpt>
      <trkpt lat="45.92917" lon="6.36116">
        <ele>1712</ele>
        <time>2026-08-19T08:43:54.344Z</time>
      </trkpt>
      <trkpt lat="45.92918" lon="6.36116">
        <ele>1713</ele>
        <time>2026-08-19T08:43:55.344Z</time>
      </trkpt>
      <trkpt lat="45.92919" lon="6.36115">
        <ele>1713</ele>
        <time>2026-08-19T08:43:56.344Z</time>
      </trkpt>
      <trkpt lat="45.9292" lon="6.36115">
        <ele>1714</ele>
        <time>2026-08-19T08:43:57.344Z</time>
      </trkpt>
      <trkpt lat="45.92921" lon="6.36115">
        <ele>1714</ele>
        <time>2026-08-19T08:43:58.344Z</time>
      </trkpt>
      <trkpt lat="45.92922" lon="6.36115">
        <ele>1715</ele>
        <time>2026-08-19T08:43:59.344Z</time>
      </trkpt>
      <trkpt lat="45.92924" lon="6.36114">
        <ele>1715</ele>
        <time>2026-08-19T08:44:00.344Z</time>
      </trkpt>
      <trkpt lat="45.92925" lon="6.36114">
        <ele>1715</ele>
        <time>2026-08-19T08:44:01.344Z</time>
      </trkpt>
      <trkpt lat="45.92926" lon="6.36114">
        <ele>1715</ele>
        <time>2026-08-19T08:44:02.344Z</time>
      </trkpt>
      <trkpt lat="45.92926" lon="6.36114">
        <ele>1716</ele>
        <time>2026-08-19T08:44:03.344Z</time>
      </trkpt>
      <trkpt lat="45.92927" lon="6.36115">
        <ele>1716</ele>
        <time>2026-08-19T08:44:04.344Z</time>
      </trkpt>
      <trkpt lat="45.92928" lon="6.36115">
        <ele>1716</ele>
        <time>2026-08-19T08:44:05.344Z</time>
      </trkpt>
      <trkpt lat="45.92928" lon="6.36114">
        <ele>1716</ele>
        <time>2026-08-19T08:44:06.344Z</time>
      </trkpt>
      <trkpt lat="45.92929" lon="6.36114">
        <ele>1716</ele>
        <time>2026-08-19T08:44:07.344Z</time>
      </trkpt>
      <trkpt lat="45.9293" lon="6.36114">
        <ele>1716</ele>
        <time>2026-08-19T08:44:08.344Z</time>
      </trkpt>
      <trkpt lat="45.92931" lon="6.36114">
        <ele>1716</ele>
        <time>2026-08-19T08:44:09.344Z</time>
      </trkpt>
      <trkpt lat="45.92931" lon="6.36113">
        <ele>1716</ele>
        <time>2026-08-19T08:44:10.344Z</time>
      </trkpt>
      <trkpt lat="45.92932" lon="6.36113">
        <ele>1716</ele>
        <time>2026-08-19T08:44:11.344Z</time>
      </trkpt>
      <trkpt lat="45.92933" lon="6.36113">
        <ele>1716</ele>
        <time>2026-08-19T08:44:12.344Z</time>
      </trkpt>
      <trkpt lat="45.92933" lon="6.36113">
        <ele>1716</ele>
        <time>2026-08-19T08:44:13.344Z</time>
      </trkpt>
      <trkpt lat="45.92934" lon="6.36114">
        <ele>1716</ele>
        <time>2026-08-19T08:44:14.344Z</time>
      </trkpt>
      <trkpt lat="45.92935" lon="6.36114">
        <ele>1717</ele>
        <time>2026-08-19T08:44:15.344Z</time>
      </trkpt>
      <trkpt lat="45.92936" lon="6.36115">
        <ele>1717</ele>
        <time>2026-08-19T08:44:16.344Z</time>
      </trkpt>
      <trkpt lat="45.92937" lon="6.36114">
        <ele>1717</ele>
        <time>2026-08-19T08:44:17.344Z</time>
      </trkpt>
      <trkpt lat="45.92937" lon="6.36114">
        <ele>1717</ele>
        <time>2026-08-19T08:44:18.344Z</time>
      </trkpt>
      <trkpt lat="45.92938" lon="6.36113">
        <ele>1718</ele>
        <time>2026-08-19T08:44:19.344Z</time>
      </trkpt>
      <trkpt lat="45.92939" lon="6.36112">
        <ele>1719</ele>
        <time>2026-08-19T08:44:20.344Z</time>
      </trkpt>
      <trkpt lat="45.9294" lon="6.36112">
        <ele>1719</ele>
        <time>2026-08-19T08:44:21.344Z</time>
      </trkpt>
      <trkpt lat="45.92941" lon="6.36112">
        <ele>1719</ele>
        <time>2026-08-19T08:44:22.344Z</time>
      </trkpt>
      <trkpt lat="45.92942" lon="6.36112">
        <ele>1720</ele>
        <time>2026-08-19T08:44:23.344Z</time>
      </trkpt>
      <trkpt lat="45.92943" lon="6.36111">
        <ele>1720</ele>
        <time>2026-08-19T08:44:24.344Z</time>
      </trkpt>
      <trkpt lat="45.92943" lon="6.36111">
        <ele>1720</ele>
        <time>2026-08-19T08:44:25.344Z</time>
      </trkpt>
      <trkpt lat="45.92944" lon="6.36111">
        <ele>1720</ele>
        <time>2026-08-19T08:44:26.344Z</time>
      </trkpt>
      <trkpt lat="45.92944" lon="6.36112">
        <ele>1720</ele>
        <time>2026-08-19T08:44:27.344Z</time>
      </trkpt>
      <trkpt lat="45.92945" lon="6.36112">
        <ele>1721</ele>
        <time>2026-08-19T08:44:28.344Z</time>
      </trkpt>
      <trkpt lat="45.92946" lon="6.36112">
        <ele>1721</ele>
        <time>2026-08-19T08:44:29.344Z</time>
      </trkpt>
      <trkpt lat="45.92947" lon="6.36112">
        <ele>1721</ele>
        <time>2026-08-19T08:44:30.344Z</time>
      </trkpt>
      <trkpt lat="45.92947" lon="6.36112">
        <ele>1722</ele>
        <time>2026-08-19T08:44:31.344Z</time>
      </trkpt>
      <trkpt lat="45.92948" lon="6.36112">
        <ele>1722</ele>
        <time>2026-08-19T08:44:32.344Z</time>
      </trkpt>
      <trkpt lat="45.92949" lon="6.36112">
        <ele>1722</ele>
        <time>2026-08-19T08:44:33.344Z</time>
      </trkpt>
      <trkpt lat="45.9295" lon="6.36112">
        <ele>1722</ele>
        <time>2026-08-19T08:44:34.345Z</time>
      </trkpt>
      <trkpt lat="45.9295" lon="6.36113">
        <ele>1722</ele>
        <time>2026-08-19T08:44:35.344Z</time>
      </trkpt>
      <trkpt lat="45.9295" lon="6.36114">
        <ele>1722</ele>
        <time>2026-08-19T08:44:36.344Z</time>
      </trkpt>
      <trkpt lat="45.92951" lon="6.36114">
        <ele>1722</ele>
        <time>2026-08-19T08:44:37.344Z</time>
      </trkpt>
      <trkpt lat="45.92951" lon="6.36114">
        <ele>1723</ele>
        <time>2026-08-19T08:44:38.344Z</time>
      </trkpt>
      <trkpt lat="45.92952" lon="6.36114">
        <ele>1723</ele>
        <time>2026-08-19T08:44:39.344Z</time>
      </trkpt>
      <trkpt lat="45.92953" lon="6.36115">
        <ele>1724</ele>
        <time>2026-08-19T08:44:40.344Z</time>
      </trkpt>
      <trkpt lat="45.92953" lon="6.36115">
        <ele>1724</ele>
        <time>2026-08-19T08:44:41.344Z</time>
      </trkpt>
      <trkpt lat="45.92954" lon="6.36115">
        <ele>1725</ele>
        <time>2026-08-19T08:44:42.344Z</time>
      </trkpt>
      <trkpt lat="45.92955" lon="6.36116">
        <ele>1725</ele>
        <time>2026-08-19T08:44:43.345Z</time>
      </trkpt>
      <trkpt lat="45.92956" lon="6.36115">
        <ele>1725</ele>
        <time>2026-08-19T08:44:44.344Z</time>
      </trkpt>
      <trkpt lat="45.92956" lon="6.36115">
        <ele>1725</ele>
        <time>2026-08-19T08:44:45.344Z</time>
      </trkpt>
      <trkpt lat="45.92957" lon="6.36115">
        <ele>1726</ele>
        <time>2026-08-19T08:44:46.344Z</time>
      </trkpt>
      <trkpt lat="45.92958" lon="6.36116">
        <ele>1726</ele>
        <time>2026-08-19T08:44:47.344Z</time>
      </trkpt>
      <trkpt lat="45.92959" lon="6.36117">
        <ele>1726</ele>
        <time>2026-08-19T08:44:48.344Z</time>
      </trkpt>
      <trkpt lat="45.92959" lon="6.36118">
        <ele>1727</ele>
        <time>2026-08-19T08:44:49.344Z</time>
      </trkpt>
      <trkpt lat="45.9296" lon="6.36118">
        <ele>1727</ele>
        <time>2026-08-19T08:44:50.344Z</time>
      </trkpt>
      <trkpt lat="45.9296" lon="6.36119">
        <ele>1728</ele>
        <time>2026-08-19T08:44:51.344Z</time>
      </trkpt>
      <trkpt lat="45.92961" lon="6.3612">
        <ele>1729</ele>
        <time>2026-08-19T08:44:52.344Z</time>
      </trkpt>
      <trkpt lat="45.92961" lon="6.3612">
        <ele>1729</ele>
        <time>2026-08-19T08:44:53.344Z</time>
      </trkpt>
      <trkpt lat="45.92963" lon="6.36121">
        <ele>1730</ele>
        <time>2026-08-19T08:44:54.344Z</time>
      </trkpt>
      <trkpt lat="45.92964" lon="6.36122">
        <ele>1730</ele>
        <time>2026-08-19T08:44:55.344Z</time>
      </trkpt>
      <trkpt lat="45.92965" lon="6.36122">
        <ele>1730</ele>
        <time>2026-08-19T08:44:56.344Z</time>
      </trkpt>
      <trkpt lat="45.92966" lon="6.36122">
        <ele>1730</ele>
        <time>2026-08-19T08:44:57.344Z</time>
      </trkpt>
      <trkpt lat="45.92966" lon="6.36122">
        <ele>1730</ele>
        <time>2026-08-19T08:44:58.344Z</time>
      </trkpt>
      <trkpt lat="45.92967" lon="6.36122">
        <ele>1730</ele>
        <time>2026-08-19T08:44:59.344Z</time>
      </trkpt>
      <trkpt lat="45.92967" lon="6.36122">
        <ele>1730</ele>
        <time>2026-08-19T08:45:00.344Z</time>
      </trkpt>
      <trkpt lat="45.92968" lon="6.36121">
        <ele>1730</ele>
        <time>2026-08-19T08:45:01.344Z</time>
      </trkpt>
      <trkpt lat="45.92969" lon="6.36121">
        <ele>1730</ele>
        <time>2026-08-19T08:45:02.344Z</time>
      </trkpt>
      <trkpt lat="45.9297" lon="6.36121">
        <ele>1730</ele>
        <time>2026-08-19T08:45:03.344Z</time>
      </trkpt>
      <trkpt lat="45.92971" lon="6.36122">
        <ele>1729</ele>
        <time>2026-08-19T08:45:04.344Z</time>
      </trkpt>
      <trkpt lat="45.92972" lon="6.36123">
        <ele>1729</ele>
        <time>2026-08-19T08:45:05.344Z</time>
      </trkpt>
      <trkpt lat="45.92973" lon="6.36125">
        <ele>1729</ele>
        <time>2026-08-19T08:45:06.344Z</time>
      </trkpt>
      <trkpt lat="45.92974" lon="6.36126">
        <ele>1729</ele>
        <time>2026-08-19T08:45:07.344Z</time>
      </trkpt>
      <trkpt lat="45.92976" lon="6.36127">
        <ele>1729</ele>
        <time>2026-08-19T08:45:08.344Z</time>
      </trkpt>
      <trkpt lat="45.92977" lon="6.36128">
        <ele>1729</ele>
        <time>2026-08-19T08:45:09.344Z</time>
      </trkpt>
      <trkpt lat="45.92978" lon="6.36129">
        <ele>1729</ele>
        <time>2026-08-19T08:45:10.344Z</time>
      </trkpt>
      <trkpt lat="45.92979" lon="6.36129">
        <ele>1729</ele>
        <time>2026-08-19T08:45:11.344Z</time>
      </trkpt>
      <trkpt lat="45.9298" lon="6.3613">
        <ele>1729</ele>
        <time>2026-08-19T08:45:12.344Z</time>
      </trkpt>
      <trkpt lat="45.9298" lon="6.3613">
        <ele>1729</ele>
        <time>2026-08-19T08:45:13.344Z</time>
      </trkpt>
      <trkpt lat="45.92981" lon="6.3613">
        <ele>1730</ele>
        <time>2026-08-19T08:45:14.344Z</time>
      </trkpt>
      <trkpt lat="45.92982" lon="6.3613">
        <ele>1730</ele>
        <time>2026-08-19T08:45:15.344Z</time>
      </trkpt>
      <trkpt lat="45.92983" lon="6.36131">
        <ele>1730</ele>
        <time>2026-08-19T08:45:16.344Z</time>
      </trkpt>
      <trkpt lat="45.92984" lon="6.36132">
        <ele>1730</ele>
        <time>2026-08-19T08:45:17.344Z</time>
      </trkpt>
      <trkpt lat="45.92985" lon="6.36133">
        <ele>1730</ele>
        <time>2026-08-19T08:45:18.344Z</time>
      </trkpt>
      <trkpt lat="45.92985" lon="6.36134">
        <ele>1731</ele>
        <time>2026-08-19T08:45:19.344Z</time>
      </trkpt>
      <trkpt lat="45.92986" lon="6.36135">
        <ele>1731</ele>
        <time>2026-08-19T08:45:20.344Z</time>
      </trkpt>
      <trkpt lat="45.92986" lon="6.36134">
        <ele>1731</ele>
        <time>2026-08-19T08:45:21.344Z</time>
      </trkpt>
      <trkpt lat="45.92987" lon="6.36134">
        <ele>1731</ele>
        <time>2026-08-19T08:45:22.344Z</time>
      </trkpt>
      <trkpt lat="45.92987" lon="6.36133">
        <ele>1732</ele>
        <time>2026-08-19T08:45:23.344Z</time>
      </trkpt>
      <trkpt lat="45.92988" lon="6.36133">
        <ele>1732</ele>
        <time>2026-08-19T08:45:24.344Z</time>
      </trkpt>
      <trkpt lat="45.92988" lon="6.36132">
        <ele>1732</ele>
        <time>2026-08-19T08:45:25.344Z</time>
      </trkpt>
      <trkpt lat="45.92989" lon="6.36131">
        <ele>1733</ele>
        <time>2026-08-19T08:45:26.344Z</time>
      </trkpt>
      <trkpt lat="45.9299" lon="6.36131">
        <ele>1733</ele>
        <time>2026-08-19T08:45:27.344Z</time>
      </trkpt>
      <trkpt lat="45.92991" lon="6.36131">
        <ele>1733</ele>
        <time>2026-08-19T08:45:28.344Z</time>
      </trkpt>
      <trkpt lat="45.92992" lon="6.3613">
        <ele>1734</ele>
        <time>2026-08-19T08:45:29.344Z</time>
      </trkpt>
      <trkpt lat="45.92993" lon="6.3613">
        <ele>1734</ele>
        <time>2026-08-19T08:45:30.344Z</time>
      </trkpt>
      <trkpt lat="45.92994" lon="6.36129">
        <ele>1734</ele>
        <time>2026-08-19T08:45:31.344Z</time>
      </trkpt>
      <trkpt lat="45.92995" lon="6.36128">
        <ele>1734</ele>
        <time>2026-08-19T08:45:32.345Z</time>
      </trkpt>
      <trkpt lat="45.92996" lon="6.36127">
        <ele>1734</ele>
        <time>2026-08-19T08:45:33.344Z</time>
      </trkpt>
      <trkpt lat="45.92997" lon="6.36127">
        <ele>1734</ele>
        <time>2026-08-19T08:45:34.344Z</time>
      </trkpt>
      <trkpt lat="45.92997" lon="6.36127">
        <ele>1735</ele>
        <time>2026-08-19T08:45:35.344Z</time>
      </trkpt>
      <trkpt lat="45.92999" lon="6.36127">
        <ele>1735</ele>
        <time>2026-08-19T08:45:36.344Z</time>
      </trkpt>
      <trkpt lat="45.93" lon="6.36127">
        <ele>1735</ele>
        <time>2026-08-19T08:45:37.344Z</time>
      </trkpt>
      <trkpt lat="45.93" lon="6.36127">
        <ele>1736</ele>
        <time>2026-08-19T08:45:38.344Z</time>
      </trkpt>
      <trkpt lat="45.93001" lon="6.36127">
        <ele>1736</ele>
        <time>2026-08-19T08:45:39.344Z</time>
      </trkpt>
      <trkpt lat="45.93002" lon="6.36127">
        <ele>1737</ele>
        <time>2026-08-19T08:45:40.344Z</time>
      </trkpt>
      <trkpt lat="45.93002" lon="6.36127">
        <ele>1737</ele>
        <time>2026-08-19T08:45:41.344Z</time>
      </trkpt>
      <trkpt lat="45.93003" lon="6.36127">
        <ele>1737</ele>
        <time>2026-08-19T08:45:42.344Z</time>
      </trkpt>
      <trkpt lat="45.93003" lon="6.36127">
        <ele>1738</ele>
        <time>2026-08-19T08:45:43.344Z</time>
      </trkpt>
      <trkpt lat="45.93004" lon="6.36127">
        <ele>1738</ele>
        <time>2026-08-19T08:45:44.344Z</time>
      </trkpt>
      <trkpt lat="45.93005" lon="6.36127">
        <ele>1738</ele>
        <time>2026-08-19T08:45:45.344Z</time>
      </trkpt>
      <trkpt lat="45.93006" lon="6.36126">
        <ele>1738</ele>
        <time>2026-08-19T08:45:46.344Z</time>
      </trkpt>
      <trkpt lat="45.93006" lon="6.36126">
        <ele>1738</ele>
        <time>2026-08-19T08:45:47.344Z</time>
      </trkpt>
      <trkpt lat="45.93007" lon="6.36126">
        <ele>1739</ele>
        <time>2026-08-19T08:45:48.345Z</time>
      </trkpt>
      <trkpt lat="45.93007" lon="6.36126">
        <ele>1739</ele>
        <time>2026-08-19T08:45:49.344Z</time>
      </trkpt>
      <trkpt lat="45.93007" lon="6.36126">
        <ele>1739</ele>
        <time>2026-08-19T08:45:50.344Z</time>
      </trkpt>
      <trkpt lat="45.93008" lon="6.36126">
        <ele>1740</ele>
        <time>2026-08-19T08:45:51.344Z</time>
      </trkpt>
      <trkpt lat="45.93008" lon="6.36126">
        <ele>1740</ele>
        <time>2026-08-19T08:45:52.344Z</time>
      </trkpt>
      <trkpt lat="45.93007" lon="6.36125">
        <ele>1741</ele>
        <time>2026-08-19T08:45:53.344Z</time>
      </trkpt>
      <trkpt lat="45.93007" lon="6.36124">
        <ele>1741</ele>
        <time>2026-08-19T08:45:54.344Z</time>
      </trkpt>
      <trkpt lat="45.93007" lon="6.36123">
        <ele>1741</ele>
        <time>2026-08-19T08:45:55.344Z</time>
      </trkpt>
      <trkpt lat="45.93007" lon="6.36121">
        <ele>1742</ele>
        <time>2026-08-19T08:45:56.345Z</time>
      </trkpt>
      <trkpt lat="45.93007" lon="6.3612">
        <ele>1742</ele>
        <time>2026-08-19T08:45:57.344Z</time>
      </trkpt>
      <trkpt lat="45.93007" lon="6.36119">
        <ele>1743</ele>
        <time>2026-08-19T08:45:58.344Z</time>
      </trkpt>
      <trkpt lat="45.93007" lon="6.36118">
        <ele>1744</ele>
        <time>2026-08-19T08:45:59.344Z</time>
      </trkpt>
      <trkpt lat="45.93007" lon="6.36116">
        <ele>1744</ele>
        <time>2026-08-19T08:46:00.344Z</time>
      </trkpt>
      <trkpt lat="45.93007" lon="6.36115">
        <ele>1745</ele>
        <time>2026-08-19T08:46:01.344Z</time>
      </trkpt>
      <trkpt lat="45.93007" lon="6.36113">
        <ele>1745</ele>
        <time>2026-08-19T08:46:02.344Z</time>
      </trkpt>
      <trkpt lat="45.93007" lon="6.36112">
        <ele>1745</ele>
        <time>2026-08-19T08:46:03.344Z</time>
      </trkpt>
      <trkpt lat="45.93007" lon="6.3611">
        <ele>1745</ele>
        <time>2026-08-19T08:46:04.344Z</time>
      </trkpt>
      <trkpt lat="45.93008" lon="6.36109">
        <ele>1746</ele>
        <time>2026-08-19T08:46:05.344Z</time>
      </trkpt>
      <trkpt lat="45.93008" lon="6.36108">
        <ele>1746</ele>
        <time>2026-08-19T08:46:06.345Z</time>
      </trkpt>
      <trkpt lat="45.93008" lon="6.36107">
        <ele>1746</ele>
        <time>2026-08-19T08:46:07.344Z</time>
      </trkpt>
      <trkpt lat="45.93009" lon="6.36106">
        <ele>1746</ele>
        <time>2026-08-19T08:46:08.344Z</time>
      </trkpt>
      <trkpt lat="45.9301" lon="6.36105">
        <ele>1747</ele>
        <time>2026-08-19T08:46:09.344Z</time>
      </trkpt>
      <trkpt lat="45.9301" lon="6.36105">
        <ele>1747</ele>
        <time>2026-08-19T08:46:10.344Z</time>
      </trkpt>
      <trkpt lat="45.93011" lon="6.36104">
        <ele>1747</ele>
        <time>2026-08-19T08:46:11.344Z</time>
      </trkpt>
      <trkpt lat="45.93012" lon="6.36103">
        <ele>1748</ele>
        <time>2026-08-19T08:46:12.344Z</time>
      </trkpt>
      <trkpt lat="45.93012" lon="6.36103">
        <ele>1748</ele>
        <time>2026-08-19T08:46:13.344Z</time>
      </trkpt>
      <trkpt lat="45.93013" lon="6.36102">
        <ele>1749</ele>
        <time>2026-08-19T08:46:14.344Z</time>
      </trkpt>
      <trkpt lat="45.93013" lon="6.36101">
        <ele>1749</ele>
        <time>2026-08-19T08:46:15.344Z</time>
      </trkpt>
      <trkpt lat="45.93013" lon="6.361">
        <ele>1749</ele>
        <time>2026-08-19T08:46:16.344Z</time>
      </trkpt>
      <trkpt lat="45.93013" lon="6.36099">
        <ele>1749</ele>
        <time>2026-08-19T08:46:17.344Z</time>
      </trkpt>
      <trkpt lat="45.93013" lon="6.36098">
        <ele>1749</ele>
        <time>2026-08-19T08:46:18.344Z</time>
      </trkpt>
      <trkpt lat="45.93013" lon="6.36097">
        <ele>1749</ele>
        <time>2026-08-19T08:46:19.344Z</time>
      </trkpt>
      <trkpt lat="45.93013" lon="6.36096">
        <ele>1749</ele>
        <time>2026-08-19T08:46:20.344Z</time>
      </trkpt>
      <trkpt lat="45.93014" lon="6.36096">
        <ele>1749</ele>
        <time>2026-08-19T08:46:21.344Z</time>
      </trkpt>
      <trkpt lat="45.93015" lon="6.36095">
        <ele>1749</ele>
        <time>2026-08-19T08:46:22.344Z</time>
      </trkpt>
      <trkpt lat="45.93016" lon="6.36095">
        <ele>1749</ele>
        <time>2026-08-19T08:46:23.344Z</time>
      </trkpt>
      <trkpt lat="45.93016" lon="6.36094">
        <ele>1749</ele>
        <time>2026-08-19T08:46:24.344Z</time>
      </trkpt>
      <trkpt lat="45.93017" lon="6.36093">
        <ele>1748</ele>
        <time>2026-08-19T08:46:25.344Z</time>
      </trkpt>
      <trkpt lat="45.93017" lon="6.36092">
        <ele>1749</ele>
        <time>2026-08-19T08:46:26.344Z</time>
      </trkpt>
      <trkpt lat="45.93018" lon="6.36091">
        <ele>1749</ele>
        <time>2026-08-19T08:46:27.344Z</time>
      </trkpt>
      <trkpt lat="45.93019" lon="6.3609">
        <ele>1749</ele>
        <time>2026-08-19T08:46:28.344Z</time>
      </trkpt>
      <trkpt lat="45.9302" lon="6.36088">
        <ele>1750</ele>
        <time>2026-08-19T08:46:29.344Z</time>
      </trkpt>
      <trkpt lat="45.9302" lon="6.36088">
        <ele>1750</ele>
        <time>2026-08-19T08:46:30.344Z</time>
      </trkpt>
      <trkpt lat="45.93021" lon="6.36088">
        <ele>1750</ele>
        <time>2026-08-19T08:46:31.344Z</time>
      </trkpt>
      <trkpt lat="45.93022" lon="6.36088">
        <ele>1751</ele>
        <time>2026-08-19T08:46:32.344Z</time>
      </trkpt>
      <trkpt lat="45.93022" lon="6.36088">
        <ele>1751</ele>
        <time>2026-08-19T08:46:33.344Z</time>
      </trkpt>
      <trkpt lat="45.93023" lon="6.36087">
        <ele>1751</ele>
        <time>2026-08-19T08:46:34.344Z</time>
      </trkpt>
      <trkpt lat="45.93023" lon="6.36087">
        <ele>1751</ele>
        <time>2026-08-19T08:46:35.344Z</time>
      </trkpt>
      <trkpt lat="45.93024" lon="6.36087">
        <ele>1751</ele>
        <time>2026-08-19T08:46:36.345Z</time>
      </trkpt>
      <trkpt lat="45.93024" lon="6.36087">
        <ele>1751</ele>
        <time>2026-08-19T08:46:37.344Z</time>
      </trkpt>
      <trkpt lat="45.93025" lon="6.36086">
        <ele>1752</ele>
        <time>2026-08-19T08:46:38.344Z</time>
      </trkpt>
      <trkpt lat="45.93025" lon="6.36086">
        <ele>1752</ele>
        <time>2026-08-19T08:46:39.344Z</time>
      </trkpt>
      <trkpt lat="45.93025" lon="6.36086">
        <ele>1752</ele>
        <time>2026-08-19T08:46:40.344Z</time>
      </trkpt>
      <trkpt lat="45.93026" lon="6.36086">
        <ele>1753</ele>
        <time>2026-08-19T08:46:41.344Z</time>
      </trkpt>
      <trkpt lat="45.93026" lon="6.36086">
        <ele>1753</ele>
        <time>2026-08-19T08:46:42.344Z</time>
      </trkpt>
      <trkpt lat="45.93026" lon="6.36087">
        <ele>1753</ele>
        <time>2026-08-19T08:46:43.344Z</time>
      </trkpt>
      <trkpt lat="45.93027" lon="6.36087">
        <ele>1753</ele>
        <time>2026-08-19T08:46:44.344Z</time>
      </trkpt>
      <trkpt lat="45.93027" lon="6.36087">
        <ele>1753</ele>
        <time>2026-08-19T08:46:45.344Z</time>
      </trkpt>
      <trkpt lat="45.93028" lon="6.36088">
        <ele>1753</ele>
        <time>2026-08-19T08:46:46.344Z</time>
      </trkpt>
      <trkpt lat="45.93028" lon="6.36088">
        <ele>1753</ele>
        <time>2026-08-19T08:46:47.344Z</time>
      </trkpt>
      <trkpt lat="45.93028" lon="6.36088">
        <ele>1753</ele>
        <time>2026-08-19T08:46:48.344Z</time>
      </trkpt>
      <trkpt lat="45.93029" lon="6.36088">
        <ele>1753</ele>
        <time>2026-08-19T08:46:49.344Z</time>
      </trkpt>
      <trkpt lat="45.9303" lon="6.36088">
        <ele>1753</ele>
        <time>2026-08-19T08:46:50.344Z</time>
      </trkpt>
      <trkpt lat="45.9303" lon="6.36088">
        <ele>1753</ele>
        <time>2026-08-19T08:46:51.345Z</time>
      </trkpt>
      <trkpt lat="45.93031" lon="6.36087">
        <ele>1753</ele>
        <time>2026-08-19T08:46:52.344Z</time>
      </trkpt>
      <trkpt lat="45.93031" lon="6.36086">
        <ele>1754</ele>
        <time>2026-08-19T08:46:53.344Z</time>
      </trkpt>
      <trkpt lat="45.93032" lon="6.36086">
        <ele>1754</ele>
        <time>2026-08-19T08:46:54.344Z</time>
      </trkpt>
      <trkpt lat="45.93032" lon="6.36085">
        <ele>1755</ele>
        <time>2026-08-19T08:46:55.344Z</time>
      </trkpt>
      <trkpt lat="45.93033" lon="6.36085">
        <ele>1755</ele>
        <time>2026-08-19T08:46:56.344Z</time>
      </trkpt>
      <trkpt lat="45.93033" lon="6.36085">
        <ele>1756</ele>
        <time>2026-08-19T08:46:57.344Z</time>
      </trkpt>
      <trkpt lat="45.93034" lon="6.36085">
        <ele>1756</ele>
        <time>2026-08-19T08:46:58.344Z</time>
      </trkpt>
      <trkpt lat="45.93034" lon="6.36084">
        <ele>1757</ele>
        <time>2026-08-19T08:46:59.345Z</time>
      </trkpt>
      <trkpt lat="45.93035" lon="6.36084">
        <ele>1757</ele>
        <time>2026-08-19T08:47:00.344Z</time>
      </trkpt>
      <trkpt lat="45.93035" lon="6.36083">
        <ele>1757</ele>
        <time>2026-08-19T08:47:01.344Z</time>
      </trkpt>
      <trkpt lat="45.93035" lon="6.36082">
        <ele>1757</ele>
        <time>2026-08-19T08:47:02.344Z</time>
      </trkpt>
      <trkpt lat="45.93035" lon="6.36081">
        <ele>1757</ele>
        <time>2026-08-19T08:47:03.344Z</time>
      </trkpt>
      <trkpt lat="45.93035" lon="6.3608">
        <ele>1757</ele>
        <time>2026-08-19T08:47:04.344Z</time>
      </trkpt>
      <trkpt lat="45.93035" lon="6.36079">
        <ele>1758</ele>
        <time>2026-08-19T08:47:05.344Z</time>
      </trkpt>
      <trkpt lat="45.93036" lon="6.36078">
        <ele>1758</ele>
        <time>2026-08-19T08:47:06.345Z</time>
      </trkpt>
      <trkpt lat="45.93036" lon="6.36077">
        <ele>1758</ele>
        <time>2026-08-19T08:47:07.344Z</time>
      </trkpt>
      <trkpt lat="45.93036" lon="6.36077">
        <ele>1758</ele>
        <time>2026-08-19T08:47:08.344Z</time>
      </trkpt>
      <trkpt lat="45.93037" lon="6.36077">
        <ele>1758</ele>
        <time>2026-08-19T08:47:09.344Z</time>
      </trkpt>
      <trkpt lat="45.93037" lon="6.36076">
        <ele>1759</ele>
        <time>2026-08-19T08:47:10.344Z</time>
      </trkpt>
      <trkpt lat="45.93037" lon="6.36075">
        <ele>1759</ele>
        <time>2026-08-19T08:47:11.344Z</time>
      </trkpt>
      <trkpt lat="45.93037" lon="6.36074">
        <ele>1759</ele>
        <time>2026-08-19T08:47:12.344Z</time>
      </trkpt>
      <trkpt lat="45.93037" lon="6.36073">
        <ele>1759</ele>
        <time>2026-08-19T08:47:13.344Z</time>
      </trkpt>
      <trkpt lat="45.93037" lon="6.36072">
        <ele>1759</ele>
        <time>2026-08-19T08:47:14.344Z</time>
      </trkpt>
      <trkpt lat="45.93037" lon="6.3607">
        <ele>1759</ele>
        <time>2026-08-19T08:47:15.344Z</time>
      </trkpt>
      <trkpt lat="45.93037" lon="6.36069">
        <ele>1759</ele>
        <time>2026-08-19T08:47:16.344Z</time>
      </trkpt>
      <trkpt lat="45.93037" lon="6.36067">
        <ele>1760</ele>
        <time>2026-08-19T08:47:17.344Z</time>
      </trkpt>
      <trkpt lat="45.93038" lon="6.36066">
        <ele>1760</ele>
        <time>2026-08-19T08:47:18.344Z</time>
      </trkpt>
      <trkpt lat="45.93039" lon="6.36066">
        <ele>1761</ele>
        <time>2026-08-19T08:47:19.344Z</time>
      </trkpt>
      <trkpt lat="45.9304" lon="6.36066">
        <ele>1761</ele>
        <time>2026-08-19T08:47:20.344Z</time>
      </trkpt>
      <trkpt lat="45.93041" lon="6.36066">
        <ele>1761</ele>
        <time>2026-08-19T08:47:21.344Z</time>
      </trkpt>
      <trkpt lat="45.93042" lon="6.36066">
        <ele>1762</ele>
        <time>2026-08-19T08:47:22.344Z</time>
      </trkpt>
      <trkpt lat="45.93043" lon="6.36066">
        <ele>1762</ele>
        <time>2026-08-19T08:47:23.344Z</time>
      </trkpt>
      <trkpt lat="45.93044" lon="6.36065">
        <ele>1762</ele>
        <time>2026-08-19T08:47:24.344Z</time>
      </trkpt>
      <trkpt lat="45.93045" lon="6.36064">
        <ele>1762</ele>
        <time>2026-08-19T08:47:25.344Z</time>
      </trkpt>
      <trkpt lat="45.93046" lon="6.36065">
        <ele>1763</ele>
        <time>2026-08-19T08:47:26.344Z</time>
      </trkpt>
      <trkpt lat="45.93047" lon="6.36064">
        <ele>1763</ele>
        <time>2026-08-19T08:47:27.344Z</time>
      </trkpt>
      <trkpt lat="45.93048" lon="6.36063">
        <ele>1764</ele>
        <time>2026-08-19T08:47:28.344Z</time>
      </trkpt>
      <trkpt lat="45.93048" lon="6.36063">
        <ele>1764</ele>
        <time>2026-08-19T08:47:29.344Z</time>
      </trkpt>
      <trkpt lat="45.93049" lon="6.36062">
        <ele>1765</ele>
        <time>2026-08-19T08:47:30.344Z</time>
      </trkpt>
      <trkpt lat="45.9305" lon="6.36062">
        <ele>1765</ele>
        <time>2026-08-19T08:47:31.344Z</time>
      </trkpt>
      <trkpt lat="45.93051" lon="6.36062">
        <ele>1765</ele>
        <time>2026-08-19T08:47:32.344Z</time>
      </trkpt>
      <trkpt lat="45.93052" lon="6.36062">
        <ele>1765</ele>
        <time>2026-08-19T08:47:33.344Z</time>
      </trkpt>
      <trkpt lat="45.93053" lon="6.36062">
        <ele>1766</ele>
        <time>2026-08-19T08:47:34.344Z</time>
      </trkpt>
      <trkpt lat="45.93054" lon="6.36062">
        <ele>1766</ele>
        <time>2026-08-19T08:47:35.344Z</time>
      </trkpt>
      <trkpt lat="45.93055" lon="6.36062">
        <ele>1766</ele>
        <time>2026-08-19T08:47:36.344Z</time>
      </trkpt>
      <trkpt lat="45.93056" lon="6.36063">
        <ele>1767</ele>
        <time>2026-08-19T08:47:37.344Z</time>
      </trkpt>
      <trkpt lat="45.93057" lon="6.36063">
        <ele>1767</ele>
        <time>2026-08-19T08:47:38.344Z</time>
      </trkpt>
      <trkpt lat="45.93058" lon="6.36064">
        <ele>1767</ele>
        <time>2026-08-19T08:47:39.344Z</time>
      </trkpt>
      <trkpt lat="45.93059" lon="6.36064">
        <ele>1767</ele>
        <time>2026-08-19T08:47:40.344Z</time>
      </trkpt>
      <trkpt lat="45.9306" lon="6.36065">
        <ele>1768</ele>
        <time>2026-08-19T08:47:41.344Z</time>
      </trkpt>
      <trkpt lat="45.93061" lon="6.36066">
        <ele>1768</ele>
        <time>2026-08-19T08:47:42.344Z</time>
      </trkpt>
      <trkpt lat="45.93061" lon="6.36067">
        <ele>1768</ele>
        <time>2026-08-19T08:47:43.344Z</time>
      </trkpt>
      <trkpt lat="45.93062" lon="6.36068">
        <ele>1768</ele>
        <time>2026-08-19T08:47:44.344Z</time>
      </trkpt>
      <trkpt lat="45.93064" lon="6.3607">
        <ele>1768</ele>
        <time>2026-08-19T08:47:45.345Z</time>
      </trkpt>
      <trkpt lat="45.93065" lon="6.36071">
        <ele>1768</ele>
        <time>2026-08-19T08:47:46.344Z</time>
      </trkpt>
      <trkpt lat="45.93066" lon="6.36073">
        <ele>1768</ele>
        <time>2026-08-19T08:47:47.344Z</time>
      </trkpt>
      <trkpt lat="45.93067" lon="6.36075">
        <ele>1767</ele>
        <time>2026-08-19T08:47:48.344Z</time>
      </trkpt>
      <trkpt lat="45.93068" lon="6.36076">
        <ele>1767</ele>
        <time>2026-08-19T08:47:49.344Z</time>
      </trkpt>
      <trkpt lat="45.93068" lon="6.36077">
        <ele>1767</ele>
        <time>2026-08-19T08:47:50.344Z</time>
      </trkpt>
      <trkpt lat="45.9307" lon="6.36078">
        <ele>1767</ele>
        <time>2026-08-19T08:47:51.344Z</time>
      </trkpt>
      <trkpt lat="45.93071" lon="6.3608">
        <ele>1767</ele>
        <time>2026-08-19T08:47:52.344Z</time>
      </trkpt>
      <trkpt lat="45.93072" lon="6.36081">
        <ele>1767</ele>
        <time>2026-08-19T08:47:53.344Z</time>
      </trkpt>
      <trkpt lat="45.93074" lon="6.36083">
        <ele>1767</ele>
        <time>2026-08-19T08:47:54.344Z</time>
      </trkpt>
      <trkpt lat="45.93075" lon="6.36085">
        <ele>1767</ele>
        <time>2026-08-19T08:47:55.344Z</time>
      </trkpt>
      <trkpt lat="45.93076" lon="6.36086">
        <ele>1766</ele>
        <time>2026-08-19T08:47:56.345Z</time>
      </trkpt>
      <trkpt lat="45.93077" lon="6.36087">
        <ele>1766</ele>
        <time>2026-08-19T08:47:57.344Z</time>
      </trkpt>
      <trkpt lat="45.93078" lon="6.36088">
        <ele>1766</ele>
        <time>2026-08-19T08:47:58.344Z</time>
      </trkpt>
      <trkpt lat="45.93079" lon="6.36089">
        <ele>1765</ele>
        <time>2026-08-19T08:47:59.344Z</time>
      </trkpt>
      <trkpt lat="45.9308" lon="6.3609">
        <ele>1765</ele>
        <time>2026-08-19T08:48:00.344Z</time>
      </trkpt>
      <trkpt lat="45.9308" lon="6.3609">
        <ele>1764</ele>
        <time>2026-08-19T08:48:01.344Z</time>
      </trkpt>
      <trkpt lat="45.93081" lon="6.36091">
        <ele>1764</ele>
        <time>2026-08-19T08:48:02.344Z</time>
      </trkpt>
      <trkpt lat="45.93081" lon="6.36091">
        <ele>1764</ele>
        <time>2026-08-19T08:48:03.344Z</time>
      </trkpt>
      <trkpt lat="45.93081" lon="6.36091">
        <ele>1764</ele>
        <time>2026-08-19T08:48:04.344Z</time>
      </trkpt>
      <trkpt lat="45.93081" lon="6.36091">
        <ele>1764</ele>
        <time>2026-08-19T08:48:05.344Z</time>
      </trkpt>
      <trkpt lat="45.93081" lon="6.36091">
        <ele>1765</ele>
        <time>2026-08-19T08:48:06.344Z</time>
      </trkpt>
      <trkpt lat="45.93081" lon="6.36091">
        <ele>1765</ele>
        <time>2026-08-19T08:48:07.344Z</time>
      </trkpt>
      <trkpt lat="45.93081" lon="6.36092">
        <ele>1765</ele>
        <time>2026-08-19T08:48:08.344Z</time>
      </trkpt>
      <trkpt lat="45.93082" lon="6.36092">
        <ele>1765</ele>
        <time>2026-08-19T08:48:09.344Z</time>
      </trkpt>
      <trkpt lat="45.93082" lon="6.36093">
        <ele>1765</ele>
        <time>2026-08-19T08:48:10.344Z</time>
      </trkpt>
      <trkpt lat="45.93081" lon="6.36092">
        <ele>1765</ele>
        <time>2026-08-19T08:48:11.344Z</time>
      </trkpt>
      <trkpt lat="45.93081" lon="6.36092">
        <ele>1766</ele>
        <time>2026-08-19T08:48:12.344Z</time>
      </trkpt>
      <trkpt lat="45.93082" lon="6.36091">
        <ele>1766</ele>
        <time>2026-08-19T08:48:13.344Z</time>
      </trkpt>
      <trkpt lat="45.93082" lon="6.36091">
        <ele>1766</ele>
        <time>2026-08-19T08:48:14.345Z</time>
      </trkpt>
      <trkpt lat="45.93083" lon="6.3609">
        <ele>1766</ele>
        <time>2026-08-19T08:48:15.344Z</time>
      </trkpt>
      <trkpt lat="45.93084" lon="6.36091">
        <ele>1766</ele>
        <time>2026-08-19T08:48:16.344Z</time>
      </trkpt>
      <trkpt lat="45.93084" lon="6.36091">
        <ele>1766</ele>
        <time>2026-08-19T08:48:17.344Z</time>
      </trkpt>
      <trkpt lat="45.93085" lon="6.36092">
        <ele>1766</ele>
        <time>2026-08-19T08:48:18.344Z</time>
      </trkpt>
      <trkpt lat="45.93086" lon="6.36093">
        <ele>1766</ele>
        <time>2026-08-19T08:48:19.344Z</time>
      </trkpt>
      <trkpt lat="45.93086" lon="6.36094">
        <ele>1766</ele>
        <time>2026-08-19T08:48:20.344Z</time>
      </trkpt>
      <trkpt lat="45.93087" lon="6.36095">
        <ele>1766</ele>
        <time>2026-08-19T08:48:21.344Z</time>
      </trkpt>
      <trkpt lat="45.93088" lon="6.36096">
        <ele>1766</ele>
        <time>2026-08-19T08:48:22.344Z</time>
      </trkpt>
      <trkpt lat="45.93089" lon="6.36097">
        <ele>1766</ele>
        <time>2026-08-19T08:48:23.344Z</time>
      </trkpt>
      <trkpt lat="45.9309" lon="6.36097">
        <ele>1766</ele>
        <time>2026-08-19T08:48:24.344Z</time>
      </trkpt>
      <trkpt lat="45.9309" lon="6.36098">
        <ele>1765</ele>
        <time>2026-08-19T08:48:25.344Z</time>
      </trkpt>
      <trkpt lat="45.93091" lon="6.36099">
        <ele>1765</ele>
        <time>2026-08-19T08:48:26.344Z</time>
      </trkpt>
      <trkpt lat="45.93091" lon="6.361">
        <ele>1765</ele>
        <time>2026-08-19T08:48:27.344Z</time>
      </trkpt>
      <trkpt lat="45.93092" lon="6.36101">
        <ele>1765</ele>
        <time>2026-08-19T08:48:28.344Z</time>
      </trkpt>
      <trkpt lat="45.93093" lon="6.36103">
        <ele>1765</ele>
        <time>2026-08-19T08:48:29.344Z</time>
      </trkpt>
      <trkpt lat="45.93093" lon="6.36104">
        <ele>1765</ele>
        <time>2026-08-19T08:48:30.344Z</time>
      </trkpt>
      <trkpt lat="45.93094" lon="6.36105">
        <ele>1764</ele>
        <time>2026-08-19T08:48:31.344Z</time>
      </trkpt>
      <trkpt lat="45.93094" lon="6.36106">
        <ele>1764</ele>
        <time>2026-08-19T08:48:32.344Z</time>
      </trkpt>
      <trkpt lat="45.93095" lon="6.36107">
        <ele>1764</ele>
        <time>2026-08-19T08:48:33.344Z</time>
      </trkpt>
      <trkpt lat="45.93096" lon="6.36108">
        <ele>1763</ele>
        <time>2026-08-19T08:48:34.344Z</time>
      </trkpt>
      <trkpt lat="45.93097" lon="6.3611">
        <ele>1763</ele>
        <time>2026-08-19T08:48:35.344Z</time>
      </trkpt>
      <trkpt lat="45.93098" lon="6.36111">
        <ele>1763</ele>
        <time>2026-08-19T08:48:36.344Z</time>
      </trkpt>
      <trkpt lat="45.93099" lon="6.36113">
        <ele>1763</ele>
        <time>2026-08-19T08:48:37.344Z</time>
      </trkpt>
      <trkpt lat="45.931" lon="6.36114">
        <ele>1763</ele>
        <time>2026-08-19T08:48:38.344Z</time>
      </trkpt>
      <trkpt lat="45.93102" lon="6.36116">
        <ele>1763</ele>
        <time>2026-08-19T08:48:39.345Z</time>
      </trkpt>
      <trkpt lat="45.93103" lon="6.36118">
        <ele>1763</ele>
        <time>2026-08-19T08:48:40.345Z</time>
      </trkpt>
      <trkpt lat="45.93104" lon="6.36119">
        <ele>1763</ele>
        <time>2026-08-19T08:48:41.344Z</time>
      </trkpt>
      <trkpt lat="45.93106" lon="6.36121">
        <ele>1764</ele>
        <time>2026-08-19T08:48:42.345Z</time>
      </trkpt>
      <trkpt lat="45.93107" lon="6.36122">
        <ele>1764</ele>
        <time>2026-08-19T08:48:43.344Z</time>
      </trkpt>
      <trkpt lat="45.93108" lon="6.36124">
        <ele>1764</ele>
        <time>2026-08-19T08:48:44.344Z</time>
      </trkpt>
      <trkpt lat="45.93109" lon="6.36125">
        <ele>1764</ele>
        <time>2026-08-19T08:48:45.344Z</time>
      </trkpt>
      <trkpt lat="45.9311" lon="6.36127">
        <ele>1764</ele>
        <time>2026-08-19T08:48:46.344Z</time>
      </trkpt>
      <trkpt lat="45.93111" lon="6.36128">
        <ele>1764</ele>
        <time>2026-08-19T08:48:47.344Z</time>
      </trkpt>
      <trkpt lat="45.93113" lon="6.36129">
        <ele>1764</ele>
        <time>2026-08-19T08:48:48.344Z</time>
      </trkpt>
      <trkpt lat="45.93114" lon="6.3613">
        <ele>1763</ele>
        <time>2026-08-19T08:48:49.344Z</time>
      </trkpt>
      <trkpt lat="45.93115" lon="6.36131">
        <ele>1763</ele>
        <time>2026-08-19T08:48:50.344Z</time>
      </trkpt>
      <trkpt lat="45.93117" lon="6.36132">
        <ele>1763</ele>
        <time>2026-08-19T08:48:51.344Z</time>
      </trkpt>
      <trkpt lat="45.93118" lon="6.36134">
        <ele>1763</ele>
        <time>2026-08-19T08:48:52.344Z</time>
      </trkpt>
      <trkpt lat="45.93119" lon="6.36135">
        <ele>1763</ele>
        <time>2026-08-19T08:48:53.344Z</time>
      </trkpt>
      <trkpt lat="45.9312" lon="6.36137">
        <ele>1763</ele>
        <time>2026-08-19T08:48:54.344Z</time>
      </trkpt>
      <trkpt lat="45.93121" lon="6.36139">
        <ele>1763</ele>
        <time>2026-08-19T08:48:55.344Z</time>
      </trkpt>
      <trkpt lat="45.93123" lon="6.36141">
        <ele>1763</ele>
        <time>2026-08-19T08:48:56.344Z</time>
      </trkpt>
      <trkpt lat="45.93124" lon="6.36142">
        <ele>1763</ele>
        <time>2026-08-19T08:48:57.344Z</time>
      </trkpt>
      <trkpt lat="45.93125" lon="6.36143">
        <ele>1763</ele>
        <time>2026-08-19T08:48:58.344Z</time>
      </trkpt>
      <trkpt lat="45.93126" lon="6.36144">
        <ele>1763</ele>
        <time>2026-08-19T08:48:59.344Z</time>
      </trkpt>
      <trkpt lat="45.93127" lon="6.36145">
        <ele>1763</ele>
        <time>2026-08-19T08:49:00.344Z</time>
      </trkpt>
      <trkpt lat="45.93128" lon="6.36146">
        <ele>1763</ele>
        <time>2026-08-19T08:49:01.344Z</time>
      </trkpt>
      <trkpt lat="45.93129" lon="6.36148">
        <ele>1763</ele>
        <time>2026-08-19T08:49:02.344Z</time>
      </trkpt>
      <trkpt lat="45.9313" lon="6.3615">
        <ele>1763</ele>
        <time>2026-08-19T08:49:03.344Z</time>
      </trkpt>
      <trkpt lat="45.9313" lon="6.36152">
        <ele>1763</ele>
        <time>2026-08-19T08:49:04.344Z</time>
      </trkpt>
      <trkpt lat="45.93129" lon="6.36154">
        <ele>1763</ele>
        <time>2026-08-19T08:49:05.344Z</time>
      </trkpt>
      <trkpt lat="45.93129" lon="6.36157">
        <ele>1764</ele>
        <time>2026-08-19T08:49:06.344Z</time>
      </trkpt>
      <trkpt lat="45.93129" lon="6.36159">
        <ele>1764</ele>
        <time>2026-08-19T08:49:07.344Z</time>
      </trkpt>
      <trkpt lat="45.93129" lon="6.3616">
        <ele>1764</ele>
        <time>2026-08-19T08:49:08.344Z</time>
      </trkpt>
      <trkpt lat="45.93129" lon="6.36162">
        <ele>1764</ele>
        <time>2026-08-19T08:49:09.344Z</time>
      </trkpt>
      <trkpt lat="45.9313" lon="6.36164">
        <ele>1764</ele>
        <time>2026-08-19T08:49:10.344Z</time>
      </trkpt>
      <trkpt lat="45.93131" lon="6.36166">
        <ele>1764</ele>
        <time>2026-08-19T08:49:11.344Z</time>
      </trkpt>
      <trkpt lat="45.93132" lon="6.36167">
        <ele>1764</ele>
        <time>2026-08-19T08:49:12.344Z</time>
      </trkpt>
      <trkpt lat="45.93133" lon="6.36169">
        <ele>1764</ele>
        <time>2026-08-19T08:49:13.344Z</time>
      </trkpt>
      <trkpt lat="45.93134" lon="6.3617">
        <ele>1764</ele>
        <time>2026-08-19T08:49:14.344Z</time>
      </trkpt>
      <trkpt lat="45.93135" lon="6.36171">
        <ele>1765</ele>
        <time>2026-08-19T08:49:15.344Z</time>
      </trkpt>
      <trkpt lat="45.93136" lon="6.36172">
        <ele>1765</ele>
        <time>2026-08-19T08:49:16.344Z</time>
      </trkpt>
      <trkpt lat="45.93137" lon="6.36172">
        <ele>1766</ele>
        <time>2026-08-19T08:49:17.344Z</time>
      </trkpt>
      <trkpt lat="45.93139" lon="6.36173">
        <ele>1766</ele>
        <time>2026-08-19T08:49:18.344Z</time>
      </trkpt>
      <trkpt lat="45.9314" lon="6.36173">
        <ele>1766</ele>
        <time>2026-08-19T08:49:19.344Z</time>
      </trkpt>
      <trkpt lat="45.93141" lon="6.36174">
        <ele>1766</ele>
        <time>2026-08-19T08:49:20.344Z</time>
      </trkpt>
      <trkpt lat="45.93142" lon="6.36176">
        <ele>1766</ele>
        <time>2026-08-19T08:49:21.344Z</time>
      </trkpt>
      <trkpt lat="45.93143" lon="6.36177">
        <ele>1766</ele>
        <time>2026-08-19T08:49:22.344Z</time>
      </trkpt>
      <trkpt lat="45.93144" lon="6.36179">
        <ele>1766</ele>
        <time>2026-08-19T08:49:23.344Z</time>
      </trkpt>
      <trkpt lat="45.93145" lon="6.36181">
        <ele>1766</ele>
        <time>2026-08-19T08:49:24.344Z</time>
      </trkpt>
      <trkpt lat="45.93145" lon="6.36183">
        <ele>1766</ele>
        <time>2026-08-19T08:49:25.344Z</time>
      </trkpt>
      <trkpt lat="45.93145" lon="6.36185">
        <ele>1766</ele>
        <time>2026-08-19T08:49:26.344Z</time>
      </trkpt>
      <trkpt lat="45.93145" lon="6.36188">
        <ele>1766</ele>
        <time>2026-08-19T08:49:27.344Z</time>
      </trkpt>
      <trkpt lat="45.93145" lon="6.3619">
        <ele>1766</ele>
        <time>2026-08-19T08:49:28.345Z</time>
      </trkpt>
      <trkpt lat="45.93145" lon="6.36192">
        <ele>1766</ele>
        <time>2026-08-19T08:49:29.344Z</time>
      </trkpt>
      <trkpt lat="45.93146" lon="6.36194">
        <ele>1766</ele>
        <time>2026-08-19T08:49:30.344Z</time>
      </trkpt>
      <trkpt lat="45.93146" lon="6.36196">
        <ele>1766</ele>
        <time>2026-08-19T08:49:31.344Z</time>
      </trkpt>
      <trkpt lat="45.93146" lon="6.36198">
        <ele>1766</ele>
        <time>2026-08-19T08:49:32.344Z</time>
      </trkpt>
      <trkpt lat="45.93147" lon="6.36199">
        <ele>1765</ele>
        <time>2026-08-19T08:49:33.344Z</time>
      </trkpt>
      <trkpt lat="45.93147" lon="6.362">
        <ele>1765</ele>
        <time>2026-08-19T08:49:34.344Z</time>
      </trkpt>
      <trkpt lat="45.93148" lon="6.36201">
        <ele>1765</ele>
        <time>2026-08-19T08:49:35.344Z</time>
      </trkpt>
      <trkpt lat="45.93148" lon="6.36201">
        <ele>1765</ele>
        <time>2026-08-19T08:49:36.344Z</time>
      </trkpt>
      <trkpt lat="45.93148" lon="6.36201">
        <ele>1766</ele>
        <time>2026-08-19T08:49:37.344Z</time>
      </trkpt>
      <trkpt lat="45.93148" lon="6.36201">
        <ele>1766</ele>
        <time>2026-08-19T08:49:38.344Z</time>
      </trkpt>
      <trkpt lat="45.93148" lon="6.36201">
        <ele>1767</ele>
        <time>2026-08-19T08:49:39.344Z</time>
      </trkpt>
      <trkpt lat="45.93148" lon="6.36201">
        <ele>1767</ele>
        <time>2026-08-19T08:49:40.344Z</time>
      </trkpt>
      <trkpt lat="45.93148" lon="6.36201">
        <ele>1767</ele>
        <time>2026-08-19T08:49:41.344Z</time>
      </trkpt>
      <trkpt lat="45.93148" lon="6.36201">
        <ele>1767</ele>
        <time>2026-08-19T08:49:42.344Z</time>
      </trkpt>
      <trkpt lat="45.93148" lon="6.36201">
        <ele>1767</ele>
        <time>2026-08-19T08:49:43.344Z</time>
      </trkpt>
      <trkpt lat="45.93148" lon="6.36202">
        <ele>1766</ele>
        <time>2026-08-19T08:49:44.344Z</time>
      </trkpt>
      <trkpt lat="45.93149" lon="6.36202">
        <ele>1766</ele>
        <time>2026-08-19T08:49:45.344Z</time>
      </trkpt>
      <trkpt lat="45.93149" lon="6.36203">
        <ele>1767</ele>
        <time>2026-08-19T08:49:46.344Z</time>
      </trkpt>
      <trkpt lat="45.9315" lon="6.36203">
        <ele>1767</ele>
        <time>2026-08-19T08:49:47.344Z</time>
      </trkpt>
      <trkpt lat="45.93151" lon="6.36204">
        <ele>1767</ele>
        <time>2026-08-19T08:49:48.344Z</time>
      </trkpt>
      <trkpt lat="45.93152" lon="6.36205">
        <ele>1767</ele>
        <time>2026-08-19T08:49:49.344Z</time>
      </trkpt>
      <trkpt lat="45.93153" lon="6.36206">
        <ele>1767</ele>
        <time>2026-08-19T08:49:50.344Z</time>
      </trkpt>
      <trkpt lat="45.93155" lon="6.36207">
        <ele>1768</ele>
        <time>2026-08-19T08:49:51.344Z</time>
      </trkpt>
      <trkpt lat="45.93156" lon="6.36208">
        <ele>1768</ele>
        <time>2026-08-19T08:49:52.344Z</time>
      </trkpt>
      <trkpt lat="45.93157" lon="6.36209">
        <ele>1768</ele>
        <time>2026-08-19T08:49:53.344Z</time>
      </trkpt>
      <trkpt lat="45.93158" lon="6.36211">
        <ele>1768</ele>
        <time>2026-08-19T08:49:54.344Z</time>
      </trkpt>
      <trkpt lat="45.93159" lon="6.36212">
        <ele>1768</ele>
        <time>2026-08-19T08:49:55.344Z</time>
      </trkpt>
      <trkpt lat="45.9316" lon="6.36214">
        <ele>1767</ele>
        <time>2026-08-19T08:49:56.344Z</time>
      </trkpt>
      <trkpt lat="45.93161" lon="6.36216">
        <ele>1767</ele>
        <time>2026-08-19T08:49:57.344Z</time>
      </trkpt>
      <trkpt lat="45.93162" lon="6.36218">
        <ele>1767</ele>
        <time>2026-08-19T08:49:58.344Z</time>
      </trkpt>
      <trkpt lat="45.93163" lon="6.36219">
        <ele>1766</ele>
        <time>2026-08-19T08:49:59.344Z</time>
      </trkpt>
      <trkpt lat="45.93164" lon="6.3622">
        <ele>1766</ele>
        <time>2026-08-19T08:50:00.344Z</time>
      </trkpt>
      <trkpt lat="45.93164" lon="6.36221">
        <ele>1766</ele>
        <time>2026-08-19T08:50:01.344Z</time>
      </trkpt>
      <trkpt lat="45.93165" lon="6.36222">
        <ele>1765</ele>
        <time>2026-08-19T08:50:02.344Z</time>
      </trkpt>
      <trkpt lat="45.93166" lon="6.36224">
        <ele>1765</ele>
        <time>2026-08-19T08:50:03.344Z</time>
      </trkpt>
      <trkpt lat="45.93166" lon="6.36225">
        <ele>1765</ele>
        <time>2026-08-19T08:50:04.344Z</time>
      </trkpt>
      <trkpt lat="45.93167" lon="6.36227">
        <ele>1764</ele>
        <time>2026-08-19T08:50:05.344Z</time>
      </trkpt>
      <trkpt lat="45.93168" lon="6.36228">
        <ele>1764</ele>
        <time>2026-08-19T08:50:06.344Z</time>
      </trkpt>
      <trkpt lat="45.93168" lon="6.36229">
        <ele>1764</ele>
        <time>2026-08-19T08:50:07.344Z</time>
      </trkpt>
      <trkpt lat="45.93168" lon="6.3623">
        <ele>1764</ele>
        <time>2026-08-19T08:50:08.344Z</time>
      </trkpt>
      <trkpt lat="45.93169" lon="6.36231">
        <ele>1764</ele>
        <time>2026-08-19T08:50:09.344Z</time>
      </trkpt>
      <trkpt lat="45.93169" lon="6.36233">
        <ele>1764</ele>
        <time>2026-08-19T08:50:10.344Z</time>
      </trkpt>
      <trkpt lat="45.9317" lon="6.36234">
        <ele>1764</ele>
        <time>2026-08-19T08:50:11.344Z</time>
      </trkpt>
      <trkpt lat="45.93171" lon="6.36235">
        <ele>1764</ele>
        <time>2026-08-19T08:50:12.344Z</time>
      </trkpt>
      <trkpt lat="45.93172" lon="6.36236">
        <ele>1764</ele>
        <time>2026-08-19T08:50:13.344Z</time>
      </trkpt>
      <trkpt lat="45.93173" lon="6.36236">
        <ele>1764</ele>
        <time>2026-08-19T08:50:14.344Z</time>
      </trkpt>
      <trkpt lat="45.93173" lon="6.36237">
        <ele>1764</ele>
        <time>2026-08-19T08:50:15.344Z</time>
      </trkpt>
      <trkpt lat="45.93173" lon="6.36239">
        <ele>1764</ele>
        <time>2026-08-19T08:50:16.344Z</time>
      </trkpt>
      <trkpt lat="45.93173" lon="6.3624">
        <ele>1764</ele>
        <time>2026-08-19T08:50:17.344Z</time>
      </trkpt>
      <trkpt lat="45.93173" lon="6.36241">
        <ele>1764</ele>
        <time>2026-08-19T08:50:18.344Z</time>
      </trkpt>
      <trkpt lat="45.93172" lon="6.36242">
        <ele>1764</ele>
        <time>2026-08-19T08:50:19.344Z</time>
      </trkpt>
      <trkpt lat="45.93172" lon="6.36243">
        <ele>1764</ele>
        <time>2026-08-19T08:50:20.344Z</time>
      </trkpt>
      <trkpt lat="45.93172" lon="6.36244">
        <ele>1764</ele>
        <time>2026-08-19T08:50:21.344Z</time>
      </trkpt>
      <trkpt lat="45.93172" lon="6.36245">
        <ele>1764</ele>
        <time>2026-08-19T08:50:22.344Z</time>
      </trkpt>
      <trkpt lat="45.93172" lon="6.36246">
        <ele>1764</ele>
        <time>2026-08-19T08:50:23.344Z</time>
      </trkpt>
      <trkpt lat="45.93171" lon="6.36246">
        <ele>1763</ele>
        <time>2026-08-19T08:50:24.344Z</time>
      </trkpt>
      <trkpt lat="45.93171" lon="6.36247">
        <ele>1763</ele>
        <time>2026-08-19T08:50:25.344Z</time>
      </trkpt>
      <trkpt lat="45.93171" lon="6.36248">
        <ele>1763</ele>
        <time>2026-08-19T08:50:26.344Z</time>
      </trkpt>
      <trkpt lat="45.93171" lon="6.36249">
        <ele>1763</ele>
        <time>2026-08-19T08:50:27.344Z</time>
      </trkpt>
      <trkpt lat="45.93171" lon="6.3625">
        <ele>1763</ele>
        <time>2026-08-19T08:50:28.344Z</time>
      </trkpt>
      <trkpt lat="45.93171" lon="6.36251">
        <ele>1763</ele>
        <time>2026-08-19T08:50:29.344Z</time>
      </trkpt>
      <trkpt lat="45.93172" lon="6.36253">
        <ele>1763</ele>
        <time>2026-08-19T08:50:30.344Z</time>
      </trkpt>
      <trkpt lat="45.93172" lon="6.36254">
        <ele>1762</ele>
        <time>2026-08-19T08:50:31.344Z</time>
      </trkpt>
      <trkpt lat="45.93172" lon="6.36255">
        <ele>1762</ele>
        <time>2026-08-19T08:50:32.344Z</time>
      </trkpt>
      <trkpt lat="45.93171" lon="6.36257">
        <ele>1762</ele>
        <time>2026-08-19T08:50:33.344Z</time>
      </trkpt>
      <trkpt lat="45.93171" lon="6.36259">
        <ele>1762</ele>
        <time>2026-08-19T08:50:34.344Z</time>
      </trkpt>
      <trkpt lat="45.93171" lon="6.36261">
        <ele>1762</ele>
        <time>2026-08-19T08:50:35.344Z</time>
      </trkpt>
      <trkpt lat="45.93171" lon="6.36263">
        <ele>1762</ele>
        <time>2026-08-19T08:50:36.344Z</time>
      </trkpt>
      <trkpt lat="45.9317" lon="6.36264">
        <ele>1762</ele>
        <time>2026-08-19T08:50:37.344Z</time>
      </trkpt>
      <trkpt lat="45.9317" lon="6.36265">
        <ele>1762</ele>
        <time>2026-08-19T08:50:38.344Z</time>
      </trkpt>
      <trkpt lat="45.9317" lon="6.36266">
        <ele>1761</ele>
        <time>2026-08-19T08:50:39.344Z</time>
      </trkpt>
      <trkpt lat="45.93169" lon="6.36267">
        <ele>1761</ele>
        <time>2026-08-19T08:50:40.344Z</time>
      </trkpt>
      <trkpt lat="45.93169" lon="6.36268">
        <ele>1761</ele>
        <time>2026-08-19T08:50:41.344Z</time>
      </trkpt>
      <trkpt lat="45.93168" lon="6.36269">
        <ele>1761</ele>
        <time>2026-08-19T08:50:42.344Z</time>
      </trkpt>
      <trkpt lat="45.93168" lon="6.36271">
        <ele>1761</ele>
        <time>2026-08-19T08:50:43.344Z</time>
      </trkpt>
      <trkpt lat="45.93167" lon="6.36272">
        <ele>1760</ele>
        <time>2026-08-19T08:50:44.344Z</time>
      </trkpt>
      <trkpt lat="45.93167" lon="6.36273">
        <ele>1759</ele>
        <time>2026-08-19T08:50:45.344Z</time>
      </trkpt>
      <trkpt lat="45.93166" lon="6.36275">
        <ele>1759</ele>
        <time>2026-08-19T08:50:46.344Z</time>
      </trkpt>
      <trkpt lat="45.93166" lon="6.36276">
        <ele>1759</ele>
        <time>2026-08-19T08:50:47.344Z</time>
      </trkpt>
      <trkpt lat="45.93165" lon="6.36277">
        <ele>1760</ele>
        <time>2026-08-19T08:50:48.344Z</time>
      </trkpt>
      <trkpt lat="45.93164" lon="6.36278">
        <ele>1760</ele>
        <time>2026-08-19T08:50:49.344Z</time>
      </trkpt>
      <trkpt lat="45.93164" lon="6.3628">
        <ele>1760</ele>
        <time>2026-08-19T08:50:50.344Z</time>
      </trkpt>
      <trkpt lat="45.93164" lon="6.36281">
        <ele>1760</ele>
        <time>2026-08-19T08:50:51.344Z</time>
      </trkpt>
      <trkpt lat="45.93164" lon="6.36281">
        <ele>1760</ele>
        <time>2026-08-19T08:50:52.344Z</time>
      </trkpt>
      <trkpt lat="45.93164" lon="6.36282">
        <ele>1760</ele>
        <time>2026-08-19T08:50:53.344Z</time>
      </trkpt>
      <trkpt lat="45.93164" lon="6.36283">
        <ele>1760</ele>
        <time>2026-08-19T08:50:54.344Z</time>
      </trkpt>
      <trkpt lat="45.93165" lon="6.36283">
        <ele>1760</ele>
        <time>2026-08-19T08:50:55.344Z</time>
      </trkpt>
      <trkpt lat="45.93165" lon="6.36283">
        <ele>1761</ele>
        <time>2026-08-19T08:50:56.344Z</time>
      </trkpt>
      <trkpt lat="45.93166" lon="6.36284">
        <ele>1761</ele>
        <time>2026-08-19T08:50:57.344Z</time>
      </trkpt>
      <trkpt lat="45.93167" lon="6.36285">
        <ele>1762</ele>
        <time>2026-08-19T08:50:58.344Z</time>
      </trkpt>
      <trkpt lat="45.93167" lon="6.36286">
        <ele>1762</ele>
        <time>2026-08-19T08:50:59.344Z</time>
      </trkpt>
      <trkpt lat="45.93168" lon="6.36286">
        <ele>1763</ele>
        <time>2026-08-19T08:51:00.344Z</time>
      </trkpt>
      <trkpt lat="45.93168" lon="6.36287">
        <ele>1764</ele>
        <time>2026-08-19T08:51:01.344Z</time>
      </trkpt>
      <trkpt lat="45.93168" lon="6.36288">
        <ele>1764</ele>
        <time>2026-08-19T08:51:02.344Z</time>
      </trkpt>
      <trkpt lat="45.93168" lon="6.36289">
        <ele>1764</ele>
        <time>2026-08-19T08:51:03.344Z</time>
      </trkpt>
      <trkpt lat="45.93168" lon="6.36291">
        <ele>1764</ele>
        <time>2026-08-19T08:51:04.344Z</time>
      </trkpt>
      <trkpt lat="45.93167" lon="6.36291">
        <ele>1764</ele>
        <time>2026-08-19T08:51:05.344Z</time>
      </trkpt>
      <trkpt lat="45.93167" lon="6.36293">
        <ele>1764</ele>
        <time>2026-08-19T08:51:06.344Z</time>
      </trkpt>
      <trkpt lat="45.93166" lon="6.36294">
        <ele>1764</ele>
        <time>2026-08-19T08:51:07.344Z</time>
      </trkpt>
      <trkpt lat="45.93165" lon="6.36295">
        <ele>1764</ele>
        <time>2026-08-19T08:51:08.344Z</time>
      </trkpt>
      <trkpt lat="45.93165" lon="6.36296">
        <ele>1764</ele>
        <time>2026-08-19T08:51:09.344Z</time>
      </trkpt>
      <trkpt lat="45.93164" lon="6.36298">
        <ele>1763</ele>
        <time>2026-08-19T08:51:10.344Z</time>
      </trkpt>
      <trkpt lat="45.93164" lon="6.36299">
        <ele>1763</ele>
        <time>2026-08-19T08:51:11.344Z</time>
      </trkpt>
      <trkpt lat="45.93164" lon="6.363">
        <ele>1763</ele>
        <time>2026-08-19T08:51:12.344Z</time>
      </trkpt>
      <trkpt lat="45.93164" lon="6.36301">
        <ele>1763</ele>
        <time>2026-08-19T08:51:13.344Z</time>
      </trkpt>
      <trkpt lat="45.93164" lon="6.36301">
        <ele>1763</ele>
        <time>2026-08-19T08:51:14.344Z</time>
      </trkpt>
      <trkpt lat="45.93165" lon="6.36302">
        <ele>1763</ele>
        <time>2026-08-19T08:51:15.344Z</time>
      </trkpt>
      <trkpt lat="45.93165" lon="6.36302">
        <ele>1763</ele>
        <time>2026-08-19T08:51:16.345Z</time>
      </trkpt>
      <trkpt lat="45.93165" lon="6.36303">
        <ele>1763</ele>
        <time>2026-08-19T08:51:17.344Z</time>
      </trkpt>
      <trkpt lat="45.93165" lon="6.36303">
        <ele>1763</ele>
        <time>2026-08-19T08:51:18.344Z</time>
      </trkpt>
      <trkpt lat="45.93165" lon="6.36304">
        <ele>1762</ele>
        <time>2026-08-19T08:51:19.344Z</time>
      </trkpt>
      <trkpt lat="45.93166" lon="6.36304">
        <ele>1763</ele>
        <time>2026-08-19T08:51:20.344Z</time>
      </trkpt>
      <trkpt lat="45.93166" lon="6.36305">
        <ele>1763</ele>
        <time>2026-08-19T08:51:21.344Z</time>
      </trkpt>
      <trkpt lat="45.93166" lon="6.36305">
        <ele>1763</ele>
        <time>2026-08-19T08:51:22.344Z</time>
      </trkpt>
      <trkpt lat="45.93166" lon="6.36306">
        <ele>1763</ele>
        <time>2026-08-19T08:51:23.344Z</time>
      </trkpt>
      <trkpt lat="45.93167" lon="6.36307">
        <ele>1762</ele>
        <time>2026-08-19T08:51:24.344Z</time>
      </trkpt>
      <trkpt lat="45.93167" lon="6.36308">
        <ele>1762</ele>
        <time>2026-08-19T08:51:25.344Z</time>
      </trkpt>
      <trkpt lat="45.93167" lon="6.36309">
        <ele>1763</ele>
        <time>2026-08-19T08:51:26.345Z</time>
      </trkpt>
      <trkpt lat="45.93168" lon="6.3631">
        <ele>1763</ele>
        <time>2026-08-19T08:51:27.344Z</time>
      </trkpt>
      <trkpt lat="45.93168" lon="6.36311">
        <ele>1763</ele>
        <time>2026-08-19T08:51:28.344Z</time>
      </trkpt>
      <trkpt lat="45.93169" lon="6.36311">
        <ele>1763</ele>
        <time>2026-08-19T08:51:29.344Z</time>
      </trkpt>
      <trkpt lat="45.93169" lon="6.36312">
        <ele>1763</ele>
        <time>2026-08-19T08:51:30.344Z</time>
      </trkpt>
      <trkpt lat="45.93169" lon="6.36313">
        <ele>1762</ele>
        <time>2026-08-19T08:51:31.344Z</time>
      </trkpt>
      <trkpt lat="45.9317" lon="6.36314">
        <ele>1762</ele>
        <time>2026-08-19T08:51:32.344Z</time>
      </trkpt>
      <trkpt lat="45.9317" lon="6.36315">
        <ele>1761</ele>
        <time>2026-08-19T08:51:33.344Z</time>
      </trkpt>
      <trkpt lat="45.93171" lon="6.36315">
        <ele>1761</ele>
        <time>2026-08-19T08:51:34.344Z</time>
      </trkpt>
      <trkpt lat="45.93171" lon="6.36317">
        <ele>1760</ele>
        <time>2026-08-19T08:51:35.344Z</time>
      </trkpt>
      <trkpt lat="45.93171" lon="6.36319">
        <ele>1760</ele>
        <time>2026-08-19T08:51:36.344Z</time>
      </trkpt>
      <trkpt lat="45.93171" lon="6.3632">
        <ele>1760</ele>
        <time>2026-08-19T08:51:37.344Z</time>
      </trkpt>
      <trkpt lat="45.93171" lon="6.36322">
        <ele>1760</ele>
        <time>2026-08-19T08:51:38.344Z</time>
      </trkpt>
      <trkpt lat="45.93171" lon="6.36323">
        <ele>1760</ele>
        <time>2026-08-19T08:51:39.344Z</time>
      </trkpt>
      <trkpt lat="45.93171" lon="6.36324">
        <ele>1760</ele>
        <time>2026-08-19T08:51:40.344Z</time>
      </trkpt>
      <trkpt lat="45.93171" lon="6.36325">
        <ele>1760</ele>
        <time>2026-08-19T08:51:41.344Z</time>
      </trkpt>
      <trkpt lat="45.93171" lon="6.36326">
        <ele>1760</ele>
        <time>2026-08-19T08:51:42.344Z</time>
      </trkpt>
      <trkpt lat="45.93171" lon="6.36327">
        <ele>1760</ele>
        <time>2026-08-19T08:51:43.344Z</time>
      </trkpt>
      <trkpt lat="45.93172" lon="6.36327">
        <ele>1760</ele>
        <time>2026-08-19T08:51:44.344Z</time>
      </trkpt>
      <trkpt lat="45.93172" lon="6.36328">
        <ele>1760</ele>
        <time>2026-08-19T08:51:45.344Z</time>
      </trkpt>
      <trkpt lat="45.93173" lon="6.36329">
        <ele>1760</ele>
        <time>2026-08-19T08:51:46.344Z</time>
      </trkpt>
      <trkpt lat="45.93173" lon="6.3633">
        <ele>1759</ele>
        <time>2026-08-19T08:51:47.344Z</time>
      </trkpt>
      <trkpt lat="45.93173" lon="6.36331">
        <ele>1759</ele>
        <time>2026-08-19T08:51:48.344Z</time>
      </trkpt>
      <trkpt lat="45.93173" lon="6.36331">
        <ele>1759</ele>
        <time>2026-08-19T08:51:49.344Z</time>
      </trkpt>
      <trkpt lat="45.93172" lon="6.36331">
        <ele>1759</ele>
        <time>2026-08-19T08:51:50.344Z</time>
      </trkpt>
      <trkpt lat="45.93172" lon="6.36331">
        <ele>1758</ele>
        <time>2026-08-19T08:51:51.344Z</time>
      </trkpt>
      <trkpt lat="45.93172" lon="6.36331">
        <ele>1758</ele>
        <time>2026-08-19T08:51:52.344Z</time>
      </trkpt>
      <trkpt lat="45.93172" lon="6.36332">
        <ele>1758</ele>
        <time>2026-08-19T08:51:53.344Z</time>
      </trkpt>
      <trkpt lat="45.93172" lon="6.36332">
        <ele>1758</ele>
        <time>2026-08-19T08:51:54.344Z</time>
      </trkpt>
      <trkpt lat="45.93172" lon="6.36332">
        <ele>1758</ele>
        <time>2026-08-19T08:51:55.344Z</time>
      </trkpt>
      <trkpt lat="45.93172" lon="6.36333">
        <ele>1757</ele>
        <time>2026-08-19T08:51:56.344Z</time>
      </trkpt>
      <trkpt lat="45.93172" lon="6.36333">
        <ele>1757</ele>
        <time>2026-08-19T08:51:57.345Z</time>
      </trkpt>
      <trkpt lat="45.93172" lon="6.36334">
        <ele>1756</ele>
        <time>2026-08-19T08:51:58.344Z</time>
      </trkpt>
      <trkpt lat="45.93172" lon="6.36334">
        <ele>1756</ele>
        <time>2026-08-19T08:51:59.344Z</time>
      </trkpt>
      <trkpt lat="45.93172" lon="6.36335">
        <ele>1755</ele>
        <time>2026-08-19T08:52:00.344Z</time>
      </trkpt>
      <trkpt lat="45.93172" lon="6.36336">
        <ele>1755</ele>
        <time>2026-08-19T08:52:01.344Z</time>
      </trkpt>
      <trkpt lat="45.93172" lon="6.36336">
        <ele>1755</ele>
        <time>2026-08-19T08:52:02.344Z</time>
      </trkpt>
      <trkpt lat="45.93172" lon="6.36337">
        <ele>1755</ele>
        <time>2026-08-19T08:52:03.344Z</time>
      </trkpt>
      <trkpt lat="45.93172" lon="6.36337">
        <ele>1754</ele>
        <time>2026-08-19T08:52:04.344Z</time>
      </trkpt>
      <trkpt lat="45.93172" lon="6.36338">
        <ele>1754</ele>
        <time>2026-08-19T08:52:05.344Z</time>
      </trkpt>
      <trkpt lat="45.93172" lon="6.36338">
        <ele>1753</ele>
        <time>2026-08-19T08:52:06.344Z</time>
      </trkpt>
      <trkpt lat="45.93172" lon="6.36338">
        <ele>1753</ele>
        <time>2026-08-19T08:52:07.344Z</time>
      </trkpt>
      <trkpt lat="45.93172" lon="6.36338">
        <ele>1752</ele>
        <time>2026-08-19T08:52:08.344Z</time>
      </trkpt>
      <trkpt lat="45.93173" lon="6.36338">
        <ele>1751</ele>
        <time>2026-08-19T08:52:09.344Z</time>
      </trkpt>
      <trkpt lat="45.93173" lon="6.36339">
        <ele>1751</ele>
        <time>2026-08-19T08:52:10.344Z</time>
      </trkpt>
      <trkpt lat="45.93173" lon="6.36339">
        <ele>1751</ele>
        <time>2026-08-19T08:52:11.344Z</time>
      </trkpt>
      <trkpt lat="45.93173" lon="6.3634">
        <ele>1751</ele>
        <time>2026-08-19T08:52:12.344Z</time>
      </trkpt>
      <trkpt lat="45.93173" lon="6.36341">
        <ele>1751</ele>
        <time>2026-08-19T08:52:13.344Z</time>
      </trkpt>
      <trkpt lat="45.93173" lon="6.36341">
        <ele>1751</ele>
        <time>2026-08-19T08:52:14.344Z</time>
      </trkpt>
      <trkpt lat="45.93173" lon="6.36342">
        <ele>1751</ele>
        <time>2026-08-19T08:52:15.344Z</time>
      </trkpt>
      <trkpt lat="45.93173" lon="6.36342">
        <ele>1751</ele>
        <time>2026-08-19T08:52:16.344Z</time>
      </trkpt>
      <trkpt lat="45.93173" lon="6.36342">
        <ele>1751</ele>
        <time>2026-08-19T08:52:17.345Z</time>
      </trkpt>
      <trkpt lat="45.93173" lon="6.36343">
        <ele>1751</ele>
        <time>2026-08-19T08:52:18.344Z</time>
      </trkpt>
      <trkpt lat="45.93173" lon="6.36343">
        <ele>1751</ele>
        <time>2026-08-19T08:52:19.344Z</time>
      </trkpt>
      <trkpt lat="45.93173" lon="6.36344">
        <ele>1751</ele>
        <time>2026-08-19T08:52:20.345Z</time>
      </trkpt>
      <trkpt lat="45.93173" lon="6.36345">
        <ele>1751</ele>
        <time>2026-08-19T08:52:21.344Z</time>
      </trkpt>
      <trkpt lat="45.93173" lon="6.36346">
        <ele>1752</ele>
        <time>2026-08-19T08:52:22.344Z</time>
      </trkpt>
      <trkpt lat="45.93173" lon="6.36347">
        <ele>1752</ele>
        <time>2026-08-19T08:52:23.344Z</time>
      </trkpt>
      <trkpt lat="45.93173" lon="6.36348">
        <ele>1752</ele>
        <time>2026-08-19T08:52:24.344Z</time>
      </trkpt>
      <trkpt lat="45.93173" lon="6.36348">
        <ele>1751</ele>
        <time>2026-08-19T08:52:25.344Z</time>
      </trkpt>
      <trkpt lat="45.93172" lon="6.36349">
        <ele>1751</ele>
        <time>2026-08-19T08:52:26.344Z</time>
      </trkpt>
      <trkpt lat="45.93172" lon="6.36349">
        <ele>1751</ele>
        <time>2026-08-19T08:52:27.344Z</time>
      </trkpt>
      <trkpt lat="45.93172" lon="6.36349">
        <ele>1751</ele>
        <time>2026-08-19T08:52:28.344Z</time>
      </trkpt>
      <trkpt lat="45.93172" lon="6.36349">
        <ele>1751</ele>
        <time>2026-08-19T08:52:29.344Z</time>
      </trkpt>
      <trkpt lat="45.93172" lon="6.36349">
        <ele>1751</ele>
        <time>2026-08-19T08:52:30.344Z</time>
      </trkpt>
      <trkpt lat="45.93172" lon="6.3635">
        <ele>1751</ele>
        <time>2026-08-19T08:52:31.344Z</time>
      </trkpt>
      <trkpt lat="45.93172" lon="6.3635">
        <ele>1751</ele>
        <time>2026-08-19T08:52:32.344Z</time>
      </trkpt>
      <trkpt lat="45.93172" lon="6.3635">
        <ele>1751</ele>
        <time>2026-08-19T08:52:33.344Z</time>
      </trkpt>
      <trkpt lat="45.93172" lon="6.36351">
        <ele>1751</ele>
        <time>2026-08-19T08:52:34.344Z</time>
      </trkpt>
      <trkpt lat="45.93171" lon="6.36351">
        <ele>1751</ele>
        <time>2026-08-19T08:52:35.344Z</time>
      </trkpt>
      <trkpt lat="45.93172" lon="6.36352">
        <ele>1751</ele>
        <time>2026-08-19T08:52:36.344Z</time>
      </trkpt>
      <trkpt lat="45.93171" lon="6.36353">
        <ele>1751</ele>
        <time>2026-08-19T08:52:37.344Z</time>
      </trkpt>
      <trkpt lat="45.93171" lon="6.36353">
        <ele>1751</ele>
        <time>2026-08-19T08:52:38.344Z</time>
      </trkpt>
      <trkpt lat="45.93171" lon="6.36354">
        <ele>1751</ele>
        <time>2026-08-19T08:52:39.344Z</time>
      </trkpt>
      <trkpt lat="45.93171" lon="6.36354">
        <ele>1751</ele>
        <time>2026-08-19T08:52:40.344Z</time>
      </trkpt>
      <trkpt lat="45.93171" lon="6.36354">
        <ele>1751</ele>
        <time>2026-08-19T08:52:41.345Z</time>
      </trkpt>
      <trkpt lat="45.93171" lon="6.36355">
        <ele>1751</ele>
        <time>2026-08-19T08:52:42.344Z</time>
      </trkpt>
      <trkpt lat="45.93171" lon="6.36356">
        <ele>1750</ele>
        <time>2026-08-19T08:52:43.345Z</time>
      </trkpt>
      <trkpt lat="45.93171" lon="6.36356">
        <ele>1750</ele>
        <time>2026-08-19T08:52:44.344Z</time>
      </trkpt>
      <trkpt lat="45.93171" lon="6.36357">
        <ele>1750</ele>
        <time>2026-08-19T08:52:45.344Z</time>
      </trkpt>
      <trkpt lat="45.93171" lon="6.36357">
        <ele>1750</ele>
        <time>2026-08-19T08:52:46.344Z</time>
      </trkpt>
      <trkpt lat="45.93171" lon="6.36358">
        <ele>1749</ele>
        <time>2026-08-19T08:52:47.344Z</time>
      </trkpt>
      <trkpt lat="45.93171" lon="6.36359">
        <ele>1749</ele>
        <time>2026-08-19T08:52:48.344Z</time>
      </trkpt>
      <trkpt lat="45.93171" lon="6.3636">
        <ele>1749</ele>
        <time>2026-08-19T08:52:49.344Z</time>
      </trkpt>
      <trkpt lat="45.9317" lon="6.36361">
        <ele>1749</ele>
        <time>2026-08-19T08:52:50.344Z</time>
      </trkpt>
      <trkpt lat="45.9317" lon="6.36363">
        <ele>1748</ele>
        <time>2026-08-19T08:52:51.344Z</time>
      </trkpt>
      <trkpt lat="45.93169" lon="6.36364">
        <ele>1748</ele>
        <time>2026-08-19T08:52:52.344Z</time>
      </trkpt>
      <trkpt lat="45.93169" lon="6.36366">
        <ele>1748</ele>
        <time>2026-08-19T08:52:53.344Z</time>
      </trkpt>
      <trkpt lat="45.93168" lon="6.36367">
        <ele>1747</ele>
        <time>2026-08-19T08:52:54.344Z</time>
      </trkpt>
      <trkpt lat="45.93167" lon="6.36368">
        <ele>1746</ele>
        <time>2026-08-19T08:52:55.344Z</time>
      </trkpt>
      <trkpt lat="45.93167" lon="6.3637">
        <ele>1746</ele>
        <time>2026-08-19T08:52:56.344Z</time>
      </trkpt>
      <trkpt lat="45.93166" lon="6.36371">
        <ele>1746</ele>
        <time>2026-08-19T08:52:57.344Z</time>
      </trkpt>
      <trkpt lat="45.93166" lon="6.36372">
        <ele>1746</ele>
        <time>2026-08-19T08:52:58.345Z</time>
      </trkpt>
      <trkpt lat="45.93166" lon="6.36374">
        <ele>1746</ele>
        <time>2026-08-19T08:52:59.344Z</time>
      </trkpt>
      <trkpt lat="45.93165" lon="6.36374">
        <ele>1746</ele>
        <time>2026-08-19T08:53:00.344Z</time>
      </trkpt>
      <trkpt lat="45.93166" lon="6.36375">
        <ele>1746</ele>
        <time>2026-08-19T08:53:01.344Z</time>
      </trkpt>
      <trkpt lat="45.93166" lon="6.36377">
        <ele>1746</ele>
        <time>2026-08-19T08:53:02.344Z</time>
      </trkpt>
      <trkpt lat="45.93166" lon="6.36379">
        <ele>1745</ele>
        <time>2026-08-19T08:53:03.344Z</time>
      </trkpt>
      <trkpt lat="45.93165" lon="6.36381">
        <ele>1745</ele>
        <time>2026-08-19T08:53:04.344Z</time>
      </trkpt>
      <trkpt lat="45.93166" lon="6.36383">
        <ele>1745</ele>
        <time>2026-08-19T08:53:05.344Z</time>
      </trkpt>
      <trkpt lat="45.93166" lon="6.36385">
        <ele>1745</ele>
        <time>2026-08-19T08:53:06.345Z</time>
      </trkpt>
      <trkpt lat="45.93166" lon="6.36386">
        <ele>1745</ele>
        <time>2026-08-19T08:53:07.344Z</time>
      </trkpt>
      <trkpt lat="45.93166" lon="6.36388">
        <ele>1745</ele>
        <time>2026-08-19T08:53:08.344Z</time>
      </trkpt>
      <trkpt lat="45.93166" lon="6.36389">
        <ele>1745</ele>
        <time>2026-08-19T08:53:09.345Z</time>
      </trkpt>
      <trkpt lat="45.93166" lon="6.3639">
        <ele>1745</ele>
        <time>2026-08-19T08:53:10.344Z</time>
      </trkpt>
      <trkpt lat="45.93165" lon="6.36391">
        <ele>1745</ele>
        <time>2026-08-19T08:53:11.344Z</time>
      </trkpt>
      <trkpt lat="45.93165" lon="6.36392">
        <ele>1744</ele>
        <time>2026-08-19T08:53:12.344Z</time>
      </trkpt>
      <trkpt lat="45.93165" lon="6.36393">
        <ele>1744</ele>
        <time>2026-08-19T08:53:13.344Z</time>
      </trkpt>
      <trkpt lat="45.93166" lon="6.36394">
        <ele>1744</ele>
        <time>2026-08-19T08:53:14.344Z</time>
      </trkpt>
      <trkpt lat="45.93166" lon="6.36395">
        <ele>1743</ele>
        <time>2026-08-19T08:53:15.344Z</time>
      </trkpt>
      <trkpt lat="45.93166" lon="6.36396">
        <ele>1743</ele>
        <time>2026-08-19T08:53:16.344Z</time>
      </trkpt>
      <trkpt lat="45.93167" lon="6.36397">
        <ele>1743</ele>
        <time>2026-08-19T08:53:17.344Z</time>
      </trkpt>
      <trkpt lat="45.93167" lon="6.36399">
        <ele>1743</ele>
        <time>2026-08-19T08:53:18.344Z</time>
      </trkpt>
      <trkpt lat="45.93168" lon="6.36401">
        <ele>1744</ele>
        <time>2026-08-19T08:53:19.345Z</time>
      </trkpt>
      <trkpt lat="45.93168" lon="6.36402">
        <ele>1744</ele>
        <time>2026-08-19T08:53:20.344Z</time>
      </trkpt>
      <trkpt lat="45.93169" lon="6.36403">
        <ele>1744</ele>
        <time>2026-08-19T08:53:21.344Z</time>
      </trkpt>
      <trkpt lat="45.93169" lon="6.36404">
        <ele>1744</ele>
        <time>2026-08-19T08:53:22.344Z</time>
      </trkpt>
      <trkpt lat="45.93169" lon="6.36404">
        <ele>1744</ele>
        <time>2026-08-19T08:53:23.344Z</time>
      </trkpt>
      <trkpt lat="45.93169" lon="6.36405">
        <ele>1743</ele>
        <time>2026-08-19T08:53:24.345Z</time>
      </trkpt>
      <trkpt lat="45.93169" lon="6.36406">
        <ele>1744</ele>
        <time>2026-08-19T08:53:25.344Z</time>
      </trkpt>
      <trkpt lat="45.93169" lon="6.36407">
        <ele>1744</ele>
        <time>2026-08-19T08:53:26.344Z</time>
      </trkpt>
      <trkpt lat="45.9317" lon="6.36408">
        <ele>1744</ele>
        <time>2026-08-19T08:53:27.344Z</time>
      </trkpt>
      <trkpt lat="45.9317" lon="6.36409">
        <ele>1744</ele>
        <time>2026-08-19T08:53:28.344Z</time>
      </trkpt>
      <trkpt lat="45.93171" lon="6.3641">
        <ele>1744</ele>
        <time>2026-08-19T08:53:29.344Z</time>
      </trkpt>
      <trkpt lat="45.93171" lon="6.36412">
        <ele>1744</ele>
        <time>2026-08-19T08:53:30.344Z</time>
      </trkpt>
      <trkpt lat="45.93171" lon="6.36413">
        <ele>1744</ele>
        <time>2026-08-19T08:53:31.344Z</time>
      </trkpt>
      <trkpt lat="45.9317" lon="6.36413">
        <ele>1745</ele>
        <time>2026-08-19T08:53:32.344Z</time>
      </trkpt>
      <trkpt lat="45.9317" lon="6.36414">
        <ele>1745</ele>
        <time>2026-08-19T08:53:33.345Z</time>
      </trkpt>
      <trkpt lat="45.93171" lon="6.36415">
        <ele>1746</ele>
        <time>2026-08-19T08:53:34.344Z</time>
      </trkpt>
      <trkpt lat="45.93172" lon="6.36416">
        <ele>1746</ele>
        <time>2026-08-19T08:53:35.344Z</time>
      </trkpt>
      <trkpt lat="45.93173" lon="6.36417">
        <ele>1747</ele>
        <time>2026-08-19T08:53:36.344Z</time>
      </trkpt>
      <trkpt lat="45.93173" lon="6.36418">
        <ele>1747</ele>
        <time>2026-08-19T08:53:37.344Z</time>
      </trkpt>
      <trkpt lat="45.93173" lon="6.36419">
        <ele>1748</ele>
        <time>2026-08-19T08:53:38.344Z</time>
      </trkpt>
      <trkpt lat="45.93173" lon="6.3642">
        <ele>1747</ele>
        <time>2026-08-19T08:53:39.344Z</time>
      </trkpt>
      <trkpt lat="45.93173" lon="6.36421">
        <ele>1747</ele>
        <time>2026-08-19T08:53:40.344Z</time>
      </trkpt>
      <trkpt lat="45.93173" lon="6.36422">
        <ele>1747</ele>
        <time>2026-08-19T08:53:41.344Z</time>
      </trkpt>
      <trkpt lat="45.93173" lon="6.36424">
        <ele>1747</ele>
        <time>2026-08-19T08:53:42.344Z</time>
      </trkpt>
      <trkpt lat="45.93173" lon="6.36425">
        <ele>1747</ele>
        <time>2026-08-19T08:53:43.344Z</time>
      </trkpt>
      <trkpt lat="45.93173" lon="6.36426">
        <ele>1747</ele>
        <time>2026-08-19T08:53:44.344Z</time>
      </trkpt>
      <trkpt lat="45.93172" lon="6.36427">
        <ele>1747</ele>
        <time>2026-08-19T08:53:45.344Z</time>
      </trkpt>
      <trkpt lat="45.93171" lon="6.36428">
        <ele>1747</ele>
        <time>2026-08-19T08:53:46.345Z</time>
      </trkpt>
      <trkpt lat="45.93171" lon="6.36429">
        <ele>1747</ele>
        <time>2026-08-19T08:53:47.344Z</time>
      </trkpt>
      <trkpt lat="45.9317" lon="6.36431">
        <ele>1747</ele>
        <time>2026-08-19T08:53:48.344Z</time>
      </trkpt>
      <trkpt lat="45.93169" lon="6.36433">
        <ele>1746</ele>
        <time>2026-08-19T08:53:49.344Z</time>
      </trkpt>
      <trkpt lat="45.93169" lon="6.36434">
        <ele>1746</ele>
        <time>2026-08-19T08:53:50.344Z</time>
      </trkpt>
      <trkpt lat="45.93169" lon="6.36435">
        <ele>1745</ele>
        <time>2026-08-19T08:53:51.344Z</time>
      </trkpt>
      <trkpt lat="45.93168" lon="6.36437">
        <ele>1745</ele>
        <time>2026-08-19T08:53:52.344Z</time>
      </trkpt>
      <trkpt lat="45.93167" lon="6.36438">
        <ele>1745</ele>
        <time>2026-08-19T08:53:53.344Z</time>
      </trkpt>
      <trkpt lat="45.93167" lon="6.3644">
        <ele>1745</ele>
        <time>2026-08-19T08:53:54.344Z</time>
      </trkpt>
      <trkpt lat="45.93166" lon="6.36441">
        <ele>1745</ele>
        <time>2026-08-19T08:53:55.344Z</time>
      </trkpt>
      <trkpt lat="45.93165" lon="6.36442">
        <ele>1744</ele>
        <time>2026-08-19T08:53:56.344Z</time>
      </trkpt>
      <trkpt lat="45.93165" lon="6.36443">
        <ele>1744</ele>
        <time>2026-08-19T08:53:57.344Z</time>
      </trkpt>
      <trkpt lat="45.93164" lon="6.36444">
        <ele>1744</ele>
        <time>2026-08-19T08:53:58.344Z</time>
      </trkpt>
      <trkpt lat="45.93164" lon="6.36446">
        <ele>1743</ele>
        <time>2026-08-19T08:53:59.344Z</time>
      </trkpt>
      <trkpt lat="45.93164" lon="6.36448">
        <ele>1743</ele>
        <time>2026-08-19T08:54:00.344Z</time>
      </trkpt>
      <trkpt lat="45.93164" lon="6.36449">
        <ele>1742</ele>
        <time>2026-08-19T08:54:01.344Z</time>
      </trkpt>
      <trkpt lat="45.93164" lon="6.36451">
        <ele>1742</ele>
        <time>2026-08-19T08:54:02.344Z</time>
      </trkpt>
      <trkpt lat="45.93164" lon="6.36453">
        <ele>1741</ele>
        <time>2026-08-19T08:54:03.344Z</time>
      </trkpt>
      <trkpt lat="45.93165" lon="6.36455">
        <ele>1741</ele>
        <time>2026-08-19T08:54:04.344Z</time>
      </trkpt>
      <trkpt lat="45.93165" lon="6.36456">
        <ele>1741</ele>
        <time>2026-08-19T08:54:05.344Z</time>
      </trkpt>
      <trkpt lat="45.93165" lon="6.36457">
        <ele>1741</ele>
        <time>2026-08-19T08:54:06.344Z</time>
      </trkpt>
      <trkpt lat="45.93165" lon="6.36459">
        <ele>1740</ele>
        <time>2026-08-19T08:54:07.344Z</time>
      </trkpt>
      <trkpt lat="45.93166" lon="6.36459">
        <ele>1740</ele>
        <time>2026-08-19T08:54:08.344Z</time>
      </trkpt>
      <trkpt lat="45.93166" lon="6.36461">
        <ele>1741</ele>
        <time>2026-08-19T08:54:09.344Z</time>
      </trkpt>
      <trkpt lat="45.93166" lon="6.36462">
        <ele>1740</ele>
        <time>2026-08-19T08:54:10.344Z</time>
      </trkpt>
      <trkpt lat="45.93166" lon="6.36464">
        <ele>1741</ele>
        <time>2026-08-19T08:54:11.344Z</time>
      </trkpt>
      <trkpt lat="45.93166" lon="6.36465">
        <ele>1740</ele>
        <time>2026-08-19T08:54:12.344Z</time>
      </trkpt>
      <trkpt lat="45.93166" lon="6.36467">
        <ele>1740</ele>
        <time>2026-08-19T08:54:13.344Z</time>
      </trkpt>
      <trkpt lat="45.93166" lon="6.36468">
        <ele>1740</ele>
        <time>2026-08-19T08:54:14.344Z</time>
      </trkpt>
      <trkpt lat="45.93165" lon="6.36469">
        <ele>1739</ele>
        <time>2026-08-19T08:54:15.344Z</time>
      </trkpt>
      <trkpt lat="45.93165" lon="6.3647">
        <ele>1739</ele>
        <time>2026-08-19T08:54:16.344Z</time>
      </trkpt>
      <trkpt lat="45.93165" lon="6.36471">
        <ele>1738</ele>
        <time>2026-08-19T08:54:17.344Z</time>
      </trkpt>
      <trkpt lat="45.93165" lon="6.36473">
        <ele>1738</ele>
        <time>2026-08-19T08:54:18.344Z</time>
      </trkpt>
      <trkpt lat="45.93165" lon="6.36474">
        <ele>1738</ele>
        <time>2026-08-19T08:54:19.344Z</time>
      </trkpt>
      <trkpt lat="45.93164" lon="6.36474">
        <ele>1737</ele>
        <time>2026-08-19T08:54:20.344Z</time>
      </trkpt>
      <trkpt lat="45.93164" lon="6.36475">
        <ele>1737</ele>
        <time>2026-08-19T08:54:21.344Z</time>
      </trkpt>
      <trkpt lat="45.93165" lon="6.36475">
        <ele>1737</ele>
        <time>2026-08-19T08:54:22.344Z</time>
      </trkpt>
      <trkpt lat="45.93165" lon="6.36475">
        <ele>1736</ele>
        <time>2026-08-19T08:54:23.344Z</time>
      </trkpt>
      <trkpt lat="45.93165" lon="6.36476">
        <ele>1736</ele>
        <time>2026-08-19T08:54:24.344Z</time>
      </trkpt>
      <trkpt lat="45.93165" lon="6.36476">
        <ele>1736</ele>
        <time>2026-08-19T08:54:25.344Z</time>
      </trkpt>
      <trkpt lat="45.93165" lon="6.36477">
        <ele>1735</ele>
        <time>2026-08-19T08:54:26.344Z</time>
      </trkpt>
      <trkpt lat="45.93165" lon="6.36477">
        <ele>1734</ele>
        <time>2026-08-19T08:54:27.344Z</time>
      </trkpt>
      <trkpt lat="45.93166" lon="6.36478">
        <ele>1734</ele>
        <time>2026-08-19T08:54:28.345Z</time>
      </trkpt>
      <trkpt lat="45.93166" lon="6.36478">
        <ele>1734</ele>
        <time>2026-08-19T08:54:29.344Z</time>
      </trkpt>
      <trkpt lat="45.93167" lon="6.36479">
        <ele>1734</ele>
        <time>2026-08-19T08:54:30.344Z</time>
      </trkpt>
      <trkpt lat="45.93167" lon="6.3648">
        <ele>1734</ele>
        <time>2026-08-19T08:54:31.344Z</time>
      </trkpt>
      <trkpt lat="45.93168" lon="6.36482">
        <ele>1734</ele>
        <time>2026-08-19T08:54:32.344Z</time>
      </trkpt>
      <trkpt lat="45.93168" lon="6.36483">
        <ele>1734</ele>
        <time>2026-08-19T08:54:33.344Z</time>
      </trkpt>
      <trkpt lat="45.93168" lon="6.36485">
        <ele>1735</ele>
        <time>2026-08-19T08:54:34.344Z</time>
      </trkpt>
      <trkpt lat="45.93169" lon="6.36487">
        <ele>1735</ele>
        <time>2026-08-19T08:54:35.344Z</time>
      </trkpt>
      <trkpt lat="45.93169" lon="6.36488">
        <ele>1735</ele>
        <time>2026-08-19T08:54:36.344Z</time>
      </trkpt>
      <trkpt lat="45.9317" lon="6.3649">
        <ele>1735</ele>
        <time>2026-08-19T08:54:37.344Z</time>
      </trkpt>
      <trkpt lat="45.9317" lon="6.36491">
        <ele>1735</ele>
        <time>2026-08-19T08:54:38.344Z</time>
      </trkpt>
      <trkpt lat="45.93171" lon="6.36492">
        <ele>1736</ele>
        <time>2026-08-19T08:54:39.344Z</time>
      </trkpt>
      <trkpt lat="45.9317" lon="6.36493">
        <ele>1736</ele>
        <time>2026-08-19T08:54:40.344Z</time>
      </trkpt>
      <trkpt lat="45.9317" lon="6.36494">
        <ele>1737</ele>
        <time>2026-08-19T08:54:41.344Z</time>
      </trkpt>
      <trkpt lat="45.93169" lon="6.36495">
        <ele>1737</ele>
        <time>2026-08-19T08:54:42.344Z</time>
      </trkpt>
      <trkpt lat="45.93169" lon="6.36495">
        <ele>1738</ele>
        <time>2026-08-19T08:54:43.344Z</time>
      </trkpt>
      <trkpt lat="45.93168" lon="6.36496">
        <ele>1738</ele>
        <time>2026-08-19T08:54:44.344Z</time>
      </trkpt>
      <trkpt lat="45.93167" lon="6.36497">
        <ele>1738</ele>
        <time>2026-08-19T08:54:45.344Z</time>
      </trkpt>
      <trkpt lat="45.93167" lon="6.36497">
        <ele>1739</ele>
        <time>2026-08-19T08:54:46.344Z</time>
      </trkpt>
      <trkpt lat="45.93167" lon="6.36499">
        <ele>1738</ele>
        <time>2026-08-19T08:54:47.344Z</time>
      </trkpt>
      <trkpt lat="45.93167" lon="6.36499">
        <ele>1738</ele>
        <time>2026-08-19T08:54:48.344Z</time>
      </trkpt>
      <trkpt lat="45.93167" lon="6.365">
        <ele>1738</ele>
        <time>2026-08-19T08:54:49.344Z</time>
      </trkpt>
      <trkpt lat="45.93168" lon="6.36501">
        <ele>1737</ele>
        <time>2026-08-19T08:54:50.344Z</time>
      </trkpt>
      <trkpt lat="45.93168" lon="6.36503">
        <ele>1738</ele>
        <time>2026-08-19T08:54:51.344Z</time>
      </trkpt>
      <trkpt lat="45.93168" lon="6.36504">
        <ele>1738</ele>
        <time>2026-08-19T08:54:52.344Z</time>
      </trkpt>
      <trkpt lat="45.93168" lon="6.36505">
        <ele>1738</ele>
        <time>2026-08-19T08:54:53.344Z</time>
      </trkpt>
      <trkpt lat="45.93168" lon="6.36506">
        <ele>1738</ele>
        <time>2026-08-19T08:54:54.344Z</time>
      </trkpt>
      <trkpt lat="45.93169" lon="6.36507">
        <ele>1738</ele>
        <time>2026-08-19T08:54:55.344Z</time>
      </trkpt>
      <trkpt lat="45.93169" lon="6.36508">
        <ele>1738</ele>
        <time>2026-08-19T08:54:56.344Z</time>
      </trkpt>
      <trkpt lat="45.93169" lon="6.36508">
        <ele>1738</ele>
        <time>2026-08-19T08:54:57.344Z</time>
      </trkpt>
      <trkpt lat="45.93169" lon="6.36509">
        <ele>1738</ele>
        <time>2026-08-19T08:54:58.344Z</time>
      </trkpt>
      <trkpt lat="45.9317" lon="6.36509">
        <ele>1738</ele>
        <time>2026-08-19T08:54:59.344Z</time>
      </trkpt>
      <trkpt lat="45.9317" lon="6.3651">
        <ele>1738</ele>
        <time>2026-08-19T08:55:00.344Z</time>
      </trkpt>
      <trkpt lat="45.9317" lon="6.3651">
        <ele>1739</ele>
        <time>2026-08-19T08:55:01.344Z</time>
      </trkpt>
      <trkpt lat="45.9317" lon="6.3651">
        <ele>1740</ele>
        <time>2026-08-19T08:55:02.344Z</time>
      </trkpt>
      <trkpt lat="45.9317" lon="6.3651">
        <ele>1740</ele>
        <time>2026-08-19T08:55:03.345Z</time>
      </trkpt>
      <trkpt lat="45.93171" lon="6.3651">
        <ele>1740</ele>
        <time>2026-08-19T08:55:04.344Z</time>
      </trkpt>
      <trkpt lat="45.93171" lon="6.36509">
        <ele>1740</ele>
        <time>2026-08-19T08:55:05.344Z</time>
      </trkpt>
      <trkpt lat="45.93171" lon="6.36509">
        <ele>1741</ele>
        <time>2026-08-19T08:55:06.344Z</time>
      </trkpt>
      <trkpt lat="45.93171" lon="6.36509">
        <ele>1741</ele>
        <time>2026-08-19T08:55:07.344Z</time>
      </trkpt>
      <trkpt lat="45.93171" lon="6.36509">
        <ele>1742</ele>
        <time>2026-08-19T08:55:08.344Z</time>
      </trkpt>
      <trkpt lat="45.93171" lon="6.3651">
        <ele>1742</ele>
        <time>2026-08-19T08:55:09.344Z</time>
      </trkpt>
      <trkpt lat="45.93171" lon="6.3651">
        <ele>1743</ele>
        <time>2026-08-19T08:55:10.344Z</time>
      </trkpt>
      <trkpt lat="45.93172" lon="6.3651">
        <ele>1743</ele>
        <time>2026-08-19T08:55:11.344Z</time>
      </trkpt>
      <trkpt lat="45.93172" lon="6.3651">
        <ele>1743</ele>
        <time>2026-08-19T08:55:12.344Z</time>
      </trkpt>
      <trkpt lat="45.93172" lon="6.3651">
        <ele>1743</ele>
        <time>2026-08-19T08:55:13.344Z</time>
      </trkpt>
      <trkpt lat="45.93173" lon="6.3651">
        <ele>1744</ele>
        <time>2026-08-19T08:55:14.344Z</time>
      </trkpt>
      <trkpt lat="45.93172" lon="6.36511">
        <ele>1744</ele>
        <time>2026-08-19T08:55:15.344Z</time>
      </trkpt>
      <trkpt lat="45.93172" lon="6.36511">
        <ele>1744</ele>
        <time>2026-08-19T08:55:16.344Z</time>
      </trkpt>
      <trkpt lat="45.93172" lon="6.36512">
        <ele>1744</ele>
        <time>2026-08-19T08:55:17.344Z</time>
      </trkpt>
      <trkpt lat="45.93172" lon="6.36512">
        <ele>1744</ele>
        <time>2026-08-19T08:55:18.344Z</time>
      </trkpt>
      <trkpt lat="45.93172" lon="6.36512">
        <ele>1744</ele>
        <time>2026-08-19T08:55:19.344Z</time>
      </trkpt>
      <trkpt lat="45.93172" lon="6.36512">
        <ele>1745</ele>
        <time>2026-08-19T08:55:20.344Z</time>
      </trkpt>
      <trkpt lat="45.93172" lon="6.36512">
        <ele>1745</ele>
        <time>2026-08-19T08:55:21.344Z</time>
      </trkpt>
      <trkpt lat="45.93172" lon="6.36512">
        <ele>1745</ele>
        <time>2026-08-19T08:55:22.344Z</time>
      </trkpt>
      <trkpt lat="45.93172" lon="6.36512">
        <ele>1746</ele>
        <time>2026-08-19T08:55:23.344Z</time>
      </trkpt>
      <trkpt lat="45.93172" lon="6.36512">
        <ele>1746</ele>
        <time>2026-08-19T08:55:24.344Z</time>
      </trkpt>
      <trkpt lat="45.93172" lon="6.36512">
        <ele>1746</ele>
        <time>2026-08-19T08:55:25.344Z</time>
      </trkpt>
      <trkpt lat="45.93172" lon="6.36512">
        <ele>1746</ele>
        <time>2026-08-19T08:55:26.344Z</time>
      </trkpt>
      <trkpt lat="45.93172" lon="6.36512">
        <ele>1746</ele>
        <time>2026-08-19T08:55:27.344Z</time>
      </trkpt>
      <trkpt lat="45.93172" lon="6.36512">
        <ele>1746</ele>
        <time>2026-08-19T08:55:28.344Z</time>
      </trkpt>
      <trkpt lat="45.93172" lon="6.36512">
        <ele>1746</ele>
        <time>2026-08-19T08:55:29.344Z</time>
      </trkpt>
      <trkpt lat="45.93172" lon="6.36512">
        <ele>1747</ele>
        <time>2026-08-19T08:55:30.344Z</time>
      </trkpt>
      <trkpt lat="45.93172" lon="6.36512">
        <ele>1747</ele>
        <time>2026-08-19T08:55:31.344Z</time>
      </trkpt>
      <trkpt lat="45.93172" lon="6.36512">
        <ele>1747</ele>
        <time>2026-08-19T08:55:32.345Z</time>
      </trkpt>
      <trkpt lat="45.93172" lon="6.36512">
        <ele>1747</ele>
        <time>2026-08-19T08:55:33.344Z</time>
      </trkpt>
      <trkpt lat="45.93172" lon="6.36512">
        <ele>1747</ele>
        <time>2026-08-19T08:55:34.344Z</time>
      </trkpt>
      <trkpt lat="45.93172" lon="6.36513">
        <ele>1747</ele>
        <time>2026-08-19T08:55:35.344Z</time>
      </trkpt>
      <trkpt lat="45.93172" lon="6.36516">
        <ele>1747</ele>
        <time>2026-08-19T08:55:36.344Z</time>
      </trkpt>
      <trkpt lat="45.93172" lon="6.36518">
        <ele>1747</ele>
        <time>2026-08-19T08:55:37.344Z</time>
      </trkpt>
      <trkpt lat="45.93172" lon="6.3652">
        <ele>1747</ele>
        <time>2026-08-19T08:55:38.344Z</time>
      </trkpt>
      <trkpt lat="45.93171" lon="6.36522">
        <ele>1747</ele>
        <time>2026-08-19T08:55:39.344Z</time>
      </trkpt>
      <trkpt lat="45.93171" lon="6.36523">
        <ele>1747</ele>
        <time>2026-08-19T08:55:40.345Z</time>
      </trkpt>
      <trkpt lat="45.9317" lon="6.36525">
        <ele>1746</ele>
        <time>2026-08-19T08:55:41.344Z</time>
      </trkpt>
      <trkpt lat="45.93169" lon="6.36526">
        <ele>1746</ele>
        <time>2026-08-19T08:55:42.344Z</time>
      </trkpt>
      <trkpt lat="45.93169" lon="6.36528">
        <ele>1746</ele>
        <time>2026-08-19T08:55:43.344Z</time>
      </trkpt>
      <trkpt lat="45.93169" lon="6.36529">
        <ele>1746</ele>
        <time>2026-08-19T08:55:44.344Z</time>
      </trkpt>
      <trkpt lat="45.93169" lon="6.3653">
        <ele>1746</ele>
        <time>2026-08-19T08:55:45.344Z</time>
      </trkpt>
      <trkpt lat="45.93169" lon="6.36531">
        <ele>1746</ele>
        <time>2026-08-19T08:55:46.344Z</time>
      </trkpt>
      <trkpt lat="45.93169" lon="6.36532">
        <ele>1745</ele>
        <time>2026-08-19T08:55:47.344Z</time>
      </trkpt>
      <trkpt lat="45.9317" lon="6.36533">
        <ele>1745</ele>
        <time>2026-08-19T08:55:48.344Z</time>
      </trkpt>
      <trkpt lat="45.9317" lon="6.36534">
        <ele>1745</ele>
        <time>2026-08-19T08:55:49.344Z</time>
      </trkpt>
      <trkpt lat="45.9317" lon="6.36536">
        <ele>1745</ele>
        <time>2026-08-19T08:55:50.344Z</time>
      </trkpt>
      <trkpt lat="45.9317" lon="6.36537">
        <ele>1745</ele>
        <time>2026-08-19T08:55:51.345Z</time>
      </trkpt>
      <trkpt lat="45.93169" lon="6.36539">
        <ele>1745</ele>
        <time>2026-08-19T08:55:52.344Z</time>
      </trkpt>
      <trkpt lat="45.93169" lon="6.3654">
        <ele>1745</ele>
        <time>2026-08-19T08:55:53.344Z</time>
      </trkpt>
      <trkpt lat="45.93169" lon="6.36541">
        <ele>1745</ele>
        <time>2026-08-19T08:55:54.344Z</time>
      </trkpt>
      <trkpt lat="45.93169" lon="6.36542">
        <ele>1745</ele>
        <time>2026-08-19T08:55:55.344Z</time>
      </trkpt>
      <trkpt lat="45.93169" lon="6.36542">
        <ele>1746</ele>
        <time>2026-08-19T08:55:56.344Z</time>
      </trkpt>
      <trkpt lat="45.9317" lon="6.36544">
        <ele>1746</ele>
        <time>2026-08-19T08:55:57.344Z</time>
      </trkpt>
      <trkpt lat="45.9317" lon="6.36544">
        <ele>1746</ele>
        <time>2026-08-19T08:55:58.344Z</time>
      </trkpt>
      <trkpt lat="45.9317" lon="6.36545">
        <ele>1746</ele>
        <time>2026-08-19T08:55:59.344Z</time>
      </trkpt>
      <trkpt lat="45.9317" lon="6.36545">
        <ele>1746</ele>
        <time>2026-08-19T08:56:00.344Z</time>
      </trkpt>
      <trkpt lat="45.9317" lon="6.36546">
        <ele>1745</ele>
        <time>2026-08-19T08:56:01.344Z</time>
      </trkpt>
      <trkpt lat="45.9317" lon="6.36547">
        <ele>1745</ele>
        <time>2026-08-19T08:56:02.344Z</time>
      </trkpt>
      <trkpt lat="45.9317" lon="6.36548">
        <ele>1745</ele>
        <time>2026-08-19T08:56:03.344Z</time>
      </trkpt>
      <trkpt lat="45.9317" lon="6.36549">
        <ele>1745</ele>
        <time>2026-08-19T08:56:04.344Z</time>
      </trkpt>
      <trkpt lat="45.9317" lon="6.36549">
        <ele>1745</ele>
        <time>2026-08-19T08:56:05.344Z</time>
      </trkpt>
      <trkpt lat="45.93171" lon="6.3655">
        <ele>1745</ele>
        <time>2026-08-19T08:56:06.344Z</time>
      </trkpt>
      <trkpt lat="45.93171" lon="6.3655">
        <ele>1745</ele>
        <time>2026-08-19T08:56:07.344Z</time>
      </trkpt>
      <trkpt lat="45.93171" lon="6.36551">
        <ele>1744</ele>
        <time>2026-08-19T08:56:08.344Z</time>
      </trkpt>
      <trkpt lat="45.93171" lon="6.36552">
        <ele>1744</ele>
        <time>2026-08-19T08:56:09.344Z</time>
      </trkpt>
      <trkpt lat="45.93172" lon="6.36553">
        <ele>1744</ele>
        <time>2026-08-19T08:56:10.344Z</time>
      </trkpt>
      <trkpt lat="45.93172" lon="6.36553">
        <ele>1744</ele>
        <time>2026-08-19T08:56:11.344Z</time>
      </trkpt>
      <trkpt lat="45.93172" lon="6.36554">
        <ele>1744</ele>
        <time>2026-08-19T08:56:12.344Z</time>
      </trkpt>
      <trkpt lat="45.93172" lon="6.36554">
        <ele>1744</ele>
        <time>2026-08-19T08:56:13.344Z</time>
      </trkpt>
      <trkpt lat="45.93172" lon="6.36554">
        <ele>1744</ele>
        <time>2026-08-19T08:56:14.344Z</time>
      </trkpt>
      <trkpt lat="45.93172" lon="6.36554">
        <ele>1744</ele>
        <time>2026-08-19T08:56:15.344Z</time>
      </trkpt>
      <trkpt lat="45.93172" lon="6.36554">
        <ele>1744</ele>
        <time>2026-08-19T08:56:16.344Z</time>
      </trkpt>
      <trkpt lat="45.93172" lon="6.36554">
        <ele>1744</ele>
        <time>2026-08-19T08:56:17.344Z</time>
      </trkpt>
      <trkpt lat="45.93173" lon="6.36554">
        <ele>1744</ele>
        <time>2026-08-19T08:56:18.344Z</time>
      </trkpt>
      <trkpt lat="45.93173" lon="6.36554">
        <ele>1744</ele>
        <time>2026-08-19T08:56:19.344Z</time>
      </trkpt>
      <trkpt lat="45.93173" lon="6.36554">
        <ele>1745</ele>
        <time>2026-08-19T08:56:20.344Z</time>
      </trkpt>
      <trkpt lat="45.93173" lon="6.36555">
        <ele>1745</ele>
        <time>2026-08-19T08:56:21.344Z</time>
      </trkpt>
      <trkpt lat="45.93174" lon="6.36556">
        <ele>1745</ele>
        <time>2026-08-19T08:56:22.344Z</time>
      </trkpt>
      <trkpt lat="45.93174" lon="6.36556">
        <ele>1745</ele>
        <time>2026-08-19T08:56:23.344Z</time>
      </trkpt>
      <trkpt lat="45.93173" lon="6.36556">
        <ele>1745</ele>
        <time>2026-08-19T08:56:24.344Z</time>
      </trkpt>
      <trkpt lat="45.93173" lon="6.36556">
        <ele>1745</ele>
        <time>2026-08-19T08:56:25.344Z</time>
      </trkpt>
      <trkpt lat="45.93173" lon="6.36556">
        <ele>1745</ele>
        <time>2026-08-19T08:56:26.344Z</time>
      </trkpt>
      <trkpt lat="45.93173" lon="6.36556">
        <ele>1746</ele>
        <time>2026-08-19T08:56:27.344Z</time>
      </trkpt>
      <trkpt lat="45.93173" lon="6.36556">
        <ele>1746</ele>
        <time>2026-08-19T08:56:28.344Z</time>
      </trkpt>
      <trkpt lat="45.93173" lon="6.36556">
        <ele>1746</ele>
        <time>2026-08-19T08:56:29.344Z</time>
      </trkpt>
      <trkpt lat="45.93173" lon="6.36556">
        <ele>1747</ele>
        <time>2026-08-19T08:56:30.344Z</time>
      </trkpt>
      <trkpt lat="45.93173" lon="6.36556">
        <ele>1747</ele>
        <time>2026-08-19T08:56:31.344Z</time>
      </trkpt>
      <trkpt lat="45.93173" lon="6.36556">
        <ele>1747</ele>
        <time>2026-08-19T08:56:32.344Z</time>
      </trkpt>
      <trkpt lat="45.93173" lon="6.36556">
        <ele>1747</ele>
        <time>2026-08-19T08:56:33.344Z</time>
      </trkpt>
      <trkpt lat="45.93173" lon="6.36556">
        <ele>1747</ele>
        <time>2026-08-19T08:56:34.344Z</time>
      </trkpt>
      <trkpt lat="45.93173" lon="6.36556">
        <ele>1747</ele>
        <time>2026-08-19T08:56:35.344Z</time>
      </trkpt>
      <trkpt lat="45.93173" lon="6.36556">
        <ele>1747</ele>
        <time>2026-08-19T08:56:36.344Z</time>
      </trkpt>
      <trkpt lat="45.93173" lon="6.36556">
        <ele>1747</ele>
        <time>2026-08-19T08:56:37.344Z</time>
      </trkpt>
      <trkpt lat="45.93173" lon="6.36556">
        <ele>1747</ele>
        <time>2026-08-19T08:56:38.344Z</time>
      </trkpt>
      <trkpt lat="45.93173" lon="6.36556">
        <ele>1747</ele>
        <time>2026-08-19T08:56:39.344Z</time>
      </trkpt>
      <trkpt lat="45.93173" lon="6.36556">
        <ele>1747</ele>
        <time>2026-08-19T08:56:40.344Z</time>
      </trkpt>
      <trkpt lat="45.93173" lon="6.36556">
        <ele>1747</ele>
        <time>2026-08-19T08:56:41.344Z</time>
      </trkpt>
      <trkpt lat="45.93173" lon="6.36556">
        <ele>1747</ele>
        <time>2026-08-19T08:56:42.344Z</time>
      </trkpt>
      <trkpt lat="45.93173" lon="6.36556">
        <ele>1747</ele>
        <time>2026-08-19T08:56:43.344Z</time>
      </trkpt>
      <trkpt lat="45.93173" lon="6.36556">
        <ele>1748</ele>
        <time>2026-08-19T08:56:44.344Z</time>
      </trkpt>
      <trkpt lat="45.93173" lon="6.36556">
        <ele>1748</ele>
        <time>2026-08-19T08:56:45.344Z</time>
      </trkpt>
      <trkpt lat="45.93173" lon="6.36556">
        <ele>1748</ele>
        <time>2026-08-19T08:56:46.344Z</time>
      </trkpt>
      <trkpt lat="45.93173" lon="6.36556">
        <ele>1748</ele>
        <time>2026-08-19T08:56:47.344Z</time>
      </trkpt>
      <trkpt lat="45.93174" lon="6.36555">
        <ele>1748</ele>
        <time>2026-08-19T08:56:48.344Z</time>
      </trkpt>
      <trkpt lat="45.93174" lon="6.36555">
        <ele>1748</ele>
        <time>2026-08-19T08:56:49.344Z</time>
      </trkpt>
      <trkpt lat="45.93174" lon="6.36555">
        <ele>1748</ele>
        <time>2026-08-19T08:56:50.344Z</time>
      </trkpt>
      <trkpt lat="45.93174" lon="6.36555">
        <ele>1748</ele>
        <time>2026-08-19T08:56:51.344Z</time>
      </trkpt>
      <trkpt lat="45.93175" lon="6.36555">
        <ele>1748</ele>
        <time>2026-08-19T08:56:52.344Z</time>
      </trkpt>
      <trkpt lat="45.93175" lon="6.36554">
        <ele>1748</ele>
        <time>2026-08-19T08:56:53.344Z</time>
      </trkpt>
      <trkpt lat="45.93176" lon="6.36554">
        <ele>1748</ele>
        <time>2026-08-19T08:56:54.344Z</time>
      </trkpt>
      <trkpt lat="45.93176" lon="6.36554">
        <ele>1748</ele>
        <time>2026-08-19T08:56:55.344Z</time>
      </trkpt>
      <trkpt lat="45.93176" lon="6.36554">
        <ele>1748</ele>
        <time>2026-08-19T08:56:56.344Z</time>
      </trkpt>
      <trkpt lat="45.93176" lon="6.36554">
        <ele>1748</ele>
        <time>2026-08-19T08:56:57.344Z</time>
      </trkpt>
      <trkpt lat="45.93176" lon="6.36554">
        <ele>1748</ele>
        <time>2026-08-19T08:56:58.344Z</time>
      </trkpt>
      <trkpt lat="45.93176" lon="6.36554">
        <ele>1748</ele>
        <time>2026-08-19T08:56:59.344Z</time>
      </trkpt>
      <trkpt lat="45.93176" lon="6.36554">
        <ele>1748</ele>
        <time>2026-08-19T08:57:00.344Z</time>
      </trkpt>
      <trkpt lat="45.93176" lon="6.36554">
        <ele>1748</ele>
        <time>2026-08-19T08:57:01.344Z</time>
      </trkpt>
      <trkpt lat="45.93176" lon="6.36554">
        <ele>1748</ele>
        <time>2026-08-19T08:57:02.344Z</time>
      </trkpt>
      <trkpt lat="45.93176" lon="6.36554">
        <ele>1748</ele>
        <time>2026-08-19T08:57:03.344Z</time>
      </trkpt>
      <trkpt lat="45.93176" lon="6.36554">
        <ele>1748</ele>
        <time>2026-08-19T08:57:04.344Z</time>
      </trkpt>
      <trkpt lat="45.93176" lon="6.36554">
        <ele>1748</ele>
        <time>2026-08-19T08:57:05.344Z</time>
      </trkpt>
      <trkpt lat="45.93176" lon="6.36554">
        <ele>1749</ele>
        <time>2026-08-19T08:57:06.344Z</time>
      </trkpt>
      <trkpt lat="45.93176" lon="6.36554">
        <ele>1749</ele>
        <time>2026-08-19T08:57:07.344Z</time>
      </trkpt>
      <trkpt lat="45.93176" lon="6.36554">
        <ele>1749</ele>
        <time>2026-08-19T08:57:08.344Z</time>
      </trkpt>
      <trkpt lat="45.93176" lon="6.36555">
        <ele>1749</ele>
        <time>2026-08-19T08:57:09.344Z</time>
      </trkpt>
      <trkpt lat="45.93176" lon="6.36555">
        <ele>1749</ele>
        <time>2026-08-19T08:57:10.344Z</time>
      </trkpt>
      <trkpt lat="45.93176" lon="6.36555">
        <ele>1749</ele>
        <time>2026-08-19T08:57:11.344Z</time>
      </trkpt>
      <trkpt lat="45.93176" lon="6.36555">
        <ele>1749</ele>
        <time>2026-08-19T08:57:12.344Z</time>
      </trkpt>
      <trkpt lat="45.93176" lon="6.36555">
        <ele>1749</ele>
        <time>2026-08-19T08:57:13.345Z</time>
      </trkpt>
      <trkpt lat="45.93176" lon="6.36555">
        <ele>1749</ele>
        <time>2026-08-19T08:57:14.344Z</time>
      </trkpt>
      <trkpt lat="45.93176" lon="6.36555">
        <ele>1749</ele>
        <time>2026-08-19T08:57:15.344Z</time>
      </trkpt>
      <trkpt lat="45.93176" lon="6.36555">
        <ele>1749</ele>
        <time>2026-08-19T08:57:16.344Z</time>
      </trkpt>
      <trkpt lat="45.93176" lon="6.36555">
        <ele>1749</ele>
        <time>2026-08-19T08:57:17.344Z</time>
      </trkpt>
      <trkpt lat="45.93175" lon="6.36556">
        <ele>1749</ele>
        <time>2026-08-19T08:57:18.344Z</time>
      </trkpt>
      <trkpt lat="45.93175" lon="6.36556">
        <ele>1749</ele>
        <time>2026-08-19T08:57:19.344Z</time>
      </trkpt>
      <trkpt lat="45.93175" lon="6.36556">
        <ele>1749</ele>
        <time>2026-08-19T08:57:20.344Z</time>
      </trkpt>
      <trkpt lat="45.93175" lon="6.36556">
        <ele>1749</ele>
        <time>2026-08-19T08:57:21.344Z</time>
      </trkpt>
      <trkpt lat="45.93175" lon="6.36556">
        <ele>1749</ele>
        <time>2026-08-19T08:57:22.344Z</time>
      </trkpt>
      <trkpt lat="45.93175" lon="6.36556">
        <ele>1749</ele>
        <time>2026-08-19T08:57:23.344Z</time>
      </trkpt>
      <trkpt lat="45.93175" lon="6.36556">
        <ele>1749</ele>
        <time>2026-08-19T08:57:24.344Z</time>
      </trkpt>
      <trkpt lat="45.93175" lon="6.36556">
        <ele>1749</ele>
        <time>2026-08-19T08:57:25.344Z</time>
      </trkpt>
      <trkpt lat="45.93175" lon="6.36556">
        <ele>1749</ele>
        <time>2026-08-19T08:57:26.344Z</time>
      </trkpt>
      <trkpt lat="45.93175" lon="6.36557">
        <ele>1749</ele>
        <time>2026-08-19T08:57:27.344Z</time>
      </trkpt>
      <trkpt lat="45.93174" lon="6.36557">
        <ele>1749</ele>
        <time>2026-08-19T08:57:28.344Z</time>
      </trkpt>
      <trkpt lat="45.93174" lon="6.36557">
        <ele>1749</ele>
        <time>2026-08-19T08:57:29.344Z</time>
      </trkpt>
      <trkpt lat="45.93173" lon="6.36557">
        <ele>1749</ele>
        <time>2026-08-19T08:57:30.345Z</time>
      </trkpt>
      <trkpt lat="45.93173" lon="6.36557">
        <ele>1749</ele>
        <time>2026-08-19T08:57:31.344Z</time>
      </trkpt>
      <trkpt lat="45.93173" lon="6.36557">
        <ele>1749</ele>
        <time>2026-08-19T08:57:32.344Z</time>
      </trkpt>
      <trkpt lat="45.93173" lon="6.36557">
        <ele>1749</ele>
        <time>2026-08-19T08:57:33.344Z</time>
      </trkpt>
      <trkpt lat="45.93173" lon="6.36557">
        <ele>1749</ele>
        <time>2026-08-19T08:57:34.344Z</time>
      </trkpt>
      <trkpt lat="45.93172" lon="6.36558">
        <ele>1749</ele>
        <time>2026-08-19T08:57:35.344Z</time>
      </trkpt>
      <trkpt lat="45.93172" lon="6.36558">
        <ele>1749</ele>
        <time>2026-08-19T08:57:36.344Z</time>
      </trkpt>
      <trkpt lat="45.93172" lon="6.36558">
        <ele>1749</ele>
        <time>2026-08-19T08:57:37.344Z</time>
      </trkpt>
      <trkpt lat="45.93172" lon="6.36558">
        <ele>1749</ele>
        <time>2026-08-19T08:57:38.344Z</time>
      </trkpt>
      <trkpt lat="45.93172" lon="6.36559">
        <ele>1749</ele>
        <time>2026-08-19T08:57:39.344Z</time>
      </trkpt>
      <trkpt lat="45.93171" lon="6.3656">
        <ele>1749</ele>
        <time>2026-08-19T08:57:40.344Z</time>
      </trkpt>
      <trkpt lat="45.93171" lon="6.36562">
        <ele>1749</ele>
        <time>2026-08-19T08:57:41.344Z</time>
      </trkpt>
      <trkpt lat="45.93171" lon="6.36563">
        <ele>1748</ele>
        <time>2026-08-19T08:57:42.344Z</time>
      </trkpt>
      <trkpt lat="45.93171" lon="6.36564">
        <ele>1748</ele>
        <time>2026-08-19T08:57:43.344Z</time>
      </trkpt>
      <trkpt lat="45.9317" lon="6.36566">
        <ele>1748</ele>
        <time>2026-08-19T08:57:44.344Z</time>
      </trkpt>
      <trkpt lat="45.9317" lon="6.36567">
        <ele>1748</ele>
        <time>2026-08-19T08:57:45.344Z</time>
      </trkpt>
      <trkpt lat="45.93169" lon="6.36569">
        <ele>1748</ele>
        <time>2026-08-19T08:57:46.344Z</time>
      </trkpt>
      <trkpt lat="45.93169" lon="6.36571">
        <ele>1748</ele>
        <time>2026-08-19T08:57:47.344Z</time>
      </trkpt>
      <trkpt lat="45.93168" lon="6.36572">
        <ele>1748</ele>
        <time>2026-08-19T08:57:48.344Z</time>
      </trkpt>
      <trkpt lat="45.93168" lon="6.36573">
        <ele>1748</ele>
        <time>2026-08-19T08:57:49.344Z</time>
      </trkpt>
      <trkpt lat="45.93169" lon="6.36573">
        <ele>1748</ele>
        <time>2026-08-19T08:57:50.344Z</time>
      </trkpt>
      <trkpt lat="45.93169" lon="6.36575">
        <ele>1748</ele>
        <time>2026-08-19T08:57:51.344Z</time>
      </trkpt>
      <trkpt lat="45.9317" lon="6.36577">
        <ele>1748</ele>
        <time>2026-08-19T08:57:52.344Z</time>
      </trkpt>
      <trkpt lat="45.9317" lon="6.36578">
        <ele>1748</ele>
        <time>2026-08-19T08:57:53.344Z</time>
      </trkpt>
      <trkpt lat="45.9317" lon="6.36579">
        <ele>1749</ele>
        <time>2026-08-19T08:57:54.344Z</time>
      </trkpt>
      <trkpt lat="45.9317" lon="6.36581">
        <ele>1749</ele>
        <time>2026-08-19T08:57:55.344Z</time>
      </trkpt>
      <trkpt lat="45.9317" lon="6.36582">
        <ele>1749</ele>
        <time>2026-08-19T08:57:56.344Z</time>
      </trkpt>
      <trkpt lat="45.9317" lon="6.36583">
        <ele>1750</ele>
        <time>2026-08-19T08:57:57.344Z</time>
      </trkpt>
      <trkpt lat="45.9317" lon="6.36583">
        <ele>1750</ele>
        <time>2026-08-19T08:57:58.344Z</time>
      </trkpt>
      <trkpt lat="45.9317" lon="6.36583">
        <ele>1750</ele>
        <time>2026-08-19T08:57:59.344Z</time>
      </trkpt>
      <trkpt lat="45.9317" lon="6.36583">
        <ele>1750</ele>
        <time>2026-08-19T08:58:00.344Z</time>
      </trkpt>
      <trkpt lat="45.9317" lon="6.36583">
        <ele>1750</ele>
        <time>2026-08-19T08:58:01.344Z</time>
      </trkpt>
      <trkpt lat="45.9317" lon="6.36584">
        <ele>1750</ele>
        <time>2026-08-19T08:58:02.345Z</time>
      </trkpt>
      <trkpt lat="45.9317" lon="6.36584">
        <ele>1750</ele>
        <time>2026-08-19T08:58:03.344Z</time>
      </trkpt>
      <trkpt lat="45.9317" lon="6.36584">
        <ele>1750</ele>
        <time>2026-08-19T08:58:04.344Z</time>
      </trkpt>
      <trkpt lat="45.9317" lon="6.36584">
        <ele>1749</ele>
        <time>2026-08-19T08:58:05.345Z</time>
      </trkpt>
      <trkpt lat="45.9317" lon="6.36583">
        <ele>1749</ele>
        <time>2026-08-19T08:58:06.344Z</time>
      </trkpt>
      <trkpt lat="45.9317" lon="6.36583">
        <ele>1750</ele>
        <time>2026-08-19T08:58:07.344Z</time>
      </trkpt>
      <trkpt lat="45.9317" lon="6.36583">
        <ele>1750</ele>
        <time>2026-08-19T08:58:08.344Z</time>
      </trkpt>
      <trkpt lat="45.9317" lon="6.36583">
        <ele>1750</ele>
        <time>2026-08-19T08:58:09.344Z</time>
      </trkpt>
      <trkpt lat="45.9317" lon="6.36583">
        <ele>1750</ele>
        <time>2026-08-19T08:58:10.344Z</time>
      </trkpt>
      <trkpt lat="45.9317" lon="6.36583">
        <ele>1750</ele>
        <time>2026-08-19T08:58:11.344Z</time>
      </trkpt>
      <trkpt lat="45.9317" lon="6.36583">
        <ele>1750</ele>
        <time>2026-08-19T08:58:12.344Z</time>
      </trkpt>
      <trkpt lat="45.9317" lon="6.36583">
        <ele>1750</ele>
        <time>2026-08-19T08:58:13.344Z</time>
      </trkpt>
      <trkpt lat="45.9317" lon="6.36583">
        <ele>1750</ele>
        <time>2026-08-19T08:58:14.344Z</time>
      </trkpt>
      <trkpt lat="45.9317" lon="6.36583">
        <ele>1750</ele>
        <time>2026-08-19T08:58:15.344Z</time>
      </trkpt>
      <trkpt lat="45.9317" lon="6.36583">
        <ele>1750</ele>
        <time>2026-08-19T08:58:16.344Z</time>
      </trkpt>
      <trkpt lat="45.9317" lon="6.36583">
        <ele>1750</ele>
        <time>2026-08-19T08:58:17.344Z</time>
      </trkpt>
      <trkpt lat="45.9317" lon="6.36583">
        <ele>1751</ele>
        <time>2026-08-19T08:58:18.345Z</time>
      </trkpt>
      <trkpt lat="45.9317" lon="6.36583">
        <ele>1751</ele>
        <time>2026-08-19T08:58:19.344Z</time>
      </trkpt>
      <trkpt lat="45.9317" lon="6.36583">
        <ele>1751</ele>
        <time>2026-08-19T08:58:20.345Z</time>
      </trkpt>
      <trkpt lat="45.9317" lon="6.36583">
        <ele>1751</ele>
        <time>2026-08-19T08:58:21.344Z</time>
      </trkpt>
      <trkpt lat="45.9317" lon="6.36583">
        <ele>1751</ele>
        <time>2026-08-19T08:58:22.344Z</time>
      </trkpt>
      <trkpt lat="45.9317" lon="6.36583">
        <ele>1751</ele>
        <time>2026-08-19T08:58:23.344Z</time>
      </trkpt>
      <trkpt lat="45.93171" lon="6.36583">
        <ele>1751</ele>
        <time>2026-08-19T08:58:24.344Z</time>
      </trkpt>
      <trkpt lat="45.9317" lon="6.36585">
        <ele>1751</ele>
        <time>2026-08-19T08:58:25.344Z</time>
      </trkpt>
      <trkpt lat="45.93169" lon="6.36587">
        <ele>1751</ele>
        <time>2026-08-19T08:58:26.344Z</time>
      </trkpt>
      <trkpt lat="45.93168" lon="6.36589">
        <ele>1751</ele>
        <time>2026-08-19T08:58:27.344Z</time>
      </trkpt>
      <trkpt lat="45.93168" lon="6.36592">
        <ele>1751</ele>
        <time>2026-08-19T08:58:28.344Z</time>
      </trkpt>
      <trkpt lat="45.93168" lon="6.36593">
        <ele>1751</ele>
        <time>2026-08-19T08:58:29.344Z</time>
      </trkpt>
      <trkpt lat="45.93168" lon="6.36596">
        <ele>1751</ele>
        <time>2026-08-19T08:58:30.344Z</time>
      </trkpt>
      <trkpt lat="45.93168" lon="6.36598">
        <ele>1751</ele>
        <time>2026-08-19T08:58:31.344Z</time>
      </trkpt>
      <trkpt lat="45.93168" lon="6.366">
        <ele>1751</ele>
        <time>2026-08-19T08:58:32.344Z</time>
      </trkpt>
      <trkpt lat="45.93167" lon="6.36602">
        <ele>1751</ele>
        <time>2026-08-19T08:58:33.344Z</time>
      </trkpt>
      <trkpt lat="45.93167" lon="6.36604">
        <ele>1751</ele>
        <time>2026-08-19T08:58:34.344Z</time>
      </trkpt>
      <trkpt lat="45.93167" lon="6.36606">
        <ele>1751</ele>
        <time>2026-08-19T08:58:35.344Z</time>
      </trkpt>
      <trkpt lat="45.93167" lon="6.36608">
        <ele>1751</ele>
        <time>2026-08-19T08:58:36.344Z</time>
      </trkpt>
      <trkpt lat="45.93167" lon="6.36609">
        <ele>1751</ele>
        <time>2026-08-19T08:58:37.344Z</time>
      </trkpt>
      <trkpt lat="45.93166" lon="6.36611">
        <ele>1751</ele>
        <time>2026-08-19T08:58:38.344Z</time>
      </trkpt>
      <trkpt lat="45.93165" lon="6.36613">
        <ele>1751</ele>
        <time>2026-08-19T08:58:39.344Z</time>
      </trkpt>
      <trkpt lat="45.93165" lon="6.36615">
        <ele>1751</ele>
        <time>2026-08-19T08:58:40.344Z</time>
      </trkpt>
      <trkpt lat="45.93165" lon="6.36617">
        <ele>1751</ele>
        <time>2026-08-19T08:58:41.344Z</time>
      </trkpt>
      <trkpt lat="45.93164" lon="6.36618">
        <ele>1750</ele>
        <time>2026-08-19T08:58:42.344Z</time>
      </trkpt>
      <trkpt lat="45.93164" lon="6.3662">
        <ele>1750</ele>
        <time>2026-08-19T08:58:43.344Z</time>
      </trkpt>
      <trkpt lat="45.93163" lon="6.36622">
        <ele>1750</ele>
        <time>2026-08-19T08:58:44.345Z</time>
      </trkpt>
      <trkpt lat="45.93163" lon="6.36624">
        <ele>1750</ele>
        <time>2026-08-19T08:58:45.344Z</time>
      </trkpt>
      <trkpt lat="45.93162" lon="6.36626">
        <ele>1750</ele>
        <time>2026-08-19T08:58:46.344Z</time>
      </trkpt>
      <trkpt lat="45.93161" lon="6.36628">
        <ele>1750</ele>
        <time>2026-08-19T08:58:47.344Z</time>
      </trkpt>
      <trkpt lat="45.9316" lon="6.3663">
        <ele>1750</ele>
        <time>2026-08-19T08:58:48.344Z</time>
      </trkpt>
      <trkpt lat="45.93159" lon="6.36632">
        <ele>1750</ele>
        <time>2026-08-19T08:58:49.344Z</time>
      </trkpt>
      <trkpt lat="45.93158" lon="6.36634">
        <ele>1750</ele>
        <time>2026-08-19T08:58:50.344Z</time>
      </trkpt>
      <trkpt lat="45.93156" lon="6.36636">
        <ele>1749</ele>
        <time>2026-08-19T08:58:51.344Z</time>
      </trkpt>
      <trkpt lat="45.93155" lon="6.36638">
        <ele>1749</ele>
        <time>2026-08-19T08:58:52.344Z</time>
      </trkpt>
      <trkpt lat="45.93154" lon="6.3664">
        <ele>1749</ele>
        <time>2026-08-19T08:58:53.344Z</time>
      </trkpt>
      <trkpt lat="45.93153" lon="6.36641">
        <ele>1749</ele>
        <time>2026-08-19T08:58:54.344Z</time>
      </trkpt>
      <trkpt lat="45.93152" lon="6.36643">
        <ele>1749</ele>
        <time>2026-08-19T08:58:55.344Z</time>
      </trkpt>
      <trkpt lat="45.93151" lon="6.36643">
        <ele>1748</ele>
        <time>2026-08-19T08:58:56.344Z</time>
      </trkpt>
      <trkpt lat="45.9315" lon="6.36644">
        <ele>1748</ele>
        <time>2026-08-19T08:58:57.344Z</time>
      </trkpt>
      <trkpt lat="45.93149" lon="6.36645">
        <ele>1748</ele>
        <time>2026-08-19T08:58:58.344Z</time>
      </trkpt>
      <trkpt lat="45.93149" lon="6.36646">
        <ele>1748</ele>
        <time>2026-08-19T08:58:59.344Z</time>
      </trkpt>
      <trkpt lat="45.93148" lon="6.36647">
        <ele>1748</ele>
        <time>2026-08-19T08:59:00.344Z</time>
      </trkpt>
      <trkpt lat="45.93147" lon="6.36648">
        <ele>1747</ele>
        <time>2026-08-19T08:59:01.344Z</time>
      </trkpt>
      <trkpt lat="45.93146" lon="6.36648">
        <ele>1747</ele>
        <time>2026-08-19T08:59:02.344Z</time>
      </trkpt>
      <trkpt lat="45.93145" lon="6.36649">
        <ele>1746</ele>
        <time>2026-08-19T08:59:03.344Z</time>
      </trkpt>
      <trkpt lat="45.93144" lon="6.3665">
        <ele>1746</ele>
        <time>2026-08-19T08:59:04.344Z</time>
      </trkpt>
      <trkpt lat="45.93143" lon="6.36652">
        <ele>1745</ele>
        <time>2026-08-19T08:59:05.344Z</time>
      </trkpt>
      <trkpt lat="45.93143" lon="6.36653">
        <ele>1744</ele>
        <time>2026-08-19T08:59:06.344Z</time>
      </trkpt>
      <trkpt lat="45.93142" lon="6.36654">
        <ele>1744</ele>
        <time>2026-08-19T08:59:07.344Z</time>
      </trkpt>
      <trkpt lat="45.93141" lon="6.36654">
        <ele>1743</ele>
        <time>2026-08-19T08:59:08.344Z</time>
      </trkpt>
      <trkpt lat="45.9314" lon="6.36656">
        <ele>1742</ele>
        <time>2026-08-19T08:59:09.344Z</time>
      </trkpt>
      <trkpt lat="45.93139" lon="6.36657">
        <ele>1742</ele>
        <time>2026-08-19T08:59:10.344Z</time>
      </trkpt>
      <trkpt lat="45.93138" lon="6.36658">
        <ele>1741</ele>
        <time>2026-08-19T08:59:11.344Z</time>
      </trkpt>
      <trkpt lat="45.93137" lon="6.36659">
        <ele>1741</ele>
        <time>2026-08-19T08:59:12.344Z</time>
      </trkpt>
      <trkpt lat="45.93136" lon="6.3666">
        <ele>1740</ele>
        <time>2026-08-19T08:59:13.344Z</time>
      </trkpt>
      <trkpt lat="45.93135" lon="6.36662">
        <ele>1740</ele>
        <time>2026-08-19T08:59:14.344Z</time>
      </trkpt>
      <trkpt lat="45.93134" lon="6.36663">
        <ele>1740</ele>
        <time>2026-08-19T08:59:15.344Z</time>
      </trkpt>
      <trkpt lat="45.93133" lon="6.36664">
        <ele>1739</ele>
        <time>2026-08-19T08:59:16.344Z</time>
      </trkpt>
      <trkpt lat="45.93132" lon="6.36665">
        <ele>1739</ele>
        <time>2026-08-19T08:59:17.344Z</time>
      </trkpt>
      <trkpt lat="45.93131" lon="6.36666">
        <ele>1738</ele>
        <time>2026-08-19T08:59:18.344Z</time>
      </trkpt>
      <trkpt lat="45.9313" lon="6.36667">
        <ele>1737</ele>
        <time>2026-08-19T08:59:19.344Z</time>
      </trkpt>
      <trkpt lat="45.93129" lon="6.36668">
        <ele>1737</ele>
        <time>2026-08-19T08:59:20.344Z</time>
      </trkpt>
      <trkpt lat="45.93129" lon="6.36668">
        <ele>1737</ele>
        <time>2026-08-19T08:59:21.344Z</time>
      </trkpt>
      <trkpt lat="45.93128" lon="6.36669">
        <ele>1736</ele>
        <time>2026-08-19T08:59:22.344Z</time>
      </trkpt>
      <trkpt lat="45.93127" lon="6.3667">
        <ele>1736</ele>
        <time>2026-08-19T08:59:23.344Z</time>
      </trkpt>
      <trkpt lat="45.93127" lon="6.36671">
        <ele>1735</ele>
        <time>2026-08-19T08:59:24.344Z</time>
      </trkpt>
      <trkpt lat="45.93126" lon="6.36672">
        <ele>1735</ele>
        <time>2026-08-19T08:59:25.344Z</time>
      </trkpt>
      <trkpt lat="45.93126" lon="6.36673">
        <ele>1734</ele>
        <time>2026-08-19T08:59:26.344Z</time>
      </trkpt>
      <trkpt lat="45.93125" lon="6.36674">
        <ele>1733</ele>
        <time>2026-08-19T08:59:27.344Z</time>
      </trkpt>
      <trkpt lat="45.93124" lon="6.36675">
        <ele>1733</ele>
        <time>2026-08-19T08:59:28.344Z</time>
      </trkpt>
      <trkpt lat="45.93123" lon="6.36675">
        <ele>1732</ele>
        <time>2026-08-19T08:59:29.344Z</time>
      </trkpt>
      <trkpt lat="45.93123" lon="6.36676">
        <ele>1732</ele>
        <time>2026-08-19T08:59:30.344Z</time>
      </trkpt>
      <trkpt lat="45.93122" lon="6.36678">
        <ele>1731</ele>
        <time>2026-08-19T08:59:31.344Z</time>
      </trkpt>
      <trkpt lat="45.93122" lon="6.36679">
        <ele>1731</ele>
        <time>2026-08-19T08:59:32.344Z</time>
      </trkpt>
      <trkpt lat="45.93122" lon="6.3668">
        <ele>1730</ele>
        <time>2026-08-19T08:59:33.344Z</time>
      </trkpt>
      <trkpt lat="45.93123" lon="6.36682">
        <ele>1730</ele>
        <time>2026-08-19T08:59:34.344Z</time>
      </trkpt>
      <trkpt lat="45.93123" lon="6.36683">
        <ele>1730</ele>
        <time>2026-08-19T08:59:35.344Z</time>
      </trkpt>
      <trkpt lat="45.93124" lon="6.36684">
        <ele>1730</ele>
        <time>2026-08-19T08:59:36.344Z</time>
      </trkpt>
      <trkpt lat="45.93124" lon="6.36685">
        <ele>1730</ele>
        <time>2026-08-19T08:59:37.344Z</time>
      </trkpt>
      <trkpt lat="45.93125" lon="6.36686">
        <ele>1731</ele>
        <time>2026-08-19T08:59:38.344Z</time>
      </trkpt>
      <trkpt lat="45.93125" lon="6.36687">
        <ele>1731</ele>
        <time>2026-08-19T08:59:39.344Z</time>
      </trkpt>
      <trkpt lat="45.93126" lon="6.36688">
        <ele>1731</ele>
        <time>2026-08-19T08:59:40.344Z</time>
      </trkpt>
      <trkpt lat="45.93127" lon="6.36689">
        <ele>1731</ele>
        <time>2026-08-19T08:59:41.344Z</time>
      </trkpt>
      <trkpt lat="45.93127" lon="6.3669">
        <ele>1731</ele>
        <time>2026-08-19T08:59:42.344Z</time>
      </trkpt>
      <trkpt lat="45.93127" lon="6.36691">
        <ele>1731</ele>
        <time>2026-08-19T08:59:43.344Z</time>
      </trkpt>
      <trkpt lat="45.93128" lon="6.36691">
        <ele>1731</ele>
        <time>2026-08-19T08:59:44.344Z</time>
      </trkpt>
      <trkpt lat="45.93128" lon="6.36692">
        <ele>1731</ele>
        <time>2026-08-19T08:59:45.344Z</time>
      </trkpt>
      <trkpt lat="45.93128" lon="6.36692">
        <ele>1730</ele>
        <time>2026-08-19T08:59:46.344Z</time>
      </trkpt>
      <trkpt lat="45.93128" lon="6.36693">
        <ele>1730</ele>
        <time>2026-08-19T08:59:47.344Z</time>
      </trkpt>
      <trkpt lat="45.93128" lon="6.36693">
        <ele>1730</ele>
        <time>2026-08-19T08:59:48.344Z</time>
      </trkpt>
      <trkpt lat="45.93129" lon="6.36693">
        <ele>1730</ele>
        <time>2026-08-19T08:59:49.344Z</time>
      </trkpt>
      <trkpt lat="45.93129" lon="6.36693">
        <ele>1731</ele>
        <time>2026-08-19T08:59:50.344Z</time>
      </trkpt>
      <trkpt lat="45.9313" lon="6.36693">
        <ele>1731</ele>
        <time>2026-08-19T08:59:51.344Z</time>
      </trkpt>
      <trkpt lat="45.9313" lon="6.36693">
        <ele>1732</ele>
        <time>2026-08-19T08:59:52.344Z</time>
      </trkpt>
      <trkpt lat="45.93131" lon="6.36694">
        <ele>1732</ele>
        <time>2026-08-19T08:59:53.344Z</time>
      </trkpt>
      <trkpt lat="45.93131" lon="6.36694">
        <ele>1733</ele>
        <time>2026-08-19T08:59:54.344Z</time>
      </trkpt>
      <trkpt lat="45.93132" lon="6.36694">
        <ele>1733</ele>
        <time>2026-08-19T08:59:55.344Z</time>
      </trkpt>
      <trkpt lat="45.93132" lon="6.36694">
        <ele>1734</ele>
        <time>2026-08-19T08:59:56.344Z</time>
      </trkpt>
      <trkpt lat="45.93132" lon="6.36694">
        <ele>1734</ele>
        <time>2026-08-19T08:59:57.344Z</time>
      </trkpt>
      <trkpt lat="45.93132" lon="6.36693">
        <ele>1735</ele>
        <time>2026-08-19T08:59:58.344Z</time>
      </trkpt>
      <trkpt lat="45.93132" lon="6.36692">
        <ele>1735</ele>
        <time>2026-08-19T08:59:59.344Z</time>
      </trkpt>
      <trkpt lat="45.93133" lon="6.36691">
        <ele>1736</ele>
        <time>2026-08-19T09:00:00.344Z</time>
      </trkpt>
      <trkpt lat="45.93133" lon="6.36691">
        <ele>1736</ele>
        <time>2026-08-19T09:00:01.344Z</time>
      </trkpt>
      <trkpt lat="45.93133" lon="6.36691">
        <ele>1736</ele>
        <time>2026-08-19T09:00:02.344Z</time>
      </trkpt>
      <trkpt lat="45.93133" lon="6.36691">
        <ele>1737</ele>
        <time>2026-08-19T09:00:03.344Z</time>
      </trkpt>
      <trkpt lat="45.93134" lon="6.36691">
        <ele>1737</ele>
        <time>2026-08-19T09:00:04.344Z</time>
      </trkpt>
      <trkpt lat="45.93134" lon="6.36692">
        <ele>1738</ele>
        <time>2026-08-19T09:00:05.344Z</time>
      </trkpt>
      <trkpt lat="45.93135" lon="6.36693">
        <ele>1738</ele>
        <time>2026-08-19T09:00:06.344Z</time>
      </trkpt>
      <trkpt lat="45.93135" lon="6.36693">
        <ele>1739</ele>
        <time>2026-08-19T09:00:07.344Z</time>
      </trkpt>
      <trkpt lat="45.93135" lon="6.36694">
        <ele>1739</ele>
        <time>2026-08-19T09:00:08.344Z</time>
      </trkpt>
      <trkpt lat="45.93136" lon="6.36694">
        <ele>1739</ele>
        <time>2026-08-19T09:00:09.344Z</time>
      </trkpt>
      <trkpt lat="45.93137" lon="6.36695">
        <ele>1740</ele>
        <time>2026-08-19T09:00:10.344Z</time>
      </trkpt>
      <trkpt lat="45.93137" lon="6.36696">
        <ele>1740</ele>
        <time>2026-08-19T09:00:11.344Z</time>
      </trkpt>
      <trkpt lat="45.93137" lon="6.36696">
        <ele>1740</ele>
        <time>2026-08-19T09:00:12.344Z</time>
      </trkpt>
      <trkpt lat="45.93138" lon="6.36697">
        <ele>1741</ele>
        <time>2026-08-19T09:00:13.344Z</time>
      </trkpt>
      <trkpt lat="45.93138" lon="6.36697">
        <ele>1741</ele>
        <time>2026-08-19T09:00:14.344Z</time>
      </trkpt>
      <trkpt lat="45.93138" lon="6.36697">
        <ele>1741</ele>
        <time>2026-08-19T09:00:15.344Z</time>
      </trkpt>
      <trkpt lat="45.93138" lon="6.36697">
        <ele>1741</ele>
        <time>2026-08-19T09:00:16.344Z</time>
      </trkpt>
      <trkpt lat="45.93138" lon="6.36697">
        <ele>1741</ele>
        <time>2026-08-19T09:00:17.344Z</time>
      </trkpt>
      <trkpt lat="45.93139" lon="6.36698">
        <ele>1741</ele>
        <time>2026-08-19T09:00:18.344Z</time>
      </trkpt>
      <trkpt lat="45.93139" lon="6.36699">
        <ele>1741</ele>
        <time>2026-08-19T09:00:19.344Z</time>
      </trkpt>
      <trkpt lat="45.93139" lon="6.367">
        <ele>1741</ele>
        <time>2026-08-19T09:00:20.344Z</time>
      </trkpt>
      <trkpt lat="45.93139" lon="6.36702">
        <ele>1741</ele>
        <time>2026-08-19T09:00:21.344Z</time>
      </trkpt>
      <trkpt lat="45.9314" lon="6.36703">
        <ele>1741</ele>
        <time>2026-08-19T09:00:22.344Z</time>
      </trkpt>
      <trkpt lat="45.9314" lon="6.36704">
        <ele>1741</ele>
        <time>2026-08-19T09:00:23.344Z</time>
      </trkpt>
      <trkpt lat="45.9314" lon="6.36705">
        <ele>1741</ele>
        <time>2026-08-19T09:00:24.344Z</time>
      </trkpt>
      <trkpt lat="45.93141" lon="6.36706">
        <ele>1741</ele>
        <time>2026-08-19T09:00:25.344Z</time>
      </trkpt>
      <trkpt lat="45.93141" lon="6.36707">
        <ele>1741</ele>
        <time>2026-08-19T09:00:26.345Z</time>
      </trkpt>
      <trkpt lat="45.93141" lon="6.36708">
        <ele>1741</ele>
        <time>2026-08-19T09:00:27.344Z</time>
      </trkpt>
      <trkpt lat="45.93141" lon="6.3671">
        <ele>1741</ele>
        <time>2026-08-19T09:00:28.344Z</time>
      </trkpt>
      <trkpt lat="45.93142" lon="6.36711">
        <ele>1741</ele>
        <time>2026-08-19T09:00:29.344Z</time>
      </trkpt>
      <trkpt lat="45.93143" lon="6.36713">
        <ele>1741</ele>
        <time>2026-08-19T09:00:30.344Z</time>
      </trkpt>
      <trkpt lat="45.93143" lon="6.36714">
        <ele>1741</ele>
        <time>2026-08-19T09:00:31.344Z</time>
      </trkpt>
      <trkpt lat="45.93144" lon="6.36715">
        <ele>1741</ele>
        <time>2026-08-19T09:00:32.344Z</time>
      </trkpt>
      <trkpt lat="45.93145" lon="6.36716">
        <ele>1742</ele>
        <time>2026-08-19T09:00:33.344Z</time>
      </trkpt>
      <trkpt lat="45.93146" lon="6.36717">
        <ele>1742</ele>
        <time>2026-08-19T09:00:34.344Z</time>
      </trkpt>
      <trkpt lat="45.93146" lon="6.36718">
        <ele>1742</ele>
        <time>2026-08-19T09:00:35.344Z</time>
      </trkpt>
      <trkpt lat="45.93146" lon="6.36719">
        <ele>1743</ele>
        <time>2026-08-19T09:00:36.344Z</time>
      </trkpt>
      <trkpt lat="45.93147" lon="6.3672">
        <ele>1743</ele>
        <time>2026-08-19T09:00:37.344Z</time>
      </trkpt>
      <trkpt lat="45.93147" lon="6.36721">
        <ele>1743</ele>
        <time>2026-08-19T09:00:38.344Z</time>
      </trkpt>
      <trkpt lat="45.93148" lon="6.36723">
        <ele>1743</ele>
        <time>2026-08-19T09:00:39.344Z</time>
      </trkpt>
      <trkpt lat="45.93148" lon="6.36725">
        <ele>1744</ele>
        <time>2026-08-19T09:00:40.344Z</time>
      </trkpt>
      <trkpt lat="45.93149" lon="6.36726">
        <ele>1744</ele>
        <time>2026-08-19T09:00:41.344Z</time>
      </trkpt>
      <trkpt lat="45.9315" lon="6.36727">
        <ele>1744</ele>
        <time>2026-08-19T09:00:42.344Z</time>
      </trkpt>
      <trkpt lat="45.9315" lon="6.36728">
        <ele>1744</ele>
        <time>2026-08-19T09:00:43.344Z</time>
      </trkpt>
      <trkpt lat="45.93151" lon="6.3673">
        <ele>1745</ele>
        <time>2026-08-19T09:00:44.344Z</time>
      </trkpt>
      <trkpt lat="45.93151" lon="6.36731">
        <ele>1745</ele>
        <time>2026-08-19T09:00:45.344Z</time>
      </trkpt>
      <trkpt lat="45.93152" lon="6.36732">
        <ele>1745</ele>
        <time>2026-08-19T09:00:46.344Z</time>
      </trkpt>
      <trkpt lat="45.93153" lon="6.36733">
        <ele>1745</ele>
        <time>2026-08-19T09:00:47.344Z</time>
      </trkpt>
      <trkpt lat="45.93154" lon="6.36734">
        <ele>1745</ele>
        <time>2026-08-19T09:00:48.344Z</time>
      </trkpt>
      <trkpt lat="45.93155" lon="6.36735">
        <ele>1746</ele>
        <time>2026-08-19T09:00:49.344Z</time>
      </trkpt>
      <trkpt lat="45.93156" lon="6.36736">
        <ele>1746</ele>
        <time>2026-08-19T09:00:50.344Z</time>
      </trkpt>
      <trkpt lat="45.93156" lon="6.36737">
        <ele>1746</ele>
        <time>2026-08-19T09:00:51.344Z</time>
      </trkpt>
      <trkpt lat="45.93157" lon="6.36738">
        <ele>1746</ele>
        <time>2026-08-19T09:00:52.345Z</time>
      </trkpt>
      <trkpt lat="45.93158" lon="6.36739">
        <ele>1746</ele>
        <time>2026-08-19T09:00:53.344Z</time>
      </trkpt>
      <trkpt lat="45.93159" lon="6.3674">
        <ele>1746</ele>
        <time>2026-08-19T09:00:54.344Z</time>
      </trkpt>
      <trkpt lat="45.9316" lon="6.36741">
        <ele>1746</ele>
        <time>2026-08-19T09:00:55.344Z</time>
      </trkpt>
      <trkpt lat="45.9316" lon="6.36742">
        <ele>1747</ele>
        <time>2026-08-19T09:00:56.344Z</time>
      </trkpt>
      <trkpt lat="45.93161" lon="6.36743">
        <ele>1747</ele>
        <time>2026-08-19T09:00:57.345Z</time>
      </trkpt>
      <trkpt lat="45.93162" lon="6.36743">
        <ele>1747</ele>
        <time>2026-08-19T09:00:58.344Z</time>
      </trkpt>
      <trkpt lat="45.93163" lon="6.36744">
        <ele>1747</ele>
        <time>2026-08-19T09:00:59.344Z</time>
      </trkpt>
      <trkpt lat="45.93164" lon="6.36745">
        <ele>1747</ele>
        <time>2026-08-19T09:01:00.344Z</time>
      </trkpt>
      <trkpt lat="45.93166" lon="6.36745">
        <ele>1747</ele>
        <time>2026-08-19T09:01:01.344Z</time>
      </trkpt>
      <trkpt lat="45.93167" lon="6.36745">
        <ele>1747</ele>
        <time>2026-08-19T09:01:02.344Z</time>
      </trkpt>
      <trkpt lat="45.93168" lon="6.36745">
        <ele>1747</ele>
        <time>2026-08-19T09:01:03.344Z</time>
      </trkpt>
      <trkpt lat="45.9317" lon="6.36746">
        <ele>1747</ele>
        <time>2026-08-19T09:01:04.344Z</time>
      </trkpt>
      <trkpt lat="45.93171" lon="6.36747">
        <ele>1747</ele>
        <time>2026-08-19T09:01:05.344Z</time>
      </trkpt>
      <trkpt lat="45.93172" lon="6.36747">
        <ele>1747</ele>
        <time>2026-08-19T09:01:06.344Z</time>
      </trkpt>
      <trkpt lat="45.93173" lon="6.36748">
        <ele>1747</ele>
        <time>2026-08-19T09:01:07.344Z</time>
      </trkpt>
      <trkpt lat="45.93174" lon="6.36749">
        <ele>1747</ele>
        <time>2026-08-19T09:01:08.344Z</time>
      </trkpt>
      <trkpt lat="45.93175" lon="6.3675">
        <ele>1747</ele>
        <time>2026-08-19T09:01:09.344Z</time>
      </trkpt>
      <trkpt lat="45.93176" lon="6.36751">
        <ele>1747</ele>
        <time>2026-08-19T09:01:10.344Z</time>
      </trkpt>
      <trkpt lat="45.93176" lon="6.36752">
        <ele>1747</ele>
        <time>2026-08-19T09:01:11.344Z</time>
      </trkpt>
      <trkpt lat="45.93178" lon="6.36754">
        <ele>1747</ele>
        <time>2026-08-19T09:01:12.344Z</time>
      </trkpt>
      <trkpt lat="45.93178" lon="6.36755">
        <ele>1747</ele>
        <time>2026-08-19T09:01:13.344Z</time>
      </trkpt>
      <trkpt lat="45.93179" lon="6.36757">
        <ele>1747</ele>
        <time>2026-08-19T09:01:14.344Z</time>
      </trkpt>
      <trkpt lat="45.9318" lon="6.36758">
        <ele>1747</ele>
        <time>2026-08-19T09:01:15.344Z</time>
      </trkpt>
      <trkpt lat="45.93182" lon="6.3676">
        <ele>1747</ele>
        <time>2026-08-19T09:01:16.344Z</time>
      </trkpt>
      <trkpt lat="45.93183" lon="6.36761">
        <ele>1747</ele>
        <time>2026-08-19T09:01:17.344Z</time>
      </trkpt>
      <trkpt lat="45.93184" lon="6.36762">
        <ele>1747</ele>
        <time>2026-08-19T09:01:18.344Z</time>
      </trkpt>
      <trkpt lat="45.93185" lon="6.36763">
        <ele>1747</ele>
        <time>2026-08-19T09:01:19.344Z</time>
      </trkpt>
      <trkpt lat="45.93187" lon="6.36764">
        <ele>1747</ele>
        <time>2026-08-19T09:01:20.344Z</time>
      </trkpt>
      <trkpt lat="45.93188" lon="6.36766">
        <ele>1747</ele>
        <time>2026-08-19T09:01:21.344Z</time>
      </trkpt>
      <trkpt lat="45.93189" lon="6.36767">
        <ele>1747</ele>
        <time>2026-08-19T09:01:22.344Z</time>
      </trkpt>
      <trkpt lat="45.9319" lon="6.36768">
        <ele>1748</ele>
        <time>2026-08-19T09:01:23.344Z</time>
      </trkpt>
      <trkpt lat="45.93191" lon="6.36769">
        <ele>1748</ele>
        <time>2026-08-19T09:01:24.345Z</time>
      </trkpt>
      <trkpt lat="45.93192" lon="6.3677">
        <ele>1748</ele>
        <time>2026-08-19T09:01:25.344Z</time>
      </trkpt>
      <trkpt lat="45.93193" lon="6.3677">
        <ele>1749</ele>
        <time>2026-08-19T09:01:26.344Z</time>
      </trkpt>
      <trkpt lat="45.93195" lon="6.36771">
        <ele>1749</ele>
        <time>2026-08-19T09:01:27.344Z</time>
      </trkpt>
      <trkpt lat="45.93196" lon="6.36771">
        <ele>1749</ele>
        <time>2026-08-19T09:01:28.344Z</time>
      </trkpt>
      <trkpt lat="45.93198" lon="6.36772">
        <ele>1749</ele>
        <time>2026-08-19T09:01:29.344Z</time>
      </trkpt>
      <trkpt lat="45.93199" lon="6.36772">
        <ele>1749</ele>
        <time>2026-08-19T09:01:30.344Z</time>
      </trkpt>
      <trkpt lat="45.93201" lon="6.36772">
        <ele>1749</ele>
        <time>2026-08-19T09:01:31.344Z</time>
      </trkpt>
      <trkpt lat="45.93202" lon="6.36773">
        <ele>1749</ele>
        <time>2026-08-19T09:01:32.344Z</time>
      </trkpt>
      <trkpt lat="45.93203" lon="6.36774">
        <ele>1749</ele>
        <time>2026-08-19T09:01:33.344Z</time>
      </trkpt>
      <trkpt lat="45.93204" lon="6.36775">
        <ele>1749</ele>
        <time>2026-08-19T09:01:34.344Z</time>
      </trkpt>
      <trkpt lat="45.93205" lon="6.36776">
        <ele>1749</ele>
        <time>2026-08-19T09:01:35.344Z</time>
      </trkpt>
      <trkpt lat="45.93206" lon="6.36777">
        <ele>1748</ele>
        <time>2026-08-19T09:01:36.344Z</time>
      </trkpt>
      <trkpt lat="45.93207" lon="6.36778">
        <ele>1748</ele>
        <time>2026-08-19T09:01:37.344Z</time>
      </trkpt>
      <trkpt lat="45.93208" lon="6.36779">
        <ele>1748</ele>
        <time>2026-08-19T09:01:38.344Z</time>
      </trkpt>
      <trkpt lat="45.9321" lon="6.3678">
        <ele>1748</ele>
        <time>2026-08-19T09:01:39.344Z</time>
      </trkpt>
      <trkpt lat="45.93211" lon="6.36781">
        <ele>1748</ele>
        <time>2026-08-19T09:01:40.344Z</time>
      </trkpt>
      <trkpt lat="45.93213" lon="6.36782">
        <ele>1748</ele>
        <time>2026-08-19T09:01:41.344Z</time>
      </trkpt>
      <trkpt lat="45.93214" lon="6.36784">
        <ele>1748</ele>
        <time>2026-08-19T09:01:42.344Z</time>
      </trkpt>
      <trkpt lat="45.93216" lon="6.36784">
        <ele>1747</ele>
        <time>2026-08-19T09:01:43.344Z</time>
      </trkpt>
      <trkpt lat="45.93217" lon="6.36785">
        <ele>1747</ele>
        <time>2026-08-19T09:01:44.344Z</time>
      </trkpt>
      <trkpt lat="45.93218" lon="6.36786">
        <ele>1747</ele>
        <time>2026-08-19T09:01:45.344Z</time>
      </trkpt>
      <trkpt lat="45.93219" lon="6.36787">
        <ele>1746</ele>
        <time>2026-08-19T09:01:46.344Z</time>
      </trkpt>
      <trkpt lat="45.9322" lon="6.36788">
        <ele>1746</ele>
        <time>2026-08-19T09:01:47.344Z</time>
      </trkpt>
      <trkpt lat="45.93222" lon="6.36788">
        <ele>1746</ele>
        <time>2026-08-19T09:01:48.344Z</time>
      </trkpt>
      <trkpt lat="45.93223" lon="6.36789">
        <ele>1746</ele>
        <time>2026-08-19T09:01:49.344Z</time>
      </trkpt>
      <trkpt lat="45.93225" lon="6.3679">
        <ele>1746</ele>
        <time>2026-08-19T09:01:50.344Z</time>
      </trkpt>
      <trkpt lat="45.93226" lon="6.3679">
        <ele>1746</ele>
        <time>2026-08-19T09:01:51.345Z</time>
      </trkpt>
      <trkpt lat="45.93227" lon="6.3679">
        <ele>1746</ele>
        <time>2026-08-19T09:01:52.344Z</time>
      </trkpt>
      <trkpt lat="45.93228" lon="6.3679">
        <ele>1746</ele>
        <time>2026-08-19T09:01:53.344Z</time>
      </trkpt>
      <trkpt lat="45.93229" lon="6.3679">
        <ele>1746</ele>
        <time>2026-08-19T09:01:54.344Z</time>
      </trkpt>
      <trkpt lat="45.9323" lon="6.36791">
        <ele>1746</ele>
        <time>2026-08-19T09:01:55.344Z</time>
      </trkpt>
      <trkpt lat="45.93231" lon="6.36791">
        <ele>1747</ele>
        <time>2026-08-19T09:01:56.344Z</time>
      </trkpt>
      <trkpt lat="45.93233" lon="6.36791">
        <ele>1747</ele>
        <time>2026-08-19T09:01:57.344Z</time>
      </trkpt>
      <trkpt lat="45.93234" lon="6.36792">
        <ele>1747</ele>
        <time>2026-08-19T09:01:58.344Z</time>
      </trkpt>
      <trkpt lat="45.93235" lon="6.36792">
        <ele>1747</ele>
        <time>2026-08-19T09:01:59.344Z</time>
      </trkpt>
      <trkpt lat="45.93236" lon="6.36793">
        <ele>1747</ele>
        <time>2026-08-19T09:02:00.344Z</time>
      </trkpt>
      <trkpt lat="45.93237" lon="6.36794">
        <ele>1747</ele>
        <time>2026-08-19T09:02:01.344Z</time>
      </trkpt>
      <trkpt lat="45.93238" lon="6.36795">
        <ele>1748</ele>
        <time>2026-08-19T09:02:02.344Z</time>
      </trkpt>
      <trkpt lat="45.93239" lon="6.36796">
        <ele>1748</ele>
        <time>2026-08-19T09:02:03.344Z</time>
      </trkpt>
      <trkpt lat="45.9324" lon="6.36798">
        <ele>1749</ele>
        <time>2026-08-19T09:02:04.344Z</time>
      </trkpt>
      <trkpt lat="45.9324" lon="6.368">
        <ele>1750</ele>
        <time>2026-08-19T09:02:05.344Z</time>
      </trkpt>
      <trkpt lat="45.93241" lon="6.36802">
        <ele>1750</ele>
        <time>2026-08-19T09:02:06.344Z</time>
      </trkpt>
      <trkpt lat="45.93242" lon="6.36803">
        <ele>1750</ele>
        <time>2026-08-19T09:02:07.344Z</time>
      </trkpt>
      <trkpt lat="45.93242" lon="6.36805">
        <ele>1750</ele>
        <time>2026-08-19T09:02:08.344Z</time>
      </trkpt>
      <trkpt lat="45.93242" lon="6.36806">
        <ele>1750</ele>
        <time>2026-08-19T09:02:09.344Z</time>
      </trkpt>
      <trkpt lat="45.93243" lon="6.36807">
        <ele>1750</ele>
        <time>2026-08-19T09:02:10.344Z</time>
      </trkpt>
      <trkpt lat="45.93244" lon="6.36807">
        <ele>1750</ele>
        <time>2026-08-19T09:02:11.344Z</time>
      </trkpt>
      <trkpt lat="45.93244" lon="6.36809">
        <ele>1750</ele>
        <time>2026-08-19T09:02:12.344Z</time>
      </trkpt>
      <trkpt lat="45.93245" lon="6.3681">
        <ele>1750</ele>
        <time>2026-08-19T09:02:13.344Z</time>
      </trkpt>
      <trkpt lat="45.93245" lon="6.36811">
        <ele>1750</ele>
        <time>2026-08-19T09:02:14.344Z</time>
      </trkpt>
      <trkpt lat="45.93245" lon="6.36812">
        <ele>1750</ele>
        <time>2026-08-19T09:02:15.344Z</time>
      </trkpt>
      <trkpt lat="45.93246" lon="6.36812">
        <ele>1750</ele>
        <time>2026-08-19T09:02:16.344Z</time>
      </trkpt>
      <trkpt lat="45.93246" lon="6.36813">
        <ele>1750</ele>
        <time>2026-08-19T09:02:17.344Z</time>
      </trkpt>
      <trkpt lat="45.93247" lon="6.36813">
        <ele>1750</ele>
        <time>2026-08-19T09:02:18.344Z</time>
      </trkpt>
      <trkpt lat="45.93248" lon="6.36813">
        <ele>1750</ele>
        <time>2026-08-19T09:02:19.344Z</time>
      </trkpt>
      <trkpt lat="45.93249" lon="6.36814">
        <ele>1750</ele>
        <time>2026-08-19T09:02:20.344Z</time>
      </trkpt>
      <trkpt lat="45.9325" lon="6.36815">
        <ele>1750</ele>
        <time>2026-08-19T09:02:21.344Z</time>
      </trkpt>
      <trkpt lat="45.9325" lon="6.36816">
        <ele>1750</ele>
        <time>2026-08-19T09:02:22.344Z</time>
      </trkpt>
      <trkpt lat="45.93251" lon="6.36816">
        <ele>1750</ele>
        <time>2026-08-19T09:02:23.345Z</time>
      </trkpt>
      <trkpt lat="45.93251" lon="6.36817">
        <ele>1750</ele>
        <time>2026-08-19T09:02:24.345Z</time>
      </trkpt>
      <trkpt lat="45.93252" lon="6.36818">
        <ele>1750</ele>
        <time>2026-08-19T09:02:25.344Z</time>
      </trkpt>
      <trkpt lat="45.93252" lon="6.36818">
        <ele>1749</ele>
        <time>2026-08-19T09:02:26.344Z</time>
      </trkpt>
      <trkpt lat="45.93252" lon="6.36818">
        <ele>1749</ele>
        <time>2026-08-19T09:02:27.344Z</time>
      </trkpt>
      <trkpt lat="45.93253" lon="6.36818">
        <ele>1749</ele>
        <time>2026-08-19T09:02:28.344Z</time>
      </trkpt>
      <trkpt lat="45.93254" lon="6.36818">
        <ele>1748</ele>
        <time>2026-08-19T09:02:29.344Z</time>
      </trkpt>
      <trkpt lat="45.93254" lon="6.36817">
        <ele>1748</ele>
        <time>2026-08-19T09:02:30.344Z</time>
      </trkpt>
      <trkpt lat="45.93255" lon="6.36817">
        <ele>1748</ele>
        <time>2026-08-19T09:02:31.344Z</time>
      </trkpt>
      <trkpt lat="45.93255" lon="6.36817">
        <ele>1747</ele>
        <time>2026-08-19T09:02:32.344Z</time>
      </trkpt>
      <trkpt lat="45.93256" lon="6.36817">
        <ele>1747</ele>
        <time>2026-08-19T09:02:33.344Z</time>
      </trkpt>
      <trkpt lat="45.93256" lon="6.36818">
        <ele>1747</ele>
        <time>2026-08-19T09:02:34.344Z</time>
      </trkpt>
      <trkpt lat="45.93257" lon="6.36819">
        <ele>1746</ele>
        <time>2026-08-19T09:02:35.344Z</time>
      </trkpt>
      <trkpt lat="45.93258" lon="6.36819">
        <ele>1746</ele>
        <time>2026-08-19T09:02:36.344Z</time>
      </trkpt>
      <trkpt lat="45.93258" lon="6.3682">
        <ele>1746</ele>
        <time>2026-08-19T09:02:37.344Z</time>
      </trkpt>
      <trkpt lat="45.93259" lon="6.36821">
        <ele>1745</ele>
        <time>2026-08-19T09:02:38.344Z</time>
      </trkpt>
      <trkpt lat="45.9326" lon="6.36823">
        <ele>1745</ele>
        <time>2026-08-19T09:02:39.344Z</time>
      </trkpt>
      <trkpt lat="45.9326" lon="6.36824">
        <ele>1744</ele>
        <time>2026-08-19T09:02:40.344Z</time>
      </trkpt>
      <trkpt lat="45.9326" lon="6.36826">
        <ele>1744</ele>
        <time>2026-08-19T09:02:41.344Z</time>
      </trkpt>
      <trkpt lat="45.9326" lon="6.36827">
        <ele>1744</ele>
        <time>2026-08-19T09:02:42.344Z</time>
      </trkpt>
      <trkpt lat="45.93261" lon="6.36828">
        <ele>1744</ele>
        <time>2026-08-19T09:02:43.344Z</time>
      </trkpt>
      <trkpt lat="45.93262" lon="6.3683">
        <ele>1744</ele>
        <time>2026-08-19T09:02:44.344Z</time>
      </trkpt>
      <trkpt lat="45.93262" lon="6.36831">
        <ele>1744</ele>
        <time>2026-08-19T09:02:45.344Z</time>
      </trkpt>
      <trkpt lat="45.93262" lon="6.36833">
        <ele>1743</ele>
        <time>2026-08-19T09:02:46.344Z</time>
      </trkpt>
      <trkpt lat="45.93263" lon="6.36835">
        <ele>1743</ele>
        <time>2026-08-19T09:02:47.344Z</time>
      </trkpt>
      <trkpt lat="45.93263" lon="6.36836">
        <ele>1742</ele>
        <time>2026-08-19T09:02:48.344Z</time>
      </trkpt>
      <trkpt lat="45.93263" lon="6.36838">
        <ele>1742</ele>
        <time>2026-08-19T09:02:49.344Z</time>
      </trkpt>
      <trkpt lat="45.93263" lon="6.36839">
        <ele>1742</ele>
        <time>2026-08-19T09:02:50.344Z</time>
      </trkpt>
      <trkpt lat="45.93264" lon="6.36841">
        <ele>1741</ele>
        <time>2026-08-19T09:02:51.344Z</time>
      </trkpt>
      <trkpt lat="45.93264" lon="6.36843">
        <ele>1741</ele>
        <time>2026-08-19T09:02:52.344Z</time>
      </trkpt>
      <trkpt lat="45.93264" lon="6.36844">
        <ele>1741</ele>
        <time>2026-08-19T09:02:53.344Z</time>
      </trkpt>
      <trkpt lat="45.93264" lon="6.36845">
        <ele>1741</ele>
        <time>2026-08-19T09:02:54.344Z</time>
      </trkpt>
      <trkpt lat="45.93265" lon="6.36845">
        <ele>1741</ele>
        <time>2026-08-19T09:02:55.345Z</time>
      </trkpt>
      <trkpt lat="45.93265" lon="6.36847">
        <ele>1740</ele>
        <time>2026-08-19T09:02:56.344Z</time>
      </trkpt>
      <trkpt lat="45.93265" lon="6.36848">
        <ele>1740</ele>
        <time>2026-08-19T09:02:57.344Z</time>
      </trkpt>
      <trkpt lat="45.93266" lon="6.36849">
        <ele>1739</ele>
        <time>2026-08-19T09:02:58.344Z</time>
      </trkpt>
      <trkpt lat="45.93266" lon="6.36851">
        <ele>1739</ele>
        <time>2026-08-19T09:02:59.344Z</time>
      </trkpt>
      <trkpt lat="45.93266" lon="6.36852">
        <ele>1739</ele>
        <time>2026-08-19T09:03:00.344Z</time>
      </trkpt>
      <trkpt lat="45.93267" lon="6.36853">
        <ele>1739</ele>
        <time>2026-08-19T09:03:01.344Z</time>
      </trkpt>
      <trkpt lat="45.93267" lon="6.36854">
        <ele>1739</ele>
        <time>2026-08-19T09:03:02.344Z</time>
      </trkpt>
      <trkpt lat="45.93267" lon="6.36855">
        <ele>1740</ele>
        <time>2026-08-19T09:03:03.344Z</time>
      </trkpt>
      <trkpt lat="45.93267" lon="6.36857">
        <ele>1740</ele>
        <time>2026-08-19T09:03:04.344Z</time>
      </trkpt>
      <trkpt lat="45.93267" lon="6.36858">
        <ele>1740</ele>
        <time>2026-08-19T09:03:05.344Z</time>
      </trkpt>
      <trkpt lat="45.93267" lon="6.36859">
        <ele>1740</ele>
        <time>2026-08-19T09:03:06.344Z</time>
      </trkpt>
      <trkpt lat="45.93267" lon="6.36861">
        <ele>1741</ele>
        <time>2026-08-19T09:03:07.344Z</time>
      </trkpt>
      <trkpt lat="45.93268" lon="6.36862">
        <ele>1741</ele>
        <time>2026-08-19T09:03:08.344Z</time>
      </trkpt>
      <trkpt lat="45.93268" lon="6.36863">
        <ele>1741</ele>
        <time>2026-08-19T09:03:09.344Z</time>
      </trkpt>
      <trkpt lat="45.93268" lon="6.36864">
        <ele>1740</ele>
        <time>2026-08-19T09:03:10.344Z</time>
      </trkpt>
      <trkpt lat="45.93268" lon="6.36865">
        <ele>1740</ele>
        <time>2026-08-19T09:03:11.344Z</time>
      </trkpt>
      <trkpt lat="45.93269" lon="6.36867">
        <ele>1740</ele>
        <time>2026-08-19T09:03:12.344Z</time>
      </trkpt>
      <trkpt lat="45.93269" lon="6.36868">
        <ele>1740</ele>
        <time>2026-08-19T09:03:13.345Z</time>
      </trkpt>
      <trkpt lat="45.9327" lon="6.36869">
        <ele>1740</ele>
        <time>2026-08-19T09:03:14.344Z</time>
      </trkpt>
      <trkpt lat="45.93271" lon="6.3687">
        <ele>1740</ele>
        <time>2026-08-19T09:03:15.344Z</time>
      </trkpt>
      <trkpt lat="45.93271" lon="6.3687">
        <ele>1740</ele>
        <time>2026-08-19T09:03:16.344Z</time>
      </trkpt>
      <trkpt lat="45.93272" lon="6.36871">
        <ele>1741</ele>
        <time>2026-08-19T09:03:17.344Z</time>
      </trkpt>
      <trkpt lat="45.93273" lon="6.36871">
        <ele>1741</ele>
        <time>2026-08-19T09:03:18.344Z</time>
      </trkpt>
      <trkpt lat="45.93273" lon="6.3687">
        <ele>1741</ele>
        <time>2026-08-19T09:03:19.344Z</time>
      </trkpt>
      <trkpt lat="45.93274" lon="6.36869">
        <ele>1742</ele>
        <time>2026-08-19T09:03:20.344Z</time>
      </trkpt>
      <trkpt lat="45.93274" lon="6.36869">
        <ele>1742</ele>
        <time>2026-08-19T09:03:21.344Z</time>
      </trkpt>
      <trkpt lat="45.93275" lon="6.36869">
        <ele>1742</ele>
        <time>2026-08-19T09:03:22.344Z</time>
      </trkpt>
      <trkpt lat="45.93275" lon="6.36869">
        <ele>1743</ele>
        <time>2026-08-19T09:03:23.344Z</time>
      </trkpt>
      <trkpt lat="45.93276" lon="6.36869">
        <ele>1743</ele>
        <time>2026-08-19T09:03:24.344Z</time>
      </trkpt>
      <trkpt lat="45.93277" lon="6.3687">
        <ele>1743</ele>
        <time>2026-08-19T09:03:25.345Z</time>
      </trkpt>
      <trkpt lat="45.93277" lon="6.36871">
        <ele>1743</ele>
        <time>2026-08-19T09:03:26.344Z</time>
      </trkpt>
      <trkpt lat="45.93278" lon="6.36872">
        <ele>1744</ele>
        <time>2026-08-19T09:03:27.344Z</time>
      </trkpt>
      <trkpt lat="45.93278" lon="6.36873">
        <ele>1744</ele>
        <time>2026-08-19T09:03:28.344Z</time>
      </trkpt>
      <trkpt lat="45.93278" lon="6.36873">
        <ele>1745</ele>
        <time>2026-08-19T09:03:29.344Z</time>
      </trkpt>
      <trkpt lat="45.93278" lon="6.36873">
        <ele>1745</ele>
        <time>2026-08-19T09:03:30.344Z</time>
      </trkpt>
      <trkpt lat="45.93279" lon="6.36873">
        <ele>1746</ele>
        <time>2026-08-19T09:03:31.344Z</time>
      </trkpt>
      <trkpt lat="45.93279" lon="6.36874">
        <ele>1747</ele>
        <time>2026-08-19T09:03:32.344Z</time>
      </trkpt>
      <trkpt lat="45.9328" lon="6.36874">
        <ele>1748</ele>
        <time>2026-08-19T09:03:33.344Z</time>
      </trkpt>
      <trkpt lat="45.93281" lon="6.36875">
        <ele>1748</ele>
        <time>2026-08-19T09:03:34.344Z</time>
      </trkpt>
      <trkpt lat="45.93281" lon="6.36876">
        <ele>1749</ele>
        <time>2026-08-19T09:03:35.344Z</time>
      </trkpt>
      <trkpt lat="45.93282" lon="6.36877">
        <ele>1749</ele>
        <time>2026-08-19T09:03:36.344Z</time>
      </trkpt>
      <trkpt lat="45.93282" lon="6.36877">
        <ele>1749</ele>
        <time>2026-08-19T09:03:37.344Z</time>
      </trkpt>
      <trkpt lat="45.93282" lon="6.36878">
        <ele>1749</ele>
        <time>2026-08-19T09:03:38.344Z</time>
      </trkpt>
      <trkpt lat="45.93283" lon="6.36878">
        <ele>1750</ele>
        <time>2026-08-19T09:03:39.344Z</time>
      </trkpt>
      <trkpt lat="45.93283" lon="6.36879">
        <ele>1750</ele>
        <time>2026-08-19T09:03:40.344Z</time>
      </trkpt>
      <trkpt lat="45.93283" lon="6.3688">
        <ele>1750</ele>
        <time>2026-08-19T09:03:41.344Z</time>
      </trkpt>
      <trkpt lat="45.93284" lon="6.3688">
        <ele>1751</ele>
        <time>2026-08-19T09:03:42.344Z</time>
      </trkpt>
      <trkpt lat="45.93284" lon="6.3688">
        <ele>1751</ele>
        <time>2026-08-19T09:03:43.344Z</time>
      </trkpt>
      <trkpt lat="45.93284" lon="6.3688">
        <ele>1752</ele>
        <time>2026-08-19T09:03:44.344Z</time>
      </trkpt>
      <trkpt lat="45.93284" lon="6.36879">
        <ele>1752</ele>
        <time>2026-08-19T09:03:45.344Z</time>
      </trkpt>
      <trkpt lat="45.93285" lon="6.36879">
        <ele>1752</ele>
        <time>2026-08-19T09:03:46.344Z</time>
      </trkpt>
      <trkpt lat="45.93285" lon="6.36878">
        <ele>1752</ele>
        <time>2026-08-19T09:03:47.344Z</time>
      </trkpt>
      <trkpt lat="45.93286" lon="6.36878">
        <ele>1752</ele>
        <time>2026-08-19T09:03:48.344Z</time>
      </trkpt>
      <trkpt lat="45.93287" lon="6.36878">
        <ele>1752</ele>
        <time>2026-08-19T09:03:49.344Z</time>
      </trkpt>
      <trkpt lat="45.93287" lon="6.36879">
        <ele>1752</ele>
        <time>2026-08-19T09:03:50.344Z</time>
      </trkpt>
      <trkpt lat="45.93288" lon="6.36879">
        <ele>1752</ele>
        <time>2026-08-19T09:03:51.344Z</time>
      </trkpt>
      <trkpt lat="45.93288" lon="6.3688">
        <ele>1752</ele>
        <time>2026-08-19T09:03:52.344Z</time>
      </trkpt>
      <trkpt lat="45.93289" lon="6.3688">
        <ele>1752</ele>
        <time>2026-08-19T09:03:53.344Z</time>
      </trkpt>
      <trkpt lat="45.93289" lon="6.36881">
        <ele>1753</ele>
        <time>2026-08-19T09:03:54.344Z</time>
      </trkpt>
      <trkpt lat="45.9329" lon="6.36881">
        <ele>1753</ele>
        <time>2026-08-19T09:03:55.344Z</time>
      </trkpt>
      <trkpt lat="45.9329" lon="6.36881">
        <ele>1754</ele>
        <time>2026-08-19T09:03:56.344Z</time>
      </trkpt>
      <trkpt lat="45.9329" lon="6.36881">
        <ele>1754</ele>
        <time>2026-08-19T09:03:57.345Z</time>
      </trkpt>
      <trkpt lat="45.9329" lon="6.36881">
        <ele>1754</ele>
        <time>2026-08-19T09:03:58.344Z</time>
      </trkpt>
      <trkpt lat="45.9329" lon="6.36881">
        <ele>1754</ele>
        <time>2026-08-19T09:03:59.345Z</time>
      </trkpt>
      <trkpt lat="45.9329" lon="6.36881">
        <ele>1754</ele>
        <time>2026-08-19T09:04:00.344Z</time>
      </trkpt>
      <trkpt lat="45.9329" lon="6.36881">
        <ele>1753</ele>
        <time>2026-08-19T09:04:01.344Z</time>
      </trkpt>
      <trkpt lat="45.9329" lon="6.36881">
        <ele>1753</ele>
        <time>2026-08-19T09:04:02.344Z</time>
      </trkpt>
      <trkpt lat="45.9329" lon="6.3688">
        <ele>1753</ele>
        <time>2026-08-19T09:04:03.344Z</time>
      </trkpt>
      <trkpt lat="45.93291" lon="6.36878">
        <ele>1753</ele>
        <time>2026-08-19T09:04:04.344Z</time>
      </trkpt>
      <trkpt lat="45.93291" lon="6.36877">
        <ele>1754</ele>
        <time>2026-08-19T09:04:05.344Z</time>
      </trkpt>
      <trkpt lat="45.93292" lon="6.36877">
        <ele>1754</ele>
        <time>2026-08-19T09:04:06.344Z</time>
      </trkpt>
      <trkpt lat="45.93293" lon="6.36877">
        <ele>1754</ele>
        <time>2026-08-19T09:04:07.344Z</time>
      </trkpt>
      <trkpt lat="45.93294" lon="6.36877">
        <ele>1755</ele>
        <time>2026-08-19T09:04:08.344Z</time>
      </trkpt>
      <trkpt lat="45.93295" lon="6.36877">
        <ele>1754</ele>
        <time>2026-08-19T09:04:09.344Z</time>
      </trkpt>
      <trkpt lat="45.93296" lon="6.36877">
        <ele>1754</ele>
        <time>2026-08-19T09:04:10.344Z</time>
      </trkpt>
      <trkpt lat="45.93296" lon="6.36877">
        <ele>1754</ele>
        <time>2026-08-19T09:04:11.344Z</time>
      </trkpt>
      <trkpt lat="45.93297" lon="6.36878">
        <ele>1754</ele>
        <time>2026-08-19T09:04:12.344Z</time>
      </trkpt>
      <trkpt lat="45.93298" lon="6.36878">
        <ele>1754</ele>
        <time>2026-08-19T09:04:13.344Z</time>
      </trkpt>
      <trkpt lat="45.93298" lon="6.36878">
        <ele>1754</ele>
        <time>2026-08-19T09:04:14.344Z</time>
      </trkpt>
      <trkpt lat="45.93299" lon="6.36879">
        <ele>1754</ele>
        <time>2026-08-19T09:04:15.344Z</time>
      </trkpt>
      <trkpt lat="45.933" lon="6.36879">
        <ele>1755</ele>
        <time>2026-08-19T09:04:16.344Z</time>
      </trkpt>
      <trkpt lat="45.93301" lon="6.3688">
        <ele>1755</ele>
        <time>2026-08-19T09:04:17.344Z</time>
      </trkpt>
      <trkpt lat="45.93303" lon="6.3688">
        <ele>1756</ele>
        <time>2026-08-19T09:04:18.345Z</time>
      </trkpt>
      <trkpt lat="45.93304" lon="6.36881">
        <ele>1756</ele>
        <time>2026-08-19T09:04:19.344Z</time>
      </trkpt>
      <trkpt lat="45.93305" lon="6.36882">
        <ele>1756</ele>
        <time>2026-08-19T09:04:20.344Z</time>
      </trkpt>
      <trkpt lat="45.93306" lon="6.36882">
        <ele>1757</ele>
        <time>2026-08-19T09:04:21.344Z</time>
      </trkpt>
      <trkpt lat="45.93307" lon="6.36883">
        <ele>1757</ele>
        <time>2026-08-19T09:04:22.345Z</time>
      </trkpt>
      <trkpt lat="45.93308" lon="6.36883">
        <ele>1757</ele>
        <time>2026-08-19T09:04:23.344Z</time>
      </trkpt>
      <trkpt lat="45.93309" lon="6.36884">
        <ele>1757</ele>
        <time>2026-08-19T09:04:24.344Z</time>
      </trkpt>
      <trkpt lat="45.93309" lon="6.36885">
        <ele>1757</ele>
        <time>2026-08-19T09:04:25.345Z</time>
      </trkpt>
      <trkpt lat="45.9331" lon="6.36886">
        <ele>1757</ele>
        <time>2026-08-19T09:04:26.344Z</time>
      </trkpt>
      <trkpt lat="45.93311" lon="6.36886">
        <ele>1757</ele>
        <time>2026-08-19T09:04:27.344Z</time>
      </trkpt>
      <trkpt lat="45.93311" lon="6.36886">
        <ele>1757</ele>
        <time>2026-08-19T09:04:28.344Z</time>
      </trkpt>
      <trkpt lat="45.93311" lon="6.36886">
        <ele>1757</ele>
        <time>2026-08-19T09:04:29.344Z</time>
      </trkpt>
      <trkpt lat="45.93312" lon="6.36887">
        <ele>1757</ele>
        <time>2026-08-19T09:04:30.345Z</time>
      </trkpt>
      <trkpt lat="45.93312" lon="6.36887">
        <ele>1757</ele>
        <time>2026-08-19T09:04:31.344Z</time>
      </trkpt>
      <trkpt lat="45.93313" lon="6.36888">
        <ele>1757</ele>
        <time>2026-08-19T09:04:32.344Z</time>
      </trkpt>
      <trkpt lat="45.93313" lon="6.36889">
        <ele>1757</ele>
        <time>2026-08-19T09:04:33.344Z</time>
      </trkpt>
      <trkpt lat="45.93314" lon="6.3689">
        <ele>1757</ele>
        <time>2026-08-19T09:04:34.345Z</time>
      </trkpt>
      <trkpt lat="45.93315" lon="6.36891">
        <ele>1757</ele>
        <time>2026-08-19T09:04:35.344Z</time>
      </trkpt>
      <trkpt lat="45.93316" lon="6.36893">
        <ele>1757</ele>
        <time>2026-08-19T09:04:36.344Z</time>
      </trkpt>
      <trkpt lat="45.93316" lon="6.36894">
        <ele>1757</ele>
        <time>2026-08-19T09:04:37.344Z</time>
      </trkpt>
      <trkpt lat="45.93317" lon="6.36896">
        <ele>1757</ele>
        <time>2026-08-19T09:04:38.344Z</time>
      </trkpt>
      <trkpt lat="45.93317" lon="6.36897">
        <ele>1757</ele>
        <time>2026-08-19T09:04:39.344Z</time>
      </trkpt>
      <trkpt lat="45.93318" lon="6.36898">
        <ele>1757</ele>
        <time>2026-08-19T09:04:40.344Z</time>
      </trkpt>
      <trkpt lat="45.93318" lon="6.369">
        <ele>1756</ele>
        <time>2026-08-19T09:04:41.344Z</time>
      </trkpt>
      <trkpt lat="45.93318" lon="6.36901">
        <ele>1756</ele>
        <time>2026-08-19T09:04:42.344Z</time>
      </trkpt>
      <trkpt lat="45.93318" lon="6.36902">
        <ele>1757</ele>
        <time>2026-08-19T09:04:43.344Z</time>
      </trkpt>
      <trkpt lat="45.93319" lon="6.36903">
        <ele>1757</ele>
        <time>2026-08-19T09:04:44.344Z</time>
      </trkpt>
      <trkpt lat="45.93319" lon="6.36904">
        <ele>1757</ele>
        <time>2026-08-19T09:04:45.344Z</time>
      </trkpt>
      <trkpt lat="45.9332" lon="6.36904">
        <ele>1756</ele>
        <time>2026-08-19T09:04:46.344Z</time>
      </trkpt>
      <trkpt lat="45.93321" lon="6.36905">
        <ele>1756</ele>
        <time>2026-08-19T09:04:47.344Z</time>
      </trkpt>
      <trkpt lat="45.93322" lon="6.36906">
        <ele>1756</ele>
        <time>2026-08-19T09:04:48.344Z</time>
      </trkpt>
      <trkpt lat="45.93323" lon="6.36908">
        <ele>1756</ele>
        <time>2026-08-19T09:04:49.344Z</time>
      </trkpt>
      <trkpt lat="45.93324" lon="6.36909">
        <ele>1756</ele>
        <time>2026-08-19T09:04:50.344Z</time>
      </trkpt>
      <trkpt lat="45.93325" lon="6.3691">
        <ele>1756</ele>
        <time>2026-08-19T09:04:51.344Z</time>
      </trkpt>
      <trkpt lat="45.93326" lon="6.36911">
        <ele>1756</ele>
        <time>2026-08-19T09:04:52.344Z</time>
      </trkpt>
      <trkpt lat="45.93327" lon="6.36911">
        <ele>1756</ele>
        <time>2026-08-19T09:04:53.344Z</time>
      </trkpt>
      <trkpt lat="45.93329" lon="6.36912">
        <ele>1757</ele>
        <time>2026-08-19T09:04:54.344Z</time>
      </trkpt>
      <trkpt lat="45.9333" lon="6.36912">
        <ele>1757</ele>
        <time>2026-08-19T09:04:55.344Z</time>
      </trkpt>
      <trkpt lat="45.93332" lon="6.36913">
        <ele>1757</ele>
        <time>2026-08-19T09:04:56.345Z</time>
      </trkpt>
      <trkpt lat="45.93333" lon="6.36913">
        <ele>1757</ele>
        <time>2026-08-19T09:04:57.344Z</time>
      </trkpt>
      <trkpt lat="45.93334" lon="6.36914">
        <ele>1758</ele>
        <time>2026-08-19T09:04:58.344Z</time>
      </trkpt>
      <trkpt lat="45.93334" lon="6.36914">
        <ele>1758</ele>
        <time>2026-08-19T09:04:59.344Z</time>
      </trkpt>
      <trkpt lat="45.93335" lon="6.36914">
        <ele>1758</ele>
        <time>2026-08-19T09:05:00.344Z</time>
      </trkpt>
      <trkpt lat="45.93336" lon="6.36915">
        <ele>1758</ele>
        <time>2026-08-19T09:05:01.345Z</time>
      </trkpt>
      <trkpt lat="45.93337" lon="6.36915">
        <ele>1758</ele>
        <time>2026-08-19T09:05:02.344Z</time>
      </trkpt>
      <trkpt lat="45.93338" lon="6.36916">
        <ele>1758</ele>
        <time>2026-08-19T09:05:03.344Z</time>
      </trkpt>
      <trkpt lat="45.93339" lon="6.36917">
        <ele>1758</ele>
        <time>2026-08-19T09:05:04.344Z</time>
      </trkpt>
      <trkpt lat="45.9334" lon="6.36918">
        <ele>1758</ele>
        <time>2026-08-19T09:05:05.344Z</time>
      </trkpt>
      <trkpt lat="45.9334" lon="6.36919">
        <ele>1758</ele>
        <time>2026-08-19T09:05:06.344Z</time>
      </trkpt>
      <trkpt lat="45.93341" lon="6.3692">
        <ele>1758</ele>
        <time>2026-08-19T09:05:07.344Z</time>
      </trkpt>
      <trkpt lat="45.93342" lon="6.3692">
        <ele>1758</ele>
        <time>2026-08-19T09:05:08.344Z</time>
      </trkpt>
      <trkpt lat="45.93342" lon="6.36921">
        <ele>1758</ele>
        <time>2026-08-19T09:05:09.344Z</time>
      </trkpt>
      <trkpt lat="45.93343" lon="6.36921">
        <ele>1758</ele>
        <time>2026-08-19T09:05:10.344Z</time>
      </trkpt>
      <trkpt lat="45.93345" lon="6.36922">
        <ele>1758</ele>
        <time>2026-08-19T09:05:11.344Z</time>
      </trkpt>
      <trkpt lat="45.93345" lon="6.36922">
        <ele>1758</ele>
        <time>2026-08-19T09:05:12.344Z</time>
      </trkpt>
      <trkpt lat="45.93346" lon="6.36922">
        <ele>1759</ele>
        <time>2026-08-19T09:05:13.344Z</time>
      </trkpt>
      <trkpt lat="45.93347" lon="6.36922">
        <ele>1759</ele>
        <time>2026-08-19T09:05:14.344Z</time>
      </trkpt>
      <trkpt lat="45.93348" lon="6.36923">
        <ele>1759</ele>
        <time>2026-08-19T09:05:15.344Z</time>
      </trkpt>
      <trkpt lat="45.93349" lon="6.36923">
        <ele>1759</ele>
        <time>2026-08-19T09:05:16.344Z</time>
      </trkpt>
      <trkpt lat="45.9335" lon="6.36924">
        <ele>1759</ele>
        <time>2026-08-19T09:05:17.344Z</time>
      </trkpt>
      <trkpt lat="45.9335" lon="6.36925">
        <ele>1759</ele>
        <time>2026-08-19T09:05:18.344Z</time>
      </trkpt>
      <trkpt lat="45.93351" lon="6.36926">
        <ele>1759</ele>
        <time>2026-08-19T09:05:19.344Z</time>
      </trkpt>
      <trkpt lat="45.93351" lon="6.36927">
        <ele>1759</ele>
        <time>2026-08-19T09:05:20.344Z</time>
      </trkpt>
      <trkpt lat="45.93352" lon="6.36928">
        <ele>1759</ele>
        <time>2026-08-19T09:05:21.344Z</time>
      </trkpt>
      <trkpt lat="45.93353" lon="6.36929">
        <ele>1760</ele>
        <time>2026-08-19T09:05:22.344Z</time>
      </trkpt>
      <trkpt lat="45.93354" lon="6.3693">
        <ele>1760</ele>
        <time>2026-08-19T09:05:23.344Z</time>
      </trkpt>
      <trkpt lat="45.93354" lon="6.36931">
        <ele>1760</ele>
        <time>2026-08-19T09:05:24.344Z</time>
      </trkpt>
      <trkpt lat="45.93354" lon="6.36932">
        <ele>1760</ele>
        <time>2026-08-19T09:05:25.344Z</time>
      </trkpt>
      <trkpt lat="45.93354" lon="6.36934">
        <ele>1759</ele>
        <time>2026-08-19T09:05:26.344Z</time>
      </trkpt>
      <trkpt lat="45.93354" lon="6.36935">
        <ele>1759</ele>
        <time>2026-08-19T09:05:27.344Z</time>
      </trkpt>
      <trkpt lat="45.93354" lon="6.36936">
        <ele>1759</ele>
        <time>2026-08-19T09:05:28.344Z</time>
      </trkpt>
      <trkpt lat="45.93354" lon="6.36936">
        <ele>1759</ele>
        <time>2026-08-19T09:05:29.344Z</time>
      </trkpt>
      <trkpt lat="45.93354" lon="6.36937">
        <ele>1760</ele>
        <time>2026-08-19T09:05:30.344Z</time>
      </trkpt>
      <trkpt lat="45.93355" lon="6.36939">
        <ele>1760</ele>
        <time>2026-08-19T09:05:31.344Z</time>
      </trkpt>
      <trkpt lat="45.93356" lon="6.3694">
        <ele>1760</ele>
        <time>2026-08-19T09:05:32.344Z</time>
      </trkpt>
      <trkpt lat="45.93356" lon="6.36941">
        <ele>1760</ele>
        <time>2026-08-19T09:05:33.344Z</time>
      </trkpt>
      <trkpt lat="45.93356" lon="6.36942">
        <ele>1760</ele>
        <time>2026-08-19T09:05:34.344Z</time>
      </trkpt>
      <trkpt lat="45.93357" lon="6.36943">
        <ele>1760</ele>
        <time>2026-08-19T09:05:35.344Z</time>
      </trkpt>
      <trkpt lat="45.93357" lon="6.36944">
        <ele>1760</ele>
        <time>2026-08-19T09:05:36.344Z</time>
      </trkpt>
      <trkpt lat="45.93358" lon="6.36944">
        <ele>1760</ele>
        <time>2026-08-19T09:05:37.344Z</time>
      </trkpt>
      <trkpt lat="45.93359" lon="6.36945">
        <ele>1760</ele>
        <time>2026-08-19T09:05:38.344Z</time>
      </trkpt>
      <trkpt lat="45.93359" lon="6.36945">
        <ele>1760</ele>
        <time>2026-08-19T09:05:39.344Z</time>
      </trkpt>
      <trkpt lat="45.9336" lon="6.36946">
        <ele>1760</ele>
        <time>2026-08-19T09:05:40.344Z</time>
      </trkpt>
      <trkpt lat="45.9336" lon="6.36946">
        <ele>1761</ele>
        <time>2026-08-19T09:05:41.344Z</time>
      </trkpt>
      <trkpt lat="45.9336" lon="6.36946">
        <ele>1761</ele>
        <time>2026-08-19T09:05:42.344Z</time>
      </trkpt>
      <trkpt lat="45.9336" lon="6.36946">
        <ele>1761</ele>
        <time>2026-08-19T09:05:43.344Z</time>
      </trkpt>
      <trkpt lat="45.9336" lon="6.36947">
        <ele>1760</ele>
        <time>2026-08-19T09:05:44.344Z</time>
      </trkpt>
      <trkpt lat="45.93361" lon="6.36948">
        <ele>1760</ele>
        <time>2026-08-19T09:05:45.344Z</time>
      </trkpt>
      <trkpt lat="45.93362" lon="6.36948">
        <ele>1760</ele>
        <time>2026-08-19T09:05:46.344Z</time>
      </trkpt>
      <trkpt lat="45.93363" lon="6.36949">
        <ele>1761</ele>
        <time>2026-08-19T09:05:47.344Z</time>
      </trkpt>
      <trkpt lat="45.93364" lon="6.36949">
        <ele>1761</ele>
        <time>2026-08-19T09:05:48.344Z</time>
      </trkpt>
      <trkpt lat="45.93365" lon="6.36949">
        <ele>1762</ele>
        <time>2026-08-19T09:05:49.344Z</time>
      </trkpt>
      <trkpt lat="45.93366" lon="6.36948">
        <ele>1762</ele>
        <time>2026-08-19T09:05:50.344Z</time>
      </trkpt>
      <trkpt lat="45.93368" lon="6.36949">
        <ele>1763</ele>
        <time>2026-08-19T09:05:51.344Z</time>
      </trkpt>
      <trkpt lat="45.93369" lon="6.3695">
        <ele>1763</ele>
        <time>2026-08-19T09:05:52.344Z</time>
      </trkpt>
      <trkpt lat="45.9337" lon="6.36952">
        <ele>1763</ele>
        <time>2026-08-19T09:05:53.344Z</time>
      </trkpt>
      <trkpt lat="45.93371" lon="6.36953">
        <ele>1763</ele>
        <time>2026-08-19T09:05:54.344Z</time>
      </trkpt>
      <trkpt lat="45.93372" lon="6.36955">
        <ele>1763</ele>
        <time>2026-08-19T09:05:55.344Z</time>
      </trkpt>
      <trkpt lat="45.93372" lon="6.36957">
        <ele>1763</ele>
        <time>2026-08-19T09:05:56.344Z</time>
      </trkpt>
      <trkpt lat="45.93373" lon="6.36958">
        <ele>1763</ele>
        <time>2026-08-19T09:05:57.344Z</time>
      </trkpt>
      <trkpt lat="45.93373" lon="6.3696">
        <ele>1763</ele>
        <time>2026-08-19T09:05:58.344Z</time>
      </trkpt>
      <trkpt lat="45.93374" lon="6.36961">
        <ele>1763</ele>
        <time>2026-08-19T09:05:59.344Z</time>
      </trkpt>
      <trkpt lat="45.93374" lon="6.36963">
        <ele>1763</ele>
        <time>2026-08-19T09:06:00.344Z</time>
      </trkpt>
      <trkpt lat="45.93374" lon="6.36965">
        <ele>1763</ele>
        <time>2026-08-19T09:06:01.344Z</time>
      </trkpt>
      <trkpt lat="45.93375" lon="6.36967">
        <ele>1763</ele>
        <time>2026-08-19T09:06:02.344Z</time>
      </trkpt>
      <trkpt lat="45.93375" lon="6.36969">
        <ele>1763</ele>
        <time>2026-08-19T09:06:03.344Z</time>
      </trkpt>
      <trkpt lat="45.93375" lon="6.3697">
        <ele>1763</ele>
        <time>2026-08-19T09:06:04.344Z</time>
      </trkpt>
      <trkpt lat="45.93375" lon="6.36971">
        <ele>1763</ele>
        <time>2026-08-19T09:06:05.344Z</time>
      </trkpt>
      <trkpt lat="45.93376" lon="6.36972">
        <ele>1763</ele>
        <time>2026-08-19T09:06:06.344Z</time>
      </trkpt>
      <trkpt lat="45.93376" lon="6.36974">
        <ele>1764</ele>
        <time>2026-08-19T09:06:07.344Z</time>
      </trkpt>
      <trkpt lat="45.93377" lon="6.36975">
        <ele>1764</ele>
        <time>2026-08-19T09:06:08.344Z</time>
      </trkpt>
      <trkpt lat="45.93378" lon="6.36976">
        <ele>1764</ele>
        <time>2026-08-19T09:06:09.344Z</time>
      </trkpt>
      <trkpt lat="45.93379" lon="6.36977">
        <ele>1764</ele>
        <time>2026-08-19T09:06:10.344Z</time>
      </trkpt>
      <trkpt lat="45.9338" lon="6.36978">
        <ele>1765</ele>
        <time>2026-08-19T09:06:11.344Z</time>
      </trkpt>
      <trkpt lat="45.9338" lon="6.36979">
        <ele>1765</ele>
        <time>2026-08-19T09:06:12.344Z</time>
      </trkpt>
      <trkpt lat="45.93381" lon="6.3698">
        <ele>1765</ele>
        <time>2026-08-19T09:06:13.344Z</time>
      </trkpt>
      <trkpt lat="45.93381" lon="6.36981">
        <ele>1765</ele>
        <time>2026-08-19T09:06:14.344Z</time>
      </trkpt>
      <trkpt lat="45.93382" lon="6.36982">
        <ele>1765</ele>
        <time>2026-08-19T09:06:15.344Z</time>
      </trkpt>
      <trkpt lat="45.93382" lon="6.36983">
        <ele>1765</ele>
        <time>2026-08-19T09:06:16.344Z</time>
      </trkpt>
      <trkpt lat="45.93383" lon="6.36983">
        <ele>1765</ele>
        <time>2026-08-19T09:06:17.344Z</time>
      </trkpt>
      <trkpt lat="45.93384" lon="6.36983">
        <ele>1765</ele>
        <time>2026-08-19T09:06:18.344Z</time>
      </trkpt>
      <trkpt lat="45.93385" lon="6.36983">
        <ele>1765</ele>
        <time>2026-08-19T09:06:19.344Z</time>
      </trkpt>
      <trkpt lat="45.93386" lon="6.36984">
        <ele>1765</ele>
        <time>2026-08-19T09:06:20.344Z</time>
      </trkpt>
      <trkpt lat="45.93387" lon="6.36984">
        <ele>1764</ele>
        <time>2026-08-19T09:06:21.344Z</time>
      </trkpt>
      <trkpt lat="45.93388" lon="6.36985">
        <ele>1765</ele>
        <time>2026-08-19T09:06:22.344Z</time>
      </trkpt>
      <trkpt lat="45.93389" lon="6.36985">
        <ele>1765</ele>
        <time>2026-08-19T09:06:23.344Z</time>
      </trkpt>
      <trkpt lat="45.93391" lon="6.36985">
        <ele>1765</ele>
        <time>2026-08-19T09:06:24.344Z</time>
      </trkpt>
      <trkpt lat="45.93392" lon="6.36985">
        <ele>1765</ele>
        <time>2026-08-19T09:06:25.344Z</time>
      </trkpt>
      <trkpt lat="45.93393" lon="6.36985">
        <ele>1765</ele>
        <time>2026-08-19T09:06:26.344Z</time>
      </trkpt>
      <trkpt lat="45.93394" lon="6.36985">
        <ele>1765</ele>
        <time>2026-08-19T09:06:27.344Z</time>
      </trkpt>
      <trkpt lat="45.93395" lon="6.36985">
        <ele>1765</ele>
        <time>2026-08-19T09:06:28.344Z</time>
      </trkpt>
      <trkpt lat="45.93396" lon="6.36985">
        <ele>1765</ele>
        <time>2026-08-19T09:06:29.344Z</time>
      </trkpt>
      <trkpt lat="45.93398" lon="6.36985">
        <ele>1766</ele>
        <time>2026-08-19T09:06:30.344Z</time>
      </trkpt>
      <trkpt lat="45.93399" lon="6.36985">
        <ele>1766</ele>
        <time>2026-08-19T09:06:31.344Z</time>
      </trkpt>
      <trkpt lat="45.934" lon="6.36986">
        <ele>1766</ele>
        <time>2026-08-19T09:06:32.344Z</time>
      </trkpt>
      <trkpt lat="45.934" lon="6.36986">
        <ele>1766</ele>
        <time>2026-08-19T09:06:33.344Z</time>
      </trkpt>
      <trkpt lat="45.93401" lon="6.36986">
        <ele>1765</ele>
        <time>2026-08-19T09:06:34.345Z</time>
      </trkpt>
      <trkpt lat="45.93402" lon="6.36986">
        <ele>1765</ele>
        <time>2026-08-19T09:06:35.344Z</time>
      </trkpt>
      <trkpt lat="45.93402" lon="6.36986">
        <ele>1765</ele>
        <time>2026-08-19T09:06:36.344Z</time>
      </trkpt>
      <trkpt lat="45.93402" lon="6.36986">
        <ele>1765</ele>
        <time>2026-08-19T09:06:37.344Z</time>
      </trkpt>
      <trkpt lat="45.93403" lon="6.36985">
        <ele>1765</ele>
        <time>2026-08-19T09:06:38.345Z</time>
      </trkpt>
      <trkpt lat="45.93403" lon="6.36985">
        <ele>1765</ele>
        <time>2026-08-19T09:06:39.344Z</time>
      </trkpt>
      <trkpt lat="45.93404" lon="6.36985">
        <ele>1765</ele>
        <time>2026-08-19T09:06:40.344Z</time>
      </trkpt>
      <trkpt lat="45.93404" lon="6.36985">
        <ele>1765</ele>
        <time>2026-08-19T09:06:41.344Z</time>
      </trkpt>
      <trkpt lat="45.93405" lon="6.36985">
        <ele>1766</ele>
        <time>2026-08-19T09:06:42.344Z</time>
      </trkpt>
      <trkpt lat="45.93405" lon="6.36985">
        <ele>1766</ele>
        <time>2026-08-19T09:06:43.344Z</time>
      </trkpt>
      <trkpt lat="45.93405" lon="6.36985">
        <ele>1766</ele>
        <time>2026-08-19T09:06:44.344Z</time>
      </trkpt>
      <trkpt lat="45.93405" lon="6.36985">
        <ele>1766</ele>
        <time>2026-08-19T09:06:45.344Z</time>
      </trkpt>
      <trkpt lat="45.93405" lon="6.36985">
        <ele>1766</ele>
        <time>2026-08-19T09:06:46.344Z</time>
      </trkpt>
      <trkpt lat="45.93405" lon="6.36985">
        <ele>1766</ele>
        <time>2026-08-19T09:06:47.344Z</time>
      </trkpt>
      <trkpt lat="45.93406" lon="6.36985">
        <ele>1766</ele>
        <time>2026-08-19T09:06:48.344Z</time>
      </trkpt>
      <trkpt lat="45.93406" lon="6.36985">
        <ele>1766</ele>
        <time>2026-08-19T09:06:49.344Z</time>
      </trkpt>
      <trkpt lat="45.93406" lon="6.36985">
        <ele>1766</ele>
        <time>2026-08-19T09:06:50.344Z</time>
      </trkpt>
      <trkpt lat="45.93406" lon="6.36985">
        <ele>1766</ele>
        <time>2026-08-19T09:06:51.344Z</time>
      </trkpt>
      <trkpt lat="45.93406" lon="6.36985">
        <ele>1766</ele>
        <time>2026-08-19T09:06:52.344Z</time>
      </trkpt>
      <trkpt lat="45.93406" lon="6.36985">
        <ele>1766</ele>
        <time>2026-08-19T09:06:53.344Z</time>
      </trkpt>
      <trkpt lat="45.93406" lon="6.36985">
        <ele>1766</ele>
        <time>2026-08-19T09:06:54.344Z</time>
      </trkpt>
      <trkpt lat="45.93406" lon="6.36985">
        <ele>1766</ele>
        <time>2026-08-19T09:06:55.344Z</time>
      </trkpt>
      <trkpt lat="45.93406" lon="6.36985">
        <ele>1766</ele>
        <time>2026-08-19T09:06:56.344Z</time>
      </trkpt>
      <trkpt lat="45.93406" lon="6.36985">
        <ele>1766</ele>
        <time>2026-08-19T09:06:57.344Z</time>
      </trkpt>
      <trkpt lat="45.93406" lon="6.36985">
        <ele>1766</ele>
        <time>2026-08-19T09:06:58.344Z</time>
      </trkpt>
      <trkpt lat="45.93406" lon="6.36984">
        <ele>1766</ele>
        <time>2026-08-19T09:06:59.344Z</time>
      </trkpt>
      <trkpt lat="45.93406" lon="6.36983">
        <ele>1766</ele>
        <time>2026-08-19T09:07:00.344Z</time>
      </trkpt>
      <trkpt lat="45.93406" lon="6.36982">
        <ele>1766</ele>
        <time>2026-08-19T09:07:01.344Z</time>
      </trkpt>
      <trkpt lat="45.93406" lon="6.36981">
        <ele>1766</ele>
        <time>2026-08-19T09:07:02.344Z</time>
      </trkpt>
      <trkpt lat="45.93406" lon="6.3698">
        <ele>1766</ele>
        <time>2026-08-19T09:07:03.344Z</time>
      </trkpt>
      <trkpt lat="45.93405" lon="6.36979">
        <ele>1766</ele>
        <time>2026-08-19T09:07:04.344Z</time>
      </trkpt>
      <trkpt lat="45.93406" lon="6.36979">
        <ele>1766</ele>
        <time>2026-08-19T09:07:05.344Z</time>
      </trkpt>
      <trkpt lat="45.93406" lon="6.36978">
        <ele>1766</ele>
        <time>2026-08-19T09:07:06.345Z</time>
      </trkpt>
      <trkpt lat="45.93407" lon="6.36978">
        <ele>1766</ele>
        <time>2026-08-19T09:07:07.344Z</time>
      </trkpt>
      <trkpt lat="45.93407" lon="6.36978">
        <ele>1766</ele>
        <time>2026-08-19T09:07:08.344Z</time>
      </trkpt>
      <trkpt lat="45.93408" lon="6.36977">
        <ele>1767</ele>
        <time>2026-08-19T09:07:09.344Z</time>
      </trkpt>
      <trkpt lat="45.93408" lon="6.36977">
        <ele>1767</ele>
        <time>2026-08-19T09:07:10.344Z</time>
      </trkpt>
      <trkpt lat="45.93409" lon="6.36976">
        <ele>1768</ele>
        <time>2026-08-19T09:07:11.344Z</time>
      </trkpt>
      <trkpt lat="45.9341" lon="6.36975">
        <ele>1768</ele>
        <time>2026-08-19T09:07:12.344Z</time>
      </trkpt>
      <trkpt lat="45.9341" lon="6.36975">
        <ele>1768</ele>
        <time>2026-08-19T09:07:13.344Z</time>
      </trkpt>
      <trkpt lat="45.93411" lon="6.36974">
        <ele>1768</ele>
        <time>2026-08-19T09:07:14.344Z</time>
      </trkpt>
      <trkpt lat="45.93412" lon="6.36974">
        <ele>1768</ele>
        <time>2026-08-19T09:07:15.344Z</time>
      </trkpt>
      <trkpt lat="45.93413" lon="6.36973">
        <ele>1769</ele>
        <time>2026-08-19T09:07:16.345Z</time>
      </trkpt>
      <trkpt lat="45.93415" lon="6.36973">
        <ele>1769</ele>
        <time>2026-08-19T09:07:17.344Z</time>
      </trkpt>
      <trkpt lat="45.93416" lon="6.36973">
        <ele>1769</ele>
        <time>2026-08-19T09:07:18.344Z</time>
      </trkpt>
      <trkpt lat="45.93417" lon="6.36974">
        <ele>1769</ele>
        <time>2026-08-19T09:07:19.344Z</time>
      </trkpt>
      <trkpt lat="45.93418" lon="6.36975">
        <ele>1770</ele>
        <time>2026-08-19T09:07:20.344Z</time>
      </trkpt>
      <trkpt lat="45.93419" lon="6.36976">
        <ele>1770</ele>
        <time>2026-08-19T09:07:21.344Z</time>
      </trkpt>
      <trkpt lat="45.9342" lon="6.36977">
        <ele>1770</ele>
        <time>2026-08-19T09:07:22.344Z</time>
      </trkpt>
      <trkpt lat="45.93421" lon="6.36978">
        <ele>1770</ele>
        <time>2026-08-19T09:07:23.344Z</time>
      </trkpt>
      <trkpt lat="45.93422" lon="6.3698">
        <ele>1770</ele>
        <time>2026-08-19T09:07:24.344Z</time>
      </trkpt>
      <trkpt lat="45.93422" lon="6.3698">
        <ele>1770</ele>
        <time>2026-08-19T09:07:25.344Z</time>
      </trkpt>
      <trkpt lat="45.93424" lon="6.3698">
        <ele>1770</ele>
        <time>2026-08-19T09:07:26.344Z</time>
      </trkpt>
      <trkpt lat="45.93425" lon="6.3698">
        <ele>1770</ele>
        <time>2026-08-19T09:07:27.344Z</time>
      </trkpt>
      <trkpt lat="45.93426" lon="6.36981">
        <ele>1771</ele>
        <time>2026-08-19T09:07:28.344Z</time>
      </trkpt>
      <trkpt lat="45.93427" lon="6.36982">
        <ele>1770</ele>
        <time>2026-08-19T09:07:29.344Z</time>
      </trkpt>
      <trkpt lat="45.93428" lon="6.36982">
        <ele>1770</ele>
        <time>2026-08-19T09:07:30.344Z</time>
      </trkpt>
      <trkpt lat="45.93429" lon="6.36983">
        <ele>1770</ele>
        <time>2026-08-19T09:07:31.344Z</time>
      </trkpt>
      <trkpt lat="45.9343" lon="6.36984">
        <ele>1770</ele>
        <time>2026-08-19T09:07:32.345Z</time>
      </trkpt>
      <trkpt lat="45.93431" lon="6.36985">
        <ele>1769</ele>
        <time>2026-08-19T09:07:33.344Z</time>
      </trkpt>
      <trkpt lat="45.93432" lon="6.36986">
        <ele>1769</ele>
        <time>2026-08-19T09:07:34.344Z</time>
      </trkpt>
      <trkpt lat="45.93433" lon="6.36987">
        <ele>1769</ele>
        <time>2026-08-19T09:07:35.344Z</time>
      </trkpt>
      <trkpt lat="45.93434" lon="6.36988">
        <ele>1768</ele>
        <time>2026-08-19T09:07:36.344Z</time>
      </trkpt>
      <trkpt lat="45.93435" lon="6.3699">
        <ele>1768</ele>
        <time>2026-08-19T09:07:37.344Z</time>
      </trkpt>
      <trkpt lat="45.93435" lon="6.36992">
        <ele>1767</ele>
        <time>2026-08-19T09:07:38.345Z</time>
      </trkpt>
      <trkpt lat="45.93436" lon="6.36993">
        <ele>1767</ele>
        <time>2026-08-19T09:07:39.344Z</time>
      </trkpt>
      <trkpt lat="45.93436" lon="6.36995">
        <ele>1767</ele>
        <time>2026-08-19T09:07:40.344Z</time>
      </trkpt>
      <trkpt lat="45.93437" lon="6.36996">
        <ele>1766</ele>
        <time>2026-08-19T09:07:41.344Z</time>
      </trkpt>
      <trkpt lat="45.93437" lon="6.36997">
        <ele>1766</ele>
        <time>2026-08-19T09:07:42.344Z</time>
      </trkpt>
      <trkpt lat="45.93438" lon="6.36998">
        <ele>1766</ele>
        <time>2026-08-19T09:07:43.344Z</time>
      </trkpt>
      <trkpt lat="45.93438" lon="6.36998">
        <ele>1766</ele>
        <time>2026-08-19T09:07:44.344Z</time>
      </trkpt>
      <trkpt lat="45.93437" lon="6.36999">
        <ele>1766</ele>
        <time>2026-08-19T09:07:45.344Z</time>
      </trkpt>
      <trkpt lat="45.93437" lon="6.36999">
        <ele>1766</ele>
        <time>2026-08-19T09:07:46.344Z</time>
      </trkpt>
      <trkpt lat="45.93437" lon="6.36999">
        <ele>1766</ele>
        <time>2026-08-19T09:07:47.344Z</time>
      </trkpt>
      <trkpt lat="45.93437" lon="6.36999">
        <ele>1766</ele>
        <time>2026-08-19T09:07:48.344Z</time>
      </trkpt>
      <trkpt lat="45.93438" lon="6.37">
        <ele>1766</ele>
        <time>2026-08-19T09:07:49.344Z</time>
      </trkpt>
      <trkpt lat="45.93438" lon="6.37001">
        <ele>1767</ele>
        <time>2026-08-19T09:07:50.344Z</time>
      </trkpt>
      <trkpt lat="45.93438" lon="6.37003">
        <ele>1767</ele>
        <time>2026-08-19T09:07:51.344Z</time>
      </trkpt>
      <trkpt lat="45.93439" lon="6.37004">
        <ele>1766</ele>
        <time>2026-08-19T09:07:52.344Z</time>
      </trkpt>
      <trkpt lat="45.93439" lon="6.37005">
        <ele>1766</ele>
        <time>2026-08-19T09:07:53.345Z</time>
      </trkpt>
      <trkpt lat="45.9344" lon="6.37007">
        <ele>1766</ele>
        <time>2026-08-19T09:07:54.344Z</time>
      </trkpt>
      <trkpt lat="45.9344" lon="6.37008">
        <ele>1766</ele>
        <time>2026-08-19T09:07:55.344Z</time>
      </trkpt>
      <trkpt lat="45.9344" lon="6.37009">
        <ele>1766</ele>
        <time>2026-08-19T09:07:56.344Z</time>
      </trkpt>
      <trkpt lat="45.93441" lon="6.37009">
        <ele>1766</ele>
        <time>2026-08-19T09:07:57.344Z</time>
      </trkpt>
      <trkpt lat="45.93441" lon="6.3701">
        <ele>1765</ele>
        <time>2026-08-19T09:07:58.344Z</time>
      </trkpt>
      <trkpt lat="45.93441" lon="6.37011">
        <ele>1765</ele>
        <time>2026-08-19T09:07:59.344Z</time>
      </trkpt>
      <trkpt lat="45.93442" lon="6.37013">
        <ele>1765</ele>
        <time>2026-08-19T09:08:00.344Z</time>
      </trkpt>
      <trkpt lat="45.93443" lon="6.37015">
        <ele>1765</ele>
        <time>2026-08-19T09:08:01.344Z</time>
      </trkpt>
      <trkpt lat="45.93443" lon="6.37017">
        <ele>1764</ele>
        <time>2026-08-19T09:08:02.344Z</time>
      </trkpt>
      <trkpt lat="45.93444" lon="6.37019">
        <ele>1764</ele>
        <time>2026-08-19T09:08:03.344Z</time>
      </trkpt>
      <trkpt lat="45.93445" lon="6.37021">
        <ele>1764</ele>
        <time>2026-08-19T09:08:04.345Z</time>
      </trkpt>
      <trkpt lat="45.93445" lon="6.37023">
        <ele>1764</ele>
        <time>2026-08-19T09:08:05.344Z</time>
      </trkpt>
      <trkpt lat="45.93445" lon="6.37024">
        <ele>1764</ele>
        <time>2026-08-19T09:08:06.344Z</time>
      </trkpt>
      <trkpt lat="45.93446" lon="6.37025">
        <ele>1763</ele>
        <time>2026-08-19T09:08:07.344Z</time>
      </trkpt>
      <trkpt lat="45.93446" lon="6.37027">
        <ele>1763</ele>
        <time>2026-08-19T09:08:08.344Z</time>
      </trkpt>
      <trkpt lat="45.93447" lon="6.37029">
        <ele>1763</ele>
        <time>2026-08-19T09:08:09.344Z</time>
      </trkpt>
      <trkpt lat="45.93448" lon="6.37031">
        <ele>1762</ele>
        <time>2026-08-19T09:08:10.344Z</time>
      </trkpt>
      <trkpt lat="45.93449" lon="6.37032">
        <ele>1762</ele>
        <time>2026-08-19T09:08:11.344Z</time>
      </trkpt>
      <trkpt lat="45.93449" lon="6.37033">
        <ele>1762</ele>
        <time>2026-08-19T09:08:12.344Z</time>
      </trkpt>
      <trkpt lat="45.9345" lon="6.37035">
        <ele>1762</ele>
        <time>2026-08-19T09:08:13.344Z</time>
      </trkpt>
      <trkpt lat="45.93451" lon="6.37036">
        <ele>1763</ele>
        <time>2026-08-19T09:08:14.344Z</time>
      </trkpt>
      <trkpt lat="45.93451" lon="6.37037">
        <ele>1763</ele>
        <time>2026-08-19T09:08:15.344Z</time>
      </trkpt>
      <trkpt lat="45.93452" lon="6.37038">
        <ele>1763</ele>
        <time>2026-08-19T09:08:16.344Z</time>
      </trkpt>
      <trkpt lat="45.93452" lon="6.37039">
        <ele>1763</ele>
        <time>2026-08-19T09:08:17.344Z</time>
      </trkpt>
      <trkpt lat="45.93453" lon="6.3704">
        <ele>1763</ele>
        <time>2026-08-19T09:08:18.344Z</time>
      </trkpt>
      <trkpt lat="45.93454" lon="6.37041">
        <ele>1763</ele>
        <time>2026-08-19T09:08:19.344Z</time>
      </trkpt>
      <trkpt lat="45.93455" lon="6.37042">
        <ele>1762</ele>
        <time>2026-08-19T09:08:20.344Z</time>
      </trkpt>
      <trkpt lat="45.93455" lon="6.37044">
        <ele>1762</ele>
        <time>2026-08-19T09:08:21.344Z</time>
      </trkpt>
      <trkpt lat="45.93456" lon="6.37045">
        <ele>1762</ele>
        <time>2026-08-19T09:08:22.344Z</time>
      </trkpt>
      <trkpt lat="45.93456" lon="6.37046">
        <ele>1762</ele>
        <time>2026-08-19T09:08:23.344Z</time>
      </trkpt>
      <trkpt lat="45.93456" lon="6.37048">
        <ele>1761</ele>
        <time>2026-08-19T09:08:24.344Z</time>
      </trkpt>
      <trkpt lat="45.93456" lon="6.37049">
        <ele>1761</ele>
        <time>2026-08-19T09:08:25.344Z</time>
      </trkpt>
      <trkpt lat="45.93456" lon="6.3705">
        <ele>1761</ele>
        <time>2026-08-19T09:08:26.344Z</time>
      </trkpt>
      <trkpt lat="45.93457" lon="6.3705">
        <ele>1761</ele>
        <time>2026-08-19T09:08:27.344Z</time>
      </trkpt>
      <trkpt lat="45.93457" lon="6.37051">
        <ele>1760</ele>
        <time>2026-08-19T09:08:28.344Z</time>
      </trkpt>
      <trkpt lat="45.93457" lon="6.37051">
        <ele>1760</ele>
        <time>2026-08-19T09:08:29.344Z</time>
      </trkpt>
      <trkpt lat="45.93458" lon="6.37052">
        <ele>1760</ele>
        <time>2026-08-19T09:08:30.344Z</time>
      </trkpt>
      <trkpt lat="45.93458" lon="6.37053">
        <ele>1759</ele>
        <time>2026-08-19T09:08:31.344Z</time>
      </trkpt>
      <trkpt lat="45.93458" lon="6.37053">
        <ele>1759</ele>
        <time>2026-08-19T09:08:32.344Z</time>
      </trkpt>
      <trkpt lat="45.93458" lon="6.37054">
        <ele>1759</ele>
        <time>2026-08-19T09:08:33.344Z</time>
      </trkpt>
      <trkpt lat="45.93458" lon="6.37054">
        <ele>1759</ele>
        <time>2026-08-19T09:08:34.344Z</time>
      </trkpt>
      <trkpt lat="45.93458" lon="6.37054">
        <ele>1758</ele>
        <time>2026-08-19T09:08:35.344Z</time>
      </trkpt>
      <trkpt lat="45.93459" lon="6.37054">
        <ele>1758</ele>
        <time>2026-08-19T09:08:36.344Z</time>
      </trkpt>
      <trkpt lat="45.93459" lon="6.37054">
        <ele>1758</ele>
        <time>2026-08-19T09:08:37.344Z</time>
      </trkpt>
      <trkpt lat="45.93459" lon="6.37055">
        <ele>1758</ele>
        <time>2026-08-19T09:08:38.344Z</time>
      </trkpt>
      <trkpt lat="45.93459" lon="6.37056">
        <ele>1758</ele>
        <time>2026-08-19T09:08:39.344Z</time>
      </trkpt>
      <trkpt lat="45.9346" lon="6.37056">
        <ele>1758</ele>
        <time>2026-08-19T09:08:40.344Z</time>
      </trkpt>
      <trkpt lat="45.9346" lon="6.37057">
        <ele>1758</ele>
        <time>2026-08-19T09:08:41.344Z</time>
      </trkpt>
      <trkpt lat="45.9346" lon="6.37058">
        <ele>1758</ele>
        <time>2026-08-19T09:08:42.344Z</time>
      </trkpt>
      <trkpt lat="45.9346" lon="6.37058">
        <ele>1758</ele>
        <time>2026-08-19T09:08:43.344Z</time>
      </trkpt>
      <trkpt lat="45.93461" lon="6.37059">
        <ele>1758</ele>
        <time>2026-08-19T09:08:44.344Z</time>
      </trkpt>
      <trkpt lat="45.93461" lon="6.3706">
        <ele>1757</ele>
        <time>2026-08-19T09:08:45.344Z</time>
      </trkpt>
      <trkpt lat="45.93461" lon="6.37061">
        <ele>1757</ele>
        <time>2026-08-19T09:08:46.344Z</time>
      </trkpt>
      <trkpt lat="45.93462" lon="6.37062">
        <ele>1757</ele>
        <time>2026-08-19T09:08:47.344Z</time>
      </trkpt>
      <trkpt lat="45.93462" lon="6.37064">
        <ele>1757</ele>
        <time>2026-08-19T09:08:48.344Z</time>
      </trkpt>
      <trkpt lat="45.93462" lon="6.37065">
        <ele>1757</ele>
        <time>2026-08-19T09:08:49.344Z</time>
      </trkpt>
      <trkpt lat="45.93463" lon="6.37065">
        <ele>1757</ele>
        <time>2026-08-19T09:08:50.344Z</time>
      </trkpt>
      <trkpt lat="45.93463" lon="6.37066">
        <ele>1757</ele>
        <time>2026-08-19T09:08:51.344Z</time>
      </trkpt>
      <trkpt lat="45.93463" lon="6.37066">
        <ele>1757</ele>
        <time>2026-08-19T09:08:52.344Z</time>
      </trkpt>
      <trkpt lat="45.93463" lon="6.37066">
        <ele>1756</ele>
        <time>2026-08-19T09:08:53.344Z</time>
      </trkpt>
      <trkpt lat="45.93463" lon="6.37066">
        <ele>1756</ele>
        <time>2026-08-19T09:08:54.344Z</time>
      </trkpt>
      <trkpt lat="45.93463" lon="6.37066">
        <ele>1756</ele>
        <time>2026-08-19T09:08:55.344Z</time>
      </trkpt>
      <trkpt lat="45.93463" lon="6.37066">
        <ele>1756</ele>
        <time>2026-08-19T09:08:56.344Z</time>
      </trkpt>
      <trkpt lat="45.93464" lon="6.37065">
        <ele>1756</ele>
        <time>2026-08-19T09:08:57.344Z</time>
      </trkpt>
      <trkpt lat="45.93464" lon="6.37066">
        <ele>1756</ele>
        <time>2026-08-19T09:08:58.344Z</time>
      </trkpt>
      <trkpt lat="45.93464" lon="6.37066">
        <ele>1756</ele>
        <time>2026-08-19T09:08:59.344Z</time>
      </trkpt>
      <trkpt lat="45.93464" lon="6.37066">
        <ele>1756</ele>
        <time>2026-08-19T09:09:00.344Z</time>
      </trkpt>
      <trkpt lat="45.93465" lon="6.37066">
        <ele>1756</ele>
        <time>2026-08-19T09:09:01.344Z</time>
      </trkpt>
      <trkpt lat="45.93465" lon="6.37066">
        <ele>1755</ele>
        <time>2026-08-19T09:09:02.345Z</time>
      </trkpt>
      <trkpt lat="45.93466" lon="6.37067">
        <ele>1755</ele>
        <time>2026-08-19T09:09:03.344Z</time>
      </trkpt>
      <trkpt lat="45.93467" lon="6.37067">
        <ele>1755</ele>
        <time>2026-08-19T09:09:04.344Z</time>
      </trkpt>
      <trkpt lat="45.93467" lon="6.37068">
        <ele>1754</ele>
        <time>2026-08-19T09:09:05.344Z</time>
      </trkpt>
      <trkpt lat="45.93467" lon="6.37069">
        <ele>1754</ele>
        <time>2026-08-19T09:09:06.344Z</time>
      </trkpt>
      <trkpt lat="45.93467" lon="6.3707">
        <ele>1754</ele>
        <time>2026-08-19T09:09:07.344Z</time>
      </trkpt>
      <trkpt lat="45.93467" lon="6.37071">
        <ele>1753</ele>
        <time>2026-08-19T09:09:08.344Z</time>
      </trkpt>
      <trkpt lat="45.93467" lon="6.37072">
        <ele>1753</ele>
        <time>2026-08-19T09:09:09.344Z</time>
      </trkpt>
      <trkpt lat="45.93467" lon="6.37074">
        <ele>1753</ele>
        <time>2026-08-19T09:09:10.344Z</time>
      </trkpt>
      <trkpt lat="45.93467" lon="6.37075">
        <ele>1753</ele>
        <time>2026-08-19T09:09:11.344Z</time>
      </trkpt>
      <trkpt lat="45.93467" lon="6.37076">
        <ele>1753</ele>
        <time>2026-08-19T09:09:12.344Z</time>
      </trkpt>
      <trkpt lat="45.93467" lon="6.37076">
        <ele>1752</ele>
        <time>2026-08-19T09:09:13.344Z</time>
      </trkpt>
      <trkpt lat="45.93467" lon="6.37077">
        <ele>1752</ele>
        <time>2026-08-19T09:09:14.344Z</time>
      </trkpt>
      <trkpt lat="45.93467" lon="6.37077">
        <ele>1751</ele>
        <time>2026-08-19T09:09:15.344Z</time>
      </trkpt>
      <trkpt lat="45.93467" lon="6.37078">
        <ele>1751</ele>
        <time>2026-08-19T09:09:16.344Z</time>
      </trkpt>
      <trkpt lat="45.93467" lon="6.37079">
        <ele>1751</ele>
        <time>2026-08-19T09:09:17.344Z</time>
      </trkpt>
      <trkpt lat="45.93467" lon="6.37079">
        <ele>1751</ele>
        <time>2026-08-19T09:09:18.344Z</time>
      </trkpt>
      <trkpt lat="45.93468" lon="6.3708">
        <ele>1750</ele>
        <time>2026-08-19T09:09:19.344Z</time>
      </trkpt>
      <trkpt lat="45.93467" lon="6.37081">
        <ele>1750</ele>
        <time>2026-08-19T09:09:20.344Z</time>
      </trkpt>
      <trkpt lat="45.93467" lon="6.37082">
        <ele>1750</ele>
        <time>2026-08-19T09:09:21.344Z</time>
      </trkpt>
      <trkpt lat="45.93466" lon="6.37083">
        <ele>1750</ele>
        <time>2026-08-19T09:09:22.344Z</time>
      </trkpt>
      <trkpt lat="45.93466" lon="6.37084">
        <ele>1749</ele>
        <time>2026-08-19T09:09:23.344Z</time>
      </trkpt>
      <trkpt lat="45.93466" lon="6.37085">
        <ele>1749</ele>
        <time>2026-08-19T09:09:24.344Z</time>
      </trkpt>
      <trkpt lat="45.93466" lon="6.37087">
        <ele>1749</ele>
        <time>2026-08-19T09:09:25.344Z</time>
      </trkpt>
      <trkpt lat="45.93466" lon="6.37088">
        <ele>1748</ele>
        <time>2026-08-19T09:09:26.344Z</time>
      </trkpt>
      <trkpt lat="45.93465" lon="6.37089">
        <ele>1748</ele>
        <time>2026-08-19T09:09:27.344Z</time>
      </trkpt>
      <trkpt lat="45.93465" lon="6.3709">
        <ele>1748</ele>
        <time>2026-08-19T09:09:28.344Z</time>
      </trkpt>
      <trkpt lat="45.93465" lon="6.37091">
        <ele>1747</ele>
        <time>2026-08-19T09:09:29.344Z</time>
      </trkpt>
      <trkpt lat="45.93465" lon="6.37093">
        <ele>1747</ele>
        <time>2026-08-19T09:09:30.344Z</time>
      </trkpt>
      <trkpt lat="45.93465" lon="6.37094">
        <ele>1747</ele>
        <time>2026-08-19T09:09:31.344Z</time>
      </trkpt>
      <trkpt lat="45.93465" lon="6.37094">
        <ele>1746</ele>
        <time>2026-08-19T09:09:32.344Z</time>
      </trkpt>
      <trkpt lat="45.93464" lon="6.37095">
        <ele>1746</ele>
        <time>2026-08-19T09:09:33.344Z</time>
      </trkpt>
      <trkpt lat="45.93464" lon="6.37097">
        <ele>1746</ele>
        <time>2026-08-19T09:09:34.344Z</time>
      </trkpt>
      <trkpt lat="45.93463" lon="6.37098">
        <ele>1746</ele>
        <time>2026-08-19T09:09:35.344Z</time>
      </trkpt>
      <trkpt lat="45.93463" lon="6.37099">
        <ele>1746</ele>
        <time>2026-08-19T09:09:36.344Z</time>
      </trkpt>
      <trkpt lat="45.93463" lon="6.371">
        <ele>1746</ele>
        <time>2026-08-19T09:09:37.344Z</time>
      </trkpt>
      <trkpt lat="45.93462" lon="6.37102">
        <ele>1746</ele>
        <time>2026-08-19T09:09:38.344Z</time>
      </trkpt>
      <trkpt lat="45.93462" lon="6.37103">
        <ele>1746</ele>
        <time>2026-08-19T09:09:39.344Z</time>
      </trkpt>
      <trkpt lat="45.93462" lon="6.37104">
        <ele>1746</ele>
        <time>2026-08-19T09:09:40.344Z</time>
      </trkpt>
      <trkpt lat="45.93462" lon="6.37106">
        <ele>1746</ele>
        <time>2026-08-19T09:09:41.344Z</time>
      </trkpt>
      <trkpt lat="45.93463" lon="6.37108">
        <ele>1745</ele>
        <time>2026-08-19T09:09:42.344Z</time>
      </trkpt>
      <trkpt lat="45.93463" lon="6.37109">
        <ele>1744</ele>
        <time>2026-08-19T09:09:43.345Z</time>
      </trkpt>
      <trkpt lat="45.93463" lon="6.3711">
        <ele>1744</ele>
        <time>2026-08-19T09:09:44.344Z</time>
      </trkpt>
      <trkpt lat="45.93463" lon="6.37111">
        <ele>1743</ele>
        <time>2026-08-19T09:09:45.344Z</time>
      </trkpt>
      <trkpt lat="45.93462" lon="6.37113">
        <ele>1743</ele>
        <time>2026-08-19T09:09:46.344Z</time>
      </trkpt>
      <trkpt lat="45.93462" lon="6.37114">
        <ele>1742</ele>
        <time>2026-08-19T09:09:47.344Z</time>
      </trkpt>
      <trkpt lat="45.93462" lon="6.37114">
        <ele>1742</ele>
        <time>2026-08-19T09:09:48.344Z</time>
      </trkpt>
      <trkpt lat="45.93462" lon="6.37115">
        <ele>1742</ele>
        <time>2026-08-19T09:09:49.344Z</time>
      </trkpt>
      <trkpt lat="45.93462" lon="6.37116">
        <ele>1741</ele>
        <time>2026-08-19T09:09:50.344Z</time>
      </trkpt>
      <trkpt lat="45.93461" lon="6.37117">
        <ele>1742</ele>
        <time>2026-08-19T09:09:51.344Z</time>
      </trkpt>
      <trkpt lat="45.93461" lon="6.37118">
        <ele>1742</ele>
        <time>2026-08-19T09:09:52.344Z</time>
      </trkpt>
      <trkpt lat="45.93461" lon="6.37118">
        <ele>1742</ele>
        <time>2026-08-19T09:09:53.344Z</time>
      </trkpt>
      <trkpt lat="45.93461" lon="6.37119">
        <ele>1742</ele>
        <time>2026-08-19T09:09:54.344Z</time>
      </trkpt>
      <trkpt lat="45.93461" lon="6.37119">
        <ele>1741</ele>
        <time>2026-08-19T09:09:55.344Z</time>
      </trkpt>
      <trkpt lat="45.93461" lon="6.3712">
        <ele>1741</ele>
        <time>2026-08-19T09:09:56.344Z</time>
      </trkpt>
      <trkpt lat="45.93461" lon="6.37121">
        <ele>1741</ele>
        <time>2026-08-19T09:09:57.344Z</time>
      </trkpt>
      <trkpt lat="45.93461" lon="6.37123">
        <ele>1740</ele>
        <time>2026-08-19T09:09:58.344Z</time>
      </trkpt>
      <trkpt lat="45.93461" lon="6.37123">
        <ele>1740</ele>
        <time>2026-08-19T09:09:59.345Z</time>
      </trkpt>
      <trkpt lat="45.93461" lon="6.37125">
        <ele>1739</ele>
        <time>2026-08-19T09:10:00.344Z</time>
      </trkpt>
      <trkpt lat="45.93461" lon="6.37126">
        <ele>1739</ele>
        <time>2026-08-19T09:10:01.344Z</time>
      </trkpt>
      <trkpt lat="45.93461" lon="6.37127">
        <ele>1738</ele>
        <time>2026-08-19T09:10:02.344Z</time>
      </trkpt>
      <trkpt lat="45.9346" lon="6.37129">
        <ele>1738</ele>
        <time>2026-08-19T09:10:03.344Z</time>
      </trkpt>
      <trkpt lat="45.9346" lon="6.3713">
        <ele>1737</ele>
        <time>2026-08-19T09:10:04.344Z</time>
      </trkpt>
      <trkpt lat="45.9346" lon="6.37133">
        <ele>1737</ele>
        <time>2026-08-19T09:10:05.344Z</time>
      </trkpt>
      <trkpt lat="45.9346" lon="6.37134">
        <ele>1736</ele>
        <time>2026-08-19T09:10:06.344Z</time>
      </trkpt>
      <trkpt lat="45.9346" lon="6.37136">
        <ele>1736</ele>
        <time>2026-08-19T09:10:07.344Z</time>
      </trkpt>
      <trkpt lat="45.9346" lon="6.37137">
        <ele>1735</ele>
        <time>2026-08-19T09:10:08.344Z</time>
      </trkpt>
      <trkpt lat="45.9346" lon="6.37138">
        <ele>1735</ele>
        <time>2026-08-19T09:10:09.344Z</time>
      </trkpt>
      <trkpt lat="45.9346" lon="6.3714">
        <ele>1734</ele>
        <time>2026-08-19T09:10:10.344Z</time>
      </trkpt>
      <trkpt lat="45.9346" lon="6.3714">
        <ele>1734</ele>
        <time>2026-08-19T09:10:11.345Z</time>
      </trkpt>
      <trkpt lat="45.9346" lon="6.37141">
        <ele>1733</ele>
        <time>2026-08-19T09:10:12.344Z</time>
      </trkpt>
      <trkpt lat="45.9346" lon="6.37142">
        <ele>1733</ele>
        <time>2026-08-19T09:10:13.344Z</time>
      </trkpt>
      <trkpt lat="45.93461" lon="6.37142">
        <ele>1733</ele>
        <time>2026-08-19T09:10:14.344Z</time>
      </trkpt>
      <trkpt lat="45.93461" lon="6.37143">
        <ele>1733</ele>
        <time>2026-08-19T09:10:15.344Z</time>
      </trkpt>
      <trkpt lat="45.93461" lon="6.37143">
        <ele>1733</ele>
        <time>2026-08-19T09:10:16.344Z</time>
      </trkpt>
      <trkpt lat="45.93461" lon="6.37144">
        <ele>1733</ele>
        <time>2026-08-19T09:10:17.344Z</time>
      </trkpt>
      <trkpt lat="45.93462" lon="6.37146">
        <ele>1733</ele>
        <time>2026-08-19T09:10:18.344Z</time>
      </trkpt>
      <trkpt lat="45.93462" lon="6.37148">
        <ele>1733</ele>
        <time>2026-08-19T09:10:19.344Z</time>
      </trkpt>
      <trkpt lat="45.93462" lon="6.37149">
        <ele>1732</ele>
        <time>2026-08-19T09:10:20.344Z</time>
      </trkpt>
      <trkpt lat="45.93462" lon="6.3715">
        <ele>1732</ele>
        <time>2026-08-19T09:10:21.344Z</time>
      </trkpt>
      <trkpt lat="45.93462" lon="6.37152">
        <ele>1732</ele>
        <time>2026-08-19T09:10:22.344Z</time>
      </trkpt>
      <trkpt lat="45.93463" lon="6.37154">
        <ele>1732</ele>
        <time>2026-08-19T09:10:23.344Z</time>
      </trkpt>
      <trkpt lat="45.93464" lon="6.37155">
        <ele>1732</ele>
        <time>2026-08-19T09:10:24.344Z</time>
      </trkpt>
      <trkpt lat="45.93464" lon="6.37157">
        <ele>1731</ele>
        <time>2026-08-19T09:10:25.344Z</time>
      </trkpt>
      <trkpt lat="45.93465" lon="6.37158">
        <ele>1731</ele>
        <time>2026-08-19T09:10:26.344Z</time>
      </trkpt>
      <trkpt lat="45.93465" lon="6.3716">
        <ele>1730</ele>
        <time>2026-08-19T09:10:27.344Z</time>
      </trkpt>
      <trkpt lat="45.93466" lon="6.37162">
        <ele>1730</ele>
        <time>2026-08-19T09:10:28.344Z</time>
      </trkpt>
      <trkpt lat="45.93466" lon="6.37163">
        <ele>1730</ele>
        <time>2026-08-19T09:10:29.344Z</time>
      </trkpt>
      <trkpt lat="45.93467" lon="6.37164">
        <ele>1730</ele>
        <time>2026-08-19T09:10:30.345Z</time>
      </trkpt>
      <trkpt lat="45.93467" lon="6.37166">
        <ele>1730</ele>
        <time>2026-08-19T09:10:31.344Z</time>
      </trkpt>
      <trkpt lat="45.93468" lon="6.37167">
        <ele>1730</ele>
        <time>2026-08-19T09:10:32.344Z</time>
      </trkpt>
      <trkpt lat="45.93468" lon="6.37168">
        <ele>1731</ele>
        <time>2026-08-19T09:10:33.344Z</time>
      </trkpt>
      <trkpt lat="45.93469" lon="6.3717">
        <ele>1731</ele>
        <time>2026-08-19T09:10:34.344Z</time>
      </trkpt>
      <trkpt lat="45.9347" lon="6.37171">
        <ele>1731</ele>
        <time>2026-08-19T09:10:35.344Z</time>
      </trkpt>
      <trkpt lat="45.9347" lon="6.37172">
        <ele>1731</ele>
        <time>2026-08-19T09:10:36.344Z</time>
      </trkpt>
      <trkpt lat="45.9347" lon="6.37173">
        <ele>1731</ele>
        <time>2026-08-19T09:10:37.344Z</time>
      </trkpt>
      <trkpt lat="45.9347" lon="6.37174">
        <ele>1732</ele>
        <time>2026-08-19T09:10:38.344Z</time>
      </trkpt>
      <trkpt lat="45.9347" lon="6.37176">
        <ele>1732</ele>
        <time>2026-08-19T09:10:39.344Z</time>
      </trkpt>
      <trkpt lat="45.9347" lon="6.37177">
        <ele>1732</ele>
        <time>2026-08-19T09:10:40.344Z</time>
      </trkpt>
      <trkpt lat="45.9347" lon="6.37179">
        <ele>1732</ele>
        <time>2026-08-19T09:10:41.344Z</time>
      </trkpt>
      <trkpt lat="45.93469" lon="6.3718">
        <ele>1732</ele>
        <time>2026-08-19T09:10:42.344Z</time>
      </trkpt>
      <trkpt lat="45.93469" lon="6.37182">
        <ele>1732</ele>
        <time>2026-08-19T09:10:43.344Z</time>
      </trkpt>
      <trkpt lat="45.93468" lon="6.37183">
        <ele>1731</ele>
        <time>2026-08-19T09:10:44.344Z</time>
      </trkpt>
      <trkpt lat="45.93467" lon="6.37185">
        <ele>1731</ele>
        <time>2026-08-19T09:10:45.344Z</time>
      </trkpt>
      <trkpt lat="45.93466" lon="6.37187">
        <ele>1731</ele>
        <time>2026-08-19T09:10:46.344Z</time>
      </trkpt>
      <trkpt lat="45.93465" lon="6.37188">
        <ele>1731</ele>
        <time>2026-08-19T09:10:47.344Z</time>
      </trkpt>
      <trkpt lat="45.93464" lon="6.37189">
        <ele>1731</ele>
        <time>2026-08-19T09:10:48.344Z</time>
      </trkpt>
      <trkpt lat="45.93463" lon="6.37191">
        <ele>1731</ele>
        <time>2026-08-19T09:10:49.344Z</time>
      </trkpt>
      <trkpt lat="45.93462" lon="6.37192">
        <ele>1731</ele>
        <time>2026-08-19T09:10:50.344Z</time>
      </trkpt>
      <trkpt lat="45.9346" lon="6.37194">
        <ele>1731</ele>
        <time>2026-08-19T09:10:51.344Z</time>
      </trkpt>
      <trkpt lat="45.93459" lon="6.37196">
        <ele>1731</ele>
        <time>2026-08-19T09:10:52.344Z</time>
      </trkpt>
      <trkpt lat="45.93457" lon="6.37198">
        <ele>1730</ele>
        <time>2026-08-19T09:10:53.344Z</time>
      </trkpt>
      <trkpt lat="45.93456" lon="6.37199">
        <ele>1729</ele>
        <time>2026-08-19T09:10:54.344Z</time>
      </trkpt>
      <trkpt lat="45.93455" lon="6.37201">
        <ele>1729</ele>
        <time>2026-08-19T09:10:55.344Z</time>
      </trkpt>
      <trkpt lat="45.93454" lon="6.37203">
        <ele>1728</ele>
        <time>2026-08-19T09:10:56.344Z</time>
      </trkpt>
      <trkpt lat="45.93452" lon="6.37204">
        <ele>1727</ele>
        <time>2026-08-19T09:10:57.344Z</time>
      </trkpt>
      <trkpt lat="45.93451" lon="6.37205">
        <ele>1727</ele>
        <time>2026-08-19T09:10:58.344Z</time>
      </trkpt>
      <trkpt lat="45.93449" lon="6.37206">
        <ele>1726</ele>
        <time>2026-08-19T09:10:59.344Z</time>
      </trkpt>
      <trkpt lat="45.93448" lon="6.37208">
        <ele>1725</ele>
        <time>2026-08-19T09:11:00.344Z</time>
      </trkpt>
      <trkpt lat="45.93447" lon="6.37209">
        <ele>1725</ele>
        <time>2026-08-19T09:11:01.344Z</time>
      </trkpt>
      <trkpt lat="45.93446" lon="6.3721">
        <ele>1725</ele>
        <time>2026-08-19T09:11:02.344Z</time>
      </trkpt>
      <trkpt lat="45.93445" lon="6.37211">
        <ele>1725</ele>
        <time>2026-08-19T09:11:03.344Z</time>
      </trkpt>
      <trkpt lat="45.93444" lon="6.37212">
        <ele>1725</ele>
        <time>2026-08-19T09:11:04.344Z</time>
      </trkpt>
      <trkpt lat="45.93443" lon="6.37213">
        <ele>1724</ele>
        <time>2026-08-19T09:11:05.344Z</time>
      </trkpt>
      <trkpt lat="45.93442" lon="6.37214">
        <ele>1724</ele>
        <time>2026-08-19T09:11:06.344Z</time>
      </trkpt>
      <trkpt lat="45.93441" lon="6.37215">
        <ele>1724</ele>
        <time>2026-08-19T09:11:07.344Z</time>
      </trkpt>
      <trkpt lat="45.9344" lon="6.37215">
        <ele>1724</ele>
        <time>2026-08-19T09:11:08.344Z</time>
      </trkpt>
      <trkpt lat="45.93439" lon="6.37215">
        <ele>1723</ele>
        <time>2026-08-19T09:11:09.344Z</time>
      </trkpt>
      <trkpt lat="45.93438" lon="6.37215">
        <ele>1723</ele>
        <time>2026-08-19T09:11:10.344Z</time>
      </trkpt>
      <trkpt lat="45.93438" lon="6.37215">
        <ele>1723</ele>
        <time>2026-08-19T09:11:11.344Z</time>
      </trkpt>
      <trkpt lat="45.93437" lon="6.37216">
        <ele>1722</ele>
        <time>2026-08-19T09:11:12.344Z</time>
      </trkpt>
      <trkpt lat="45.93436" lon="6.37217">
        <ele>1722</ele>
        <time>2026-08-19T09:11:13.344Z</time>
      </trkpt>
      <trkpt lat="45.93435" lon="6.37218">
        <ele>1722</ele>
        <time>2026-08-19T09:11:14.344Z</time>
      </trkpt>
      <trkpt lat="45.93434" lon="6.37219">
        <ele>1721</ele>
        <time>2026-08-19T09:11:15.344Z</time>
      </trkpt>
      <trkpt lat="45.93433" lon="6.3722">
        <ele>1721</ele>
        <time>2026-08-19T09:11:16.344Z</time>
      </trkpt>
      <trkpt lat="45.93433" lon="6.37222">
        <ele>1721</ele>
        <time>2026-08-19T09:11:17.344Z</time>
      </trkpt>
      <trkpt lat="45.93433" lon="6.37225">
        <ele>1720</ele>
        <time>2026-08-19T09:11:18.344Z</time>
      </trkpt>
      <trkpt lat="45.93432" lon="6.37227">
        <ele>1720</ele>
        <time>2026-08-19T09:11:19.344Z</time>
      </trkpt>
      <trkpt lat="45.93432" lon="6.37229">
        <ele>1720</ele>
        <time>2026-08-19T09:11:20.344Z</time>
      </trkpt>
      <trkpt lat="45.93432" lon="6.3723">
        <ele>1719</ele>
        <time>2026-08-19T09:11:21.344Z</time>
      </trkpt>
      <trkpt lat="45.93432" lon="6.37231">
        <ele>1719</ele>
        <time>2026-08-19T09:11:22.344Z</time>
      </trkpt>
      <trkpt lat="45.93431" lon="6.37233">
        <ele>1719</ele>
        <time>2026-08-19T09:11:23.344Z</time>
      </trkpt>
      <trkpt lat="45.93431" lon="6.37234">
        <ele>1719</ele>
        <time>2026-08-19T09:11:24.344Z</time>
      </trkpt>
      <trkpt lat="45.93431" lon="6.37236">
        <ele>1719</ele>
        <time>2026-08-19T09:11:25.344Z</time>
      </trkpt>
      <trkpt lat="45.93431" lon="6.37238">
        <ele>1718</ele>
        <time>2026-08-19T09:11:26.344Z</time>
      </trkpt>
      <trkpt lat="45.93431" lon="6.3724">
        <ele>1718</ele>
        <time>2026-08-19T09:11:27.344Z</time>
      </trkpt>
      <trkpt lat="45.93431" lon="6.37241">
        <ele>1718</ele>
        <time>2026-08-19T09:11:28.344Z</time>
      </trkpt>
      <trkpt lat="45.93432" lon="6.37243">
        <ele>1718</ele>
        <time>2026-08-19T09:11:29.344Z</time>
      </trkpt>
      <trkpt lat="45.93432" lon="6.37245">
        <ele>1719</ele>
        <time>2026-08-19T09:11:30.344Z</time>
      </trkpt>
      <trkpt lat="45.93433" lon="6.37247">
        <ele>1718</ele>
        <time>2026-08-19T09:11:31.344Z</time>
      </trkpt>
      <trkpt lat="45.93434" lon="6.37249">
        <ele>1718</ele>
        <time>2026-08-19T09:11:32.344Z</time>
      </trkpt>
      <trkpt lat="45.93435" lon="6.37251">
        <ele>1718</ele>
        <time>2026-08-19T09:11:33.344Z</time>
      </trkpt>
      <trkpt lat="45.93436" lon="6.37253">
        <ele>1718</ele>
        <time>2026-08-19T09:11:34.344Z</time>
      </trkpt>
      <trkpt lat="45.93437" lon="6.37256">
        <ele>1718</ele>
        <time>2026-08-19T09:11:35.344Z</time>
      </trkpt>
      <trkpt lat="45.93438" lon="6.37258">
        <ele>1717</ele>
        <time>2026-08-19T09:11:36.344Z</time>
      </trkpt>
      <trkpt lat="45.93439" lon="6.3726">
        <ele>1717</ele>
        <time>2026-08-19T09:11:37.344Z</time>
      </trkpt>
      <trkpt lat="45.93441" lon="6.37263">
        <ele>1717</ele>
        <time>2026-08-19T09:11:38.344Z</time>
      </trkpt>
      <trkpt lat="45.93442" lon="6.37265">
        <ele>1717</ele>
        <time>2026-08-19T09:11:39.345Z</time>
      </trkpt>
      <trkpt lat="45.93444" lon="6.37266">
        <ele>1718</ele>
        <time>2026-08-19T09:11:40.344Z</time>
      </trkpt>
      <trkpt lat="45.93446" lon="6.37268">
        <ele>1718</ele>
        <time>2026-08-19T09:11:41.344Z</time>
      </trkpt>
      <trkpt lat="45.93448" lon="6.37269">
        <ele>1718</ele>
        <time>2026-08-19T09:11:42.344Z</time>
      </trkpt>
      <trkpt lat="45.93449" lon="6.37269">
        <ele>1718</ele>
        <time>2026-08-19T09:11:43.344Z</time>
      </trkpt>
      <trkpt lat="45.9345" lon="6.3727">
        <ele>1718</ele>
        <time>2026-08-19T09:11:44.344Z</time>
      </trkpt>
      <trkpt lat="45.93451" lon="6.3727">
        <ele>1718</ele>
        <time>2026-08-19T09:11:45.344Z</time>
      </trkpt>
      <trkpt lat="45.93452" lon="6.37271">
        <ele>1718</ele>
        <time>2026-08-19T09:11:46.344Z</time>
      </trkpt>
      <trkpt lat="45.93453" lon="6.37272">
        <ele>1718</ele>
        <time>2026-08-19T09:11:47.344Z</time>
      </trkpt>
      <trkpt lat="45.93454" lon="6.37273">
        <ele>1718</ele>
        <time>2026-08-19T09:11:48.344Z</time>
      </trkpt>
      <trkpt lat="45.93455" lon="6.37273">
        <ele>1718</ele>
        <time>2026-08-19T09:11:49.344Z</time>
      </trkpt>
      <trkpt lat="45.93456" lon="6.37274">
        <ele>1718</ele>
        <time>2026-08-19T09:11:50.344Z</time>
      </trkpt>
      <trkpt lat="45.93456" lon="6.37275">
        <ele>1717</ele>
        <time>2026-08-19T09:11:51.345Z</time>
      </trkpt>
      <trkpt lat="45.93457" lon="6.37275">
        <ele>1718</ele>
        <time>2026-08-19T09:11:52.344Z</time>
      </trkpt>
      <trkpt lat="45.93458" lon="6.37276">
        <ele>1718</ele>
        <time>2026-08-19T09:11:53.344Z</time>
      </trkpt>
      <trkpt lat="45.93459" lon="6.37278">
        <ele>1718</ele>
        <time>2026-08-19T09:11:54.344Z</time>
      </trkpt>
      <trkpt lat="45.93459" lon="6.37279">
        <ele>1718</ele>
        <time>2026-08-19T09:11:55.344Z</time>
      </trkpt>
      <trkpt lat="45.9346" lon="6.3728">
        <ele>1718</ele>
        <time>2026-08-19T09:11:56.344Z</time>
      </trkpt>
      <trkpt lat="45.9346" lon="6.37281">
        <ele>1718</ele>
        <time>2026-08-19T09:11:57.344Z</time>
      </trkpt>
      <trkpt lat="45.93461" lon="6.37282">
        <ele>1718</ele>
        <time>2026-08-19T09:11:58.344Z</time>
      </trkpt>
      <trkpt lat="45.93461" lon="6.37283">
        <ele>1717</ele>
        <time>2026-08-19T09:11:59.344Z</time>
      </trkpt>
      <trkpt lat="45.93462" lon="6.37284">
        <ele>1717</ele>
        <time>2026-08-19T09:12:00.344Z</time>
      </trkpt>
      <trkpt lat="45.93463" lon="6.37286">
        <ele>1717</ele>
        <time>2026-08-19T09:12:01.344Z</time>
      </trkpt>
      <trkpt lat="45.93463" lon="6.37287">
        <ele>1717</ele>
        <time>2026-08-19T09:12:02.344Z</time>
      </trkpt>
      <trkpt lat="45.93463" lon="6.37288">
        <ele>1717</ele>
        <time>2026-08-19T09:12:03.344Z</time>
      </trkpt>
      <trkpt lat="45.93464" lon="6.37289">
        <ele>1717</ele>
        <time>2026-08-19T09:12:04.344Z</time>
      </trkpt>
      <trkpt lat="45.93464" lon="6.37291">
        <ele>1717</ele>
        <time>2026-08-19T09:12:05.344Z</time>
      </trkpt>
      <trkpt lat="45.93465" lon="6.37293">
        <ele>1717</ele>
        <time>2026-08-19T09:12:06.344Z</time>
      </trkpt>
      <trkpt lat="45.93465" lon="6.37295">
        <ele>1717</ele>
        <time>2026-08-19T09:12:07.344Z</time>
      </trkpt>
      <trkpt lat="45.93465" lon="6.37297">
        <ele>1717</ele>
        <time>2026-08-19T09:12:08.344Z</time>
      </trkpt>
      <trkpt lat="45.93466" lon="6.37299">
        <ele>1717</ele>
        <time>2026-08-19T09:12:09.344Z</time>
      </trkpt>
      <trkpt lat="45.93466" lon="6.373">
        <ele>1717</ele>
        <time>2026-08-19T09:12:10.344Z</time>
      </trkpt>
      <trkpt lat="45.93467" lon="6.37301">
        <ele>1717</ele>
        <time>2026-08-19T09:12:11.344Z</time>
      </trkpt>
      <trkpt lat="45.93468" lon="6.37303">
        <ele>1717</ele>
        <time>2026-08-19T09:12:12.344Z</time>
      </trkpt>
      <trkpt lat="45.9347" lon="6.37305">
        <ele>1717</ele>
        <time>2026-08-19T09:12:13.344Z</time>
      </trkpt>
      <trkpt lat="45.9347" lon="6.37306">
        <ele>1718</ele>
        <time>2026-08-19T09:12:14.344Z</time>
      </trkpt>
      <trkpt lat="45.93472" lon="6.37308">
        <ele>1718</ele>
        <time>2026-08-19T09:12:15.344Z</time>
      </trkpt>
      <trkpt lat="45.93473" lon="6.37309">
        <ele>1718</ele>
        <time>2026-08-19T09:12:16.344Z</time>
      </trkpt>
      <trkpt lat="45.93474" lon="6.3731">
        <ele>1719</ele>
        <time>2026-08-19T09:12:17.344Z</time>
      </trkpt>
      <trkpt lat="45.93474" lon="6.37311">
        <ele>1719</ele>
        <time>2026-08-19T09:12:18.344Z</time>
      </trkpt>
      <trkpt lat="45.93475" lon="6.37313">
        <ele>1719</ele>
        <time>2026-08-19T09:12:19.344Z</time>
      </trkpt>
      <trkpt lat="45.93476" lon="6.37315">
        <ele>1719</ele>
        <time>2026-08-19T09:12:20.344Z</time>
      </trkpt>
      <trkpt lat="45.93477" lon="6.37316">
        <ele>1720</ele>
        <time>2026-08-19T09:12:21.344Z</time>
      </trkpt>
      <trkpt lat="45.93478" lon="6.37319">
        <ele>1720</ele>
        <time>2026-08-19T09:12:22.344Z</time>
      </trkpt>
      <trkpt lat="45.93479" lon="6.3732">
        <ele>1720</ele>
        <time>2026-08-19T09:12:23.344Z</time>
      </trkpt>
      <trkpt lat="45.9348" lon="6.37322">
        <ele>1720</ele>
        <time>2026-08-19T09:12:24.344Z</time>
      </trkpt>
      <trkpt lat="45.9348" lon="6.37324">
        <ele>1720</ele>
        <time>2026-08-19T09:12:25.344Z</time>
      </trkpt>
      <trkpt lat="45.93481" lon="6.37326">
        <ele>1720</ele>
        <time>2026-08-19T09:12:26.344Z</time>
      </trkpt>
      <trkpt lat="45.93482" lon="6.37327">
        <ele>1720</ele>
        <time>2026-08-19T09:12:27.344Z</time>
      </trkpt>
      <trkpt lat="45.93483" lon="6.37328">
        <ele>1720</ele>
        <time>2026-08-19T09:12:28.344Z</time>
      </trkpt>
      <trkpt lat="45.93483" lon="6.3733">
        <ele>1720</ele>
        <time>2026-08-19T09:12:29.344Z</time>
      </trkpt>
      <trkpt lat="45.93484" lon="6.37332">
        <ele>1720</ele>
        <time>2026-08-19T09:12:30.344Z</time>
      </trkpt>
      <trkpt lat="45.93484" lon="6.37334">
        <ele>1721</ele>
        <time>2026-08-19T09:12:31.344Z</time>
      </trkpt>
      <trkpt lat="45.93484" lon="6.37335">
        <ele>1721</ele>
        <time>2026-08-19T09:12:32.344Z</time>
      </trkpt>
      <trkpt lat="45.93485" lon="6.37337">
        <ele>1721</ele>
        <time>2026-08-19T09:12:33.344Z</time>
      </trkpt>
      <trkpt lat="45.93485" lon="6.37338">
        <ele>1720</ele>
        <time>2026-08-19T09:12:34.344Z</time>
      </trkpt>
      <trkpt lat="45.93486" lon="6.37339">
        <ele>1720</ele>
        <time>2026-08-19T09:12:35.344Z</time>
      </trkpt>
      <trkpt lat="45.93487" lon="6.3734">
        <ele>1720</ele>
        <time>2026-08-19T09:12:36.344Z</time>
      </trkpt>
      <trkpt lat="45.93488" lon="6.37342">
        <ele>1720</ele>
        <time>2026-08-19T09:12:37.345Z</time>
      </trkpt>
      <trkpt lat="45.93489" lon="6.37344">
        <ele>1721</ele>
        <time>2026-08-19T09:12:38.344Z</time>
      </trkpt>
      <trkpt lat="45.93489" lon="6.37346">
        <ele>1721</ele>
        <time>2026-08-19T09:12:39.344Z</time>
      </trkpt>
      <trkpt lat="45.9349" lon="6.37347">
        <ele>1721</ele>
        <time>2026-08-19T09:12:40.344Z</time>
      </trkpt>
      <trkpt lat="45.9349" lon="6.37349">
        <ele>1721</ele>
        <time>2026-08-19T09:12:41.344Z</time>
      </trkpt>
      <trkpt lat="45.9349" lon="6.3735">
        <ele>1720</ele>
        <time>2026-08-19T09:12:42.344Z</time>
      </trkpt>
      <trkpt lat="45.93491" lon="6.37352">
        <ele>1720</ele>
        <time>2026-08-19T09:12:43.344Z</time>
      </trkpt>
      <trkpt lat="45.93492" lon="6.37354">
        <ele>1720</ele>
        <time>2026-08-19T09:12:44.344Z</time>
      </trkpt>
      <trkpt lat="45.93492" lon="6.37356">
        <ele>1721</ele>
        <time>2026-08-19T09:12:45.344Z</time>
      </trkpt>
      <trkpt lat="45.93493" lon="6.37358">
        <ele>1721</ele>
        <time>2026-08-19T09:12:46.344Z</time>
      </trkpt>
      <trkpt lat="45.93494" lon="6.3736">
        <ele>1721</ele>
        <time>2026-08-19T09:12:47.344Z</time>
      </trkpt>
      <trkpt lat="45.93495" lon="6.37362">
        <ele>1721</ele>
        <time>2026-08-19T09:12:48.344Z</time>
      </trkpt>
      <trkpt lat="45.93496" lon="6.37364">
        <ele>1721</ele>
        <time>2026-08-19T09:12:49.344Z</time>
      </trkpt>
      <trkpt lat="45.93496" lon="6.37366">
        <ele>1721</ele>
        <time>2026-08-19T09:12:50.344Z</time>
      </trkpt>
      <trkpt lat="45.93497" lon="6.37368">
        <ele>1722</ele>
        <time>2026-08-19T09:12:51.344Z</time>
      </trkpt>
      <trkpt lat="45.93498" lon="6.3737">
        <ele>1722</ele>
        <time>2026-08-19T09:12:52.345Z</time>
      </trkpt>
      <trkpt lat="45.93499" lon="6.37371">
        <ele>1722</ele>
        <time>2026-08-19T09:12:53.344Z</time>
      </trkpt>
      <trkpt lat="45.93499" lon="6.37373">
        <ele>1722</ele>
        <time>2026-08-19T09:12:54.344Z</time>
      </trkpt>
      <trkpt lat="45.935" lon="6.37375">
        <ele>1722</ele>
        <time>2026-08-19T09:12:55.344Z</time>
      </trkpt>
      <trkpt lat="45.935" lon="6.37376">
        <ele>1722</ele>
        <time>2026-08-19T09:12:56.344Z</time>
      </trkpt>
      <trkpt lat="45.93501" lon="6.37379">
        <ele>1722</ele>
        <time>2026-08-19T09:12:57.344Z</time>
      </trkpt>
      <trkpt lat="45.93501" lon="6.3738">
        <ele>1722</ele>
        <time>2026-08-19T09:12:58.344Z</time>
      </trkpt>
      <trkpt lat="45.93502" lon="6.37382">
        <ele>1722</ele>
        <time>2026-08-19T09:12:59.344Z</time>
      </trkpt>
      <trkpt lat="45.93502" lon="6.37384">
        <ele>1721</ele>
        <time>2026-08-19T09:13:00.344Z</time>
      </trkpt>
      <trkpt lat="45.93503" lon="6.37385">
        <ele>1721</ele>
        <time>2026-08-19T09:13:01.344Z</time>
      </trkpt>
      <trkpt lat="45.93504" lon="6.37387">
        <ele>1721</ele>
        <time>2026-08-19T09:13:02.344Z</time>
      </trkpt>
      <trkpt lat="45.93505" lon="6.37388">
        <ele>1721</ele>
        <time>2026-08-19T09:13:03.344Z</time>
      </trkpt>
      <trkpt lat="45.93506" lon="6.3739">
        <ele>1721</ele>
        <time>2026-08-19T09:13:04.344Z</time>
      </trkpt>
      <trkpt lat="45.93507" lon="6.37392">
        <ele>1721</ele>
        <time>2026-08-19T09:13:05.344Z</time>
      </trkpt>
      <trkpt lat="45.93508" lon="6.37394">
        <ele>1721</ele>
        <time>2026-08-19T09:13:06.344Z</time>
      </trkpt>
      <trkpt lat="45.93509" lon="6.37396">
        <ele>1722</ele>
        <time>2026-08-19T09:13:07.344Z</time>
      </trkpt>
      <trkpt lat="45.93511" lon="6.37397">
        <ele>1722</ele>
        <time>2026-08-19T09:13:08.344Z</time>
      </trkpt>
      <trkpt lat="45.93512" lon="6.37399">
        <ele>1722</ele>
        <time>2026-08-19T09:13:09.344Z</time>
      </trkpt>
      <trkpt lat="45.93513" lon="6.37401">
        <ele>1722</ele>
        <time>2026-08-19T09:13:10.344Z</time>
      </trkpt>
      <trkpt lat="45.93514" lon="6.37401">
        <ele>1723</ele>
        <time>2026-08-19T09:13:11.344Z</time>
      </trkpt>
      <trkpt lat="45.93515" lon="6.37403">
        <ele>1723</ele>
        <time>2026-08-19T09:13:12.344Z</time>
      </trkpt>
      <trkpt lat="45.93516" lon="6.37404">
        <ele>1723</ele>
        <time>2026-08-19T09:13:13.344Z</time>
      </trkpt>
      <trkpt lat="45.93517" lon="6.37405">
        <ele>1723</ele>
        <time>2026-08-19T09:13:14.344Z</time>
      </trkpt>
      <trkpt lat="45.93519" lon="6.37406">
        <ele>1723</ele>
        <time>2026-08-19T09:13:15.344Z</time>
      </trkpt>
      <trkpt lat="45.9352" lon="6.37407">
        <ele>1722</ele>
        <time>2026-08-19T09:13:16.344Z</time>
      </trkpt>
      <trkpt lat="45.93521" lon="6.37408">
        <ele>1722</ele>
        <time>2026-08-19T09:13:17.344Z</time>
      </trkpt>
      <trkpt lat="45.93522" lon="6.37409">
        <ele>1722</ele>
        <time>2026-08-19T09:13:18.344Z</time>
      </trkpt>
      <trkpt lat="45.93522" lon="6.3741">
        <ele>1722</ele>
        <time>2026-08-19T09:13:19.344Z</time>
      </trkpt>
      <trkpt lat="45.93522" lon="6.37411">
        <ele>1723</ele>
        <time>2026-08-19T09:13:20.344Z</time>
      </trkpt>
      <trkpt lat="45.93523" lon="6.37412">
        <ele>1723</ele>
        <time>2026-08-19T09:13:21.344Z</time>
      </trkpt>
      <trkpt lat="45.93523" lon="6.37413">
        <ele>1723</ele>
        <time>2026-08-19T09:13:22.344Z</time>
      </trkpt>
      <trkpt lat="45.93523" lon="6.37414">
        <ele>1723</ele>
        <time>2026-08-19T09:13:23.344Z</time>
      </trkpt>
      <trkpt lat="45.93524" lon="6.37415">
        <ele>1723</ele>
        <time>2026-08-19T09:13:24.344Z</time>
      </trkpt>
      <trkpt lat="45.93524" lon="6.37416">
        <ele>1723</ele>
        <time>2026-08-19T09:13:25.344Z</time>
      </trkpt>
      <trkpt lat="45.93525" lon="6.37417">
        <ele>1723</ele>
        <time>2026-08-19T09:13:26.344Z</time>
      </trkpt>
      <trkpt lat="45.93526" lon="6.37418">
        <ele>1723</ele>
        <time>2026-08-19T09:13:27.344Z</time>
      </trkpt>
      <trkpt lat="45.93526" lon="6.37419">
        <ele>1723</ele>
        <time>2026-08-19T09:13:28.344Z</time>
      </trkpt>
      <trkpt lat="45.93526" lon="6.37419">
        <ele>1724</ele>
        <time>2026-08-19T09:13:29.344Z</time>
      </trkpt>
      <trkpt lat="45.93526" lon="6.3742">
        <ele>1724</ele>
        <time>2026-08-19T09:13:30.344Z</time>
      </trkpt>
      <trkpt lat="45.93525" lon="6.37421">
        <ele>1724</ele>
        <time>2026-08-19T09:13:31.344Z</time>
      </trkpt>
      <trkpt lat="45.93525" lon="6.37423">
        <ele>1723</ele>
        <time>2026-08-19T09:13:32.344Z</time>
      </trkpt>
      <trkpt lat="45.93526" lon="6.37425">
        <ele>1723</ele>
        <time>2026-08-19T09:13:33.344Z</time>
      </trkpt>
      <trkpt lat="45.93526" lon="6.37426">
        <ele>1722</ele>
        <time>2026-08-19T09:13:34.344Z</time>
      </trkpt>
      <trkpt lat="45.93527" lon="6.37427">
        <ele>1722</ele>
        <time>2026-08-19T09:13:35.344Z</time>
      </trkpt>
      <trkpt lat="45.93528" lon="6.37427">
        <ele>1722</ele>
        <time>2026-08-19T09:13:36.344Z</time>
      </trkpt>
      <trkpt lat="45.93529" lon="6.37427">
        <ele>1722</ele>
        <time>2026-08-19T09:13:37.344Z</time>
      </trkpt>
      <trkpt lat="45.93531" lon="6.37427">
        <ele>1722</ele>
        <time>2026-08-19T09:13:38.344Z</time>
      </trkpt>
      <trkpt lat="45.93532" lon="6.37427">
        <ele>1722</ele>
        <time>2026-08-19T09:13:39.344Z</time>
      </trkpt>
      <trkpt lat="45.93533" lon="6.37427">
        <ele>1721</ele>
        <time>2026-08-19T09:13:40.344Z</time>
      </trkpt>
      <trkpt lat="45.93534" lon="6.37428">
        <ele>1721</ele>
        <time>2026-08-19T09:13:41.344Z</time>
      </trkpt>
      <trkpt lat="45.93536" lon="6.3743">
        <ele>1721</ele>
        <time>2026-08-19T09:13:42.344Z</time>
      </trkpt>
      <trkpt lat="45.93537" lon="6.37431">
        <ele>1721</ele>
        <time>2026-08-19T09:13:43.344Z</time>
      </trkpt>
      <trkpt lat="45.93538" lon="6.37432">
        <ele>1721</ele>
        <time>2026-08-19T09:13:44.344Z</time>
      </trkpt>
      <trkpt lat="45.93539" lon="6.37434">
        <ele>1721</ele>
        <time>2026-08-19T09:13:45.344Z</time>
      </trkpt>
      <trkpt lat="45.93541" lon="6.37435">
        <ele>1721</ele>
        <time>2026-08-19T09:13:46.344Z</time>
      </trkpt>
      <trkpt lat="45.93542" lon="6.37437">
        <ele>1721</ele>
        <time>2026-08-19T09:13:47.344Z</time>
      </trkpt>
      <trkpt lat="45.93543" lon="6.37439">
        <ele>1721</ele>
        <time>2026-08-19T09:13:48.344Z</time>
      </trkpt>
      <trkpt lat="45.93545" lon="6.3744">
        <ele>1721</ele>
        <time>2026-08-19T09:13:49.344Z</time>
      </trkpt>
      <trkpt lat="45.93546" lon="6.37441">
        <ele>1720</ele>
        <time>2026-08-19T09:13:50.344Z</time>
      </trkpt>
      <trkpt lat="45.93547" lon="6.37443">
        <ele>1720</ele>
        <time>2026-08-19T09:13:51.344Z</time>
      </trkpt>
      <trkpt lat="45.93547" lon="6.37444">
        <ele>1720</ele>
        <time>2026-08-19T09:13:52.344Z</time>
      </trkpt>
      <trkpt lat="45.93548" lon="6.37445">
        <ele>1720</ele>
        <time>2026-08-19T09:13:53.344Z</time>
      </trkpt>
      <trkpt lat="45.93548" lon="6.37446">
        <ele>1721</ele>
        <time>2026-08-19T09:13:54.344Z</time>
      </trkpt>
      <trkpt lat="45.9355" lon="6.37447">
        <ele>1721</ele>
        <time>2026-08-19T09:13:55.344Z</time>
      </trkpt>
      <trkpt lat="45.93551" lon="6.37448">
        <ele>1721</ele>
        <time>2026-08-19T09:13:56.344Z</time>
      </trkpt>
      <trkpt lat="45.93553" lon="6.3745">
        <ele>1722</ele>
        <time>2026-08-19T09:13:57.344Z</time>
      </trkpt>
      <trkpt lat="45.93554" lon="6.37452">
        <ele>1722</ele>
        <time>2026-08-19T09:13:58.344Z</time>
      </trkpt>
      <trkpt lat="45.93555" lon="6.37454">
        <ele>1722</ele>
        <time>2026-08-19T09:13:59.344Z</time>
      </trkpt>
      <trkpt lat="45.93556" lon="6.37455">
        <ele>1723</ele>
        <time>2026-08-19T09:14:00.344Z</time>
      </trkpt>
      <trkpt lat="45.93557" lon="6.37457">
        <ele>1723</ele>
        <time>2026-08-19T09:14:01.344Z</time>
      </trkpt>
      <trkpt lat="45.93557" lon="6.37459">
        <ele>1724</ele>
        <time>2026-08-19T09:14:02.344Z</time>
      </trkpt>
      <trkpt lat="45.93558" lon="6.37461">
        <ele>1724</ele>
        <time>2026-08-19T09:14:03.344Z</time>
      </trkpt>
      <trkpt lat="45.93558" lon="6.37463">
        <ele>1724</ele>
        <time>2026-08-19T09:14:04.344Z</time>
      </trkpt>
      <trkpt lat="45.93559" lon="6.37464">
        <ele>1724</ele>
        <time>2026-08-19T09:14:05.344Z</time>
      </trkpt>
      <trkpt lat="45.93559" lon="6.37466">
        <ele>1725</ele>
        <time>2026-08-19T09:14:06.344Z</time>
      </trkpt>
      <trkpt lat="45.9356" lon="6.37467">
        <ele>1725</ele>
        <time>2026-08-19T09:14:07.344Z</time>
      </trkpt>
      <trkpt lat="45.9356" lon="6.37469">
        <ele>1725</ele>
        <time>2026-08-19T09:14:08.344Z</time>
      </trkpt>
      <trkpt lat="45.93561" lon="6.3747">
        <ele>1725</ele>
        <time>2026-08-19T09:14:09.344Z</time>
      </trkpt>
      <trkpt lat="45.93561" lon="6.37471">
        <ele>1725</ele>
        <time>2026-08-19T09:14:10.344Z</time>
      </trkpt>
      <trkpt lat="45.93561" lon="6.37472">
        <ele>1726</ele>
        <time>2026-08-19T09:14:11.344Z</time>
      </trkpt>
      <trkpt lat="45.93561" lon="6.37474">
        <ele>1726</ele>
        <time>2026-08-19T09:14:12.344Z</time>
      </trkpt>
      <trkpt lat="45.93561" lon="6.37475">
        <ele>1726</ele>
        <time>2026-08-19T09:14:13.345Z</time>
      </trkpt>
      <trkpt lat="45.93562" lon="6.37476">
        <ele>1726</ele>
        <time>2026-08-19T09:14:14.345Z</time>
      </trkpt>
      <trkpt lat="45.93563" lon="6.37478">
        <ele>1726</ele>
        <time>2026-08-19T09:14:15.344Z</time>
      </trkpt>
      <trkpt lat="45.93564" lon="6.3748">
        <ele>1726</ele>
        <time>2026-08-19T09:14:16.344Z</time>
      </trkpt>
      <trkpt lat="45.93564" lon="6.37481">
        <ele>1727</ele>
        <time>2026-08-19T09:14:17.344Z</time>
      </trkpt>
      <trkpt lat="45.93565" lon="6.37482">
        <ele>1727</ele>
        <time>2026-08-19T09:14:18.344Z</time>
      </trkpt>
      <trkpt lat="45.93565" lon="6.37483">
        <ele>1728</ele>
        <time>2026-08-19T09:14:19.344Z</time>
      </trkpt>
      <trkpt lat="45.93565" lon="6.37484">
        <ele>1728</ele>
        <time>2026-08-19T09:14:20.344Z</time>
      </trkpt>
      <trkpt lat="45.93565" lon="6.37486">
        <ele>1728</ele>
        <time>2026-08-19T09:14:21.344Z</time>
      </trkpt>
      <trkpt lat="45.93565" lon="6.37487">
        <ele>1728</ele>
        <time>2026-08-19T09:14:22.344Z</time>
      </trkpt>
      <trkpt lat="45.93565" lon="6.37488">
        <ele>1728</ele>
        <time>2026-08-19T09:14:23.344Z</time>
      </trkpt>
      <trkpt lat="45.93565" lon="6.37489">
        <ele>1728</ele>
        <time>2026-08-19T09:14:24.344Z</time>
      </trkpt>
      <trkpt lat="45.93565" lon="6.3749">
        <ele>1729</ele>
        <time>2026-08-19T09:14:25.344Z</time>
      </trkpt>
      <trkpt lat="45.93566" lon="6.37491">
        <ele>1729</ele>
        <time>2026-08-19T09:14:26.344Z</time>
      </trkpt>
      <trkpt lat="45.93566" lon="6.37492">
        <ele>1729</ele>
        <time>2026-08-19T09:14:27.344Z</time>
      </trkpt>
      <trkpt lat="45.93566" lon="6.37492">
        <ele>1729</ele>
        <time>2026-08-19T09:14:28.344Z</time>
      </trkpt>
      <trkpt lat="45.93566" lon="6.37493">
        <ele>1730</ele>
        <time>2026-08-19T09:14:29.344Z</time>
      </trkpt>
      <trkpt lat="45.93566" lon="6.37493">
        <ele>1730</ele>
        <time>2026-08-19T09:14:30.344Z</time>
      </trkpt>
      <trkpt lat="45.93567" lon="6.37493">
        <ele>1731</ele>
        <time>2026-08-19T09:14:31.344Z</time>
      </trkpt>
      <trkpt lat="45.93567" lon="6.37494">
        <ele>1731</ele>
        <time>2026-08-19T09:14:32.344Z</time>
      </trkpt>
      <trkpt lat="45.93568" lon="6.37494">
        <ele>1731</ele>
        <time>2026-08-19T09:14:33.344Z</time>
      </trkpt>
      <trkpt lat="45.93568" lon="6.37494">
        <ele>1731</ele>
        <time>2026-08-19T09:14:34.344Z</time>
      </trkpt>
      <trkpt lat="45.93569" lon="6.37494">
        <ele>1731</ele>
        <time>2026-08-19T09:14:35.344Z</time>
      </trkpt>
      <trkpt lat="45.93569" lon="6.37494">
        <ele>1731</ele>
        <time>2026-08-19T09:14:36.344Z</time>
      </trkpt>
      <trkpt lat="45.9357" lon="6.37494">
        <ele>1731</ele>
        <time>2026-08-19T09:14:37.344Z</time>
      </trkpt>
      <trkpt lat="45.93572" lon="6.37494">
        <ele>1731</ele>
        <time>2026-08-19T09:14:38.344Z</time>
      </trkpt>
      <trkpt lat="45.93573" lon="6.37494">
        <ele>1732</ele>
        <time>2026-08-19T09:14:39.344Z</time>
      </trkpt>
      <trkpt lat="45.93573" lon="6.37495">
        <ele>1732</ele>
        <time>2026-08-19T09:14:40.344Z</time>
      </trkpt>
      <trkpt lat="45.93574" lon="6.37495">
        <ele>1732</ele>
        <time>2026-08-19T09:14:41.344Z</time>
      </trkpt>
      <trkpt lat="45.93575" lon="6.37495">
        <ele>1732</ele>
        <time>2026-08-19T09:14:42.344Z</time>
      </trkpt>
      <trkpt lat="45.93575" lon="6.37496">
        <ele>1732</ele>
        <time>2026-08-19T09:14:43.344Z</time>
      </trkpt>
      <trkpt lat="45.93576" lon="6.37496">
        <ele>1733</ele>
        <time>2026-08-19T09:14:44.344Z</time>
      </trkpt>
      <trkpt lat="45.93576" lon="6.37497">
        <ele>1733</ele>
        <time>2026-08-19T09:14:45.344Z</time>
      </trkpt>
      <trkpt lat="45.93577" lon="6.37498">
        <ele>1733</ele>
        <time>2026-08-19T09:14:46.344Z</time>
      </trkpt>
      <trkpt lat="45.93578" lon="6.37498">
        <ele>1734</ele>
        <time>2026-08-19T09:14:47.344Z</time>
      </trkpt>
      <trkpt lat="45.93579" lon="6.37499">
        <ele>1734</ele>
        <time>2026-08-19T09:14:48.344Z</time>
      </trkpt>
      <trkpt lat="45.9358" lon="6.375">
        <ele>1734</ele>
        <time>2026-08-19T09:14:49.344Z</time>
      </trkpt>
      <trkpt lat="45.9358" lon="6.37501">
        <ele>1735</ele>
        <time>2026-08-19T09:14:50.344Z</time>
      </trkpt>
      <trkpt lat="45.93581" lon="6.37502">
        <ele>1735</ele>
        <time>2026-08-19T09:14:51.344Z</time>
      </trkpt>
      <trkpt lat="45.93581" lon="6.37503">
        <ele>1735</ele>
        <time>2026-08-19T09:14:52.344Z</time>
      </trkpt>
      <trkpt lat="45.93582" lon="6.37504">
        <ele>1735</ele>
        <time>2026-08-19T09:14:53.344Z</time>
      </trkpt>
      <trkpt lat="45.93583" lon="6.37506">
        <ele>1736</ele>
        <time>2026-08-19T09:14:54.344Z</time>
      </trkpt>
      <trkpt lat="45.93584" lon="6.37508">
        <ele>1736</ele>
        <time>2026-08-19T09:14:55.344Z</time>
      </trkpt>
      <trkpt lat="45.93584" lon="6.37509">
        <ele>1736</ele>
        <time>2026-08-19T09:14:56.344Z</time>
      </trkpt>
      <trkpt lat="45.93585" lon="6.37511">
        <ele>1735</ele>
        <time>2026-08-19T09:14:57.344Z</time>
      </trkpt>
      <trkpt lat="45.93586" lon="6.37512">
        <ele>1736</ele>
        <time>2026-08-19T09:14:58.344Z</time>
      </trkpt>
      <trkpt lat="45.93587" lon="6.37514">
        <ele>1736</ele>
        <time>2026-08-19T09:14:59.344Z</time>
      </trkpt>
      <trkpt lat="45.93587" lon="6.37516">
        <ele>1736</ele>
        <time>2026-08-19T09:15:00.344Z</time>
      </trkpt>
      <trkpt lat="45.93588" lon="6.37517">
        <ele>1736</ele>
        <time>2026-08-19T09:15:01.344Z</time>
      </trkpt>
      <trkpt lat="45.93589" lon="6.37518">
        <ele>1737</ele>
        <time>2026-08-19T09:15:02.344Z</time>
      </trkpt>
      <trkpt lat="45.93589" lon="6.37518">
        <ele>1737</ele>
        <time>2026-08-19T09:15:03.345Z</time>
      </trkpt>
      <trkpt lat="45.9359" lon="6.37519">
        <ele>1737</ele>
        <time>2026-08-19T09:15:04.344Z</time>
      </trkpt>
      <trkpt lat="45.9359" lon="6.37521">
        <ele>1737</ele>
        <time>2026-08-19T09:15:05.345Z</time>
      </trkpt>
      <trkpt lat="45.9359" lon="6.37522">
        <ele>1737</ele>
        <time>2026-08-19T09:15:06.344Z</time>
      </trkpt>
      <trkpt lat="45.9359" lon="6.37523">
        <ele>1737</ele>
        <time>2026-08-19T09:15:07.344Z</time>
      </trkpt>
      <trkpt lat="45.93591" lon="6.37523">
        <ele>1737</ele>
        <time>2026-08-19T09:15:08.344Z</time>
      </trkpt>
      <trkpt lat="45.93592" lon="6.37524">
        <ele>1737</ele>
        <time>2026-08-19T09:15:09.344Z</time>
      </trkpt>
      <trkpt lat="45.93593" lon="6.37524">
        <ele>1736</ele>
        <time>2026-08-19T09:15:10.344Z</time>
      </trkpt>
      <trkpt lat="45.93594" lon="6.37525">
        <ele>1736</ele>
        <time>2026-08-19T09:15:11.344Z</time>
      </trkpt>
      <trkpt lat="45.93595" lon="6.37526">
        <ele>1736</ele>
        <time>2026-08-19T09:15:12.345Z</time>
      </trkpt>
      <trkpt lat="45.93596" lon="6.37528">
        <ele>1736</ele>
        <time>2026-08-19T09:15:13.344Z</time>
      </trkpt>
      <trkpt lat="45.93597" lon="6.37529">
        <ele>1736</ele>
        <time>2026-08-19T09:15:14.344Z</time>
      </trkpt>
      <trkpt lat="45.93598" lon="6.37531">
        <ele>1736</ele>
        <time>2026-08-19T09:15:15.344Z</time>
      </trkpt>
      <trkpt lat="45.93598" lon="6.37532">
        <ele>1736</ele>
        <time>2026-08-19T09:15:16.344Z</time>
      </trkpt>
      <trkpt lat="45.93599" lon="6.37533">
        <ele>1736</ele>
        <time>2026-08-19T09:15:17.344Z</time>
      </trkpt>
      <trkpt lat="45.93599" lon="6.37534">
        <ele>1736</ele>
        <time>2026-08-19T09:15:18.344Z</time>
      </trkpt>
      <trkpt lat="45.93599" lon="6.37535">
        <ele>1736</ele>
        <time>2026-08-19T09:15:19.344Z</time>
      </trkpt>
      <trkpt lat="45.93599" lon="6.37536">
        <ele>1736</ele>
        <time>2026-08-19T09:15:20.344Z</time>
      </trkpt>
      <trkpt lat="45.93599" lon="6.37537">
        <ele>1737</ele>
        <time>2026-08-19T09:15:21.344Z</time>
      </trkpt>
      <trkpt lat="45.93599" lon="6.37538">
        <ele>1737</ele>
        <time>2026-08-19T09:15:22.344Z</time>
      </trkpt>
      <trkpt lat="45.936" lon="6.37538">
        <ele>1737</ele>
        <time>2026-08-19T09:15:23.345Z</time>
      </trkpt>
      <trkpt lat="45.936" lon="6.37539">
        <ele>1737</ele>
        <time>2026-08-19T09:15:24.344Z</time>
      </trkpt>
      <trkpt lat="45.936" lon="6.37539">
        <ele>1737</ele>
        <time>2026-08-19T09:15:25.344Z</time>
      </trkpt>
      <trkpt lat="45.93601" lon="6.3754">
        <ele>1737</ele>
        <time>2026-08-19T09:15:26.344Z</time>
      </trkpt>
      <trkpt lat="45.93601" lon="6.3754">
        <ele>1737</ele>
        <time>2026-08-19T09:15:27.344Z</time>
      </trkpt>
      <trkpt lat="45.93602" lon="6.3754">
        <ele>1737</ele>
        <time>2026-08-19T09:15:28.344Z</time>
      </trkpt>
      <trkpt lat="45.93602" lon="6.37539">
        <ele>1737</ele>
        <time>2026-08-19T09:15:29.344Z</time>
      </trkpt>
      <trkpt lat="45.93602" lon="6.37539">
        <ele>1737</ele>
        <time>2026-08-19T09:15:30.344Z</time>
      </trkpt>
      <trkpt lat="45.93603" lon="6.37539">
        <ele>1736</ele>
        <time>2026-08-19T09:15:31.344Z</time>
      </trkpt>
      <trkpt lat="45.93603" lon="6.3754">
        <ele>1736</ele>
        <time>2026-08-19T09:15:32.344Z</time>
      </trkpt>
      <trkpt lat="45.93603" lon="6.3754">
        <ele>1736</ele>
        <time>2026-08-19T09:15:33.344Z</time>
      </trkpt>
      <trkpt lat="45.93603" lon="6.3754">
        <ele>1736</ele>
        <time>2026-08-19T09:15:34.344Z</time>
      </trkpt>
      <trkpt lat="45.93603" lon="6.3754">
        <ele>1736</ele>
        <time>2026-08-19T09:15:35.344Z</time>
      </trkpt>
      <trkpt lat="45.93603" lon="6.3754">
        <ele>1736</ele>
        <time>2026-08-19T09:15:36.344Z</time>
      </trkpt>
      <trkpt lat="45.93603" lon="6.37541">
        <ele>1736</ele>
        <time>2026-08-19T09:15:37.344Z</time>
      </trkpt>
      <trkpt lat="45.93603" lon="6.37541">
        <ele>1737</ele>
        <time>2026-08-19T09:15:38.344Z</time>
      </trkpt>
      <trkpt lat="45.93604" lon="6.37542">
        <ele>1737</ele>
        <time>2026-08-19T09:15:39.344Z</time>
      </trkpt>
      <trkpt lat="45.93605" lon="6.37542">
        <ele>1737</ele>
        <time>2026-08-19T09:15:40.344Z</time>
      </trkpt>
      <trkpt lat="45.93605" lon="6.37542">
        <ele>1737</ele>
        <time>2026-08-19T09:15:41.344Z</time>
      </trkpt>
      <trkpt lat="45.93606" lon="6.37543">
        <ele>1737</ele>
        <time>2026-08-19T09:15:42.344Z</time>
      </trkpt>
      <trkpt lat="45.93607" lon="6.37544">
        <ele>1737</ele>
        <time>2026-08-19T09:15:43.344Z</time>
      </trkpt>
      <trkpt lat="45.93607" lon="6.37544">
        <ele>1737</ele>
        <time>2026-08-19T09:15:44.344Z</time>
      </trkpt>
      <trkpt lat="45.93608" lon="6.37545">
        <ele>1737</ele>
        <time>2026-08-19T09:15:45.344Z</time>
      </trkpt>
      <trkpt lat="45.93608" lon="6.37546">
        <ele>1736</ele>
        <time>2026-08-19T09:15:46.345Z</time>
      </trkpt>
      <trkpt lat="45.93608" lon="6.37548">
        <ele>1736</ele>
        <time>2026-08-19T09:15:47.344Z</time>
      </trkpt>
      <trkpt lat="45.93608" lon="6.37549">
        <ele>1735</ele>
        <time>2026-08-19T09:15:48.344Z</time>
      </trkpt>
      <trkpt lat="45.93608" lon="6.37551">
        <ele>1735</ele>
        <time>2026-08-19T09:15:49.344Z</time>
      </trkpt>
      <trkpt lat="45.93607" lon="6.37553">
        <ele>1734</ele>
        <time>2026-08-19T09:15:50.345Z</time>
      </trkpt>
      <trkpt lat="45.93607" lon="6.37554">
        <ele>1734</ele>
        <time>2026-08-19T09:15:51.344Z</time>
      </trkpt>
      <trkpt lat="45.93607" lon="6.37556">
        <ele>1734</ele>
        <time>2026-08-19T09:15:52.344Z</time>
      </trkpt>
      <trkpt lat="45.93607" lon="6.37558">
        <ele>1733</ele>
        <time>2026-08-19T09:15:53.344Z</time>
      </trkpt>
      <trkpt lat="45.93606" lon="6.3756">
        <ele>1733</ele>
        <time>2026-08-19T09:15:54.344Z</time>
      </trkpt>
      <trkpt lat="45.93606" lon="6.37562">
        <ele>1732</ele>
        <time>2026-08-19T09:15:55.344Z</time>
      </trkpt>
      <trkpt lat="45.93606" lon="6.37564">
        <ele>1732</ele>
        <time>2026-08-19T09:15:56.344Z</time>
      </trkpt>
      <trkpt lat="45.93606" lon="6.37566">
        <ele>1731</ele>
        <time>2026-08-19T09:15:57.344Z</time>
      </trkpt>
      <trkpt lat="45.93606" lon="6.37568">
        <ele>1731</ele>
        <time>2026-08-19T09:15:58.344Z</time>
      </trkpt>
      <trkpt lat="45.93606" lon="6.3757">
        <ele>1730</ele>
        <time>2026-08-19T09:15:59.344Z</time>
      </trkpt>
      <trkpt lat="45.93607" lon="6.37571">
        <ele>1730</ele>
        <time>2026-08-19T09:16:00.344Z</time>
      </trkpt>
      <trkpt lat="45.93607" lon="6.37572">
        <ele>1730</ele>
        <time>2026-08-19T09:16:01.344Z</time>
      </trkpt>
      <trkpt lat="45.93608" lon="6.37573">
        <ele>1730</ele>
        <time>2026-08-19T09:16:02.344Z</time>
      </trkpt>
      <trkpt lat="45.93608" lon="6.37574">
        <ele>1730</ele>
        <time>2026-08-19T09:16:03.344Z</time>
      </trkpt>
      <trkpt lat="45.93608" lon="6.37576">
        <ele>1730</ele>
        <time>2026-08-19T09:16:04.344Z</time>
      </trkpt>
      <trkpt lat="45.93607" lon="6.37577">
        <ele>1730</ele>
        <time>2026-08-19T09:16:05.344Z</time>
      </trkpt>
      <trkpt lat="45.93606" lon="6.37579">
        <ele>1730</ele>
        <time>2026-08-19T09:16:06.344Z</time>
      </trkpt>
      <trkpt lat="45.93605" lon="6.3758">
        <ele>1730</ele>
        <time>2026-08-19T09:16:07.344Z</time>
      </trkpt>
      <trkpt lat="45.93605" lon="6.37581">
        <ele>1730</ele>
        <time>2026-08-19T09:16:08.344Z</time>
      </trkpt>
      <trkpt lat="45.93605" lon="6.37583">
        <ele>1730</ele>
        <time>2026-08-19T09:16:09.344Z</time>
      </trkpt>
      <trkpt lat="45.93605" lon="6.37584">
        <ele>1730</ele>
        <time>2026-08-19T09:16:10.344Z</time>
      </trkpt>
      <trkpt lat="45.93606" lon="6.37585">
        <ele>1730</ele>
        <time>2026-08-19T09:16:11.344Z</time>
      </trkpt>
      <trkpt lat="45.93606" lon="6.37586">
        <ele>1730</ele>
        <time>2026-08-19T09:16:12.344Z</time>
      </trkpt>
      <trkpt lat="45.93606" lon="6.37587">
        <ele>1730</ele>
        <time>2026-08-19T09:16:13.344Z</time>
      </trkpt>
      <trkpt lat="45.93607" lon="6.37588">
        <ele>1729</ele>
        <time>2026-08-19T09:16:14.344Z</time>
      </trkpt>
      <trkpt lat="45.93608" lon="6.37588">
        <ele>1729</ele>
        <time>2026-08-19T09:16:15.344Z</time>
      </trkpt>
      <trkpt lat="45.93608" lon="6.37589">
        <ele>1729</ele>
        <time>2026-08-19T09:16:16.344Z</time>
      </trkpt>
      <trkpt lat="45.93609" lon="6.3759">
        <ele>1729</ele>
        <time>2026-08-19T09:16:17.344Z</time>
      </trkpt>
      <trkpt lat="45.9361" lon="6.37591">
        <ele>1730</ele>
        <time>2026-08-19T09:16:18.344Z</time>
      </trkpt>
      <trkpt lat="45.93611" lon="6.37592">
        <ele>1730</ele>
        <time>2026-08-19T09:16:19.344Z</time>
      </trkpt>
      <trkpt lat="45.93612" lon="6.37593">
        <ele>1731</ele>
        <time>2026-08-19T09:16:20.344Z</time>
      </trkpt>
      <trkpt lat="45.93613" lon="6.37593">
        <ele>1731</ele>
        <time>2026-08-19T09:16:21.344Z</time>
      </trkpt>
      <trkpt lat="45.93614" lon="6.37594">
        <ele>1731</ele>
        <time>2026-08-19T09:16:22.344Z</time>
      </trkpt>
      <trkpt lat="45.93615" lon="6.37595">
        <ele>1731</ele>
        <time>2026-08-19T09:16:23.344Z</time>
      </trkpt>
      <trkpt lat="45.93616" lon="6.37595">
        <ele>1731</ele>
        <time>2026-08-19T09:16:24.344Z</time>
      </trkpt>
      <trkpt lat="45.93617" lon="6.37596">
        <ele>1731</ele>
        <time>2026-08-19T09:16:25.344Z</time>
      </trkpt>
      <trkpt lat="45.93617" lon="6.37596">
        <ele>1731</ele>
        <time>2026-08-19T09:16:26.344Z</time>
      </trkpt>
      <trkpt lat="45.93618" lon="6.37597">
        <ele>1731</ele>
        <time>2026-08-19T09:16:27.344Z</time>
      </trkpt>
      <trkpt lat="45.93618" lon="6.37597">
        <ele>1731</ele>
        <time>2026-08-19T09:16:28.344Z</time>
      </trkpt>
      <trkpt lat="45.93619" lon="6.37598">
        <ele>1731</ele>
        <time>2026-08-19T09:16:29.344Z</time>
      </trkpt>
      <trkpt lat="45.93619" lon="6.37598">
        <ele>1731</ele>
        <time>2026-08-19T09:16:30.344Z</time>
      </trkpt>
      <trkpt lat="45.93619" lon="6.37598">
        <ele>1732</ele>
        <time>2026-08-19T09:16:31.345Z</time>
      </trkpt>
      <trkpt lat="45.9362" lon="6.37599">
        <ele>1732</ele>
        <time>2026-08-19T09:16:32.344Z</time>
      </trkpt>
      <trkpt lat="45.9362" lon="6.37599">
        <ele>1732</ele>
        <time>2026-08-19T09:16:33.344Z</time>
      </trkpt>
      <trkpt lat="45.93621" lon="6.37599">
        <ele>1732</ele>
        <time>2026-08-19T09:16:34.344Z</time>
      </trkpt>
      <trkpt lat="45.93621" lon="6.37599">
        <ele>1732</ele>
        <time>2026-08-19T09:16:35.344Z</time>
      </trkpt>
      <trkpt lat="45.93622" lon="6.37599">
        <ele>1732</ele>
        <time>2026-08-19T09:16:36.344Z</time>
      </trkpt>
      <trkpt lat="45.93622" lon="6.376">
        <ele>1732</ele>
        <time>2026-08-19T09:16:37.344Z</time>
      </trkpt>
      <trkpt lat="45.93623" lon="6.37602">
        <ele>1732</ele>
        <time>2026-08-19T09:16:38.344Z</time>
      </trkpt>
      <trkpt lat="45.93623" lon="6.37604">
        <ele>1732</ele>
        <time>2026-08-19T09:16:39.344Z</time>
      </trkpt>
      <trkpt lat="45.93623" lon="6.37605">
        <ele>1732</ele>
        <time>2026-08-19T09:16:40.344Z</time>
      </trkpt>
      <trkpt lat="45.93623" lon="6.37607">
        <ele>1732</ele>
        <time>2026-08-19T09:16:41.344Z</time>
      </trkpt>
      <trkpt lat="45.93623" lon="6.37608">
        <ele>1732</ele>
        <time>2026-08-19T09:16:42.344Z</time>
      </trkpt>
      <trkpt lat="45.93623" lon="6.37608">
        <ele>1731</ele>
        <time>2026-08-19T09:16:43.344Z</time>
      </trkpt>
      <trkpt lat="45.93622" lon="6.37609">
        <ele>1731</ele>
        <time>2026-08-19T09:16:44.344Z</time>
      </trkpt>
      <trkpt lat="45.93623" lon="6.37609">
        <ele>1731</ele>
        <time>2026-08-19T09:16:45.344Z</time>
      </trkpt>
      <trkpt lat="45.93623" lon="6.3761">
        <ele>1730</ele>
        <time>2026-08-19T09:16:46.344Z</time>
      </trkpt>
      <trkpt lat="45.93623" lon="6.37611">
        <ele>1730</ele>
        <time>2026-08-19T09:16:47.344Z</time>
      </trkpt>
      <trkpt lat="45.93623" lon="6.37612">
        <ele>1730</ele>
        <time>2026-08-19T09:16:48.344Z</time>
      </trkpt>
      <trkpt lat="45.93624" lon="6.37613">
        <ele>1730</ele>
        <time>2026-08-19T09:16:49.344Z</time>
      </trkpt>
      <trkpt lat="45.93624" lon="6.37614">
        <ele>1730</ele>
        <time>2026-08-19T09:16:50.344Z</time>
      </trkpt>
      <trkpt lat="45.93624" lon="6.37616">
        <ele>1730</ele>
        <time>2026-08-19T09:16:51.344Z</time>
      </trkpt>
      <trkpt lat="45.93624" lon="6.37617">
        <ele>1729</ele>
        <time>2026-08-19T09:16:52.344Z</time>
      </trkpt>
      <trkpt lat="45.93624" lon="6.37618">
        <ele>1729</ele>
        <time>2026-08-19T09:16:53.344Z</time>
      </trkpt>
      <trkpt lat="45.93624" lon="6.37619">
        <ele>1729</ele>
        <time>2026-08-19T09:16:54.344Z</time>
      </trkpt>
      <trkpt lat="45.93625" lon="6.3762">
        <ele>1729</ele>
        <time>2026-08-19T09:16:55.344Z</time>
      </trkpt>
      <trkpt lat="45.93625" lon="6.3762">
        <ele>1729</ele>
        <time>2026-08-19T09:16:56.344Z</time>
      </trkpt>
      <trkpt lat="45.93625" lon="6.37621">
        <ele>1729</ele>
        <time>2026-08-19T09:16:57.344Z</time>
      </trkpt>
      <trkpt lat="45.93624" lon="6.37622">
        <ele>1729</ele>
        <time>2026-08-19T09:16:58.344Z</time>
      </trkpt>
      <trkpt lat="45.93624" lon="6.37623">
        <ele>1729</ele>
        <time>2026-08-19T09:16:59.344Z</time>
      </trkpt>
      <trkpt lat="45.93623" lon="6.37624">
        <ele>1728</ele>
        <time>2026-08-19T09:17:00.344Z</time>
      </trkpt>
      <trkpt lat="45.93623" lon="6.37624">
        <ele>1728</ele>
        <time>2026-08-19T09:17:01.344Z</time>
      </trkpt>
      <trkpt lat="45.93623" lon="6.37624">
        <ele>1728</ele>
        <time>2026-08-19T09:17:02.344Z</time>
      </trkpt>
      <trkpt lat="45.93623" lon="6.37624">
        <ele>1727</ele>
        <time>2026-08-19T09:17:03.344Z</time>
      </trkpt>
      <trkpt lat="45.93623" lon="6.37625">
        <ele>1727</ele>
        <time>2026-08-19T09:17:04.344Z</time>
      </trkpt>
      <trkpt lat="45.93623" lon="6.37625">
        <ele>1727</ele>
        <time>2026-08-19T09:17:05.344Z</time>
      </trkpt>
      <trkpt lat="45.93624" lon="6.37625">
        <ele>1726</ele>
        <time>2026-08-19T09:17:06.344Z</time>
      </trkpt>
      <trkpt lat="45.93624" lon="6.37625">
        <ele>1725</ele>
        <time>2026-08-19T09:17:07.344Z</time>
      </trkpt>
      <trkpt lat="45.93624" lon="6.37625">
        <ele>1725</ele>
        <time>2026-08-19T09:17:08.344Z</time>
      </trkpt>
      <trkpt lat="45.93624" lon="6.37626">
        <ele>1725</ele>
        <time>2026-08-19T09:17:09.344Z</time>
      </trkpt>
      <trkpt lat="45.93624" lon="6.37626">
        <ele>1724</ele>
        <time>2026-08-19T09:17:10.344Z</time>
      </trkpt>
      <trkpt lat="45.93624" lon="6.37627">
        <ele>1724</ele>
        <time>2026-08-19T09:17:11.344Z</time>
      </trkpt>
      <trkpt lat="45.93623" lon="6.37628">
        <ele>1724</ele>
        <time>2026-08-19T09:17:12.344Z</time>
      </trkpt>
      <trkpt lat="45.93623" lon="6.37629">
        <ele>1724</ele>
        <time>2026-08-19T09:17:13.344Z</time>
      </trkpt>
      <trkpt lat="45.93623" lon="6.3763">
        <ele>1724</ele>
        <time>2026-08-19T09:17:14.344Z</time>
      </trkpt>
      <trkpt lat="45.93623" lon="6.37631">
        <ele>1725</ele>
        <time>2026-08-19T09:17:15.344Z</time>
      </trkpt>
      <trkpt lat="45.93623" lon="6.37632">
        <ele>1725</ele>
        <time>2026-08-19T09:17:16.344Z</time>
      </trkpt>
      <trkpt lat="45.93622" lon="6.37633">
        <ele>1724</ele>
        <time>2026-08-19T09:17:17.344Z</time>
      </trkpt>
      <trkpt lat="45.93622" lon="6.37634">
        <ele>1724</ele>
        <time>2026-08-19T09:17:18.344Z</time>
      </trkpt>
      <trkpt lat="45.93622" lon="6.37635">
        <ele>1724</ele>
        <time>2026-08-19T09:17:19.344Z</time>
      </trkpt>
      <trkpt lat="45.93622" lon="6.37635">
        <ele>1724</ele>
        <time>2026-08-19T09:17:20.344Z</time>
      </trkpt>
      <trkpt lat="45.93623" lon="6.37636">
        <ele>1723</ele>
        <time>2026-08-19T09:17:21.344Z</time>
      </trkpt>
      <trkpt lat="45.93623" lon="6.37637">
        <ele>1723</ele>
        <time>2026-08-19T09:17:22.344Z</time>
      </trkpt>
      <trkpt lat="45.93622" lon="6.37638">
        <ele>1723</ele>
        <time>2026-08-19T09:17:23.344Z</time>
      </trkpt>
      <trkpt lat="45.93622" lon="6.37638">
        <ele>1723</ele>
        <time>2026-08-19T09:17:24.344Z</time>
      </trkpt>
      <trkpt lat="45.93622" lon="6.37639">
        <ele>1722</ele>
        <time>2026-08-19T09:17:25.344Z</time>
      </trkpt>
      <trkpt lat="45.93622" lon="6.37639">
        <ele>1722</ele>
        <time>2026-08-19T09:17:26.344Z</time>
      </trkpt>
      <trkpt lat="45.93622" lon="6.37639">
        <ele>1722</ele>
        <time>2026-08-19T09:17:27.344Z</time>
      </trkpt>
      <trkpt lat="45.93621" lon="6.3764">
        <ele>1722</ele>
        <time>2026-08-19T09:17:28.344Z</time>
      </trkpt>
      <trkpt lat="45.93621" lon="6.3764">
        <ele>1722</ele>
        <time>2026-08-19T09:17:29.344Z</time>
      </trkpt>
      <trkpt lat="45.9362" lon="6.3764">
        <ele>1722</ele>
        <time>2026-08-19T09:17:30.344Z</time>
      </trkpt>
      <trkpt lat="45.9362" lon="6.37641">
        <ele>1722</ele>
        <time>2026-08-19T09:17:31.344Z</time>
      </trkpt>
      <trkpt lat="45.9362" lon="6.37641">
        <ele>1722</ele>
        <time>2026-08-19T09:17:32.344Z</time>
      </trkpt>
      <trkpt lat="45.9362" lon="6.37641">
        <ele>1722</ele>
        <time>2026-08-19T09:17:33.344Z</time>
      </trkpt>
      <trkpt lat="45.9362" lon="6.37641">
        <ele>1722</ele>
        <time>2026-08-19T09:17:34.344Z</time>
      </trkpt>
      <trkpt lat="45.9362" lon="6.37642">
        <ele>1722</ele>
        <time>2026-08-19T09:17:35.344Z</time>
      </trkpt>
      <trkpt lat="45.9362" lon="6.37643">
        <ele>1721</ele>
        <time>2026-08-19T09:17:36.344Z</time>
      </trkpt>
      <trkpt lat="45.9362" lon="6.37643">
        <ele>1721</ele>
        <time>2026-08-19T09:17:37.344Z</time>
      </trkpt>
      <trkpt lat="45.9362" lon="6.37644">
        <ele>1721</ele>
        <time>2026-08-19T09:17:38.344Z</time>
      </trkpt>
      <trkpt lat="45.9362" lon="6.37646">
        <ele>1721</ele>
        <time>2026-08-19T09:17:39.344Z</time>
      </trkpt>
      <trkpt lat="45.9362" lon="6.37647">
        <ele>1721</ele>
        <time>2026-08-19T09:17:40.344Z</time>
      </trkpt>
      <trkpt lat="45.9362" lon="6.37648">
        <ele>1721</ele>
        <time>2026-08-19T09:17:41.345Z</time>
      </trkpt>
      <trkpt lat="45.93619" lon="6.37649">
        <ele>1721</ele>
        <time>2026-08-19T09:17:42.344Z</time>
      </trkpt>
      <trkpt lat="45.93618" lon="6.3765">
        <ele>1721</ele>
        <time>2026-08-19T09:17:43.344Z</time>
      </trkpt>
      <trkpt lat="45.93618" lon="6.3765">
        <ele>1720</ele>
        <time>2026-08-19T09:17:44.344Z</time>
      </trkpt>
      <trkpt lat="45.93618" lon="6.3765">
        <ele>1720</ele>
        <time>2026-08-19T09:17:45.344Z</time>
      </trkpt>
      <trkpt lat="45.93618" lon="6.3765">
        <ele>1719</ele>
        <time>2026-08-19T09:17:46.344Z</time>
      </trkpt>
      <trkpt lat="45.93618" lon="6.3765">
        <ele>1719</ele>
        <time>2026-08-19T09:17:47.344Z</time>
      </trkpt>
      <trkpt lat="45.93618" lon="6.3765">
        <ele>1719</ele>
        <time>2026-08-19T09:17:48.344Z</time>
      </trkpt>
      <trkpt lat="45.93618" lon="6.3765">
        <ele>1718</ele>
        <time>2026-08-19T09:17:49.344Z</time>
      </trkpt>
      <trkpt lat="45.93617" lon="6.37651">
        <ele>1718</ele>
        <time>2026-08-19T09:17:50.344Z</time>
      </trkpt>
      <trkpt lat="45.93617" lon="6.37651">
        <ele>1718</ele>
        <time>2026-08-19T09:17:51.344Z</time>
      </trkpt>
      <trkpt lat="45.93616" lon="6.37652">
        <ele>1718</ele>
        <time>2026-08-19T09:17:52.344Z</time>
      </trkpt>
      <trkpt lat="45.93616" lon="6.37653">
        <ele>1718</ele>
        <time>2026-08-19T09:17:53.344Z</time>
      </trkpt>
      <trkpt lat="45.93615" lon="6.37653">
        <ele>1718</ele>
        <time>2026-08-19T09:17:54.344Z</time>
      </trkpt>
      <trkpt lat="45.93615" lon="6.37654">
        <ele>1718</ele>
        <time>2026-08-19T09:17:55.344Z</time>
      </trkpt>
      <trkpt lat="45.93614" lon="6.37654">
        <ele>1717</ele>
        <time>2026-08-19T09:17:56.344Z</time>
      </trkpt>
      <trkpt lat="45.93614" lon="6.37654">
        <ele>1717</ele>
        <time>2026-08-19T09:17:57.344Z</time>
      </trkpt>
      <trkpt lat="45.93613" lon="6.37655">
        <ele>1717</ele>
        <time>2026-08-19T09:17:58.344Z</time>
      </trkpt>
      <trkpt lat="45.93613" lon="6.37655">
        <ele>1716</ele>
        <time>2026-08-19T09:17:59.344Z</time>
      </trkpt>
      <trkpt lat="45.93612" lon="6.37656">
        <ele>1716</ele>
        <time>2026-08-19T09:18:00.344Z</time>
      </trkpt>
      <trkpt lat="45.93611" lon="6.37657">
        <ele>1716</ele>
        <time>2026-08-19T09:18:01.344Z</time>
      </trkpt>
      <trkpt lat="45.93611" lon="6.37658">
        <ele>1716</ele>
        <time>2026-08-19T09:18:02.344Z</time>
      </trkpt>
      <trkpt lat="45.93609" lon="6.37658">
        <ele>1715</ele>
        <time>2026-08-19T09:18:03.344Z</time>
      </trkpt>
      <trkpt lat="45.93608" lon="6.37659">
        <ele>1715</ele>
        <time>2026-08-19T09:18:04.344Z</time>
      </trkpt>
      <trkpt lat="45.93608" lon="6.3766">
        <ele>1715</ele>
        <time>2026-08-19T09:18:05.344Z</time>
      </trkpt>
      <trkpt lat="45.93607" lon="6.37661">
        <ele>1715</ele>
        <time>2026-08-19T09:18:06.344Z</time>
      </trkpt>
      <trkpt lat="45.93606" lon="6.37661">
        <ele>1715</ele>
        <time>2026-08-19T09:18:07.344Z</time>
      </trkpt>
      <trkpt lat="45.93605" lon="6.37661">
        <ele>1714</ele>
        <time>2026-08-19T09:18:08.344Z</time>
      </trkpt>
      <trkpt lat="45.93605" lon="6.37661">
        <ele>1714</ele>
        <time>2026-08-19T09:18:09.344Z</time>
      </trkpt>
      <trkpt lat="45.93604" lon="6.37662">
        <ele>1714</ele>
        <time>2026-08-19T09:18:10.344Z</time>
      </trkpt>
      <trkpt lat="45.93604" lon="6.37662">
        <ele>1714</ele>
        <time>2026-08-19T09:18:11.344Z</time>
      </trkpt>
      <trkpt lat="45.93603" lon="6.37663">
        <ele>1714</ele>
        <time>2026-08-19T09:18:12.344Z</time>
      </trkpt>
      <trkpt lat="45.93602" lon="6.37663">
        <ele>1714</ele>
        <time>2026-08-19T09:18:13.344Z</time>
      </trkpt>
      <trkpt lat="45.93601" lon="6.37663">
        <ele>1714</ele>
        <time>2026-08-19T09:18:14.344Z</time>
      </trkpt>
      <trkpt lat="45.93599" lon="6.37664">
        <ele>1714</ele>
        <time>2026-08-19T09:18:15.344Z</time>
      </trkpt>
      <trkpt lat="45.93598" lon="6.37664">
        <ele>1714</ele>
        <time>2026-08-19T09:18:16.344Z</time>
      </trkpt>
      <trkpt lat="45.93598" lon="6.37664">
        <ele>1714</ele>
        <time>2026-08-19T09:18:17.344Z</time>
      </trkpt>
      <trkpt lat="45.93597" lon="6.37665">
        <ele>1714</ele>
        <time>2026-08-19T09:18:18.344Z</time>
      </trkpt>
      <trkpt lat="45.93597" lon="6.37666">
        <ele>1714</ele>
        <time>2026-08-19T09:18:19.344Z</time>
      </trkpt>
      <trkpt lat="45.93596" lon="6.37667">
        <ele>1714</ele>
        <time>2026-08-19T09:18:20.345Z</time>
      </trkpt>
      <trkpt lat="45.93595" lon="6.37669">
        <ele>1714</ele>
        <time>2026-08-19T09:18:21.344Z</time>
      </trkpt>
      <trkpt lat="45.93594" lon="6.3767">
        <ele>1715</ele>
        <time>2026-08-19T09:18:22.344Z</time>
      </trkpt>
      <trkpt lat="45.93593" lon="6.37671">
        <ele>1715</ele>
        <time>2026-08-19T09:18:23.344Z</time>
      </trkpt>
      <trkpt lat="45.93593" lon="6.37672">
        <ele>1715</ele>
        <time>2026-08-19T09:18:24.344Z</time>
      </trkpt>
      <trkpt lat="45.93592" lon="6.37673">
        <ele>1715</ele>
        <time>2026-08-19T09:18:25.344Z</time>
      </trkpt>
      <trkpt lat="45.93591" lon="6.37674">
        <ele>1715</ele>
        <time>2026-08-19T09:18:26.344Z</time>
      </trkpt>
      <trkpt lat="45.93591" lon="6.37675">
        <ele>1715</ele>
        <time>2026-08-19T09:18:27.344Z</time>
      </trkpt>
      <trkpt lat="45.93591" lon="6.37676">
        <ele>1714</ele>
        <time>2026-08-19T09:18:28.344Z</time>
      </trkpt>
      <trkpt lat="45.9359" lon="6.37677">
        <ele>1714</ele>
        <time>2026-08-19T09:18:29.344Z</time>
      </trkpt>
      <trkpt lat="45.9359" lon="6.37678">
        <ele>1714</ele>
        <time>2026-08-19T09:18:30.344Z</time>
      </trkpt>
      <trkpt lat="45.9359" lon="6.37679">
        <ele>1713</ele>
        <time>2026-08-19T09:18:31.344Z</time>
      </trkpt>
      <trkpt lat="45.9359" lon="6.3768">
        <ele>1713</ele>
        <time>2026-08-19T09:18:32.344Z</time>
      </trkpt>
      <trkpt lat="45.93588" lon="6.37681">
        <ele>1713</ele>
        <time>2026-08-19T09:18:33.344Z</time>
      </trkpt>
      <trkpt lat="45.93587" lon="6.37682">
        <ele>1713</ele>
        <time>2026-08-19T09:18:34.344Z</time>
      </trkpt>
      <trkpt lat="45.93586" lon="6.37684">
        <ele>1712</ele>
        <time>2026-08-19T09:18:35.344Z</time>
      </trkpt>
      <trkpt lat="45.93585" lon="6.37684">
        <ele>1712</ele>
        <time>2026-08-19T09:18:36.344Z</time>
      </trkpt>
      <trkpt lat="45.93584" lon="6.37685">
        <ele>1712</ele>
        <time>2026-08-19T09:18:37.344Z</time>
      </trkpt>
      <trkpt lat="45.93583" lon="6.37686">
        <ele>1712</ele>
        <time>2026-08-19T09:18:38.344Z</time>
      </trkpt>
      <trkpt lat="45.93582" lon="6.37686">
        <ele>1711</ele>
        <time>2026-08-19T09:18:39.345Z</time>
      </trkpt>
      <trkpt lat="45.93581" lon="6.37687">
        <ele>1711</ele>
        <time>2026-08-19T09:18:40.344Z</time>
      </trkpt>
      <trkpt lat="45.9358" lon="6.37688">
        <ele>1711</ele>
        <time>2026-08-19T09:18:41.344Z</time>
      </trkpt>
      <trkpt lat="45.93579" lon="6.37689">
        <ele>1711</ele>
        <time>2026-08-19T09:18:42.344Z</time>
      </trkpt>
      <trkpt lat="45.93578" lon="6.3769">
        <ele>1711</ele>
        <time>2026-08-19T09:18:43.344Z</time>
      </trkpt>
      <trkpt lat="45.93577" lon="6.37692">
        <ele>1711</ele>
        <time>2026-08-19T09:18:44.344Z</time>
      </trkpt>
      <trkpt lat="45.93575" lon="6.37693">
        <ele>1711</ele>
        <time>2026-08-19T09:18:45.344Z</time>
      </trkpt>
      <trkpt lat="45.93574" lon="6.37694">
        <ele>1711</ele>
        <time>2026-08-19T09:18:46.344Z</time>
      </trkpt>
      <trkpt lat="45.93573" lon="6.37694">
        <ele>1711</ele>
        <time>2026-08-19T09:18:47.344Z</time>
      </trkpt>
      <trkpt lat="45.93572" lon="6.37695">
        <ele>1710</ele>
        <time>2026-08-19T09:18:48.344Z</time>
      </trkpt>
      <trkpt lat="45.93571" lon="6.37696">
        <ele>1710</ele>
        <time>2026-08-19T09:18:49.344Z</time>
      </trkpt>
      <trkpt lat="45.9357" lon="6.37696">
        <ele>1710</ele>
        <time>2026-08-19T09:18:50.344Z</time>
      </trkpt>
      <trkpt lat="45.93568" lon="6.37697">
        <ele>1709</ele>
        <time>2026-08-19T09:18:51.344Z</time>
      </trkpt>
      <trkpt lat="45.93567" lon="6.37697">
        <ele>1709</ele>
        <time>2026-08-19T09:18:52.344Z</time>
      </trkpt>
      <trkpt lat="45.93567" lon="6.37698">
        <ele>1709</ele>
        <time>2026-08-19T09:18:53.344Z</time>
      </trkpt>
      <trkpt lat="45.93566" lon="6.37698">
        <ele>1709</ele>
        <time>2026-08-19T09:18:54.344Z</time>
      </trkpt>
      <trkpt lat="45.93565" lon="6.37699">
        <ele>1709</ele>
        <time>2026-08-19T09:18:55.344Z</time>
      </trkpt>
      <trkpt lat="45.93564" lon="6.377">
        <ele>1708</ele>
        <time>2026-08-19T09:18:56.345Z</time>
      </trkpt>
      <trkpt lat="45.93563" lon="6.37701">
        <ele>1708</ele>
        <time>2026-08-19T09:18:57.344Z</time>
      </trkpt>
      <trkpt lat="45.93562" lon="6.37701">
        <ele>1707</ele>
        <time>2026-08-19T09:18:58.344Z</time>
      </trkpt>
      <trkpt lat="45.93561" lon="6.37701">
        <ele>1706</ele>
        <time>2026-08-19T09:18:59.344Z</time>
      </trkpt>
      <trkpt lat="45.9356" lon="6.37701">
        <ele>1705</ele>
        <time>2026-08-19T09:19:00.344Z</time>
      </trkpt>
      <trkpt lat="45.93559" lon="6.37702">
        <ele>1704</ele>
        <time>2026-08-19T09:19:01.344Z</time>
      </trkpt>
      <trkpt lat="45.93559" lon="6.37703">
        <ele>1704</ele>
        <time>2026-08-19T09:19:02.344Z</time>
      </trkpt>
      <trkpt lat="45.93559" lon="6.37704">
        <ele>1703</ele>
        <time>2026-08-19T09:19:03.344Z</time>
      </trkpt>
      <trkpt lat="45.93559" lon="6.37705">
        <ele>1702</ele>
        <time>2026-08-19T09:19:04.344Z</time>
      </trkpt>
      <trkpt lat="45.93559" lon="6.37706">
        <ele>1702</ele>
        <time>2026-08-19T09:19:05.344Z</time>
      </trkpt>
      <trkpt lat="45.93559" lon="6.37707">
        <ele>1701</ele>
        <time>2026-08-19T09:19:06.344Z</time>
      </trkpt>
      <trkpt lat="45.93559" lon="6.37708">
        <ele>1701</ele>
        <time>2026-08-19T09:19:07.344Z</time>
      </trkpt>
      <trkpt lat="45.9356" lon="6.37709">
        <ele>1700</ele>
        <time>2026-08-19T09:19:08.344Z</time>
      </trkpt>
      <trkpt lat="45.9356" lon="6.37709">
        <ele>1700</ele>
        <time>2026-08-19T09:19:09.344Z</time>
      </trkpt>
      <trkpt lat="45.93561" lon="6.3771">
        <ele>1699</ele>
        <time>2026-08-19T09:19:10.344Z</time>
      </trkpt>
      <trkpt lat="45.93561" lon="6.37711">
        <ele>1699</ele>
        <time>2026-08-19T09:19:11.344Z</time>
      </trkpt>
      <trkpt lat="45.93561" lon="6.37713">
        <ele>1698</ele>
        <time>2026-08-19T09:19:12.344Z</time>
      </trkpt>
      <trkpt lat="45.9356" lon="6.37715">
        <ele>1698</ele>
        <time>2026-08-19T09:19:13.344Z</time>
      </trkpt>
      <trkpt lat="45.93559" lon="6.37717">
        <ele>1697</ele>
        <time>2026-08-19T09:19:14.344Z</time>
      </trkpt>
      <trkpt lat="45.93558" lon="6.37719">
        <ele>1697</ele>
        <time>2026-08-19T09:19:15.344Z</time>
      </trkpt>
      <trkpt lat="45.93557" lon="6.37722">
        <ele>1696</ele>
        <time>2026-08-19T09:19:16.344Z</time>
      </trkpt>
      <trkpt lat="45.93556" lon="6.37724">
        <ele>1696</ele>
        <time>2026-08-19T09:19:17.344Z</time>
      </trkpt>
      <trkpt lat="45.93555" lon="6.37725">
        <ele>1695</ele>
        <time>2026-08-19T09:19:18.344Z</time>
      </trkpt>
      <trkpt lat="45.93554" lon="6.37725">
        <ele>1694</ele>
        <time>2026-08-19T09:19:19.344Z</time>
      </trkpt>
      <trkpt lat="45.93554" lon="6.37726">
        <ele>1694</ele>
        <time>2026-08-19T09:19:20.344Z</time>
      </trkpt>
      <trkpt lat="45.93552" lon="6.37727">
        <ele>1693</ele>
        <time>2026-08-19T09:19:21.344Z</time>
      </trkpt>
      <trkpt lat="45.93551" lon="6.37728">
        <ele>1693</ele>
        <time>2026-08-19T09:19:22.344Z</time>
      </trkpt>
      <trkpt lat="45.9355" lon="6.3773">
        <ele>1692</ele>
        <time>2026-08-19T09:19:23.344Z</time>
      </trkpt>
      <trkpt lat="45.93548" lon="6.37732">
        <ele>1692</ele>
        <time>2026-08-19T09:19:24.344Z</time>
      </trkpt>
      <trkpt lat="45.93547" lon="6.37732">
        <ele>1692</ele>
        <time>2026-08-19T09:19:25.344Z</time>
      </trkpt>
      <trkpt lat="45.93547" lon="6.37733">
        <ele>1691</ele>
        <time>2026-08-19T09:19:26.344Z</time>
      </trkpt>
      <trkpt lat="45.93546" lon="6.37734">
        <ele>1691</ele>
        <time>2026-08-19T09:19:27.344Z</time>
      </trkpt>
      <trkpt lat="45.93545" lon="6.37734">
        <ele>1690</ele>
        <time>2026-08-19T09:19:28.344Z</time>
      </trkpt>
      <trkpt lat="45.93544" lon="6.37735">
        <ele>1690</ele>
        <time>2026-08-19T09:19:29.344Z</time>
      </trkpt>
      <trkpt lat="45.93543" lon="6.37736">
        <ele>1689</ele>
        <time>2026-08-19T09:19:30.344Z</time>
      </trkpt>
      <trkpt lat="45.93542" lon="6.37736">
        <ele>1689</ele>
        <time>2026-08-19T09:19:31.344Z</time>
      </trkpt>
      <trkpt lat="45.93541" lon="6.37735">
        <ele>1688</ele>
        <time>2026-08-19T09:19:32.344Z</time>
      </trkpt>
      <trkpt lat="45.93539" lon="6.37734">
        <ele>1687</ele>
        <time>2026-08-19T09:19:33.344Z</time>
      </trkpt>
      <trkpt lat="45.93538" lon="6.37733">
        <ele>1687</ele>
        <time>2026-08-19T09:19:34.344Z</time>
      </trkpt>
      <trkpt lat="45.93537" lon="6.37733">
        <ele>1686</ele>
        <time>2026-08-19T09:19:35.344Z</time>
      </trkpt>
      <trkpt lat="45.93536" lon="6.37733">
        <ele>1686</ele>
        <time>2026-08-19T09:19:36.344Z</time>
      </trkpt>
      <trkpt lat="45.93535" lon="6.37732">
        <ele>1685</ele>
        <time>2026-08-19T09:19:37.344Z</time>
      </trkpt>
      <trkpt lat="45.93534" lon="6.37731">
        <ele>1685</ele>
        <time>2026-08-19T09:19:38.344Z</time>
      </trkpt>
      <trkpt lat="45.93533" lon="6.3773">
        <ele>1684</ele>
        <time>2026-08-19T09:19:39.344Z</time>
      </trkpt>
      <trkpt lat="45.93532" lon="6.37729">
        <ele>1684</ele>
        <time>2026-08-19T09:19:40.344Z</time>
      </trkpt>
      <trkpt lat="45.93531" lon="6.37728">
        <ele>1683</ele>
        <time>2026-08-19T09:19:41.344Z</time>
      </trkpt>
      <trkpt lat="45.9353" lon="6.37727">
        <ele>1683</ele>
        <time>2026-08-19T09:19:42.344Z</time>
      </trkpt>
      <trkpt lat="45.93529" lon="6.37726">
        <ele>1682</ele>
        <time>2026-08-19T09:19:43.344Z</time>
      </trkpt>
      <trkpt lat="45.93529" lon="6.37724">
        <ele>1682</ele>
        <time>2026-08-19T09:19:44.344Z</time>
      </trkpt>
      <trkpt lat="45.93528" lon="6.37723">
        <ele>1682</ele>
        <time>2026-08-19T09:19:45.344Z</time>
      </trkpt>
      <trkpt lat="45.93528" lon="6.37722">
        <ele>1682</ele>
        <time>2026-08-19T09:19:46.344Z</time>
      </trkpt>
      <trkpt lat="45.93528" lon="6.37721">
        <ele>1682</ele>
        <time>2026-08-19T09:19:47.344Z</time>
      </trkpt>
      <trkpt lat="45.93528" lon="6.3772">
        <ele>1682</ele>
        <time>2026-08-19T09:19:48.344Z</time>
      </trkpt>
      <trkpt lat="45.93528" lon="6.37719">
        <ele>1682</ele>
        <time>2026-08-19T09:19:49.344Z</time>
      </trkpt>
      <trkpt lat="45.93527" lon="6.37719">
        <ele>1682</ele>
        <time>2026-08-19T09:19:50.344Z</time>
      </trkpt>
      <trkpt lat="45.93527" lon="6.37719">
        <ele>1682</ele>
        <time>2026-08-19T09:19:51.344Z</time>
      </trkpt>
      <trkpt lat="45.93526" lon="6.37719">
        <ele>1683</ele>
        <time>2026-08-19T09:19:52.344Z</time>
      </trkpt>
      <trkpt lat="45.93525" lon="6.3772">
        <ele>1683</ele>
        <time>2026-08-19T09:19:53.344Z</time>
      </trkpt>
      <trkpt lat="45.93524" lon="6.37719">
        <ele>1683</ele>
        <time>2026-08-19T09:19:54.344Z</time>
      </trkpt>
      <trkpt lat="45.93524" lon="6.37718">
        <ele>1682</ele>
        <time>2026-08-19T09:19:55.344Z</time>
      </trkpt>
      <trkpt lat="45.93524" lon="6.37718">
        <ele>1682</ele>
        <time>2026-08-19T09:19:56.344Z</time>
      </trkpt>
      <trkpt lat="45.93522" lon="6.37717">
        <ele>1682</ele>
        <time>2026-08-19T09:19:57.344Z</time>
      </trkpt>
      <trkpt lat="45.93522" lon="6.37716">
        <ele>1682</ele>
        <time>2026-08-19T09:19:58.344Z</time>
      </trkpt>
      <trkpt lat="45.93521" lon="6.37715">
        <ele>1682</ele>
        <time>2026-08-19T09:19:59.344Z</time>
      </trkpt>
      <trkpt lat="45.9352" lon="6.37714">
        <ele>1682</ele>
        <time>2026-08-19T09:20:00.344Z</time>
      </trkpt>
      <trkpt lat="45.93519" lon="6.37714">
        <ele>1682</ele>
        <time>2026-08-19T09:20:01.344Z</time>
      </trkpt>
      <trkpt lat="45.93519" lon="6.37713">
        <ele>1682</ele>
        <time>2026-08-19T09:20:02.344Z</time>
      </trkpt>
      <trkpt lat="45.93518" lon="6.37713">
        <ele>1681</ele>
        <time>2026-08-19T09:20:03.344Z</time>
      </trkpt>
      <trkpt lat="45.93517" lon="6.37712">
        <ele>1681</ele>
        <time>2026-08-19T09:20:04.344Z</time>
      </trkpt>
      <trkpt lat="45.93516" lon="6.37712">
        <ele>1681</ele>
        <time>2026-08-19T09:20:05.344Z</time>
      </trkpt>
      <trkpt lat="45.93515" lon="6.37711">
        <ele>1681</ele>
        <time>2026-08-19T09:20:06.344Z</time>
      </trkpt>
      <trkpt lat="45.93514" lon="6.37711">
        <ele>1680</ele>
        <time>2026-08-19T09:20:07.344Z</time>
      </trkpt>
      <trkpt lat="45.93513" lon="6.37711">
        <ele>1680</ele>
        <time>2026-08-19T09:20:08.345Z</time>
      </trkpt>
      <trkpt lat="45.93512" lon="6.37712">
        <ele>1680</ele>
        <time>2026-08-19T09:20:09.344Z</time>
      </trkpt>
      <trkpt lat="45.93511" lon="6.37712">
        <ele>1679</ele>
        <time>2026-08-19T09:20:10.344Z</time>
      </trkpt>
      <trkpt lat="45.9351" lon="6.37713">
        <ele>1679</ele>
        <time>2026-08-19T09:20:11.344Z</time>
      </trkpt>
      <trkpt lat="45.93509" lon="6.37714">
        <ele>1678</ele>
        <time>2026-08-19T09:20:12.344Z</time>
      </trkpt>
      <trkpt lat="45.93508" lon="6.37715">
        <ele>1678</ele>
        <time>2026-08-19T09:20:13.344Z</time>
      </trkpt>
      <trkpt lat="45.93507" lon="6.37717">
        <ele>1677</ele>
        <time>2026-08-19T09:20:14.344Z</time>
      </trkpt>
      <trkpt lat="45.93505" lon="6.37718">
        <ele>1677</ele>
        <time>2026-08-19T09:20:15.344Z</time>
      </trkpt>
      <trkpt lat="45.93504" lon="6.37719">
        <ele>1677</ele>
        <time>2026-08-19T09:20:16.344Z</time>
      </trkpt>
      <trkpt lat="45.93502" lon="6.37719">
        <ele>1677</ele>
        <time>2026-08-19T09:20:17.344Z</time>
      </trkpt>
      <trkpt lat="45.93501" lon="6.37719">
        <ele>1676</ele>
        <time>2026-08-19T09:20:18.344Z</time>
      </trkpt>
      <trkpt lat="45.935" lon="6.37719">
        <ele>1676</ele>
        <time>2026-08-19T09:20:19.344Z</time>
      </trkpt>
      <trkpt lat="45.935" lon="6.37719">
        <ele>1676</ele>
        <time>2026-08-19T09:20:20.344Z</time>
      </trkpt>
      <trkpt lat="45.93499" lon="6.3772">
        <ele>1676</ele>
        <time>2026-08-19T09:20:21.344Z</time>
      </trkpt>
      <trkpt lat="45.93499" lon="6.3772">
        <ele>1675</ele>
        <time>2026-08-19T09:20:22.344Z</time>
      </trkpt>
      <trkpt lat="45.93498" lon="6.3772">
        <ele>1675</ele>
        <time>2026-08-19T09:20:23.344Z</time>
      </trkpt>
      <trkpt lat="45.93497" lon="6.3772">
        <ele>1675</ele>
        <time>2026-08-19T09:20:24.344Z</time>
      </trkpt>
      <trkpt lat="45.93496" lon="6.3772">
        <ele>1675</ele>
        <time>2026-08-19T09:20:25.344Z</time>
      </trkpt>
      <trkpt lat="45.93495" lon="6.3772">
        <ele>1675</ele>
        <time>2026-08-19T09:20:26.344Z</time>
      </trkpt>
      <trkpt lat="45.93493" lon="6.3772">
        <ele>1675</ele>
        <time>2026-08-19T09:20:27.344Z</time>
      </trkpt>
      <trkpt lat="45.93493" lon="6.3772">
        <ele>1676</ele>
        <time>2026-08-19T09:20:28.344Z</time>
      </trkpt>
      <trkpt lat="45.93491" lon="6.3772">
        <ele>1676</ele>
        <time>2026-08-19T09:20:29.344Z</time>
      </trkpt>
      <trkpt lat="45.9349" lon="6.3772">
        <ele>1676</ele>
        <time>2026-08-19T09:20:30.344Z</time>
      </trkpt>
      <trkpt lat="45.93488" lon="6.3772">
        <ele>1676</ele>
        <time>2026-08-19T09:20:31.344Z</time>
      </trkpt>
      <trkpt lat="45.93487" lon="6.3772">
        <ele>1676</ele>
        <time>2026-08-19T09:20:32.344Z</time>
      </trkpt>
      <trkpt lat="45.93486" lon="6.3772">
        <ele>1675</ele>
        <time>2026-08-19T09:20:33.344Z</time>
      </trkpt>
      <trkpt lat="45.93485" lon="6.3772">
        <ele>1674</ele>
        <time>2026-08-19T09:20:34.344Z</time>
      </trkpt>
      <trkpt lat="45.93485" lon="6.37721">
        <ele>1674</ele>
        <time>2026-08-19T09:20:35.344Z</time>
      </trkpt>
      <trkpt lat="45.93484" lon="6.37722">
        <ele>1674</ele>
        <time>2026-08-19T09:20:36.344Z</time>
      </trkpt>
      <trkpt lat="45.93483" lon="6.37723">
        <ele>1673</ele>
        <time>2026-08-19T09:20:37.344Z</time>
      </trkpt>
      <trkpt lat="45.93482" lon="6.37724">
        <ele>1673</ele>
        <time>2026-08-19T09:20:38.344Z</time>
      </trkpt>
      <trkpt lat="45.93481" lon="6.37724">
        <ele>1673</ele>
        <time>2026-08-19T09:20:39.344Z</time>
      </trkpt>
      <trkpt lat="45.9348" lon="6.37724">
        <ele>1672</ele>
        <time>2026-08-19T09:20:40.344Z</time>
      </trkpt>
      <trkpt lat="45.93479" lon="6.37723">
        <ele>1671</ele>
        <time>2026-08-19T09:20:41.344Z</time>
      </trkpt>
      <trkpt lat="45.93479" lon="6.37723">
        <ele>1670</ele>
        <time>2026-08-19T09:20:42.344Z</time>
      </trkpt>
      <trkpt lat="45.93478" lon="6.37723">
        <ele>1670</ele>
        <time>2026-08-19T09:20:43.344Z</time>
      </trkpt>
      <trkpt lat="45.93477" lon="6.37723">
        <ele>1670</ele>
        <time>2026-08-19T09:20:44.344Z</time>
      </trkpt>
      <trkpt lat="45.93477" lon="6.37724">
        <ele>1669</ele>
        <time>2026-08-19T09:20:45.344Z</time>
      </trkpt>
      <trkpt lat="45.93476" lon="6.37724">
        <ele>1669</ele>
        <time>2026-08-19T09:20:46.344Z</time>
      </trkpt>
      <trkpt lat="45.93475" lon="6.37725">
        <ele>1669</ele>
        <time>2026-08-19T09:20:47.344Z</time>
      </trkpt>
      <trkpt lat="45.93475" lon="6.37726">
        <ele>1668</ele>
        <time>2026-08-19T09:20:48.344Z</time>
      </trkpt>
      <trkpt lat="45.93474" lon="6.37727">
        <ele>1668</ele>
        <time>2026-08-19T09:20:49.344Z</time>
      </trkpt>
      <trkpt lat="45.93473" lon="6.37727">
        <ele>1668</ele>
        <time>2026-08-19T09:20:50.344Z</time>
      </trkpt>
      <trkpt lat="45.93472" lon="6.37728">
        <ele>1667</ele>
        <time>2026-08-19T09:20:51.344Z</time>
      </trkpt>
      <trkpt lat="45.93471" lon="6.37728">
        <ele>1667</ele>
        <time>2026-08-19T09:20:52.344Z</time>
      </trkpt>
      <trkpt lat="45.9347" lon="6.37728">
        <ele>1667</ele>
        <time>2026-08-19T09:20:53.344Z</time>
      </trkpt>
      <trkpt lat="45.9347" lon="6.37728">
        <ele>1667</ele>
        <time>2026-08-19T09:20:54.344Z</time>
      </trkpt>
      <trkpt lat="45.93469" lon="6.37728">
        <ele>1667</ele>
        <time>2026-08-19T09:20:55.344Z</time>
      </trkpt>
      <trkpt lat="45.93468" lon="6.37728">
        <ele>1667</ele>
        <time>2026-08-19T09:20:56.344Z</time>
      </trkpt>
      <trkpt lat="45.93468" lon="6.37727">
        <ele>1668</ele>
        <time>2026-08-19T09:20:57.344Z</time>
      </trkpt>
      <trkpt lat="45.93464" lon="6.37725">
        <ele>1668</ele>
        <time>2026-08-19T09:20:58.344Z</time>
      </trkpt>
      <trkpt lat="45.93462" lon="6.37724">
        <ele>1669</ele>
        <time>2026-08-19T09:20:59.344Z</time>
      </trkpt>
      <trkpt lat="45.93461" lon="6.37724">
        <ele>1669</ele>
        <time>2026-08-19T09:21:00.344Z</time>
      </trkpt>
      <trkpt lat="45.9346" lon="6.37724">
        <ele>1669</ele>
        <time>2026-08-19T09:21:01.344Z</time>
      </trkpt>
      <trkpt lat="45.93459" lon="6.37724">
        <ele>1669</ele>
        <time>2026-08-19T09:21:02.344Z</time>
      </trkpt>
      <trkpt lat="45.93458" lon="6.37724">
        <ele>1669</ele>
        <time>2026-08-19T09:21:03.344Z</time>
      </trkpt>
      <trkpt lat="45.93458" lon="6.37726">
        <ele>1668</ele>
        <time>2026-08-19T09:21:04.344Z</time>
      </trkpt>
      <trkpt lat="45.93458" lon="6.37727">
        <ele>1668</ele>
        <time>2026-08-19T09:21:05.344Z</time>
      </trkpt>
      <trkpt lat="45.93458" lon="6.37728">
        <ele>1667</ele>
        <time>2026-08-19T09:21:06.344Z</time>
      </trkpt>
      <trkpt lat="45.93457" lon="6.37729">
        <ele>1667</ele>
        <time>2026-08-19T09:21:07.344Z</time>
      </trkpt>
      <trkpt lat="45.93456" lon="6.37729">
        <ele>1666</ele>
        <time>2026-08-19T09:21:08.344Z</time>
      </trkpt>
      <trkpt lat="45.93456" lon="6.3773">
        <ele>1666</ele>
        <time>2026-08-19T09:21:09.344Z</time>
      </trkpt>
      <trkpt lat="45.93454" lon="6.3773">
        <ele>1666</ele>
        <time>2026-08-19T09:21:10.344Z</time>
      </trkpt>
      <trkpt lat="45.93454" lon="6.3773">
        <ele>1665</ele>
        <time>2026-08-19T09:21:11.344Z</time>
      </trkpt>
      <trkpt lat="45.93453" lon="6.3773">
        <ele>1665</ele>
        <time>2026-08-19T09:21:12.344Z</time>
      </trkpt>
      <trkpt lat="45.93452" lon="6.37731">
        <ele>1665</ele>
        <time>2026-08-19T09:21:13.344Z</time>
      </trkpt>
      <trkpt lat="45.93452" lon="6.37731">
        <ele>1665</ele>
        <time>2026-08-19T09:21:14.344Z</time>
      </trkpt>
      <trkpt lat="45.93453" lon="6.37731">
        <ele>1664</ele>
        <time>2026-08-19T09:21:15.344Z</time>
      </trkpt>
      <trkpt lat="45.93452" lon="6.37732">
        <ele>1664</ele>
        <time>2026-08-19T09:21:16.344Z</time>
      </trkpt>
      <trkpt lat="45.93452" lon="6.37732">
        <ele>1663</ele>
        <time>2026-08-19T09:21:17.344Z</time>
      </trkpt>
      <trkpt lat="45.93451" lon="6.37732">
        <ele>1663</ele>
        <time>2026-08-19T09:21:18.344Z</time>
      </trkpt>
      <trkpt lat="45.93451" lon="6.37732">
        <ele>1663</ele>
        <time>2026-08-19T09:21:19.345Z</time>
      </trkpt>
      <trkpt lat="45.9345" lon="6.37732">
        <ele>1662</ele>
        <time>2026-08-19T09:21:20.344Z</time>
      </trkpt>
      <trkpt lat="45.9345" lon="6.37731">
        <ele>1662</ele>
        <time>2026-08-19T09:21:21.344Z</time>
      </trkpt>
      <trkpt lat="45.93449" lon="6.37731">
        <ele>1662</ele>
        <time>2026-08-19T09:21:22.344Z</time>
      </trkpt>
      <trkpt lat="45.93449" lon="6.37731">
        <ele>1661</ele>
        <time>2026-08-19T09:21:23.344Z</time>
      </trkpt>
      <trkpt lat="45.93448" lon="6.3773">
        <ele>1661</ele>
        <time>2026-08-19T09:21:24.344Z</time>
      </trkpt>
      <trkpt lat="45.93447" lon="6.3773">
        <ele>1660</ele>
        <time>2026-08-19T09:21:25.344Z</time>
      </trkpt>
      <trkpt lat="45.93447" lon="6.3773">
        <ele>1660</ele>
        <time>2026-08-19T09:21:26.344Z</time>
      </trkpt>
      <trkpt lat="45.93446" lon="6.3773">
        <ele>1659</ele>
        <time>2026-08-19T09:21:27.344Z</time>
      </trkpt>
      <trkpt lat="45.93446" lon="6.3773">
        <ele>1659</ele>
        <time>2026-08-19T09:21:28.344Z</time>
      </trkpt>
      <trkpt lat="45.93445" lon="6.37731">
        <ele>1659</ele>
        <time>2026-08-19T09:21:29.344Z</time>
      </trkpt>
      <trkpt lat="45.93445" lon="6.37732">
        <ele>1658</ele>
        <time>2026-08-19T09:21:30.344Z</time>
      </trkpt>
      <trkpt lat="45.93445" lon="6.37732">
        <ele>1658</ele>
        <time>2026-08-19T09:21:31.344Z</time>
      </trkpt>
      <trkpt lat="45.93445" lon="6.37732">
        <ele>1658</ele>
        <time>2026-08-19T09:21:32.344Z</time>
      </trkpt>
      <trkpt lat="45.93445" lon="6.37732">
        <ele>1658</ele>
        <time>2026-08-19T09:21:33.344Z</time>
      </trkpt>
      <trkpt lat="45.93445" lon="6.37733">
        <ele>1658</ele>
        <time>2026-08-19T09:21:34.344Z</time>
      </trkpt>
      <trkpt lat="45.93444" lon="6.37733">
        <ele>1657</ele>
        <time>2026-08-19T09:21:35.344Z</time>
      </trkpt>
      <trkpt lat="45.93443" lon="6.37733">
        <ele>1657</ele>
        <time>2026-08-19T09:21:36.344Z</time>
      </trkpt>
      <trkpt lat="45.93443" lon="6.37733">
        <ele>1656</ele>
        <time>2026-08-19T09:21:37.344Z</time>
      </trkpt>
      <trkpt lat="45.93441" lon="6.37735">
        <ele>1656</ele>
        <time>2026-08-19T09:21:38.344Z</time>
      </trkpt>
      <trkpt lat="45.9344" lon="6.37736">
        <ele>1656</ele>
        <time>2026-08-19T09:21:39.344Z</time>
      </trkpt>
      <trkpt lat="45.9344" lon="6.37737">
        <ele>1656</ele>
        <time>2026-08-19T09:21:40.344Z</time>
      </trkpt>
      <trkpt lat="45.93439" lon="6.37739">
        <ele>1655</ele>
        <time>2026-08-19T09:21:41.344Z</time>
      </trkpt>
      <trkpt lat="45.93437" lon="6.37739">
        <ele>1656</ele>
        <time>2026-08-19T09:21:42.344Z</time>
      </trkpt>
      <trkpt lat="45.93437" lon="6.3774">
        <ele>1655</ele>
        <time>2026-08-19T09:21:43.344Z</time>
      </trkpt>
      <trkpt lat="45.93436" lon="6.3774">
        <ele>1655</ele>
        <time>2026-08-19T09:21:44.344Z</time>
      </trkpt>
      <trkpt lat="45.93434" lon="6.37741">
        <ele>1655</ele>
        <time>2026-08-19T09:21:45.344Z</time>
      </trkpt>
      <trkpt lat="45.93433" lon="6.37742">
        <ele>1654</ele>
        <time>2026-08-19T09:21:46.344Z</time>
      </trkpt>
      <trkpt lat="45.93432" lon="6.37743">
        <ele>1654</ele>
        <time>2026-08-19T09:21:47.344Z</time>
      </trkpt>
      <trkpt lat="45.93432" lon="6.37744">
        <ele>1653</ele>
        <time>2026-08-19T09:21:48.344Z</time>
      </trkpt>
      <trkpt lat="45.93431" lon="6.37744">
        <ele>1653</ele>
        <time>2026-08-19T09:21:49.344Z</time>
      </trkpt>
      <trkpt lat="45.9343" lon="6.37745">
        <ele>1653</ele>
        <time>2026-08-19T09:21:50.344Z</time>
      </trkpt>
      <trkpt lat="45.93429" lon="6.37745">
        <ele>1653</ele>
        <time>2026-08-19T09:21:51.344Z</time>
      </trkpt>
      <trkpt lat="45.93428" lon="6.37746">
        <ele>1652</ele>
        <time>2026-08-19T09:21:52.344Z</time>
      </trkpt>
      <trkpt lat="45.93426" lon="6.37747">
        <ele>1652</ele>
        <time>2026-08-19T09:21:53.344Z</time>
      </trkpt>
      <trkpt lat="45.93425" lon="6.37748">
        <ele>1652</ele>
        <time>2026-08-19T09:21:54.344Z</time>
      </trkpt>
      <trkpt lat="45.93424" lon="6.37749">
        <ele>1651</ele>
        <time>2026-08-19T09:21:55.344Z</time>
      </trkpt>
      <trkpt lat="45.93423" lon="6.37749">
        <ele>1651</ele>
        <time>2026-08-19T09:21:56.344Z</time>
      </trkpt>
      <trkpt lat="45.93422" lon="6.3775">
        <ele>1650</ele>
        <time>2026-08-19T09:21:57.344Z</time>
      </trkpt>
      <trkpt lat="45.9342" lon="6.37751">
        <ele>1649</ele>
        <time>2026-08-19T09:21:58.344Z</time>
      </trkpt>
      <trkpt lat="45.93419" lon="6.37752">
        <ele>1647</ele>
        <time>2026-08-19T09:21:59.344Z</time>
      </trkpt>
      <trkpt lat="45.93418" lon="6.37751">
        <ele>1646</ele>
        <time>2026-08-19T09:22:00.344Z</time>
      </trkpt>
      <trkpt lat="45.93418" lon="6.3775">
        <ele>1645</ele>
        <time>2026-08-19T09:22:01.344Z</time>
      </trkpt>
      <trkpt lat="45.93417" lon="6.3775">
        <ele>1643</ele>
        <time>2026-08-19T09:22:02.344Z</time>
      </trkpt>
      <trkpt lat="45.93414" lon="6.37749">
        <ele>1643</ele>
        <time>2026-08-19T09:22:03.344Z</time>
      </trkpt>
      <trkpt lat="45.93412" lon="6.37749">
        <ele>1642</ele>
        <time>2026-08-19T09:22:04.344Z</time>
      </trkpt>
      <trkpt lat="45.9341" lon="6.37749">
        <ele>1641</ele>
        <time>2026-08-19T09:22:05.344Z</time>
      </trkpt>
      <trkpt lat="45.93409" lon="6.3775">
        <ele>1641</ele>
        <time>2026-08-19T09:22:06.344Z</time>
      </trkpt>
      <trkpt lat="45.93407" lon="6.3775">
        <ele>1640</ele>
        <time>2026-08-19T09:22:07.344Z</time>
      </trkpt>
      <trkpt lat="45.93406" lon="6.3775">
        <ele>1640</ele>
        <time>2026-08-19T09:22:08.344Z</time>
      </trkpt>
      <trkpt lat="45.93405" lon="6.37751">
        <ele>1639</ele>
        <time>2026-08-19T09:22:09.344Z</time>
      </trkpt>
      <trkpt lat="45.93404" lon="6.37752">
        <ele>1639</ele>
        <time>2026-08-19T09:22:10.344Z</time>
      </trkpt>
      <trkpt lat="45.93403" lon="6.37753">
        <ele>1639</ele>
        <time>2026-08-19T09:22:11.344Z</time>
      </trkpt>
      <trkpt lat="45.93402" lon="6.37755">
        <ele>1638</ele>
        <time>2026-08-19T09:22:12.344Z</time>
      </trkpt>
      <trkpt lat="45.93401" lon="6.37757">
        <ele>1638</ele>
        <time>2026-08-19T09:22:13.344Z</time>
      </trkpt>
      <trkpt lat="45.93399" lon="6.37758">
        <ele>1637</ele>
        <time>2026-08-19T09:22:14.344Z</time>
      </trkpt>
      <trkpt lat="45.93398" lon="6.3776">
        <ele>1637</ele>
        <time>2026-08-19T09:22:15.344Z</time>
      </trkpt>
      <trkpt lat="45.93398" lon="6.37761">
        <ele>1636</ele>
        <time>2026-08-19T09:22:16.344Z</time>
      </trkpt>
      <trkpt lat="45.93396" lon="6.37762">
        <ele>1636</ele>
        <time>2026-08-19T09:22:17.344Z</time>
      </trkpt>
      <trkpt lat="45.93395" lon="6.37764">
        <ele>1635</ele>
        <time>2026-08-19T09:22:18.344Z</time>
      </trkpt>
      <trkpt lat="45.93393" lon="6.37765">
        <ele>1635</ele>
        <time>2026-08-19T09:22:19.344Z</time>
      </trkpt>
      <trkpt lat="45.93393" lon="6.37765">
        <ele>1635</ele>
        <time>2026-08-19T09:22:20.344Z</time>
      </trkpt>
      <trkpt lat="45.93392" lon="6.37767">
        <ele>1634</ele>
        <time>2026-08-19T09:22:21.344Z</time>
      </trkpt>
      <trkpt lat="45.93392" lon="6.37768">
        <ele>1634</ele>
        <time>2026-08-19T09:22:22.344Z</time>
      </trkpt>
      <trkpt lat="45.93393" lon="6.37769">
        <ele>1634</ele>
        <time>2026-08-19T09:22:23.344Z</time>
      </trkpt>
      <trkpt lat="45.93393" lon="6.37771">
        <ele>1634</ele>
        <time>2026-08-19T09:22:24.344Z</time>
      </trkpt>
      <trkpt lat="45.93393" lon="6.37772">
        <ele>1634</ele>
        <time>2026-08-19T09:22:25.344Z</time>
      </trkpt>
      <trkpt lat="45.93392" lon="6.37773">
        <ele>1634</ele>
        <time>2026-08-19T09:22:26.344Z</time>
      </trkpt>
      <trkpt lat="45.93392" lon="6.37775">
        <ele>1634</ele>
        <time>2026-08-19T09:22:27.344Z</time>
      </trkpt>
      <trkpt lat="45.93391" lon="6.37776">
        <ele>1633</ele>
        <time>2026-08-19T09:22:28.344Z</time>
      </trkpt>
      <trkpt lat="45.93391" lon="6.37778">
        <ele>1633</ele>
        <time>2026-08-19T09:22:29.344Z</time>
      </trkpt>
      <trkpt lat="45.93391" lon="6.37779">
        <ele>1633</ele>
        <time>2026-08-19T09:22:30.344Z</time>
      </trkpt>
      <trkpt lat="45.9339" lon="6.37781">
        <ele>1632</ele>
        <time>2026-08-19T09:22:31.344Z</time>
      </trkpt>
      <trkpt lat="45.93389" lon="6.37782">
        <ele>1632</ele>
        <time>2026-08-19T09:22:32.344Z</time>
      </trkpt>
      <trkpt lat="45.93389" lon="6.37784">
        <ele>1632</ele>
        <time>2026-08-19T09:22:33.345Z</time>
      </trkpt>
      <trkpt lat="45.93388" lon="6.37785">
        <ele>1631</ele>
        <time>2026-08-19T09:22:34.344Z</time>
      </trkpt>
      <trkpt lat="45.93387" lon="6.37787">
        <ele>1631</ele>
        <time>2026-08-19T09:22:35.344Z</time>
      </trkpt>
      <trkpt lat="45.93386" lon="6.37788">
        <ele>1631</ele>
        <time>2026-08-19T09:22:36.344Z</time>
      </trkpt>
      <trkpt lat="45.93385" lon="6.37789">
        <ele>1630</ele>
        <time>2026-08-19T09:22:37.344Z</time>
      </trkpt>
      <trkpt lat="45.93385" lon="6.3779">
        <ele>1630</ele>
        <time>2026-08-19T09:22:38.344Z</time>
      </trkpt>
      <trkpt lat="45.93384" lon="6.37792">
        <ele>1630</ele>
        <time>2026-08-19T09:22:39.344Z</time>
      </trkpt>
      <trkpt lat="45.93383" lon="6.37794">
        <ele>1630</ele>
        <time>2026-08-19T09:22:40.344Z</time>
      </trkpt>
      <trkpt lat="45.93383" lon="6.37796">
        <ele>1629</ele>
        <time>2026-08-19T09:22:41.344Z</time>
      </trkpt>
      <trkpt lat="45.93382" lon="6.37797">
        <ele>1629</ele>
        <time>2026-08-19T09:22:42.344Z</time>
      </trkpt>
      <trkpt lat="45.93381" lon="6.37799">
        <ele>1628</ele>
        <time>2026-08-19T09:22:43.344Z</time>
      </trkpt>
      <trkpt lat="45.9338" lon="6.378">
        <ele>1628</ele>
        <time>2026-08-19T09:22:44.344Z</time>
      </trkpt>
      <trkpt lat="45.93379" lon="6.37801">
        <ele>1627</ele>
        <time>2026-08-19T09:22:45.344Z</time>
      </trkpt>
      <trkpt lat="45.93377" lon="6.37803">
        <ele>1626</ele>
        <time>2026-08-19T09:22:46.344Z</time>
      </trkpt>
      <trkpt lat="45.93375" lon="6.37804">
        <ele>1626</ele>
        <time>2026-08-19T09:22:47.344Z</time>
      </trkpt>
      <trkpt lat="45.93374" lon="6.37805">
        <ele>1625</ele>
        <time>2026-08-19T09:22:48.344Z</time>
      </trkpt>
      <trkpt lat="45.93372" lon="6.37807">
        <ele>1624</ele>
        <time>2026-08-19T09:22:49.344Z</time>
      </trkpt>
      <trkpt lat="45.9337" lon="6.37808">
        <ele>1624</ele>
        <time>2026-08-19T09:22:50.344Z</time>
      </trkpt>
      <trkpt lat="45.93369" lon="6.3781">
        <ele>1624</ele>
        <time>2026-08-19T09:22:51.345Z</time>
      </trkpt>
      <trkpt lat="45.93368" lon="6.37812">
        <ele>1624</ele>
        <time>2026-08-19T09:22:52.344Z</time>
      </trkpt>
      <trkpt lat="45.93367" lon="6.37813">
        <ele>1624</ele>
        <time>2026-08-19T09:22:53.344Z</time>
      </trkpt>
      <trkpt lat="45.93366" lon="6.37814">
        <ele>1623</ele>
        <time>2026-08-19T09:22:54.344Z</time>
      </trkpt>
      <trkpt lat="45.93364" lon="6.37814">
        <ele>1623</ele>
        <time>2026-08-19T09:22:55.344Z</time>
      </trkpt>
      <trkpt lat="45.93363" lon="6.37815">
        <ele>1623</ele>
        <time>2026-08-19T09:22:56.345Z</time>
      </trkpt>
      <trkpt lat="45.93361" lon="6.37815">
        <ele>1623</ele>
        <time>2026-08-19T09:22:57.344Z</time>
      </trkpt>
      <trkpt lat="45.9336" lon="6.37816">
        <ele>1622</ele>
        <time>2026-08-19T09:22:58.344Z</time>
      </trkpt>
      <trkpt lat="45.93359" lon="6.37816">
        <ele>1622</ele>
        <time>2026-08-19T09:22:59.344Z</time>
      </trkpt>
      <trkpt lat="45.93358" lon="6.37818">
        <ele>1622</ele>
        <time>2026-08-19T09:23:00.344Z</time>
      </trkpt>
      <trkpt lat="45.93358" lon="6.37819">
        <ele>1622</ele>
        <time>2026-08-19T09:23:01.344Z</time>
      </trkpt>
      <trkpt lat="45.93357" lon="6.37821">
        <ele>1622</ele>
        <time>2026-08-19T09:23:02.344Z</time>
      </trkpt>
      <trkpt lat="45.93357" lon="6.37823">
        <ele>1622</ele>
        <time>2026-08-19T09:23:03.344Z</time>
      </trkpt>
      <trkpt lat="45.93356" lon="6.37825">
        <ele>1622</ele>
        <time>2026-08-19T09:23:04.344Z</time>
      </trkpt>
      <trkpt lat="45.93354" lon="6.37828">
        <ele>1622</ele>
        <time>2026-08-19T09:23:05.344Z</time>
      </trkpt>
      <trkpt lat="45.93352" lon="6.3783">
        <ele>1621</ele>
        <time>2026-08-19T09:23:06.344Z</time>
      </trkpt>
      <trkpt lat="45.93351" lon="6.37831">
        <ele>1621</ele>
        <time>2026-08-19T09:23:07.344Z</time>
      </trkpt>
      <trkpt lat="45.93351" lon="6.37831">
        <ele>1621</ele>
        <time>2026-08-19T09:23:08.344Z</time>
      </trkpt>
      <trkpt lat="45.9335" lon="6.37832">
        <ele>1620</ele>
        <time>2026-08-19T09:23:09.344Z</time>
      </trkpt>
      <trkpt lat="45.9335" lon="6.37832">
        <ele>1620</ele>
        <time>2026-08-19T09:23:10.344Z</time>
      </trkpt>
      <trkpt lat="45.9335" lon="6.37831">
        <ele>1620</ele>
        <time>2026-08-19T09:23:11.344Z</time>
      </trkpt>
      <trkpt lat="45.9335" lon="6.37831">
        <ele>1619</ele>
        <time>2026-08-19T09:23:12.344Z</time>
      </trkpt>
      <trkpt lat="45.93349" lon="6.37831">
        <ele>1619</ele>
        <time>2026-08-19T09:23:13.344Z</time>
      </trkpt>
      <trkpt lat="45.93349" lon="6.37831">
        <ele>1619</ele>
        <time>2026-08-19T09:23:14.344Z</time>
      </trkpt>
      <trkpt lat="45.93349" lon="6.37831">
        <ele>1619</ele>
        <time>2026-08-19T09:23:15.344Z</time>
      </trkpt>
      <trkpt lat="45.93349" lon="6.37831">
        <ele>1620</ele>
        <time>2026-08-19T09:23:16.344Z</time>
      </trkpt>
      <trkpt lat="45.93349" lon="6.3783">
        <ele>1620</ele>
        <time>2026-08-19T09:23:17.344Z</time>
      </trkpt>
      <trkpt lat="45.93348" lon="6.3783">
        <ele>1620</ele>
        <time>2026-08-19T09:23:18.345Z</time>
      </trkpt>
      <trkpt lat="45.93349" lon="6.37831">
        <ele>1620</ele>
        <time>2026-08-19T09:23:19.344Z</time>
      </trkpt>
      <trkpt lat="45.93349" lon="6.37831">
        <ele>1620</ele>
        <time>2026-08-19T09:23:20.344Z</time>
      </trkpt>
      <trkpt lat="45.93349" lon="6.37832">
        <ele>1620</ele>
        <time>2026-08-19T09:23:21.344Z</time>
      </trkpt>
      <trkpt lat="45.93349" lon="6.37832">
        <ele>1619</ele>
        <time>2026-08-19T09:23:22.344Z</time>
      </trkpt>
      <trkpt lat="45.93349" lon="6.37833">
        <ele>1618</ele>
        <time>2026-08-19T09:23:23.344Z</time>
      </trkpt>
      <trkpt lat="45.93349" lon="6.37833">
        <ele>1617</ele>
        <time>2026-08-19T09:23:24.344Z</time>
      </trkpt>
      <trkpt lat="45.93349" lon="6.37834">
        <ele>1616</ele>
        <time>2026-08-19T09:23:25.344Z</time>
      </trkpt>
      <trkpt lat="45.93348" lon="6.37835">
        <ele>1616</ele>
        <time>2026-08-19T09:23:26.344Z</time>
      </trkpt>
      <trkpt lat="45.93348" lon="6.37836">
        <ele>1615</ele>
        <time>2026-08-19T09:23:27.344Z</time>
      </trkpt>
      <trkpt lat="45.93348" lon="6.37838">
        <ele>1615</ele>
        <time>2026-08-19T09:23:28.344Z</time>
      </trkpt>
      <trkpt lat="45.93347" lon="6.37839">
        <ele>1615</ele>
        <time>2026-08-19T09:23:29.345Z</time>
      </trkpt>
      <trkpt lat="45.93347" lon="6.37841">
        <ele>1615</ele>
        <time>2026-08-19T09:23:30.344Z</time>
      </trkpt>
      <trkpt lat="45.93346" lon="6.37842">
        <ele>1615</ele>
        <time>2026-08-19T09:23:31.344Z</time>
      </trkpt>
      <trkpt lat="45.93345" lon="6.37843">
        <ele>1614</ele>
        <time>2026-08-19T09:23:32.344Z</time>
      </trkpt>
      <trkpt lat="45.93344" lon="6.37844">
        <ele>1614</ele>
        <time>2026-08-19T09:23:33.344Z</time>
      </trkpt>
      <trkpt lat="45.93343" lon="6.37846">
        <ele>1614</ele>
        <time>2026-08-19T09:23:34.344Z</time>
      </trkpt>
      <trkpt lat="45.93343" lon="6.37847">
        <ele>1614</ele>
        <time>2026-08-19T09:23:35.344Z</time>
      </trkpt>
      <trkpt lat="45.93343" lon="6.37848">
        <ele>1615</ele>
        <time>2026-08-19T09:23:36.344Z</time>
      </trkpt>
      <trkpt lat="45.93343" lon="6.37849">
        <ele>1615</ele>
        <time>2026-08-19T09:23:37.344Z</time>
      </trkpt>
      <trkpt lat="45.93344" lon="6.3785">
        <ele>1615</ele>
        <time>2026-08-19T09:23:38.344Z</time>
      </trkpt>
      <trkpt lat="45.93344" lon="6.37852">
        <ele>1615</ele>
        <time>2026-08-19T09:23:39.344Z</time>
      </trkpt>
      <trkpt lat="45.93343" lon="6.37853">
        <ele>1615</ele>
        <time>2026-08-19T09:23:40.344Z</time>
      </trkpt>
      <trkpt lat="45.93344" lon="6.37854">
        <ele>1615</ele>
        <time>2026-08-19T09:23:41.344Z</time>
      </trkpt>
      <trkpt lat="45.93344" lon="6.37854">
        <ele>1615</ele>
        <time>2026-08-19T09:23:42.344Z</time>
      </trkpt>
      <trkpt lat="45.93344" lon="6.37856">
        <ele>1616</ele>
        <time>2026-08-19T09:23:43.344Z</time>
      </trkpt>
      <trkpt lat="45.93343" lon="6.37858">
        <ele>1616</ele>
        <time>2026-08-19T09:23:44.344Z</time>
      </trkpt>
      <trkpt lat="45.93343" lon="6.3786">
        <ele>1616</ele>
        <time>2026-08-19T09:23:45.344Z</time>
      </trkpt>
      <trkpt lat="45.93342" lon="6.37861">
        <ele>1617</ele>
        <time>2026-08-19T09:23:46.344Z</time>
      </trkpt>
      <trkpt lat="45.93342" lon="6.37863">
        <ele>1617</ele>
        <time>2026-08-19T09:23:47.344Z</time>
      </trkpt>
      <trkpt lat="45.93342" lon="6.37864">
        <ele>1617</ele>
        <time>2026-08-19T09:23:48.344Z</time>
      </trkpt>
      <trkpt lat="45.93343" lon="6.37865">
        <ele>1617</ele>
        <time>2026-08-19T09:23:49.344Z</time>
      </trkpt>
      <trkpt lat="45.93343" lon="6.37866">
        <ele>1617</ele>
        <time>2026-08-19T09:23:50.344Z</time>
      </trkpt>
      <trkpt lat="45.93343" lon="6.37867">
        <ele>1617</ele>
        <time>2026-08-19T09:23:51.344Z</time>
      </trkpt>
      <trkpt lat="45.93343" lon="6.37868">
        <ele>1617</ele>
        <time>2026-08-19T09:23:52.344Z</time>
      </trkpt>
      <trkpt lat="45.93342" lon="6.3787">
        <ele>1617</ele>
        <time>2026-08-19T09:23:53.344Z</time>
      </trkpt>
      <trkpt lat="45.93341" lon="6.37872">
        <ele>1618</ele>
        <time>2026-08-19T09:23:54.344Z</time>
      </trkpt>
      <trkpt lat="45.9334" lon="6.37874">
        <ele>1618</ele>
        <time>2026-08-19T09:23:55.344Z</time>
      </trkpt>
      <trkpt lat="45.93339" lon="6.37875">
        <ele>1619</ele>
        <time>2026-08-19T09:23:56.344Z</time>
      </trkpt>
      <trkpt lat="45.93339" lon="6.37875">
        <ele>1619</ele>
        <time>2026-08-19T09:23:57.344Z</time>
      </trkpt>
      <trkpt lat="45.93339" lon="6.37875">
        <ele>1619</ele>
        <time>2026-08-19T09:23:58.344Z</time>
      </trkpt>
      <trkpt lat="45.93339" lon="6.37875">
        <ele>1619</ele>
        <time>2026-08-19T09:23:59.344Z</time>
      </trkpt>
      <trkpt lat="45.93339" lon="6.37875">
        <ele>1620</ele>
        <time>2026-08-19T09:24:00.344Z</time>
      </trkpt>
      <trkpt lat="45.93339" lon="6.37875">
        <ele>1620</ele>
        <time>2026-08-19T09:24:01.345Z</time>
      </trkpt>
      <trkpt lat="45.9334" lon="6.37875">
        <ele>1620</ele>
        <time>2026-08-19T09:24:02.344Z</time>
      </trkpt>
      <trkpt lat="45.93341" lon="6.37875">
        <ele>1620</ele>
        <time>2026-08-19T09:24:03.344Z</time>
      </trkpt>
      <trkpt lat="45.93342" lon="6.37875">
        <ele>1619</ele>
        <time>2026-08-19T09:24:04.344Z</time>
      </trkpt>
      <trkpt lat="45.93343" lon="6.37875">
        <ele>1619</ele>
        <time>2026-08-19T09:24:05.345Z</time>
      </trkpt>
      <trkpt lat="45.93344" lon="6.37875">
        <ele>1620</ele>
        <time>2026-08-19T09:24:06.344Z</time>
      </trkpt>
      <trkpt lat="45.93346" lon="6.37876">
        <ele>1619</ele>
        <time>2026-08-19T09:24:07.344Z</time>
      </trkpt>
      <trkpt lat="45.93347" lon="6.37875">
        <ele>1619</ele>
        <time>2026-08-19T09:24:08.344Z</time>
      </trkpt>
      <trkpt lat="45.93349" lon="6.37875">
        <ele>1619</ele>
        <time>2026-08-19T09:24:09.344Z</time>
      </trkpt>
      <trkpt lat="45.93349" lon="6.37874">
        <ele>1619</ele>
        <time>2026-08-19T09:24:10.344Z</time>
      </trkpt>
      <trkpt lat="45.9335" lon="6.37874">
        <ele>1619</ele>
        <time>2026-08-19T09:24:11.344Z</time>
      </trkpt>
      <trkpt lat="45.93351" lon="6.37873">
        <ele>1619</ele>
        <time>2026-08-19T09:24:12.344Z</time>
      </trkpt>
      <trkpt lat="45.93352" lon="6.37873">
        <ele>1619</ele>
        <time>2026-08-19T09:24:13.344Z</time>
      </trkpt>
      <trkpt lat="45.93354" lon="6.37873">
        <ele>1619</ele>
        <time>2026-08-19T09:24:14.344Z</time>
      </trkpt>
      <trkpt lat="45.93356" lon="6.37872">
        <ele>1619</ele>
        <time>2026-08-19T09:24:15.344Z</time>
      </trkpt>
      <trkpt lat="45.93358" lon="6.37872">
        <ele>1619</ele>
        <time>2026-08-19T09:24:16.344Z</time>
      </trkpt>
      <trkpt lat="45.93359" lon="6.37872">
        <ele>1619</ele>
        <time>2026-08-19T09:24:17.344Z</time>
      </trkpt>
      <trkpt lat="45.93361" lon="6.37871">
        <ele>1619</ele>
        <time>2026-08-19T09:24:18.344Z</time>
      </trkpt>
      <trkpt lat="45.93362" lon="6.37871">
        <ele>1619</ele>
        <time>2026-08-19T09:24:19.344Z</time>
      </trkpt>
      <trkpt lat="45.93364" lon="6.37871">
        <ele>1620</ele>
        <time>2026-08-19T09:24:20.344Z</time>
      </trkpt>
      <trkpt lat="45.93365" lon="6.37871">
        <ele>1620</ele>
        <time>2026-08-19T09:24:21.344Z</time>
      </trkpt>
      <trkpt lat="45.93367" lon="6.37871">
        <ele>1620</ele>
        <time>2026-08-19T09:24:22.344Z</time>
      </trkpt>
      <trkpt lat="45.93368" lon="6.37871">
        <ele>1620</ele>
        <time>2026-08-19T09:24:23.344Z</time>
      </trkpt>
      <trkpt lat="45.93369" lon="6.37872">
        <ele>1620</ele>
        <time>2026-08-19T09:24:24.344Z</time>
      </trkpt>
      <trkpt lat="45.9337" lon="6.37873">
        <ele>1620</ele>
        <time>2026-08-19T09:24:25.344Z</time>
      </trkpt>
      <trkpt lat="45.93371" lon="6.37874">
        <ele>1621</ele>
        <time>2026-08-19T09:24:26.344Z</time>
      </trkpt>
      <trkpt lat="45.93372" lon="6.37875">
        <ele>1621</ele>
        <time>2026-08-19T09:24:27.344Z</time>
      </trkpt>
      <trkpt lat="45.93372" lon="6.37876">
        <ele>1621</ele>
        <time>2026-08-19T09:24:28.344Z</time>
      </trkpt>
      <trkpt lat="45.93372" lon="6.37876">
        <ele>1621</ele>
        <time>2026-08-19T09:24:29.344Z</time>
      </trkpt>
      <trkpt lat="45.93373" lon="6.37877">
        <ele>1621</ele>
        <time>2026-08-19T09:24:30.344Z</time>
      </trkpt>
      <trkpt lat="45.93373" lon="6.37878">
        <ele>1621</ele>
        <time>2026-08-19T09:24:31.344Z</time>
      </trkpt>
      <trkpt lat="45.93373" lon="6.37878">
        <ele>1621</ele>
        <time>2026-08-19T09:24:32.344Z</time>
      </trkpt>
      <trkpt lat="45.93374" lon="6.37879">
        <ele>1621</ele>
        <time>2026-08-19T09:24:33.345Z</time>
      </trkpt>
      <trkpt lat="45.93374" lon="6.37879">
        <ele>1622</ele>
        <time>2026-08-19T09:24:34.344Z</time>
      </trkpt>
      <trkpt lat="45.93374" lon="6.37879">
        <ele>1623</ele>
        <time>2026-08-19T09:24:35.344Z</time>
      </trkpt>
      <trkpt lat="45.93375" lon="6.37879">
        <ele>1623</ele>
        <time>2026-08-19T09:24:36.344Z</time>
      </trkpt>
      <trkpt lat="45.93376" lon="6.37879">
        <ele>1624</ele>
        <time>2026-08-19T09:24:37.344Z</time>
      </trkpt>
      <trkpt lat="45.93377" lon="6.37879">
        <ele>1624</ele>
        <time>2026-08-19T09:24:38.344Z</time>
      </trkpt>
      <trkpt lat="45.93378" lon="6.37879">
        <ele>1625</ele>
        <time>2026-08-19T09:24:39.344Z</time>
      </trkpt>
      <trkpt lat="45.93379" lon="6.37879">
        <ele>1625</ele>
        <time>2026-08-19T09:24:40.344Z</time>
      </trkpt>
      <trkpt lat="45.9338" lon="6.37879">
        <ele>1625</ele>
        <time>2026-08-19T09:24:41.344Z</time>
      </trkpt>
      <trkpt lat="45.93381" lon="6.3788">
        <ele>1626</ele>
        <time>2026-08-19T09:24:42.344Z</time>
      </trkpt>
      <trkpt lat="45.93382" lon="6.37881">
        <ele>1626</ele>
        <time>2026-08-19T09:24:43.344Z</time>
      </trkpt>
      <trkpt lat="45.93382" lon="6.37881">
        <ele>1627</ele>
        <time>2026-08-19T09:24:44.344Z</time>
      </trkpt>
      <trkpt lat="45.93383" lon="6.37881">
        <ele>1628</ele>
        <time>2026-08-19T09:24:45.344Z</time>
      </trkpt>
      <trkpt lat="45.93384" lon="6.37881">
        <ele>1628</ele>
        <time>2026-08-19T09:24:46.344Z</time>
      </trkpt>
      <trkpt lat="45.93385" lon="6.37881">
        <ele>1629</ele>
        <time>2026-08-19T09:24:47.344Z</time>
      </trkpt>
      <trkpt lat="45.93385" lon="6.37881">
        <ele>1630</ele>
        <time>2026-08-19T09:24:48.344Z</time>
      </trkpt>
      <trkpt lat="45.93386" lon="6.37881">
        <ele>1631</ele>
        <time>2026-08-19T09:24:49.344Z</time>
      </trkpt>
      <trkpt lat="45.93387" lon="6.3788">
        <ele>1631</ele>
        <time>2026-08-19T09:24:50.344Z</time>
      </trkpt>
      <trkpt lat="45.93388" lon="6.3788">
        <ele>1632</ele>
        <time>2026-08-19T09:24:51.344Z</time>
      </trkpt>
      <trkpt lat="45.93389" lon="6.37881">
        <ele>1633</ele>
        <time>2026-08-19T09:24:52.344Z</time>
      </trkpt>
      <trkpt lat="45.9339" lon="6.37881">
        <ele>1634</ele>
        <time>2026-08-19T09:24:53.344Z</time>
      </trkpt>
      <trkpt lat="45.93391" lon="6.37882">
        <ele>1634</ele>
        <time>2026-08-19T09:24:54.344Z</time>
      </trkpt>
      <trkpt lat="45.93392" lon="6.37882">
        <ele>1635</ele>
        <time>2026-08-19T09:24:55.344Z</time>
      </trkpt>
      <trkpt lat="45.93392" lon="6.37882">
        <ele>1635</ele>
        <time>2026-08-19T09:24:56.344Z</time>
      </trkpt>
      <trkpt lat="45.93393" lon="6.37883">
        <ele>1635</ele>
        <time>2026-08-19T09:24:57.344Z</time>
      </trkpt>
      <trkpt lat="45.93394" lon="6.37883">
        <ele>1636</ele>
        <time>2026-08-19T09:24:58.344Z</time>
      </trkpt>
      <trkpt lat="45.93395" lon="6.37884">
        <ele>1637</ele>
        <time>2026-08-19T09:24:59.344Z</time>
      </trkpt>
      <trkpt lat="45.93396" lon="6.37885">
        <ele>1637</ele>
        <time>2026-08-19T09:25:00.344Z</time>
      </trkpt>
      <trkpt lat="45.93396" lon="6.37885">
        <ele>1638</ele>
        <time>2026-08-19T09:25:01.344Z</time>
      </trkpt>
      <trkpt lat="45.93397" lon="6.37885">
        <ele>1638</ele>
        <time>2026-08-19T09:25:02.344Z</time>
      </trkpt>
      <trkpt lat="45.93398" lon="6.37885">
        <ele>1639</ele>
        <time>2026-08-19T09:25:03.344Z</time>
      </trkpt>
      <trkpt lat="45.93399" lon="6.37885">
        <ele>1639</ele>
        <time>2026-08-19T09:25:04.344Z</time>
      </trkpt>
      <trkpt lat="45.934" lon="6.37884">
        <ele>1639</ele>
        <time>2026-08-19T09:25:05.344Z</time>
      </trkpt>
      <trkpt lat="45.934" lon="6.37884">
        <ele>1639</ele>
        <time>2026-08-19T09:25:06.344Z</time>
      </trkpt>
      <trkpt lat="45.93401" lon="6.37884">
        <ele>1640</ele>
        <time>2026-08-19T09:25:07.344Z</time>
      </trkpt>
      <trkpt lat="45.93402" lon="6.37884">
        <ele>1640</ele>
        <time>2026-08-19T09:25:08.344Z</time>
      </trkpt>
      <trkpt lat="45.93403" lon="6.37884">
        <ele>1640</ele>
        <time>2026-08-19T09:25:09.344Z</time>
      </trkpt>
      <trkpt lat="45.93404" lon="6.37883">
        <ele>1640</ele>
        <time>2026-08-19T09:25:10.344Z</time>
      </trkpt>
      <trkpt lat="45.93405" lon="6.37883">
        <ele>1640</ele>
        <time>2026-08-19T09:25:11.344Z</time>
      </trkpt>
      <trkpt lat="45.93405" lon="6.37884">
        <ele>1640</ele>
        <time>2026-08-19T09:25:12.344Z</time>
      </trkpt>
      <trkpt lat="45.93406" lon="6.37884">
        <ele>1640</ele>
        <time>2026-08-19T09:25:13.344Z</time>
      </trkpt>
      <trkpt lat="45.93407" lon="6.37885">
        <ele>1641</ele>
        <time>2026-08-19T09:25:14.344Z</time>
      </trkpt>
      <trkpt lat="45.93408" lon="6.37886">
        <ele>1641</ele>
        <time>2026-08-19T09:25:15.344Z</time>
      </trkpt>
      <trkpt lat="45.93409" lon="6.37886">
        <ele>1642</ele>
        <time>2026-08-19T09:25:16.344Z</time>
      </trkpt>
      <trkpt lat="45.9341" lon="6.37887">
        <ele>1642</ele>
        <time>2026-08-19T09:25:17.344Z</time>
      </trkpt>
      <trkpt lat="45.9341" lon="6.37887">
        <ele>1642</ele>
        <time>2026-08-19T09:25:18.344Z</time>
      </trkpt>
      <trkpt lat="45.93411" lon="6.37887">
        <ele>1642</ele>
        <time>2026-08-19T09:25:19.344Z</time>
      </trkpt>
      <trkpt lat="45.93412" lon="6.37888">
        <ele>1642</ele>
        <time>2026-08-19T09:25:20.344Z</time>
      </trkpt>
      <trkpt lat="45.93413" lon="6.37889">
        <ele>1642</ele>
        <time>2026-08-19T09:25:21.344Z</time>
      </trkpt>
      <trkpt lat="45.93414" lon="6.3789">
        <ele>1642</ele>
        <time>2026-08-19T09:25:22.344Z</time>
      </trkpt>
      <trkpt lat="45.93416" lon="6.37891">
        <ele>1642</ele>
        <time>2026-08-19T09:25:23.344Z</time>
      </trkpt>
      <trkpt lat="45.93417" lon="6.37891">
        <ele>1642</ele>
        <time>2026-08-19T09:25:24.344Z</time>
      </trkpt>
      <trkpt lat="45.93417" lon="6.37892">
        <ele>1642</ele>
        <time>2026-08-19T09:25:25.344Z</time>
      </trkpt>
      <trkpt lat="45.93418" lon="6.37892">
        <ele>1642</ele>
        <time>2026-08-19T09:25:26.344Z</time>
      </trkpt>
      <trkpt lat="45.93419" lon="6.37893">
        <ele>1642</ele>
        <time>2026-08-19T09:25:27.344Z</time>
      </trkpt>
      <trkpt lat="45.9342" lon="6.37893">
        <ele>1642</ele>
        <time>2026-08-19T09:25:28.344Z</time>
      </trkpt>
      <trkpt lat="45.9342" lon="6.37894">
        <ele>1641</ele>
        <time>2026-08-19T09:25:29.344Z</time>
      </trkpt>
      <trkpt lat="45.93421" lon="6.37895">
        <ele>1640</ele>
        <time>2026-08-19T09:25:30.344Z</time>
      </trkpt>
      <trkpt lat="45.93422" lon="6.37895">
        <ele>1640</ele>
        <time>2026-08-19T09:25:31.344Z</time>
      </trkpt>
      <trkpt lat="45.93423" lon="6.37895">
        <ele>1640</ele>
        <time>2026-08-19T09:25:32.344Z</time>
      </trkpt>
      <trkpt lat="45.93424" lon="6.37895">
        <ele>1640</ele>
        <time>2026-08-19T09:25:33.344Z</time>
      </trkpt>
      <trkpt lat="45.93426" lon="6.37896">
        <ele>1640</ele>
        <time>2026-08-19T09:25:34.344Z</time>
      </trkpt>
      <trkpt lat="45.93426" lon="6.37897">
        <ele>1640</ele>
        <time>2026-08-19T09:25:35.344Z</time>
      </trkpt>
      <trkpt lat="45.93427" lon="6.37897">
        <ele>1640</ele>
        <time>2026-08-19T09:25:36.344Z</time>
      </trkpt>
      <trkpt lat="45.93429" lon="6.37898">
        <ele>1640</ele>
        <time>2026-08-19T09:25:37.344Z</time>
      </trkpt>
      <trkpt lat="45.93429" lon="6.37899">
        <ele>1640</ele>
        <time>2026-08-19T09:25:38.344Z</time>
      </trkpt>
      <trkpt lat="45.93431" lon="6.379">
        <ele>1640</ele>
        <time>2026-08-19T09:25:39.344Z</time>
      </trkpt>
      <trkpt lat="45.93432" lon="6.37901">
        <ele>1640</ele>
        <time>2026-08-19T09:25:40.344Z</time>
      </trkpt>
      <trkpt lat="45.93432" lon="6.37902">
        <ele>1640</ele>
        <time>2026-08-19T09:25:41.344Z</time>
      </trkpt>
      <trkpt lat="45.93434" lon="6.37903">
        <ele>1639</ele>
        <time>2026-08-19T09:25:42.344Z</time>
      </trkpt>
      <trkpt lat="45.93436" lon="6.37904">
        <ele>1639</ele>
        <time>2026-08-19T09:25:43.344Z</time>
      </trkpt>
      <trkpt lat="45.93437" lon="6.37905">
        <ele>1639</ele>
        <time>2026-08-19T09:25:44.344Z</time>
      </trkpt>
      <trkpt lat="45.93439" lon="6.37905">
        <ele>1639</ele>
        <time>2026-08-19T09:25:45.344Z</time>
      </trkpt>
      <trkpt lat="45.9344" lon="6.37906">
        <ele>1639</ele>
        <time>2026-08-19T09:25:46.344Z</time>
      </trkpt>
      <trkpt lat="45.93441" lon="6.37906">
        <ele>1639</ele>
        <time>2026-08-19T09:25:47.344Z</time>
      </trkpt>
      <trkpt lat="45.93443" lon="6.37905">
        <ele>1639</ele>
        <time>2026-08-19T09:25:48.344Z</time>
      </trkpt>
      <trkpt lat="45.93444" lon="6.37905">
        <ele>1639</ele>
        <time>2026-08-19T09:25:49.344Z</time>
      </trkpt>
      <trkpt lat="45.93444" lon="6.37904">
        <ele>1639</ele>
        <time>2026-08-19T09:25:50.344Z</time>
      </trkpt>
      <trkpt lat="45.93445" lon="6.37904">
        <ele>1638</ele>
        <time>2026-08-19T09:25:51.344Z</time>
      </trkpt>
      <trkpt lat="45.93446" lon="6.37903">
        <ele>1638</ele>
        <time>2026-08-19T09:25:52.344Z</time>
      </trkpt>
      <trkpt lat="45.93448" lon="6.37903">
        <ele>1638</ele>
        <time>2026-08-19T09:25:53.344Z</time>
      </trkpt>
      <trkpt lat="45.93449" lon="6.37904">
        <ele>1638</ele>
        <time>2026-08-19T09:25:54.344Z</time>
      </trkpt>
      <trkpt lat="45.9345" lon="6.37904">
        <ele>1638</ele>
        <time>2026-08-19T09:25:55.344Z</time>
      </trkpt>
      <trkpt lat="45.93452" lon="6.37905">
        <ele>1638</ele>
        <time>2026-08-19T09:25:56.344Z</time>
      </trkpt>
      <trkpt lat="45.93453" lon="6.37906">
        <ele>1637</ele>
        <time>2026-08-19T09:25:57.344Z</time>
      </trkpt>
      <trkpt lat="45.93454" lon="6.37906">
        <ele>1637</ele>
        <time>2026-08-19T09:25:58.344Z</time>
      </trkpt>
      <trkpt lat="45.93455" lon="6.37906">
        <ele>1637</ele>
        <time>2026-08-19T09:25:59.345Z</time>
      </trkpt>
      <trkpt lat="45.93455" lon="6.37907">
        <ele>1637</ele>
        <time>2026-08-19T09:26:00.344Z</time>
      </trkpt>
      <trkpt lat="45.93456" lon="6.37907">
        <ele>1637</ele>
        <time>2026-08-19T09:26:01.344Z</time>
      </trkpt>
      <trkpt lat="45.93457" lon="6.37907">
        <ele>1637</ele>
        <time>2026-08-19T09:26:02.344Z</time>
      </trkpt>
      <trkpt lat="45.93458" lon="6.37907">
        <ele>1637</ele>
        <time>2026-08-19T09:26:03.344Z</time>
      </trkpt>
      <trkpt lat="45.93458" lon="6.37908">
        <ele>1636</ele>
        <time>2026-08-19T09:26:04.344Z</time>
      </trkpt>
      <trkpt lat="45.93459" lon="6.37908">
        <ele>1636</ele>
        <time>2026-08-19T09:26:05.344Z</time>
      </trkpt>
      <trkpt lat="45.9346" lon="6.37909">
        <ele>1636</ele>
        <time>2026-08-19T09:26:06.344Z</time>
      </trkpt>
      <trkpt lat="45.93461" lon="6.37909">
        <ele>1636</ele>
        <time>2026-08-19T09:26:07.344Z</time>
      </trkpt>
      <trkpt lat="45.93462" lon="6.3791">
        <ele>1636</ele>
        <time>2026-08-19T09:26:08.344Z</time>
      </trkpt>
      <trkpt lat="45.93463" lon="6.3791">
        <ele>1636</ele>
        <time>2026-08-19T09:26:09.344Z</time>
      </trkpt>
      <trkpt lat="45.93464" lon="6.37911">
        <ele>1637</ele>
        <time>2026-08-19T09:26:10.344Z</time>
      </trkpt>
      <trkpt lat="45.93464" lon="6.37912">
        <ele>1637</ele>
        <time>2026-08-19T09:26:11.344Z</time>
      </trkpt>
      <trkpt lat="45.93466" lon="6.37912">
        <ele>1637</ele>
        <time>2026-08-19T09:26:12.344Z</time>
      </trkpt>
      <trkpt lat="45.93467" lon="6.37913">
        <ele>1637</ele>
        <time>2026-08-19T09:26:13.344Z</time>
      </trkpt>
      <trkpt lat="45.93468" lon="6.37913">
        <ele>1637</ele>
        <time>2026-08-19T09:26:14.344Z</time>
      </trkpt>
      <trkpt lat="45.93469" lon="6.37914">
        <ele>1637</ele>
        <time>2026-08-19T09:26:15.344Z</time>
      </trkpt>
      <trkpt lat="45.9347" lon="6.37914">
        <ele>1638</ele>
        <time>2026-08-19T09:26:16.344Z</time>
      </trkpt>
      <trkpt lat="45.93471" lon="6.37915">
        <ele>1637</ele>
        <time>2026-08-19T09:26:17.344Z</time>
      </trkpt>
      <trkpt lat="45.93471" lon="6.37916">
        <ele>1637</ele>
        <time>2026-08-19T09:26:18.344Z</time>
      </trkpt>
      <trkpt lat="45.93471" lon="6.37917">
        <ele>1637</ele>
        <time>2026-08-19T09:26:19.344Z</time>
      </trkpt>
      <trkpt lat="45.93472" lon="6.37918">
        <ele>1637</ele>
        <time>2026-08-19T09:26:20.344Z</time>
      </trkpt>
      <trkpt lat="45.93472" lon="6.37919">
        <ele>1637</ele>
        <time>2026-08-19T09:26:21.344Z</time>
      </trkpt>
      <trkpt lat="45.93472" lon="6.37919">
        <ele>1637</ele>
        <time>2026-08-19T09:26:22.344Z</time>
      </trkpt>
      <trkpt lat="45.93472" lon="6.3792">
        <ele>1637</ele>
        <time>2026-08-19T09:26:23.344Z</time>
      </trkpt>
      <trkpt lat="45.93472" lon="6.37921">
        <ele>1637</ele>
        <time>2026-08-19T09:26:24.344Z</time>
      </trkpt>
      <trkpt lat="45.93473" lon="6.37922">
        <ele>1637</ele>
        <time>2026-08-19T09:26:25.344Z</time>
      </trkpt>
      <trkpt lat="45.93473" lon="6.37925">
        <ele>1637</ele>
        <time>2026-08-19T09:26:26.344Z</time>
      </trkpt>
      <trkpt lat="45.93473" lon="6.37925">
        <ele>1637</ele>
        <time>2026-08-19T09:26:27.344Z</time>
      </trkpt>
      <trkpt lat="45.93473" lon="6.37926">
        <ele>1637</ele>
        <time>2026-08-19T09:26:28.345Z</time>
      </trkpt>
      <trkpt lat="45.93474" lon="6.37926">
        <ele>1637</ele>
        <time>2026-08-19T09:26:29.344Z</time>
      </trkpt>
      <trkpt lat="45.93474" lon="6.37926">
        <ele>1637</ele>
        <time>2026-08-19T09:26:30.344Z</time>
      </trkpt>
      <trkpt lat="45.93475" lon="6.37926">
        <ele>1637</ele>
        <time>2026-08-19T09:26:31.344Z</time>
      </trkpt>
      <trkpt lat="45.93475" lon="6.37927">
        <ele>1636</ele>
        <time>2026-08-19T09:26:32.344Z</time>
      </trkpt>
      <trkpt lat="45.93476" lon="6.37928">
        <ele>1636</ele>
        <time>2026-08-19T09:26:33.344Z</time>
      </trkpt>
      <trkpt lat="45.93476" lon="6.37929">
        <ele>1636</ele>
        <time>2026-08-19T09:26:34.344Z</time>
      </trkpt>
      <trkpt lat="45.93477" lon="6.37931">
        <ele>1636</ele>
        <time>2026-08-19T09:26:35.344Z</time>
      </trkpt>
      <trkpt lat="45.93479" lon="6.37932">
        <ele>1635</ele>
        <time>2026-08-19T09:26:36.344Z</time>
      </trkpt>
      <trkpt lat="45.9348" lon="6.37933">
        <ele>1635</ele>
        <time>2026-08-19T09:26:37.344Z</time>
      </trkpt>
      <trkpt lat="45.93481" lon="6.37934">
        <ele>1634</ele>
        <time>2026-08-19T09:26:38.344Z</time>
      </trkpt>
      <trkpt lat="45.93482" lon="6.37935">
        <ele>1634</ele>
        <time>2026-08-19T09:26:39.344Z</time>
      </trkpt>
      <trkpt lat="45.93482" lon="6.37936">
        <ele>1634</ele>
        <time>2026-08-19T09:26:40.344Z</time>
      </trkpt>
      <trkpt lat="45.93482" lon="6.37937">
        <ele>1633</ele>
        <time>2026-08-19T09:26:41.344Z</time>
      </trkpt>
      <trkpt lat="45.93482" lon="6.37938">
        <ele>1633</ele>
        <time>2026-08-19T09:26:42.344Z</time>
      </trkpt>
      <trkpt lat="45.93483" lon="6.3794">
        <ele>1633</ele>
        <time>2026-08-19T09:26:43.344Z</time>
      </trkpt>
      <trkpt lat="45.93484" lon="6.37941">
        <ele>1633</ele>
        <time>2026-08-19T09:26:44.344Z</time>
      </trkpt>
      <trkpt lat="45.93485" lon="6.37941">
        <ele>1633</ele>
        <time>2026-08-19T09:26:45.344Z</time>
      </trkpt>
      <trkpt lat="45.93487" lon="6.37942">
        <ele>1633</ele>
        <time>2026-08-19T09:26:46.344Z</time>
      </trkpt>
      <trkpt lat="45.93488" lon="6.37943">
        <ele>1634</ele>
        <time>2026-08-19T09:26:47.344Z</time>
      </trkpt>
      <trkpt lat="45.93489" lon="6.37944">
        <ele>1634</ele>
        <time>2026-08-19T09:26:48.344Z</time>
      </trkpt>
      <trkpt lat="45.93489" lon="6.37945">
        <ele>1635</ele>
        <time>2026-08-19T09:26:49.344Z</time>
      </trkpt>
      <trkpt lat="45.9349" lon="6.37947">
        <ele>1635</ele>
        <time>2026-08-19T09:26:50.344Z</time>
      </trkpt>
      <trkpt lat="45.93491" lon="6.37948">
        <ele>1636</ele>
        <time>2026-08-19T09:26:51.344Z</time>
      </trkpt>
      <trkpt lat="45.93492" lon="6.37949">
        <ele>1636</ele>
        <time>2026-08-19T09:26:52.344Z</time>
      </trkpt>
      <trkpt lat="45.93492" lon="6.3795">
        <ele>1637</ele>
        <time>2026-08-19T09:26:53.344Z</time>
      </trkpt>
      <trkpt lat="45.93493" lon="6.3795">
        <ele>1637</ele>
        <time>2026-08-19T09:26:54.344Z</time>
      </trkpt>
      <trkpt lat="45.93493" lon="6.3795">
        <ele>1637</ele>
        <time>2026-08-19T09:26:55.344Z</time>
      </trkpt>
      <trkpt lat="45.93493" lon="6.3795">
        <ele>1637</ele>
        <time>2026-08-19T09:26:56.344Z</time>
      </trkpt>
      <trkpt lat="45.93493" lon="6.3795">
        <ele>1637</ele>
        <time>2026-08-19T09:26:57.344Z</time>
      </trkpt>
      <trkpt lat="45.93493" lon="6.3795">
        <ele>1637</ele>
        <time>2026-08-19T09:26:58.344Z</time>
      </trkpt>
      <trkpt lat="45.93494" lon="6.3795">
        <ele>1637</ele>
        <time>2026-08-19T09:26:59.344Z</time>
      </trkpt>
      <trkpt lat="45.93495" lon="6.3795">
        <ele>1637</ele>
        <time>2026-08-19T09:27:00.344Z</time>
      </trkpt>
      <trkpt lat="45.93496" lon="6.3795">
        <ele>1637</ele>
        <time>2026-08-19T09:27:01.344Z</time>
      </trkpt>
      <trkpt lat="45.93497" lon="6.37949">
        <ele>1637</ele>
        <time>2026-08-19T09:27:02.344Z</time>
      </trkpt>
      <trkpt lat="45.93498" lon="6.37949">
        <ele>1637</ele>
        <time>2026-08-19T09:27:03.344Z</time>
      </trkpt>
      <trkpt lat="45.93499" lon="6.37949">
        <ele>1638</ele>
        <time>2026-08-19T09:27:04.344Z</time>
      </trkpt>
      <trkpt lat="45.935" lon="6.3795">
        <ele>1638</ele>
        <time>2026-08-19T09:27:05.344Z</time>
      </trkpt>
      <trkpt lat="45.93501" lon="6.37951">
        <ele>1638</ele>
        <time>2026-08-19T09:27:06.344Z</time>
      </trkpt>
      <trkpt lat="45.93502" lon="6.37953">
        <ele>1638</ele>
        <time>2026-08-19T09:27:07.344Z</time>
      </trkpt>
      <trkpt lat="45.93502" lon="6.37954">
        <ele>1638</ele>
        <time>2026-08-19T09:27:08.344Z</time>
      </trkpt>
      <trkpt lat="45.93503" lon="6.37955">
        <ele>1638</ele>
        <time>2026-08-19T09:27:09.344Z</time>
      </trkpt>
      <trkpt lat="45.93504" lon="6.37956">
        <ele>1638</ele>
        <time>2026-08-19T09:27:10.344Z</time>
      </trkpt>
      <trkpt lat="45.93505" lon="6.37956">
        <ele>1639</ele>
        <time>2026-08-19T09:27:11.344Z</time>
      </trkpt>
      <trkpt lat="45.93506" lon="6.37957">
        <ele>1639</ele>
        <time>2026-08-19T09:27:12.344Z</time>
      </trkpt>
      <trkpt lat="45.93506" lon="6.37957">
        <ele>1639</ele>
        <time>2026-08-19T09:27:13.344Z</time>
      </trkpt>
      <trkpt lat="45.93507" lon="6.37957">
        <ele>1639</ele>
        <time>2026-08-19T09:27:14.344Z</time>
      </trkpt>
      <trkpt lat="45.93507" lon="6.37957">
        <ele>1639</ele>
        <time>2026-08-19T09:27:15.344Z</time>
      </trkpt>
      <trkpt lat="45.93508" lon="6.37958">
        <ele>1640</ele>
        <time>2026-08-19T09:27:16.344Z</time>
      </trkpt>
      <trkpt lat="45.93509" lon="6.37959">
        <ele>1640</ele>
        <time>2026-08-19T09:27:17.344Z</time>
      </trkpt>
      <trkpt lat="45.93509" lon="6.37959">
        <ele>1640</ele>
        <time>2026-08-19T09:27:18.344Z</time>
      </trkpt>
      <trkpt lat="45.93509" lon="6.3796">
        <ele>1640</ele>
        <time>2026-08-19T09:27:19.344Z</time>
      </trkpt>
      <trkpt lat="45.93508" lon="6.37961">
        <ele>1640</ele>
        <time>2026-08-19T09:27:20.344Z</time>
      </trkpt>
      <trkpt lat="45.93507" lon="6.37962">
        <ele>1640</ele>
        <time>2026-08-19T09:27:21.344Z</time>
      </trkpt>
      <trkpt lat="45.93507" lon="6.37962">
        <ele>1640</ele>
        <time>2026-08-19T09:27:22.345Z</time>
      </trkpt>
      <trkpt lat="45.93507" lon="6.37963">
        <ele>1640</ele>
        <time>2026-08-19T09:27:23.344Z</time>
      </trkpt>
      <trkpt lat="45.93506" lon="6.37965">
        <ele>1639</ele>
        <time>2026-08-19T09:27:24.344Z</time>
      </trkpt>
      <trkpt lat="45.93506" lon="6.37966">
        <ele>1639</ele>
        <time>2026-08-19T09:27:25.344Z</time>
      </trkpt>
      <trkpt lat="45.93505" lon="6.37968">
        <ele>1639</ele>
        <time>2026-08-19T09:27:26.344Z</time>
      </trkpt>
      <trkpt lat="45.93505" lon="6.37969">
        <ele>1638</ele>
        <time>2026-08-19T09:27:27.344Z</time>
      </trkpt>
      <trkpt lat="45.93505" lon="6.37969">
        <ele>1638</ele>
        <time>2026-08-19T09:27:28.345Z</time>
      </trkpt>
      <trkpt lat="45.93505" lon="6.37971">
        <ele>1638</ele>
        <time>2026-08-19T09:27:29.344Z</time>
      </trkpt>
      <trkpt lat="45.93504" lon="6.37973">
        <ele>1637</ele>
        <time>2026-08-19T09:27:30.344Z</time>
      </trkpt>
      <trkpt lat="45.93504" lon="6.37973">
        <ele>1637</ele>
        <time>2026-08-19T09:27:31.344Z</time>
      </trkpt>
      <trkpt lat="45.93504" lon="6.37974">
        <ele>1638</ele>
        <time>2026-08-19T09:27:32.345Z</time>
      </trkpt>
      <trkpt lat="45.93504" lon="6.37975">
        <ele>1638</ele>
        <time>2026-08-19T09:27:33.344Z</time>
      </trkpt>
      <trkpt lat="45.93505" lon="6.37977">
        <ele>1638</ele>
        <time>2026-08-19T09:27:34.344Z</time>
      </trkpt>
      <trkpt lat="45.93506" lon="6.37979">
        <ele>1639</ele>
        <time>2026-08-19T09:27:35.344Z</time>
      </trkpt>
      <trkpt lat="45.93506" lon="6.37981">
        <ele>1639</ele>
        <time>2026-08-19T09:27:36.345Z</time>
      </trkpt>
      <trkpt lat="45.93507" lon="6.37982">
        <ele>1639</ele>
        <time>2026-08-19T09:27:37.344Z</time>
      </trkpt>
      <trkpt lat="45.93507" lon="6.37984">
        <ele>1639</ele>
        <time>2026-08-19T09:27:38.344Z</time>
      </trkpt>
      <trkpt lat="45.93508" lon="6.37985">
        <ele>1639</ele>
        <time>2026-08-19T09:27:39.344Z</time>
      </trkpt>
      <trkpt lat="45.93509" lon="6.37986">
        <ele>1639</ele>
        <time>2026-08-19T09:27:40.344Z</time>
      </trkpt>
      <trkpt lat="45.93509" lon="6.37987">
        <ele>1639</ele>
        <time>2026-08-19T09:27:41.345Z</time>
      </trkpt>
      <trkpt lat="45.93511" lon="6.37987">
        <ele>1639</ele>
        <time>2026-08-19T09:27:42.344Z</time>
      </trkpt>
      <trkpt lat="45.93512" lon="6.37988">
        <ele>1638</ele>
        <time>2026-08-19T09:27:43.344Z</time>
      </trkpt>
      <trkpt lat="45.93513" lon="6.37989">
        <ele>1638</ele>
        <time>2026-08-19T09:27:44.344Z</time>
      </trkpt>
      <trkpt lat="45.93514" lon="6.37991">
        <ele>1637</ele>
        <time>2026-08-19T09:27:45.344Z</time>
      </trkpt>
      <trkpt lat="45.93514" lon="6.37992">
        <ele>1637</ele>
        <time>2026-08-19T09:27:46.344Z</time>
      </trkpt>
      <trkpt lat="45.93515" lon="6.37994">
        <ele>1637</ele>
        <time>2026-08-19T09:27:47.344Z</time>
      </trkpt>
      <trkpt lat="45.93516" lon="6.37995">
        <ele>1637</ele>
        <time>2026-08-19T09:27:48.344Z</time>
      </trkpt>
      <trkpt lat="45.93517" lon="6.37995">
        <ele>1637</ele>
        <time>2026-08-19T09:27:49.344Z</time>
      </trkpt>
      <trkpt lat="45.93518" lon="6.37995">
        <ele>1637</ele>
        <time>2026-08-19T09:27:50.344Z</time>
      </trkpt>
      <trkpt lat="45.93519" lon="6.37996">
        <ele>1637</ele>
        <time>2026-08-19T09:27:51.344Z</time>
      </trkpt>
      <trkpt lat="45.9352" lon="6.37996">
        <ele>1638</ele>
        <time>2026-08-19T09:27:52.344Z</time>
      </trkpt>
      <trkpt lat="45.93522" lon="6.37998">
        <ele>1638</ele>
        <time>2026-08-19T09:27:53.344Z</time>
      </trkpt>
      <trkpt lat="45.93523" lon="6.37999">
        <ele>1639</ele>
        <time>2026-08-19T09:27:54.344Z</time>
      </trkpt>
      <trkpt lat="45.93524" lon="6.38001">
        <ele>1639</ele>
        <time>2026-08-19T09:27:55.344Z</time>
      </trkpt>
      <trkpt lat="45.93524" lon="6.38004">
        <ele>1639</ele>
        <time>2026-08-19T09:27:56.344Z</time>
      </trkpt>
      <trkpt lat="45.93525" lon="6.38006">
        <ele>1639</ele>
        <time>2026-08-19T09:27:57.344Z</time>
      </trkpt>
      <trkpt lat="45.93525" lon="6.38009">
        <ele>1639</ele>
        <time>2026-08-19T09:27:58.344Z</time>
      </trkpt>
      <trkpt lat="45.93526" lon="6.3801">
        <ele>1639</ele>
        <time>2026-08-19T09:27:59.344Z</time>
      </trkpt>
      <trkpt lat="45.93527" lon="6.38012">
        <ele>1638</ele>
        <time>2026-08-19T09:28:00.344Z</time>
      </trkpt>
      <trkpt lat="45.93527" lon="6.38014">
        <ele>1638</ele>
        <time>2026-08-19T09:28:01.344Z</time>
      </trkpt>
      <trkpt lat="45.93527" lon="6.38015">
        <ele>1638</ele>
        <time>2026-08-19T09:28:02.344Z</time>
      </trkpt>
      <trkpt lat="45.93528" lon="6.38017">
        <ele>1638</ele>
        <time>2026-08-19T09:28:03.344Z</time>
      </trkpt>
      <trkpt lat="45.93528" lon="6.3802">
        <ele>1637</ele>
        <time>2026-08-19T09:28:04.344Z</time>
      </trkpt>
      <trkpt lat="45.93529" lon="6.38023">
        <ele>1637</ele>
        <time>2026-08-19T09:28:05.344Z</time>
      </trkpt>
      <trkpt lat="45.93528" lon="6.38025">
        <ele>1637</ele>
        <time>2026-08-19T09:28:06.344Z</time>
      </trkpt>
      <trkpt lat="45.93528" lon="6.38027">
        <ele>1636</ele>
        <time>2026-08-19T09:28:07.344Z</time>
      </trkpt>
      <trkpt lat="45.93528" lon="6.38029">
        <ele>1636</ele>
        <time>2026-08-19T09:28:08.344Z</time>
      </trkpt>
      <trkpt lat="45.93527" lon="6.38032">
        <ele>1636</ele>
        <time>2026-08-19T09:28:09.344Z</time>
      </trkpt>
      <trkpt lat="45.93526" lon="6.38035">
        <ele>1636</ele>
        <time>2026-08-19T09:28:10.344Z</time>
      </trkpt>
      <trkpt lat="45.93526" lon="6.38037">
        <ele>1636</ele>
        <time>2026-08-19T09:28:11.344Z</time>
      </trkpt>
      <trkpt lat="45.93526" lon="6.38038">
        <ele>1636</ele>
        <time>2026-08-19T09:28:12.344Z</time>
      </trkpt>
      <trkpt lat="45.93526" lon="6.38039">
        <ele>1635</ele>
        <time>2026-08-19T09:28:13.344Z</time>
      </trkpt>
      <trkpt lat="45.93527" lon="6.38039">
        <ele>1635</ele>
        <time>2026-08-19T09:28:14.344Z</time>
      </trkpt>
      <trkpt lat="45.93528" lon="6.3804">
        <ele>1635</ele>
        <time>2026-08-19T09:28:15.344Z</time>
      </trkpt>
      <trkpt lat="45.93529" lon="6.38041">
        <ele>1635</ele>
        <time>2026-08-19T09:28:16.344Z</time>
      </trkpt>
      <trkpt lat="45.9353" lon="6.38042">
        <ele>1634</ele>
        <time>2026-08-19T09:28:17.344Z</time>
      </trkpt>
      <trkpt lat="45.93531" lon="6.38044">
        <ele>1634</ele>
        <time>2026-08-19T09:28:18.344Z</time>
      </trkpt>
      <trkpt lat="45.93531" lon="6.38045">
        <ele>1634</ele>
        <time>2026-08-19T09:28:19.344Z</time>
      </trkpt>
      <trkpt lat="45.93532" lon="6.38045">
        <ele>1633</ele>
        <time>2026-08-19T09:28:20.344Z</time>
      </trkpt>
      <trkpt lat="45.93532" lon="6.38046">
        <ele>1633</ele>
        <time>2026-08-19T09:28:21.344Z</time>
      </trkpt>
      <trkpt lat="45.93532" lon="6.38048">
        <ele>1632</ele>
        <time>2026-08-19T09:28:22.344Z</time>
      </trkpt>
      <trkpt lat="45.93533" lon="6.3805">
        <ele>1632</ele>
        <time>2026-08-19T09:28:23.344Z</time>
      </trkpt>
      <trkpt lat="45.93534" lon="6.38051">
        <ele>1632</ele>
        <time>2026-08-19T09:28:24.344Z</time>
      </trkpt>
      <trkpt lat="45.93534" lon="6.38052">
        <ele>1631</ele>
        <time>2026-08-19T09:28:25.345Z</time>
      </trkpt>
      <trkpt lat="45.93535" lon="6.38053">
        <ele>1631</ele>
        <time>2026-08-19T09:28:26.344Z</time>
      </trkpt>
      <trkpt lat="45.93535" lon="6.38054">
        <ele>1631</ele>
        <time>2026-08-19T09:28:27.344Z</time>
      </trkpt>
      <trkpt lat="45.93536" lon="6.38056">
        <ele>1630</ele>
        <time>2026-08-19T09:28:28.344Z</time>
      </trkpt>
      <trkpt lat="45.93536" lon="6.38057">
        <ele>1630</ele>
        <time>2026-08-19T09:28:29.344Z</time>
      </trkpt>
      <trkpt lat="45.93537" lon="6.38058">
        <ele>1630</ele>
        <time>2026-08-19T09:28:30.344Z</time>
      </trkpt>
      <trkpt lat="45.93538" lon="6.38059">
        <ele>1630</ele>
        <time>2026-08-19T09:28:31.344Z</time>
      </trkpt>
      <trkpt lat="45.93539" lon="6.3806">
        <ele>1630</ele>
        <time>2026-08-19T09:28:32.344Z</time>
      </trkpt>
      <trkpt lat="45.93539" lon="6.38062">
        <ele>1630</ele>
        <time>2026-08-19T09:28:33.344Z</time>
      </trkpt>
      <trkpt lat="45.93539" lon="6.38064">
        <ele>1630</ele>
        <time>2026-08-19T09:28:34.344Z</time>
      </trkpt>
      <trkpt lat="45.93539" lon="6.38065">
        <ele>1630</ele>
        <time>2026-08-19T09:28:35.344Z</time>
      </trkpt>
      <trkpt lat="45.9354" lon="6.38067">
        <ele>1630</ele>
        <time>2026-08-19T09:28:36.344Z</time>
      </trkpt>
      <trkpt lat="45.9354" lon="6.38067">
        <ele>1629</ele>
        <time>2026-08-19T09:28:37.344Z</time>
      </trkpt>
      <trkpt lat="45.9354" lon="6.38068">
        <ele>1629</ele>
        <time>2026-08-19T09:28:38.344Z</time>
      </trkpt>
      <trkpt lat="45.93541" lon="6.38069">
        <ele>1629</ele>
        <time>2026-08-19T09:28:39.345Z</time>
      </trkpt>
      <trkpt lat="45.93542" lon="6.38069">
        <ele>1629</ele>
        <time>2026-08-19T09:28:40.344Z</time>
      </trkpt>
      <trkpt lat="45.93542" lon="6.38069">
        <ele>1629</ele>
        <time>2026-08-19T09:28:41.344Z</time>
      </trkpt>
      <trkpt lat="45.93543" lon="6.3807">
        <ele>1629</ele>
        <time>2026-08-19T09:28:42.344Z</time>
      </trkpt>
      <trkpt lat="45.93544" lon="6.3807">
        <ele>1629</ele>
        <time>2026-08-19T09:28:43.344Z</time>
      </trkpt>
      <trkpt lat="45.93544" lon="6.38072">
        <ele>1629</ele>
        <time>2026-08-19T09:28:44.344Z</time>
      </trkpt>
      <trkpt lat="45.93545" lon="6.38073">
        <ele>1629</ele>
        <time>2026-08-19T09:28:45.344Z</time>
      </trkpt>
      <trkpt lat="45.93545" lon="6.38075">
        <ele>1629</ele>
        <time>2026-08-19T09:28:46.344Z</time>
      </trkpt>
      <trkpt lat="45.93545" lon="6.38076">
        <ele>1630</ele>
        <time>2026-08-19T09:28:47.344Z</time>
      </trkpt>
      <trkpt lat="45.93546" lon="6.38078">
        <ele>1630</ele>
        <time>2026-08-19T09:28:48.344Z</time>
      </trkpt>
      <trkpt lat="45.93547" lon="6.38079">
        <ele>1630</ele>
        <time>2026-08-19T09:28:49.344Z</time>
      </trkpt>
      <trkpt lat="45.93548" lon="6.38079">
        <ele>1630</ele>
        <time>2026-08-19T09:28:50.344Z</time>
      </trkpt>
      <trkpt lat="45.93549" lon="6.38079">
        <ele>1630</ele>
        <time>2026-08-19T09:28:51.344Z</time>
      </trkpt>
      <trkpt lat="45.93549" lon="6.38079">
        <ele>1631</ele>
        <time>2026-08-19T09:28:52.344Z</time>
      </trkpt>
      <trkpt lat="45.9355" lon="6.3808">
        <ele>1631</ele>
        <time>2026-08-19T09:28:53.344Z</time>
      </trkpt>
      <trkpt lat="45.93551" lon="6.3808">
        <ele>1632</ele>
        <time>2026-08-19T09:28:54.344Z</time>
      </trkpt>
      <trkpt lat="45.93551" lon="6.38082">
        <ele>1632</ele>
        <time>2026-08-19T09:28:55.344Z</time>
      </trkpt>
      <trkpt lat="45.93552" lon="6.38083">
        <ele>1632</ele>
        <time>2026-08-19T09:28:56.344Z</time>
      </trkpt>
      <trkpt lat="45.93553" lon="6.38084">
        <ele>1633</ele>
        <time>2026-08-19T09:28:57.344Z</time>
      </trkpt>
      <trkpt lat="45.93554" lon="6.38084">
        <ele>1633</ele>
        <time>2026-08-19T09:28:58.344Z</time>
      </trkpt>
      <trkpt lat="45.93555" lon="6.38085">
        <ele>1633</ele>
        <time>2026-08-19T09:28:59.344Z</time>
      </trkpt>
      <trkpt lat="45.93555" lon="6.38086">
        <ele>1633</ele>
        <time>2026-08-19T09:29:00.344Z</time>
      </trkpt>
      <trkpt lat="45.93555" lon="6.38087">
        <ele>1633</ele>
        <time>2026-08-19T09:29:01.344Z</time>
      </trkpt>
      <trkpt lat="45.93556" lon="6.38088">
        <ele>1633</ele>
        <time>2026-08-19T09:29:02.344Z</time>
      </trkpt>
      <trkpt lat="45.93556" lon="6.38089">
        <ele>1633</ele>
        <time>2026-08-19T09:29:03.344Z</time>
      </trkpt>
      <trkpt lat="45.93556" lon="6.38089">
        <ele>1633</ele>
        <time>2026-08-19T09:29:04.344Z</time>
      </trkpt>
      <trkpt lat="45.93557" lon="6.38089">
        <ele>1632</ele>
        <time>2026-08-19T09:29:05.344Z</time>
      </trkpt>
      <trkpt lat="45.93557" lon="6.38089">
        <ele>1632</ele>
        <time>2026-08-19T09:29:06.344Z</time>
      </trkpt>
      <trkpt lat="45.93559" lon="6.38089">
        <ele>1631</ele>
        <time>2026-08-19T09:29:07.344Z</time>
      </trkpt>
      <trkpt lat="45.9356" lon="6.3809">
        <ele>1631</ele>
        <time>2026-08-19T09:29:08.344Z</time>
      </trkpt>
      <trkpt lat="45.93561" lon="6.3809">
        <ele>1631</ele>
        <time>2026-08-19T09:29:09.345Z</time>
      </trkpt>
      <trkpt lat="45.93562" lon="6.38091">
        <ele>1631</ele>
        <time>2026-08-19T09:29:10.344Z</time>
      </trkpt>
      <trkpt lat="45.93563" lon="6.38092">
        <ele>1630</ele>
        <time>2026-08-19T09:29:11.344Z</time>
      </trkpt>
      <trkpt lat="45.93565" lon="6.38093">
        <ele>1630</ele>
        <time>2026-08-19T09:29:12.344Z</time>
      </trkpt>
      <trkpt lat="45.93566" lon="6.38095">
        <ele>1630</ele>
        <time>2026-08-19T09:29:13.344Z</time>
      </trkpt>
      <trkpt lat="45.93567" lon="6.38097">
        <ele>1630</ele>
        <time>2026-08-19T09:29:14.344Z</time>
      </trkpt>
      <trkpt lat="45.93567" lon="6.38099">
        <ele>1630</ele>
        <time>2026-08-19T09:29:15.344Z</time>
      </trkpt>
      <trkpt lat="45.93568" lon="6.38101">
        <ele>1629</ele>
        <time>2026-08-19T09:29:16.344Z</time>
      </trkpt>
      <trkpt lat="45.93569" lon="6.38103">
        <ele>1629</ele>
        <time>2026-08-19T09:29:17.344Z</time>
      </trkpt>
      <trkpt lat="45.93571" lon="6.38105">
        <ele>1629</ele>
        <time>2026-08-19T09:29:18.344Z</time>
      </trkpt>
      <trkpt lat="45.93573" lon="6.38106">
        <ele>1629</ele>
        <time>2026-08-19T09:29:19.344Z</time>
      </trkpt>
      <trkpt lat="45.93575" lon="6.38107">
        <ele>1629</ele>
        <time>2026-08-19T09:29:20.344Z</time>
      </trkpt>
      <trkpt lat="45.93576" lon="6.38109">
        <ele>1630</ele>
        <time>2026-08-19T09:29:21.344Z</time>
      </trkpt>
      <trkpt lat="45.93577" lon="6.3811">
        <ele>1630</ele>
        <time>2026-08-19T09:29:22.344Z</time>
      </trkpt>
      <trkpt lat="45.93579" lon="6.38111">
        <ele>1631</ele>
        <time>2026-08-19T09:29:23.344Z</time>
      </trkpt>
      <trkpt lat="45.93581" lon="6.38112">
        <ele>1631</ele>
        <time>2026-08-19T09:29:24.344Z</time>
      </trkpt>
      <trkpt lat="45.93582" lon="6.38113">
        <ele>1632</ele>
        <time>2026-08-19T09:29:25.344Z</time>
      </trkpt>
      <trkpt lat="45.93583" lon="6.38115">
        <ele>1632</ele>
        <time>2026-08-19T09:29:26.344Z</time>
      </trkpt>
      <trkpt lat="45.93583" lon="6.38115">
        <ele>1632</ele>
        <time>2026-08-19T09:29:27.344Z</time>
      </trkpt>
      <trkpt lat="45.93583" lon="6.38116">
        <ele>1632</ele>
        <time>2026-08-19T09:29:28.344Z</time>
      </trkpt>
      <trkpt lat="45.93584" lon="6.38117">
        <ele>1632</ele>
        <time>2026-08-19T09:29:29.344Z</time>
      </trkpt>
      <trkpt lat="45.93584" lon="6.38117">
        <ele>1633</ele>
        <time>2026-08-19T09:29:30.344Z</time>
      </trkpt>
      <trkpt lat="45.93584" lon="6.38118">
        <ele>1633</ele>
        <time>2026-08-19T09:29:31.344Z</time>
      </trkpt>
      <trkpt lat="45.93585" lon="6.38118">
        <ele>1633</ele>
        <time>2026-08-19T09:29:32.344Z</time>
      </trkpt>
      <trkpt lat="45.93585" lon="6.38119">
        <ele>1634</ele>
        <time>2026-08-19T09:29:33.344Z</time>
      </trkpt>
      <trkpt lat="45.93585" lon="6.38119">
        <ele>1634</ele>
        <time>2026-08-19T09:29:34.344Z</time>
      </trkpt>
      <trkpt lat="45.93586" lon="6.3812">
        <ele>1635</ele>
        <time>2026-08-19T09:29:35.344Z</time>
      </trkpt>
      <trkpt lat="45.93586" lon="6.38121">
        <ele>1635</ele>
        <time>2026-08-19T09:29:36.344Z</time>
      </trkpt>
      <trkpt lat="45.93586" lon="6.38123">
        <ele>1635</ele>
        <time>2026-08-19T09:29:37.344Z</time>
      </trkpt>
      <trkpt lat="45.93586" lon="6.38125">
        <ele>1635</ele>
        <time>2026-08-19T09:29:38.344Z</time>
      </trkpt>
      <trkpt lat="45.93586" lon="6.38126">
        <ele>1635</ele>
        <time>2026-08-19T09:29:39.344Z</time>
      </trkpt>
      <trkpt lat="45.93586" lon="6.38128">
        <ele>1635</ele>
        <time>2026-08-19T09:29:40.344Z</time>
      </trkpt>
      <trkpt lat="45.93586" lon="6.38129">
        <ele>1635</ele>
        <time>2026-08-19T09:29:41.344Z</time>
      </trkpt>
      <trkpt lat="45.93586" lon="6.38131">
        <ele>1635</ele>
        <time>2026-08-19T09:29:42.344Z</time>
      </trkpt>
      <trkpt lat="45.93586" lon="6.38134">
        <ele>1635</ele>
        <time>2026-08-19T09:29:43.344Z</time>
      </trkpt>
      <trkpt lat="45.93586" lon="6.38135">
        <ele>1635</ele>
        <time>2026-08-19T09:29:44.344Z</time>
      </trkpt>
      <trkpt lat="45.93586" lon="6.38137">
        <ele>1635</ele>
        <time>2026-08-19T09:29:45.344Z</time>
      </trkpt>
      <trkpt lat="45.93587" lon="6.38139">
        <ele>1635</ele>
        <time>2026-08-19T09:29:46.344Z</time>
      </trkpt>
      <trkpt lat="45.93586" lon="6.38142">
        <ele>1635</ele>
        <time>2026-08-19T09:29:47.344Z</time>
      </trkpt>
      <trkpt lat="45.93586" lon="6.38144">
        <ele>1635</ele>
        <time>2026-08-19T09:29:48.344Z</time>
      </trkpt>
      <trkpt lat="45.93586" lon="6.38145">
        <ele>1635</ele>
        <time>2026-08-19T09:29:49.344Z</time>
      </trkpt>
      <trkpt lat="45.93586" lon="6.38147">
        <ele>1635</ele>
        <time>2026-08-19T09:29:50.344Z</time>
      </trkpt>
      <trkpt lat="45.93585" lon="6.38149">
        <ele>1635</ele>
        <time>2026-08-19T09:29:51.344Z</time>
      </trkpt>
      <trkpt lat="45.93585" lon="6.38151">
        <ele>1635</ele>
        <time>2026-08-19T09:29:52.344Z</time>
      </trkpt>
      <trkpt lat="45.93585" lon="6.38153">
        <ele>1635</ele>
        <time>2026-08-19T09:29:53.344Z</time>
      </trkpt>
      <trkpt lat="45.93586" lon="6.38155">
        <ele>1635</ele>
        <time>2026-08-19T09:29:54.344Z</time>
      </trkpt>
      <trkpt lat="45.93586" lon="6.38158">
        <ele>1635</ele>
        <time>2026-08-19T09:29:55.344Z</time>
      </trkpt>
      <trkpt lat="45.93588" lon="6.3816">
        <ele>1635</ele>
        <time>2026-08-19T09:29:56.344Z</time>
      </trkpt>
      <trkpt lat="45.93589" lon="6.38162">
        <ele>1636</ele>
        <time>2026-08-19T09:29:57.344Z</time>
      </trkpt>
      <trkpt lat="45.9359" lon="6.38164">
        <ele>1636</ele>
        <time>2026-08-19T09:29:58.344Z</time>
      </trkpt>
      <trkpt lat="45.93591" lon="6.38166">
        <ele>1636</ele>
        <time>2026-08-19T09:29:59.344Z</time>
      </trkpt>
      <trkpt lat="45.93592" lon="6.38168">
        <ele>1635</ele>
        <time>2026-08-19T09:30:00.344Z</time>
      </trkpt>
      <trkpt lat="45.93592" lon="6.3817">
        <ele>1635</ele>
        <time>2026-08-19T09:30:01.344Z</time>
      </trkpt>
      <trkpt lat="45.93593" lon="6.38172">
        <ele>1635</ele>
        <time>2026-08-19T09:30:02.344Z</time>
      </trkpt>
      <trkpt lat="45.93593" lon="6.38175">
        <ele>1634</ele>
        <time>2026-08-19T09:30:03.344Z</time>
      </trkpt>
      <trkpt lat="45.93594" lon="6.38178">
        <ele>1634</ele>
        <time>2026-08-19T09:30:04.344Z</time>
      </trkpt>
      <trkpt lat="45.93595" lon="6.38179">
        <ele>1633</ele>
        <time>2026-08-19T09:30:05.344Z</time>
      </trkpt>
      <trkpt lat="45.93596" lon="6.38181">
        <ele>1633</ele>
        <time>2026-08-19T09:30:06.344Z</time>
      </trkpt>
      <trkpt lat="45.93597" lon="6.38184">
        <ele>1633</ele>
        <time>2026-08-19T09:30:07.345Z</time>
      </trkpt>
      <trkpt lat="45.93598" lon="6.38186">
        <ele>1633</ele>
        <time>2026-08-19T09:30:08.344Z</time>
      </trkpt>
      <trkpt lat="45.93599" lon="6.38189">
        <ele>1632</ele>
        <time>2026-08-19T09:30:09.344Z</time>
      </trkpt>
      <trkpt lat="45.93601" lon="6.38191">
        <ele>1632</ele>
        <time>2026-08-19T09:30:10.344Z</time>
      </trkpt>
      <trkpt lat="45.93602" lon="6.38194">
        <ele>1632</ele>
        <time>2026-08-19T09:30:11.344Z</time>
      </trkpt>
      <trkpt lat="45.93603" lon="6.38197">
        <ele>1633</ele>
        <time>2026-08-19T09:30:12.344Z</time>
      </trkpt>
      <trkpt lat="45.93604" lon="6.382">
        <ele>1633</ele>
        <time>2026-08-19T09:30:13.344Z</time>
      </trkpt>
      <trkpt lat="45.93604" lon="6.38202">
        <ele>1634</ele>
        <time>2026-08-19T09:30:14.344Z</time>
      </trkpt>
      <trkpt lat="45.93604" lon="6.38203">
        <ele>1635</ele>
        <time>2026-08-19T09:30:15.344Z</time>
      </trkpt>
      <trkpt lat="45.93604" lon="6.38205">
        <ele>1635</ele>
        <time>2026-08-19T09:30:16.344Z</time>
      </trkpt>
      <trkpt lat="45.93604" lon="6.38207">
        <ele>1635</ele>
        <time>2026-08-19T09:30:17.344Z</time>
      </trkpt>
      <trkpt lat="45.93604" lon="6.38208">
        <ele>1635</ele>
        <time>2026-08-19T09:30:18.344Z</time>
      </trkpt>
      <trkpt lat="45.93605" lon="6.3821">
        <ele>1635</ele>
        <time>2026-08-19T09:30:19.344Z</time>
      </trkpt>
      <trkpt lat="45.93606" lon="6.38212">
        <ele>1635</ele>
        <time>2026-08-19T09:30:20.344Z</time>
      </trkpt>
      <trkpt lat="45.93607" lon="6.38214">
        <ele>1634</ele>
        <time>2026-08-19T09:30:21.344Z</time>
      </trkpt>
      <trkpt lat="45.93608" lon="6.38216">
        <ele>1634</ele>
        <time>2026-08-19T09:30:22.344Z</time>
      </trkpt>
      <trkpt lat="45.93609" lon="6.38217">
        <ele>1634</ele>
        <time>2026-08-19T09:30:23.345Z</time>
      </trkpt>
      <trkpt lat="45.9361" lon="6.38219">
        <ele>1634</ele>
        <time>2026-08-19T09:30:24.344Z</time>
      </trkpt>
      <trkpt lat="45.93611" lon="6.38221">
        <ele>1634</ele>
        <time>2026-08-19T09:30:25.344Z</time>
      </trkpt>
      <trkpt lat="45.93611" lon="6.38223">
        <ele>1634</ele>
        <time>2026-08-19T09:30:26.344Z</time>
      </trkpt>
      <trkpt lat="45.93611" lon="6.38226">
        <ele>1634</ele>
        <time>2026-08-19T09:30:27.344Z</time>
      </trkpt>
      <trkpt lat="45.93612" lon="6.38228">
        <ele>1634</ele>
        <time>2026-08-19T09:30:28.344Z</time>
      </trkpt>
      <trkpt lat="45.93612" lon="6.38232">
        <ele>1634</ele>
        <time>2026-08-19T09:30:29.344Z</time>
      </trkpt>
      <trkpt lat="45.93613" lon="6.38234">
        <ele>1633</ele>
        <time>2026-08-19T09:30:30.344Z</time>
      </trkpt>
      <trkpt lat="45.93613" lon="6.38236">
        <ele>1633</ele>
        <time>2026-08-19T09:30:31.344Z</time>
      </trkpt>
      <trkpt lat="45.93614" lon="6.38238">
        <ele>1633</ele>
        <time>2026-08-19T09:30:32.344Z</time>
      </trkpt>
      <trkpt lat="45.93614" lon="6.3824">
        <ele>1634</ele>
        <time>2026-08-19T09:30:33.345Z</time>
      </trkpt>
      <trkpt lat="45.93615" lon="6.38242">
        <ele>1634</ele>
        <time>2026-08-19T09:30:34.344Z</time>
      </trkpt>
      <trkpt lat="45.93616" lon="6.38243">
        <ele>1634</ele>
        <time>2026-08-19T09:30:35.344Z</time>
      </trkpt>
      <trkpt lat="45.93617" lon="6.38245">
        <ele>1635</ele>
        <time>2026-08-19T09:30:36.344Z</time>
      </trkpt>
      <trkpt lat="45.93616" lon="6.38247">
        <ele>1635</ele>
        <time>2026-08-19T09:30:37.344Z</time>
      </trkpt>
      <trkpt lat="45.93616" lon="6.38247">
        <ele>1635</ele>
        <time>2026-08-19T09:30:38.344Z</time>
      </trkpt>
      <trkpt lat="45.93617" lon="6.38248">
        <ele>1635</ele>
        <time>2026-08-19T09:30:39.344Z</time>
      </trkpt>
      <trkpt lat="45.93617" lon="6.38248">
        <ele>1636</ele>
        <time>2026-08-19T09:30:40.344Z</time>
      </trkpt>
      <trkpt lat="45.93617" lon="6.38248">
        <ele>1636</ele>
        <time>2026-08-19T09:30:41.344Z</time>
      </trkpt>
      <trkpt lat="45.93618" lon="6.38249">
        <ele>1637</ele>
        <time>2026-08-19T09:30:42.344Z</time>
      </trkpt>
      <trkpt lat="45.93619" lon="6.3825">
        <ele>1637</ele>
        <time>2026-08-19T09:30:43.344Z</time>
      </trkpt>
      <trkpt lat="45.93619" lon="6.38251">
        <ele>1638</ele>
        <time>2026-08-19T09:30:44.344Z</time>
      </trkpt>
      <trkpt lat="45.9362" lon="6.38252">
        <ele>1638</ele>
        <time>2026-08-19T09:30:45.344Z</time>
      </trkpt>
      <trkpt lat="45.93621" lon="6.38253">
        <ele>1638</ele>
        <time>2026-08-19T09:30:46.344Z</time>
      </trkpt>
      <trkpt lat="45.93622" lon="6.38254">
        <ele>1639</ele>
        <time>2026-08-19T09:30:47.344Z</time>
      </trkpt>
      <trkpt lat="45.93623" lon="6.38255">
        <ele>1639</ele>
        <time>2026-08-19T09:30:48.344Z</time>
      </trkpt>
      <trkpt lat="45.93625" lon="6.38256">
        <ele>1640</ele>
        <time>2026-08-19T09:30:49.344Z</time>
      </trkpt>
      <trkpt lat="45.93627" lon="6.38258">
        <ele>1640</ele>
        <time>2026-08-19T09:30:50.344Z</time>
      </trkpt>
      <trkpt lat="45.93629" lon="6.3826">
        <ele>1640</ele>
        <time>2026-08-19T09:30:51.344Z</time>
      </trkpt>
      <trkpt lat="45.9363" lon="6.38262">
        <ele>1639</ele>
        <time>2026-08-19T09:30:52.344Z</time>
      </trkpt>
      <trkpt lat="45.93632" lon="6.38264">
        <ele>1639</ele>
        <time>2026-08-19T09:30:53.344Z</time>
      </trkpt>
      <trkpt lat="45.93633" lon="6.38265">
        <ele>1638</ele>
        <time>2026-08-19T09:30:54.344Z</time>
      </trkpt>
      <trkpt lat="45.93634" lon="6.38268">
        <ele>1638</ele>
        <time>2026-08-19T09:30:55.344Z</time>
      </trkpt>
      <trkpt lat="45.93636" lon="6.3827">
        <ele>1638</ele>
        <time>2026-08-19T09:30:56.344Z</time>
      </trkpt>
      <trkpt lat="45.93637" lon="6.38272">
        <ele>1637</ele>
        <time>2026-08-19T09:30:57.344Z</time>
      </trkpt>
      <trkpt lat="45.93639" lon="6.38275">
        <ele>1637</ele>
        <time>2026-08-19T09:30:58.344Z</time>
      </trkpt>
      <trkpt lat="45.93641" lon="6.38277">
        <ele>1637</ele>
        <time>2026-08-19T09:30:59.344Z</time>
      </trkpt>
      <trkpt lat="45.93642" lon="6.38279">
        <ele>1636</ele>
        <time>2026-08-19T09:31:00.344Z</time>
      </trkpt>
      <trkpt lat="45.93642" lon="6.38281">
        <ele>1636</ele>
        <time>2026-08-19T09:31:01.344Z</time>
      </trkpt>
      <trkpt lat="45.93643" lon="6.38283">
        <ele>1636</ele>
        <time>2026-08-19T09:31:02.344Z</time>
      </trkpt>
      <trkpt lat="45.93644" lon="6.38285">
        <ele>1636</ele>
        <time>2026-08-19T09:31:03.344Z</time>
      </trkpt>
      <trkpt lat="45.93645" lon="6.38287">
        <ele>1636</ele>
        <time>2026-08-19T09:31:04.344Z</time>
      </trkpt>
      <trkpt lat="45.93646" lon="6.3829">
        <ele>1636</ele>
        <time>2026-08-19T09:31:05.344Z</time>
      </trkpt>
      <trkpt lat="45.93647" lon="6.38292">
        <ele>1636</ele>
        <time>2026-08-19T09:31:06.345Z</time>
      </trkpt>
      <trkpt lat="45.93647" lon="6.38294">
        <ele>1636</ele>
        <time>2026-08-19T09:31:07.344Z</time>
      </trkpt>
      <trkpt lat="45.93648" lon="6.38297">
        <ele>1637</ele>
        <time>2026-08-19T09:31:08.344Z</time>
      </trkpt>
      <trkpt lat="45.93649" lon="6.38299">
        <ele>1637</ele>
        <time>2026-08-19T09:31:09.344Z</time>
      </trkpt>
      <trkpt lat="45.9365" lon="6.38302">
        <ele>1637</ele>
        <time>2026-08-19T09:31:10.344Z</time>
      </trkpt>
      <trkpt lat="45.93651" lon="6.38304">
        <ele>1637</ele>
        <time>2026-08-19T09:31:11.344Z</time>
      </trkpt>
      <trkpt lat="45.93652" lon="6.38306">
        <ele>1638</ele>
        <time>2026-08-19T09:31:12.344Z</time>
      </trkpt>
      <trkpt lat="45.93652" lon="6.38309">
        <ele>1638</ele>
        <time>2026-08-19T09:31:13.344Z</time>
      </trkpt>
      <trkpt lat="45.93653" lon="6.38311">
        <ele>1638</ele>
        <time>2026-08-19T09:31:14.344Z</time>
      </trkpt>
      <trkpt lat="45.93653" lon="6.38312">
        <ele>1638</ele>
        <time>2026-08-19T09:31:15.344Z</time>
      </trkpt>
      <trkpt lat="45.93654" lon="6.38314">
        <ele>1638</ele>
        <time>2026-08-19T09:31:16.344Z</time>
      </trkpt>
      <trkpt lat="45.93654" lon="6.38316">
        <ele>1638</ele>
        <time>2026-08-19T09:31:17.344Z</time>
      </trkpt>
      <trkpt lat="45.93655" lon="6.38317">
        <ele>1638</ele>
        <time>2026-08-19T09:31:18.344Z</time>
      </trkpt>
      <trkpt lat="45.93655" lon="6.38319">
        <ele>1638</ele>
        <time>2026-08-19T09:31:19.344Z</time>
      </trkpt>
      <trkpt lat="45.93656" lon="6.38321">
        <ele>1637</ele>
        <time>2026-08-19T09:31:20.344Z</time>
      </trkpt>
      <trkpt lat="45.93657" lon="6.38323">
        <ele>1637</ele>
        <time>2026-08-19T09:31:21.344Z</time>
      </trkpt>
      <trkpt lat="45.93658" lon="6.38326">
        <ele>1637</ele>
        <time>2026-08-19T09:31:22.344Z</time>
      </trkpt>
      <trkpt lat="45.93659" lon="6.38327">
        <ele>1636</ele>
        <time>2026-08-19T09:31:23.344Z</time>
      </trkpt>
      <trkpt lat="45.93659" lon="6.38329">
        <ele>1636</ele>
        <time>2026-08-19T09:31:24.344Z</time>
      </trkpt>
      <trkpt lat="45.93659" lon="6.38331">
        <ele>1635</ele>
        <time>2026-08-19T09:31:25.345Z</time>
      </trkpt>
      <trkpt lat="45.9366" lon="6.38332">
        <ele>1635</ele>
        <time>2026-08-19T09:31:26.344Z</time>
      </trkpt>
      <trkpt lat="45.93662" lon="6.38334">
        <ele>1635</ele>
        <time>2026-08-19T09:31:27.344Z</time>
      </trkpt>
      <trkpt lat="45.93662" lon="6.38336">
        <ele>1635</ele>
        <time>2026-08-19T09:31:28.344Z</time>
      </trkpt>
      <trkpt lat="45.93663" lon="6.38337">
        <ele>1635</ele>
        <time>2026-08-19T09:31:29.344Z</time>
      </trkpt>
      <trkpt lat="45.93664" lon="6.38339">
        <ele>1635</ele>
        <time>2026-08-19T09:31:30.344Z</time>
      </trkpt>
      <trkpt lat="45.93664" lon="6.38341">
        <ele>1635</ele>
        <time>2026-08-19T09:31:31.344Z</time>
      </trkpt>
      <trkpt lat="45.93665" lon="6.38342">
        <ele>1635</ele>
        <time>2026-08-19T09:31:32.344Z</time>
      </trkpt>
      <trkpt lat="45.93665" lon="6.38343">
        <ele>1635</ele>
        <time>2026-08-19T09:31:33.344Z</time>
      </trkpt>
      <trkpt lat="45.93666" lon="6.38345">
        <ele>1635</ele>
        <time>2026-08-19T09:31:34.344Z</time>
      </trkpt>
      <trkpt lat="45.93667" lon="6.38348">
        <ele>1635</ele>
        <time>2026-08-19T09:31:35.344Z</time>
      </trkpt>
      <trkpt lat="45.93669" lon="6.38349">
        <ele>1634</ele>
        <time>2026-08-19T09:31:36.344Z</time>
      </trkpt>
      <trkpt lat="45.9367" lon="6.3835">
        <ele>1634</ele>
        <time>2026-08-19T09:31:37.344Z</time>
      </trkpt>
      <trkpt lat="45.93672" lon="6.38352">
        <ele>1634</ele>
        <time>2026-08-19T09:31:38.344Z</time>
      </trkpt>
      <trkpt lat="45.93673" lon="6.38354">
        <ele>1634</ele>
        <time>2026-08-19T09:31:39.344Z</time>
      </trkpt>
      <trkpt lat="45.93674" lon="6.38356">
        <ele>1634</ele>
        <time>2026-08-19T09:31:40.344Z</time>
      </trkpt>
      <trkpt lat="45.93676" lon="6.38358">
        <ele>1634</ele>
        <time>2026-08-19T09:31:41.344Z</time>
      </trkpt>
      <trkpt lat="45.93678" lon="6.38359">
        <ele>1634</ele>
        <time>2026-08-19T09:31:42.344Z</time>
      </trkpt>
      <trkpt lat="45.93679" lon="6.38361">
        <ele>1635</ele>
        <time>2026-08-19T09:31:43.344Z</time>
      </trkpt>
      <trkpt lat="45.9368" lon="6.38362">
        <ele>1635</ele>
        <time>2026-08-19T09:31:44.344Z</time>
      </trkpt>
      <trkpt lat="45.93681" lon="6.38363">
        <ele>1635</ele>
        <time>2026-08-19T09:31:45.344Z</time>
      </trkpt>
      <trkpt lat="45.93682" lon="6.38364">
        <ele>1635</ele>
        <time>2026-08-19T09:31:46.344Z</time>
      </trkpt>
      <trkpt lat="45.93683" lon="6.38365">
        <ele>1635</ele>
        <time>2026-08-19T09:31:47.344Z</time>
      </trkpt>
      <trkpt lat="45.93685" lon="6.38366">
        <ele>1635</ele>
        <time>2026-08-19T09:31:48.344Z</time>
      </trkpt>
      <trkpt lat="45.93686" lon="6.38368">
        <ele>1635</ele>
        <time>2026-08-19T09:31:49.344Z</time>
      </trkpt>
      <trkpt lat="45.93687" lon="6.38369">
        <ele>1635</ele>
        <time>2026-08-19T09:31:50.344Z</time>
      </trkpt>
      <trkpt lat="45.93689" lon="6.38372">
        <ele>1634</ele>
        <time>2026-08-19T09:31:51.344Z</time>
      </trkpt>
      <trkpt lat="45.93689" lon="6.38374">
        <ele>1634</ele>
        <time>2026-08-19T09:31:52.344Z</time>
      </trkpt>
      <trkpt lat="45.93689" lon="6.38376">
        <ele>1634</ele>
        <time>2026-08-19T09:31:53.344Z</time>
      </trkpt>
      <trkpt lat="45.93688" lon="6.38379">
        <ele>1633</ele>
        <time>2026-08-19T09:31:54.344Z</time>
      </trkpt>
      <trkpt lat="45.93689" lon="6.38381">
        <ele>1633</ele>
        <time>2026-08-19T09:31:55.344Z</time>
      </trkpt>
      <trkpt lat="45.9369" lon="6.38382">
        <ele>1632</ele>
        <time>2026-08-19T09:31:56.344Z</time>
      </trkpt>
      <trkpt lat="45.93692" lon="6.38382">
        <ele>1632</ele>
        <time>2026-08-19T09:31:57.344Z</time>
      </trkpt>
      <trkpt lat="45.93693" lon="6.38383">
        <ele>1632</ele>
        <time>2026-08-19T09:31:58.344Z</time>
      </trkpt>
      <trkpt lat="45.93693" lon="6.38383">
        <ele>1632</ele>
        <time>2026-08-19T09:31:59.344Z</time>
      </trkpt>
      <trkpt lat="45.93694" lon="6.38383">
        <ele>1632</ele>
        <time>2026-08-19T09:32:00.344Z</time>
      </trkpt>
      <trkpt lat="45.93695" lon="6.38381">
        <ele>1632</ele>
        <time>2026-08-19T09:32:01.344Z</time>
      </trkpt>
      <trkpt lat="45.93696" lon="6.3838">
        <ele>1632</ele>
        <time>2026-08-19T09:32:02.344Z</time>
      </trkpt>
      <trkpt lat="45.93697" lon="6.38378">
        <ele>1632</ele>
        <time>2026-08-19T09:32:03.345Z</time>
      </trkpt>
      <trkpt lat="45.93698" lon="6.38376">
        <ele>1633</ele>
        <time>2026-08-19T09:32:04.344Z</time>
      </trkpt>
      <trkpt lat="45.93699" lon="6.38374">
        <ele>1633</ele>
        <time>2026-08-19T09:32:05.344Z</time>
      </trkpt>
      <trkpt lat="45.93699" lon="6.38373">
        <ele>1634</ele>
        <time>2026-08-19T09:32:06.344Z</time>
      </trkpt>
      <trkpt lat="45.937" lon="6.38371">
        <ele>1634</ele>
        <time>2026-08-19T09:32:07.344Z</time>
      </trkpt>
      <trkpt lat="45.93701" lon="6.3837">
        <ele>1635</ele>
        <time>2026-08-19T09:32:08.344Z</time>
      </trkpt>
      <trkpt lat="45.93702" lon="6.38369">
        <ele>1635</ele>
        <time>2026-08-19T09:32:09.344Z</time>
      </trkpt>
      <trkpt lat="45.93702" lon="6.38367">
        <ele>1636</ele>
        <time>2026-08-19T09:32:10.344Z</time>
      </trkpt>
      <trkpt lat="45.93703" lon="6.38366">
        <ele>1636</ele>
        <time>2026-08-19T09:32:11.344Z</time>
      </trkpt>
      <trkpt lat="45.93703" lon="6.38365">
        <ele>1637</ele>
        <time>2026-08-19T09:32:12.344Z</time>
      </trkpt>
      <trkpt lat="45.93704" lon="6.38365">
        <ele>1637</ele>
        <time>2026-08-19T09:32:13.344Z</time>
      </trkpt>
      <trkpt lat="45.93705" lon="6.38365">
        <ele>1637</ele>
        <time>2026-08-19T09:32:14.344Z</time>
      </trkpt>
      <trkpt lat="45.93706" lon="6.38365">
        <ele>1637</ele>
        <time>2026-08-19T09:32:15.344Z</time>
      </trkpt>
      <trkpt lat="45.93706" lon="6.38365">
        <ele>1637</ele>
        <time>2026-08-19T09:32:16.344Z</time>
      </trkpt>
      <trkpt lat="45.93707" lon="6.38365">
        <ele>1637</ele>
        <time>2026-08-19T09:32:17.344Z</time>
      </trkpt>
      <trkpt lat="45.93708" lon="6.38365">
        <ele>1637</ele>
        <time>2026-08-19T09:32:18.344Z</time>
      </trkpt>
      <trkpt lat="45.93709" lon="6.38365">
        <ele>1637</ele>
        <time>2026-08-19T09:32:19.344Z</time>
      </trkpt>
      <trkpt lat="45.93709" lon="6.38366">
        <ele>1638</ele>
        <time>2026-08-19T09:32:20.344Z</time>
      </trkpt>
      <trkpt lat="45.9371" lon="6.38365">
        <ele>1638</ele>
        <time>2026-08-19T09:32:21.344Z</time>
      </trkpt>
      <trkpt lat="45.9371" lon="6.38364">
        <ele>1639</ele>
        <time>2026-08-19T09:32:22.344Z</time>
      </trkpt>
      <trkpt lat="45.9371" lon="6.38363">
        <ele>1639</ele>
        <time>2026-08-19T09:32:23.344Z</time>
      </trkpt>
      <trkpt lat="45.93711" lon="6.38362">
        <ele>1640</ele>
        <time>2026-08-19T09:32:24.344Z</time>
      </trkpt>
      <trkpt lat="45.9371" lon="6.38361">
        <ele>1640</ele>
        <time>2026-08-19T09:32:25.344Z</time>
      </trkpt>
      <trkpt lat="45.93711" lon="6.38359">
        <ele>1641</ele>
        <time>2026-08-19T09:32:26.344Z</time>
      </trkpt>
      <trkpt lat="45.93711" lon="6.38358">
        <ele>1641</ele>
        <time>2026-08-19T09:32:27.344Z</time>
      </trkpt>
      <trkpt lat="45.93711" lon="6.38357">
        <ele>1642</ele>
        <time>2026-08-19T09:32:28.344Z</time>
      </trkpt>
      <trkpt lat="45.93711" lon="6.38356">
        <ele>1642</ele>
        <time>2026-08-19T09:32:29.344Z</time>
      </trkpt>
      <trkpt lat="45.93712" lon="6.38356">
        <ele>1642</ele>
        <time>2026-08-19T09:32:30.344Z</time>
      </trkpt>
      <trkpt lat="45.93712" lon="6.38355">
        <ele>1642</ele>
        <time>2026-08-19T09:32:31.344Z</time>
      </trkpt>
      <trkpt lat="45.93712" lon="6.38354">
        <ele>1643</ele>
        <time>2026-08-19T09:32:32.344Z</time>
      </trkpt>
      <trkpt lat="45.93712" lon="6.38352">
        <ele>1643</ele>
        <time>2026-08-19T09:32:33.344Z</time>
      </trkpt>
      <trkpt lat="45.93713" lon="6.38351">
        <ele>1643</ele>
        <time>2026-08-19T09:32:34.344Z</time>
      </trkpt>
      <trkpt lat="45.93713" lon="6.3835">
        <ele>1643</ele>
        <time>2026-08-19T09:32:35.344Z</time>
      </trkpt>
      <trkpt lat="45.93713" lon="6.3835">
        <ele>1643</ele>
        <time>2026-08-19T09:32:36.344Z</time>
      </trkpt>
      <trkpt lat="45.93713" lon="6.38349">
        <ele>1643</ele>
        <time>2026-08-19T09:32:37.344Z</time>
      </trkpt>
      <trkpt lat="45.93714" lon="6.38349">
        <ele>1643</ele>
        <time>2026-08-19T09:32:38.345Z</time>
      </trkpt>
      <trkpt lat="45.93715" lon="6.38348">
        <ele>1643</ele>
        <time>2026-08-19T09:32:39.344Z</time>
      </trkpt>
      <trkpt lat="45.93715" lon="6.38347">
        <ele>1642</ele>
        <time>2026-08-19T09:32:40.345Z</time>
      </trkpt>
      <trkpt lat="45.93715" lon="6.38347">
        <ele>1642</ele>
        <time>2026-08-19T09:32:41.344Z</time>
      </trkpt>
      <trkpt lat="45.93716" lon="6.38346">
        <ele>1642</ele>
        <time>2026-08-19T09:32:42.344Z</time>
      </trkpt>
      <trkpt lat="45.93716" lon="6.38346">
        <ele>1642</ele>
        <time>2026-08-19T09:32:43.344Z</time>
      </trkpt>
      <trkpt lat="45.93716" lon="6.38346">
        <ele>1642</ele>
        <time>2026-08-19T09:32:44.344Z</time>
      </trkpt>
      <trkpt lat="45.93717" lon="6.38346">
        <ele>1642</ele>
        <time>2026-08-19T09:32:45.344Z</time>
      </trkpt>
      <trkpt lat="45.93717" lon="6.38345">
        <ele>1642</ele>
        <time>2026-08-19T09:32:46.344Z</time>
      </trkpt>
      <trkpt lat="45.93717" lon="6.38345">
        <ele>1643</ele>
        <time>2026-08-19T09:32:47.344Z</time>
      </trkpt>
      <trkpt lat="45.93718" lon="6.38344">
        <ele>1643</ele>
        <time>2026-08-19T09:32:48.344Z</time>
      </trkpt>
      <trkpt lat="45.93718" lon="6.38344">
        <ele>1643</ele>
        <time>2026-08-19T09:32:49.344Z</time>
      </trkpt>
      <trkpt lat="45.93718" lon="6.38344">
        <ele>1643</ele>
        <time>2026-08-19T09:32:50.344Z</time>
      </trkpt>
      <trkpt lat="45.93718" lon="6.38344">
        <ele>1644</ele>
        <time>2026-08-19T09:32:51.344Z</time>
      </trkpt>
      <trkpt lat="45.93719" lon="6.38344">
        <ele>1644</ele>
        <time>2026-08-19T09:32:52.344Z</time>
      </trkpt>
      <trkpt lat="45.93719" lon="6.38344">
        <ele>1645</ele>
        <time>2026-08-19T09:32:53.344Z</time>
      </trkpt>
      <trkpt lat="45.93719" lon="6.38343">
        <ele>1645</ele>
        <time>2026-08-19T09:32:54.344Z</time>
      </trkpt>
      <trkpt lat="45.9372" lon="6.38343">
        <ele>1646</ele>
        <time>2026-08-19T09:32:55.345Z</time>
      </trkpt>
      <trkpt lat="45.9372" lon="6.38342">
        <ele>1646</ele>
        <time>2026-08-19T09:32:56.344Z</time>
      </trkpt>
      <trkpt lat="45.93719" lon="6.38342">
        <ele>1646</ele>
        <time>2026-08-19T09:32:57.344Z</time>
      </trkpt>
      <trkpt lat="45.93719" lon="6.38341">
        <ele>1647</ele>
        <time>2026-08-19T09:32:58.344Z</time>
      </trkpt>
      <trkpt lat="45.93719" lon="6.3834">
        <ele>1647</ele>
        <time>2026-08-19T09:32:59.344Z</time>
      </trkpt>
      <trkpt lat="45.93719" lon="6.38339">
        <ele>1647</ele>
        <time>2026-08-19T09:33:00.344Z</time>
      </trkpt>
      <trkpt lat="45.93718" lon="6.38338">
        <ele>1647</ele>
        <time>2026-08-19T09:33:01.344Z</time>
      </trkpt>
      <trkpt lat="45.93718" lon="6.38337">
        <ele>1647</ele>
        <time>2026-08-19T09:33:02.344Z</time>
      </trkpt>
      <trkpt lat="45.93718" lon="6.38336">
        <ele>1647</ele>
        <time>2026-08-19T09:33:03.344Z</time>
      </trkpt>
      <trkpt lat="45.93717" lon="6.38335">
        <ele>1647</ele>
        <time>2026-08-19T09:33:04.344Z</time>
      </trkpt>
      <trkpt lat="45.93718" lon="6.38334">
        <ele>1648</ele>
        <time>2026-08-19T09:33:05.344Z</time>
      </trkpt>
      <trkpt lat="45.93719" lon="6.38333">
        <ele>1648</ele>
        <time>2026-08-19T09:33:06.344Z</time>
      </trkpt>
      <trkpt lat="45.93719" lon="6.38332">
        <ele>1648</ele>
        <time>2026-08-19T09:33:07.344Z</time>
      </trkpt>
      <trkpt lat="45.9372" lon="6.38332">
        <ele>1648</ele>
        <time>2026-08-19T09:33:08.344Z</time>
      </trkpt>
      <trkpt lat="45.93721" lon="6.38331">
        <ele>1649</ele>
        <time>2026-08-19T09:33:09.344Z</time>
      </trkpt>
      <trkpt lat="45.93721" lon="6.38331">
        <ele>1649</ele>
        <time>2026-08-19T09:33:10.344Z</time>
      </trkpt>
      <trkpt lat="45.93722" lon="6.3833">
        <ele>1649</ele>
        <time>2026-08-19T09:33:11.344Z</time>
      </trkpt>
      <trkpt lat="45.93723" lon="6.38329">
        <ele>1650</ele>
        <time>2026-08-19T09:33:12.344Z</time>
      </trkpt>
      <trkpt lat="45.93723" lon="6.38328">
        <ele>1650</ele>
        <time>2026-08-19T09:33:13.344Z</time>
      </trkpt>
      <trkpt lat="45.93724" lon="6.38328">
        <ele>1650</ele>
        <time>2026-08-19T09:33:14.344Z</time>
      </trkpt>
      <trkpt lat="45.93724" lon="6.38327">
        <ele>1651</ele>
        <time>2026-08-19T09:33:15.344Z</time>
      </trkpt>
      <trkpt lat="45.93725" lon="6.38327">
        <ele>1652</ele>
        <time>2026-08-19T09:33:16.344Z</time>
      </trkpt>
      <trkpt lat="45.93726" lon="6.38327">
        <ele>1652</ele>
        <time>2026-08-19T09:33:17.344Z</time>
      </trkpt>
      <trkpt lat="45.93726" lon="6.38327">
        <ele>1653</ele>
        <time>2026-08-19T09:33:18.344Z</time>
      </trkpt>
      <trkpt lat="45.93727" lon="6.38327">
        <ele>1653</ele>
        <time>2026-08-19T09:33:19.344Z</time>
      </trkpt>
      <trkpt lat="45.93728" lon="6.38326">
        <ele>1653</ele>
        <time>2026-08-19T09:33:20.344Z</time>
      </trkpt>
      <trkpt lat="45.93729" lon="6.38326">
        <ele>1653</ele>
        <time>2026-08-19T09:33:21.344Z</time>
      </trkpt>
      <trkpt lat="45.9373" lon="6.38327">
        <ele>1653</ele>
        <time>2026-08-19T09:33:22.344Z</time>
      </trkpt>
      <trkpt lat="45.93731" lon="6.38328">
        <ele>1652</ele>
        <time>2026-08-19T09:33:23.344Z</time>
      </trkpt>
      <trkpt lat="45.93731" lon="6.38329">
        <ele>1652</ele>
        <time>2026-08-19T09:33:24.344Z</time>
      </trkpt>
      <trkpt lat="45.93732" lon="6.3833">
        <ele>1651</ele>
        <time>2026-08-19T09:33:25.344Z</time>
      </trkpt>
      <trkpt lat="45.93733" lon="6.38332">
        <ele>1651</ele>
        <time>2026-08-19T09:33:26.344Z</time>
      </trkpt>
      <trkpt lat="45.93735" lon="6.38333">
        <ele>1651</ele>
        <time>2026-08-19T09:33:27.344Z</time>
      </trkpt>
      <trkpt lat="45.93737" lon="6.38333">
        <ele>1650</ele>
        <time>2026-08-19T09:33:28.344Z</time>
      </trkpt>
      <trkpt lat="45.93738" lon="6.38333">
        <ele>1650</ele>
        <time>2026-08-19T09:33:29.344Z</time>
      </trkpt>
      <trkpt lat="45.93738" lon="6.38333">
        <ele>1650</ele>
        <time>2026-08-19T09:33:30.344Z</time>
      </trkpt>
      <trkpt lat="45.93739" lon="6.38333">
        <ele>1650</ele>
        <time>2026-08-19T09:33:31.344Z</time>
      </trkpt>
      <trkpt lat="45.9374" lon="6.38333">
        <ele>1650</ele>
        <time>2026-08-19T09:33:32.344Z</time>
      </trkpt>
      <trkpt lat="45.9374" lon="6.38333">
        <ele>1650</ele>
        <time>2026-08-19T09:33:33.344Z</time>
      </trkpt>
      <trkpt lat="45.93741" lon="6.38332">
        <ele>1651</ele>
        <time>2026-08-19T09:33:34.344Z</time>
      </trkpt>
      <trkpt lat="45.93742" lon="6.38332">
        <ele>1651</ele>
        <time>2026-08-19T09:33:35.344Z</time>
      </trkpt>
      <trkpt lat="45.93742" lon="6.38332">
        <ele>1652</ele>
        <time>2026-08-19T09:33:36.344Z</time>
      </trkpt>
      <trkpt lat="45.93743" lon="6.38332">
        <ele>1653</ele>
        <time>2026-08-19T09:33:37.344Z</time>
      </trkpt>
      <trkpt lat="45.93743" lon="6.38331">
        <ele>1653</ele>
        <time>2026-08-19T09:33:38.344Z</time>
      </trkpt>
      <trkpt lat="45.93744" lon="6.38331">
        <ele>1653</ele>
        <time>2026-08-19T09:33:39.344Z</time>
      </trkpt>
      <trkpt lat="45.93745" lon="6.38331">
        <ele>1653</ele>
        <time>2026-08-19T09:33:40.345Z</time>
      </trkpt>
      <trkpt lat="45.93745" lon="6.3833">
        <ele>1653</ele>
        <time>2026-08-19T09:33:41.344Z</time>
      </trkpt>
      <trkpt lat="45.93746" lon="6.3833">
        <ele>1653</ele>
        <time>2026-08-19T09:33:42.344Z</time>
      </trkpt>
      <trkpt lat="45.93747" lon="6.3833">
        <ele>1654</ele>
        <time>2026-08-19T09:33:43.344Z</time>
      </trkpt>
      <trkpt lat="45.93748" lon="6.38329">
        <ele>1654</ele>
        <time>2026-08-19T09:33:44.344Z</time>
      </trkpt>
      <trkpt lat="45.93748" lon="6.38329">
        <ele>1655</ele>
        <time>2026-08-19T09:33:45.344Z</time>
      </trkpt>
      <trkpt lat="45.93749" lon="6.38328">
        <ele>1655</ele>
        <time>2026-08-19T09:33:46.344Z</time>
      </trkpt>
      <trkpt lat="45.9375" lon="6.38328">
        <ele>1655</ele>
        <time>2026-08-19T09:33:47.344Z</time>
      </trkpt>
      <trkpt lat="45.9375" lon="6.38327">
        <ele>1656</ele>
        <time>2026-08-19T09:33:48.344Z</time>
      </trkpt>
      <trkpt lat="45.93751" lon="6.38327">
        <ele>1656</ele>
        <time>2026-08-19T09:33:49.344Z</time>
      </trkpt>
      <trkpt lat="45.93751" lon="6.38328">
        <ele>1656</ele>
        <time>2026-08-19T09:33:50.344Z</time>
      </trkpt>
      <trkpt lat="45.93752" lon="6.38328">
        <ele>1656</ele>
        <time>2026-08-19T09:33:51.344Z</time>
      </trkpt>
      <trkpt lat="45.93753" lon="6.38328">
        <ele>1656</ele>
        <time>2026-08-19T09:33:52.344Z</time>
      </trkpt>
      <trkpt lat="45.93753" lon="6.38328">
        <ele>1656</ele>
        <time>2026-08-19T09:33:53.344Z</time>
      </trkpt>
      <trkpt lat="45.93754" lon="6.38328">
        <ele>1656</ele>
        <time>2026-08-19T09:33:54.344Z</time>
      </trkpt>
      <trkpt lat="45.93754" lon="6.38328">
        <ele>1657</ele>
        <time>2026-08-19T09:33:55.344Z</time>
      </trkpt>
      <trkpt lat="45.93755" lon="6.38328">
        <ele>1657</ele>
        <time>2026-08-19T09:33:56.345Z</time>
      </trkpt>
      <trkpt lat="45.93755" lon="6.38328">
        <ele>1657</ele>
        <time>2026-08-19T09:33:57.344Z</time>
      </trkpt>
      <trkpt lat="45.93756" lon="6.38328">
        <ele>1657</ele>
        <time>2026-08-19T09:33:58.344Z</time>
      </trkpt>
      <trkpt lat="45.93756" lon="6.38327">
        <ele>1657</ele>
        <time>2026-08-19T09:33:59.344Z</time>
      </trkpt>
      <trkpt lat="45.93756" lon="6.38326">
        <ele>1656</ele>
        <time>2026-08-19T09:34:00.344Z</time>
      </trkpt>
      <trkpt lat="45.93756" lon="6.38326">
        <ele>1656</ele>
        <time>2026-08-19T09:34:01.344Z</time>
      </trkpt>
      <trkpt lat="45.93756" lon="6.38326">
        <ele>1656</ele>
        <time>2026-08-19T09:34:02.344Z</time>
      </trkpt>
      <trkpt lat="45.93757" lon="6.38326">
        <ele>1656</ele>
        <time>2026-08-19T09:34:03.344Z</time>
      </trkpt>
      <trkpt lat="45.93757" lon="6.38326">
        <ele>1656</ele>
        <time>2026-08-19T09:34:04.344Z</time>
      </trkpt>
      <trkpt lat="45.93758" lon="6.38326">
        <ele>1656</ele>
        <time>2026-08-19T09:34:05.344Z</time>
      </trkpt>
      <trkpt lat="45.93759" lon="6.38327">
        <ele>1656</ele>
        <time>2026-08-19T09:34:06.344Z</time>
      </trkpt>
      <trkpt lat="45.9376" lon="6.38327">
        <ele>1656</ele>
        <time>2026-08-19T09:34:07.344Z</time>
      </trkpt>
      <trkpt lat="45.93761" lon="6.38328">
        <ele>1656</ele>
        <time>2026-08-19T09:34:08.344Z</time>
      </trkpt>
      <trkpt lat="45.93761" lon="6.38328">
        <ele>1657</ele>
        <time>2026-08-19T09:34:09.344Z</time>
      </trkpt>
      <trkpt lat="45.93762" lon="6.38328">
        <ele>1657</ele>
        <time>2026-08-19T09:34:10.344Z</time>
      </trkpt>
      <trkpt lat="45.93763" lon="6.38328">
        <ele>1657</ele>
        <time>2026-08-19T09:34:11.345Z</time>
      </trkpt>
      <trkpt lat="45.93764" lon="6.38328">
        <ele>1657</ele>
        <time>2026-08-19T09:34:12.344Z</time>
      </trkpt>
      <trkpt lat="45.93765" lon="6.38329">
        <ele>1657</ele>
        <time>2026-08-19T09:34:13.344Z</time>
      </trkpt>
      <trkpt lat="45.93766" lon="6.3833">
        <ele>1657</ele>
        <time>2026-08-19T09:34:14.344Z</time>
      </trkpt>
      <trkpt lat="45.93767" lon="6.3833">
        <ele>1657</ele>
        <time>2026-08-19T09:34:15.344Z</time>
      </trkpt>
      <trkpt lat="45.93768" lon="6.3833">
        <ele>1657</ele>
        <time>2026-08-19T09:34:16.344Z</time>
      </trkpt>
      <trkpt lat="45.93769" lon="6.3833">
        <ele>1657</ele>
        <time>2026-08-19T09:34:17.344Z</time>
      </trkpt>
      <trkpt lat="45.93769" lon="6.3833">
        <ele>1657</ele>
        <time>2026-08-19T09:34:18.344Z</time>
      </trkpt>
      <trkpt lat="45.93769" lon="6.3833">
        <ele>1657</ele>
        <time>2026-08-19T09:34:19.344Z</time>
      </trkpt>
      <trkpt lat="45.9377" lon="6.3833">
        <ele>1657</ele>
        <time>2026-08-19T09:34:20.344Z</time>
      </trkpt>
      <trkpt lat="45.9377" lon="6.3833">
        <ele>1657</ele>
        <time>2026-08-19T09:34:21.344Z</time>
      </trkpt>
      <trkpt lat="45.93771" lon="6.3833">
        <ele>1658</ele>
        <time>2026-08-19T09:34:22.344Z</time>
      </trkpt>
      <trkpt lat="45.93771" lon="6.3833">
        <ele>1658</ele>
        <time>2026-08-19T09:34:23.344Z</time>
      </trkpt>
      <trkpt lat="45.93772" lon="6.3833">
        <ele>1659</ele>
        <time>2026-08-19T09:34:24.344Z</time>
      </trkpt>
      <trkpt lat="45.93772" lon="6.38329">
        <ele>1659</ele>
        <time>2026-08-19T09:34:25.344Z</time>
      </trkpt>
      <trkpt lat="45.93772" lon="6.38329">
        <ele>1660</ele>
        <time>2026-08-19T09:34:26.345Z</time>
      </trkpt>
      <trkpt lat="45.93773" lon="6.38329">
        <ele>1660</ele>
        <time>2026-08-19T09:34:27.344Z</time>
      </trkpt>
      <trkpt lat="45.93773" lon="6.38328">
        <ele>1661</ele>
        <time>2026-08-19T09:34:28.344Z</time>
      </trkpt>
      <trkpt lat="45.93774" lon="6.38328">
        <ele>1661</ele>
        <time>2026-08-19T09:34:29.344Z</time>
      </trkpt>
      <trkpt lat="45.93775" lon="6.38328">
        <ele>1662</ele>
        <time>2026-08-19T09:34:30.344Z</time>
      </trkpt>
      <trkpt lat="45.93775" lon="6.38328">
        <ele>1662</ele>
        <time>2026-08-19T09:34:31.344Z</time>
      </trkpt>
      <trkpt lat="45.93775" lon="6.38327">
        <ele>1663</ele>
        <time>2026-08-19T09:34:32.344Z</time>
      </trkpt>
      <trkpt lat="45.93775" lon="6.38327">
        <ele>1664</ele>
        <time>2026-08-19T09:34:33.344Z</time>
      </trkpt>
      <trkpt lat="45.93776" lon="6.38327">
        <ele>1664</ele>
        <time>2026-08-19T09:34:34.344Z</time>
      </trkpt>
      <trkpt lat="45.93776" lon="6.38327">
        <ele>1665</ele>
        <time>2026-08-19T09:34:35.344Z</time>
      </trkpt>
      <trkpt lat="45.93777" lon="6.38327">
        <ele>1665</ele>
        <time>2026-08-19T09:34:36.344Z</time>
      </trkpt>
      <trkpt lat="45.93777" lon="6.38327">
        <ele>1665</ele>
        <time>2026-08-19T09:34:37.344Z</time>
      </trkpt>
      <trkpt lat="45.93778" lon="6.38327">
        <ele>1665</ele>
        <time>2026-08-19T09:34:38.345Z</time>
      </trkpt>
      <trkpt lat="45.93779" lon="6.38327">
        <ele>1666</ele>
        <time>2026-08-19T09:34:39.344Z</time>
      </trkpt>
      <trkpt lat="45.9378" lon="6.38326">
        <ele>1666</ele>
        <time>2026-08-19T09:34:40.345Z</time>
      </trkpt>
      <trkpt lat="45.93781" lon="6.38326">
        <ele>1666</ele>
        <time>2026-08-19T09:34:41.344Z</time>
      </trkpt>
      <trkpt lat="45.93781" lon="6.38326">
        <ele>1667</ele>
        <time>2026-08-19T09:34:42.345Z</time>
      </trkpt>
      <trkpt lat="45.93781" lon="6.38325">
        <ele>1667</ele>
        <time>2026-08-19T09:34:43.344Z</time>
      </trkpt>
      <trkpt lat="45.93782" lon="6.38325">
        <ele>1667</ele>
        <time>2026-08-19T09:34:44.344Z</time>
      </trkpt>
      <trkpt lat="45.93782" lon="6.38325">
        <ele>1667</ele>
        <time>2026-08-19T09:34:45.344Z</time>
      </trkpt>
      <trkpt lat="45.93782" lon="6.38325">
        <ele>1667</ele>
        <time>2026-08-19T09:34:46.344Z</time>
      </trkpt>
      <trkpt lat="45.93783" lon="6.38324">
        <ele>1667</ele>
        <time>2026-08-19T09:34:47.344Z</time>
      </trkpt>
      <trkpt lat="45.93784" lon="6.38324">
        <ele>1667</ele>
        <time>2026-08-19T09:34:48.344Z</time>
      </trkpt>
      <trkpt lat="45.93785" lon="6.38324">
        <ele>1668</ele>
        <time>2026-08-19T09:34:49.344Z</time>
      </trkpt>
      <trkpt lat="45.93786" lon="6.38324">
        <ele>1668</ele>
        <time>2026-08-19T09:34:50.344Z</time>
      </trkpt>
      <trkpt lat="45.93787" lon="6.38325">
        <ele>1668</ele>
        <time>2026-08-19T09:34:51.344Z</time>
      </trkpt>
      <trkpt lat="45.93788" lon="6.38325">
        <ele>1668</ele>
        <time>2026-08-19T09:34:52.344Z</time>
      </trkpt>
      <trkpt lat="45.93789" lon="6.38324">
        <ele>1668</ele>
        <time>2026-08-19T09:34:53.344Z</time>
      </trkpt>
      <trkpt lat="45.9379" lon="6.38323">
        <ele>1669</ele>
        <time>2026-08-19T09:34:54.344Z</time>
      </trkpt>
      <trkpt lat="45.9379" lon="6.38323">
        <ele>1669</ele>
        <time>2026-08-19T09:34:55.345Z</time>
      </trkpt>
      <trkpt lat="45.93791" lon="6.38322">
        <ele>1670</ele>
        <time>2026-08-19T09:34:56.344Z</time>
      </trkpt>
      <trkpt lat="45.93792" lon="6.38321">
        <ele>1670</ele>
        <time>2026-08-19T09:34:57.344Z</time>
      </trkpt>
      <trkpt lat="45.93792" lon="6.38321">
        <ele>1670</ele>
        <time>2026-08-19T09:34:58.344Z</time>
      </trkpt>
      <trkpt lat="45.93793" lon="6.3832">
        <ele>1670</ele>
        <time>2026-08-19T09:34:59.344Z</time>
      </trkpt>
      <trkpt lat="45.93794" lon="6.38318">
        <ele>1670</ele>
        <time>2026-08-19T09:35:00.344Z</time>
      </trkpt>
      <trkpt lat="45.93794" lon="6.38317">
        <ele>1670</ele>
        <time>2026-08-19T09:35:01.344Z</time>
      </trkpt>
      <trkpt lat="45.93795" lon="6.38316">
        <ele>1670</ele>
        <time>2026-08-19T09:35:02.344Z</time>
      </trkpt>
      <trkpt lat="45.93795" lon="6.38316">
        <ele>1670</ele>
        <time>2026-08-19T09:35:03.344Z</time>
      </trkpt>
      <trkpt lat="45.93796" lon="6.38315">
        <ele>1669</ele>
        <time>2026-08-19T09:35:04.344Z</time>
      </trkpt>
      <trkpt lat="45.93797" lon="6.38315">
        <ele>1669</ele>
        <time>2026-08-19T09:35:05.344Z</time>
      </trkpt>
      <trkpt lat="45.93797" lon="6.38315">
        <ele>1669</ele>
        <time>2026-08-19T09:35:06.344Z</time>
      </trkpt>
      <trkpt lat="45.93798" lon="6.38315">
        <ele>1669</ele>
        <time>2026-08-19T09:35:07.344Z</time>
      </trkpt>
      <trkpt lat="45.93798" lon="6.38315">
        <ele>1669</ele>
        <time>2026-08-19T09:35:08.344Z</time>
      </trkpt>
      <trkpt lat="45.93798" lon="6.38316">
        <ele>1669</ele>
        <time>2026-08-19T09:35:09.344Z</time>
      </trkpt>
      <trkpt lat="45.93799" lon="6.38315">
        <ele>1669</ele>
        <time>2026-08-19T09:35:10.344Z</time>
      </trkpt>
      <trkpt lat="45.938" lon="6.38315">
        <ele>1669</ele>
        <time>2026-08-19T09:35:11.344Z</time>
      </trkpt>
      <trkpt lat="45.93801" lon="6.38315">
        <ele>1669</ele>
        <time>2026-08-19T09:35:12.344Z</time>
      </trkpt>
      <trkpt lat="45.93802" lon="6.38315">
        <ele>1669</ele>
        <time>2026-08-19T09:35:13.344Z</time>
      </trkpt>
      <trkpt lat="45.93803" lon="6.38314">
        <ele>1669</ele>
        <time>2026-08-19T09:35:14.344Z</time>
      </trkpt>
      <trkpt lat="45.93804" lon="6.38314">
        <ele>1669</ele>
        <time>2026-08-19T09:35:15.344Z</time>
      </trkpt>
      <trkpt lat="45.93805" lon="6.38314">
        <ele>1669</ele>
        <time>2026-08-19T09:35:16.344Z</time>
      </trkpt>
      <trkpt lat="45.93806" lon="6.38314">
        <ele>1669</ele>
        <time>2026-08-19T09:35:17.344Z</time>
      </trkpt>
      <trkpt lat="45.93807" lon="6.38313">
        <ele>1669</ele>
        <time>2026-08-19T09:35:18.344Z</time>
      </trkpt>
      <trkpt lat="45.93808" lon="6.38313">
        <ele>1669</ele>
        <time>2026-08-19T09:35:19.344Z</time>
      </trkpt>
      <trkpt lat="45.93809" lon="6.38313">
        <ele>1669</ele>
        <time>2026-08-19T09:35:20.344Z</time>
      </trkpt>
      <trkpt lat="45.9381" lon="6.38313">
        <ele>1670</ele>
        <time>2026-08-19T09:35:21.344Z</time>
      </trkpt>
      <trkpt lat="45.93812" lon="6.38313">
        <ele>1670</ele>
        <time>2026-08-19T09:35:22.344Z</time>
      </trkpt>
      <trkpt lat="45.93813" lon="6.38313">
        <ele>1670</ele>
        <time>2026-08-19T09:35:23.344Z</time>
      </trkpt>
      <trkpt lat="45.93813" lon="6.38313">
        <ele>1671</ele>
        <time>2026-08-19T09:35:24.344Z</time>
      </trkpt>
      <trkpt lat="45.93814" lon="6.38314">
        <ele>1671</ele>
        <time>2026-08-19T09:35:25.344Z</time>
      </trkpt>
      <trkpt lat="45.93815" lon="6.38314">
        <ele>1672</ele>
        <time>2026-08-19T09:35:26.344Z</time>
      </trkpt>
      <trkpt lat="45.93815" lon="6.38315">
        <ele>1673</ele>
        <time>2026-08-19T09:35:27.344Z</time>
      </trkpt>
      <trkpt lat="45.93816" lon="6.38315">
        <ele>1673</ele>
        <time>2026-08-19T09:35:28.344Z</time>
      </trkpt>
      <trkpt lat="45.93816" lon="6.38316">
        <ele>1673</ele>
        <time>2026-08-19T09:35:29.344Z</time>
      </trkpt>
      <trkpt lat="45.93816" lon="6.38317">
        <ele>1673</ele>
        <time>2026-08-19T09:35:30.344Z</time>
      </trkpt>
      <trkpt lat="45.93817" lon="6.38317">
        <ele>1673</ele>
        <time>2026-08-19T09:35:31.344Z</time>
      </trkpt>
      <trkpt lat="45.93817" lon="6.38317">
        <ele>1673</ele>
        <time>2026-08-19T09:35:32.344Z</time>
      </trkpt>
      <trkpt lat="45.93817" lon="6.38317">
        <ele>1673</ele>
        <time>2026-08-19T09:35:33.344Z</time>
      </trkpt>
      <trkpt lat="45.93818" lon="6.38317">
        <ele>1673</ele>
        <time>2026-08-19T09:35:34.344Z</time>
      </trkpt>
      <trkpt lat="45.93818" lon="6.38317">
        <ele>1674</ele>
        <time>2026-08-19T09:35:35.344Z</time>
      </trkpt>
      <trkpt lat="45.93818" lon="6.38317">
        <ele>1674</ele>
        <time>2026-08-19T09:35:36.344Z</time>
      </trkpt>
      <trkpt lat="45.93819" lon="6.38317">
        <ele>1674</ele>
        <time>2026-08-19T09:35:37.344Z</time>
      </trkpt>
      <trkpt lat="45.9382" lon="6.38318">
        <ele>1674</ele>
        <time>2026-08-19T09:35:38.344Z</time>
      </trkpt>
      <trkpt lat="45.93821" lon="6.38319">
        <ele>1675</ele>
        <time>2026-08-19T09:35:39.344Z</time>
      </trkpt>
      <trkpt lat="45.93821" lon="6.3832">
        <ele>1675</ele>
        <time>2026-08-19T09:35:40.344Z</time>
      </trkpt>
      <trkpt lat="45.93822" lon="6.3832">
        <ele>1676</ele>
        <time>2026-08-19T09:35:41.344Z</time>
      </trkpt>
      <trkpt lat="45.93822" lon="6.38321">
        <ele>1676</ele>
        <time>2026-08-19T09:35:42.344Z</time>
      </trkpt>
      <trkpt lat="45.93823" lon="6.38321">
        <ele>1677</ele>
        <time>2026-08-19T09:35:43.344Z</time>
      </trkpt>
      <trkpt lat="45.93824" lon="6.38321">
        <ele>1678</ele>
        <time>2026-08-19T09:35:44.344Z</time>
      </trkpt>
      <trkpt lat="45.93824" lon="6.38321">
        <ele>1678</ele>
        <time>2026-08-19T09:35:45.344Z</time>
      </trkpt>
      <trkpt lat="45.93824" lon="6.38321">
        <ele>1678</ele>
        <time>2026-08-19T09:35:46.344Z</time>
      </trkpt>
      <trkpt lat="45.93824" lon="6.38321">
        <ele>1679</ele>
        <time>2026-08-19T09:35:47.344Z</time>
      </trkpt>
      <trkpt lat="45.93825" lon="6.38321">
        <ele>1679</ele>
        <time>2026-08-19T09:35:48.344Z</time>
      </trkpt>
      <trkpt lat="45.93825" lon="6.38321">
        <ele>1679</ele>
        <time>2026-08-19T09:35:49.344Z</time>
      </trkpt>
      <trkpt lat="45.93825" lon="6.38321">
        <ele>1679</ele>
        <time>2026-08-19T09:35:50.344Z</time>
      </trkpt>
      <trkpt lat="45.93825" lon="6.38321">
        <ele>1679</ele>
        <time>2026-08-19T09:35:51.344Z</time>
      </trkpt>
      <trkpt lat="45.93826" lon="6.38321">
        <ele>1679</ele>
        <time>2026-08-19T09:35:52.344Z</time>
      </trkpt>
      <trkpt lat="45.93826" lon="6.38321">
        <ele>1679</ele>
        <time>2026-08-19T09:35:53.344Z</time>
      </trkpt>
      <trkpt lat="45.93827" lon="6.38321">
        <ele>1679</ele>
        <time>2026-08-19T09:35:54.344Z</time>
      </trkpt>
      <trkpt lat="45.93828" lon="6.38322">
        <ele>1680</ele>
        <time>2026-08-19T09:35:55.344Z</time>
      </trkpt>
      <trkpt lat="45.93829" lon="6.38322">
        <ele>1680</ele>
        <time>2026-08-19T09:35:56.344Z</time>
      </trkpt>
      <trkpt lat="45.9383" lon="6.38322">
        <ele>1680</ele>
        <time>2026-08-19T09:35:57.344Z</time>
      </trkpt>
      <trkpt lat="45.93831" lon="6.38321">
        <ele>1680</ele>
        <time>2026-08-19T09:35:58.344Z</time>
      </trkpt>
      <trkpt lat="45.93831" lon="6.3832">
        <ele>1680</ele>
        <time>2026-08-19T09:35:59.344Z</time>
      </trkpt>
      <trkpt lat="45.93832" lon="6.3832">
        <ele>1681</ele>
        <time>2026-08-19T09:36:00.344Z</time>
      </trkpt>
      <trkpt lat="45.93832" lon="6.38319">
        <ele>1681</ele>
        <time>2026-08-19T09:36:01.344Z</time>
      </trkpt>
      <trkpt lat="45.93833" lon="6.38318">
        <ele>1681</ele>
        <time>2026-08-19T09:36:02.344Z</time>
      </trkpt>
      <trkpt lat="45.93833" lon="6.38317">
        <ele>1681</ele>
        <time>2026-08-19T09:36:03.344Z</time>
      </trkpt>
      <trkpt lat="45.93834" lon="6.38316">
        <ele>1681</ele>
        <time>2026-08-19T09:36:04.344Z</time>
      </trkpt>
      <trkpt lat="45.93834" lon="6.38315">
        <ele>1682</ele>
        <time>2026-08-19T09:36:05.344Z</time>
      </trkpt>
      <trkpt lat="45.93834" lon="6.38313">
        <ele>1682</ele>
        <time>2026-08-19T09:36:06.344Z</time>
      </trkpt>
      <trkpt lat="45.93834" lon="6.38312">
        <ele>1682</ele>
        <time>2026-08-19T09:36:07.344Z</time>
      </trkpt>
      <trkpt lat="45.93834" lon="6.38311">
        <ele>1682</ele>
        <time>2026-08-19T09:36:08.344Z</time>
      </trkpt>
      <trkpt lat="45.93834" lon="6.3831">
        <ele>1682</ele>
        <time>2026-08-19T09:36:09.344Z</time>
      </trkpt>
      <trkpt lat="45.93834" lon="6.38309">
        <ele>1682</ele>
        <time>2026-08-19T09:36:10.344Z</time>
      </trkpt>
      <trkpt lat="45.93834" lon="6.38308">
        <ele>1682</ele>
        <time>2026-08-19T09:36:11.344Z</time>
      </trkpt>
      <trkpt lat="45.93833" lon="6.38307">
        <ele>1682</ele>
        <time>2026-08-19T09:36:12.344Z</time>
      </trkpt>
      <trkpt lat="45.93833" lon="6.38306">
        <ele>1682</ele>
        <time>2026-08-19T09:36:13.344Z</time>
      </trkpt>
      <trkpt lat="45.93832" lon="6.38305">
        <ele>1682</ele>
        <time>2026-08-19T09:36:14.344Z</time>
      </trkpt>
      <trkpt lat="45.93832" lon="6.38303">
        <ele>1682</ele>
        <time>2026-08-19T09:36:15.344Z</time>
      </trkpt>
      <trkpt lat="45.93831" lon="6.38302">
        <ele>1682</ele>
        <time>2026-08-19T09:36:16.344Z</time>
      </trkpt>
      <trkpt lat="45.93831" lon="6.38301">
        <ele>1682</ele>
        <time>2026-08-19T09:36:17.344Z</time>
      </trkpt>
      <trkpt lat="45.9383" lon="6.38299">
        <ele>1682</ele>
        <time>2026-08-19T09:36:18.344Z</time>
      </trkpt>
      <trkpt lat="45.9383" lon="6.38298">
        <ele>1682</ele>
        <time>2026-08-19T09:36:19.344Z</time>
      </trkpt>
      <trkpt lat="45.9383" lon="6.38296">
        <ele>1682</ele>
        <time>2026-08-19T09:36:20.344Z</time>
      </trkpt>
      <trkpt lat="45.9383" lon="6.38294">
        <ele>1682</ele>
        <time>2026-08-19T09:36:21.344Z</time>
      </trkpt>
      <trkpt lat="45.9383" lon="6.38293">
        <ele>1682</ele>
        <time>2026-08-19T09:36:22.344Z</time>
      </trkpt>
      <trkpt lat="45.9383" lon="6.38292">
        <ele>1682</ele>
        <time>2026-08-19T09:36:23.344Z</time>
      </trkpt>
      <trkpt lat="45.9383" lon="6.38291">
        <ele>1682</ele>
        <time>2026-08-19T09:36:24.344Z</time>
      </trkpt>
      <trkpt lat="45.9383" lon="6.38289">
        <ele>1682</ele>
        <time>2026-08-19T09:36:25.344Z</time>
      </trkpt>
      <trkpt lat="45.93829" lon="6.38288">
        <ele>1683</ele>
        <time>2026-08-19T09:36:26.344Z</time>
      </trkpt>
      <trkpt lat="45.93829" lon="6.38286">
        <ele>1683</ele>
        <time>2026-08-19T09:36:27.344Z</time>
      </trkpt>
      <trkpt lat="45.93829" lon="6.38285">
        <ele>1683</ele>
        <time>2026-08-19T09:36:28.344Z</time>
      </trkpt>
      <trkpt lat="45.93829" lon="6.38284">
        <ele>1684</ele>
        <time>2026-08-19T09:36:29.344Z</time>
      </trkpt>
      <trkpt lat="45.9383" lon="6.38283">
        <ele>1684</ele>
        <time>2026-08-19T09:36:30.344Z</time>
      </trkpt>
      <trkpt lat="45.9383" lon="6.38282">
        <ele>1684</ele>
        <time>2026-08-19T09:36:31.344Z</time>
      </trkpt>
      <trkpt lat="45.9383" lon="6.38282">
        <ele>1684</ele>
        <time>2026-08-19T09:36:32.344Z</time>
      </trkpt>
      <trkpt lat="45.93831" lon="6.38281">
        <ele>1685</ele>
        <time>2026-08-19T09:36:33.344Z</time>
      </trkpt>
      <trkpt lat="45.93831" lon="6.38281">
        <ele>1685</ele>
        <time>2026-08-19T09:36:34.344Z</time>
      </trkpt>
      <trkpt lat="45.93831" lon="6.3828">
        <ele>1685</ele>
        <time>2026-08-19T09:36:35.344Z</time>
      </trkpt>
      <trkpt lat="45.93832" lon="6.38281">
        <ele>1685</ele>
        <time>2026-08-19T09:36:36.344Z</time>
      </trkpt>
      <trkpt lat="45.93834" lon="6.38281">
        <ele>1685</ele>
        <time>2026-08-19T09:36:37.344Z</time>
      </trkpt>
      <trkpt lat="45.93834" lon="6.38281">
        <ele>1685</ele>
        <time>2026-08-19T09:36:38.344Z</time>
      </trkpt>
      <trkpt lat="45.93835" lon="6.38281">
        <ele>1686</ele>
        <time>2026-08-19T09:36:39.344Z</time>
      </trkpt>
      <trkpt lat="45.93835" lon="6.38281">
        <ele>1686</ele>
        <time>2026-08-19T09:36:40.344Z</time>
      </trkpt>
      <trkpt lat="45.93836" lon="6.38281">
        <ele>1687</ele>
        <time>2026-08-19T09:36:41.345Z</time>
      </trkpt>
      <trkpt lat="45.93836" lon="6.38281">
        <ele>1687</ele>
        <time>2026-08-19T09:36:42.344Z</time>
      </trkpt>
      <trkpt lat="45.93836" lon="6.38281">
        <ele>1687</ele>
        <time>2026-08-19T09:36:43.345Z</time>
      </trkpt>
      <trkpt lat="45.93836" lon="6.38281">
        <ele>1688</ele>
        <time>2026-08-19T09:36:44.344Z</time>
      </trkpt>
      <trkpt lat="45.93836" lon="6.38281">
        <ele>1688</ele>
        <time>2026-08-19T09:36:45.344Z</time>
      </trkpt>
      <trkpt lat="45.93836" lon="6.38281">
        <ele>1688</ele>
        <time>2026-08-19T09:36:46.344Z</time>
      </trkpt>
      <trkpt lat="45.93836" lon="6.38282">
        <ele>1689</ele>
        <time>2026-08-19T09:36:47.344Z</time>
      </trkpt>
      <trkpt lat="45.93837" lon="6.38282">
        <ele>1689</ele>
        <time>2026-08-19T09:36:48.344Z</time>
      </trkpt>
      <trkpt lat="45.93837" lon="6.38283">
        <ele>1689</ele>
        <time>2026-08-19T09:36:49.344Z</time>
      </trkpt>
      <trkpt lat="45.93837" lon="6.38283">
        <ele>1689</ele>
        <time>2026-08-19T09:36:50.344Z</time>
      </trkpt>
      <trkpt lat="45.93837" lon="6.38283">
        <ele>1689</ele>
        <time>2026-08-19T09:36:51.344Z</time>
      </trkpt>
      <trkpt lat="45.93837" lon="6.38284">
        <ele>1689</ele>
        <time>2026-08-19T09:36:52.344Z</time>
      </trkpt>
      <trkpt lat="45.93837" lon="6.38284">
        <ele>1689</ele>
        <time>2026-08-19T09:36:53.344Z</time>
      </trkpt>
      <trkpt lat="45.93837" lon="6.38284">
        <ele>1689</ele>
        <time>2026-08-19T09:36:54.344Z</time>
      </trkpt>
      <trkpt lat="45.93837" lon="6.38284">
        <ele>1689</ele>
        <time>2026-08-19T09:36:55.344Z</time>
      </trkpt>
      <trkpt lat="45.93837" lon="6.38284">
        <ele>1689</ele>
        <time>2026-08-19T09:36:56.344Z</time>
      </trkpt>
      <trkpt lat="45.93837" lon="6.38284">
        <ele>1689</ele>
        <time>2026-08-19T09:36:57.344Z</time>
      </trkpt>
      <trkpt lat="45.93837" lon="6.38284">
        <ele>1689</ele>
        <time>2026-08-19T09:36:58.344Z</time>
      </trkpt>
      <trkpt lat="45.93837" lon="6.38284">
        <ele>1689</ele>
        <time>2026-08-19T09:36:59.344Z</time>
      </trkpt>
      <trkpt lat="45.93837" lon="6.38284">
        <ele>1689</ele>
        <time>2026-08-19T09:37:00.344Z</time>
      </trkpt>
      <trkpt lat="45.93837" lon="6.38284">
        <ele>1690</ele>
        <time>2026-08-19T09:37:01.344Z</time>
      </trkpt>
      <trkpt lat="45.93837" lon="6.38284">
        <ele>1690</ele>
        <time>2026-08-19T09:37:02.344Z</time>
      </trkpt>
      <trkpt lat="45.93838" lon="6.38283">
        <ele>1690</ele>
        <time>2026-08-19T09:37:03.344Z</time>
      </trkpt>
      <trkpt lat="45.93839" lon="6.38283">
        <ele>1690</ele>
        <time>2026-08-19T09:37:04.344Z</time>
      </trkpt>
      <trkpt lat="45.9384" lon="6.38283">
        <ele>1690</ele>
        <time>2026-08-19T09:37:05.344Z</time>
      </trkpt>
      <trkpt lat="45.93841" lon="6.38283">
        <ele>1690</ele>
        <time>2026-08-19T09:37:06.344Z</time>
      </trkpt>
      <trkpt lat="45.93843" lon="6.38283">
        <ele>1691</ele>
        <time>2026-08-19T09:37:07.344Z</time>
      </trkpt>
      <trkpt lat="45.93844" lon="6.38283">
        <ele>1691</ele>
        <time>2026-08-19T09:37:08.345Z</time>
      </trkpt>
      <trkpt lat="45.93845" lon="6.38283">
        <ele>1691</ele>
        <time>2026-08-19T09:37:09.344Z</time>
      </trkpt>
      <trkpt lat="45.93846" lon="6.38283">
        <ele>1691</ele>
        <time>2026-08-19T09:37:10.344Z</time>
      </trkpt>
      <trkpt lat="45.93847" lon="6.38283">
        <ele>1692</ele>
        <time>2026-08-19T09:37:11.344Z</time>
      </trkpt>
      <trkpt lat="45.93848" lon="6.38282">
        <ele>1692</ele>
        <time>2026-08-19T09:37:12.344Z</time>
      </trkpt>
      <trkpt lat="45.9385" lon="6.38282">
        <ele>1693</ele>
        <time>2026-08-19T09:37:13.344Z</time>
      </trkpt>
      <trkpt lat="45.93851" lon="6.38282">
        <ele>1693</ele>
        <time>2026-08-19T09:37:14.344Z</time>
      </trkpt>
      <trkpt lat="45.93853" lon="6.38281">
        <ele>1694</ele>
        <time>2026-08-19T09:37:15.344Z</time>
      </trkpt>
      <trkpt lat="45.93854" lon="6.38281">
        <ele>1694</ele>
        <time>2026-08-19T09:37:16.344Z</time>
      </trkpt>
      <trkpt lat="45.93855" lon="6.38281">
        <ele>1695</ele>
        <time>2026-08-19T09:37:17.344Z</time>
      </trkpt>
      <trkpt lat="45.93856" lon="6.3828">
        <ele>1695</ele>
        <time>2026-08-19T09:37:18.344Z</time>
      </trkpt>
      <trkpt lat="45.93856" lon="6.3828">
        <ele>1696</ele>
        <time>2026-08-19T09:37:19.344Z</time>
      </trkpt>
      <trkpt lat="45.93856" lon="6.38279">
        <ele>1696</ele>
        <time>2026-08-19T09:37:20.344Z</time>
      </trkpt>
      <trkpt lat="45.93857" lon="6.38279">
        <ele>1697</ele>
        <time>2026-08-19T09:37:21.344Z</time>
      </trkpt>
      <trkpt lat="45.93858" lon="6.38278">
        <ele>1697</ele>
        <time>2026-08-19T09:37:22.344Z</time>
      </trkpt>
      <trkpt lat="45.93859" lon="6.38278">
        <ele>1697</ele>
        <time>2026-08-19T09:37:23.344Z</time>
      </trkpt>
      <trkpt lat="45.93859" lon="6.38278">
        <ele>1697</ele>
        <time>2026-08-19T09:37:24.344Z</time>
      </trkpt>
      <trkpt lat="45.9386" lon="6.38278">
        <ele>1697</ele>
        <time>2026-08-19T09:37:25.344Z</time>
      </trkpt>
      <trkpt lat="45.9386" lon="6.38278">
        <ele>1697</ele>
        <time>2026-08-19T09:37:26.344Z</time>
      </trkpt>
      <trkpt lat="45.9386" lon="6.38278">
        <ele>1698</ele>
        <time>2026-08-19T09:37:27.344Z</time>
      </trkpt>
      <trkpt lat="45.93861" lon="6.38278">
        <ele>1698</ele>
        <time>2026-08-19T09:37:28.344Z</time>
      </trkpt>
      <trkpt lat="45.93861" lon="6.38278">
        <ele>1698</ele>
        <time>2026-08-19T09:37:29.344Z</time>
      </trkpt>
      <trkpt lat="45.93861" lon="6.38278">
        <ele>1698</ele>
        <time>2026-08-19T09:37:30.344Z</time>
      </trkpt>
      <trkpt lat="45.93862" lon="6.38277">
        <ele>1698</ele>
        <time>2026-08-19T09:37:31.344Z</time>
      </trkpt>
      <trkpt lat="45.93862" lon="6.38277">
        <ele>1698</ele>
        <time>2026-08-19T09:37:32.344Z</time>
      </trkpt>
      <trkpt lat="45.93862" lon="6.38277">
        <ele>1698</ele>
        <time>2026-08-19T09:37:33.344Z</time>
      </trkpt>
      <trkpt lat="45.93863" lon="6.38277">
        <ele>1698</ele>
        <time>2026-08-19T09:37:34.344Z</time>
      </trkpt>
      <trkpt lat="45.93863" lon="6.38277">
        <ele>1698</ele>
        <time>2026-08-19T09:37:35.344Z</time>
      </trkpt>
      <trkpt lat="45.93864" lon="6.38278">
        <ele>1698</ele>
        <time>2026-08-19T09:37:36.344Z</time>
      </trkpt>
      <trkpt lat="45.93864" lon="6.38277">
        <ele>1699</ele>
        <time>2026-08-19T09:37:37.344Z</time>
      </trkpt>
      <trkpt lat="45.93865" lon="6.38277">
        <ele>1699</ele>
        <time>2026-08-19T09:37:38.344Z</time>
      </trkpt>
      <trkpt lat="45.93865" lon="6.38278">
        <ele>1700</ele>
        <time>2026-08-19T09:37:39.344Z</time>
      </trkpt>
      <trkpt lat="45.93866" lon="6.38278">
        <ele>1700</ele>
        <time>2026-08-19T09:37:40.344Z</time>
      </trkpt>
      <trkpt lat="45.93867" lon="6.38278">
        <ele>1700</ele>
        <time>2026-08-19T09:37:41.344Z</time>
      </trkpt>
      <trkpt lat="45.93867" lon="6.38279">
        <ele>1700</ele>
        <time>2026-08-19T09:37:42.344Z</time>
      </trkpt>
      <trkpt lat="45.93868" lon="6.3828">
        <ele>1700</ele>
        <time>2026-08-19T09:37:43.344Z</time>
      </trkpt>
      <trkpt lat="45.93869" lon="6.38281">
        <ele>1700</ele>
        <time>2026-08-19T09:37:44.344Z</time>
      </trkpt>
      <trkpt lat="45.9387" lon="6.38281">
        <ele>1700</ele>
        <time>2026-08-19T09:37:45.344Z</time>
      </trkpt>
      <trkpt lat="45.93871" lon="6.38281">
        <ele>1700</ele>
        <time>2026-08-19T09:37:46.344Z</time>
      </trkpt>
      <trkpt lat="45.93872" lon="6.38281">
        <ele>1701</ele>
        <time>2026-08-19T09:37:47.344Z</time>
      </trkpt>
      <trkpt lat="45.93873" lon="6.38282">
        <ele>1701</ele>
        <time>2026-08-19T09:37:48.344Z</time>
      </trkpt>
      <trkpt lat="45.93874" lon="6.38283">
        <ele>1702</ele>
        <time>2026-08-19T09:37:49.344Z</time>
      </trkpt>
      <trkpt lat="45.93875" lon="6.38283">
        <ele>1702</ele>
        <time>2026-08-19T09:37:50.344Z</time>
      </trkpt>
      <trkpt lat="45.93876" lon="6.38283">
        <ele>1702</ele>
        <time>2026-08-19T09:37:51.344Z</time>
      </trkpt>
      <trkpt lat="45.93877" lon="6.38283">
        <ele>1703</ele>
        <time>2026-08-19T09:37:52.344Z</time>
      </trkpt>
      <trkpt lat="45.93877" lon="6.38284">
        <ele>1703</ele>
        <time>2026-08-19T09:37:53.344Z</time>
      </trkpt>
      <trkpt lat="45.93878" lon="6.38284">
        <ele>1704</ele>
        <time>2026-08-19T09:37:54.344Z</time>
      </trkpt>
      <trkpt lat="45.93879" lon="6.38285">
        <ele>1704</ele>
        <time>2026-08-19T09:37:55.344Z</time>
      </trkpt>
      <trkpt lat="45.93879" lon="6.38286">
        <ele>1705</ele>
        <time>2026-08-19T09:37:56.344Z</time>
      </trkpt>
      <trkpt lat="45.9388" lon="6.38286">
        <ele>1705</ele>
        <time>2026-08-19T09:37:57.345Z</time>
      </trkpt>
      <trkpt lat="45.9388" lon="6.38286">
        <ele>1705</ele>
        <time>2026-08-19T09:37:58.344Z</time>
      </trkpt>
      <trkpt lat="45.9388" lon="6.38286">
        <ele>1705</ele>
        <time>2026-08-19T09:37:59.344Z</time>
      </trkpt>
      <trkpt lat="45.9388" lon="6.38285">
        <ele>1705</ele>
        <time>2026-08-19T09:38:00.344Z</time>
      </trkpt>
      <trkpt lat="45.9388" lon="6.38284">
        <ele>1705</ele>
        <time>2026-08-19T09:38:01.344Z</time>
      </trkpt>
      <trkpt lat="45.93881" lon="6.38284">
        <ele>1705</ele>
        <time>2026-08-19T09:38:02.344Z</time>
      </trkpt>
      <trkpt lat="45.93882" lon="6.38284">
        <ele>1705</ele>
        <time>2026-08-19T09:38:03.344Z</time>
      </trkpt>
      <trkpt lat="45.93883" lon="6.38285">
        <ele>1705</ele>
        <time>2026-08-19T09:38:04.344Z</time>
      </trkpt>
      <trkpt lat="45.93884" lon="6.38285">
        <ele>1704</ele>
        <time>2026-08-19T09:38:05.344Z</time>
      </trkpt>
      <trkpt lat="45.93885" lon="6.38286">
        <ele>1704</ele>
        <time>2026-08-19T09:38:06.344Z</time>
      </trkpt>
      <trkpt lat="45.93885" lon="6.38286">
        <ele>1704</ele>
        <time>2026-08-19T09:38:07.344Z</time>
      </trkpt>
      <trkpt lat="45.93885" lon="6.38286">
        <ele>1704</ele>
        <time>2026-08-19T09:38:08.344Z</time>
      </trkpt>
      <trkpt lat="45.93886" lon="6.38287">
        <ele>1704</ele>
        <time>2026-08-19T09:38:09.344Z</time>
      </trkpt>
      <trkpt lat="45.93887" lon="6.38287">
        <ele>1704</ele>
        <time>2026-08-19T09:38:10.344Z</time>
      </trkpt>
      <trkpt lat="45.93887" lon="6.38287">
        <ele>1705</ele>
        <time>2026-08-19T09:38:11.344Z</time>
      </trkpt>
      <trkpt lat="45.93887" lon="6.38287">
        <ele>1705</ele>
        <time>2026-08-19T09:38:12.344Z</time>
      </trkpt>
      <trkpt lat="45.93888" lon="6.38288">
        <ele>1705</ele>
        <time>2026-08-19T09:38:13.344Z</time>
      </trkpt>
      <trkpt lat="45.93888" lon="6.38287">
        <ele>1706</ele>
        <time>2026-08-19T09:38:14.344Z</time>
      </trkpt>
      <trkpt lat="45.93888" lon="6.38287">
        <ele>1706</ele>
        <time>2026-08-19T09:38:15.345Z</time>
      </trkpt>
      <trkpt lat="45.93888" lon="6.38286">
        <ele>1707</ele>
        <time>2026-08-19T09:38:16.344Z</time>
      </trkpt>
      <trkpt lat="45.93889" lon="6.38286">
        <ele>1707</ele>
        <time>2026-08-19T09:38:17.344Z</time>
      </trkpt>
      <trkpt lat="45.93889" lon="6.38285">
        <ele>1707</ele>
        <time>2026-08-19T09:38:18.344Z</time>
      </trkpt>
      <trkpt lat="45.93889" lon="6.38285">
        <ele>1707</ele>
        <time>2026-08-19T09:38:19.344Z</time>
      </trkpt>
      <trkpt lat="45.9389" lon="6.38285">
        <ele>1707</ele>
        <time>2026-08-19T09:38:20.344Z</time>
      </trkpt>
      <trkpt lat="45.9389" lon="6.38285">
        <ele>1708</ele>
        <time>2026-08-19T09:38:21.344Z</time>
      </trkpt>
      <trkpt lat="45.9389" lon="6.38285">
        <ele>1708</ele>
        <time>2026-08-19T09:38:22.344Z</time>
      </trkpt>
      <trkpt lat="45.93891" lon="6.38285">
        <ele>1708</ele>
        <time>2026-08-19T09:38:23.344Z</time>
      </trkpt>
      <trkpt lat="45.93891" lon="6.38285">
        <ele>1708</ele>
        <time>2026-08-19T09:38:24.344Z</time>
      </trkpt>
      <trkpt lat="45.93891" lon="6.38285">
        <ele>1708</ele>
        <time>2026-08-19T09:38:25.345Z</time>
      </trkpt>
      <trkpt lat="45.93891" lon="6.38285">
        <ele>1708</ele>
        <time>2026-08-19T09:38:26.344Z</time>
      </trkpt>
      <trkpt lat="45.93891" lon="6.38285">
        <ele>1708</ele>
        <time>2026-08-19T09:38:27.345Z</time>
      </trkpt>
      <trkpt lat="45.93892" lon="6.38285">
        <ele>1708</ele>
        <time>2026-08-19T09:38:28.344Z</time>
      </trkpt>
      <trkpt lat="45.93892" lon="6.38285">
        <ele>1708</ele>
        <time>2026-08-19T09:38:29.344Z</time>
      </trkpt>
      <trkpt lat="45.93893" lon="6.38285">
        <ele>1708</ele>
        <time>2026-08-19T09:38:30.344Z</time>
      </trkpt>
      <trkpt lat="45.93893" lon="6.38286">
        <ele>1708</ele>
        <time>2026-08-19T09:38:31.344Z</time>
      </trkpt>
      <trkpt lat="45.93894" lon="6.38285">
        <ele>1709</ele>
        <time>2026-08-19T09:38:32.344Z</time>
      </trkpt>
      <trkpt lat="45.93895" lon="6.38286">
        <ele>1709</ele>
        <time>2026-08-19T09:38:33.344Z</time>
      </trkpt>
      <trkpt lat="45.93895" lon="6.38286">
        <ele>1709</ele>
        <time>2026-08-19T09:38:34.344Z</time>
      </trkpt>
      <trkpt lat="45.93895" lon="6.38286">
        <ele>1710</ele>
        <time>2026-08-19T09:38:35.344Z</time>
      </trkpt>
      <trkpt lat="45.93896" lon="6.38287">
        <ele>1710</ele>
        <time>2026-08-19T09:38:36.344Z</time>
      </trkpt>
      <trkpt lat="45.93896" lon="6.38287">
        <ele>1710</ele>
        <time>2026-08-19T09:38:37.344Z</time>
      </trkpt>
      <trkpt lat="45.93897" lon="6.38288">
        <ele>1710</ele>
        <time>2026-08-19T09:38:38.344Z</time>
      </trkpt>
      <trkpt lat="45.93897" lon="6.38288">
        <ele>1711</ele>
        <time>2026-08-19T09:38:39.344Z</time>
      </trkpt>
      <trkpt lat="45.93897" lon="6.38288">
        <ele>1711</ele>
        <time>2026-08-19T09:38:40.344Z</time>
      </trkpt>
      <trkpt lat="45.93897" lon="6.38288">
        <ele>1711</ele>
        <time>2026-08-19T09:38:41.344Z</time>
      </trkpt>
      <trkpt lat="45.93898" lon="6.38288">
        <ele>1712</ele>
        <time>2026-08-19T09:38:42.344Z</time>
      </trkpt>
      <trkpt lat="45.93898" lon="6.38288">
        <ele>1712</ele>
        <time>2026-08-19T09:38:43.344Z</time>
      </trkpt>
      <trkpt lat="45.93898" lon="6.38288">
        <ele>1713</ele>
        <time>2026-08-19T09:38:44.344Z</time>
      </trkpt>
      <trkpt lat="45.93899" lon="6.38288">
        <ele>1713</ele>
        <time>2026-08-19T09:38:45.344Z</time>
      </trkpt>
      <trkpt lat="45.93899" lon="6.38288">
        <ele>1713</ele>
        <time>2026-08-19T09:38:46.344Z</time>
      </trkpt>
      <trkpt lat="45.939" lon="6.38289">
        <ele>1714</ele>
        <time>2026-08-19T09:38:47.344Z</time>
      </trkpt>
      <trkpt lat="45.939" lon="6.38289">
        <ele>1714</ele>
        <time>2026-08-19T09:38:48.345Z</time>
      </trkpt>
      <trkpt lat="45.939" lon="6.38289">
        <ele>1714</ele>
        <time>2026-08-19T09:38:49.344Z</time>
      </trkpt>
      <trkpt lat="45.93901" lon="6.3829">
        <ele>1714</ele>
        <time>2026-08-19T09:38:50.345Z</time>
      </trkpt>
      <trkpt lat="45.93901" lon="6.3829">
        <ele>1714</ele>
        <time>2026-08-19T09:38:51.344Z</time>
      </trkpt>
      <trkpt lat="45.93901" lon="6.3829">
        <ele>1714</ele>
        <time>2026-08-19T09:38:52.344Z</time>
      </trkpt>
      <trkpt lat="45.93901" lon="6.3829">
        <ele>1715</ele>
        <time>2026-08-19T09:38:53.344Z</time>
      </trkpt>
      <trkpt lat="45.93902" lon="6.3829">
        <ele>1715</ele>
        <time>2026-08-19T09:38:54.344Z</time>
      </trkpt>
      <trkpt lat="45.93902" lon="6.38291">
        <ele>1716</ele>
        <time>2026-08-19T09:38:55.344Z</time>
      </trkpt>
      <trkpt lat="45.93903" lon="6.38291">
        <ele>1716</ele>
        <time>2026-08-19T09:38:56.344Z</time>
      </trkpt>
      <trkpt lat="45.93904" lon="6.38291">
        <ele>1717</ele>
        <time>2026-08-19T09:38:57.344Z</time>
      </trkpt>
      <trkpt lat="45.93904" lon="6.38291">
        <ele>1717</ele>
        <time>2026-08-19T09:38:58.344Z</time>
      </trkpt>
      <trkpt lat="45.93904" lon="6.38291">
        <ele>1717</ele>
        <time>2026-08-19T09:38:59.344Z</time>
      </trkpt>
      <trkpt lat="45.93905" lon="6.38291">
        <ele>1717</ele>
        <time>2026-08-19T09:39:00.344Z</time>
      </trkpt>
      <trkpt lat="45.93905" lon="6.38291">
        <ele>1716</ele>
        <time>2026-08-19T09:39:01.344Z</time>
      </trkpt>
      <trkpt lat="45.93906" lon="6.38291">
        <ele>1717</ele>
        <time>2026-08-19T09:39:02.344Z</time>
      </trkpt>
      <trkpt lat="45.93906" lon="6.38291">
        <ele>1717</ele>
        <time>2026-08-19T09:39:03.344Z</time>
      </trkpt>
      <trkpt lat="45.93906" lon="6.38291">
        <ele>1718</ele>
        <time>2026-08-19T09:39:04.344Z</time>
      </trkpt>
      <trkpt lat="45.93906" lon="6.38291">
        <ele>1719</ele>
        <time>2026-08-19T09:39:05.344Z</time>
      </trkpt>
      <trkpt lat="45.93907" lon="6.38291">
        <ele>1720</ele>
        <time>2026-08-19T09:39:06.344Z</time>
      </trkpt>
      <trkpt lat="45.93907" lon="6.3829">
        <ele>1721</ele>
        <time>2026-08-19T09:39:07.344Z</time>
      </trkpt>
      <trkpt lat="45.93908" lon="6.3829">
        <ele>1721</ele>
        <time>2026-08-19T09:39:08.344Z</time>
      </trkpt>
      <trkpt lat="45.93908" lon="6.3829">
        <ele>1721</ele>
        <time>2026-08-19T09:39:09.344Z</time>
      </trkpt>
      <trkpt lat="45.93908" lon="6.38291">
        <ele>1721</ele>
        <time>2026-08-19T09:39:10.344Z</time>
      </trkpt>
      <trkpt lat="45.93909" lon="6.38292">
        <ele>1722</ele>
        <time>2026-08-19T09:39:11.345Z</time>
      </trkpt>
      <trkpt lat="45.9391" lon="6.38292">
        <ele>1721</ele>
        <time>2026-08-19T09:39:12.344Z</time>
      </trkpt>
      <trkpt lat="45.9391" lon="6.38293">
        <ele>1721</ele>
        <time>2026-08-19T09:39:13.344Z</time>
      </trkpt>
      <trkpt lat="45.9391" lon="6.38293">
        <ele>1721</ele>
        <time>2026-08-19T09:39:14.344Z</time>
      </trkpt>
      <trkpt lat="45.93911" lon="6.38293">
        <ele>1721</ele>
        <time>2026-08-19T09:39:15.344Z</time>
      </trkpt>
      <trkpt lat="45.93912" lon="6.38294">
        <ele>1721</ele>
        <time>2026-08-19T09:39:16.345Z</time>
      </trkpt>
      <trkpt lat="45.93912" lon="6.38294">
        <ele>1721</ele>
        <time>2026-08-19T09:39:17.344Z</time>
      </trkpt>
      <trkpt lat="45.93912" lon="6.38294">
        <ele>1720</ele>
        <time>2026-08-19T09:39:18.344Z</time>
      </trkpt>
      <trkpt lat="45.93913" lon="6.38294">
        <ele>1720</ele>
        <time>2026-08-19T09:39:19.344Z</time>
      </trkpt>
      <trkpt lat="45.93913" lon="6.38295">
        <ele>1720</ele>
        <time>2026-08-19T09:39:20.344Z</time>
      </trkpt>
      <trkpt lat="45.93914" lon="6.38295">
        <ele>1720</ele>
        <time>2026-08-19T09:39:21.345Z</time>
      </trkpt>
      <trkpt lat="45.93914" lon="6.38295">
        <ele>1720</ele>
        <time>2026-08-19T09:39:22.344Z</time>
      </trkpt>
      <trkpt lat="45.93914" lon="6.38295">
        <ele>1721</ele>
        <time>2026-08-19T09:39:23.344Z</time>
      </trkpt>
      <trkpt lat="45.93915" lon="6.38295">
        <ele>1721</ele>
        <time>2026-08-19T09:39:24.344Z</time>
      </trkpt>
      <trkpt lat="45.93915" lon="6.38295">
        <ele>1721</ele>
        <time>2026-08-19T09:39:25.344Z</time>
      </trkpt>
      <trkpt lat="45.93916" lon="6.38294">
        <ele>1721</ele>
        <time>2026-08-19T09:39:26.344Z</time>
      </trkpt>
      <trkpt lat="45.93916" lon="6.38294">
        <ele>1721</ele>
        <time>2026-08-19T09:39:27.344Z</time>
      </trkpt>
      <trkpt lat="45.93917" lon="6.38294">
        <ele>1721</ele>
        <time>2026-08-19T09:39:28.344Z</time>
      </trkpt>
      <trkpt lat="45.93917" lon="6.38294">
        <ele>1721</ele>
        <time>2026-08-19T09:39:29.344Z</time>
      </trkpt>
      <trkpt lat="45.93917" lon="6.38295">
        <ele>1722</ele>
        <time>2026-08-19T09:39:30.344Z</time>
      </trkpt>
      <trkpt lat="45.93918" lon="6.38296">
        <ele>1722</ele>
        <time>2026-08-19T09:39:31.344Z</time>
      </trkpt>
      <trkpt lat="45.93918" lon="6.38296">
        <ele>1722</ele>
        <time>2026-08-19T09:39:32.344Z</time>
      </trkpt>
      <trkpt lat="45.93918" lon="6.38296">
        <ele>1723</ele>
        <time>2026-08-19T09:39:33.344Z</time>
      </trkpt>
      <trkpt lat="45.93919" lon="6.38296">
        <ele>1723</ele>
        <time>2026-08-19T09:39:34.344Z</time>
      </trkpt>
      <trkpt lat="45.93919" lon="6.38296">
        <ele>1724</ele>
        <time>2026-08-19T09:39:35.344Z</time>
      </trkpt>
      <trkpt lat="45.93919" lon="6.38295">
        <ele>1724</ele>
        <time>2026-08-19T09:39:36.345Z</time>
      </trkpt>
      <trkpt lat="45.93919" lon="6.38295">
        <ele>1724</ele>
        <time>2026-08-19T09:39:37.344Z</time>
      </trkpt>
      <trkpt lat="45.93919" lon="6.38294">
        <ele>1724</ele>
        <time>2026-08-19T09:39:38.344Z</time>
      </trkpt>
      <trkpt lat="45.93919" lon="6.38293">
        <ele>1724</ele>
        <time>2026-08-19T09:39:39.344Z</time>
      </trkpt>
      <trkpt lat="45.9392" lon="6.38293">
        <ele>1724</ele>
        <time>2026-08-19T09:39:40.344Z</time>
      </trkpt>
      <trkpt lat="45.9392" lon="6.38293">
        <ele>1724</ele>
        <time>2026-08-19T09:39:41.344Z</time>
      </trkpt>
      <trkpt lat="45.9392" lon="6.38292">
        <ele>1724</ele>
        <time>2026-08-19T09:39:42.344Z</time>
      </trkpt>
      <trkpt lat="45.9392" lon="6.38292">
        <ele>1724</ele>
        <time>2026-08-19T09:39:43.344Z</time>
      </trkpt>
      <trkpt lat="45.9392" lon="6.38292">
        <ele>1725</ele>
        <time>2026-08-19T09:39:44.344Z</time>
      </trkpt>
      <trkpt lat="45.93921" lon="6.38292">
        <ele>1725</ele>
        <time>2026-08-19T09:39:45.344Z</time>
      </trkpt>
      <trkpt lat="45.93921" lon="6.38291">
        <ele>1725</ele>
        <time>2026-08-19T09:39:46.344Z</time>
      </trkpt>
      <trkpt lat="45.93921" lon="6.38291">
        <ele>1725</ele>
        <time>2026-08-19T09:39:47.344Z</time>
      </trkpt>
      <trkpt lat="45.93921" lon="6.38291">
        <ele>1725</ele>
        <time>2026-08-19T09:39:48.344Z</time>
      </trkpt>
      <trkpt lat="45.93921" lon="6.38291">
        <ele>1725</ele>
        <time>2026-08-19T09:39:49.344Z</time>
      </trkpt>
      <trkpt lat="45.93922" lon="6.38291">
        <ele>1725</ele>
        <time>2026-08-19T09:39:50.344Z</time>
      </trkpt>
      <trkpt lat="45.93922" lon="6.38292">
        <ele>1725</ele>
        <time>2026-08-19T09:39:51.344Z</time>
      </trkpt>
      <trkpt lat="45.93923" lon="6.38292">
        <ele>1726</ele>
        <time>2026-08-19T09:39:52.344Z</time>
      </trkpt>
      <trkpt lat="45.93923" lon="6.38292">
        <ele>1726</ele>
        <time>2026-08-19T09:39:53.344Z</time>
      </trkpt>
      <trkpt lat="45.93924" lon="6.38292">
        <ele>1726</ele>
        <time>2026-08-19T09:39:54.344Z</time>
      </trkpt>
      <trkpt lat="45.93924" lon="6.38292">
        <ele>1727</ele>
        <time>2026-08-19T09:39:55.344Z</time>
      </trkpt>
      <trkpt lat="45.93924" lon="6.38292">
        <ele>1727</ele>
        <time>2026-08-19T09:39:56.344Z</time>
      </trkpt>
      <trkpt lat="45.93924" lon="6.38292">
        <ele>1727</ele>
        <time>2026-08-19T09:39:57.344Z</time>
      </trkpt>
      <trkpt lat="45.93925" lon="6.38293">
        <ele>1727</ele>
        <time>2026-08-19T09:39:58.344Z</time>
      </trkpt>
      <trkpt lat="45.93925" lon="6.38292">
        <ele>1727</ele>
        <time>2026-08-19T09:39:59.344Z</time>
      </trkpt>
      <trkpt lat="45.93926" lon="6.38292">
        <ele>1727</ele>
        <time>2026-08-19T09:40:00.345Z</time>
      </trkpt>
      <trkpt lat="45.93926" lon="6.38292">
        <ele>1728</ele>
        <time>2026-08-19T09:40:01.344Z</time>
      </trkpt>
      <trkpt lat="45.93926" lon="6.38292">
        <ele>1728</ele>
        <time>2026-08-19T09:40:02.344Z</time>
      </trkpt>
      <trkpt lat="45.93926" lon="6.38292">
        <ele>1728</ele>
        <time>2026-08-19T09:40:03.344Z</time>
      </trkpt>
      <trkpt lat="45.93926" lon="6.38292">
        <ele>1728</ele>
        <time>2026-08-19T09:40:04.344Z</time>
      </trkpt>
      <trkpt lat="45.93926" lon="6.38292">
        <ele>1728</ele>
        <time>2026-08-19T09:40:05.344Z</time>
      </trkpt>
      <trkpt lat="45.93926" lon="6.38292">
        <ele>1728</ele>
        <time>2026-08-19T09:40:06.344Z</time>
      </trkpt>
      <trkpt lat="45.93926" lon="6.38292">
        <ele>1728</ele>
        <time>2026-08-19T09:40:07.344Z</time>
      </trkpt>
      <trkpt lat="45.93926" lon="6.38292">
        <ele>1728</ele>
        <time>2026-08-19T09:40:08.345Z</time>
      </trkpt>
      <trkpt lat="45.93926" lon="6.38292">
        <ele>1728</ele>
        <time>2026-08-19T09:40:09.344Z</time>
      </trkpt>
      <trkpt lat="45.93926" lon="6.38292">
        <ele>1728</ele>
        <time>2026-08-19T09:40:10.344Z</time>
      </trkpt>
      <trkpt lat="45.93926" lon="6.38292">
        <ele>1728</ele>
        <time>2026-08-19T09:40:11.344Z</time>
      </trkpt>
      <trkpt lat="45.93926" lon="6.38292">
        <ele>1728</ele>
        <time>2026-08-19T09:40:12.344Z</time>
      </trkpt>
      <trkpt lat="45.93926" lon="6.38292">
        <ele>1728</ele>
        <time>2026-08-19T09:40:13.344Z</time>
      </trkpt>
      <trkpt lat="45.93926" lon="6.38292">
        <ele>1728</ele>
        <time>2026-08-19T09:40:14.344Z</time>
      </trkpt>
      <trkpt lat="45.93926" lon="6.38292">
        <ele>1728</ele>
        <time>2026-08-19T09:40:15.344Z</time>
      </trkpt>
      <trkpt lat="45.93926" lon="6.38292">
        <ele>1728</ele>
        <time>2026-08-19T09:40:16.344Z</time>
      </trkpt>
      <trkpt lat="45.93926" lon="6.38292">
        <ele>1728</ele>
        <time>2026-08-19T09:40:17.344Z</time>
      </trkpt>
      <trkpt lat="45.93926" lon="6.38292">
        <ele>1728</ele>
        <time>2026-08-19T09:40:18.344Z</time>
      </trkpt>
      <trkpt lat="45.93926" lon="6.38292">
        <ele>1728</ele>
        <time>2026-08-19T09:40:19.344Z</time>
      </trkpt>
      <trkpt lat="45.93926" lon="6.38292">
        <ele>1728</ele>
        <time>2026-08-19T09:40:20.344Z</time>
      </trkpt>
      <trkpt lat="45.93926" lon="6.38292">
        <ele>1728</ele>
        <time>2026-08-19T09:40:21.344Z</time>
      </trkpt>
      <trkpt lat="45.93926" lon="6.38292">
        <ele>1728</ele>
        <time>2026-08-19T09:40:22.344Z</time>
      </trkpt>
      <trkpt lat="45.93926" lon="6.38292">
        <ele>1728</ele>
        <time>2026-08-19T09:40:23.344Z</time>
      </trkpt>
      <trkpt lat="45.93926" lon="6.38292">
        <ele>1728</ele>
        <time>2026-08-19T09:40:24.344Z</time>
      </trkpt>
      <trkpt lat="45.93926" lon="6.38292">
        <ele>1728</ele>
        <time>2026-08-19T09:40:25.344Z</time>
      </trkpt>
      <trkpt lat="45.93926" lon="6.38293">
        <ele>1728</ele>
        <time>2026-08-19T09:40:26.344Z</time>
      </trkpt>
      <trkpt lat="45.93927" lon="6.38293">
        <ele>1728</ele>
        <time>2026-08-19T09:40:27.344Z</time>
      </trkpt>
      <trkpt lat="45.93928" lon="6.38293">
        <ele>1728</ele>
        <time>2026-08-19T09:40:28.344Z</time>
      </trkpt>
      <trkpt lat="45.93929" lon="6.38294">
        <ele>1728</ele>
        <time>2026-08-19T09:40:29.344Z</time>
      </trkpt>
      <trkpt lat="45.9393" lon="6.38295">
        <ele>1728</ele>
        <time>2026-08-19T09:40:30.344Z</time>
      </trkpt>
      <trkpt lat="45.93931" lon="6.38296">
        <ele>1728</ele>
        <time>2026-08-19T09:40:31.344Z</time>
      </trkpt>
      <trkpt lat="45.93932" lon="6.38296">
        <ele>1728</ele>
        <time>2026-08-19T09:40:32.344Z</time>
      </trkpt>
      <trkpt lat="45.93934" lon="6.38297">
        <ele>1728</ele>
        <time>2026-08-19T09:40:33.344Z</time>
      </trkpt>
      <trkpt lat="45.93935" lon="6.38297">
        <ele>1729</ele>
        <time>2026-08-19T09:40:34.344Z</time>
      </trkpt>
      <trkpt lat="45.93936" lon="6.38297">
        <ele>1729</ele>
        <time>2026-08-19T09:40:35.344Z</time>
      </trkpt>
      <trkpt lat="45.93937" lon="6.38297">
        <ele>1729</ele>
        <time>2026-08-19T09:40:36.344Z</time>
      </trkpt>
      <trkpt lat="45.93938" lon="6.38297">
        <ele>1730</ele>
        <time>2026-08-19T09:40:37.344Z</time>
      </trkpt>
      <trkpt lat="45.93939" lon="6.38297">
        <ele>1730</ele>
        <time>2026-08-19T09:40:38.344Z</time>
      </trkpt>
      <trkpt lat="45.93939" lon="6.38298">
        <ele>1731</ele>
        <time>2026-08-19T09:40:39.344Z</time>
      </trkpt>
      <trkpt lat="45.9394" lon="6.38298">
        <ele>1731</ele>
        <time>2026-08-19T09:40:40.344Z</time>
      </trkpt>
      <trkpt lat="45.9394" lon="6.38298">
        <ele>1732</ele>
        <time>2026-08-19T09:40:41.344Z</time>
      </trkpt>
      <trkpt lat="45.93941" lon="6.38299">
        <ele>1733</ele>
        <time>2026-08-19T09:40:42.344Z</time>
      </trkpt>
      <trkpt lat="45.93942" lon="6.38299">
        <ele>1733</ele>
        <time>2026-08-19T09:40:43.344Z</time>
      </trkpt>
      <trkpt lat="45.93943" lon="6.383">
        <ele>1734</ele>
        <time>2026-08-19T09:40:44.345Z</time>
      </trkpt>
      <trkpt lat="45.93944" lon="6.383">
        <ele>1735</ele>
        <time>2026-08-19T09:40:45.344Z</time>
      </trkpt>
      <trkpt lat="45.93944" lon="6.38301">
        <ele>1736</ele>
        <time>2026-08-19T09:40:46.344Z</time>
      </trkpt>
      <trkpt lat="45.93945" lon="6.38301">
        <ele>1736</ele>
        <time>2026-08-19T09:40:47.344Z</time>
      </trkpt>
      <trkpt lat="45.93945" lon="6.383">
        <ele>1737</ele>
        <time>2026-08-19T09:40:48.345Z</time>
      </trkpt>
      <trkpt lat="45.93946" lon="6.383">
        <ele>1738</ele>
        <time>2026-08-19T09:40:49.344Z</time>
      </trkpt>
      <trkpt lat="45.93947" lon="6.38301">
        <ele>1738</ele>
        <time>2026-08-19T09:40:50.344Z</time>
      </trkpt>
      <trkpt lat="45.93948" lon="6.38301">
        <ele>1739</ele>
        <time>2026-08-19T09:40:51.344Z</time>
      </trkpt>
      <trkpt lat="45.93948" lon="6.38301">
        <ele>1740</ele>
        <time>2026-08-19T09:40:52.344Z</time>
      </trkpt>
      <trkpt lat="45.93949" lon="6.38301">
        <ele>1740</ele>
        <time>2026-08-19T09:40:53.344Z</time>
      </trkpt>
      <trkpt lat="45.9395" lon="6.38301">
        <ele>1741</ele>
        <time>2026-08-19T09:40:54.344Z</time>
      </trkpt>
      <trkpt lat="45.9395" lon="6.38301">
        <ele>1741</ele>
        <time>2026-08-19T09:40:55.344Z</time>
      </trkpt>
      <trkpt lat="45.93951" lon="6.38301">
        <ele>1741</ele>
        <time>2026-08-19T09:40:56.344Z</time>
      </trkpt>
      <trkpt lat="45.93951" lon="6.38301">
        <ele>1741</ele>
        <time>2026-08-19T09:40:57.344Z</time>
      </trkpt>
      <trkpt lat="45.93951" lon="6.38301">
        <ele>1741</ele>
        <time>2026-08-19T09:40:58.344Z</time>
      </trkpt>
      <trkpt lat="45.93952" lon="6.38302">
        <ele>1741</ele>
        <time>2026-08-19T09:40:59.344Z</time>
      </trkpt>
      <trkpt lat="45.93953" lon="6.38303">
        <ele>1742</ele>
        <time>2026-08-19T09:41:00.344Z</time>
      </trkpt>
      <trkpt lat="45.93954" lon="6.38304">
        <ele>1742</ele>
        <time>2026-08-19T09:41:01.344Z</time>
      </trkpt>
      <trkpt lat="45.93954" lon="6.38304">
        <ele>1742</ele>
        <time>2026-08-19T09:41:02.344Z</time>
      </trkpt>
      <trkpt lat="45.93954" lon="6.38303">
        <ele>1743</ele>
        <time>2026-08-19T09:41:03.344Z</time>
      </trkpt>
      <trkpt lat="45.93954" lon="6.38302">
        <ele>1742</ele>
        <time>2026-08-19T09:41:04.344Z</time>
      </trkpt>
      <trkpt lat="45.93954" lon="6.38302">
        <ele>1742</ele>
        <time>2026-08-19T09:41:05.344Z</time>
      </trkpt>
      <trkpt lat="45.93955" lon="6.38301">
        <ele>1742</ele>
        <time>2026-08-19T09:41:06.344Z</time>
      </trkpt>
      <trkpt lat="45.93955" lon="6.38302">
        <ele>1742</ele>
        <time>2026-08-19T09:41:07.344Z</time>
      </trkpt>
      <trkpt lat="45.93955" lon="6.38302">
        <ele>1742</ele>
        <time>2026-08-19T09:41:08.344Z</time>
      </trkpt>
      <trkpt lat="45.93956" lon="6.38303">
        <ele>1742</ele>
        <time>2026-08-19T09:41:09.344Z</time>
      </trkpt>
      <trkpt lat="45.93956" lon="6.38304">
        <ele>1741</ele>
        <time>2026-08-19T09:41:10.344Z</time>
      </trkpt>
      <trkpt lat="45.93956" lon="6.38304">
        <ele>1741</ele>
        <time>2026-08-19T09:41:11.344Z</time>
      </trkpt>
      <trkpt lat="45.93957" lon="6.38304">
        <ele>1740</ele>
        <time>2026-08-19T09:41:12.344Z</time>
      </trkpt>
      <trkpt lat="45.93957" lon="6.38304">
        <ele>1741</ele>
        <time>2026-08-19T09:41:13.345Z</time>
      </trkpt>
      <trkpt lat="45.93957" lon="6.38304">
        <ele>1741</ele>
        <time>2026-08-19T09:41:14.344Z</time>
      </trkpt>
      <trkpt lat="45.93957" lon="6.38303">
        <ele>1742</ele>
        <time>2026-08-19T09:41:15.344Z</time>
      </trkpt>
      <trkpt lat="45.93957" lon="6.38303">
        <ele>1742</ele>
        <time>2026-08-19T09:41:16.344Z</time>
      </trkpt>
      <trkpt lat="45.93958" lon="6.38302">
        <ele>1743</ele>
        <time>2026-08-19T09:41:17.344Z</time>
      </trkpt>
      <trkpt lat="45.93958" lon="6.38303">
        <ele>1743</ele>
        <time>2026-08-19T09:41:18.344Z</time>
      </trkpt>
      <trkpt lat="45.93959" lon="6.38303">
        <ele>1743</ele>
        <time>2026-08-19T09:41:19.344Z</time>
      </trkpt>
      <trkpt lat="45.93959" lon="6.38303">
        <ele>1744</ele>
        <time>2026-08-19T09:41:20.344Z</time>
      </trkpt>
      <trkpt lat="45.9396" lon="6.38302">
        <ele>1744</ele>
        <time>2026-08-19T09:41:21.344Z</time>
      </trkpt>
      <trkpt lat="45.9396" lon="6.38302">
        <ele>1745</ele>
        <time>2026-08-19T09:41:22.344Z</time>
      </trkpt>
      <trkpt lat="45.9396" lon="6.38302">
        <ele>1745</ele>
        <time>2026-08-19T09:41:23.344Z</time>
      </trkpt>
      <trkpt lat="45.9396" lon="6.38301">
        <ele>1746</ele>
        <time>2026-08-19T09:41:24.344Z</time>
      </trkpt>
      <trkpt lat="45.93961" lon="6.38301">
        <ele>1746</ele>
        <time>2026-08-19T09:41:25.344Z</time>
      </trkpt>
      <trkpt lat="45.93961" lon="6.38301">
        <ele>1747</ele>
        <time>2026-08-19T09:41:26.344Z</time>
      </trkpt>
      <trkpt lat="45.93961" lon="6.38301">
        <ele>1747</ele>
        <time>2026-08-19T09:41:27.344Z</time>
      </trkpt>
      <trkpt lat="45.93962" lon="6.38301">
        <ele>1748</ele>
        <time>2026-08-19T09:41:28.345Z</time>
      </trkpt>
      <trkpt lat="45.93963" lon="6.38301">
        <ele>1748</ele>
        <time>2026-08-19T09:41:29.344Z</time>
      </trkpt>
      <trkpt lat="45.93963" lon="6.38301">
        <ele>1749</ele>
        <time>2026-08-19T09:41:30.344Z</time>
      </trkpt>
      <trkpt lat="45.93964" lon="6.38302">
        <ele>1749</ele>
        <time>2026-08-19T09:41:31.344Z</time>
      </trkpt>
      <trkpt lat="45.93964" lon="6.38302">
        <ele>1749</ele>
        <time>2026-08-19T09:41:32.344Z</time>
      </trkpt>
      <trkpt lat="45.93964" lon="6.38302">
        <ele>1748</ele>
        <time>2026-08-19T09:41:33.344Z</time>
      </trkpt>
      <trkpt lat="45.93965" lon="6.38303">
        <ele>1748</ele>
        <time>2026-08-19T09:41:34.344Z</time>
      </trkpt>
      <trkpt lat="45.93965" lon="6.38303">
        <ele>1748</ele>
        <time>2026-08-19T09:41:35.344Z</time>
      </trkpt>
      <trkpt lat="45.93966" lon="6.38304">
        <ele>1748</ele>
        <time>2026-08-19T09:41:36.344Z</time>
      </trkpt>
      <trkpt lat="45.93966" lon="6.38304">
        <ele>1748</ele>
        <time>2026-08-19T09:41:37.344Z</time>
      </trkpt>
      <trkpt lat="45.93966" lon="6.38305">
        <ele>1748</ele>
        <time>2026-08-19T09:41:38.344Z</time>
      </trkpt>
      <trkpt lat="45.93967" lon="6.38305">
        <ele>1748</ele>
        <time>2026-08-19T09:41:39.344Z</time>
      </trkpt>
      <trkpt lat="45.93967" lon="6.38305">
        <ele>1748</ele>
        <time>2026-08-19T09:41:40.344Z</time>
      </trkpt>
      <trkpt lat="45.93968" lon="6.38304">
        <ele>1749</ele>
        <time>2026-08-19T09:41:41.344Z</time>
      </trkpt>
      <trkpt lat="45.93969" lon="6.38304">
        <ele>1749</ele>
        <time>2026-08-19T09:41:42.344Z</time>
      </trkpt>
      <trkpt lat="45.9397" lon="6.38304">
        <ele>1749</ele>
        <time>2026-08-19T09:41:43.344Z</time>
      </trkpt>
      <trkpt lat="45.9397" lon="6.38304">
        <ele>1750</ele>
        <time>2026-08-19T09:41:44.344Z</time>
      </trkpt>
      <trkpt lat="45.93971" lon="6.38304">
        <ele>1750</ele>
        <time>2026-08-19T09:41:45.344Z</time>
      </trkpt>
      <trkpt lat="45.93971" lon="6.38304">
        <ele>1750</ele>
        <time>2026-08-19T09:41:46.344Z</time>
      </trkpt>
      <trkpt lat="45.93971" lon="6.38305">
        <ele>1750</ele>
        <time>2026-08-19T09:41:47.344Z</time>
      </trkpt>
      <trkpt lat="45.93972" lon="6.38306">
        <ele>1751</ele>
        <time>2026-08-19T09:41:48.344Z</time>
      </trkpt>
      <trkpt lat="45.93972" lon="6.38306">
        <ele>1751</ele>
        <time>2026-08-19T09:41:49.344Z</time>
      </trkpt>
      <trkpt lat="45.93973" lon="6.38306">
        <ele>1751</ele>
        <time>2026-08-19T09:41:50.344Z</time>
      </trkpt>
      <trkpt lat="45.93973" lon="6.38307">
        <ele>1752</ele>
        <time>2026-08-19T09:41:51.344Z</time>
      </trkpt>
      <trkpt lat="45.93974" lon="6.38307">
        <ele>1752</ele>
        <time>2026-08-19T09:41:52.344Z</time>
      </trkpt>
      <trkpt lat="45.93974" lon="6.38307">
        <ele>1753</ele>
        <time>2026-08-19T09:41:53.344Z</time>
      </trkpt>
      <trkpt lat="45.93975" lon="6.38307">
        <ele>1753</ele>
        <time>2026-08-19T09:41:54.344Z</time>
      </trkpt>
      <trkpt lat="45.93976" lon="6.38307">
        <ele>1753</ele>
        <time>2026-08-19T09:41:55.344Z</time>
      </trkpt>
      <trkpt lat="45.93976" lon="6.38307">
        <ele>1753</ele>
        <time>2026-08-19T09:41:56.344Z</time>
      </trkpt>
      <trkpt lat="45.93977" lon="6.38308">
        <ele>1754</ele>
        <time>2026-08-19T09:41:57.344Z</time>
      </trkpt>
      <trkpt lat="45.93977" lon="6.38308">
        <ele>1754</ele>
        <time>2026-08-19T09:41:58.344Z</time>
      </trkpt>
      <trkpt lat="45.93977" lon="6.38308">
        <ele>1754</ele>
        <time>2026-08-19T09:41:59.344Z</time>
      </trkpt>
      <trkpt lat="45.93977" lon="6.38308">
        <ele>1754</ele>
        <time>2026-08-19T09:42:00.344Z</time>
      </trkpt>
      <trkpt lat="45.93977" lon="6.38309">
        <ele>1754</ele>
        <time>2026-08-19T09:42:01.344Z</time>
      </trkpt>
      <trkpt lat="45.93978" lon="6.38309">
        <ele>1754</ele>
        <time>2026-08-19T09:42:02.344Z</time>
      </trkpt>
      <trkpt lat="45.93978" lon="6.38309">
        <ele>1755</ele>
        <time>2026-08-19T09:42:03.344Z</time>
      </trkpt>
      <trkpt lat="45.93978" lon="6.3831">
        <ele>1755</ele>
        <time>2026-08-19T09:42:04.344Z</time>
      </trkpt>
      <trkpt lat="45.93979" lon="6.3831">
        <ele>1756</ele>
        <time>2026-08-19T09:42:05.344Z</time>
      </trkpt>
      <trkpt lat="45.93979" lon="6.3831">
        <ele>1756</ele>
        <time>2026-08-19T09:42:06.344Z</time>
      </trkpt>
      <trkpt lat="45.9398" lon="6.38311">
        <ele>1757</ele>
        <time>2026-08-19T09:42:07.344Z</time>
      </trkpt>
      <trkpt lat="45.9398" lon="6.38311">
        <ele>1757</ele>
        <time>2026-08-19T09:42:08.344Z</time>
      </trkpt>
      <trkpt lat="45.93981" lon="6.38311">
        <ele>1757</ele>
        <time>2026-08-19T09:42:09.344Z</time>
      </trkpt>
      <trkpt lat="45.93981" lon="6.38311">
        <ele>1758</ele>
        <time>2026-08-19T09:42:10.344Z</time>
      </trkpt>
      <trkpt lat="45.93981" lon="6.38312">
        <ele>1758</ele>
        <time>2026-08-19T09:42:11.344Z</time>
      </trkpt>
      <trkpt lat="45.93981" lon="6.38312">
        <ele>1758</ele>
        <time>2026-08-19T09:42:12.344Z</time>
      </trkpt>
      <trkpt lat="45.93982" lon="6.38313">
        <ele>1758</ele>
        <time>2026-08-19T09:42:13.344Z</time>
      </trkpt>
      <trkpt lat="45.93982" lon="6.38313">
        <ele>1758</ele>
        <time>2026-08-19T09:42:14.344Z</time>
      </trkpt>
      <trkpt lat="45.93982" lon="6.38313">
        <ele>1758</ele>
        <time>2026-08-19T09:42:15.344Z</time>
      </trkpt>
      <trkpt lat="45.93983" lon="6.38313">
        <ele>1758</ele>
        <time>2026-08-19T09:42:16.344Z</time>
      </trkpt>
      <trkpt lat="45.93983" lon="6.38314">
        <ele>1758</ele>
        <time>2026-08-19T09:42:17.344Z</time>
      </trkpt>
      <trkpt lat="45.93983" lon="6.38314">
        <ele>1758</ele>
        <time>2026-08-19T09:42:18.344Z</time>
      </trkpt>
      <trkpt lat="45.93984" lon="6.38315">
        <ele>1758</ele>
        <time>2026-08-19T09:42:19.344Z</time>
      </trkpt>
      <trkpt lat="45.93984" lon="6.38315">
        <ele>1758</ele>
        <time>2026-08-19T09:42:20.344Z</time>
      </trkpt>
      <trkpt lat="45.93984" lon="6.38315">
        <ele>1758</ele>
        <time>2026-08-19T09:42:21.344Z</time>
      </trkpt>
      <trkpt lat="45.93984" lon="6.38315">
        <ele>1758</ele>
        <time>2026-08-19T09:42:22.344Z</time>
      </trkpt>
      <trkpt lat="45.93983" lon="6.38314">
        <ele>1759</ele>
        <time>2026-08-19T09:42:23.344Z</time>
      </trkpt>
      <trkpt lat="45.93983" lon="6.38314">
        <ele>1759</ele>
        <time>2026-08-19T09:42:24.344Z</time>
      </trkpt>
      <trkpt lat="45.93983" lon="6.38313">
        <ele>1760</ele>
        <time>2026-08-19T09:42:25.344Z</time>
      </trkpt>
      <trkpt lat="45.93982" lon="6.38313">
        <ele>1760</ele>
        <time>2026-08-19T09:42:26.345Z</time>
      </trkpt>
      <trkpt lat="45.93982" lon="6.38312">
        <ele>1760</ele>
        <time>2026-08-19T09:42:27.344Z</time>
      </trkpt>
      <trkpt lat="45.93982" lon="6.38311">
        <ele>1760</ele>
        <time>2026-08-19T09:42:28.344Z</time>
      </trkpt>
      <trkpt lat="45.93982" lon="6.38311">
        <ele>1760</ele>
        <time>2026-08-19T09:42:29.344Z</time>
      </trkpt>
      <trkpt lat="45.93981" lon="6.3831">
        <ele>1761</ele>
        <time>2026-08-19T09:42:30.344Z</time>
      </trkpt>
      <trkpt lat="45.93981" lon="6.38309">
        <ele>1761</ele>
        <time>2026-08-19T09:42:31.344Z</time>
      </trkpt>
      <trkpt lat="45.93981" lon="6.38308">
        <ele>1761</ele>
        <time>2026-08-19T09:42:32.344Z</time>
      </trkpt>
      <trkpt lat="45.93981" lon="6.38307">
        <ele>1761</ele>
        <time>2026-08-19T09:42:33.344Z</time>
      </trkpt>
      <trkpt lat="45.93981" lon="6.38307">
        <ele>1761</ele>
        <time>2026-08-19T09:42:34.344Z</time>
      </trkpt>
      <trkpt lat="45.93981" lon="6.38306">
        <ele>1762</ele>
        <time>2026-08-19T09:42:35.344Z</time>
      </trkpt>
      <trkpt lat="45.93981" lon="6.38305">
        <ele>1762</ele>
        <time>2026-08-19T09:42:36.344Z</time>
      </trkpt>
      <trkpt lat="45.93981" lon="6.38304">
        <ele>1762</ele>
        <time>2026-08-19T09:42:37.344Z</time>
      </trkpt>
      <trkpt lat="45.9398" lon="6.38304">
        <ele>1763</ele>
        <time>2026-08-19T09:42:38.344Z</time>
      </trkpt>
      <trkpt lat="45.9398" lon="6.38303">
        <ele>1763</ele>
        <time>2026-08-19T09:42:39.344Z</time>
      </trkpt>
      <trkpt lat="45.9398" lon="6.38302">
        <ele>1763</ele>
        <time>2026-08-19T09:42:40.344Z</time>
      </trkpt>
      <trkpt lat="45.9398" lon="6.38302">
        <ele>1763</ele>
        <time>2026-08-19T09:42:41.344Z</time>
      </trkpt>
      <trkpt lat="45.9398" lon="6.38301">
        <ele>1763</ele>
        <time>2026-08-19T09:42:42.344Z</time>
      </trkpt>
      <trkpt lat="45.9398" lon="6.383">
        <ele>1764</ele>
        <time>2026-08-19T09:42:43.344Z</time>
      </trkpt>
      <trkpt lat="45.93979" lon="6.38299">
        <ele>1764</ele>
        <time>2026-08-19T09:42:44.344Z</time>
      </trkpt>
      <trkpt lat="45.93979" lon="6.38298">
        <ele>1764</ele>
        <time>2026-08-19T09:42:45.344Z</time>
      </trkpt>
      <trkpt lat="45.93978" lon="6.38297">
        <ele>1764</ele>
        <time>2026-08-19T09:42:46.344Z</time>
      </trkpt>
      <trkpt lat="45.93978" lon="6.38296">
        <ele>1764</ele>
        <time>2026-08-19T09:42:47.344Z</time>
      </trkpt>
      <trkpt lat="45.93978" lon="6.38296">
        <ele>1763</ele>
        <time>2026-08-19T09:42:48.344Z</time>
      </trkpt>
      <trkpt lat="45.93979" lon="6.38295">
        <ele>1763</ele>
        <time>2026-08-19T09:42:49.344Z</time>
      </trkpt>
      <trkpt lat="45.93979" lon="6.38295">
        <ele>1763</ele>
        <time>2026-08-19T09:42:50.344Z</time>
      </trkpt>
      <trkpt lat="45.9398" lon="6.38295">
        <ele>1763</ele>
        <time>2026-08-19T09:42:51.344Z</time>
      </trkpt>
      <trkpt lat="45.93981" lon="6.38295">
        <ele>1763</ele>
        <time>2026-08-19T09:42:52.344Z</time>
      </trkpt>
      <trkpt lat="45.93982" lon="6.38295">
        <ele>1763</ele>
        <time>2026-08-19T09:42:53.344Z</time>
      </trkpt>
      <trkpt lat="45.93982" lon="6.38295">
        <ele>1763</ele>
        <time>2026-08-19T09:42:54.344Z</time>
      </trkpt>
      <trkpt lat="45.93983" lon="6.38295">
        <ele>1764</ele>
        <time>2026-08-19T09:42:55.344Z</time>
      </trkpt>
      <trkpt lat="45.93984" lon="6.38295">
        <ele>1764</ele>
        <time>2026-08-19T09:42:56.344Z</time>
      </trkpt>
      <trkpt lat="45.93985" lon="6.38295">
        <ele>1765</ele>
        <time>2026-08-19T09:42:57.344Z</time>
      </trkpt>
      <trkpt lat="45.93985" lon="6.38295">
        <ele>1765</ele>
        <time>2026-08-19T09:42:58.344Z</time>
      </trkpt>
      <trkpt lat="45.93986" lon="6.38295">
        <ele>1765</ele>
        <time>2026-08-19T09:42:59.344Z</time>
      </trkpt>
      <trkpt lat="45.93987" lon="6.38294">
        <ele>1765</ele>
        <time>2026-08-19T09:43:00.344Z</time>
      </trkpt>
      <trkpt lat="45.93988" lon="6.38295">
        <ele>1766</ele>
        <time>2026-08-19T09:43:01.344Z</time>
      </trkpt>
      <trkpt lat="45.93988" lon="6.38295">
        <ele>1766</ele>
        <time>2026-08-19T09:43:02.344Z</time>
      </trkpt>
      <trkpt lat="45.93989" lon="6.38295">
        <ele>1766</ele>
        <time>2026-08-19T09:43:03.344Z</time>
      </trkpt>
      <trkpt lat="45.9399" lon="6.38296">
        <ele>1767</ele>
        <time>2026-08-19T09:43:04.344Z</time>
      </trkpt>
      <trkpt lat="45.9399" lon="6.38296">
        <ele>1767</ele>
        <time>2026-08-19T09:43:05.344Z</time>
      </trkpt>
      <trkpt lat="45.9399" lon="6.38297">
        <ele>1767</ele>
        <time>2026-08-19T09:43:06.344Z</time>
      </trkpt>
      <trkpt lat="45.9399" lon="6.38298">
        <ele>1767</ele>
        <time>2026-08-19T09:43:07.344Z</time>
      </trkpt>
      <trkpt lat="45.9399" lon="6.38299">
        <ele>1768</ele>
        <time>2026-08-19T09:43:08.344Z</time>
      </trkpt>
      <trkpt lat="45.93991" lon="6.383">
        <ele>1768</ele>
        <time>2026-08-19T09:43:09.344Z</time>
      </trkpt>
      <trkpt lat="45.93992" lon="6.38301">
        <ele>1768</ele>
        <time>2026-08-19T09:43:10.344Z</time>
      </trkpt>
      <trkpt lat="45.93993" lon="6.38302">
        <ele>1769</ele>
        <time>2026-08-19T09:43:11.344Z</time>
      </trkpt>
      <trkpt lat="45.93994" lon="6.38302">
        <ele>1769</ele>
        <time>2026-08-19T09:43:12.344Z</time>
      </trkpt>
      <trkpt lat="45.93995" lon="6.38303">
        <ele>1769</ele>
        <time>2026-08-19T09:43:13.344Z</time>
      </trkpt>
      <trkpt lat="45.93996" lon="6.38303">
        <ele>1770</ele>
        <time>2026-08-19T09:43:14.344Z</time>
      </trkpt>
      <trkpt lat="45.93997" lon="6.38304">
        <ele>1770</ele>
        <time>2026-08-19T09:43:15.344Z</time>
      </trkpt>
      <trkpt lat="45.93997" lon="6.38304">
        <ele>1771</ele>
        <time>2026-08-19T09:43:16.344Z</time>
      </trkpt>
      <trkpt lat="45.93998" lon="6.38305">
        <ele>1771</ele>
        <time>2026-08-19T09:43:17.344Z</time>
      </trkpt>
      <trkpt lat="45.93999" lon="6.38305">
        <ele>1772</ele>
        <time>2026-08-19T09:43:18.344Z</time>
      </trkpt>
      <trkpt lat="45.94" lon="6.38305">
        <ele>1773</ele>
        <time>2026-08-19T09:43:19.344Z</time>
      </trkpt>
      <trkpt lat="45.94" lon="6.38306">
        <ele>1773</ele>
        <time>2026-08-19T09:43:20.344Z</time>
      </trkpt>
      <trkpt lat="45.94" lon="6.38307">
        <ele>1774</ele>
        <time>2026-08-19T09:43:21.344Z</time>
      </trkpt>
      <trkpt lat="45.94001" lon="6.38307">
        <ele>1774</ele>
        <time>2026-08-19T09:43:22.344Z</time>
      </trkpt>
      <trkpt lat="45.94001" lon="6.38308">
        <ele>1775</ele>
        <time>2026-08-19T09:43:23.344Z</time>
      </trkpt>
      <trkpt lat="45.94001" lon="6.38308">
        <ele>1775</ele>
        <time>2026-08-19T09:43:24.344Z</time>
      </trkpt>
      <trkpt lat="45.94002" lon="6.38308">
        <ele>1775</ele>
        <time>2026-08-19T09:43:25.344Z</time>
      </trkpt>
      <trkpt lat="45.94002" lon="6.38309">
        <ele>1776</ele>
        <time>2026-08-19T09:43:26.344Z</time>
      </trkpt>
      <trkpt lat="45.94002" lon="6.3831">
        <ele>1776</ele>
        <time>2026-08-19T09:43:27.344Z</time>
      </trkpt>
      <trkpt lat="45.94002" lon="6.38311">
        <ele>1776</ele>
        <time>2026-08-19T09:43:28.344Z</time>
      </trkpt>
      <trkpt lat="45.94003" lon="6.38311">
        <ele>1776</ele>
        <time>2026-08-19T09:43:29.344Z</time>
      </trkpt>
      <trkpt lat="45.94003" lon="6.38312">
        <ele>1777</ele>
        <time>2026-08-19T09:43:30.344Z</time>
      </trkpt>
      <trkpt lat="45.94003" lon="6.38312">
        <ele>1777</ele>
        <time>2026-08-19T09:43:31.344Z</time>
      </trkpt>
      <trkpt lat="45.94003" lon="6.38312">
        <ele>1776</ele>
        <time>2026-08-19T09:43:32.344Z</time>
      </trkpt>
      <trkpt lat="45.94004" lon="6.38313">
        <ele>1776</ele>
        <time>2026-08-19T09:43:33.344Z</time>
      </trkpt>
      <trkpt lat="45.94004" lon="6.38313">
        <ele>1776</ele>
        <time>2026-08-19T09:43:34.344Z</time>
      </trkpt>
      <trkpt lat="45.94004" lon="6.38313">
        <ele>1776</ele>
        <time>2026-08-19T09:43:35.344Z</time>
      </trkpt>
      <trkpt lat="45.94004" lon="6.38312">
        <ele>1776</ele>
        <time>2026-08-19T09:43:36.344Z</time>
      </trkpt>
      <trkpt lat="45.94004" lon="6.38312">
        <ele>1776</ele>
        <time>2026-08-19T09:43:37.344Z</time>
      </trkpt>
      <trkpt lat="45.94003" lon="6.38312">
        <ele>1776</ele>
        <time>2026-08-19T09:43:38.344Z</time>
      </trkpt>
      <trkpt lat="45.94003" lon="6.38312">
        <ele>1776</ele>
        <time>2026-08-19T09:43:39.344Z</time>
      </trkpt>
      <trkpt lat="45.94003" lon="6.38312">
        <ele>1776</ele>
        <time>2026-08-19T09:43:40.344Z</time>
      </trkpt>
      <trkpt lat="45.94003" lon="6.38312">
        <ele>1776</ele>
        <time>2026-08-19T09:43:41.344Z</time>
      </trkpt>
      <trkpt lat="45.94002" lon="6.38311">
        <ele>1776</ele>
        <time>2026-08-19T09:43:42.344Z</time>
      </trkpt>
      <trkpt lat="45.94002" lon="6.38311">
        <ele>1776</ele>
        <time>2026-08-19T09:43:43.344Z</time>
      </trkpt>
      <trkpt lat="45.94002" lon="6.38311">
        <ele>1776</ele>
        <time>2026-08-19T09:43:44.344Z</time>
      </trkpt>
      <trkpt lat="45.94002" lon="6.38311">
        <ele>1776</ele>
        <time>2026-08-19T09:43:45.344Z</time>
      </trkpt>
      <trkpt lat="45.94001" lon="6.38311">
        <ele>1776</ele>
        <time>2026-08-19T09:43:46.344Z</time>
      </trkpt>
      <trkpt lat="45.94001" lon="6.38311">
        <ele>1777</ele>
        <time>2026-08-19T09:43:47.344Z</time>
      </trkpt>
      <trkpt lat="45.94001" lon="6.3831">
        <ele>1777</ele>
        <time>2026-08-19T09:43:48.344Z</time>
      </trkpt>
      <trkpt lat="45.94" lon="6.3831">
        <ele>1777</ele>
        <time>2026-08-19T09:43:49.344Z</time>
      </trkpt>
      <trkpt lat="45.94" lon="6.3831">
        <ele>1778</ele>
        <time>2026-08-19T09:43:50.344Z</time>
      </trkpt>
      <trkpt lat="45.94" lon="6.3831">
        <ele>1778</ele>
        <time>2026-08-19T09:43:51.344Z</time>
      </trkpt>
      <trkpt lat="45.94" lon="6.3831">
        <ele>1778</ele>
        <time>2026-08-19T09:43:52.344Z</time>
      </trkpt>
      <trkpt lat="45.94001" lon="6.3831">
        <ele>1778</ele>
        <time>2026-08-19T09:43:53.344Z</time>
      </trkpt>
      <trkpt lat="45.94001" lon="6.38311">
        <ele>1777</ele>
        <time>2026-08-19T09:43:54.344Z</time>
      </trkpt>
      <trkpt lat="45.94001" lon="6.38311">
        <ele>1777</ele>
        <time>2026-08-19T09:43:55.345Z</time>
      </trkpt>
      <trkpt lat="45.94001" lon="6.38311">
        <ele>1776</ele>
        <time>2026-08-19T09:43:56.344Z</time>
      </trkpt>
      <trkpt lat="45.94001" lon="6.38312">
        <ele>1776</ele>
        <time>2026-08-19T09:43:57.344Z</time>
      </trkpt>
      <trkpt lat="45.94001" lon="6.38312">
        <ele>1776</ele>
        <time>2026-08-19T09:43:58.344Z</time>
      </trkpt>
      <trkpt lat="45.94001" lon="6.38313">
        <ele>1776</ele>
        <time>2026-08-19T09:43:59.344Z</time>
      </trkpt>
      <trkpt lat="45.94001" lon="6.38313">
        <ele>1776</ele>
        <time>2026-08-19T09:44:00.344Z</time>
      </trkpt>
      <trkpt lat="45.94" lon="6.38314">
        <ele>1776</ele>
        <time>2026-08-19T09:44:01.344Z</time>
      </trkpt>
      <trkpt lat="45.94" lon="6.38314">
        <ele>1776</ele>
        <time>2026-08-19T09:44:02.344Z</time>
      </trkpt>
      <trkpt lat="45.94" lon="6.38314">
        <ele>1776</ele>
        <time>2026-08-19T09:44:03.344Z</time>
      </trkpt>
      <trkpt lat="45.94" lon="6.38314">
        <ele>1776</ele>
        <time>2026-08-19T09:44:04.344Z</time>
      </trkpt>
      <trkpt lat="45.94" lon="6.38314">
        <ele>1775</ele>
        <time>2026-08-19T09:44:05.344Z</time>
      </trkpt>
      <trkpt lat="45.94" lon="6.38314">
        <ele>1775</ele>
        <time>2026-08-19T09:44:06.344Z</time>
      </trkpt>
      <trkpt lat="45.94" lon="6.38314">
        <ele>1775</ele>
        <time>2026-08-19T09:44:07.344Z</time>
      </trkpt>
      <trkpt lat="45.94" lon="6.38314">
        <ele>1775</ele>
        <time>2026-08-19T09:44:08.344Z</time>
      </trkpt>
      <trkpt lat="45.94001" lon="6.38315">
        <ele>1775</ele>
        <time>2026-08-19T09:44:09.344Z</time>
      </trkpt>
      <trkpt lat="45.94001" lon="6.38315">
        <ele>1775</ele>
        <time>2026-08-19T09:44:10.344Z</time>
      </trkpt>
      <trkpt lat="45.94002" lon="6.38315">
        <ele>1776</ele>
        <time>2026-08-19T09:44:11.344Z</time>
      </trkpt>
      <trkpt lat="45.94002" lon="6.38316">
        <ele>1776</ele>
        <time>2026-08-19T09:44:12.344Z</time>
      </trkpt>
      <trkpt lat="45.94002" lon="6.38317">
        <ele>1776</ele>
        <time>2026-08-19T09:44:13.344Z</time>
      </trkpt>
      <trkpt lat="45.94002" lon="6.38318">
        <ele>1776</ele>
        <time>2026-08-19T09:44:14.344Z</time>
      </trkpt>
      <trkpt lat="45.94002" lon="6.38318">
        <ele>1776</ele>
        <time>2026-08-19T09:44:15.344Z</time>
      </trkpt>
      <trkpt lat="45.94002" lon="6.38318">
        <ele>1777</ele>
        <time>2026-08-19T09:44:16.344Z</time>
      </trkpt>
      <trkpt lat="45.94002" lon="6.38318">
        <ele>1777</ele>
        <time>2026-08-19T09:44:17.344Z</time>
      </trkpt>
      <trkpt lat="45.94002" lon="6.38318">
        <ele>1777</ele>
        <time>2026-08-19T09:44:18.344Z</time>
      </trkpt>
      <trkpt lat="45.94002" lon="6.38318">
        <ele>1777</ele>
        <time>2026-08-19T09:44:19.344Z</time>
      </trkpt>
      <trkpt lat="45.94002" lon="6.38318">
        <ele>1777</ele>
        <time>2026-08-19T09:44:20.344Z</time>
      </trkpt>
      <trkpt lat="45.94002" lon="6.38318">
        <ele>1777</ele>
        <time>2026-08-19T09:44:21.344Z</time>
      </trkpt>
      <trkpt lat="45.94002" lon="6.38318">
        <ele>1777</ele>
        <time>2026-08-19T09:44:22.344Z</time>
      </trkpt>
      <trkpt lat="45.94002" lon="6.38318">
        <ele>1777</ele>
        <time>2026-08-19T09:44:23.344Z</time>
      </trkpt>
      <trkpt lat="45.94002" lon="6.38318">
        <ele>1777</ele>
        <time>2026-08-19T09:44:24.344Z</time>
      </trkpt>
      <trkpt lat="45.94002" lon="6.38318">
        <ele>1777</ele>
        <time>2026-08-19T09:44:25.344Z</time>
      </trkpt>
      <trkpt lat="45.94002" lon="6.38318">
        <ele>1777</ele>
        <time>2026-08-19T09:44:26.344Z</time>
      </trkpt>
      <trkpt lat="45.94002" lon="6.38318">
        <ele>1777</ele>
        <time>2026-08-19T09:44:27.344Z</time>
      </trkpt>
      <trkpt lat="45.94002" lon="6.38318">
        <ele>1777</ele>
        <time>2026-08-19T09:44:28.344Z</time>
      </trkpt>
      <trkpt lat="45.94002" lon="6.38318">
        <ele>1777</ele>
        <time>2026-08-19T09:44:29.344Z</time>
      </trkpt>
      <trkpt lat="45.94002" lon="6.38318">
        <ele>1777</ele>
        <time>2026-08-19T09:44:30.344Z</time>
      </trkpt>
      <trkpt lat="45.94002" lon="6.38318">
        <ele>1777</ele>
        <time>2026-08-19T09:44:31.344Z</time>
      </trkpt>
      <trkpt lat="45.94002" lon="6.38318">
        <ele>1777</ele>
        <time>2026-08-19T09:44:32.344Z</time>
      </trkpt>
      <trkpt lat="45.94002" lon="6.38318">
        <ele>1777</ele>
        <time>2026-08-19T09:44:33.344Z</time>
      </trkpt>
      <trkpt lat="45.94002" lon="6.38318">
        <ele>1777</ele>
        <time>2026-08-19T09:44:34.344Z</time>
      </trkpt>
      <trkpt lat="45.94002" lon="6.38318">
        <ele>1777</ele>
        <time>2026-08-19T09:44:35.344Z</time>
      </trkpt>
      <trkpt lat="45.94002" lon="6.38318">
        <ele>1777</ele>
        <time>2026-08-19T09:44:36.344Z</time>
      </trkpt>
      <trkpt lat="45.94002" lon="6.38318">
        <ele>1777</ele>
        <time>2026-08-19T09:44:37.344Z</time>
      </trkpt>
      <trkpt lat="45.94002" lon="6.38318">
        <ele>1777</ele>
        <time>2026-08-19T09:44:38.344Z</time>
      </trkpt>
      <trkpt lat="45.94002" lon="6.38317">
        <ele>1777</ele>
        <time>2026-08-19T09:44:39.344Z</time>
      </trkpt>
      <trkpt lat="45.94002" lon="6.38317">
        <ele>1777</ele>
        <time>2026-08-19T09:44:40.344Z</time>
      </trkpt>
      <trkpt lat="45.94002" lon="6.38317">
        <ele>1777</ele>
        <time>2026-08-19T09:44:41.345Z</time>
      </trkpt>
      <trkpt lat="45.94003" lon="6.38317">
        <ele>1777</ele>
        <time>2026-08-19T09:44:42.344Z</time>
      </trkpt>
      <trkpt lat="45.94003" lon="6.38317">
        <ele>1777</ele>
        <time>2026-08-19T09:44:43.345Z</time>
      </trkpt>
      <trkpt lat="45.94004" lon="6.38317">
        <ele>1777</ele>
        <time>2026-08-19T09:44:44.344Z</time>
      </trkpt>
      <trkpt lat="45.94004" lon="6.38317">
        <ele>1777</ele>
        <time>2026-08-19T09:44:45.344Z</time>
      </trkpt>
      <trkpt lat="45.94005" lon="6.38317">
        <ele>1777</ele>
        <time>2026-08-19T09:44:46.344Z</time>
      </trkpt>
      <trkpt lat="45.94005" lon="6.38317">
        <ele>1777</ele>
        <time>2026-08-19T09:44:47.344Z</time>
      </trkpt>
      <trkpt lat="45.94005" lon="6.38317">
        <ele>1777</ele>
        <time>2026-08-19T09:44:48.344Z</time>
      </trkpt>
      <trkpt lat="45.94005" lon="6.38317">
        <ele>1777</ele>
        <time>2026-08-19T09:44:49.344Z</time>
      </trkpt>
      <trkpt lat="45.94005" lon="6.38317">
        <ele>1777</ele>
        <time>2026-08-19T09:44:50.344Z</time>
      </trkpt>
      <trkpt lat="45.94005" lon="6.38317">
        <ele>1777</ele>
        <time>2026-08-19T09:44:51.344Z</time>
      </trkpt>
      <trkpt lat="45.94005" lon="6.38317">
        <ele>1777</ele>
        <time>2026-08-19T09:44:52.344Z</time>
      </trkpt>
      <trkpt lat="45.94005" lon="6.38317">
        <ele>1777</ele>
        <time>2026-08-19T09:44:53.344Z</time>
      </trkpt>
      <trkpt lat="45.94005" lon="6.38317">
        <ele>1777</ele>
        <time>2026-08-19T09:44:54.344Z</time>
      </trkpt>
      <trkpt lat="45.94005" lon="6.38317">
        <ele>1777</ele>
        <time>2026-08-19T09:44:55.344Z</time>
      </trkpt>
      <trkpt lat="45.94006" lon="6.38317">
        <ele>1777</ele>
        <time>2026-08-19T09:44:56.344Z</time>
      </trkpt>
      <trkpt lat="45.94006" lon="6.38317">
        <ele>1777</ele>
        <time>2026-08-19T09:44:57.344Z</time>
      </trkpt>
      <trkpt lat="45.94006" lon="6.38316">
        <ele>1777</ele>
        <time>2026-08-19T09:44:58.344Z</time>
      </trkpt>
      <trkpt lat="45.94006" lon="6.38316">
        <ele>1777</ele>
        <time>2026-08-19T09:44:59.344Z</time>
      </trkpt>
      <trkpt lat="45.94007" lon="6.38316">
        <ele>1777</ele>
        <time>2026-08-19T09:45:00.344Z</time>
      </trkpt>
      <trkpt lat="45.94007" lon="6.38316">
        <ele>1777</ele>
        <time>2026-08-19T09:45:01.344Z</time>
      </trkpt>
      <trkpt lat="45.94007" lon="6.38316">
        <ele>1777</ele>
        <time>2026-08-19T09:45:02.344Z</time>
      </trkpt>
      <trkpt lat="45.94007" lon="6.38316">
        <ele>1777</ele>
        <time>2026-08-19T09:45:03.344Z</time>
      </trkpt>
      <trkpt lat="45.94007" lon="6.38316">
        <ele>1777</ele>
        <time>2026-08-19T09:45:04.344Z</time>
      </trkpt>
      <trkpt lat="45.94007" lon="6.38315">
        <ele>1777</ele>
        <time>2026-08-19T09:45:05.345Z</time>
      </trkpt>
      <trkpt lat="45.94007" lon="6.38315">
        <ele>1777</ele>
        <time>2026-08-19T09:45:06.344Z</time>
      </trkpt>
      <trkpt lat="45.94007" lon="6.38315">
        <ele>1777</ele>
        <time>2026-08-19T09:45:07.344Z</time>
      </trkpt>
      <trkpt lat="45.94007" lon="6.38314">
        <ele>1777</ele>
        <time>2026-08-19T09:45:08.344Z</time>
      </trkpt>
      <trkpt lat="45.94007" lon="6.38313">
        <ele>1777</ele>
        <time>2026-08-19T09:45:09.344Z</time>
      </trkpt>
      <trkpt lat="45.94008" lon="6.38312">
        <ele>1777</ele>
        <time>2026-08-19T09:45:10.344Z</time>
      </trkpt>
      <trkpt lat="45.94008" lon="6.38312">
        <ele>1777</ele>
        <time>2026-08-19T09:45:11.344Z</time>
      </trkpt>
      <trkpt lat="45.94009" lon="6.38312">
        <ele>1777</ele>
        <time>2026-08-19T09:45:12.344Z</time>
      </trkpt>
      <trkpt lat="45.94009" lon="6.38312">
        <ele>1777</ele>
        <time>2026-08-19T09:45:13.344Z</time>
      </trkpt>
      <trkpt lat="45.94009" lon="6.38312">
        <ele>1777</ele>
        <time>2026-08-19T09:45:14.344Z</time>
      </trkpt>
      <trkpt lat="45.94009" lon="6.38312">
        <ele>1777</ele>
        <time>2026-08-19T09:45:15.344Z</time>
      </trkpt>
      <trkpt lat="45.94009" lon="6.38312">
        <ele>1777</ele>
        <time>2026-08-19T09:45:16.344Z</time>
      </trkpt>
      <trkpt lat="45.94009" lon="6.38312">
        <ele>1777</ele>
        <time>2026-08-19T09:45:17.344Z</time>
      </trkpt>
      <trkpt lat="45.94009" lon="6.38311">
        <ele>1777</ele>
        <time>2026-08-19T09:45:18.344Z</time>
      </trkpt>
      <trkpt lat="45.94009" lon="6.38311">
        <ele>1777</ele>
        <time>2026-08-19T09:45:19.344Z</time>
      </trkpt>
      <trkpt lat="45.94009" lon="6.38311">
        <ele>1777</ele>
        <time>2026-08-19T09:45:20.344Z</time>
      </trkpt>
      <trkpt lat="45.94009" lon="6.38311">
        <ele>1777</ele>
        <time>2026-08-19T09:45:21.344Z</time>
      </trkpt>
      <trkpt lat="45.94009" lon="6.3831">
        <ele>1777</ele>
        <time>2026-08-19T09:45:22.344Z</time>
      </trkpt>
      <trkpt lat="45.94009" lon="6.3831">
        <ele>1777</ele>
        <time>2026-08-19T09:45:23.344Z</time>
      </trkpt>
      <trkpt lat="45.94009" lon="6.38309">
        <ele>1777</ele>
        <time>2026-08-19T09:45:24.344Z</time>
      </trkpt>
      <trkpt lat="45.94009" lon="6.38309">
        <ele>1777</ele>
        <time>2026-08-19T09:45:25.344Z</time>
      </trkpt>
      <trkpt lat="45.94009" lon="6.38308">
        <ele>1777</ele>
        <time>2026-08-19T09:45:26.344Z</time>
      </trkpt>
      <trkpt lat="45.94009" lon="6.38308">
        <ele>1777</ele>
        <time>2026-08-19T09:45:27.344Z</time>
      </trkpt>
      <trkpt lat="45.94009" lon="6.38307">
        <ele>1777</ele>
        <time>2026-08-19T09:45:28.344Z</time>
      </trkpt>
      <trkpt lat="45.94009" lon="6.38307">
        <ele>1777</ele>
        <time>2026-08-19T09:45:29.344Z</time>
      </trkpt>
      <trkpt lat="45.94009" lon="6.38306">
        <ele>1777</ele>
        <time>2026-08-19T09:45:30.344Z</time>
      </trkpt>
      <trkpt lat="45.94009" lon="6.38306">
        <ele>1777</ele>
        <time>2026-08-19T09:45:31.344Z</time>
      </trkpt>
      <trkpt lat="45.94009" lon="6.38305">
        <ele>1777</ele>
        <time>2026-08-19T09:45:32.344Z</time>
      </trkpt>
      <trkpt lat="45.94009" lon="6.38305">
        <ele>1777</ele>
        <time>2026-08-19T09:45:33.344Z</time>
      </trkpt>
      <trkpt lat="45.94009" lon="6.38304">
        <ele>1777</ele>
        <time>2026-08-19T09:45:34.344Z</time>
      </trkpt>
      <trkpt lat="45.94009" lon="6.38304">
        <ele>1777</ele>
        <time>2026-08-19T09:45:35.344Z</time>
      </trkpt>
      <trkpt lat="45.94009" lon="6.38304">
        <ele>1777</ele>
        <time>2026-08-19T09:45:36.345Z</time>
      </trkpt>
      <trkpt lat="45.94009" lon="6.38303">
        <ele>1777</ele>
        <time>2026-08-19T09:45:37.344Z</time>
      </trkpt>
      <trkpt lat="45.94009" lon="6.38303">
        <ele>1777</ele>
        <time>2026-08-19T09:45:38.344Z</time>
      </trkpt>
      <trkpt lat="45.94009" lon="6.38303">
        <ele>1777</ele>
        <time>2026-08-19T09:45:39.344Z</time>
      </trkpt>
      <trkpt lat="45.94009" lon="6.38302">
        <ele>1777</ele>
        <time>2026-08-19T09:45:40.345Z</time>
      </trkpt>
      <trkpt lat="45.94009" lon="6.38302">
        <ele>1777</ele>
        <time>2026-08-19T09:45:41.344Z</time>
      </trkpt>
      <trkpt lat="45.94009" lon="6.38302">
        <ele>1777</ele>
        <time>2026-08-19T09:45:42.344Z</time>
      </trkpt>
      <trkpt lat="45.9401" lon="6.38301">
        <ele>1777</ele>
        <time>2026-08-19T09:45:43.344Z</time>
      </trkpt>
      <trkpt lat="45.9401" lon="6.38301">
        <ele>1777</ele>
        <time>2026-08-19T09:45:44.344Z</time>
      </trkpt>
      <trkpt lat="45.9401" lon="6.38301">
        <ele>1777</ele>
        <time>2026-08-19T09:45:45.344Z</time>
      </trkpt>
      <trkpt lat="45.9401" lon="6.38301">
        <ele>1777</ele>
        <time>2026-08-19T09:45:46.344Z</time>
      </trkpt>
      <trkpt lat="45.9401" lon="6.38301">
        <ele>1777</ele>
        <time>2026-08-19T09:45:47.344Z</time>
      </trkpt>
      <trkpt lat="45.9401" lon="6.383">
        <ele>1778</ele>
        <time>2026-08-19T09:45:48.344Z</time>
      </trkpt>
      <trkpt lat="45.9401" lon="6.38298">
        <ele>1778</ele>
        <time>2026-08-19T09:45:49.344Z</time>
      </trkpt>
      <trkpt lat="45.9401" lon="6.38297">
        <ele>1778</ele>
        <time>2026-08-19T09:45:50.344Z</time>
      </trkpt>
      <trkpt lat="45.9401" lon="6.38295">
        <ele>1778</ele>
        <time>2026-08-19T09:45:51.344Z</time>
      </trkpt>
      <trkpt lat="45.9401" lon="6.38294">
        <ele>1778</ele>
        <time>2026-08-19T09:45:52.344Z</time>
      </trkpt>
      <trkpt lat="45.9401" lon="6.38293">
        <ele>1778</ele>
        <time>2026-08-19T09:45:53.344Z</time>
      </trkpt>
      <trkpt lat="45.9401" lon="6.38292">
        <ele>1778</ele>
        <time>2026-08-19T09:45:54.344Z</time>
      </trkpt>
      <trkpt lat="45.9401" lon="6.3829">
        <ele>1778</ele>
        <time>2026-08-19T09:45:55.344Z</time>
      </trkpt>
      <trkpt lat="45.94011" lon="6.38289">
        <ele>1778</ele>
        <time>2026-08-19T09:45:56.345Z</time>
      </trkpt>
      <trkpt lat="45.94011" lon="6.38287">
        <ele>1778</ele>
        <time>2026-08-19T09:45:57.344Z</time>
      </trkpt>
      <trkpt lat="45.94011" lon="6.38286">
        <ele>1778</ele>
        <time>2026-08-19T09:45:58.344Z</time>
      </trkpt>
      <trkpt lat="45.94012" lon="6.38285">
        <ele>1778</ele>
        <time>2026-08-19T09:45:59.344Z</time>
      </trkpt>
      <trkpt lat="45.94012" lon="6.38285">
        <ele>1778</ele>
        <time>2026-08-19T09:46:00.344Z</time>
      </trkpt>
      <trkpt lat="45.94013" lon="6.38284">
        <ele>1779</ele>
        <time>2026-08-19T09:46:01.344Z</time>
      </trkpt>
      <trkpt lat="45.94013" lon="6.38283">
        <ele>1779</ele>
        <time>2026-08-19T09:46:02.344Z</time>
      </trkpt>
      <trkpt lat="45.94014" lon="6.38283">
        <ele>1780</ele>
        <time>2026-08-19T09:46:03.344Z</time>
      </trkpt>
      <trkpt lat="45.94014" lon="6.38282">
        <ele>1780</ele>
        <time>2026-08-19T09:46:04.344Z</time>
      </trkpt>
      <trkpt lat="45.94015" lon="6.38281">
        <ele>1781</ele>
        <time>2026-08-19T09:46:05.344Z</time>
      </trkpt>
      <trkpt lat="45.94015" lon="6.3828">
        <ele>1781</ele>
        <time>2026-08-19T09:46:06.344Z</time>
      </trkpt>
      <trkpt lat="45.94015" lon="6.3828">
        <ele>1781</ele>
        <time>2026-08-19T09:46:07.344Z</time>
      </trkpt>
      <trkpt lat="45.94015" lon="6.38279">
        <ele>1781</ele>
        <time>2026-08-19T09:46:08.344Z</time>
      </trkpt>
      <trkpt lat="45.94016" lon="6.38278">
        <ele>1782</ele>
        <time>2026-08-19T09:46:09.344Z</time>
      </trkpt>
      <trkpt lat="45.94016" lon="6.38277">
        <ele>1782</ele>
        <time>2026-08-19T09:46:10.344Z</time>
      </trkpt>
      <trkpt lat="45.94016" lon="6.38276">
        <ele>1782</ele>
        <time>2026-08-19T09:46:11.344Z</time>
      </trkpt>
      <trkpt lat="45.94016" lon="6.38275">
        <ele>1782</ele>
        <time>2026-08-19T09:46:12.344Z</time>
      </trkpt>
      <trkpt lat="45.94017" lon="6.38274">
        <ele>1783</ele>
        <time>2026-08-19T09:46:13.344Z</time>
      </trkpt>
      <trkpt lat="45.94017" lon="6.38274">
        <ele>1783</ele>
        <time>2026-08-19T09:46:14.344Z</time>
      </trkpt>
      <trkpt lat="45.94017" lon="6.38273">
        <ele>1783</ele>
        <time>2026-08-19T09:46:15.344Z</time>
      </trkpt>
      <trkpt lat="45.94017" lon="6.38272">
        <ele>1783</ele>
        <time>2026-08-19T09:46:16.344Z</time>
      </trkpt>
      <trkpt lat="45.94017" lon="6.38272">
        <ele>1784</ele>
        <time>2026-08-19T09:46:17.344Z</time>
      </trkpt>
      <trkpt lat="45.94017" lon="6.38271">
        <ele>1784</ele>
        <time>2026-08-19T09:46:18.344Z</time>
      </trkpt>
      <trkpt lat="45.94016" lon="6.3827">
        <ele>1785</ele>
        <time>2026-08-19T09:46:19.344Z</time>
      </trkpt>
      <trkpt lat="45.94016" lon="6.3827">
        <ele>1785</ele>
        <time>2026-08-19T09:46:20.344Z</time>
      </trkpt>
      <trkpt lat="45.94016" lon="6.38269">
        <ele>1785</ele>
        <time>2026-08-19T09:46:21.344Z</time>
      </trkpt>
      <trkpt lat="45.94015" lon="6.38269">
        <ele>1785</ele>
        <time>2026-08-19T09:46:22.344Z</time>
      </trkpt>
      <trkpt lat="45.94015" lon="6.38268">
        <ele>1785</ele>
        <time>2026-08-19T09:46:23.344Z</time>
      </trkpt>
      <trkpt lat="45.94015" lon="6.38268">
        <ele>1785</ele>
        <time>2026-08-19T09:46:24.344Z</time>
      </trkpt>
      <trkpt lat="45.94016" lon="6.38268">
        <ele>1785</ele>
        <time>2026-08-19T09:46:25.344Z</time>
      </trkpt>
      <trkpt lat="45.94016" lon="6.38267">
        <ele>1785</ele>
        <time>2026-08-19T09:46:26.344Z</time>
      </trkpt>
      <trkpt lat="45.94017" lon="6.38267">
        <ele>1785</ele>
        <time>2026-08-19T09:46:27.344Z</time>
      </trkpt>
      <trkpt lat="45.94017" lon="6.38266">
        <ele>1785</ele>
        <time>2026-08-19T09:46:28.344Z</time>
      </trkpt>
      <trkpt lat="45.94018" lon="6.38267">
        <ele>1785</ele>
        <time>2026-08-19T09:46:29.345Z</time>
      </trkpt>
      <trkpt lat="45.94018" lon="6.38267">
        <ele>1785</ele>
        <time>2026-08-19T09:46:30.344Z</time>
      </trkpt>
      <trkpt lat="45.94019" lon="6.38266">
        <ele>1785</ele>
        <time>2026-08-19T09:46:31.344Z</time>
      </trkpt>
      <trkpt lat="45.94019" lon="6.38267">
        <ele>1786</ele>
        <time>2026-08-19T09:46:32.344Z</time>
      </trkpt>
      <trkpt lat="45.9402" lon="6.38267">
        <ele>1786</ele>
        <time>2026-08-19T09:46:33.344Z</time>
      </trkpt>
      <trkpt lat="45.9402" lon="6.38267">
        <ele>1786</ele>
        <time>2026-08-19T09:46:34.344Z</time>
      </trkpt>
      <trkpt lat="45.94021" lon="6.38267">
        <ele>1787</ele>
        <time>2026-08-19T09:46:35.344Z</time>
      </trkpt>
      <trkpt lat="45.94022" lon="6.38267">
        <ele>1787</ele>
        <time>2026-08-19T09:46:36.344Z</time>
      </trkpt>
      <trkpt lat="45.94022" lon="6.38267">
        <ele>1787</ele>
        <time>2026-08-19T09:46:37.344Z</time>
      </trkpt>
      <trkpt lat="45.94023" lon="6.38267">
        <ele>1787</ele>
        <time>2026-08-19T09:46:38.344Z</time>
      </trkpt>
      <trkpt lat="45.94023" lon="6.38267">
        <ele>1787</ele>
        <time>2026-08-19T09:46:39.344Z</time>
      </trkpt>
      <trkpt lat="45.94024" lon="6.38267">
        <ele>1788</ele>
        <time>2026-08-19T09:46:40.344Z</time>
      </trkpt>
      <trkpt lat="45.94024" lon="6.38267">
        <ele>1789</ele>
        <time>2026-08-19T09:46:41.344Z</time>
      </trkpt>
      <trkpt lat="45.94025" lon="6.38267">
        <ele>1789</ele>
        <time>2026-08-19T09:46:42.344Z</time>
      </trkpt>
      <trkpt lat="45.94025" lon="6.38267">
        <ele>1789</ele>
        <time>2026-08-19T09:46:43.344Z</time>
      </trkpt>
      <trkpt lat="45.94026" lon="6.38267">
        <ele>1789</ele>
        <time>2026-08-19T09:46:44.344Z</time>
      </trkpt>
      <trkpt lat="45.94026" lon="6.38266">
        <ele>1789</ele>
        <time>2026-08-19T09:46:45.344Z</time>
      </trkpt>
      <trkpt lat="45.94027" lon="6.38265">
        <ele>1790</ele>
        <time>2026-08-19T09:46:46.344Z</time>
      </trkpt>
      <trkpt lat="45.94027" lon="6.38265">
        <ele>1790</ele>
        <time>2026-08-19T09:46:47.344Z</time>
      </trkpt>
      <trkpt lat="45.94028" lon="6.38265">
        <ele>1791</ele>
        <time>2026-08-19T09:46:48.344Z</time>
      </trkpt>
      <trkpt lat="45.94028" lon="6.38265">
        <ele>1791</ele>
        <time>2026-08-19T09:46:49.344Z</time>
      </trkpt>
      <trkpt lat="45.94029" lon="6.38265">
        <ele>1792</ele>
        <time>2026-08-19T09:46:50.344Z</time>
      </trkpt>
      <trkpt lat="45.94029" lon="6.38264">
        <ele>1793</ele>
        <time>2026-08-19T09:46:51.344Z</time>
      </trkpt>
      <trkpt lat="45.94029" lon="6.38264">
        <ele>1793</ele>
        <time>2026-08-19T09:46:52.344Z</time>
      </trkpt>
      <trkpt lat="45.9403" lon="6.38263">
        <ele>1794</ele>
        <time>2026-08-19T09:46:53.344Z</time>
      </trkpt>
      <trkpt lat="45.9403" lon="6.38263">
        <ele>1794</ele>
        <time>2026-08-19T09:46:54.344Z</time>
      </trkpt>
      <trkpt lat="45.9403" lon="6.38263">
        <ele>1795</ele>
        <time>2026-08-19T09:46:55.344Z</time>
      </trkpt>
      <trkpt lat="45.94031" lon="6.38262">
        <ele>1795</ele>
        <time>2026-08-19T09:46:56.344Z</time>
      </trkpt>
      <trkpt lat="45.94031" lon="6.38262">
        <ele>1794</ele>
        <time>2026-08-19T09:46:57.344Z</time>
      </trkpt>
      <trkpt lat="45.94031" lon="6.38262">
        <ele>1794</ele>
        <time>2026-08-19T09:46:58.344Z</time>
      </trkpt>
      <trkpt lat="45.94032" lon="6.38261">
        <ele>1794</ele>
        <time>2026-08-19T09:46:59.344Z</time>
      </trkpt>
      <trkpt lat="45.94032" lon="6.38261">
        <ele>1795</ele>
        <time>2026-08-19T09:47:00.345Z</time>
      </trkpt>
      <trkpt lat="45.94033" lon="6.3826">
        <ele>1795</ele>
        <time>2026-08-19T09:47:01.344Z</time>
      </trkpt>
      <trkpt lat="45.94033" lon="6.3826">
        <ele>1795</ele>
        <time>2026-08-19T09:47:02.344Z</time>
      </trkpt>
      <trkpt lat="45.94034" lon="6.38259">
        <ele>1795</ele>
        <time>2026-08-19T09:47:03.344Z</time>
      </trkpt>
      <trkpt lat="45.94034" lon="6.38259">
        <ele>1795</ele>
        <time>2026-08-19T09:47:04.344Z</time>
      </trkpt>
      <trkpt lat="45.94035" lon="6.38258">
        <ele>1795</ele>
        <time>2026-08-19T09:47:05.344Z</time>
      </trkpt>
      <trkpt lat="45.94035" lon="6.38258">
        <ele>1796</ele>
        <time>2026-08-19T09:47:06.345Z</time>
      </trkpt>
      <trkpt lat="45.94035" lon="6.38258">
        <ele>1796</ele>
        <time>2026-08-19T09:47:07.344Z</time>
      </trkpt>
      <trkpt lat="45.94036" lon="6.38258">
        <ele>1796</ele>
        <time>2026-08-19T09:47:08.344Z</time>
      </trkpt>
      <trkpt lat="45.94036" lon="6.38258">
        <ele>1797</ele>
        <time>2026-08-19T09:47:09.344Z</time>
      </trkpt>
      <trkpt lat="45.94036" lon="6.38257">
        <ele>1797</ele>
        <time>2026-08-19T09:47:10.344Z</time>
      </trkpt>
      <trkpt lat="45.94037" lon="6.38257">
        <ele>1797</ele>
        <time>2026-08-19T09:47:11.344Z</time>
      </trkpt>
      <trkpt lat="45.94037" lon="6.38256">
        <ele>1797</ele>
        <time>2026-08-19T09:47:12.344Z</time>
      </trkpt>
      <trkpt lat="45.94037" lon="6.38255">
        <ele>1798</ele>
        <time>2026-08-19T09:47:13.345Z</time>
      </trkpt>
      <trkpt lat="45.94037" lon="6.38255">
        <ele>1798</ele>
        <time>2026-08-19T09:47:14.344Z</time>
      </trkpt>
      <trkpt lat="45.94037" lon="6.38254">
        <ele>1798</ele>
        <time>2026-08-19T09:47:15.344Z</time>
      </trkpt>
      <trkpt lat="45.94037" lon="6.38253">
        <ele>1798</ele>
        <time>2026-08-19T09:47:16.344Z</time>
      </trkpt>
      <trkpt lat="45.94036" lon="6.38252">
        <ele>1798</ele>
        <time>2026-08-19T09:47:17.344Z</time>
      </trkpt>
      <trkpt lat="45.94036" lon="6.38252">
        <ele>1798</ele>
        <time>2026-08-19T09:47:18.344Z</time>
      </trkpt>
      <trkpt lat="45.94035" lon="6.38251">
        <ele>1799</ele>
        <time>2026-08-19T09:47:19.344Z</time>
      </trkpt>
      <trkpt lat="45.94035" lon="6.3825">
        <ele>1800</ele>
        <time>2026-08-19T09:47:20.344Z</time>
      </trkpt>
      <trkpt lat="45.94034" lon="6.3825">
        <ele>1800</ele>
        <time>2026-08-19T09:47:21.344Z</time>
      </trkpt>
      <trkpt lat="45.94034" lon="6.38249">
        <ele>1801</ele>
        <time>2026-08-19T09:47:22.344Z</time>
      </trkpt>
      <trkpt lat="45.94033" lon="6.38248">
        <ele>1801</ele>
        <time>2026-08-19T09:47:23.344Z</time>
      </trkpt>
      <trkpt lat="45.94033" lon="6.38247">
        <ele>1802</ele>
        <time>2026-08-19T09:47:24.344Z</time>
      </trkpt>
      <trkpt lat="45.94032" lon="6.38245">
        <ele>1802</ele>
        <time>2026-08-19T09:47:25.344Z</time>
      </trkpt>
      <trkpt lat="45.94032" lon="6.38244">
        <ele>1801</ele>
        <time>2026-08-19T09:47:26.345Z</time>
      </trkpt>
      <trkpt lat="45.94031" lon="6.38243">
        <ele>1801</ele>
        <time>2026-08-19T09:47:27.344Z</time>
      </trkpt>
      <trkpt lat="45.94031" lon="6.38242">
        <ele>1801</ele>
        <time>2026-08-19T09:47:28.344Z</time>
      </trkpt>
      <trkpt lat="45.9403" lon="6.38241">
        <ele>1801</ele>
        <time>2026-08-19T09:47:29.344Z</time>
      </trkpt>
      <trkpt lat="45.9403" lon="6.3824">
        <ele>1801</ele>
        <time>2026-08-19T09:47:30.344Z</time>
      </trkpt>
      <trkpt lat="45.9403" lon="6.38239">
        <ele>1801</ele>
        <time>2026-08-19T09:47:31.344Z</time>
      </trkpt>
      <trkpt lat="45.9403" lon="6.38238">
        <ele>1801</ele>
        <time>2026-08-19T09:47:32.344Z</time>
      </trkpt>
      <trkpt lat="45.9403" lon="6.38237">
        <ele>1801</ele>
        <time>2026-08-19T09:47:33.344Z</time>
      </trkpt>
      <trkpt lat="45.94029" lon="6.38236">
        <ele>1801</ele>
        <time>2026-08-19T09:47:34.344Z</time>
      </trkpt>
      <trkpt lat="45.94029" lon="6.38235">
        <ele>1801</ele>
        <time>2026-08-19T09:47:35.344Z</time>
      </trkpt>
      <trkpt lat="45.94029" lon="6.38234">
        <ele>1801</ele>
        <time>2026-08-19T09:47:36.344Z</time>
      </trkpt>
      <trkpt lat="45.94029" lon="6.38233">
        <ele>1802</ele>
        <time>2026-08-19T09:47:37.344Z</time>
      </trkpt>
      <trkpt lat="45.94029" lon="6.38232">
        <ele>1802</ele>
        <time>2026-08-19T09:47:38.344Z</time>
      </trkpt>
      <trkpt lat="45.9403" lon="6.38232">
        <ele>1802</ele>
        <time>2026-08-19T09:47:39.344Z</time>
      </trkpt>
      <trkpt lat="45.9403" lon="6.38231">
        <ele>1803</ele>
        <time>2026-08-19T09:47:40.344Z</time>
      </trkpt>
      <trkpt lat="45.94031" lon="6.3823">
        <ele>1803</ele>
        <time>2026-08-19T09:47:41.344Z</time>
      </trkpt>
      <trkpt lat="45.94031" lon="6.38229">
        <ele>1804</ele>
        <time>2026-08-19T09:47:42.344Z</time>
      </trkpt>
      <trkpt lat="45.94031" lon="6.38228">
        <ele>1804</ele>
        <time>2026-08-19T09:47:43.344Z</time>
      </trkpt>
      <trkpt lat="45.94031" lon="6.38227">
        <ele>1804</ele>
        <time>2026-08-19T09:47:44.344Z</time>
      </trkpt>
      <trkpt lat="45.94031" lon="6.38227">
        <ele>1804</ele>
        <time>2026-08-19T09:47:45.344Z</time>
      </trkpt>
      <trkpt lat="45.94031" lon="6.38226">
        <ele>1804</ele>
        <time>2026-08-19T09:47:46.344Z</time>
      </trkpt>
      <trkpt lat="45.94032" lon="6.38224">
        <ele>1804</ele>
        <time>2026-08-19T09:47:47.344Z</time>
      </trkpt>
      <trkpt lat="45.94032" lon="6.38223">
        <ele>1804</ele>
        <time>2026-08-19T09:47:48.344Z</time>
      </trkpt>
      <trkpt lat="45.94032" lon="6.38222">
        <ele>1804</ele>
        <time>2026-08-19T09:47:49.344Z</time>
      </trkpt>
      <trkpt lat="45.94033" lon="6.38222">
        <ele>1804</ele>
        <time>2026-08-19T09:47:50.344Z</time>
      </trkpt>
      <trkpt lat="45.94033" lon="6.38221">
        <ele>1804</ele>
        <time>2026-08-19T09:47:51.344Z</time>
      </trkpt>
      <trkpt lat="45.94034" lon="6.38221">
        <ele>1804</ele>
        <time>2026-08-19T09:47:52.344Z</time>
      </trkpt>
      <trkpt lat="45.94034" lon="6.38221">
        <ele>1804</ele>
        <time>2026-08-19T09:47:53.344Z</time>
      </trkpt>
      <trkpt lat="45.94034" lon="6.3822">
        <ele>1804</ele>
        <time>2026-08-19T09:47:54.344Z</time>
      </trkpt>
      <trkpt lat="45.94034" lon="6.3822">
        <ele>1805</ele>
        <time>2026-08-19T09:47:55.345Z</time>
      </trkpt>
      <trkpt lat="45.94034" lon="6.38219">
        <ele>1805</ele>
        <time>2026-08-19T09:47:56.344Z</time>
      </trkpt>
      <trkpt lat="45.94034" lon="6.38218">
        <ele>1805</ele>
        <time>2026-08-19T09:47:57.344Z</time>
      </trkpt>
      <trkpt lat="45.94034" lon="6.38217">
        <ele>1806</ele>
        <time>2026-08-19T09:47:58.344Z</time>
      </trkpt>
      <trkpt lat="45.94034" lon="6.38216">
        <ele>1806</ele>
        <time>2026-08-19T09:47:59.344Z</time>
      </trkpt>
      <trkpt lat="45.94034" lon="6.38215">
        <ele>1806</ele>
        <time>2026-08-19T09:48:00.344Z</time>
      </trkpt>
      <trkpt lat="45.94034" lon="6.38214">
        <ele>1806</ele>
        <time>2026-08-19T09:48:01.344Z</time>
      </trkpt>
      <trkpt lat="45.94034" lon="6.38213">
        <ele>1806</ele>
        <time>2026-08-19T09:48:02.344Z</time>
      </trkpt>
      <trkpt lat="45.94034" lon="6.38212">
        <ele>1807</ele>
        <time>2026-08-19T09:48:03.344Z</time>
      </trkpt>
      <trkpt lat="45.94034" lon="6.38212">
        <ele>1807</ele>
        <time>2026-08-19T09:48:04.344Z</time>
      </trkpt>
      <trkpt lat="45.94034" lon="6.38211">
        <ele>1807</ele>
        <time>2026-08-19T09:48:05.344Z</time>
      </trkpt>
      <trkpt lat="45.94035" lon="6.3821">
        <ele>1808</ele>
        <time>2026-08-19T09:48:06.344Z</time>
      </trkpt>
      <trkpt lat="45.94035" lon="6.38209">
        <ele>1808</ele>
        <time>2026-08-19T09:48:07.344Z</time>
      </trkpt>
      <trkpt lat="45.94035" lon="6.38209">
        <ele>1809</ele>
        <time>2026-08-19T09:48:08.344Z</time>
      </trkpt>
      <trkpt lat="45.94035" lon="6.38208">
        <ele>1809</ele>
        <time>2026-08-19T09:48:09.344Z</time>
      </trkpt>
      <trkpt lat="45.94035" lon="6.38207">
        <ele>1809</ele>
        <time>2026-08-19T09:48:10.344Z</time>
      </trkpt>
      <trkpt lat="45.94035" lon="6.38206">
        <ele>1810</ele>
        <time>2026-08-19T09:48:11.344Z</time>
      </trkpt>
      <trkpt lat="45.94035" lon="6.38205">
        <ele>1810</ele>
        <time>2026-08-19T09:48:12.344Z</time>
      </trkpt>
      <trkpt lat="45.94035" lon="6.38204">
        <ele>1810</ele>
        <time>2026-08-19T09:48:13.344Z</time>
      </trkpt>
      <trkpt lat="45.94034" lon="6.38203">
        <ele>1810</ele>
        <time>2026-08-19T09:48:14.344Z</time>
      </trkpt>
      <trkpt lat="45.94034" lon="6.38202">
        <ele>1811</ele>
        <time>2026-08-19T09:48:15.344Z</time>
      </trkpt>
      <trkpt lat="45.94034" lon="6.38202">
        <ele>1811</ele>
        <time>2026-08-19T09:48:16.344Z</time>
      </trkpt>
      <trkpt lat="45.94034" lon="6.38201">
        <ele>1811</ele>
        <time>2026-08-19T09:48:17.344Z</time>
      </trkpt>
      <trkpt lat="45.94034" lon="6.382">
        <ele>1811</ele>
        <time>2026-08-19T09:48:18.344Z</time>
      </trkpt>
      <trkpt lat="45.94034" lon="6.38198">
        <ele>1812</ele>
        <time>2026-08-19T09:48:19.344Z</time>
      </trkpt>
      <trkpt lat="45.94033" lon="6.38197">
        <ele>1812</ele>
        <time>2026-08-19T09:48:20.344Z</time>
      </trkpt>
      <trkpt lat="45.94033" lon="6.38196">
        <ele>1812</ele>
        <time>2026-08-19T09:48:21.344Z</time>
      </trkpt>
      <trkpt lat="45.94034" lon="6.38195">
        <ele>1813</ele>
        <time>2026-08-19T09:48:22.344Z</time>
      </trkpt>
      <trkpt lat="45.94034" lon="6.38194">
        <ele>1813</ele>
        <time>2026-08-19T09:48:23.345Z</time>
      </trkpt>
      <trkpt lat="45.94034" lon="6.38193">
        <ele>1813</ele>
        <time>2026-08-19T09:48:24.344Z</time>
      </trkpt>
      <trkpt lat="45.94035" lon="6.38192">
        <ele>1812</ele>
        <time>2026-08-19T09:48:25.344Z</time>
      </trkpt>
      <trkpt lat="45.94035" lon="6.38191">
        <ele>1812</ele>
        <time>2026-08-19T09:48:26.344Z</time>
      </trkpt>
      <trkpt lat="45.94034" lon="6.3819">
        <ele>1812</ele>
        <time>2026-08-19T09:48:27.344Z</time>
      </trkpt>
      <trkpt lat="45.94034" lon="6.38189">
        <ele>1813</ele>
        <time>2026-08-19T09:48:28.344Z</time>
      </trkpt>
      <trkpt lat="45.94034" lon="6.38189">
        <ele>1813</ele>
        <time>2026-08-19T09:48:29.344Z</time>
      </trkpt>
      <trkpt lat="45.94034" lon="6.38188">
        <ele>1814</ele>
        <time>2026-08-19T09:48:30.344Z</time>
      </trkpt>
      <trkpt lat="45.94034" lon="6.38187">
        <ele>1814</ele>
        <time>2026-08-19T09:48:31.344Z</time>
      </trkpt>
      <trkpt lat="45.94034" lon="6.38186">
        <ele>1815</ele>
        <time>2026-08-19T09:48:32.344Z</time>
      </trkpt>
      <trkpt lat="45.94035" lon="6.38184">
        <ele>1815</ele>
        <time>2026-08-19T09:48:33.344Z</time>
      </trkpt>
      <trkpt lat="45.94035" lon="6.38183">
        <ele>1816</ele>
        <time>2026-08-19T09:48:34.344Z</time>
      </trkpt>
      <trkpt lat="45.94035" lon="6.38181">
        <ele>1817</ele>
        <time>2026-08-19T09:48:35.344Z</time>
      </trkpt>
      <trkpt lat="45.94035" lon="6.3818">
        <ele>1817</ele>
        <time>2026-08-19T09:48:36.344Z</time>
      </trkpt>
      <trkpt lat="45.94035" lon="6.38179">
        <ele>1818</ele>
        <time>2026-08-19T09:48:37.344Z</time>
      </trkpt>
      <trkpt lat="45.94035" lon="6.38178">
        <ele>1818</ele>
        <time>2026-08-19T09:48:38.344Z</time>
      </trkpt>
      <trkpt lat="45.94035" lon="6.38177">
        <ele>1819</ele>
        <time>2026-08-19T09:48:39.344Z</time>
      </trkpt>
      <trkpt lat="45.94036" lon="6.38175">
        <ele>1819</ele>
        <time>2026-08-19T09:48:40.344Z</time>
      </trkpt>
      <trkpt lat="45.94036" lon="6.38175">
        <ele>1820</ele>
        <time>2026-08-19T09:48:41.344Z</time>
      </trkpt>
      <trkpt lat="45.94037" lon="6.38175">
        <ele>1820</ele>
        <time>2026-08-19T09:48:42.344Z</time>
      </trkpt>
      <trkpt lat="45.94038" lon="6.38175">
        <ele>1820</ele>
        <time>2026-08-19T09:48:43.344Z</time>
      </trkpt>
      <trkpt lat="45.94039" lon="6.38176">
        <ele>1821</ele>
        <time>2026-08-19T09:48:44.344Z</time>
      </trkpt>
      <trkpt lat="45.94039" lon="6.38176">
        <ele>1821</ele>
        <time>2026-08-19T09:48:45.344Z</time>
      </trkpt>
      <trkpt lat="45.9404" lon="6.38177">
        <ele>1821</ele>
        <time>2026-08-19T09:48:46.344Z</time>
      </trkpt>
      <trkpt lat="45.94041" lon="6.38176">
        <ele>1822</ele>
        <time>2026-08-19T09:48:47.344Z</time>
      </trkpt>
      <trkpt lat="45.94042" lon="6.38176">
        <ele>1822</ele>
        <time>2026-08-19T09:48:48.344Z</time>
      </trkpt>
      <trkpt lat="45.94042" lon="6.38176">
        <ele>1822</ele>
        <time>2026-08-19T09:48:49.344Z</time>
      </trkpt>
      <trkpt lat="45.94043" lon="6.38175">
        <ele>1822</ele>
        <time>2026-08-19T09:48:50.344Z</time>
      </trkpt>
      <trkpt lat="45.94043" lon="6.38174">
        <ele>1822</ele>
        <time>2026-08-19T09:48:51.344Z</time>
      </trkpt>
      <trkpt lat="45.94043" lon="6.38174">
        <ele>1822</ele>
        <time>2026-08-19T09:48:52.344Z</time>
      </trkpt>
      <trkpt lat="45.94043" lon="6.38173">
        <ele>1822</ele>
        <time>2026-08-19T09:48:53.344Z</time>
      </trkpt>
      <trkpt lat="45.94043" lon="6.38173">
        <ele>1822</ele>
        <time>2026-08-19T09:48:54.344Z</time>
      </trkpt>
      <trkpt lat="45.94044" lon="6.38173">
        <ele>1823</ele>
        <time>2026-08-19T09:48:55.344Z</time>
      </trkpt>
      <trkpt lat="45.94044" lon="6.38173">
        <ele>1823</ele>
        <time>2026-08-19T09:48:56.344Z</time>
      </trkpt>
      <trkpt lat="45.94044" lon="6.38173">
        <ele>1823</ele>
        <time>2026-08-19T09:48:57.344Z</time>
      </trkpt>
      <trkpt lat="45.94044" lon="6.38173">
        <ele>1824</ele>
        <time>2026-08-19T09:48:58.344Z</time>
      </trkpt>
      <trkpt lat="45.94044" lon="6.38173">
        <ele>1824</ele>
        <time>2026-08-19T09:48:59.344Z</time>
      </trkpt>
      <trkpt lat="45.94044" lon="6.38173">
        <ele>1824</ele>
        <time>2026-08-19T09:49:00.344Z</time>
      </trkpt>
      <trkpt lat="45.94044" lon="6.38173">
        <ele>1824</ele>
        <time>2026-08-19T09:49:01.344Z</time>
      </trkpt>
      <trkpt lat="45.94044" lon="6.38173">
        <ele>1825</ele>
        <time>2026-08-19T09:49:02.344Z</time>
      </trkpt>
      <trkpt lat="45.94044" lon="6.38172">
        <ele>1825</ele>
        <time>2026-08-19T09:49:03.344Z</time>
      </trkpt>
      <trkpt lat="45.94044" lon="6.38172">
        <ele>1825</ele>
        <time>2026-08-19T09:49:04.344Z</time>
      </trkpt>
      <trkpt lat="45.94044" lon="6.38172">
        <ele>1825</ele>
        <time>2026-08-19T09:49:05.344Z</time>
      </trkpt>
      <trkpt lat="45.94044" lon="6.38172">
        <ele>1825</ele>
        <time>2026-08-19T09:49:06.344Z</time>
      </trkpt>
      <trkpt lat="45.94045" lon="6.38172">
        <ele>1825</ele>
        <time>2026-08-19T09:49:07.344Z</time>
      </trkpt>
      <trkpt lat="45.94045" lon="6.38173">
        <ele>1825</ele>
        <time>2026-08-19T09:49:08.344Z</time>
      </trkpt>
      <trkpt lat="45.94045" lon="6.38173">
        <ele>1825</ele>
        <time>2026-08-19T09:49:09.344Z</time>
      </trkpt>
      <trkpt lat="45.94045" lon="6.38173">
        <ele>1825</ele>
        <time>2026-08-19T09:49:10.344Z</time>
      </trkpt>
      <trkpt lat="45.94045" lon="6.38173">
        <ele>1825</ele>
        <time>2026-08-19T09:49:11.344Z</time>
      </trkpt>
      <trkpt lat="45.94045" lon="6.38173">
        <ele>1826</ele>
        <time>2026-08-19T09:49:12.344Z</time>
      </trkpt>
      <trkpt lat="45.94045" lon="6.38173">
        <ele>1826</ele>
        <time>2026-08-19T09:49:13.344Z</time>
      </trkpt>
      <trkpt lat="45.94045" lon="6.38173">
        <ele>1826</ele>
        <time>2026-08-19T09:49:14.345Z</time>
      </trkpt>
      <trkpt lat="45.94045" lon="6.38173">
        <ele>1827</ele>
        <time>2026-08-19T09:49:15.344Z</time>
      </trkpt>
      <trkpt lat="45.94045" lon="6.38173">
        <ele>1827</ele>
        <time>2026-08-19T09:49:16.344Z</time>
      </trkpt>
      <trkpt lat="45.94045" lon="6.38173">
        <ele>1827</ele>
        <time>2026-08-19T09:49:17.345Z</time>
      </trkpt>
      <trkpt lat="45.94045" lon="6.38173">
        <ele>1827</ele>
        <time>2026-08-19T09:49:18.344Z</time>
      </trkpt>
      <trkpt lat="45.94045" lon="6.38173">
        <ele>1827</ele>
        <time>2026-08-19T09:49:19.344Z</time>
      </trkpt>
      <trkpt lat="45.94045" lon="6.38173">
        <ele>1827</ele>
        <time>2026-08-19T09:49:20.344Z</time>
      </trkpt>
      <trkpt lat="45.94045" lon="6.38173">
        <ele>1828</ele>
        <time>2026-08-19T09:49:21.344Z</time>
      </trkpt>
      <trkpt lat="45.94045" lon="6.38173">
        <ele>1828</ele>
        <time>2026-08-19T09:49:22.344Z</time>
      </trkpt>
      <trkpt lat="45.94045" lon="6.38173">
        <ele>1828</ele>
        <time>2026-08-19T09:49:23.344Z</time>
      </trkpt>
      <trkpt lat="45.94045" lon="6.38173">
        <ele>1828</ele>
        <time>2026-08-19T09:49:24.344Z</time>
      </trkpt>
      <trkpt lat="45.94045" lon="6.38172">
        <ele>1828</ele>
        <time>2026-08-19T09:49:25.344Z</time>
      </trkpt>
      <trkpt lat="45.94045" lon="6.38172">
        <ele>1828</ele>
        <time>2026-08-19T09:49:26.344Z</time>
      </trkpt>
      <trkpt lat="45.94045" lon="6.38172">
        <ele>1828</ele>
        <time>2026-08-19T09:49:27.344Z</time>
      </trkpt>
      <trkpt lat="45.94045" lon="6.38172">
        <ele>1828</ele>
        <time>2026-08-19T09:49:28.344Z</time>
      </trkpt>
      <trkpt lat="45.94045" lon="6.38172">
        <ele>1828</ele>
        <time>2026-08-19T09:49:29.344Z</time>
      </trkpt>
      <trkpt lat="45.94045" lon="6.38172">
        <ele>1828</ele>
        <time>2026-08-19T09:49:30.344Z</time>
      </trkpt>
      <trkpt lat="45.94045" lon="6.38172">
        <ele>1828</ele>
        <time>2026-08-19T09:49:31.344Z</time>
      </trkpt>
      <trkpt lat="45.94045" lon="6.38172">
        <ele>1828</ele>
        <time>2026-08-19T09:49:32.344Z</time>
      </trkpt>
      <trkpt lat="45.94045" lon="6.38172">
        <ele>1828</ele>
        <time>2026-08-19T09:49:33.344Z</time>
      </trkpt>
      <trkpt lat="45.94045" lon="6.38172">
        <ele>1828</ele>
        <time>2026-08-19T09:49:34.344Z</time>
      </trkpt>
      <trkpt lat="45.94045" lon="6.38172">
        <ele>1828</ele>
        <time>2026-08-19T09:49:35.344Z</time>
      </trkpt>
      <trkpt lat="45.94045" lon="6.38172">
        <ele>1828</ele>
        <time>2026-08-19T09:49:36.344Z</time>
      </trkpt>
      <trkpt lat="45.94045" lon="6.38172">
        <ele>1828</ele>
        <time>2026-08-19T09:49:37.344Z</time>
      </trkpt>
      <trkpt lat="45.94045" lon="6.38172">
        <ele>1828</ele>
        <time>2026-08-19T09:49:38.344Z</time>
      </trkpt>
      <trkpt lat="45.94045" lon="6.38172">
        <ele>1828</ele>
        <time>2026-08-19T09:49:39.344Z</time>
      </trkpt>
      <trkpt lat="45.94045" lon="6.38172">
        <ele>1828</ele>
        <time>2026-08-19T09:49:40.344Z</time>
      </trkpt>
      <trkpt lat="45.94045" lon="6.38172">
        <ele>1828</ele>
        <time>2026-08-19T09:49:41.344Z</time>
      </trkpt>
      <trkpt lat="45.94045" lon="6.38172">
        <ele>1828</ele>
        <time>2026-08-19T09:49:42.344Z</time>
      </trkpt>
      <trkpt lat="45.94045" lon="6.38172">
        <ele>1828</ele>
        <time>2026-08-19T09:49:43.344Z</time>
      </trkpt>
      <trkpt lat="45.94045" lon="6.38172">
        <ele>1828</ele>
        <time>2026-08-19T09:49:44.344Z</time>
      </trkpt>
      <trkpt lat="45.94045" lon="6.38172">
        <ele>1828</ele>
        <time>2026-08-19T09:49:45.344Z</time>
      </trkpt>
      <trkpt lat="45.94045" lon="6.38172">
        <ele>1828</ele>
        <time>2026-08-19T09:49:46.344Z</time>
      </trkpt>
      <trkpt lat="45.94045" lon="6.38172">
        <ele>1828</ele>
        <time>2026-08-19T09:49:47.344Z</time>
      </trkpt>
      <trkpt lat="45.94045" lon="6.38172">
        <ele>1828</ele>
        <time>2026-08-19T09:49:48.344Z</time>
      </trkpt>
      <trkpt lat="45.94045" lon="6.38172">
        <ele>1828</ele>
        <time>2026-08-19T09:49:49.344Z</time>
      </trkpt>
      <trkpt lat="45.94045" lon="6.38172">
        <ele>1828</ele>
        <time>2026-08-19T09:49:50.344Z</time>
      </trkpt>
      <trkpt lat="45.94045" lon="6.38172">
        <ele>1828</ele>
        <time>2026-08-19T09:49:51.344Z</time>
      </trkpt>
      <trkpt lat="45.94045" lon="6.38172">
        <ele>1828</ele>
        <time>2026-08-19T09:49:52.344Z</time>
      </trkpt>
      <trkpt lat="45.94045" lon="6.38172">
        <ele>1828</ele>
        <time>2026-08-19T09:49:53.344Z</time>
      </trkpt>
      <trkpt lat="45.94045" lon="6.38173">
        <ele>1828</ele>
        <time>2026-08-19T09:49:54.344Z</time>
      </trkpt>
      <trkpt lat="45.94045" lon="6.38173">
        <ele>1828</ele>
        <time>2026-08-19T09:49:55.344Z</time>
      </trkpt>
      <trkpt lat="45.94045" lon="6.38173">
        <ele>1828</ele>
        <time>2026-08-19T09:49:56.344Z</time>
      </trkpt>
      <trkpt lat="45.94045" lon="6.38173">
        <ele>1828</ele>
        <time>2026-08-19T09:49:57.344Z</time>
      </trkpt>
      <trkpt lat="45.94045" lon="6.38173">
        <ele>1828</ele>
        <time>2026-08-19T09:49:58.344Z</time>
      </trkpt>
      <trkpt lat="45.94045" lon="6.38173">
        <ele>1828</ele>
        <time>2026-08-19T09:49:59.344Z</time>
      </trkpt>
      <trkpt lat="45.94045" lon="6.38173">
        <ele>1828</ele>
        <time>2026-08-19T09:50:00.344Z</time>
      </trkpt>
      <trkpt lat="45.94045" lon="6.38173">
        <ele>1828</ele>
        <time>2026-08-19T09:50:01.344Z</time>
      </trkpt>
      <trkpt lat="45.94045" lon="6.38173">
        <ele>1828</ele>
        <time>2026-08-19T09:50:02.344Z</time>
      </trkpt>
      <trkpt lat="45.94045" lon="6.38173">
        <ele>1828</ele>
        <time>2026-08-19T09:50:03.344Z</time>
      </trkpt>
      <trkpt lat="45.94045" lon="6.38173">
        <ele>1828</ele>
        <time>2026-08-19T09:50:04.344Z</time>
      </trkpt>
      <trkpt lat="45.94045" lon="6.38173">
        <ele>1828</ele>
        <time>2026-08-19T09:50:05.344Z</time>
      </trkpt>
      <trkpt lat="45.94045" lon="6.38173">
        <ele>1828</ele>
        <time>2026-08-19T09:50:06.344Z</time>
      </trkpt>
      <trkpt lat="45.94045" lon="6.38173">
        <ele>1828</ele>
        <time>2026-08-19T09:50:07.344Z</time>
      </trkpt>
      <trkpt lat="45.94045" lon="6.38173">
        <ele>1828</ele>
        <time>2026-08-19T09:50:08.344Z</time>
      </trkpt>
      <trkpt lat="45.94045" lon="6.38173">
        <ele>1828</ele>
        <time>2026-08-19T09:50:09.344Z</time>
      </trkpt>
      <trkpt lat="45.94045" lon="6.38173">
        <ele>1827</ele>
        <time>2026-08-19T09:50:10.344Z</time>
      </trkpt>
      <trkpt lat="45.94045" lon="6.38173">
        <ele>1827</ele>
        <time>2026-08-19T09:50:11.344Z</time>
      </trkpt>
      <trkpt lat="45.94045" lon="6.38173">
        <ele>1827</ele>
        <time>2026-08-19T09:50:12.344Z</time>
      </trkpt>
      <trkpt lat="45.94045" lon="6.38173">
        <ele>1827</ele>
        <time>2026-08-19T09:50:13.344Z</time>
      </trkpt>
      <trkpt lat="45.94045" lon="6.38172">
        <ele>1827</ele>
        <time>2026-08-19T09:50:14.344Z</time>
      </trkpt>
      <trkpt lat="45.94045" lon="6.38172">
        <ele>1827</ele>
        <time>2026-08-19T09:50:15.344Z</time>
      </trkpt>
      <trkpt lat="45.94045" lon="6.38172">
        <ele>1827</ele>
        <time>2026-08-19T09:50:16.344Z</time>
      </trkpt>
      <trkpt lat="45.94045" lon="6.38172">
        <ele>1827</ele>
        <time>2026-08-19T09:50:17.344Z</time>
      </trkpt>
      <trkpt lat="45.94045" lon="6.38172">
        <ele>1827</ele>
        <time>2026-08-19T09:50:18.344Z</time>
      </trkpt>
      <trkpt lat="45.94045" lon="6.38172">
        <ele>1827</ele>
        <time>2026-08-19T09:50:19.344Z</time>
      </trkpt>
      <trkpt lat="45.94045" lon="6.38172">
        <ele>1827</ele>
        <time>2026-08-19T09:50:20.344Z</time>
      </trkpt>
      <trkpt lat="45.94045" lon="6.38172">
        <ele>1827</ele>
        <time>2026-08-19T09:50:21.344Z</time>
      </trkpt>
      <trkpt lat="45.94045" lon="6.38172">
        <ele>1827</ele>
        <time>2026-08-19T09:50:22.344Z</time>
      </trkpt>
      <trkpt lat="45.94045" lon="6.38172">
        <ele>1827</ele>
        <time>2026-08-19T09:50:23.344Z</time>
      </trkpt>
      <trkpt lat="45.94045" lon="6.38172">
        <ele>1827</ele>
        <time>2026-08-19T09:50:24.344Z</time>
      </trkpt>
      <trkpt lat="45.94045" lon="6.38172">
        <ele>1827</ele>
        <time>2026-08-19T09:50:25.344Z</time>
      </trkpt>
      <trkpt lat="45.94045" lon="6.38172">
        <ele>1827</ele>
        <time>2026-08-19T09:50:26.344Z</time>
      </trkpt>
      <trkpt lat="45.94045" lon="6.38172">
        <ele>1827</ele>
        <time>2026-08-19T09:50:27.345Z</time>
      </trkpt>
      <trkpt lat="45.94045" lon="6.38172">
        <ele>1827</ele>
        <time>2026-08-19T09:50:28.345Z</time>
      </trkpt>
      <trkpt lat="45.94045" lon="6.38172">
        <ele>1827</ele>
        <time>2026-08-19T09:50:29.344Z</time>
      </trkpt>
      <trkpt lat="45.94045" lon="6.38172">
        <ele>1827</ele>
        <time>2026-08-19T09:50:30.344Z</time>
      </trkpt>
      <trkpt lat="45.94046" lon="6.38172">
        <ele>1827</ele>
        <time>2026-08-19T09:50:31.344Z</time>
      </trkpt>
      <trkpt lat="45.94046" lon="6.38172">
        <ele>1827</ele>
        <time>2026-08-19T09:50:32.344Z</time>
      </trkpt>
      <trkpt lat="45.94046" lon="6.38172">
        <ele>1827</ele>
        <time>2026-08-19T09:50:33.344Z</time>
      </trkpt>
      <trkpt lat="45.94046" lon="6.38172">
        <ele>1827</ele>
        <time>2026-08-19T09:50:34.344Z</time>
      </trkpt>
      <trkpt lat="45.94046" lon="6.38172">
        <ele>1827</ele>
        <time>2026-08-19T09:50:35.344Z</time>
      </trkpt>
      <trkpt lat="45.94046" lon="6.38172">
        <ele>1827</ele>
        <time>2026-08-19T09:50:36.344Z</time>
      </trkpt>
      <trkpt lat="45.94046" lon="6.38172">
        <ele>1827</ele>
        <time>2026-08-19T09:50:37.344Z</time>
      </trkpt>
      <trkpt lat="45.94046" lon="6.38172">
        <ele>1827</ele>
        <time>2026-08-19T09:50:38.344Z</time>
      </trkpt>
      <trkpt lat="45.94046" lon="6.38172">
        <ele>1827</ele>
        <time>2026-08-19T09:50:39.344Z</time>
      </trkpt>
      <trkpt lat="45.94046" lon="6.38172">
        <ele>1827</ele>
        <time>2026-08-19T09:50:40.344Z</time>
      </trkpt>
      <trkpt lat="45.94046" lon="6.38172">
        <ele>1827</ele>
        <time>2026-08-19T09:50:41.344Z</time>
      </trkpt>
      <trkpt lat="45.94046" lon="6.38172">
        <ele>1827</ele>
        <time>2026-08-19T09:50:42.344Z</time>
      </trkpt>
      <trkpt lat="45.94046" lon="6.38172">
        <ele>1827</ele>
        <time>2026-08-19T09:50:43.344Z</time>
      </trkpt>
      <trkpt lat="45.94046" lon="6.38172">
        <ele>1827</ele>
        <time>2026-08-19T09:50:44.344Z</time>
      </trkpt>
      <trkpt lat="45.94046" lon="6.38173">
        <ele>1827</ele>
        <time>2026-08-19T09:50:45.344Z</time>
      </trkpt>
      <trkpt lat="45.94046" lon="6.38173">
        <ele>1827</ele>
        <time>2026-08-19T09:50:46.344Z</time>
      </trkpt>
      <trkpt lat="45.94046" lon="6.38173">
        <ele>1827</ele>
        <time>2026-08-19T09:50:47.344Z</time>
      </trkpt>
      <trkpt lat="45.94046" lon="6.38173">
        <ele>1827</ele>
        <time>2026-08-19T09:50:48.344Z</time>
      </trkpt>
      <trkpt lat="45.94046" lon="6.38173">
        <ele>1827</ele>
        <time>2026-08-19T09:50:49.344Z</time>
      </trkpt>
      <trkpt lat="45.94046" lon="6.38173">
        <ele>1827</ele>
        <time>2026-08-19T09:50:50.344Z</time>
      </trkpt>
      <trkpt lat="45.94046" lon="6.38173">
        <ele>1827</ele>
        <time>2026-08-19T09:50:51.344Z</time>
      </trkpt>
      <trkpt lat="45.94046" lon="6.38173">
        <ele>1826</ele>
        <time>2026-08-19T09:50:52.344Z</time>
      </trkpt>
      <trkpt lat="45.94046" lon="6.38173">
        <ele>1826</ele>
        <time>2026-08-19T09:50:53.344Z</time>
      </trkpt>
      <trkpt lat="45.94046" lon="6.38173">
        <ele>1826</ele>
        <time>2026-08-19T09:50:54.344Z</time>
      </trkpt>
      <trkpt lat="45.94046" lon="6.38173">
        <ele>1826</ele>
        <time>2026-08-19T09:50:55.344Z</time>
      </trkpt>
      <trkpt lat="45.94046" lon="6.38173">
        <ele>1826</ele>
        <time>2026-08-19T09:50:56.344Z</time>
      </trkpt>
      <trkpt lat="45.94046" lon="6.38173">
        <ele>1826</ele>
        <time>2026-08-19T09:50:57.344Z</time>
      </trkpt>
      <trkpt lat="45.94046" lon="6.38173">
        <ele>1826</ele>
        <time>2026-08-19T09:50:58.344Z</time>
      </trkpt>
      <trkpt lat="45.94046" lon="6.38173">
        <ele>1826</ele>
        <time>2026-08-19T09:50:59.344Z</time>
      </trkpt>
      <trkpt lat="45.94046" lon="6.38173">
        <ele>1826</ele>
        <time>2026-08-19T09:51:00.344Z</time>
      </trkpt>
      <trkpt lat="45.94046" lon="6.38173">
        <ele>1826</ele>
        <time>2026-08-19T09:51:01.344Z</time>
      </trkpt>
      <trkpt lat="45.94046" lon="6.38173">
        <ele>1826</ele>
        <time>2026-08-19T09:51:02.344Z</time>
      </trkpt>
      <trkpt lat="45.94046" lon="6.38173">
        <ele>1826</ele>
        <time>2026-08-19T09:51:03.344Z</time>
      </trkpt>
      <trkpt lat="45.94046" lon="6.38173">
        <ele>1826</ele>
        <time>2026-08-19T09:51:04.344Z</time>
      </trkpt>
      <trkpt lat="45.94046" lon="6.38173">
        <ele>1826</ele>
        <time>2026-08-19T09:51:05.344Z</time>
      </trkpt>
      <trkpt lat="45.94046" lon="6.38173">
        <ele>1826</ele>
        <time>2026-08-19T09:51:06.344Z</time>
      </trkpt>
      <trkpt lat="45.94046" lon="6.38173">
        <ele>1826</ele>
        <time>2026-08-19T09:51:07.345Z</time>
      </trkpt>
      <trkpt lat="45.94046" lon="6.38173">
        <ele>1826</ele>
        <time>2026-08-19T09:51:08.344Z</time>
      </trkpt>
      <trkpt lat="45.94046" lon="6.38173">
        <ele>1826</ele>
        <time>2026-08-19T09:51:09.345Z</time>
      </trkpt>
      <trkpt lat="45.94046" lon="6.38173">
        <ele>1826</ele>
        <time>2026-08-19T09:51:10.344Z</time>
      </trkpt>
      <trkpt lat="45.94046" lon="6.38173">
        <ele>1826</ele>
        <time>2026-08-19T09:51:11.344Z</time>
      </trkpt>
      <trkpt lat="45.94046" lon="6.38173">
        <ele>1826</ele>
        <time>2026-08-19T09:51:12.344Z</time>
      </trkpt>
      <trkpt lat="45.94046" lon="6.38173">
        <ele>1826</ele>
        <time>2026-08-19T09:51:13.344Z</time>
      </trkpt>
      <trkpt lat="45.94046" lon="6.38173">
        <ele>1826</ele>
        <time>2026-08-19T09:51:14.344Z</time>
      </trkpt>
      <trkpt lat="45.94046" lon="6.38173">
        <ele>1826</ele>
        <time>2026-08-19T09:51:15.344Z</time>
      </trkpt>
      <trkpt lat="45.94046" lon="6.38173">
        <ele>1826</ele>
        <time>2026-08-19T09:51:16.344Z</time>
      </trkpt>
      <trkpt lat="45.94046" lon="6.38173">
        <ele>1826</ele>
        <time>2026-08-19T09:51:17.344Z</time>
      </trkpt>
      <trkpt lat="45.94046" lon="6.38173">
        <ele>1826</ele>
        <time>2026-08-19T09:51:18.344Z</time>
      </trkpt>
      <trkpt lat="45.94046" lon="6.38173">
        <ele>1826</ele>
        <time>2026-08-19T09:51:19.344Z</time>
      </trkpt>
      <trkpt lat="45.94046" lon="6.38173">
        <ele>1826</ele>
        <time>2026-08-19T09:51:20.344Z</time>
      </trkpt>
      <trkpt lat="45.94046" lon="6.38173">
        <ele>1826</ele>
        <time>2026-08-19T09:51:21.344Z</time>
      </trkpt>
      <trkpt lat="45.94046" lon="6.38173">
        <ele>1826</ele>
        <time>2026-08-19T09:51:22.344Z</time>
      </trkpt>
      <trkpt lat="45.94046" lon="6.38173">
        <ele>1826</ele>
        <time>2026-08-19T09:51:23.344Z</time>
      </trkpt>
      <trkpt lat="45.94046" lon="6.38173">
        <ele>1826</ele>
        <time>2026-08-19T09:51:24.344Z</time>
      </trkpt>
      <trkpt lat="45.94046" lon="6.38173">
        <ele>1826</ele>
        <time>2026-08-19T09:51:25.344Z</time>
      </trkpt>
      <trkpt lat="45.94046" lon="6.38173">
        <ele>1826</ele>
        <time>2026-08-19T09:51:26.344Z</time>
      </trkpt>
      <trkpt lat="45.94046" lon="6.38173">
        <ele>1826</ele>
        <time>2026-08-19T09:51:27.344Z</time>
      </trkpt>
      <trkpt lat="45.94046" lon="6.38173">
        <ele>1826</ele>
        <time>2026-08-19T09:51:28.344Z</time>
      </trkpt>
      <trkpt lat="45.94046" lon="6.38173">
        <ele>1826</ele>
        <time>2026-08-19T09:51:29.344Z</time>
      </trkpt>
      <trkpt lat="45.94045" lon="6.38173">
        <ele>1826</ele>
        <time>2026-08-19T09:51:30.344Z</time>
      </trkpt>
      <trkpt lat="45.94045" lon="6.38173">
        <ele>1826</ele>
        <time>2026-08-19T09:51:31.344Z</time>
      </trkpt>
      <trkpt lat="45.94045" lon="6.38173">
        <ele>1826</ele>
        <time>2026-08-19T09:51:32.344Z</time>
      </trkpt>
      <trkpt lat="45.94045" lon="6.38173">
        <ele>1826</ele>
        <time>2026-08-19T09:51:33.344Z</time>
      </trkpt>
      <trkpt lat="45.94045" lon="6.38173">
        <ele>1826</ele>
        <time>2026-08-19T09:51:34.344Z</time>
      </trkpt>
      <trkpt lat="45.94045" lon="6.38173">
        <ele>1826</ele>
        <time>2026-08-19T09:51:35.344Z</time>
      </trkpt>
      <trkpt lat="45.94045" lon="6.38174">
        <ele>1826</ele>
        <time>2026-08-19T09:51:36.344Z</time>
      </trkpt>
      <trkpt lat="45.94045" lon="6.38174">
        <ele>1826</ele>
        <time>2026-08-19T09:51:37.344Z</time>
      </trkpt>
      <trkpt lat="45.94045" lon="6.38174">
        <ele>1826</ele>
        <time>2026-08-19T09:51:38.344Z</time>
      </trkpt>
      <trkpt lat="45.94045" lon="6.38174">
        <ele>1826</ele>
        <time>2026-08-19T09:51:39.344Z</time>
      </trkpt>
      <trkpt lat="45.94045" lon="6.38174">
        <ele>1826</ele>
        <time>2026-08-19T09:51:40.344Z</time>
      </trkpt>
      <trkpt lat="45.94044" lon="6.38174">
        <ele>1826</ele>
        <time>2026-08-19T09:51:41.344Z</time>
      </trkpt>
      <trkpt lat="45.94044" lon="6.38175">
        <ele>1826</ele>
        <time>2026-08-19T09:51:42.344Z</time>
      </trkpt>
      <trkpt lat="45.94044" lon="6.38175">
        <ele>1826</ele>
        <time>2026-08-19T09:51:43.344Z</time>
      </trkpt>
      <trkpt lat="45.94044" lon="6.38175">
        <ele>1826</ele>
        <time>2026-08-19T09:51:44.345Z</time>
      </trkpt>
      <trkpt lat="45.94043" lon="6.38175">
        <ele>1826</ele>
        <time>2026-08-19T09:51:45.344Z</time>
      </trkpt>
      <trkpt lat="45.94043" lon="6.38175">
        <ele>1826</ele>
        <time>2026-08-19T09:51:46.344Z</time>
      </trkpt>
      <trkpt lat="45.94043" lon="6.38175">
        <ele>1826</ele>
        <time>2026-08-19T09:51:47.345Z</time>
      </trkpt>
      <trkpt lat="45.94043" lon="6.38175">
        <ele>1826</ele>
        <time>2026-08-19T09:51:48.344Z</time>
      </trkpt>
      <trkpt lat="45.94042" lon="6.38175">
        <ele>1826</ele>
        <time>2026-08-19T09:51:49.344Z</time>
      </trkpt>
      <trkpt lat="45.94041" lon="6.38173">
        <ele>1826</ele>
        <time>2026-08-19T09:51:50.344Z</time>
      </trkpt>
      <trkpt lat="45.9404" lon="6.38171">
        <ele>1826</ele>
        <time>2026-08-19T09:51:51.344Z</time>
      </trkpt>
      <trkpt lat="45.94039" lon="6.3817">
        <ele>1826</ele>
        <time>2026-08-19T09:51:52.344Z</time>
      </trkpt>
      <trkpt lat="45.94038" lon="6.38169">
        <ele>1826</ele>
        <time>2026-08-19T09:51:53.344Z</time>
      </trkpt>
      <trkpt lat="45.94036" lon="6.38167">
        <ele>1825</ele>
        <time>2026-08-19T09:51:54.344Z</time>
      </trkpt>
      <trkpt lat="45.94035" lon="6.38165">
        <ele>1825</ele>
        <time>2026-08-19T09:51:55.344Z</time>
      </trkpt>
      <trkpt lat="45.94033" lon="6.38164">
        <ele>1825</ele>
        <time>2026-08-19T09:51:56.344Z</time>
      </trkpt>
      <trkpt lat="45.94032" lon="6.38162">
        <ele>1824</ele>
        <time>2026-08-19T09:51:57.344Z</time>
      </trkpt>
      <trkpt lat="45.94031" lon="6.3816">
        <ele>1824</ele>
        <time>2026-08-19T09:51:58.344Z</time>
      </trkpt>
      <trkpt lat="45.9403" lon="6.3816">
        <ele>1823</ele>
        <time>2026-08-19T09:51:59.344Z</time>
      </trkpt>
      <trkpt lat="45.9403" lon="6.38158">
        <ele>1823</ele>
        <time>2026-08-19T09:52:00.344Z</time>
      </trkpt>
      <trkpt lat="45.94029" lon="6.38158">
        <ele>1823</ele>
        <time>2026-08-19T09:52:01.344Z</time>
      </trkpt>
      <trkpt lat="45.94028" lon="6.38157">
        <ele>1822</ele>
        <time>2026-08-19T09:52:02.345Z</time>
      </trkpt>
      <trkpt lat="45.94027" lon="6.38157">
        <ele>1822</ele>
        <time>2026-08-19T09:52:03.344Z</time>
      </trkpt>
      <trkpt lat="45.94026" lon="6.38156">
        <ele>1822</ele>
        <time>2026-08-19T09:52:04.344Z</time>
      </trkpt>
      <trkpt lat="45.94025" lon="6.38156">
        <ele>1822</ele>
        <time>2026-08-19T09:52:05.344Z</time>
      </trkpt>
      <trkpt lat="45.94024" lon="6.38156">
        <ele>1821</ele>
        <time>2026-08-19T09:52:06.344Z</time>
      </trkpt>
      <trkpt lat="45.94023" lon="6.38157">
        <ele>1821</ele>
        <time>2026-08-19T09:52:07.344Z</time>
      </trkpt>
      <trkpt lat="45.94022" lon="6.38157">
        <ele>1820</ele>
        <time>2026-08-19T09:52:08.344Z</time>
      </trkpt>
      <trkpt lat="45.94021" lon="6.38157">
        <ele>1820</ele>
        <time>2026-08-19T09:52:09.344Z</time>
      </trkpt>
      <trkpt lat="45.9402" lon="6.38157">
        <ele>1820</ele>
        <time>2026-08-19T09:52:10.344Z</time>
      </trkpt>
      <trkpt lat="45.94019" lon="6.38157">
        <ele>1820</ele>
        <time>2026-08-19T09:52:11.344Z</time>
      </trkpt>
      <trkpt lat="45.94019" lon="6.38156">
        <ele>1820</ele>
        <time>2026-08-19T09:52:12.344Z</time>
      </trkpt>
      <trkpt lat="45.94018" lon="6.38155">
        <ele>1820</ele>
        <time>2026-08-19T09:52:13.344Z</time>
      </trkpt>
      <trkpt lat="45.94018" lon="6.38153">
        <ele>1819</ele>
        <time>2026-08-19T09:52:14.344Z</time>
      </trkpt>
      <trkpt lat="45.94018" lon="6.38152">
        <ele>1819</ele>
        <time>2026-08-19T09:52:15.344Z</time>
      </trkpt>
      <trkpt lat="45.94018" lon="6.38151">
        <ele>1819</ele>
        <time>2026-08-19T09:52:16.344Z</time>
      </trkpt>
      <trkpt lat="45.94018" lon="6.38149">
        <ele>1819</ele>
        <time>2026-08-19T09:52:17.345Z</time>
      </trkpt>
      <trkpt lat="45.94018" lon="6.38149">
        <ele>1818</ele>
        <time>2026-08-19T09:52:18.344Z</time>
      </trkpt>
      <trkpt lat="45.94019" lon="6.38147">
        <ele>1818</ele>
        <time>2026-08-19T09:52:19.344Z</time>
      </trkpt>
      <trkpt lat="45.94019" lon="6.38146">
        <ele>1818</ele>
        <time>2026-08-19T09:52:20.344Z</time>
      </trkpt>
      <trkpt lat="45.94019" lon="6.38145">
        <ele>1818</ele>
        <time>2026-08-19T09:52:21.344Z</time>
      </trkpt>
      <trkpt lat="45.94019" lon="6.38144">
        <ele>1818</ele>
        <time>2026-08-19T09:52:22.344Z</time>
      </trkpt>
      <trkpt lat="45.94019" lon="6.38144">
        <ele>1818</ele>
        <time>2026-08-19T09:52:23.344Z</time>
      </trkpt>
      <trkpt lat="45.94018" lon="6.38143">
        <ele>1818</ele>
        <time>2026-08-19T09:52:24.344Z</time>
      </trkpt>
      <trkpt lat="45.94019" lon="6.38143">
        <ele>1819</ele>
        <time>2026-08-19T09:52:25.344Z</time>
      </trkpt>
      <trkpt lat="45.94019" lon="6.38143">
        <ele>1819</ele>
        <time>2026-08-19T09:52:26.344Z</time>
      </trkpt>
      <trkpt lat="45.94019" lon="6.38142">
        <ele>1820</ele>
        <time>2026-08-19T09:52:27.344Z</time>
      </trkpt>
      <trkpt lat="45.94019" lon="6.38142">
        <ele>1820</ele>
        <time>2026-08-19T09:52:28.344Z</time>
      </trkpt>
      <trkpt lat="45.94019" lon="6.38142">
        <ele>1820</ele>
        <time>2026-08-19T09:52:29.344Z</time>
      </trkpt>
      <trkpt lat="45.94019" lon="6.38142">
        <ele>1820</ele>
        <time>2026-08-19T09:52:30.344Z</time>
      </trkpt>
      <trkpt lat="45.94019" lon="6.38143">
        <ele>1820</ele>
        <time>2026-08-19T09:52:31.345Z</time>
      </trkpt>
      <trkpt lat="45.94019" lon="6.38143">
        <ele>1821</ele>
        <time>2026-08-19T09:52:32.344Z</time>
      </trkpt>
      <trkpt lat="45.94019" lon="6.38143">
        <ele>1821</ele>
        <time>2026-08-19T09:52:33.344Z</time>
      </trkpt>
      <trkpt lat="45.94019" lon="6.38143">
        <ele>1821</ele>
        <time>2026-08-19T09:52:34.344Z</time>
      </trkpt>
      <trkpt lat="45.94018" lon="6.38143">
        <ele>1821</ele>
        <time>2026-08-19T09:52:35.344Z</time>
      </trkpt>
      <trkpt lat="45.94018" lon="6.38143">
        <ele>1820</ele>
        <time>2026-08-19T09:52:36.344Z</time>
      </trkpt>
      <trkpt lat="45.94018" lon="6.38142">
        <ele>1820</ele>
        <time>2026-08-19T09:52:37.344Z</time>
      </trkpt>
      <trkpt lat="45.94018" lon="6.38142">
        <ele>1819</ele>
        <time>2026-08-19T09:52:38.344Z</time>
      </trkpt>
      <trkpt lat="45.94018" lon="6.38142">
        <ele>1819</ele>
        <time>2026-08-19T09:52:39.344Z</time>
      </trkpt>
      <trkpt lat="45.94018" lon="6.38142">
        <ele>1819</ele>
        <time>2026-08-19T09:52:40.344Z</time>
      </trkpt>
      <trkpt lat="45.94018" lon="6.38142">
        <ele>1819</ele>
        <time>2026-08-19T09:52:41.344Z</time>
      </trkpt>
      <trkpt lat="45.94018" lon="6.38142">
        <ele>1819</ele>
        <time>2026-08-19T09:52:42.344Z</time>
      </trkpt>
      <trkpt lat="45.94018" lon="6.38142">
        <ele>1819</ele>
        <time>2026-08-19T09:52:43.344Z</time>
      </trkpt>
      <trkpt lat="45.94018" lon="6.38142">
        <ele>1819</ele>
        <time>2026-08-19T09:52:44.344Z</time>
      </trkpt>
      <trkpt lat="45.94018" lon="6.38142">
        <ele>1819</ele>
        <time>2026-08-19T09:52:45.344Z</time>
      </trkpt>
      <trkpt lat="45.94018" lon="6.38142">
        <ele>1819</ele>
        <time>2026-08-19T09:52:46.344Z</time>
      </trkpt>
      <trkpt lat="45.94018" lon="6.38142">
        <ele>1819</ele>
        <time>2026-08-19T09:52:47.344Z</time>
      </trkpt>
      <trkpt lat="45.94018" lon="6.38142">
        <ele>1819</ele>
        <time>2026-08-19T09:52:48.344Z</time>
      </trkpt>
      <trkpt lat="45.94018" lon="6.38142">
        <ele>1819</ele>
        <time>2026-08-19T09:52:49.344Z</time>
      </trkpt>
      <trkpt lat="45.94018" lon="6.38142">
        <ele>1819</ele>
        <time>2026-08-19T09:52:50.344Z</time>
      </trkpt>
      <trkpt lat="45.94018" lon="6.38142">
        <ele>1819</ele>
        <time>2026-08-19T09:52:51.344Z</time>
      </trkpt>
      <trkpt lat="45.94018" lon="6.38142">
        <ele>1819</ele>
        <time>2026-08-19T09:52:52.344Z</time>
      </trkpt>
      <trkpt lat="45.94019" lon="6.38142">
        <ele>1819</ele>
        <time>2026-08-19T09:52:53.345Z</time>
      </trkpt>
      <trkpt lat="45.94019" lon="6.38142">
        <ele>1819</ele>
        <time>2026-08-19T09:52:54.344Z</time>
      </trkpt>
      <trkpt lat="45.94019" lon="6.38142">
        <ele>1819</ele>
        <time>2026-08-19T09:52:55.344Z</time>
      </trkpt>
      <trkpt lat="45.94019" lon="6.38142">
        <ele>1819</ele>
        <time>2026-08-19T09:52:56.344Z</time>
      </trkpt>
      <trkpt lat="45.94019" lon="6.38142">
        <ele>1819</ele>
        <time>2026-08-19T09:52:57.345Z</time>
      </trkpt>
      <trkpt lat="45.94019" lon="6.38143">
        <ele>1819</ele>
        <time>2026-08-19T09:52:58.344Z</time>
      </trkpt>
      <trkpt lat="45.94019" lon="6.38143">
        <ele>1819</ele>
        <time>2026-08-19T09:52:59.344Z</time>
      </trkpt>
      <trkpt lat="45.94019" lon="6.38143">
        <ele>1819</ele>
        <time>2026-08-19T09:53:00.344Z</time>
      </trkpt>
      <trkpt lat="45.94019" lon="6.38143">
        <ele>1819</ele>
        <time>2026-08-19T09:53:01.344Z</time>
      </trkpt>
      <trkpt lat="45.94019" lon="6.38143">
        <ele>1819</ele>
        <time>2026-08-19T09:53:02.344Z</time>
      </trkpt>
      <trkpt lat="45.94019" lon="6.38143">
        <ele>1819</ele>
        <time>2026-08-19T09:53:03.344Z</time>
      </trkpt>
      <trkpt lat="45.94019" lon="6.38143">
        <ele>1819</ele>
        <time>2026-08-19T09:53:04.344Z</time>
      </trkpt>
      <trkpt lat="45.94019" lon="6.38143">
        <ele>1819</ele>
        <time>2026-08-19T09:53:05.344Z</time>
      </trkpt>
      <trkpt lat="45.94019" lon="6.38143">
        <ele>1819</ele>
        <time>2026-08-19T09:53:06.344Z</time>
      </trkpt>
      <trkpt lat="45.94019" lon="6.38143">
        <ele>1819</ele>
        <time>2026-08-19T09:53:07.344Z</time>
      </trkpt>
      <trkpt lat="45.94019" lon="6.38143">
        <ele>1819</ele>
        <time>2026-08-19T09:53:08.344Z</time>
      </trkpt>
      <trkpt lat="45.94019" lon="6.38143">
        <ele>1819</ele>
        <time>2026-08-19T09:53:09.344Z</time>
      </trkpt>
      <trkpt lat="45.94019" lon="6.38143">
        <ele>1819</ele>
        <time>2026-08-19T09:53:10.344Z</time>
      </trkpt>
      <trkpt lat="45.94019" lon="6.38143">
        <ele>1819</ele>
        <time>2026-08-19T09:53:11.344Z</time>
      </trkpt>
      <trkpt lat="45.94019" lon="6.38143">
        <ele>1819</ele>
        <time>2026-08-19T09:53:12.344Z</time>
      </trkpt>
      <trkpt lat="45.94019" lon="6.38143">
        <ele>1819</ele>
        <time>2026-08-19T09:53:13.344Z</time>
      </trkpt>
      <trkpt lat="45.94019" lon="6.38143">
        <ele>1819</ele>
        <time>2026-08-19T09:53:14.344Z</time>
      </trkpt>
      <trkpt lat="45.94019" lon="6.38143">
        <ele>1819</ele>
        <time>2026-08-19T09:53:15.344Z</time>
      </trkpt>
      <trkpt lat="45.94019" lon="6.38143">
        <ele>1819</ele>
        <time>2026-08-19T09:53:16.344Z</time>
      </trkpt>
      <trkpt lat="45.94019" lon="6.38143">
        <ele>1819</ele>
        <time>2026-08-19T09:53:17.344Z</time>
      </trkpt>
      <trkpt lat="45.94019" lon="6.38143">
        <ele>1819</ele>
        <time>2026-08-19T09:53:18.344Z</time>
      </trkpt>
      <trkpt lat="45.94019" lon="6.38143">
        <ele>1819</ele>
        <time>2026-08-19T09:53:19.344Z</time>
      </trkpt>
      <trkpt lat="45.94019" lon="6.38143">
        <ele>1819</ele>
        <time>2026-08-19T09:53:20.344Z</time>
      </trkpt>
      <trkpt lat="45.94019" lon="6.38143">
        <ele>1819</ele>
        <time>2026-08-19T09:53:21.344Z</time>
      </trkpt>
      <trkpt lat="45.94019" lon="6.38143">
        <ele>1819</ele>
        <time>2026-08-19T09:53:22.345Z</time>
      </trkpt>
      <trkpt lat="45.94019" lon="6.38143">
        <ele>1819</ele>
        <time>2026-08-19T09:53:23.344Z</time>
      </trkpt>
      <trkpt lat="45.94019" lon="6.38143">
        <ele>1819</ele>
        <time>2026-08-19T09:53:24.344Z</time>
      </trkpt>
      <trkpt lat="45.94019" lon="6.38142">
        <ele>1819</ele>
        <time>2026-08-19T09:53:25.344Z</time>
      </trkpt>
      <trkpt lat="45.94019" lon="6.38142">
        <ele>1819</ele>
        <time>2026-08-19T09:53:26.344Z</time>
      </trkpt>
      <trkpt lat="45.94019" lon="6.38142">
        <ele>1819</ele>
        <time>2026-08-19T09:53:27.344Z</time>
      </trkpt>
      <trkpt lat="45.94019" lon="6.38142">
        <ele>1819</ele>
        <time>2026-08-19T09:53:28.344Z</time>
      </trkpt>
      <trkpt lat="45.94019" lon="6.38142">
        <ele>1819</ele>
        <time>2026-08-19T09:53:29.344Z</time>
      </trkpt>
      <trkpt lat="45.94019" lon="6.38142">
        <ele>1819</ele>
        <time>2026-08-19T09:53:30.344Z</time>
      </trkpt>
      <trkpt lat="45.94019" lon="6.38142">
        <ele>1819</ele>
        <time>2026-08-19T09:53:31.344Z</time>
      </trkpt>
      <trkpt lat="45.94019" lon="6.38142">
        <ele>1819</ele>
        <time>2026-08-19T09:53:32.344Z</time>
      </trkpt>
      <trkpt lat="45.94019" lon="6.38142">
        <ele>1819</ele>
        <time>2026-08-19T09:53:33.344Z</time>
      </trkpt>
      <trkpt lat="45.94019" lon="6.38142">
        <ele>1819</ele>
        <time>2026-08-19T09:53:34.344Z</time>
      </trkpt>
      <trkpt lat="45.94019" lon="6.38142">
        <ele>1819</ele>
        <time>2026-08-19T09:53:35.344Z</time>
      </trkpt>
      <trkpt lat="45.94019" lon="6.38142">
        <ele>1819</ele>
        <time>2026-08-19T09:53:36.344Z</time>
      </trkpt>
      <trkpt lat="45.94019" lon="6.38142">
        <ele>1819</ele>
        <time>2026-08-19T09:53:37.344Z</time>
      </trkpt>
      <trkpt lat="45.94019" lon="6.38142">
        <ele>1819</ele>
        <time>2026-08-19T09:53:38.344Z</time>
      </trkpt>
      <trkpt lat="45.94019" lon="6.38142">
        <ele>1819</ele>
        <time>2026-08-19T09:53:39.344Z</time>
      </trkpt>
      <trkpt lat="45.94019" lon="6.38142">
        <ele>1819</ele>
        <time>2026-08-19T09:53:40.344Z</time>
      </trkpt>
      <trkpt lat="45.94019" lon="6.38142">
        <ele>1819</ele>
        <time>2026-08-19T09:53:41.344Z</time>
      </trkpt>
      <trkpt lat="45.94019" lon="6.38142">
        <ele>1819</ele>
        <time>2026-08-19T09:53:42.344Z</time>
      </trkpt>
      <trkpt lat="45.94019" lon="6.38142">
        <ele>1819</ele>
        <time>2026-08-19T09:53:43.344Z</time>
      </trkpt>
      <trkpt lat="45.94019" lon="6.38142">
        <ele>1819</ele>
        <time>2026-08-19T09:53:44.344Z</time>
      </trkpt>
      <trkpt lat="45.94019" lon="6.38141">
        <ele>1819</ele>
        <time>2026-08-19T09:53:45.344Z</time>
      </trkpt>
      <trkpt lat="45.94019" lon="6.38141">
        <ele>1819</ele>
        <time>2026-08-19T09:53:46.344Z</time>
      </trkpt>
      <trkpt lat="45.94019" lon="6.38141">
        <ele>1819</ele>
        <time>2026-08-19T09:53:47.344Z</time>
      </trkpt>
      <trkpt lat="45.94019" lon="6.38141">
        <ele>1819</ele>
        <time>2026-08-19T09:53:48.344Z</time>
      </trkpt>
      <trkpt lat="45.94019" lon="6.38141">
        <ele>1819</ele>
        <time>2026-08-19T09:53:49.344Z</time>
      </trkpt>
      <trkpt lat="45.94019" lon="6.38141">
        <ele>1819</ele>
        <time>2026-08-19T09:53:50.344Z</time>
      </trkpt>
      <trkpt lat="45.94019" lon="6.38141">
        <ele>1819</ele>
        <time>2026-08-19T09:53:51.344Z</time>
      </trkpt>
      <trkpt lat="45.94019" lon="6.38141">
        <ele>1819</ele>
        <time>2026-08-19T09:53:52.344Z</time>
      </trkpt>
      <trkpt lat="45.94019" lon="6.38141">
        <ele>1819</ele>
        <time>2026-08-19T09:53:53.344Z</time>
      </trkpt>
      <trkpt lat="45.94019" lon="6.38141">
        <ele>1819</ele>
        <time>2026-08-19T09:53:54.345Z</time>
      </trkpt>
      <trkpt lat="45.94019" lon="6.38141">
        <ele>1819</ele>
        <time>2026-08-19T09:53:55.344Z</time>
      </trkpt>
      <trkpt lat="45.94019" lon="6.38141">
        <ele>1819</ele>
        <time>2026-08-19T09:53:56.344Z</time>
      </trkpt>
      <trkpt lat="45.94019" lon="6.38141">
        <ele>1819</ele>
        <time>2026-08-19T09:53:57.344Z</time>
      </trkpt>
      <trkpt lat="45.94019" lon="6.38141">
        <ele>1819</ele>
        <time>2026-08-19T09:53:58.344Z</time>
      </trkpt>
      <trkpt lat="45.94019" lon="6.38141">
        <ele>1819</ele>
        <time>2026-08-19T09:53:59.344Z</time>
      </trkpt>
      <trkpt lat="45.94019" lon="6.38141">
        <ele>1819</ele>
        <time>2026-08-19T09:54:00.344Z</time>
      </trkpt>
      <trkpt lat="45.94019" lon="6.38141">
        <ele>1819</ele>
        <time>2026-08-19T09:54:01.345Z</time>
      </trkpt>
      <trkpt lat="45.94019" lon="6.38141">
        <ele>1819</ele>
        <time>2026-08-19T09:54:02.344Z</time>
      </trkpt>
      <trkpt lat="45.94019" lon="6.38141">
        <ele>1819</ele>
        <time>2026-08-19T09:54:03.344Z</time>
      </trkpt>
      <trkpt lat="45.94019" lon="6.38141">
        <ele>1819</ele>
        <time>2026-08-19T09:54:04.344Z</time>
      </trkpt>
      <trkpt lat="45.94019" lon="6.38141">
        <ele>1819</ele>
        <time>2026-08-19T09:54:05.344Z</time>
      </trkpt>
      <trkpt lat="45.94019" lon="6.38141">
        <ele>1819</ele>
        <time>2026-08-19T09:54:06.344Z</time>
      </trkpt>
      <trkpt lat="45.94019" lon="6.38141">
        <ele>1819</ele>
        <time>2026-08-19T09:54:07.344Z</time>
      </trkpt>
      <trkpt lat="45.94019" lon="6.38141">
        <ele>1819</ele>
        <time>2026-08-19T09:54:08.344Z</time>
      </trkpt>
      <trkpt lat="45.94019" lon="6.38141">
        <ele>1819</ele>
        <time>2026-08-19T09:54:09.344Z</time>
      </trkpt>
      <trkpt lat="45.94019" lon="6.38141">
        <ele>1819</ele>
        <time>2026-08-19T09:54:10.344Z</time>
      </trkpt>
      <trkpt lat="45.94019" lon="6.38141">
        <ele>1819</ele>
        <time>2026-08-19T09:54:11.344Z</time>
      </trkpt>
      <trkpt lat="45.94019" lon="6.38141">
        <ele>1819</ele>
        <time>2026-08-19T09:54:12.344Z</time>
      </trkpt>
      <trkpt lat="45.94019" lon="6.38141">
        <ele>1819</ele>
        <time>2026-08-19T09:54:13.344Z</time>
      </trkpt>
      <trkpt lat="45.94019" lon="6.38141">
        <ele>1819</ele>
        <time>2026-08-19T09:54:14.344Z</time>
      </trkpt>
      <trkpt lat="45.94019" lon="6.38141">
        <ele>1819</ele>
        <time>2026-08-19T09:54:15.344Z</time>
      </trkpt>
      <trkpt lat="45.94019" lon="6.38141">
        <ele>1819</ele>
        <time>2026-08-19T09:54:16.344Z</time>
      </trkpt>
      <trkpt lat="45.94019" lon="6.38141">
        <ele>1819</ele>
        <time>2026-08-19T09:54:17.344Z</time>
      </trkpt>
      <trkpt lat="45.94019" lon="6.38141">
        <ele>1819</ele>
        <time>2026-08-19T09:54:18.344Z</time>
      </trkpt>
      <trkpt lat="45.94019" lon="6.38141">
        <ele>1819</ele>
        <time>2026-08-19T09:54:19.344Z</time>
      </trkpt>
      <trkpt lat="45.94019" lon="6.38141">
        <ele>1819</ele>
        <time>2026-08-19T09:54:20.344Z</time>
      </trkpt>
      <trkpt lat="45.94019" lon="6.38141">
        <ele>1819</ele>
        <time>2026-08-19T09:54:21.344Z</time>
      </trkpt>
      <trkpt lat="45.94019" lon="6.38141">
        <ele>1819</ele>
        <time>2026-08-19T09:54:22.344Z</time>
      </trkpt>
      <trkpt lat="45.94019" lon="6.38141">
        <ele>1819</ele>
        <time>2026-08-19T09:54:23.344Z</time>
      </trkpt>
      <trkpt lat="45.94019" lon="6.38141">
        <ele>1819</ele>
        <time>2026-08-19T09:54:24.344Z</time>
      </trkpt>
      <trkpt lat="45.94019" lon="6.38141">
        <ele>1819</ele>
        <time>2026-08-19T09:54:25.344Z</time>
      </trkpt>
      <trkpt lat="45.94019" lon="6.38141">
        <ele>1819</ele>
        <time>2026-08-19T09:54:26.344Z</time>
      </trkpt>
      <trkpt lat="45.94019" lon="6.38141">
        <ele>1819</ele>
        <time>2026-08-19T09:54:27.344Z</time>
      </trkpt>
      <trkpt lat="45.94019" lon="6.38141">
        <ele>1819</ele>
        <time>2026-08-19T09:54:28.344Z</time>
      </trkpt>
      <trkpt lat="45.94019" lon="6.38141">
        <ele>1819</ele>
        <time>2026-08-19T09:54:29.344Z</time>
      </trkpt>
      <trkpt lat="45.94019" lon="6.38141">
        <ele>1819</ele>
        <time>2026-08-19T09:54:30.344Z</time>
      </trkpt>
      <trkpt lat="45.94019" lon="6.38141">
        <ele>1819</ele>
        <time>2026-08-19T09:54:31.344Z</time>
      </trkpt>
      <trkpt lat="45.94019" lon="6.38141">
        <ele>1819</ele>
        <time>2026-08-19T09:54:32.344Z</time>
      </trkpt>
      <trkpt lat="45.94019" lon="6.38141">
        <ele>1819</ele>
        <time>2026-08-19T09:54:33.344Z</time>
      </trkpt>
      <trkpt lat="45.94019" lon="6.38141">
        <ele>1819</ele>
        <time>2026-08-19T09:54:34.344Z</time>
      </trkpt>
      <trkpt lat="45.94019" lon="6.38141">
        <ele>1819</ele>
        <time>2026-08-19T09:54:35.344Z</time>
      </trkpt>
      <trkpt lat="45.94019" lon="6.38141">
        <ele>1819</ele>
        <time>2026-08-19T09:54:36.344Z</time>
      </trkpt>
      <trkpt lat="45.94019" lon="6.38141">
        <ele>1819</ele>
        <time>2026-08-19T09:54:37.344Z</time>
      </trkpt>
      <trkpt lat="45.94019" lon="6.38141">
        <ele>1819</ele>
        <time>2026-08-19T09:54:38.344Z</time>
      </trkpt>
      <trkpt lat="45.94019" lon="6.38141">
        <ele>1819</ele>
        <time>2026-08-19T09:54:39.344Z</time>
      </trkpt>
      <trkpt lat="45.94019" lon="6.38141">
        <ele>1819</ele>
        <time>2026-08-19T09:54:40.344Z</time>
      </trkpt>
      <trkpt lat="45.94019" lon="6.38141">
        <ele>1819</ele>
        <time>2026-08-19T09:54:41.344Z</time>
      </trkpt>
      <trkpt lat="45.9402" lon="6.38141">
        <ele>1819</ele>
        <time>2026-08-19T09:54:42.344Z</time>
      </trkpt>
      <trkpt lat="45.9402" lon="6.38141">
        <ele>1819</ele>
        <time>2026-08-19T09:54:43.344Z</time>
      </trkpt>
      <trkpt lat="45.9402" lon="6.38141">
        <ele>1819</ele>
        <time>2026-08-19T09:54:44.344Z</time>
      </trkpt>
      <trkpt lat="45.9402" lon="6.38141">
        <ele>1819</ele>
        <time>2026-08-19T09:54:45.344Z</time>
      </trkpt>
      <trkpt lat="45.9402" lon="6.38141">
        <ele>1819</ele>
        <time>2026-08-19T09:54:46.344Z</time>
      </trkpt>
      <trkpt lat="45.9402" lon="6.38141">
        <ele>1819</ele>
        <time>2026-08-19T09:54:47.344Z</time>
      </trkpt>
      <trkpt lat="45.9402" lon="6.38141">
        <ele>1819</ele>
        <time>2026-08-19T09:54:48.344Z</time>
      </trkpt>
      <trkpt lat="45.9402" lon="6.38141">
        <ele>1819</ele>
        <time>2026-08-19T09:54:49.344Z</time>
      </trkpt>
      <trkpt lat="45.9402" lon="6.38141">
        <ele>1819</ele>
        <time>2026-08-19T09:54:50.344Z</time>
      </trkpt>
      <trkpt lat="45.9402" lon="6.38141">
        <ele>1819</ele>
        <time>2026-08-19T09:54:51.344Z</time>
      </trkpt>
      <trkpt lat="45.9402" lon="6.38141">
        <ele>1819</ele>
        <time>2026-08-19T09:54:52.344Z</time>
      </trkpt>
      <trkpt lat="45.9402" lon="6.38141">
        <ele>1819</ele>
        <time>2026-08-19T09:54:53.344Z</time>
      </trkpt>
      <trkpt lat="45.9402" lon="6.38141">
        <ele>1819</ele>
        <time>2026-08-19T09:54:54.344Z</time>
      </trkpt>
      <trkpt lat="45.9402" lon="6.38141">
        <ele>1819</ele>
        <time>2026-08-19T09:54:55.345Z</time>
      </trkpt>
      <trkpt lat="45.9402" lon="6.38141">
        <ele>1819</ele>
        <time>2026-08-19T09:54:56.344Z</time>
      </trkpt>
      <trkpt lat="45.9402" lon="6.38141">
        <ele>1819</ele>
        <time>2026-08-19T09:54:57.344Z</time>
      </trkpt>
      <trkpt lat="45.9402" lon="6.38141">
        <ele>1819</ele>
        <time>2026-08-19T09:54:58.344Z</time>
      </trkpt>
      <trkpt lat="45.9402" lon="6.38141">
        <ele>1819</ele>
        <time>2026-08-19T09:54:59.344Z</time>
      </trkpt>
      <trkpt lat="45.9402" lon="6.38141">
        <ele>1819</ele>
        <time>2026-08-19T09:55:00.344Z</time>
      </trkpt>
      <trkpt lat="45.9402" lon="6.38141">
        <ele>1819</ele>
        <time>2026-08-19T09:55:01.344Z</time>
      </trkpt>
      <trkpt lat="45.9402" lon="6.38141">
        <ele>1819</ele>
        <time>2026-08-19T09:55:02.344Z</time>
      </trkpt>
      <trkpt lat="45.9402" lon="6.38141">
        <ele>1819</ele>
        <time>2026-08-19T09:55:03.344Z</time>
      </trkpt>
      <trkpt lat="45.9402" lon="6.38141">
        <ele>1819</ele>
        <time>2026-08-19T09:55:04.344Z</time>
      </trkpt>
      <trkpt lat="45.9402" lon="6.38141">
        <ele>1819</ele>
        <time>2026-08-19T09:55:05.344Z</time>
      </trkpt>
      <trkpt lat="45.9402" lon="6.38141">
        <ele>1819</ele>
        <time>2026-08-19T09:55:06.344Z</time>
      </trkpt>
      <trkpt lat="45.9402" lon="6.38141">
        <ele>1819</ele>
        <time>2026-08-19T09:55:07.344Z</time>
      </trkpt>
      <trkpt lat="45.9402" lon="6.38141">
        <ele>1819</ele>
        <time>2026-08-19T09:55:08.344Z</time>
      </trkpt>
      <trkpt lat="45.9402" lon="6.38141">
        <ele>1819</ele>
        <time>2026-08-19T09:55:09.344Z</time>
      </trkpt>
      <trkpt lat="45.9402" lon="6.38141">
        <ele>1819</ele>
        <time>2026-08-19T09:55:10.344Z</time>
      </trkpt>
      <trkpt lat="45.9402" lon="6.38141">
        <ele>1819</ele>
        <time>2026-08-19T09:55:11.344Z</time>
      </trkpt>
      <trkpt lat="45.9402" lon="6.38141">
        <ele>1819</ele>
        <time>2026-08-19T09:55:12.344Z</time>
      </trkpt>
      <trkpt lat="45.9402" lon="6.38141">
        <ele>1819</ele>
        <time>2026-08-19T09:55:13.344Z</time>
      </trkpt>
      <trkpt lat="45.9402" lon="6.38141">
        <ele>1819</ele>
        <time>2026-08-19T09:55:14.344Z</time>
      </trkpt>
      <trkpt lat="45.9402" lon="6.38141">
        <ele>1819</ele>
        <time>2026-08-19T09:55:15.344Z</time>
      </trkpt>
      <trkpt lat="45.9402" lon="6.38141">
        <ele>1819</ele>
        <time>2026-08-19T09:55:16.344Z</time>
      </trkpt>
      <trkpt lat="45.9402" lon="6.38141">
        <ele>1819</ele>
        <time>2026-08-19T09:55:17.344Z</time>
      </trkpt>
      <trkpt lat="45.9402" lon="6.38141">
        <ele>1819</ele>
        <time>2026-08-19T09:55:18.344Z</time>
      </trkpt>
      <trkpt lat="45.9402" lon="6.38141">
        <ele>1819</ele>
        <time>2026-08-19T09:55:19.344Z</time>
      </trkpt>
      <trkpt lat="45.9402" lon="6.38141">
        <ele>1819</ele>
        <time>2026-08-19T09:55:20.344Z</time>
      </trkpt>
      <trkpt lat="45.9402" lon="6.38141">
        <ele>1819</ele>
        <time>2026-08-19T09:55:21.344Z</time>
      </trkpt>
      <trkpt lat="45.9402" lon="6.38141">
        <ele>1819</ele>
        <time>2026-08-19T09:55:22.344Z</time>
      </trkpt>
      <trkpt lat="45.9402" lon="6.38141">
        <ele>1819</ele>
        <time>2026-08-19T09:55:23.344Z</time>
      </trkpt>
      <trkpt lat="45.9402" lon="6.38141">
        <ele>1819</ele>
        <time>2026-08-19T09:55:24.344Z</time>
      </trkpt>
      <trkpt lat="45.9402" lon="6.38141">
        <ele>1819</ele>
        <time>2026-08-19T09:55:25.344Z</time>
      </trkpt>
      <trkpt lat="45.9402" lon="6.38141">
        <ele>1819</ele>
        <time>2026-08-19T09:55:26.344Z</time>
      </trkpt>
      <trkpt lat="45.9402" lon="6.38141">
        <ele>1819</ele>
        <time>2026-08-19T09:55:27.344Z</time>
      </trkpt>
      <trkpt lat="45.9402" lon="6.38141">
        <ele>1819</ele>
        <time>2026-08-19T09:55:28.344Z</time>
      </trkpt>
      <trkpt lat="45.9402" lon="6.38141">
        <ele>1819</ele>
        <time>2026-08-19T09:55:29.345Z</time>
      </trkpt>
      <trkpt lat="45.9402" lon="6.38141">
        <ele>1819</ele>
        <time>2026-08-19T09:55:30.344Z</time>
      </trkpt>
      <trkpt lat="45.9402" lon="6.38141">
        <ele>1819</ele>
        <time>2026-08-19T09:55:31.344Z</time>
      </trkpt>
      <trkpt lat="45.9402" lon="6.38141">
        <ele>1819</ele>
        <time>2026-08-19T09:55:32.344Z</time>
      </trkpt>
      <trkpt lat="45.9402" lon="6.38141">
        <ele>1819</ele>
        <time>2026-08-19T09:55:33.344Z</time>
      </trkpt>
      <trkpt lat="45.94021" lon="6.38141">
        <ele>1819</ele>
        <time>2026-08-19T09:55:34.344Z</time>
      </trkpt>
      <trkpt lat="45.94021" lon="6.38141">
        <ele>1819</ele>
        <time>2026-08-19T09:55:35.344Z</time>
      </trkpt>
      <trkpt lat="45.94021" lon="6.38141">
        <ele>1819</ele>
        <time>2026-08-19T09:55:36.344Z</time>
      </trkpt>
      <trkpt lat="45.94021" lon="6.38141">
        <ele>1819</ele>
        <time>2026-08-19T09:55:37.344Z</time>
      </trkpt>
      <trkpt lat="45.94021" lon="6.38141">
        <ele>1819</ele>
        <time>2026-08-19T09:55:38.344Z</time>
      </trkpt>
      <trkpt lat="45.94021" lon="6.38141">
        <ele>1819</ele>
        <time>2026-08-19T09:55:39.344Z</time>
      </trkpt>
      <trkpt lat="45.94021" lon="6.38141">
        <ele>1819</ele>
        <time>2026-08-19T09:55:40.344Z</time>
      </trkpt>
      <trkpt lat="45.94021" lon="6.38141">
        <ele>1819</ele>
        <time>2026-08-19T09:55:41.344Z</time>
      </trkpt>
      <trkpt lat="45.94021" lon="6.38141">
        <ele>1819</ele>
        <time>2026-08-19T09:55:42.344Z</time>
      </trkpt>
      <trkpt lat="45.94021" lon="6.38141">
        <ele>1819</ele>
        <time>2026-08-19T09:55:43.344Z</time>
      </trkpt>
      <trkpt lat="45.94021" lon="6.38141">
        <ele>1819</ele>
        <time>2026-08-19T09:55:44.344Z</time>
      </trkpt>
      <trkpt lat="45.94021" lon="6.38141">
        <ele>1819</ele>
        <time>2026-08-19T09:55:45.344Z</time>
      </trkpt>
      <trkpt lat="45.94021" lon="6.38141">
        <ele>1819</ele>
        <time>2026-08-19T09:55:46.344Z</time>
      </trkpt>
      <trkpt lat="45.94021" lon="6.38141">
        <ele>1819</ele>
        <time>2026-08-19T09:55:47.344Z</time>
      </trkpt>
      <trkpt lat="45.94021" lon="6.38141">
        <ele>1819</ele>
        <time>2026-08-19T09:55:48.344Z</time>
      </trkpt>
      <trkpt lat="45.94021" lon="6.38141">
        <ele>1819</ele>
        <time>2026-08-19T09:55:49.344Z</time>
      </trkpt>
      <trkpt lat="45.94021" lon="6.38141">
        <ele>1819</ele>
        <time>2026-08-19T09:55:50.344Z</time>
      </trkpt>
      <trkpt lat="45.94021" lon="6.38141">
        <ele>1819</ele>
        <time>2026-08-19T09:55:51.344Z</time>
      </trkpt>
      <trkpt lat="45.94021" lon="6.38141">
        <ele>1819</ele>
        <time>2026-08-19T09:55:52.344Z</time>
      </trkpt>
      <trkpt lat="45.94021" lon="6.38141">
        <ele>1819</ele>
        <time>2026-08-19T09:55:53.344Z</time>
      </trkpt>
      <trkpt lat="45.94021" lon="6.38141">
        <ele>1819</ele>
        <time>2026-08-19T09:55:54.344Z</time>
      </trkpt>
      <trkpt lat="45.94021" lon="6.38141">
        <ele>1819</ele>
        <time>2026-08-19T09:55:55.344Z</time>
      </trkpt>
      <trkpt lat="45.94021" lon="6.38141">
        <ele>1819</ele>
        <time>2026-08-19T09:55:56.344Z</time>
      </trkpt>
      <trkpt lat="45.94021" lon="6.38141">
        <ele>1819</ele>
        <time>2026-08-19T09:55:57.344Z</time>
      </trkpt>
      <trkpt lat="45.94021" lon="6.38141">
        <ele>1819</ele>
        <time>2026-08-19T09:55:58.344Z</time>
      </trkpt>
      <trkpt lat="45.94021" lon="6.38141">
        <ele>1819</ele>
        <time>2026-08-19T09:55:59.344Z</time>
      </trkpt>
      <trkpt lat="45.94021" lon="6.38141">
        <ele>1819</ele>
        <time>2026-08-19T09:56:00.344Z</time>
      </trkpt>
      <trkpt lat="45.94021" lon="6.38141">
        <ele>1819</ele>
        <time>2026-08-19T09:56:01.344Z</time>
      </trkpt>
      <trkpt lat="45.94021" lon="6.38141">
        <ele>1819</ele>
        <time>2026-08-19T09:56:02.344Z</time>
      </trkpt>
      <trkpt lat="45.94021" lon="6.38141">
        <ele>1819</ele>
        <time>2026-08-19T09:56:03.344Z</time>
      </trkpt>
      <trkpt lat="45.94021" lon="6.38141">
        <ele>1819</ele>
        <time>2026-08-19T09:56:04.344Z</time>
      </trkpt>
      <trkpt lat="45.94021" lon="6.38141">
        <ele>1819</ele>
        <time>2026-08-19T09:56:05.344Z</time>
      </trkpt>
      <trkpt lat="45.94021" lon="6.38141">
        <ele>1819</ele>
        <time>2026-08-19T09:56:06.344Z</time>
      </trkpt>
      <trkpt lat="45.94021" lon="6.38141">
        <ele>1819</ele>
        <time>2026-08-19T09:56:07.344Z</time>
      </trkpt>
      <trkpt lat="45.94021" lon="6.38141">
        <ele>1819</ele>
        <time>2026-08-19T09:56:08.344Z</time>
      </trkpt>
      <trkpt lat="45.94021" lon="6.38141">
        <ele>1819</ele>
        <time>2026-08-19T09:56:09.344Z</time>
      </trkpt>
      <trkpt lat="45.94021" lon="6.38141">
        <ele>1819</ele>
        <time>2026-08-19T09:56:10.344Z</time>
      </trkpt>
      <trkpt lat="45.94021" lon="6.38141">
        <ele>1819</ele>
        <time>2026-08-19T09:56:11.344Z</time>
      </trkpt>
      <trkpt lat="45.94021" lon="6.38141">
        <ele>1819</ele>
        <time>2026-08-19T09:56:12.344Z</time>
      </trkpt>
      <trkpt lat="45.94021" lon="6.38141">
        <ele>1819</ele>
        <time>2026-08-19T09:56:13.344Z</time>
      </trkpt>
      <trkpt lat="45.94021" lon="6.38141">
        <ele>1819</ele>
        <time>2026-08-19T09:56:14.344Z</time>
      </trkpt>
      <trkpt lat="45.94021" lon="6.38141">
        <ele>1819</ele>
        <time>2026-08-19T09:56:15.344Z</time>
      </trkpt>
      <trkpt lat="45.94021" lon="6.38141">
        <ele>1819</ele>
        <time>2026-08-19T09:56:16.344Z</time>
      </trkpt>
      <trkpt lat="45.94021" lon="6.38141">
        <ele>1819</ele>
        <time>2026-08-19T09:56:17.344Z</time>
      </trkpt>
      <trkpt lat="45.94021" lon="6.38141">
        <ele>1819</ele>
        <time>2026-08-19T09:56:18.344Z</time>
      </trkpt>
      <trkpt lat="45.94021" lon="6.38141">
        <ele>1819</ele>
        <time>2026-08-19T09:56:19.344Z</time>
      </trkpt>
      <trkpt lat="45.94021" lon="6.38141">
        <ele>1819</ele>
        <time>2026-08-19T09:56:20.344Z</time>
      </trkpt>
      <trkpt lat="45.94021" lon="6.38141">
        <ele>1819</ele>
        <time>2026-08-19T09:56:21.344Z</time>
      </trkpt>
      <trkpt lat="45.94021" lon="6.38141">
        <ele>1819</ele>
        <time>2026-08-19T09:56:22.344Z</time>
      </trkpt>
      <trkpt lat="45.94021" lon="6.38141">
        <ele>1819</ele>
        <time>2026-08-19T09:56:23.344Z</time>
      </trkpt>
      <trkpt lat="45.94021" lon="6.38141">
        <ele>1819</ele>
        <time>2026-08-19T09:56:24.344Z</time>
      </trkpt>
      <trkpt lat="45.94021" lon="6.38141">
        <ele>1819</ele>
        <time>2026-08-19T09:56:25.344Z</time>
      </trkpt>
      <trkpt lat="45.94021" lon="6.38141">
        <ele>1819</ele>
        <time>2026-08-19T09:56:26.345Z</time>
      </trkpt>
      <trkpt lat="45.94021" lon="6.38141">
        <ele>1819</ele>
        <time>2026-08-19T09:56:27.344Z</time>
      </trkpt>
      <trkpt lat="45.94021" lon="6.38141">
        <ele>1819</ele>
        <time>2026-08-19T09:56:28.344Z</time>
      </trkpt>
      <trkpt lat="45.94021" lon="6.38141">
        <ele>1819</ele>
        <time>2026-08-19T09:56:29.344Z</time>
      </trkpt>
      <trkpt lat="45.94021" lon="6.38141">
        <ele>1819</ele>
        <time>2026-08-19T09:56:30.344Z</time>
      </trkpt>
      <trkpt lat="45.94021" lon="6.38141">
        <ele>1819</ele>
        <time>2026-08-19T09:56:31.344Z</time>
      </trkpt>
      <trkpt lat="45.94021" lon="6.38141">
        <ele>1819</ele>
        <time>2026-08-19T09:56:32.344Z</time>
      </trkpt>
      <trkpt lat="45.94021" lon="6.38141">
        <ele>1819</ele>
        <time>2026-08-19T09:56:33.344Z</time>
      </trkpt>
      <trkpt lat="45.94021" lon="6.38141">
        <ele>1819</ele>
        <time>2026-08-19T09:56:34.344Z</time>
      </trkpt>
      <trkpt lat="45.94021" lon="6.38141">
        <ele>1819</ele>
        <time>2026-08-19T09:56:35.344Z</time>
      </trkpt>
      <trkpt lat="45.94021" lon="6.38141">
        <ele>1819</ele>
        <time>2026-08-19T09:56:36.344Z</time>
      </trkpt>
      <trkpt lat="45.94021" lon="6.38141">
        <ele>1819</ele>
        <time>2026-08-19T09:56:37.344Z</time>
      </trkpt>
      <trkpt lat="45.94021" lon="6.38141">
        <ele>1819</ele>
        <time>2026-08-19T09:56:38.344Z</time>
      </trkpt>
      <trkpt lat="45.94021" lon="6.38141">
        <ele>1819</ele>
        <time>2026-08-19T09:56:39.344Z</time>
      </trkpt>
      <trkpt lat="45.94021" lon="6.38141">
        <ele>1819</ele>
        <time>2026-08-19T09:56:40.344Z</time>
      </trkpt>
      <trkpt lat="45.94021" lon="6.38141">
        <ele>1819</ele>
        <time>2026-08-19T09:56:41.344Z</time>
      </trkpt>
      <trkpt lat="45.94021" lon="6.38141">
        <ele>1819</ele>
        <time>2026-08-19T09:56:42.344Z</time>
      </trkpt>
      <trkpt lat="45.94021" lon="6.38141">
        <ele>1819</ele>
        <time>2026-08-19T09:56:43.344Z</time>
      </trkpt>
      <trkpt lat="45.94021" lon="6.38141">
        <ele>1819</ele>
        <time>2026-08-19T09:56:44.344Z</time>
      </trkpt>
      <trkpt lat="45.94021" lon="6.38141">
        <ele>1819</ele>
        <time>2026-08-19T09:56:45.344Z</time>
      </trkpt>
      <trkpt lat="45.94021" lon="6.38141">
        <ele>1819</ele>
        <time>2026-08-19T09:56:46.344Z</time>
      </trkpt>
      <trkpt lat="45.94021" lon="6.38141">
        <ele>1819</ele>
        <time>2026-08-19T09:56:47.344Z</time>
      </trkpt>
      <trkpt lat="45.94021" lon="6.38141">
        <ele>1819</ele>
        <time>2026-08-19T09:56:48.344Z</time>
      </trkpt>
      <trkpt lat="45.94021" lon="6.38141">
        <ele>1819</ele>
        <time>2026-08-19T09:56:49.344Z</time>
      </trkpt>
      <trkpt lat="45.94021" lon="6.38141">
        <ele>1819</ele>
        <time>2026-08-19T09:56:50.344Z</time>
      </trkpt>
      <trkpt lat="45.94021" lon="6.38141">
        <ele>1819</ele>
        <time>2026-08-19T09:56:51.344Z</time>
      </trkpt>
      <trkpt lat="45.94021" lon="6.38141">
        <ele>1819</ele>
        <time>2026-08-19T09:56:52.344Z</time>
      </trkpt>
      <trkpt lat="45.94021" lon="6.38141">
        <ele>1819</ele>
        <time>2026-08-19T09:56:53.344Z</time>
      </trkpt>
      <trkpt lat="45.94021" lon="6.38141">
        <ele>1819</ele>
        <time>2026-08-19T09:56:54.344Z</time>
      </trkpt>
      <trkpt lat="45.94021" lon="6.38141">
        <ele>1819</ele>
        <time>2026-08-19T09:56:55.344Z</time>
      </trkpt>
      <trkpt lat="45.94021" lon="6.38141">
        <ele>1819</ele>
        <time>2026-08-19T09:56:56.344Z</time>
      </trkpt>
      <trkpt lat="45.94021" lon="6.38141">
        <ele>1819</ele>
        <time>2026-08-19T09:56:57.344Z</time>
      </trkpt>
      <trkpt lat="45.94021" lon="6.38141">
        <ele>1819</ele>
        <time>2026-08-19T09:56:58.344Z</time>
      </trkpt>
      <trkpt lat="45.94021" lon="6.38141">
        <ele>1819</ele>
        <time>2026-08-19T09:56:59.344Z</time>
      </trkpt>
      <trkpt lat="45.94021" lon="6.38141">
        <ele>1819</ele>
        <time>2026-08-19T09:57:00.344Z</time>
      </trkpt>
      <trkpt lat="45.94021" lon="6.38141">
        <ele>1819</ele>
        <time>2026-08-19T09:57:01.344Z</time>
      </trkpt>
      <trkpt lat="45.94021" lon="6.38141">
        <ele>1819</ele>
        <time>2026-08-19T09:57:02.344Z</time>
      </trkpt>
      <trkpt lat="45.94021" lon="6.38141">
        <ele>1819</ele>
        <time>2026-08-19T09:57:03.344Z</time>
      </trkpt>
      <trkpt lat="45.94021" lon="6.38141">
        <ele>1819</ele>
        <time>2026-08-19T09:57:04.344Z</time>
      </trkpt>
      <trkpt lat="45.94021" lon="6.38141">
        <ele>1819</ele>
        <time>2026-08-19T09:57:05.344Z</time>
      </trkpt>
      <trkpt lat="45.94021" lon="6.38141">
        <ele>1819</ele>
        <time>2026-08-19T09:57:06.344Z</time>
      </trkpt>
      <trkpt lat="45.94021" lon="6.38141">
        <ele>1819</ele>
        <time>2026-08-19T09:57:07.344Z</time>
      </trkpt>
      <trkpt lat="45.94021" lon="6.38141">
        <ele>1819</ele>
        <time>2026-08-19T09:57:08.344Z</time>
      </trkpt>
      <trkpt lat="45.94021" lon="6.38141">
        <ele>1819</ele>
        <time>2026-08-19T09:57:09.344Z</time>
      </trkpt>
      <trkpt lat="45.94021" lon="6.38141">
        <ele>1819</ele>
        <time>2026-08-19T09:57:10.344Z</time>
      </trkpt>
      <trkpt lat="45.94021" lon="6.38141">
        <ele>1819</ele>
        <time>2026-08-19T09:57:11.344Z</time>
      </trkpt>
      <trkpt lat="45.94021" lon="6.38141">
        <ele>1819</ele>
        <time>2026-08-19T09:57:12.344Z</time>
      </trkpt>
      <trkpt lat="45.94021" lon="6.38141">
        <ele>1819</ele>
        <time>2026-08-19T09:57:13.344Z</time>
      </trkpt>
      <trkpt lat="45.94021" lon="6.38141">
        <ele>1819</ele>
        <time>2026-08-19T09:57:14.344Z</time>
      </trkpt>
      <trkpt lat="45.94021" lon="6.38141">
        <ele>1819</ele>
        <time>2026-08-19T09:57:15.344Z</time>
      </trkpt>
      <trkpt lat="45.94021" lon="6.38141">
        <ele>1819</ele>
        <time>2026-08-19T09:57:16.344Z</time>
      </trkpt>
      <trkpt lat="45.94021" lon="6.38141">
        <ele>1819</ele>
        <time>2026-08-19T09:57:17.344Z</time>
      </trkpt>
      <trkpt lat="45.94021" lon="6.38141">
        <ele>1819</ele>
        <time>2026-08-19T09:57:18.344Z</time>
      </trkpt>
      <trkpt lat="45.94021" lon="6.38141">
        <ele>1819</ele>
        <time>2026-08-19T09:57:19.344Z</time>
      </trkpt>
      <trkpt lat="45.94021" lon="6.38141">
        <ele>1819</ele>
        <time>2026-08-19T09:57:20.344Z</time>
      </trkpt>
      <trkpt lat="45.94021" lon="6.38141">
        <ele>1819</ele>
        <time>2026-08-19T09:57:21.344Z</time>
      </trkpt>
      <trkpt lat="45.94021" lon="6.38141">
        <ele>1819</ele>
        <time>2026-08-19T09:57:22.344Z</time>
      </trkpt>
      <trkpt lat="45.94021" lon="6.38141">
        <ele>1819</ele>
        <time>2026-08-19T09:57:23.344Z</time>
      </trkpt>
      <trkpt lat="45.94021" lon="6.38141">
        <ele>1819</ele>
        <time>2026-08-19T09:57:24.344Z</time>
      </trkpt>
      <trkpt lat="45.94021" lon="6.38141">
        <ele>1819</ele>
        <time>2026-08-19T09:57:25.344Z</time>
      </trkpt>
      <trkpt lat="45.94021" lon="6.38141">
        <ele>1819</ele>
        <time>2026-08-19T09:57:26.344Z</time>
      </trkpt>
      <trkpt lat="45.94021" lon="6.38141">
        <ele>1819</ele>
        <time>2026-08-19T09:57:27.344Z</time>
      </trkpt>
      <trkpt lat="45.94021" lon="6.38141">
        <ele>1819</ele>
        <time>2026-08-19T09:57:28.344Z</time>
      </trkpt>
      <trkpt lat="45.94021" lon="6.38141">
        <ele>1819</ele>
        <time>2026-08-19T09:57:29.344Z</time>
      </trkpt>
      <trkpt lat="45.94021" lon="6.38141">
        <ele>1819</ele>
        <time>2026-08-19T09:57:30.344Z</time>
      </trkpt>
      <trkpt lat="45.94021" lon="6.38141">
        <ele>1819</ele>
        <time>2026-08-19T09:57:31.344Z</time>
      </trkpt>
      <trkpt lat="45.94021" lon="6.38141">
        <ele>1819</ele>
        <time>2026-08-19T09:57:32.345Z</time>
      </trkpt>
      <trkpt lat="45.94021" lon="6.38141">
        <ele>1819</ele>
        <time>2026-08-19T09:57:33.344Z</time>
      </trkpt>
      <trkpt lat="45.94021" lon="6.38141">
        <ele>1819</ele>
        <time>2026-08-19T09:57:34.344Z</time>
      </trkpt>
      <trkpt lat="45.94021" lon="6.38141">
        <ele>1819</ele>
        <time>2026-08-19T09:57:35.344Z</time>
      </trkpt>
      <trkpt lat="45.94021" lon="6.38141">
        <ele>1819</ele>
        <time>2026-08-19T09:57:36.344Z</time>
      </trkpt>
      <trkpt lat="45.94021" lon="6.38141">
        <ele>1819</ele>
        <time>2026-08-19T09:57:37.344Z</time>
      </trkpt>
      <trkpt lat="45.94021" lon="6.38141">
        <ele>1819</ele>
        <time>2026-08-19T09:57:38.344Z</time>
      </trkpt>
      <trkpt lat="45.94021" lon="6.38141">
        <ele>1819</ele>
        <time>2026-08-19T09:57:39.344Z</time>
      </trkpt>
      <trkpt lat="45.94021" lon="6.38141">
        <ele>1819</ele>
        <time>2026-08-19T09:57:40.344Z</time>
      </trkpt>
      <trkpt lat="45.94021" lon="6.38141">
        <ele>1819</ele>
        <time>2026-08-19T09:57:41.344Z</time>
      </trkpt>
      <trkpt lat="45.94021" lon="6.38141">
        <ele>1819</ele>
        <time>2026-08-19T09:57:42.344Z</time>
      </trkpt>
      <trkpt lat="45.94021" lon="6.38141">
        <ele>1819</ele>
        <time>2026-08-19T09:57:43.344Z</time>
      </trkpt>
      <trkpt lat="45.94021" lon="6.38141">
        <ele>1819</ele>
        <time>2026-08-19T09:57:44.344Z</time>
      </trkpt>
      <trkpt lat="45.94021" lon="6.38141">
        <ele>1819</ele>
        <time>2026-08-19T09:57:45.344Z</time>
      </trkpt>
      <trkpt lat="45.94021" lon="6.38141">
        <ele>1819</ele>
        <time>2026-08-19T09:57:46.344Z</time>
      </trkpt>
      <trkpt lat="45.94021" lon="6.38141">
        <ele>1819</ele>
        <time>2026-08-19T09:57:47.344Z</time>
      </trkpt>
      <trkpt lat="45.94021" lon="6.38141">
        <ele>1819</ele>
        <time>2026-08-19T09:57:48.344Z</time>
      </trkpt>
      <trkpt lat="45.94021" lon="6.38141">
        <ele>1819</ele>
        <time>2026-08-19T09:57:49.344Z</time>
      </trkpt>
      <trkpt lat="45.94021" lon="6.38141">
        <ele>1818</ele>
        <time>2026-08-19T09:57:50.344Z</time>
      </trkpt>
      <trkpt lat="45.94021" lon="6.38141">
        <ele>1818</ele>
        <time>2026-08-19T09:57:51.344Z</time>
      </trkpt>
      <trkpt lat="45.94021" lon="6.38141">
        <ele>1818</ele>
        <time>2026-08-19T09:57:52.344Z</time>
      </trkpt>
      <trkpt lat="45.94021" lon="6.38141">
        <ele>1818</ele>
        <time>2026-08-19T09:57:53.345Z</time>
      </trkpt>
      <trkpt lat="45.94021" lon="6.38141">
        <ele>1818</ele>
        <time>2026-08-19T09:57:54.344Z</time>
      </trkpt>
      <trkpt lat="45.94021" lon="6.38141">
        <ele>1818</ele>
        <time>2026-08-19T09:57:55.344Z</time>
      </trkpt>
      <trkpt lat="45.94021" lon="6.38141">
        <ele>1818</ele>
        <time>2026-08-19T09:57:56.344Z</time>
      </trkpt>
      <trkpt lat="45.94021" lon="6.38141">
        <ele>1818</ele>
        <time>2026-08-19T09:57:57.344Z</time>
      </trkpt>
      <trkpt lat="45.94021" lon="6.38141">
        <ele>1818</ele>
        <time>2026-08-19T09:57:58.344Z</time>
      </trkpt>
      <trkpt lat="45.94021" lon="6.38141">
        <ele>1818</ele>
        <time>2026-08-19T09:57:59.344Z</time>
      </trkpt>
      <trkpt lat="45.94021" lon="6.38141">
        <ele>1818</ele>
        <time>2026-08-19T09:58:00.345Z</time>
      </trkpt>
      <trkpt lat="45.94021" lon="6.38141">
        <ele>1818</ele>
        <time>2026-08-19T09:58:01.344Z</time>
      </trkpt>
      <trkpt lat="45.94021" lon="6.38141">
        <ele>1818</ele>
        <time>2026-08-19T09:58:02.344Z</time>
      </trkpt>
      <trkpt lat="45.94021" lon="6.38141">
        <ele>1818</ele>
        <time>2026-08-19T09:58:03.344Z</time>
      </trkpt>
      <trkpt lat="45.94021" lon="6.38141">
        <ele>1818</ele>
        <time>2026-08-19T09:58:04.344Z</time>
      </trkpt>
      <trkpt lat="45.94021" lon="6.38141">
        <ele>1819</ele>
        <time>2026-08-19T09:58:05.344Z</time>
      </trkpt>
      <trkpt lat="45.94021" lon="6.38141">
        <ele>1819</ele>
        <time>2026-08-19T09:58:06.344Z</time>
      </trkpt>
      <trkpt lat="45.94021" lon="6.38141">
        <ele>1819</ele>
        <time>2026-08-19T09:58:07.345Z</time>
      </trkpt>
      <trkpt lat="45.94021" lon="6.38141">
        <ele>1819</ele>
        <time>2026-08-19T09:58:08.344Z</time>
      </trkpt>
      <trkpt lat="45.94021" lon="6.38141">
        <ele>1819</ele>
        <time>2026-08-19T09:58:09.344Z</time>
      </trkpt>
      <trkpt lat="45.94021" lon="6.38141">
        <ele>1819</ele>
        <time>2026-08-19T09:58:10.344Z</time>
      </trkpt>
      <trkpt lat="45.94021" lon="6.38141">
        <ele>1818</ele>
        <time>2026-08-19T09:58:11.344Z</time>
      </trkpt>
      <trkpt lat="45.94021" lon="6.38141">
        <ele>1818</ele>
        <time>2026-08-19T09:58:12.344Z</time>
      </trkpt>
      <trkpt lat="45.94021" lon="6.38141">
        <ele>1818</ele>
        <time>2026-08-19T09:58:13.344Z</time>
      </trkpt>
      <trkpt lat="45.94021" lon="6.38141">
        <ele>1818</ele>
        <time>2026-08-19T09:58:14.344Z</time>
      </trkpt>
      <trkpt lat="45.94021" lon="6.38141">
        <ele>1818</ele>
        <time>2026-08-19T09:58:15.344Z</time>
      </trkpt>
      <trkpt lat="45.94021" lon="6.38141">
        <ele>1818</ele>
        <time>2026-08-19T09:58:16.344Z</time>
      </trkpt>
      <trkpt lat="45.94021" lon="6.38141">
        <ele>1819</ele>
        <time>2026-08-19T09:58:17.344Z</time>
      </trkpt>
      <trkpt lat="45.94021" lon="6.38141">
        <ele>1819</ele>
        <time>2026-08-19T09:58:18.344Z</time>
      </trkpt>
      <trkpt lat="45.94021" lon="6.38141">
        <ele>1819</ele>
        <time>2026-08-19T09:58:19.344Z</time>
      </trkpt>
      <trkpt lat="45.94021" lon="6.38141">
        <ele>1819</ele>
        <time>2026-08-19T09:58:20.344Z</time>
      </trkpt>
      <trkpt lat="45.94021" lon="6.38141">
        <ele>1819</ele>
        <time>2026-08-19T09:58:21.345Z</time>
      </trkpt>
      <trkpt lat="45.94021" lon="6.38141">
        <ele>1819</ele>
        <time>2026-08-19T09:58:22.344Z</time>
      </trkpt>
      <trkpt lat="45.94021" lon="6.38141">
        <ele>1819</ele>
        <time>2026-08-19T09:58:23.344Z</time>
      </trkpt>
      <trkpt lat="45.94021" lon="6.38141">
        <ele>1819</ele>
        <time>2026-08-19T09:58:24.344Z</time>
      </trkpt>
      <trkpt lat="45.94021" lon="6.38141">
        <ele>1819</ele>
        <time>2026-08-19T09:58:25.344Z</time>
      </trkpt>
      <trkpt lat="45.94021" lon="6.38141">
        <ele>1819</ele>
        <time>2026-08-19T09:58:26.344Z</time>
      </trkpt>
      <trkpt lat="45.94021" lon="6.38141">
        <ele>1819</ele>
        <time>2026-08-19T09:58:27.344Z</time>
      </trkpt>
      <trkpt lat="45.94024" lon="6.38141">
        <ele>1819</ele>
        <time>2026-08-19T09:58:28.344Z</time>
      </trkpt>
      <trkpt lat="45.94025" lon="6.38141">
        <ele>1819</ele>
        <time>2026-08-19T09:58:29.344Z</time>
      </trkpt>
      <trkpt lat="45.94025" lon="6.38141">
        <ele>1819</ele>
        <time>2026-08-19T09:58:30.344Z</time>
      </trkpt>
      <trkpt lat="45.94025" lon="6.38142">
        <ele>1819</ele>
        <time>2026-08-19T09:58:31.344Z</time>
      </trkpt>
      <trkpt lat="45.94025" lon="6.38142">
        <ele>1819</ele>
        <time>2026-08-19T09:58:32.344Z</time>
      </trkpt>
      <trkpt lat="45.94025" lon="6.38142">
        <ele>1819</ele>
        <time>2026-08-19T09:58:33.344Z</time>
      </trkpt>
      <trkpt lat="45.94025" lon="6.38142">
        <ele>1819</ele>
        <time>2026-08-19T09:58:34.344Z</time>
      </trkpt>
      <trkpt lat="45.94025" lon="6.38142">
        <ele>1819</ele>
        <time>2026-08-19T09:58:35.344Z</time>
      </trkpt>
      <trkpt lat="45.94025" lon="6.38142">
        <ele>1819</ele>
        <time>2026-08-19T09:58:36.344Z</time>
      </trkpt>
      <trkpt lat="45.94025" lon="6.38142">
        <ele>1819</ele>
        <time>2026-08-19T09:58:37.344Z</time>
      </trkpt>
      <trkpt lat="45.94025" lon="6.38142">
        <ele>1819</ele>
        <time>2026-08-19T09:58:38.344Z</time>
      </trkpt>
      <trkpt lat="45.94025" lon="6.38142">
        <ele>1819</ele>
        <time>2026-08-19T09:58:39.344Z</time>
      </trkpt>
      <trkpt lat="45.94025" lon="6.38142">
        <ele>1819</ele>
        <time>2026-08-19T09:58:40.344Z</time>
      </trkpt>
      <trkpt lat="45.94025" lon="6.38142">
        <ele>1819</ele>
        <time>2026-08-19T09:58:41.344Z</time>
      </trkpt>
      <trkpt lat="45.94025" lon="6.38142">
        <ele>1819</ele>
        <time>2026-08-19T09:58:42.344Z</time>
      </trkpt>
      <trkpt lat="45.94025" lon="6.38142">
        <ele>1819</ele>
        <time>2026-08-19T09:58:43.344Z</time>
      </trkpt>
      <trkpt lat="45.94025" lon="6.38142">
        <ele>1819</ele>
        <time>2026-08-19T09:58:44.344Z</time>
      </trkpt>
      <trkpt lat="45.94025" lon="6.38142">
        <ele>1819</ele>
        <time>2026-08-19T09:58:45.344Z</time>
      </trkpt>
      <trkpt lat="45.94025" lon="6.38142">
        <ele>1819</ele>
        <time>2026-08-19T09:58:46.344Z</time>
      </trkpt>
      <trkpt lat="45.94025" lon="6.38142">
        <ele>1819</ele>
        <time>2026-08-19T09:58:47.344Z</time>
      </trkpt>
      <trkpt lat="45.94025" lon="6.38142">
        <ele>1819</ele>
        <time>2026-08-19T09:58:48.344Z</time>
      </trkpt>
      <trkpt lat="45.94025" lon="6.38142">
        <ele>1819</ele>
        <time>2026-08-19T09:58:49.344Z</time>
      </trkpt>
      <trkpt lat="45.94025" lon="6.38142">
        <ele>1819</ele>
        <time>2026-08-19T09:58:50.344Z</time>
      </trkpt>
      <trkpt lat="45.94025" lon="6.38141">
        <ele>1819</ele>
        <time>2026-08-19T09:58:51.344Z</time>
      </trkpt>
      <trkpt lat="45.94025" lon="6.38141">
        <ele>1819</ele>
        <time>2026-08-19T09:58:52.344Z</time>
      </trkpt>
      <trkpt lat="45.94025" lon="6.38141">
        <ele>1819</ele>
        <time>2026-08-19T09:58:53.344Z</time>
      </trkpt>
      <trkpt lat="45.94025" lon="6.38141">
        <ele>1819</ele>
        <time>2026-08-19T09:58:54.344Z</time>
      </trkpt>
      <trkpt lat="45.94025" lon="6.38141">
        <ele>1819</ele>
        <time>2026-08-19T09:58:55.345Z</time>
      </trkpt>
      <trkpt lat="45.94025" lon="6.38141">
        <ele>1819</ele>
        <time>2026-08-19T09:58:56.344Z</time>
      </trkpt>
      <trkpt lat="45.94025" lon="6.38141">
        <ele>1819</ele>
        <time>2026-08-19T09:58:57.344Z</time>
      </trkpt>
      <trkpt lat="45.94025" lon="6.38141">
        <ele>1819</ele>
        <time>2026-08-19T09:58:58.344Z</time>
      </trkpt>
      <trkpt lat="45.94025" lon="6.38141">
        <ele>1819</ele>
        <time>2026-08-19T09:58:59.344Z</time>
      </trkpt>
      <trkpt lat="45.94025" lon="6.38141">
        <ele>1819</ele>
        <time>2026-08-19T09:59:00.344Z</time>
      </trkpt>
      <trkpt lat="45.94025" lon="6.38141">
        <ele>1819</ele>
        <time>2026-08-19T09:59:01.344Z</time>
      </trkpt>
      <trkpt lat="45.94025" lon="6.38141">
        <ele>1819</ele>
        <time>2026-08-19T09:59:02.344Z</time>
      </trkpt>
      <trkpt lat="45.94025" lon="6.38141">
        <ele>1819</ele>
        <time>2026-08-19T09:59:03.344Z</time>
      </trkpt>
      <trkpt lat="45.94025" lon="6.38141">
        <ele>1819</ele>
        <time>2026-08-19T09:59:04.344Z</time>
      </trkpt>
      <trkpt lat="45.94025" lon="6.38141">
        <ele>1819</ele>
        <time>2026-08-19T09:59:05.344Z</time>
      </trkpt>
      <trkpt lat="45.94025" lon="6.38141">
        <ele>1819</ele>
        <time>2026-08-19T09:59:06.344Z</time>
      </trkpt>
      <trkpt lat="45.94025" lon="6.38141">
        <ele>1819</ele>
        <time>2026-08-19T09:59:07.344Z</time>
      </trkpt>
      <trkpt lat="45.94025" lon="6.38141">
        <ele>1819</ele>
        <time>2026-08-19T09:59:08.344Z</time>
      </trkpt>
      <trkpt lat="45.94025" lon="6.38141">
        <ele>1819</ele>
        <time>2026-08-19T09:59:09.344Z</time>
      </trkpt>
      <trkpt lat="45.94025" lon="6.38141">
        <ele>1819</ele>
        <time>2026-08-19T09:59:10.344Z</time>
      </trkpt>
      <trkpt lat="45.94025" lon="6.38142">
        <ele>1819</ele>
        <time>2026-08-19T09:59:11.344Z</time>
      </trkpt>
      <trkpt lat="45.94025" lon="6.38142">
        <ele>1819</ele>
        <time>2026-08-19T09:59:12.344Z</time>
      </trkpt>
      <trkpt lat="45.94025" lon="6.38142">
        <ele>1819</ele>
        <time>2026-08-19T09:59:13.344Z</time>
      </trkpt>
      <trkpt lat="45.94025" lon="6.38142">
        <ele>1819</ele>
        <time>2026-08-19T09:59:14.344Z</time>
      </trkpt>
      <trkpt lat="45.94025" lon="6.38142">
        <ele>1819</ele>
        <time>2026-08-19T09:59:15.344Z</time>
      </trkpt>
      <trkpt lat="45.94025" lon="6.38142">
        <ele>1819</ele>
        <time>2026-08-19T09:59:16.344Z</time>
      </trkpt>
      <trkpt lat="45.94025" lon="6.38142">
        <ele>1819</ele>
        <time>2026-08-19T09:59:17.344Z</time>
      </trkpt>
      <trkpt lat="45.94025" lon="6.38142">
        <ele>1819</ele>
        <time>2026-08-19T09:59:18.344Z</time>
      </trkpt>
      <trkpt lat="45.94025" lon="6.38142">
        <ele>1819</ele>
        <time>2026-08-19T09:59:19.344Z</time>
      </trkpt>
      <trkpt lat="45.94025" lon="6.38142">
        <ele>1819</ele>
        <time>2026-08-19T09:59:20.344Z</time>
      </trkpt>
      <trkpt lat="45.94025" lon="6.38142">
        <ele>1819</ele>
        <time>2026-08-19T09:59:21.344Z</time>
      </trkpt>
      <trkpt lat="45.94025" lon="6.38142">
        <ele>1819</ele>
        <time>2026-08-19T09:59:22.344Z</time>
      </trkpt>
      <trkpt lat="45.94025" lon="6.38142">
        <ele>1819</ele>
        <time>2026-08-19T09:59:23.344Z</time>
      </trkpt>
      <trkpt lat="45.94025" lon="6.38142">
        <ele>1819</ele>
        <time>2026-08-19T09:59:24.344Z</time>
      </trkpt>
      <trkpt lat="45.94025" lon="6.38142">
        <ele>1819</ele>
        <time>2026-08-19T09:59:25.344Z</time>
      </trkpt>
      <trkpt lat="45.94025" lon="6.38142">
        <ele>1819</ele>
        <time>2026-08-19T09:59:26.344Z</time>
      </trkpt>
      <trkpt lat="45.94025" lon="6.38142">
        <ele>1819</ele>
        <time>2026-08-19T09:59:27.344Z</time>
      </trkpt>
      <trkpt lat="45.94025" lon="6.38142">
        <ele>1819</ele>
        <time>2026-08-19T09:59:28.344Z</time>
      </trkpt>
      <trkpt lat="45.94025" lon="6.38142">
        <ele>1819</ele>
        <time>2026-08-19T09:59:29.344Z</time>
      </trkpt>
      <trkpt lat="45.94025" lon="6.38142">
        <ele>1819</ele>
        <time>2026-08-19T09:59:30.344Z</time>
      </trkpt>
      <trkpt lat="45.94025" lon="6.38142">
        <ele>1819</ele>
        <time>2026-08-19T09:59:31.345Z</time>
      </trkpt>
      <trkpt lat="45.94025" lon="6.38142">
        <ele>1819</ele>
        <time>2026-08-19T09:59:32.344Z</time>
      </trkpt>
      <trkpt lat="45.94025" lon="6.38142">
        <ele>1819</ele>
        <time>2026-08-19T09:59:33.344Z</time>
      </trkpt>
      <trkpt lat="45.94025" lon="6.38142">
        <ele>1819</ele>
        <time>2026-08-19T09:59:34.344Z</time>
      </trkpt>
      <trkpt lat="45.94025" lon="6.38142">
        <ele>1819</ele>
        <time>2026-08-19T09:59:35.344Z</time>
      </trkpt>
      <trkpt lat="45.94025" lon="6.38142">
        <ele>1819</ele>
        <time>2026-08-19T09:59:36.344Z</time>
      </trkpt>
      <trkpt lat="45.94025" lon="6.38142">
        <ele>1819</ele>
        <time>2026-08-19T09:59:37.344Z</time>
      </trkpt>
      <trkpt lat="45.94025" lon="6.38142">
        <ele>1819</ele>
        <time>2026-08-19T09:59:38.344Z</time>
      </trkpt>
      <trkpt lat="45.94025" lon="6.38142">
        <ele>1819</ele>
        <time>2026-08-19T09:59:39.344Z</time>
      </trkpt>
      <trkpt lat="45.94025" lon="6.38142">
        <ele>1819</ele>
        <time>2026-08-19T09:59:40.344Z</time>
      </trkpt>
      <trkpt lat="45.94025" lon="6.38142">
        <ele>1819</ele>
        <time>2026-08-19T09:59:41.344Z</time>
      </trkpt>
      <trkpt lat="45.94025" lon="6.38142">
        <ele>1819</ele>
        <time>2026-08-19T09:59:42.344Z</time>
      </trkpt>
      <trkpt lat="45.94025" lon="6.38142">
        <ele>1819</ele>
        <time>2026-08-19T09:59:43.344Z</time>
      </trkpt>
      <trkpt lat="45.94025" lon="6.38142">
        <ele>1819</ele>
        <time>2026-08-19T09:59:44.344Z</time>
      </trkpt>
      <trkpt lat="45.94025" lon="6.38142">
        <ele>1819</ele>
        <time>2026-08-19T09:59:45.344Z</time>
      </trkpt>
      <trkpt lat="45.94025" lon="6.38142">
        <ele>1819</ele>
        <time>2026-08-19T09:59:46.344Z</time>
      </trkpt>
      <trkpt lat="45.94025" lon="6.38142">
        <ele>1819</ele>
        <time>2026-08-19T09:59:47.344Z</time>
      </trkpt>
      <trkpt lat="45.94025" lon="6.38142">
        <ele>1819</ele>
        <time>2026-08-19T09:59:48.344Z</time>
      </trkpt>
      <trkpt lat="45.94025" lon="6.38142">
        <ele>1819</ele>
        <time>2026-08-19T09:59:49.344Z</time>
      </trkpt>
      <trkpt lat="45.94025" lon="6.38142">
        <ele>1819</ele>
        <time>2026-08-19T09:59:50.344Z</time>
      </trkpt>
      <trkpt lat="45.94025" lon="6.38142">
        <ele>1819</ele>
        <time>2026-08-19T09:59:51.344Z</time>
      </trkpt>
      <trkpt lat="45.94025" lon="6.38142">
        <ele>1819</ele>
        <time>2026-08-19T09:59:52.344Z</time>
      </trkpt>
      <trkpt lat="45.94025" lon="6.38142">
        <ele>1819</ele>
        <time>2026-08-19T09:59:53.344Z</time>
      </trkpt>
      <trkpt lat="45.94025" lon="6.38142">
        <ele>1819</ele>
        <time>2026-08-19T09:59:54.344Z</time>
      </trkpt>
      <trkpt lat="45.94025" lon="6.38142">
        <ele>1819</ele>
        <time>2026-08-19T09:59:55.344Z</time>
      </trkpt>
      <trkpt lat="45.94025" lon="6.38142">
        <ele>1819</ele>
        <time>2026-08-19T09:59:56.344Z</time>
      </trkpt>
      <trkpt lat="45.94025" lon="6.38142">
        <ele>1819</ele>
        <time>2026-08-19T09:59:57.344Z</time>
      </trkpt>
      <trkpt lat="45.94025" lon="6.38142">
        <ele>1819</ele>
        <time>2026-08-19T09:59:58.344Z</time>
      </trkpt>
      <trkpt lat="45.94025" lon="6.38142">
        <ele>1819</ele>
        <time>2026-08-19T09:59:59.344Z</time>
      </trkpt>
      <trkpt lat="45.94025" lon="6.38142">
        <ele>1819</ele>
        <time>2026-08-19T10:00:00.344Z</time>
      </trkpt>
      <trkpt lat="45.94025" lon="6.38142">
        <ele>1819</ele>
        <time>2026-08-19T10:00:01.344Z</time>
      </trkpt>
      <trkpt lat="45.94025" lon="6.38142">
        <ele>1819</ele>
        <time>2026-08-19T10:00:02.344Z</time>
      </trkpt>
      <trkpt lat="45.94025" lon="6.38142">
        <ele>1819</ele>
        <time>2026-08-19T10:00:03.344Z</time>
      </trkpt>
      <trkpt lat="45.94025" lon="6.38142">
        <ele>1819</ele>
        <time>2026-08-19T10:00:04.344Z</time>
      </trkpt>
      <trkpt lat="45.94025" lon="6.38142">
        <ele>1819</ele>
        <time>2026-08-19T10:00:05.344Z</time>
      </trkpt>
      <trkpt lat="45.94025" lon="6.38142">
        <ele>1819</ele>
        <time>2026-08-19T10:00:06.344Z</time>
      </trkpt>
      <trkpt lat="45.94025" lon="6.38142">
        <ele>1819</ele>
        <time>2026-08-19T10:00:07.344Z</time>
      </trkpt>
      <trkpt lat="45.94025" lon="6.38142">
        <ele>1819</ele>
        <time>2026-08-19T10:00:08.344Z</time>
      </trkpt>
      <trkpt lat="45.94024" lon="6.38142">
        <ele>1819</ele>
        <time>2026-08-19T10:00:09.344Z</time>
      </trkpt>
      <trkpt lat="45.94024" lon="6.38142">
        <ele>1819</ele>
        <time>2026-08-19T10:00:10.344Z</time>
      </trkpt>
      <trkpt lat="45.94024" lon="6.38142">
        <ele>1819</ele>
        <time>2026-08-19T10:00:11.344Z</time>
      </trkpt>
      <trkpt lat="45.94024" lon="6.38142">
        <ele>1820</ele>
        <time>2026-08-19T10:00:12.344Z</time>
      </trkpt>
      <trkpt lat="45.94024" lon="6.38142">
        <ele>1820</ele>
        <time>2026-08-19T10:00:13.344Z</time>
      </trkpt>
      <trkpt lat="45.94024" lon="6.38142">
        <ele>1820</ele>
        <time>2026-08-19T10:00:14.344Z</time>
      </trkpt>
      <trkpt lat="45.94024" lon="6.38142">
        <ele>1820</ele>
        <time>2026-08-19T10:00:15.344Z</time>
      </trkpt>
      <trkpt lat="45.94024" lon="6.38142">
        <ele>1820</ele>
        <time>2026-08-19T10:00:16.344Z</time>
      </trkpt>
      <trkpt lat="45.94024" lon="6.38142">
        <ele>1820</ele>
        <time>2026-08-19T10:00:17.344Z</time>
      </trkpt>
      <trkpt lat="45.94024" lon="6.38142">
        <ele>1820</ele>
        <time>2026-08-19T10:00:18.344Z</time>
      </trkpt>
      <trkpt lat="45.94024" lon="6.38142">
        <ele>1820</ele>
        <time>2026-08-19T10:00:19.344Z</time>
      </trkpt>
      <trkpt lat="45.94024" lon="6.38142">
        <ele>1820</ele>
        <time>2026-08-19T10:00:20.344Z</time>
      </trkpt>
      <trkpt lat="45.94024" lon="6.38142">
        <ele>1820</ele>
        <time>2026-08-19T10:00:21.344Z</time>
      </trkpt>
      <trkpt lat="45.94024" lon="6.38142">
        <ele>1819</ele>
        <time>2026-08-19T10:00:22.344Z</time>
      </trkpt>
      <trkpt lat="45.94024" lon="6.38142">
        <ele>1819</ele>
        <time>2026-08-19T10:00:23.344Z</time>
      </trkpt>
      <trkpt lat="45.94024" lon="6.38142">
        <ele>1819</ele>
        <time>2026-08-19T10:00:24.344Z</time>
      </trkpt>
      <trkpt lat="45.94024" lon="6.38142">
        <ele>1819</ele>
        <time>2026-08-19T10:00:25.344Z</time>
      </trkpt>
      <trkpt lat="45.94024" lon="6.38142">
        <ele>1819</ele>
        <time>2026-08-19T10:00:26.344Z</time>
      </trkpt>
      <trkpt lat="45.94024" lon="6.38142">
        <ele>1819</ele>
        <time>2026-08-19T10:00:27.344Z</time>
      </trkpt>
      <trkpt lat="45.94024" lon="6.38142">
        <ele>1819</ele>
        <time>2026-08-19T10:00:28.344Z</time>
      </trkpt>
      <trkpt lat="45.94024" lon="6.38142">
        <ele>1819</ele>
        <time>2026-08-19T10:00:29.344Z</time>
      </trkpt>
      <trkpt lat="45.94024" lon="6.38142">
        <ele>1819</ele>
        <time>2026-08-19T10:00:30.344Z</time>
      </trkpt>
      <trkpt lat="45.94024" lon="6.38142">
        <ele>1819</ele>
        <time>2026-08-19T10:00:31.344Z</time>
      </trkpt>
      <trkpt lat="45.94024" lon="6.38142">
        <ele>1819</ele>
        <time>2026-08-19T10:00:32.344Z</time>
      </trkpt>
      <trkpt lat="45.94023" lon="6.38142">
        <ele>1819</ele>
        <time>2026-08-19T10:00:33.344Z</time>
      </trkpt>
      <trkpt lat="45.94023" lon="6.38142">
        <ele>1819</ele>
        <time>2026-08-19T10:00:34.344Z</time>
      </trkpt>
      <trkpt lat="45.94023" lon="6.38142">
        <ele>1819</ele>
        <time>2026-08-19T10:00:35.344Z</time>
      </trkpt>
      <trkpt lat="45.94023" lon="6.38142">
        <ele>1819</ele>
        <time>2026-08-19T10:00:36.344Z</time>
      </trkpt>
      <trkpt lat="45.94023" lon="6.38141">
        <ele>1819</ele>
        <time>2026-08-19T10:00:37.344Z</time>
      </trkpt>
      <trkpt lat="45.94023" lon="6.38141">
        <ele>1819</ele>
        <time>2026-08-19T10:00:38.344Z</time>
      </trkpt>
      <trkpt lat="45.94023" lon="6.38141">
        <ele>1819</ele>
        <time>2026-08-19T10:00:39.344Z</time>
      </trkpt>
      <trkpt lat="45.94023" lon="6.38141">
        <ele>1819</ele>
        <time>2026-08-19T10:00:40.344Z</time>
      </trkpt>
      <trkpt lat="45.94023" lon="6.38141">
        <ele>1819</ele>
        <time>2026-08-19T10:00:41.344Z</time>
      </trkpt>
      <trkpt lat="45.94023" lon="6.38141">
        <ele>1819</ele>
        <time>2026-08-19T10:00:42.344Z</time>
      </trkpt>
      <trkpt lat="45.94023" lon="6.38141">
        <ele>1819</ele>
        <time>2026-08-19T10:00:43.344Z</time>
      </trkpt>
      <trkpt lat="45.94023" lon="6.38141">
        <ele>1819</ele>
        <time>2026-08-19T10:00:44.344Z</time>
      </trkpt>
      <trkpt lat="45.94023" lon="6.38141">
        <ele>1819</ele>
        <time>2026-08-19T10:00:45.344Z</time>
      </trkpt>
      <trkpt lat="45.94023" lon="6.38141">
        <ele>1819</ele>
        <time>2026-08-19T10:00:46.344Z</time>
      </trkpt>
      <trkpt lat="45.94023" lon="6.38141">
        <ele>1819</ele>
        <time>2026-08-19T10:00:47.344Z</time>
      </trkpt>
      <trkpt lat="45.94023" lon="6.38141">
        <ele>1819</ele>
        <time>2026-08-19T10:00:48.344Z</time>
      </trkpt>
      <trkpt lat="45.94023" lon="6.38141">
        <ele>1819</ele>
        <time>2026-08-19T10:00:49.344Z</time>
      </trkpt>
      <trkpt lat="45.94023" lon="6.38141">
        <ele>1819</ele>
        <time>2026-08-19T10:00:50.344Z</time>
      </trkpt>
      <trkpt lat="45.94023" lon="6.38141">
        <ele>1819</ele>
        <time>2026-08-19T10:00:51.344Z</time>
      </trkpt>
      <trkpt lat="45.94023" lon="6.3814">
        <ele>1819</ele>
        <time>2026-08-19T10:00:52.344Z</time>
      </trkpt>
      <trkpt lat="45.94023" lon="6.3814">
        <ele>1819</ele>
        <time>2026-08-19T10:00:53.344Z</time>
      </trkpt>
      <trkpt lat="45.94023" lon="6.3814">
        <ele>1819</ele>
        <time>2026-08-19T10:00:54.344Z</time>
      </trkpt>
      <trkpt lat="45.94023" lon="6.3814">
        <ele>1819</ele>
        <time>2026-08-19T10:00:55.344Z</time>
      </trkpt>
      <trkpt lat="45.94023" lon="6.3814">
        <ele>1819</ele>
        <time>2026-08-19T10:00:56.344Z</time>
      </trkpt>
      <trkpt lat="45.94023" lon="6.3814">
        <ele>1819</ele>
        <time>2026-08-19T10:00:57.344Z</time>
      </trkpt>
      <trkpt lat="45.94023" lon="6.3814">
        <ele>1819</ele>
        <time>2026-08-19T10:00:58.344Z</time>
      </trkpt>
      <trkpt lat="45.94023" lon="6.3814">
        <ele>1819</ele>
        <time>2026-08-19T10:00:59.344Z</time>
      </trkpt>
      <trkpt lat="45.94023" lon="6.3814">
        <ele>1819</ele>
        <time>2026-08-19T10:01:00.344Z</time>
      </trkpt>
      <trkpt lat="45.94023" lon="6.3814">
        <ele>1819</ele>
        <time>2026-08-19T10:01:01.344Z</time>
      </trkpt>
      <trkpt lat="45.94023" lon="6.3814">
        <ele>1819</ele>
        <time>2026-08-19T10:01:02.344Z</time>
      </trkpt>
      <trkpt lat="45.94023" lon="6.3814">
        <ele>1819</ele>
        <time>2026-08-19T10:01:03.344Z</time>
      </trkpt>
      <trkpt lat="45.94023" lon="6.3814">
        <ele>1819</ele>
        <time>2026-08-19T10:01:04.344Z</time>
      </trkpt>
      <trkpt lat="45.94023" lon="6.3814">
        <ele>1819</ele>
        <time>2026-08-19T10:01:05.344Z</time>
      </trkpt>
      <trkpt lat="45.94023" lon="6.3814">
        <ele>1819</ele>
        <time>2026-08-19T10:01:06.344Z</time>
      </trkpt>
      <trkpt lat="45.94023" lon="6.3814">
        <ele>1819</ele>
        <time>2026-08-19T10:01:07.344Z</time>
      </trkpt>
      <trkpt lat="45.94023" lon="6.3814">
        <ele>1819</ele>
        <time>2026-08-19T10:01:08.344Z</time>
      </trkpt>
      <trkpt lat="45.94023" lon="6.3814">
        <ele>1819</ele>
        <time>2026-08-19T10:01:09.344Z</time>
      </trkpt>
      <trkpt lat="45.94023" lon="6.3814">
        <ele>1819</ele>
        <time>2026-08-19T10:01:10.344Z</time>
      </trkpt>
      <trkpt lat="45.94023" lon="6.3814">
        <ele>1819</ele>
        <time>2026-08-19T10:01:11.344Z</time>
      </trkpt>
      <trkpt lat="45.94023" lon="6.3814">
        <ele>1819</ele>
        <time>2026-08-19T10:01:12.344Z</time>
      </trkpt>
      <trkpt lat="45.94023" lon="6.3814">
        <ele>1819</ele>
        <time>2026-08-19T10:01:13.344Z</time>
      </trkpt>
      <trkpt lat="45.94023" lon="6.3814">
        <ele>1819</ele>
        <time>2026-08-19T10:01:14.344Z</time>
      </trkpt>
      <trkpt lat="45.94023" lon="6.3814">
        <ele>1819</ele>
        <time>2026-08-19T10:01:15.344Z</time>
      </trkpt>
      <trkpt lat="45.94023" lon="6.3814">
        <ele>1819</ele>
        <time>2026-08-19T10:01:16.344Z</time>
      </trkpt>
      <trkpt lat="45.94023" lon="6.3814">
        <ele>1819</ele>
        <time>2026-08-19T10:01:17.344Z</time>
      </trkpt>
      <trkpt lat="45.94023" lon="6.3814">
        <ele>1819</ele>
        <time>2026-08-19T10:01:18.344Z</time>
      </trkpt>
      <trkpt lat="45.94023" lon="6.3814">
        <ele>1819</ele>
        <time>2026-08-19T10:01:19.344Z</time>
      </trkpt>
      <trkpt lat="45.94023" lon="6.3814">
        <ele>1819</ele>
        <time>2026-08-19T10:01:20.344Z</time>
      </trkpt>
      <trkpt lat="45.94023" lon="6.3814">
        <ele>1819</ele>
        <time>2026-08-19T10:01:21.344Z</time>
      </trkpt>
      <trkpt lat="45.94023" lon="6.3814">
        <ele>1819</ele>
        <time>2026-08-19T10:01:22.344Z</time>
      </trkpt>
      <trkpt lat="45.94023" lon="6.3814">
        <ele>1819</ele>
        <time>2026-08-19T10:01:23.344Z</time>
      </trkpt>
      <trkpt lat="45.94023" lon="6.3814">
        <ele>1819</ele>
        <time>2026-08-19T10:01:24.344Z</time>
      </trkpt>
      <trkpt lat="45.94023" lon="6.3814">
        <ele>1819</ele>
        <time>2026-08-19T10:01:25.344Z</time>
      </trkpt>
      <trkpt lat="45.94023" lon="6.3814">
        <ele>1819</ele>
        <time>2026-08-19T10:01:26.344Z</time>
      </trkpt>
      <trkpt lat="45.94023" lon="6.3814">
        <ele>1819</ele>
        <time>2026-08-19T10:01:27.344Z</time>
      </trkpt>
      <trkpt lat="45.94023" lon="6.3814">
        <ele>1819</ele>
        <time>2026-08-19T10:01:28.344Z</time>
      </trkpt>
      <trkpt lat="45.94023" lon="6.3814">
        <ele>1819</ele>
        <time>2026-08-19T10:01:29.344Z</time>
      </trkpt>
      <trkpt lat="45.94023" lon="6.3814">
        <ele>1819</ele>
        <time>2026-08-19T10:01:30.344Z</time>
      </trkpt>
      <trkpt lat="45.94023" lon="6.3814">
        <ele>1819</ele>
        <time>2026-08-19T10:01:31.344Z</time>
      </trkpt>
      <trkpt lat="45.94023" lon="6.3814">
        <ele>1819</ele>
        <time>2026-08-19T10:01:32.344Z</time>
      </trkpt>
      <trkpt lat="45.94023" lon="6.3814">
        <ele>1819</ele>
        <time>2026-08-19T10:01:33.344Z</time>
      </trkpt>
      <trkpt lat="45.94023" lon="6.3814">
        <ele>1819</ele>
        <time>2026-08-19T10:01:34.344Z</time>
      </trkpt>
      <trkpt lat="45.94023" lon="6.3814">
        <ele>1819</ele>
        <time>2026-08-19T10:01:35.344Z</time>
      </trkpt>
      <trkpt lat="45.94023" lon="6.3814">
        <ele>1819</ele>
        <time>2026-08-19T10:01:36.344Z</time>
      </trkpt>
      <trkpt lat="45.94023" lon="6.3814">
        <ele>1819</ele>
        <time>2026-08-19T10:01:37.344Z</time>
      </trkpt>
      <trkpt lat="45.94023" lon="6.3814">
        <ele>1819</ele>
        <time>2026-08-19T10:01:38.344Z</time>
      </trkpt>
      <trkpt lat="45.94023" lon="6.3814">
        <ele>1819</ele>
        <time>2026-08-19T10:01:39.344Z</time>
      </trkpt>
      <trkpt lat="45.94023" lon="6.3814">
        <ele>1819</ele>
        <time>2026-08-19T10:01:40.345Z</time>
      </trkpt>
      <trkpt lat="45.94023" lon="6.3814">
        <ele>1819</ele>
        <time>2026-08-19T10:01:41.344Z</time>
      </trkpt>
      <trkpt lat="45.94023" lon="6.3814">
        <ele>1819</ele>
        <time>2026-08-19T10:01:42.344Z</time>
      </trkpt>
      <trkpt lat="45.94023" lon="6.3814">
        <ele>1819</ele>
        <time>2026-08-19T10:01:43.344Z</time>
      </trkpt>
      <trkpt lat="45.94023" lon="6.3814">
        <ele>1819</ele>
        <time>2026-08-19T10:01:44.344Z</time>
      </trkpt>
      <trkpt lat="45.94023" lon="6.3814">
        <ele>1819</ele>
        <time>2026-08-19T10:01:45.344Z</time>
      </trkpt>
      <trkpt lat="45.94023" lon="6.3814">
        <ele>1819</ele>
        <time>2026-08-19T10:01:46.344Z</time>
      </trkpt>
      <trkpt lat="45.94023" lon="6.3814">
        <ele>1819</ele>
        <time>2026-08-19T10:01:47.344Z</time>
      </trkpt>
      <trkpt lat="45.94023" lon="6.3814">
        <ele>1819</ele>
        <time>2026-08-19T10:01:48.344Z</time>
      </trkpt>
      <trkpt lat="45.94023" lon="6.3814">
        <ele>1819</ele>
        <time>2026-08-19T10:01:49.344Z</time>
      </trkpt>
      <trkpt lat="45.94023" lon="6.3814">
        <ele>1819</ele>
        <time>2026-08-19T10:01:50.344Z</time>
      </trkpt>
      <trkpt lat="45.94023" lon="6.3814">
        <ele>1819</ele>
        <time>2026-08-19T10:01:51.344Z</time>
      </trkpt>
      <trkpt lat="45.94023" lon="6.3814">
        <ele>1819</ele>
        <time>2026-08-19T10:01:52.344Z</time>
      </trkpt>
      <trkpt lat="45.94023" lon="6.3814">
        <ele>1819</ele>
        <time>2026-08-19T10:01:53.344Z</time>
      </trkpt>
      <trkpt lat="45.94023" lon="6.3814">
        <ele>1819</ele>
        <time>2026-08-19T10:01:54.344Z</time>
      </trkpt>
      <trkpt lat="45.94023" lon="6.3814">
        <ele>1819</ele>
        <time>2026-08-19T10:01:55.344Z</time>
      </trkpt>
      <trkpt lat="45.94023" lon="6.3814">
        <ele>1819</ele>
        <time>2026-08-19T10:01:56.344Z</time>
      </trkpt>
      <trkpt lat="45.94023" lon="6.3814">
        <ele>1819</ele>
        <time>2026-08-19T10:01:57.344Z</time>
      </trkpt>
      <trkpt lat="45.94023" lon="6.3814">
        <ele>1819</ele>
        <time>2026-08-19T10:01:58.344Z</time>
      </trkpt>
      <trkpt lat="45.94023" lon="6.3814">
        <ele>1819</ele>
        <time>2026-08-19T10:01:59.344Z</time>
      </trkpt>
      <trkpt lat="45.94023" lon="6.3814">
        <ele>1819</ele>
        <time>2026-08-19T10:02:00.344Z</time>
      </trkpt>
      <trkpt lat="45.94023" lon="6.3814">
        <ele>1819</ele>
        <time>2026-08-19T10:02:01.344Z</time>
      </trkpt>
      <trkpt lat="45.94023" lon="6.38141">
        <ele>1819</ele>
        <time>2026-08-19T10:02:02.344Z</time>
      </trkpt>
      <trkpt lat="45.94023" lon="6.38144">
        <ele>1819</ele>
        <time>2026-08-19T10:02:03.344Z</time>
      </trkpt>
      <trkpt lat="45.94023" lon="6.38146">
        <ele>1819</ele>
        <time>2026-08-19T10:02:04.344Z</time>
      </trkpt>
      <trkpt lat="45.94023" lon="6.38149">
        <ele>1819</ele>
        <time>2026-08-19T10:02:05.344Z</time>
      </trkpt>
      <trkpt lat="45.94022" lon="6.38151">
        <ele>1818</ele>
        <time>2026-08-19T10:02:06.344Z</time>
      </trkpt>
      <trkpt lat="45.94022" lon="6.38153">
        <ele>1818</ele>
        <time>2026-08-19T10:02:07.344Z</time>
      </trkpt>
      <trkpt lat="45.94023" lon="6.38155">
        <ele>1818</ele>
        <time>2026-08-19T10:02:08.344Z</time>
      </trkpt>
      <trkpt lat="45.94023" lon="6.38156">
        <ele>1817</ele>
        <time>2026-08-19T10:02:09.344Z</time>
      </trkpt>
      <trkpt lat="45.94023" lon="6.38158">
        <ele>1817</ele>
        <time>2026-08-19T10:02:10.344Z</time>
      </trkpt>
      <trkpt lat="45.94023" lon="6.38159">
        <ele>1817</ele>
        <time>2026-08-19T10:02:11.344Z</time>
      </trkpt>
      <trkpt lat="45.94023" lon="6.38158">
        <ele>1817</ele>
        <time>2026-08-19T10:02:12.344Z</time>
      </trkpt>
      <trkpt lat="45.94024" lon="6.38158">
        <ele>1817</ele>
        <time>2026-08-19T10:02:13.344Z</time>
      </trkpt>
      <trkpt lat="45.94024" lon="6.38158">
        <ele>1817</ele>
        <time>2026-08-19T10:02:14.344Z</time>
      </trkpt>
      <trkpt lat="45.94025" lon="6.38157">
        <ele>1817</ele>
        <time>2026-08-19T10:02:15.345Z</time>
      </trkpt>
      <trkpt lat="45.94025" lon="6.38157">
        <ele>1817</ele>
        <time>2026-08-19T10:02:16.344Z</time>
      </trkpt>
      <trkpt lat="45.94026" lon="6.38157">
        <ele>1817</ele>
        <time>2026-08-19T10:02:17.345Z</time>
      </trkpt>
      <trkpt lat="45.94026" lon="6.38158">
        <ele>1817</ele>
        <time>2026-08-19T10:02:18.344Z</time>
      </trkpt>
      <trkpt lat="45.94027" lon="6.38158">
        <ele>1817</ele>
        <time>2026-08-19T10:02:19.344Z</time>
      </trkpt>
      <trkpt lat="45.94027" lon="6.38158">
        <ele>1818</ele>
        <time>2026-08-19T10:02:20.344Z</time>
      </trkpt>
      <trkpt lat="45.94028" lon="6.38159">
        <ele>1818</ele>
        <time>2026-08-19T10:02:21.344Z</time>
      </trkpt>
      <trkpt lat="45.94028" lon="6.38159">
        <ele>1819</ele>
        <time>2026-08-19T10:02:22.344Z</time>
      </trkpt>
      <trkpt lat="45.94029" lon="6.3816">
        <ele>1819</ele>
        <time>2026-08-19T10:02:23.344Z</time>
      </trkpt>
      <trkpt lat="45.9403" lon="6.38161">
        <ele>1819</ele>
        <time>2026-08-19T10:02:24.344Z</time>
      </trkpt>
      <trkpt lat="45.9403" lon="6.38161">
        <ele>1819</ele>
        <time>2026-08-19T10:02:25.344Z</time>
      </trkpt>
      <trkpt lat="45.94031" lon="6.38162">
        <ele>1819</ele>
        <time>2026-08-19T10:02:26.344Z</time>
      </trkpt>
      <trkpt lat="45.94032" lon="6.38163">
        <ele>1819</ele>
        <time>2026-08-19T10:02:27.344Z</time>
      </trkpt>
      <trkpt lat="45.94033" lon="6.38164">
        <ele>1819</ele>
        <time>2026-08-19T10:02:28.344Z</time>
      </trkpt>
      <trkpt lat="45.94033" lon="6.38164">
        <ele>1819</ele>
        <time>2026-08-19T10:02:29.344Z</time>
      </trkpt>
      <trkpt lat="45.94034" lon="6.38166">
        <ele>1819</ele>
        <time>2026-08-19T10:02:30.344Z</time>
      </trkpt>
      <trkpt lat="45.94035" lon="6.38166">
        <ele>1818</ele>
        <time>2026-08-19T10:02:31.344Z</time>
      </trkpt>
      <trkpt lat="45.94035" lon="6.38167">
        <ele>1818</ele>
        <time>2026-08-19T10:02:32.344Z</time>
      </trkpt>
      <trkpt lat="45.94036" lon="6.38168">
        <ele>1818</ele>
        <time>2026-08-19T10:02:33.344Z</time>
      </trkpt>
      <trkpt lat="45.94037" lon="6.38169">
        <ele>1818</ele>
        <time>2026-08-19T10:02:34.344Z</time>
      </trkpt>
      <trkpt lat="45.94037" lon="6.3817">
        <ele>1817</ele>
        <time>2026-08-19T10:02:35.344Z</time>
      </trkpt>
      <trkpt lat="45.94038" lon="6.3817">
        <ele>1817</ele>
        <time>2026-08-19T10:02:36.344Z</time>
      </trkpt>
      <trkpt lat="45.94038" lon="6.38171">
        <ele>1817</ele>
        <time>2026-08-19T10:02:37.344Z</time>
      </trkpt>
      <trkpt lat="45.94038" lon="6.38171">
        <ele>1817</ele>
        <time>2026-08-19T10:02:38.344Z</time>
      </trkpt>
      <trkpt lat="45.94039" lon="6.38172">
        <ele>1818</ele>
        <time>2026-08-19T10:02:39.344Z</time>
      </trkpt>
      <trkpt lat="45.94039" lon="6.38173">
        <ele>1818</ele>
        <time>2026-08-19T10:02:40.344Z</time>
      </trkpt>
      <trkpt lat="45.94038" lon="6.38173">
        <ele>1819</ele>
        <time>2026-08-19T10:02:41.344Z</time>
      </trkpt>
      <trkpt lat="45.94038" lon="6.38173">
        <ele>1819</ele>
        <time>2026-08-19T10:02:42.344Z</time>
      </trkpt>
      <trkpt lat="45.94037" lon="6.38174">
        <ele>1820</ele>
        <time>2026-08-19T10:02:43.344Z</time>
      </trkpt>
      <trkpt lat="45.94037" lon="6.38174">
        <ele>1820</ele>
        <time>2026-08-19T10:02:44.344Z</time>
      </trkpt>
      <trkpt lat="45.94036" lon="6.38174">
        <ele>1821</ele>
        <time>2026-08-19T10:02:45.344Z</time>
      </trkpt>
      <trkpt lat="45.94036" lon="6.38174">
        <ele>1821</ele>
        <time>2026-08-19T10:02:46.344Z</time>
      </trkpt>
      <trkpt lat="45.94035" lon="6.38174">
        <ele>1821</ele>
        <time>2026-08-19T10:02:47.344Z</time>
      </trkpt>
      <trkpt lat="45.94035" lon="6.38175">
        <ele>1821</ele>
        <time>2026-08-19T10:02:48.344Z</time>
      </trkpt>
      <trkpt lat="45.94035" lon="6.38176">
        <ele>1821</ele>
        <time>2026-08-19T10:02:49.344Z</time>
      </trkpt>
      <trkpt lat="45.94035" lon="6.38176">
        <ele>1821</ele>
        <time>2026-08-19T10:02:50.344Z</time>
      </trkpt>
      <trkpt lat="45.94035" lon="6.38177">
        <ele>1821</ele>
        <time>2026-08-19T10:02:51.344Z</time>
      </trkpt>
      <trkpt lat="45.94034" lon="6.38178">
        <ele>1821</ele>
        <time>2026-08-19T10:02:52.344Z</time>
      </trkpt>
      <trkpt lat="45.94034" lon="6.38179">
        <ele>1821</ele>
        <time>2026-08-19T10:02:53.344Z</time>
      </trkpt>
      <trkpt lat="45.94034" lon="6.3818">
        <ele>1821</ele>
        <time>2026-08-19T10:02:54.344Z</time>
      </trkpt>
      <trkpt lat="45.94034" lon="6.38181">
        <ele>1821</ele>
        <time>2026-08-19T10:02:55.344Z</time>
      </trkpt>
      <trkpt lat="45.94034" lon="6.38182">
        <ele>1821</ele>
        <time>2026-08-19T10:02:56.344Z</time>
      </trkpt>
      <trkpt lat="45.94034" lon="6.38183">
        <ele>1821</ele>
        <time>2026-08-19T10:02:57.344Z</time>
      </trkpt>
      <trkpt lat="45.94033" lon="6.38183">
        <ele>1821</ele>
        <time>2026-08-19T10:02:58.344Z</time>
      </trkpt>
      <trkpt lat="45.94033" lon="6.38184">
        <ele>1821</ele>
        <time>2026-08-19T10:02:59.344Z</time>
      </trkpt>
      <trkpt lat="45.94033" lon="6.38185">
        <ele>1821</ele>
        <time>2026-08-19T10:03:00.344Z</time>
      </trkpt>
      <trkpt lat="45.94033" lon="6.38186">
        <ele>1820</ele>
        <time>2026-08-19T10:03:01.344Z</time>
      </trkpt>
      <trkpt lat="45.94033" lon="6.38187">
        <ele>1820</ele>
        <time>2026-08-19T10:03:02.344Z</time>
      </trkpt>
      <trkpt lat="45.94033" lon="6.38188">
        <ele>1820</ele>
        <time>2026-08-19T10:03:03.344Z</time>
      </trkpt>
      <trkpt lat="45.94033" lon="6.38188">
        <ele>1820</ele>
        <time>2026-08-19T10:03:04.344Z</time>
      </trkpt>
      <trkpt lat="45.94033" lon="6.38188">
        <ele>1820</ele>
        <time>2026-08-19T10:03:05.344Z</time>
      </trkpt>
      <trkpt lat="45.94033" lon="6.38189">
        <ele>1820</ele>
        <time>2026-08-19T10:03:06.344Z</time>
      </trkpt>
      <trkpt lat="45.94033" lon="6.38189">
        <ele>1820</ele>
        <time>2026-08-19T10:03:07.344Z</time>
      </trkpt>
      <trkpt lat="45.94034" lon="6.3819">
        <ele>1820</ele>
        <time>2026-08-19T10:03:08.344Z</time>
      </trkpt>
      <trkpt lat="45.94034" lon="6.3819">
        <ele>1820</ele>
        <time>2026-08-19T10:03:09.344Z</time>
      </trkpt>
      <trkpt lat="45.94034" lon="6.38191">
        <ele>1820</ele>
        <time>2026-08-19T10:03:10.344Z</time>
      </trkpt>
      <trkpt lat="45.94034" lon="6.38192">
        <ele>1819</ele>
        <time>2026-08-19T10:03:11.344Z</time>
      </trkpt>
      <trkpt lat="45.94033" lon="6.38192">
        <ele>1819</ele>
        <time>2026-08-19T10:03:12.344Z</time>
      </trkpt>
      <trkpt lat="45.94033" lon="6.38193">
        <ele>1819</ele>
        <time>2026-08-19T10:03:13.344Z</time>
      </trkpt>
      <trkpt lat="45.94033" lon="6.38194">
        <ele>1819</ele>
        <time>2026-08-19T10:03:14.344Z</time>
      </trkpt>
      <trkpt lat="45.94033" lon="6.38195">
        <ele>1818</ele>
        <time>2026-08-19T10:03:15.344Z</time>
      </trkpt>
      <trkpt lat="45.94033" lon="6.38195">
        <ele>1818</ele>
        <time>2026-08-19T10:03:16.344Z</time>
      </trkpt>
      <trkpt lat="45.94033" lon="6.38197">
        <ele>1817</ele>
        <time>2026-08-19T10:03:17.344Z</time>
      </trkpt>
      <trkpt lat="45.94033" lon="6.38198">
        <ele>1817</ele>
        <time>2026-08-19T10:03:18.344Z</time>
      </trkpt>
      <trkpt lat="45.94033" lon="6.38199">
        <ele>1817</ele>
        <time>2026-08-19T10:03:19.344Z</time>
      </trkpt>
      <trkpt lat="45.94033" lon="6.382">
        <ele>1817</ele>
        <time>2026-08-19T10:03:20.344Z</time>
      </trkpt>
      <trkpt lat="45.94034" lon="6.38201">
        <ele>1816</ele>
        <time>2026-08-19T10:03:21.344Z</time>
      </trkpt>
      <trkpt lat="45.94034" lon="6.38202">
        <ele>1816</ele>
        <time>2026-08-19T10:03:22.345Z</time>
      </trkpt>
      <trkpt lat="45.94034" lon="6.38203">
        <ele>1816</ele>
        <time>2026-08-19T10:03:23.344Z</time>
      </trkpt>
      <trkpt lat="45.94034" lon="6.38204">
        <ele>1816</ele>
        <time>2026-08-19T10:03:24.344Z</time>
      </trkpt>
      <trkpt lat="45.94034" lon="6.38205">
        <ele>1815</ele>
        <time>2026-08-19T10:03:25.344Z</time>
      </trkpt>
      <trkpt lat="45.94034" lon="6.38207">
        <ele>1815</ele>
        <time>2026-08-19T10:03:26.344Z</time>
      </trkpt>
      <trkpt lat="45.94034" lon="6.38208">
        <ele>1815</ele>
        <time>2026-08-19T10:03:27.344Z</time>
      </trkpt>
      <trkpt lat="45.94034" lon="6.38208">
        <ele>1815</ele>
        <time>2026-08-19T10:03:28.344Z</time>
      </trkpt>
      <trkpt lat="45.94033" lon="6.38209">
        <ele>1815</ele>
        <time>2026-08-19T10:03:29.344Z</time>
      </trkpt>
      <trkpt lat="45.94033" lon="6.3821">
        <ele>1814</ele>
        <time>2026-08-19T10:03:30.344Z</time>
      </trkpt>
      <trkpt lat="45.94033" lon="6.38211">
        <ele>1814</ele>
        <time>2026-08-19T10:03:31.344Z</time>
      </trkpt>
      <trkpt lat="45.94033" lon="6.38213">
        <ele>1814</ele>
        <time>2026-08-19T10:03:32.344Z</time>
      </trkpt>
      <trkpt lat="45.94034" lon="6.38214">
        <ele>1814</ele>
        <time>2026-08-19T10:03:33.344Z</time>
      </trkpt>
      <trkpt lat="45.94033" lon="6.38215">
        <ele>1813</ele>
        <time>2026-08-19T10:03:34.344Z</time>
      </trkpt>
      <trkpt lat="45.94033" lon="6.38217">
        <ele>1813</ele>
        <time>2026-08-19T10:03:35.344Z</time>
      </trkpt>
      <trkpt lat="45.94033" lon="6.38218">
        <ele>1813</ele>
        <time>2026-08-19T10:03:36.344Z</time>
      </trkpt>
      <trkpt lat="45.94033" lon="6.38219">
        <ele>1812</ele>
        <time>2026-08-19T10:03:37.344Z</time>
      </trkpt>
      <trkpt lat="45.94033" lon="6.3822">
        <ele>1812</ele>
        <time>2026-08-19T10:03:38.344Z</time>
      </trkpt>
      <trkpt lat="45.94032" lon="6.38221">
        <ele>1811</ele>
        <time>2026-08-19T10:03:39.344Z</time>
      </trkpt>
      <trkpt lat="45.94032" lon="6.38222">
        <ele>1811</ele>
        <time>2026-08-19T10:03:40.344Z</time>
      </trkpt>
      <trkpt lat="45.94032" lon="6.38223">
        <ele>1810</ele>
        <time>2026-08-19T10:03:41.344Z</time>
      </trkpt>
      <trkpt lat="45.94031" lon="6.38224">
        <ele>1810</ele>
        <time>2026-08-19T10:03:42.344Z</time>
      </trkpt>
      <trkpt lat="45.94031" lon="6.38226">
        <ele>1809</ele>
        <time>2026-08-19T10:03:43.344Z</time>
      </trkpt>
      <trkpt lat="45.94031" lon="6.38227">
        <ele>1808</ele>
        <time>2026-08-19T10:03:44.344Z</time>
      </trkpt>
      <trkpt lat="45.9403" lon="6.38228">
        <ele>1808</ele>
        <time>2026-08-19T10:03:45.344Z</time>
      </trkpt>
      <trkpt lat="45.9403" lon="6.3823">
        <ele>1808</ele>
        <time>2026-08-19T10:03:46.344Z</time>
      </trkpt>
      <trkpt lat="45.9403" lon="6.38231">
        <ele>1808</ele>
        <time>2026-08-19T10:03:47.344Z</time>
      </trkpt>
      <trkpt lat="45.9403" lon="6.38233">
        <ele>1808</ele>
        <time>2026-08-19T10:03:48.344Z</time>
      </trkpt>
      <trkpt lat="45.94029" lon="6.38233">
        <ele>1808</ele>
        <time>2026-08-19T10:03:49.344Z</time>
      </trkpt>
      <trkpt lat="45.94029" lon="6.38235">
        <ele>1807</ele>
        <time>2026-08-19T10:03:50.344Z</time>
      </trkpt>
      <trkpt lat="45.94029" lon="6.38236">
        <ele>1807</ele>
        <time>2026-08-19T10:03:51.344Z</time>
      </trkpt>
      <trkpt lat="45.94029" lon="6.38238">
        <ele>1807</ele>
        <time>2026-08-19T10:03:52.344Z</time>
      </trkpt>
      <trkpt lat="45.94029" lon="6.38239">
        <ele>1806</ele>
        <time>2026-08-19T10:03:53.344Z</time>
      </trkpt>
      <trkpt lat="45.94029" lon="6.3824">
        <ele>1806</ele>
        <time>2026-08-19T10:03:54.344Z</time>
      </trkpt>
      <trkpt lat="45.9403" lon="6.38242">
        <ele>1806</ele>
        <time>2026-08-19T10:03:55.344Z</time>
      </trkpt>
      <trkpt lat="45.9403" lon="6.38243">
        <ele>1805</ele>
        <time>2026-08-19T10:03:56.344Z</time>
      </trkpt>
      <trkpt lat="45.94031" lon="6.38245">
        <ele>1805</ele>
        <time>2026-08-19T10:03:57.344Z</time>
      </trkpt>
      <trkpt lat="45.94032" lon="6.38246">
        <ele>1805</ele>
        <time>2026-08-19T10:03:58.344Z</time>
      </trkpt>
      <trkpt lat="45.94032" lon="6.38247">
        <ele>1805</ele>
        <time>2026-08-19T10:03:59.344Z</time>
      </trkpt>
      <trkpt lat="45.94033" lon="6.38249">
        <ele>1805</ele>
        <time>2026-08-19T10:04:00.344Z</time>
      </trkpt>
      <trkpt lat="45.94033" lon="6.3825">
        <ele>1805</ele>
        <time>2026-08-19T10:04:01.344Z</time>
      </trkpt>
      <trkpt lat="45.94034" lon="6.38252">
        <ele>1804</ele>
        <time>2026-08-19T10:04:02.344Z</time>
      </trkpt>
      <trkpt lat="45.94034" lon="6.38252">
        <ele>1804</ele>
        <time>2026-08-19T10:04:03.344Z</time>
      </trkpt>
      <trkpt lat="45.94035" lon="6.38252">
        <ele>1804</ele>
        <time>2026-08-19T10:04:04.344Z</time>
      </trkpt>
      <trkpt lat="45.94036" lon="6.38253">
        <ele>1804</ele>
        <time>2026-08-19T10:04:05.344Z</time>
      </trkpt>
      <trkpt lat="45.94037" lon="6.38254">
        <ele>1803</ele>
        <time>2026-08-19T10:04:06.344Z</time>
      </trkpt>
      <trkpt lat="45.94037" lon="6.38255">
        <ele>1803</ele>
        <time>2026-08-19T10:04:07.344Z</time>
      </trkpt>
      <trkpt lat="45.94037" lon="6.38256">
        <ele>1802</ele>
        <time>2026-08-19T10:04:08.344Z</time>
      </trkpt>
      <trkpt lat="45.94037" lon="6.38257">
        <ele>1802</ele>
        <time>2026-08-19T10:04:09.344Z</time>
      </trkpt>
      <trkpt lat="45.94037" lon="6.38258">
        <ele>1802</ele>
        <time>2026-08-19T10:04:10.344Z</time>
      </trkpt>
      <trkpt lat="45.94036" lon="6.38258">
        <ele>1802</ele>
        <time>2026-08-19T10:04:11.344Z</time>
      </trkpt>
      <trkpt lat="45.94036" lon="6.38258">
        <ele>1802</ele>
        <time>2026-08-19T10:04:12.344Z</time>
      </trkpt>
      <trkpt lat="45.94036" lon="6.38259">
        <ele>1802</ele>
        <time>2026-08-19T10:04:13.344Z</time>
      </trkpt>
      <trkpt lat="45.94036" lon="6.38259">
        <ele>1802</ele>
        <time>2026-08-19T10:04:14.344Z</time>
      </trkpt>
      <trkpt lat="45.94035" lon="6.3826">
        <ele>1802</ele>
        <time>2026-08-19T10:04:15.344Z</time>
      </trkpt>
      <trkpt lat="45.94035" lon="6.38261">
        <ele>1802</ele>
        <time>2026-08-19T10:04:16.344Z</time>
      </trkpt>
      <trkpt lat="45.94035" lon="6.38261">
        <ele>1802</ele>
        <time>2026-08-19T10:04:17.344Z</time>
      </trkpt>
      <trkpt lat="45.94034" lon="6.38262">
        <ele>1801</ele>
        <time>2026-08-19T10:04:18.344Z</time>
      </trkpt>
      <trkpt lat="45.94033" lon="6.38262">
        <ele>1801</ele>
        <time>2026-08-19T10:04:19.344Z</time>
      </trkpt>
      <trkpt lat="45.94033" lon="6.38263">
        <ele>1801</ele>
        <time>2026-08-19T10:04:20.344Z</time>
      </trkpt>
      <trkpt lat="45.94032" lon="6.38263">
        <ele>1801</ele>
        <time>2026-08-19T10:04:21.344Z</time>
      </trkpt>
      <trkpt lat="45.94031" lon="6.38263">
        <ele>1801</ele>
        <time>2026-08-19T10:04:22.344Z</time>
      </trkpt>
      <trkpt lat="45.94031" lon="6.38263">
        <ele>1800</ele>
        <time>2026-08-19T10:04:23.344Z</time>
      </trkpt>
      <trkpt lat="45.94031" lon="6.38264">
        <ele>1800</ele>
        <time>2026-08-19T10:04:24.344Z</time>
      </trkpt>
      <trkpt lat="45.9403" lon="6.38264">
        <ele>1799</ele>
        <time>2026-08-19T10:04:25.344Z</time>
      </trkpt>
      <trkpt lat="45.9403" lon="6.38265">
        <ele>1799</ele>
        <time>2026-08-19T10:04:26.344Z</time>
      </trkpt>
      <trkpt lat="45.9403" lon="6.38265">
        <ele>1799</ele>
        <time>2026-08-19T10:04:27.344Z</time>
      </trkpt>
      <trkpt lat="45.9403" lon="6.38265">
        <ele>1799</ele>
        <time>2026-08-19T10:04:28.344Z</time>
      </trkpt>
      <trkpt lat="45.94029" lon="6.38265">
        <ele>1799</ele>
        <time>2026-08-19T10:04:29.344Z</time>
      </trkpt>
      <trkpt lat="45.94028" lon="6.38266">
        <ele>1799</ele>
        <time>2026-08-19T10:04:30.344Z</time>
      </trkpt>
      <trkpt lat="45.94027" lon="6.38266">
        <ele>1799</ele>
        <time>2026-08-19T10:04:31.344Z</time>
      </trkpt>
      <trkpt lat="45.94027" lon="6.38266">
        <ele>1799</ele>
        <time>2026-08-19T10:04:32.344Z</time>
      </trkpt>
      <trkpt lat="45.94026" lon="6.38266">
        <ele>1799</ele>
        <time>2026-08-19T10:04:33.344Z</time>
      </trkpt>
      <trkpt lat="45.94026" lon="6.38267">
        <ele>1799</ele>
        <time>2026-08-19T10:04:34.344Z</time>
      </trkpt>
      <trkpt lat="45.94026" lon="6.38267">
        <ele>1799</ele>
        <time>2026-08-19T10:04:35.344Z</time>
      </trkpt>
      <trkpt lat="45.94026" lon="6.38268">
        <ele>1799</ele>
        <time>2026-08-19T10:04:36.344Z</time>
      </trkpt>
      <trkpt lat="45.94025" lon="6.38269">
        <ele>1798</ele>
        <time>2026-08-19T10:04:37.344Z</time>
      </trkpt>
      <trkpt lat="45.94024" lon="6.38269">
        <ele>1798</ele>
        <time>2026-08-19T10:04:38.344Z</time>
      </trkpt>
      <trkpt lat="45.94024" lon="6.38269">
        <ele>1798</ele>
        <time>2026-08-19T10:04:39.344Z</time>
      </trkpt>
      <trkpt lat="45.94023" lon="6.3827">
        <ele>1797</ele>
        <time>2026-08-19T10:04:40.344Z</time>
      </trkpt>
      <trkpt lat="45.94022" lon="6.3827">
        <ele>1797</ele>
        <time>2026-08-19T10:04:41.344Z</time>
      </trkpt>
      <trkpt lat="45.94021" lon="6.3827">
        <ele>1796</ele>
        <time>2026-08-19T10:04:42.344Z</time>
      </trkpt>
      <trkpt lat="45.9402" lon="6.3827">
        <ele>1796</ele>
        <time>2026-08-19T10:04:43.344Z</time>
      </trkpt>
      <trkpt lat="45.94019" lon="6.3827">
        <ele>1795</ele>
        <time>2026-08-19T10:04:44.344Z</time>
      </trkpt>
      <trkpt lat="45.94018" lon="6.3827">
        <ele>1794</ele>
        <time>2026-08-19T10:04:45.344Z</time>
      </trkpt>
      <trkpt lat="45.94017" lon="6.3827">
        <ele>1794</ele>
        <time>2026-08-19T10:04:46.345Z</time>
      </trkpt>
      <trkpt lat="45.94017" lon="6.3827">
        <ele>1793</ele>
        <time>2026-08-19T10:04:47.344Z</time>
      </trkpt>
      <trkpt lat="45.94016" lon="6.3827">
        <ele>1793</ele>
        <time>2026-08-19T10:04:48.344Z</time>
      </trkpt>
      <trkpt lat="45.94016" lon="6.38271">
        <ele>1793</ele>
        <time>2026-08-19T10:04:49.344Z</time>
      </trkpt>
      <trkpt lat="45.94015" lon="6.38271">
        <ele>1793</ele>
        <time>2026-08-19T10:04:50.344Z</time>
      </trkpt>
      <trkpt lat="45.94014" lon="6.38271">
        <ele>1793</ele>
        <time>2026-08-19T10:04:51.344Z</time>
      </trkpt>
      <trkpt lat="45.94014" lon="6.38272">
        <ele>1793</ele>
        <time>2026-08-19T10:04:52.344Z</time>
      </trkpt>
      <trkpt lat="45.94013" lon="6.38272">
        <ele>1792</ele>
        <time>2026-08-19T10:04:53.344Z</time>
      </trkpt>
      <trkpt lat="45.94012" lon="6.38272">
        <ele>1792</ele>
        <time>2026-08-19T10:04:54.344Z</time>
      </trkpt>
      <trkpt lat="45.94012" lon="6.38272">
        <ele>1791</ele>
        <time>2026-08-19T10:04:55.344Z</time>
      </trkpt>
      <trkpt lat="45.94011" lon="6.38272">
        <ele>1791</ele>
        <time>2026-08-19T10:04:56.344Z</time>
      </trkpt>
      <trkpt lat="45.9401" lon="6.38272">
        <ele>1790</ele>
        <time>2026-08-19T10:04:57.344Z</time>
      </trkpt>
      <trkpt lat="45.94009" lon="6.38272">
        <ele>1789</ele>
        <time>2026-08-19T10:04:58.344Z</time>
      </trkpt>
      <trkpt lat="45.94008" lon="6.38272">
        <ele>1789</ele>
        <time>2026-08-19T10:04:59.344Z</time>
      </trkpt>
      <trkpt lat="45.94008" lon="6.38272">
        <ele>1789</ele>
        <time>2026-08-19T10:05:00.344Z</time>
      </trkpt>
      <trkpt lat="45.94007" lon="6.38273">
        <ele>1789</ele>
        <time>2026-08-19T10:05:01.344Z</time>
      </trkpt>
      <trkpt lat="45.94006" lon="6.38273">
        <ele>1789</ele>
        <time>2026-08-19T10:05:02.344Z</time>
      </trkpt>
      <trkpt lat="45.94005" lon="6.38273">
        <ele>1789</ele>
        <time>2026-08-19T10:05:03.344Z</time>
      </trkpt>
      <trkpt lat="45.94004" lon="6.38273">
        <ele>1788</ele>
        <time>2026-08-19T10:05:04.344Z</time>
      </trkpt>
      <trkpt lat="45.94003" lon="6.38273">
        <ele>1788</ele>
        <time>2026-08-19T10:05:05.344Z</time>
      </trkpt>
      <trkpt lat="45.94003" lon="6.38273">
        <ele>1788</ele>
        <time>2026-08-19T10:05:06.344Z</time>
      </trkpt>
      <trkpt lat="45.94002" lon="6.38272">
        <ele>1787</ele>
        <time>2026-08-19T10:05:07.344Z</time>
      </trkpt>
      <trkpt lat="45.94001" lon="6.38272">
        <ele>1787</ele>
        <time>2026-08-19T10:05:08.344Z</time>
      </trkpt>
      <trkpt lat="45.94" lon="6.38272">
        <ele>1786</ele>
        <time>2026-08-19T10:05:09.344Z</time>
      </trkpt>
      <trkpt lat="45.94" lon="6.38272">
        <ele>1786</ele>
        <time>2026-08-19T10:05:10.344Z</time>
      </trkpt>
      <trkpt lat="45.93999" lon="6.38272">
        <ele>1785</ele>
        <time>2026-08-19T10:05:11.344Z</time>
      </trkpt>
      <trkpt lat="45.93998" lon="6.38272">
        <ele>1785</ele>
        <time>2026-08-19T10:05:12.344Z</time>
      </trkpt>
      <trkpt lat="45.93998" lon="6.38272">
        <ele>1784</ele>
        <time>2026-08-19T10:05:13.344Z</time>
      </trkpt>
      <trkpt lat="45.93997" lon="6.38272">
        <ele>1784</ele>
        <time>2026-08-19T10:05:14.345Z</time>
      </trkpt>
      <trkpt lat="45.93997" lon="6.38273">
        <ele>1784</ele>
        <time>2026-08-19T10:05:15.344Z</time>
      </trkpt>
      <trkpt lat="45.93995" lon="6.38273">
        <ele>1784</ele>
        <time>2026-08-19T10:05:16.344Z</time>
      </trkpt>
      <trkpt lat="45.93995" lon="6.38273">
        <ele>1784</ele>
        <time>2026-08-19T10:05:17.344Z</time>
      </trkpt>
      <trkpt lat="45.93994" lon="6.38273">
        <ele>1783</ele>
        <time>2026-08-19T10:05:18.344Z</time>
      </trkpt>
      <trkpt lat="45.93994" lon="6.38274">
        <ele>1783</ele>
        <time>2026-08-19T10:05:19.344Z</time>
      </trkpt>
      <trkpt lat="45.93994" lon="6.38274">
        <ele>1783</ele>
        <time>2026-08-19T10:05:20.344Z</time>
      </trkpt>
      <trkpt lat="45.93994" lon="6.38275">
        <ele>1783</ele>
        <time>2026-08-19T10:05:21.344Z</time>
      </trkpt>
      <trkpt lat="45.93994" lon="6.38276">
        <ele>1782</ele>
        <time>2026-08-19T10:05:22.344Z</time>
      </trkpt>
      <trkpt lat="45.93994" lon="6.38276">
        <ele>1782</ele>
        <time>2026-08-19T10:05:23.344Z</time>
      </trkpt>
      <trkpt lat="45.93993" lon="6.38276">
        <ele>1782</ele>
        <time>2026-08-19T10:05:24.344Z</time>
      </trkpt>
      <trkpt lat="45.93993" lon="6.38276">
        <ele>1782</ele>
        <time>2026-08-19T10:05:25.344Z</time>
      </trkpt>
      <trkpt lat="45.93992" lon="6.38275">
        <ele>1781</ele>
        <time>2026-08-19T10:05:26.344Z</time>
      </trkpt>
      <trkpt lat="45.93992" lon="6.38275">
        <ele>1781</ele>
        <time>2026-08-19T10:05:27.344Z</time>
      </trkpt>
      <trkpt lat="45.93991" lon="6.38275">
        <ele>1781</ele>
        <time>2026-08-19T10:05:28.344Z</time>
      </trkpt>
      <trkpt lat="45.93991" lon="6.38274">
        <ele>1780</ele>
        <time>2026-08-19T10:05:29.344Z</time>
      </trkpt>
      <trkpt lat="45.93991" lon="6.38275">
        <ele>1780</ele>
        <time>2026-08-19T10:05:30.344Z</time>
      </trkpt>
      <trkpt lat="45.93991" lon="6.38276">
        <ele>1780</ele>
        <time>2026-08-19T10:05:31.344Z</time>
      </trkpt>
      <trkpt lat="45.93991" lon="6.38277">
        <ele>1780</ele>
        <time>2026-08-19T10:05:32.344Z</time>
      </trkpt>
      <trkpt lat="45.93991" lon="6.38278">
        <ele>1780</ele>
        <time>2026-08-19T10:05:33.344Z</time>
      </trkpt>
      <trkpt lat="45.93991" lon="6.38279">
        <ele>1780</ele>
        <time>2026-08-19T10:05:34.344Z</time>
      </trkpt>
      <trkpt lat="45.93991" lon="6.38279">
        <ele>1780</ele>
        <time>2026-08-19T10:05:35.344Z</time>
      </trkpt>
      <trkpt lat="45.93992" lon="6.3828">
        <ele>1779</ele>
        <time>2026-08-19T10:05:36.344Z</time>
      </trkpt>
      <trkpt lat="45.93992" lon="6.38281">
        <ele>1779</ele>
        <time>2026-08-19T10:05:37.344Z</time>
      </trkpt>
      <trkpt lat="45.93991" lon="6.38282">
        <ele>1779</ele>
        <time>2026-08-19T10:05:38.344Z</time>
      </trkpt>
      <trkpt lat="45.93991" lon="6.38282">
        <ele>1779</ele>
        <time>2026-08-19T10:05:39.344Z</time>
      </trkpt>
      <trkpt lat="45.93991" lon="6.38283">
        <ele>1779</ele>
        <time>2026-08-19T10:05:40.344Z</time>
      </trkpt>
      <trkpt lat="45.9399" lon="6.38284">
        <ele>1779</ele>
        <time>2026-08-19T10:05:41.344Z</time>
      </trkpt>
      <trkpt lat="45.9399" lon="6.38285">
        <ele>1779</ele>
        <time>2026-08-19T10:05:42.344Z</time>
      </trkpt>
      <trkpt lat="45.9399" lon="6.38286">
        <ele>1779</ele>
        <time>2026-08-19T10:05:43.344Z</time>
      </trkpt>
      <trkpt lat="45.9399" lon="6.38286">
        <ele>1779</ele>
        <time>2026-08-19T10:05:44.344Z</time>
      </trkpt>
      <trkpt lat="45.9399" lon="6.38286">
        <ele>1779</ele>
        <time>2026-08-19T10:05:45.345Z</time>
      </trkpt>
      <trkpt lat="45.9399" lon="6.38287">
        <ele>1779</ele>
        <time>2026-08-19T10:05:46.344Z</time>
      </trkpt>
      <trkpt lat="45.9399" lon="6.38287">
        <ele>1779</ele>
        <time>2026-08-19T10:05:47.345Z</time>
      </trkpt>
      <trkpt lat="45.9399" lon="6.38287">
        <ele>1778</ele>
        <time>2026-08-19T10:05:48.344Z</time>
      </trkpt>
      <trkpt lat="45.9399" lon="6.38288">
        <ele>1777</ele>
        <time>2026-08-19T10:05:49.345Z</time>
      </trkpt>
      <trkpt lat="45.9399" lon="6.38288">
        <ele>1777</ele>
        <time>2026-08-19T10:05:50.344Z</time>
      </trkpt>
      <trkpt lat="45.93989" lon="6.38289">
        <ele>1776</ele>
        <time>2026-08-19T10:05:51.344Z</time>
      </trkpt>
      <trkpt lat="45.93989" lon="6.3829">
        <ele>1775</ele>
        <time>2026-08-19T10:05:52.344Z</time>
      </trkpt>
      <trkpt lat="45.93989" lon="6.3829">
        <ele>1775</ele>
        <time>2026-08-19T10:05:53.344Z</time>
      </trkpt>
      <trkpt lat="45.93989" lon="6.38291">
        <ele>1774</ele>
        <time>2026-08-19T10:05:54.344Z</time>
      </trkpt>
      <trkpt lat="45.93989" lon="6.38292">
        <ele>1774</ele>
        <time>2026-08-19T10:05:55.344Z</time>
      </trkpt>
      <trkpt lat="45.93989" lon="6.38292">
        <ele>1774</ele>
        <time>2026-08-19T10:05:56.345Z</time>
      </trkpt>
      <trkpt lat="45.93989" lon="6.38292">
        <ele>1773</ele>
        <time>2026-08-19T10:05:57.344Z</time>
      </trkpt>
      <trkpt lat="45.93989" lon="6.38293">
        <ele>1773</ele>
        <time>2026-08-19T10:05:58.344Z</time>
      </trkpt>
      <trkpt lat="45.93988" lon="6.38293">
        <ele>1773</ele>
        <time>2026-08-19T10:05:59.344Z</time>
      </trkpt>
      <trkpt lat="45.93988" lon="6.38294">
        <ele>1774</ele>
        <time>2026-08-19T10:06:00.344Z</time>
      </trkpt>
      <trkpt lat="45.93988" lon="6.38294">
        <ele>1773</ele>
        <time>2026-08-19T10:06:01.344Z</time>
      </trkpt>
      <trkpt lat="45.93988" lon="6.38295">
        <ele>1773</ele>
        <time>2026-08-19T10:06:02.344Z</time>
      </trkpt>
      <trkpt lat="45.93988" lon="6.38295">
        <ele>1772</ele>
        <time>2026-08-19T10:06:03.344Z</time>
      </trkpt>
      <trkpt lat="45.93987" lon="6.38295">
        <ele>1772</ele>
        <time>2026-08-19T10:06:04.344Z</time>
      </trkpt>
      <trkpt lat="45.93987" lon="6.38296">
        <ele>1772</ele>
        <time>2026-08-19T10:06:05.344Z</time>
      </trkpt>
      <trkpt lat="45.93986" lon="6.38296">
        <ele>1772</ele>
        <time>2026-08-19T10:06:06.344Z</time>
      </trkpt>
      <trkpt lat="45.93985" lon="6.38296">
        <ele>1772</ele>
        <time>2026-08-19T10:06:07.345Z</time>
      </trkpt>
      <trkpt lat="45.93985" lon="6.38296">
        <ele>1771</ele>
        <time>2026-08-19T10:06:08.344Z</time>
      </trkpt>
      <trkpt lat="45.93984" lon="6.38297">
        <ele>1771</ele>
        <time>2026-08-19T10:06:09.344Z</time>
      </trkpt>
      <trkpt lat="45.93983" lon="6.38297">
        <ele>1771</ele>
        <time>2026-08-19T10:06:10.344Z</time>
      </trkpt>
      <trkpt lat="45.93982" lon="6.38298">
        <ele>1770</ele>
        <time>2026-08-19T10:06:11.344Z</time>
      </trkpt>
      <trkpt lat="45.93982" lon="6.38298">
        <ele>1770</ele>
        <time>2026-08-19T10:06:12.344Z</time>
      </trkpt>
      <trkpt lat="45.93981" lon="6.38299">
        <ele>1770</ele>
        <time>2026-08-19T10:06:13.344Z</time>
      </trkpt>
      <trkpt lat="45.93981" lon="6.383">
        <ele>1770</ele>
        <time>2026-08-19T10:06:14.344Z</time>
      </trkpt>
      <trkpt lat="45.93981" lon="6.38301">
        <ele>1769</ele>
        <time>2026-08-19T10:06:15.344Z</time>
      </trkpt>
      <trkpt lat="45.93982" lon="6.38302">
        <ele>1769</ele>
        <time>2026-08-19T10:06:16.344Z</time>
      </trkpt>
      <trkpt lat="45.93982" lon="6.38303">
        <ele>1768</ele>
        <time>2026-08-19T10:06:17.344Z</time>
      </trkpt>
      <trkpt lat="45.93982" lon="6.38303">
        <ele>1768</ele>
        <time>2026-08-19T10:06:18.344Z</time>
      </trkpt>
      <trkpt lat="45.93982" lon="6.38303">
        <ele>1768</ele>
        <time>2026-08-19T10:06:19.344Z</time>
      </trkpt>
      <trkpt lat="45.93983" lon="6.38303">
        <ele>1768</ele>
        <time>2026-08-19T10:06:20.344Z</time>
      </trkpt>
      <trkpt lat="45.93982" lon="6.38304">
        <ele>1767</ele>
        <time>2026-08-19T10:06:21.344Z</time>
      </trkpt>
      <trkpt lat="45.93982" lon="6.38305">
        <ele>1767</ele>
        <time>2026-08-19T10:06:22.344Z</time>
      </trkpt>
      <trkpt lat="45.93982" lon="6.38306">
        <ele>1766</ele>
        <time>2026-08-19T10:06:23.344Z</time>
      </trkpt>
      <trkpt lat="45.93983" lon="6.38308">
        <ele>1765</ele>
        <time>2026-08-19T10:06:24.344Z</time>
      </trkpt>
      <trkpt lat="45.93983" lon="6.38308">
        <ele>1765</ele>
        <time>2026-08-19T10:06:25.344Z</time>
      </trkpt>
      <trkpt lat="45.93983" lon="6.38309">
        <ele>1764</ele>
        <time>2026-08-19T10:06:26.344Z</time>
      </trkpt>
      <trkpt lat="45.93983" lon="6.38309">
        <ele>1764</ele>
        <time>2026-08-19T10:06:27.344Z</time>
      </trkpt>
      <trkpt lat="45.93984" lon="6.3831">
        <ele>1763</ele>
        <time>2026-08-19T10:06:28.344Z</time>
      </trkpt>
      <trkpt lat="45.93984" lon="6.38311">
        <ele>1763</ele>
        <time>2026-08-19T10:06:29.344Z</time>
      </trkpt>
      <trkpt lat="45.93984" lon="6.38312">
        <ele>1763</ele>
        <time>2026-08-19T10:06:30.344Z</time>
      </trkpt>
      <trkpt lat="45.93984" lon="6.38312">
        <ele>1763</ele>
        <time>2026-08-19T10:06:31.344Z</time>
      </trkpt>
      <trkpt lat="45.93983" lon="6.38313">
        <ele>1763</ele>
        <time>2026-08-19T10:06:32.344Z</time>
      </trkpt>
      <trkpt lat="45.93984" lon="6.38313">
        <ele>1762</ele>
        <time>2026-08-19T10:06:33.344Z</time>
      </trkpt>
      <trkpt lat="45.93983" lon="6.38313">
        <ele>1762</ele>
        <time>2026-08-19T10:06:34.344Z</time>
      </trkpt>
      <trkpt lat="45.93983" lon="6.38313">
        <ele>1762</ele>
        <time>2026-08-19T10:06:35.344Z</time>
      </trkpt>
      <trkpt lat="45.93983" lon="6.38313">
        <ele>1761</ele>
        <time>2026-08-19T10:06:36.344Z</time>
      </trkpt>
      <trkpt lat="45.93983" lon="6.38313">
        <ele>1761</ele>
        <time>2026-08-19T10:06:37.344Z</time>
      </trkpt>
      <trkpt lat="45.93983" lon="6.38313">
        <ele>1760</ele>
        <time>2026-08-19T10:06:38.344Z</time>
      </trkpt>
      <trkpt lat="45.93983" lon="6.38313">
        <ele>1760</ele>
        <time>2026-08-19T10:06:39.345Z</time>
      </trkpt>
      <trkpt lat="45.93983" lon="6.38313">
        <ele>1759</ele>
        <time>2026-08-19T10:06:40.344Z</time>
      </trkpt>
      <trkpt lat="45.93983" lon="6.38313">
        <ele>1759</ele>
        <time>2026-08-19T10:06:41.344Z</time>
      </trkpt>
      <trkpt lat="45.93983" lon="6.38313">
        <ele>1759</ele>
        <time>2026-08-19T10:06:42.344Z</time>
      </trkpt>
      <trkpt lat="45.93983" lon="6.38313">
        <ele>1759</ele>
        <time>2026-08-19T10:06:43.344Z</time>
      </trkpt>
      <trkpt lat="45.93983" lon="6.38313">
        <ele>1758</ele>
        <time>2026-08-19T10:06:44.344Z</time>
      </trkpt>
      <trkpt lat="45.93983" lon="6.38313">
        <ele>1758</ele>
        <time>2026-08-19T10:06:45.344Z</time>
      </trkpt>
      <trkpt lat="45.93983" lon="6.38313">
        <ele>1758</ele>
        <time>2026-08-19T10:06:46.344Z</time>
      </trkpt>
      <trkpt lat="45.93983" lon="6.38313">
        <ele>1758</ele>
        <time>2026-08-19T10:06:47.344Z</time>
      </trkpt>
      <trkpt lat="45.93983" lon="6.38313">
        <ele>1758</ele>
        <time>2026-08-19T10:06:48.344Z</time>
      </trkpt>
      <trkpt lat="45.93983" lon="6.38313">
        <ele>1758</ele>
        <time>2026-08-19T10:06:49.344Z</time>
      </trkpt>
      <trkpt lat="45.93983" lon="6.38313">
        <ele>1758</ele>
        <time>2026-08-19T10:06:50.344Z</time>
      </trkpt>
      <trkpt lat="45.93984" lon="6.38313">
        <ele>1758</ele>
        <time>2026-08-19T10:06:51.344Z</time>
      </trkpt>
      <trkpt lat="45.93983" lon="6.38314">
        <ele>1758</ele>
        <time>2026-08-19T10:06:52.344Z</time>
      </trkpt>
      <trkpt lat="45.93984" lon="6.38315">
        <ele>1758</ele>
        <time>2026-08-19T10:06:53.344Z</time>
      </trkpt>
      <trkpt lat="45.93984" lon="6.38316">
        <ele>1758</ele>
        <time>2026-08-19T10:06:54.344Z</time>
      </trkpt>
      <trkpt lat="45.93984" lon="6.38317">
        <ele>1758</ele>
        <time>2026-08-19T10:06:55.344Z</time>
      </trkpt>
      <trkpt lat="45.93984" lon="6.38317">
        <ele>1759</ele>
        <time>2026-08-19T10:06:56.344Z</time>
      </trkpt>
      <trkpt lat="45.93984" lon="6.38318">
        <ele>1759</ele>
        <time>2026-08-19T10:06:57.344Z</time>
      </trkpt>
      <trkpt lat="45.93984" lon="6.38318">
        <ele>1759</ele>
        <time>2026-08-19T10:06:58.344Z</time>
      </trkpt>
      <trkpt lat="45.93984" lon="6.38319">
        <ele>1760</ele>
        <time>2026-08-19T10:06:59.345Z</time>
      </trkpt>
      <trkpt lat="45.93984" lon="6.38319">
        <ele>1760</ele>
        <time>2026-08-19T10:07:00.344Z</time>
      </trkpt>
      <trkpt lat="45.93983" lon="6.38319">
        <ele>1760</ele>
        <time>2026-08-19T10:07:01.344Z</time>
      </trkpt>
      <trkpt lat="45.93982" lon="6.38319">
        <ele>1760</ele>
        <time>2026-08-19T10:07:02.344Z</time>
      </trkpt>
      <trkpt lat="45.93982" lon="6.38319">
        <ele>1759</ele>
        <time>2026-08-19T10:07:03.344Z</time>
      </trkpt>
      <trkpt lat="45.93981" lon="6.38319">
        <ele>1759</ele>
        <time>2026-08-19T10:07:04.344Z</time>
      </trkpt>
      <trkpt lat="45.9398" lon="6.38318">
        <ele>1759</ele>
        <time>2026-08-19T10:07:05.344Z</time>
      </trkpt>
      <trkpt lat="45.9398" lon="6.38318">
        <ele>1758</ele>
        <time>2026-08-19T10:07:06.344Z</time>
      </trkpt>
      <trkpt lat="45.93979" lon="6.38318">
        <ele>1758</ele>
        <time>2026-08-19T10:07:07.344Z</time>
      </trkpt>
      <trkpt lat="45.93978" lon="6.38318">
        <ele>1758</ele>
        <time>2026-08-19T10:07:08.344Z</time>
      </trkpt>
      <trkpt lat="45.93978" lon="6.38318">
        <ele>1759</ele>
        <time>2026-08-19T10:07:09.344Z</time>
      </trkpt>
      <trkpt lat="45.93977" lon="6.38318">
        <ele>1759</ele>
        <time>2026-08-19T10:07:10.344Z</time>
      </trkpt>
      <trkpt lat="45.93976" lon="6.38317">
        <ele>1759</ele>
        <time>2026-08-19T10:07:11.344Z</time>
      </trkpt>
      <trkpt lat="45.93976" lon="6.38316">
        <ele>1759</ele>
        <time>2026-08-19T10:07:12.344Z</time>
      </trkpt>
      <trkpt lat="45.93975" lon="6.38315">
        <ele>1759</ele>
        <time>2026-08-19T10:07:13.344Z</time>
      </trkpt>
      <trkpt lat="45.93974" lon="6.38315">
        <ele>1759</ele>
        <time>2026-08-19T10:07:14.344Z</time>
      </trkpt>
      <trkpt lat="45.93974" lon="6.38314">
        <ele>1759</ele>
        <time>2026-08-19T10:07:15.344Z</time>
      </trkpt>
      <trkpt lat="45.93974" lon="6.38313">
        <ele>1758</ele>
        <time>2026-08-19T10:07:16.344Z</time>
      </trkpt>
      <trkpt lat="45.93973" lon="6.38313">
        <ele>1758</ele>
        <time>2026-08-19T10:07:17.344Z</time>
      </trkpt>
      <trkpt lat="45.93972" lon="6.38312">
        <ele>1758</ele>
        <time>2026-08-19T10:07:18.344Z</time>
      </trkpt>
      <trkpt lat="45.93972" lon="6.38312">
        <ele>1758</ele>
        <time>2026-08-19T10:07:19.344Z</time>
      </trkpt>
      <trkpt lat="45.93971" lon="6.38313">
        <ele>1758</ele>
        <time>2026-08-19T10:07:20.344Z</time>
      </trkpt>
      <trkpt lat="45.9397" lon="6.38313">
        <ele>1757</ele>
        <time>2026-08-19T10:07:21.344Z</time>
      </trkpt>
      <trkpt lat="45.9397" lon="6.38312">
        <ele>1756</ele>
        <time>2026-08-19T10:07:22.344Z</time>
      </trkpt>
      <trkpt lat="45.93969" lon="6.38311">
        <ele>1756</ele>
        <time>2026-08-19T10:07:23.344Z</time>
      </trkpt>
      <trkpt lat="45.93968" lon="6.38311">
        <ele>1755</ele>
        <time>2026-08-19T10:07:24.344Z</time>
      </trkpt>
      <trkpt lat="45.93968" lon="6.3831">
        <ele>1755</ele>
        <time>2026-08-19T10:07:25.344Z</time>
      </trkpt>
      <trkpt lat="45.93967" lon="6.3831">
        <ele>1754</ele>
        <time>2026-08-19T10:07:26.344Z</time>
      </trkpt>
      <trkpt lat="45.93966" lon="6.38309">
        <ele>1754</ele>
        <time>2026-08-19T10:07:27.344Z</time>
      </trkpt>
      <trkpt lat="45.93966" lon="6.38309">
        <ele>1753</ele>
        <time>2026-08-19T10:07:28.344Z</time>
      </trkpt>
      <trkpt lat="45.93966" lon="6.38308">
        <ele>1752</ele>
        <time>2026-08-19T10:07:29.344Z</time>
      </trkpt>
      <trkpt lat="45.93965" lon="6.38308">
        <ele>1752</ele>
        <time>2026-08-19T10:07:30.344Z</time>
      </trkpt>
      <trkpt lat="45.93964" lon="6.38309">
        <ele>1751</ele>
        <time>2026-08-19T10:07:31.344Z</time>
      </trkpt>
      <trkpt lat="45.93963" lon="6.3831">
        <ele>1751</ele>
        <time>2026-08-19T10:07:32.344Z</time>
      </trkpt>
      <trkpt lat="45.93962" lon="6.3831">
        <ele>1750</ele>
        <time>2026-08-19T10:07:33.344Z</time>
      </trkpt>
      <trkpt lat="45.93961" lon="6.3831">
        <ele>1750</ele>
        <time>2026-08-19T10:07:34.344Z</time>
      </trkpt>
      <trkpt lat="45.93961" lon="6.3831">
        <ele>1750</ele>
        <time>2026-08-19T10:07:35.344Z</time>
      </trkpt>
      <trkpt lat="45.9396" lon="6.3831">
        <ele>1749</ele>
        <time>2026-08-19T10:07:36.345Z</time>
      </trkpt>
      <trkpt lat="45.9396" lon="6.38309">
        <ele>1749</ele>
        <time>2026-08-19T10:07:37.344Z</time>
      </trkpt>
      <trkpt lat="45.93959" lon="6.38309">
        <ele>1749</ele>
        <time>2026-08-19T10:07:38.344Z</time>
      </trkpt>
      <trkpt lat="45.93959" lon="6.38309">
        <ele>1748</ele>
        <time>2026-08-19T10:07:39.344Z</time>
      </trkpt>
      <trkpt lat="45.93959" lon="6.38309">
        <ele>1748</ele>
        <time>2026-08-19T10:07:40.344Z</time>
      </trkpt>
      <trkpt lat="45.93958" lon="6.38309">
        <ele>1748</ele>
        <time>2026-08-19T10:07:41.344Z</time>
      </trkpt>
      <trkpt lat="45.93958" lon="6.3831">
        <ele>1748</ele>
        <time>2026-08-19T10:07:42.344Z</time>
      </trkpt>
      <trkpt lat="45.93958" lon="6.3831">
        <ele>1748</ele>
        <time>2026-08-19T10:07:43.344Z</time>
      </trkpt>
      <trkpt lat="45.93957" lon="6.3831">
        <ele>1748</ele>
        <time>2026-08-19T10:07:44.344Z</time>
      </trkpt>
      <trkpt lat="45.93957" lon="6.3831">
        <ele>1748</ele>
        <time>2026-08-19T10:07:45.344Z</time>
      </trkpt>
      <trkpt lat="45.93957" lon="6.38309">
        <ele>1748</ele>
        <time>2026-08-19T10:07:46.344Z</time>
      </trkpt>
      <trkpt lat="45.93956" lon="6.38309">
        <ele>1747</ele>
        <time>2026-08-19T10:07:47.344Z</time>
      </trkpt>
      <trkpt lat="45.93956" lon="6.38309">
        <ele>1747</ele>
        <time>2026-08-19T10:07:48.344Z</time>
      </trkpt>
      <trkpt lat="45.93955" lon="6.38309">
        <ele>1746</ele>
        <time>2026-08-19T10:07:49.344Z</time>
      </trkpt>
      <trkpt lat="45.93955" lon="6.38308">
        <ele>1746</ele>
        <time>2026-08-19T10:07:50.345Z</time>
      </trkpt>
      <trkpt lat="45.93954" lon="6.38308">
        <ele>1746</ele>
        <time>2026-08-19T10:07:51.344Z</time>
      </trkpt>
      <trkpt lat="45.93954" lon="6.38308">
        <ele>1745</ele>
        <time>2026-08-19T10:07:52.344Z</time>
      </trkpt>
      <trkpt lat="45.93954" lon="6.38309">
        <ele>1745</ele>
        <time>2026-08-19T10:07:53.344Z</time>
      </trkpt>
      <trkpt lat="45.93954" lon="6.38309">
        <ele>1744</ele>
        <time>2026-08-19T10:07:54.344Z</time>
      </trkpt>
      <trkpt lat="45.93954" lon="6.38309">
        <ele>1744</ele>
        <time>2026-08-19T10:07:55.344Z</time>
      </trkpt>
      <trkpt lat="45.93953" lon="6.38308">
        <ele>1743</ele>
        <time>2026-08-19T10:07:56.345Z</time>
      </trkpt>
      <trkpt lat="45.93953" lon="6.38307">
        <ele>1743</ele>
        <time>2026-08-19T10:07:57.344Z</time>
      </trkpt>
      <trkpt lat="45.93952" lon="6.38307">
        <ele>1743</ele>
        <time>2026-08-19T10:07:58.344Z</time>
      </trkpt>
      <trkpt lat="45.93952" lon="6.38307">
        <ele>1742</ele>
        <time>2026-08-19T10:07:59.344Z</time>
      </trkpt>
      <trkpt lat="45.93952" lon="6.38307">
        <ele>1742</ele>
        <time>2026-08-19T10:08:00.344Z</time>
      </trkpt>
      <trkpt lat="45.93952" lon="6.38308">
        <ele>1742</ele>
        <time>2026-08-19T10:08:01.344Z</time>
      </trkpt>
      <trkpt lat="45.93952" lon="6.38308">
        <ele>1741</ele>
        <time>2026-08-19T10:08:02.344Z</time>
      </trkpt>
      <trkpt lat="45.93951" lon="6.38307">
        <ele>1740</ele>
        <time>2026-08-19T10:08:03.344Z</time>
      </trkpt>
      <trkpt lat="45.93951" lon="6.38307">
        <ele>1740</ele>
        <time>2026-08-19T10:08:04.344Z</time>
      </trkpt>
      <trkpt lat="45.9395" lon="6.38306">
        <ele>1739</ele>
        <time>2026-08-19T10:08:05.344Z</time>
      </trkpt>
      <trkpt lat="45.93949" lon="6.38306">
        <ele>1739</ele>
        <time>2026-08-19T10:08:06.344Z</time>
      </trkpt>
      <trkpt lat="45.93948" lon="6.38306">
        <ele>1739</ele>
        <time>2026-08-19T10:08:07.345Z</time>
      </trkpt>
      <trkpt lat="45.93947" lon="6.38305">
        <ele>1738</ele>
        <time>2026-08-19T10:08:08.344Z</time>
      </trkpt>
      <trkpt lat="45.93947" lon="6.38305">
        <ele>1738</ele>
        <time>2026-08-19T10:08:09.344Z</time>
      </trkpt>
      <trkpt lat="45.93946" lon="6.38304">
        <ele>1738</ele>
        <time>2026-08-19T10:08:10.344Z</time>
      </trkpt>
      <trkpt lat="45.93945" lon="6.38304">
        <ele>1738</ele>
        <time>2026-08-19T10:08:11.344Z</time>
      </trkpt>
      <trkpt lat="45.93944" lon="6.38304">
        <ele>1738</ele>
        <time>2026-08-19T10:08:12.344Z</time>
      </trkpt>
      <trkpt lat="45.93943" lon="6.38304">
        <ele>1738</ele>
        <time>2026-08-19T10:08:13.344Z</time>
      </trkpt>
      <trkpt lat="45.93942" lon="6.38305">
        <ele>1738</ele>
        <time>2026-08-19T10:08:14.344Z</time>
      </trkpt>
      <trkpt lat="45.93941" lon="6.38305">
        <ele>1738</ele>
        <time>2026-08-19T10:08:15.344Z</time>
      </trkpt>
      <trkpt lat="45.9394" lon="6.38304">
        <ele>1738</ele>
        <time>2026-08-19T10:08:16.344Z</time>
      </trkpt>
      <trkpt lat="45.93939" lon="6.38304">
        <ele>1738</ele>
        <time>2026-08-19T10:08:17.344Z</time>
      </trkpt>
      <trkpt lat="45.93939" lon="6.38303">
        <ele>1738</ele>
        <time>2026-08-19T10:08:18.344Z</time>
      </trkpt>
      <trkpt lat="45.93938" lon="6.38302">
        <ele>1737</ele>
        <time>2026-08-19T10:08:19.345Z</time>
      </trkpt>
      <trkpt lat="45.93938" lon="6.38302">
        <ele>1737</ele>
        <time>2026-08-19T10:08:20.344Z</time>
      </trkpt>
      <trkpt lat="45.93937" lon="6.38301">
        <ele>1736</ele>
        <time>2026-08-19T10:08:21.344Z</time>
      </trkpt>
      <trkpt lat="45.93936" lon="6.38301">
        <ele>1736</ele>
        <time>2026-08-19T10:08:22.344Z</time>
      </trkpt>
      <trkpt lat="45.93935" lon="6.383">
        <ele>1735</ele>
        <time>2026-08-19T10:08:23.344Z</time>
      </trkpt>
      <trkpt lat="45.93935" lon="6.383">
        <ele>1735</ele>
        <time>2026-08-19T10:08:24.344Z</time>
      </trkpt>
      <trkpt lat="45.93934" lon="6.38299">
        <ele>1734</ele>
        <time>2026-08-19T10:08:25.344Z</time>
      </trkpt>
      <trkpt lat="45.93934" lon="6.38299">
        <ele>1734</ele>
        <time>2026-08-19T10:08:26.344Z</time>
      </trkpt>
      <trkpt lat="45.93934" lon="6.38299">
        <ele>1734</ele>
        <time>2026-08-19T10:08:27.344Z</time>
      </trkpt>
      <trkpt lat="45.93933" lon="6.38298">
        <ele>1733</ele>
        <time>2026-08-19T10:08:28.344Z</time>
      </trkpt>
      <trkpt lat="45.93933" lon="6.38298">
        <ele>1733</ele>
        <time>2026-08-19T10:08:29.344Z</time>
      </trkpt>
      <trkpt lat="45.93932" lon="6.38298">
        <ele>1733</ele>
        <time>2026-08-19T10:08:30.344Z</time>
      </trkpt>
      <trkpt lat="45.93932" lon="6.38298">
        <ele>1733</ele>
        <time>2026-08-19T10:08:31.344Z</time>
      </trkpt>
      <trkpt lat="45.93931" lon="6.38298">
        <ele>1733</ele>
        <time>2026-08-19T10:08:32.344Z</time>
      </trkpt>
      <trkpt lat="45.93931" lon="6.38297">
        <ele>1733</ele>
        <time>2026-08-19T10:08:33.344Z</time>
      </trkpt>
      <trkpt lat="45.9393" lon="6.38297">
        <ele>1732</ele>
        <time>2026-08-19T10:08:34.344Z</time>
      </trkpt>
      <trkpt lat="45.9393" lon="6.38296">
        <ele>1732</ele>
        <time>2026-08-19T10:08:35.344Z</time>
      </trkpt>
      <trkpt lat="45.93929" lon="6.38296">
        <ele>1732</ele>
        <time>2026-08-19T10:08:36.345Z</time>
      </trkpt>
      <trkpt lat="45.93929" lon="6.38296">
        <ele>1731</ele>
        <time>2026-08-19T10:08:37.344Z</time>
      </trkpt>
      <trkpt lat="45.93928" lon="6.38296">
        <ele>1731</ele>
        <time>2026-08-19T10:08:38.344Z</time>
      </trkpt>
      <trkpt lat="45.93928" lon="6.38296">
        <ele>1731</ele>
        <time>2026-08-19T10:08:39.344Z</time>
      </trkpt>
      <trkpt lat="45.93928" lon="6.38296">
        <ele>1731</ele>
        <time>2026-08-19T10:08:40.344Z</time>
      </trkpt>
      <trkpt lat="45.93928" lon="6.38296">
        <ele>1731</ele>
        <time>2026-08-19T10:08:41.344Z</time>
      </trkpt>
      <trkpt lat="45.93927" lon="6.38296">
        <ele>1730</ele>
        <time>2026-08-19T10:08:42.344Z</time>
      </trkpt>
      <trkpt lat="45.93927" lon="6.38296">
        <ele>1730</ele>
        <time>2026-08-19T10:08:43.344Z</time>
      </trkpt>
      <trkpt lat="45.93926" lon="6.38296">
        <ele>1729</ele>
        <time>2026-08-19T10:08:44.344Z</time>
      </trkpt>
      <trkpt lat="45.93926" lon="6.38296">
        <ele>1729</ele>
        <time>2026-08-19T10:08:45.344Z</time>
      </trkpt>
      <trkpt lat="45.93926" lon="6.38296">
        <ele>1728</ele>
        <time>2026-08-19T10:08:46.344Z</time>
      </trkpt>
      <trkpt lat="45.93925" lon="6.38296">
        <ele>1728</ele>
        <time>2026-08-19T10:08:47.344Z</time>
      </trkpt>
      <trkpt lat="45.93925" lon="6.38297">
        <ele>1728</ele>
        <time>2026-08-19T10:08:48.344Z</time>
      </trkpt>
      <trkpt lat="45.93925" lon="6.38297">
        <ele>1727</ele>
        <time>2026-08-19T10:08:49.344Z</time>
      </trkpt>
      <trkpt lat="45.93925" lon="6.38297">
        <ele>1727</ele>
        <time>2026-08-19T10:08:50.344Z</time>
      </trkpt>
      <trkpt lat="45.93925" lon="6.38297">
        <ele>1727</ele>
        <time>2026-08-19T10:08:51.344Z</time>
      </trkpt>
      <trkpt lat="45.93924" lon="6.38297">
        <ele>1726</ele>
        <time>2026-08-19T10:08:52.345Z</time>
      </trkpt>
      <trkpt lat="45.93923" lon="6.38297">
        <ele>1726</ele>
        <time>2026-08-19T10:08:53.344Z</time>
      </trkpt>
      <trkpt lat="45.93923" lon="6.38297">
        <ele>1726</ele>
        <time>2026-08-19T10:08:54.344Z</time>
      </trkpt>
      <trkpt lat="45.93923" lon="6.38298">
        <ele>1726</ele>
        <time>2026-08-19T10:08:55.344Z</time>
      </trkpt>
      <trkpt lat="45.93923" lon="6.38298">
        <ele>1726</ele>
        <time>2026-08-19T10:08:56.344Z</time>
      </trkpt>
      <trkpt lat="45.93923" lon="6.38298">
        <ele>1726</ele>
        <time>2026-08-19T10:08:57.344Z</time>
      </trkpt>
      <trkpt lat="45.93922" lon="6.38298">
        <ele>1725</ele>
        <time>2026-08-19T10:08:58.344Z</time>
      </trkpt>
      <trkpt lat="45.93922" lon="6.38298">
        <ele>1725</ele>
        <time>2026-08-19T10:08:59.344Z</time>
      </trkpt>
      <trkpt lat="45.93921" lon="6.38297">
        <ele>1724</ele>
        <time>2026-08-19T10:09:00.344Z</time>
      </trkpt>
      <trkpt lat="45.9392" lon="6.38297">
        <ele>1724</ele>
        <time>2026-08-19T10:09:01.344Z</time>
      </trkpt>
      <trkpt lat="45.9392" lon="6.38297">
        <ele>1724</ele>
        <time>2026-08-19T10:09:02.345Z</time>
      </trkpt>
      <trkpt lat="45.93919" lon="6.38298">
        <ele>1724</ele>
        <time>2026-08-19T10:09:03.344Z</time>
      </trkpt>
      <trkpt lat="45.93919" lon="6.38298">
        <ele>1724</ele>
        <time>2026-08-19T10:09:04.344Z</time>
      </trkpt>
      <trkpt lat="45.93919" lon="6.38299">
        <ele>1724</ele>
        <time>2026-08-19T10:09:05.344Z</time>
      </trkpt>
      <trkpt lat="45.93918" lon="6.383">
        <ele>1724</ele>
        <time>2026-08-19T10:09:06.344Z</time>
      </trkpt>
      <trkpt lat="45.93917" lon="6.383">
        <ele>1724</ele>
        <time>2026-08-19T10:09:07.344Z</time>
      </trkpt>
      <trkpt lat="45.93917" lon="6.383">
        <ele>1723</ele>
        <time>2026-08-19T10:09:08.344Z</time>
      </trkpt>
      <trkpt lat="45.93916" lon="6.38299">
        <ele>1723</ele>
        <time>2026-08-19T10:09:09.345Z</time>
      </trkpt>
      <trkpt lat="45.93916" lon="6.38299">
        <ele>1722</ele>
        <time>2026-08-19T10:09:10.344Z</time>
      </trkpt>
      <trkpt lat="45.93915" lon="6.38299">
        <ele>1721</ele>
        <time>2026-08-19T10:09:11.344Z</time>
      </trkpt>
      <trkpt lat="45.93915" lon="6.38299">
        <ele>1721</ele>
        <time>2026-08-19T10:09:12.344Z</time>
      </trkpt>
      <trkpt lat="45.93914" lon="6.38299">
        <ele>1721</ele>
        <time>2026-08-19T10:09:13.344Z</time>
      </trkpt>
      <trkpt lat="45.93914" lon="6.38299">
        <ele>1720</ele>
        <time>2026-08-19T10:09:14.344Z</time>
      </trkpt>
      <trkpt lat="45.93914" lon="6.38299">
        <ele>1720</ele>
        <time>2026-08-19T10:09:15.344Z</time>
      </trkpt>
      <trkpt lat="45.93913" lon="6.38299">
        <ele>1720</ele>
        <time>2026-08-19T10:09:16.344Z</time>
      </trkpt>
      <trkpt lat="45.93913" lon="6.38299">
        <ele>1720</ele>
        <time>2026-08-19T10:09:17.344Z</time>
      </trkpt>
      <trkpt lat="45.93912" lon="6.38299">
        <ele>1720</ele>
        <time>2026-08-19T10:09:18.344Z</time>
      </trkpt>
      <trkpt lat="45.93911" lon="6.38298">
        <ele>1719</ele>
        <time>2026-08-19T10:09:19.344Z</time>
      </trkpt>
      <trkpt lat="45.9391" lon="6.38298">
        <ele>1719</ele>
        <time>2026-08-19T10:09:20.344Z</time>
      </trkpt>
      <trkpt lat="45.93909" lon="6.38297">
        <ele>1718</ele>
        <time>2026-08-19T10:09:21.344Z</time>
      </trkpt>
      <trkpt lat="45.93909" lon="6.38297">
        <ele>1718</ele>
        <time>2026-08-19T10:09:22.344Z</time>
      </trkpt>
      <trkpt lat="45.93909" lon="6.38296">
        <ele>1717</ele>
        <time>2026-08-19T10:09:23.344Z</time>
      </trkpt>
      <trkpt lat="45.93908" lon="6.38296">
        <ele>1716</ele>
        <time>2026-08-19T10:09:24.344Z</time>
      </trkpt>
      <trkpt lat="45.93908" lon="6.38295">
        <ele>1716</ele>
        <time>2026-08-19T10:09:25.344Z</time>
      </trkpt>
      <trkpt lat="45.93908" lon="6.38295">
        <ele>1716</ele>
        <time>2026-08-19T10:09:26.344Z</time>
      </trkpt>
      <trkpt lat="45.93908" lon="6.38294">
        <ele>1716</ele>
        <time>2026-08-19T10:09:27.344Z</time>
      </trkpt>
      <trkpt lat="45.93908" lon="6.38294">
        <ele>1715</ele>
        <time>2026-08-19T10:09:28.344Z</time>
      </trkpt>
      <trkpt lat="45.93907" lon="6.38294">
        <ele>1715</ele>
        <time>2026-08-19T10:09:29.344Z</time>
      </trkpt>
      <trkpt lat="45.93907" lon="6.38294">
        <ele>1715</ele>
        <time>2026-08-19T10:09:30.344Z</time>
      </trkpt>
      <trkpt lat="45.93907" lon="6.38294">
        <ele>1715</ele>
        <time>2026-08-19T10:09:31.344Z</time>
      </trkpt>
      <trkpt lat="45.93907" lon="6.38294">
        <ele>1715</ele>
        <time>2026-08-19T10:09:32.344Z</time>
      </trkpt>
      <trkpt lat="45.93907" lon="6.38293">
        <ele>1715</ele>
        <time>2026-08-19T10:09:33.344Z</time>
      </trkpt>
      <trkpt lat="45.93906" lon="6.38293">
        <ele>1715</ele>
        <time>2026-08-19T10:09:34.344Z</time>
      </trkpt>
      <trkpt lat="45.93906" lon="6.38293">
        <ele>1714</ele>
        <time>2026-08-19T10:09:35.344Z</time>
      </trkpt>
      <trkpt lat="45.93906" lon="6.38292">
        <ele>1714</ele>
        <time>2026-08-19T10:09:36.344Z</time>
      </trkpt>
      <trkpt lat="45.93906" lon="6.38292">
        <ele>1713</ele>
        <time>2026-08-19T10:09:37.344Z</time>
      </trkpt>
      <trkpt lat="45.93906" lon="6.38292">
        <ele>1713</ele>
        <time>2026-08-19T10:09:38.344Z</time>
      </trkpt>
      <trkpt lat="45.93905" lon="6.38292">
        <ele>1713</ele>
        <time>2026-08-19T10:09:39.344Z</time>
      </trkpt>
      <trkpt lat="45.93905" lon="6.38292">
        <ele>1713</ele>
        <time>2026-08-19T10:09:40.344Z</time>
      </trkpt>
      <trkpt lat="45.93905" lon="6.38292">
        <ele>1713</ele>
        <time>2026-08-19T10:09:41.345Z</time>
      </trkpt>
      <trkpt lat="45.93905" lon="6.38292">
        <ele>1713</ele>
        <time>2026-08-19T10:09:42.344Z</time>
      </trkpt>
      <trkpt lat="45.93904" lon="6.38292">
        <ele>1713</ele>
        <time>2026-08-19T10:09:43.344Z</time>
      </trkpt>
      <trkpt lat="45.93904" lon="6.38292">
        <ele>1714</ele>
        <time>2026-08-19T10:09:44.344Z</time>
      </trkpt>
      <trkpt lat="45.93903" lon="6.38292">
        <ele>1714</ele>
        <time>2026-08-19T10:09:45.344Z</time>
      </trkpt>
      <trkpt lat="45.93902" lon="6.38292">
        <ele>1714</ele>
        <time>2026-08-19T10:09:46.344Z</time>
      </trkpt>
      <trkpt lat="45.93901" lon="6.38292">
        <ele>1714</ele>
        <time>2026-08-19T10:09:47.344Z</time>
      </trkpt>
      <trkpt lat="45.93901" lon="6.38292">
        <ele>1714</ele>
        <time>2026-08-19T10:09:48.344Z</time>
      </trkpt>
      <trkpt lat="45.939" lon="6.38292">
        <ele>1714</ele>
        <time>2026-08-19T10:09:49.344Z</time>
      </trkpt>
      <trkpt lat="45.939" lon="6.38292">
        <ele>1714</ele>
        <time>2026-08-19T10:09:50.344Z</time>
      </trkpt>
      <trkpt lat="45.93899" lon="6.38292">
        <ele>1713</ele>
        <time>2026-08-19T10:09:51.344Z</time>
      </trkpt>
      <trkpt lat="45.93898" lon="6.38292">
        <ele>1713</ele>
        <time>2026-08-19T10:09:52.344Z</time>
      </trkpt>
      <trkpt lat="45.93897" lon="6.38292">
        <ele>1713</ele>
        <time>2026-08-19T10:09:53.345Z</time>
      </trkpt>
      <trkpt lat="45.93896" lon="6.38292">
        <ele>1713</ele>
        <time>2026-08-19T10:09:54.344Z</time>
      </trkpt>
      <trkpt lat="45.93895" lon="6.38292">
        <ele>1713</ele>
        <time>2026-08-19T10:09:55.344Z</time>
      </trkpt>
      <trkpt lat="45.93895" lon="6.38292">
        <ele>1712</ele>
        <time>2026-08-19T10:09:56.344Z</time>
      </trkpt>
      <trkpt lat="45.93894" lon="6.38292">
        <ele>1712</ele>
        <time>2026-08-19T10:09:57.344Z</time>
      </trkpt>
      <trkpt lat="45.93893" lon="6.38292">
        <ele>1711</ele>
        <time>2026-08-19T10:09:58.344Z</time>
      </trkpt>
      <trkpt lat="45.93892" lon="6.38291">
        <ele>1710</ele>
        <time>2026-08-19T10:09:59.344Z</time>
      </trkpt>
      <trkpt lat="45.93891" lon="6.3829">
        <ele>1709</ele>
        <time>2026-08-19T10:10:00.344Z</time>
      </trkpt>
      <trkpt lat="45.93891" lon="6.38289">
        <ele>1709</ele>
        <time>2026-08-19T10:10:01.344Z</time>
      </trkpt>
      <trkpt lat="45.9389" lon="6.38288">
        <ele>1708</ele>
        <time>2026-08-19T10:10:02.344Z</time>
      </trkpt>
      <trkpt lat="45.93889" lon="6.38287">
        <ele>1708</ele>
        <time>2026-08-19T10:10:03.344Z</time>
      </trkpt>
      <trkpt lat="45.93889" lon="6.38287">
        <ele>1708</ele>
        <time>2026-08-19T10:10:04.344Z</time>
      </trkpt>
      <trkpt lat="45.93889" lon="6.38287">
        <ele>1708</ele>
        <time>2026-08-19T10:10:05.344Z</time>
      </trkpt>
      <trkpt lat="45.93888" lon="6.38286">
        <ele>1707</ele>
        <time>2026-08-19T10:10:06.344Z</time>
      </trkpt>
      <trkpt lat="45.93888" lon="6.38286">
        <ele>1708</ele>
        <time>2026-08-19T10:10:07.344Z</time>
      </trkpt>
      <trkpt lat="45.93888" lon="6.38286">
        <ele>1708</ele>
        <time>2026-08-19T10:10:08.344Z</time>
      </trkpt>
      <trkpt lat="45.93888" lon="6.38285">
        <ele>1707</ele>
        <time>2026-08-19T10:10:09.344Z</time>
      </trkpt>
      <trkpt lat="45.93888" lon="6.38285">
        <ele>1707</ele>
        <time>2026-08-19T10:10:10.344Z</time>
      </trkpt>
      <trkpt lat="45.93889" lon="6.38285">
        <ele>1707</ele>
        <time>2026-08-19T10:10:11.345Z</time>
      </trkpt>
      <trkpt lat="45.93889" lon="6.38285">
        <ele>1707</ele>
        <time>2026-08-19T10:10:12.344Z</time>
      </trkpt>
      <trkpt lat="45.93889" lon="6.38285">
        <ele>1707</ele>
        <time>2026-08-19T10:10:13.344Z</time>
      </trkpt>
      <trkpt lat="45.93889" lon="6.38285">
        <ele>1708</ele>
        <time>2026-08-19T10:10:14.344Z</time>
      </trkpt>
      <trkpt lat="45.93889" lon="6.38285">
        <ele>1708</ele>
        <time>2026-08-19T10:10:15.344Z</time>
      </trkpt>
      <trkpt lat="45.93889" lon="6.38284">
        <ele>1708</ele>
        <time>2026-08-19T10:10:16.344Z</time>
      </trkpt>
      <trkpt lat="45.93889" lon="6.38284">
        <ele>1708</ele>
        <time>2026-08-19T10:10:17.344Z</time>
      </trkpt>
      <trkpt lat="45.93889" lon="6.38284">
        <ele>1708</ele>
        <time>2026-08-19T10:10:18.344Z</time>
      </trkpt>
      <trkpt lat="45.93889" lon="6.38284">
        <ele>1709</ele>
        <time>2026-08-19T10:10:19.344Z</time>
      </trkpt>
      <trkpt lat="45.93889" lon="6.38284">
        <ele>1709</ele>
        <time>2026-08-19T10:10:20.344Z</time>
      </trkpt>
      <trkpt lat="45.93888" lon="6.38284">
        <ele>1709</ele>
        <time>2026-08-19T10:10:21.344Z</time>
      </trkpt>
      <trkpt lat="45.93888" lon="6.38284">
        <ele>1709</ele>
        <time>2026-08-19T10:10:22.344Z</time>
      </trkpt>
      <trkpt lat="45.93888" lon="6.38284">
        <ele>1709</ele>
        <time>2026-08-19T10:10:23.344Z</time>
      </trkpt>
      <trkpt lat="45.93888" lon="6.38285">
        <ele>1710</ele>
        <time>2026-08-19T10:10:24.344Z</time>
      </trkpt>
      <trkpt lat="45.93888" lon="6.38285">
        <ele>1710</ele>
        <time>2026-08-19T10:10:25.344Z</time>
      </trkpt>
      <trkpt lat="45.93888" lon="6.38285">
        <ele>1710</ele>
        <time>2026-08-19T10:10:26.344Z</time>
      </trkpt>
      <trkpt lat="45.93888" lon="6.38285">
        <ele>1710</ele>
        <time>2026-08-19T10:10:27.344Z</time>
      </trkpt>
      <trkpt lat="45.93887" lon="6.38286">
        <ele>1710</ele>
        <time>2026-08-19T10:10:28.344Z</time>
      </trkpt>
      <trkpt lat="45.93887" lon="6.38286">
        <ele>1710</ele>
        <time>2026-08-19T10:10:29.344Z</time>
      </trkpt>
      <trkpt lat="45.93886" lon="6.38286">
        <ele>1710</ele>
        <time>2026-08-19T10:10:30.344Z</time>
      </trkpt>
      <trkpt lat="45.93885" lon="6.38286">
        <ele>1710</ele>
        <time>2026-08-19T10:10:31.344Z</time>
      </trkpt>
      <trkpt lat="45.93885" lon="6.38286">
        <ele>1710</ele>
        <time>2026-08-19T10:10:32.344Z</time>
      </trkpt>
      <trkpt lat="45.93884" lon="6.38286">
        <ele>1709</ele>
        <time>2026-08-19T10:10:33.344Z</time>
      </trkpt>
      <trkpt lat="45.93884" lon="6.38286">
        <ele>1708</ele>
        <time>2026-08-19T10:10:34.344Z</time>
      </trkpt>
      <trkpt lat="45.93883" lon="6.38285">
        <ele>1708</ele>
        <time>2026-08-19T10:10:35.344Z</time>
      </trkpt>
      <trkpt lat="45.93882" lon="6.38285">
        <ele>1707</ele>
        <time>2026-08-19T10:10:36.344Z</time>
      </trkpt>
      <trkpt lat="45.93882" lon="6.38285">
        <ele>1707</ele>
        <time>2026-08-19T10:10:37.344Z</time>
      </trkpt>
      <trkpt lat="45.93881" lon="6.38286">
        <ele>1706</ele>
        <time>2026-08-19T10:10:38.344Z</time>
      </trkpt>
      <trkpt lat="45.93881" lon="6.38286">
        <ele>1706</ele>
        <time>2026-08-19T10:10:39.344Z</time>
      </trkpt>
      <trkpt lat="45.9388" lon="6.38286">
        <ele>1705</ele>
        <time>2026-08-19T10:10:40.344Z</time>
      </trkpt>
      <trkpt lat="45.9388" lon="6.38287">
        <ele>1705</ele>
        <time>2026-08-19T10:10:41.344Z</time>
      </trkpt>
      <trkpt lat="45.93879" lon="6.38287">
        <ele>1704</ele>
        <time>2026-08-19T10:10:42.344Z</time>
      </trkpt>
      <trkpt lat="45.93878" lon="6.38286">
        <ele>1704</ele>
        <time>2026-08-19T10:10:43.344Z</time>
      </trkpt>
      <trkpt lat="45.93878" lon="6.38286">
        <ele>1704</ele>
        <time>2026-08-19T10:10:44.344Z</time>
      </trkpt>
      <trkpt lat="45.93877" lon="6.38285">
        <ele>1703</ele>
        <time>2026-08-19T10:10:45.344Z</time>
      </trkpt>
      <trkpt lat="45.93876" lon="6.38284">
        <ele>1703</ele>
        <time>2026-08-19T10:10:46.344Z</time>
      </trkpt>
      <trkpt lat="45.93875" lon="6.38284">
        <ele>1703</ele>
        <time>2026-08-19T10:10:47.344Z</time>
      </trkpt>
      <trkpt lat="45.93874" lon="6.38284">
        <ele>1703</ele>
        <time>2026-08-19T10:10:48.344Z</time>
      </trkpt>
      <trkpt lat="45.93874" lon="6.38284">
        <ele>1702</ele>
        <time>2026-08-19T10:10:49.344Z</time>
      </trkpt>
      <trkpt lat="45.93873" lon="6.38283">
        <ele>1702</ele>
        <time>2026-08-19T10:10:50.344Z</time>
      </trkpt>
      <trkpt lat="45.93872" lon="6.38282">
        <ele>1702</ele>
        <time>2026-08-19T10:10:51.344Z</time>
      </trkpt>
      <trkpt lat="45.93871" lon="6.38281">
        <ele>1702</ele>
        <time>2026-08-19T10:10:52.344Z</time>
      </trkpt>
      <trkpt lat="45.9387" lon="6.3828">
        <ele>1701</ele>
        <time>2026-08-19T10:10:53.344Z</time>
      </trkpt>
      <trkpt lat="45.93869" lon="6.38279">
        <ele>1701</ele>
        <time>2026-08-19T10:10:54.344Z</time>
      </trkpt>
      <trkpt lat="45.93868" lon="6.38278">
        <ele>1701</ele>
        <time>2026-08-19T10:10:55.344Z</time>
      </trkpt>
      <trkpt lat="45.93868" lon="6.38278">
        <ele>1700</ele>
        <time>2026-08-19T10:10:56.344Z</time>
      </trkpt>
      <trkpt lat="45.93867" lon="6.38278">
        <ele>1700</ele>
        <time>2026-08-19T10:10:57.344Z</time>
      </trkpt>
      <trkpt lat="45.93866" lon="6.38277">
        <ele>1699</ele>
        <time>2026-08-19T10:10:58.344Z</time>
      </trkpt>
      <trkpt lat="45.93865" lon="6.38277">
        <ele>1699</ele>
        <time>2026-08-19T10:10:59.344Z</time>
      </trkpt>
      <trkpt lat="45.93865" lon="6.38278">
        <ele>1698</ele>
        <time>2026-08-19T10:11:00.344Z</time>
      </trkpt>
      <trkpt lat="45.93864" lon="6.38278">
        <ele>1698</ele>
        <time>2026-08-19T10:11:01.344Z</time>
      </trkpt>
      <trkpt lat="45.93864" lon="6.38278">
        <ele>1698</ele>
        <time>2026-08-19T10:11:02.344Z</time>
      </trkpt>
      <trkpt lat="45.93863" lon="6.38279">
        <ele>1698</ele>
        <time>2026-08-19T10:11:03.344Z</time>
      </trkpt>
      <trkpt lat="45.93862" lon="6.38279">
        <ele>1698</ele>
        <time>2026-08-19T10:11:04.344Z</time>
      </trkpt>
      <trkpt lat="45.93862" lon="6.3828">
        <ele>1698</ele>
        <time>2026-08-19T10:11:05.344Z</time>
      </trkpt>
      <trkpt lat="45.93861" lon="6.3828">
        <ele>1698</ele>
        <time>2026-08-19T10:11:06.344Z</time>
      </trkpt>
      <trkpt lat="45.93861" lon="6.3828">
        <ele>1698</ele>
        <time>2026-08-19T10:11:07.344Z</time>
      </trkpt>
      <trkpt lat="45.9386" lon="6.3828">
        <ele>1698</ele>
        <time>2026-08-19T10:11:08.344Z</time>
      </trkpt>
      <trkpt lat="45.9386" lon="6.3828">
        <ele>1698</ele>
        <time>2026-08-19T10:11:09.344Z</time>
      </trkpt>
      <trkpt lat="45.9386" lon="6.3828">
        <ele>1697</ele>
        <time>2026-08-19T10:11:10.345Z</time>
      </trkpt>
      <trkpt lat="45.9386" lon="6.38281">
        <ele>1697</ele>
        <time>2026-08-19T10:11:11.344Z</time>
      </trkpt>
      <trkpt lat="45.93859" lon="6.38282">
        <ele>1696</ele>
        <time>2026-08-19T10:11:12.344Z</time>
      </trkpt>
      <trkpt lat="45.93859" lon="6.38283">
        <ele>1696</ele>
        <time>2026-08-19T10:11:13.344Z</time>
      </trkpt>
      <trkpt lat="45.93857" lon="6.38284">
        <ele>1696</ele>
        <time>2026-08-19T10:11:14.344Z</time>
      </trkpt>
      <trkpt lat="45.93856" lon="6.38285">
        <ele>1696</ele>
        <time>2026-08-19T10:11:15.344Z</time>
      </trkpt>
      <trkpt lat="45.93854" lon="6.38286">
        <ele>1696</ele>
        <time>2026-08-19T10:11:16.344Z</time>
      </trkpt>
      <trkpt lat="45.93853" lon="6.38287">
        <ele>1696</ele>
        <time>2026-08-19T10:11:17.344Z</time>
      </trkpt>
      <trkpt lat="45.93852" lon="6.38287">
        <ele>1696</ele>
        <time>2026-08-19T10:11:18.344Z</time>
      </trkpt>
      <trkpt lat="45.93851" lon="6.38286">
        <ele>1696</ele>
        <time>2026-08-19T10:11:19.344Z</time>
      </trkpt>
      <trkpt lat="45.9385" lon="6.38286">
        <ele>1696</ele>
        <time>2026-08-19T10:11:20.345Z</time>
      </trkpt>
      <trkpt lat="45.9385" lon="6.38285">
        <ele>1696</ele>
        <time>2026-08-19T10:11:21.344Z</time>
      </trkpt>
      <trkpt lat="45.9385" lon="6.38285">
        <ele>1696</ele>
        <time>2026-08-19T10:11:22.344Z</time>
      </trkpt>
      <trkpt lat="45.93849" lon="6.38285">
        <ele>1696</ele>
        <time>2026-08-19T10:11:23.344Z</time>
      </trkpt>
      <trkpt lat="45.93849" lon="6.38284">
        <ele>1696</ele>
        <time>2026-08-19T10:11:24.345Z</time>
      </trkpt>
      <trkpt lat="45.93848" lon="6.38284">
        <ele>1696</ele>
        <time>2026-08-19T10:11:25.344Z</time>
      </trkpt>
      <trkpt lat="45.93847" lon="6.38283">
        <ele>1695</ele>
        <time>2026-08-19T10:11:26.344Z</time>
      </trkpt>
      <trkpt lat="45.93847" lon="6.38283">
        <ele>1695</ele>
        <time>2026-08-19T10:11:27.345Z</time>
      </trkpt>
      <trkpt lat="45.93847" lon="6.38283">
        <ele>1694</ele>
        <time>2026-08-19T10:11:28.344Z</time>
      </trkpt>
      <trkpt lat="45.93846" lon="6.38283">
        <ele>1694</ele>
        <time>2026-08-19T10:11:29.344Z</time>
      </trkpt>
      <trkpt lat="45.93846" lon="6.38283">
        <ele>1694</ele>
        <time>2026-08-19T10:11:30.344Z</time>
      </trkpt>
      <trkpt lat="45.93845" lon="6.38283">
        <ele>1693</ele>
        <time>2026-08-19T10:11:31.344Z</time>
      </trkpt>
      <trkpt lat="45.93845" lon="6.38283">
        <ele>1693</ele>
        <time>2026-08-19T10:11:32.344Z</time>
      </trkpt>
      <trkpt lat="45.93845" lon="6.38283">
        <ele>1692</ele>
        <time>2026-08-19T10:11:33.344Z</time>
      </trkpt>
      <trkpt lat="45.93845" lon="6.38283">
        <ele>1692</ele>
        <time>2026-08-19T10:11:34.344Z</time>
      </trkpt>
      <trkpt lat="45.93845" lon="6.38283">
        <ele>1692</ele>
        <time>2026-08-19T10:11:35.344Z</time>
      </trkpt>
      <trkpt lat="45.93844" lon="6.38283">
        <ele>1691</ele>
        <time>2026-08-19T10:11:36.344Z</time>
      </trkpt>
      <trkpt lat="45.93844" lon="6.38283">
        <ele>1691</ele>
        <time>2026-08-19T10:11:37.344Z</time>
      </trkpt>
      <trkpt lat="45.93843" lon="6.38283">
        <ele>1691</ele>
        <time>2026-08-19T10:11:38.344Z</time>
      </trkpt>
      <trkpt lat="45.93842" lon="6.38284">
        <ele>1691</ele>
        <time>2026-08-19T10:11:39.344Z</time>
      </trkpt>
      <trkpt lat="45.93842" lon="6.38283">
        <ele>1691</ele>
        <time>2026-08-19T10:11:40.344Z</time>
      </trkpt>
      <trkpt lat="45.93841" lon="6.38283">
        <ele>1691</ele>
        <time>2026-08-19T10:11:41.344Z</time>
      </trkpt>
      <trkpt lat="45.93841" lon="6.38283">
        <ele>1691</ele>
        <time>2026-08-19T10:11:42.344Z</time>
      </trkpt>
      <trkpt lat="45.9384" lon="6.38283">
        <ele>1690</ele>
        <time>2026-08-19T10:11:43.345Z</time>
      </trkpt>
      <trkpt lat="45.9384" lon="6.38282">
        <ele>1690</ele>
        <time>2026-08-19T10:11:44.344Z</time>
      </trkpt>
      <trkpt lat="45.9384" lon="6.38282">
        <ele>1690</ele>
        <time>2026-08-19T10:11:45.344Z</time>
      </trkpt>
      <trkpt lat="45.9384" lon="6.38281">
        <ele>1689</ele>
        <time>2026-08-19T10:11:46.344Z</time>
      </trkpt>
      <trkpt lat="45.93839" lon="6.38281">
        <ele>1689</ele>
        <time>2026-08-19T10:11:47.344Z</time>
      </trkpt>
      <trkpt lat="45.93839" lon="6.38281">
        <ele>1689</ele>
        <time>2026-08-19T10:11:48.344Z</time>
      </trkpt>
      <trkpt lat="45.93839" lon="6.38281">
        <ele>1688</ele>
        <time>2026-08-19T10:11:49.344Z</time>
      </trkpt>
      <trkpt lat="45.93838" lon="6.38281">
        <ele>1688</ele>
        <time>2026-08-19T10:11:50.344Z</time>
      </trkpt>
      <trkpt lat="45.93838" lon="6.38282">
        <ele>1688</ele>
        <time>2026-08-19T10:11:51.344Z</time>
      </trkpt>
      <trkpt lat="45.93837" lon="6.38283">
        <ele>1688</ele>
        <time>2026-08-19T10:11:52.344Z</time>
      </trkpt>
      <trkpt lat="45.93836" lon="6.38283">
        <ele>1688</ele>
        <time>2026-08-19T10:11:53.344Z</time>
      </trkpt>
      <trkpt lat="45.93836" lon="6.38284">
        <ele>1687</ele>
        <time>2026-08-19T10:11:54.344Z</time>
      </trkpt>
      <trkpt lat="45.93836" lon="6.38284">
        <ele>1687</ele>
        <time>2026-08-19T10:11:55.344Z</time>
      </trkpt>
      <trkpt lat="45.93835" lon="6.38286">
        <ele>1687</ele>
        <time>2026-08-19T10:11:56.344Z</time>
      </trkpt>
      <trkpt lat="45.93835" lon="6.38287">
        <ele>1687</ele>
        <time>2026-08-19T10:11:57.344Z</time>
      </trkpt>
      <trkpt lat="45.93836" lon="6.38288">
        <ele>1686</ele>
        <time>2026-08-19T10:11:58.344Z</time>
      </trkpt>
      <trkpt lat="45.93836" lon="6.38289">
        <ele>1685</ele>
        <time>2026-08-19T10:11:59.344Z</time>
      </trkpt>
      <trkpt lat="45.93836" lon="6.38291">
        <ele>1685</ele>
        <time>2026-08-19T10:12:00.344Z</time>
      </trkpt>
      <trkpt lat="45.93837" lon="6.38293">
        <ele>1684</ele>
        <time>2026-08-19T10:12:01.344Z</time>
      </trkpt>
      <trkpt lat="45.93837" lon="6.38295">
        <ele>1684</ele>
        <time>2026-08-19T10:12:02.344Z</time>
      </trkpt>
      <trkpt lat="45.93837" lon="6.38296">
        <ele>1683</ele>
        <time>2026-08-19T10:12:03.344Z</time>
      </trkpt>
      <trkpt lat="45.93837" lon="6.38299">
        <ele>1683</ele>
        <time>2026-08-19T10:12:04.344Z</time>
      </trkpt>
      <trkpt lat="45.93837" lon="6.38301">
        <ele>1683</ele>
        <time>2026-08-19T10:12:05.344Z</time>
      </trkpt>
      <trkpt lat="45.93837" lon="6.38302">
        <ele>1683</ele>
        <time>2026-08-19T10:12:06.344Z</time>
      </trkpt>
      <trkpt lat="45.93838" lon="6.38304">
        <ele>1682</ele>
        <time>2026-08-19T10:12:07.344Z</time>
      </trkpt>
      <trkpt lat="45.93838" lon="6.38305">
        <ele>1682</ele>
        <time>2026-08-19T10:12:08.344Z</time>
      </trkpt>
      <trkpt lat="45.93839" lon="6.38308">
        <ele>1682</ele>
        <time>2026-08-19T10:12:09.344Z</time>
      </trkpt>
      <trkpt lat="45.93839" lon="6.38309">
        <ele>1682</ele>
        <time>2026-08-19T10:12:10.344Z</time>
      </trkpt>
      <trkpt lat="45.93839" lon="6.38311">
        <ele>1683</ele>
        <time>2026-08-19T10:12:11.344Z</time>
      </trkpt>
      <trkpt lat="45.93839" lon="6.38312">
        <ele>1683</ele>
        <time>2026-08-19T10:12:12.344Z</time>
      </trkpt>
      <trkpt lat="45.93839" lon="6.38313">
        <ele>1683</ele>
        <time>2026-08-19T10:12:13.344Z</time>
      </trkpt>
      <trkpt lat="45.93839" lon="6.38314">
        <ele>1683</ele>
        <time>2026-08-19T10:12:14.344Z</time>
      </trkpt>
      <trkpt lat="45.9384" lon="6.38315">
        <ele>1683</ele>
        <time>2026-08-19T10:12:15.344Z</time>
      </trkpt>
      <trkpt lat="45.93839" lon="6.38315">
        <ele>1683</ele>
        <time>2026-08-19T10:12:16.344Z</time>
      </trkpt>
      <trkpt lat="45.93839" lon="6.38316">
        <ele>1683</ele>
        <time>2026-08-19T10:12:17.344Z</time>
      </trkpt>
      <trkpt lat="45.93839" lon="6.38317">
        <ele>1682</ele>
        <time>2026-08-19T10:12:18.344Z</time>
      </trkpt>
      <trkpt lat="45.93838" lon="6.38317">
        <ele>1682</ele>
        <time>2026-08-19T10:12:19.344Z</time>
      </trkpt>
      <trkpt lat="45.93838" lon="6.38318">
        <ele>1681</ele>
        <time>2026-08-19T10:12:20.344Z</time>
      </trkpt>
      <trkpt lat="45.93837" lon="6.38318">
        <ele>1681</ele>
        <time>2026-08-19T10:12:21.344Z</time>
      </trkpt>
      <trkpt lat="45.93837" lon="6.38318">
        <ele>1680</ele>
        <time>2026-08-19T10:12:22.344Z</time>
      </trkpt>
      <trkpt lat="45.93836" lon="6.38318">
        <ele>1680</ele>
        <time>2026-08-19T10:12:23.344Z</time>
      </trkpt>
      <trkpt lat="45.93836" lon="6.38319">
        <ele>1680</ele>
        <time>2026-08-19T10:12:24.344Z</time>
      </trkpt>
      <trkpt lat="45.93835" lon="6.38319">
        <ele>1679</ele>
        <time>2026-08-19T10:12:25.344Z</time>
      </trkpt>
      <trkpt lat="45.93833" lon="6.3832">
        <ele>1679</ele>
        <time>2026-08-19T10:12:26.344Z</time>
      </trkpt>
      <trkpt lat="45.93833" lon="6.38321">
        <ele>1680</ele>
        <time>2026-08-19T10:12:27.344Z</time>
      </trkpt>
      <trkpt lat="45.93831" lon="6.38321">
        <ele>1680</ele>
        <time>2026-08-19T10:12:28.344Z</time>
      </trkpt>
      <trkpt lat="45.93831" lon="6.3832">
        <ele>1680</ele>
        <time>2026-08-19T10:12:29.344Z</time>
      </trkpt>
      <trkpt lat="45.9383" lon="6.38321">
        <ele>1679</ele>
        <time>2026-08-19T10:12:30.344Z</time>
      </trkpt>
      <trkpt lat="45.93829" lon="6.38321">
        <ele>1679</ele>
        <time>2026-08-19T10:12:31.344Z</time>
      </trkpt>
      <trkpt lat="45.93829" lon="6.38321">
        <ele>1679</ele>
        <time>2026-08-19T10:12:32.344Z</time>
      </trkpt>
      <trkpt lat="45.93828" lon="6.38322">
        <ele>1679</ele>
        <time>2026-08-19T10:12:33.344Z</time>
      </trkpt>
      <trkpt lat="45.93826" lon="6.38322">
        <ele>1679</ele>
        <time>2026-08-19T10:12:34.345Z</time>
      </trkpt>
      <trkpt lat="45.93825" lon="6.38323">
        <ele>1679</ele>
        <time>2026-08-19T10:12:35.344Z</time>
      </trkpt>
      <trkpt lat="45.93823" lon="6.38323">
        <ele>1679</ele>
        <time>2026-08-19T10:12:36.344Z</time>
      </trkpt>
      <trkpt lat="45.93822" lon="6.38323">
        <ele>1678</ele>
        <time>2026-08-19T10:12:37.345Z</time>
      </trkpt>
      <trkpt lat="45.93822" lon="6.38323">
        <ele>1678</ele>
        <time>2026-08-19T10:12:38.345Z</time>
      </trkpt>
      <trkpt lat="45.93821" lon="6.38323">
        <ele>1678</ele>
        <time>2026-08-19T10:12:39.344Z</time>
      </trkpt>
      <trkpt lat="45.9382" lon="6.38322">
        <ele>1677</ele>
        <time>2026-08-19T10:12:40.344Z</time>
      </trkpt>
      <trkpt lat="45.9382" lon="6.38322">
        <ele>1677</ele>
        <time>2026-08-19T10:12:41.344Z</time>
      </trkpt>
      <trkpt lat="45.93819" lon="6.38322">
        <ele>1677</ele>
        <time>2026-08-19T10:12:42.344Z</time>
      </trkpt>
      <trkpt lat="45.93819" lon="6.38321">
        <ele>1676</ele>
        <time>2026-08-19T10:12:43.344Z</time>
      </trkpt>
      <trkpt lat="45.93818" lon="6.38321">
        <ele>1676</ele>
        <time>2026-08-19T10:12:44.344Z</time>
      </trkpt>
      <trkpt lat="45.93818" lon="6.38321">
        <ele>1676</ele>
        <time>2026-08-19T10:12:45.344Z</time>
      </trkpt>
      <trkpt lat="45.93818" lon="6.38321">
        <ele>1676</ele>
        <time>2026-08-19T10:12:46.344Z</time>
      </trkpt>
      <trkpt lat="45.93817" lon="6.38321">
        <ele>1676</ele>
        <time>2026-08-19T10:12:47.344Z</time>
      </trkpt>
      <trkpt lat="45.93816" lon="6.38321">
        <ele>1675</ele>
        <time>2026-08-19T10:12:48.344Z</time>
      </trkpt>
      <trkpt lat="45.93816" lon="6.38321">
        <ele>1676</ele>
        <time>2026-08-19T10:12:49.344Z</time>
      </trkpt>
      <trkpt lat="45.93815" lon="6.3832">
        <ele>1676</ele>
        <time>2026-08-19T10:12:50.344Z</time>
      </trkpt>
      <trkpt lat="45.93815" lon="6.38319">
        <ele>1676</ele>
        <time>2026-08-19T10:12:51.344Z</time>
      </trkpt>
      <trkpt lat="45.93814" lon="6.38318">
        <ele>1676</ele>
        <time>2026-08-19T10:12:52.344Z</time>
      </trkpt>
      <trkpt lat="45.93814" lon="6.38318">
        <ele>1675</ele>
        <time>2026-08-19T10:12:53.344Z</time>
      </trkpt>
      <trkpt lat="45.93813" lon="6.38317">
        <ele>1675</ele>
        <time>2026-08-19T10:12:54.344Z</time>
      </trkpt>
      <trkpt lat="45.93812" lon="6.38317">
        <ele>1675</ele>
        <time>2026-08-19T10:12:55.344Z</time>
      </trkpt>
      <trkpt lat="45.93811" lon="6.38317">
        <ele>1674</ele>
        <time>2026-08-19T10:12:56.344Z</time>
      </trkpt>
      <trkpt lat="45.93811" lon="6.38316">
        <ele>1674</ele>
        <time>2026-08-19T10:12:57.344Z</time>
      </trkpt>
      <trkpt lat="45.9381" lon="6.38316">
        <ele>1674</ele>
        <time>2026-08-19T10:12:58.344Z</time>
      </trkpt>
      <trkpt lat="45.93809" lon="6.38316">
        <ele>1674</ele>
        <time>2026-08-19T10:12:59.344Z</time>
      </trkpt>
      <trkpt lat="45.93809" lon="6.38316">
        <ele>1673</ele>
        <time>2026-08-19T10:13:00.344Z</time>
      </trkpt>
      <trkpt lat="45.93808" lon="6.38316">
        <ele>1673</ele>
        <time>2026-08-19T10:13:01.344Z</time>
      </trkpt>
      <trkpt lat="45.93808" lon="6.38316">
        <ele>1672</ele>
        <time>2026-08-19T10:13:02.344Z</time>
      </trkpt>
      <trkpt lat="45.93807" lon="6.38316">
        <ele>1672</ele>
        <time>2026-08-19T10:13:03.344Z</time>
      </trkpt>
      <trkpt lat="45.93808" lon="6.38317">
        <ele>1671</ele>
        <time>2026-08-19T10:13:04.344Z</time>
      </trkpt>
      <trkpt lat="45.93808" lon="6.38318">
        <ele>1671</ele>
        <time>2026-08-19T10:13:05.344Z</time>
      </trkpt>
      <trkpt lat="45.93808" lon="6.38318">
        <ele>1671</ele>
        <time>2026-08-19T10:13:06.344Z</time>
      </trkpt>
      <trkpt lat="45.93807" lon="6.38319">
        <ele>1671</ele>
        <time>2026-08-19T10:13:07.344Z</time>
      </trkpt>
      <trkpt lat="45.93806" lon="6.38319">
        <ele>1671</ele>
        <time>2026-08-19T10:13:08.344Z</time>
      </trkpt>
      <trkpt lat="45.93805" lon="6.38319">
        <ele>1671</ele>
        <time>2026-08-19T10:13:09.344Z</time>
      </trkpt>
      <trkpt lat="45.93804" lon="6.38318">
        <ele>1672</ele>
        <time>2026-08-19T10:13:10.344Z</time>
      </trkpt>
      <trkpt lat="45.93804" lon="6.38318">
        <ele>1671</ele>
        <time>2026-08-19T10:13:11.344Z</time>
      </trkpt>
      <trkpt lat="45.93803" lon="6.38318">
        <ele>1671</ele>
        <time>2026-08-19T10:13:12.344Z</time>
      </trkpt>
      <trkpt lat="45.93802" lon="6.38319">
        <ele>1671</ele>
        <time>2026-08-19T10:13:13.344Z</time>
      </trkpt>
      <trkpt lat="45.93801" lon="6.38319">
        <ele>1670</ele>
        <time>2026-08-19T10:13:14.344Z</time>
      </trkpt>
      <trkpt lat="45.938" lon="6.3832">
        <ele>1670</ele>
        <time>2026-08-19T10:13:15.344Z</time>
      </trkpt>
      <trkpt lat="45.938" lon="6.38321">
        <ele>1670</ele>
        <time>2026-08-19T10:13:16.344Z</time>
      </trkpt>
      <trkpt lat="45.93799" lon="6.38322">
        <ele>1670</ele>
        <time>2026-08-19T10:13:17.344Z</time>
      </trkpt>
      <trkpt lat="45.93799" lon="6.38324">
        <ele>1670</ele>
        <time>2026-08-19T10:13:18.344Z</time>
      </trkpt>
      <trkpt lat="45.93798" lon="6.38325">
        <ele>1671</ele>
        <time>2026-08-19T10:13:19.344Z</time>
      </trkpt>
      <trkpt lat="45.93797" lon="6.38326">
        <ele>1671</ele>
        <time>2026-08-19T10:13:20.344Z</time>
      </trkpt>
      <trkpt lat="45.93796" lon="6.38327">
        <ele>1671</ele>
        <time>2026-08-19T10:13:21.344Z</time>
      </trkpt>
      <trkpt lat="45.93795" lon="6.38328">
        <ele>1670</ele>
        <time>2026-08-19T10:13:22.344Z</time>
      </trkpt>
      <trkpt lat="45.93795" lon="6.38327">
        <ele>1670</ele>
        <time>2026-08-19T10:13:23.344Z</time>
      </trkpt>
      <trkpt lat="45.93794" lon="6.38327">
        <ele>1670</ele>
        <time>2026-08-19T10:13:24.344Z</time>
      </trkpt>
      <trkpt lat="45.93794" lon="6.38327">
        <ele>1669</ele>
        <time>2026-08-19T10:13:25.344Z</time>
      </trkpt>
      <trkpt lat="45.93793" lon="6.38326">
        <ele>1669</ele>
        <time>2026-08-19T10:13:26.344Z</time>
      </trkpt>
      <trkpt lat="45.93793" lon="6.38326">
        <ele>1669</ele>
        <time>2026-08-19T10:13:27.344Z</time>
      </trkpt>
      <trkpt lat="45.93792" lon="6.38327">
        <ele>1670</ele>
        <time>2026-08-19T10:13:28.344Z</time>
      </trkpt>
      <trkpt lat="45.93791" lon="6.38327">
        <ele>1670</ele>
        <time>2026-08-19T10:13:29.344Z</time>
      </trkpt>
      <trkpt lat="45.9379" lon="6.38328">
        <ele>1670</ele>
        <time>2026-08-19T10:13:30.344Z</time>
      </trkpt>
      <trkpt lat="45.93789" lon="6.38327">
        <ele>1669</ele>
        <time>2026-08-19T10:13:31.345Z</time>
      </trkpt>
      <trkpt lat="45.93788" lon="6.38327">
        <ele>1669</ele>
        <time>2026-08-19T10:13:32.344Z</time>
      </trkpt>
      <trkpt lat="45.93788" lon="6.38327">
        <ele>1669</ele>
        <time>2026-08-19T10:13:33.344Z</time>
      </trkpt>
      <trkpt lat="45.93787" lon="6.38327">
        <ele>1669</ele>
        <time>2026-08-19T10:13:34.344Z</time>
      </trkpt>
      <trkpt lat="45.93786" lon="6.38327">
        <ele>1668</ele>
        <time>2026-08-19T10:13:35.344Z</time>
      </trkpt>
      <trkpt lat="45.93786" lon="6.38328">
        <ele>1668</ele>
        <time>2026-08-19T10:13:36.344Z</time>
      </trkpt>
      <trkpt lat="45.93785" lon="6.38328">
        <ele>1668</ele>
        <time>2026-08-19T10:13:37.344Z</time>
      </trkpt>
      <trkpt lat="45.93784" lon="6.38329">
        <ele>1669</ele>
        <time>2026-08-19T10:13:38.344Z</time>
      </trkpt>
      <trkpt lat="45.93783" lon="6.3833">
        <ele>1669</ele>
        <time>2026-08-19T10:13:39.344Z</time>
      </trkpt>
      <trkpt lat="45.93782" lon="6.38331">
        <ele>1669</ele>
        <time>2026-08-19T10:13:40.344Z</time>
      </trkpt>
      <trkpt lat="45.93781" lon="6.38331">
        <ele>1669</ele>
        <time>2026-08-19T10:13:41.344Z</time>
      </trkpt>
      <trkpt lat="45.9378" lon="6.38332">
        <ele>1669</ele>
        <time>2026-08-19T10:13:42.344Z</time>
      </trkpt>
      <trkpt lat="45.93779" lon="6.38332">
        <ele>1668</ele>
        <time>2026-08-19T10:13:43.344Z</time>
      </trkpt>
      <trkpt lat="45.93779" lon="6.38332">
        <ele>1668</ele>
        <time>2026-08-19T10:13:44.344Z</time>
      </trkpt>
      <trkpt lat="45.93779" lon="6.38332">
        <ele>1667</ele>
        <time>2026-08-19T10:13:45.344Z</time>
      </trkpt>
      <trkpt lat="45.93778" lon="6.38333">
        <ele>1667</ele>
        <time>2026-08-19T10:13:46.344Z</time>
      </trkpt>
      <trkpt lat="45.93778" lon="6.38333">
        <ele>1667</ele>
        <time>2026-08-19T10:13:47.344Z</time>
      </trkpt>
      <trkpt lat="45.93777" lon="6.38333">
        <ele>1667</ele>
        <time>2026-08-19T10:13:48.344Z</time>
      </trkpt>
      <trkpt lat="45.93777" lon="6.38333">
        <ele>1666</ele>
        <time>2026-08-19T10:13:49.344Z</time>
      </trkpt>
      <trkpt lat="45.93776" lon="6.38332">
        <ele>1666</ele>
        <time>2026-08-19T10:13:50.344Z</time>
      </trkpt>
      <trkpt lat="45.93776" lon="6.38332">
        <ele>1665</ele>
        <time>2026-08-19T10:13:51.344Z</time>
      </trkpt>
      <trkpt lat="45.93775" lon="6.38332">
        <ele>1665</ele>
        <time>2026-08-19T10:13:52.344Z</time>
      </trkpt>
      <trkpt lat="45.93775" lon="6.38333">
        <ele>1664</ele>
        <time>2026-08-19T10:13:53.344Z</time>
      </trkpt>
      <trkpt lat="45.93774" lon="6.38333">
        <ele>1664</ele>
        <time>2026-08-19T10:13:54.344Z</time>
      </trkpt>
      <trkpt lat="45.93773" lon="6.38333">
        <ele>1663</ele>
        <time>2026-08-19T10:13:55.344Z</time>
      </trkpt>
      <trkpt lat="45.93773" lon="6.38334">
        <ele>1663</ele>
        <time>2026-08-19T10:13:56.344Z</time>
      </trkpt>
      <trkpt lat="45.93772" lon="6.38334">
        <ele>1662</ele>
        <time>2026-08-19T10:13:57.344Z</time>
      </trkpt>
      <trkpt lat="45.93772" lon="6.38333">
        <ele>1662</ele>
        <time>2026-08-19T10:13:58.344Z</time>
      </trkpt>
      <trkpt lat="45.93771" lon="6.38333">
        <ele>1661</ele>
        <time>2026-08-19T10:13:59.344Z</time>
      </trkpt>
      <trkpt lat="45.9377" lon="6.38333">
        <ele>1661</ele>
        <time>2026-08-19T10:14:00.344Z</time>
      </trkpt>
      <trkpt lat="45.9377" lon="6.38333">
        <ele>1661</ele>
        <time>2026-08-19T10:14:01.344Z</time>
      </trkpt>
      <trkpt lat="45.93768" lon="6.38332">
        <ele>1660</ele>
        <time>2026-08-19T10:14:02.344Z</time>
      </trkpt>
      <trkpt lat="45.93767" lon="6.38332">
        <ele>1660</ele>
        <time>2026-08-19T10:14:03.344Z</time>
      </trkpt>
      <trkpt lat="45.93766" lon="6.38331">
        <ele>1660</ele>
        <time>2026-08-19T10:14:04.344Z</time>
      </trkpt>
      <trkpt lat="45.93765" lon="6.38332">
        <ele>1660</ele>
        <time>2026-08-19T10:14:05.344Z</time>
      </trkpt>
      <trkpt lat="45.93764" lon="6.38332">
        <ele>1660</ele>
        <time>2026-08-19T10:14:06.344Z</time>
      </trkpt>
      <trkpt lat="45.93763" lon="6.38332">
        <ele>1660</ele>
        <time>2026-08-19T10:14:07.344Z</time>
      </trkpt>
      <trkpt lat="45.93762" lon="6.38332">
        <ele>1660</ele>
        <time>2026-08-19T10:14:08.344Z</time>
      </trkpt>
      <trkpt lat="45.9376" lon="6.38332">
        <ele>1660</ele>
        <time>2026-08-19T10:14:09.344Z</time>
      </trkpt>
      <trkpt lat="45.93759" lon="6.38332">
        <ele>1660</ele>
        <time>2026-08-19T10:14:10.344Z</time>
      </trkpt>
      <trkpt lat="45.93758" lon="6.38332">
        <ele>1660</ele>
        <time>2026-08-19T10:14:11.344Z</time>
      </trkpt>
      <trkpt lat="45.93758" lon="6.38332">
        <ele>1660</ele>
        <time>2026-08-19T10:14:12.344Z</time>
      </trkpt>
      <trkpt lat="45.93757" lon="6.38332">
        <ele>1659</ele>
        <time>2026-08-19T10:14:13.344Z</time>
      </trkpt>
      <trkpt lat="45.93757" lon="6.38333">
        <ele>1658</ele>
        <time>2026-08-19T10:14:14.344Z</time>
      </trkpt>
      <trkpt lat="45.93756" lon="6.38333">
        <ele>1658</ele>
        <time>2026-08-19T10:14:15.345Z</time>
      </trkpt>
      <trkpt lat="45.93755" lon="6.38334">
        <ele>1658</ele>
        <time>2026-08-19T10:14:16.345Z</time>
      </trkpt>
      <trkpt lat="45.93755" lon="6.38335">
        <ele>1658</ele>
        <time>2026-08-19T10:14:17.344Z</time>
      </trkpt>
      <trkpt lat="45.93753" lon="6.38335">
        <ele>1658</ele>
        <time>2026-08-19T10:14:18.344Z</time>
      </trkpt>
      <trkpt lat="45.93752" lon="6.38336">
        <ele>1658</ele>
        <time>2026-08-19T10:14:19.344Z</time>
      </trkpt>
      <trkpt lat="45.93752" lon="6.38336">
        <ele>1658</ele>
        <time>2026-08-19T10:14:20.344Z</time>
      </trkpt>
      <trkpt lat="45.93751" lon="6.38336">
        <ele>1658</ele>
        <time>2026-08-19T10:14:21.344Z</time>
      </trkpt>
      <trkpt lat="45.9375" lon="6.38336">
        <ele>1658</ele>
        <time>2026-08-19T10:14:22.344Z</time>
      </trkpt>
      <trkpt lat="45.9375" lon="6.38336">
        <ele>1658</ele>
        <time>2026-08-19T10:14:23.344Z</time>
      </trkpt>
      <trkpt lat="45.93748" lon="6.38337">
        <ele>1658</ele>
        <time>2026-08-19T10:14:24.344Z</time>
      </trkpt>
      <trkpt lat="45.93747" lon="6.38337">
        <ele>1658</ele>
        <time>2026-08-19T10:14:25.344Z</time>
      </trkpt>
      <trkpt lat="45.93746" lon="6.38338">
        <ele>1658</ele>
        <time>2026-08-19T10:14:26.344Z</time>
      </trkpt>
      <trkpt lat="45.93745" lon="6.38338">
        <ele>1657</ele>
        <time>2026-08-19T10:14:27.344Z</time>
      </trkpt>
      <trkpt lat="45.93744" lon="6.38338">
        <ele>1657</ele>
        <time>2026-08-19T10:14:28.344Z</time>
      </trkpt>
      <trkpt lat="45.93743" lon="6.38339">
        <ele>1656</ele>
        <time>2026-08-19T10:14:29.344Z</time>
      </trkpt>
      <trkpt lat="45.93743" lon="6.38339">
        <ele>1655</ele>
        <time>2026-08-19T10:14:30.344Z</time>
      </trkpt>
      <trkpt lat="45.93742" lon="6.38339">
        <ele>1655</ele>
        <time>2026-08-19T10:14:31.344Z</time>
      </trkpt>
      <trkpt lat="45.93742" lon="6.38339">
        <ele>1654</ele>
        <time>2026-08-19T10:14:32.344Z</time>
      </trkpt>
      <trkpt lat="45.93741" lon="6.38339">
        <ele>1654</ele>
        <time>2026-08-19T10:14:33.344Z</time>
      </trkpt>
      <trkpt lat="45.93741" lon="6.3834">
        <ele>1653</ele>
        <time>2026-08-19T10:14:34.344Z</time>
      </trkpt>
      <trkpt lat="45.9374" lon="6.3834">
        <ele>1653</ele>
        <time>2026-08-19T10:14:35.344Z</time>
      </trkpt>
      <trkpt lat="45.9374" lon="6.3834">
        <ele>1652</ele>
        <time>2026-08-19T10:14:36.344Z</time>
      </trkpt>
      <trkpt lat="45.93739" lon="6.3834">
        <ele>1652</ele>
        <time>2026-08-19T10:14:37.344Z</time>
      </trkpt>
      <trkpt lat="45.93738" lon="6.38341">
        <ele>1652</ele>
        <time>2026-08-19T10:14:38.344Z</time>
      </trkpt>
      <trkpt lat="45.93736" lon="6.38341">
        <ele>1652</ele>
        <time>2026-08-19T10:14:39.344Z</time>
      </trkpt>
      <trkpt lat="45.93735" lon="6.3834">
        <ele>1651</ele>
        <time>2026-08-19T10:14:40.345Z</time>
      </trkpt>
      <trkpt lat="45.93734" lon="6.38339">
        <ele>1651</ele>
        <time>2026-08-19T10:14:41.344Z</time>
      </trkpt>
      <trkpt lat="45.93733" lon="6.38338">
        <ele>1650</ele>
        <time>2026-08-19T10:14:42.344Z</time>
      </trkpt>
      <trkpt lat="45.93732" lon="6.38336">
        <ele>1650</ele>
        <time>2026-08-19T10:14:43.344Z</time>
      </trkpt>
      <trkpt lat="45.93731" lon="6.38335">
        <ele>1649</ele>
        <time>2026-08-19T10:14:44.344Z</time>
      </trkpt>
      <trkpt lat="45.93731" lon="6.38334">
        <ele>1648</ele>
        <time>2026-08-19T10:14:45.344Z</time>
      </trkpt>
      <trkpt lat="45.9373" lon="6.38334">
        <ele>1648</ele>
        <time>2026-08-19T10:14:46.344Z</time>
      </trkpt>
      <trkpt lat="45.9373" lon="6.38334">
        <ele>1648</ele>
        <time>2026-08-19T10:14:47.344Z</time>
      </trkpt>
      <trkpt lat="45.93728" lon="6.38334">
        <ele>1648</ele>
        <time>2026-08-19T10:14:48.344Z</time>
      </trkpt>
      <trkpt lat="45.93728" lon="6.38334">
        <ele>1648</ele>
        <time>2026-08-19T10:14:49.344Z</time>
      </trkpt>
      <trkpt lat="45.93727" lon="6.38335">
        <ele>1647</ele>
        <time>2026-08-19T10:14:50.345Z</time>
      </trkpt>
      <trkpt lat="45.93726" lon="6.38335">
        <ele>1647</ele>
        <time>2026-08-19T10:14:51.344Z</time>
      </trkpt>
      <trkpt lat="45.93725" lon="6.38335">
        <ele>1647</ele>
        <time>2026-08-19T10:14:52.344Z</time>
      </trkpt>
      <trkpt lat="45.93725" lon="6.38336">
        <ele>1648</ele>
        <time>2026-08-19T10:14:53.344Z</time>
      </trkpt>
      <trkpt lat="45.93725" lon="6.38336">
        <ele>1648</ele>
        <time>2026-08-19T10:14:54.344Z</time>
      </trkpt>
      <trkpt lat="45.93725" lon="6.38337">
        <ele>1648</ele>
        <time>2026-08-19T10:14:55.344Z</time>
      </trkpt>
      <trkpt lat="45.93724" lon="6.38337">
        <ele>1648</ele>
        <time>2026-08-19T10:14:56.344Z</time>
      </trkpt>
      <trkpt lat="45.93723" lon="6.38338">
        <ele>1648</ele>
        <time>2026-08-19T10:14:57.344Z</time>
      </trkpt>
      <trkpt lat="45.93723" lon="6.38338">
        <ele>1648</ele>
        <time>2026-08-19T10:14:58.344Z</time>
      </trkpt>
      <trkpt lat="45.93723" lon="6.38339">
        <ele>1648</ele>
        <time>2026-08-19T10:14:59.344Z</time>
      </trkpt>
      <trkpt lat="45.93723" lon="6.3834">
        <ele>1648</ele>
        <time>2026-08-19T10:15:00.344Z</time>
      </trkpt>
      <trkpt lat="45.93723" lon="6.38342">
        <ele>1647</ele>
        <time>2026-08-19T10:15:01.344Z</time>
      </trkpt>
      <trkpt lat="45.93724" lon="6.38343">
        <ele>1647</ele>
        <time>2026-08-19T10:15:02.344Z</time>
      </trkpt>
      <trkpt lat="45.93724" lon="6.38343">
        <ele>1647</ele>
        <time>2026-08-19T10:15:03.344Z</time>
      </trkpt>
      <trkpt lat="45.93724" lon="6.38344">
        <ele>1647</ele>
        <time>2026-08-19T10:15:04.344Z</time>
      </trkpt>
      <trkpt lat="45.93724" lon="6.38344">
        <ele>1647</ele>
        <time>2026-08-19T10:15:05.344Z</time>
      </trkpt>
      <trkpt lat="45.93724" lon="6.38344">
        <ele>1647</ele>
        <time>2026-08-19T10:15:06.344Z</time>
      </trkpt>
      <trkpt lat="45.93724" lon="6.38344">
        <ele>1647</ele>
        <time>2026-08-19T10:15:07.344Z</time>
      </trkpt>
      <trkpt lat="45.93724" lon="6.38344">
        <ele>1648</ele>
        <time>2026-08-19T10:15:08.344Z</time>
      </trkpt>
      <trkpt lat="45.93724" lon="6.38344">
        <ele>1648</ele>
        <time>2026-08-19T10:15:09.344Z</time>
      </trkpt>
      <trkpt lat="45.93724" lon="6.38344">
        <ele>1649</ele>
        <time>2026-08-19T10:15:10.344Z</time>
      </trkpt>
      <trkpt lat="45.93724" lon="6.38345">
        <ele>1649</ele>
        <time>2026-08-19T10:15:11.344Z</time>
      </trkpt>
      <trkpt lat="45.93724" lon="6.38345">
        <ele>1649</ele>
        <time>2026-08-19T10:15:12.344Z</time>
      </trkpt>
      <trkpt lat="45.93723" lon="6.38346">
        <ele>1649</ele>
        <time>2026-08-19T10:15:13.344Z</time>
      </trkpt>
      <trkpt lat="45.93723" lon="6.38346">
        <ele>1649</ele>
        <time>2026-08-19T10:15:14.344Z</time>
      </trkpt>
      <trkpt lat="45.93722" lon="6.38347">
        <ele>1649</ele>
        <time>2026-08-19T10:15:15.345Z</time>
      </trkpt>
      <trkpt lat="45.93722" lon="6.38347">
        <ele>1649</ele>
        <time>2026-08-19T10:15:16.344Z</time>
      </trkpt>
      <trkpt lat="45.93722" lon="6.38346">
        <ele>1649</ele>
        <time>2026-08-19T10:15:17.344Z</time>
      </trkpt>
      <trkpt lat="45.93722" lon="6.38347">
        <ele>1649</ele>
        <time>2026-08-19T10:15:18.344Z</time>
      </trkpt>
      <trkpt lat="45.93722" lon="6.38347">
        <ele>1649</ele>
        <time>2026-08-19T10:15:19.344Z</time>
      </trkpt>
      <trkpt lat="45.93721" lon="6.38347">
        <ele>1649</ele>
        <time>2026-08-19T10:15:20.344Z</time>
      </trkpt>
      <trkpt lat="45.93721" lon="6.38347">
        <ele>1649</ele>
        <time>2026-08-19T10:15:21.344Z</time>
      </trkpt>
      <trkpt lat="45.9372" lon="6.38348">
        <ele>1649</ele>
        <time>2026-08-19T10:15:22.345Z</time>
      </trkpt>
      <trkpt lat="45.9372" lon="6.38348">
        <ele>1649</ele>
        <time>2026-08-19T10:15:23.344Z</time>
      </trkpt>
      <trkpt lat="45.9372" lon="6.38349">
        <ele>1649</ele>
        <time>2026-08-19T10:15:24.344Z</time>
      </trkpt>
      <trkpt lat="45.93719" lon="6.38349">
        <ele>1648</ele>
        <time>2026-08-19T10:15:25.344Z</time>
      </trkpt>
      <trkpt lat="45.93719" lon="6.3835">
        <ele>1648</ele>
        <time>2026-08-19T10:15:26.344Z</time>
      </trkpt>
      <trkpt lat="45.93718" lon="6.38351">
        <ele>1648</ele>
        <time>2026-08-19T10:15:27.344Z</time>
      </trkpt>
      <trkpt lat="45.93718" lon="6.38352">
        <ele>1647</ele>
        <time>2026-08-19T10:15:28.344Z</time>
      </trkpt>
      <trkpt lat="45.93718" lon="6.38353">
        <ele>1647</ele>
        <time>2026-08-19T10:15:29.344Z</time>
      </trkpt>
      <trkpt lat="45.93718" lon="6.38354">
        <ele>1647</ele>
        <time>2026-08-19T10:15:30.344Z</time>
      </trkpt>
      <trkpt lat="45.93718" lon="6.38355">
        <ele>1647</ele>
        <time>2026-08-19T10:15:31.344Z</time>
      </trkpt>
      <trkpt lat="45.93717" lon="6.38355">
        <ele>1647</ele>
        <time>2026-08-19T10:15:32.344Z</time>
      </trkpt>
      <trkpt lat="45.93717" lon="6.38356">
        <ele>1647</ele>
        <time>2026-08-19T10:15:33.344Z</time>
      </trkpt>
      <trkpt lat="45.93717" lon="6.38357">
        <ele>1647</ele>
        <time>2026-08-19T10:15:34.344Z</time>
      </trkpt>
      <trkpt lat="45.93717" lon="6.38358">
        <ele>1647</ele>
        <time>2026-08-19T10:15:35.344Z</time>
      </trkpt>
      <trkpt lat="45.93716" lon="6.38359">
        <ele>1646</ele>
        <time>2026-08-19T10:15:36.344Z</time>
      </trkpt>
      <trkpt lat="45.93716" lon="6.3836">
        <ele>1646</ele>
        <time>2026-08-19T10:15:37.344Z</time>
      </trkpt>
      <trkpt lat="45.93716" lon="6.38362">
        <ele>1646</ele>
        <time>2026-08-19T10:15:38.344Z</time>
      </trkpt>
      <trkpt lat="45.93714" lon="6.38363">
        <ele>1646</ele>
        <time>2026-08-19T10:15:39.344Z</time>
      </trkpt>
      <trkpt lat="45.93713" lon="6.38365">
        <ele>1645</ele>
        <time>2026-08-19T10:15:40.344Z</time>
      </trkpt>
      <trkpt lat="45.93711" lon="6.38366">
        <ele>1645</ele>
        <time>2026-08-19T10:15:41.344Z</time>
      </trkpt>
      <trkpt lat="45.9371" lon="6.38366">
        <ele>1645</ele>
        <time>2026-08-19T10:15:42.345Z</time>
      </trkpt>
      <trkpt lat="45.9371" lon="6.38366">
        <ele>1644</ele>
        <time>2026-08-19T10:15:43.344Z</time>
      </trkpt>
      <trkpt lat="45.93709" lon="6.38366">
        <ele>1643</ele>
        <time>2026-08-19T10:15:44.344Z</time>
      </trkpt>
      <trkpt lat="45.93708" lon="6.38366">
        <ele>1643</ele>
        <time>2026-08-19T10:15:45.344Z</time>
      </trkpt>
      <trkpt lat="45.93707" lon="6.38366">
        <ele>1642</ele>
        <time>2026-08-19T10:15:46.344Z</time>
      </trkpt>
      <trkpt lat="45.93706" lon="6.38366">
        <ele>1642</ele>
        <time>2026-08-19T10:15:47.345Z</time>
      </trkpt>
      <trkpt lat="45.93705" lon="6.38367">
        <ele>1641</ele>
        <time>2026-08-19T10:15:48.344Z</time>
      </trkpt>
      <trkpt lat="45.93705" lon="6.38368">
        <ele>1641</ele>
        <time>2026-08-19T10:15:49.344Z</time>
      </trkpt>
      <trkpt lat="45.93704" lon="6.38369">
        <ele>1641</ele>
        <time>2026-08-19T10:15:50.344Z</time>
      </trkpt>
      <trkpt lat="45.93703" lon="6.3837">
        <ele>1640</ele>
        <time>2026-08-19T10:15:51.344Z</time>
      </trkpt>
      <trkpt lat="45.93702" lon="6.38372">
        <ele>1640</ele>
        <time>2026-08-19T10:15:52.344Z</time>
      </trkpt>
      <trkpt lat="45.93702" lon="6.38373">
        <ele>1639</ele>
        <time>2026-08-19T10:15:53.344Z</time>
      </trkpt>
      <trkpt lat="45.93701" lon="6.38375">
        <ele>1639</ele>
        <time>2026-08-19T10:15:54.344Z</time>
      </trkpt>
      <trkpt lat="45.937" lon="6.38377">
        <ele>1638</ele>
        <time>2026-08-19T10:15:55.344Z</time>
      </trkpt>
      <trkpt lat="45.93699" lon="6.38379">
        <ele>1638</ele>
        <time>2026-08-19T10:15:56.344Z</time>
      </trkpt>
      <trkpt lat="45.93699" lon="6.38381">
        <ele>1637</ele>
        <time>2026-08-19T10:15:57.344Z</time>
      </trkpt>
      <trkpt lat="45.93698" lon="6.38382">
        <ele>1637</ele>
        <time>2026-08-19T10:15:58.344Z</time>
      </trkpt>
      <trkpt lat="45.93697" lon="6.38383">
        <ele>1637</ele>
        <time>2026-08-19T10:15:59.344Z</time>
      </trkpt>
      <trkpt lat="45.93696" lon="6.38384">
        <ele>1636</ele>
        <time>2026-08-19T10:16:00.344Z</time>
      </trkpt>
      <trkpt lat="45.93695" lon="6.38385">
        <ele>1636</ele>
        <time>2026-08-19T10:16:01.344Z</time>
      </trkpt>
      <trkpt lat="45.93694" lon="6.38386">
        <ele>1635</ele>
        <time>2026-08-19T10:16:02.344Z</time>
      </trkpt>
      <trkpt lat="45.93693" lon="6.38388">
        <ele>1635</ele>
        <time>2026-08-19T10:16:03.344Z</time>
      </trkpt>
      <trkpt lat="45.93693" lon="6.38389">
        <ele>1634</ele>
        <time>2026-08-19T10:16:04.344Z</time>
      </trkpt>
      <trkpt lat="45.93692" lon="6.38391">
        <ele>1634</ele>
        <time>2026-08-19T10:16:05.344Z</time>
      </trkpt>
      <trkpt lat="45.93691" lon="6.38393">
        <ele>1633</ele>
        <time>2026-08-19T10:16:06.344Z</time>
      </trkpt>
      <trkpt lat="45.93691" lon="6.38395">
        <ele>1633</ele>
        <time>2026-08-19T10:16:07.345Z</time>
      </trkpt>
      <trkpt lat="45.9369" lon="6.38396">
        <ele>1633</ele>
        <time>2026-08-19T10:16:08.344Z</time>
      </trkpt>
      <trkpt lat="45.93689" lon="6.38398">
        <ele>1633</ele>
        <time>2026-08-19T10:16:09.344Z</time>
      </trkpt>
      <trkpt lat="45.93688" lon="6.384">
        <ele>1632</ele>
        <time>2026-08-19T10:16:10.344Z</time>
      </trkpt>
      <trkpt lat="45.93688" lon="6.38402">
        <ele>1632</ele>
        <time>2026-08-19T10:16:11.344Z</time>
      </trkpt>
      <trkpt lat="45.93687" lon="6.38403">
        <ele>1632</ele>
        <time>2026-08-19T10:16:12.344Z</time>
      </trkpt>
      <trkpt lat="45.93687" lon="6.38404">
        <ele>1631</ele>
        <time>2026-08-19T10:16:13.344Z</time>
      </trkpt>
      <trkpt lat="45.93686" lon="6.38406">
        <ele>1631</ele>
        <time>2026-08-19T10:16:14.344Z</time>
      </trkpt>
      <trkpt lat="45.93687" lon="6.38408">
        <ele>1631</ele>
        <time>2026-08-19T10:16:15.344Z</time>
      </trkpt>
      <trkpt lat="45.93686" lon="6.38408">
        <ele>1631</ele>
        <time>2026-08-19T10:16:16.344Z</time>
      </trkpt>
      <trkpt lat="45.93686" lon="6.38409">
        <ele>1631</ele>
        <time>2026-08-19T10:16:17.344Z</time>
      </trkpt>
      <trkpt lat="45.93686" lon="6.3841">
        <ele>1632</ele>
        <time>2026-08-19T10:16:18.344Z</time>
      </trkpt>
      <trkpt lat="45.93685" lon="6.38412">
        <ele>1632</ele>
        <time>2026-08-19T10:16:19.344Z</time>
      </trkpt>
      <trkpt lat="45.93683" lon="6.38414">
        <ele>1632</ele>
        <time>2026-08-19T10:16:20.344Z</time>
      </trkpt>
      <trkpt lat="45.93681" lon="6.38416">
        <ele>1632</ele>
        <time>2026-08-19T10:16:21.344Z</time>
      </trkpt>
      <trkpt lat="45.93679" lon="6.38417">
        <ele>1632</ele>
        <time>2026-08-19T10:16:22.344Z</time>
      </trkpt>
      <trkpt lat="45.93678" lon="6.38418">
        <ele>1632</ele>
        <time>2026-08-19T10:16:23.344Z</time>
      </trkpt>
      <trkpt lat="45.93676" lon="6.38418">
        <ele>1632</ele>
        <time>2026-08-19T10:16:24.344Z</time>
      </trkpt>
      <trkpt lat="45.93674" lon="6.38419">
        <ele>1632</ele>
        <time>2026-08-19T10:16:25.344Z</time>
      </trkpt>
      <trkpt lat="45.93673" lon="6.3842">
        <ele>1633</ele>
        <time>2026-08-19T10:16:26.344Z</time>
      </trkpt>
      <trkpt lat="45.93672" lon="6.38421">
        <ele>1633</ele>
        <time>2026-08-19T10:16:27.344Z</time>
      </trkpt>
      <trkpt lat="45.9367" lon="6.38422">
        <ele>1633</ele>
        <time>2026-08-19T10:16:28.344Z</time>
      </trkpt>
      <trkpt lat="45.93668" lon="6.38425">
        <ele>1633</ele>
        <time>2026-08-19T10:16:29.344Z</time>
      </trkpt>
      <trkpt lat="45.93667" lon="6.38427">
        <ele>1633</ele>
        <time>2026-08-19T10:16:30.344Z</time>
      </trkpt>
      <trkpt lat="45.93665" lon="6.38429">
        <ele>1633</ele>
        <time>2026-08-19T10:16:31.344Z</time>
      </trkpt>
      <trkpt lat="45.93664" lon="6.3843">
        <ele>1634</ele>
        <time>2026-08-19T10:16:32.344Z</time>
      </trkpt>
      <trkpt lat="45.93663" lon="6.38431">
        <ele>1634</ele>
        <time>2026-08-19T10:16:33.344Z</time>
      </trkpt>
      <trkpt lat="45.93662" lon="6.38432">
        <ele>1634</ele>
        <time>2026-08-19T10:16:34.344Z</time>
      </trkpt>
      <trkpt lat="45.93662" lon="6.38433">
        <ele>1634</ele>
        <time>2026-08-19T10:16:35.344Z</time>
      </trkpt>
      <trkpt lat="45.93662" lon="6.38433">
        <ele>1634</ele>
        <time>2026-08-19T10:16:36.344Z</time>
      </trkpt>
      <trkpt lat="45.93662" lon="6.38435">
        <ele>1634</ele>
        <time>2026-08-19T10:16:37.344Z</time>
      </trkpt>
      <trkpt lat="45.93662" lon="6.38436">
        <ele>1633</ele>
        <time>2026-08-19T10:16:38.344Z</time>
      </trkpt>
      <trkpt lat="45.93661" lon="6.38437">
        <ele>1633</ele>
        <time>2026-08-19T10:16:39.344Z</time>
      </trkpt>
      <trkpt lat="45.93661" lon="6.38439">
        <ele>1633</ele>
        <time>2026-08-19T10:16:40.344Z</time>
      </trkpt>
      <trkpt lat="45.93661" lon="6.3844">
        <ele>1633</ele>
        <time>2026-08-19T10:16:41.344Z</time>
      </trkpt>
      <trkpt lat="45.93661" lon="6.38441">
        <ele>1633</ele>
        <time>2026-08-19T10:16:42.344Z</time>
      </trkpt>
      <trkpt lat="45.9366" lon="6.38442">
        <ele>1633</ele>
        <time>2026-08-19T10:16:43.344Z</time>
      </trkpt>
      <trkpt lat="45.93659" lon="6.38443">
        <ele>1632</ele>
        <time>2026-08-19T10:16:44.344Z</time>
      </trkpt>
      <trkpt lat="45.93659" lon="6.38445">
        <ele>1632</ele>
        <time>2026-08-19T10:16:45.345Z</time>
      </trkpt>
      <trkpt lat="45.9366" lon="6.38446">
        <ele>1632</ele>
        <time>2026-08-19T10:16:46.344Z</time>
      </trkpt>
      <trkpt lat="45.9366" lon="6.38446">
        <ele>1632</ele>
        <time>2026-08-19T10:16:47.344Z</time>
      </trkpt>
      <trkpt lat="45.93661" lon="6.38448">
        <ele>1632</ele>
        <time>2026-08-19T10:16:48.344Z</time>
      </trkpt>
      <trkpt lat="45.93661" lon="6.38449">
        <ele>1632</ele>
        <time>2026-08-19T10:16:49.344Z</time>
      </trkpt>
      <trkpt lat="45.93661" lon="6.38451">
        <ele>1632</ele>
        <time>2026-08-19T10:16:50.344Z</time>
      </trkpt>
      <trkpt lat="45.93661" lon="6.38453">
        <ele>1632</ele>
        <time>2026-08-19T10:16:51.344Z</time>
      </trkpt>
      <trkpt lat="45.93661" lon="6.38455">
        <ele>1632</ele>
        <time>2026-08-19T10:16:52.344Z</time>
      </trkpt>
      <trkpt lat="45.9366" lon="6.38457">
        <ele>1632</ele>
        <time>2026-08-19T10:16:53.344Z</time>
      </trkpt>
      <trkpt lat="45.9366" lon="6.38458">
        <ele>1632</ele>
        <time>2026-08-19T10:16:54.344Z</time>
      </trkpt>
      <trkpt lat="45.93659" lon="6.38459">
        <ele>1632</ele>
        <time>2026-08-19T10:16:55.344Z</time>
      </trkpt>
      <trkpt lat="45.93658" lon="6.3846">
        <ele>1632</ele>
        <time>2026-08-19T10:16:56.344Z</time>
      </trkpt>
      <trkpt lat="45.93658" lon="6.38461">
        <ele>1631</ele>
        <time>2026-08-19T10:16:57.344Z</time>
      </trkpt>
      <trkpt lat="45.93657" lon="6.38463">
        <ele>1631</ele>
        <time>2026-08-19T10:16:58.344Z</time>
      </trkpt>
      <trkpt lat="45.93656" lon="6.38464">
        <ele>1631</ele>
        <time>2026-08-19T10:16:59.344Z</time>
      </trkpt>
      <trkpt lat="45.93655" lon="6.38466">
        <ele>1631</ele>
        <time>2026-08-19T10:17:00.344Z</time>
      </trkpt>
      <trkpt lat="45.93654" lon="6.38468">
        <ele>1630</ele>
        <time>2026-08-19T10:17:01.344Z</time>
      </trkpt>
      <trkpt lat="45.93653" lon="6.38469">
        <ele>1630</ele>
        <time>2026-08-19T10:17:02.344Z</time>
      </trkpt>
      <trkpt lat="45.93652" lon="6.38471">
        <ele>1629</ele>
        <time>2026-08-19T10:17:03.344Z</time>
      </trkpt>
      <trkpt lat="45.93651" lon="6.38473">
        <ele>1629</ele>
        <time>2026-08-19T10:17:04.344Z</time>
      </trkpt>
      <trkpt lat="45.9365" lon="6.38475">
        <ele>1628</ele>
        <time>2026-08-19T10:17:05.344Z</time>
      </trkpt>
      <trkpt lat="45.9365" lon="6.38477">
        <ele>1628</ele>
        <time>2026-08-19T10:17:06.344Z</time>
      </trkpt>
      <trkpt lat="45.9365" lon="6.38478">
        <ele>1628</ele>
        <time>2026-08-19T10:17:07.344Z</time>
      </trkpt>
      <trkpt lat="45.93649" lon="6.38479">
        <ele>1628</ele>
        <time>2026-08-19T10:17:08.344Z</time>
      </trkpt>
      <trkpt lat="45.93647" lon="6.3848">
        <ele>1628</ele>
        <time>2026-08-19T10:17:09.344Z</time>
      </trkpt>
      <trkpt lat="45.93645" lon="6.3848">
        <ele>1628</ele>
        <time>2026-08-19T10:17:10.345Z</time>
      </trkpt>
      <trkpt lat="45.93644" lon="6.3848">
        <ele>1628</ele>
        <time>2026-08-19T10:17:11.344Z</time>
      </trkpt>
      <trkpt lat="45.93643" lon="6.38481">
        <ele>1628</ele>
        <time>2026-08-19T10:17:12.344Z</time>
      </trkpt>
      <trkpt lat="45.93642" lon="6.38481">
        <ele>1628</ele>
        <time>2026-08-19T10:17:13.344Z</time>
      </trkpt>
      <trkpt lat="45.9364" lon="6.38481">
        <ele>1628</ele>
        <time>2026-08-19T10:17:14.344Z</time>
      </trkpt>
      <trkpt lat="45.93638" lon="6.38482">
        <ele>1628</ele>
        <time>2026-08-19T10:17:15.344Z</time>
      </trkpt>
      <trkpt lat="45.93637" lon="6.38482">
        <ele>1628</ele>
        <time>2026-08-19T10:17:16.344Z</time>
      </trkpt>
      <trkpt lat="45.93635" lon="6.38482">
        <ele>1628</ele>
        <time>2026-08-19T10:17:17.344Z</time>
      </trkpt>
      <trkpt lat="45.93635" lon="6.38483">
        <ele>1628</ele>
        <time>2026-08-19T10:17:18.344Z</time>
      </trkpt>
      <trkpt lat="45.93635" lon="6.38484">
        <ele>1627</ele>
        <time>2026-08-19T10:17:19.344Z</time>
      </trkpt>
      <trkpt lat="45.93634" lon="6.38485">
        <ele>1627</ele>
        <time>2026-08-19T10:17:20.344Z</time>
      </trkpt>
      <trkpt lat="45.93633" lon="6.38487">
        <ele>1627</ele>
        <time>2026-08-19T10:17:21.344Z</time>
      </trkpt>
      <trkpt lat="45.93632" lon="6.38488">
        <ele>1626</ele>
        <time>2026-08-19T10:17:22.344Z</time>
      </trkpt>
      <trkpt lat="45.93631" lon="6.38489">
        <ele>1626</ele>
        <time>2026-08-19T10:17:23.344Z</time>
      </trkpt>
      <trkpt lat="45.9363" lon="6.38491">
        <ele>1626</ele>
        <time>2026-08-19T10:17:24.345Z</time>
      </trkpt>
      <trkpt lat="45.93629" lon="6.38492">
        <ele>1625</ele>
        <time>2026-08-19T10:17:25.344Z</time>
      </trkpt>
      <trkpt lat="45.93629" lon="6.38494">
        <ele>1625</ele>
        <time>2026-08-19T10:17:26.344Z</time>
      </trkpt>
      <trkpt lat="45.93628" lon="6.38495">
        <ele>1625</ele>
        <time>2026-08-19T10:17:27.344Z</time>
      </trkpt>
      <trkpt lat="45.93627" lon="6.38496">
        <ele>1624</ele>
        <time>2026-08-19T10:17:28.344Z</time>
      </trkpt>
      <trkpt lat="45.93626" lon="6.38498">
        <ele>1624</ele>
        <time>2026-08-19T10:17:29.344Z</time>
      </trkpt>
      <trkpt lat="45.93626" lon="6.38499">
        <ele>1623</ele>
        <time>2026-08-19T10:17:30.344Z</time>
      </trkpt>
      <trkpt lat="45.93626" lon="6.385">
        <ele>1623</ele>
        <time>2026-08-19T10:17:31.344Z</time>
      </trkpt>
      <trkpt lat="45.93626" lon="6.385">
        <ele>1622</ele>
        <time>2026-08-19T10:17:32.344Z</time>
      </trkpt>
      <trkpt lat="45.93626" lon="6.385">
        <ele>1622</ele>
        <time>2026-08-19T10:17:33.344Z</time>
      </trkpt>
      <trkpt lat="45.93626" lon="6.38501">
        <ele>1622</ele>
        <time>2026-08-19T10:17:34.344Z</time>
      </trkpt>
      <trkpt lat="45.93626" lon="6.38502">
        <ele>1621</ele>
        <time>2026-08-19T10:17:35.344Z</time>
      </trkpt>
      <trkpt lat="45.93626" lon="6.38502">
        <ele>1621</ele>
        <time>2026-08-19T10:17:36.344Z</time>
      </trkpt>
      <trkpt lat="45.93626" lon="6.38503">
        <ele>1621</ele>
        <time>2026-08-19T10:17:37.345Z</time>
      </trkpt>
      <trkpt lat="45.93626" lon="6.38504">
        <ele>1620</ele>
        <time>2026-08-19T10:17:38.344Z</time>
      </trkpt>
      <trkpt lat="45.93625" lon="6.38505">
        <ele>1620</ele>
        <time>2026-08-19T10:17:39.344Z</time>
      </trkpt>
      <trkpt lat="45.93624" lon="6.38506">
        <ele>1619</ele>
        <time>2026-08-19T10:17:40.344Z</time>
      </trkpt>
      <trkpt lat="45.93623" lon="6.38507">
        <ele>1619</ele>
        <time>2026-08-19T10:17:41.344Z</time>
      </trkpt>
      <trkpt lat="45.93622" lon="6.38508">
        <ele>1618</ele>
        <time>2026-08-19T10:17:42.344Z</time>
      </trkpt>
      <trkpt lat="45.93621" lon="6.38509">
        <ele>1617</ele>
        <time>2026-08-19T10:17:43.344Z</time>
      </trkpt>
      <trkpt lat="45.9362" lon="6.38509">
        <ele>1616</ele>
        <time>2026-08-19T10:17:44.344Z</time>
      </trkpt>
      <trkpt lat="45.93619" lon="6.3851">
        <ele>1615</ele>
        <time>2026-08-19T10:17:45.344Z</time>
      </trkpt>
      <trkpt lat="45.93617" lon="6.3851">
        <ele>1614</ele>
        <time>2026-08-19T10:17:46.345Z</time>
      </trkpt>
      <trkpt lat="45.93616" lon="6.38509">
        <ele>1613</ele>
        <time>2026-08-19T10:17:47.344Z</time>
      </trkpt>
      <trkpt lat="45.93615" lon="6.3851">
        <ele>1612</ele>
        <time>2026-08-19T10:17:48.344Z</time>
      </trkpt>
      <trkpt lat="45.93614" lon="6.3851">
        <ele>1611</ele>
        <time>2026-08-19T10:17:49.344Z</time>
      </trkpt>
      <trkpt lat="45.93612" lon="6.38509">
        <ele>1610</ele>
        <time>2026-08-19T10:17:50.344Z</time>
      </trkpt>
      <trkpt lat="45.9361" lon="6.38508">
        <ele>1610</ele>
        <time>2026-08-19T10:17:51.344Z</time>
      </trkpt>
      <trkpt lat="45.93608" lon="6.38508">
        <ele>1609</ele>
        <time>2026-08-19T10:17:52.344Z</time>
      </trkpt>
      <trkpt lat="45.93608" lon="6.38507">
        <ele>1609</ele>
        <time>2026-08-19T10:17:53.344Z</time>
      </trkpt>
      <trkpt lat="45.93607" lon="6.38507">
        <ele>1609</ele>
        <time>2026-08-19T10:17:54.344Z</time>
      </trkpt>
      <trkpt lat="45.93605" lon="6.38507">
        <ele>1609</ele>
        <time>2026-08-19T10:17:55.345Z</time>
      </trkpt>
      <trkpt lat="45.93604" lon="6.38507">
        <ele>1609</ele>
        <time>2026-08-19T10:17:56.344Z</time>
      </trkpt>
      <trkpt lat="45.93603" lon="6.38508">
        <ele>1609</ele>
        <time>2026-08-19T10:17:57.344Z</time>
      </trkpt>
      <trkpt lat="45.93601" lon="6.38509">
        <ele>1609</ele>
        <time>2026-08-19T10:17:58.344Z</time>
      </trkpt>
      <trkpt lat="45.93601" lon="6.3851">
        <ele>1609</ele>
        <time>2026-08-19T10:17:59.344Z</time>
      </trkpt>
      <trkpt lat="45.936" lon="6.38512">
        <ele>1609</ele>
        <time>2026-08-19T10:18:00.344Z</time>
      </trkpt>
      <trkpt lat="45.93599" lon="6.38513">
        <ele>1609</ele>
        <time>2026-08-19T10:18:01.344Z</time>
      </trkpt>
      <trkpt lat="45.93598" lon="6.38514">
        <ele>1609</ele>
        <time>2026-08-19T10:18:02.344Z</time>
      </trkpt>
      <trkpt lat="45.93598" lon="6.38513">
        <ele>1609</ele>
        <time>2026-08-19T10:18:03.344Z</time>
      </trkpt>
      <trkpt lat="45.93597" lon="6.38514">
        <ele>1609</ele>
        <time>2026-08-19T10:18:04.344Z</time>
      </trkpt>
      <trkpt lat="45.93596" lon="6.38516">
        <ele>1608</ele>
        <time>2026-08-19T10:18:05.344Z</time>
      </trkpt>
      <trkpt lat="45.93595" lon="6.38516">
        <ele>1608</ele>
        <time>2026-08-19T10:18:06.344Z</time>
      </trkpt>
      <trkpt lat="45.93594" lon="6.38516">
        <ele>1607</ele>
        <time>2026-08-19T10:18:07.344Z</time>
      </trkpt>
      <trkpt lat="45.93593" lon="6.38517">
        <ele>1607</ele>
        <time>2026-08-19T10:18:08.344Z</time>
      </trkpt>
      <trkpt lat="45.93592" lon="6.38518">
        <ele>1606</ele>
        <time>2026-08-19T10:18:09.344Z</time>
      </trkpt>
      <trkpt lat="45.93591" lon="6.38519">
        <ele>1606</ele>
        <time>2026-08-19T10:18:10.344Z</time>
      </trkpt>
      <trkpt lat="45.9359" lon="6.3852">
        <ele>1606</ele>
        <time>2026-08-19T10:18:11.345Z</time>
      </trkpt>
      <trkpt lat="45.93588" lon="6.38521">
        <ele>1606</ele>
        <time>2026-08-19T10:18:12.344Z</time>
      </trkpt>
      <trkpt lat="45.93587" lon="6.38522">
        <ele>1605</ele>
        <time>2026-08-19T10:18:13.344Z</time>
      </trkpt>
      <trkpt lat="45.93586" lon="6.38522">
        <ele>1605</ele>
        <time>2026-08-19T10:18:14.344Z</time>
      </trkpt>
      <trkpt lat="45.93585" lon="6.38522">
        <ele>1604</ele>
        <time>2026-08-19T10:18:15.344Z</time>
      </trkpt>
      <trkpt lat="45.93583" lon="6.38523">
        <ele>1604</ele>
        <time>2026-08-19T10:18:16.344Z</time>
      </trkpt>
      <trkpt lat="45.93582" lon="6.38523">
        <ele>1604</ele>
        <time>2026-08-19T10:18:17.344Z</time>
      </trkpt>
      <trkpt lat="45.93581" lon="6.38523">
        <ele>1604</ele>
        <time>2026-08-19T10:18:18.344Z</time>
      </trkpt>
      <trkpt lat="45.9358" lon="6.38523">
        <ele>1604</ele>
        <time>2026-08-19T10:18:19.344Z</time>
      </trkpt>
      <trkpt lat="45.93579" lon="6.38524">
        <ele>1604</ele>
        <time>2026-08-19T10:18:20.344Z</time>
      </trkpt>
      <trkpt lat="45.93578" lon="6.38524">
        <ele>1603</ele>
        <time>2026-08-19T10:18:21.344Z</time>
      </trkpt>
      <trkpt lat="45.93578" lon="6.38524">
        <ele>1603</ele>
        <time>2026-08-19T10:18:22.344Z</time>
      </trkpt>
      <trkpt lat="45.93578" lon="6.38524">
        <ele>1601</ele>
        <time>2026-08-19T10:18:23.344Z</time>
      </trkpt>
      <trkpt lat="45.93577" lon="6.38525">
        <ele>1601</ele>
        <time>2026-08-19T10:18:24.344Z</time>
      </trkpt>
      <trkpt lat="45.93576" lon="6.38526">
        <ele>1600</ele>
        <time>2026-08-19T10:18:25.344Z</time>
      </trkpt>
      <trkpt lat="45.93575" lon="6.38528">
        <ele>1599</ele>
        <time>2026-08-19T10:18:26.344Z</time>
      </trkpt>
      <trkpt lat="45.93574" lon="6.38529">
        <ele>1599</ele>
        <time>2026-08-19T10:18:27.344Z</time>
      </trkpt>
      <trkpt lat="45.93572" lon="6.3853">
        <ele>1599</ele>
        <time>2026-08-19T10:18:28.344Z</time>
      </trkpt>
      <trkpt lat="45.9357" lon="6.38531">
        <ele>1599</ele>
        <time>2026-08-19T10:18:29.344Z</time>
      </trkpt>
      <trkpt lat="45.93568" lon="6.38532">
        <ele>1599</ele>
        <time>2026-08-19T10:18:30.344Z</time>
      </trkpt>
      <trkpt lat="45.93566" lon="6.38533">
        <ele>1599</ele>
        <time>2026-08-19T10:18:31.344Z</time>
      </trkpt>
      <trkpt lat="45.93564" lon="6.38534">
        <ele>1598</ele>
        <time>2026-08-19T10:18:32.344Z</time>
      </trkpt>
      <trkpt lat="45.93563" lon="6.38535">
        <ele>1598</ele>
        <time>2026-08-19T10:18:33.344Z</time>
      </trkpt>
      <trkpt lat="45.93563" lon="6.38536">
        <ele>1598</ele>
        <time>2026-08-19T10:18:34.344Z</time>
      </trkpt>
      <trkpt lat="45.93562" lon="6.38537">
        <ele>1598</ele>
        <time>2026-08-19T10:18:35.344Z</time>
      </trkpt>
      <trkpt lat="45.9356" lon="6.38539">
        <ele>1597</ele>
        <time>2026-08-19T10:18:36.344Z</time>
      </trkpt>
      <trkpt lat="45.9356" lon="6.3854">
        <ele>1597</ele>
        <time>2026-08-19T10:18:37.344Z</time>
      </trkpt>
      <trkpt lat="45.9356" lon="6.38541">
        <ele>1597</ele>
        <time>2026-08-19T10:18:38.344Z</time>
      </trkpt>
      <trkpt lat="45.93559" lon="6.38543">
        <ele>1596</ele>
        <time>2026-08-19T10:18:39.345Z</time>
      </trkpt>
      <trkpt lat="45.93558" lon="6.38544">
        <ele>1596</ele>
        <time>2026-08-19T10:18:40.344Z</time>
      </trkpt>
      <trkpt lat="45.93558" lon="6.38545">
        <ele>1595</ele>
        <time>2026-08-19T10:18:41.344Z</time>
      </trkpt>
      <trkpt lat="45.93557" lon="6.38547">
        <ele>1594</ele>
        <time>2026-08-19T10:18:42.344Z</time>
      </trkpt>
      <trkpt lat="45.93557" lon="6.38549">
        <ele>1594</ele>
        <time>2026-08-19T10:18:43.344Z</time>
      </trkpt>
      <trkpt lat="45.93556" lon="6.3855">
        <ele>1593</ele>
        <time>2026-08-19T10:18:44.344Z</time>
      </trkpt>
      <trkpt lat="45.93556" lon="6.38552">
        <ele>1593</ele>
        <time>2026-08-19T10:18:45.344Z</time>
      </trkpt>
      <trkpt lat="45.93555" lon="6.38554">
        <ele>1592</ele>
        <time>2026-08-19T10:18:46.344Z</time>
      </trkpt>
      <trkpt lat="45.93555" lon="6.38556">
        <ele>1591</ele>
        <time>2026-08-19T10:18:47.344Z</time>
      </trkpt>
      <trkpt lat="45.93555" lon="6.38557">
        <ele>1591</ele>
        <time>2026-08-19T10:18:48.344Z</time>
      </trkpt>
      <trkpt lat="45.93554" lon="6.38559">
        <ele>1591</ele>
        <time>2026-08-19T10:18:49.344Z</time>
      </trkpt>
      <trkpt lat="45.93554" lon="6.38561">
        <ele>1590</ele>
        <time>2026-08-19T10:18:50.344Z</time>
      </trkpt>
      <trkpt lat="45.93553" lon="6.38562">
        <ele>1590</ele>
        <time>2026-08-19T10:18:51.344Z</time>
      </trkpt>
      <trkpt lat="45.93552" lon="6.38563">
        <ele>1589</ele>
        <time>2026-08-19T10:18:52.344Z</time>
      </trkpt>
      <trkpt lat="45.93551" lon="6.38564">
        <ele>1589</ele>
        <time>2026-08-19T10:18:53.344Z</time>
      </trkpt>
      <trkpt lat="45.9355" lon="6.38564">
        <ele>1588</ele>
        <time>2026-08-19T10:18:54.344Z</time>
      </trkpt>
      <trkpt lat="45.93549" lon="6.38565">
        <ele>1588</ele>
        <time>2026-08-19T10:18:55.344Z</time>
      </trkpt>
      <trkpt lat="45.93549" lon="6.38566">
        <ele>1588</ele>
        <time>2026-08-19T10:18:56.344Z</time>
      </trkpt>
      <trkpt lat="45.93548" lon="6.38567">
        <ele>1587</ele>
        <time>2026-08-19T10:18:57.344Z</time>
      </trkpt>
      <trkpt lat="45.93547" lon="6.38568">
        <ele>1587</ele>
        <time>2026-08-19T10:18:58.344Z</time>
      </trkpt>
      <trkpt lat="45.93546" lon="6.38568">
        <ele>1586</ele>
        <time>2026-08-19T10:18:59.344Z</time>
      </trkpt>
      <trkpt lat="45.93545" lon="6.38569">
        <ele>1586</ele>
        <time>2026-08-19T10:19:00.344Z</time>
      </trkpt>
      <trkpt lat="45.93545" lon="6.3857">
        <ele>1586</ele>
        <time>2026-08-19T10:19:01.344Z</time>
      </trkpt>
      <trkpt lat="45.93545" lon="6.38571">
        <ele>1585</ele>
        <time>2026-08-19T10:19:02.344Z</time>
      </trkpt>
      <trkpt lat="45.93545" lon="6.38573">
        <ele>1585</ele>
        <time>2026-08-19T10:19:03.344Z</time>
      </trkpt>
      <trkpt lat="45.93544" lon="6.38574">
        <ele>1584</ele>
        <time>2026-08-19T10:19:04.344Z</time>
      </trkpt>
      <trkpt lat="45.93543" lon="6.38575">
        <ele>1583</ele>
        <time>2026-08-19T10:19:05.344Z</time>
      </trkpt>
      <trkpt lat="45.93543" lon="6.38575">
        <ele>1583</ele>
        <time>2026-08-19T10:19:06.344Z</time>
      </trkpt>
      <trkpt lat="45.93543" lon="6.38576">
        <ele>1582</ele>
        <time>2026-08-19T10:19:07.344Z</time>
      </trkpt>
      <trkpt lat="45.93543" lon="6.38577">
        <ele>1582</ele>
        <time>2026-08-19T10:19:08.344Z</time>
      </trkpt>
      <trkpt lat="45.93542" lon="6.38579">
        <ele>1581</ele>
        <time>2026-08-19T10:19:09.344Z</time>
      </trkpt>
      <trkpt lat="45.93541" lon="6.38579">
        <ele>1581</ele>
        <time>2026-08-19T10:19:10.344Z</time>
      </trkpt>
      <trkpt lat="45.9354" lon="6.3858">
        <ele>1581</ele>
        <time>2026-08-19T10:19:11.344Z</time>
      </trkpt>
      <trkpt lat="45.93538" lon="6.3858">
        <ele>1580</ele>
        <time>2026-08-19T10:19:12.344Z</time>
      </trkpt>
      <trkpt lat="45.93537" lon="6.38581">
        <ele>1580</ele>
        <time>2026-08-19T10:19:13.344Z</time>
      </trkpt>
      <trkpt lat="45.93536" lon="6.38582">
        <ele>1579</ele>
        <time>2026-08-19T10:19:14.344Z</time>
      </trkpt>
      <trkpt lat="45.93536" lon="6.38583">
        <ele>1578</ele>
        <time>2026-08-19T10:19:15.344Z</time>
      </trkpt>
      <trkpt lat="45.93536" lon="6.38584">
        <ele>1578</ele>
        <time>2026-08-19T10:19:16.344Z</time>
      </trkpt>
      <trkpt lat="45.93535" lon="6.38585">
        <ele>1577</ele>
        <time>2026-08-19T10:19:17.344Z</time>
      </trkpt>
      <trkpt lat="45.93535" lon="6.38585">
        <ele>1577</ele>
        <time>2026-08-19T10:19:18.344Z</time>
      </trkpt>
      <trkpt lat="45.93534" lon="6.38586">
        <ele>1576</ele>
        <time>2026-08-19T10:19:19.344Z</time>
      </trkpt>
      <trkpt lat="45.93533" lon="6.38587">
        <ele>1576</ele>
        <time>2026-08-19T10:19:20.344Z</time>
      </trkpt>
      <trkpt lat="45.93532" lon="6.38588">
        <ele>1576</ele>
        <time>2026-08-19T10:19:21.344Z</time>
      </trkpt>
      <trkpt lat="45.93531" lon="6.38589">
        <ele>1575</ele>
        <time>2026-08-19T10:19:22.344Z</time>
      </trkpt>
      <trkpt lat="45.93531" lon="6.3859">
        <ele>1575</ele>
        <time>2026-08-19T10:19:23.344Z</time>
      </trkpt>
      <trkpt lat="45.93531" lon="6.38592">
        <ele>1575</ele>
        <time>2026-08-19T10:19:24.344Z</time>
      </trkpt>
      <trkpt lat="45.93531" lon="6.38593">
        <ele>1574</ele>
        <time>2026-08-19T10:19:25.344Z</time>
      </trkpt>
      <trkpt lat="45.9353" lon="6.38594">
        <ele>1574</ele>
        <time>2026-08-19T10:19:26.344Z</time>
      </trkpt>
      <trkpt lat="45.9353" lon="6.38595">
        <ele>1574</ele>
        <time>2026-08-19T10:19:27.344Z</time>
      </trkpt>
      <trkpt lat="45.93529" lon="6.38596">
        <ele>1573</ele>
        <time>2026-08-19T10:19:28.344Z</time>
      </trkpt>
      <trkpt lat="45.93528" lon="6.38597">
        <ele>1573</ele>
        <time>2026-08-19T10:19:29.344Z</time>
      </trkpt>
      <trkpt lat="45.93528" lon="6.38599">
        <ele>1572</ele>
        <time>2026-08-19T10:19:30.344Z</time>
      </trkpt>
      <trkpt lat="45.93528" lon="6.38602">
        <ele>1572</ele>
        <time>2026-08-19T10:19:31.344Z</time>
      </trkpt>
      <trkpt lat="45.93529" lon="6.38605">
        <ele>1572</ele>
        <time>2026-08-19T10:19:32.345Z</time>
      </trkpt>
      <trkpt lat="45.93529" lon="6.38606">
        <ele>1571</ele>
        <time>2026-08-19T10:19:33.344Z</time>
      </trkpt>
      <trkpt lat="45.93529" lon="6.38609">
        <ele>1571</ele>
        <time>2026-08-19T10:19:34.344Z</time>
      </trkpt>
      <trkpt lat="45.93529" lon="6.38611">
        <ele>1571</ele>
        <time>2026-08-19T10:19:35.344Z</time>
      </trkpt>
      <trkpt lat="45.93529" lon="6.38613">
        <ele>1571</ele>
        <time>2026-08-19T10:19:36.344Z</time>
      </trkpt>
      <trkpt lat="45.9353" lon="6.38615">
        <ele>1570</ele>
        <time>2026-08-19T10:19:37.344Z</time>
      </trkpt>
      <trkpt lat="45.9353" lon="6.38616">
        <ele>1570</ele>
        <time>2026-08-19T10:19:38.344Z</time>
      </trkpt>
      <trkpt lat="45.9353" lon="6.38619">
        <ele>1570</ele>
        <time>2026-08-19T10:19:39.344Z</time>
      </trkpt>
      <trkpt lat="45.9353" lon="6.38621">
        <ele>1570</ele>
        <time>2026-08-19T10:19:40.344Z</time>
      </trkpt>
      <trkpt lat="45.9353" lon="6.38623">
        <ele>1570</ele>
        <time>2026-08-19T10:19:41.344Z</time>
      </trkpt>
      <trkpt lat="45.93531" lon="6.38625">
        <ele>1569</ele>
        <time>2026-08-19T10:19:42.344Z</time>
      </trkpt>
      <trkpt lat="45.93531" lon="6.38627">
        <ele>1569</ele>
        <time>2026-08-19T10:19:43.344Z</time>
      </trkpt>
      <trkpt lat="45.93532" lon="6.38629">
        <ele>1569</ele>
        <time>2026-08-19T10:19:44.344Z</time>
      </trkpt>
      <trkpt lat="45.93532" lon="6.3863">
        <ele>1568</ele>
        <time>2026-08-19T10:19:45.344Z</time>
      </trkpt>
      <trkpt lat="45.93531" lon="6.38632">
        <ele>1568</ele>
        <time>2026-08-19T10:19:46.344Z</time>
      </trkpt>
      <trkpt lat="45.93531" lon="6.38634">
        <ele>1567</ele>
        <time>2026-08-19T10:19:47.344Z</time>
      </trkpt>
      <trkpt lat="45.93531" lon="6.38636">
        <ele>1567</ele>
        <time>2026-08-19T10:19:48.344Z</time>
      </trkpt>
      <trkpt lat="45.93531" lon="6.38638">
        <ele>1567</ele>
        <time>2026-08-19T10:19:49.344Z</time>
      </trkpt>
      <trkpt lat="45.93531" lon="6.38639">
        <ele>1566</ele>
        <time>2026-08-19T10:19:50.344Z</time>
      </trkpt>
      <trkpt lat="45.93531" lon="6.38641">
        <ele>1566</ele>
        <time>2026-08-19T10:19:51.344Z</time>
      </trkpt>
      <trkpt lat="45.93531" lon="6.38643">
        <ele>1566</ele>
        <time>2026-08-19T10:19:52.344Z</time>
      </trkpt>
      <trkpt lat="45.9353" lon="6.38644">
        <ele>1565</ele>
        <time>2026-08-19T10:19:53.344Z</time>
      </trkpt>
      <trkpt lat="45.9353" lon="6.38646">
        <ele>1564</ele>
        <time>2026-08-19T10:19:54.344Z</time>
      </trkpt>
      <trkpt lat="45.93529" lon="6.38648">
        <ele>1564</ele>
        <time>2026-08-19T10:19:55.344Z</time>
      </trkpt>
      <trkpt lat="45.93529" lon="6.3865">
        <ele>1563</ele>
        <time>2026-08-19T10:19:56.345Z</time>
      </trkpt>
      <trkpt lat="45.93528" lon="6.38651">
        <ele>1563</ele>
        <time>2026-08-19T10:19:57.344Z</time>
      </trkpt>
      <trkpt lat="45.93528" lon="6.38652">
        <ele>1563</ele>
        <time>2026-08-19T10:19:58.344Z</time>
      </trkpt>
      <trkpt lat="45.93527" lon="6.38653">
        <ele>1562</ele>
        <time>2026-08-19T10:19:59.344Z</time>
      </trkpt>
      <trkpt lat="45.93526" lon="6.38654">
        <ele>1562</ele>
        <time>2026-08-19T10:20:00.344Z</time>
      </trkpt>
      <trkpt lat="45.93525" lon="6.38655">
        <ele>1561</ele>
        <time>2026-08-19T10:20:01.344Z</time>
      </trkpt>
      <trkpt lat="45.93524" lon="6.38655">
        <ele>1561</ele>
        <time>2026-08-19T10:20:02.344Z</time>
      </trkpt>
      <trkpt lat="45.93523" lon="6.38656">
        <ele>1560</ele>
        <time>2026-08-19T10:20:03.344Z</time>
      </trkpt>
      <trkpt lat="45.93522" lon="6.38657">
        <ele>1559</ele>
        <time>2026-08-19T10:20:04.344Z</time>
      </trkpt>
      <trkpt lat="45.93521" lon="6.38657">
        <ele>1559</ele>
        <time>2026-08-19T10:20:05.344Z</time>
      </trkpt>
      <trkpt lat="45.93521" lon="6.38658">
        <ele>1559</ele>
        <time>2026-08-19T10:20:06.344Z</time>
      </trkpt>
      <trkpt lat="45.9352" lon="6.38659">
        <ele>1558</ele>
        <time>2026-08-19T10:20:07.344Z</time>
      </trkpt>
      <trkpt lat="45.9352" lon="6.38661">
        <ele>1558</ele>
        <time>2026-08-19T10:20:08.344Z</time>
      </trkpt>
      <trkpt lat="45.9352" lon="6.38663">
        <ele>1558</ele>
        <time>2026-08-19T10:20:09.344Z</time>
      </trkpt>
      <trkpt lat="45.9352" lon="6.38665">
        <ele>1558</ele>
        <time>2026-08-19T10:20:10.344Z</time>
      </trkpt>
      <trkpt lat="45.9352" lon="6.38667">
        <ele>1558</ele>
        <time>2026-08-19T10:20:11.344Z</time>
      </trkpt>
      <trkpt lat="45.9352" lon="6.38671">
        <ele>1557</ele>
        <time>2026-08-19T10:20:12.344Z</time>
      </trkpt>
      <trkpt lat="45.93519" lon="6.38674">
        <ele>1557</ele>
        <time>2026-08-19T10:20:13.344Z</time>
      </trkpt>
      <trkpt lat="45.93519" lon="6.38676">
        <ele>1557</ele>
        <time>2026-08-19T10:20:14.344Z</time>
      </trkpt>
      <trkpt lat="45.9352" lon="6.38679">
        <ele>1557</ele>
        <time>2026-08-19T10:20:15.344Z</time>
      </trkpt>
      <trkpt lat="45.9352" lon="6.38681">
        <ele>1557</ele>
        <time>2026-08-19T10:20:16.344Z</time>
      </trkpt>
      <trkpt lat="45.9352" lon="6.38684">
        <ele>1557</ele>
        <time>2026-08-19T10:20:17.344Z</time>
      </trkpt>
      <trkpt lat="45.9352" lon="6.38686">
        <ele>1556</ele>
        <time>2026-08-19T10:20:18.344Z</time>
      </trkpt>
      <trkpt lat="45.9352" lon="6.38689">
        <ele>1556</ele>
        <time>2026-08-19T10:20:19.344Z</time>
      </trkpt>
      <trkpt lat="45.9352" lon="6.38691">
        <ele>1556</ele>
        <time>2026-08-19T10:20:20.344Z</time>
      </trkpt>
      <trkpt lat="45.9352" lon="6.38693">
        <ele>1555</ele>
        <time>2026-08-19T10:20:21.344Z</time>
      </trkpt>
      <trkpt lat="45.93521" lon="6.38695">
        <ele>1555</ele>
        <time>2026-08-19T10:20:22.344Z</time>
      </trkpt>
      <trkpt lat="45.93522" lon="6.38697">
        <ele>1555</ele>
        <time>2026-08-19T10:20:23.344Z</time>
      </trkpt>
      <trkpt lat="45.93523" lon="6.38698">
        <ele>1555</ele>
        <time>2026-08-19T10:20:24.344Z</time>
      </trkpt>
      <trkpt lat="45.93523" lon="6.387">
        <ele>1555</ele>
        <time>2026-08-19T10:20:25.344Z</time>
      </trkpt>
      <trkpt lat="45.93523" lon="6.38702">
        <ele>1555</ele>
        <time>2026-08-19T10:20:26.344Z</time>
      </trkpt>
      <trkpt lat="45.93524" lon="6.38704">
        <ele>1556</ele>
        <time>2026-08-19T10:20:27.344Z</time>
      </trkpt>
      <trkpt lat="45.93524" lon="6.38706">
        <ele>1555</ele>
        <time>2026-08-19T10:20:28.344Z</time>
      </trkpt>
      <trkpt lat="45.93524" lon="6.38708">
        <ele>1555</ele>
        <time>2026-08-19T10:20:29.344Z</time>
      </trkpt>
      <trkpt lat="45.93524" lon="6.3871">
        <ele>1555</ele>
        <time>2026-08-19T10:20:30.344Z</time>
      </trkpt>
      <trkpt lat="45.93524" lon="6.38712">
        <ele>1555</ele>
        <time>2026-08-19T10:20:31.344Z</time>
      </trkpt>
      <trkpt lat="45.93524" lon="6.38713">
        <ele>1555</ele>
        <time>2026-08-19T10:20:32.344Z</time>
      </trkpt>
      <trkpt lat="45.93525" lon="6.38715">
        <ele>1556</ele>
        <time>2026-08-19T10:20:33.344Z</time>
      </trkpt>
      <trkpt lat="45.93526" lon="6.38716">
        <ele>1556</ele>
        <time>2026-08-19T10:20:34.344Z</time>
      </trkpt>
      <trkpt lat="45.93527" lon="6.38718">
        <ele>1556</ele>
        <time>2026-08-19T10:20:35.344Z</time>
      </trkpt>
      <trkpt lat="45.93527" lon="6.38721">
        <ele>1556</ele>
        <time>2026-08-19T10:20:36.345Z</time>
      </trkpt>
      <trkpt lat="45.93526" lon="6.38723">
        <ele>1556</ele>
        <time>2026-08-19T10:20:37.344Z</time>
      </trkpt>
      <trkpt lat="45.93526" lon="6.38726">
        <ele>1555</ele>
        <time>2026-08-19T10:20:38.344Z</time>
      </trkpt>
      <trkpt lat="45.93527" lon="6.38728">
        <ele>1555</ele>
        <time>2026-08-19T10:20:39.344Z</time>
      </trkpt>
      <trkpt lat="45.93527" lon="6.3873">
        <ele>1555</ele>
        <time>2026-08-19T10:20:40.344Z</time>
      </trkpt>
      <trkpt lat="45.93527" lon="6.38733">
        <ele>1554</ele>
        <time>2026-08-19T10:20:41.344Z</time>
      </trkpt>
      <trkpt lat="45.93527" lon="6.38734">
        <ele>1554</ele>
        <time>2026-08-19T10:20:42.344Z</time>
      </trkpt>
      <trkpt lat="45.93527" lon="6.38736">
        <ele>1553</ele>
        <time>2026-08-19T10:20:43.344Z</time>
      </trkpt>
      <trkpt lat="45.93526" lon="6.38737">
        <ele>1552</ele>
        <time>2026-08-19T10:20:44.344Z</time>
      </trkpt>
      <trkpt lat="45.93525" lon="6.38738">
        <ele>1552</ele>
        <time>2026-08-19T10:20:45.344Z</time>
      </trkpt>
      <trkpt lat="45.93524" lon="6.3874">
        <ele>1551</ele>
        <time>2026-08-19T10:20:46.344Z</time>
      </trkpt>
      <trkpt lat="45.93522" lon="6.38742">
        <ele>1550</ele>
        <time>2026-08-19T10:20:47.344Z</time>
      </trkpt>
      <trkpt lat="45.93521" lon="6.38743">
        <ele>1549</ele>
        <time>2026-08-19T10:20:48.344Z</time>
      </trkpt>
      <trkpt lat="45.9352" lon="6.38745">
        <ele>1549</ele>
        <time>2026-08-19T10:20:49.344Z</time>
      </trkpt>
      <trkpt lat="45.93519" lon="6.38746">
        <ele>1549</ele>
        <time>2026-08-19T10:20:50.344Z</time>
      </trkpt>
      <trkpt lat="45.93518" lon="6.38747">
        <ele>1548</ele>
        <time>2026-08-19T10:20:51.344Z</time>
      </trkpt>
      <trkpt lat="45.93518" lon="6.38749">
        <ele>1548</ele>
        <time>2026-08-19T10:20:52.344Z</time>
      </trkpt>
      <trkpt lat="45.93518" lon="6.3875">
        <ele>1547</ele>
        <time>2026-08-19T10:20:53.344Z</time>
      </trkpt>
      <trkpt lat="45.93517" lon="6.38751">
        <ele>1547</ele>
        <time>2026-08-19T10:20:54.344Z</time>
      </trkpt>
      <trkpt lat="45.93517" lon="6.38752">
        <ele>1546</ele>
        <time>2026-08-19T10:20:55.344Z</time>
      </trkpt>
      <trkpt lat="45.93515" lon="6.38752">
        <ele>1546</ele>
        <time>2026-08-19T10:20:56.344Z</time>
      </trkpt>
      <trkpt lat="45.93514" lon="6.38753">
        <ele>1545</ele>
        <time>2026-08-19T10:20:57.344Z</time>
      </trkpt>
      <trkpt lat="45.93513" lon="6.38753">
        <ele>1545</ele>
        <time>2026-08-19T10:20:58.344Z</time>
      </trkpt>
      <trkpt lat="45.93513" lon="6.38754">
        <ele>1544</ele>
        <time>2026-08-19T10:20:59.344Z</time>
      </trkpt>
      <trkpt lat="45.93512" lon="6.38756">
        <ele>1544</ele>
        <time>2026-08-19T10:21:00.344Z</time>
      </trkpt>
      <trkpt lat="45.93512" lon="6.38757">
        <ele>1543</ele>
        <time>2026-08-19T10:21:01.344Z</time>
      </trkpt>
      <trkpt lat="45.93511" lon="6.38758">
        <ele>1543</ele>
        <time>2026-08-19T10:21:02.344Z</time>
      </trkpt>
      <trkpt lat="45.93511" lon="6.38759">
        <ele>1542</ele>
        <time>2026-08-19T10:21:03.344Z</time>
      </trkpt>
      <trkpt lat="45.9351" lon="6.38761">
        <ele>1542</ele>
        <time>2026-08-19T10:21:04.344Z</time>
      </trkpt>
      <trkpt lat="45.9351" lon="6.38762">
        <ele>1541</ele>
        <time>2026-08-19T10:21:05.344Z</time>
      </trkpt>
      <trkpt lat="45.9351" lon="6.38764">
        <ele>1541</ele>
        <time>2026-08-19T10:21:06.344Z</time>
      </trkpt>
      <trkpt lat="45.9351" lon="6.38766">
        <ele>1540</ele>
        <time>2026-08-19T10:21:07.344Z</time>
      </trkpt>
      <trkpt lat="45.9351" lon="6.38767">
        <ele>1540</ele>
        <time>2026-08-19T10:21:08.344Z</time>
      </trkpt>
      <trkpt lat="45.9351" lon="6.38769">
        <ele>1539</ele>
        <time>2026-08-19T10:21:09.344Z</time>
      </trkpt>
      <trkpt lat="45.9351" lon="6.3877">
        <ele>1539</ele>
        <time>2026-08-19T10:21:10.344Z</time>
      </trkpt>
      <trkpt lat="45.93509" lon="6.38772">
        <ele>1539</ele>
        <time>2026-08-19T10:21:11.344Z</time>
      </trkpt>
      <trkpt lat="45.93509" lon="6.38773">
        <ele>1539</ele>
        <time>2026-08-19T10:21:12.344Z</time>
      </trkpt>
      <trkpt lat="45.93508" lon="6.38775">
        <ele>1539</ele>
        <time>2026-08-19T10:21:13.344Z</time>
      </trkpt>
      <trkpt lat="45.93508" lon="6.38777">
        <ele>1539</ele>
        <time>2026-08-19T10:21:14.344Z</time>
      </trkpt>
      <trkpt lat="45.93507" lon="6.38778">
        <ele>1539</ele>
        <time>2026-08-19T10:21:15.344Z</time>
      </trkpt>
      <trkpt lat="45.93506" lon="6.38779">
        <ele>1539</ele>
        <time>2026-08-19T10:21:16.344Z</time>
      </trkpt>
      <trkpt lat="45.93506" lon="6.3878">
        <ele>1539</ele>
        <time>2026-08-19T10:21:17.345Z</time>
      </trkpt>
      <trkpt lat="45.93506" lon="6.38782">
        <ele>1539</ele>
        <time>2026-08-19T10:21:18.344Z</time>
      </trkpt>
      <trkpt lat="45.93505" lon="6.38784">
        <ele>1538</ele>
        <time>2026-08-19T10:21:19.344Z</time>
      </trkpt>
      <trkpt lat="45.93505" lon="6.38784">
        <ele>1538</ele>
        <time>2026-08-19T10:21:20.344Z</time>
      </trkpt>
      <trkpt lat="45.93504" lon="6.38785">
        <ele>1538</ele>
        <time>2026-08-19T10:21:21.344Z</time>
      </trkpt>
      <trkpt lat="45.93504" lon="6.38786">
        <ele>1538</ele>
        <time>2026-08-19T10:21:22.344Z</time>
      </trkpt>
      <trkpt lat="45.93504" lon="6.38788">
        <ele>1537</ele>
        <time>2026-08-19T10:21:23.344Z</time>
      </trkpt>
      <trkpt lat="45.93504" lon="6.38789">
        <ele>1537</ele>
        <time>2026-08-19T10:21:24.344Z</time>
      </trkpt>
      <trkpt lat="45.93504" lon="6.38791">
        <ele>1537</ele>
        <time>2026-08-19T10:21:25.344Z</time>
      </trkpt>
      <trkpt lat="45.93505" lon="6.38792">
        <ele>1537</ele>
        <time>2026-08-19T10:21:26.344Z</time>
      </trkpt>
      <trkpt lat="45.93505" lon="6.38794">
        <ele>1536</ele>
        <time>2026-08-19T10:21:27.344Z</time>
      </trkpt>
      <trkpt lat="45.93505" lon="6.38795">
        <ele>1536</ele>
        <time>2026-08-19T10:21:28.344Z</time>
      </trkpt>
      <trkpt lat="45.93504" lon="6.38796">
        <ele>1535</ele>
        <time>2026-08-19T10:21:29.344Z</time>
      </trkpt>
      <trkpt lat="45.93504" lon="6.38797">
        <ele>1535</ele>
        <time>2026-08-19T10:21:30.344Z</time>
      </trkpt>
      <trkpt lat="45.93504" lon="6.38799">
        <ele>1535</ele>
        <time>2026-08-19T10:21:31.344Z</time>
      </trkpt>
      <trkpt lat="45.93504" lon="6.388">
        <ele>1534</ele>
        <time>2026-08-19T10:21:32.344Z</time>
      </trkpt>
      <trkpt lat="45.93504" lon="6.38801">
        <ele>1534</ele>
        <time>2026-08-19T10:21:33.344Z</time>
      </trkpt>
      <trkpt lat="45.93504" lon="6.38803">
        <ele>1534</ele>
        <time>2026-08-19T10:21:34.344Z</time>
      </trkpt>
      <trkpt lat="45.93503" lon="6.38804">
        <ele>1533</ele>
        <time>2026-08-19T10:21:35.344Z</time>
      </trkpt>
      <trkpt lat="45.93503" lon="6.38806">
        <ele>1533</ele>
        <time>2026-08-19T10:21:36.344Z</time>
      </trkpt>
      <trkpt lat="45.93503" lon="6.38807">
        <ele>1532</ele>
        <time>2026-08-19T10:21:37.344Z</time>
      </trkpt>
      <trkpt lat="45.93503" lon="6.38809">
        <ele>1532</ele>
        <time>2026-08-19T10:21:38.344Z</time>
      </trkpt>
      <trkpt lat="45.93504" lon="6.38811">
        <ele>1531</ele>
        <time>2026-08-19T10:21:39.344Z</time>
      </trkpt>
      <trkpt lat="45.93504" lon="6.38814">
        <ele>1531</ele>
        <time>2026-08-19T10:21:40.344Z</time>
      </trkpt>
      <trkpt lat="45.93504" lon="6.38815">
        <ele>1530</ele>
        <time>2026-08-19T10:21:41.344Z</time>
      </trkpt>
      <trkpt lat="45.93504" lon="6.38816">
        <ele>1530</ele>
        <time>2026-08-19T10:21:42.344Z</time>
      </trkpt>
      <trkpt lat="45.93503" lon="6.38818">
        <ele>1530</ele>
        <time>2026-08-19T10:21:43.344Z</time>
      </trkpt>
      <trkpt lat="45.93502" lon="6.3882">
        <ele>1530</ele>
        <time>2026-08-19T10:21:44.344Z</time>
      </trkpt>
      <trkpt lat="45.93501" lon="6.38821">
        <ele>1529</ele>
        <time>2026-08-19T10:21:45.344Z</time>
      </trkpt>
      <trkpt lat="45.935" lon="6.38822">
        <ele>1529</ele>
        <time>2026-08-19T10:21:46.345Z</time>
      </trkpt>
      <trkpt lat="45.93499" lon="6.38823">
        <ele>1528</ele>
        <time>2026-08-19T10:21:47.344Z</time>
      </trkpt>
      <trkpt lat="45.93498" lon="6.38824">
        <ele>1527</ele>
        <time>2026-08-19T10:21:48.344Z</time>
      </trkpt>
      <trkpt lat="45.93497" lon="6.38824">
        <ele>1526</ele>
        <time>2026-08-19T10:21:49.344Z</time>
      </trkpt>
      <trkpt lat="45.93496" lon="6.38825">
        <ele>1525</ele>
        <time>2026-08-19T10:21:50.344Z</time>
      </trkpt>
      <trkpt lat="45.93495" lon="6.38826">
        <ele>1524</ele>
        <time>2026-08-19T10:21:51.344Z</time>
      </trkpt>
      <trkpt lat="45.93494" lon="6.38827">
        <ele>1524</ele>
        <time>2026-08-19T10:21:52.344Z</time>
      </trkpt>
      <trkpt lat="45.93493" lon="6.38827">
        <ele>1523</ele>
        <time>2026-08-19T10:21:53.344Z</time>
      </trkpt>
      <trkpt lat="45.93492" lon="6.38827">
        <ele>1523</ele>
        <time>2026-08-19T10:21:54.344Z</time>
      </trkpt>
      <trkpt lat="45.93491" lon="6.38828">
        <ele>1523</ele>
        <time>2026-08-19T10:21:55.344Z</time>
      </trkpt>
      <trkpt lat="45.93491" lon="6.38829">
        <ele>1522</ele>
        <time>2026-08-19T10:21:56.344Z</time>
      </trkpt>
      <trkpt lat="45.93489" lon="6.38829">
        <ele>1522</ele>
        <time>2026-08-19T10:21:57.344Z</time>
      </trkpt>
      <trkpt lat="45.93488" lon="6.3883">
        <ele>1522</ele>
        <time>2026-08-19T10:21:58.344Z</time>
      </trkpt>
      <trkpt lat="45.93487" lon="6.38832">
        <ele>1521</ele>
        <time>2026-08-19T10:21:59.344Z</time>
      </trkpt>
      <trkpt lat="45.93486" lon="6.38833">
        <ele>1521</ele>
        <time>2026-08-19T10:22:00.344Z</time>
      </trkpt>
      <trkpt lat="45.93485" lon="6.38835">
        <ele>1521</ele>
        <time>2026-08-19T10:22:01.344Z</time>
      </trkpt>
      <trkpt lat="45.93484" lon="6.38836">
        <ele>1520</ele>
        <time>2026-08-19T10:22:02.344Z</time>
      </trkpt>
      <trkpt lat="45.93484" lon="6.38838">
        <ele>1520</ele>
        <time>2026-08-19T10:22:03.344Z</time>
      </trkpt>
      <trkpt lat="45.93484" lon="6.38839">
        <ele>1520</ele>
        <time>2026-08-19T10:22:04.344Z</time>
      </trkpt>
      <trkpt lat="45.93484" lon="6.38841">
        <ele>1520</ele>
        <time>2026-08-19T10:22:05.344Z</time>
      </trkpt>
      <trkpt lat="45.93483" lon="6.38843">
        <ele>1519</ele>
        <time>2026-08-19T10:22:06.344Z</time>
      </trkpt>
      <trkpt lat="45.93483" lon="6.38844">
        <ele>1519</ele>
        <time>2026-08-19T10:22:07.344Z</time>
      </trkpt>
      <trkpt lat="45.93484" lon="6.38845">
        <ele>1519</ele>
        <time>2026-08-19T10:22:08.344Z</time>
      </trkpt>
      <trkpt lat="45.93484" lon="6.38846">
        <ele>1519</ele>
        <time>2026-08-19T10:22:09.344Z</time>
      </trkpt>
      <trkpt lat="45.93484" lon="6.38847">
        <ele>1519</ele>
        <time>2026-08-19T10:22:10.344Z</time>
      </trkpt>
      <trkpt lat="45.93484" lon="6.38848">
        <ele>1518</ele>
        <time>2026-08-19T10:22:11.344Z</time>
      </trkpt>
      <trkpt lat="45.93483" lon="6.38849">
        <ele>1518</ele>
        <time>2026-08-19T10:22:12.344Z</time>
      </trkpt>
      <trkpt lat="45.93483" lon="6.3885">
        <ele>1518</ele>
        <time>2026-08-19T10:22:13.344Z</time>
      </trkpt>
      <trkpt lat="45.93482" lon="6.38852">
        <ele>1518</ele>
        <time>2026-08-19T10:22:14.344Z</time>
      </trkpt>
      <trkpt lat="45.93481" lon="6.38853">
        <ele>1517</ele>
        <time>2026-08-19T10:22:15.344Z</time>
      </trkpt>
      <trkpt lat="45.9348" lon="6.38854">
        <ele>1517</ele>
        <time>2026-08-19T10:22:16.344Z</time>
      </trkpt>
      <trkpt lat="45.9348" lon="6.38855">
        <ele>1517</ele>
        <time>2026-08-19T10:22:17.344Z</time>
      </trkpt>
      <trkpt lat="45.9348" lon="6.38856">
        <ele>1516</ele>
        <time>2026-08-19T10:22:18.344Z</time>
      </trkpt>
      <trkpt lat="45.9348" lon="6.38857">
        <ele>1516</ele>
        <time>2026-08-19T10:22:19.344Z</time>
      </trkpt>
      <trkpt lat="45.93481" lon="6.38857">
        <ele>1516</ele>
        <time>2026-08-19T10:22:20.344Z</time>
      </trkpt>
      <trkpt lat="45.93482" lon="6.38858">
        <ele>1516</ele>
        <time>2026-08-19T10:22:21.344Z</time>
      </trkpt>
      <trkpt lat="45.93482" lon="6.38859">
        <ele>1516</ele>
        <time>2026-08-19T10:22:22.344Z</time>
      </trkpt>
      <trkpt lat="45.93483" lon="6.3886">
        <ele>1516</ele>
        <time>2026-08-19T10:22:23.344Z</time>
      </trkpt>
      <trkpt lat="45.93483" lon="6.38861">
        <ele>1516</ele>
        <time>2026-08-19T10:22:24.344Z</time>
      </trkpt>
      <trkpt lat="45.93483" lon="6.38863">
        <ele>1515</ele>
        <time>2026-08-19T10:22:25.344Z</time>
      </trkpt>
      <trkpt lat="45.93483" lon="6.38864">
        <ele>1515</ele>
        <time>2026-08-19T10:22:26.344Z</time>
      </trkpt>
      <trkpt lat="45.93483" lon="6.38866">
        <ele>1514</ele>
        <time>2026-08-19T10:22:27.344Z</time>
      </trkpt>
      <trkpt lat="45.93482" lon="6.38867">
        <ele>1514</ele>
        <time>2026-08-19T10:22:28.344Z</time>
      </trkpt>
      <trkpt lat="45.93482" lon="6.38869">
        <ele>1514</ele>
        <time>2026-08-19T10:22:29.344Z</time>
      </trkpt>
      <trkpt lat="45.93481" lon="6.3887">
        <ele>1514</ele>
        <time>2026-08-19T10:22:30.344Z</time>
      </trkpt>
      <trkpt lat="45.9348" lon="6.38871">
        <ele>1514</ele>
        <time>2026-08-19T10:22:31.344Z</time>
      </trkpt>
      <trkpt lat="45.93479" lon="6.38872">
        <ele>1514</ele>
        <time>2026-08-19T10:22:32.344Z</time>
      </trkpt>
      <trkpt lat="45.93477" lon="6.38873">
        <ele>1513</ele>
        <time>2026-08-19T10:22:33.344Z</time>
      </trkpt>
      <trkpt lat="45.93476" lon="6.38873">
        <ele>1513</ele>
        <time>2026-08-19T10:22:34.344Z</time>
      </trkpt>
      <trkpt lat="45.93475" lon="6.38874">
        <ele>1513</ele>
        <time>2026-08-19T10:22:35.344Z</time>
      </trkpt>
      <trkpt lat="45.93474" lon="6.38874">
        <ele>1513</ele>
        <time>2026-08-19T10:22:36.344Z</time>
      </trkpt>
      <trkpt lat="45.93473" lon="6.38875">
        <ele>1512</ele>
        <time>2026-08-19T10:22:37.344Z</time>
      </trkpt>
      <trkpt lat="45.93472" lon="6.38875">
        <ele>1512</ele>
        <time>2026-08-19T10:22:38.344Z</time>
      </trkpt>
      <trkpt lat="45.93471" lon="6.38876">
        <ele>1511</ele>
        <time>2026-08-19T10:22:39.344Z</time>
      </trkpt>
      <trkpt lat="45.93471" lon="6.38877">
        <ele>1511</ele>
        <time>2026-08-19T10:22:40.344Z</time>
      </trkpt>
      <trkpt lat="45.9347" lon="6.38877">
        <ele>1510</ele>
        <time>2026-08-19T10:22:41.344Z</time>
      </trkpt>
      <trkpt lat="45.93469" lon="6.38877">
        <ele>1510</ele>
        <time>2026-08-19T10:22:42.344Z</time>
      </trkpt>
      <trkpt lat="45.93468" lon="6.38877">
        <ele>1509</ele>
        <time>2026-08-19T10:22:43.344Z</time>
      </trkpt>
      <trkpt lat="45.93468" lon="6.38878">
        <ele>1508</ele>
        <time>2026-08-19T10:22:44.344Z</time>
      </trkpt>
      <trkpt lat="45.93466" lon="6.38879">
        <ele>1508</ele>
        <time>2026-08-19T10:22:45.344Z</time>
      </trkpt>
      <trkpt lat="45.93465" lon="6.3888">
        <ele>1508</ele>
        <time>2026-08-19T10:22:46.344Z</time>
      </trkpt>
      <trkpt lat="45.93464" lon="6.38881">
        <ele>1508</ele>
        <time>2026-08-19T10:22:47.344Z</time>
      </trkpt>
      <trkpt lat="45.93463" lon="6.38882">
        <ele>1508</ele>
        <time>2026-08-19T10:22:48.344Z</time>
      </trkpt>
      <trkpt lat="45.93462" lon="6.38884">
        <ele>1508</ele>
        <time>2026-08-19T10:22:49.344Z</time>
      </trkpt>
      <trkpt lat="45.93462" lon="6.38886">
        <ele>1508</ele>
        <time>2026-08-19T10:22:50.344Z</time>
      </trkpt>
      <trkpt lat="45.93461" lon="6.38887">
        <ele>1508</ele>
        <time>2026-08-19T10:22:51.344Z</time>
      </trkpt>
      <trkpt lat="45.93461" lon="6.38888">
        <ele>1507</ele>
        <time>2026-08-19T10:22:52.344Z</time>
      </trkpt>
      <trkpt lat="45.93461" lon="6.38889">
        <ele>1507</ele>
        <time>2026-08-19T10:22:53.344Z</time>
      </trkpt>
      <trkpt lat="45.93461" lon="6.3889">
        <ele>1506</ele>
        <time>2026-08-19T10:22:54.344Z</time>
      </trkpt>
      <trkpt lat="45.93461" lon="6.38891">
        <ele>1506</ele>
        <time>2026-08-19T10:22:55.344Z</time>
      </trkpt>
      <trkpt lat="45.93462" lon="6.38893">
        <ele>1506</ele>
        <time>2026-08-19T10:22:56.344Z</time>
      </trkpt>
      <trkpt lat="45.93462" lon="6.38894">
        <ele>1505</ele>
        <time>2026-08-19T10:22:57.344Z</time>
      </trkpt>
      <trkpt lat="45.93462" lon="6.38895">
        <ele>1505</ele>
        <time>2026-08-19T10:22:58.344Z</time>
      </trkpt>
      <trkpt lat="45.93463" lon="6.38896">
        <ele>1504</ele>
        <time>2026-08-19T10:22:59.344Z</time>
      </trkpt>
      <trkpt lat="45.93462" lon="6.38897">
        <ele>1503</ele>
        <time>2026-08-19T10:23:00.344Z</time>
      </trkpt>
      <trkpt lat="45.93462" lon="6.38899">
        <ele>1503</ele>
        <time>2026-08-19T10:23:01.344Z</time>
      </trkpt>
      <trkpt lat="45.93462" lon="6.389">
        <ele>1502</ele>
        <time>2026-08-19T10:23:02.344Z</time>
      </trkpt>
      <trkpt lat="45.93462" lon="6.38902">
        <ele>1502</ele>
        <time>2026-08-19T10:23:03.344Z</time>
      </trkpt>
      <trkpt lat="45.93462" lon="6.38903">
        <ele>1502</ele>
        <time>2026-08-19T10:23:04.344Z</time>
      </trkpt>
      <trkpt lat="45.93461" lon="6.38904">
        <ele>1502</ele>
        <time>2026-08-19T10:23:05.344Z</time>
      </trkpt>
      <trkpt lat="45.93461" lon="6.38905">
        <ele>1501</ele>
        <time>2026-08-19T10:23:06.344Z</time>
      </trkpt>
      <trkpt lat="45.93461" lon="6.38906">
        <ele>1501</ele>
        <time>2026-08-19T10:23:07.344Z</time>
      </trkpt>
      <trkpt lat="45.93461" lon="6.38908">
        <ele>1501</ele>
        <time>2026-08-19T10:23:08.344Z</time>
      </trkpt>
      <trkpt lat="45.93462" lon="6.38909">
        <ele>1501</ele>
        <time>2026-08-19T10:23:09.344Z</time>
      </trkpt>
      <trkpt lat="45.93462" lon="6.3891">
        <ele>1501</ele>
        <time>2026-08-19T10:23:10.344Z</time>
      </trkpt>
      <trkpt lat="45.93462" lon="6.38912">
        <ele>1500</ele>
        <time>2026-08-19T10:23:11.344Z</time>
      </trkpt>
      <trkpt lat="45.93463" lon="6.38915">
        <ele>1500</ele>
        <time>2026-08-19T10:23:12.344Z</time>
      </trkpt>
      <trkpt lat="45.93464" lon="6.38916">
        <ele>1500</ele>
        <time>2026-08-19T10:23:13.344Z</time>
      </trkpt>
      <trkpt lat="45.93465" lon="6.38918">
        <ele>1499</ele>
        <time>2026-08-19T10:23:14.344Z</time>
      </trkpt>
      <trkpt lat="45.93465" lon="6.38921">
        <ele>1499</ele>
        <time>2026-08-19T10:23:15.344Z</time>
      </trkpt>
      <trkpt lat="45.93465" lon="6.38923">
        <ele>1499</ele>
        <time>2026-08-19T10:23:16.344Z</time>
      </trkpt>
      <trkpt lat="45.93465" lon="6.38926">
        <ele>1499</ele>
        <time>2026-08-19T10:23:17.344Z</time>
      </trkpt>
      <trkpt lat="45.93465" lon="6.38928">
        <ele>1499</ele>
        <time>2026-08-19T10:23:18.344Z</time>
      </trkpt>
      <trkpt lat="45.93465" lon="6.38929">
        <ele>1498</ele>
        <time>2026-08-19T10:23:19.344Z</time>
      </trkpt>
      <trkpt lat="45.93465" lon="6.38931">
        <ele>1498</ele>
        <time>2026-08-19T10:23:20.344Z</time>
      </trkpt>
      <trkpt lat="45.93465" lon="6.38933">
        <ele>1497</ele>
        <time>2026-08-19T10:23:21.344Z</time>
      </trkpt>
      <trkpt lat="45.93466" lon="6.38935">
        <ele>1497</ele>
        <time>2026-08-19T10:23:22.344Z</time>
      </trkpt>
      <trkpt lat="45.93466" lon="6.38936">
        <ele>1497</ele>
        <time>2026-08-19T10:23:23.344Z</time>
      </trkpt>
      <trkpt lat="45.93465" lon="6.38938">
        <ele>1496</ele>
        <time>2026-08-19T10:23:24.344Z</time>
      </trkpt>
      <trkpt lat="45.93465" lon="6.3894">
        <ele>1496</ele>
        <time>2026-08-19T10:23:25.344Z</time>
      </trkpt>
      <trkpt lat="45.93464" lon="6.38941">
        <ele>1495</ele>
        <time>2026-08-19T10:23:26.344Z</time>
      </trkpt>
      <trkpt lat="45.93463" lon="6.38943">
        <ele>1495</ele>
        <time>2026-08-19T10:23:27.344Z</time>
      </trkpt>
      <trkpt lat="45.93462" lon="6.38945">
        <ele>1494</ele>
        <time>2026-08-19T10:23:28.344Z</time>
      </trkpt>
      <trkpt lat="45.93462" lon="6.38946">
        <ele>1494</ele>
        <time>2026-08-19T10:23:29.344Z</time>
      </trkpt>
      <trkpt lat="45.93461" lon="6.38947">
        <ele>1494</ele>
        <time>2026-08-19T10:23:30.344Z</time>
      </trkpt>
      <trkpt lat="45.9346" lon="6.38949">
        <ele>1493</ele>
        <time>2026-08-19T10:23:31.344Z</time>
      </trkpt>
      <trkpt lat="45.9346" lon="6.3895">
        <ele>1493</ele>
        <time>2026-08-19T10:23:32.344Z</time>
      </trkpt>
      <trkpt lat="45.93459" lon="6.38951">
        <ele>1493</ele>
        <time>2026-08-19T10:23:33.344Z</time>
      </trkpt>
      <trkpt lat="45.93458" lon="6.38952">
        <ele>1492</ele>
        <time>2026-08-19T10:23:34.344Z</time>
      </trkpt>
      <trkpt lat="45.93457" lon="6.38952">
        <ele>1492</ele>
        <time>2026-08-19T10:23:35.344Z</time>
      </trkpt>
      <trkpt lat="45.93456" lon="6.38953">
        <ele>1491</ele>
        <time>2026-08-19T10:23:36.344Z</time>
      </trkpt>
      <trkpt lat="45.93455" lon="6.38954">
        <ele>1491</ele>
        <time>2026-08-19T10:23:37.344Z</time>
      </trkpt>
      <trkpt lat="45.93454" lon="6.38954">
        <ele>1491</ele>
        <time>2026-08-19T10:23:38.344Z</time>
      </trkpt>
      <trkpt lat="45.93453" lon="6.38955">
        <ele>1491</ele>
        <time>2026-08-19T10:23:39.344Z</time>
      </trkpt>
      <trkpt lat="45.93452" lon="6.38956">
        <ele>1490</ele>
        <time>2026-08-19T10:23:40.344Z</time>
      </trkpt>
      <trkpt lat="45.93451" lon="6.38958">
        <ele>1490</ele>
        <time>2026-08-19T10:23:41.344Z</time>
      </trkpt>
      <trkpt lat="45.93449" lon="6.3896">
        <ele>1490</ele>
        <time>2026-08-19T10:23:42.344Z</time>
      </trkpt>
      <trkpt lat="45.93448" lon="6.38961">
        <ele>1489</ele>
        <time>2026-08-19T10:23:43.344Z</time>
      </trkpt>
      <trkpt lat="45.93447" lon="6.38962">
        <ele>1489</ele>
        <time>2026-08-19T10:23:44.344Z</time>
      </trkpt>
      <trkpt lat="45.93446" lon="6.38962">
        <ele>1488</ele>
        <time>2026-08-19T10:23:45.344Z</time>
      </trkpt>
      <trkpt lat="45.93444" lon="6.38963">
        <ele>1488</ele>
        <time>2026-08-19T10:23:46.344Z</time>
      </trkpt>
      <trkpt lat="45.93442" lon="6.38964">
        <ele>1487</ele>
        <time>2026-08-19T10:23:47.344Z</time>
      </trkpt>
      <trkpt lat="45.9344" lon="6.38964">
        <ele>1487</ele>
        <time>2026-08-19T10:23:48.344Z</time>
      </trkpt>
      <trkpt lat="45.93438" lon="6.38964">
        <ele>1486</ele>
        <time>2026-08-19T10:23:49.344Z</time>
      </trkpt>
      <trkpt lat="45.93437" lon="6.38964">
        <ele>1486</ele>
        <time>2026-08-19T10:23:50.344Z</time>
      </trkpt>
      <trkpt lat="45.93436" lon="6.38964">
        <ele>1486</ele>
        <time>2026-08-19T10:23:51.344Z</time>
      </trkpt>
      <trkpt lat="45.93435" lon="6.38964">
        <ele>1485</ele>
        <time>2026-08-19T10:23:52.344Z</time>
      </trkpt>
      <trkpt lat="45.93433" lon="6.38965">
        <ele>1485</ele>
        <time>2026-08-19T10:23:53.344Z</time>
      </trkpt>
      <trkpt lat="45.93433" lon="6.38965">
        <ele>1485</ele>
        <time>2026-08-19T10:23:54.344Z</time>
      </trkpt>
      <trkpt lat="45.93432" lon="6.38967">
        <ele>1484</ele>
        <time>2026-08-19T10:23:55.345Z</time>
      </trkpt>
      <trkpt lat="45.93431" lon="6.38968">
        <ele>1484</ele>
        <time>2026-08-19T10:23:56.344Z</time>
      </trkpt>
      <trkpt lat="45.93429" lon="6.38969">
        <ele>1483</ele>
        <time>2026-08-19T10:23:57.344Z</time>
      </trkpt>
      <trkpt lat="45.93429" lon="6.3897">
        <ele>1483</ele>
        <time>2026-08-19T10:23:58.344Z</time>
      </trkpt>
      <trkpt lat="45.93428" lon="6.38971">
        <ele>1482</ele>
        <time>2026-08-19T10:23:59.344Z</time>
      </trkpt>
      <trkpt lat="45.93427" lon="6.38972">
        <ele>1482</ele>
        <time>2026-08-19T10:24:00.344Z</time>
      </trkpt>
      <trkpt lat="45.93427" lon="6.38974">
        <ele>1482</ele>
        <time>2026-08-19T10:24:01.344Z</time>
      </trkpt>
      <trkpt lat="45.93427" lon="6.38974">
        <ele>1482</ele>
        <time>2026-08-19T10:24:02.345Z</time>
      </trkpt>
      <trkpt lat="45.93426" lon="6.38975">
        <ele>1481</ele>
        <time>2026-08-19T10:24:03.344Z</time>
      </trkpt>
      <trkpt lat="45.93425" lon="6.38977">
        <ele>1480</ele>
        <time>2026-08-19T10:24:04.344Z</time>
      </trkpt>
      <trkpt lat="45.93425" lon="6.38977">
        <ele>1480</ele>
        <time>2026-08-19T10:24:05.344Z</time>
      </trkpt>
      <trkpt lat="45.93424" lon="6.38978">
        <ele>1479</ele>
        <time>2026-08-19T10:24:06.344Z</time>
      </trkpt>
      <trkpt lat="45.93423" lon="6.38979">
        <ele>1479</ele>
        <time>2026-08-19T10:24:07.344Z</time>
      </trkpt>
      <trkpt lat="45.93422" lon="6.3898">
        <ele>1478</ele>
        <time>2026-08-19T10:24:08.344Z</time>
      </trkpt>
      <trkpt lat="45.93421" lon="6.38981">
        <ele>1478</ele>
        <time>2026-08-19T10:24:09.344Z</time>
      </trkpt>
      <trkpt lat="45.9342" lon="6.38982">
        <ele>1477</ele>
        <time>2026-08-19T10:24:10.344Z</time>
      </trkpt>
      <trkpt lat="45.93419" lon="6.38983">
        <ele>1477</ele>
        <time>2026-08-19T10:24:11.344Z</time>
      </trkpt>
      <trkpt lat="45.93417" lon="6.38984">
        <ele>1476</ele>
        <time>2026-08-19T10:24:12.344Z</time>
      </trkpt>
      <trkpt lat="45.93416" lon="6.38985">
        <ele>1475</ele>
        <time>2026-08-19T10:24:13.344Z</time>
      </trkpt>
      <trkpt lat="45.93414" lon="6.38985">
        <ele>1475</ele>
        <time>2026-08-19T10:24:14.344Z</time>
      </trkpt>
      <trkpt lat="45.93413" lon="6.38986">
        <ele>1474</ele>
        <time>2026-08-19T10:24:15.344Z</time>
      </trkpt>
      <trkpt lat="45.93412" lon="6.38986">
        <ele>1474</ele>
        <time>2026-08-19T10:24:16.344Z</time>
      </trkpt>
      <trkpt lat="45.9341" lon="6.38987">
        <ele>1473</ele>
        <time>2026-08-19T10:24:17.344Z</time>
      </trkpt>
      <trkpt lat="45.93409" lon="6.38988">
        <ele>1473</ele>
        <time>2026-08-19T10:24:18.344Z</time>
      </trkpt>
      <trkpt lat="45.93407" lon="6.38989">
        <ele>1473</ele>
        <time>2026-08-19T10:24:19.344Z</time>
      </trkpt>
      <trkpt lat="45.93406" lon="6.3899">
        <ele>1473</ele>
        <time>2026-08-19T10:24:20.344Z</time>
      </trkpt>
      <trkpt lat="45.93405" lon="6.3899">
        <ele>1473</ele>
        <time>2026-08-19T10:24:21.344Z</time>
      </trkpt>
      <trkpt lat="45.93404" lon="6.38991">
        <ele>1472</ele>
        <time>2026-08-19T10:24:22.344Z</time>
      </trkpt>
      <trkpt lat="45.93403" lon="6.38992">
        <ele>1472</ele>
        <time>2026-08-19T10:24:23.344Z</time>
      </trkpt>
      <trkpt lat="45.93403" lon="6.38994">
        <ele>1472</ele>
        <time>2026-08-19T10:24:24.344Z</time>
      </trkpt>
      <trkpt lat="45.93402" lon="6.38996">
        <ele>1471</ele>
        <time>2026-08-19T10:24:25.344Z</time>
      </trkpt>
      <trkpt lat="45.93402" lon="6.38997">
        <ele>1471</ele>
        <time>2026-08-19T10:24:26.344Z</time>
      </trkpt>
      <trkpt lat="45.93403" lon="6.38998">
        <ele>1471</ele>
        <time>2026-08-19T10:24:27.344Z</time>
      </trkpt>
      <trkpt lat="45.93403" lon="6.38999">
        <ele>1471</ele>
        <time>2026-08-19T10:24:28.345Z</time>
      </trkpt>
      <trkpt lat="45.93403" lon="6.39">
        <ele>1471</ele>
        <time>2026-08-19T10:24:29.344Z</time>
      </trkpt>
      <trkpt lat="45.93403" lon="6.39001">
        <ele>1470</ele>
        <time>2026-08-19T10:24:30.345Z</time>
      </trkpt>
      <trkpt lat="45.93403" lon="6.39002">
        <ele>1469</ele>
        <time>2026-08-19T10:24:31.344Z</time>
      </trkpt>
      <trkpt lat="45.93402" lon="6.39003">
        <ele>1468</ele>
        <time>2026-08-19T10:24:32.345Z</time>
      </trkpt>
      <trkpt lat="45.93402" lon="6.39005">
        <ele>1468</ele>
        <time>2026-08-19T10:24:33.344Z</time>
      </trkpt>
      <trkpt lat="45.93402" lon="6.39006">
        <ele>1467</ele>
        <time>2026-08-19T10:24:34.344Z</time>
      </trkpt>
      <trkpt lat="45.93402" lon="6.39007">
        <ele>1466</ele>
        <time>2026-08-19T10:24:35.344Z</time>
      </trkpt>
      <trkpt lat="45.93402" lon="6.3901">
        <ele>1466</ele>
        <time>2026-08-19T10:24:36.344Z</time>
      </trkpt>
      <trkpt lat="45.93402" lon="6.39011">
        <ele>1466</ele>
        <time>2026-08-19T10:24:37.344Z</time>
      </trkpt>
      <trkpt lat="45.93401" lon="6.39011">
        <ele>1465</ele>
        <time>2026-08-19T10:24:38.344Z</time>
      </trkpt>
      <trkpt lat="45.934" lon="6.39012">
        <ele>1465</ele>
        <time>2026-08-19T10:24:39.344Z</time>
      </trkpt>
      <trkpt lat="45.934" lon="6.39013">
        <ele>1465</ele>
        <time>2026-08-19T10:24:40.344Z</time>
      </trkpt>
      <trkpt lat="45.93399" lon="6.39013">
        <ele>1464</ele>
        <time>2026-08-19T10:24:41.344Z</time>
      </trkpt>
      <trkpt lat="45.93398" lon="6.39013">
        <ele>1464</ele>
        <time>2026-08-19T10:24:42.344Z</time>
      </trkpt>
      <trkpt lat="45.93397" lon="6.39013">
        <ele>1464</ele>
        <time>2026-08-19T10:24:43.344Z</time>
      </trkpt>
      <trkpt lat="45.93395" lon="6.39013">
        <ele>1463</ele>
        <time>2026-08-19T10:24:44.344Z</time>
      </trkpt>
      <trkpt lat="45.93394" lon="6.39013">
        <ele>1463</ele>
        <time>2026-08-19T10:24:45.344Z</time>
      </trkpt>
      <trkpt lat="45.93393" lon="6.39014">
        <ele>1463</ele>
        <time>2026-08-19T10:24:46.344Z</time>
      </trkpt>
      <trkpt lat="45.93393" lon="6.39014">
        <ele>1462</ele>
        <time>2026-08-19T10:24:47.344Z</time>
      </trkpt>
      <trkpt lat="45.93392" lon="6.39015">
        <ele>1462</ele>
        <time>2026-08-19T10:24:48.344Z</time>
      </trkpt>
      <trkpt lat="45.93392" lon="6.39016">
        <ele>1462</ele>
        <time>2026-08-19T10:24:49.344Z</time>
      </trkpt>
      <trkpt lat="45.93392" lon="6.39017">
        <ele>1462</ele>
        <time>2026-08-19T10:24:50.344Z</time>
      </trkpt>
      <trkpt lat="45.93392" lon="6.39018">
        <ele>1462</ele>
        <time>2026-08-19T10:24:51.344Z</time>
      </trkpt>
      <trkpt lat="45.93392" lon="6.3902">
        <ele>1461</ele>
        <time>2026-08-19T10:24:52.344Z</time>
      </trkpt>
      <trkpt lat="45.93392" lon="6.39021">
        <ele>1461</ele>
        <time>2026-08-19T10:24:53.344Z</time>
      </trkpt>
      <trkpt lat="45.93392" lon="6.39023">
        <ele>1461</ele>
        <time>2026-08-19T10:24:54.344Z</time>
      </trkpt>
      <trkpt lat="45.93392" lon="6.39025">
        <ele>1460</ele>
        <time>2026-08-19T10:24:55.344Z</time>
      </trkpt>
      <trkpt lat="45.93393" lon="6.39026">
        <ele>1459</ele>
        <time>2026-08-19T10:24:56.344Z</time>
      </trkpt>
      <trkpt lat="45.93393" lon="6.39027">
        <ele>1459</ele>
        <time>2026-08-19T10:24:57.345Z</time>
      </trkpt>
      <trkpt lat="45.93393" lon="6.39029">
        <ele>1458</ele>
        <time>2026-08-19T10:24:58.344Z</time>
      </trkpt>
      <trkpt lat="45.93393" lon="6.3903">
        <ele>1458</ele>
        <time>2026-08-19T10:24:59.344Z</time>
      </trkpt>
      <trkpt lat="45.93393" lon="6.39029">
        <ele>1458</ele>
        <time>2026-08-19T10:25:00.344Z</time>
      </trkpt>
      <trkpt lat="45.93393" lon="6.39029">
        <ele>1457</ele>
        <time>2026-08-19T10:25:01.344Z</time>
      </trkpt>
      <trkpt lat="45.93394" lon="6.3903">
        <ele>1457</ele>
        <time>2026-08-19T10:25:02.344Z</time>
      </trkpt>
      <trkpt lat="45.93395" lon="6.39031">
        <ele>1457</ele>
        <time>2026-08-19T10:25:03.344Z</time>
      </trkpt>
      <trkpt lat="45.93396" lon="6.39031">
        <ele>1457</ele>
        <time>2026-08-19T10:25:04.344Z</time>
      </trkpt>
      <trkpt lat="45.93397" lon="6.39032">
        <ele>1457</ele>
        <time>2026-08-19T10:25:05.344Z</time>
      </trkpt>
      <trkpt lat="45.93398" lon="6.39034">
        <ele>1457</ele>
        <time>2026-08-19T10:25:06.344Z</time>
      </trkpt>
      <trkpt lat="45.93399" lon="6.39035">
        <ele>1457</ele>
        <time>2026-08-19T10:25:07.344Z</time>
      </trkpt>
      <trkpt lat="45.93399" lon="6.39036">
        <ele>1456</ele>
        <time>2026-08-19T10:25:08.344Z</time>
      </trkpt>
      <trkpt lat="45.934" lon="6.39038">
        <ele>1456</ele>
        <time>2026-08-19T10:25:09.344Z</time>
      </trkpt>
      <trkpt lat="45.93401" lon="6.39039">
        <ele>1456</ele>
        <time>2026-08-19T10:25:10.344Z</time>
      </trkpt>
      <trkpt lat="45.93402" lon="6.3904">
        <ele>1456</ele>
        <time>2026-08-19T10:25:11.344Z</time>
      </trkpt>
      <trkpt lat="45.93402" lon="6.39042">
        <ele>1456</ele>
        <time>2026-08-19T10:25:12.344Z</time>
      </trkpt>
      <trkpt lat="45.93403" lon="6.39043">
        <ele>1456</ele>
        <time>2026-08-19T10:25:13.344Z</time>
      </trkpt>
      <trkpt lat="45.93404" lon="6.39045">
        <ele>1455</ele>
        <time>2026-08-19T10:25:14.344Z</time>
      </trkpt>
      <trkpt lat="45.93404" lon="6.39046">
        <ele>1455</ele>
        <time>2026-08-19T10:25:15.344Z</time>
      </trkpt>
      <trkpt lat="45.93404" lon="6.39048">
        <ele>1454</ele>
        <time>2026-08-19T10:25:16.344Z</time>
      </trkpt>
      <trkpt lat="45.93405" lon="6.39051">
        <ele>1454</ele>
        <time>2026-08-19T10:25:17.344Z</time>
      </trkpt>
      <trkpt lat="45.93405" lon="6.39054">
        <ele>1454</ele>
        <time>2026-08-19T10:25:18.344Z</time>
      </trkpt>
      <trkpt lat="45.93405" lon="6.39056">
        <ele>1453</ele>
        <time>2026-08-19T10:25:19.344Z</time>
      </trkpt>
      <trkpt lat="45.93405" lon="6.39058">
        <ele>1453</ele>
        <time>2026-08-19T10:25:20.344Z</time>
      </trkpt>
      <trkpt lat="45.93405" lon="6.39061">
        <ele>1452</ele>
        <time>2026-08-19T10:25:21.344Z</time>
      </trkpt>
      <trkpt lat="45.93406" lon="6.39064">
        <ele>1452</ele>
        <time>2026-08-19T10:25:22.344Z</time>
      </trkpt>
      <trkpt lat="45.93406" lon="6.39066">
        <ele>1452</ele>
        <time>2026-08-19T10:25:23.344Z</time>
      </trkpt>
      <trkpt lat="45.93406" lon="6.39068">
        <ele>1451</ele>
        <time>2026-08-19T10:25:24.344Z</time>
      </trkpt>
      <trkpt lat="45.93407" lon="6.3907">
        <ele>1450</ele>
        <time>2026-08-19T10:25:25.344Z</time>
      </trkpt>
      <trkpt lat="45.93407" lon="6.39072">
        <ele>1449</ele>
        <time>2026-08-19T10:25:26.344Z</time>
      </trkpt>
      <trkpt lat="45.93407" lon="6.39073">
        <ele>1449</ele>
        <time>2026-08-19T10:25:27.345Z</time>
      </trkpt>
      <trkpt lat="45.93407" lon="6.39074">
        <ele>1448</ele>
        <time>2026-08-19T10:25:28.344Z</time>
      </trkpt>
      <trkpt lat="45.93407" lon="6.39076">
        <ele>1447</ele>
        <time>2026-08-19T10:25:29.344Z</time>
      </trkpt>
      <trkpt lat="45.93407" lon="6.39077">
        <ele>1447</ele>
        <time>2026-08-19T10:25:30.344Z</time>
      </trkpt>
      <trkpt lat="45.93407" lon="6.39079">
        <ele>1446</ele>
        <time>2026-08-19T10:25:31.344Z</time>
      </trkpt>
      <trkpt lat="45.93407" lon="6.3908">
        <ele>1446</ele>
        <time>2026-08-19T10:25:32.344Z</time>
      </trkpt>
      <trkpt lat="45.93408" lon="6.39081">
        <ele>1445</ele>
        <time>2026-08-19T10:25:33.344Z</time>
      </trkpt>
      <trkpt lat="45.93408" lon="6.39083">
        <ele>1445</ele>
        <time>2026-08-19T10:25:34.344Z</time>
      </trkpt>
      <trkpt lat="45.93408" lon="6.39084">
        <ele>1444</ele>
        <time>2026-08-19T10:25:35.344Z</time>
      </trkpt>
      <trkpt lat="45.93408" lon="6.39085">
        <ele>1443</ele>
        <time>2026-08-19T10:25:36.344Z</time>
      </trkpt>
      <trkpt lat="45.93408" lon="6.39085">
        <ele>1443</ele>
        <time>2026-08-19T10:25:37.344Z</time>
      </trkpt>
      <trkpt lat="45.93408" lon="6.39086">
        <ele>1442</ele>
        <time>2026-08-19T10:25:38.344Z</time>
      </trkpt>
      <trkpt lat="45.93408" lon="6.39086">
        <ele>1442</ele>
        <time>2026-08-19T10:25:39.344Z</time>
      </trkpt>
      <trkpt lat="45.93408" lon="6.39087">
        <ele>1441</ele>
        <time>2026-08-19T10:25:40.344Z</time>
      </trkpt>
      <trkpt lat="45.93409" lon="6.39088">
        <ele>1441</ele>
        <time>2026-08-19T10:25:41.344Z</time>
      </trkpt>
      <trkpt lat="45.93409" lon="6.39088">
        <ele>1440</ele>
        <time>2026-08-19T10:25:42.344Z</time>
      </trkpt>
      <trkpt lat="45.9341" lon="6.39088">
        <ele>1440</ele>
        <time>2026-08-19T10:25:43.345Z</time>
      </trkpt>
      <trkpt lat="45.93411" lon="6.39089">
        <ele>1440</ele>
        <time>2026-08-19T10:25:44.344Z</time>
      </trkpt>
      <trkpt lat="45.93411" lon="6.3909">
        <ele>1440</ele>
        <time>2026-08-19T10:25:45.344Z</time>
      </trkpt>
      <trkpt lat="45.93412" lon="6.39091">
        <ele>1440</ele>
        <time>2026-08-19T10:25:46.344Z</time>
      </trkpt>
      <trkpt lat="45.93413" lon="6.39092">
        <ele>1440</ele>
        <time>2026-08-19T10:25:47.344Z</time>
      </trkpt>
      <trkpt lat="45.93414" lon="6.39093">
        <ele>1440</ele>
        <time>2026-08-19T10:25:48.344Z</time>
      </trkpt>
      <trkpt lat="45.93415" lon="6.39093">
        <ele>1439</ele>
        <time>2026-08-19T10:25:49.344Z</time>
      </trkpt>
      <trkpt lat="45.93416" lon="6.39094">
        <ele>1439</ele>
        <time>2026-08-19T10:25:50.344Z</time>
      </trkpt>
      <trkpt lat="45.93417" lon="6.39095">
        <ele>1439</ele>
        <time>2026-08-19T10:25:51.344Z</time>
      </trkpt>
      <trkpt lat="45.93418" lon="6.39097">
        <ele>1439</ele>
        <time>2026-08-19T10:25:52.344Z</time>
      </trkpt>
      <trkpt lat="45.93419" lon="6.39098">
        <ele>1439</ele>
        <time>2026-08-19T10:25:53.344Z</time>
      </trkpt>
      <trkpt lat="45.9342" lon="6.39099">
        <ele>1439</ele>
        <time>2026-08-19T10:25:54.344Z</time>
      </trkpt>
      <trkpt lat="45.93421" lon="6.39099">
        <ele>1439</ele>
        <time>2026-08-19T10:25:55.344Z</time>
      </trkpt>
      <trkpt lat="45.93422" lon="6.39099">
        <ele>1439</ele>
        <time>2026-08-19T10:25:56.344Z</time>
      </trkpt>
      <trkpt lat="45.93423" lon="6.391">
        <ele>1439</ele>
        <time>2026-08-19T10:25:57.344Z</time>
      </trkpt>
      <trkpt lat="45.93424" lon="6.39101">
        <ele>1439</ele>
        <time>2026-08-19T10:25:58.344Z</time>
      </trkpt>
      <trkpt lat="45.93425" lon="6.39102">
        <ele>1439</ele>
        <time>2026-08-19T10:25:59.344Z</time>
      </trkpt>
      <trkpt lat="45.93426" lon="6.39104">
        <ele>1439</ele>
        <time>2026-08-19T10:26:00.344Z</time>
      </trkpt>
      <trkpt lat="45.93427" lon="6.39106">
        <ele>1439</ele>
        <time>2026-08-19T10:26:01.344Z</time>
      </trkpt>
      <trkpt lat="45.93428" lon="6.39107">
        <ele>1439</ele>
        <time>2026-08-19T10:26:02.344Z</time>
      </trkpt>
      <trkpt lat="45.9343" lon="6.39108">
        <ele>1439</ele>
        <time>2026-08-19T10:26:03.344Z</time>
      </trkpt>
      <trkpt lat="45.93431" lon="6.39109">
        <ele>1439</ele>
        <time>2026-08-19T10:26:04.344Z</time>
      </trkpt>
      <trkpt lat="45.93432" lon="6.39109">
        <ele>1439</ele>
        <time>2026-08-19T10:26:05.344Z</time>
      </trkpt>
      <trkpt lat="45.93433" lon="6.3911">
        <ele>1439</ele>
        <time>2026-08-19T10:26:06.344Z</time>
      </trkpt>
      <trkpt lat="45.93435" lon="6.3911">
        <ele>1439</ele>
        <time>2026-08-19T10:26:07.344Z</time>
      </trkpt>
      <trkpt lat="45.93436" lon="6.39111">
        <ele>1439</ele>
        <time>2026-08-19T10:26:08.344Z</time>
      </trkpt>
      <trkpt lat="45.93438" lon="6.39112">
        <ele>1439</ele>
        <time>2026-08-19T10:26:09.344Z</time>
      </trkpt>
      <trkpt lat="45.93439" lon="6.39114">
        <ele>1438</ele>
        <time>2026-08-19T10:26:10.344Z</time>
      </trkpt>
      <trkpt lat="45.9344" lon="6.39117">
        <ele>1438</ele>
        <time>2026-08-19T10:26:11.344Z</time>
      </trkpt>
      <trkpt lat="45.93441" lon="6.3912">
        <ele>1438</ele>
        <time>2026-08-19T10:26:12.344Z</time>
      </trkpt>
      <trkpt lat="45.93441" lon="6.39123">
        <ele>1437</ele>
        <time>2026-08-19T10:26:13.344Z</time>
      </trkpt>
      <trkpt lat="45.93442" lon="6.39125">
        <ele>1437</ele>
        <time>2026-08-19T10:26:14.344Z</time>
      </trkpt>
      <trkpt lat="45.93443" lon="6.39127">
        <ele>1436</ele>
        <time>2026-08-19T10:26:15.344Z</time>
      </trkpt>
      <trkpt lat="45.93444" lon="6.39128">
        <ele>1436</ele>
        <time>2026-08-19T10:26:16.344Z</time>
      </trkpt>
      <trkpt lat="45.93444" lon="6.39129">
        <ele>1435</ele>
        <time>2026-08-19T10:26:17.344Z</time>
      </trkpt>
      <trkpt lat="45.93445" lon="6.39131">
        <ele>1435</ele>
        <time>2026-08-19T10:26:18.344Z</time>
      </trkpt>
      <trkpt lat="45.93445" lon="6.39132">
        <ele>1434</ele>
        <time>2026-08-19T10:26:19.344Z</time>
      </trkpt>
      <trkpt lat="45.93445" lon="6.39134">
        <ele>1434</ele>
        <time>2026-08-19T10:26:20.344Z</time>
      </trkpt>
      <trkpt lat="45.93446" lon="6.39135">
        <ele>1434</ele>
        <time>2026-08-19T10:26:21.344Z</time>
      </trkpt>
      <trkpt lat="45.93446" lon="6.39137">
        <ele>1433</ele>
        <time>2026-08-19T10:26:22.344Z</time>
      </trkpt>
      <trkpt lat="45.93446" lon="6.39137">
        <ele>1433</ele>
        <time>2026-08-19T10:26:23.344Z</time>
      </trkpt>
      <trkpt lat="45.93447" lon="6.39139">
        <ele>1434</ele>
        <time>2026-08-19T10:26:24.344Z</time>
      </trkpt>
      <trkpt lat="45.93447" lon="6.3914">
        <ele>1434</ele>
        <time>2026-08-19T10:26:25.344Z</time>
      </trkpt>
      <trkpt lat="45.93447" lon="6.39142">
        <ele>1434</ele>
        <time>2026-08-19T10:26:26.344Z</time>
      </trkpt>
      <trkpt lat="45.93447" lon="6.39143">
        <ele>1434</ele>
        <time>2026-08-19T10:26:27.344Z</time>
      </trkpt>
      <trkpt lat="45.93448" lon="6.39144">
        <ele>1434</ele>
        <time>2026-08-19T10:26:28.344Z</time>
      </trkpt>
      <trkpt lat="45.93449" lon="6.39145">
        <ele>1434</ele>
        <time>2026-08-19T10:26:29.344Z</time>
      </trkpt>
      <trkpt lat="45.93449" lon="6.39146">
        <ele>1434</ele>
        <time>2026-08-19T10:26:30.344Z</time>
      </trkpt>
      <trkpt lat="45.9345" lon="6.39147">
        <ele>1433</ele>
        <time>2026-08-19T10:26:31.344Z</time>
      </trkpt>
      <trkpt lat="45.9345" lon="6.39149">
        <ele>1433</ele>
        <time>2026-08-19T10:26:32.344Z</time>
      </trkpt>
      <trkpt lat="45.93449" lon="6.39151">
        <ele>1432</ele>
        <time>2026-08-19T10:26:33.344Z</time>
      </trkpt>
      <trkpt lat="45.93449" lon="6.39153">
        <ele>1432</ele>
        <time>2026-08-19T10:26:34.344Z</time>
      </trkpt>
      <trkpt lat="45.93449" lon="6.39156">
        <ele>1431</ele>
        <time>2026-08-19T10:26:35.344Z</time>
      </trkpt>
      <trkpt lat="45.93449" lon="6.39158">
        <ele>1431</ele>
        <time>2026-08-19T10:26:36.344Z</time>
      </trkpt>
      <trkpt lat="45.93449" lon="6.3916">
        <ele>1430</ele>
        <time>2026-08-19T10:26:37.344Z</time>
      </trkpt>
      <trkpt lat="45.93449" lon="6.39161">
        <ele>1430</ele>
        <time>2026-08-19T10:26:38.344Z</time>
      </trkpt>
      <trkpt lat="45.93449" lon="6.39163">
        <ele>1430</ele>
        <time>2026-08-19T10:26:39.344Z</time>
      </trkpt>
      <trkpt lat="45.93449" lon="6.39165">
        <ele>1430</ele>
        <time>2026-08-19T10:26:40.344Z</time>
      </trkpt>
      <trkpt lat="45.93448" lon="6.39166">
        <ele>1429</ele>
        <time>2026-08-19T10:26:41.344Z</time>
      </trkpt>
      <trkpt lat="45.93448" lon="6.39167">
        <ele>1429</ele>
        <time>2026-08-19T10:26:42.344Z</time>
      </trkpt>
      <trkpt lat="45.93447" lon="6.39168">
        <ele>1428</ele>
        <time>2026-08-19T10:26:43.344Z</time>
      </trkpt>
      <trkpt lat="45.93446" lon="6.39169">
        <ele>1427</ele>
        <time>2026-08-19T10:26:44.344Z</time>
      </trkpt>
      <trkpt lat="45.93444" lon="6.3917">
        <ele>1427</ele>
        <time>2026-08-19T10:26:45.344Z</time>
      </trkpt>
      <trkpt lat="45.93444" lon="6.3917">
        <ele>1426</ele>
        <time>2026-08-19T10:26:46.344Z</time>
      </trkpt>
      <trkpt lat="45.93443" lon="6.39169">
        <ele>1425</ele>
        <time>2026-08-19T10:26:47.344Z</time>
      </trkpt>
      <trkpt lat="45.93442" lon="6.3917">
        <ele>1424</ele>
        <time>2026-08-19T10:26:48.344Z</time>
      </trkpt>
      <trkpt lat="45.9344" lon="6.39171">
        <ele>1424</ele>
        <time>2026-08-19T10:26:49.344Z</time>
      </trkpt>
      <trkpt lat="45.93439" lon="6.39171">
        <ele>1423</ele>
        <time>2026-08-19T10:26:50.344Z</time>
      </trkpt>
      <trkpt lat="45.93438" lon="6.39172">
        <ele>1423</ele>
        <time>2026-08-19T10:26:51.344Z</time>
      </trkpt>
      <trkpt lat="45.93436" lon="6.39173">
        <ele>1422</ele>
        <time>2026-08-19T10:26:52.344Z</time>
      </trkpt>
      <trkpt lat="45.93435" lon="6.39174">
        <ele>1422</ele>
        <time>2026-08-19T10:26:53.344Z</time>
      </trkpt>
      <trkpt lat="45.93434" lon="6.39175">
        <ele>1421</ele>
        <time>2026-08-19T10:26:54.344Z</time>
      </trkpt>
      <trkpt lat="45.93433" lon="6.39175">
        <ele>1420</ele>
        <time>2026-08-19T10:26:55.344Z</time>
      </trkpt>
      <trkpt lat="45.93432" lon="6.39176">
        <ele>1420</ele>
        <time>2026-08-19T10:26:56.344Z</time>
      </trkpt>
      <trkpt lat="45.93431" lon="6.39177">
        <ele>1419</ele>
        <time>2026-08-19T10:26:57.344Z</time>
      </trkpt>
      <trkpt lat="45.9343" lon="6.39177">
        <ele>1419</ele>
        <time>2026-08-19T10:26:58.344Z</time>
      </trkpt>
      <trkpt lat="45.93429" lon="6.39177">
        <ele>1418</ele>
        <time>2026-08-19T10:26:59.344Z</time>
      </trkpt>
      <trkpt lat="45.93428" lon="6.39177">
        <ele>1418</ele>
        <time>2026-08-19T10:27:00.344Z</time>
      </trkpt>
      <trkpt lat="45.93427" lon="6.39177">
        <ele>1417</ele>
        <time>2026-08-19T10:27:01.344Z</time>
      </trkpt>
      <trkpt lat="45.93425" lon="6.39177">
        <ele>1417</ele>
        <time>2026-08-19T10:27:02.344Z</time>
      </trkpt>
      <trkpt lat="45.93424" lon="6.39178">
        <ele>1416</ele>
        <time>2026-08-19T10:27:03.344Z</time>
      </trkpt>
      <trkpt lat="45.93423" lon="6.39178">
        <ele>1416</ele>
        <time>2026-08-19T10:27:04.344Z</time>
      </trkpt>
      <trkpt lat="45.93422" lon="6.39178">
        <ele>1416</ele>
        <time>2026-08-19T10:27:05.345Z</time>
      </trkpt>
      <trkpt lat="45.93421" lon="6.39178">
        <ele>1415</ele>
        <time>2026-08-19T10:27:06.344Z</time>
      </trkpt>
      <trkpt lat="45.93421" lon="6.39178">
        <ele>1415</ele>
        <time>2026-08-19T10:27:07.344Z</time>
      </trkpt>
      <trkpt lat="45.9342" lon="6.39178">
        <ele>1415</ele>
        <time>2026-08-19T10:27:08.344Z</time>
      </trkpt>
      <trkpt lat="45.93418" lon="6.39178">
        <ele>1415</ele>
        <time>2026-08-19T10:27:09.344Z</time>
      </trkpt>
      <trkpt lat="45.93417" lon="6.39178">
        <ele>1415</ele>
        <time>2026-08-19T10:27:10.344Z</time>
      </trkpt>
      <trkpt lat="45.93416" lon="6.39179">
        <ele>1415</ele>
        <time>2026-08-19T10:27:11.344Z</time>
      </trkpt>
      <trkpt lat="45.93415" lon="6.39179">
        <ele>1415</ele>
        <time>2026-08-19T10:27:12.344Z</time>
      </trkpt>
      <trkpt lat="45.93414" lon="6.39181">
        <ele>1415</ele>
        <time>2026-08-19T10:27:13.344Z</time>
      </trkpt>
      <trkpt lat="45.93413" lon="6.39182">
        <ele>1415</ele>
        <time>2026-08-19T10:27:14.344Z</time>
      </trkpt>
      <trkpt lat="45.93413" lon="6.39181">
        <ele>1414</ele>
        <time>2026-08-19T10:27:15.344Z</time>
      </trkpt>
      <trkpt lat="45.93412" lon="6.39181">
        <ele>1414</ele>
        <time>2026-08-19T10:27:16.345Z</time>
      </trkpt>
      <trkpt lat="45.93412" lon="6.39181">
        <ele>1413</ele>
        <time>2026-08-19T10:27:17.344Z</time>
      </trkpt>
      <trkpt lat="45.93411" lon="6.39181">
        <ele>1412</ele>
        <time>2026-08-19T10:27:18.344Z</time>
      </trkpt>
      <trkpt lat="45.9341" lon="6.39181">
        <ele>1412</ele>
        <time>2026-08-19T10:27:19.344Z</time>
      </trkpt>
      <trkpt lat="45.93409" lon="6.39182">
        <ele>1411</ele>
        <time>2026-08-19T10:27:20.344Z</time>
      </trkpt>
      <trkpt lat="45.93407" lon="6.39182">
        <ele>1411</ele>
        <time>2026-08-19T10:27:21.344Z</time>
      </trkpt>
      <trkpt lat="45.93407" lon="6.39182">
        <ele>1410</ele>
        <time>2026-08-19T10:27:22.344Z</time>
      </trkpt>
      <trkpt lat="45.93406" lon="6.39182">
        <ele>1410</ele>
        <time>2026-08-19T10:27:23.344Z</time>
      </trkpt>
      <trkpt lat="45.93405" lon="6.39182">
        <ele>1410</ele>
        <time>2026-08-19T10:27:24.344Z</time>
      </trkpt>
      <trkpt lat="45.93404" lon="6.39182">
        <ele>1410</ele>
        <time>2026-08-19T10:27:25.344Z</time>
      </trkpt>
      <trkpt lat="45.93404" lon="6.39182">
        <ele>1410</ele>
        <time>2026-08-19T10:27:26.344Z</time>
      </trkpt>
      <trkpt lat="45.93404" lon="6.39182">
        <ele>1410</ele>
        <time>2026-08-19T10:27:27.344Z</time>
      </trkpt>
      <trkpt lat="45.93404" lon="6.39182">
        <ele>1409</ele>
        <time>2026-08-19T10:27:28.344Z</time>
      </trkpt>
      <trkpt lat="45.93404" lon="6.39181">
        <ele>1409</ele>
        <time>2026-08-19T10:27:29.344Z</time>
      </trkpt>
      <trkpt lat="45.93404" lon="6.39181">
        <ele>1409</ele>
        <time>2026-08-19T10:27:30.344Z</time>
      </trkpt>
      <trkpt lat="45.93404" lon="6.39181">
        <ele>1408</ele>
        <time>2026-08-19T10:27:31.344Z</time>
      </trkpt>
      <trkpt lat="45.93404" lon="6.39182">
        <ele>1407</ele>
        <time>2026-08-19T10:27:32.344Z</time>
      </trkpt>
      <trkpt lat="45.93403" lon="6.39183">
        <ele>1407</ele>
        <time>2026-08-19T10:27:33.344Z</time>
      </trkpt>
      <trkpt lat="45.93402" lon="6.39184">
        <ele>1406</ele>
        <time>2026-08-19T10:27:34.344Z</time>
      </trkpt>
      <trkpt lat="45.93401" lon="6.39185">
        <ele>1405</ele>
        <time>2026-08-19T10:27:35.344Z</time>
      </trkpt>
      <trkpt lat="45.934" lon="6.39186">
        <ele>1404</ele>
        <time>2026-08-19T10:27:36.344Z</time>
      </trkpt>
      <trkpt lat="45.93399" lon="6.39187">
        <ele>1404</ele>
        <time>2026-08-19T10:27:37.344Z</time>
      </trkpt>
      <trkpt lat="45.93397" lon="6.39189">
        <ele>1404</ele>
        <time>2026-08-19T10:27:38.344Z</time>
      </trkpt>
      <trkpt lat="45.93396" lon="6.39189">
        <ele>1403</ele>
        <time>2026-08-19T10:27:39.344Z</time>
      </trkpt>
      <trkpt lat="45.93394" lon="6.3919">
        <ele>1403</ele>
        <time>2026-08-19T10:27:40.344Z</time>
      </trkpt>
      <trkpt lat="45.93394" lon="6.39191">
        <ele>1403</ele>
        <time>2026-08-19T10:27:41.344Z</time>
      </trkpt>
      <trkpt lat="45.93392" lon="6.39193">
        <ele>1403</ele>
        <time>2026-08-19T10:27:42.345Z</time>
      </trkpt>
      <trkpt lat="45.9339" lon="6.39193">
        <ele>1403</ele>
        <time>2026-08-19T10:27:43.344Z</time>
      </trkpt>
      <trkpt lat="45.9339" lon="6.39193">
        <ele>1403</ele>
        <time>2026-08-19T10:27:44.344Z</time>
      </trkpt>
      <trkpt lat="45.93389" lon="6.39193">
        <ele>1403</ele>
        <time>2026-08-19T10:27:45.344Z</time>
      </trkpt>
      <trkpt lat="45.93388" lon="6.39193">
        <ele>1403</ele>
        <time>2026-08-19T10:27:46.344Z</time>
      </trkpt>
      <trkpt lat="45.93387" lon="6.39193">
        <ele>1403</ele>
        <time>2026-08-19T10:27:47.344Z</time>
      </trkpt>
      <trkpt lat="45.93386" lon="6.39193">
        <ele>1403</ele>
        <time>2026-08-19T10:27:48.344Z</time>
      </trkpt>
      <trkpt lat="45.93386" lon="6.39194">
        <ele>1403</ele>
        <time>2026-08-19T10:27:49.344Z</time>
      </trkpt>
      <trkpt lat="45.93385" lon="6.39194">
        <ele>1403</ele>
        <time>2026-08-19T10:27:50.344Z</time>
      </trkpt>
      <trkpt lat="45.93384" lon="6.39195">
        <ele>1403</ele>
        <time>2026-08-19T10:27:51.344Z</time>
      </trkpt>
      <trkpt lat="45.93383" lon="6.39196">
        <ele>1402</ele>
        <time>2026-08-19T10:27:52.344Z</time>
      </trkpt>
      <trkpt lat="45.93382" lon="6.39196">
        <ele>1402</ele>
        <time>2026-08-19T10:27:53.344Z</time>
      </trkpt>
      <trkpt lat="45.93382" lon="6.39196">
        <ele>1402</ele>
        <time>2026-08-19T10:27:54.344Z</time>
      </trkpt>
      <trkpt lat="45.93381" lon="6.39196">
        <ele>1401</ele>
        <time>2026-08-19T10:27:55.344Z</time>
      </trkpt>
      <trkpt lat="45.93381" lon="6.39196">
        <ele>1401</ele>
        <time>2026-08-19T10:27:56.344Z</time>
      </trkpt>
      <trkpt lat="45.93381" lon="6.39196">
        <ele>1401</ele>
        <time>2026-08-19T10:27:57.344Z</time>
      </trkpt>
      <trkpt lat="45.9338" lon="6.39197">
        <ele>1400</ele>
        <time>2026-08-19T10:27:58.344Z</time>
      </trkpt>
      <trkpt lat="45.9338" lon="6.39197">
        <ele>1400</ele>
        <time>2026-08-19T10:27:59.344Z</time>
      </trkpt>
      <trkpt lat="45.93379" lon="6.39198">
        <ele>1400</ele>
        <time>2026-08-19T10:28:00.344Z</time>
      </trkpt>
      <trkpt lat="45.93378" lon="6.39198">
        <ele>1399</ele>
        <time>2026-08-19T10:28:01.344Z</time>
      </trkpt>
      <trkpt lat="45.93377" lon="6.39198">
        <ele>1399</ele>
        <time>2026-08-19T10:28:02.344Z</time>
      </trkpt>
      <trkpt lat="45.93376" lon="6.39198">
        <ele>1398</ele>
        <time>2026-08-19T10:28:03.344Z</time>
      </trkpt>
      <trkpt lat="45.93376" lon="6.39198">
        <ele>1398</ele>
        <time>2026-08-19T10:28:04.344Z</time>
      </trkpt>
      <trkpt lat="45.93375" lon="6.39198">
        <ele>1397</ele>
        <time>2026-08-19T10:28:05.344Z</time>
      </trkpt>
      <trkpt lat="45.93375" lon="6.39199">
        <ele>1397</ele>
        <time>2026-08-19T10:28:06.344Z</time>
      </trkpt>
      <trkpt lat="45.93374" lon="6.39199">
        <ele>1396</ele>
        <time>2026-08-19T10:28:07.344Z</time>
      </trkpt>
      <trkpt lat="45.93374" lon="6.39199">
        <ele>1395</ele>
        <time>2026-08-19T10:28:08.344Z</time>
      </trkpt>
      <trkpt lat="45.93373" lon="6.392">
        <ele>1395</ele>
        <time>2026-08-19T10:28:09.344Z</time>
      </trkpt>
      <trkpt lat="45.93372" lon="6.392">
        <ele>1394</ele>
        <time>2026-08-19T10:28:10.344Z</time>
      </trkpt>
      <trkpt lat="45.93371" lon="6.392">
        <ele>1394</ele>
        <time>2026-08-19T10:28:11.344Z</time>
      </trkpt>
      <trkpt lat="45.93371" lon="6.392">
        <ele>1394</ele>
        <time>2026-08-19T10:28:12.344Z</time>
      </trkpt>
      <trkpt lat="45.9337" lon="6.39201">
        <ele>1393</ele>
        <time>2026-08-19T10:28:13.344Z</time>
      </trkpt>
      <trkpt lat="45.9337" lon="6.39201">
        <ele>1393</ele>
        <time>2026-08-19T10:28:14.345Z</time>
      </trkpt>
      <trkpt lat="45.93369" lon="6.39201">
        <ele>1392</ele>
        <time>2026-08-19T10:28:15.344Z</time>
      </trkpt>
      <trkpt lat="45.93369" lon="6.39201">
        <ele>1392</ele>
        <time>2026-08-19T10:28:16.344Z</time>
      </trkpt>
      <trkpt lat="45.93369" lon="6.39202">
        <ele>1391</ele>
        <time>2026-08-19T10:28:17.344Z</time>
      </trkpt>
      <trkpt lat="45.93369" lon="6.39202">
        <ele>1391</ele>
        <time>2026-08-19T10:28:18.344Z</time>
      </trkpt>
      <trkpt lat="45.93368" lon="6.39202">
        <ele>1390</ele>
        <time>2026-08-19T10:28:19.344Z</time>
      </trkpt>
      <trkpt lat="45.93367" lon="6.39203">
        <ele>1390</ele>
        <time>2026-08-19T10:28:20.344Z</time>
      </trkpt>
      <trkpt lat="45.93367" lon="6.39204">
        <ele>1390</ele>
        <time>2026-08-19T10:28:21.344Z</time>
      </trkpt>
      <trkpt lat="45.93366" lon="6.39205">
        <ele>1389</ele>
        <time>2026-08-19T10:28:22.344Z</time>
      </trkpt>
      <trkpt lat="45.93366" lon="6.39206">
        <ele>1389</ele>
        <time>2026-08-19T10:28:23.344Z</time>
      </trkpt>
      <trkpt lat="45.93365" lon="6.39207">
        <ele>1388</ele>
        <time>2026-08-19T10:28:24.344Z</time>
      </trkpt>
      <trkpt lat="45.93364" lon="6.39208">
        <ele>1388</ele>
        <time>2026-08-19T10:28:25.344Z</time>
      </trkpt>
      <trkpt lat="45.93363" lon="6.39208">
        <ele>1387</ele>
        <time>2026-08-19T10:28:26.344Z</time>
      </trkpt>
      <trkpt lat="45.93362" lon="6.39208">
        <ele>1387</ele>
        <time>2026-08-19T10:28:27.344Z</time>
      </trkpt>
      <trkpt lat="45.93361" lon="6.39208">
        <ele>1386</ele>
        <time>2026-08-19T10:28:28.344Z</time>
      </trkpt>
      <trkpt lat="45.9336" lon="6.39208">
        <ele>1386</ele>
        <time>2026-08-19T10:28:29.344Z</time>
      </trkpt>
      <trkpt lat="45.93358" lon="6.39209">
        <ele>1385</ele>
        <time>2026-08-19T10:28:30.344Z</time>
      </trkpt>
      <trkpt lat="45.93357" lon="6.39209">
        <ele>1385</ele>
        <time>2026-08-19T10:28:31.344Z</time>
      </trkpt>
      <trkpt lat="45.93356" lon="6.39209">
        <ele>1384</ele>
        <time>2026-08-19T10:28:32.344Z</time>
      </trkpt>
      <trkpt lat="45.93356" lon="6.39209">
        <ele>1384</ele>
        <time>2026-08-19T10:28:33.344Z</time>
      </trkpt>
      <trkpt lat="45.93356" lon="6.3921">
        <ele>1384</ele>
        <time>2026-08-19T10:28:34.344Z</time>
      </trkpt>
      <trkpt lat="45.93356" lon="6.3921">
        <ele>1383</ele>
        <time>2026-08-19T10:28:35.344Z</time>
      </trkpt>
      <trkpt lat="45.93356" lon="6.3921">
        <ele>1383</ele>
        <time>2026-08-19T10:28:36.344Z</time>
      </trkpt>
      <trkpt lat="45.93355" lon="6.39211">
        <ele>1382</ele>
        <time>2026-08-19T10:28:37.344Z</time>
      </trkpt>
      <trkpt lat="45.93354" lon="6.3921">
        <ele>1382</ele>
        <time>2026-08-19T10:28:38.344Z</time>
      </trkpt>
      <trkpt lat="45.93353" lon="6.3921">
        <ele>1381</ele>
        <time>2026-08-19T10:28:39.344Z</time>
      </trkpt>
      <trkpt lat="45.93352" lon="6.39211">
        <ele>1380</ele>
        <time>2026-08-19T10:28:40.345Z</time>
      </trkpt>
      <trkpt lat="45.93351" lon="6.39211">
        <ele>1380</ele>
        <time>2026-08-19T10:28:41.344Z</time>
      </trkpt>
      <trkpt lat="45.93349" lon="6.39212">
        <ele>1380</ele>
        <time>2026-08-19T10:28:42.344Z</time>
      </trkpt>
      <trkpt lat="45.93348" lon="6.39212">
        <ele>1379</ele>
        <time>2026-08-19T10:28:43.344Z</time>
      </trkpt>
      <trkpt lat="45.93347" lon="6.39212">
        <ele>1379</ele>
        <time>2026-08-19T10:28:44.344Z</time>
      </trkpt>
      <trkpt lat="45.93346" lon="6.39213">
        <ele>1379</ele>
        <time>2026-08-19T10:28:45.344Z</time>
      </trkpt>
      <trkpt lat="45.93345" lon="6.39214">
        <ele>1379</ele>
        <time>2026-08-19T10:28:46.344Z</time>
      </trkpt>
      <trkpt lat="45.93344" lon="6.39214">
        <ele>1379</ele>
        <time>2026-08-19T10:28:47.344Z</time>
      </trkpt>
      <trkpt lat="45.93344" lon="6.39215">
        <ele>1379</ele>
        <time>2026-08-19T10:28:48.344Z</time>
      </trkpt>
      <trkpt lat="45.93343" lon="6.39216">
        <ele>1378</ele>
        <time>2026-08-19T10:28:49.344Z</time>
      </trkpt>
      <trkpt lat="45.93342" lon="6.39217">
        <ele>1378</ele>
        <time>2026-08-19T10:28:50.344Z</time>
      </trkpt>
      <trkpt lat="45.93341" lon="6.39217">
        <ele>1377</ele>
        <time>2026-08-19T10:28:51.344Z</time>
      </trkpt>
      <trkpt lat="45.93339" lon="6.39217">
        <ele>1376</ele>
        <time>2026-08-19T10:28:52.344Z</time>
      </trkpt>
      <trkpt lat="45.93337" lon="6.39218">
        <ele>1375</ele>
        <time>2026-08-19T10:28:53.344Z</time>
      </trkpt>
      <trkpt lat="45.93337" lon="6.39218">
        <ele>1375</ele>
        <time>2026-08-19T10:28:54.344Z</time>
      </trkpt>
      <trkpt lat="45.93336" lon="6.39218">
        <ele>1374</ele>
        <time>2026-08-19T10:28:55.344Z</time>
      </trkpt>
      <trkpt lat="45.93336" lon="6.39218">
        <ele>1374</ele>
        <time>2026-08-19T10:28:56.344Z</time>
      </trkpt>
      <trkpt lat="45.93336" lon="6.39218">
        <ele>1373</ele>
        <time>2026-08-19T10:28:57.344Z</time>
      </trkpt>
      <trkpt lat="45.93336" lon="6.39218">
        <ele>1373</ele>
        <time>2026-08-19T10:28:58.344Z</time>
      </trkpt>
      <trkpt lat="45.93335" lon="6.39218">
        <ele>1372</ele>
        <time>2026-08-19T10:28:59.344Z</time>
      </trkpt>
      <trkpt lat="45.93335" lon="6.39218">
        <ele>1372</ele>
        <time>2026-08-19T10:29:00.344Z</time>
      </trkpt>
      <trkpt lat="45.93335" lon="6.39217">
        <ele>1372</ele>
        <time>2026-08-19T10:29:01.344Z</time>
      </trkpt>
      <trkpt lat="45.93335" lon="6.39217">
        <ele>1371</ele>
        <time>2026-08-19T10:29:02.344Z</time>
      </trkpt>
      <trkpt lat="45.93335" lon="6.39216">
        <ele>1371</ele>
        <time>2026-08-19T10:29:03.344Z</time>
      </trkpt>
      <trkpt lat="45.93336" lon="6.39217">
        <ele>1370</ele>
        <time>2026-08-19T10:29:04.344Z</time>
      </trkpt>
      <trkpt lat="45.93336" lon="6.39216">
        <ele>1370</ele>
        <time>2026-08-19T10:29:05.344Z</time>
      </trkpt>
      <trkpt lat="45.93336" lon="6.39216">
        <ele>1369</ele>
        <time>2026-08-19T10:29:06.344Z</time>
      </trkpt>
      <trkpt lat="45.93336" lon="6.39216">
        <ele>1368</ele>
        <time>2026-08-19T10:29:07.344Z</time>
      </trkpt>
      <trkpt lat="45.93335" lon="6.39216">
        <ele>1368</ele>
        <time>2026-08-19T10:29:08.344Z</time>
      </trkpt>
      <trkpt lat="45.93335" lon="6.39216">
        <ele>1367</ele>
        <time>2026-08-19T10:29:09.344Z</time>
      </trkpt>
      <trkpt lat="45.93334" lon="6.39216">
        <ele>1367</ele>
        <time>2026-08-19T10:29:10.344Z</time>
      </trkpt>
      <trkpt lat="45.93334" lon="6.39216">
        <ele>1367</ele>
        <time>2026-08-19T10:29:11.344Z</time>
      </trkpt>
      <trkpt lat="45.93334" lon="6.39215">
        <ele>1366</ele>
        <time>2026-08-19T10:29:12.344Z</time>
      </trkpt>
      <trkpt lat="45.93333" lon="6.39215">
        <ele>1366</ele>
        <time>2026-08-19T10:29:13.344Z</time>
      </trkpt>
      <trkpt lat="45.93333" lon="6.39215">
        <ele>1366</ele>
        <time>2026-08-19T10:29:14.344Z</time>
      </trkpt>
      <trkpt lat="45.93332" lon="6.39215">
        <ele>1365</ele>
        <time>2026-08-19T10:29:15.344Z</time>
      </trkpt>
      <trkpt lat="45.93332" lon="6.39215">
        <ele>1365</ele>
        <time>2026-08-19T10:29:16.344Z</time>
      </trkpt>
      <trkpt lat="45.93331" lon="6.39215">
        <ele>1365</ele>
        <time>2026-08-19T10:29:17.344Z</time>
      </trkpt>
      <trkpt lat="45.9333" lon="6.39215">
        <ele>1365</ele>
        <time>2026-08-19T10:29:18.344Z</time>
      </trkpt>
      <trkpt lat="45.93329" lon="6.39214">
        <ele>1365</ele>
        <time>2026-08-19T10:29:19.344Z</time>
      </trkpt>
      <trkpt lat="45.93329" lon="6.39214">
        <ele>1364</ele>
        <time>2026-08-19T10:29:20.344Z</time>
      </trkpt>
      <trkpt lat="45.93328" lon="6.39214">
        <ele>1363</ele>
        <time>2026-08-19T10:29:21.344Z</time>
      </trkpt>
      <trkpt lat="45.93327" lon="6.39215">
        <ele>1363</ele>
        <time>2026-08-19T10:29:22.344Z</time>
      </trkpt>
      <trkpt lat="45.93326" lon="6.39215">
        <ele>1362</ele>
        <time>2026-08-19T10:29:23.344Z</time>
      </trkpt>
      <trkpt lat="45.93326" lon="6.39215">
        <ele>1361</ele>
        <time>2026-08-19T10:29:24.344Z</time>
      </trkpt>
      <trkpt lat="45.93325" lon="6.39215">
        <ele>1361</ele>
        <time>2026-08-19T10:29:25.344Z</time>
      </trkpt>
      <trkpt lat="45.93325" lon="6.39215">
        <ele>1361</ele>
        <time>2026-08-19T10:29:26.344Z</time>
      </trkpt>
      <trkpt lat="45.93325" lon="6.39215">
        <ele>1360</ele>
        <time>2026-08-19T10:29:27.344Z</time>
      </trkpt>
      <trkpt lat="45.93325" lon="6.39215">
        <ele>1360</ele>
        <time>2026-08-19T10:29:28.344Z</time>
      </trkpt>
      <trkpt lat="45.93324" lon="6.39215">
        <ele>1360</ele>
        <time>2026-08-19T10:29:29.344Z</time>
      </trkpt>
      <trkpt lat="45.93323" lon="6.39215">
        <ele>1360</ele>
        <time>2026-08-19T10:29:30.344Z</time>
      </trkpt>
      <trkpt lat="45.93322" lon="6.39215">
        <ele>1360</ele>
        <time>2026-08-19T10:29:31.344Z</time>
      </trkpt>
      <trkpt lat="45.9332" lon="6.39216">
        <ele>1360</ele>
        <time>2026-08-19T10:29:32.344Z</time>
      </trkpt>
      <trkpt lat="45.93319" lon="6.39217">
        <ele>1360</ele>
        <time>2026-08-19T10:29:33.344Z</time>
      </trkpt>
      <trkpt lat="45.93318" lon="6.39218">
        <ele>1360</ele>
        <time>2026-08-19T10:29:34.344Z</time>
      </trkpt>
      <trkpt lat="45.93318" lon="6.39218">
        <ele>1360</ele>
        <time>2026-08-19T10:29:35.344Z</time>
      </trkpt>
      <trkpt lat="45.93317" lon="6.39218">
        <ele>1360</ele>
        <time>2026-08-19T10:29:36.344Z</time>
      </trkpt>
      <trkpt lat="45.93316" lon="6.39218">
        <ele>1359</ele>
        <time>2026-08-19T10:29:37.344Z</time>
      </trkpt>
      <trkpt lat="45.93315" lon="6.39218">
        <ele>1359</ele>
        <time>2026-08-19T10:29:38.344Z</time>
      </trkpt>
      <trkpt lat="45.93313" lon="6.39217">
        <ele>1359</ele>
        <time>2026-08-19T10:29:39.344Z</time>
      </trkpt>
      <trkpt lat="45.93312" lon="6.39217">
        <ele>1359</ele>
        <time>2026-08-19T10:29:40.344Z</time>
      </trkpt>
      <trkpt lat="45.9331" lon="6.39217">
        <ele>1359</ele>
        <time>2026-08-19T10:29:41.344Z</time>
      </trkpt>
      <trkpt lat="45.93309" lon="6.39216">
        <ele>1359</ele>
        <time>2026-08-19T10:29:42.344Z</time>
      </trkpt>
      <trkpt lat="45.93307" lon="6.39216">
        <ele>1358</ele>
        <time>2026-08-19T10:29:43.344Z</time>
      </trkpt>
      <trkpt lat="45.93305" lon="6.39216">
        <ele>1358</ele>
        <time>2026-08-19T10:29:44.344Z</time>
      </trkpt>
      <trkpt lat="45.93304" lon="6.39215">
        <ele>1358</ele>
        <time>2026-08-19T10:29:45.344Z</time>
      </trkpt>
      <trkpt lat="45.93303" lon="6.39215">
        <ele>1358</ele>
        <time>2026-08-19T10:29:46.344Z</time>
      </trkpt>
      <trkpt lat="45.93302" lon="6.39214">
        <ele>1357</ele>
        <time>2026-08-19T10:29:47.344Z</time>
      </trkpt>
      <trkpt lat="45.933" lon="6.39214">
        <ele>1357</ele>
        <time>2026-08-19T10:29:48.344Z</time>
      </trkpt>
      <trkpt lat="45.93299" lon="6.39214">
        <ele>1356</ele>
        <time>2026-08-19T10:29:49.344Z</time>
      </trkpt>
      <trkpt lat="45.93299" lon="6.39215">
        <ele>1356</ele>
        <time>2026-08-19T10:29:50.345Z</time>
      </trkpt>
      <trkpt lat="45.93299" lon="6.39215">
        <ele>1355</ele>
        <time>2026-08-19T10:29:51.344Z</time>
      </trkpt>
      <trkpt lat="45.93299" lon="6.39216">
        <ele>1354</ele>
        <time>2026-08-19T10:29:52.344Z</time>
      </trkpt>
      <trkpt lat="45.93298" lon="6.39216">
        <ele>1353</ele>
        <time>2026-08-19T10:29:53.344Z</time>
      </trkpt>
      <trkpt lat="45.93298" lon="6.39217">
        <ele>1353</ele>
        <time>2026-08-19T10:29:54.344Z</time>
      </trkpt>
      <trkpt lat="45.93298" lon="6.39217">
        <ele>1352</ele>
        <time>2026-08-19T10:29:55.344Z</time>
      </trkpt>
      <trkpt lat="45.93299" lon="6.39218">
        <ele>1351</ele>
        <time>2026-08-19T10:29:56.344Z</time>
      </trkpt>
      <trkpt lat="45.93299" lon="6.39218">
        <ele>1351</ele>
        <time>2026-08-19T10:29:57.344Z</time>
      </trkpt>
      <trkpt lat="45.93299" lon="6.39218">
        <ele>1350</ele>
        <time>2026-08-19T10:29:58.344Z</time>
      </trkpt>
      <trkpt lat="45.933" lon="6.39218">
        <ele>1350</ele>
        <time>2026-08-19T10:29:59.344Z</time>
      </trkpt>
      <trkpt lat="45.933" lon="6.3922">
        <ele>1350</ele>
        <time>2026-08-19T10:30:00.344Z</time>
      </trkpt>
      <trkpt lat="45.93301" lon="6.39221">
        <ele>1349</ele>
        <time>2026-08-19T10:30:01.344Z</time>
      </trkpt>
      <trkpt lat="45.93301" lon="6.39221">
        <ele>1349</ele>
        <time>2026-08-19T10:30:02.344Z</time>
      </trkpt>
      <trkpt lat="45.93301" lon="6.39223">
        <ele>1348</ele>
        <time>2026-08-19T10:30:03.344Z</time>
      </trkpt>
      <trkpt lat="45.93302" lon="6.39224">
        <ele>1348</ele>
        <time>2026-08-19T10:30:04.344Z</time>
      </trkpt>
      <trkpt lat="45.93303" lon="6.39225">
        <ele>1348</ele>
        <time>2026-08-19T10:30:05.344Z</time>
      </trkpt>
      <trkpt lat="45.93302" lon="6.39226">
        <ele>1348</ele>
        <time>2026-08-19T10:30:06.344Z</time>
      </trkpt>
      <trkpt lat="45.93301" lon="6.39227">
        <ele>1348</ele>
        <time>2026-08-19T10:30:07.344Z</time>
      </trkpt>
      <trkpt lat="45.933" lon="6.39228">
        <ele>1347</ele>
        <time>2026-08-19T10:30:08.344Z</time>
      </trkpt>
      <trkpt lat="45.93299" lon="6.39229">
        <ele>1347</ele>
        <time>2026-08-19T10:30:09.344Z</time>
      </trkpt>
      <trkpt lat="45.93299" lon="6.39229">
        <ele>1346</ele>
        <time>2026-08-19T10:30:10.344Z</time>
      </trkpt>
      <trkpt lat="45.93298" lon="6.39229">
        <ele>1345</ele>
        <time>2026-08-19T10:30:11.344Z</time>
      </trkpt>
      <trkpt lat="45.93297" lon="6.3923">
        <ele>1345</ele>
        <time>2026-08-19T10:30:12.344Z</time>
      </trkpt>
      <trkpt lat="45.93297" lon="6.3923">
        <ele>1344</ele>
        <time>2026-08-19T10:30:13.344Z</time>
      </trkpt>
      <trkpt lat="45.93296" lon="6.3923">
        <ele>1344</ele>
        <time>2026-08-19T10:30:14.344Z</time>
      </trkpt>
      <trkpt lat="45.93295" lon="6.3923">
        <ele>1344</ele>
        <time>2026-08-19T10:30:15.344Z</time>
      </trkpt>
      <trkpt lat="45.93295" lon="6.3923">
        <ele>1344</ele>
        <time>2026-08-19T10:30:16.344Z</time>
      </trkpt>
      <trkpt lat="45.93294" lon="6.3923">
        <ele>1344</ele>
        <time>2026-08-19T10:30:17.344Z</time>
      </trkpt>
      <trkpt lat="45.93294" lon="6.3923">
        <ele>1344</ele>
        <time>2026-08-19T10:30:18.344Z</time>
      </trkpt>
      <trkpt lat="45.93293" lon="6.39231">
        <ele>1343</ele>
        <time>2026-08-19T10:30:19.344Z</time>
      </trkpt>
      <trkpt lat="45.93292" lon="6.39232">
        <ele>1343</ele>
        <time>2026-08-19T10:30:20.344Z</time>
      </trkpt>
      <trkpt lat="45.93292" lon="6.39233">
        <ele>1343</ele>
        <time>2026-08-19T10:30:21.344Z</time>
      </trkpt>
      <trkpt lat="45.93292" lon="6.39233">
        <ele>1343</ele>
        <time>2026-08-19T10:30:22.344Z</time>
      </trkpt>
      <trkpt lat="45.93292" lon="6.39233">
        <ele>1342</ele>
        <time>2026-08-19T10:30:23.344Z</time>
      </trkpt>
      <trkpt lat="45.93292" lon="6.39234">
        <ele>1342</ele>
        <time>2026-08-19T10:30:24.344Z</time>
      </trkpt>
      <trkpt lat="45.93292" lon="6.39235">
        <ele>1342</ele>
        <time>2026-08-19T10:30:25.344Z</time>
      </trkpt>
      <trkpt lat="45.93292" lon="6.39235">
        <ele>1341</ele>
        <time>2026-08-19T10:30:26.344Z</time>
      </trkpt>
      <trkpt lat="45.93292" lon="6.39236">
        <ele>1341</ele>
        <time>2026-08-19T10:30:27.344Z</time>
      </trkpt>
      <trkpt lat="45.93292" lon="6.39236">
        <ele>1341</ele>
        <time>2026-08-19T10:30:28.344Z</time>
      </trkpt>
      <trkpt lat="45.93292" lon="6.39237">
        <ele>1341</ele>
        <time>2026-08-19T10:30:29.344Z</time>
      </trkpt>
      <trkpt lat="45.93292" lon="6.39237">
        <ele>1341</ele>
        <time>2026-08-19T10:30:30.344Z</time>
      </trkpt>
      <trkpt lat="45.93291" lon="6.39238">
        <ele>1341</ele>
        <time>2026-08-19T10:30:31.344Z</time>
      </trkpt>
      <trkpt lat="45.9329" lon="6.39239">
        <ele>1340</ele>
        <time>2026-08-19T10:30:32.344Z</time>
      </trkpt>
      <trkpt lat="45.9329" lon="6.39239">
        <ele>1340</ele>
        <time>2026-08-19T10:30:33.344Z</time>
      </trkpt>
      <trkpt lat="45.9329" lon="6.39239">
        <ele>1340</ele>
        <time>2026-08-19T10:30:34.344Z</time>
      </trkpt>
      <trkpt lat="45.93289" lon="6.39239">
        <ele>1339</ele>
        <time>2026-08-19T10:30:35.344Z</time>
      </trkpt>
      <trkpt lat="45.93289" lon="6.39239">
        <ele>1339</ele>
        <time>2026-08-19T10:30:36.344Z</time>
      </trkpt>
      <trkpt lat="45.93288" lon="6.39239">
        <ele>1338</ele>
        <time>2026-08-19T10:30:37.344Z</time>
      </trkpt>
      <trkpt lat="45.93288" lon="6.39239">
        <ele>1337</ele>
        <time>2026-08-19T10:30:38.344Z</time>
      </trkpt>
      <trkpt lat="45.93288" lon="6.39239">
        <ele>1336</ele>
        <time>2026-08-19T10:30:39.344Z</time>
      </trkpt>
      <trkpt lat="45.93287" lon="6.39239">
        <ele>1336</ele>
        <time>2026-08-19T10:30:40.344Z</time>
      </trkpt>
      <trkpt lat="45.93286" lon="6.3924">
        <ele>1335</ele>
        <time>2026-08-19T10:30:41.344Z</time>
      </trkpt>
      <trkpt lat="45.93286" lon="6.3924">
        <ele>1335</ele>
        <time>2026-08-19T10:30:42.344Z</time>
      </trkpt>
      <trkpt lat="45.93286" lon="6.3924">
        <ele>1335</ele>
        <time>2026-08-19T10:30:43.344Z</time>
      </trkpt>
      <trkpt lat="45.93286" lon="6.3924">
        <ele>1335</ele>
        <time>2026-08-19T10:30:44.344Z</time>
      </trkpt>
      <trkpt lat="45.93285" lon="6.39241">
        <ele>1335</ele>
        <time>2026-08-19T10:30:45.344Z</time>
      </trkpt>
      <trkpt lat="45.93285" lon="6.39242">
        <ele>1335</ele>
        <time>2026-08-19T10:30:46.344Z</time>
      </trkpt>
      <trkpt lat="45.93285" lon="6.39242">
        <ele>1335</ele>
        <time>2026-08-19T10:30:47.344Z</time>
      </trkpt>
      <trkpt lat="45.93285" lon="6.39243">
        <ele>1334</ele>
        <time>2026-08-19T10:30:48.344Z</time>
      </trkpt>
      <trkpt lat="45.93285" lon="6.39244">
        <ele>1334</ele>
        <time>2026-08-19T10:30:49.344Z</time>
      </trkpt>
      <trkpt lat="45.93285" lon="6.39244">
        <ele>1334</ele>
        <time>2026-08-19T10:30:50.344Z</time>
      </trkpt>
      <trkpt lat="45.93284" lon="6.39244">
        <ele>1333</ele>
        <time>2026-08-19T10:30:51.344Z</time>
      </trkpt>
      <trkpt lat="45.93283" lon="6.39245">
        <ele>1333</ele>
        <time>2026-08-19T10:30:52.344Z</time>
      </trkpt>
      <trkpt lat="45.93281" lon="6.39244">
        <ele>1333</ele>
        <time>2026-08-19T10:30:53.344Z</time>
      </trkpt>
      <trkpt lat="45.9328" lon="6.39244">
        <ele>1333</ele>
        <time>2026-08-19T10:30:54.344Z</time>
      </trkpt>
      <trkpt lat="45.93279" lon="6.39244">
        <ele>1333</ele>
        <time>2026-08-19T10:30:55.344Z</time>
      </trkpt>
      <trkpt lat="45.93279" lon="6.39244">
        <ele>1333</ele>
        <time>2026-08-19T10:30:56.344Z</time>
      </trkpt>
      <trkpt lat="45.93279" lon="6.39244">
        <ele>1333</ele>
        <time>2026-08-19T10:30:57.344Z</time>
      </trkpt>
      <trkpt lat="45.93277" lon="6.39244">
        <ele>1332</ele>
        <time>2026-08-19T10:30:58.344Z</time>
      </trkpt>
      <trkpt lat="45.93276" lon="6.39244">
        <ele>1332</ele>
        <time>2026-08-19T10:30:59.344Z</time>
      </trkpt>
      <trkpt lat="45.93274" lon="6.39245">
        <ele>1332</ele>
        <time>2026-08-19T10:31:00.344Z</time>
      </trkpt>
      <trkpt lat="45.93272" lon="6.39246">
        <ele>1332</ele>
        <time>2026-08-19T10:31:01.344Z</time>
      </trkpt>
      <trkpt lat="45.93272" lon="6.39246">
        <ele>1332</ele>
        <time>2026-08-19T10:31:02.344Z</time>
      </trkpt>
      <trkpt lat="45.93272" lon="6.39246">
        <ele>1332</ele>
        <time>2026-08-19T10:31:03.344Z</time>
      </trkpt>
      <trkpt lat="45.93271" lon="6.39245">
        <ele>1331</ele>
        <time>2026-08-19T10:31:04.344Z</time>
      </trkpt>
      <trkpt lat="45.93271" lon="6.39246">
        <ele>1331</ele>
        <time>2026-08-19T10:31:05.344Z</time>
      </trkpt>
      <trkpt lat="45.93271" lon="6.39246">
        <ele>1330</ele>
        <time>2026-08-19T10:31:06.344Z</time>
      </trkpt>
      <trkpt lat="45.93272" lon="6.39247">
        <ele>1329</ele>
        <time>2026-08-19T10:31:07.344Z</time>
      </trkpt>
      <trkpt lat="45.93271" lon="6.39248">
        <ele>1329</ele>
        <time>2026-08-19T10:31:08.344Z</time>
      </trkpt>
      <trkpt lat="45.93272" lon="6.39248">
        <ele>1329</ele>
        <time>2026-08-19T10:31:09.344Z</time>
      </trkpt>
      <trkpt lat="45.93272" lon="6.39249">
        <ele>1328</ele>
        <time>2026-08-19T10:31:10.344Z</time>
      </trkpt>
      <trkpt lat="45.93272" lon="6.3925">
        <ele>1328</ele>
        <time>2026-08-19T10:31:11.344Z</time>
      </trkpt>
      <trkpt lat="45.93272" lon="6.3925">
        <ele>1328</ele>
        <time>2026-08-19T10:31:12.344Z</time>
      </trkpt>
      <trkpt lat="45.93272" lon="6.3925">
        <ele>1328</ele>
        <time>2026-08-19T10:31:13.344Z</time>
      </trkpt>
      <trkpt lat="45.93273" lon="6.39251">
        <ele>1328</ele>
        <time>2026-08-19T10:31:14.344Z</time>
      </trkpt>
      <trkpt lat="45.93272" lon="6.39252">
        <ele>1327</ele>
        <time>2026-08-19T10:31:15.344Z</time>
      </trkpt>
      <trkpt lat="45.93272" lon="6.39252">
        <ele>1327</ele>
        <time>2026-08-19T10:31:16.344Z</time>
      </trkpt>
      <trkpt lat="45.93272" lon="6.39252">
        <ele>1327</ele>
        <time>2026-08-19T10:31:17.344Z</time>
      </trkpt>
      <trkpt lat="45.93271" lon="6.39252">
        <ele>1326</ele>
        <time>2026-08-19T10:31:18.344Z</time>
      </trkpt>
      <trkpt lat="45.9327" lon="6.39252">
        <ele>1325</ele>
        <time>2026-08-19T10:31:19.344Z</time>
      </trkpt>
      <trkpt lat="45.93269" lon="6.39253">
        <ele>1325</ele>
        <time>2026-08-19T10:31:20.344Z</time>
      </trkpt>
      <trkpt lat="45.93267" lon="6.39253">
        <ele>1324</ele>
        <time>2026-08-19T10:31:21.344Z</time>
      </trkpt>
      <trkpt lat="45.93265" lon="6.39254">
        <ele>1324</ele>
        <time>2026-08-19T10:31:22.344Z</time>
      </trkpt>
      <trkpt lat="45.93265" lon="6.39254">
        <ele>1324</ele>
        <time>2026-08-19T10:31:23.344Z</time>
      </trkpt>
      <trkpt lat="45.93265" lon="6.39255">
        <ele>1324</ele>
        <time>2026-08-19T10:31:24.344Z</time>
      </trkpt>
      <trkpt lat="45.93265" lon="6.39255">
        <ele>1324</ele>
        <time>2026-08-19T10:31:25.344Z</time>
      </trkpt>
      <trkpt lat="45.93265" lon="6.39256">
        <ele>1323</ele>
        <time>2026-08-19T10:31:26.344Z</time>
      </trkpt>
      <trkpt lat="45.93265" lon="6.39257">
        <ele>1323</ele>
        <time>2026-08-19T10:31:27.344Z</time>
      </trkpt>
      <trkpt lat="45.93265" lon="6.39258">
        <ele>1322</ele>
        <time>2026-08-19T10:31:28.344Z</time>
      </trkpt>
      <trkpt lat="45.93266" lon="6.39259">
        <ele>1322</ele>
        <time>2026-08-19T10:31:29.344Z</time>
      </trkpt>
      <trkpt lat="45.93266" lon="6.3926">
        <ele>1321</ele>
        <time>2026-08-19T10:31:30.344Z</time>
      </trkpt>
      <trkpt lat="45.93265" lon="6.39261">
        <ele>1321</ele>
        <time>2026-08-19T10:31:31.345Z</time>
      </trkpt>
      <trkpt lat="45.93264" lon="6.39262">
        <ele>1320</ele>
        <time>2026-08-19T10:31:32.344Z</time>
      </trkpt>
      <trkpt lat="45.93263" lon="6.39262">
        <ele>1320</ele>
        <time>2026-08-19T10:31:33.344Z</time>
      </trkpt>
      <trkpt lat="45.93262" lon="6.39263">
        <ele>1319</ele>
        <time>2026-08-19T10:31:34.344Z</time>
      </trkpt>
      <trkpt lat="45.9326" lon="6.39263">
        <ele>1319</ele>
        <time>2026-08-19T10:31:35.344Z</time>
      </trkpt>
      <trkpt lat="45.93259" lon="6.39262">
        <ele>1319</ele>
        <time>2026-08-19T10:31:36.344Z</time>
      </trkpt>
      <trkpt lat="45.93258" lon="6.39262">
        <ele>1318</ele>
        <time>2026-08-19T10:31:37.344Z</time>
      </trkpt>
      <trkpt lat="45.93257" lon="6.39261">
        <ele>1318</ele>
        <time>2026-08-19T10:31:38.344Z</time>
      </trkpt>
      <trkpt lat="45.93255" lon="6.39262">
        <ele>1317</ele>
        <time>2026-08-19T10:31:39.344Z</time>
      </trkpt>
      <trkpt lat="45.93254" lon="6.39261">
        <ele>1317</ele>
        <time>2026-08-19T10:31:40.344Z</time>
      </trkpt>
      <trkpt lat="45.93252" lon="6.39261">
        <ele>1316</ele>
        <time>2026-08-19T10:31:41.344Z</time>
      </trkpt>
      <trkpt lat="45.93251" lon="6.3926">
        <ele>1316</ele>
        <time>2026-08-19T10:31:42.344Z</time>
      </trkpt>
      <trkpt lat="45.9325" lon="6.39259">
        <ele>1315</ele>
        <time>2026-08-19T10:31:43.344Z</time>
      </trkpt>
      <trkpt lat="45.93248" lon="6.39258">
        <ele>1315</ele>
        <time>2026-08-19T10:31:44.344Z</time>
      </trkpt>
      <trkpt lat="45.93247" lon="6.39257">
        <ele>1314</ele>
        <time>2026-08-19T10:31:45.344Z</time>
      </trkpt>
      <trkpt lat="45.93246" lon="6.39257">
        <ele>1314</ele>
        <time>2026-08-19T10:31:46.344Z</time>
      </trkpt>
      <trkpt lat="45.93244" lon="6.39257">
        <ele>1313</ele>
        <time>2026-08-19T10:31:47.344Z</time>
      </trkpt>
      <trkpt lat="45.93244" lon="6.39257">
        <ele>1313</ele>
        <time>2026-08-19T10:31:48.344Z</time>
      </trkpt>
      <trkpt lat="45.93244" lon="6.39256">
        <ele>1313</ele>
        <time>2026-08-19T10:31:49.344Z</time>
      </trkpt>
      <trkpt lat="45.93244" lon="6.39256">
        <ele>1312</ele>
        <time>2026-08-19T10:31:50.344Z</time>
      </trkpt>
      <trkpt lat="45.93244" lon="6.39257">
        <ele>1312</ele>
        <time>2026-08-19T10:31:51.344Z</time>
      </trkpt>
      <trkpt lat="45.93244" lon="6.39257">
        <ele>1312</ele>
        <time>2026-08-19T10:31:52.344Z</time>
      </trkpt>
      <trkpt lat="45.93244" lon="6.39258">
        <ele>1312</ele>
        <time>2026-08-19T10:31:53.344Z</time>
      </trkpt>
      <trkpt lat="45.93244" lon="6.39259">
        <ele>1312</ele>
        <time>2026-08-19T10:31:54.344Z</time>
      </trkpt>
      <trkpt lat="45.93245" lon="6.3926">
        <ele>1311</ele>
        <time>2026-08-19T10:31:55.344Z</time>
      </trkpt>
      <trkpt lat="45.93244" lon="6.3926">
        <ele>1311</ele>
        <time>2026-08-19T10:31:56.344Z</time>
      </trkpt>
      <trkpt lat="45.93245" lon="6.3926">
        <ele>1311</ele>
        <time>2026-08-19T10:31:57.344Z</time>
      </trkpt>
      <trkpt lat="45.93244" lon="6.39261">
        <ele>1311</ele>
        <time>2026-08-19T10:31:58.344Z</time>
      </trkpt>
      <trkpt lat="45.93244" lon="6.39263">
        <ele>1311</ele>
        <time>2026-08-19T10:31:59.344Z</time>
      </trkpt>
      <trkpt lat="45.93244" lon="6.39263">
        <ele>1310</ele>
        <time>2026-08-19T10:32:00.344Z</time>
      </trkpt>
      <trkpt lat="45.93244" lon="6.39264">
        <ele>1310</ele>
        <time>2026-08-19T10:32:01.344Z</time>
      </trkpt>
      <trkpt lat="45.93243" lon="6.39265">
        <ele>1310</ele>
        <time>2026-08-19T10:32:02.344Z</time>
      </trkpt>
      <trkpt lat="45.93243" lon="6.39266">
        <ele>1309</ele>
        <time>2026-08-19T10:32:03.344Z</time>
      </trkpt>
      <trkpt lat="45.93242" lon="6.39268">
        <ele>1308</ele>
        <time>2026-08-19T10:32:04.344Z</time>
      </trkpt>
      <trkpt lat="45.93241" lon="6.39268">
        <ele>1308</ele>
        <time>2026-08-19T10:32:05.344Z</time>
      </trkpt>
      <trkpt lat="45.9324" lon="6.39267">
        <ele>1307</ele>
        <time>2026-08-19T10:32:06.344Z</time>
      </trkpt>
      <trkpt lat="45.93238" lon="6.39267">
        <ele>1306</ele>
        <time>2026-08-19T10:32:07.345Z</time>
      </trkpt>
      <trkpt lat="45.93237" lon="6.39267">
        <ele>1306</ele>
        <time>2026-08-19T10:32:08.344Z</time>
      </trkpt>
      <trkpt lat="45.93236" lon="6.39267">
        <ele>1305</ele>
        <time>2026-08-19T10:32:09.344Z</time>
      </trkpt>
      <trkpt lat="45.93235" lon="6.39267">
        <ele>1305</ele>
        <time>2026-08-19T10:32:10.344Z</time>
      </trkpt>
      <trkpt lat="45.93234" lon="6.39267">
        <ele>1304</ele>
        <time>2026-08-19T10:32:11.344Z</time>
      </trkpt>
      <trkpt lat="45.93233" lon="6.39266">
        <ele>1304</ele>
        <time>2026-08-19T10:32:12.344Z</time>
      </trkpt>
      <trkpt lat="45.93232" lon="6.39265">
        <ele>1303</ele>
        <time>2026-08-19T10:32:13.344Z</time>
      </trkpt>
      <trkpt lat="45.93232" lon="6.39265">
        <ele>1302</ele>
        <time>2026-08-19T10:32:14.344Z</time>
      </trkpt>
      <trkpt lat="45.93231" lon="6.39265">
        <ele>1301</ele>
        <time>2026-08-19T10:32:15.344Z</time>
      </trkpt>
      <trkpt lat="45.9323" lon="6.39265">
        <ele>1301</ele>
        <time>2026-08-19T10:32:16.344Z</time>
      </trkpt>
      <trkpt lat="45.93229" lon="6.39266">
        <ele>1300</ele>
        <time>2026-08-19T10:32:17.344Z</time>
      </trkpt>
      <trkpt lat="45.93229" lon="6.39266">
        <ele>1299</ele>
        <time>2026-08-19T10:32:18.344Z</time>
      </trkpt>
      <trkpt lat="45.93228" lon="6.39266">
        <ele>1299</ele>
        <time>2026-08-19T10:32:19.344Z</time>
      </trkpt>
      <trkpt lat="45.93228" lon="6.39267">
        <ele>1298</ele>
        <time>2026-08-19T10:32:20.344Z</time>
      </trkpt>
      <trkpt lat="45.93227" lon="6.39268">
        <ele>1298</ele>
        <time>2026-08-19T10:32:21.344Z</time>
      </trkpt>
      <trkpt lat="45.93227" lon="6.39269">
        <ele>1297</ele>
        <time>2026-08-19T10:32:22.344Z</time>
      </trkpt>
      <trkpt lat="45.93226" lon="6.39269">
        <ele>1297</ele>
        <time>2026-08-19T10:32:23.344Z</time>
      </trkpt>
      <trkpt lat="45.93226" lon="6.39269">
        <ele>1296</ele>
        <time>2026-08-19T10:32:24.344Z</time>
      </trkpt>
      <trkpt lat="45.93226" lon="6.3927">
        <ele>1296</ele>
        <time>2026-08-19T10:32:25.345Z</time>
      </trkpt>
      <trkpt lat="45.93226" lon="6.3927">
        <ele>1296</ele>
        <time>2026-08-19T10:32:26.344Z</time>
      </trkpt>
      <trkpt lat="45.93225" lon="6.3927">
        <ele>1296</ele>
        <time>2026-08-19T10:32:27.344Z</time>
      </trkpt>
      <trkpt lat="45.93224" lon="6.39271">
        <ele>1296</ele>
        <time>2026-08-19T10:32:28.344Z</time>
      </trkpt>
      <trkpt lat="45.93224" lon="6.39271">
        <ele>1296</ele>
        <time>2026-08-19T10:32:29.344Z</time>
      </trkpt>
      <trkpt lat="45.93222" lon="6.39271">
        <ele>1295</ele>
        <time>2026-08-19T10:32:30.344Z</time>
      </trkpt>
      <trkpt lat="45.93221" lon="6.39271">
        <ele>1295</ele>
        <time>2026-08-19T10:32:31.344Z</time>
      </trkpt>
      <trkpt lat="45.9322" lon="6.39271">
        <ele>1295</ele>
        <time>2026-08-19T10:32:32.344Z</time>
      </trkpt>
      <trkpt lat="45.93219" lon="6.39271">
        <ele>1294</ele>
        <time>2026-08-19T10:32:33.344Z</time>
      </trkpt>
      <trkpt lat="45.93218" lon="6.39271">
        <ele>1294</ele>
        <time>2026-08-19T10:32:34.344Z</time>
      </trkpt>
      <trkpt lat="45.93217" lon="6.39271">
        <ele>1293</ele>
        <time>2026-08-19T10:32:35.344Z</time>
      </trkpt>
      <trkpt lat="45.93216" lon="6.39271">
        <ele>1292</ele>
        <time>2026-08-19T10:32:36.345Z</time>
      </trkpt>
      <trkpt lat="45.93217" lon="6.39273">
        <ele>1292</ele>
        <time>2026-08-19T10:32:37.344Z</time>
      </trkpt>
      <trkpt lat="45.93217" lon="6.39274">
        <ele>1291</ele>
        <time>2026-08-19T10:32:38.344Z</time>
      </trkpt>
      <trkpt lat="45.93217" lon="6.39275">
        <ele>1291</ele>
        <time>2026-08-19T10:32:39.345Z</time>
      </trkpt>
      <trkpt lat="45.93218" lon="6.39276">
        <ele>1291</ele>
        <time>2026-08-19T10:32:40.344Z</time>
      </trkpt>
      <trkpt lat="45.93219" lon="6.39278">
        <ele>1290</ele>
        <time>2026-08-19T10:32:41.344Z</time>
      </trkpt>
      <trkpt lat="45.93219" lon="6.39279">
        <ele>1290</ele>
        <time>2026-08-19T10:32:42.344Z</time>
      </trkpt>
      <trkpt lat="45.93219" lon="6.3928">
        <ele>1290</ele>
        <time>2026-08-19T10:32:43.344Z</time>
      </trkpt>
      <trkpt lat="45.93219" lon="6.39281">
        <ele>1289</ele>
        <time>2026-08-19T10:32:44.344Z</time>
      </trkpt>
      <trkpt lat="45.93219" lon="6.39282">
        <ele>1289</ele>
        <time>2026-08-19T10:32:45.344Z</time>
      </trkpt>
      <trkpt lat="45.93219" lon="6.39284">
        <ele>1289</ele>
        <time>2026-08-19T10:32:46.344Z</time>
      </trkpt>
      <trkpt lat="45.93219" lon="6.39284">
        <ele>1288</ele>
        <time>2026-08-19T10:32:47.344Z</time>
      </trkpt>
      <trkpt lat="45.93219" lon="6.39286">
        <ele>1288</ele>
        <time>2026-08-19T10:32:48.345Z</time>
      </trkpt>
      <trkpt lat="45.93219" lon="6.39286">
        <ele>1287</ele>
        <time>2026-08-19T10:32:49.345Z</time>
      </trkpt>
      <trkpt lat="45.93219" lon="6.39287">
        <ele>1287</ele>
        <time>2026-08-19T10:32:50.344Z</time>
      </trkpt>
      <trkpt lat="45.93218" lon="6.39288">
        <ele>1287</ele>
        <time>2026-08-19T10:32:51.344Z</time>
      </trkpt>
      <trkpt lat="45.93218" lon="6.39289">
        <ele>1287</ele>
        <time>2026-08-19T10:32:52.345Z</time>
      </trkpt>
      <trkpt lat="45.93219" lon="6.39289">
        <ele>1286</ele>
        <time>2026-08-19T10:32:53.344Z</time>
      </trkpt>
      <trkpt lat="45.93219" lon="6.3929">
        <ele>1286</ele>
        <time>2026-08-19T10:32:54.344Z</time>
      </trkpt>
      <trkpt lat="45.93218" lon="6.39292">
        <ele>1285</ele>
        <time>2026-08-19T10:32:55.344Z</time>
      </trkpt>
      <trkpt lat="45.93217" lon="6.39292">
        <ele>1284</ele>
        <time>2026-08-19T10:32:56.344Z</time>
      </trkpt>
      <trkpt lat="45.93216" lon="6.39293">
        <ele>1284</ele>
        <time>2026-08-19T10:32:57.344Z</time>
      </trkpt>
      <trkpt lat="45.93215" lon="6.39294">
        <ele>1284</ele>
        <time>2026-08-19T10:32:58.344Z</time>
      </trkpt>
      <trkpt lat="45.93215" lon="6.39295">
        <ele>1283</ele>
        <time>2026-08-19T10:32:59.344Z</time>
      </trkpt>
      <trkpt lat="45.93214" lon="6.39295">
        <ele>1283</ele>
        <time>2026-08-19T10:33:00.344Z</time>
      </trkpt>
      <trkpt lat="45.93214" lon="6.39296">
        <ele>1283</ele>
        <time>2026-08-19T10:33:01.344Z</time>
      </trkpt>
      <trkpt lat="45.93214" lon="6.39297">
        <ele>1282</ele>
        <time>2026-08-19T10:33:02.344Z</time>
      </trkpt>
      <trkpt lat="45.93214" lon="6.39297">
        <ele>1282</ele>
        <time>2026-08-19T10:33:03.344Z</time>
      </trkpt>
      <trkpt lat="45.93213" lon="6.39298">
        <ele>1282</ele>
        <time>2026-08-19T10:33:04.344Z</time>
      </trkpt>
      <trkpt lat="45.93213" lon="6.39299">
        <ele>1282</ele>
        <time>2026-08-19T10:33:05.344Z</time>
      </trkpt>
      <trkpt lat="45.93212" lon="6.393">
        <ele>1282</ele>
        <time>2026-08-19T10:33:06.344Z</time>
      </trkpt>
      <trkpt lat="45.93211" lon="6.39301">
        <ele>1282</ele>
        <time>2026-08-19T10:33:07.344Z</time>
      </trkpt>
      <trkpt lat="45.93211" lon="6.39301">
        <ele>1281</ele>
        <time>2026-08-19T10:33:08.344Z</time>
      </trkpt>
      <trkpt lat="45.9321" lon="6.39302">
        <ele>1280</ele>
        <time>2026-08-19T10:33:09.344Z</time>
      </trkpt>
      <trkpt lat="45.93209" lon="6.39303">
        <ele>1280</ele>
        <time>2026-08-19T10:33:10.344Z</time>
      </trkpt>
      <trkpt lat="45.93208" lon="6.39303">
        <ele>1279</ele>
        <time>2026-08-19T10:33:11.344Z</time>
      </trkpt>
      <trkpt lat="45.93207" lon="6.39303">
        <ele>1278</ele>
        <time>2026-08-19T10:33:12.344Z</time>
      </trkpt>
      <trkpt lat="45.93206" lon="6.39303">
        <ele>1278</ele>
        <time>2026-08-19T10:33:13.344Z</time>
      </trkpt>
      <trkpt lat="45.93205" lon="6.39303">
        <ele>1277</ele>
        <time>2026-08-19T10:33:14.344Z</time>
      </trkpt>
      <trkpt lat="45.93204" lon="6.39303">
        <ele>1277</ele>
        <time>2026-08-19T10:33:15.344Z</time>
      </trkpt>
      <trkpt lat="45.93203" lon="6.39304">
        <ele>1277</ele>
        <time>2026-08-19T10:33:16.344Z</time>
      </trkpt>
      <trkpt lat="45.93202" lon="6.39304">
        <ele>1277</ele>
        <time>2026-08-19T10:33:17.344Z</time>
      </trkpt>
      <trkpt lat="45.93201" lon="6.39305">
        <ele>1276</ele>
        <time>2026-08-19T10:33:18.344Z</time>
      </trkpt>
      <trkpt lat="45.932" lon="6.39305">
        <ele>1275</ele>
        <time>2026-08-19T10:33:19.344Z</time>
      </trkpt>
      <trkpt lat="45.93199" lon="6.39305">
        <ele>1275</ele>
        <time>2026-08-19T10:33:20.344Z</time>
      </trkpt>
      <trkpt lat="45.93198" lon="6.39305">
        <ele>1274</ele>
        <time>2026-08-19T10:33:21.344Z</time>
      </trkpt>
      <trkpt lat="45.93197" lon="6.39305">
        <ele>1274</ele>
        <time>2026-08-19T10:33:22.344Z</time>
      </trkpt>
      <trkpt lat="45.93197" lon="6.39305">
        <ele>1273</ele>
        <time>2026-08-19T10:33:23.344Z</time>
      </trkpt>
      <trkpt lat="45.93197" lon="6.39306">
        <ele>1272</ele>
        <time>2026-08-19T10:33:24.344Z</time>
      </trkpt>
      <trkpt lat="45.93196" lon="6.39306">
        <ele>1272</ele>
        <time>2026-08-19T10:33:25.344Z</time>
      </trkpt>
      <trkpt lat="45.93195" lon="6.39306">
        <ele>1271</ele>
        <time>2026-08-19T10:33:26.344Z</time>
      </trkpt>
      <trkpt lat="45.93194" lon="6.39307">
        <ele>1270</ele>
        <time>2026-08-19T10:33:27.344Z</time>
      </trkpt>
      <trkpt lat="45.93193" lon="6.39307">
        <ele>1270</ele>
        <time>2026-08-19T10:33:28.344Z</time>
      </trkpt>
      <trkpt lat="45.93193" lon="6.39308">
        <ele>1269</ele>
        <time>2026-08-19T10:33:29.344Z</time>
      </trkpt>
      <trkpt lat="45.93192" lon="6.39308">
        <ele>1269</ele>
        <time>2026-08-19T10:33:30.344Z</time>
      </trkpt>
      <trkpt lat="45.93191" lon="6.39309">
        <ele>1268</ele>
        <time>2026-08-19T10:33:31.344Z</time>
      </trkpt>
      <trkpt lat="45.93191" lon="6.3931">
        <ele>1268</ele>
        <time>2026-08-19T10:33:32.344Z</time>
      </trkpt>
      <trkpt lat="45.9319" lon="6.39311">
        <ele>1268</ele>
        <time>2026-08-19T10:33:33.344Z</time>
      </trkpt>
      <trkpt lat="45.93189" lon="6.39311">
        <ele>1268</ele>
        <time>2026-08-19T10:33:34.344Z</time>
      </trkpt>
      <trkpt lat="45.93188" lon="6.39312">
        <ele>1268</ele>
        <time>2026-08-19T10:33:35.344Z</time>
      </trkpt>
      <trkpt lat="45.93188" lon="6.39313">
        <ele>1268</ele>
        <time>2026-08-19T10:33:36.344Z</time>
      </trkpt>
      <trkpt lat="45.93187" lon="6.39313">
        <ele>1268</ele>
        <time>2026-08-19T10:33:37.344Z</time>
      </trkpt>
      <trkpt lat="45.93186" lon="6.39313">
        <ele>1267</ele>
        <time>2026-08-19T10:33:38.344Z</time>
      </trkpt>
      <trkpt lat="45.93186" lon="6.39313">
        <ele>1266</ele>
        <time>2026-08-19T10:33:39.344Z</time>
      </trkpt>
      <trkpt lat="45.93185" lon="6.39313">
        <ele>1265</ele>
        <time>2026-08-19T10:33:40.344Z</time>
      </trkpt>
      <trkpt lat="45.93185" lon="6.39313">
        <ele>1264</ele>
        <time>2026-08-19T10:33:41.344Z</time>
      </trkpt>
      <trkpt lat="45.93184" lon="6.39312">
        <ele>1264</ele>
        <time>2026-08-19T10:33:42.344Z</time>
      </trkpt>
      <trkpt lat="45.93183" lon="6.39312">
        <ele>1263</ele>
        <time>2026-08-19T10:33:43.344Z</time>
      </trkpt>
      <trkpt lat="45.93182" lon="6.39313">
        <ele>1262</ele>
        <time>2026-08-19T10:33:44.344Z</time>
      </trkpt>
      <trkpt lat="45.9318" lon="6.39313">
        <ele>1262</ele>
        <time>2026-08-19T10:33:45.345Z</time>
      </trkpt>
      <trkpt lat="45.93179" lon="6.39313">
        <ele>1262</ele>
        <time>2026-08-19T10:33:46.344Z</time>
      </trkpt>
      <trkpt lat="45.93178" lon="6.39314">
        <ele>1261</ele>
        <time>2026-08-19T10:33:47.344Z</time>
      </trkpt>
      <trkpt lat="45.93177" lon="6.39314">
        <ele>1261</ele>
        <time>2026-08-19T10:33:48.344Z</time>
      </trkpt>
      <trkpt lat="45.93177" lon="6.39313">
        <ele>1261</ele>
        <time>2026-08-19T10:33:49.344Z</time>
      </trkpt>
      <trkpt lat="45.93177" lon="6.39313">
        <ele>1261</ele>
        <time>2026-08-19T10:33:50.344Z</time>
      </trkpt>
      <trkpt lat="45.93177" lon="6.39313">
        <ele>1260</ele>
        <time>2026-08-19T10:33:51.344Z</time>
      </trkpt>
      <trkpt lat="45.93176" lon="6.39312">
        <ele>1260</ele>
        <time>2026-08-19T10:33:52.344Z</time>
      </trkpt>
      <trkpt lat="45.93176" lon="6.39312">
        <ele>1260</ele>
        <time>2026-08-19T10:33:53.344Z</time>
      </trkpt>
      <trkpt lat="45.93175" lon="6.39312">
        <ele>1260</ele>
        <time>2026-08-19T10:33:54.344Z</time>
      </trkpt>
      <trkpt lat="45.93174" lon="6.39312">
        <ele>1259</ele>
        <time>2026-08-19T10:33:55.344Z</time>
      </trkpt>
      <trkpt lat="45.93173" lon="6.39311">
        <ele>1259</ele>
        <time>2026-08-19T10:33:56.344Z</time>
      </trkpt>
      <trkpt lat="45.93172" lon="6.39311">
        <ele>1259</ele>
        <time>2026-08-19T10:33:57.344Z</time>
      </trkpt>
      <trkpt lat="45.93171" lon="6.3931">
        <ele>1259</ele>
        <time>2026-08-19T10:33:58.344Z</time>
      </trkpt>
      <trkpt lat="45.9317" lon="6.3931">
        <ele>1259</ele>
        <time>2026-08-19T10:33:59.344Z</time>
      </trkpt>
      <trkpt lat="45.9317" lon="6.3931">
        <ele>1258</ele>
        <time>2026-08-19T10:34:00.344Z</time>
      </trkpt>
      <trkpt lat="45.93169" lon="6.39309">
        <ele>1258</ele>
        <time>2026-08-19T10:34:01.344Z</time>
      </trkpt>
      <trkpt lat="45.93168" lon="6.39309">
        <ele>1257</ele>
        <time>2026-08-19T10:34:02.344Z</time>
      </trkpt>
      <trkpt lat="45.93168" lon="6.39308">
        <ele>1257</ele>
        <time>2026-08-19T10:34:03.344Z</time>
      </trkpt>
      <trkpt lat="45.93167" lon="6.39308">
        <ele>1256</ele>
        <time>2026-08-19T10:34:04.345Z</time>
      </trkpt>
      <trkpt lat="45.93167" lon="6.39308">
        <ele>1256</ele>
        <time>2026-08-19T10:34:05.344Z</time>
      </trkpt>
      <trkpt lat="45.93166" lon="6.39308">
        <ele>1256</ele>
        <time>2026-08-19T10:34:06.344Z</time>
      </trkpt>
      <trkpt lat="45.93166" lon="6.39309">
        <ele>1255</ele>
        <time>2026-08-19T10:34:07.344Z</time>
      </trkpt>
      <trkpt lat="45.93166" lon="6.3931">
        <ele>1255</ele>
        <time>2026-08-19T10:34:08.344Z</time>
      </trkpt>
      <trkpt lat="45.93166" lon="6.3931">
        <ele>1255</ele>
        <time>2026-08-19T10:34:09.344Z</time>
      </trkpt>
      <trkpt lat="45.93165" lon="6.39309">
        <ele>1255</ele>
        <time>2026-08-19T10:34:10.344Z</time>
      </trkpt>
      <trkpt lat="45.93166" lon="6.39309">
        <ele>1254</ele>
        <time>2026-08-19T10:34:11.344Z</time>
      </trkpt>
      <trkpt lat="45.93166" lon="6.39309">
        <ele>1254</ele>
        <time>2026-08-19T10:34:12.344Z</time>
      </trkpt>
      <trkpt lat="45.93166" lon="6.39309">
        <ele>1254</ele>
        <time>2026-08-19T10:34:13.344Z</time>
      </trkpt>
      <trkpt lat="45.93166" lon="6.39309">
        <ele>1254</ele>
        <time>2026-08-19T10:34:14.344Z</time>
      </trkpt>
      <trkpt lat="45.93166" lon="6.39309">
        <ele>1254</ele>
        <time>2026-08-19T10:34:15.344Z</time>
      </trkpt>
      <trkpt lat="45.93166" lon="6.3931">
        <ele>1254</ele>
        <time>2026-08-19T10:34:16.344Z</time>
      </trkpt>
      <trkpt lat="45.93165" lon="6.3931">
        <ele>1254</ele>
        <time>2026-08-19T10:34:17.344Z</time>
      </trkpt>
      <trkpt lat="45.93165" lon="6.3931">
        <ele>1253</ele>
        <time>2026-08-19T10:34:18.344Z</time>
      </trkpt>
      <trkpt lat="45.93165" lon="6.3931">
        <ele>1253</ele>
        <time>2026-08-19T10:34:19.344Z</time>
      </trkpt>
      <trkpt lat="45.93165" lon="6.3931">
        <ele>1253</ele>
        <time>2026-08-19T10:34:20.344Z</time>
      </trkpt>
      <trkpt lat="45.93165" lon="6.39311">
        <ele>1252</ele>
        <time>2026-08-19T10:34:21.344Z</time>
      </trkpt>
      <trkpt lat="45.93165" lon="6.39311">
        <ele>1252</ele>
        <time>2026-08-19T10:34:22.344Z</time>
      </trkpt>
      <trkpt lat="45.93165" lon="6.39311">
        <ele>1252</ele>
        <time>2026-08-19T10:34:23.344Z</time>
      </trkpt>
      <trkpt lat="45.93165" lon="6.39312">
        <ele>1252</ele>
        <time>2026-08-19T10:34:24.344Z</time>
      </trkpt>
      <trkpt lat="45.93165" lon="6.39312">
        <ele>1252</ele>
        <time>2026-08-19T10:34:25.344Z</time>
      </trkpt>
      <trkpt lat="45.93165" lon="6.39313">
        <ele>1252</ele>
        <time>2026-08-19T10:34:26.344Z</time>
      </trkpt>
      <trkpt lat="45.93165" lon="6.39313">
        <ele>1252</ele>
        <time>2026-08-19T10:34:27.344Z</time>
      </trkpt>
      <trkpt lat="45.93165" lon="6.39313">
        <ele>1252</ele>
        <time>2026-08-19T10:34:28.344Z</time>
      </trkpt>
      <trkpt lat="45.93165" lon="6.39314">
        <ele>1252</ele>
        <time>2026-08-19T10:34:29.344Z</time>
      </trkpt>
      <trkpt lat="45.93165" lon="6.39315">
        <ele>1252</ele>
        <time>2026-08-19T10:34:30.344Z</time>
      </trkpt>
      <trkpt lat="45.93165" lon="6.39316">
        <ele>1251</ele>
        <time>2026-08-19T10:34:31.345Z</time>
      </trkpt>
      <trkpt lat="45.93165" lon="6.39317">
        <ele>1251</ele>
        <time>2026-08-19T10:34:32.344Z</time>
      </trkpt>
      <trkpt lat="45.93165" lon="6.39318">
        <ele>1251</ele>
        <time>2026-08-19T10:34:33.344Z</time>
      </trkpt>
      <trkpt lat="45.93164" lon="6.39318">
        <ele>1251</ele>
        <time>2026-08-19T10:34:34.344Z</time>
      </trkpt>
      <trkpt lat="45.93163" lon="6.39319">
        <ele>1250</ele>
        <time>2026-08-19T10:34:35.344Z</time>
      </trkpt>
      <trkpt lat="45.93162" lon="6.3932">
        <ele>1250</ele>
        <time>2026-08-19T10:34:36.344Z</time>
      </trkpt>
      <trkpt lat="45.93161" lon="6.39321">
        <ele>1251</ele>
        <time>2026-08-19T10:34:37.344Z</time>
      </trkpt>
      <trkpt lat="45.93161" lon="6.39321">
        <ele>1251</ele>
        <time>2026-08-19T10:34:38.344Z</time>
      </trkpt>
      <trkpt lat="45.9316" lon="6.39321">
        <ele>1250</ele>
        <time>2026-08-19T10:34:39.344Z</time>
      </trkpt>
      <trkpt lat="45.93159" lon="6.39321">
        <ele>1250</ele>
        <time>2026-08-19T10:34:40.344Z</time>
      </trkpt>
      <trkpt lat="45.93159" lon="6.39321">
        <ele>1249</ele>
        <time>2026-08-19T10:34:41.344Z</time>
      </trkpt>
      <trkpt lat="45.93159" lon="6.39322">
        <ele>1249</ele>
        <time>2026-08-19T10:34:42.344Z</time>
      </trkpt>
      <trkpt lat="45.93158" lon="6.39322">
        <ele>1248</ele>
        <time>2026-08-19T10:34:43.344Z</time>
      </trkpt>
      <trkpt lat="45.93157" lon="6.39322">
        <ele>1248</ele>
        <time>2026-08-19T10:34:44.345Z</time>
      </trkpt>
      <trkpt lat="45.93156" lon="6.39323">
        <ele>1247</ele>
        <time>2026-08-19T10:34:45.344Z</time>
      </trkpt>
      <trkpt lat="45.93156" lon="6.39323">
        <ele>1247</ele>
        <time>2026-08-19T10:34:46.344Z</time>
      </trkpt>
      <trkpt lat="45.93155" lon="6.39324">
        <ele>1246</ele>
        <time>2026-08-19T10:34:47.344Z</time>
      </trkpt>
      <trkpt lat="45.93154" lon="6.39324">
        <ele>1246</ele>
        <time>2026-08-19T10:34:48.345Z</time>
      </trkpt>
      <trkpt lat="45.93152" lon="6.39324">
        <ele>1246</ele>
        <time>2026-08-19T10:34:49.344Z</time>
      </trkpt>
      <trkpt lat="45.93151" lon="6.39324">
        <ele>1246</ele>
        <time>2026-08-19T10:34:50.344Z</time>
      </trkpt>
      <trkpt lat="45.93151" lon="6.39324">
        <ele>1245</ele>
        <time>2026-08-19T10:34:51.344Z</time>
      </trkpt>
      <trkpt lat="45.9315" lon="6.39324">
        <ele>1245</ele>
        <time>2026-08-19T10:34:52.344Z</time>
      </trkpt>
      <trkpt lat="45.93149" lon="6.39324">
        <ele>1245</ele>
        <time>2026-08-19T10:34:53.344Z</time>
      </trkpt>
      <trkpt lat="45.93147" lon="6.39325">
        <ele>1245</ele>
        <time>2026-08-19T10:34:54.345Z</time>
      </trkpt>
      <trkpt lat="45.93146" lon="6.39326">
        <ele>1244</ele>
        <time>2026-08-19T10:34:55.344Z</time>
      </trkpt>
      <trkpt lat="45.93145" lon="6.39326">
        <ele>1244</ele>
        <time>2026-08-19T10:34:56.344Z</time>
      </trkpt>
      <trkpt lat="45.93144" lon="6.39326">
        <ele>1244</ele>
        <time>2026-08-19T10:34:57.344Z</time>
      </trkpt>
      <trkpt lat="45.93143" lon="6.39326">
        <ele>1244</ele>
        <time>2026-08-19T10:34:58.344Z</time>
      </trkpt>
      <trkpt lat="45.93142" lon="6.39326">
        <ele>1245</ele>
        <time>2026-08-19T10:34:59.344Z</time>
      </trkpt>
      <trkpt lat="45.93141" lon="6.39327">
        <ele>1245</ele>
        <time>2026-08-19T10:35:00.344Z</time>
      </trkpt>
      <trkpt lat="45.9314" lon="6.39327">
        <ele>1245</ele>
        <time>2026-08-19T10:35:01.344Z</time>
      </trkpt>
      <trkpt lat="45.93139" lon="6.39326">
        <ele>1245</ele>
        <time>2026-08-19T10:35:02.344Z</time>
      </trkpt>
      <trkpt lat="45.93138" lon="6.39327">
        <ele>1245</ele>
        <time>2026-08-19T10:35:03.344Z</time>
      </trkpt>
      <trkpt lat="45.93137" lon="6.39327">
        <ele>1245</ele>
        <time>2026-08-19T10:35:04.344Z</time>
      </trkpt>
      <trkpt lat="45.93137" lon="6.39327">
        <ele>1245</ele>
        <time>2026-08-19T10:35:05.344Z</time>
      </trkpt>
      <trkpt lat="45.93136" lon="6.39327">
        <ele>1245</ele>
        <time>2026-08-19T10:35:06.344Z</time>
      </trkpt>
      <trkpt lat="45.93135" lon="6.39328">
        <ele>1245</ele>
        <time>2026-08-19T10:35:07.344Z</time>
      </trkpt>
      <trkpt lat="45.93135" lon="6.39328">
        <ele>1245</ele>
        <time>2026-08-19T10:35:08.344Z</time>
      </trkpt>
      <trkpt lat="45.93134" lon="6.39328">
        <ele>1244</ele>
        <time>2026-08-19T10:35:09.345Z</time>
      </trkpt>
      <trkpt lat="45.93133" lon="6.39328">
        <ele>1244</ele>
        <time>2026-08-19T10:35:10.344Z</time>
      </trkpt>
      <trkpt lat="45.93132" lon="6.39328">
        <ele>1243</ele>
        <time>2026-08-19T10:35:11.344Z</time>
      </trkpt>
      <trkpt lat="45.93131" lon="6.39328">
        <ele>1242</ele>
        <time>2026-08-19T10:35:12.344Z</time>
      </trkpt>
      <trkpt lat="45.93129" lon="6.39328">
        <ele>1242</ele>
        <time>2026-08-19T10:35:13.344Z</time>
      </trkpt>
      <trkpt lat="45.93128" lon="6.39327">
        <ele>1241</ele>
        <time>2026-08-19T10:35:14.344Z</time>
      </trkpt>
      <trkpt lat="45.93126" lon="6.39327">
        <ele>1241</ele>
        <time>2026-08-19T10:35:15.344Z</time>
      </trkpt>
      <trkpt lat="45.93124" lon="6.39326">
        <ele>1240</ele>
        <time>2026-08-19T10:35:16.344Z</time>
      </trkpt>
      <trkpt lat="45.93123" lon="6.39326">
        <ele>1240</ele>
        <time>2026-08-19T10:35:17.344Z</time>
      </trkpt>
      <trkpt lat="45.93122" lon="6.39327">
        <ele>1240</ele>
        <time>2026-08-19T10:35:18.344Z</time>
      </trkpt>
      <trkpt lat="45.93121" lon="6.39327">
        <ele>1239</ele>
        <time>2026-08-19T10:35:19.344Z</time>
      </trkpt>
      <trkpt lat="45.9312" lon="6.39328">
        <ele>1239</ele>
        <time>2026-08-19T10:35:20.344Z</time>
      </trkpt>
      <trkpt lat="45.93119" lon="6.39327">
        <ele>1239</ele>
        <time>2026-08-19T10:35:21.344Z</time>
      </trkpt>
      <trkpt lat="45.93119" lon="6.39327">
        <ele>1239</ele>
        <time>2026-08-19T10:35:22.344Z</time>
      </trkpt>
      <trkpt lat="45.93119" lon="6.39327">
        <ele>1238</ele>
        <time>2026-08-19T10:35:23.344Z</time>
      </trkpt>
      <trkpt lat="45.93118" lon="6.39327">
        <ele>1238</ele>
        <time>2026-08-19T10:35:24.344Z</time>
      </trkpt>
      <trkpt lat="45.93117" lon="6.39328">
        <ele>1237</ele>
        <time>2026-08-19T10:35:25.344Z</time>
      </trkpt>
      <trkpt lat="45.93116" lon="6.39328">
        <ele>1237</ele>
        <time>2026-08-19T10:35:26.344Z</time>
      </trkpt>
      <trkpt lat="45.93114" lon="6.39328">
        <ele>1236</ele>
        <time>2026-08-19T10:35:27.344Z</time>
      </trkpt>
      <trkpt lat="45.93112" lon="6.39327">
        <ele>1236</ele>
        <time>2026-08-19T10:35:28.344Z</time>
      </trkpt>
      <trkpt lat="45.93111" lon="6.39326">
        <ele>1235</ele>
        <time>2026-08-19T10:35:29.344Z</time>
      </trkpt>
      <trkpt lat="45.93109" lon="6.39326">
        <ele>1235</ele>
        <time>2026-08-19T10:35:30.344Z</time>
      </trkpt>
      <trkpt lat="45.93107" lon="6.39324">
        <ele>1234</ele>
        <time>2026-08-19T10:35:31.344Z</time>
      </trkpt>
      <trkpt lat="45.93104" lon="6.39323">
        <ele>1233</ele>
        <time>2026-08-19T10:35:32.344Z</time>
      </trkpt>
      <trkpt lat="45.93102" lon="6.39322">
        <ele>1232</ele>
        <time>2026-08-19T10:35:33.344Z</time>
      </trkpt>
      <trkpt lat="45.93099" lon="6.3932">
        <ele>1231</ele>
        <time>2026-08-19T10:35:34.344Z</time>
      </trkpt>
      <trkpt lat="45.93096" lon="6.39319">
        <ele>1230</ele>
        <time>2026-08-19T10:35:35.344Z</time>
      </trkpt>
      <trkpt lat="45.93094" lon="6.39317">
        <ele>1230</ele>
        <time>2026-08-19T10:35:36.344Z</time>
      </trkpt>
      <trkpt lat="45.93092" lon="6.39316">
        <ele>1229</ele>
        <time>2026-08-19T10:35:37.344Z</time>
      </trkpt>
      <trkpt lat="45.9309" lon="6.39315">
        <ele>1229</ele>
        <time>2026-08-19T10:35:38.344Z</time>
      </trkpt>
      <trkpt lat="45.93088" lon="6.39314">
        <ele>1228</ele>
        <time>2026-08-19T10:35:39.345Z</time>
      </trkpt>
      <trkpt lat="45.93086" lon="6.39313">
        <ele>1228</ele>
        <time>2026-08-19T10:35:40.344Z</time>
      </trkpt>
      <trkpt lat="45.93084" lon="6.39311">
        <ele>1228</ele>
        <time>2026-08-19T10:35:41.344Z</time>
      </trkpt>
      <trkpt lat="45.93082" lon="6.3931">
        <ele>1228</ele>
        <time>2026-08-19T10:35:42.344Z</time>
      </trkpt>
      <trkpt lat="45.9308" lon="6.39309">
        <ele>1227</ele>
        <time>2026-08-19T10:35:43.344Z</time>
      </trkpt>
      <trkpt lat="45.93078" lon="6.39307">
        <ele>1227</ele>
        <time>2026-08-19T10:35:44.344Z</time>
      </trkpt>
      <trkpt lat="45.93076" lon="6.39306">
        <ele>1226</ele>
        <time>2026-08-19T10:35:45.344Z</time>
      </trkpt>
      <trkpt lat="45.93074" lon="6.39304">
        <ele>1226</ele>
        <time>2026-08-19T10:35:46.344Z</time>
      </trkpt>
      <trkpt lat="45.93072" lon="6.39302">
        <ele>1225</ele>
        <time>2026-08-19T10:35:47.344Z</time>
      </trkpt>
      <trkpt lat="45.93071" lon="6.39301">
        <ele>1225</ele>
        <time>2026-08-19T10:35:48.344Z</time>
      </trkpt>
      <trkpt lat="45.93069" lon="6.39299">
        <ele>1225</ele>
        <time>2026-08-19T10:35:49.344Z</time>
      </trkpt>
      <trkpt lat="45.93067" lon="6.39298">
        <ele>1224</ele>
        <time>2026-08-19T10:35:50.344Z</time>
      </trkpt>
      <trkpt lat="45.93066" lon="6.39298">
        <ele>1224</ele>
        <time>2026-08-19T10:35:51.344Z</time>
      </trkpt>
      <trkpt lat="45.93064" lon="6.39297">
        <ele>1223</ele>
        <time>2026-08-19T10:35:52.344Z</time>
      </trkpt>
      <trkpt lat="45.93063" lon="6.39295">
        <ele>1223</ele>
        <time>2026-08-19T10:35:53.344Z</time>
      </trkpt>
      <trkpt lat="45.93062" lon="6.39295">
        <ele>1223</ele>
        <time>2026-08-19T10:35:54.344Z</time>
      </trkpt>
      <trkpt lat="45.93061" lon="6.39294">
        <ele>1222</ele>
        <time>2026-08-19T10:35:55.344Z</time>
      </trkpt>
      <trkpt lat="45.93059" lon="6.39294">
        <ele>1222</ele>
        <time>2026-08-19T10:35:56.344Z</time>
      </trkpt>
      <trkpt lat="45.93058" lon="6.39293">
        <ele>1221</ele>
        <time>2026-08-19T10:35:57.344Z</time>
      </trkpt>
      <trkpt lat="45.93057" lon="6.39292">
        <ele>1221</ele>
        <time>2026-08-19T10:35:58.344Z</time>
      </trkpt>
      <trkpt lat="45.93055" lon="6.39291">
        <ele>1220</ele>
        <time>2026-08-19T10:35:59.344Z</time>
      </trkpt>
      <trkpt lat="45.93054" lon="6.3929">
        <ele>1220</ele>
        <time>2026-08-19T10:36:00.344Z</time>
      </trkpt>
      <trkpt lat="45.93051" lon="6.39288">
        <ele>1220</ele>
        <time>2026-08-19T10:36:01.344Z</time>
      </trkpt>
      <trkpt lat="45.93049" lon="6.39286">
        <ele>1220</ele>
        <time>2026-08-19T10:36:02.344Z</time>
      </trkpt>
      <trkpt lat="45.93047" lon="6.39284">
        <ele>1220</ele>
        <time>2026-08-19T10:36:03.344Z</time>
      </trkpt>
      <trkpt lat="45.93045" lon="6.39281">
        <ele>1220</ele>
        <time>2026-08-19T10:36:04.344Z</time>
      </trkpt>
      <trkpt lat="45.93044" lon="6.3928">
        <ele>1220</ele>
        <time>2026-08-19T10:36:05.344Z</time>
      </trkpt>
      <trkpt lat="45.93043" lon="6.39278">
        <ele>1219</ele>
        <time>2026-08-19T10:36:06.344Z</time>
      </trkpt>
      <trkpt lat="45.93041" lon="6.39277">
        <ele>1219</ele>
        <time>2026-08-19T10:36:07.344Z</time>
      </trkpt>
      <trkpt lat="45.93039" lon="6.39276">
        <ele>1219</ele>
        <time>2026-08-19T10:36:08.344Z</time>
      </trkpt>
      <trkpt lat="45.93038" lon="6.39275">
        <ele>1219</ele>
        <time>2026-08-19T10:36:09.344Z</time>
      </trkpt>
      <trkpt lat="45.93036" lon="6.39274">
        <ele>1218</ele>
        <time>2026-08-19T10:36:10.344Z</time>
      </trkpt>
      <trkpt lat="45.93034" lon="6.39273">
        <ele>1218</ele>
        <time>2026-08-19T10:36:11.344Z</time>
      </trkpt>
      <trkpt lat="45.93032" lon="6.39272">
        <ele>1218</ele>
        <time>2026-08-19T10:36:12.344Z</time>
      </trkpt>
      <trkpt lat="45.93031" lon="6.39271">
        <ele>1218</ele>
        <time>2026-08-19T10:36:13.344Z</time>
      </trkpt>
      <trkpt lat="45.93029" lon="6.3927">
        <ele>1218</ele>
        <time>2026-08-19T10:36:14.344Z</time>
      </trkpt>
      <trkpt lat="45.93027" lon="6.39269">
        <ele>1218</ele>
        <time>2026-08-19T10:36:15.344Z</time>
      </trkpt>
      <trkpt lat="45.93026" lon="6.39269">
        <ele>1218</ele>
        <time>2026-08-19T10:36:16.344Z</time>
      </trkpt>
      <trkpt lat="45.93024" lon="6.39267">
        <ele>1218</ele>
        <time>2026-08-19T10:36:17.344Z</time>
      </trkpt>
      <trkpt lat="45.93022" lon="6.39266">
        <ele>1217</ele>
        <time>2026-08-19T10:36:18.344Z</time>
      </trkpt>
      <trkpt lat="45.93021" lon="6.39265">
        <ele>1217</ele>
        <time>2026-08-19T10:36:19.344Z</time>
      </trkpt>
      <trkpt lat="45.93019" lon="6.39264">
        <ele>1217</ele>
        <time>2026-08-19T10:36:20.344Z</time>
      </trkpt>
      <trkpt lat="45.93017" lon="6.39263">
        <ele>1217</ele>
        <time>2026-08-19T10:36:21.344Z</time>
      </trkpt>
      <trkpt lat="45.93016" lon="6.39262">
        <ele>1216</ele>
        <time>2026-08-19T10:36:22.344Z</time>
      </trkpt>
      <trkpt lat="45.93015" lon="6.3926">
        <ele>1216</ele>
        <time>2026-08-19T10:36:23.344Z</time>
      </trkpt>
      <trkpt lat="45.93014" lon="6.39259">
        <ele>1215</ele>
        <time>2026-08-19T10:36:24.344Z</time>
      </trkpt>
      <trkpt lat="45.93012" lon="6.39258">
        <ele>1214</ele>
        <time>2026-08-19T10:36:25.344Z</time>
      </trkpt>
      <trkpt lat="45.93011" lon="6.39258">
        <ele>1214</ele>
        <time>2026-08-19T10:36:26.344Z</time>
      </trkpt>
      <trkpt lat="45.93009" lon="6.39257">
        <ele>1213</ele>
        <time>2026-08-19T10:36:27.344Z</time>
      </trkpt>
      <trkpt lat="45.93007" lon="6.39256">
        <ele>1212</ele>
        <time>2026-08-19T10:36:28.344Z</time>
      </trkpt>
      <trkpt lat="45.93004" lon="6.39255">
        <ele>1212</ele>
        <time>2026-08-19T10:36:29.344Z</time>
      </trkpt>
      <trkpt lat="45.93002" lon="6.39253">
        <ele>1211</ele>
        <time>2026-08-19T10:36:30.344Z</time>
      </trkpt>
      <trkpt lat="45.93" lon="6.39252">
        <ele>1210</ele>
        <time>2026-08-19T10:36:31.344Z</time>
      </trkpt>
      <trkpt lat="45.92997" lon="6.3925">
        <ele>1209</ele>
        <time>2026-08-19T10:36:32.344Z</time>
      </trkpt>
      <trkpt lat="45.92994" lon="6.39249">
        <ele>1208</ele>
        <time>2026-08-19T10:36:33.344Z</time>
      </trkpt>
      <trkpt lat="45.92992" lon="6.39247">
        <ele>1207</ele>
        <time>2026-08-19T10:36:34.344Z</time>
      </trkpt>
      <trkpt lat="45.92989" lon="6.39246">
        <ele>1206</ele>
        <time>2026-08-19T10:36:35.344Z</time>
      </trkpt>
      <trkpt lat="45.92986" lon="6.39246">
        <ele>1206</ele>
        <time>2026-08-19T10:36:36.344Z</time>
      </trkpt>
      <trkpt lat="45.92984" lon="6.39244">
        <ele>1205</ele>
        <time>2026-08-19T10:36:37.344Z</time>
      </trkpt>
      <trkpt lat="45.92982" lon="6.39241">
        <ele>1204</ele>
        <time>2026-08-19T10:36:38.344Z</time>
      </trkpt>
      <trkpt lat="45.92981" lon="6.39239">
        <ele>1203</ele>
        <time>2026-08-19T10:36:39.344Z</time>
      </trkpt>
      <trkpt lat="45.92979" lon="6.39238">
        <ele>1203</ele>
        <time>2026-08-19T10:36:40.344Z</time>
      </trkpt>
      <trkpt lat="45.92977" lon="6.39237">
        <ele>1202</ele>
        <time>2026-08-19T10:36:41.344Z</time>
      </trkpt>
      <trkpt lat="45.92974" lon="6.39236">
        <ele>1201</ele>
        <time>2026-08-19T10:36:42.344Z</time>
      </trkpt>
      <trkpt lat="45.92972" lon="6.39235">
        <ele>1200</ele>
        <time>2026-08-19T10:36:43.344Z</time>
      </trkpt>
      <trkpt lat="45.9297" lon="6.39234">
        <ele>1199</ele>
        <time>2026-08-19T10:36:44.344Z</time>
      </trkpt>
      <trkpt lat="45.92968" lon="6.39233">
        <ele>1198</ele>
        <time>2026-08-19T10:36:45.344Z</time>
      </trkpt>
      <trkpt lat="45.92967" lon="6.39232">
        <ele>1197</ele>
        <time>2026-08-19T10:36:46.344Z</time>
      </trkpt>
      <trkpt lat="45.92965" lon="6.39232">
        <ele>1196</ele>
        <time>2026-08-19T10:36:47.344Z</time>
      </trkpt>
      <trkpt lat="45.92963" lon="6.39231">
        <ele>1195</ele>
        <time>2026-08-19T10:36:48.344Z</time>
      </trkpt>
      <trkpt lat="45.9296" lon="6.39231">
        <ele>1195</ele>
        <time>2026-08-19T10:36:49.344Z</time>
      </trkpt>
      <trkpt lat="45.92956" lon="6.39232">
        <ele>1194</ele>
        <time>2026-08-19T10:36:50.344Z</time>
      </trkpt>
      <trkpt lat="45.92953" lon="6.39232">
        <ele>1194</ele>
        <time>2026-08-19T10:36:51.344Z</time>
      </trkpt>
      <trkpt lat="45.92951" lon="6.39231">
        <ele>1194</ele>
        <time>2026-08-19T10:36:52.344Z</time>
      </trkpt>
      <trkpt lat="45.92949" lon="6.39229">
        <ele>1193</ele>
        <time>2026-08-19T10:36:53.344Z</time>
      </trkpt>
      <trkpt lat="45.92948" lon="6.39227">
        <ele>1193</ele>
        <time>2026-08-19T10:36:54.344Z</time>
      </trkpt>
      <trkpt lat="45.92946" lon="6.39226">
        <ele>1192</ele>
        <time>2026-08-19T10:36:55.344Z</time>
      </trkpt>
      <trkpt lat="45.92945" lon="6.39225">
        <ele>1192</ele>
        <time>2026-08-19T10:36:56.344Z</time>
      </trkpt>
      <trkpt lat="45.92943" lon="6.39223">
        <ele>1192</ele>
        <time>2026-08-19T10:36:57.344Z</time>
      </trkpt>
      <trkpt lat="45.92941" lon="6.39222">
        <ele>1191</ele>
        <time>2026-08-19T10:36:58.344Z</time>
      </trkpt>
      <trkpt lat="45.9294" lon="6.39221">
        <ele>1191</ele>
        <time>2026-08-19T10:36:59.344Z</time>
      </trkpt>
      <trkpt lat="45.92938" lon="6.3922">
        <ele>1190</ele>
        <time>2026-08-19T10:37:00.344Z</time>
      </trkpt>
      <trkpt lat="45.92937" lon="6.39219">
        <ele>1190</ele>
        <time>2026-08-19T10:37:01.344Z</time>
      </trkpt>
      <trkpt lat="45.92935" lon="6.39217">
        <ele>1190</ele>
        <time>2026-08-19T10:37:02.344Z</time>
      </trkpt>
      <trkpt lat="45.92933" lon="6.39216">
        <ele>1190</ele>
        <time>2026-08-19T10:37:03.344Z</time>
      </trkpt>
      <trkpt lat="45.92931" lon="6.39215">
        <ele>1190</ele>
        <time>2026-08-19T10:37:04.344Z</time>
      </trkpt>
      <trkpt lat="45.92929" lon="6.39213">
        <ele>1190</ele>
        <time>2026-08-19T10:37:05.344Z</time>
      </trkpt>
      <trkpt lat="45.92928" lon="6.39211">
        <ele>1189</ele>
        <time>2026-08-19T10:37:06.344Z</time>
      </trkpt>
      <trkpt lat="45.92927" lon="6.3921">
        <ele>1189</ele>
        <time>2026-08-19T10:37:07.344Z</time>
      </trkpt>
      <trkpt lat="45.92925" lon="6.39208">
        <ele>1189</ele>
        <time>2026-08-19T10:37:08.344Z</time>
      </trkpt>
      <trkpt lat="45.92924" lon="6.39207">
        <ele>1189</ele>
        <time>2026-08-19T10:37:09.344Z</time>
      </trkpt>
      <trkpt lat="45.92923" lon="6.39205">
        <ele>1188</ele>
        <time>2026-08-19T10:37:10.344Z</time>
      </trkpt>
      <trkpt lat="45.92921" lon="6.39204">
        <ele>1188</ele>
        <time>2026-08-19T10:37:11.344Z</time>
      </trkpt>
      <trkpt lat="45.92919" lon="6.39201">
        <ele>1188</ele>
        <time>2026-08-19T10:37:12.344Z</time>
      </trkpt>
      <trkpt lat="45.92917" lon="6.392">
        <ele>1188</ele>
        <time>2026-08-19T10:37:13.344Z</time>
      </trkpt>
      <trkpt lat="45.92915" lon="6.39198">
        <ele>1188</ele>
        <time>2026-08-19T10:37:14.344Z</time>
      </trkpt>
      <trkpt lat="45.92914" lon="6.39197">
        <ele>1188</ele>
        <time>2026-08-19T10:37:15.344Z</time>
      </trkpt>
      <trkpt lat="45.92913" lon="6.39196">
        <ele>1188</ele>
        <time>2026-08-19T10:37:16.344Z</time>
      </trkpt>
      <trkpt lat="45.92911" lon="6.39194">
        <ele>1188</ele>
        <time>2026-08-19T10:37:17.344Z</time>
      </trkpt>
      <trkpt lat="45.92909" lon="6.39192">
        <ele>1188</ele>
        <time>2026-08-19T10:37:18.344Z</time>
      </trkpt>
      <trkpt lat="45.92908" lon="6.39191">
        <ele>1187</ele>
        <time>2026-08-19T10:37:19.344Z</time>
      </trkpt>
      <trkpt lat="45.92906" lon="6.39189">
        <ele>1186</ele>
        <time>2026-08-19T10:37:20.344Z</time>
      </trkpt>
      <trkpt lat="45.92904" lon="6.39188">
        <ele>1186</ele>
        <time>2026-08-19T10:37:21.345Z</time>
      </trkpt>
      <trkpt lat="45.92903" lon="6.39186">
        <ele>1186</ele>
        <time>2026-08-19T10:37:22.344Z</time>
      </trkpt>
      <trkpt lat="45.92901" lon="6.39184">
        <ele>1185</ele>
        <time>2026-08-19T10:37:23.344Z</time>
      </trkpt>
      <trkpt lat="45.929" lon="6.39182">
        <ele>1185</ele>
        <time>2026-08-19T10:37:24.344Z</time>
      </trkpt>
      <trkpt lat="45.92898" lon="6.3918">
        <ele>1185</ele>
        <time>2026-08-19T10:37:25.344Z</time>
      </trkpt>
      <trkpt lat="45.92897" lon="6.39179">
        <ele>1185</ele>
        <time>2026-08-19T10:37:26.344Z</time>
      </trkpt>
      <trkpt lat="45.92895" lon="6.39179">
        <ele>1185</ele>
        <time>2026-08-19T10:37:27.344Z</time>
      </trkpt>
      <trkpt lat="45.92894" lon="6.39178">
        <ele>1185</ele>
        <time>2026-08-19T10:37:28.344Z</time>
      </trkpt>
      <trkpt lat="45.92892" lon="6.39178">
        <ele>1184</ele>
        <time>2026-08-19T10:37:29.344Z</time>
      </trkpt>
      <trkpt lat="45.9289" lon="6.39178">
        <ele>1184</ele>
        <time>2026-08-19T10:37:30.344Z</time>
      </trkpt>
      <trkpt lat="45.92889" lon="6.39178">
        <ele>1184</ele>
        <time>2026-08-19T10:37:31.344Z</time>
      </trkpt>
      <trkpt lat="45.92888" lon="6.39177">
        <ele>1183</ele>
        <time>2026-08-19T10:37:32.344Z</time>
      </trkpt>
      <trkpt lat="45.92887" lon="6.39176">
        <ele>1183</ele>
        <time>2026-08-19T10:37:33.344Z</time>
      </trkpt>
      <trkpt lat="45.92886" lon="6.39176">
        <ele>1183</ele>
        <time>2026-08-19T10:37:34.344Z</time>
      </trkpt>
      <trkpt lat="45.92884" lon="6.39174">
        <ele>1183</ele>
        <time>2026-08-19T10:37:35.344Z</time>
      </trkpt>
      <trkpt lat="45.92883" lon="6.39171">
        <ele>1183</ele>
        <time>2026-08-19T10:37:36.344Z</time>
      </trkpt>
      <trkpt lat="45.92881" lon="6.39169">
        <ele>1183</ele>
        <time>2026-08-19T10:37:37.344Z</time>
      </trkpt>
      <trkpt lat="45.9288" lon="6.39168">
        <ele>1183</ele>
        <time>2026-08-19T10:37:38.344Z</time>
      </trkpt>
      <trkpt lat="45.92878" lon="6.39167">
        <ele>1183</ele>
        <time>2026-08-19T10:37:39.344Z</time>
      </trkpt>
      <trkpt lat="45.92876" lon="6.39164">
        <ele>1182</ele>
        <time>2026-08-19T10:37:40.344Z</time>
      </trkpt>
      <trkpt lat="45.92874" lon="6.39163">
        <ele>1182</ele>
        <time>2026-08-19T10:37:41.344Z</time>
      </trkpt>
      <trkpt lat="45.92873" lon="6.39162">
        <ele>1182</ele>
        <time>2026-08-19T10:37:42.344Z</time>
      </trkpt>
      <trkpt lat="45.92871" lon="6.39161">
        <ele>1181</ele>
        <time>2026-08-19T10:37:43.344Z</time>
      </trkpt>
      <trkpt lat="45.92869" lon="6.3916">
        <ele>1181</ele>
        <time>2026-08-19T10:37:44.344Z</time>
      </trkpt>
      <trkpt lat="45.92867" lon="6.39159">
        <ele>1181</ele>
        <time>2026-08-19T10:37:45.344Z</time>
      </trkpt>
      <trkpt lat="45.92865" lon="6.39158">
        <ele>1181</ele>
        <time>2026-08-19T10:37:46.344Z</time>
      </trkpt>
      <trkpt lat="45.92864" lon="6.39157">
        <ele>1181</ele>
        <time>2026-08-19T10:37:47.344Z</time>
      </trkpt>
      <trkpt lat="45.92862" lon="6.39156">
        <ele>1180</ele>
        <time>2026-08-19T10:37:48.344Z</time>
      </trkpt>
      <trkpt lat="45.92861" lon="6.39155">
        <ele>1180</ele>
        <time>2026-08-19T10:37:49.345Z</time>
      </trkpt>
      <trkpt lat="45.92859" lon="6.39154">
        <ele>1179</ele>
        <time>2026-08-19T10:37:50.344Z</time>
      </trkpt>
      <trkpt lat="45.92858" lon="6.39154">
        <ele>1179</ele>
        <time>2026-08-19T10:37:51.344Z</time>
      </trkpt>
      <trkpt lat="45.92856" lon="6.39153">
        <ele>1178</ele>
        <time>2026-08-19T10:37:52.344Z</time>
      </trkpt>
      <trkpt lat="45.92854" lon="6.39153">
        <ele>1177</ele>
        <time>2026-08-19T10:37:53.344Z</time>
      </trkpt>
      <trkpt lat="45.92852" lon="6.39152">
        <ele>1177</ele>
        <time>2026-08-19T10:37:54.344Z</time>
      </trkpt>
      <trkpt lat="45.9285" lon="6.39151">
        <ele>1177</ele>
        <time>2026-08-19T10:37:55.344Z</time>
      </trkpt>
      <trkpt lat="45.92848" lon="6.39148">
        <ele>1177</ele>
        <time>2026-08-19T10:37:56.344Z</time>
      </trkpt>
      <trkpt lat="45.92847" lon="6.39146">
        <ele>1176</ele>
        <time>2026-08-19T10:37:57.344Z</time>
      </trkpt>
      <trkpt lat="45.92845" lon="6.39144">
        <ele>1175</ele>
        <time>2026-08-19T10:37:58.344Z</time>
      </trkpt>
      <trkpt lat="45.92843" lon="6.39141">
        <ele>1174</ele>
        <time>2026-08-19T10:37:59.345Z</time>
      </trkpt>
      <trkpt lat="45.9284" lon="6.39139">
        <ele>1173</ele>
        <time>2026-08-19T10:38:00.344Z</time>
      </trkpt>
      <trkpt lat="45.92838" lon="6.39137">
        <ele>1173</ele>
        <time>2026-08-19T10:38:01.344Z</time>
      </trkpt>
      <trkpt lat="45.92837" lon="6.39134">
        <ele>1172</ele>
        <time>2026-08-19T10:38:02.344Z</time>
      </trkpt>
      <trkpt lat="45.92836" lon="6.39132">
        <ele>1171</ele>
        <time>2026-08-19T10:38:03.344Z</time>
      </trkpt>
      <trkpt lat="45.92834" lon="6.39131">
        <ele>1171</ele>
        <time>2026-08-19T10:38:04.344Z</time>
      </trkpt>
      <trkpt lat="45.92832" lon="6.3913">
        <ele>1170</ele>
        <time>2026-08-19T10:38:05.344Z</time>
      </trkpt>
      <trkpt lat="45.92832" lon="6.39129">
        <ele>1170</ele>
        <time>2026-08-19T10:38:06.344Z</time>
      </trkpt>
      <trkpt lat="45.92832" lon="6.39128">
        <ele>1170</ele>
        <time>2026-08-19T10:38:07.344Z</time>
      </trkpt>
      <trkpt lat="45.92832" lon="6.39129">
        <ele>1170</ele>
        <time>2026-08-19T10:38:08.344Z</time>
      </trkpt>
      <trkpt lat="45.92833" lon="6.39129">
        <ele>1169</ele>
        <time>2026-08-19T10:38:09.344Z</time>
      </trkpt>
      <trkpt lat="45.92834" lon="6.39129">
        <ele>1169</ele>
        <time>2026-08-19T10:38:10.345Z</time>
      </trkpt>
      <trkpt lat="45.92834" lon="6.39129">
        <ele>1169</ele>
        <time>2026-08-19T10:38:11.344Z</time>
      </trkpt>
      <trkpt lat="45.92834" lon="6.39129">
        <ele>1168</ele>
        <time>2026-08-19T10:38:12.344Z</time>
      </trkpt>
      <trkpt lat="45.92835" lon="6.3913">
        <ele>1168</ele>
        <time>2026-08-19T10:38:13.344Z</time>
      </trkpt>
      <trkpt lat="45.92835" lon="6.39132">
        <ele>1168</ele>
        <time>2026-08-19T10:38:14.344Z</time>
      </trkpt>
      <trkpt lat="45.92836" lon="6.39133">
        <ele>1168</ele>
        <time>2026-08-19T10:38:15.344Z</time>
      </trkpt>
      <trkpt lat="45.92836" lon="6.39134">
        <ele>1167</ele>
        <time>2026-08-19T10:38:16.344Z</time>
      </trkpt>
      <trkpt lat="45.92837" lon="6.39136">
        <ele>1167</ele>
        <time>2026-08-19T10:38:17.344Z</time>
      </trkpt>
      <trkpt lat="45.92838" lon="6.39138">
        <ele>1167</ele>
        <time>2026-08-19T10:38:18.344Z</time>
      </trkpt>
      <trkpt lat="45.92838" lon="6.39139">
        <ele>1167</ele>
        <time>2026-08-19T10:38:19.344Z</time>
      </trkpt>
      <trkpt lat="45.92839" lon="6.3914">
        <ele>1166</ele>
        <time>2026-08-19T10:38:20.344Z</time>
      </trkpt>
      <trkpt lat="45.9284" lon="6.39141">
        <ele>1166</ele>
        <time>2026-08-19T10:38:21.344Z</time>
      </trkpt>
      <trkpt lat="45.9284" lon="6.39142">
        <ele>1166</ele>
        <time>2026-08-19T10:38:22.344Z</time>
      </trkpt>
      <trkpt lat="45.92839" lon="6.39144">
        <ele>1165</ele>
        <time>2026-08-19T10:38:23.344Z</time>
      </trkpt>
      <trkpt lat="45.92838" lon="6.39145">
        <ele>1165</ele>
        <time>2026-08-19T10:38:24.344Z</time>
      </trkpt>
      <trkpt lat="45.92837" lon="6.39146">
        <ele>1165</ele>
        <time>2026-08-19T10:38:25.344Z</time>
      </trkpt>
      <trkpt lat="45.92836" lon="6.39148">
        <ele>1164</ele>
        <time>2026-08-19T10:38:26.344Z</time>
      </trkpt>
      <trkpt lat="45.92836" lon="6.39149">
        <ele>1164</ele>
        <time>2026-08-19T10:38:27.344Z</time>
      </trkpt>
      <trkpt lat="45.92835" lon="6.3915">
        <ele>1164</ele>
        <time>2026-08-19T10:38:28.344Z</time>
      </trkpt>
      <trkpt lat="45.92835" lon="6.39151">
        <ele>1163</ele>
        <time>2026-08-19T10:38:29.344Z</time>
      </trkpt>
      <trkpt lat="45.92835" lon="6.39151">
        <ele>1163</ele>
        <time>2026-08-19T10:38:30.344Z</time>
      </trkpt>
      <trkpt lat="45.92836" lon="6.39151">
        <ele>1162</ele>
        <time>2026-08-19T10:38:31.344Z</time>
      </trkpt>
      <trkpt lat="45.92836" lon="6.39152">
        <ele>1162</ele>
        <time>2026-08-19T10:38:32.344Z</time>
      </trkpt>
      <trkpt lat="45.92836" lon="6.39152">
        <ele>1161</ele>
        <time>2026-08-19T10:38:33.344Z</time>
      </trkpt>
      <trkpt lat="45.92836" lon="6.39152">
        <ele>1161</ele>
        <time>2026-08-19T10:38:34.344Z</time>
      </trkpt>
      <trkpt lat="45.92836" lon="6.39152">
        <ele>1160</ele>
        <time>2026-08-19T10:38:35.344Z</time>
      </trkpt>
      <trkpt lat="45.92836" lon="6.39152">
        <ele>1160</ele>
        <time>2026-08-19T10:38:36.344Z</time>
      </trkpt>
      <trkpt lat="45.92836" lon="6.39152">
        <ele>1159</ele>
        <time>2026-08-19T10:38:37.344Z</time>
      </trkpt>
      <trkpt lat="45.92837" lon="6.39153">
        <ele>1158</ele>
        <time>2026-08-19T10:38:38.344Z</time>
      </trkpt>
      <trkpt lat="45.92837" lon="6.39152">
        <ele>1157</ele>
        <time>2026-08-19T10:38:39.344Z</time>
      </trkpt>
      <trkpt lat="45.92837" lon="6.39152">
        <ele>1157</ele>
        <time>2026-08-19T10:38:40.344Z</time>
      </trkpt>
      <trkpt lat="45.92837" lon="6.39152">
        <ele>1157</ele>
        <time>2026-08-19T10:38:41.344Z</time>
      </trkpt>
      <trkpt lat="45.92837" lon="6.39152">
        <ele>1156</ele>
        <time>2026-08-19T10:38:42.344Z</time>
      </trkpt>
      <trkpt lat="45.92838" lon="6.39152">
        <ele>1156</ele>
        <time>2026-08-19T10:38:43.344Z</time>
      </trkpt>
      <trkpt lat="45.92838" lon="6.39152">
        <ele>1156</ele>
        <time>2026-08-19T10:38:44.344Z</time>
      </trkpt>
      <trkpt lat="45.92838" lon="6.39152">
        <ele>1155</ele>
        <time>2026-08-19T10:38:45.344Z</time>
      </trkpt>
      <trkpt lat="45.92838" lon="6.39152">
        <ele>1155</ele>
        <time>2026-08-19T10:38:46.344Z</time>
      </trkpt>
      <trkpt lat="45.92838" lon="6.39152">
        <ele>1155</ele>
        <time>2026-08-19T10:38:47.344Z</time>
      </trkpt>
      <trkpt lat="45.92838" lon="6.39152">
        <ele>1156</ele>
        <time>2026-08-19T10:38:48.344Z</time>
      </trkpt>
      <trkpt lat="45.92838" lon="6.39152">
        <ele>1156</ele>
        <time>2026-08-19T10:38:49.344Z</time>
      </trkpt>
      <trkpt lat="45.92838" lon="6.39152">
        <ele>1156</ele>
        <time>2026-08-19T10:38:50.344Z</time>
      </trkpt>
      <trkpt lat="45.92838" lon="6.39152">
        <ele>1156</ele>
        <time>2026-08-19T10:38:51.344Z</time>
      </trkpt>
      <trkpt lat="45.92838" lon="6.39152">
        <ele>1156</ele>
        <time>2026-08-19T10:38:52.344Z</time>
      </trkpt>
      <trkpt lat="45.92838" lon="6.39152">
        <ele>1156</ele>
        <time>2026-08-19T10:38:53.344Z</time>
      </trkpt>
      <trkpt lat="45.92838" lon="6.39152">
        <ele>1156</ele>
        <time>2026-08-19T10:38:54.344Z</time>
      </trkpt>
      <trkpt lat="45.92838" lon="6.39152">
        <ele>1156</ele>
        <time>2026-08-19T10:38:55.344Z</time>
      </trkpt>
      <trkpt lat="45.92838" lon="6.39152">
        <ele>1156</ele>
        <time>2026-08-19T10:38:56.344Z</time>
      </trkpt>
      <trkpt lat="45.92838" lon="6.39152">
        <ele>1156</ele>
        <time>2026-08-19T10:38:57.344Z</time>
      </trkpt>
      <trkpt lat="45.92838" lon="6.39152">
        <ele>1156</ele>
        <time>2026-08-19T10:38:58.344Z</time>
      </trkpt>
      <trkpt lat="45.92838" lon="6.39152">
        <ele>1156</ele>
        <time>2026-08-19T10:38:59.344Z</time>
      </trkpt>
      <trkpt lat="45.92838" lon="6.39152">
        <ele>1157</ele>
        <time>2026-08-19T10:39:00.344Z</time>
      </trkpt>
      <trkpt lat="45.92838" lon="6.39152">
        <ele>1157</ele>
        <time>2026-08-19T10:39:01.344Z</time>
      </trkpt>
      <trkpt lat="45.92838" lon="6.39152">
        <ele>1157</ele>
        <time>2026-08-19T10:39:02.344Z</time>
      </trkpt>
      <trkpt lat="45.92838" lon="6.39152">
        <ele>1157</ele>
        <time>2026-08-19T10:39:03.344Z</time>
      </trkpt>
      <trkpt lat="45.92838" lon="6.39152">
        <ele>1157</ele>
        <time>2026-08-19T10:39:04.344Z</time>
      </trkpt>
      <trkpt lat="45.92838" lon="6.39152">
        <ele>1157</ele>
        <time>2026-08-19T10:39:05.345Z</time>
      </trkpt>
      <trkpt lat="45.92838" lon="6.39152">
        <ele>1157</ele>
        <time>2026-08-19T10:39:06.344Z</time>
      </trkpt>
      <trkpt lat="45.92839" lon="6.39152">
        <ele>1157</ele>
        <time>2026-08-19T10:39:07.344Z</time>
      </trkpt>
      <trkpt lat="45.92839" lon="6.39152">
        <ele>1157</ele>
        <time>2026-08-19T10:39:08.344Z</time>
      </trkpt>
      <trkpt lat="45.92839" lon="6.39152">
        <ele>1157</ele>
        <time>2026-08-19T10:39:09.344Z</time>
      </trkpt>
      <trkpt lat="45.9284" lon="6.39152">
        <ele>1157</ele>
        <time>2026-08-19T10:39:10.344Z</time>
      </trkpt>
      <trkpt lat="45.92841" lon="6.39152">
        <ele>1157</ele>
        <time>2026-08-19T10:39:11.344Z</time>
      </trkpt>
      <trkpt lat="45.92843" lon="6.39153">
        <ele>1157</ele>
        <time>2026-08-19T10:39:12.344Z</time>
      </trkpt>
      <trkpt lat="45.92844" lon="6.39154">
        <ele>1157</ele>
        <time>2026-08-19T10:39:13.344Z</time>
      </trkpt>
      <trkpt lat="45.92845" lon="6.39156">
        <ele>1157</ele>
        <time>2026-08-19T10:39:14.344Z</time>
      </trkpt>
      <trkpt lat="45.92846" lon="6.39157">
        <ele>1158</ele>
        <time>2026-08-19T10:39:15.344Z</time>
      </trkpt>
      <trkpt lat="45.92847" lon="6.39159">
        <ele>1158</ele>
        <time>2026-08-19T10:39:16.344Z</time>
      </trkpt>
      <trkpt lat="45.92849" lon="6.39161">
        <ele>1158</ele>
        <time>2026-08-19T10:39:17.344Z</time>
      </trkpt>
      <trkpt lat="45.92851" lon="6.39162">
        <ele>1159</ele>
        <time>2026-08-19T10:39:18.344Z</time>
      </trkpt>
      <trkpt lat="45.92852" lon="6.39163">
        <ele>1159</ele>
        <time>2026-08-19T10:39:19.344Z</time>
      </trkpt>
      <trkpt lat="45.92853" lon="6.39164">
        <ele>1159</ele>
        <time>2026-08-19T10:39:20.344Z</time>
      </trkpt>
      <trkpt lat="45.92854" lon="6.39166">
        <ele>1160</ele>
        <time>2026-08-19T10:39:21.344Z</time>
      </trkpt>
      <trkpt lat="45.92855" lon="6.39167">
        <ele>1160</ele>
        <time>2026-08-19T10:39:22.344Z</time>
      </trkpt>
      <trkpt lat="45.92855" lon="6.39168">
        <ele>1161</ele>
        <time>2026-08-19T10:39:23.345Z</time>
      </trkpt>
      <trkpt lat="45.92855" lon="6.39168">
        <ele>1161</ele>
        <time>2026-08-19T10:39:24.344Z</time>
      </trkpt>
      <trkpt lat="45.92855" lon="6.39169">
        <ele>1162</ele>
        <time>2026-08-19T10:39:25.344Z</time>
      </trkpt>
      <trkpt lat="45.92856" lon="6.39171">
        <ele>1162</ele>
        <time>2026-08-19T10:39:26.344Z</time>
      </trkpt>
      <trkpt lat="45.92857" lon="6.39172">
        <ele>1162</ele>
        <time>2026-08-19T10:39:27.344Z</time>
      </trkpt>
      <trkpt lat="45.92857" lon="6.39173">
        <ele>1163</ele>
        <time>2026-08-19T10:39:28.344Z</time>
      </trkpt>
      <trkpt lat="45.92858" lon="6.39174">
        <ele>1163</ele>
        <time>2026-08-19T10:39:29.344Z</time>
      </trkpt>
      <trkpt lat="45.92858" lon="6.39175">
        <ele>1163</ele>
        <time>2026-08-19T10:39:30.344Z</time>
      </trkpt>
      <trkpt lat="45.92858" lon="6.39176">
        <ele>1162</ele>
        <time>2026-08-19T10:39:31.344Z</time>
      </trkpt>
      <trkpt lat="45.92858" lon="6.39177">
        <ele>1162</ele>
        <time>2026-08-19T10:39:32.344Z</time>
      </trkpt>
      <trkpt lat="45.92858" lon="6.39179">
        <ele>1162</ele>
        <time>2026-08-19T10:39:33.344Z</time>
      </trkpt>
      <trkpt lat="45.92857" lon="6.39181">
        <ele>1162</ele>
        <time>2026-08-19T10:39:34.344Z</time>
      </trkpt>
      <trkpt lat="45.92856" lon="6.39183">
        <ele>1162</ele>
        <time>2026-08-19T10:39:35.344Z</time>
      </trkpt>
      <trkpt lat="45.92856" lon="6.39185">
        <ele>1163</ele>
        <time>2026-08-19T10:39:36.344Z</time>
      </trkpt>
      <trkpt lat="45.92856" lon="6.39187">
        <ele>1163</ele>
        <time>2026-08-19T10:39:37.344Z</time>
      </trkpt>
      <trkpt lat="45.92857" lon="6.39188">
        <ele>1162</ele>
        <time>2026-08-19T10:39:38.344Z</time>
      </trkpt>
      <trkpt lat="45.92858" lon="6.39189">
        <ele>1162</ele>
        <time>2026-08-19T10:39:39.344Z</time>
      </trkpt>
      <trkpt lat="45.92858" lon="6.39191">
        <ele>1162</ele>
        <time>2026-08-19T10:39:40.344Z</time>
      </trkpt>
      <trkpt lat="45.92859" lon="6.39193">
        <ele>1162</ele>
        <time>2026-08-19T10:39:41.344Z</time>
      </trkpt>
      <trkpt lat="45.92861" lon="6.39194">
        <ele>1162</ele>
        <time>2026-08-19T10:39:42.344Z</time>
      </trkpt>
      <trkpt lat="45.92862" lon="6.39195">
        <ele>1162</ele>
        <time>2026-08-19T10:39:43.344Z</time>
      </trkpt>
      <trkpt lat="45.92862" lon="6.39196">
        <ele>1162</ele>
        <time>2026-08-19T10:39:44.344Z</time>
      </trkpt>
      <trkpt lat="45.92862" lon="6.39196">
        <ele>1162</ele>
        <time>2026-08-19T10:39:45.344Z</time>
      </trkpt>
      <trkpt lat="45.92862" lon="6.39197">
        <ele>1162</ele>
        <time>2026-08-19T10:39:46.344Z</time>
      </trkpt>
      <trkpt lat="45.92863" lon="6.39197">
        <ele>1162</ele>
        <time>2026-08-19T10:39:47.344Z</time>
      </trkpt>
      <trkpt lat="45.92863" lon="6.39197">
        <ele>1162</ele>
        <time>2026-08-19T10:39:48.344Z</time>
      </trkpt>
      <trkpt lat="45.92864" lon="6.39197">
        <ele>1161</ele>
        <time>2026-08-19T10:39:49.344Z</time>
      </trkpt>
      <trkpt lat="45.92864" lon="6.39198">
        <ele>1161</ele>
        <time>2026-08-19T10:39:50.344Z</time>
      </trkpt>
      <trkpt lat="45.92865" lon="6.39198">
        <ele>1161</ele>
        <time>2026-08-19T10:39:51.344Z</time>
      </trkpt>
      <trkpt lat="45.92866" lon="6.39198">
        <ele>1160</ele>
        <time>2026-08-19T10:39:52.344Z</time>
      </trkpt>
      <trkpt lat="45.92866" lon="6.39199">
        <ele>1160</ele>
        <time>2026-08-19T10:39:53.344Z</time>
      </trkpt>
      <trkpt lat="45.92867" lon="6.39199">
        <ele>1160</ele>
        <time>2026-08-19T10:39:54.344Z</time>
      </trkpt>
      <trkpt lat="45.92867" lon="6.39199">
        <ele>1160</ele>
        <time>2026-08-19T10:39:55.344Z</time>
      </trkpt>
      <trkpt lat="45.92868" lon="6.39199">
        <ele>1160</ele>
        <time>2026-08-19T10:39:56.344Z</time>
      </trkpt>
      <trkpt lat="45.92868" lon="6.39199">
        <ele>1159</ele>
        <time>2026-08-19T10:39:57.344Z</time>
      </trkpt>
      <trkpt lat="45.92869" lon="6.39199">
        <ele>1159</ele>
        <time>2026-08-19T10:39:58.344Z</time>
      </trkpt>
      <trkpt lat="45.92869" lon="6.39199">
        <ele>1159</ele>
        <time>2026-08-19T10:39:59.344Z</time>
      </trkpt>
      <trkpt lat="45.92867" lon="6.392">
        <ele>1159</ele>
        <time>2026-08-19T10:40:00.344Z</time>
      </trkpt>
      <trkpt lat="45.92866" lon="6.392">
        <ele>1158</ele>
        <time>2026-08-19T10:40:01.344Z</time>
      </trkpt>
      <trkpt lat="45.92863" lon="6.39202">
        <ele>1158</ele>
        <time>2026-08-19T10:40:02.344Z</time>
      </trkpt>
      <trkpt lat="45.92861" lon="6.39203">
        <ele>1159</ele>
        <time>2026-08-19T10:40:03.344Z</time>
      </trkpt>
      <trkpt lat="45.92859" lon="6.39203">
        <ele>1159</ele>
        <time>2026-08-19T10:40:04.344Z</time>
      </trkpt>
      <trkpt lat="45.92857" lon="6.39202">
        <ele>1159</ele>
        <time>2026-08-19T10:40:05.344Z</time>
      </trkpt>
      <trkpt lat="45.92856" lon="6.39202">
        <ele>1159</ele>
        <time>2026-08-19T10:40:06.344Z</time>
      </trkpt>
      <trkpt lat="45.92854" lon="6.39201">
        <ele>1160</ele>
        <time>2026-08-19T10:40:07.344Z</time>
      </trkpt>
      <trkpt lat="45.92852" lon="6.392">
        <ele>1160</ele>
        <time>2026-08-19T10:40:08.344Z</time>
      </trkpt>
      <trkpt lat="45.92852" lon="6.39199">
        <ele>1160</ele>
        <time>2026-08-19T10:40:09.344Z</time>
      </trkpt>
      <trkpt lat="45.92852" lon="6.39199">
        <ele>1160</ele>
        <time>2026-08-19T10:40:10.344Z</time>
      </trkpt>
      <trkpt lat="45.92852" lon="6.39199">
        <ele>1160</ele>
        <time>2026-08-19T10:40:11.344Z</time>
      </trkpt>
      <trkpt lat="45.92852" lon="6.39198">
        <ele>1159</ele>
        <time>2026-08-19T10:40:12.344Z</time>
      </trkpt>
      <trkpt lat="45.92852" lon="6.39198">
        <ele>1158</ele>
        <time>2026-08-19T10:40:13.344Z</time>
      </trkpt>
      <trkpt lat="45.92852" lon="6.39197">
        <ele>1158</ele>
        <time>2026-08-19T10:40:14.344Z</time>
      </trkpt>
      <trkpt lat="45.92852" lon="6.39197">
        <ele>1157</ele>
        <time>2026-08-19T10:40:15.344Z</time>
      </trkpt>
      <trkpt lat="45.92852" lon="6.39195">
        <ele>1157</ele>
        <time>2026-08-19T10:40:16.344Z</time>
      </trkpt>
      <trkpt lat="45.92852" lon="6.39193">
        <ele>1157</ele>
        <time>2026-08-19T10:40:17.345Z</time>
      </trkpt>
      <trkpt lat="45.92853" lon="6.39191">
        <ele>1156</ele>
        <time>2026-08-19T10:40:18.344Z</time>
      </trkpt>
      <trkpt lat="45.92853" lon="6.39191">
        <ele>1156</ele>
        <time>2026-08-19T10:40:19.344Z</time>
      </trkpt>
      <trkpt lat="45.92853" lon="6.3919">
        <ele>1156</ele>
        <time>2026-08-19T10:40:20.344Z</time>
      </trkpt>
      <trkpt lat="45.92852" lon="6.39189">
        <ele>1156</ele>
        <time>2026-08-19T10:40:21.344Z</time>
      </trkpt>
      <trkpt lat="45.92852" lon="6.39188">
        <ele>1156</ele>
        <time>2026-08-19T10:40:22.344Z</time>
      </trkpt>
      <trkpt lat="45.92852" lon="6.39186">
        <ele>1156</ele>
        <time>2026-08-19T10:40:23.344Z</time>
      </trkpt>
      <trkpt lat="45.92852" lon="6.39185">
        <ele>1156</ele>
        <time>2026-08-19T10:40:24.344Z</time>
      </trkpt>
      <trkpt lat="45.92851" lon="6.39183">
        <ele>1156</ele>
        <time>2026-08-19T10:40:25.344Z</time>
      </trkpt>
      <trkpt lat="45.92851" lon="6.39183">
        <ele>1155</ele>
        <time>2026-08-19T10:40:26.344Z</time>
      </trkpt>
      <trkpt lat="45.92851" lon="6.39182">
        <ele>1155</ele>
        <time>2026-08-19T10:40:27.344Z</time>
      </trkpt>
      <trkpt lat="45.9285" lon="6.39181">
        <ele>1155</ele>
        <time>2026-08-19T10:40:28.344Z</time>
      </trkpt>
      <trkpt lat="45.92849" lon="6.39179">
        <ele>1155</ele>
        <time>2026-08-19T10:40:29.344Z</time>
      </trkpt>
      <trkpt lat="45.92848" lon="6.39177">
        <ele>1155</ele>
        <time>2026-08-19T10:40:30.345Z</time>
      </trkpt>
      <trkpt lat="45.92847" lon="6.39176">
        <ele>1156</ele>
        <time>2026-08-19T10:40:31.344Z</time>
      </trkpt>
      <trkpt lat="45.92847" lon="6.39174">
        <ele>1156</ele>
        <time>2026-08-19T10:40:32.344Z</time>
      </trkpt>
      <trkpt lat="45.92846" lon="6.39173">
        <ele>1156</ele>
        <time>2026-08-19T10:40:33.344Z</time>
      </trkpt>
      <trkpt lat="45.92846" lon="6.39171">
        <ele>1156</ele>
        <time>2026-08-19T10:40:34.344Z</time>
      </trkpt>
      <trkpt lat="45.92845" lon="6.39169">
        <ele>1156</ele>
        <time>2026-08-19T10:40:35.344Z</time>
      </trkpt>
      <trkpt lat="45.92844" lon="6.39167">
        <ele>1156</ele>
        <time>2026-08-19T10:40:36.344Z</time>
      </trkpt>
      <trkpt lat="45.92843" lon="6.39165">
        <ele>1156</ele>
        <time>2026-08-19T10:40:37.344Z</time>
      </trkpt>
      <trkpt lat="45.92842" lon="6.39163">
        <ele>1157</ele>
        <time>2026-08-19T10:40:38.344Z</time>
      </trkpt>
      <trkpt lat="45.9284" lon="6.39161">
        <ele>1157</ele>
        <time>2026-08-19T10:40:39.344Z</time>
      </trkpt>
      <trkpt lat="45.92839" lon="6.3916">
        <ele>1157</ele>
        <time>2026-08-19T10:40:40.344Z</time>
      </trkpt>
      <trkpt lat="45.92837" lon="6.39158">
        <ele>1158</ele>
        <time>2026-08-19T10:40:41.344Z</time>
      </trkpt>
      <trkpt lat="45.92835" lon="6.39156">
        <ele>1159</ele>
        <time>2026-08-19T10:40:42.344Z</time>
      </trkpt>
      <trkpt lat="45.92833" lon="6.39155">
        <ele>1159</ele>
        <time>2026-08-19T10:40:43.344Z</time>
      </trkpt>
      <trkpt lat="45.9283" lon="6.39154">
        <ele>1160</ele>
        <time>2026-08-19T10:40:44.344Z</time>
      </trkpt>
      <trkpt lat="45.92828" lon="6.39152">
        <ele>1160</ele>
        <time>2026-08-19T10:40:45.344Z</time>
      </trkpt>
      <trkpt lat="45.92826" lon="6.39151">
        <ele>1160</ele>
        <time>2026-08-19T10:40:46.344Z</time>
      </trkpt>
      <trkpt lat="45.92824" lon="6.39148">
        <ele>1159</ele>
        <time>2026-08-19T10:40:47.344Z</time>
      </trkpt>
      <trkpt lat="45.92822" lon="6.39146">
        <ele>1159</ele>
        <time>2026-08-19T10:40:48.344Z</time>
      </trkpt>
      <trkpt lat="45.92821" lon="6.39143">
        <ele>1159</ele>
        <time>2026-08-19T10:40:49.344Z</time>
      </trkpt>
      <trkpt lat="45.9282" lon="6.3914">
        <ele>1160</ele>
        <time>2026-08-19T10:40:50.344Z</time>
      </trkpt>
      <trkpt lat="45.9282" lon="6.39135">
        <ele>1160</ele>
        <time>2026-08-19T10:40:51.344Z</time>
      </trkpt>
      <trkpt lat="45.9282" lon="6.39131">
        <ele>1160</ele>
        <time>2026-08-19T10:40:52.344Z</time>
      </trkpt>
      <trkpt lat="45.9282" lon="6.39128">
        <ele>1160</ele>
        <time>2026-08-19T10:40:53.344Z</time>
      </trkpt>
      <trkpt lat="45.92821" lon="6.39125">
        <ele>1160</ele>
        <time>2026-08-19T10:40:54.344Z</time>
      </trkpt>
      <trkpt lat="45.92821" lon="6.39124">
        <ele>1160</ele>
        <time>2026-08-19T10:40:55.344Z</time>
      </trkpt>
      <trkpt lat="45.92822" lon="6.39121">
        <ele>1159</ele>
        <time>2026-08-19T10:40:56.344Z</time>
      </trkpt>
      <trkpt lat="45.92822" lon="6.3912">
        <ele>1159</ele>
        <time>2026-08-19T10:40:57.344Z</time>
      </trkpt>
      <trkpt lat="45.92822" lon="6.39119">
        <ele>1159</ele>
        <time>2026-08-19T10:40:58.344Z</time>
      </trkpt>
      <trkpt lat="45.92821" lon="6.39118">
        <ele>1159</ele>
        <time>2026-08-19T10:40:59.344Z</time>
      </trkpt>
      <trkpt lat="45.9282" lon="6.39117">
        <ele>1160</ele>
        <time>2026-08-19T10:41:00.344Z</time>
      </trkpt>
      <trkpt lat="45.92819" lon="6.39115">
        <ele>1160</ele>
        <time>2026-08-19T10:41:01.344Z</time>
      </trkpt>
      <trkpt lat="45.92817" lon="6.39114">
        <ele>1160</ele>
        <time>2026-08-19T10:41:02.344Z</time>
      </trkpt>
      <trkpt lat="45.92815" lon="6.39112">
        <ele>1160</ele>
        <time>2026-08-19T10:41:03.344Z</time>
      </trkpt>
      <trkpt lat="45.92814" lon="6.3911">
        <ele>1160</ele>
        <time>2026-08-19T10:41:04.344Z</time>
      </trkpt>
      <trkpt lat="45.92812" lon="6.39109">
        <ele>1160</ele>
        <time>2026-08-19T10:41:05.344Z</time>
      </trkpt>
      <trkpt lat="45.9281" lon="6.39106">
        <ele>1160</ele>
        <time>2026-08-19T10:41:06.344Z</time>
      </trkpt>
      <trkpt lat="45.92809" lon="6.39105">
        <ele>1160</ele>
        <time>2026-08-19T10:41:07.344Z</time>
      </trkpt>
      <trkpt lat="45.92807" lon="6.39103">
        <ele>1161</ele>
        <time>2026-08-19T10:41:08.344Z</time>
      </trkpt>
      <trkpt lat="45.92806" lon="6.391">
        <ele>1161</ele>
        <time>2026-08-19T10:41:09.344Z</time>
      </trkpt>
      <trkpt lat="45.92805" lon="6.39097">
        <ele>1161</ele>
        <time>2026-08-19T10:41:10.344Z</time>
      </trkpt>
      <trkpt lat="45.92805" lon="6.39094">
        <ele>1160</ele>
        <time>2026-08-19T10:41:11.344Z</time>
      </trkpt>
      <trkpt lat="45.92804" lon="6.39091">
        <ele>1159</ele>
        <time>2026-08-19T10:41:12.344Z</time>
      </trkpt>
      <trkpt lat="45.92803" lon="6.39089">
        <ele>1158</ele>
        <time>2026-08-19T10:41:13.344Z</time>
      </trkpt>
      <trkpt lat="45.92802" lon="6.39088">
        <ele>1158</ele>
        <time>2026-08-19T10:41:14.344Z</time>
      </trkpt>
      <trkpt lat="45.928" lon="6.39087">
        <ele>1158</ele>
        <time>2026-08-19T10:41:15.344Z</time>
      </trkpt>
      <trkpt lat="45.92798" lon="6.39086">
        <ele>1158</ele>
        <time>2026-08-19T10:41:16.344Z</time>
      </trkpt>
      <trkpt lat="45.92796" lon="6.39085">
        <ele>1158</ele>
        <time>2026-08-19T10:41:17.344Z</time>
      </trkpt>
      <trkpt lat="45.92795" lon="6.39084">
        <ele>1158</ele>
        <time>2026-08-19T10:41:18.344Z</time>
      </trkpt>
      <trkpt lat="45.92794" lon="6.39083">
        <ele>1158</ele>
        <time>2026-08-19T10:41:19.344Z</time>
      </trkpt>
      <trkpt lat="45.92792" lon="6.39081">
        <ele>1158</ele>
        <time>2026-08-19T10:41:20.344Z</time>
      </trkpt>
      <trkpt lat="45.9279" lon="6.3908">
        <ele>1159</ele>
        <time>2026-08-19T10:41:21.344Z</time>
      </trkpt>
      <trkpt lat="45.92787" lon="6.39079">
        <ele>1159</ele>
        <time>2026-08-19T10:41:22.344Z</time>
      </trkpt>
      <trkpt lat="45.92785" lon="6.39078">
        <ele>1160</ele>
        <time>2026-08-19T10:41:23.344Z</time>
      </trkpt>
      <trkpt lat="45.92784" lon="6.39077">
        <ele>1160</ele>
        <time>2026-08-19T10:41:24.344Z</time>
      </trkpt>
      <trkpt lat="45.92782" lon="6.39076">
        <ele>1160</ele>
        <time>2026-08-19T10:41:25.344Z</time>
      </trkpt>
      <trkpt lat="45.9278" lon="6.39075">
        <ele>1161</ele>
        <time>2026-08-19T10:41:26.344Z</time>
      </trkpt>
      <trkpt lat="45.92778" lon="6.39074">
        <ele>1161</ele>
        <time>2026-08-19T10:41:27.344Z</time>
      </trkpt>
      <trkpt lat="45.92776" lon="6.39074">
        <ele>1162</ele>
        <time>2026-08-19T10:41:28.344Z</time>
      </trkpt>
      <trkpt lat="45.92774" lon="6.39073">
        <ele>1162</ele>
        <time>2026-08-19T10:41:29.344Z</time>
      </trkpt>
      <trkpt lat="45.92772" lon="6.39073">
        <ele>1162</ele>
        <time>2026-08-19T10:41:30.344Z</time>
      </trkpt>
      <trkpt lat="45.92771" lon="6.39072">
        <ele>1163</ele>
        <time>2026-08-19T10:41:31.344Z</time>
      </trkpt>
      <trkpt lat="45.92769" lon="6.39072">
        <ele>1163</ele>
        <time>2026-08-19T10:41:32.344Z</time>
      </trkpt>
      <trkpt lat="45.92768" lon="6.39071">
        <ele>1163</ele>
        <time>2026-08-19T10:41:33.344Z</time>
      </trkpt>
      <trkpt lat="45.92766" lon="6.39071">
        <ele>1163</ele>
        <time>2026-08-19T10:41:34.344Z</time>
      </trkpt>
      <trkpt lat="45.92764" lon="6.39071">
        <ele>1162</ele>
        <time>2026-08-19T10:41:35.344Z</time>
      </trkpt>
      <trkpt lat="45.92761" lon="6.3907">
        <ele>1162</ele>
        <time>2026-08-19T10:41:36.344Z</time>
      </trkpt>
      <trkpt lat="45.92758" lon="6.39069">
        <ele>1161</ele>
        <time>2026-08-19T10:41:37.344Z</time>
      </trkpt>
      <trkpt lat="45.92755" lon="6.39067">
        <ele>1161</ele>
        <time>2026-08-19T10:41:38.344Z</time>
      </trkpt>
      <trkpt lat="45.92753" lon="6.39066">
        <ele>1161</ele>
        <time>2026-08-19T10:41:39.344Z</time>
      </trkpt>
      <trkpt lat="45.9275" lon="6.39065">
        <ele>1160</ele>
        <time>2026-08-19T10:41:40.344Z</time>
      </trkpt>
      <trkpt lat="45.92748" lon="6.39065">
        <ele>1160</ele>
        <time>2026-08-19T10:41:41.344Z</time>
      </trkpt>
      <trkpt lat="45.92746" lon="6.39064">
        <ele>1160</ele>
        <time>2026-08-19T10:41:42.344Z</time>
      </trkpt>
      <trkpt lat="45.92745" lon="6.39063">
        <ele>1160</ele>
        <time>2026-08-19T10:41:43.344Z</time>
      </trkpt>
      <trkpt lat="45.92742" lon="6.39061">
        <ele>1160</ele>
        <time>2026-08-19T10:41:44.344Z</time>
      </trkpt>
      <trkpt lat="45.9274" lon="6.39061">
        <ele>1160</ele>
        <time>2026-08-19T10:41:45.344Z</time>
      </trkpt>
      <trkpt lat="45.92738" lon="6.3906">
        <ele>1160</ele>
        <time>2026-08-19T10:41:46.344Z</time>
      </trkpt>
      <trkpt lat="45.92736" lon="6.3906">
        <ele>1159</ele>
        <time>2026-08-19T10:41:47.344Z</time>
      </trkpt>
      <trkpt lat="45.92735" lon="6.39059">
        <ele>1159</ele>
        <time>2026-08-19T10:41:48.344Z</time>
      </trkpt>
      <trkpt lat="45.92733" lon="6.39059">
        <ele>1158</ele>
        <time>2026-08-19T10:41:49.344Z</time>
      </trkpt>
      <trkpt lat="45.92731" lon="6.39058">
        <ele>1158</ele>
        <time>2026-08-19T10:41:50.344Z</time>
      </trkpt>
      <trkpt lat="45.9273" lon="6.39057">
        <ele>1157</ele>
        <time>2026-08-19T10:41:51.344Z</time>
      </trkpt>
      <trkpt lat="45.92729" lon="6.39057">
        <ele>1155</ele>
        <time>2026-08-19T10:41:52.344Z</time>
      </trkpt>
      <trkpt lat="45.92728" lon="6.39055">
        <ele>1154</ele>
        <time>2026-08-19T10:41:53.344Z</time>
      </trkpt>
      <trkpt lat="45.92727" lon="6.39053">
        <ele>1153</ele>
        <time>2026-08-19T10:41:54.344Z</time>
      </trkpt>
      <trkpt lat="45.92724" lon="6.39052">
        <ele>1152</ele>
        <time>2026-08-19T10:41:55.344Z</time>
      </trkpt>
      <trkpt lat="45.92721" lon="6.3905">
        <ele>1150</ele>
        <time>2026-08-19T10:41:56.344Z</time>
      </trkpt>
      <trkpt lat="45.92719" lon="6.39048">
        <ele>1149</ele>
        <time>2026-08-19T10:41:57.344Z</time>
      </trkpt>
      <trkpt lat="45.92717" lon="6.39046">
        <ele>1148</ele>
        <time>2026-08-19T10:41:58.344Z</time>
      </trkpt>
      <trkpt lat="45.92715" lon="6.39045">
        <ele>1147</ele>
        <time>2026-08-19T10:41:59.344Z</time>
      </trkpt>
      <trkpt lat="45.92713" lon="6.39043">
        <ele>1146</ele>
        <time>2026-08-19T10:42:00.344Z</time>
      </trkpt>
      <trkpt lat="45.92711" lon="6.3904">
        <ele>1145</ele>
        <time>2026-08-19T10:42:01.344Z</time>
      </trkpt>
      <trkpt lat="45.92709" lon="6.39038">
        <ele>1144</ele>
        <time>2026-08-19T10:42:02.344Z</time>
      </trkpt>
      <trkpt lat="45.92708" lon="6.39036">
        <ele>1143</ele>
        <time>2026-08-19T10:42:03.344Z</time>
      </trkpt>
      <trkpt lat="45.92706" lon="6.39035">
        <ele>1142</ele>
        <time>2026-08-19T10:42:04.344Z</time>
      </trkpt>
      <trkpt lat="45.92704" lon="6.39033">
        <ele>1141</ele>
        <time>2026-08-19T10:42:05.344Z</time>
      </trkpt>
      <trkpt lat="45.92702" lon="6.39031">
        <ele>1140</ele>
        <time>2026-08-19T10:42:06.344Z</time>
      </trkpt>
      <trkpt lat="45.927" lon="6.3903">
        <ele>1139</ele>
        <time>2026-08-19T10:42:07.344Z</time>
      </trkpt>
      <trkpt lat="45.92698" lon="6.39028">
        <ele>1138</ele>
        <time>2026-08-19T10:42:08.345Z</time>
      </trkpt>
      <trkpt lat="45.92696" lon="6.39026">
        <ele>1137</ele>
        <time>2026-08-19T10:42:09.344Z</time>
      </trkpt>
      <trkpt lat="45.92694" lon="6.39025">
        <ele>1137</ele>
        <time>2026-08-19T10:42:10.344Z</time>
      </trkpt>
      <trkpt lat="45.92692" lon="6.39023">
        <ele>1136</ele>
        <time>2026-08-19T10:42:11.344Z</time>
      </trkpt>
      <trkpt lat="45.9269" lon="6.39022">
        <ele>1135</ele>
        <time>2026-08-19T10:42:12.344Z</time>
      </trkpt>
      <trkpt lat="45.92689" lon="6.3902">
        <ele>1135</ele>
        <time>2026-08-19T10:42:13.344Z</time>
      </trkpt>
      <trkpt lat="45.92687" lon="6.39018">
        <ele>1134</ele>
        <time>2026-08-19T10:42:14.344Z</time>
      </trkpt>
      <trkpt lat="45.92685" lon="6.39017">
        <ele>1134</ele>
        <time>2026-08-19T10:42:15.344Z</time>
      </trkpt>
      <trkpt lat="45.92684" lon="6.39015">
        <ele>1133</ele>
        <time>2026-08-19T10:42:16.344Z</time>
      </trkpt>
      <trkpt lat="45.92682" lon="6.39014">
        <ele>1133</ele>
        <time>2026-08-19T10:42:17.344Z</time>
      </trkpt>
      <trkpt lat="45.92681" lon="6.39012">
        <ele>1133</ele>
        <time>2026-08-19T10:42:18.344Z</time>
      </trkpt>
      <trkpt lat="45.92679" lon="6.3901">
        <ele>1132</ele>
        <time>2026-08-19T10:42:19.344Z</time>
      </trkpt>
      <trkpt lat="45.92678" lon="6.39008">
        <ele>1132</ele>
        <time>2026-08-19T10:42:20.344Z</time>
      </trkpt>
      <trkpt lat="45.92676" lon="6.39007">
        <ele>1132</ele>
        <time>2026-08-19T10:42:21.344Z</time>
      </trkpt>
      <trkpt lat="45.92674" lon="6.39005">
        <ele>1131</ele>
        <time>2026-08-19T10:42:22.344Z</time>
      </trkpt>
      <trkpt lat="45.92673" lon="6.39003">
        <ele>1131</ele>
        <time>2026-08-19T10:42:23.344Z</time>
      </trkpt>
      <trkpt lat="45.92671" lon="6.39001">
        <ele>1131</ele>
        <time>2026-08-19T10:42:24.344Z</time>
      </trkpt>
      <trkpt lat="45.92669" lon="6.38999">
        <ele>1130</ele>
        <time>2026-08-19T10:42:25.344Z</time>
      </trkpt>
      <trkpt lat="45.92668" lon="6.38997">
        <ele>1130</ele>
        <time>2026-08-19T10:42:26.344Z</time>
      </trkpt>
      <trkpt lat="45.92666" lon="6.38995">
        <ele>1129</ele>
        <time>2026-08-19T10:42:27.344Z</time>
      </trkpt>
      <trkpt lat="45.92665" lon="6.38993">
        <ele>1129</ele>
        <time>2026-08-19T10:42:28.344Z</time>
      </trkpt>
      <trkpt lat="45.92663" lon="6.3899">
        <ele>1128</ele>
        <time>2026-08-19T10:42:29.344Z</time>
      </trkpt>
      <trkpt lat="45.92662" lon="6.38987">
        <ele>1127</ele>
        <time>2026-08-19T10:42:30.344Z</time>
      </trkpt>
      <trkpt lat="45.92661" lon="6.38985">
        <ele>1127</ele>
        <time>2026-08-19T10:42:31.344Z</time>
      </trkpt>
      <trkpt lat="45.9266" lon="6.38982">
        <ele>1126</ele>
        <time>2026-08-19T10:42:32.344Z</time>
      </trkpt>
      <trkpt lat="45.92659" lon="6.38979">
        <ele>1125</ele>
        <time>2026-08-19T10:42:33.344Z</time>
      </trkpt>
      <trkpt lat="45.92657" lon="6.38976">
        <ele>1124</ele>
        <time>2026-08-19T10:42:34.344Z</time>
      </trkpt>
      <trkpt lat="45.92656" lon="6.38974">
        <ele>1122</ele>
        <time>2026-08-19T10:42:35.344Z</time>
      </trkpt>
      <trkpt lat="45.92655" lon="6.38971">
        <ele>1121</ele>
        <time>2026-08-19T10:42:36.344Z</time>
      </trkpt>
      <trkpt lat="45.92653" lon="6.38969">
        <ele>1120</ele>
        <time>2026-08-19T10:42:37.345Z</time>
      </trkpt>
      <trkpt lat="45.92652" lon="6.38967">
        <ele>1119</ele>
        <time>2026-08-19T10:42:38.344Z</time>
      </trkpt>
      <trkpt lat="45.9265" lon="6.38966">
        <ele>1118</ele>
        <time>2026-08-19T10:42:39.344Z</time>
      </trkpt>
      <trkpt lat="45.92649" lon="6.38963">
        <ele>1118</ele>
        <time>2026-08-19T10:42:40.344Z</time>
      </trkpt>
      <trkpt lat="45.92647" lon="6.38961">
        <ele>1117</ele>
        <time>2026-08-19T10:42:41.345Z</time>
      </trkpt>
      <trkpt lat="45.92646" lon="6.3896">
        <ele>1116</ele>
        <time>2026-08-19T10:42:42.344Z</time>
      </trkpt>
      <trkpt lat="45.92644" lon="6.38958">
        <ele>1116</ele>
        <time>2026-08-19T10:42:43.344Z</time>
      </trkpt>
      <trkpt lat="45.92643" lon="6.38957">
        <ele>1115</ele>
        <time>2026-08-19T10:42:44.344Z</time>
      </trkpt>
      <trkpt lat="45.92642" lon="6.38955">
        <ele>1115</ele>
        <time>2026-08-19T10:42:45.344Z</time>
      </trkpt>
      <trkpt lat="45.9264" lon="6.38952">
        <ele>1115</ele>
        <time>2026-08-19T10:42:46.344Z</time>
      </trkpt>
      <trkpt lat="45.92639" lon="6.38951">
        <ele>1114</ele>
        <time>2026-08-19T10:42:47.344Z</time>
      </trkpt>
      <trkpt lat="45.92637" lon="6.38949">
        <ele>1114</ele>
        <time>2026-08-19T10:42:48.344Z</time>
      </trkpt>
      <trkpt lat="45.92635" lon="6.38948">
        <ele>1114</ele>
        <time>2026-08-19T10:42:49.344Z</time>
      </trkpt>
      <trkpt lat="45.92634" lon="6.38946">
        <ele>1114</ele>
        <time>2026-08-19T10:42:50.344Z</time>
      </trkpt>
      <trkpt lat="45.92632" lon="6.38944">
        <ele>1114</ele>
        <time>2026-08-19T10:42:51.344Z</time>
      </trkpt>
      <trkpt lat="45.9263" lon="6.38943">
        <ele>1113</ele>
        <time>2026-08-19T10:42:52.344Z</time>
      </trkpt>
      <trkpt lat="45.92628" lon="6.38941">
        <ele>1113</ele>
        <time>2026-08-19T10:42:53.344Z</time>
      </trkpt>
      <trkpt lat="45.92626" lon="6.38939">
        <ele>1113</ele>
        <time>2026-08-19T10:42:54.345Z</time>
      </trkpt>
      <trkpt lat="45.92625" lon="6.38937">
        <ele>1113</ele>
        <time>2026-08-19T10:42:55.344Z</time>
      </trkpt>
      <trkpt lat="45.92624" lon="6.38935">
        <ele>1112</ele>
        <time>2026-08-19T10:42:56.344Z</time>
      </trkpt>
      <trkpt lat="45.92622" lon="6.38933">
        <ele>1112</ele>
        <time>2026-08-19T10:42:57.344Z</time>
      </trkpt>
      <trkpt lat="45.92621" lon="6.38931">
        <ele>1112</ele>
        <time>2026-08-19T10:42:58.344Z</time>
      </trkpt>
      <trkpt lat="45.92619" lon="6.38929">
        <ele>1111</ele>
        <time>2026-08-19T10:42:59.344Z</time>
      </trkpt>
      <trkpt lat="45.92618" lon="6.38927">
        <ele>1111</ele>
        <time>2026-08-19T10:43:00.344Z</time>
      </trkpt>
      <trkpt lat="45.92616" lon="6.38925">
        <ele>1111</ele>
        <time>2026-08-19T10:43:01.344Z</time>
      </trkpt>
      <trkpt lat="45.92615" lon="6.38923">
        <ele>1111</ele>
        <time>2026-08-19T10:43:02.344Z</time>
      </trkpt>
      <trkpt lat="45.92613" lon="6.38921">
        <ele>1111</ele>
        <time>2026-08-19T10:43:03.344Z</time>
      </trkpt>
      <trkpt lat="45.92612" lon="6.38919">
        <ele>1111</ele>
        <time>2026-08-19T10:43:04.344Z</time>
      </trkpt>
      <trkpt lat="45.92611" lon="6.38917">
        <ele>1111</ele>
        <time>2026-08-19T10:43:05.344Z</time>
      </trkpt>
      <trkpt lat="45.9261" lon="6.38915">
        <ele>1110</ele>
        <time>2026-08-19T10:43:06.344Z</time>
      </trkpt>
      <trkpt lat="45.92608" lon="6.38914">
        <ele>1110</ele>
        <time>2026-08-19T10:43:07.344Z</time>
      </trkpt>
      <trkpt lat="45.92606" lon="6.38914">
        <ele>1110</ele>
        <time>2026-08-19T10:43:08.344Z</time>
      </trkpt>
      <trkpt lat="45.92604" lon="6.38912">
        <ele>1110</ele>
        <time>2026-08-19T10:43:09.344Z</time>
      </trkpt>
      <trkpt lat="45.92602" lon="6.38911">
        <ele>1109</ele>
        <time>2026-08-19T10:43:10.344Z</time>
      </trkpt>
      <trkpt lat="45.92601" lon="6.38909">
        <ele>1108</ele>
        <time>2026-08-19T10:43:11.344Z</time>
      </trkpt>
      <trkpt lat="45.92599" lon="6.38907">
        <ele>1107</ele>
        <time>2026-08-19T10:43:12.344Z</time>
      </trkpt>
      <trkpt lat="45.92598" lon="6.38904">
        <ele>1106</ele>
        <time>2026-08-19T10:43:13.344Z</time>
      </trkpt>
      <trkpt lat="45.92596" lon="6.38902">
        <ele>1105</ele>
        <time>2026-08-19T10:43:14.344Z</time>
      </trkpt>
      <trkpt lat="45.92595" lon="6.38899">
        <ele>1103</ele>
        <time>2026-08-19T10:43:15.344Z</time>
      </trkpt>
      <trkpt lat="45.92594" lon="6.38897">
        <ele>1102</ele>
        <time>2026-08-19T10:43:16.344Z</time>
      </trkpt>
      <trkpt lat="45.92593" lon="6.38894">
        <ele>1100</ele>
        <time>2026-08-19T10:43:17.344Z</time>
      </trkpt>
      <trkpt lat="45.92592" lon="6.38892">
        <ele>1099</ele>
        <time>2026-08-19T10:43:18.344Z</time>
      </trkpt>
      <trkpt lat="45.92591" lon="6.3889">
        <ele>1098</ele>
        <time>2026-08-19T10:43:19.344Z</time>
      </trkpt>
      <trkpt lat="45.9259" lon="6.38888">
        <ele>1097</ele>
        <time>2026-08-19T10:43:20.344Z</time>
      </trkpt>
      <trkpt lat="45.92588" lon="6.38885">
        <ele>1096</ele>
        <time>2026-08-19T10:43:21.344Z</time>
      </trkpt>
      <trkpt lat="45.92587" lon="6.38883">
        <ele>1095</ele>
        <time>2026-08-19T10:43:22.344Z</time>
      </trkpt>
      <trkpt lat="45.92586" lon="6.38881">
        <ele>1095</ele>
        <time>2026-08-19T10:43:23.344Z</time>
      </trkpt>
      <trkpt lat="45.92585" lon="6.38879">
        <ele>1094</ele>
        <time>2026-08-19T10:43:24.344Z</time>
      </trkpt>
      <trkpt lat="45.92583" lon="6.38876">
        <ele>1094</ele>
        <time>2026-08-19T10:43:25.344Z</time>
      </trkpt>
      <trkpt lat="45.92582" lon="6.38874">
        <ele>1093</ele>
        <time>2026-08-19T10:43:26.344Z</time>
      </trkpt>
      <trkpt lat="45.92581" lon="6.38872">
        <ele>1092</ele>
        <time>2026-08-19T10:43:27.344Z</time>
      </trkpt>
      <trkpt lat="45.92579" lon="6.3887">
        <ele>1092</ele>
        <time>2026-08-19T10:43:28.344Z</time>
      </trkpt>
      <trkpt lat="45.92578" lon="6.38868">
        <ele>1091</ele>
        <time>2026-08-19T10:43:29.344Z</time>
      </trkpt>
      <trkpt lat="45.92576" lon="6.38865">
        <ele>1091</ele>
        <time>2026-08-19T10:43:30.344Z</time>
      </trkpt>
      <trkpt lat="45.92575" lon="6.38863">
        <ele>1091</ele>
        <time>2026-08-19T10:43:31.344Z</time>
      </trkpt>
      <trkpt lat="45.92573" lon="6.38861">
        <ele>1090</ele>
        <time>2026-08-19T10:43:32.344Z</time>
      </trkpt>
      <trkpt lat="45.92572" lon="6.38859">
        <ele>1090</ele>
        <time>2026-08-19T10:43:33.344Z</time>
      </trkpt>
      <trkpt lat="45.92571" lon="6.38857">
        <ele>1089</ele>
        <time>2026-08-19T10:43:34.344Z</time>
      </trkpt>
      <trkpt lat="45.92569" lon="6.38855">
        <ele>1088</ele>
        <time>2026-08-19T10:43:35.344Z</time>
      </trkpt>
      <trkpt lat="45.92568" lon="6.38852">
        <ele>1087</ele>
        <time>2026-08-19T10:43:36.344Z</time>
      </trkpt>
      <trkpt lat="45.92566" lon="6.3885">
        <ele>1086</ele>
        <time>2026-08-19T10:43:37.344Z</time>
      </trkpt>
      <trkpt lat="45.92565" lon="6.38848">
        <ele>1086</ele>
        <time>2026-08-19T10:43:38.344Z</time>
      </trkpt>
      <trkpt lat="45.92563" lon="6.38847">
        <ele>1086</ele>
        <time>2026-08-19T10:43:39.344Z</time>
      </trkpt>
      <trkpt lat="45.92562" lon="6.38845">
        <ele>1085</ele>
        <time>2026-08-19T10:43:40.344Z</time>
      </trkpt>
      <trkpt lat="45.9256" lon="6.38843">
        <ele>1085</ele>
        <time>2026-08-19T10:43:41.344Z</time>
      </trkpt>
      <trkpt lat="45.92558" lon="6.38841">
        <ele>1084</ele>
        <time>2026-08-19T10:43:42.344Z</time>
      </trkpt>
      <trkpt lat="45.92557" lon="6.38839">
        <ele>1084</ele>
        <time>2026-08-19T10:43:43.344Z</time>
      </trkpt>
      <trkpt lat="45.92555" lon="6.38837">
        <ele>1083</ele>
        <time>2026-08-19T10:43:44.344Z</time>
      </trkpt>
      <trkpt lat="45.92553" lon="6.38835">
        <ele>1083</ele>
        <time>2026-08-19T10:43:45.344Z</time>
      </trkpt>
      <trkpt lat="45.92552" lon="6.38833">
        <ele>1083</ele>
        <time>2026-08-19T10:43:46.344Z</time>
      </trkpt>
      <trkpt lat="45.9255" lon="6.38831">
        <ele>1082</ele>
        <time>2026-08-19T10:43:47.344Z</time>
      </trkpt>
      <trkpt lat="45.92548" lon="6.38829">
        <ele>1082</ele>
        <time>2026-08-19T10:43:48.344Z</time>
      </trkpt>
      <trkpt lat="45.92547" lon="6.38827">
        <ele>1082</ele>
        <time>2026-08-19T10:43:49.344Z</time>
      </trkpt>
      <trkpt lat="45.92545" lon="6.38825">
        <ele>1082</ele>
        <time>2026-08-19T10:43:50.344Z</time>
      </trkpt>
      <trkpt lat="45.92543" lon="6.38823">
        <ele>1083</ele>
        <time>2026-08-19T10:43:51.344Z</time>
      </trkpt>
      <trkpt lat="45.92542" lon="6.38821">
        <ele>1083</ele>
        <time>2026-08-19T10:43:52.344Z</time>
      </trkpt>
      <trkpt lat="45.9254" lon="6.38819">
        <ele>1083</ele>
        <time>2026-08-19T10:43:53.344Z</time>
      </trkpt>
      <trkpt lat="45.92539" lon="6.38816">
        <ele>1083</ele>
        <time>2026-08-19T10:43:54.344Z</time>
      </trkpt>
      <trkpt lat="45.92537" lon="6.38814">
        <ele>1083</ele>
        <time>2026-08-19T10:43:55.344Z</time>
      </trkpt>
      <trkpt lat="45.92535" lon="6.38813">
        <ele>1083</ele>
        <time>2026-08-19T10:43:56.344Z</time>
      </trkpt>
      <trkpt lat="45.92533" lon="6.38811">
        <ele>1082</ele>
        <time>2026-08-19T10:43:57.344Z</time>
      </trkpt>
      <trkpt lat="45.92532" lon="6.38809">
        <ele>1082</ele>
        <time>2026-08-19T10:43:58.344Z</time>
      </trkpt>
      <trkpt lat="45.9253" lon="6.38807">
        <ele>1082</ele>
        <time>2026-08-19T10:43:59.344Z</time>
      </trkpt>
      <trkpt lat="45.92529" lon="6.38804">
        <ele>1081</ele>
        <time>2026-08-19T10:44:00.344Z</time>
      </trkpt>
      <trkpt lat="45.92528" lon="6.38802">
        <ele>1081</ele>
        <time>2026-08-19T10:44:01.344Z</time>
      </trkpt>
      <trkpt lat="45.92526" lon="6.388">
        <ele>1080</ele>
        <time>2026-08-19T10:44:02.344Z</time>
      </trkpt>
      <trkpt lat="45.92525" lon="6.38798">
        <ele>1080</ele>
        <time>2026-08-19T10:44:03.344Z</time>
      </trkpt>
      <trkpt lat="45.92524" lon="6.38796">
        <ele>1079</ele>
        <time>2026-08-19T10:44:04.344Z</time>
      </trkpt>
      <trkpt lat="45.92522" lon="6.38793">
        <ele>1078</ele>
        <time>2026-08-19T10:44:05.344Z</time>
      </trkpt>
      <trkpt lat="45.92521" lon="6.38791">
        <ele>1078</ele>
        <time>2026-08-19T10:44:06.344Z</time>
      </trkpt>
      <trkpt lat="45.9252" lon="6.38789">
        <ele>1078</ele>
        <time>2026-08-19T10:44:07.344Z</time>
      </trkpt>
      <trkpt lat="45.92518" lon="6.38786">
        <ele>1078</ele>
        <time>2026-08-19T10:44:08.344Z</time>
      </trkpt>
      <trkpt lat="45.92517" lon="6.38784">
        <ele>1077</ele>
        <time>2026-08-19T10:44:09.344Z</time>
      </trkpt>
      <trkpt lat="45.92516" lon="6.38781">
        <ele>1076</ele>
        <time>2026-08-19T10:44:10.344Z</time>
      </trkpt>
      <trkpt lat="45.92515" lon="6.38779">
        <ele>1075</ele>
        <time>2026-08-19T10:44:11.344Z</time>
      </trkpt>
      <trkpt lat="45.92514" lon="6.38777">
        <ele>1075</ele>
        <time>2026-08-19T10:44:12.344Z</time>
      </trkpt>
      <trkpt lat="45.92513" lon="6.38774">
        <ele>1074</ele>
        <time>2026-08-19T10:44:13.345Z</time>
      </trkpt>
      <trkpt lat="45.92511" lon="6.38772">
        <ele>1073</ele>
        <time>2026-08-19T10:44:14.344Z</time>
      </trkpt>
      <trkpt lat="45.9251" lon="6.3877">
        <ele>1073</ele>
        <time>2026-08-19T10:44:15.345Z</time>
      </trkpt>
      <trkpt lat="45.92509" lon="6.38767">
        <ele>1072</ele>
        <time>2026-08-19T10:44:16.344Z</time>
      </trkpt>
      <trkpt lat="45.92508" lon="6.38766">
        <ele>1071</ele>
        <time>2026-08-19T10:44:17.344Z</time>
      </trkpt>
      <trkpt lat="45.92506" lon="6.38763">
        <ele>1070</ele>
        <time>2026-08-19T10:44:18.344Z</time>
      </trkpt>
      <trkpt lat="45.92505" lon="6.38762">
        <ele>1070</ele>
        <time>2026-08-19T10:44:19.344Z</time>
      </trkpt>
      <trkpt lat="45.92504" lon="6.3876">
        <ele>1069</ele>
        <time>2026-08-19T10:44:20.344Z</time>
      </trkpt>
      <trkpt lat="45.92502" lon="6.38758">
        <ele>1068</ele>
        <time>2026-08-19T10:44:21.344Z</time>
      </trkpt>
      <trkpt lat="45.92501" lon="6.38757">
        <ele>1068</ele>
        <time>2026-08-19T10:44:22.344Z</time>
      </trkpt>
      <trkpt lat="45.92499" lon="6.38755">
        <ele>1067</ele>
        <time>2026-08-19T10:44:23.344Z</time>
      </trkpt>
      <trkpt lat="45.92497" lon="6.38754">
        <ele>1067</ele>
        <time>2026-08-19T10:44:24.344Z</time>
      </trkpt>
      <trkpt lat="45.92496" lon="6.38753">
        <ele>1067</ele>
        <time>2026-08-19T10:44:25.344Z</time>
      </trkpt>
      <trkpt lat="45.92494" lon="6.38752">
        <ele>1067</ele>
        <time>2026-08-19T10:44:26.344Z</time>
      </trkpt>
      <trkpt lat="45.92492" lon="6.38751">
        <ele>1068</ele>
        <time>2026-08-19T10:44:27.344Z</time>
      </trkpt>
      <trkpt lat="45.92491" lon="6.38749">
        <ele>1068</ele>
        <time>2026-08-19T10:44:28.344Z</time>
      </trkpt>
      <trkpt lat="45.9249" lon="6.38748">
        <ele>1068</ele>
        <time>2026-08-19T10:44:29.344Z</time>
      </trkpt>
      <trkpt lat="45.92489" lon="6.38745">
        <ele>1068</ele>
        <time>2026-08-19T10:44:30.344Z</time>
      </trkpt>
      <trkpt lat="45.92488" lon="6.38742">
        <ele>1067</ele>
        <time>2026-08-19T10:44:31.344Z</time>
      </trkpt>
      <trkpt lat="45.92486" lon="6.38739">
        <ele>1067</ele>
        <time>2026-08-19T10:44:32.344Z</time>
      </trkpt>
      <trkpt lat="45.92485" lon="6.38738">
        <ele>1067</ele>
        <time>2026-08-19T10:44:33.344Z</time>
      </trkpt>
      <trkpt lat="45.92483" lon="6.38736">
        <ele>1067</ele>
        <time>2026-08-19T10:44:34.344Z</time>
      </trkpt>
      <trkpt lat="45.92482" lon="6.38734">
        <ele>1066</ele>
        <time>2026-08-19T10:44:35.344Z</time>
      </trkpt>
      <trkpt lat="45.9248" lon="6.38731">
        <ele>1066</ele>
        <time>2026-08-19T10:44:36.344Z</time>
      </trkpt>
      <trkpt lat="45.92479" lon="6.38729">
        <ele>1065</ele>
        <time>2026-08-19T10:44:37.344Z</time>
      </trkpt>
      <trkpt lat="45.92478" lon="6.38727">
        <ele>1065</ele>
        <time>2026-08-19T10:44:38.344Z</time>
      </trkpt>
      <trkpt lat="45.92476" lon="6.38725">
        <ele>1065</ele>
        <time>2026-08-19T10:44:39.344Z</time>
      </trkpt>
      <trkpt lat="45.92475" lon="6.38723">
        <ele>1065</ele>
        <time>2026-08-19T10:44:40.344Z</time>
      </trkpt>
      <trkpt lat="45.92473" lon="6.38721">
        <ele>1065</ele>
        <time>2026-08-19T10:44:41.344Z</time>
      </trkpt>
      <trkpt lat="45.92472" lon="6.38719">
        <ele>1065</ele>
        <time>2026-08-19T10:44:42.345Z</time>
      </trkpt>
      <trkpt lat="45.9247" lon="6.38717">
        <ele>1064</ele>
        <time>2026-08-19T10:44:43.344Z</time>
      </trkpt>
      <trkpt lat="45.92469" lon="6.38715">
        <ele>1064</ele>
        <time>2026-08-19T10:44:44.344Z</time>
      </trkpt>
      <trkpt lat="45.92467" lon="6.38714">
        <ele>1064</ele>
        <time>2026-08-19T10:44:45.344Z</time>
      </trkpt>
      <trkpt lat="45.92465" lon="6.38713">
        <ele>1064</ele>
        <time>2026-08-19T10:44:46.344Z</time>
      </trkpt>
      <trkpt lat="45.92463" lon="6.38712">
        <ele>1064</ele>
        <time>2026-08-19T10:44:47.344Z</time>
      </trkpt>
      <trkpt lat="45.92462" lon="6.38711">
        <ele>1064</ele>
        <time>2026-08-19T10:44:48.344Z</time>
      </trkpt>
      <trkpt lat="45.9246" lon="6.38709">
        <ele>1064</ele>
        <time>2026-08-19T10:44:49.344Z</time>
      </trkpt>
      <trkpt lat="45.92458" lon="6.38708">
        <ele>1064</ele>
        <time>2026-08-19T10:44:50.344Z</time>
      </trkpt>
      <trkpt lat="45.92456" lon="6.38706">
        <ele>1064</ele>
        <time>2026-08-19T10:44:51.344Z</time>
      </trkpt>
      <trkpt lat="45.92454" lon="6.38704">
        <ele>1063</ele>
        <time>2026-08-19T10:44:52.344Z</time>
      </trkpt>
      <trkpt lat="45.92453" lon="6.38702">
        <ele>1063</ele>
        <time>2026-08-19T10:44:53.344Z</time>
      </trkpt>
      <trkpt lat="45.92451" lon="6.387">
        <ele>1063</ele>
        <time>2026-08-19T10:44:54.344Z</time>
      </trkpt>
      <trkpt lat="45.9245" lon="6.38697">
        <ele>1062</ele>
        <time>2026-08-19T10:44:55.344Z</time>
      </trkpt>
      <trkpt lat="45.92449" lon="6.38693">
        <ele>1062</ele>
        <time>2026-08-19T10:44:56.344Z</time>
      </trkpt>
      <trkpt lat="45.92448" lon="6.38691">
        <ele>1061</ele>
        <time>2026-08-19T10:44:57.344Z</time>
      </trkpt>
      <trkpt lat="45.92446" lon="6.3869">
        <ele>1061</ele>
        <time>2026-08-19T10:44:58.344Z</time>
      </trkpt>
      <trkpt lat="45.92444" lon="6.38687">
        <ele>1061</ele>
        <time>2026-08-19T10:44:59.344Z</time>
      </trkpt>
      <trkpt lat="45.92442" lon="6.38685">
        <ele>1061</ele>
        <time>2026-08-19T10:45:00.344Z</time>
      </trkpt>
      <trkpt lat="45.9244" lon="6.38683">
        <ele>1061</ele>
        <time>2026-08-19T10:45:01.344Z</time>
      </trkpt>
      <trkpt lat="45.92438" lon="6.38681">
        <ele>1060</ele>
        <time>2026-08-19T10:45:02.344Z</time>
      </trkpt>
      <trkpt lat="45.92436" lon="6.38678">
        <ele>1060</ele>
        <time>2026-08-19T10:45:03.344Z</time>
      </trkpt>
      <trkpt lat="45.92434" lon="6.38677">
        <ele>1060</ele>
        <time>2026-08-19T10:45:04.344Z</time>
      </trkpt>
      <trkpt lat="45.92433" lon="6.38675">
        <ele>1060</ele>
        <time>2026-08-19T10:45:05.344Z</time>
      </trkpt>
      <trkpt lat="45.92431" lon="6.38673">
        <ele>1059</ele>
        <time>2026-08-19T10:45:06.344Z</time>
      </trkpt>
      <trkpt lat="45.9243" lon="6.38672">
        <ele>1058</ele>
        <time>2026-08-19T10:45:07.344Z</time>
      </trkpt>
      <trkpt lat="45.92428" lon="6.38669">
        <ele>1057</ele>
        <time>2026-08-19T10:45:08.344Z</time>
      </trkpt>
      <trkpt lat="45.92426" lon="6.38667">
        <ele>1056</ele>
        <time>2026-08-19T10:45:09.344Z</time>
      </trkpt>
      <trkpt lat="45.92424" lon="6.38665">
        <ele>1056</ele>
        <time>2026-08-19T10:45:10.344Z</time>
      </trkpt>
      <trkpt lat="45.92423" lon="6.38664">
        <ele>1055</ele>
        <time>2026-08-19T10:45:11.344Z</time>
      </trkpt>
      <trkpt lat="45.92421" lon="6.38662">
        <ele>1055</ele>
        <time>2026-08-19T10:45:12.344Z</time>
      </trkpt>
      <trkpt lat="45.92419" lon="6.38659">
        <ele>1054</ele>
        <time>2026-08-19T10:45:13.344Z</time>
      </trkpt>
      <trkpt lat="45.92417" lon="6.38656">
        <ele>1054</ele>
        <time>2026-08-19T10:45:14.344Z</time>
      </trkpt>
      <trkpt lat="45.92416" lon="6.38654">
        <ele>1053</ele>
        <time>2026-08-19T10:45:15.344Z</time>
      </trkpt>
      <trkpt lat="45.92414" lon="6.38652">
        <ele>1052</ele>
        <time>2026-08-19T10:45:16.345Z</time>
      </trkpt>
      <trkpt lat="45.92412" lon="6.3865">
        <ele>1052</ele>
        <time>2026-08-19T10:45:17.344Z</time>
      </trkpt>
      <trkpt lat="45.9241" lon="6.38648">
        <ele>1052</ele>
        <time>2026-08-19T10:45:18.344Z</time>
      </trkpt>
      <trkpt lat="45.92408" lon="6.38646">
        <ele>1052</ele>
        <time>2026-08-19T10:45:19.344Z</time>
      </trkpt>
      <trkpt lat="45.92405" lon="6.38645">
        <ele>1052</ele>
        <time>2026-08-19T10:45:20.344Z</time>
      </trkpt>
      <trkpt lat="45.92403" lon="6.38643">
        <ele>1052</ele>
        <time>2026-08-19T10:45:21.344Z</time>
      </trkpt>
      <trkpt lat="45.92401" lon="6.38641">
        <ele>1052</ele>
        <time>2026-08-19T10:45:22.344Z</time>
      </trkpt>
      <trkpt lat="45.92399" lon="6.38639">
        <ele>1051</ele>
        <time>2026-08-19T10:45:23.344Z</time>
      </trkpt>
      <trkpt lat="45.92397" lon="6.38638">
        <ele>1051</ele>
        <time>2026-08-19T10:45:24.344Z</time>
      </trkpt>
      <trkpt lat="45.92396" lon="6.38636">
        <ele>1051</ele>
        <time>2026-08-19T10:45:25.344Z</time>
      </trkpt>
      <trkpt lat="45.92394" lon="6.38635">
        <ele>1051</ele>
        <time>2026-08-19T10:45:26.344Z</time>
      </trkpt>
      <trkpt lat="45.92392" lon="6.38633">
        <ele>1051</ele>
        <time>2026-08-19T10:45:27.344Z</time>
      </trkpt>
      <trkpt lat="45.9239" lon="6.38632">
        <ele>1050</ele>
        <time>2026-08-19T10:45:28.344Z</time>
      </trkpt>
      <trkpt lat="45.92388" lon="6.3863">
        <ele>1050</ele>
        <time>2026-08-19T10:45:29.344Z</time>
      </trkpt>
      <trkpt lat="45.92386" lon="6.38627">
        <ele>1050</ele>
        <time>2026-08-19T10:45:30.344Z</time>
      </trkpt>
      <trkpt lat="45.92384" lon="6.38625">
        <ele>1049</ele>
        <time>2026-08-19T10:45:31.344Z</time>
      </trkpt>
      <trkpt lat="45.92382" lon="6.38623">
        <ele>1049</ele>
        <time>2026-08-19T10:45:32.344Z</time>
      </trkpt>
      <trkpt lat="45.92381" lon="6.38621">
        <ele>1048</ele>
        <time>2026-08-19T10:45:33.344Z</time>
      </trkpt>
      <trkpt lat="45.92379" lon="6.38618">
        <ele>1048</ele>
        <time>2026-08-19T10:45:34.344Z</time>
      </trkpt>
      <trkpt lat="45.92377" lon="6.38615">
        <ele>1047</ele>
        <time>2026-08-19T10:45:35.344Z</time>
      </trkpt>
      <trkpt lat="45.92375" lon="6.38613">
        <ele>1047</ele>
        <time>2026-08-19T10:45:36.344Z</time>
      </trkpt>
      <trkpt lat="45.92373" lon="6.38611">
        <ele>1046</ele>
        <time>2026-08-19T10:45:37.344Z</time>
      </trkpt>
      <trkpt lat="45.92371" lon="6.38608">
        <ele>1046</ele>
        <time>2026-08-19T10:45:38.344Z</time>
      </trkpt>
      <trkpt lat="45.92369" lon="6.38606">
        <ele>1046</ele>
        <time>2026-08-19T10:45:39.344Z</time>
      </trkpt>
      <trkpt lat="45.92368" lon="6.38603">
        <ele>1045</ele>
        <time>2026-08-19T10:45:40.344Z</time>
      </trkpt>
      <trkpt lat="45.92366" lon="6.38601">
        <ele>1045</ele>
        <time>2026-08-19T10:45:41.344Z</time>
      </trkpt>
      <trkpt lat="45.92364" lon="6.38598">
        <ele>1045</ele>
        <time>2026-08-19T10:45:42.344Z</time>
      </trkpt>
      <trkpt lat="45.92363" lon="6.38595">
        <ele>1044</ele>
        <time>2026-08-19T10:45:43.344Z</time>
      </trkpt>
      <trkpt lat="45.92362" lon="6.38592">
        <ele>1044</ele>
        <time>2026-08-19T10:45:44.344Z</time>
      </trkpt>
      <trkpt lat="45.9236" lon="6.3859">
        <ele>1044</ele>
        <time>2026-08-19T10:45:45.344Z</time>
      </trkpt>
      <trkpt lat="45.92359" lon="6.38587">
        <ele>1044</ele>
        <time>2026-08-19T10:45:46.344Z</time>
      </trkpt>
      <trkpt lat="45.92357" lon="6.38587">
        <ele>1044</ele>
        <time>2026-08-19T10:45:47.344Z</time>
      </trkpt>
      <trkpt lat="45.92355" lon="6.38586">
        <ele>1044</ele>
        <time>2026-08-19T10:45:48.344Z</time>
      </trkpt>
      <trkpt lat="45.92353" lon="6.38585">
        <ele>1043</ele>
        <time>2026-08-19T10:45:49.344Z</time>
      </trkpt>
      <trkpt lat="45.92351" lon="6.38584">
        <ele>1043</ele>
        <time>2026-08-19T10:45:50.344Z</time>
      </trkpt>
      <trkpt lat="45.92348" lon="6.38582">
        <ele>1042</ele>
        <time>2026-08-19T10:45:51.344Z</time>
      </trkpt>
      <trkpt lat="45.92347" lon="6.38581">
        <ele>1041</ele>
        <time>2026-08-19T10:45:52.344Z</time>
      </trkpt>
      <trkpt lat="45.92346" lon="6.3858">
        <ele>1039</ele>
        <time>2026-08-19T10:45:53.344Z</time>
      </trkpt>
      <trkpt lat="45.92346" lon="6.38577">
        <ele>1038</ele>
        <time>2026-08-19T10:45:54.345Z</time>
      </trkpt>
      <trkpt lat="45.92344" lon="6.38576">
        <ele>1037</ele>
        <time>2026-08-19T10:45:55.344Z</time>
      </trkpt>
      <trkpt lat="45.92343" lon="6.38576">
        <ele>1036</ele>
        <time>2026-08-19T10:45:56.344Z</time>
      </trkpt>
      <trkpt lat="45.92341" lon="6.38575">
        <ele>1035</ele>
        <time>2026-08-19T10:45:57.344Z</time>
      </trkpt>
      <trkpt lat="45.92338" lon="6.38575">
        <ele>1035</ele>
        <time>2026-08-19T10:45:58.344Z</time>
      </trkpt>
      <trkpt lat="45.92337" lon="6.38574">
        <ele>1034</ele>
        <time>2026-08-19T10:45:59.344Z</time>
      </trkpt>
      <trkpt lat="45.92334" lon="6.38574">
        <ele>1034</ele>
        <time>2026-08-19T10:46:00.344Z</time>
      </trkpt>
      <trkpt lat="45.92332" lon="6.38574">
        <ele>1033</ele>
        <time>2026-08-19T10:46:01.344Z</time>
      </trkpt>
      <trkpt lat="45.9233" lon="6.38573">
        <ele>1032</ele>
        <time>2026-08-19T10:46:02.344Z</time>
      </trkpt>
      <trkpt lat="45.92328" lon="6.38572">
        <ele>1032</ele>
        <time>2026-08-19T10:46:03.344Z</time>
      </trkpt>
      <trkpt lat="45.92327" lon="6.38572">
        <ele>1031</ele>
        <time>2026-08-19T10:46:04.344Z</time>
      </trkpt>
      <trkpt lat="45.92325" lon="6.38571">
        <ele>1031</ele>
        <time>2026-08-19T10:46:05.344Z</time>
      </trkpt>
      <trkpt lat="45.92325" lon="6.38571">
        <ele>1030</ele>
        <time>2026-08-19T10:46:06.344Z</time>
      </trkpt>
      <trkpt lat="45.92324" lon="6.38571">
        <ele>1030</ele>
        <time>2026-08-19T10:46:07.344Z</time>
      </trkpt>
      <trkpt lat="45.92324" lon="6.3857">
        <ele>1030</ele>
        <time>2026-08-19T10:46:08.344Z</time>
      </trkpt>
      <trkpt lat="45.92324" lon="6.3857">
        <ele>1029</ele>
        <time>2026-08-19T10:46:09.344Z</time>
      </trkpt>
      <trkpt lat="45.92324" lon="6.38571">
        <ele>1028</ele>
        <time>2026-08-19T10:46:10.344Z</time>
      </trkpt>
      <trkpt lat="45.92324" lon="6.38571">
        <ele>1028</ele>
        <time>2026-08-19T10:46:11.344Z</time>
      </trkpt>
      <trkpt lat="45.92324" lon="6.3857">
        <ele>1028</ele>
        <time>2026-08-19T10:46:12.344Z</time>
      </trkpt>
      <trkpt lat="45.92323" lon="6.3857">
        <ele>1027</ele>
        <time>2026-08-19T10:46:13.344Z</time>
      </trkpt>
      <trkpt lat="45.92323" lon="6.38568">
        <ele>1027</ele>
        <time>2026-08-19T10:46:14.344Z</time>
      </trkpt>
      <trkpt lat="45.92323" lon="6.38567">
        <ele>1026</ele>
        <time>2026-08-19T10:46:15.344Z</time>
      </trkpt>
      <trkpt lat="45.92322" lon="6.38565">
        <ele>1025</ele>
        <time>2026-08-19T10:46:16.344Z</time>
      </trkpt>
      <trkpt lat="45.92322" lon="6.38564">
        <ele>1025</ele>
        <time>2026-08-19T10:46:17.344Z</time>
      </trkpt>
      <trkpt lat="45.92322" lon="6.38562">
        <ele>1024</ele>
        <time>2026-08-19T10:46:18.344Z</time>
      </trkpt>
      <trkpt lat="45.92321" lon="6.38559">
        <ele>1024</ele>
        <time>2026-08-19T10:46:19.344Z</time>
      </trkpt>
      <trkpt lat="45.92321" lon="6.38558">
        <ele>1024</ele>
        <time>2026-08-19T10:46:20.344Z</time>
      </trkpt>
      <trkpt lat="45.92321" lon="6.38556">
        <ele>1024</ele>
        <time>2026-08-19T10:46:21.344Z</time>
      </trkpt>
      <trkpt lat="45.9232" lon="6.38554">
        <ele>1024</ele>
        <time>2026-08-19T10:46:22.344Z</time>
      </trkpt>
      <trkpt lat="45.9232" lon="6.38552">
        <ele>1024</ele>
        <time>2026-08-19T10:46:23.344Z</time>
      </trkpt>
      <trkpt lat="45.92319" lon="6.38549">
        <ele>1025</ele>
        <time>2026-08-19T10:46:24.344Z</time>
      </trkpt>
      <trkpt lat="45.92318" lon="6.38547">
        <ele>1025</ele>
        <time>2026-08-19T10:46:25.344Z</time>
      </trkpt>
      <trkpt lat="45.92317" lon="6.38545">
        <ele>1026</ele>
        <time>2026-08-19T10:46:26.344Z</time>
      </trkpt>
      <trkpt lat="45.92317" lon="6.38543">
        <ele>1026</ele>
        <time>2026-08-19T10:46:27.344Z</time>
      </trkpt>
      <trkpt lat="45.92318" lon="6.38543">
        <ele>1027</ele>
        <time>2026-08-19T10:46:28.344Z</time>
      </trkpt>
      <trkpt lat="45.92318" lon="6.38543">
        <ele>1027</ele>
        <time>2026-08-19T10:46:29.344Z</time>
      </trkpt>
      <trkpt lat="45.92319" lon="6.38543">
        <ele>1027</ele>
        <time>2026-08-19T10:46:30.344Z</time>
      </trkpt>
      <trkpt lat="45.9232" lon="6.38542">
        <ele>1028</ele>
        <time>2026-08-19T10:46:31.344Z</time>
      </trkpt>
      <trkpt lat="45.92321" lon="6.38541">
        <ele>1028</ele>
        <time>2026-08-19T10:46:32.344Z</time>
      </trkpt>
      <trkpt lat="45.92321" lon="6.38541">
        <ele>1029</ele>
        <time>2026-08-19T10:46:33.344Z</time>
      </trkpt>
      <trkpt lat="45.92322" lon="6.38541">
        <ele>1029</ele>
        <time>2026-08-19T10:46:34.344Z</time>
      </trkpt>
      <trkpt lat="45.92323" lon="6.38541">
        <ele>1029</ele>
        <time>2026-08-19T10:46:35.344Z</time>
      </trkpt>
      <trkpt lat="45.92323" lon="6.38541">
        <ele>1030</ele>
        <time>2026-08-19T10:46:36.344Z</time>
      </trkpt>
      <trkpt lat="45.92323" lon="6.38541">
        <ele>1030</ele>
        <time>2026-08-19T10:46:37.344Z</time>
      </trkpt>
      <trkpt lat="45.92323" lon="6.38541">
        <ele>1031</ele>
        <time>2026-08-19T10:46:38.344Z</time>
      </trkpt>
      <trkpt lat="45.92323" lon="6.38541">
        <ele>1031</ele>
        <time>2026-08-19T10:46:39.344Z</time>
      </trkpt>
      <trkpt lat="45.92323" lon="6.3854">
        <ele>1031</ele>
        <time>2026-08-19T10:46:40.344Z</time>
      </trkpt>
      <trkpt lat="45.92323" lon="6.3854">
        <ele>1031</ele>
        <time>2026-08-19T10:46:41.344Z</time>
      </trkpt>
      <trkpt lat="45.92323" lon="6.38539">
        <ele>1031</ele>
        <time>2026-08-19T10:46:42.344Z</time>
      </trkpt>
      <trkpt lat="45.92323" lon="6.38538">
        <ele>1032</ele>
        <time>2026-08-19T10:46:43.344Z</time>
      </trkpt>
      <trkpt lat="45.92323" lon="6.38537">
        <ele>1032</ele>
        <time>2026-08-19T10:46:44.344Z</time>
      </trkpt>
      <trkpt lat="45.92323" lon="6.38535">
        <ele>1032</ele>
        <time>2026-08-19T10:46:45.344Z</time>
      </trkpt>
      <trkpt lat="45.92323" lon="6.38534">
        <ele>1032</ele>
        <time>2026-08-19T10:46:46.344Z</time>
      </trkpt>
      <trkpt lat="45.92324" lon="6.38534">
        <ele>1032</ele>
        <time>2026-08-19T10:46:47.344Z</time>
      </trkpt>
      <trkpt lat="45.92324" lon="6.38533">
        <ele>1032</ele>
        <time>2026-08-19T10:46:48.344Z</time>
      </trkpt>
      <trkpt lat="45.92324" lon="6.38532">
        <ele>1031</ele>
        <time>2026-08-19T10:46:49.344Z</time>
      </trkpt>
      <trkpt lat="45.92324" lon="6.38532">
        <ele>1031</ele>
        <time>2026-08-19T10:46:50.344Z</time>
      </trkpt>
      <trkpt lat="45.92323" lon="6.38531">
        <ele>1031</ele>
        <time>2026-08-19T10:46:51.344Z</time>
      </trkpt>
      <trkpt lat="45.92323" lon="6.3853">
        <ele>1031</ele>
        <time>2026-08-19T10:46:52.344Z</time>
      </trkpt>
      <trkpt lat="45.92323" lon="6.38529">
        <ele>1032</ele>
        <time>2026-08-19T10:46:53.345Z</time>
      </trkpt>
      <trkpt lat="45.92323" lon="6.38529">
        <ele>1032</ele>
        <time>2026-08-19T10:46:54.344Z</time>
      </trkpt>
      <trkpt lat="45.92324" lon="6.38528">
        <ele>1032</ele>
        <time>2026-08-19T10:46:55.344Z</time>
      </trkpt>
      <trkpt lat="45.92324" lon="6.38527">
        <ele>1032</ele>
        <time>2026-08-19T10:46:56.344Z</time>
      </trkpt>
      <trkpt lat="45.92323" lon="6.38526">
        <ele>1032</ele>
        <time>2026-08-19T10:46:57.344Z</time>
      </trkpt>
      <trkpt lat="45.92323" lon="6.38525">
        <ele>1033</ele>
        <time>2026-08-19T10:46:58.344Z</time>
      </trkpt>
      <trkpt lat="45.92324" lon="6.38524">
        <ele>1033</ele>
        <time>2026-08-19T10:46:59.344Z</time>
      </trkpt>
      <trkpt lat="45.92324" lon="6.38523">
        <ele>1033</ele>
        <time>2026-08-19T10:47:00.344Z</time>
      </trkpt>
      <trkpt lat="45.92324" lon="6.38522">
        <ele>1033</ele>
        <time>2026-08-19T10:47:01.344Z</time>
      </trkpt>
      <trkpt lat="45.92324" lon="6.38521">
        <ele>1033</ele>
        <time>2026-08-19T10:47:02.344Z</time>
      </trkpt>
      <trkpt lat="45.92324" lon="6.3852">
        <ele>1032</ele>
        <time>2026-08-19T10:47:03.344Z</time>
      </trkpt>
      <trkpt lat="45.92325" lon="6.38519">
        <ele>1032</ele>
        <time>2026-08-19T10:47:04.344Z</time>
      </trkpt>
      <trkpt lat="45.92325" lon="6.38518">
        <ele>1032</ele>
        <time>2026-08-19T10:47:05.344Z</time>
      </trkpt>
      <trkpt lat="45.92326" lon="6.38517">
        <ele>1032</ele>
        <time>2026-08-19T10:47:06.344Z</time>
      </trkpt>
      <trkpt lat="45.92326" lon="6.38515">
        <ele>1031</ele>
        <time>2026-08-19T10:47:07.344Z</time>
      </trkpt>
      <trkpt lat="45.92326" lon="6.38514">
        <ele>1031</ele>
        <time>2026-08-19T10:47:08.344Z</time>
      </trkpt>
      <trkpt lat="45.92326" lon="6.38512">
        <ele>1030</ele>
        <time>2026-08-19T10:47:09.344Z</time>
      </trkpt>
      <trkpt lat="45.92326" lon="6.38511">
        <ele>1030</ele>
        <time>2026-08-19T10:47:10.344Z</time>
      </trkpt>
      <trkpt lat="45.92326" lon="6.3851">
        <ele>1030</ele>
        <time>2026-08-19T10:47:11.344Z</time>
      </trkpt>
      <trkpt lat="45.92325" lon="6.38509">
        <ele>1030</ele>
        <time>2026-08-19T10:47:12.345Z</time>
      </trkpt>
      <trkpt lat="45.92324" lon="6.38509">
        <ele>1030</ele>
        <time>2026-08-19T10:47:13.344Z</time>
      </trkpt>
      <trkpt lat="45.92323" lon="6.38507">
        <ele>1031</ele>
        <time>2026-08-19T10:47:14.344Z</time>
      </trkpt>
      <trkpt lat="45.92323" lon="6.38505">
        <ele>1031</ele>
        <time>2026-08-19T10:47:15.344Z</time>
      </trkpt>
      <trkpt lat="45.92323" lon="6.38503">
        <ele>1031</ele>
        <time>2026-08-19T10:47:16.344Z</time>
      </trkpt>
      <trkpt lat="45.92323" lon="6.38502">
        <ele>1031</ele>
        <time>2026-08-19T10:47:17.344Z</time>
      </trkpt>
      <trkpt lat="45.92323" lon="6.38502">
        <ele>1031</ele>
        <time>2026-08-19T10:47:18.344Z</time>
      </trkpt>
      <trkpt lat="45.92323" lon="6.38501">
        <ele>1031</ele>
        <time>2026-08-19T10:47:19.344Z</time>
      </trkpt>
      <trkpt lat="45.92323" lon="6.385">
        <ele>1032</ele>
        <time>2026-08-19T10:47:20.344Z</time>
      </trkpt>
      <trkpt lat="45.92322" lon="6.38499">
        <ele>1032</ele>
        <time>2026-08-19T10:47:21.344Z</time>
      </trkpt>
      <trkpt lat="45.92322" lon="6.38498">
        <ele>1033</ele>
        <time>2026-08-19T10:47:22.344Z</time>
      </trkpt>
      <trkpt lat="45.92322" lon="6.38497">
        <ele>1033</ele>
        <time>2026-08-19T10:47:23.344Z</time>
      </trkpt>
      <trkpt lat="45.92321" lon="6.38496">
        <ele>1033</ele>
        <time>2026-08-19T10:47:24.344Z</time>
      </trkpt>
      <trkpt lat="45.92321" lon="6.38495">
        <ele>1034</ele>
        <time>2026-08-19T10:47:25.344Z</time>
      </trkpt>
      <trkpt lat="45.92321" lon="6.38495">
        <ele>1034</ele>
        <time>2026-08-19T10:47:26.344Z</time>
      </trkpt>
      <trkpt lat="45.92321" lon="6.38494">
        <ele>1035</ele>
        <time>2026-08-19T10:47:27.344Z</time>
      </trkpt>
      <trkpt lat="45.92321" lon="6.38493">
        <ele>1035</ele>
        <time>2026-08-19T10:47:28.344Z</time>
      </trkpt>
      <trkpt lat="45.92321" lon="6.38492">
        <ele>1036</ele>
        <time>2026-08-19T10:47:29.344Z</time>
      </trkpt>
      <trkpt lat="45.92321" lon="6.38492">
        <ele>1036</ele>
        <time>2026-08-19T10:47:30.344Z</time>
      </trkpt>
      <trkpt lat="45.92321" lon="6.38491">
        <ele>1036</ele>
        <time>2026-08-19T10:47:31.344Z</time>
      </trkpt>
      <trkpt lat="45.9232" lon="6.3849">
        <ele>1037</ele>
        <time>2026-08-19T10:47:32.344Z</time>
      </trkpt>
      <trkpt lat="45.9232" lon="6.38488">
        <ele>1037</ele>
        <time>2026-08-19T10:47:33.344Z</time>
      </trkpt>
      <trkpt lat="45.92319" lon="6.38486">
        <ele>1038</ele>
        <time>2026-08-19T10:47:34.344Z</time>
      </trkpt>
      <trkpt lat="45.92318" lon="6.38484">
        <ele>1038</ele>
        <time>2026-08-19T10:47:35.344Z</time>
      </trkpt>
      <trkpt lat="45.92317" lon="6.38482">
        <ele>1039</ele>
        <time>2026-08-19T10:47:36.344Z</time>
      </trkpt>
      <trkpt lat="45.92316" lon="6.3848">
        <ele>1039</ele>
        <time>2026-08-19T10:47:37.344Z</time>
      </trkpt>
      <trkpt lat="45.92315" lon="6.38478">
        <ele>1040</ele>
        <time>2026-08-19T10:47:38.344Z</time>
      </trkpt>
      <trkpt lat="45.92313" lon="6.38476">
        <ele>1040</ele>
        <time>2026-08-19T10:47:39.344Z</time>
      </trkpt>
      <trkpt lat="45.92312" lon="6.38473">
        <ele>1041</ele>
        <time>2026-08-19T10:47:40.344Z</time>
      </trkpt>
      <trkpt lat="45.92312" lon="6.38471">
        <ele>1041</ele>
        <time>2026-08-19T10:47:41.344Z</time>
      </trkpt>
      <trkpt lat="45.92311" lon="6.38469">
        <ele>1041</ele>
        <time>2026-08-19T10:47:42.344Z</time>
      </trkpt>
      <trkpt lat="45.9231" lon="6.38467">
        <ele>1041</ele>
        <time>2026-08-19T10:47:43.344Z</time>
      </trkpt>
      <trkpt lat="45.92309" lon="6.38466">
        <ele>1041</ele>
        <time>2026-08-19T10:47:44.344Z</time>
      </trkpt>
      <trkpt lat="45.92309" lon="6.38465">
        <ele>1041</ele>
        <time>2026-08-19T10:47:45.344Z</time>
      </trkpt>
      <trkpt lat="45.92307" lon="6.38464">
        <ele>1042</ele>
        <time>2026-08-19T10:47:46.344Z</time>
      </trkpt>
      <trkpt lat="45.92306" lon="6.38463">
        <ele>1042</ele>
        <time>2026-08-19T10:47:47.344Z</time>
      </trkpt>
      <trkpt lat="45.92304" lon="6.38461">
        <ele>1043</ele>
        <time>2026-08-19T10:47:48.344Z</time>
      </trkpt>
      <trkpt lat="45.92303" lon="6.38459">
        <ele>1043</ele>
        <time>2026-08-19T10:47:49.344Z</time>
      </trkpt>
      <trkpt lat="45.92301" lon="6.38456">
        <ele>1044</ele>
        <time>2026-08-19T10:47:50.344Z</time>
      </trkpt>
      <trkpt lat="45.923" lon="6.38454">
        <ele>1044</ele>
        <time>2026-08-19T10:47:51.344Z</time>
      </trkpt>
      <trkpt lat="45.92298" lon="6.38452">
        <ele>1045</ele>
        <time>2026-08-19T10:47:52.344Z</time>
      </trkpt>
      <trkpt lat="45.92297" lon="6.3845">
        <ele>1045</ele>
        <time>2026-08-19T10:47:53.344Z</time>
      </trkpt>
      <trkpt lat="45.92296" lon="6.38448">
        <ele>1046</ele>
        <time>2026-08-19T10:47:54.344Z</time>
      </trkpt>
      <trkpt lat="45.92295" lon="6.38447">
        <ele>1046</ele>
        <time>2026-08-19T10:47:55.344Z</time>
      </trkpt>
      <trkpt lat="45.92293" lon="6.38445">
        <ele>1045</ele>
        <time>2026-08-19T10:47:56.344Z</time>
      </trkpt>
      <trkpt lat="45.92292" lon="6.38442">
        <ele>1045</ele>
        <time>2026-08-19T10:47:57.344Z</time>
      </trkpt>
      <trkpt lat="45.92291" lon="6.38439">
        <ele>1045</ele>
        <time>2026-08-19T10:47:58.344Z</time>
      </trkpt>
      <trkpt lat="45.92289" lon="6.38436">
        <ele>1045</ele>
        <time>2026-08-19T10:47:59.344Z</time>
      </trkpt>
      <trkpt lat="45.92288" lon="6.38433">
        <ele>1045</ele>
        <time>2026-08-19T10:48:00.344Z</time>
      </trkpt>
      <trkpt lat="45.92287" lon="6.38431">
        <ele>1045</ele>
        <time>2026-08-19T10:48:01.344Z</time>
      </trkpt>
      <trkpt lat="45.92286" lon="6.38428">
        <ele>1044</ele>
        <time>2026-08-19T10:48:02.344Z</time>
      </trkpt>
      <trkpt lat="45.92285" lon="6.38426">
        <ele>1044</ele>
        <time>2026-08-19T10:48:03.344Z</time>
      </trkpt>
      <trkpt lat="45.92284" lon="6.38425">
        <ele>1044</ele>
        <time>2026-08-19T10:48:04.344Z</time>
      </trkpt>
      <trkpt lat="45.92283" lon="6.38423">
        <ele>1044</ele>
        <time>2026-08-19T10:48:05.344Z</time>
      </trkpt>
      <trkpt lat="45.92282" lon="6.38422">
        <ele>1044</ele>
        <time>2026-08-19T10:48:06.344Z</time>
      </trkpt>
      <trkpt lat="45.92281" lon="6.3842">
        <ele>1044</ele>
        <time>2026-08-19T10:48:07.344Z</time>
      </trkpt>
      <trkpt lat="45.9228" lon="6.38418">
        <ele>1044</ele>
        <time>2026-08-19T10:48:08.344Z</time>
      </trkpt>
      <trkpt lat="45.92279" lon="6.38416">
        <ele>1044</ele>
        <time>2026-08-19T10:48:09.344Z</time>
      </trkpt>
      <trkpt lat="45.92278" lon="6.38414">
        <ele>1044</ele>
        <time>2026-08-19T10:48:10.344Z</time>
      </trkpt>
      <trkpt lat="45.92277" lon="6.38413">
        <ele>1044</ele>
        <time>2026-08-19T10:48:11.344Z</time>
      </trkpt>
      <trkpt lat="45.92275" lon="6.38411">
        <ele>1044</ele>
        <time>2026-08-19T10:48:12.344Z</time>
      </trkpt>
      <trkpt lat="45.92274" lon="6.3841">
        <ele>1044</ele>
        <time>2026-08-19T10:48:13.344Z</time>
      </trkpt>
      <trkpt lat="45.92273" lon="6.38409">
        <ele>1045</ele>
        <time>2026-08-19T10:48:14.345Z</time>
      </trkpt>
      <trkpt lat="45.92272" lon="6.38406">
        <ele>1045</ele>
        <time>2026-08-19T10:48:15.344Z</time>
      </trkpt>
      <trkpt lat="45.92272" lon="6.38404">
        <ele>1045</ele>
        <time>2026-08-19T10:48:16.344Z</time>
      </trkpt>
      <trkpt lat="45.92271" lon="6.38401">
        <ele>1045</ele>
        <time>2026-08-19T10:48:17.344Z</time>
      </trkpt>
      <trkpt lat="45.92271" lon="6.38397">
        <ele>1044</ele>
        <time>2026-08-19T10:48:18.344Z</time>
      </trkpt>
      <trkpt lat="45.9227" lon="6.38394">
        <ele>1044</ele>
        <time>2026-08-19T10:48:19.344Z</time>
      </trkpt>
      <trkpt lat="45.9227" lon="6.38392">
        <ele>1044</ele>
        <time>2026-08-19T10:48:20.344Z</time>
      </trkpt>
      <trkpt lat="45.92269" lon="6.38389">
        <ele>1043</ele>
        <time>2026-08-19T10:48:21.344Z</time>
      </trkpt>
      <trkpt lat="45.92268" lon="6.38386">
        <ele>1043</ele>
        <time>2026-08-19T10:48:22.344Z</time>
      </trkpt>
      <trkpt lat="45.92268" lon="6.38384">
        <ele>1042</ele>
        <time>2026-08-19T10:48:23.344Z</time>
      </trkpt>
      <trkpt lat="45.92267" lon="6.38382">
        <ele>1042</ele>
        <time>2026-08-19T10:48:24.344Z</time>
      </trkpt>
      <trkpt lat="45.92266" lon="6.3838">
        <ele>1042</ele>
        <time>2026-08-19T10:48:25.344Z</time>
      </trkpt>
      <trkpt lat="45.92265" lon="6.38378">
        <ele>1042</ele>
        <time>2026-08-19T10:48:26.344Z</time>
      </trkpt>
      <trkpt lat="45.92264" lon="6.38376">
        <ele>1042</ele>
        <time>2026-08-19T10:48:27.344Z</time>
      </trkpt>
      <trkpt lat="45.92264" lon="6.38374">
        <ele>1041</ele>
        <time>2026-08-19T10:48:28.344Z</time>
      </trkpt>
      <trkpt lat="45.92263" lon="6.3837">
        <ele>1041</ele>
        <time>2026-08-19T10:48:29.344Z</time>
      </trkpt>
      <trkpt lat="45.92262" lon="6.38367">
        <ele>1041</ele>
        <time>2026-08-19T10:48:30.344Z</time>
      </trkpt>
      <trkpt lat="45.92261" lon="6.38364">
        <ele>1041</ele>
        <time>2026-08-19T10:48:31.344Z</time>
      </trkpt>
      <trkpt lat="45.9226" lon="6.38362">
        <ele>1041</ele>
        <time>2026-08-19T10:48:32.344Z</time>
      </trkpt>
      <trkpt lat="45.92258" lon="6.3836">
        <ele>1041</ele>
        <time>2026-08-19T10:48:33.344Z</time>
      </trkpt>
      <trkpt lat="45.92257" lon="6.38358">
        <ele>1041</ele>
        <time>2026-08-19T10:48:34.344Z</time>
      </trkpt>
      <trkpt lat="45.92256" lon="6.38356">
        <ele>1041</ele>
        <time>2026-08-19T10:48:35.344Z</time>
      </trkpt>
      <trkpt lat="45.92255" lon="6.38354">
        <ele>1041</ele>
        <time>2026-08-19T10:48:36.344Z</time>
      </trkpt>
      <trkpt lat="45.92254" lon="6.38352">
        <ele>1042</ele>
        <time>2026-08-19T10:48:37.344Z</time>
      </trkpt>
      <trkpt lat="45.92253" lon="6.3835">
        <ele>1042</ele>
        <time>2026-08-19T10:48:38.344Z</time>
      </trkpt>
      <trkpt lat="45.92252" lon="6.38348">
        <ele>1043</ele>
        <time>2026-08-19T10:48:39.344Z</time>
      </trkpt>
      <trkpt lat="45.92251" lon="6.38346">
        <ele>1043</ele>
        <time>2026-08-19T10:48:40.344Z</time>
      </trkpt>
      <trkpt lat="45.92249" lon="6.38344">
        <ele>1044</ele>
        <time>2026-08-19T10:48:41.344Z</time>
      </trkpt>
      <trkpt lat="45.92248" lon="6.38342">
        <ele>1044</ele>
        <time>2026-08-19T10:48:42.344Z</time>
      </trkpt>
      <trkpt lat="45.92247" lon="6.3834">
        <ele>1045</ele>
        <time>2026-08-19T10:48:43.344Z</time>
      </trkpt>
      <trkpt lat="45.92246" lon="6.38339">
        <ele>1045</ele>
        <time>2026-08-19T10:48:44.344Z</time>
      </trkpt>
      <trkpt lat="45.92244" lon="6.38337">
        <ele>1046</ele>
        <time>2026-08-19T10:48:45.344Z</time>
      </trkpt>
      <trkpt lat="45.92243" lon="6.38335">
        <ele>1046</ele>
        <time>2026-08-19T10:48:46.344Z</time>
      </trkpt>
      <trkpt lat="45.92241" lon="6.38334">
        <ele>1046</ele>
        <time>2026-08-19T10:48:47.345Z</time>
      </trkpt>
      <trkpt lat="45.92239" lon="6.38333">
        <ele>1046</ele>
        <time>2026-08-19T10:48:48.344Z</time>
      </trkpt>
      <trkpt lat="45.92237" lon="6.38331">
        <ele>1046</ele>
        <time>2026-08-19T10:48:49.344Z</time>
      </trkpt>
      <trkpt lat="45.92236" lon="6.38329">
        <ele>1046</ele>
        <time>2026-08-19T10:48:50.344Z</time>
      </trkpt>
      <trkpt lat="45.92235" lon="6.38326">
        <ele>1046</ele>
        <time>2026-08-19T10:48:51.344Z</time>
      </trkpt>
      <trkpt lat="45.92234" lon="6.38323">
        <ele>1046</ele>
        <time>2026-08-19T10:48:52.344Z</time>
      </trkpt>
      <trkpt lat="45.92233" lon="6.3832">
        <ele>1047</ele>
        <time>2026-08-19T10:48:53.344Z</time>
      </trkpt>
      <trkpt lat="45.92232" lon="6.38317">
        <ele>1047</ele>
        <time>2026-08-19T10:48:54.344Z</time>
      </trkpt>
      <trkpt lat="45.92232" lon="6.38313">
        <ele>1047</ele>
        <time>2026-08-19T10:48:55.344Z</time>
      </trkpt>
      <trkpt lat="45.92232" lon="6.38309">
        <ele>1046</ele>
        <time>2026-08-19T10:48:56.344Z</time>
      </trkpt>
      <trkpt lat="45.92232" lon="6.38307">
        <ele>1046</ele>
        <time>2026-08-19T10:48:57.344Z</time>
      </trkpt>
      <trkpt lat="45.92231" lon="6.38304">
        <ele>1046</ele>
        <time>2026-08-19T10:48:58.344Z</time>
      </trkpt>
      <trkpt lat="45.9223" lon="6.38302">
        <ele>1045</ele>
        <time>2026-08-19T10:48:59.344Z</time>
      </trkpt>
      <trkpt lat="45.92229" lon="6.383">
        <ele>1045</ele>
        <time>2026-08-19T10:49:00.344Z</time>
      </trkpt>
      <trkpt lat="45.92228" lon="6.38298">
        <ele>1044</ele>
        <time>2026-08-19T10:49:01.344Z</time>
      </trkpt>
      <trkpt lat="45.92228" lon="6.38296">
        <ele>1044</ele>
        <time>2026-08-19T10:49:02.344Z</time>
      </trkpt>
      <trkpt lat="45.92228" lon="6.38293">
        <ele>1044</ele>
        <time>2026-08-19T10:49:03.344Z</time>
      </trkpt>
      <trkpt lat="45.92228" lon="6.3829">
        <ele>1044</ele>
        <time>2026-08-19T10:49:04.345Z</time>
      </trkpt>
      <trkpt lat="45.92228" lon="6.38288">
        <ele>1044</ele>
        <time>2026-08-19T10:49:05.344Z</time>
      </trkpt>
      <trkpt lat="45.92227" lon="6.38286">
        <ele>1044</ele>
        <time>2026-08-19T10:49:06.344Z</time>
      </trkpt>
      <trkpt lat="45.92227" lon="6.38284">
        <ele>1044</ele>
        <time>2026-08-19T10:49:07.344Z</time>
      </trkpt>
      <trkpt lat="45.92225" lon="6.38283">
        <ele>1044</ele>
        <time>2026-08-19T10:49:08.344Z</time>
      </trkpt>
      <trkpt lat="45.92223" lon="6.38282">
        <ele>1044</ele>
        <time>2026-08-19T10:49:09.344Z</time>
      </trkpt>
      <trkpt lat="45.92222" lon="6.38279">
        <ele>1045</ele>
        <time>2026-08-19T10:49:10.344Z</time>
      </trkpt>
      <trkpt lat="45.92221" lon="6.38276">
        <ele>1045</ele>
        <time>2026-08-19T10:49:11.344Z</time>
      </trkpt>
      <trkpt lat="45.9222" lon="6.38273">
        <ele>1045</ele>
        <time>2026-08-19T10:49:12.344Z</time>
      </trkpt>
      <trkpt lat="45.92219" lon="6.3827">
        <ele>1045</ele>
        <time>2026-08-19T10:49:13.344Z</time>
      </trkpt>
      <trkpt lat="45.92218" lon="6.38267">
        <ele>1046</ele>
        <time>2026-08-19T10:49:14.344Z</time>
      </trkpt>
      <trkpt lat="45.92217" lon="6.38264">
        <ele>1046</ele>
        <time>2026-08-19T10:49:15.344Z</time>
      </trkpt>
      <trkpt lat="45.92217" lon="6.38261">
        <ele>1046</ele>
        <time>2026-08-19T10:49:16.344Z</time>
      </trkpt>
      <trkpt lat="45.92216" lon="6.38259">
        <ele>1046</ele>
        <time>2026-08-19T10:49:17.344Z</time>
      </trkpt>
      <trkpt lat="45.92216" lon="6.38256">
        <ele>1046</ele>
        <time>2026-08-19T10:49:18.344Z</time>
      </trkpt>
      <trkpt lat="45.92215" lon="6.38255">
        <ele>1046</ele>
        <time>2026-08-19T10:49:19.344Z</time>
      </trkpt>
      <trkpt lat="45.92215" lon="6.38253">
        <ele>1046</ele>
        <time>2026-08-19T10:49:20.344Z</time>
      </trkpt>
      <trkpt lat="45.92215" lon="6.38252">
        <ele>1047</ele>
        <time>2026-08-19T10:49:21.344Z</time>
      </trkpt>
      <trkpt lat="45.92216" lon="6.3825">
        <ele>1047</ele>
        <time>2026-08-19T10:49:22.344Z</time>
      </trkpt>
      <trkpt lat="45.92216" lon="6.38248">
        <ele>1047</ele>
        <time>2026-08-19T10:49:23.344Z</time>
      </trkpt>
      <trkpt lat="45.92216" lon="6.38246">
        <ele>1047</ele>
        <time>2026-08-19T10:49:24.344Z</time>
      </trkpt>
      <trkpt lat="45.92216" lon="6.38245">
        <ele>1048</ele>
        <time>2026-08-19T10:49:25.344Z</time>
      </trkpt>
      <trkpt lat="45.92217" lon="6.38243">
        <ele>1048</ele>
        <time>2026-08-19T10:49:26.344Z</time>
      </trkpt>
      <trkpt lat="45.92217" lon="6.38241">
        <ele>1048</ele>
        <time>2026-08-19T10:49:27.345Z</time>
      </trkpt>
      <trkpt lat="45.92218" lon="6.3824">
        <ele>1048</ele>
        <time>2026-08-19T10:49:28.344Z</time>
      </trkpt>
      <trkpt lat="45.92218" lon="6.38238">
        <ele>1048</ele>
        <time>2026-08-19T10:49:29.344Z</time>
      </trkpt>
      <trkpt lat="45.92218" lon="6.38237">
        <ele>1048</ele>
        <time>2026-08-19T10:49:30.344Z</time>
      </trkpt>
      <trkpt lat="45.92217" lon="6.38236">
        <ele>1049</ele>
        <time>2026-08-19T10:49:31.344Z</time>
      </trkpt>
      <trkpt lat="45.92218" lon="6.38235">
        <ele>1049</ele>
        <time>2026-08-19T10:49:32.344Z</time>
      </trkpt>
      <trkpt lat="45.92218" lon="6.38234">
        <ele>1049</ele>
        <time>2026-08-19T10:49:33.344Z</time>
      </trkpt>
      <trkpt lat="45.92217" lon="6.38233">
        <ele>1049</ele>
        <time>2026-08-19T10:49:34.344Z</time>
      </trkpt>
      <trkpt lat="45.92217" lon="6.38231">
        <ele>1049</ele>
        <time>2026-08-19T10:49:35.345Z</time>
      </trkpt>
      <trkpt lat="45.92217" lon="6.38229">
        <ele>1049</ele>
        <time>2026-08-19T10:49:36.344Z</time>
      </trkpt>
      <trkpt lat="45.92217" lon="6.38227">
        <ele>1049</ele>
        <time>2026-08-19T10:49:37.344Z</time>
      </trkpt>
      <trkpt lat="45.92217" lon="6.38225">
        <ele>1049</ele>
        <time>2026-08-19T10:49:38.344Z</time>
      </trkpt>
      <trkpt lat="45.92216" lon="6.38223">
        <ele>1048</ele>
        <time>2026-08-19T10:49:39.344Z</time>
      </trkpt>
      <trkpt lat="45.92216" lon="6.38221">
        <ele>1048</ele>
        <time>2026-08-19T10:49:40.344Z</time>
      </trkpt>
      <trkpt lat="45.92216" lon="6.3822">
        <ele>1049</ele>
        <time>2026-08-19T10:49:41.344Z</time>
      </trkpt>
      <trkpt lat="45.92215" lon="6.38218">
        <ele>1049</ele>
        <time>2026-08-19T10:49:42.344Z</time>
      </trkpt>
      <trkpt lat="45.92216" lon="6.38216">
        <ele>1049</ele>
        <time>2026-08-19T10:49:43.344Z</time>
      </trkpt>
      <trkpt lat="45.92216" lon="6.38213">
        <ele>1050</ele>
        <time>2026-08-19T10:49:44.344Z</time>
      </trkpt>
      <trkpt lat="45.92216" lon="6.38212">
        <ele>1050</ele>
        <time>2026-08-19T10:49:45.344Z</time>
      </trkpt>
      <trkpt lat="45.92216" lon="6.38211">
        <ele>1051</ele>
        <time>2026-08-19T10:49:46.344Z</time>
      </trkpt>
      <trkpt lat="45.92216" lon="6.3821">
        <ele>1051</ele>
        <time>2026-08-19T10:49:47.344Z</time>
      </trkpt>
      <trkpt lat="45.92215" lon="6.38208">
        <ele>1052</ele>
        <time>2026-08-19T10:49:48.344Z</time>
      </trkpt>
      <trkpt lat="45.92212" lon="6.38206">
        <ele>1053</ele>
        <time>2026-08-19T10:49:49.344Z</time>
      </trkpt>
      <trkpt lat="45.92211" lon="6.38204">
        <ele>1053</ele>
        <time>2026-08-19T10:49:50.344Z</time>
      </trkpt>
      <trkpt lat="45.9221" lon="6.38202">
        <ele>1054</ele>
        <time>2026-08-19T10:49:51.344Z</time>
      </trkpt>
      <trkpt lat="45.92209" lon="6.38201">
        <ele>1054</ele>
        <time>2026-08-19T10:49:52.344Z</time>
      </trkpt>
      <trkpt lat="45.92209" lon="6.38199">
        <ele>1055</ele>
        <time>2026-08-19T10:49:53.344Z</time>
      </trkpt>
      <trkpt lat="45.92208" lon="6.38197">
        <ele>1056</ele>
        <time>2026-08-19T10:49:54.344Z</time>
      </trkpt>
      <trkpt lat="45.92207" lon="6.38195">
        <ele>1056</ele>
        <time>2026-08-19T10:49:55.344Z</time>
      </trkpt>
      <trkpt lat="45.92207" lon="6.38194">
        <ele>1057</ele>
        <time>2026-08-19T10:49:56.344Z</time>
      </trkpt>
      <trkpt lat="45.92207" lon="6.38194">
        <ele>1057</ele>
        <time>2026-08-19T10:49:57.344Z</time>
      </trkpt>
      <trkpt lat="45.92207" lon="6.38193">
        <ele>1058</ele>
        <time>2026-08-19T10:49:58.344Z</time>
      </trkpt>
      <trkpt lat="45.92207" lon="6.38192">
        <ele>1059</ele>
        <time>2026-08-19T10:49:59.344Z</time>
      </trkpt>
      <trkpt lat="45.92207" lon="6.38191">
        <ele>1059</ele>
        <time>2026-08-19T10:50:00.344Z</time>
      </trkpt>
      <trkpt lat="45.92207" lon="6.3819">
        <ele>1059</ele>
        <time>2026-08-19T10:50:01.344Z</time>
      </trkpt>
      <trkpt lat="45.92206" lon="6.38189">
        <ele>1060</ele>
        <time>2026-08-19T10:50:02.344Z</time>
      </trkpt>
      <trkpt lat="45.92206" lon="6.38188">
        <ele>1060</ele>
        <time>2026-08-19T10:50:03.344Z</time>
      </trkpt>
      <trkpt lat="45.92205" lon="6.38187">
        <ele>1061</ele>
        <time>2026-08-19T10:50:04.344Z</time>
      </trkpt>
      <trkpt lat="45.92205" lon="6.38187">
        <ele>1061</ele>
        <time>2026-08-19T10:50:05.344Z</time>
      </trkpt>
      <trkpt lat="45.92205" lon="6.38187">
        <ele>1062</ele>
        <time>2026-08-19T10:50:06.344Z</time>
      </trkpt>
      <trkpt lat="45.92204" lon="6.38186">
        <ele>1062</ele>
        <time>2026-08-19T10:50:07.344Z</time>
      </trkpt>
      <trkpt lat="45.92204" lon="6.38185">
        <ele>1063</ele>
        <time>2026-08-19T10:50:08.344Z</time>
      </trkpt>
      <trkpt lat="45.92203" lon="6.38184">
        <ele>1063</ele>
        <time>2026-08-19T10:50:09.345Z</time>
      </trkpt>
      <trkpt lat="45.92203" lon="6.38184">
        <ele>1063</ele>
        <time>2026-08-19T10:50:10.344Z</time>
      </trkpt>
      <trkpt lat="45.92203" lon="6.38183">
        <ele>1063</ele>
        <time>2026-08-19T10:50:11.344Z</time>
      </trkpt>
      <trkpt lat="45.92203" lon="6.38182">
        <ele>1063</ele>
        <time>2026-08-19T10:50:12.344Z</time>
      </trkpt>
      <trkpt lat="45.92203" lon="6.38181">
        <ele>1063</ele>
        <time>2026-08-19T10:50:13.344Z</time>
      </trkpt>
      <trkpt lat="45.92203" lon="6.3818">
        <ele>1063</ele>
        <time>2026-08-19T10:50:14.344Z</time>
      </trkpt>
      <trkpt lat="45.92203" lon="6.38179">
        <ele>1063</ele>
        <time>2026-08-19T10:50:15.344Z</time>
      </trkpt>
      <trkpt lat="45.92203" lon="6.38177">
        <ele>1063</ele>
        <time>2026-08-19T10:50:16.344Z</time>
      </trkpt>
      <trkpt lat="45.92203" lon="6.38176">
        <ele>1063</ele>
        <time>2026-08-19T10:50:17.344Z</time>
      </trkpt>
      <trkpt lat="45.92203" lon="6.38175">
        <ele>1063</ele>
        <time>2026-08-19T10:50:18.344Z</time>
      </trkpt>
      <trkpt lat="45.92203" lon="6.38174">
        <ele>1062</ele>
        <time>2026-08-19T10:50:19.344Z</time>
      </trkpt>
      <trkpt lat="45.92203" lon="6.38173">
        <ele>1062</ele>
        <time>2026-08-19T10:50:20.344Z</time>
      </trkpt>
      <trkpt lat="45.92202" lon="6.38172">
        <ele>1062</ele>
        <time>2026-08-19T10:50:21.344Z</time>
      </trkpt>
      <trkpt lat="45.92202" lon="6.38171">
        <ele>1062</ele>
        <time>2026-08-19T10:50:22.344Z</time>
      </trkpt>
      <trkpt lat="45.92202" lon="6.3817">
        <ele>1062</ele>
        <time>2026-08-19T10:50:23.344Z</time>
      </trkpt>
      <trkpt lat="45.92202" lon="6.38169">
        <ele>1062</ele>
        <time>2026-08-19T10:50:24.344Z</time>
      </trkpt>
      <trkpt lat="45.92202" lon="6.38168">
        <ele>1063</ele>
        <time>2026-08-19T10:50:25.344Z</time>
      </trkpt>
      <trkpt lat="45.92202" lon="6.38167">
        <ele>1063</ele>
        <time>2026-08-19T10:50:26.345Z</time>
      </trkpt>
      <trkpt lat="45.92202" lon="6.38165">
        <ele>1064</ele>
        <time>2026-08-19T10:50:27.344Z</time>
      </trkpt>
      <trkpt lat="45.92202" lon="6.38164">
        <ele>1064</ele>
        <time>2026-08-19T10:50:28.344Z</time>
      </trkpt>
      <trkpt lat="45.92202" lon="6.38163">
        <ele>1064</ele>
        <time>2026-08-19T10:50:29.344Z</time>
      </trkpt>
      <trkpt lat="45.92201" lon="6.38161">
        <ele>1065</ele>
        <time>2026-08-19T10:50:30.344Z</time>
      </trkpt>
      <trkpt lat="45.92201" lon="6.38159">
        <ele>1065</ele>
        <time>2026-08-19T10:50:31.344Z</time>
      </trkpt>
      <trkpt lat="45.92201" lon="6.38158">
        <ele>1065</ele>
        <time>2026-08-19T10:50:32.344Z</time>
      </trkpt>
      <trkpt lat="45.92201" lon="6.38157">
        <ele>1065</ele>
        <time>2026-08-19T10:50:33.344Z</time>
      </trkpt>
      <trkpt lat="45.92201" lon="6.38156">
        <ele>1065</ele>
        <time>2026-08-19T10:50:34.344Z</time>
      </trkpt>
      <trkpt lat="45.92201" lon="6.38155">
        <ele>1065</ele>
        <time>2026-08-19T10:50:35.344Z</time>
      </trkpt>
      <trkpt lat="45.92201" lon="6.38154">
        <ele>1064</ele>
        <time>2026-08-19T10:50:36.344Z</time>
      </trkpt>
      <trkpt lat="45.92202" lon="6.38152">
        <ele>1064</ele>
        <time>2026-08-19T10:50:37.344Z</time>
      </trkpt>
      <trkpt lat="45.92202" lon="6.38151">
        <ele>1064</ele>
        <time>2026-08-19T10:50:38.344Z</time>
      </trkpt>
      <trkpt lat="45.92201" lon="6.3815">
        <ele>1064</ele>
        <time>2026-08-19T10:50:39.344Z</time>
      </trkpt>
      <trkpt lat="45.92201" lon="6.38148">
        <ele>1064</ele>
        <time>2026-08-19T10:50:40.344Z</time>
      </trkpt>
      <trkpt lat="45.92201" lon="6.38147">
        <ele>1064</ele>
        <time>2026-08-19T10:50:41.344Z</time>
      </trkpt>
      <trkpt lat="45.92201" lon="6.38146">
        <ele>1064</ele>
        <time>2026-08-19T10:50:42.344Z</time>
      </trkpt>
      <trkpt lat="45.92202" lon="6.38145">
        <ele>1064</ele>
        <time>2026-08-19T10:50:43.344Z</time>
      </trkpt>
      <trkpt lat="45.92203" lon="6.38143">
        <ele>1064</ele>
        <time>2026-08-19T10:50:44.344Z</time>
      </trkpt>
      <trkpt lat="45.92203" lon="6.38142">
        <ele>1064</ele>
        <time>2026-08-19T10:50:45.344Z</time>
      </trkpt>
      <trkpt lat="45.92203" lon="6.38141">
        <ele>1064</ele>
        <time>2026-08-19T10:50:46.344Z</time>
      </trkpt>
      <trkpt lat="45.92203" lon="6.3814">
        <ele>1064</ele>
        <time>2026-08-19T10:50:47.345Z</time>
      </trkpt>
      <trkpt lat="45.92203" lon="6.38139">
        <ele>1064</ele>
        <time>2026-08-19T10:50:48.344Z</time>
      </trkpt>
      <trkpt lat="45.92202" lon="6.38138">
        <ele>1064</ele>
        <time>2026-08-19T10:50:49.344Z</time>
      </trkpt>
      <trkpt lat="45.92203" lon="6.38136">
        <ele>1064</ele>
        <time>2026-08-19T10:50:50.344Z</time>
      </trkpt>
      <trkpt lat="45.92202" lon="6.38136">
        <ele>1064</ele>
        <time>2026-08-19T10:50:51.345Z</time>
      </trkpt>
      <trkpt lat="45.92202" lon="6.38135">
        <ele>1064</ele>
        <time>2026-08-19T10:50:52.344Z</time>
      </trkpt>
      <trkpt lat="45.92202" lon="6.38133">
        <ele>1064</ele>
        <time>2026-08-19T10:50:53.345Z</time>
      </trkpt>
      <trkpt lat="45.92201" lon="6.38132">
        <ele>1064</ele>
        <time>2026-08-19T10:50:54.344Z</time>
      </trkpt>
      <trkpt lat="45.92201" lon="6.38131">
        <ele>1064</ele>
        <time>2026-08-19T10:50:55.344Z</time>
      </trkpt>
      <trkpt lat="45.92202" lon="6.3813">
        <ele>1063</ele>
        <time>2026-08-19T10:50:56.344Z</time>
      </trkpt>
      <trkpt lat="45.92202" lon="6.38129">
        <ele>1063</ele>
        <time>2026-08-19T10:50:57.344Z</time>
      </trkpt>
      <trkpt lat="45.92202" lon="6.38128">
        <ele>1063</ele>
        <time>2026-08-19T10:50:58.344Z</time>
      </trkpt>
      <trkpt lat="45.92202" lon="6.38127">
        <ele>1063</ele>
        <time>2026-08-19T10:50:59.344Z</time>
      </trkpt>
      <trkpt lat="45.92203" lon="6.38126">
        <ele>1063</ele>
        <time>2026-08-19T10:51:00.344Z</time>
      </trkpt>
      <trkpt lat="45.92203" lon="6.38125">
        <ele>1063</ele>
        <time>2026-08-19T10:51:01.344Z</time>
      </trkpt>
      <trkpt lat="45.92203" lon="6.38124">
        <ele>1063</ele>
        <time>2026-08-19T10:51:02.344Z</time>
      </trkpt>
      <trkpt lat="45.92204" lon="6.38124">
        <ele>1063</ele>
        <time>2026-08-19T10:51:03.344Z</time>
      </trkpt>
      <trkpt lat="45.92204" lon="6.38123">
        <ele>1063</ele>
        <time>2026-08-19T10:51:04.344Z</time>
      </trkpt>
      <trkpt lat="45.92204" lon="6.38123">
        <ele>1063</ele>
        <time>2026-08-19T10:51:05.344Z</time>
      </trkpt>
      <trkpt lat="45.92205" lon="6.38122">
        <ele>1063</ele>
        <time>2026-08-19T10:51:06.344Z</time>
      </trkpt>
      <trkpt lat="45.92206" lon="6.38121">
        <ele>1063</ele>
        <time>2026-08-19T10:51:07.344Z</time>
      </trkpt>
      <trkpt lat="45.92206" lon="6.38121">
        <ele>1063</ele>
        <time>2026-08-19T10:51:08.344Z</time>
      </trkpt>
      <trkpt lat="45.92206" lon="6.3812">
        <ele>1064</ele>
        <time>2026-08-19T10:51:09.344Z</time>
      </trkpt>
      <trkpt lat="45.92206" lon="6.38119">
        <ele>1064</ele>
        <time>2026-08-19T10:51:10.344Z</time>
      </trkpt>
      <trkpt lat="45.92206" lon="6.38118">
        <ele>1064</ele>
        <time>2026-08-19T10:51:11.344Z</time>
      </trkpt>
      <trkpt lat="45.92206" lon="6.38117">
        <ele>1065</ele>
        <time>2026-08-19T10:51:12.344Z</time>
      </trkpt>
      <trkpt lat="45.92206" lon="6.38116">
        <ele>1065</ele>
        <time>2026-08-19T10:51:13.344Z</time>
      </trkpt>
      <trkpt lat="45.92206" lon="6.38115">
        <ele>1066</ele>
        <time>2026-08-19T10:51:14.344Z</time>
      </trkpt>
      <trkpt lat="45.92206" lon="6.38114">
        <ele>1066</ele>
        <time>2026-08-19T10:51:15.344Z</time>
      </trkpt>
      <trkpt lat="45.92206" lon="6.38113">
        <ele>1067</ele>
        <time>2026-08-19T10:51:16.344Z</time>
      </trkpt>
      <trkpt lat="45.92206" lon="6.38112">
        <ele>1067</ele>
        <time>2026-08-19T10:51:17.344Z</time>
      </trkpt>
      <trkpt lat="45.92206" lon="6.3811">
        <ele>1068</ele>
        <time>2026-08-19T10:51:18.344Z</time>
      </trkpt>
      <trkpt lat="45.92205" lon="6.38109">
        <ele>1068</ele>
        <time>2026-08-19T10:51:19.344Z</time>
      </trkpt>
      <trkpt lat="45.92205" lon="6.38107">
        <ele>1068</ele>
        <time>2026-08-19T10:51:20.344Z</time>
      </trkpt>
      <trkpt lat="45.92205" lon="6.38106">
        <ele>1068</ele>
        <time>2026-08-19T10:51:21.344Z</time>
      </trkpt>
      <trkpt lat="45.92206" lon="6.38105">
        <ele>1068</ele>
        <time>2026-08-19T10:51:22.344Z</time>
      </trkpt>
      <trkpt lat="45.92205" lon="6.38104">
        <ele>1068</ele>
        <time>2026-08-19T10:51:23.344Z</time>
      </trkpt>
      <trkpt lat="45.92206" lon="6.38103">
        <ele>1068</ele>
        <time>2026-08-19T10:51:24.344Z</time>
      </trkpt>
      <trkpt lat="45.92206" lon="6.38102">
        <ele>1069</ele>
        <time>2026-08-19T10:51:25.344Z</time>
      </trkpt>
      <trkpt lat="45.92206" lon="6.38101">
        <ele>1069</ele>
        <time>2026-08-19T10:51:26.344Z</time>
      </trkpt>
      <trkpt lat="45.92207" lon="6.381">
        <ele>1069</ele>
        <time>2026-08-19T10:51:27.344Z</time>
      </trkpt>
      <trkpt lat="45.92207" lon="6.38099">
        <ele>1069</ele>
        <time>2026-08-19T10:51:28.344Z</time>
      </trkpt>
      <trkpt lat="45.92207" lon="6.38098">
        <ele>1069</ele>
        <time>2026-08-19T10:51:29.344Z</time>
      </trkpt>
      <trkpt lat="45.92207" lon="6.38097">
        <ele>1070</ele>
        <time>2026-08-19T10:51:30.344Z</time>
      </trkpt>
      <trkpt lat="45.92206" lon="6.38097">
        <ele>1071</ele>
        <time>2026-08-19T10:51:31.344Z</time>
      </trkpt>
      <trkpt lat="45.92206" lon="6.38095">
        <ele>1071</ele>
        <time>2026-08-19T10:51:32.344Z</time>
      </trkpt>
      <trkpt lat="45.92206" lon="6.38094">
        <ele>1072</ele>
        <time>2026-08-19T10:51:33.344Z</time>
      </trkpt>
      <trkpt lat="45.92206" lon="6.38093">
        <ele>1072</ele>
        <time>2026-08-19T10:51:34.344Z</time>
      </trkpt>
      <trkpt lat="45.92206" lon="6.38092">
        <ele>1073</ele>
        <time>2026-08-19T10:51:35.344Z</time>
      </trkpt>
      <trkpt lat="45.92206" lon="6.38092">
        <ele>1074</ele>
        <time>2026-08-19T10:51:36.344Z</time>
      </trkpt>
      <trkpt lat="45.92206" lon="6.38091">
        <ele>1074</ele>
        <time>2026-08-19T10:51:37.345Z</time>
      </trkpt>
      <trkpt lat="45.92206" lon="6.38091">
        <ele>1074</ele>
        <time>2026-08-19T10:51:38.344Z</time>
      </trkpt>
      <trkpt lat="45.92206" lon="6.3809">
        <ele>1074</ele>
        <time>2026-08-19T10:51:39.344Z</time>
      </trkpt>
      <trkpt lat="45.92206" lon="6.38089">
        <ele>1074</ele>
        <time>2026-08-19T10:51:40.344Z</time>
      </trkpt>
      <trkpt lat="45.92205" lon="6.38088">
        <ele>1074</ele>
        <time>2026-08-19T10:51:41.344Z</time>
      </trkpt>
      <trkpt lat="45.92205" lon="6.38086">
        <ele>1075</ele>
        <time>2026-08-19T10:51:42.344Z</time>
      </trkpt>
      <trkpt lat="45.92205" lon="6.38086">
        <ele>1075</ele>
        <time>2026-08-19T10:51:43.344Z</time>
      </trkpt>
      <trkpt lat="45.92206" lon="6.38084">
        <ele>1075</ele>
        <time>2026-08-19T10:51:44.344Z</time>
      </trkpt>
      <trkpt lat="45.92206" lon="6.38084">
        <ele>1075</ele>
        <time>2026-08-19T10:51:45.344Z</time>
      </trkpt>
      <trkpt lat="45.92205" lon="6.38083">
        <ele>1076</ele>
        <time>2026-08-19T10:51:46.344Z</time>
      </trkpt>
      <trkpt lat="45.92205" lon="6.38082">
        <ele>1076</ele>
        <time>2026-08-19T10:51:47.344Z</time>
      </trkpt>
      <trkpt lat="45.92205" lon="6.38081">
        <ele>1076</ele>
        <time>2026-08-19T10:51:48.344Z</time>
      </trkpt>
      <trkpt lat="45.92205" lon="6.3808">
        <ele>1077</ele>
        <time>2026-08-19T10:51:49.344Z</time>
      </trkpt>
      <trkpt lat="45.92205" lon="6.38079">
        <ele>1077</ele>
        <time>2026-08-19T10:51:50.344Z</time>
      </trkpt>
      <trkpt lat="45.92205" lon="6.38079">
        <ele>1077</ele>
        <time>2026-08-19T10:51:51.344Z</time>
      </trkpt>
      <trkpt lat="45.92205" lon="6.38078">
        <ele>1077</ele>
        <time>2026-08-19T10:51:52.344Z</time>
      </trkpt>
      <trkpt lat="45.92205" lon="6.38078">
        <ele>1078</ele>
        <time>2026-08-19T10:51:53.344Z</time>
      </trkpt>
      <trkpt lat="45.92205" lon="6.38077">
        <ele>1078</ele>
        <time>2026-08-19T10:51:54.344Z</time>
      </trkpt>
      <trkpt lat="45.92205" lon="6.38076">
        <ele>1078</ele>
        <time>2026-08-19T10:51:55.344Z</time>
      </trkpt>
      <trkpt lat="45.92204" lon="6.38075">
        <ele>1079</ele>
        <time>2026-08-19T10:51:56.344Z</time>
      </trkpt>
      <trkpt lat="45.92204" lon="6.38074">
        <ele>1079</ele>
        <time>2026-08-19T10:51:57.344Z</time>
      </trkpt>
      <trkpt lat="45.92204" lon="6.38074">
        <ele>1079</ele>
        <time>2026-08-19T10:51:58.344Z</time>
      </trkpt>
      <trkpt lat="45.92204" lon="6.38073">
        <ele>1080</ele>
        <time>2026-08-19T10:51:59.344Z</time>
      </trkpt>
      <trkpt lat="45.92204" lon="6.38072">
        <ele>1080</ele>
        <time>2026-08-19T10:52:00.344Z</time>
      </trkpt>
      <trkpt lat="45.92204" lon="6.38071">
        <ele>1080</ele>
        <time>2026-08-19T10:52:01.344Z</time>
      </trkpt>
      <trkpt lat="45.92204" lon="6.3807">
        <ele>1080</ele>
        <time>2026-08-19T10:52:02.344Z</time>
      </trkpt>
      <trkpt lat="45.92204" lon="6.38069">
        <ele>1080</ele>
        <time>2026-08-19T10:52:03.344Z</time>
      </trkpt>
      <trkpt lat="45.92203" lon="6.38068">
        <ele>1080</ele>
        <time>2026-08-19T10:52:04.344Z</time>
      </trkpt>
      <trkpt lat="45.92203" lon="6.38067">
        <ele>1080</ele>
        <time>2026-08-19T10:52:05.344Z</time>
      </trkpt>
      <trkpt lat="45.92203" lon="6.38066">
        <ele>1080</ele>
        <time>2026-08-19T10:52:06.344Z</time>
      </trkpt>
      <trkpt lat="45.92203" lon="6.38065">
        <ele>1080</ele>
        <time>2026-08-19T10:52:07.344Z</time>
      </trkpt>
      <trkpt lat="45.92203" lon="6.38064">
        <ele>1081</ele>
        <time>2026-08-19T10:52:08.344Z</time>
      </trkpt>
      <trkpt lat="45.92203" lon="6.38063">
        <ele>1082</ele>
        <time>2026-08-19T10:52:09.344Z</time>
      </trkpt>
      <trkpt lat="45.92202" lon="6.38061">
        <ele>1082</ele>
        <time>2026-08-19T10:52:10.344Z</time>
      </trkpt>
      <trkpt lat="45.92202" lon="6.3806">
        <ele>1083</ele>
        <time>2026-08-19T10:52:11.344Z</time>
      </trkpt>
      <trkpt lat="45.92202" lon="6.38059">
        <ele>1083</ele>
        <time>2026-08-19T10:52:12.344Z</time>
      </trkpt>
      <trkpt lat="45.92202" lon="6.38058">
        <ele>1083</ele>
        <time>2026-08-19T10:52:13.344Z</time>
      </trkpt>
      <trkpt lat="45.92202" lon="6.38058">
        <ele>1083</ele>
        <time>2026-08-19T10:52:14.344Z</time>
      </trkpt>
      <trkpt lat="45.92202" lon="6.38056">
        <ele>1083</ele>
        <time>2026-08-19T10:52:15.344Z</time>
      </trkpt>
      <trkpt lat="45.92202" lon="6.38055">
        <ele>1084</ele>
        <time>2026-08-19T10:52:16.344Z</time>
      </trkpt>
      <trkpt lat="45.92202" lon="6.38054">
        <ele>1084</ele>
        <time>2026-08-19T10:52:17.344Z</time>
      </trkpt>
      <trkpt lat="45.92202" lon="6.38053">
        <ele>1084</ele>
        <time>2026-08-19T10:52:18.344Z</time>
      </trkpt>
      <trkpt lat="45.92202" lon="6.38052">
        <ele>1085</ele>
        <time>2026-08-19T10:52:19.344Z</time>
      </trkpt>
      <trkpt lat="45.92202" lon="6.38052">
        <ele>1085</ele>
        <time>2026-08-19T10:52:20.344Z</time>
      </trkpt>
      <trkpt lat="45.92202" lon="6.38051">
        <ele>1085</ele>
        <time>2026-08-19T10:52:21.344Z</time>
      </trkpt>
      <trkpt lat="45.92202" lon="6.3805">
        <ele>1086</ele>
        <time>2026-08-19T10:52:22.344Z</time>
      </trkpt>
      <trkpt lat="45.92202" lon="6.38049">
        <ele>1086</ele>
        <time>2026-08-19T10:52:23.344Z</time>
      </trkpt>
      <trkpt lat="45.92202" lon="6.38048">
        <ele>1086</ele>
        <time>2026-08-19T10:52:24.344Z</time>
      </trkpt>
      <trkpt lat="45.92202" lon="6.38047">
        <ele>1087</ele>
        <time>2026-08-19T10:52:25.344Z</time>
      </trkpt>
      <trkpt lat="45.92202" lon="6.38046">
        <ele>1087</ele>
        <time>2026-08-19T10:52:26.344Z</time>
      </trkpt>
      <trkpt lat="45.92203" lon="6.38045">
        <ele>1087</ele>
        <time>2026-08-19T10:52:27.344Z</time>
      </trkpt>
      <trkpt lat="45.92203" lon="6.38044">
        <ele>1087</ele>
        <time>2026-08-19T10:52:28.344Z</time>
      </trkpt>
      <trkpt lat="45.92203" lon="6.38042">
        <ele>1087</ele>
        <time>2026-08-19T10:52:29.344Z</time>
      </trkpt>
      <trkpt lat="45.92203" lon="6.38041">
        <ele>1087</ele>
        <time>2026-08-19T10:52:30.344Z</time>
      </trkpt>
      <trkpt lat="45.92203" lon="6.3804">
        <ele>1087</ele>
        <time>2026-08-19T10:52:31.344Z</time>
      </trkpt>
      <trkpt lat="45.92203" lon="6.38039">
        <ele>1086</ele>
        <time>2026-08-19T10:52:32.344Z</time>
      </trkpt>
      <trkpt lat="45.92204" lon="6.38038">
        <ele>1086</ele>
        <time>2026-08-19T10:52:33.344Z</time>
      </trkpt>
      <trkpt lat="45.92204" lon="6.38036">
        <ele>1086</ele>
        <time>2026-08-19T10:52:34.344Z</time>
      </trkpt>
      <trkpt lat="45.92204" lon="6.38035">
        <ele>1086</ele>
        <time>2026-08-19T10:52:35.344Z</time>
      </trkpt>
      <trkpt lat="45.92204" lon="6.38034">
        <ele>1086</ele>
        <time>2026-08-19T10:52:36.344Z</time>
      </trkpt>
      <trkpt lat="45.92204" lon="6.38033">
        <ele>1087</ele>
        <time>2026-08-19T10:52:37.344Z</time>
      </trkpt>
      <trkpt lat="45.92204" lon="6.38032">
        <ele>1087</ele>
        <time>2026-08-19T10:52:38.344Z</time>
      </trkpt>
      <trkpt lat="45.92204" lon="6.38031">
        <ele>1087</ele>
        <time>2026-08-19T10:52:39.344Z</time>
      </trkpt>
      <trkpt lat="45.92204" lon="6.3803">
        <ele>1087</ele>
        <time>2026-08-19T10:52:40.344Z</time>
      </trkpt>
      <trkpt lat="45.92204" lon="6.38029">
        <ele>1087</ele>
        <time>2026-08-19T10:52:41.344Z</time>
      </trkpt>
      <trkpt lat="45.92204" lon="6.38028">
        <ele>1087</ele>
        <time>2026-08-19T10:52:42.344Z</time>
      </trkpt>
      <trkpt lat="45.92204" lon="6.38027">
        <ele>1087</ele>
        <time>2026-08-19T10:52:43.344Z</time>
      </trkpt>
      <trkpt lat="45.92204" lon="6.38026">
        <ele>1088</ele>
        <time>2026-08-19T10:52:44.344Z</time>
      </trkpt>
      <trkpt lat="45.92204" lon="6.38025">
        <ele>1088</ele>
        <time>2026-08-19T10:52:45.344Z</time>
      </trkpt>
      <trkpt lat="45.92204" lon="6.38025">
        <ele>1088</ele>
        <time>2026-08-19T10:52:46.344Z</time>
      </trkpt>
      <trkpt lat="45.92203" lon="6.38024">
        <ele>1089</ele>
        <time>2026-08-19T10:52:47.344Z</time>
      </trkpt>
      <trkpt lat="45.92204" lon="6.38023">
        <ele>1089</ele>
        <time>2026-08-19T10:52:48.344Z</time>
      </trkpt>
      <trkpt lat="45.92204" lon="6.38022">
        <ele>1089</ele>
        <time>2026-08-19T10:52:49.344Z</time>
      </trkpt>
      <trkpt lat="45.92204" lon="6.38021">
        <ele>1089</ele>
        <time>2026-08-19T10:52:50.344Z</time>
      </trkpt>
      <trkpt lat="45.92204" lon="6.38019">
        <ele>1089</ele>
        <time>2026-08-19T10:52:51.344Z</time>
      </trkpt>
      <trkpt lat="45.92204" lon="6.38018">
        <ele>1089</ele>
        <time>2026-08-19T10:52:52.345Z</time>
      </trkpt>
      <trkpt lat="45.92204" lon="6.38017">
        <ele>1089</ele>
        <time>2026-08-19T10:52:53.344Z</time>
      </trkpt>
      <trkpt lat="45.92203" lon="6.38016">
        <ele>1089</ele>
        <time>2026-08-19T10:52:54.344Z</time>
      </trkpt>
      <trkpt lat="45.92203" lon="6.38015">
        <ele>1089</ele>
        <time>2026-08-19T10:52:55.344Z</time>
      </trkpt>
      <trkpt lat="45.92202" lon="6.38014">
        <ele>1089</ele>
        <time>2026-08-19T10:52:56.344Z</time>
      </trkpt>
      <trkpt lat="45.92202" lon="6.38012">
        <ele>1089</ele>
        <time>2026-08-19T10:52:57.344Z</time>
      </trkpt>
      <trkpt lat="45.92202" lon="6.38011">
        <ele>1089</ele>
        <time>2026-08-19T10:52:58.344Z</time>
      </trkpt>
      <trkpt lat="45.92202" lon="6.3801">
        <ele>1089</ele>
        <time>2026-08-19T10:52:59.344Z</time>
      </trkpt>
      <trkpt lat="45.92202" lon="6.38009">
        <ele>1090</ele>
        <time>2026-08-19T10:53:00.344Z</time>
      </trkpt>
      <trkpt lat="45.92201" lon="6.38008">
        <ele>1090</ele>
        <time>2026-08-19T10:53:01.344Z</time>
      </trkpt>
      <trkpt lat="45.92201" lon="6.38007">
        <ele>1091</ele>
        <time>2026-08-19T10:53:02.344Z</time>
      </trkpt>
      <trkpt lat="45.922" lon="6.38007">
        <ele>1092</ele>
        <time>2026-08-19T10:53:03.344Z</time>
      </trkpt>
      <trkpt lat="45.922" lon="6.38006">
        <ele>1092</ele>
        <time>2026-08-19T10:53:04.344Z</time>
      </trkpt>
      <trkpt lat="45.922" lon="6.38006">
        <ele>1093</ele>
        <time>2026-08-19T10:53:05.344Z</time>
      </trkpt>
      <trkpt lat="45.922" lon="6.38005">
        <ele>1093</ele>
        <time>2026-08-19T10:53:06.344Z</time>
      </trkpt>
      <trkpt lat="45.92199" lon="6.38004">
        <ele>1093</ele>
        <time>2026-08-19T10:53:07.344Z</time>
      </trkpt>
      <trkpt lat="45.92199" lon="6.38003">
        <ele>1093</ele>
        <time>2026-08-19T10:53:08.344Z</time>
      </trkpt>
      <trkpt lat="45.92199" lon="6.38003">
        <ele>1093</ele>
        <time>2026-08-19T10:53:09.344Z</time>
      </trkpt>
      <trkpt lat="45.92198" lon="6.38001">
        <ele>1093</ele>
        <time>2026-08-19T10:53:10.344Z</time>
      </trkpt>
      <trkpt lat="45.92198" lon="6.38">
        <ele>1093</ele>
        <time>2026-08-19T10:53:11.344Z</time>
      </trkpt>
      <trkpt lat="45.92198" lon="6.37999">
        <ele>1093</ele>
        <time>2026-08-19T10:53:12.344Z</time>
      </trkpt>
      <trkpt lat="45.92197" lon="6.37998">
        <ele>1093</ele>
        <time>2026-08-19T10:53:13.344Z</time>
      </trkpt>
      <trkpt lat="45.92197" lon="6.37997">
        <ele>1093</ele>
        <time>2026-08-19T10:53:14.344Z</time>
      </trkpt>
      <trkpt lat="45.92197" lon="6.37996">
        <ele>1093</ele>
        <time>2026-08-19T10:53:15.344Z</time>
      </trkpt>
      <trkpt lat="45.92197" lon="6.37995">
        <ele>1093</ele>
        <time>2026-08-19T10:53:16.344Z</time>
      </trkpt>
      <trkpt lat="45.92197" lon="6.37994">
        <ele>1093</ele>
        <time>2026-08-19T10:53:17.344Z</time>
      </trkpt>
      <trkpt lat="45.92197" lon="6.37993">
        <ele>1093</ele>
        <time>2026-08-19T10:53:18.344Z</time>
      </trkpt>
      <trkpt lat="45.92197" lon="6.37992">
        <ele>1094</ele>
        <time>2026-08-19T10:53:19.344Z</time>
      </trkpt>
      <trkpt lat="45.92197" lon="6.37991">
        <ele>1094</ele>
        <time>2026-08-19T10:53:20.344Z</time>
      </trkpt>
      <trkpt lat="45.92197" lon="6.37989">
        <ele>1094</ele>
        <time>2026-08-19T10:53:21.344Z</time>
      </trkpt>
      <trkpt lat="45.92196" lon="6.37988">
        <ele>1094</ele>
        <time>2026-08-19T10:53:22.344Z</time>
      </trkpt>
      <trkpt lat="45.92196" lon="6.37987">
        <ele>1095</ele>
        <time>2026-08-19T10:53:23.344Z</time>
      </trkpt>
      <trkpt lat="45.92196" lon="6.37987">
        <ele>1095</ele>
        <time>2026-08-19T10:53:24.344Z</time>
      </trkpt>
      <trkpt lat="45.92196" lon="6.37986">
        <ele>1096</ele>
        <time>2026-08-19T10:53:25.344Z</time>
      </trkpt>
      <trkpt lat="45.92196" lon="6.37984">
        <ele>1096</ele>
        <time>2026-08-19T10:53:26.344Z</time>
      </trkpt>
      <trkpt lat="45.92196" lon="6.37983">
        <ele>1096</ele>
        <time>2026-08-19T10:53:27.344Z</time>
      </trkpt>
      <trkpt lat="45.92196" lon="6.37982">
        <ele>1097</ele>
        <time>2026-08-19T10:53:28.344Z</time>
      </trkpt>
      <trkpt lat="45.92197" lon="6.37981">
        <ele>1097</ele>
        <time>2026-08-19T10:53:29.344Z</time>
      </trkpt>
      <trkpt lat="45.92197" lon="6.3798">
        <ele>1097</ele>
        <time>2026-08-19T10:53:30.344Z</time>
      </trkpt>
      <trkpt lat="45.92196" lon="6.37979">
        <ele>1098</ele>
        <time>2026-08-19T10:53:31.344Z</time>
      </trkpt>
      <trkpt lat="45.92196" lon="6.37978">
        <ele>1098</ele>
        <time>2026-08-19T10:53:32.344Z</time>
      </trkpt>
      <trkpt lat="45.92196" lon="6.37977">
        <ele>1098</ele>
        <time>2026-08-19T10:53:33.344Z</time>
      </trkpt>
      <trkpt lat="45.92196" lon="6.37976">
        <ele>1099</ele>
        <time>2026-08-19T10:53:34.345Z</time>
      </trkpt>
      <trkpt lat="45.92196" lon="6.37975">
        <ele>1099</ele>
        <time>2026-08-19T10:53:35.344Z</time>
      </trkpt>
      <trkpt lat="45.92196" lon="6.37974">
        <ele>1099</ele>
        <time>2026-08-19T10:53:36.344Z</time>
      </trkpt>
      <trkpt lat="45.92196" lon="6.37973">
        <ele>1099</ele>
        <time>2026-08-19T10:53:37.344Z</time>
      </trkpt>
      <trkpt lat="45.92196" lon="6.37972">
        <ele>1099</ele>
        <time>2026-08-19T10:53:38.344Z</time>
      </trkpt>
      <trkpt lat="45.92196" lon="6.3797">
        <ele>1099</ele>
        <time>2026-08-19T10:53:39.344Z</time>
      </trkpt>
      <trkpt lat="45.92196" lon="6.37969">
        <ele>1099</ele>
        <time>2026-08-19T10:53:40.344Z</time>
      </trkpt>
      <trkpt lat="45.92196" lon="6.37968">
        <ele>1100</ele>
        <time>2026-08-19T10:53:41.344Z</time>
      </trkpt>
      <trkpt lat="45.92196" lon="6.37967">
        <ele>1100</ele>
        <time>2026-08-19T10:53:42.344Z</time>
      </trkpt>
      <trkpt lat="45.92195" lon="6.37965">
        <ele>1101</ele>
        <time>2026-08-19T10:53:43.344Z</time>
      </trkpt>
      <trkpt lat="45.92195" lon="6.37964">
        <ele>1101</ele>
        <time>2026-08-19T10:53:44.344Z</time>
      </trkpt>
      <trkpt lat="45.92195" lon="6.37962">
        <ele>1102</ele>
        <time>2026-08-19T10:53:45.344Z</time>
      </trkpt>
      <trkpt lat="45.92195" lon="6.37961">
        <ele>1102</ele>
        <time>2026-08-19T10:53:46.344Z</time>
      </trkpt>
      <trkpt lat="45.92195" lon="6.37959">
        <ele>1102</ele>
        <time>2026-08-19T10:53:47.344Z</time>
      </trkpt>
      <trkpt lat="45.92195" lon="6.37958">
        <ele>1103</ele>
        <time>2026-08-19T10:53:48.344Z</time>
      </trkpt>
      <trkpt lat="45.92195" lon="6.37957">
        <ele>1103</ele>
        <time>2026-08-19T10:53:49.344Z</time>
      </trkpt>
      <trkpt lat="45.92194" lon="6.37955">
        <ele>1103</ele>
        <time>2026-08-19T10:53:50.344Z</time>
      </trkpt>
      <trkpt lat="45.92194" lon="6.37954">
        <ele>1103</ele>
        <time>2026-08-19T10:53:51.344Z</time>
      </trkpt>
      <trkpt lat="45.92194" lon="6.37952">
        <ele>1103</ele>
        <time>2026-08-19T10:53:52.345Z</time>
      </trkpt>
      <trkpt lat="45.92194" lon="6.37951">
        <ele>1103</ele>
        <time>2026-08-19T10:53:53.344Z</time>
      </trkpt>
      <trkpt lat="45.92194" lon="6.37949">
        <ele>1103</ele>
        <time>2026-08-19T10:53:54.344Z</time>
      </trkpt>
      <trkpt lat="45.92193" lon="6.37948">
        <ele>1103</ele>
        <time>2026-08-19T10:53:55.344Z</time>
      </trkpt>
      <trkpt lat="45.92193" lon="6.37946">
        <ele>1104</ele>
        <time>2026-08-19T10:53:56.344Z</time>
      </trkpt>
      <trkpt lat="45.92193" lon="6.37944">
        <ele>1104</ele>
        <time>2026-08-19T10:53:57.344Z</time>
      </trkpt>
      <trkpt lat="45.92192" lon="6.37942">
        <ele>1104</ele>
        <time>2026-08-19T10:53:58.344Z</time>
      </trkpt>
      <trkpt lat="45.92192" lon="6.37941">
        <ele>1104</ele>
        <time>2026-08-19T10:53:59.344Z</time>
      </trkpt>
      <trkpt lat="45.92192" lon="6.37939">
        <ele>1104</ele>
        <time>2026-08-19T10:54:00.344Z</time>
      </trkpt>
      <trkpt lat="45.92192" lon="6.37938">
        <ele>1104</ele>
        <time>2026-08-19T10:54:01.344Z</time>
      </trkpt>
      <trkpt lat="45.92192" lon="6.37937">
        <ele>1105</ele>
        <time>2026-08-19T10:54:02.344Z</time>
      </trkpt>
      <trkpt lat="45.92191" lon="6.37936">
        <ele>1105</ele>
        <time>2026-08-19T10:54:03.344Z</time>
      </trkpt>
      <trkpt lat="45.92191" lon="6.37935">
        <ele>1105</ele>
        <time>2026-08-19T10:54:04.344Z</time>
      </trkpt>
      <trkpt lat="45.92191" lon="6.37933">
        <ele>1105</ele>
        <time>2026-08-19T10:54:05.344Z</time>
      </trkpt>
      <trkpt lat="45.9219" lon="6.37932">
        <ele>1106</ele>
        <time>2026-08-19T10:54:06.344Z</time>
      </trkpt>
      <trkpt lat="45.9219" lon="6.3793">
        <ele>1106</ele>
        <time>2026-08-19T10:54:07.344Z</time>
      </trkpt>
      <trkpt lat="45.9219" lon="6.37927">
        <ele>1106</ele>
        <time>2026-08-19T10:54:08.344Z</time>
      </trkpt>
      <trkpt lat="45.9219" lon="6.37925">
        <ele>1106</ele>
        <time>2026-08-19T10:54:09.344Z</time>
      </trkpt>
      <trkpt lat="45.92189" lon="6.37924">
        <ele>1106</ele>
        <time>2026-08-19T10:54:10.344Z</time>
      </trkpt>
      <trkpt lat="45.92189" lon="6.37922">
        <ele>1106</ele>
        <time>2026-08-19T10:54:11.344Z</time>
      </trkpt>
      <trkpt lat="45.92188" lon="6.3792">
        <ele>1106</ele>
        <time>2026-08-19T10:54:12.344Z</time>
      </trkpt>
      <trkpt lat="45.92188" lon="6.37918">
        <ele>1107</ele>
        <time>2026-08-19T10:54:13.344Z</time>
      </trkpt>
      <trkpt lat="45.92188" lon="6.37916">
        <ele>1107</ele>
        <time>2026-08-19T10:54:14.344Z</time>
      </trkpt>
      <trkpt lat="45.92188" lon="6.37914">
        <ele>1107</ele>
        <time>2026-08-19T10:54:15.344Z</time>
      </trkpt>
      <trkpt lat="45.92187" lon="6.37912">
        <ele>1107</ele>
        <time>2026-08-19T10:54:16.345Z</time>
      </trkpt>
      <trkpt lat="45.92187" lon="6.3791">
        <ele>1107</ele>
        <time>2026-08-19T10:54:17.344Z</time>
      </trkpt>
      <trkpt lat="45.92187" lon="6.37908">
        <ele>1106</ele>
        <time>2026-08-19T10:54:18.344Z</time>
      </trkpt>
      <trkpt lat="45.92187" lon="6.37906">
        <ele>1106</ele>
        <time>2026-08-19T10:54:19.344Z</time>
      </trkpt>
      <trkpt lat="45.92188" lon="6.37905">
        <ele>1106</ele>
        <time>2026-08-19T10:54:20.344Z</time>
      </trkpt>
      <trkpt lat="45.92188" lon="6.37903">
        <ele>1106</ele>
        <time>2026-08-19T10:54:21.344Z</time>
      </trkpt>
      <trkpt lat="45.92188" lon="6.37901">
        <ele>1105</ele>
        <time>2026-08-19T10:54:22.344Z</time>
      </trkpt>
      <trkpt lat="45.92188" lon="6.379">
        <ele>1105</ele>
        <time>2026-08-19T10:54:23.344Z</time>
      </trkpt>
      <trkpt lat="45.92188" lon="6.37898">
        <ele>1105</ele>
        <time>2026-08-19T10:54:24.345Z</time>
      </trkpt>
      <trkpt lat="45.92188" lon="6.37897">
        <ele>1105</ele>
        <time>2026-08-19T10:54:25.344Z</time>
      </trkpt>
      <trkpt lat="45.92188" lon="6.37896">
        <ele>1105</ele>
        <time>2026-08-19T10:54:26.344Z</time>
      </trkpt>
      <trkpt lat="45.92188" lon="6.37895">
        <ele>1105</ele>
        <time>2026-08-19T10:54:27.344Z</time>
      </trkpt>
      <trkpt lat="45.92188" lon="6.37894">
        <ele>1106</ele>
        <time>2026-08-19T10:54:28.344Z</time>
      </trkpt>
      <trkpt lat="45.92188" lon="6.37893">
        <ele>1106</ele>
        <time>2026-08-19T10:54:29.344Z</time>
      </trkpt>
      <trkpt lat="45.92188" lon="6.37892">
        <ele>1107</ele>
        <time>2026-08-19T10:54:30.344Z</time>
      </trkpt>
      <trkpt lat="45.92188" lon="6.3789">
        <ele>1107</ele>
        <time>2026-08-19T10:54:31.344Z</time>
      </trkpt>
      <trkpt lat="45.92189" lon="6.37889">
        <ele>1107</ele>
        <time>2026-08-19T10:54:32.344Z</time>
      </trkpt>
      <trkpt lat="45.92189" lon="6.37887">
        <ele>1107</ele>
        <time>2026-08-19T10:54:33.344Z</time>
      </trkpt>
      <trkpt lat="45.9219" lon="6.37886">
        <ele>1107</ele>
        <time>2026-08-19T10:54:34.344Z</time>
      </trkpt>
      <trkpt lat="45.9219" lon="6.37884">
        <ele>1108</ele>
        <time>2026-08-19T10:54:35.344Z</time>
      </trkpt>
      <trkpt lat="45.9219" lon="6.37882">
        <ele>1108</ele>
        <time>2026-08-19T10:54:36.344Z</time>
      </trkpt>
      <trkpt lat="45.9219" lon="6.37881">
        <ele>1109</ele>
        <time>2026-08-19T10:54:37.344Z</time>
      </trkpt>
      <trkpt lat="45.9219" lon="6.37879">
        <ele>1109</ele>
        <time>2026-08-19T10:54:38.344Z</time>
      </trkpt>
      <trkpt lat="45.9219" lon="6.37877">
        <ele>1110</ele>
        <time>2026-08-19T10:54:39.345Z</time>
      </trkpt>
      <trkpt lat="45.9219" lon="6.37876">
        <ele>1110</ele>
        <time>2026-08-19T10:54:40.344Z</time>
      </trkpt>
      <trkpt lat="45.92191" lon="6.37874">
        <ele>1111</ele>
        <time>2026-08-19T10:54:41.344Z</time>
      </trkpt>
      <trkpt lat="45.92191" lon="6.37873">
        <ele>1111</ele>
        <time>2026-08-19T10:54:42.344Z</time>
      </trkpt>
      <trkpt lat="45.92191" lon="6.37871">
        <ele>1112</ele>
        <time>2026-08-19T10:54:43.344Z</time>
      </trkpt>
      <trkpt lat="45.92191" lon="6.3787">
        <ele>1112</ele>
        <time>2026-08-19T10:54:44.344Z</time>
      </trkpt>
      <trkpt lat="45.92191" lon="6.37868">
        <ele>1113</ele>
        <time>2026-08-19T10:54:45.344Z</time>
      </trkpt>
      <trkpt lat="45.92191" lon="6.37867">
        <ele>1113</ele>
        <time>2026-08-19T10:54:46.344Z</time>
      </trkpt>
      <trkpt lat="45.9219" lon="6.37865">
        <ele>1113</ele>
        <time>2026-08-19T10:54:47.344Z</time>
      </trkpt>
      <trkpt lat="45.9219" lon="6.37863">
        <ele>1113</ele>
        <time>2026-08-19T10:54:48.344Z</time>
      </trkpt>
      <trkpt lat="45.9219" lon="6.37862">
        <ele>1113</ele>
        <time>2026-08-19T10:54:49.344Z</time>
      </trkpt>
      <trkpt lat="45.9219" lon="6.3786">
        <ele>1114</ele>
        <time>2026-08-19T10:54:50.344Z</time>
      </trkpt>
      <trkpt lat="45.9219" lon="6.37858">
        <ele>1114</ele>
        <time>2026-08-19T10:54:51.344Z</time>
      </trkpt>
      <trkpt lat="45.9219" lon="6.37857">
        <ele>1114</ele>
        <time>2026-08-19T10:54:52.344Z</time>
      </trkpt>
      <trkpt lat="45.92189" lon="6.37856">
        <ele>1114</ele>
        <time>2026-08-19T10:54:53.344Z</time>
      </trkpt>
      <trkpt lat="45.92189" lon="6.37854">
        <ele>1114</ele>
        <time>2026-08-19T10:54:54.344Z</time>
      </trkpt>
      <trkpt lat="45.92189" lon="6.37852">
        <ele>1115</ele>
        <time>2026-08-19T10:54:55.344Z</time>
      </trkpt>
      <trkpt lat="45.92189" lon="6.37851">
        <ele>1115</ele>
        <time>2026-08-19T10:54:56.344Z</time>
      </trkpt>
      <trkpt lat="45.92189" lon="6.37849">
        <ele>1115</ele>
        <time>2026-08-19T10:54:57.344Z</time>
      </trkpt>
      <trkpt lat="45.92189" lon="6.37848">
        <ele>1115</ele>
        <time>2026-08-19T10:54:58.344Z</time>
      </trkpt>
      <trkpt lat="45.92189" lon="6.37847">
        <ele>1116</ele>
        <time>2026-08-19T10:54:59.344Z</time>
      </trkpt>
      <trkpt lat="45.92189" lon="6.37845">
        <ele>1116</ele>
        <time>2026-08-19T10:55:00.344Z</time>
      </trkpt>
      <trkpt lat="45.92189" lon="6.37843">
        <ele>1117</ele>
        <time>2026-08-19T10:55:01.344Z</time>
      </trkpt>
      <trkpt lat="45.92189" lon="6.37842">
        <ele>1117</ele>
        <time>2026-08-19T10:55:02.344Z</time>
      </trkpt>
      <trkpt lat="45.92189" lon="6.3784">
        <ele>1117</ele>
        <time>2026-08-19T10:55:03.344Z</time>
      </trkpt>
      <trkpt lat="45.92189" lon="6.37839">
        <ele>1118</ele>
        <time>2026-08-19T10:55:04.344Z</time>
      </trkpt>
      <trkpt lat="45.92189" lon="6.37837">
        <ele>1118</ele>
        <time>2026-08-19T10:55:05.344Z</time>
      </trkpt>
      <trkpt lat="45.92188" lon="6.37835">
        <ele>1118</ele>
        <time>2026-08-19T10:55:06.344Z</time>
      </trkpt>
      <trkpt lat="45.92188" lon="6.37834">
        <ele>1118</ele>
        <time>2026-08-19T10:55:07.344Z</time>
      </trkpt>
      <trkpt lat="45.92188" lon="6.37833">
        <ele>1119</ele>
        <time>2026-08-19T10:55:08.344Z</time>
      </trkpt>
      <trkpt lat="45.92188" lon="6.37832">
        <ele>1119</ele>
        <time>2026-08-19T10:55:09.344Z</time>
      </trkpt>
      <trkpt lat="45.92187" lon="6.37831">
        <ele>1119</ele>
        <time>2026-08-19T10:55:10.344Z</time>
      </trkpt>
      <trkpt lat="45.92187" lon="6.3783">
        <ele>1120</ele>
        <time>2026-08-19T10:55:11.344Z</time>
      </trkpt>
      <trkpt lat="45.92187" lon="6.3783">
        <ele>1120</ele>
        <time>2026-08-19T10:55:12.344Z</time>
      </trkpt>
      <trkpt lat="45.92186" lon="6.37828">
        <ele>1120</ele>
        <time>2026-08-19T10:55:13.344Z</time>
      </trkpt>
      <trkpt lat="45.92185" lon="6.37826">
        <ele>1121</ele>
        <time>2026-08-19T10:55:14.344Z</time>
      </trkpt>
      <trkpt lat="45.92184" lon="6.37824">
        <ele>1121</ele>
        <time>2026-08-19T10:55:15.344Z</time>
      </trkpt>
      <trkpt lat="45.92184" lon="6.37822">
        <ele>1121</ele>
        <time>2026-08-19T10:55:16.344Z</time>
      </trkpt>
      <trkpt lat="45.92184" lon="6.37821">
        <ele>1122</ele>
        <time>2026-08-19T10:55:17.344Z</time>
      </trkpt>
      <trkpt lat="45.92184" lon="6.37819">
        <ele>1122</ele>
        <time>2026-08-19T10:55:18.344Z</time>
      </trkpt>
      <trkpt lat="45.92184" lon="6.37818">
        <ele>1122</ele>
        <time>2026-08-19T10:55:19.344Z</time>
      </trkpt>
      <trkpt lat="45.92184" lon="6.37816">
        <ele>1122</ele>
        <time>2026-08-19T10:55:20.344Z</time>
      </trkpt>
      <trkpt lat="45.92184" lon="6.37814">
        <ele>1122</ele>
        <time>2026-08-19T10:55:21.344Z</time>
      </trkpt>
      <trkpt lat="45.92184" lon="6.37813">
        <ele>1122</ele>
        <time>2026-08-19T10:55:22.344Z</time>
      </trkpt>
      <trkpt lat="45.92185" lon="6.37811">
        <ele>1123</ele>
        <time>2026-08-19T10:55:23.344Z</time>
      </trkpt>
      <trkpt lat="45.92185" lon="6.3781">
        <ele>1123</ele>
        <time>2026-08-19T10:55:24.344Z</time>
      </trkpt>
      <trkpt lat="45.92185" lon="6.37809">
        <ele>1123</ele>
        <time>2026-08-19T10:55:25.344Z</time>
      </trkpt>
      <trkpt lat="45.92185" lon="6.37807">
        <ele>1124</ele>
        <time>2026-08-19T10:55:26.344Z</time>
      </trkpt>
      <trkpt lat="45.92184" lon="6.37806">
        <ele>1124</ele>
        <time>2026-08-19T10:55:27.344Z</time>
      </trkpt>
      <trkpt lat="45.92184" lon="6.37805">
        <ele>1125</ele>
        <time>2026-08-19T10:55:28.344Z</time>
      </trkpt>
      <trkpt lat="45.92184" lon="6.37803">
        <ele>1125</ele>
        <time>2026-08-19T10:55:29.344Z</time>
      </trkpt>
      <trkpt lat="45.92184" lon="6.37802">
        <ele>1125</ele>
        <time>2026-08-19T10:55:30.344Z</time>
      </trkpt>
      <trkpt lat="45.92184" lon="6.378">
        <ele>1126</ele>
        <time>2026-08-19T10:55:31.344Z</time>
      </trkpt>
      <trkpt lat="45.92184" lon="6.37799">
        <ele>1126</ele>
        <time>2026-08-19T10:55:32.344Z</time>
      </trkpt>
      <trkpt lat="45.92184" lon="6.37797">
        <ele>1126</ele>
        <time>2026-08-19T10:55:33.344Z</time>
      </trkpt>
      <trkpt lat="45.92183" lon="6.37796">
        <ele>1127</ele>
        <time>2026-08-19T10:55:34.344Z</time>
      </trkpt>
      <trkpt lat="45.92183" lon="6.37794">
        <ele>1127</ele>
        <time>2026-08-19T10:55:35.344Z</time>
      </trkpt>
      <trkpt lat="45.92183" lon="6.37793">
        <ele>1127</ele>
        <time>2026-08-19T10:55:36.344Z</time>
      </trkpt>
      <trkpt lat="45.92183" lon="6.37792">
        <ele>1127</ele>
        <time>2026-08-19T10:55:37.344Z</time>
      </trkpt>
      <trkpt lat="45.92183" lon="6.37791">
        <ele>1127</ele>
        <time>2026-08-19T10:55:38.344Z</time>
      </trkpt>
      <trkpt lat="45.92183" lon="6.37789">
        <ele>1127</ele>
        <time>2026-08-19T10:55:39.344Z</time>
      </trkpt>
      <trkpt lat="45.92183" lon="6.37788">
        <ele>1127</ele>
        <time>2026-08-19T10:55:40.344Z</time>
      </trkpt>
      <trkpt lat="45.92183" lon="6.37786">
        <ele>1127</ele>
        <time>2026-08-19T10:55:41.345Z</time>
      </trkpt>
      <trkpt lat="45.92184" lon="6.37785">
        <ele>1127</ele>
        <time>2026-08-19T10:55:42.344Z</time>
      </trkpt>
      <trkpt lat="45.92184" lon="6.37783">
        <ele>1127</ele>
        <time>2026-08-19T10:55:43.344Z</time>
      </trkpt>
      <trkpt lat="45.92184" lon="6.37782">
        <ele>1127</ele>
        <time>2026-08-19T10:55:44.344Z</time>
      </trkpt>
      <trkpt lat="45.92184" lon="6.3778">
        <ele>1128</ele>
        <time>2026-08-19T10:55:45.344Z</time>
      </trkpt>
      <trkpt lat="45.92184" lon="6.37779">
        <ele>1128</ele>
        <time>2026-08-19T10:55:46.344Z</time>
      </trkpt>
      <trkpt lat="45.92184" lon="6.37778">
        <ele>1128</ele>
        <time>2026-08-19T10:55:47.344Z</time>
      </trkpt>
      <trkpt lat="45.92184" lon="6.37777">
        <ele>1129</ele>
        <time>2026-08-19T10:55:48.344Z</time>
      </trkpt>
      <trkpt lat="45.92184" lon="6.37776">
        <ele>1129</ele>
        <time>2026-08-19T10:55:49.344Z</time>
      </trkpt>
      <trkpt lat="45.92184" lon="6.37774">
        <ele>1129</ele>
        <time>2026-08-19T10:55:50.344Z</time>
      </trkpt>
      <trkpt lat="45.92184" lon="6.37773">
        <ele>1129</ele>
        <time>2026-08-19T10:55:51.344Z</time>
      </trkpt>
      <trkpt lat="45.92184" lon="6.37771">
        <ele>1129</ele>
        <time>2026-08-19T10:55:52.344Z</time>
      </trkpt>
      <trkpt lat="45.92183" lon="6.3777">
        <ele>1129</ele>
        <time>2026-08-19T10:55:53.344Z</time>
      </trkpt>
      <trkpt lat="45.92183" lon="6.37768">
        <ele>1129</ele>
        <time>2026-08-19T10:55:54.344Z</time>
      </trkpt>
      <trkpt lat="45.92183" lon="6.37767">
        <ele>1128</ele>
        <time>2026-08-19T10:55:55.344Z</time>
      </trkpt>
      <trkpt lat="45.92183" lon="6.37766">
        <ele>1128</ele>
        <time>2026-08-19T10:55:56.344Z</time>
      </trkpt>
      <trkpt lat="45.92183" lon="6.37765">
        <ele>1128</ele>
        <time>2026-08-19T10:55:57.344Z</time>
      </trkpt>
      <trkpt lat="45.92183" lon="6.37764">
        <ele>1128</ele>
        <time>2026-08-19T10:55:58.344Z</time>
      </trkpt>
      <trkpt lat="45.92183" lon="6.37763">
        <ele>1129</ele>
        <time>2026-08-19T10:55:59.344Z</time>
      </trkpt>
      <trkpt lat="45.92183" lon="6.37761">
        <ele>1129</ele>
        <time>2026-08-19T10:56:00.344Z</time>
      </trkpt>
      <trkpt lat="45.92183" lon="6.3776">
        <ele>1129</ele>
        <time>2026-08-19T10:56:01.344Z</time>
      </trkpt>
      <trkpt lat="45.92183" lon="6.37758">
        <ele>1130</ele>
        <time>2026-08-19T10:56:02.344Z</time>
      </trkpt>
      <trkpt lat="45.92183" lon="6.37757">
        <ele>1130</ele>
        <time>2026-08-19T10:56:03.344Z</time>
      </trkpt>
      <trkpt lat="45.92183" lon="6.37755">
        <ele>1130</ele>
        <time>2026-08-19T10:56:04.344Z</time>
      </trkpt>
      <trkpt lat="45.92182" lon="6.37754">
        <ele>1131</ele>
        <time>2026-08-19T10:56:05.344Z</time>
      </trkpt>
      <trkpt lat="45.92182" lon="6.37753">
        <ele>1131</ele>
        <time>2026-08-19T10:56:06.344Z</time>
      </trkpt>
      <trkpt lat="45.92182" lon="6.37751">
        <ele>1132</ele>
        <time>2026-08-19T10:56:07.344Z</time>
      </trkpt>
      <trkpt lat="45.92181" lon="6.3775">
        <ele>1132</ele>
        <time>2026-08-19T10:56:08.344Z</time>
      </trkpt>
      <trkpt lat="45.92181" lon="6.37748">
        <ele>1132</ele>
        <time>2026-08-19T10:56:09.344Z</time>
      </trkpt>
      <trkpt lat="45.92181" lon="6.37746">
        <ele>1132</ele>
        <time>2026-08-19T10:56:10.344Z</time>
      </trkpt>
      <trkpt lat="45.92181" lon="6.37745">
        <ele>1132</ele>
        <time>2026-08-19T10:56:11.344Z</time>
      </trkpt>
      <trkpt lat="45.92181" lon="6.37744">
        <ele>1132</ele>
        <time>2026-08-19T10:56:12.344Z</time>
      </trkpt>
      <trkpt lat="45.92181" lon="6.37742">
        <ele>1132</ele>
        <time>2026-08-19T10:56:13.344Z</time>
      </trkpt>
      <trkpt lat="45.92181" lon="6.37741">
        <ele>1132</ele>
        <time>2026-08-19T10:56:14.344Z</time>
      </trkpt>
      <trkpt lat="45.92181" lon="6.37739">
        <ele>1132</ele>
        <time>2026-08-19T10:56:15.344Z</time>
      </trkpt>
      <trkpt lat="45.9218" lon="6.37738">
        <ele>1132</ele>
        <time>2026-08-19T10:56:16.344Z</time>
      </trkpt>
      <trkpt lat="45.9218" lon="6.37736">
        <ele>1132</ele>
        <time>2026-08-19T10:56:17.344Z</time>
      </trkpt>
      <trkpt lat="45.9218" lon="6.37735">
        <ele>1132</ele>
        <time>2026-08-19T10:56:18.344Z</time>
      </trkpt>
      <trkpt lat="45.9218" lon="6.37733">
        <ele>1133</ele>
        <time>2026-08-19T10:56:19.344Z</time>
      </trkpt>
      <trkpt lat="45.9218" lon="6.37732">
        <ele>1133</ele>
        <time>2026-08-19T10:56:20.344Z</time>
      </trkpt>
      <trkpt lat="45.9218" lon="6.37731">
        <ele>1133</ele>
        <time>2026-08-19T10:56:21.344Z</time>
      </trkpt>
      <trkpt lat="45.9218" lon="6.3773">
        <ele>1133</ele>
        <time>2026-08-19T10:56:22.344Z</time>
      </trkpt>
      <trkpt lat="45.9218" lon="6.37728">
        <ele>1133</ele>
        <time>2026-08-19T10:56:23.344Z</time>
      </trkpt>
      <trkpt lat="45.9218" lon="6.37727">
        <ele>1133</ele>
        <time>2026-08-19T10:56:24.344Z</time>
      </trkpt>
      <trkpt lat="45.9218" lon="6.37726">
        <ele>1134</ele>
        <time>2026-08-19T10:56:25.344Z</time>
      </trkpt>
      <trkpt lat="45.9218" lon="6.37724">
        <ele>1134</ele>
        <time>2026-08-19T10:56:26.344Z</time>
      </trkpt>
      <trkpt lat="45.9218" lon="6.37723">
        <ele>1134</ele>
        <time>2026-08-19T10:56:27.344Z</time>
      </trkpt>
      <trkpt lat="45.92181" lon="6.37721">
        <ele>1134</ele>
        <time>2026-08-19T10:56:28.344Z</time>
      </trkpt>
      <trkpt lat="45.92181" lon="6.3772">
        <ele>1133</ele>
        <time>2026-08-19T10:56:29.344Z</time>
      </trkpt>
      <trkpt lat="45.92181" lon="6.37719">
        <ele>1134</ele>
        <time>2026-08-19T10:56:30.344Z</time>
      </trkpt>
      <trkpt lat="45.92182" lon="6.37718">
        <ele>1134</ele>
        <time>2026-08-19T10:56:31.344Z</time>
      </trkpt>
      <trkpt lat="45.92182" lon="6.37717">
        <ele>1134</ele>
        <time>2026-08-19T10:56:32.344Z</time>
      </trkpt>
      <trkpt lat="45.92182" lon="6.37715">
        <ele>1135</ele>
        <time>2026-08-19T10:56:33.344Z</time>
      </trkpt>
      <trkpt lat="45.92181" lon="6.37714">
        <ele>1135</ele>
        <time>2026-08-19T10:56:34.344Z</time>
      </trkpt>
      <trkpt lat="45.92182" lon="6.37712">
        <ele>1135</ele>
        <time>2026-08-19T10:56:35.344Z</time>
      </trkpt>
      <trkpt lat="45.92182" lon="6.37711">
        <ele>1136</ele>
        <time>2026-08-19T10:56:36.345Z</time>
      </trkpt>
      <trkpt lat="45.92182" lon="6.3771">
        <ele>1136</ele>
        <time>2026-08-19T10:56:37.344Z</time>
      </trkpt>
      <trkpt lat="45.92183" lon="6.37709">
        <ele>1136</ele>
        <time>2026-08-19T10:56:38.344Z</time>
      </trkpt>
      <trkpt lat="45.92183" lon="6.37707">
        <ele>1137</ele>
        <time>2026-08-19T10:56:39.344Z</time>
      </trkpt>
      <trkpt lat="45.92183" lon="6.37706">
        <ele>1137</ele>
        <time>2026-08-19T10:56:40.344Z</time>
      </trkpt>
      <trkpt lat="45.92183" lon="6.37704">
        <ele>1138</ele>
        <time>2026-08-19T10:56:41.344Z</time>
      </trkpt>
      <trkpt lat="45.92184" lon="6.37703">
        <ele>1138</ele>
        <time>2026-08-19T10:56:42.344Z</time>
      </trkpt>
      <trkpt lat="45.92184" lon="6.37701">
        <ele>1139</ele>
        <time>2026-08-19T10:56:43.344Z</time>
      </trkpt>
      <trkpt lat="45.92184" lon="6.377">
        <ele>1139</ele>
        <time>2026-08-19T10:56:44.344Z</time>
      </trkpt>
      <trkpt lat="45.92185" lon="6.37699">
        <ele>1140</ele>
        <time>2026-08-19T10:56:45.344Z</time>
      </trkpt>
      <trkpt lat="45.92185" lon="6.37697">
        <ele>1140</ele>
        <time>2026-08-19T10:56:46.344Z</time>
      </trkpt>
      <trkpt lat="45.92185" lon="6.37696">
        <ele>1140</ele>
        <time>2026-08-19T10:56:47.344Z</time>
      </trkpt>
      <trkpt lat="45.92186" lon="6.37694">
        <ele>1141</ele>
        <time>2026-08-19T10:56:48.344Z</time>
      </trkpt>
      <trkpt lat="45.92186" lon="6.37693">
        <ele>1141</ele>
        <time>2026-08-19T10:56:49.344Z</time>
      </trkpt>
      <trkpt lat="45.92186" lon="6.37693">
        <ele>1141</ele>
        <time>2026-08-19T10:56:50.344Z</time>
      </trkpt>
      <trkpt lat="45.92186" lon="6.37692">
        <ele>1142</ele>
        <time>2026-08-19T10:56:51.344Z</time>
      </trkpt>
      <trkpt lat="45.92187" lon="6.37691">
        <ele>1142</ele>
        <time>2026-08-19T10:56:52.344Z</time>
      </trkpt>
      <trkpt lat="45.92188" lon="6.3769">
        <ele>1142</ele>
        <time>2026-08-19T10:56:53.344Z</time>
      </trkpt>
      <trkpt lat="45.92187" lon="6.37689">
        <ele>1142</ele>
        <time>2026-08-19T10:56:54.344Z</time>
      </trkpt>
      <trkpt lat="45.92187" lon="6.37687">
        <ele>1142</ele>
        <time>2026-08-19T10:56:55.344Z</time>
      </trkpt>
      <trkpt lat="45.92187" lon="6.37686">
        <ele>1142</ele>
        <time>2026-08-19T10:56:56.344Z</time>
      </trkpt>
      <trkpt lat="45.92187" lon="6.37685">
        <ele>1141</ele>
        <time>2026-08-19T10:56:57.344Z</time>
      </trkpt>
      <trkpt lat="45.92186" lon="6.37684">
        <ele>1141</ele>
        <time>2026-08-19T10:56:58.344Z</time>
      </trkpt>
      <trkpt lat="45.92186" lon="6.37682">
        <ele>1141</ele>
        <time>2026-08-19T10:56:59.344Z</time>
      </trkpt>
      <trkpt lat="45.92186" lon="6.37681">
        <ele>1141</ele>
        <time>2026-08-19T10:57:00.344Z</time>
      </trkpt>
      <trkpt lat="45.92185" lon="6.3768">
        <ele>1141</ele>
        <time>2026-08-19T10:57:01.344Z</time>
      </trkpt>
      <trkpt lat="45.92184" lon="6.37679">
        <ele>1141</ele>
        <time>2026-08-19T10:57:02.344Z</time>
      </trkpt>
      <trkpt lat="45.92184" lon="6.37677">
        <ele>1141</ele>
        <time>2026-08-19T10:57:03.345Z</time>
      </trkpt>
      <trkpt lat="45.92183" lon="6.37676">
        <ele>1142</ele>
        <time>2026-08-19T10:57:04.344Z</time>
      </trkpt>
      <trkpt lat="45.92183" lon="6.37675">
        <ele>1142</ele>
        <time>2026-08-19T10:57:05.345Z</time>
      </trkpt>
      <trkpt lat="45.92183" lon="6.37675">
        <ele>1142</ele>
        <time>2026-08-19T10:57:06.344Z</time>
      </trkpt>
      <trkpt lat="45.92183" lon="6.37674">
        <ele>1142</ele>
        <time>2026-08-19T10:57:07.344Z</time>
      </trkpt>
      <trkpt lat="45.92183" lon="6.37673">
        <ele>1142</ele>
        <time>2026-08-19T10:57:08.344Z</time>
      </trkpt>
      <trkpt lat="45.92183" lon="6.37671">
        <ele>1143</ele>
        <time>2026-08-19T10:57:09.344Z</time>
      </trkpt>
      <trkpt lat="45.92183" lon="6.37671">
        <ele>1143</ele>
        <time>2026-08-19T10:57:10.344Z</time>
      </trkpt>
      <trkpt lat="45.92183" lon="6.3767">
        <ele>1143</ele>
        <time>2026-08-19T10:57:11.344Z</time>
      </trkpt>
      <trkpt lat="45.92183" lon="6.37669">
        <ele>1143</ele>
        <time>2026-08-19T10:57:12.344Z</time>
      </trkpt>
      <trkpt lat="45.92183" lon="6.37668">
        <ele>1143</ele>
        <time>2026-08-19T10:57:13.344Z</time>
      </trkpt>
      <trkpt lat="45.92182" lon="6.37667">
        <ele>1144</ele>
        <time>2026-08-19T10:57:14.344Z</time>
      </trkpt>
      <trkpt lat="45.92182" lon="6.37666">
        <ele>1144</ele>
        <time>2026-08-19T10:57:15.344Z</time>
      </trkpt>
      <trkpt lat="45.92182" lon="6.37665">
        <ele>1145</ele>
        <time>2026-08-19T10:57:16.344Z</time>
      </trkpt>
      <trkpt lat="45.92182" lon="6.37665">
        <ele>1145</ele>
        <time>2026-08-19T10:57:17.344Z</time>
      </trkpt>
      <trkpt lat="45.92182" lon="6.37664">
        <ele>1146</ele>
        <time>2026-08-19T10:57:18.344Z</time>
      </trkpt>
      <trkpt lat="45.92181" lon="6.37662">
        <ele>1146</ele>
        <time>2026-08-19T10:57:19.344Z</time>
      </trkpt>
      <trkpt lat="45.92181" lon="6.37662">
        <ele>1147</ele>
        <time>2026-08-19T10:57:20.344Z</time>
      </trkpt>
      <trkpt lat="45.92181" lon="6.37661">
        <ele>1147</ele>
        <time>2026-08-19T10:57:21.344Z</time>
      </trkpt>
      <trkpt lat="45.92182" lon="6.3766">
        <ele>1147</ele>
        <time>2026-08-19T10:57:22.344Z</time>
      </trkpt>
      <trkpt lat="45.92182" lon="6.37659">
        <ele>1148</ele>
        <time>2026-08-19T10:57:23.344Z</time>
      </trkpt>
      <trkpt lat="45.92182" lon="6.37658">
        <ele>1148</ele>
        <time>2026-08-19T10:57:24.344Z</time>
      </trkpt>
      <trkpt lat="45.92181" lon="6.37657">
        <ele>1148</ele>
        <time>2026-08-19T10:57:25.344Z</time>
      </trkpt>
      <trkpt lat="45.92182" lon="6.37656">
        <ele>1148</ele>
        <time>2026-08-19T10:57:26.344Z</time>
      </trkpt>
      <trkpt lat="45.92183" lon="6.37655">
        <ele>1148</ele>
        <time>2026-08-19T10:57:27.344Z</time>
      </trkpt>
      <trkpt lat="45.92183" lon="6.37654">
        <ele>1148</ele>
        <time>2026-08-19T10:57:28.345Z</time>
      </trkpt>
      <trkpt lat="45.92183" lon="6.37653">
        <ele>1149</ele>
        <time>2026-08-19T10:57:29.344Z</time>
      </trkpt>
      <trkpt lat="45.92184" lon="6.37652">
        <ele>1149</ele>
        <time>2026-08-19T10:57:30.344Z</time>
      </trkpt>
      <trkpt lat="45.92184" lon="6.37651">
        <ele>1150</ele>
        <time>2026-08-19T10:57:31.344Z</time>
      </trkpt>
      <trkpt lat="45.92184" lon="6.3765">
        <ele>1150</ele>
        <time>2026-08-19T10:57:32.344Z</time>
      </trkpt>
      <trkpt lat="45.92184" lon="6.37648">
        <ele>1150</ele>
        <time>2026-08-19T10:57:33.344Z</time>
      </trkpt>
      <trkpt lat="45.92183" lon="6.37647">
        <ele>1151</ele>
        <time>2026-08-19T10:57:34.344Z</time>
      </trkpt>
      <trkpt lat="45.92183" lon="6.37646">
        <ele>1151</ele>
        <time>2026-08-19T10:57:35.344Z</time>
      </trkpt>
      <trkpt lat="45.92183" lon="6.37644">
        <ele>1151</ele>
        <time>2026-08-19T10:57:36.344Z</time>
      </trkpt>
      <trkpt lat="45.92183" lon="6.37643">
        <ele>1152</ele>
        <time>2026-08-19T10:57:37.344Z</time>
      </trkpt>
      <trkpt lat="45.92182" lon="6.37642">
        <ele>1152</ele>
        <time>2026-08-19T10:57:38.344Z</time>
      </trkpt>
      <trkpt lat="45.92183" lon="6.37641">
        <ele>1152</ele>
        <time>2026-08-19T10:57:39.344Z</time>
      </trkpt>
      <trkpt lat="45.92183" lon="6.37639">
        <ele>1152</ele>
        <time>2026-08-19T10:57:40.344Z</time>
      </trkpt>
      <trkpt lat="45.92183" lon="6.37637">
        <ele>1152</ele>
        <time>2026-08-19T10:57:41.344Z</time>
      </trkpt>
      <trkpt lat="45.92183" lon="6.37635">
        <ele>1152</ele>
        <time>2026-08-19T10:57:42.344Z</time>
      </trkpt>
      <trkpt lat="45.92183" lon="6.37634">
        <ele>1153</ele>
        <time>2026-08-19T10:57:43.344Z</time>
      </trkpt>
      <trkpt lat="45.92183" lon="6.37633">
        <ele>1153</ele>
        <time>2026-08-19T10:57:44.344Z</time>
      </trkpt>
      <trkpt lat="45.92183" lon="6.37631">
        <ele>1153</ele>
        <time>2026-08-19T10:57:45.344Z</time>
      </trkpt>
      <trkpt lat="45.92183" lon="6.37629">
        <ele>1153</ele>
        <time>2026-08-19T10:57:46.344Z</time>
      </trkpt>
      <trkpt lat="45.92183" lon="6.37628">
        <ele>1154</ele>
        <time>2026-08-19T10:57:47.344Z</time>
      </trkpt>
      <trkpt lat="45.92182" lon="6.37626">
        <ele>1154</ele>
        <time>2026-08-19T10:57:48.344Z</time>
      </trkpt>
      <trkpt lat="45.92182" lon="6.37624">
        <ele>1154</ele>
        <time>2026-08-19T10:57:49.344Z</time>
      </trkpt>
      <trkpt lat="45.92183" lon="6.37623">
        <ele>1154</ele>
        <time>2026-08-19T10:57:50.344Z</time>
      </trkpt>
      <trkpt lat="45.92183" lon="6.37621">
        <ele>1154</ele>
        <time>2026-08-19T10:57:51.344Z</time>
      </trkpt>
      <trkpt lat="45.92183" lon="6.3762">
        <ele>1154</ele>
        <time>2026-08-19T10:57:52.345Z</time>
      </trkpt>
      <trkpt lat="45.92184" lon="6.37618">
        <ele>1153</ele>
        <time>2026-08-19T10:57:53.344Z</time>
      </trkpt>
      <trkpt lat="45.92184" lon="6.37617">
        <ele>1153</ele>
        <time>2026-08-19T10:57:54.344Z</time>
      </trkpt>
      <trkpt lat="45.92184" lon="6.37615">
        <ele>1153</ele>
        <time>2026-08-19T10:57:55.344Z</time>
      </trkpt>
      <trkpt lat="45.92185" lon="6.37614">
        <ele>1153</ele>
        <time>2026-08-19T10:57:56.344Z</time>
      </trkpt>
      <trkpt lat="45.92185" lon="6.37612">
        <ele>1153</ele>
        <time>2026-08-19T10:57:57.344Z</time>
      </trkpt>
      <trkpt lat="45.92185" lon="6.3761">
        <ele>1152</ele>
        <time>2026-08-19T10:57:58.344Z</time>
      </trkpt>
      <trkpt lat="45.92185" lon="6.37607">
        <ele>1152</ele>
        <time>2026-08-19T10:57:59.344Z</time>
      </trkpt>
      <trkpt lat="45.92185" lon="6.37605">
        <ele>1152</ele>
        <time>2026-08-19T10:58:00.344Z</time>
      </trkpt>
      <trkpt lat="45.92185" lon="6.37604">
        <ele>1152</ele>
        <time>2026-08-19T10:58:01.344Z</time>
      </trkpt>
      <trkpt lat="45.92186" lon="6.37603">
        <ele>1152</ele>
        <time>2026-08-19T10:58:02.344Z</time>
      </trkpt>
      <trkpt lat="45.92186" lon="6.37601">
        <ele>1152</ele>
        <time>2026-08-19T10:58:03.344Z</time>
      </trkpt>
      <trkpt lat="45.92186" lon="6.376">
        <ele>1152</ele>
        <time>2026-08-19T10:58:04.344Z</time>
      </trkpt>
      <trkpt lat="45.92186" lon="6.37599">
        <ele>1152</ele>
        <time>2026-08-19T10:58:05.344Z</time>
      </trkpt>
      <trkpt lat="45.92187" lon="6.37597">
        <ele>1153</ele>
        <time>2026-08-19T10:58:06.344Z</time>
      </trkpt>
      <trkpt lat="45.92187" lon="6.37596">
        <ele>1153</ele>
        <time>2026-08-19T10:58:07.345Z</time>
      </trkpt>
      <trkpt lat="45.92187" lon="6.37594">
        <ele>1153</ele>
        <time>2026-08-19T10:58:08.344Z</time>
      </trkpt>
      <trkpt lat="45.92187" lon="6.37593">
        <ele>1153</ele>
        <time>2026-08-19T10:58:09.344Z</time>
      </trkpt>
      <trkpt lat="45.92188" lon="6.37591">
        <ele>1154</ele>
        <time>2026-08-19T10:58:10.344Z</time>
      </trkpt>
      <trkpt lat="45.92188" lon="6.3759">
        <ele>1153</ele>
        <time>2026-08-19T10:58:11.344Z</time>
      </trkpt>
      <trkpt lat="45.92188" lon="6.37588">
        <ele>1153</ele>
        <time>2026-08-19T10:58:12.344Z</time>
      </trkpt>
      <trkpt lat="45.92189" lon="6.37586">
        <ele>1153</ele>
        <time>2026-08-19T10:58:13.344Z</time>
      </trkpt>
      <trkpt lat="45.92189" lon="6.37584">
        <ele>1153</ele>
        <time>2026-08-19T10:58:14.344Z</time>
      </trkpt>
      <trkpt lat="45.92189" lon="6.37583">
        <ele>1153</ele>
        <time>2026-08-19T10:58:15.344Z</time>
      </trkpt>
      <trkpt lat="45.92189" lon="6.37581">
        <ele>1153</ele>
        <time>2026-08-19T10:58:16.344Z</time>
      </trkpt>
      <trkpt lat="45.92189" lon="6.37579">
        <ele>1154</ele>
        <time>2026-08-19T10:58:17.344Z</time>
      </trkpt>
      <trkpt lat="45.9219" lon="6.37577">
        <ele>1154</ele>
        <time>2026-08-19T10:58:18.344Z</time>
      </trkpt>
      <trkpt lat="45.9219" lon="6.37576">
        <ele>1154</ele>
        <time>2026-08-19T10:58:19.344Z</time>
      </trkpt>
      <trkpt lat="45.9219" lon="6.37575">
        <ele>1154</ele>
        <time>2026-08-19T10:58:20.344Z</time>
      </trkpt>
      <trkpt lat="45.92191" lon="6.37573">
        <ele>1155</ele>
        <time>2026-08-19T10:58:21.344Z</time>
      </trkpt>
      <trkpt lat="45.92192" lon="6.37571">
        <ele>1155</ele>
        <time>2026-08-19T10:58:22.344Z</time>
      </trkpt>
      <trkpt lat="45.92192" lon="6.3757">
        <ele>1155</ele>
        <time>2026-08-19T10:58:23.344Z</time>
      </trkpt>
      <trkpt lat="45.92192" lon="6.37568">
        <ele>1155</ele>
        <time>2026-08-19T10:58:24.344Z</time>
      </trkpt>
      <trkpt lat="45.92192" lon="6.37567">
        <ele>1156</ele>
        <time>2026-08-19T10:58:25.344Z</time>
      </trkpt>
      <trkpt lat="45.92193" lon="6.37566">
        <ele>1156</ele>
        <time>2026-08-19T10:58:26.344Z</time>
      </trkpt>
      <trkpt lat="45.92193" lon="6.37565">
        <ele>1157</ele>
        <time>2026-08-19T10:58:27.344Z</time>
      </trkpt>
      <trkpt lat="45.92193" lon="6.37564">
        <ele>1157</ele>
        <time>2026-08-19T10:58:28.344Z</time>
      </trkpt>
      <trkpt lat="45.92193" lon="6.37563">
        <ele>1158</ele>
        <time>2026-08-19T10:58:29.344Z</time>
      </trkpt>
      <trkpt lat="45.92194" lon="6.37561">
        <ele>1158</ele>
        <time>2026-08-19T10:58:30.344Z</time>
      </trkpt>
      <trkpt lat="45.92194" lon="6.37561">
        <ele>1159</ele>
        <time>2026-08-19T10:58:31.344Z</time>
      </trkpt>
      <trkpt lat="45.92194" lon="6.3756">
        <ele>1159</ele>
        <time>2026-08-19T10:58:32.345Z</time>
      </trkpt>
      <trkpt lat="45.92194" lon="6.37558">
        <ele>1159</ele>
        <time>2026-08-19T10:58:33.344Z</time>
      </trkpt>
      <trkpt lat="45.92195" lon="6.37558">
        <ele>1159</ele>
        <time>2026-08-19T10:58:34.344Z</time>
      </trkpt>
      <trkpt lat="45.92195" lon="6.37556">
        <ele>1159</ele>
        <time>2026-08-19T10:58:35.344Z</time>
      </trkpt>
      <trkpt lat="45.92195" lon="6.37555">
        <ele>1159</ele>
        <time>2026-08-19T10:58:36.344Z</time>
      </trkpt>
      <trkpt lat="45.92195" lon="6.37554">
        <ele>1159</ele>
        <time>2026-08-19T10:58:37.344Z</time>
      </trkpt>
      <trkpt lat="45.92195" lon="6.37552">
        <ele>1158</ele>
        <time>2026-08-19T10:58:38.344Z</time>
      </trkpt>
      <trkpt lat="45.92195" lon="6.37551">
        <ele>1158</ele>
        <time>2026-08-19T10:58:39.344Z</time>
      </trkpt>
      <trkpt lat="45.92195" lon="6.3755">
        <ele>1158</ele>
        <time>2026-08-19T10:58:40.344Z</time>
      </trkpt>
      <trkpt lat="45.92195" lon="6.37549">
        <ele>1158</ele>
        <time>2026-08-19T10:58:41.344Z</time>
      </trkpt>
      <trkpt lat="45.92195" lon="6.37548">
        <ele>1158</ele>
        <time>2026-08-19T10:58:42.344Z</time>
      </trkpt>
      <trkpt lat="45.92196" lon="6.37547">
        <ele>1158</ele>
        <time>2026-08-19T10:58:43.344Z</time>
      </trkpt>
      <trkpt lat="45.92196" lon="6.37546">
        <ele>1159</ele>
        <time>2026-08-19T10:58:44.344Z</time>
      </trkpt>
      <trkpt lat="45.92197" lon="6.37545">
        <ele>1159</ele>
        <time>2026-08-19T10:58:45.344Z</time>
      </trkpt>
      <trkpt lat="45.92198" lon="6.37544">
        <ele>1159</ele>
        <time>2026-08-19T10:58:46.344Z</time>
      </trkpt>
      <trkpt lat="45.92198" lon="6.37543">
        <ele>1160</ele>
        <time>2026-08-19T10:58:47.344Z</time>
      </trkpt>
      <trkpt lat="45.92197" lon="6.37543">
        <ele>1160</ele>
        <time>2026-08-19T10:58:48.344Z</time>
      </trkpt>
      <trkpt lat="45.92197" lon="6.37541">
        <ele>1160</ele>
        <time>2026-08-19T10:58:49.344Z</time>
      </trkpt>
      <trkpt lat="45.92197" lon="6.3754">
        <ele>1160</ele>
        <time>2026-08-19T10:58:50.344Z</time>
      </trkpt>
      <trkpt lat="45.92197" lon="6.37539">
        <ele>1159</ele>
        <time>2026-08-19T10:58:51.344Z</time>
      </trkpt>
      <trkpt lat="45.92197" lon="6.37537">
        <ele>1160</ele>
        <time>2026-08-19T10:58:52.344Z</time>
      </trkpt>
      <trkpt lat="45.92197" lon="6.37536">
        <ele>1160</ele>
        <time>2026-08-19T10:58:53.344Z</time>
      </trkpt>
      <trkpt lat="45.92198" lon="6.37536">
        <ele>1160</ele>
        <time>2026-08-19T10:58:54.344Z</time>
      </trkpt>
      <trkpt lat="45.92198" lon="6.37536">
        <ele>1160</ele>
        <time>2026-08-19T10:58:55.344Z</time>
      </trkpt>
      <trkpt lat="45.92197" lon="6.37535">
        <ele>1160</ele>
        <time>2026-08-19T10:58:56.344Z</time>
      </trkpt>
      <trkpt lat="45.92197" lon="6.37534">
        <ele>1160</ele>
        <time>2026-08-19T10:58:57.344Z</time>
      </trkpt>
      <trkpt lat="45.92197" lon="6.37533">
        <ele>1160</ele>
        <time>2026-08-19T10:58:58.344Z</time>
      </trkpt>
      <trkpt lat="45.92197" lon="6.37532">
        <ele>1161</ele>
        <time>2026-08-19T10:58:59.344Z</time>
      </trkpt>
      <trkpt lat="45.92197" lon="6.37532">
        <ele>1161</ele>
        <time>2026-08-19T10:59:00.344Z</time>
      </trkpt>
      <trkpt lat="45.92197" lon="6.37531">
        <ele>1162</ele>
        <time>2026-08-19T10:59:01.344Z</time>
      </trkpt>
      <trkpt lat="45.92196" lon="6.3753">
        <ele>1163</ele>
        <time>2026-08-19T10:59:02.344Z</time>
      </trkpt>
      <trkpt lat="45.92196" lon="6.3753">
        <ele>1163</ele>
        <time>2026-08-19T10:59:03.344Z</time>
      </trkpt>
      <trkpt lat="45.92196" lon="6.37529">
        <ele>1164</ele>
        <time>2026-08-19T10:59:04.344Z</time>
      </trkpt>
      <trkpt lat="45.92195" lon="6.37527">
        <ele>1164</ele>
        <time>2026-08-19T10:59:05.344Z</time>
      </trkpt>
      <trkpt lat="45.92195" lon="6.37526">
        <ele>1164</ele>
        <time>2026-08-19T10:59:06.344Z</time>
      </trkpt>
      <trkpt lat="45.92195" lon="6.37525">
        <ele>1164</ele>
        <time>2026-08-19T10:59:07.344Z</time>
      </trkpt>
      <trkpt lat="45.92195" lon="6.37524">
        <ele>1165</ele>
        <time>2026-08-19T10:59:08.344Z</time>
      </trkpt>
      <trkpt lat="45.92195" lon="6.37523">
        <ele>1166</ele>
        <time>2026-08-19T10:59:09.344Z</time>
      </trkpt>
      <trkpt lat="45.92195" lon="6.37521">
        <ele>1167</ele>
        <time>2026-08-19T10:59:10.344Z</time>
      </trkpt>
      <trkpt lat="45.92195" lon="6.3752">
        <ele>1167</ele>
        <time>2026-08-19T10:59:11.344Z</time>
      </trkpt>
      <trkpt lat="45.92196" lon="6.37519">
        <ele>1168</ele>
        <time>2026-08-19T10:59:12.344Z</time>
      </trkpt>
      <trkpt lat="45.92197" lon="6.37517">
        <ele>1168</ele>
        <time>2026-08-19T10:59:13.344Z</time>
      </trkpt>
      <trkpt lat="45.92198" lon="6.37516">
        <ele>1168</ele>
        <time>2026-08-19T10:59:14.344Z</time>
      </trkpt>
      <trkpt lat="45.92198" lon="6.37515">
        <ele>1168</ele>
        <time>2026-08-19T10:59:15.344Z</time>
      </trkpt>
      <trkpt lat="45.92198" lon="6.37516">
        <ele>1168</ele>
        <time>2026-08-19T10:59:16.344Z</time>
      </trkpt>
      <trkpt lat="45.92199" lon="6.37516">
        <ele>1168</ele>
        <time>2026-08-19T10:59:17.344Z</time>
      </trkpt>
      <trkpt lat="45.92199" lon="6.37516">
        <ele>1168</ele>
        <time>2026-08-19T10:59:18.344Z</time>
      </trkpt>
      <trkpt lat="45.922" lon="6.37517">
        <ele>1168</ele>
        <time>2026-08-19T10:59:19.344Z</time>
      </trkpt>
      <trkpt lat="45.922" lon="6.37518">
        <ele>1168</ele>
        <time>2026-08-19T10:59:20.344Z</time>
      </trkpt>
      <trkpt lat="45.92201" lon="6.37519">
        <ele>1169</ele>
        <time>2026-08-19T10:59:21.344Z</time>
      </trkpt>
      <trkpt lat="45.92201" lon="6.37519">
        <ele>1169</ele>
        <time>2026-08-19T10:59:22.344Z</time>
      </trkpt>
      <trkpt lat="45.92201" lon="6.3752">
        <ele>1169</ele>
        <time>2026-08-19T10:59:23.344Z</time>
      </trkpt>
      <trkpt lat="45.92202" lon="6.3752">
        <ele>1169</ele>
        <time>2026-08-19T10:59:24.344Z</time>
      </trkpt>
      <trkpt lat="45.92202" lon="6.37521">
        <ele>1170</ele>
        <time>2026-08-19T10:59:25.344Z</time>
      </trkpt>
      <trkpt lat="45.92203" lon="6.37522">
        <ele>1170</ele>
        <time>2026-08-19T10:59:26.344Z</time>
      </trkpt>
      <trkpt lat="45.92204" lon="6.37522">
        <ele>1171</ele>
        <time>2026-08-19T10:59:27.344Z</time>
      </trkpt>
      <trkpt lat="45.92204" lon="6.37522">
        <ele>1171</ele>
        <time>2026-08-19T10:59:28.344Z</time>
      </trkpt>
      <trkpt lat="45.92205" lon="6.37523">
        <ele>1172</ele>
        <time>2026-08-19T10:59:29.344Z</time>
      </trkpt>
      <trkpt lat="45.92205" lon="6.37524">
        <ele>1172</ele>
        <time>2026-08-19T10:59:30.344Z</time>
      </trkpt>
      <trkpt lat="45.92205" lon="6.37525">
        <ele>1173</ele>
        <time>2026-08-19T10:59:31.344Z</time>
      </trkpt>
      <trkpt lat="45.92206" lon="6.37526">
        <ele>1173</ele>
        <time>2026-08-19T10:59:32.344Z</time>
      </trkpt>
      <trkpt lat="45.92207" lon="6.37527">
        <ele>1174</ele>
        <time>2026-08-19T10:59:33.344Z</time>
      </trkpt>
      <trkpt lat="45.92208" lon="6.37527">
        <ele>1175</ele>
        <time>2026-08-19T10:59:34.344Z</time>
      </trkpt>
      <trkpt lat="45.92209" lon="6.37527">
        <ele>1175</ele>
        <time>2026-08-19T10:59:35.344Z</time>
      </trkpt>
      <trkpt lat="45.9221" lon="6.37527">
        <ele>1176</ele>
        <time>2026-08-19T10:59:36.344Z</time>
      </trkpt>
      <trkpt lat="45.92211" lon="6.37528">
        <ele>1177</ele>
        <time>2026-08-19T10:59:37.344Z</time>
      </trkpt>
      <trkpt lat="45.92212" lon="6.37529">
        <ele>1177</ele>
        <time>2026-08-19T10:59:38.344Z</time>
      </trkpt>
      <trkpt lat="45.92213" lon="6.3753">
        <ele>1178</ele>
        <time>2026-08-19T10:59:39.344Z</time>
      </trkpt>
      <trkpt lat="45.92214" lon="6.37531">
        <ele>1178</ele>
        <time>2026-08-19T10:59:40.344Z</time>
      </trkpt>
      <trkpt lat="45.92214" lon="6.37531">
        <ele>1179</ele>
        <time>2026-08-19T10:59:41.344Z</time>
      </trkpt>
      <trkpt lat="45.92214" lon="6.37532">
        <ele>1179</ele>
        <time>2026-08-19T10:59:42.344Z</time>
      </trkpt>
      <trkpt lat="45.92214" lon="6.37534">
        <ele>1180</ele>
        <time>2026-08-19T10:59:43.344Z</time>
      </trkpt>
      <trkpt lat="45.92214" lon="6.37535">
        <ele>1180</ele>
        <time>2026-08-19T10:59:44.345Z</time>
      </trkpt>
      <trkpt lat="45.92214" lon="6.37536">
        <ele>1180</ele>
        <time>2026-08-19T10:59:45.344Z</time>
      </trkpt>
      <trkpt lat="45.92215" lon="6.37536">
        <ele>1180</ele>
        <time>2026-08-19T10:59:46.344Z</time>
      </trkpt>
      <trkpt lat="45.92215" lon="6.37537">
        <ele>1181</ele>
        <time>2026-08-19T10:59:47.344Z</time>
      </trkpt>
      <trkpt lat="45.92216" lon="6.37538">
        <ele>1181</ele>
        <time>2026-08-19T10:59:48.344Z</time>
      </trkpt>
      <trkpt lat="45.92217" lon="6.37539">
        <ele>1181</ele>
        <time>2026-08-19T10:59:49.344Z</time>
      </trkpt>
      <trkpt lat="45.92217" lon="6.37539">
        <ele>1181</ele>
        <time>2026-08-19T10:59:50.344Z</time>
      </trkpt>
      <trkpt lat="45.92218" lon="6.3754">
        <ele>1181</ele>
        <time>2026-08-19T10:59:51.344Z</time>
      </trkpt>
      <trkpt lat="45.92219" lon="6.37541">
        <ele>1181</ele>
        <time>2026-08-19T10:59:52.344Z</time>
      </trkpt>
      <trkpt lat="45.9222" lon="6.3754">
        <ele>1181</ele>
        <time>2026-08-19T10:59:53.344Z</time>
      </trkpt>
      <trkpt lat="45.92221" lon="6.37541">
        <ele>1181</ele>
        <time>2026-08-19T10:59:54.344Z</time>
      </trkpt>
      <trkpt lat="45.92222" lon="6.37542">
        <ele>1181</ele>
        <time>2026-08-19T10:59:55.344Z</time>
      </trkpt>
      <trkpt lat="45.92222" lon="6.37543">
        <ele>1182</ele>
        <time>2026-08-19T10:59:56.344Z</time>
      </trkpt>
      <trkpt lat="45.92223" lon="6.37543">
        <ele>1182</ele>
        <time>2026-08-19T10:59:57.344Z</time>
      </trkpt>
      <trkpt lat="45.92223" lon="6.37544">
        <ele>1182</ele>
        <time>2026-08-19T10:59:58.344Z</time>
      </trkpt>
      <trkpt lat="45.92224" lon="6.37545">
        <ele>1182</ele>
        <time>2026-08-19T10:59:59.344Z</time>
      </trkpt>
      <trkpt lat="45.92225" lon="6.37546">
        <ele>1182</ele>
        <time>2026-08-19T11:00:00.344Z</time>
      </trkpt>
      <trkpt lat="45.92226" lon="6.37546">
        <ele>1182</ele>
        <time>2026-08-19T11:00:01.344Z</time>
      </trkpt>
      <trkpt lat="45.92226" lon="6.37547">
        <ele>1182</ele>
        <time>2026-08-19T11:00:02.344Z</time>
      </trkpt>
      <trkpt lat="45.92227" lon="6.37548">
        <ele>1182</ele>
        <time>2026-08-19T11:00:03.344Z</time>
      </trkpt>
      <trkpt lat="45.92227" lon="6.37549">
        <ele>1182</ele>
        <time>2026-08-19T11:00:04.344Z</time>
      </trkpt>
      <trkpt lat="45.92229" lon="6.37549">
        <ele>1182</ele>
        <time>2026-08-19T11:00:05.344Z</time>
      </trkpt>
      <trkpt lat="45.9223" lon="6.3755">
        <ele>1182</ele>
        <time>2026-08-19T11:00:06.344Z</time>
      </trkpt>
      <trkpt lat="45.92231" lon="6.37552">
        <ele>1181</ele>
        <time>2026-08-19T11:00:07.344Z</time>
      </trkpt>
      <trkpt lat="45.92231" lon="6.37553">
        <ele>1181</ele>
        <time>2026-08-19T11:00:08.344Z</time>
      </trkpt>
      <trkpt lat="45.92231" lon="6.37554">
        <ele>1181</ele>
        <time>2026-08-19T11:00:09.344Z</time>
      </trkpt>
      <trkpt lat="45.92232" lon="6.37555">
        <ele>1181</ele>
        <time>2026-08-19T11:00:10.344Z</time>
      </trkpt>
      <trkpt lat="45.92233" lon="6.37556">
        <ele>1181</ele>
        <time>2026-08-19T11:00:11.344Z</time>
      </trkpt>
      <trkpt lat="45.92233" lon="6.37556">
        <ele>1181</ele>
        <time>2026-08-19T11:00:12.344Z</time>
      </trkpt>
      <trkpt lat="45.92234" lon="6.37556">
        <ele>1182</ele>
        <time>2026-08-19T11:00:13.344Z</time>
      </trkpt>
      <trkpt lat="45.92234" lon="6.37556">
        <ele>1182</ele>
        <time>2026-08-19T11:00:14.344Z</time>
      </trkpt>
      <trkpt lat="45.92234" lon="6.37556">
        <ele>1183</ele>
        <time>2026-08-19T11:00:15.344Z</time>
      </trkpt>
      <trkpt lat="45.92234" lon="6.37555">
        <ele>1183</ele>
        <time>2026-08-19T11:00:16.344Z</time>
      </trkpt>
      <trkpt lat="45.92234" lon="6.37555">
        <ele>1184</ele>
        <time>2026-08-19T11:00:17.344Z</time>
      </trkpt>
      <trkpt lat="45.92234" lon="6.37553">
        <ele>1185</ele>
        <time>2026-08-19T11:00:18.344Z</time>
      </trkpt>
      <trkpt lat="45.92235" lon="6.37552">
        <ele>1186</ele>
        <time>2026-08-19T11:00:19.344Z</time>
      </trkpt>
      <trkpt lat="45.92235" lon="6.3755">
        <ele>1186</ele>
        <time>2026-08-19T11:00:20.344Z</time>
      </trkpt>
      <trkpt lat="45.92235" lon="6.37548">
        <ele>1187</ele>
        <time>2026-08-19T11:00:21.344Z</time>
      </trkpt>
      <trkpt lat="45.92235" lon="6.37547">
        <ele>1188</ele>
        <time>2026-08-19T11:00:22.344Z</time>
      </trkpt>
      <trkpt lat="45.92235" lon="6.37546">
        <ele>1188</ele>
        <time>2026-08-19T11:00:23.344Z</time>
      </trkpt>
      <trkpt lat="45.92235" lon="6.37545">
        <ele>1189</ele>
        <time>2026-08-19T11:00:24.344Z</time>
      </trkpt>
      <trkpt lat="45.92235" lon="6.37544">
        <ele>1189</ele>
        <time>2026-08-19T11:00:25.344Z</time>
      </trkpt>
      <trkpt lat="45.92234" lon="6.37544">
        <ele>1190</ele>
        <time>2026-08-19T11:00:26.344Z</time>
      </trkpt>
      <trkpt lat="45.92234" lon="6.37543">
        <ele>1190</ele>
        <time>2026-08-19T11:00:27.344Z</time>
      </trkpt>
      <trkpt lat="45.92234" lon="6.37542">
        <ele>1191</ele>
        <time>2026-08-19T11:00:28.344Z</time>
      </trkpt>
      <trkpt lat="45.92233" lon="6.37541">
        <ele>1191</ele>
        <time>2026-08-19T11:00:29.344Z</time>
      </trkpt>
      <trkpt lat="45.92233" lon="6.3754">
        <ele>1191</ele>
        <time>2026-08-19T11:00:30.344Z</time>
      </trkpt>
      <trkpt lat="45.92233" lon="6.37538">
        <ele>1191</ele>
        <time>2026-08-19T11:00:31.344Z</time>
      </trkpt>
      <trkpt lat="45.92233" lon="6.37538">
        <ele>1192</ele>
        <time>2026-08-19T11:00:32.344Z</time>
      </trkpt>
      <trkpt lat="45.92233" lon="6.37537">
        <ele>1192</ele>
        <time>2026-08-19T11:00:33.344Z</time>
      </trkpt>
      <trkpt lat="45.92233" lon="6.37535">
        <ele>1192</ele>
        <time>2026-08-19T11:00:34.344Z</time>
      </trkpt>
      <trkpt lat="45.92232" lon="6.37534">
        <ele>1192</ele>
        <time>2026-08-19T11:00:35.344Z</time>
      </trkpt>
      <trkpt lat="45.92232" lon="6.37532">
        <ele>1193</ele>
        <time>2026-08-19T11:00:36.344Z</time>
      </trkpt>
      <trkpt lat="45.92232" lon="6.37531">
        <ele>1193</ele>
        <time>2026-08-19T11:00:37.344Z</time>
      </trkpt>
      <trkpt lat="45.92232" lon="6.37529">
        <ele>1193</ele>
        <time>2026-08-19T11:00:38.344Z</time>
      </trkpt>
      <trkpt lat="45.92232" lon="6.37528">
        <ele>1193</ele>
        <time>2026-08-19T11:00:39.345Z</time>
      </trkpt>
      <trkpt lat="45.92233" lon="6.37526">
        <ele>1193</ele>
        <time>2026-08-19T11:00:40.344Z</time>
      </trkpt>
      <trkpt lat="45.92232" lon="6.37525">
        <ele>1193</ele>
        <time>2026-08-19T11:00:41.344Z</time>
      </trkpt>
      <trkpt lat="45.92233" lon="6.37524">
        <ele>1193</ele>
        <time>2026-08-19T11:00:42.345Z</time>
      </trkpt>
      <trkpt lat="45.92233" lon="6.37523">
        <ele>1194</ele>
        <time>2026-08-19T11:00:43.344Z</time>
      </trkpt>
      <trkpt lat="45.92233" lon="6.37522">
        <ele>1194</ele>
        <time>2026-08-19T11:00:44.344Z</time>
      </trkpt>
      <trkpt lat="45.92233" lon="6.37521">
        <ele>1194</ele>
        <time>2026-08-19T11:00:45.344Z</time>
      </trkpt>
      <trkpt lat="45.92233" lon="6.3752">
        <ele>1195</ele>
        <time>2026-08-19T11:00:46.344Z</time>
      </trkpt>
      <trkpt lat="45.92233" lon="6.3752">
        <ele>1195</ele>
        <time>2026-08-19T11:00:47.344Z</time>
      </trkpt>
      <trkpt lat="45.92233" lon="6.37519">
        <ele>1196</ele>
        <time>2026-08-19T11:00:48.344Z</time>
      </trkpt>
      <trkpt lat="45.92233" lon="6.37518">
        <ele>1196</ele>
        <time>2026-08-19T11:00:49.344Z</time>
      </trkpt>
      <trkpt lat="45.92233" lon="6.37516">
        <ele>1197</ele>
        <time>2026-08-19T11:00:50.344Z</time>
      </trkpt>
      <trkpt lat="45.92233" lon="6.37514">
        <ele>1197</ele>
        <time>2026-08-19T11:00:51.344Z</time>
      </trkpt>
      <trkpt lat="45.92234" lon="6.37514">
        <ele>1198</ele>
        <time>2026-08-19T11:00:52.344Z</time>
      </trkpt>
      <trkpt lat="45.92233" lon="6.37512">
        <ele>1198</ele>
        <time>2026-08-19T11:00:53.344Z</time>
      </trkpt>
      <trkpt lat="45.92233" lon="6.37511">
        <ele>1198</ele>
        <time>2026-08-19T11:00:54.344Z</time>
      </trkpt>
      <trkpt lat="45.92233" lon="6.3751">
        <ele>1199</ele>
        <time>2026-08-19T11:00:55.344Z</time>
      </trkpt>
      <trkpt lat="45.92232" lon="6.37508">
        <ele>1199</ele>
        <time>2026-08-19T11:00:56.344Z</time>
      </trkpt>
      <trkpt lat="45.92232" lon="6.37507">
        <ele>1199</ele>
        <time>2026-08-19T11:00:57.344Z</time>
      </trkpt>
      <trkpt lat="45.92232" lon="6.37506">
        <ele>1200</ele>
        <time>2026-08-19T11:00:58.344Z</time>
      </trkpt>
      <trkpt lat="45.92233" lon="6.37505">
        <ele>1200</ele>
        <time>2026-08-19T11:00:59.344Z</time>
      </trkpt>
      <trkpt lat="45.92233" lon="6.37505">
        <ele>1200</ele>
        <time>2026-08-19T11:01:00.344Z</time>
      </trkpt>
      <trkpt lat="45.92233" lon="6.37506">
        <ele>1200</ele>
        <time>2026-08-19T11:01:01.344Z</time>
      </trkpt>
      <trkpt lat="45.92234" lon="6.37506">
        <ele>1200</ele>
        <time>2026-08-19T11:01:02.344Z</time>
      </trkpt>
      <trkpt lat="45.92233" lon="6.37507">
        <ele>1200</ele>
        <time>2026-08-19T11:01:03.344Z</time>
      </trkpt>
      <trkpt lat="45.92232" lon="6.37508">
        <ele>1200</ele>
        <time>2026-08-19T11:01:04.344Z</time>
      </trkpt>
      <trkpt lat="45.92232" lon="6.37508">
        <ele>1200</ele>
        <time>2026-08-19T11:01:05.344Z</time>
      </trkpt>
      <trkpt lat="45.92231" lon="6.37508">
        <ele>1200</ele>
        <time>2026-08-19T11:01:06.344Z</time>
      </trkpt>
      <trkpt lat="45.92232" lon="6.37506">
        <ele>1201</ele>
        <time>2026-08-19T11:01:07.344Z</time>
      </trkpt>
      <trkpt lat="45.92232" lon="6.37505">
        <ele>1201</ele>
        <time>2026-08-19T11:01:08.344Z</time>
      </trkpt>
      <trkpt lat="45.92232" lon="6.37504">
        <ele>1201</ele>
        <time>2026-08-19T11:01:09.344Z</time>
      </trkpt>
      <trkpt lat="45.92233" lon="6.37504">
        <ele>1202</ele>
        <time>2026-08-19T11:01:10.344Z</time>
      </trkpt>
      <trkpt lat="45.92233" lon="6.37504">
        <ele>1202</ele>
        <time>2026-08-19T11:01:11.344Z</time>
      </trkpt>
      <trkpt lat="45.92233" lon="6.37504">
        <ele>1202</ele>
        <time>2026-08-19T11:01:12.344Z</time>
      </trkpt>
      <trkpt lat="45.92233" lon="6.37504">
        <ele>1203</ele>
        <time>2026-08-19T11:01:13.344Z</time>
      </trkpt>
      <trkpt lat="45.92233" lon="6.37504">
        <ele>1204</ele>
        <time>2026-08-19T11:01:14.344Z</time>
      </trkpt>
      <trkpt lat="45.92233" lon="6.37504">
        <ele>1205</ele>
        <time>2026-08-19T11:01:15.344Z</time>
      </trkpt>
      <trkpt lat="45.92233" lon="6.37504">
        <ele>1206</ele>
        <time>2026-08-19T11:01:16.344Z</time>
      </trkpt>
      <trkpt lat="45.92233" lon="6.37504">
        <ele>1207</ele>
        <time>2026-08-19T11:01:17.344Z</time>
      </trkpt>
      <trkpt lat="45.92233" lon="6.37504">
        <ele>1207</ele>
        <time>2026-08-19T11:01:18.344Z</time>
      </trkpt>
      <trkpt lat="45.92233" lon="6.37504">
        <ele>1208</ele>
        <time>2026-08-19T11:01:19.344Z</time>
      </trkpt>
      <trkpt lat="45.92233" lon="6.37504">
        <ele>1208</ele>
        <time>2026-08-19T11:01:20.344Z</time>
      </trkpt>
      <trkpt lat="45.92233" lon="6.37504">
        <ele>1209</ele>
        <time>2026-08-19T11:01:21.344Z</time>
      </trkpt>
      <trkpt lat="45.92233" lon="6.37504">
        <ele>1209</ele>
        <time>2026-08-19T11:01:22.344Z</time>
      </trkpt>
      <trkpt lat="45.92233" lon="6.37504">
        <ele>1209</ele>
        <time>2026-08-19T11:01:23.344Z</time>
      </trkpt>
      <trkpt lat="45.92233" lon="6.37504">
        <ele>1210</ele>
        <time>2026-08-19T11:01:24.344Z</time>
      </trkpt>
      <trkpt lat="45.92233" lon="6.37504">
        <ele>1210</ele>
        <time>2026-08-19T11:01:25.344Z</time>
      </trkpt>
      <trkpt lat="45.92233" lon="6.37505">
        <ele>1210</ele>
        <time>2026-08-19T11:01:26.344Z</time>
      </trkpt>
      <trkpt lat="45.92233" lon="6.37504">
        <ele>1210</ele>
        <time>2026-08-19T11:01:27.345Z</time>
      </trkpt>
      <trkpt lat="45.92233" lon="6.37504">
        <ele>1211</ele>
        <time>2026-08-19T11:01:28.344Z</time>
      </trkpt>
      <trkpt lat="45.92233" lon="6.37503">
        <ele>1211</ele>
        <time>2026-08-19T11:01:29.344Z</time>
      </trkpt>
      <trkpt lat="45.92233" lon="6.37503">
        <ele>1211</ele>
        <time>2026-08-19T11:01:30.344Z</time>
      </trkpt>
      <trkpt lat="45.92233" lon="6.37504">
        <ele>1211</ele>
        <time>2026-08-19T11:01:31.344Z</time>
      </trkpt>
      <trkpt lat="45.92234" lon="6.37504">
        <ele>1211</ele>
        <time>2026-08-19T11:01:32.344Z</time>
      </trkpt>
      <trkpt lat="45.92235" lon="6.37502">
        <ele>1211</ele>
        <time>2026-08-19T11:01:33.344Z</time>
      </trkpt>
      <trkpt lat="45.92235" lon="6.37502">
        <ele>1211</ele>
        <time>2026-08-19T11:01:34.344Z</time>
      </trkpt>
      <trkpt lat="45.92236" lon="6.37503">
        <ele>1211</ele>
        <time>2026-08-19T11:01:35.344Z</time>
      </trkpt>
      <trkpt lat="45.92238" lon="6.37503">
        <ele>1211</ele>
        <time>2026-08-19T11:01:36.344Z</time>
      </trkpt>
      <trkpt lat="45.92239" lon="6.37503">
        <ele>1211</ele>
        <time>2026-08-19T11:01:37.344Z</time>
      </trkpt>
      <trkpt lat="45.92239" lon="6.37504">
        <ele>1211</ele>
        <time>2026-08-19T11:01:38.344Z</time>
      </trkpt>
      <trkpt lat="45.9224" lon="6.37505">
        <ele>1210</ele>
        <time>2026-08-19T11:01:39.344Z</time>
      </trkpt>
      <trkpt lat="45.92241" lon="6.37506">
        <ele>1210</ele>
        <time>2026-08-19T11:01:40.344Z</time>
      </trkpt>
      <trkpt lat="45.92242" lon="6.37507">
        <ele>1210</ele>
        <time>2026-08-19T11:01:41.344Z</time>
      </trkpt>
      <trkpt lat="45.92243" lon="6.37508">
        <ele>1210</ele>
        <time>2026-08-19T11:01:42.344Z</time>
      </trkpt>
      <trkpt lat="45.92244" lon="6.37509">
        <ele>1210</ele>
        <time>2026-08-19T11:01:43.344Z</time>
      </trkpt>
      <trkpt lat="45.92244" lon="6.3751">
        <ele>1209</ele>
        <time>2026-08-19T11:01:44.344Z</time>
      </trkpt>
      <trkpt lat="45.92245" lon="6.3751">
        <ele>1209</ele>
        <time>2026-08-19T11:01:45.344Z</time>
      </trkpt>
      <trkpt lat="45.92245" lon="6.37511">
        <ele>1209</ele>
        <time>2026-08-19T11:01:46.344Z</time>
      </trkpt>
      <trkpt lat="45.92246" lon="6.37511">
        <ele>1209</ele>
        <time>2026-08-19T11:01:47.344Z</time>
      </trkpt>
      <trkpt lat="45.92247" lon="6.37511">
        <ele>1209</ele>
        <time>2026-08-19T11:01:48.344Z</time>
      </trkpt>
      <trkpt lat="45.92248" lon="6.37511">
        <ele>1209</ele>
        <time>2026-08-19T11:01:49.344Z</time>
      </trkpt>
      <trkpt lat="45.92249" lon="6.37512">
        <ele>1209</ele>
        <time>2026-08-19T11:01:50.344Z</time>
      </trkpt>
      <trkpt lat="45.92249" lon="6.37514">
        <ele>1209</ele>
        <time>2026-08-19T11:01:51.344Z</time>
      </trkpt>
      <trkpt lat="45.9225" lon="6.37516">
        <ele>1208</ele>
        <time>2026-08-19T11:01:52.344Z</time>
      </trkpt>
      <trkpt lat="45.92251" lon="6.37517">
        <ele>1208</ele>
        <time>2026-08-19T11:01:53.344Z</time>
      </trkpt>
      <trkpt lat="45.92251" lon="6.37518">
        <ele>1208</ele>
        <time>2026-08-19T11:01:54.344Z</time>
      </trkpt>
      <trkpt lat="45.92252" lon="6.37519">
        <ele>1208</ele>
        <time>2026-08-19T11:01:55.344Z</time>
      </trkpt>
      <trkpt lat="45.92252" lon="6.3752">
        <ele>1208</ele>
        <time>2026-08-19T11:01:56.344Z</time>
      </trkpt>
      <trkpt lat="45.92253" lon="6.3752">
        <ele>1208</ele>
        <time>2026-08-19T11:01:57.344Z</time>
      </trkpt>
      <trkpt lat="45.92254" lon="6.37521">
        <ele>1208</ele>
        <time>2026-08-19T11:01:58.344Z</time>
      </trkpt>
      <trkpt lat="45.92256" lon="6.37521">
        <ele>1208</ele>
        <time>2026-08-19T11:01:59.344Z</time>
      </trkpt>
      <trkpt lat="45.92256" lon="6.37523">
        <ele>1208</ele>
        <time>2026-08-19T11:02:00.344Z</time>
      </trkpt>
      <trkpt lat="45.92256" lon="6.37524">
        <ele>1208</ele>
        <time>2026-08-19T11:02:01.344Z</time>
      </trkpt>
      <trkpt lat="45.92257" lon="6.37526">
        <ele>1208</ele>
        <time>2026-08-19T11:02:02.344Z</time>
      </trkpt>
      <trkpt lat="45.92258" lon="6.37526">
        <ele>1209</ele>
        <time>2026-08-19T11:02:03.344Z</time>
      </trkpt>
      <trkpt lat="45.92258" lon="6.37527">
        <ele>1209</ele>
        <time>2026-08-19T11:02:04.344Z</time>
      </trkpt>
      <trkpt lat="45.92259" lon="6.37528">
        <ele>1209</ele>
        <time>2026-08-19T11:02:05.344Z</time>
      </trkpt>
      <trkpt lat="45.92259" lon="6.37529">
        <ele>1209</ele>
        <time>2026-08-19T11:02:06.344Z</time>
      </trkpt>
      <trkpt lat="45.9226" lon="6.3753">
        <ele>1209</ele>
        <time>2026-08-19T11:02:07.344Z</time>
      </trkpt>
      <trkpt lat="45.92261" lon="6.37531">
        <ele>1209</ele>
        <time>2026-08-19T11:02:08.344Z</time>
      </trkpt>
      <trkpt lat="45.92261" lon="6.37532">
        <ele>1209</ele>
        <time>2026-08-19T11:02:09.344Z</time>
      </trkpt>
      <trkpt lat="45.92262" lon="6.37532">
        <ele>1210</ele>
        <time>2026-08-19T11:02:10.344Z</time>
      </trkpt>
      <trkpt lat="45.92263" lon="6.37533">
        <ele>1210</ele>
        <time>2026-08-19T11:02:11.344Z</time>
      </trkpt>
      <trkpt lat="45.92264" lon="6.37534">
        <ele>1210</ele>
        <time>2026-08-19T11:02:12.344Z</time>
      </trkpt>
      <trkpt lat="45.92265" lon="6.37534">
        <ele>1210</ele>
        <time>2026-08-19T11:02:13.344Z</time>
      </trkpt>
      <trkpt lat="45.92266" lon="6.37534">
        <ele>1210</ele>
        <time>2026-08-19T11:02:14.344Z</time>
      </trkpt>
      <trkpt lat="45.92266" lon="6.37535">
        <ele>1210</ele>
        <time>2026-08-19T11:02:15.344Z</time>
      </trkpt>
      <trkpt lat="45.92267" lon="6.37535">
        <ele>1210</ele>
        <time>2026-08-19T11:02:16.344Z</time>
      </trkpt>
      <trkpt lat="45.92268" lon="6.37536">
        <ele>1211</ele>
        <time>2026-08-19T11:02:17.344Z</time>
      </trkpt>
      <trkpt lat="45.92269" lon="6.37536">
        <ele>1211</ele>
        <time>2026-08-19T11:02:18.344Z</time>
      </trkpt>
      <trkpt lat="45.92269" lon="6.37536">
        <ele>1211</ele>
        <time>2026-08-19T11:02:19.344Z</time>
      </trkpt>
      <trkpt lat="45.92269" lon="6.37536">
        <ele>1211</ele>
        <time>2026-08-19T11:02:20.344Z</time>
      </trkpt>
      <trkpt lat="45.92268" lon="6.37535">
        <ele>1211</ele>
        <time>2026-08-19T11:02:21.344Z</time>
      </trkpt>
      <trkpt lat="45.92267" lon="6.37534">
        <ele>1211</ele>
        <time>2026-08-19T11:02:22.344Z</time>
      </trkpt>
      <trkpt lat="45.92267" lon="6.37534">
        <ele>1212</ele>
        <time>2026-08-19T11:02:23.344Z</time>
      </trkpt>
      <trkpt lat="45.92267" lon="6.37534">
        <ele>1212</ele>
        <time>2026-08-19T11:02:24.344Z</time>
      </trkpt>
      <trkpt lat="45.92267" lon="6.37533">
        <ele>1213</ele>
        <time>2026-08-19T11:02:25.344Z</time>
      </trkpt>
      <trkpt lat="45.92268" lon="6.37533">
        <ele>1213</ele>
        <time>2026-08-19T11:02:26.344Z</time>
      </trkpt>
      <trkpt lat="45.92269" lon="6.37533">
        <ele>1213</ele>
        <time>2026-08-19T11:02:27.344Z</time>
      </trkpt>
      <trkpt lat="45.92269" lon="6.37534">
        <ele>1213</ele>
        <time>2026-08-19T11:02:28.344Z</time>
      </trkpt>
      <trkpt lat="45.9227" lon="6.37535">
        <ele>1213</ele>
        <time>2026-08-19T11:02:29.344Z</time>
      </trkpt>
      <trkpt lat="45.92271" lon="6.37536">
        <ele>1213</ele>
        <time>2026-08-19T11:02:30.344Z</time>
      </trkpt>
      <trkpt lat="45.92271" lon="6.37536">
        <ele>1213</ele>
        <time>2026-08-19T11:02:31.344Z</time>
      </trkpt>
      <trkpt lat="45.92271" lon="6.37536">
        <ele>1213</ele>
        <time>2026-08-19T11:02:32.344Z</time>
      </trkpt>
      <trkpt lat="45.92271" lon="6.37536">
        <ele>1213</ele>
        <time>2026-08-19T11:02:33.344Z</time>
      </trkpt>
      <trkpt lat="45.92272" lon="6.37537">
        <ele>1213</ele>
        <time>2026-08-19T11:02:34.344Z</time>
      </trkpt>
      <trkpt lat="45.92272" lon="6.37537">
        <ele>1213</ele>
        <time>2026-08-19T11:02:35.344Z</time>
      </trkpt>
      <trkpt lat="45.92272" lon="6.37539">
        <ele>1213</ele>
        <time>2026-08-19T11:02:36.344Z</time>
      </trkpt>
      <trkpt lat="45.92272" lon="6.37541">
        <ele>1213</ele>
        <time>2026-08-19T11:02:37.344Z</time>
      </trkpt>
      <trkpt lat="45.92273" lon="6.37542">
        <ele>1213</ele>
        <time>2026-08-19T11:02:38.344Z</time>
      </trkpt>
      <trkpt lat="45.92274" lon="6.37543">
        <ele>1212</ele>
        <time>2026-08-19T11:02:39.344Z</time>
      </trkpt>
      <trkpt lat="45.92274" lon="6.37543">
        <ele>1212</ele>
        <time>2026-08-19T11:02:40.344Z</time>
      </trkpt>
      <trkpt lat="45.92273" lon="6.37544">
        <ele>1212</ele>
        <time>2026-08-19T11:02:41.344Z</time>
      </trkpt>
      <trkpt lat="45.92273" lon="6.37544">
        <ele>1212</ele>
        <time>2026-08-19T11:02:42.344Z</time>
      </trkpt>
      <trkpt lat="45.92274" lon="6.37545">
        <ele>1212</ele>
        <time>2026-08-19T11:02:43.344Z</time>
      </trkpt>
      <trkpt lat="45.92273" lon="6.37546">
        <ele>1212</ele>
        <time>2026-08-19T11:02:44.344Z</time>
      </trkpt>
      <trkpt lat="45.92274" lon="6.37547">
        <ele>1212</ele>
        <time>2026-08-19T11:02:45.344Z</time>
      </trkpt>
      <trkpt lat="45.92274" lon="6.37547">
        <ele>1212</ele>
        <time>2026-08-19T11:02:46.344Z</time>
      </trkpt>
      <trkpt lat="45.92275" lon="6.37548">
        <ele>1211</ele>
        <time>2026-08-19T11:02:47.344Z</time>
      </trkpt>
      <trkpt lat="45.92275" lon="6.37549">
        <ele>1212</ele>
        <time>2026-08-19T11:02:48.344Z</time>
      </trkpt>
      <trkpt lat="45.92275" lon="6.3755">
        <ele>1212</ele>
        <time>2026-08-19T11:02:49.344Z</time>
      </trkpt>
      <trkpt lat="45.92276" lon="6.37551">
        <ele>1212</ele>
        <time>2026-08-19T11:02:50.344Z</time>
      </trkpt>
      <trkpt lat="45.92276" lon="6.37552">
        <ele>1213</ele>
        <time>2026-08-19T11:02:51.344Z</time>
      </trkpt>
      <trkpt lat="45.92276" lon="6.37554">
        <ele>1213</ele>
        <time>2026-08-19T11:02:52.344Z</time>
      </trkpt>
      <trkpt lat="45.92276" lon="6.37556">
        <ele>1213</ele>
        <time>2026-08-19T11:02:53.344Z</time>
      </trkpt>
      <trkpt lat="45.92275" lon="6.37557">
        <ele>1214</ele>
        <time>2026-08-19T11:02:54.344Z</time>
      </trkpt>
      <trkpt lat="45.92275" lon="6.37557">
        <ele>1214</ele>
        <time>2026-08-19T11:02:55.344Z</time>
      </trkpt>
      <trkpt lat="45.92275" lon="6.37558">
        <ele>1214</ele>
        <time>2026-08-19T11:02:56.345Z</time>
      </trkpt>
      <trkpt lat="45.92274" lon="6.37559">
        <ele>1215</ele>
        <time>2026-08-19T11:02:57.344Z</time>
      </trkpt>
      <trkpt lat="45.92275" lon="6.3756">
        <ele>1215</ele>
        <time>2026-08-19T11:02:58.344Z</time>
      </trkpt>
      <trkpt lat="45.92275" lon="6.3756">
        <ele>1215</ele>
        <time>2026-08-19T11:02:59.344Z</time>
      </trkpt>
      <trkpt lat="45.92276" lon="6.37561">
        <ele>1216</ele>
        <time>2026-08-19T11:03:00.344Z</time>
      </trkpt>
      <trkpt lat="45.92275" lon="6.37562">
        <ele>1216</ele>
        <time>2026-08-19T11:03:01.344Z</time>
      </trkpt>
      <trkpt lat="45.92274" lon="6.37563">
        <ele>1216</ele>
        <time>2026-08-19T11:03:02.344Z</time>
      </trkpt>
      <trkpt lat="45.92275" lon="6.37563">
        <ele>1217</ele>
        <time>2026-08-19T11:03:03.344Z</time>
      </trkpt>
      <trkpt lat="45.92275" lon="6.37563">
        <ele>1217</ele>
        <time>2026-08-19T11:03:04.344Z</time>
      </trkpt>
      <trkpt lat="45.92276" lon="6.37563">
        <ele>1217</ele>
        <time>2026-08-19T11:03:05.344Z</time>
      </trkpt>
      <trkpt lat="45.92277" lon="6.37564">
        <ele>1217</ele>
        <time>2026-08-19T11:03:06.344Z</time>
      </trkpt>
      <trkpt lat="45.92277" lon="6.37564">
        <ele>1217</ele>
        <time>2026-08-19T11:03:07.344Z</time>
      </trkpt>
      <trkpt lat="45.92278" lon="6.37565">
        <ele>1217</ele>
        <time>2026-08-19T11:03:08.344Z</time>
      </trkpt>
      <trkpt lat="45.92279" lon="6.37566">
        <ele>1217</ele>
        <time>2026-08-19T11:03:09.344Z</time>
      </trkpt>
      <trkpt lat="45.92279" lon="6.37566">
        <ele>1217</ele>
        <time>2026-08-19T11:03:10.344Z</time>
      </trkpt>
      <trkpt lat="45.92279" lon="6.37568">
        <ele>1217</ele>
        <time>2026-08-19T11:03:11.344Z</time>
      </trkpt>
      <trkpt lat="45.92279" lon="6.3757">
        <ele>1217</ele>
        <time>2026-08-19T11:03:12.344Z</time>
      </trkpt>
      <trkpt lat="45.92279" lon="6.37572">
        <ele>1217</ele>
        <time>2026-08-19T11:03:13.344Z</time>
      </trkpt>
      <trkpt lat="45.92279" lon="6.37572">
        <ele>1217</ele>
        <time>2026-08-19T11:03:14.344Z</time>
      </trkpt>
      <trkpt lat="45.92279" lon="6.37573">
        <ele>1217</ele>
        <time>2026-08-19T11:03:15.344Z</time>
      </trkpt>
      <trkpt lat="45.92279" lon="6.37573">
        <ele>1217</ele>
        <time>2026-08-19T11:03:16.344Z</time>
      </trkpt>
      <trkpt lat="45.92279" lon="6.37574">
        <ele>1217</ele>
        <time>2026-08-19T11:03:17.344Z</time>
      </trkpt>
      <trkpt lat="45.92279" lon="6.37575">
        <ele>1217</ele>
        <time>2026-08-19T11:03:18.344Z</time>
      </trkpt>
      <trkpt lat="45.92278" lon="6.37575">
        <ele>1217</ele>
        <time>2026-08-19T11:03:19.344Z</time>
      </trkpt>
      <trkpt lat="45.92278" lon="6.37576">
        <ele>1216</ele>
        <time>2026-08-19T11:03:20.344Z</time>
      </trkpt>
      <trkpt lat="45.92278" lon="6.37577">
        <ele>1216</ele>
        <time>2026-08-19T11:03:21.344Z</time>
      </trkpt>
      <trkpt lat="45.92278" lon="6.37577">
        <ele>1216</ele>
        <time>2026-08-19T11:03:22.344Z</time>
      </trkpt>
      <trkpt lat="45.92278" lon="6.37577">
        <ele>1216</ele>
        <time>2026-08-19T11:03:23.344Z</time>
      </trkpt>
      <trkpt lat="45.92279" lon="6.37577">
        <ele>1217</ele>
        <time>2026-08-19T11:03:24.344Z</time>
      </trkpt>
      <trkpt lat="45.9228" lon="6.37578">
        <ele>1217</ele>
        <time>2026-08-19T11:03:25.344Z</time>
      </trkpt>
      <trkpt lat="45.92281" lon="6.37579">
        <ele>1218</ele>
        <time>2026-08-19T11:03:26.344Z</time>
      </trkpt>
      <trkpt lat="45.92282" lon="6.3758">
        <ele>1218</ele>
        <time>2026-08-19T11:03:27.344Z</time>
      </trkpt>
      <trkpt lat="45.92284" lon="6.37581">
        <ele>1219</ele>
        <time>2026-08-19T11:03:28.344Z</time>
      </trkpt>
      <trkpt lat="45.92284" lon="6.37581">
        <ele>1220</ele>
        <time>2026-08-19T11:03:29.344Z</time>
      </trkpt>
      <trkpt lat="45.92285" lon="6.37582">
        <ele>1220</ele>
        <time>2026-08-19T11:03:30.344Z</time>
      </trkpt>
      <trkpt lat="45.92286" lon="6.37582">
        <ele>1221</ele>
        <time>2026-08-19T11:03:31.344Z</time>
      </trkpt>
      <trkpt lat="45.92286" lon="6.37583">
        <ele>1222</ele>
        <time>2026-08-19T11:03:32.344Z</time>
      </trkpt>
      <trkpt lat="45.92287" lon="6.37583">
        <ele>1222</ele>
        <time>2026-08-19T11:03:33.344Z</time>
      </trkpt>
      <trkpt lat="45.92287" lon="6.37584">
        <ele>1223</ele>
        <time>2026-08-19T11:03:34.344Z</time>
      </trkpt>
      <trkpt lat="45.92288" lon="6.37584">
        <ele>1223</ele>
        <time>2026-08-19T11:03:35.344Z</time>
      </trkpt>
      <trkpt lat="45.92289" lon="6.37584">
        <ele>1223</ele>
        <time>2026-08-19T11:03:36.344Z</time>
      </trkpt>
      <trkpt lat="45.92289" lon="6.37584">
        <ele>1224</ele>
        <time>2026-08-19T11:03:37.344Z</time>
      </trkpt>
      <trkpt lat="45.92289" lon="6.37584">
        <ele>1224</ele>
        <time>2026-08-19T11:03:38.344Z</time>
      </trkpt>
      <trkpt lat="45.92288" lon="6.37583">
        <ele>1225</ele>
        <time>2026-08-19T11:03:39.344Z</time>
      </trkpt>
      <trkpt lat="45.92288" lon="6.37583">
        <ele>1225</ele>
        <time>2026-08-19T11:03:40.345Z</time>
      </trkpt>
      <trkpt lat="45.92287" lon="6.37584">
        <ele>1225</ele>
        <time>2026-08-19T11:03:41.344Z</time>
      </trkpt>
      <trkpt lat="45.92287" lon="6.37583">
        <ele>1225</ele>
        <time>2026-08-19T11:03:42.344Z</time>
      </trkpt>
      <trkpt lat="45.92287" lon="6.37582">
        <ele>1226</ele>
        <time>2026-08-19T11:03:43.344Z</time>
      </trkpt>
      <trkpt lat="45.92287" lon="6.37581">
        <ele>1226</ele>
        <time>2026-08-19T11:03:44.344Z</time>
      </trkpt>
      <trkpt lat="45.92288" lon="6.37579">
        <ele>1227</ele>
        <time>2026-08-19T11:03:45.344Z</time>
      </trkpt>
      <trkpt lat="45.92288" lon="6.37578">
        <ele>1227</ele>
        <time>2026-08-19T11:03:46.344Z</time>
      </trkpt>
      <trkpt lat="45.92288" lon="6.37577">
        <ele>1228</ele>
        <time>2026-08-19T11:03:47.344Z</time>
      </trkpt>
      <trkpt lat="45.92287" lon="6.37576">
        <ele>1228</ele>
        <time>2026-08-19T11:03:48.344Z</time>
      </trkpt>
      <trkpt lat="45.92287" lon="6.37576">
        <ele>1229</ele>
        <time>2026-08-19T11:03:49.344Z</time>
      </trkpt>
      <trkpt lat="45.92287" lon="6.37576">
        <ele>1229</ele>
        <time>2026-08-19T11:03:50.344Z</time>
      </trkpt>
      <trkpt lat="45.92288" lon="6.37576">
        <ele>1230</ele>
        <time>2026-08-19T11:03:51.344Z</time>
      </trkpt>
      <trkpt lat="45.92288" lon="6.37577">
        <ele>1230</ele>
        <time>2026-08-19T11:03:52.344Z</time>
      </trkpt>
      <trkpt lat="45.9229" lon="6.37578">
        <ele>1230</ele>
        <time>2026-08-19T11:03:53.344Z</time>
      </trkpt>
      <trkpt lat="45.92291" lon="6.37579">
        <ele>1231</ele>
        <time>2026-08-19T11:03:54.344Z</time>
      </trkpt>
      <trkpt lat="45.92291" lon="6.37579">
        <ele>1231</ele>
        <time>2026-08-19T11:03:55.344Z</time>
      </trkpt>
      <trkpt lat="45.92292" lon="6.37579">
        <ele>1231</ele>
        <time>2026-08-19T11:03:56.344Z</time>
      </trkpt>
      <trkpt lat="45.92293" lon="6.37579">
        <ele>1231</ele>
        <time>2026-08-19T11:03:57.344Z</time>
      </trkpt>
      <trkpt lat="45.92294" lon="6.3758">
        <ele>1232</ele>
        <time>2026-08-19T11:03:58.344Z</time>
      </trkpt>
      <trkpt lat="45.92295" lon="6.3758">
        <ele>1232</ele>
        <time>2026-08-19T11:03:59.344Z</time>
      </trkpt>
      <trkpt lat="45.92296" lon="6.37581">
        <ele>1232</ele>
        <time>2026-08-19T11:04:00.344Z</time>
      </trkpt>
      <trkpt lat="45.92297" lon="6.37581">
        <ele>1232</ele>
        <time>2026-08-19T11:04:01.344Z</time>
      </trkpt>
      <trkpt lat="45.92298" lon="6.37581">
        <ele>1232</ele>
        <time>2026-08-19T11:04:02.344Z</time>
      </trkpt>
      <trkpt lat="45.92298" lon="6.37581">
        <ele>1233</ele>
        <time>2026-08-19T11:04:03.344Z</time>
      </trkpt>
      <trkpt lat="45.92299" lon="6.37581">
        <ele>1233</ele>
        <time>2026-08-19T11:04:04.344Z</time>
      </trkpt>
      <trkpt lat="45.923" lon="6.37581">
        <ele>1233</ele>
        <time>2026-08-19T11:04:05.344Z</time>
      </trkpt>
      <trkpt lat="45.92301" lon="6.37581">
        <ele>1233</ele>
        <time>2026-08-19T11:04:06.344Z</time>
      </trkpt>
      <trkpt lat="45.92301" lon="6.37581">
        <ele>1234</ele>
        <time>2026-08-19T11:04:07.344Z</time>
      </trkpt>
      <trkpt lat="45.92302" lon="6.37581">
        <ele>1235</ele>
        <time>2026-08-19T11:04:08.344Z</time>
      </trkpt>
      <trkpt lat="45.92303" lon="6.3758">
        <ele>1235</ele>
        <time>2026-08-19T11:04:09.344Z</time>
      </trkpt>
      <trkpt lat="45.92304" lon="6.3758">
        <ele>1236</ele>
        <time>2026-08-19T11:04:10.344Z</time>
      </trkpt>
      <trkpt lat="45.92304" lon="6.3758">
        <ele>1237</ele>
        <time>2026-08-19T11:04:11.344Z</time>
      </trkpt>
      <trkpt lat="45.92305" lon="6.3758">
        <ele>1237</ele>
        <time>2026-08-19T11:04:12.344Z</time>
      </trkpt>
      <trkpt lat="45.92306" lon="6.37582">
        <ele>1238</ele>
        <time>2026-08-19T11:04:13.344Z</time>
      </trkpt>
      <trkpt lat="45.92307" lon="6.37583">
        <ele>1238</ele>
        <time>2026-08-19T11:04:14.344Z</time>
      </trkpt>
      <trkpt lat="45.92308" lon="6.37584">
        <ele>1239</ele>
        <time>2026-08-19T11:04:15.344Z</time>
      </trkpt>
      <trkpt lat="45.92308" lon="6.37584">
        <ele>1239</ele>
        <time>2026-08-19T11:04:16.344Z</time>
      </trkpt>
      <trkpt lat="45.92309" lon="6.37583">
        <ele>1240</ele>
        <time>2026-08-19T11:04:17.344Z</time>
      </trkpt>
      <trkpt lat="45.9231" lon="6.37583">
        <ele>1240</ele>
        <time>2026-08-19T11:04:18.344Z</time>
      </trkpt>
      <trkpt lat="45.92311" lon="6.37584">
        <ele>1240</ele>
        <time>2026-08-19T11:04:19.344Z</time>
      </trkpt>
      <trkpt lat="45.92313" lon="6.37584">
        <ele>1241</ele>
        <time>2026-08-19T11:04:20.344Z</time>
      </trkpt>
      <trkpt lat="45.92314" lon="6.37585">
        <ele>1241</ele>
        <time>2026-08-19T11:04:21.344Z</time>
      </trkpt>
      <trkpt lat="45.92315" lon="6.37585">
        <ele>1242</ele>
        <time>2026-08-19T11:04:22.344Z</time>
      </trkpt>
      <trkpt lat="45.92316" lon="6.37586">
        <ele>1242</ele>
        <time>2026-08-19T11:04:23.344Z</time>
      </trkpt>
      <trkpt lat="45.92316" lon="6.37587">
        <ele>1242</ele>
        <time>2026-08-19T11:04:24.344Z</time>
      </trkpt>
      <trkpt lat="45.92317" lon="6.37589">
        <ele>1242</ele>
        <time>2026-08-19T11:04:25.344Z</time>
      </trkpt>
      <trkpt lat="45.92318" lon="6.37591">
        <ele>1242</ele>
        <time>2026-08-19T11:04:26.344Z</time>
      </trkpt>
      <trkpt lat="45.92319" lon="6.37593">
        <ele>1243</ele>
        <time>2026-08-19T11:04:27.344Z</time>
      </trkpt>
      <trkpt lat="45.92319" lon="6.37594">
        <ele>1243</ele>
        <time>2026-08-19T11:04:28.344Z</time>
      </trkpt>
      <trkpt lat="45.9232" lon="6.37596">
        <ele>1243</ele>
        <time>2026-08-19T11:04:29.344Z</time>
      </trkpt>
      <trkpt lat="45.9232" lon="6.37596">
        <ele>1243</ele>
        <time>2026-08-19T11:04:30.344Z</time>
      </trkpt>
      <trkpt lat="45.92321" lon="6.37597">
        <ele>1243</ele>
        <time>2026-08-19T11:04:31.344Z</time>
      </trkpt>
      <trkpt lat="45.92322" lon="6.37598">
        <ele>1243</ele>
        <time>2026-08-19T11:04:32.344Z</time>
      </trkpt>
      <trkpt lat="45.92323" lon="6.37598">
        <ele>1243</ele>
        <time>2026-08-19T11:04:33.344Z</time>
      </trkpt>
      <trkpt lat="45.92324" lon="6.37599">
        <ele>1243</ele>
        <time>2026-08-19T11:04:34.344Z</time>
      </trkpt>
      <trkpt lat="45.92324" lon="6.376">
        <ele>1243</ele>
        <time>2026-08-19T11:04:35.344Z</time>
      </trkpt>
      <trkpt lat="45.92324" lon="6.376">
        <ele>1243</ele>
        <time>2026-08-19T11:04:36.344Z</time>
      </trkpt>
      <trkpt lat="45.92325" lon="6.376">
        <ele>1243</ele>
        <time>2026-08-19T11:04:37.344Z</time>
      </trkpt>
      <trkpt lat="45.92325" lon="6.376">
        <ele>1243</ele>
        <time>2026-08-19T11:04:38.344Z</time>
      </trkpt>
      <trkpt lat="45.92325" lon="6.376">
        <ele>1243</ele>
        <time>2026-08-19T11:04:39.344Z</time>
      </trkpt>
      <trkpt lat="45.92326" lon="6.376">
        <ele>1243</ele>
        <time>2026-08-19T11:04:40.344Z</time>
      </trkpt>
      <trkpt lat="45.92326" lon="6.376">
        <ele>1243</ele>
        <time>2026-08-19T11:04:41.344Z</time>
      </trkpt>
      <trkpt lat="45.92326" lon="6.37601">
        <ele>1243</ele>
        <time>2026-08-19T11:04:42.344Z</time>
      </trkpt>
      <trkpt lat="45.92326" lon="6.376">
        <ele>1243</ele>
        <time>2026-08-19T11:04:43.344Z</time>
      </trkpt>
      <trkpt lat="45.92326" lon="6.376">
        <ele>1244</ele>
        <time>2026-08-19T11:04:44.344Z</time>
      </trkpt>
      <trkpt lat="45.92326" lon="6.376">
        <ele>1244</ele>
        <time>2026-08-19T11:04:45.344Z</time>
      </trkpt>
      <trkpt lat="45.92326" lon="6.37601">
        <ele>1244</ele>
        <time>2026-08-19T11:04:46.344Z</time>
      </trkpt>
      <trkpt lat="45.92327" lon="6.37601">
        <ele>1245</ele>
        <time>2026-08-19T11:04:47.344Z</time>
      </trkpt>
      <trkpt lat="45.92327" lon="6.37601">
        <ele>1245</ele>
        <time>2026-08-19T11:04:48.344Z</time>
      </trkpt>
      <trkpt lat="45.92328" lon="6.37602">
        <ele>1246</ele>
        <time>2026-08-19T11:04:49.344Z</time>
      </trkpt>
      <trkpt lat="45.92328" lon="6.37602">
        <ele>1246</ele>
        <time>2026-08-19T11:04:50.345Z</time>
      </trkpt>
      <trkpt lat="45.92329" lon="6.37604">
        <ele>1247</ele>
        <time>2026-08-19T11:04:51.344Z</time>
      </trkpt>
      <trkpt lat="45.92329" lon="6.37604">
        <ele>1247</ele>
        <time>2026-08-19T11:04:52.344Z</time>
      </trkpt>
      <trkpt lat="45.9233" lon="6.37604">
        <ele>1248</ele>
        <time>2026-08-19T11:04:53.344Z</time>
      </trkpt>
      <trkpt lat="45.9233" lon="6.37604">
        <ele>1248</ele>
        <time>2026-08-19T11:04:54.344Z</time>
      </trkpt>
      <trkpt lat="45.9233" lon="6.37605">
        <ele>1248</ele>
        <time>2026-08-19T11:04:55.344Z</time>
      </trkpt>
      <trkpt lat="45.92331" lon="6.37604">
        <ele>1248</ele>
        <time>2026-08-19T11:04:56.344Z</time>
      </trkpt>
      <trkpt lat="45.92331" lon="6.37605">
        <ele>1248</ele>
        <time>2026-08-19T11:04:57.344Z</time>
      </trkpt>
      <trkpt lat="45.92333" lon="6.37606">
        <ele>1248</ele>
        <time>2026-08-19T11:04:58.344Z</time>
      </trkpt>
      <trkpt lat="45.92335" lon="6.37608">
        <ele>1248</ele>
        <time>2026-08-19T11:04:59.344Z</time>
      </trkpt>
      <trkpt lat="45.92336" lon="6.37608">
        <ele>1248</ele>
        <time>2026-08-19T11:05:00.344Z</time>
      </trkpt>
      <trkpt lat="45.92337" lon="6.37609">
        <ele>1248</ele>
        <time>2026-08-19T11:05:01.344Z</time>
      </trkpt>
      <trkpt lat="45.92338" lon="6.37609">
        <ele>1248</ele>
        <time>2026-08-19T11:05:02.344Z</time>
      </trkpt>
      <trkpt lat="45.92339" lon="6.3761">
        <ele>1248</ele>
        <time>2026-08-19T11:05:03.344Z</time>
      </trkpt>
      <trkpt lat="45.92341" lon="6.37612">
        <ele>1248</ele>
        <time>2026-08-19T11:05:04.344Z</time>
      </trkpt>
      <trkpt lat="45.92341" lon="6.37612">
        <ele>1248</ele>
        <time>2026-08-19T11:05:05.344Z</time>
      </trkpt>
      <trkpt lat="45.92342" lon="6.37613">
        <ele>1249</ele>
        <time>2026-08-19T11:05:06.344Z</time>
      </trkpt>
      <trkpt lat="45.92342" lon="6.37613">
        <ele>1249</ele>
        <time>2026-08-19T11:05:07.344Z</time>
      </trkpt>
      <trkpt lat="45.92342" lon="6.37613">
        <ele>1249</ele>
        <time>2026-08-19T11:05:08.344Z</time>
      </trkpt>
      <trkpt lat="45.92342" lon="6.37613">
        <ele>1248</ele>
        <time>2026-08-19T11:05:09.344Z</time>
      </trkpt>
      <trkpt lat="45.92342" lon="6.37614">
        <ele>1248</ele>
        <time>2026-08-19T11:05:10.344Z</time>
      </trkpt>
      <trkpt lat="45.92343" lon="6.37614">
        <ele>1248</ele>
        <time>2026-08-19T11:05:11.344Z</time>
      </trkpt>
      <trkpt lat="45.92343" lon="6.37614">
        <ele>1248</ele>
        <time>2026-08-19T11:05:12.344Z</time>
      </trkpt>
      <trkpt lat="45.92343" lon="6.37614">
        <ele>1248</ele>
        <time>2026-08-19T11:05:13.344Z</time>
      </trkpt>
      <trkpt lat="45.92344" lon="6.37615">
        <ele>1248</ele>
        <time>2026-08-19T11:05:14.345Z</time>
      </trkpt>
      <trkpt lat="45.92343" lon="6.37616">
        <ele>1248</ele>
        <time>2026-08-19T11:05:15.344Z</time>
      </trkpt>
      <trkpt lat="45.92344" lon="6.37617">
        <ele>1248</ele>
        <time>2026-08-19T11:05:16.344Z</time>
      </trkpt>
      <trkpt lat="45.92345" lon="6.37618">
        <ele>1248</ele>
        <time>2026-08-19T11:05:17.344Z</time>
      </trkpt>
      <trkpt lat="45.92345" lon="6.37619">
        <ele>1249</ele>
        <time>2026-08-19T11:05:18.344Z</time>
      </trkpt>
      <trkpt lat="45.92346" lon="6.37621">
        <ele>1249</ele>
        <time>2026-08-19T11:05:19.344Z</time>
      </trkpt>
      <trkpt lat="45.92347" lon="6.37622">
        <ele>1250</ele>
        <time>2026-08-19T11:05:20.344Z</time>
      </trkpt>
      <trkpt lat="45.92348" lon="6.37623">
        <ele>1250</ele>
        <time>2026-08-19T11:05:21.344Z</time>
      </trkpt>
      <trkpt lat="45.92349" lon="6.37624">
        <ele>1251</ele>
        <time>2026-08-19T11:05:22.344Z</time>
      </trkpt>
      <trkpt lat="45.92351" lon="6.37625">
        <ele>1251</ele>
        <time>2026-08-19T11:05:23.344Z</time>
      </trkpt>
      <trkpt lat="45.92352" lon="6.37627">
        <ele>1252</ele>
        <time>2026-08-19T11:05:24.344Z</time>
      </trkpt>
      <trkpt lat="45.92353" lon="6.37627">
        <ele>1252</ele>
        <time>2026-08-19T11:05:25.344Z</time>
      </trkpt>
      <trkpt lat="45.92354" lon="6.37628">
        <ele>1252</ele>
        <time>2026-08-19T11:05:26.344Z</time>
      </trkpt>
      <trkpt lat="45.92355" lon="6.37629">
        <ele>1253</ele>
        <time>2026-08-19T11:05:27.344Z</time>
      </trkpt>
      <trkpt lat="45.92356" lon="6.37629">
        <ele>1253</ele>
        <time>2026-08-19T11:05:28.344Z</time>
      </trkpt>
      <trkpt lat="45.92356" lon="6.37629">
        <ele>1253</ele>
        <time>2026-08-19T11:05:29.344Z</time>
      </trkpt>
      <trkpt lat="45.92357" lon="6.37629">
        <ele>1254</ele>
        <time>2026-08-19T11:05:30.344Z</time>
      </trkpt>
      <trkpt lat="45.92358" lon="6.3763">
        <ele>1254</ele>
        <time>2026-08-19T11:05:31.344Z</time>
      </trkpt>
      <trkpt lat="45.92359" lon="6.3763">
        <ele>1254</ele>
        <time>2026-08-19T11:05:32.344Z</time>
      </trkpt>
      <trkpt lat="45.9236" lon="6.3763">
        <ele>1255</ele>
        <time>2026-08-19T11:05:33.344Z</time>
      </trkpt>
      <trkpt lat="45.9236" lon="6.37629">
        <ele>1255</ele>
        <time>2026-08-19T11:05:34.344Z</time>
      </trkpt>
      <trkpt lat="45.92361" lon="6.3763">
        <ele>1256</ele>
        <time>2026-08-19T11:05:35.344Z</time>
      </trkpt>
      <trkpt lat="45.92361" lon="6.3763">
        <ele>1256</ele>
        <time>2026-08-19T11:05:36.344Z</time>
      </trkpt>
      <trkpt lat="45.92361" lon="6.37629">
        <ele>1256</ele>
        <time>2026-08-19T11:05:37.344Z</time>
      </trkpt>
      <trkpt lat="45.92361" lon="6.37628">
        <ele>1256</ele>
        <time>2026-08-19T11:05:38.344Z</time>
      </trkpt>
      <trkpt lat="45.92361" lon="6.37629">
        <ele>1257</ele>
        <time>2026-08-19T11:05:39.344Z</time>
      </trkpt>
      <trkpt lat="45.92362" lon="6.3763">
        <ele>1257</ele>
        <time>2026-08-19T11:05:40.344Z</time>
      </trkpt>
      <trkpt lat="45.92364" lon="6.37632">
        <ele>1257</ele>
        <time>2026-08-19T11:05:41.344Z</time>
      </trkpt>
      <trkpt lat="45.92364" lon="6.37633">
        <ele>1257</ele>
        <time>2026-08-19T11:05:42.344Z</time>
      </trkpt>
      <trkpt lat="45.92365" lon="6.37634">
        <ele>1257</ele>
        <time>2026-08-19T11:05:43.345Z</time>
      </trkpt>
      <trkpt lat="45.92365" lon="6.37634">
        <ele>1257</ele>
        <time>2026-08-19T11:05:44.344Z</time>
      </trkpt>
      <trkpt lat="45.92365" lon="6.37634">
        <ele>1257</ele>
        <time>2026-08-19T11:05:45.344Z</time>
      </trkpt>
      <trkpt lat="45.92365" lon="6.37633">
        <ele>1257</ele>
        <time>2026-08-19T11:05:46.344Z</time>
      </trkpt>
      <trkpt lat="45.92364" lon="6.37633">
        <ele>1258</ele>
        <time>2026-08-19T11:05:47.344Z</time>
      </trkpt>
      <trkpt lat="45.92365" lon="6.37632">
        <ele>1258</ele>
        <time>2026-08-19T11:05:48.344Z</time>
      </trkpt>
      <trkpt lat="45.92365" lon="6.37632">
        <ele>1258</ele>
        <time>2026-08-19T11:05:49.344Z</time>
      </trkpt>
      <trkpt lat="45.92365" lon="6.37632">
        <ele>1259</ele>
        <time>2026-08-19T11:05:50.344Z</time>
      </trkpt>
      <trkpt lat="45.92365" lon="6.37632">
        <ele>1259</ele>
        <time>2026-08-19T11:05:51.344Z</time>
      </trkpt>
      <trkpt lat="45.92366" lon="6.37632">
        <ele>1260</ele>
        <time>2026-08-19T11:05:52.344Z</time>
      </trkpt>
      <trkpt lat="45.92366" lon="6.37632">
        <ele>1260</ele>
        <time>2026-08-19T11:05:53.344Z</time>
      </trkpt>
      <trkpt lat="45.92366" lon="6.37632">
        <ele>1260</ele>
        <time>2026-08-19T11:05:54.344Z</time>
      </trkpt>
      <trkpt lat="45.92366" lon="6.37631">
        <ele>1261</ele>
        <time>2026-08-19T11:05:55.344Z</time>
      </trkpt>
      <trkpt lat="45.92366" lon="6.3763">
        <ele>1261</ele>
        <time>2026-08-19T11:05:56.344Z</time>
      </trkpt>
      <trkpt lat="45.92367" lon="6.3763">
        <ele>1262</ele>
        <time>2026-08-19T11:05:57.345Z</time>
      </trkpt>
      <trkpt lat="45.92367" lon="6.3763">
        <ele>1262</ele>
        <time>2026-08-19T11:05:58.344Z</time>
      </trkpt>
      <trkpt lat="45.92367" lon="6.37629">
        <ele>1263</ele>
        <time>2026-08-19T11:05:59.344Z</time>
      </trkpt>
      <trkpt lat="45.92368" lon="6.37629">
        <ele>1263</ele>
        <time>2026-08-19T11:06:00.344Z</time>
      </trkpt>
      <trkpt lat="45.92368" lon="6.37628">
        <ele>1264</ele>
        <time>2026-08-19T11:06:01.344Z</time>
      </trkpt>
      <trkpt lat="45.92368" lon="6.37629">
        <ele>1265</ele>
        <time>2026-08-19T11:06:02.344Z</time>
      </trkpt>
      <trkpt lat="45.92367" lon="6.37629">
        <ele>1265</ele>
        <time>2026-08-19T11:06:03.344Z</time>
      </trkpt>
      <trkpt lat="45.92367" lon="6.3763">
        <ele>1266</ele>
        <time>2026-08-19T11:06:04.344Z</time>
      </trkpt>
      <trkpt lat="45.92367" lon="6.37633">
        <ele>1266</ele>
        <time>2026-08-19T11:06:05.345Z</time>
      </trkpt>
      <trkpt lat="45.92367" lon="6.37633">
        <ele>1266</ele>
        <time>2026-08-19T11:06:06.344Z</time>
      </trkpt>
      <trkpt lat="45.92368" lon="6.37633">
        <ele>1267</ele>
        <time>2026-08-19T11:06:07.344Z</time>
      </trkpt>
      <trkpt lat="45.92368" lon="6.37633">
        <ele>1267</ele>
        <time>2026-08-19T11:06:08.344Z</time>
      </trkpt>
      <trkpt lat="45.92368" lon="6.37633">
        <ele>1267</ele>
        <time>2026-08-19T11:06:09.344Z</time>
      </trkpt>
      <trkpt lat="45.92368" lon="6.37633">
        <ele>1267</ele>
        <time>2026-08-19T11:06:10.344Z</time>
      </trkpt>
      <trkpt lat="45.92368" lon="6.37632">
        <ele>1267</ele>
        <time>2026-08-19T11:06:11.344Z</time>
      </trkpt>
      <trkpt lat="45.92369" lon="6.37632">
        <ele>1268</ele>
        <time>2026-08-19T11:06:12.344Z</time>
      </trkpt>
      <trkpt lat="45.92369" lon="6.37631">
        <ele>1268</ele>
        <time>2026-08-19T11:06:13.344Z</time>
      </trkpt>
      <trkpt lat="45.9237" lon="6.37631">
        <ele>1268</ele>
        <time>2026-08-19T11:06:14.344Z</time>
      </trkpt>
      <trkpt lat="45.9237" lon="6.3763">
        <ele>1269</ele>
        <time>2026-08-19T11:06:15.344Z</time>
      </trkpt>
      <trkpt lat="45.9237" lon="6.37629">
        <ele>1269</ele>
        <time>2026-08-19T11:06:16.344Z</time>
      </trkpt>
      <trkpt lat="45.9237" lon="6.37628">
        <ele>1269</ele>
        <time>2026-08-19T11:06:17.344Z</time>
      </trkpt>
      <trkpt lat="45.9237" lon="6.37628">
        <ele>1269</ele>
        <time>2026-08-19T11:06:18.344Z</time>
      </trkpt>
      <trkpt lat="45.9237" lon="6.37627">
        <ele>1269</ele>
        <time>2026-08-19T11:06:19.344Z</time>
      </trkpt>
      <trkpt lat="45.9237" lon="6.37626">
        <ele>1269</ele>
        <time>2026-08-19T11:06:20.344Z</time>
      </trkpt>
      <trkpt lat="45.9237" lon="6.37625">
        <ele>1269</ele>
        <time>2026-08-19T11:06:21.344Z</time>
      </trkpt>
      <trkpt lat="45.9237" lon="6.37625">
        <ele>1269</ele>
        <time>2026-08-19T11:06:22.344Z</time>
      </trkpt>
      <trkpt lat="45.92371" lon="6.37625">
        <ele>1269</ele>
        <time>2026-08-19T11:06:23.344Z</time>
      </trkpt>
      <trkpt lat="45.92371" lon="6.37624">
        <ele>1269</ele>
        <time>2026-08-19T11:06:24.344Z</time>
      </trkpt>
      <trkpt lat="45.92371" lon="6.37624">
        <ele>1269</ele>
        <time>2026-08-19T11:06:25.344Z</time>
      </trkpt>
      <trkpt lat="45.92372" lon="6.37624">
        <ele>1269</ele>
        <time>2026-08-19T11:06:26.344Z</time>
      </trkpt>
      <trkpt lat="45.92372" lon="6.37624">
        <ele>1268</ele>
        <time>2026-08-19T11:06:27.344Z</time>
      </trkpt>
      <trkpt lat="45.92372" lon="6.37623">
        <ele>1268</ele>
        <time>2026-08-19T11:06:28.344Z</time>
      </trkpt>
      <trkpt lat="45.92372" lon="6.37623">
        <ele>1268</ele>
        <time>2026-08-19T11:06:29.344Z</time>
      </trkpt>
      <trkpt lat="45.92371" lon="6.37623">
        <ele>1269</ele>
        <time>2026-08-19T11:06:30.344Z</time>
      </trkpt>
      <trkpt lat="45.92371" lon="6.37622">
        <ele>1269</ele>
        <time>2026-08-19T11:06:31.344Z</time>
      </trkpt>
      <trkpt lat="45.92372" lon="6.37622">
        <ele>1269</ele>
        <time>2026-08-19T11:06:32.344Z</time>
      </trkpt>
      <trkpt lat="45.92372" lon="6.37621">
        <ele>1269</ele>
        <time>2026-08-19T11:06:33.344Z</time>
      </trkpt>
      <trkpt lat="45.92372" lon="6.3762">
        <ele>1269</ele>
        <time>2026-08-19T11:06:34.344Z</time>
      </trkpt>
      <trkpt lat="45.92373" lon="6.37619">
        <ele>1270</ele>
        <time>2026-08-19T11:06:35.344Z</time>
      </trkpt>
      <trkpt lat="45.92374" lon="6.37618">
        <ele>1270</ele>
        <time>2026-08-19T11:06:36.344Z</time>
      </trkpt>
      <trkpt lat="45.92374" lon="6.37618">
        <ele>1270</ele>
        <time>2026-08-19T11:06:37.344Z</time>
      </trkpt>
      <trkpt lat="45.92374" lon="6.37618">
        <ele>1270</ele>
        <time>2026-08-19T11:06:38.344Z</time>
      </trkpt>
      <trkpt lat="45.92374" lon="6.37617">
        <ele>1270</ele>
        <time>2026-08-19T11:06:39.344Z</time>
      </trkpt>
      <trkpt lat="45.92374" lon="6.37617">
        <ele>1270</ele>
        <time>2026-08-19T11:06:40.344Z</time>
      </trkpt>
      <trkpt lat="45.92374" lon="6.37617">
        <ele>1270</ele>
        <time>2026-08-19T11:06:41.344Z</time>
      </trkpt>
      <trkpt lat="45.92374" lon="6.37617">
        <ele>1270</ele>
        <time>2026-08-19T11:06:42.344Z</time>
      </trkpt>
      <trkpt lat="45.92373" lon="6.37617">
        <ele>1269</ele>
        <time>2026-08-19T11:06:43.344Z</time>
      </trkpt>
      <trkpt lat="45.92374" lon="6.37616">
        <ele>1269</ele>
        <time>2026-08-19T11:06:44.344Z</time>
      </trkpt>
      <trkpt lat="45.92374" lon="6.37616">
        <ele>1269</ele>
        <time>2026-08-19T11:06:45.344Z</time>
      </trkpt>
      <trkpt lat="45.92374" lon="6.37616">
        <ele>1269</ele>
        <time>2026-08-19T11:06:46.344Z</time>
      </trkpt>
      <trkpt lat="45.92375" lon="6.37617">
        <ele>1269</ele>
        <time>2026-08-19T11:06:47.344Z</time>
      </trkpt>
      <trkpt lat="45.92375" lon="6.37617">
        <ele>1269</ele>
        <time>2026-08-19T11:06:48.344Z</time>
      </trkpt>
      <trkpt lat="45.92375" lon="6.37616">
        <ele>1269</ele>
        <time>2026-08-19T11:06:49.344Z</time>
      </trkpt>
      <trkpt lat="45.92375" lon="6.37614">
        <ele>1269</ele>
        <time>2026-08-19T11:06:50.344Z</time>
      </trkpt>
      <trkpt lat="45.92376" lon="6.37613">
        <ele>1270</ele>
        <time>2026-08-19T11:06:51.344Z</time>
      </trkpt>
      <trkpt lat="45.92376" lon="6.37613">
        <ele>1270</ele>
        <time>2026-08-19T11:06:52.344Z</time>
      </trkpt>
      <trkpt lat="45.92376" lon="6.37612">
        <ele>1270</ele>
        <time>2026-08-19T11:06:53.345Z</time>
      </trkpt>
      <trkpt lat="45.92377" lon="6.37611">
        <ele>1270</ele>
        <time>2026-08-19T11:06:54.344Z</time>
      </trkpt>
      <trkpt lat="45.92377" lon="6.3761">
        <ele>1271</ele>
        <time>2026-08-19T11:06:55.344Z</time>
      </trkpt>
      <trkpt lat="45.92378" lon="6.37609">
        <ele>1271</ele>
        <time>2026-08-19T11:06:56.344Z</time>
      </trkpt>
      <trkpt lat="45.92379" lon="6.37607">
        <ele>1271</ele>
        <time>2026-08-19T11:06:57.345Z</time>
      </trkpt>
      <trkpt lat="45.9238" lon="6.37606">
        <ele>1271</ele>
        <time>2026-08-19T11:06:58.344Z</time>
      </trkpt>
      <trkpt lat="45.9238" lon="6.37606">
        <ele>1271</ele>
        <time>2026-08-19T11:06:59.344Z</time>
      </trkpt>
      <trkpt lat="45.9238" lon="6.37605">
        <ele>1271</ele>
        <time>2026-08-19T11:07:00.344Z</time>
      </trkpt>
      <trkpt lat="45.9238" lon="6.37605">
        <ele>1271</ele>
        <time>2026-08-19T11:07:01.344Z</time>
      </trkpt>
      <trkpt lat="45.9238" lon="6.37605">
        <ele>1271</ele>
        <time>2026-08-19T11:07:02.344Z</time>
      </trkpt>
      <trkpt lat="45.9238" lon="6.37605">
        <ele>1271</ele>
        <time>2026-08-19T11:07:03.344Z</time>
      </trkpt>
      <trkpt lat="45.9238" lon="6.37606">
        <ele>1271</ele>
        <time>2026-08-19T11:07:04.344Z</time>
      </trkpt>
      <trkpt lat="45.9238" lon="6.37604">
        <ele>1271</ele>
        <time>2026-08-19T11:07:05.344Z</time>
      </trkpt>
      <trkpt lat="45.9238" lon="6.37604">
        <ele>1271</ele>
        <time>2026-08-19T11:07:06.344Z</time>
      </trkpt>
      <trkpt lat="45.92381" lon="6.37603">
        <ele>1272</ele>
        <time>2026-08-19T11:07:07.345Z</time>
      </trkpt>
      <trkpt lat="45.92381" lon="6.37602">
        <ele>1272</ele>
        <time>2026-08-19T11:07:08.344Z</time>
      </trkpt>
      <trkpt lat="45.92381" lon="6.37602">
        <ele>1273</ele>
        <time>2026-08-19T11:07:09.344Z</time>
      </trkpt>
      <trkpt lat="45.92381" lon="6.37601">
        <ele>1274</ele>
        <time>2026-08-19T11:07:10.344Z</time>
      </trkpt>
      <trkpt lat="45.92382" lon="6.376">
        <ele>1275</ele>
        <time>2026-08-19T11:07:11.344Z</time>
      </trkpt>
      <trkpt lat="45.92382" lon="6.37598">
        <ele>1275</ele>
        <time>2026-08-19T11:07:12.344Z</time>
      </trkpt>
      <trkpt lat="45.92382" lon="6.37598">
        <ele>1276</ele>
        <time>2026-08-19T11:07:13.344Z</time>
      </trkpt>
      <trkpt lat="45.92382" lon="6.37596">
        <ele>1277</ele>
        <time>2026-08-19T11:07:14.344Z</time>
      </trkpt>
      <trkpt lat="45.92382" lon="6.37595">
        <ele>1278</ele>
        <time>2026-08-19T11:07:15.344Z</time>
      </trkpt>
      <trkpt lat="45.92382" lon="6.37594">
        <ele>1278</ele>
        <time>2026-08-19T11:07:16.344Z</time>
      </trkpt>
      <trkpt lat="45.92383" lon="6.37594">
        <ele>1278</ele>
        <time>2026-08-19T11:07:17.344Z</time>
      </trkpt>
      <trkpt lat="45.92383" lon="6.37593">
        <ele>1278</ele>
        <time>2026-08-19T11:07:18.344Z</time>
      </trkpt>
      <trkpt lat="45.92383" lon="6.37592">
        <ele>1279</ele>
        <time>2026-08-19T11:07:19.344Z</time>
      </trkpt>
      <trkpt lat="45.92384" lon="6.37591">
        <ele>1279</ele>
        <time>2026-08-19T11:07:20.344Z</time>
      </trkpt>
      <trkpt lat="45.92384" lon="6.37589">
        <ele>1279</ele>
        <time>2026-08-19T11:07:21.344Z</time>
      </trkpt>
      <trkpt lat="45.92384" lon="6.37589">
        <ele>1280</ele>
        <time>2026-08-19T11:07:22.344Z</time>
      </trkpt>
      <trkpt lat="45.92385" lon="6.37588">
        <ele>1280</ele>
        <time>2026-08-19T11:07:23.344Z</time>
      </trkpt>
      <trkpt lat="45.92385" lon="6.37587">
        <ele>1281</ele>
        <time>2026-08-19T11:07:24.344Z</time>
      </trkpt>
      <trkpt lat="45.92385" lon="6.37587">
        <ele>1281</ele>
        <time>2026-08-19T11:07:25.344Z</time>
      </trkpt>
      <trkpt lat="45.92384" lon="6.37585">
        <ele>1282</ele>
        <time>2026-08-19T11:07:26.344Z</time>
      </trkpt>
      <trkpt lat="45.92385" lon="6.37583">
        <ele>1282</ele>
        <time>2026-08-19T11:07:27.344Z</time>
      </trkpt>
      <trkpt lat="45.92385" lon="6.37582">
        <ele>1283</ele>
        <time>2026-08-19T11:07:28.344Z</time>
      </trkpt>
      <trkpt lat="45.92385" lon="6.37581">
        <ele>1283</ele>
        <time>2026-08-19T11:07:29.344Z</time>
      </trkpt>
      <trkpt lat="45.92386" lon="6.3758">
        <ele>1283</ele>
        <time>2026-08-19T11:07:30.344Z</time>
      </trkpt>
      <trkpt lat="45.92386" lon="6.3758">
        <ele>1284</ele>
        <time>2026-08-19T11:07:31.344Z</time>
      </trkpt>
      <trkpt lat="45.92386" lon="6.3758">
        <ele>1284</ele>
        <time>2026-08-19T11:07:32.344Z</time>
      </trkpt>
      <trkpt lat="45.92387" lon="6.3758">
        <ele>1284</ele>
        <time>2026-08-19T11:07:33.344Z</time>
      </trkpt>
      <trkpt lat="45.92387" lon="6.3758">
        <ele>1284</ele>
        <time>2026-08-19T11:07:34.344Z</time>
      </trkpt>
      <trkpt lat="45.92388" lon="6.3758">
        <ele>1285</ele>
        <time>2026-08-19T11:07:35.344Z</time>
      </trkpt>
      <trkpt lat="45.92388" lon="6.3758">
        <ele>1285</ele>
        <time>2026-08-19T11:07:36.344Z</time>
      </trkpt>
      <trkpt lat="45.9239" lon="6.37579">
        <ele>1285</ele>
        <time>2026-08-19T11:07:37.344Z</time>
      </trkpt>
      <trkpt lat="45.92391" lon="6.37579">
        <ele>1285</ele>
        <time>2026-08-19T11:07:38.344Z</time>
      </trkpt>
      <trkpt lat="45.92391" lon="6.37579">
        <ele>1286</ele>
        <time>2026-08-19T11:07:39.344Z</time>
      </trkpt>
      <trkpt lat="45.92391" lon="6.3758">
        <ele>1286</ele>
        <time>2026-08-19T11:07:40.344Z</time>
      </trkpt>
      <trkpt lat="45.92392" lon="6.37581">
        <ele>1286</ele>
        <time>2026-08-19T11:07:41.344Z</time>
      </trkpt>
      <trkpt lat="45.92392" lon="6.37581">
        <ele>1287</ele>
        <time>2026-08-19T11:07:42.344Z</time>
      </trkpt>
      <trkpt lat="45.92393" lon="6.37582">
        <ele>1287</ele>
        <time>2026-08-19T11:07:43.344Z</time>
      </trkpt>
      <trkpt lat="45.92392" lon="6.37583">
        <ele>1287</ele>
        <time>2026-08-19T11:07:44.344Z</time>
      </trkpt>
      <trkpt lat="45.92392" lon="6.37583">
        <ele>1288</ele>
        <time>2026-08-19T11:07:45.344Z</time>
      </trkpt>
      <trkpt lat="45.92392" lon="6.37583">
        <ele>1288</ele>
        <time>2026-08-19T11:07:46.344Z</time>
      </trkpt>
      <trkpt lat="45.92392" lon="6.37583">
        <ele>1288</ele>
        <time>2026-08-19T11:07:47.344Z</time>
      </trkpt>
      <trkpt lat="45.92393" lon="6.37583">
        <ele>1289</ele>
        <time>2026-08-19T11:07:48.344Z</time>
      </trkpt>
      <trkpt lat="45.92394" lon="6.37583">
        <ele>1289</ele>
        <time>2026-08-19T11:07:49.344Z</time>
      </trkpt>
      <trkpt lat="45.92393" lon="6.37582">
        <ele>1289</ele>
        <time>2026-08-19T11:07:50.344Z</time>
      </trkpt>
      <trkpt lat="45.92395" lon="6.37582">
        <ele>1289</ele>
        <time>2026-08-19T11:07:51.344Z</time>
      </trkpt>
      <trkpt lat="45.92395" lon="6.37582">
        <ele>1289</ele>
        <time>2026-08-19T11:07:52.344Z</time>
      </trkpt>
      <trkpt lat="45.92395" lon="6.37582">
        <ele>1290</ele>
        <time>2026-08-19T11:07:53.344Z</time>
      </trkpt>
      <trkpt lat="45.92396" lon="6.37582">
        <ele>1290</ele>
        <time>2026-08-19T11:07:54.344Z</time>
      </trkpt>
      <trkpt lat="45.92396" lon="6.37582">
        <ele>1290</ele>
        <time>2026-08-19T11:07:55.344Z</time>
      </trkpt>
      <trkpt lat="45.92397" lon="6.37582">
        <ele>1290</ele>
        <time>2026-08-19T11:07:56.344Z</time>
      </trkpt>
      <trkpt lat="45.92398" lon="6.37583">
        <ele>1290</ele>
        <time>2026-08-19T11:07:57.344Z</time>
      </trkpt>
      <trkpt lat="45.92398" lon="6.37583">
        <ele>1290</ele>
        <time>2026-08-19T11:07:58.344Z</time>
      </trkpt>
      <trkpt lat="45.92399" lon="6.37583">
        <ele>1289</ele>
        <time>2026-08-19T11:07:59.344Z</time>
      </trkpt>
      <trkpt lat="45.924" lon="6.37583">
        <ele>1289</ele>
        <time>2026-08-19T11:08:00.345Z</time>
      </trkpt>
      <trkpt lat="45.92401" lon="6.37584">
        <ele>1289</ele>
        <time>2026-08-19T11:08:01.344Z</time>
      </trkpt>
      <trkpt lat="45.92401" lon="6.37586">
        <ele>1289</ele>
        <time>2026-08-19T11:08:02.344Z</time>
      </trkpt>
      <trkpt lat="45.92402" lon="6.37586">
        <ele>1289</ele>
        <time>2026-08-19T11:08:03.344Z</time>
      </trkpt>
      <trkpt lat="45.92402" lon="6.37587">
        <ele>1289</ele>
        <time>2026-08-19T11:08:04.344Z</time>
      </trkpt>
      <trkpt lat="45.92402" lon="6.37588">
        <ele>1290</ele>
        <time>2026-08-19T11:08:05.344Z</time>
      </trkpt>
      <trkpt lat="45.92403" lon="6.37589">
        <ele>1290</ele>
        <time>2026-08-19T11:08:06.344Z</time>
      </trkpt>
      <trkpt lat="45.92403" lon="6.3759">
        <ele>1290</ele>
        <time>2026-08-19T11:08:07.344Z</time>
      </trkpt>
      <trkpt lat="45.92403" lon="6.3759">
        <ele>1290</ele>
        <time>2026-08-19T11:08:08.344Z</time>
      </trkpt>
      <trkpt lat="45.92403" lon="6.3759">
        <ele>1290</ele>
        <time>2026-08-19T11:08:09.344Z</time>
      </trkpt>
      <trkpt lat="45.92404" lon="6.3759">
        <ele>1290</ele>
        <time>2026-08-19T11:08:10.344Z</time>
      </trkpt>
      <trkpt lat="45.92404" lon="6.37589">
        <ele>1290</ele>
        <time>2026-08-19T11:08:11.344Z</time>
      </trkpt>
      <trkpt lat="45.92404" lon="6.3759">
        <ele>1290</ele>
        <time>2026-08-19T11:08:12.344Z</time>
      </trkpt>
      <trkpt lat="45.92405" lon="6.37589">
        <ele>1289</ele>
        <time>2026-08-19T11:08:13.344Z</time>
      </trkpt>
      <trkpt lat="45.92406" lon="6.37588">
        <ele>1289</ele>
        <time>2026-08-19T11:08:14.344Z</time>
      </trkpt>
      <trkpt lat="45.92406" lon="6.37588">
        <ele>1289</ele>
        <time>2026-08-19T11:08:15.344Z</time>
      </trkpt>
      <trkpt lat="45.92406" lon="6.37587">
        <ele>1289</ele>
        <time>2026-08-19T11:08:16.344Z</time>
      </trkpt>
      <trkpt lat="45.92407" lon="6.37586">
        <ele>1289</ele>
        <time>2026-08-19T11:08:17.344Z</time>
      </trkpt>
      <trkpt lat="45.92406" lon="6.37585">
        <ele>1290</ele>
        <time>2026-08-19T11:08:18.344Z</time>
      </trkpt>
      <trkpt lat="45.92406" lon="6.37585">
        <ele>1290</ele>
        <time>2026-08-19T11:08:19.344Z</time>
      </trkpt>
      <trkpt lat="45.92405" lon="6.37584">
        <ele>1290</ele>
        <time>2026-08-19T11:08:20.344Z</time>
      </trkpt>
      <trkpt lat="45.92405" lon="6.37583">
        <ele>1291</ele>
        <time>2026-08-19T11:08:21.344Z</time>
      </trkpt>
      <trkpt lat="45.92405" lon="6.37582">
        <ele>1291</ele>
        <time>2026-08-19T11:08:22.344Z</time>
      </trkpt>
      <trkpt lat="45.92406" lon="6.37581">
        <ele>1292</ele>
        <time>2026-08-19T11:08:23.344Z</time>
      </trkpt>
      <trkpt lat="45.92407" lon="6.3758">
        <ele>1292</ele>
        <time>2026-08-19T11:08:24.344Z</time>
      </trkpt>
      <trkpt lat="45.92407" lon="6.37579">
        <ele>1292</ele>
        <time>2026-08-19T11:08:25.344Z</time>
      </trkpt>
      <trkpt lat="45.92408" lon="6.37579">
        <ele>1293</ele>
        <time>2026-08-19T11:08:26.344Z</time>
      </trkpt>
      <trkpt lat="45.92408" lon="6.37578">
        <ele>1293</ele>
        <time>2026-08-19T11:08:27.344Z</time>
      </trkpt>
      <trkpt lat="45.92408" lon="6.37578">
        <ele>1293</ele>
        <time>2026-08-19T11:08:28.344Z</time>
      </trkpt>
      <trkpt lat="45.92408" lon="6.37578">
        <ele>1293</ele>
        <time>2026-08-19T11:08:29.344Z</time>
      </trkpt>
      <trkpt lat="45.92408" lon="6.37577">
        <ele>1293</ele>
        <time>2026-08-19T11:08:30.344Z</time>
      </trkpt>
      <trkpt lat="45.92408" lon="6.37576">
        <ele>1293</ele>
        <time>2026-08-19T11:08:31.344Z</time>
      </trkpt>
      <trkpt lat="45.92408" lon="6.37575">
        <ele>1292</ele>
        <time>2026-08-19T11:08:32.344Z</time>
      </trkpt>
      <trkpt lat="45.92408" lon="6.37575">
        <ele>1292</ele>
        <time>2026-08-19T11:08:33.344Z</time>
      </trkpt>
      <trkpt lat="45.92408" lon="6.37574">
        <ele>1292</ele>
        <time>2026-08-19T11:08:34.344Z</time>
      </trkpt>
      <trkpt lat="45.92408" lon="6.37574">
        <ele>1292</ele>
        <time>2026-08-19T11:08:35.344Z</time>
      </trkpt>
      <trkpt lat="45.92409" lon="6.37573">
        <ele>1293</ele>
        <time>2026-08-19T11:08:36.344Z</time>
      </trkpt>
      <trkpt lat="45.92409" lon="6.37573">
        <ele>1293</ele>
        <time>2026-08-19T11:08:37.344Z</time>
      </trkpt>
      <trkpt lat="45.92409" lon="6.37572">
        <ele>1293</ele>
        <time>2026-08-19T11:08:38.344Z</time>
      </trkpt>
      <trkpt lat="45.92409" lon="6.37572">
        <ele>1294</ele>
        <time>2026-08-19T11:08:39.344Z</time>
      </trkpt>
      <trkpt lat="45.92409" lon="6.37572">
        <ele>1294</ele>
        <time>2026-08-19T11:08:40.344Z</time>
      </trkpt>
      <trkpt lat="45.92409" lon="6.37571">
        <ele>1294</ele>
        <time>2026-08-19T11:08:41.345Z</time>
      </trkpt>
      <trkpt lat="45.92409" lon="6.3757">
        <ele>1294</ele>
        <time>2026-08-19T11:08:42.344Z</time>
      </trkpt>
      <trkpt lat="45.92409" lon="6.37569">
        <ele>1294</ele>
        <time>2026-08-19T11:08:43.344Z</time>
      </trkpt>
      <trkpt lat="45.92409" lon="6.37568">
        <ele>1294</ele>
        <time>2026-08-19T11:08:44.344Z</time>
      </trkpt>
      <trkpt lat="45.92409" lon="6.37568">
        <ele>1295</ele>
        <time>2026-08-19T11:08:45.344Z</time>
      </trkpt>
      <trkpt lat="45.92409" lon="6.37569">
        <ele>1295</ele>
        <time>2026-08-19T11:08:46.344Z</time>
      </trkpt>
      <trkpt lat="45.92409" lon="6.37568">
        <ele>1295</ele>
        <time>2026-08-19T11:08:47.344Z</time>
      </trkpt>
      <trkpt lat="45.92409" lon="6.37568">
        <ele>1295</ele>
        <time>2026-08-19T11:08:48.344Z</time>
      </trkpt>
      <trkpt lat="45.92409" lon="6.37567">
        <ele>1296</ele>
        <time>2026-08-19T11:08:49.344Z</time>
      </trkpt>
      <trkpt lat="45.9241" lon="6.37566">
        <ele>1296</ele>
        <time>2026-08-19T11:08:50.344Z</time>
      </trkpt>
      <trkpt lat="45.9241" lon="6.37565">
        <ele>1296</ele>
        <time>2026-08-19T11:08:51.344Z</time>
      </trkpt>
      <trkpt lat="45.92411" lon="6.37564">
        <ele>1296</ele>
        <time>2026-08-19T11:08:52.344Z</time>
      </trkpt>
      <trkpt lat="45.92411" lon="6.37563">
        <ele>1296</ele>
        <time>2026-08-19T11:08:53.345Z</time>
      </trkpt>
      <trkpt lat="45.92411" lon="6.37562">
        <ele>1296</ele>
        <time>2026-08-19T11:08:54.344Z</time>
      </trkpt>
      <trkpt lat="45.92412" lon="6.37562">
        <ele>1296</ele>
        <time>2026-08-19T11:08:55.344Z</time>
      </trkpt>
      <trkpt lat="45.92412" lon="6.37561">
        <ele>1296</ele>
        <time>2026-08-19T11:08:56.344Z</time>
      </trkpt>
      <trkpt lat="45.92412" lon="6.37561">
        <ele>1296</ele>
        <time>2026-08-19T11:08:57.344Z</time>
      </trkpt>
      <trkpt lat="45.92412" lon="6.37561">
        <ele>1297</ele>
        <time>2026-08-19T11:08:58.344Z</time>
      </trkpt>
      <trkpt lat="45.92413" lon="6.3756">
        <ele>1297</ele>
        <time>2026-08-19T11:08:59.344Z</time>
      </trkpt>
      <trkpt lat="45.92413" lon="6.37559">
        <ele>1298</ele>
        <time>2026-08-19T11:09:00.344Z</time>
      </trkpt>
      <trkpt lat="45.92414" lon="6.37557">
        <ele>1299</ele>
        <time>2026-08-19T11:09:01.344Z</time>
      </trkpt>
      <trkpt lat="45.92414" lon="6.37556">
        <ele>1299</ele>
        <time>2026-08-19T11:09:02.344Z</time>
      </trkpt>
      <trkpt lat="45.92414" lon="6.37555">
        <ele>1300</ele>
        <time>2026-08-19T11:09:03.344Z</time>
      </trkpt>
      <trkpt lat="45.92415" lon="6.37553">
        <ele>1300</ele>
        <time>2026-08-19T11:09:04.344Z</time>
      </trkpt>
      <trkpt lat="45.92415" lon="6.37552">
        <ele>1301</ele>
        <time>2026-08-19T11:09:05.344Z</time>
      </trkpt>
      <trkpt lat="45.92415" lon="6.37551">
        <ele>1302</ele>
        <time>2026-08-19T11:09:06.344Z</time>
      </trkpt>
      <trkpt lat="45.92415" lon="6.37551">
        <ele>1302</ele>
        <time>2026-08-19T11:09:07.344Z</time>
      </trkpt>
      <trkpt lat="45.92415" lon="6.37549">
        <ele>1303</ele>
        <time>2026-08-19T11:09:08.344Z</time>
      </trkpt>
      <trkpt lat="45.92416" lon="6.37548">
        <ele>1303</ele>
        <time>2026-08-19T11:09:09.344Z</time>
      </trkpt>
      <trkpt lat="45.92417" lon="6.37547">
        <ele>1304</ele>
        <time>2026-08-19T11:09:10.344Z</time>
      </trkpt>
      <trkpt lat="45.92418" lon="6.37546">
        <ele>1304</ele>
        <time>2026-08-19T11:09:11.344Z</time>
      </trkpt>
      <trkpt lat="45.92418" lon="6.37544">
        <ele>1304</ele>
        <time>2026-08-19T11:09:12.344Z</time>
      </trkpt>
      <trkpt lat="45.92418" lon="6.37543">
        <ele>1305</ele>
        <time>2026-08-19T11:09:13.344Z</time>
      </trkpt>
      <trkpt lat="45.92418" lon="6.37542">
        <ele>1305</ele>
        <time>2026-08-19T11:09:14.344Z</time>
      </trkpt>
      <trkpt lat="45.92418" lon="6.37541">
        <ele>1305</ele>
        <time>2026-08-19T11:09:15.344Z</time>
      </trkpt>
      <trkpt lat="45.92419" lon="6.3754">
        <ele>1305</ele>
        <time>2026-08-19T11:09:16.344Z</time>
      </trkpt>
      <trkpt lat="45.9242" lon="6.37539">
        <ele>1305</ele>
        <time>2026-08-19T11:09:17.344Z</time>
      </trkpt>
      <trkpt lat="45.9242" lon="6.37539">
        <ele>1305</ele>
        <time>2026-08-19T11:09:18.344Z</time>
      </trkpt>
      <trkpt lat="45.92421" lon="6.37538">
        <ele>1305</ele>
        <time>2026-08-19T11:09:19.344Z</time>
      </trkpt>
      <trkpt lat="45.92422" lon="6.37538">
        <ele>1306</ele>
        <time>2026-08-19T11:09:20.344Z</time>
      </trkpt>
      <trkpt lat="45.92422" lon="6.37538">
        <ele>1306</ele>
        <time>2026-08-19T11:09:21.344Z</time>
      </trkpt>
      <trkpt lat="45.92423" lon="6.37538">
        <ele>1306</ele>
        <time>2026-08-19T11:09:22.344Z</time>
      </trkpt>
      <trkpt lat="45.92423" lon="6.37538">
        <ele>1306</ele>
        <time>2026-08-19T11:09:23.344Z</time>
      </trkpt>
      <trkpt lat="45.92424" lon="6.37537">
        <ele>1306</ele>
        <time>2026-08-19T11:09:24.344Z</time>
      </trkpt>
      <trkpt lat="45.92424" lon="6.37537">
        <ele>1306</ele>
        <time>2026-08-19T11:09:25.344Z</time>
      </trkpt>
      <trkpt lat="45.92424" lon="6.37537">
        <ele>1306</ele>
        <time>2026-08-19T11:09:26.344Z</time>
      </trkpt>
      <trkpt lat="45.92424" lon="6.37537">
        <ele>1306</ele>
        <time>2026-08-19T11:09:27.344Z</time>
      </trkpt>
      <trkpt lat="45.92424" lon="6.37536">
        <ele>1306</ele>
        <time>2026-08-19T11:09:28.344Z</time>
      </trkpt>
      <trkpt lat="45.92425" lon="6.37536">
        <ele>1306</ele>
        <time>2026-08-19T11:09:29.344Z</time>
      </trkpt>
      <trkpt lat="45.92425" lon="6.37535">
        <ele>1306</ele>
        <time>2026-08-19T11:09:30.344Z</time>
      </trkpt>
      <trkpt lat="45.92425" lon="6.37535">
        <ele>1307</ele>
        <time>2026-08-19T11:09:31.344Z</time>
      </trkpt>
      <trkpt lat="45.92425" lon="6.37535">
        <ele>1307</ele>
        <time>2026-08-19T11:09:32.344Z</time>
      </trkpt>
      <trkpt lat="45.92425" lon="6.37534">
        <ele>1307</ele>
        <time>2026-08-19T11:09:33.344Z</time>
      </trkpt>
      <trkpt lat="45.92425" lon="6.37533">
        <ele>1307</ele>
        <time>2026-08-19T11:09:34.344Z</time>
      </trkpt>
      <trkpt lat="45.92426" lon="6.37532">
        <ele>1307</ele>
        <time>2026-08-19T11:09:35.344Z</time>
      </trkpt>
      <trkpt lat="45.92427" lon="6.37532">
        <ele>1308</ele>
        <time>2026-08-19T11:09:36.344Z</time>
      </trkpt>
      <trkpt lat="45.92427" lon="6.37531">
        <ele>1308</ele>
        <time>2026-08-19T11:09:37.344Z</time>
      </trkpt>
      <trkpt lat="45.92427" lon="6.3753">
        <ele>1308</ele>
        <time>2026-08-19T11:09:38.344Z</time>
      </trkpt>
      <trkpt lat="45.92428" lon="6.37529">
        <ele>1309</ele>
        <time>2026-08-19T11:09:39.344Z</time>
      </trkpt>
      <trkpt lat="45.92429" lon="6.37528">
        <ele>1310</ele>
        <time>2026-08-19T11:09:40.344Z</time>
      </trkpt>
      <trkpt lat="45.92429" lon="6.37528">
        <ele>1311</ele>
        <time>2026-08-19T11:09:41.344Z</time>
      </trkpt>
      <trkpt lat="45.9243" lon="6.37526">
        <ele>1312</ele>
        <time>2026-08-19T11:09:42.344Z</time>
      </trkpt>
      <trkpt lat="45.92431" lon="6.37526">
        <ele>1312</ele>
        <time>2026-08-19T11:09:43.344Z</time>
      </trkpt>
      <trkpt lat="45.92432" lon="6.37525">
        <ele>1313</ele>
        <time>2026-08-19T11:09:44.344Z</time>
      </trkpt>
      <trkpt lat="45.92432" lon="6.37525">
        <ele>1314</ele>
        <time>2026-08-19T11:09:45.344Z</time>
      </trkpt>
      <trkpt lat="45.92433" lon="6.37524">
        <ele>1314</ele>
        <time>2026-08-19T11:09:46.344Z</time>
      </trkpt>
      <trkpt lat="45.92433" lon="6.37523">
        <ele>1315</ele>
        <time>2026-08-19T11:09:47.344Z</time>
      </trkpt>
      <trkpt lat="45.92434" lon="6.37521">
        <ele>1316</ele>
        <time>2026-08-19T11:09:48.344Z</time>
      </trkpt>
      <trkpt lat="45.92434" lon="6.3752">
        <ele>1316</ele>
        <time>2026-08-19T11:09:49.344Z</time>
      </trkpt>
      <trkpt lat="45.92435" lon="6.37519">
        <ele>1317</ele>
        <time>2026-08-19T11:09:50.345Z</time>
      </trkpt>
      <trkpt lat="45.92435" lon="6.37519">
        <ele>1317</ele>
        <time>2026-08-19T11:09:51.344Z</time>
      </trkpt>
      <trkpt lat="45.92436" lon="6.3752">
        <ele>1317</ele>
        <time>2026-08-19T11:09:52.344Z</time>
      </trkpt>
      <trkpt lat="45.92436" lon="6.3752">
        <ele>1318</ele>
        <time>2026-08-19T11:09:53.344Z</time>
      </trkpt>
      <trkpt lat="45.92437" lon="6.3752">
        <ele>1318</ele>
        <time>2026-08-19T11:09:54.344Z</time>
      </trkpt>
      <trkpt lat="45.92437" lon="6.37521">
        <ele>1318</ele>
        <time>2026-08-19T11:09:55.344Z</time>
      </trkpt>
      <trkpt lat="45.92437" lon="6.37521">
        <ele>1319</ele>
        <time>2026-08-19T11:09:56.344Z</time>
      </trkpt>
      <trkpt lat="45.92437" lon="6.3752">
        <ele>1319</ele>
        <time>2026-08-19T11:09:57.344Z</time>
      </trkpt>
      <trkpt lat="45.92438" lon="6.37519">
        <ele>1319</ele>
        <time>2026-08-19T11:09:58.344Z</time>
      </trkpt>
      <trkpt lat="45.92438" lon="6.37518">
        <ele>1319</ele>
        <time>2026-08-19T11:09:59.344Z</time>
      </trkpt>
      <trkpt lat="45.92439" lon="6.37517">
        <ele>1319</ele>
        <time>2026-08-19T11:10:00.344Z</time>
      </trkpt>
      <trkpt lat="45.92439" lon="6.37516">
        <ele>1319</ele>
        <time>2026-08-19T11:10:01.344Z</time>
      </trkpt>
      <trkpt lat="45.92439" lon="6.37514">
        <ele>1319</ele>
        <time>2026-08-19T11:10:02.344Z</time>
      </trkpt>
      <trkpt lat="45.92439" lon="6.37512">
        <ele>1319</ele>
        <time>2026-08-19T11:10:03.344Z</time>
      </trkpt>
      <trkpt lat="45.9244" lon="6.3751">
        <ele>1319</ele>
        <time>2026-08-19T11:10:04.344Z</time>
      </trkpt>
      <trkpt lat="45.9244" lon="6.37509">
        <ele>1320</ele>
        <time>2026-08-19T11:10:05.345Z</time>
      </trkpt>
      <trkpt lat="45.9244" lon="6.37508">
        <ele>1320</ele>
        <time>2026-08-19T11:10:06.344Z</time>
      </trkpt>
      <trkpt lat="45.9244" lon="6.37506">
        <ele>1321</ele>
        <time>2026-08-19T11:10:07.344Z</time>
      </trkpt>
      <trkpt lat="45.9244" lon="6.37504">
        <ele>1321</ele>
        <time>2026-08-19T11:10:08.344Z</time>
      </trkpt>
      <trkpt lat="45.9244" lon="6.37503">
        <ele>1322</ele>
        <time>2026-08-19T11:10:09.344Z</time>
      </trkpt>
      <trkpt lat="45.9244" lon="6.37502">
        <ele>1322</ele>
        <time>2026-08-19T11:10:10.344Z</time>
      </trkpt>
      <trkpt lat="45.9244" lon="6.375">
        <ele>1323</ele>
        <time>2026-08-19T11:10:11.344Z</time>
      </trkpt>
      <trkpt lat="45.92441" lon="6.37499">
        <ele>1323</ele>
        <time>2026-08-19T11:10:12.344Z</time>
      </trkpt>
      <trkpt lat="45.92441" lon="6.37498">
        <ele>1324</ele>
        <time>2026-08-19T11:10:13.344Z</time>
      </trkpt>
      <trkpt lat="45.92441" lon="6.37497">
        <ele>1324</ele>
        <time>2026-08-19T11:10:14.344Z</time>
      </trkpt>
      <trkpt lat="45.92441" lon="6.37496">
        <ele>1325</ele>
        <time>2026-08-19T11:10:15.344Z</time>
      </trkpt>
      <trkpt lat="45.92441" lon="6.37495">
        <ele>1325</ele>
        <time>2026-08-19T11:10:16.344Z</time>
      </trkpt>
      <trkpt lat="45.92441" lon="6.37494">
        <ele>1326</ele>
        <time>2026-08-19T11:10:17.344Z</time>
      </trkpt>
      <trkpt lat="45.92441" lon="6.37494">
        <ele>1327</ele>
        <time>2026-08-19T11:10:18.344Z</time>
      </trkpt>
      <trkpt lat="45.92441" lon="6.37493">
        <ele>1327</ele>
        <time>2026-08-19T11:10:19.344Z</time>
      </trkpt>
      <trkpt lat="45.92441" lon="6.37493">
        <ele>1327</ele>
        <time>2026-08-19T11:10:20.344Z</time>
      </trkpt>
      <trkpt lat="45.92442" lon="6.37492">
        <ele>1328</ele>
        <time>2026-08-19T11:10:21.344Z</time>
      </trkpt>
      <trkpt lat="45.92442" lon="6.3749">
        <ele>1328</ele>
        <time>2026-08-19T11:10:22.344Z</time>
      </trkpt>
      <trkpt lat="45.92441" lon="6.37488">
        <ele>1328</ele>
        <time>2026-08-19T11:10:23.344Z</time>
      </trkpt>
      <trkpt lat="45.92441" lon="6.37487">
        <ele>1328</ele>
        <time>2026-08-19T11:10:24.344Z</time>
      </trkpt>
      <trkpt lat="45.9244" lon="6.37485">
        <ele>1329</ele>
        <time>2026-08-19T11:10:25.344Z</time>
      </trkpt>
      <trkpt lat="45.9244" lon="6.37483">
        <ele>1329</ele>
        <time>2026-08-19T11:10:26.344Z</time>
      </trkpt>
      <trkpt lat="45.9244" lon="6.3748">
        <ele>1330</ele>
        <time>2026-08-19T11:10:27.344Z</time>
      </trkpt>
      <trkpt lat="45.9244" lon="6.37479">
        <ele>1330</ele>
        <time>2026-08-19T11:10:28.344Z</time>
      </trkpt>
      <trkpt lat="45.92439" lon="6.37477">
        <ele>1331</ele>
        <time>2026-08-19T11:10:29.344Z</time>
      </trkpt>
      <trkpt lat="45.9244" lon="6.37477">
        <ele>1331</ele>
        <time>2026-08-19T11:10:30.344Z</time>
      </trkpt>
      <trkpt lat="45.9244" lon="6.37476">
        <ele>1331</ele>
        <time>2026-08-19T11:10:31.344Z</time>
      </trkpt>
      <trkpt lat="45.9244" lon="6.37476">
        <ele>1331</ele>
        <time>2026-08-19T11:10:32.344Z</time>
      </trkpt>
      <trkpt lat="45.92441" lon="6.37475">
        <ele>1332</ele>
        <time>2026-08-19T11:10:33.344Z</time>
      </trkpt>
      <trkpt lat="45.92441" lon="6.37474">
        <ele>1332</ele>
        <time>2026-08-19T11:10:34.344Z</time>
      </trkpt>
      <trkpt lat="45.92441" lon="6.37474">
        <ele>1332</ele>
        <time>2026-08-19T11:10:35.344Z</time>
      </trkpt>
      <trkpt lat="45.92442" lon="6.37474">
        <ele>1332</ele>
        <time>2026-08-19T11:10:36.344Z</time>
      </trkpt>
      <trkpt lat="45.92442" lon="6.37474">
        <ele>1332</ele>
        <time>2026-08-19T11:10:37.344Z</time>
      </trkpt>
      <trkpt lat="45.92442" lon="6.37474">
        <ele>1332</ele>
        <time>2026-08-19T11:10:38.344Z</time>
      </trkpt>
      <trkpt lat="45.92443" lon="6.37473">
        <ele>1333</ele>
        <time>2026-08-19T11:10:39.344Z</time>
      </trkpt>
      <trkpt lat="45.92443" lon="6.37473">
        <ele>1333</ele>
        <time>2026-08-19T11:10:40.344Z</time>
      </trkpt>
      <trkpt lat="45.92444" lon="6.37473">
        <ele>1334</ele>
        <time>2026-08-19T11:10:41.344Z</time>
      </trkpt>
      <trkpt lat="45.92444" lon="6.37472">
        <ele>1334</ele>
        <time>2026-08-19T11:10:42.345Z</time>
      </trkpt>
      <trkpt lat="45.92444" lon="6.37472">
        <ele>1334</ele>
        <time>2026-08-19T11:10:43.344Z</time>
      </trkpt>
      <trkpt lat="45.92444" lon="6.37471">
        <ele>1335</ele>
        <time>2026-08-19T11:10:44.344Z</time>
      </trkpt>
      <trkpt lat="45.92444" lon="6.3747">
        <ele>1335</ele>
        <time>2026-08-19T11:10:45.344Z</time>
      </trkpt>
      <trkpt lat="45.92444" lon="6.3747">
        <ele>1335</ele>
        <time>2026-08-19T11:10:46.344Z</time>
      </trkpt>
      <trkpt lat="45.92444" lon="6.3747">
        <ele>1335</ele>
        <time>2026-08-19T11:10:47.344Z</time>
      </trkpt>
      <trkpt lat="45.92444" lon="6.37469">
        <ele>1334</ele>
        <time>2026-08-19T11:10:48.344Z</time>
      </trkpt>
      <trkpt lat="45.92445" lon="6.37469">
        <ele>1334</ele>
        <time>2026-08-19T11:10:49.344Z</time>
      </trkpt>
      <trkpt lat="45.92445" lon="6.37468">
        <ele>1334</ele>
        <time>2026-08-19T11:10:50.344Z</time>
      </trkpt>
      <trkpt lat="45.92444" lon="6.37466">
        <ele>1334</ele>
        <time>2026-08-19T11:10:51.344Z</time>
      </trkpt>
      <trkpt lat="45.92444" lon="6.37465">
        <ele>1334</ele>
        <time>2026-08-19T11:10:52.344Z</time>
      </trkpt>
      <trkpt lat="45.92444" lon="6.37463">
        <ele>1334</ele>
        <time>2026-08-19T11:10:53.344Z</time>
      </trkpt>
      <trkpt lat="45.92444" lon="6.37462">
        <ele>1334</ele>
        <time>2026-08-19T11:10:54.344Z</time>
      </trkpt>
      <trkpt lat="45.92444" lon="6.3746">
        <ele>1335</ele>
        <time>2026-08-19T11:10:55.344Z</time>
      </trkpt>
      <trkpt lat="45.92444" lon="6.37459">
        <ele>1335</ele>
        <time>2026-08-19T11:10:56.344Z</time>
      </trkpt>
      <trkpt lat="45.92444" lon="6.37459">
        <ele>1335</ele>
        <time>2026-08-19T11:10:57.344Z</time>
      </trkpt>
      <trkpt lat="45.92443" lon="6.37459">
        <ele>1336</ele>
        <time>2026-08-19T11:10:58.344Z</time>
      </trkpt>
      <trkpt lat="45.92443" lon="6.37459">
        <ele>1336</ele>
        <time>2026-08-19T11:10:59.344Z</time>
      </trkpt>
      <trkpt lat="45.92443" lon="6.3746">
        <ele>1336</ele>
        <time>2026-08-19T11:11:00.344Z</time>
      </trkpt>
      <trkpt lat="45.92443" lon="6.37458">
        <ele>1336</ele>
        <time>2026-08-19T11:11:01.344Z</time>
      </trkpt>
      <trkpt lat="45.92443" lon="6.37457">
        <ele>1337</ele>
        <time>2026-08-19T11:11:02.344Z</time>
      </trkpt>
      <trkpt lat="45.92444" lon="6.37456">
        <ele>1337</ele>
        <time>2026-08-19T11:11:03.344Z</time>
      </trkpt>
      <trkpt lat="45.92444" lon="6.37455">
        <ele>1337</ele>
        <time>2026-08-19T11:11:04.344Z</time>
      </trkpt>
      <trkpt lat="45.92444" lon="6.37455">
        <ele>1337</ele>
        <time>2026-08-19T11:11:05.344Z</time>
      </trkpt>
      <trkpt lat="45.92445" lon="6.37454">
        <ele>1337</ele>
        <time>2026-08-19T11:11:06.344Z</time>
      </trkpt>
      <trkpt lat="45.92445" lon="6.37453">
        <ele>1338</ele>
        <time>2026-08-19T11:11:07.344Z</time>
      </trkpt>
      <trkpt lat="45.92445" lon="6.37453">
        <ele>1338</ele>
        <time>2026-08-19T11:11:08.344Z</time>
      </trkpt>
      <trkpt lat="45.92445" lon="6.37452">
        <ele>1338</ele>
        <time>2026-08-19T11:11:09.344Z</time>
      </trkpt>
      <trkpt lat="45.92446" lon="6.37451">
        <ele>1338</ele>
        <time>2026-08-19T11:11:10.344Z</time>
      </trkpt>
      <trkpt lat="45.92446" lon="6.37451">
        <ele>1337</ele>
        <time>2026-08-19T11:11:11.344Z</time>
      </trkpt>
      <trkpt lat="45.92447" lon="6.3745">
        <ele>1337</ele>
        <time>2026-08-19T11:11:12.344Z</time>
      </trkpt>
      <trkpt lat="45.92448" lon="6.37449">
        <ele>1337</ele>
        <time>2026-08-19T11:11:13.344Z</time>
      </trkpt>
      <trkpt lat="45.92449" lon="6.37448">
        <ele>1336</ele>
        <time>2026-08-19T11:11:14.344Z</time>
      </trkpt>
      <trkpt lat="45.92449" lon="6.37446">
        <ele>1336</ele>
        <time>2026-08-19T11:11:15.344Z</time>
      </trkpt>
      <trkpt lat="45.92449" lon="6.37444">
        <ele>1336</ele>
        <time>2026-08-19T11:11:16.344Z</time>
      </trkpt>
      <trkpt lat="45.92449" lon="6.37442">
        <ele>1336</ele>
        <time>2026-08-19T11:11:17.344Z</time>
      </trkpt>
      <trkpt lat="45.92449" lon="6.37441">
        <ele>1335</ele>
        <time>2026-08-19T11:11:18.344Z</time>
      </trkpt>
      <trkpt lat="45.9245" lon="6.3744">
        <ele>1335</ele>
        <time>2026-08-19T11:11:19.344Z</time>
      </trkpt>
      <trkpt lat="45.9245" lon="6.37438">
        <ele>1335</ele>
        <time>2026-08-19T11:11:20.344Z</time>
      </trkpt>
      <trkpt lat="45.9245" lon="6.37437">
        <ele>1335</ele>
        <time>2026-08-19T11:11:21.344Z</time>
      </trkpt>
      <trkpt lat="45.92451" lon="6.37435">
        <ele>1335</ele>
        <time>2026-08-19T11:11:22.344Z</time>
      </trkpt>
      <trkpt lat="45.92451" lon="6.37434">
        <ele>1335</ele>
        <time>2026-08-19T11:11:23.344Z</time>
      </trkpt>
      <trkpt lat="45.9245" lon="6.37432">
        <ele>1335</ele>
        <time>2026-08-19T11:11:24.344Z</time>
      </trkpt>
      <trkpt lat="45.9245" lon="6.3743">
        <ele>1335</ele>
        <time>2026-08-19T11:11:25.344Z</time>
      </trkpt>
      <trkpt lat="45.92449" lon="6.37428">
        <ele>1335</ele>
        <time>2026-08-19T11:11:26.344Z</time>
      </trkpt>
      <trkpt lat="45.92449" lon="6.37426">
        <ele>1335</ele>
        <time>2026-08-19T11:11:27.344Z</time>
      </trkpt>
      <trkpt lat="45.92449" lon="6.37424">
        <ele>1335</ele>
        <time>2026-08-19T11:11:28.344Z</time>
      </trkpt>
      <trkpt lat="45.9245" lon="6.37423">
        <ele>1336</ele>
        <time>2026-08-19T11:11:29.344Z</time>
      </trkpt>
      <trkpt lat="45.9245" lon="6.37422">
        <ele>1336</ele>
        <time>2026-08-19T11:11:30.344Z</time>
      </trkpt>
      <trkpt lat="45.9245" lon="6.3742">
        <ele>1337</ele>
        <time>2026-08-19T11:11:31.344Z</time>
      </trkpt>
      <trkpt lat="45.92449" lon="6.37419">
        <ele>1337</ele>
        <time>2026-08-19T11:11:32.344Z</time>
      </trkpt>
      <trkpt lat="45.92449" lon="6.37417">
        <ele>1338</ele>
        <time>2026-08-19T11:11:33.344Z</time>
      </trkpt>
      <trkpt lat="45.92449" lon="6.37416">
        <ele>1339</ele>
        <time>2026-08-19T11:11:34.344Z</time>
      </trkpt>
      <trkpt lat="45.92449" lon="6.37414">
        <ele>1339</ele>
        <time>2026-08-19T11:11:35.344Z</time>
      </trkpt>
      <trkpt lat="45.92449" lon="6.37412">
        <ele>1340</ele>
        <time>2026-08-19T11:11:36.344Z</time>
      </trkpt>
      <trkpt lat="45.92448" lon="6.3741">
        <ele>1341</ele>
        <time>2026-08-19T11:11:37.344Z</time>
      </trkpt>
      <trkpt lat="45.92448" lon="6.37409">
        <ele>1341</ele>
        <time>2026-08-19T11:11:38.344Z</time>
      </trkpt>
      <trkpt lat="45.92448" lon="6.37409">
        <ele>1342</ele>
        <time>2026-08-19T11:11:39.344Z</time>
      </trkpt>
      <trkpt lat="45.92448" lon="6.37408">
        <ele>1342</ele>
        <time>2026-08-19T11:11:40.344Z</time>
      </trkpt>
      <trkpt lat="45.92449" lon="6.37407">
        <ele>1342</ele>
        <time>2026-08-19T11:11:41.344Z</time>
      </trkpt>
      <trkpt lat="45.92449" lon="6.37406">
        <ele>1343</ele>
        <time>2026-08-19T11:11:42.344Z</time>
      </trkpt>
      <trkpt lat="45.9245" lon="6.37405">
        <ele>1343</ele>
        <time>2026-08-19T11:11:43.344Z</time>
      </trkpt>
      <trkpt lat="45.9245" lon="6.37403">
        <ele>1344</ele>
        <time>2026-08-19T11:11:44.344Z</time>
      </trkpt>
      <trkpt lat="45.92451" lon="6.37402">
        <ele>1344</ele>
        <time>2026-08-19T11:11:45.344Z</time>
      </trkpt>
      <trkpt lat="45.92451" lon="6.374">
        <ele>1345</ele>
        <time>2026-08-19T11:11:46.344Z</time>
      </trkpt>
      <trkpt lat="45.92451" lon="6.37399">
        <ele>1345</ele>
        <time>2026-08-19T11:11:47.344Z</time>
      </trkpt>
      <trkpt lat="45.92451" lon="6.37398">
        <ele>1346</ele>
        <time>2026-08-19T11:11:48.344Z</time>
      </trkpt>
      <trkpt lat="45.92452" lon="6.37397">
        <ele>1346</ele>
        <time>2026-08-19T11:11:49.344Z</time>
      </trkpt>
      <trkpt lat="45.92453" lon="6.37396">
        <ele>1346</ele>
        <time>2026-08-19T11:11:50.344Z</time>
      </trkpt>
      <trkpt lat="45.92454" lon="6.37395">
        <ele>1346</ele>
        <time>2026-08-19T11:11:51.344Z</time>
      </trkpt>
      <trkpt lat="45.92455" lon="6.37394">
        <ele>1346</ele>
        <time>2026-08-19T11:11:52.345Z</time>
      </trkpt>
      <trkpt lat="45.92455" lon="6.37393">
        <ele>1346</ele>
        <time>2026-08-19T11:11:53.344Z</time>
      </trkpt>
      <trkpt lat="45.92455" lon="6.37392">
        <ele>1345</ele>
        <time>2026-08-19T11:11:54.344Z</time>
      </trkpt>
      <trkpt lat="45.92455" lon="6.37391">
        <ele>1345</ele>
        <time>2026-08-19T11:11:55.344Z</time>
      </trkpt>
      <trkpt lat="45.92456" lon="6.3739">
        <ele>1345</ele>
        <time>2026-08-19T11:11:56.344Z</time>
      </trkpt>
      <trkpt lat="45.92456" lon="6.3739">
        <ele>1345</ele>
        <time>2026-08-19T11:11:57.344Z</time>
      </trkpt>
      <trkpt lat="45.92457" lon="6.37389">
        <ele>1344</ele>
        <time>2026-08-19T11:11:58.344Z</time>
      </trkpt>
      <trkpt lat="45.92459" lon="6.37388">
        <ele>1344</ele>
        <time>2026-08-19T11:11:59.344Z</time>
      </trkpt>
      <trkpt lat="45.92459" lon="6.37388">
        <ele>1344</ele>
        <time>2026-08-19T11:12:00.344Z</time>
      </trkpt>
      <trkpt lat="45.9246" lon="6.37387">
        <ele>1344</ele>
        <time>2026-08-19T11:12:01.344Z</time>
      </trkpt>
      <trkpt lat="45.92461" lon="6.37387">
        <ele>1344</ele>
        <time>2026-08-19T11:12:02.344Z</time>
      </trkpt>
      <trkpt lat="45.92462" lon="6.37386">
        <ele>1344</ele>
        <time>2026-08-19T11:12:03.344Z</time>
      </trkpt>
      <trkpt lat="45.92463" lon="6.37385">
        <ele>1344</ele>
        <time>2026-08-19T11:12:04.344Z</time>
      </trkpt>
      <trkpt lat="45.92464" lon="6.37384">
        <ele>1344</ele>
        <time>2026-08-19T11:12:05.344Z</time>
      </trkpt>
      <trkpt lat="45.92465" lon="6.37384">
        <ele>1345</ele>
        <time>2026-08-19T11:12:06.345Z</time>
      </trkpt>
      <trkpt lat="45.92465" lon="6.37383">
        <ele>1345</ele>
        <time>2026-08-19T11:12:07.344Z</time>
      </trkpt>
      <trkpt lat="45.92465" lon="6.37383">
        <ele>1345</ele>
        <time>2026-08-19T11:12:08.344Z</time>
      </trkpt>
      <trkpt lat="45.92466" lon="6.37382">
        <ele>1345</ele>
        <time>2026-08-19T11:12:09.344Z</time>
      </trkpt>
      <trkpt lat="45.92466" lon="6.37381">
        <ele>1346</ele>
        <time>2026-08-19T11:12:10.344Z</time>
      </trkpt>
      <trkpt lat="45.92467" lon="6.3738">
        <ele>1346</ele>
        <time>2026-08-19T11:12:11.344Z</time>
      </trkpt>
      <trkpt lat="45.92467" lon="6.37379">
        <ele>1346</ele>
        <time>2026-08-19T11:12:12.344Z</time>
      </trkpt>
      <trkpt lat="45.92468" lon="6.37378">
        <ele>1346</ele>
        <time>2026-08-19T11:12:13.344Z</time>
      </trkpt>
      <trkpt lat="45.92468" lon="6.37377">
        <ele>1346</ele>
        <time>2026-08-19T11:12:14.344Z</time>
      </trkpt>
      <trkpt lat="45.92468" lon="6.37377">
        <ele>1346</ele>
        <time>2026-08-19T11:12:15.344Z</time>
      </trkpt>
      <trkpt lat="45.92468" lon="6.37376">
        <ele>1346</ele>
        <time>2026-08-19T11:12:16.344Z</time>
      </trkpt>
      <trkpt lat="45.92469" lon="6.37375">
        <ele>1346</ele>
        <time>2026-08-19T11:12:17.344Z</time>
      </trkpt>
      <trkpt lat="45.92469" lon="6.37374">
        <ele>1346</ele>
        <time>2026-08-19T11:12:18.344Z</time>
      </trkpt>
      <trkpt lat="45.92469" lon="6.37371">
        <ele>1347</ele>
        <time>2026-08-19T11:12:19.344Z</time>
      </trkpt>
      <trkpt lat="45.92469" lon="6.37369">
        <ele>1347</ele>
        <time>2026-08-19T11:12:20.345Z</time>
      </trkpt>
      <trkpt lat="45.92469" lon="6.37367">
        <ele>1348</ele>
        <time>2026-08-19T11:12:21.344Z</time>
      </trkpt>
      <trkpt lat="45.92469" lon="6.37364">
        <ele>1348</ele>
        <time>2026-08-19T11:12:22.344Z</time>
      </trkpt>
      <trkpt lat="45.92468" lon="6.37362">
        <ele>1349</ele>
        <time>2026-08-19T11:12:23.344Z</time>
      </trkpt>
      <trkpt lat="45.92468" lon="6.3736">
        <ele>1349</ele>
        <time>2026-08-19T11:12:24.344Z</time>
      </trkpt>
      <trkpt lat="45.92468" lon="6.37357">
        <ele>1350</ele>
        <time>2026-08-19T11:12:25.344Z</time>
      </trkpt>
      <trkpt lat="45.92468" lon="6.37355">
        <ele>1350</ele>
        <time>2026-08-19T11:12:26.344Z</time>
      </trkpt>
      <trkpt lat="45.92467" lon="6.37353">
        <ele>1351</ele>
        <time>2026-08-19T11:12:27.344Z</time>
      </trkpt>
      <trkpt lat="45.92467" lon="6.37351">
        <ele>1351</ele>
        <time>2026-08-19T11:12:28.344Z</time>
      </trkpt>
      <trkpt lat="45.92467" lon="6.37349">
        <ele>1352</ele>
        <time>2026-08-19T11:12:29.344Z</time>
      </trkpt>
      <trkpt lat="45.92467" lon="6.37347">
        <ele>1352</ele>
        <time>2026-08-19T11:12:30.344Z</time>
      </trkpt>
      <trkpt lat="45.92467" lon="6.37346">
        <ele>1352</ele>
        <time>2026-08-19T11:12:31.344Z</time>
      </trkpt>
      <trkpt lat="45.92467" lon="6.37345">
        <ele>1352</ele>
        <time>2026-08-19T11:12:32.344Z</time>
      </trkpt>
      <trkpt lat="45.92467" lon="6.37344">
        <ele>1353</ele>
        <time>2026-08-19T11:12:33.344Z</time>
      </trkpt>
      <trkpt lat="45.92467" lon="6.37343">
        <ele>1353</ele>
        <time>2026-08-19T11:12:34.344Z</time>
      </trkpt>
      <trkpt lat="45.92468" lon="6.37342">
        <ele>1353</ele>
        <time>2026-08-19T11:12:35.344Z</time>
      </trkpt>
      <trkpt lat="45.92469" lon="6.3734">
        <ele>1353</ele>
        <time>2026-08-19T11:12:36.344Z</time>
      </trkpt>
      <trkpt lat="45.92469" lon="6.37339">
        <ele>1353</ele>
        <time>2026-08-19T11:12:37.344Z</time>
      </trkpt>
      <trkpt lat="45.9247" lon="6.37339">
        <ele>1353</ele>
        <time>2026-08-19T11:12:38.344Z</time>
      </trkpt>
      <trkpt lat="45.9247" lon="6.37338">
        <ele>1354</ele>
        <time>2026-08-19T11:12:39.344Z</time>
      </trkpt>
      <trkpt lat="45.92471" lon="6.37337">
        <ele>1354</ele>
        <time>2026-08-19T11:12:40.344Z</time>
      </trkpt>
      <trkpt lat="45.9247" lon="6.37336">
        <ele>1354</ele>
        <time>2026-08-19T11:12:41.344Z</time>
      </trkpt>
      <trkpt lat="45.92471" lon="6.37334">
        <ele>1355</ele>
        <time>2026-08-19T11:12:42.344Z</time>
      </trkpt>
      <trkpt lat="45.92471" lon="6.37332">
        <ele>1355</ele>
        <time>2026-08-19T11:12:43.344Z</time>
      </trkpt>
      <trkpt lat="45.92471" lon="6.37331">
        <ele>1355</ele>
        <time>2026-08-19T11:12:44.344Z</time>
      </trkpt>
      <trkpt lat="45.92472" lon="6.3733">
        <ele>1355</ele>
        <time>2026-08-19T11:12:45.344Z</time>
      </trkpt>
      <trkpt lat="45.92472" lon="6.3733">
        <ele>1355</ele>
        <time>2026-08-19T11:12:46.344Z</time>
      </trkpt>
      <trkpt lat="45.92472" lon="6.3733">
        <ele>1355</ele>
        <time>2026-08-19T11:12:47.344Z</time>
      </trkpt>
      <trkpt lat="45.92472" lon="6.37329">
        <ele>1355</ele>
        <time>2026-08-19T11:12:48.344Z</time>
      </trkpt>
      <trkpt lat="45.92472" lon="6.37329">
        <ele>1355</ele>
        <time>2026-08-19T11:12:49.344Z</time>
      </trkpt>
      <trkpt lat="45.92472" lon="6.37328">
        <ele>1355</ele>
        <time>2026-08-19T11:12:50.344Z</time>
      </trkpt>
      <trkpt lat="45.92472" lon="6.37328">
        <ele>1354</ele>
        <time>2026-08-19T11:12:51.344Z</time>
      </trkpt>
      <trkpt lat="45.92472" lon="6.37328">
        <ele>1354</ele>
        <time>2026-08-19T11:12:52.344Z</time>
      </trkpt>
      <trkpt lat="45.92471" lon="6.37328">
        <ele>1354</ele>
        <time>2026-08-19T11:12:53.344Z</time>
      </trkpt>
      <trkpt lat="45.92471" lon="6.37327">
        <ele>1354</ele>
        <time>2026-08-19T11:12:54.344Z</time>
      </trkpt>
      <trkpt lat="45.92471" lon="6.37327">
        <ele>1354</ele>
        <time>2026-08-19T11:12:55.344Z</time>
      </trkpt>
      <trkpt lat="45.92472" lon="6.37326">
        <ele>1355</ele>
        <time>2026-08-19T11:12:56.345Z</time>
      </trkpt>
      <trkpt lat="45.92472" lon="6.37325">
        <ele>1355</ele>
        <time>2026-08-19T11:12:57.344Z</time>
      </trkpt>
      <trkpt lat="45.92472" lon="6.37324">
        <ele>1355</ele>
        <time>2026-08-19T11:12:58.344Z</time>
      </trkpt>
      <trkpt lat="45.92472" lon="6.37324">
        <ele>1355</ele>
        <time>2026-08-19T11:12:59.344Z</time>
      </trkpt>
      <trkpt lat="45.92472" lon="6.37323">
        <ele>1355</ele>
        <time>2026-08-19T11:13:00.344Z</time>
      </trkpt>
      <trkpt lat="45.92471" lon="6.37322">
        <ele>1355</ele>
        <time>2026-08-19T11:13:01.344Z</time>
      </trkpt>
      <trkpt lat="45.92471" lon="6.37321">
        <ele>1355</ele>
        <time>2026-08-19T11:13:02.344Z</time>
      </trkpt>
      <trkpt lat="45.9247" lon="6.3732">
        <ele>1355</ele>
        <time>2026-08-19T11:13:03.344Z</time>
      </trkpt>
      <trkpt lat="45.92469" lon="6.37318">
        <ele>1355</ele>
        <time>2026-08-19T11:13:04.344Z</time>
      </trkpt>
      <trkpt lat="45.92469" lon="6.37317">
        <ele>1355</ele>
        <time>2026-08-19T11:13:05.344Z</time>
      </trkpt>
      <trkpt lat="45.92468" lon="6.37316">
        <ele>1356</ele>
        <time>2026-08-19T11:13:06.344Z</time>
      </trkpt>
      <trkpt lat="45.92467" lon="6.37314">
        <ele>1356</ele>
        <time>2026-08-19T11:13:07.344Z</time>
      </trkpt>
      <trkpt lat="45.92466" lon="6.37312">
        <ele>1356</ele>
        <time>2026-08-19T11:13:08.344Z</time>
      </trkpt>
      <trkpt lat="45.92465" lon="6.37311">
        <ele>1357</ele>
        <time>2026-08-19T11:13:09.344Z</time>
      </trkpt>
      <trkpt lat="45.92463" lon="6.3731">
        <ele>1357</ele>
        <time>2026-08-19T11:13:10.344Z</time>
      </trkpt>
      <trkpt lat="45.92461" lon="6.37309">
        <ele>1358</ele>
        <time>2026-08-19T11:13:11.344Z</time>
      </trkpt>
      <trkpt lat="45.9246" lon="6.37308">
        <ele>1358</ele>
        <time>2026-08-19T11:13:12.344Z</time>
      </trkpt>
      <trkpt lat="45.92458" lon="6.37307">
        <ele>1359</ele>
        <time>2026-08-19T11:13:13.344Z</time>
      </trkpt>
      <trkpt lat="45.92457" lon="6.37306">
        <ele>1359</ele>
        <time>2026-08-19T11:13:14.344Z</time>
      </trkpt>
      <trkpt lat="45.92455" lon="6.37304">
        <ele>1359</ele>
        <time>2026-08-19T11:13:15.344Z</time>
      </trkpt>
      <trkpt lat="45.92454" lon="6.37304">
        <ele>1359</ele>
        <time>2026-08-19T11:13:16.344Z</time>
      </trkpt>
      <trkpt lat="45.92452" lon="6.37303">
        <ele>1359</ele>
        <time>2026-08-19T11:13:17.344Z</time>
      </trkpt>
      <trkpt lat="45.9245" lon="6.37303">
        <ele>1360</ele>
        <time>2026-08-19T11:13:18.344Z</time>
      </trkpt>
      <trkpt lat="45.92448" lon="6.37303">
        <ele>1360</ele>
        <time>2026-08-19T11:13:19.344Z</time>
      </trkpt>
      <trkpt lat="45.92447" lon="6.37302">
        <ele>1361</ele>
        <time>2026-08-19T11:13:20.344Z</time>
      </trkpt>
      <trkpt lat="45.92445" lon="6.37301">
        <ele>1361</ele>
        <time>2026-08-19T11:13:21.344Z</time>
      </trkpt>
      <trkpt lat="45.92443" lon="6.373">
        <ele>1362</ele>
        <time>2026-08-19T11:13:22.344Z</time>
      </trkpt>
      <trkpt lat="45.92442" lon="6.37299">
        <ele>1362</ele>
        <time>2026-08-19T11:13:23.344Z</time>
      </trkpt>
      <trkpt lat="45.92441" lon="6.37296">
        <ele>1363</ele>
        <time>2026-08-19T11:13:24.344Z</time>
      </trkpt>
      <trkpt lat="45.9244" lon="6.37294">
        <ele>1363</ele>
        <time>2026-08-19T11:13:25.344Z</time>
      </trkpt>
      <trkpt lat="45.92439" lon="6.37293">
        <ele>1362</ele>
        <time>2026-08-19T11:13:26.344Z</time>
      </trkpt>
      <trkpt lat="45.92438" lon="6.37292">
        <ele>1362</ele>
        <time>2026-08-19T11:13:27.344Z</time>
      </trkpt>
      <trkpt lat="45.92438" lon="6.37291">
        <ele>1362</ele>
        <time>2026-08-19T11:13:28.344Z</time>
      </trkpt>
      <trkpt lat="45.92437" lon="6.3729">
        <ele>1361</ele>
        <time>2026-08-19T11:13:29.344Z</time>
      </trkpt>
      <trkpt lat="45.92436" lon="6.37289">
        <ele>1361</ele>
        <time>2026-08-19T11:13:30.344Z</time>
      </trkpt>
      <trkpt lat="45.92435" lon="6.37286">
        <ele>1361</ele>
        <time>2026-08-19T11:13:31.344Z</time>
      </trkpt>
      <trkpt lat="45.92434" lon="6.37284">
        <ele>1361</ele>
        <time>2026-08-19T11:13:32.344Z</time>
      </trkpt>
      <trkpt lat="45.92433" lon="6.37282">
        <ele>1361</ele>
        <time>2026-08-19T11:13:33.344Z</time>
      </trkpt>
      <trkpt lat="45.92432" lon="6.37281">
        <ele>1360</ele>
        <time>2026-08-19T11:13:34.344Z</time>
      </trkpt>
      <trkpt lat="45.9243" lon="6.3728">
        <ele>1360</ele>
        <time>2026-08-19T11:13:35.344Z</time>
      </trkpt>
      <trkpt lat="45.92429" lon="6.37279">
        <ele>1360</ele>
        <time>2026-08-19T11:13:36.344Z</time>
      </trkpt>
      <trkpt lat="45.92427" lon="6.37277">
        <ele>1361</ele>
        <time>2026-08-19T11:13:37.344Z</time>
      </trkpt>
      <trkpt lat="45.92426" lon="6.37275">
        <ele>1361</ele>
        <time>2026-08-19T11:13:38.344Z</time>
      </trkpt>
      <trkpt lat="45.92425" lon="6.37273">
        <ele>1360</ele>
        <time>2026-08-19T11:13:39.344Z</time>
      </trkpt>
      <trkpt lat="45.92423" lon="6.37271">
        <ele>1360</ele>
        <time>2026-08-19T11:13:40.344Z</time>
      </trkpt>
      <trkpt lat="45.92422" lon="6.37268">
        <ele>1360</ele>
        <time>2026-08-19T11:13:41.344Z</time>
      </trkpt>
      <trkpt lat="45.92421" lon="6.37266">
        <ele>1360</ele>
        <time>2026-08-19T11:13:42.344Z</time>
      </trkpt>
      <trkpt lat="45.9242" lon="6.37264">
        <ele>1360</ele>
        <time>2026-08-19T11:13:43.344Z</time>
      </trkpt>
      <trkpt lat="45.92418" lon="6.37262">
        <ele>1360</ele>
        <time>2026-08-19T11:13:44.344Z</time>
      </trkpt>
      <trkpt lat="45.92417" lon="6.3726">
        <ele>1360</ele>
        <time>2026-08-19T11:13:45.344Z</time>
      </trkpt>
      <trkpt lat="45.92416" lon="6.37258">
        <ele>1360</ele>
        <time>2026-08-19T11:13:46.344Z</time>
      </trkpt>
      <trkpt lat="45.92414" lon="6.37257">
        <ele>1360</ele>
        <time>2026-08-19T11:13:47.344Z</time>
      </trkpt>
      <trkpt lat="45.92413" lon="6.37256">
        <ele>1360</ele>
        <time>2026-08-19T11:13:48.344Z</time>
      </trkpt>
      <trkpt lat="45.92412" lon="6.37255">
        <ele>1360</ele>
        <time>2026-08-19T11:13:49.344Z</time>
      </trkpt>
      <trkpt lat="45.92411" lon="6.37253">
        <ele>1360</ele>
        <time>2026-08-19T11:13:50.344Z</time>
      </trkpt>
      <trkpt lat="45.92408" lon="6.37252">
        <ele>1360</ele>
        <time>2026-08-19T11:13:51.344Z</time>
      </trkpt>
      <trkpt lat="45.92407" lon="6.37251">
        <ele>1360</ele>
        <time>2026-08-19T11:13:52.344Z</time>
      </trkpt>
      <trkpt lat="45.92405" lon="6.3725">
        <ele>1360</ele>
        <time>2026-08-19T11:13:53.344Z</time>
      </trkpt>
      <trkpt lat="45.92404" lon="6.37249">
        <ele>1360</ele>
        <time>2026-08-19T11:13:54.344Z</time>
      </trkpt>
      <trkpt lat="45.92403" lon="6.37249">
        <ele>1360</ele>
        <time>2026-08-19T11:13:55.344Z</time>
      </trkpt>
      <trkpt lat="45.92401" lon="6.37247">
        <ele>1360</ele>
        <time>2026-08-19T11:13:56.344Z</time>
      </trkpt>
      <trkpt lat="45.92401" lon="6.37245">
        <ele>1359</ele>
        <time>2026-08-19T11:13:57.344Z</time>
      </trkpt>
      <trkpt lat="45.924" lon="6.37244">
        <ele>1359</ele>
        <time>2026-08-19T11:13:58.344Z</time>
      </trkpt>
      <trkpt lat="45.92399" lon="6.37242">
        <ele>1359</ele>
        <time>2026-08-19T11:13:59.344Z</time>
      </trkpt>
      <trkpt lat="45.92398" lon="6.37241">
        <ele>1359</ele>
        <time>2026-08-19T11:14:00.344Z</time>
      </trkpt>
      <trkpt lat="45.92397" lon="6.37241">
        <ele>1358</ele>
        <time>2026-08-19T11:14:01.344Z</time>
      </trkpt>
      <trkpt lat="45.92395" lon="6.3724">
        <ele>1358</ele>
        <time>2026-08-19T11:14:02.344Z</time>
      </trkpt>
      <trkpt lat="45.92394" lon="6.37238">
        <ele>1358</ele>
        <time>2026-08-19T11:14:03.344Z</time>
      </trkpt>
      <trkpt lat="45.92393" lon="6.37236">
        <ele>1357</ele>
        <time>2026-08-19T11:14:04.344Z</time>
      </trkpt>
      <trkpt lat="45.92392" lon="6.37235">
        <ele>1357</ele>
        <time>2026-08-19T11:14:05.344Z</time>
      </trkpt>
      <trkpt lat="45.92391" lon="6.37233">
        <ele>1356</ele>
        <time>2026-08-19T11:14:06.344Z</time>
      </trkpt>
      <trkpt lat="45.9239" lon="6.37231">
        <ele>1356</ele>
        <time>2026-08-19T11:14:07.344Z</time>
      </trkpt>
      <trkpt lat="45.92388" lon="6.37229">
        <ele>1355</ele>
        <time>2026-08-19T11:14:08.344Z</time>
      </trkpt>
      <trkpt lat="45.92386" lon="6.37225">
        <ele>1355</ele>
        <time>2026-08-19T11:14:09.344Z</time>
      </trkpt>
      <trkpt lat="45.92385" lon="6.37223">
        <ele>1355</ele>
        <time>2026-08-19T11:14:10.344Z</time>
      </trkpt>
      <trkpt lat="45.92384" lon="6.3722">
        <ele>1355</ele>
        <time>2026-08-19T11:14:11.344Z</time>
      </trkpt>
      <trkpt lat="45.92383" lon="6.37218">
        <ele>1354</ele>
        <time>2026-08-19T11:14:12.344Z</time>
      </trkpt>
      <trkpt lat="45.92383" lon="6.37215">
        <ele>1354</ele>
        <time>2026-08-19T11:14:13.344Z</time>
      </trkpt>
      <trkpt lat="45.92382" lon="6.37213">
        <ele>1354</ele>
        <time>2026-08-19T11:14:14.344Z</time>
      </trkpt>
      <trkpt lat="45.92381" lon="6.37211">
        <ele>1354</ele>
        <time>2026-08-19T11:14:15.344Z</time>
      </trkpt>
      <trkpt lat="45.9238" lon="6.37208">
        <ele>1354</ele>
        <time>2026-08-19T11:14:16.344Z</time>
      </trkpt>
      <trkpt lat="45.92379" lon="6.37204">
        <ele>1353</ele>
        <time>2026-08-19T11:14:17.344Z</time>
      </trkpt>
      <trkpt lat="45.92378" lon="6.37201">
        <ele>1353</ele>
        <time>2026-08-19T11:14:18.344Z</time>
      </trkpt>
      <trkpt lat="45.92377" lon="6.37199">
        <ele>1352</ele>
        <time>2026-08-19T11:14:19.344Z</time>
      </trkpt>
      <trkpt lat="45.92376" lon="6.37196">
        <ele>1352</ele>
        <time>2026-08-19T11:14:20.344Z</time>
      </trkpt>
      <trkpt lat="45.92375" lon="6.37192">
        <ele>1352</ele>
        <time>2026-08-19T11:14:21.344Z</time>
      </trkpt>
      <trkpt lat="45.92374" lon="6.37188">
        <ele>1352</ele>
        <time>2026-08-19T11:14:22.344Z</time>
      </trkpt>
      <trkpt lat="45.92374" lon="6.37186">
        <ele>1352</ele>
        <time>2026-08-19T11:14:23.344Z</time>
      </trkpt>
      <trkpt lat="45.92373" lon="6.37184">
        <ele>1351</ele>
        <time>2026-08-19T11:14:24.344Z</time>
      </trkpt>
      <trkpt lat="45.92372" lon="6.37182">
        <ele>1351</ele>
        <time>2026-08-19T11:14:25.344Z</time>
      </trkpt>
      <trkpt lat="45.92371" lon="6.37181">
        <ele>1351</ele>
        <time>2026-08-19T11:14:26.344Z</time>
      </trkpt>
      <trkpt lat="45.9237" lon="6.37179">
        <ele>1351</ele>
        <time>2026-08-19T11:14:27.344Z</time>
      </trkpt>
      <trkpt lat="45.92369" lon="6.37177">
        <ele>1352</ele>
        <time>2026-08-19T11:14:28.344Z</time>
      </trkpt>
      <trkpt lat="45.92368" lon="6.37177">
        <ele>1351</ele>
        <time>2026-08-19T11:14:29.344Z</time>
      </trkpt>
      <trkpt lat="45.92366" lon="6.37175">
        <ele>1351</ele>
        <time>2026-08-19T11:14:30.344Z</time>
      </trkpt>
      <trkpt lat="45.92365" lon="6.37173">
        <ele>1351</ele>
        <time>2026-08-19T11:14:31.344Z</time>
      </trkpt>
      <trkpt lat="45.92364" lon="6.37171">
        <ele>1351</ele>
        <time>2026-08-19T11:14:32.344Z</time>
      </trkpt>
      <trkpt lat="45.92363" lon="6.37169">
        <ele>1351</ele>
        <time>2026-08-19T11:14:33.344Z</time>
      </trkpt>
      <trkpt lat="45.92362" lon="6.37168">
        <ele>1351</ele>
        <time>2026-08-19T11:14:34.344Z</time>
      </trkpt>
      <trkpt lat="45.92362" lon="6.37167">
        <ele>1351</ele>
        <time>2026-08-19T11:14:35.344Z</time>
      </trkpt>
      <trkpt lat="45.92361" lon="6.37164">
        <ele>1351</ele>
        <time>2026-08-19T11:14:36.344Z</time>
      </trkpt>
      <trkpt lat="45.9236" lon="6.37162">
        <ele>1351</ele>
        <time>2026-08-19T11:14:37.344Z</time>
      </trkpt>
      <trkpt lat="45.92358" lon="6.37159">
        <ele>1351</ele>
        <time>2026-08-19T11:14:38.344Z</time>
      </trkpt>
      <trkpt lat="45.92357" lon="6.37156">
        <ele>1351</ele>
        <time>2026-08-19T11:14:39.344Z</time>
      </trkpt>
      <trkpt lat="45.92356" lon="6.37153">
        <ele>1351</ele>
        <time>2026-08-19T11:14:40.344Z</time>
      </trkpt>
      <trkpt lat="45.92356" lon="6.3715">
        <ele>1351</ele>
        <time>2026-08-19T11:14:41.344Z</time>
      </trkpt>
      <trkpt lat="45.92355" lon="6.37147">
        <ele>1351</ele>
        <time>2026-08-19T11:14:42.344Z</time>
      </trkpt>
      <trkpt lat="45.92355" lon="6.37145">
        <ele>1351</ele>
        <time>2026-08-19T11:14:43.345Z</time>
      </trkpt>
      <trkpt lat="45.92354" lon="6.37144">
        <ele>1351</ele>
        <time>2026-08-19T11:14:44.344Z</time>
      </trkpt>
      <trkpt lat="45.92353" lon="6.37141">
        <ele>1351</ele>
        <time>2026-08-19T11:14:45.344Z</time>
      </trkpt>
      <trkpt lat="45.92352" lon="6.37138">
        <ele>1351</ele>
        <time>2026-08-19T11:14:46.344Z</time>
      </trkpt>
      <trkpt lat="45.92351" lon="6.37136">
        <ele>1351</ele>
        <time>2026-08-19T11:14:47.344Z</time>
      </trkpt>
      <trkpt lat="45.9235" lon="6.37134">
        <ele>1351</ele>
        <time>2026-08-19T11:14:48.344Z</time>
      </trkpt>
      <trkpt lat="45.92349" lon="6.37132">
        <ele>1350</ele>
        <time>2026-08-19T11:14:49.344Z</time>
      </trkpt>
      <trkpt lat="45.92348" lon="6.3713">
        <ele>1350</ele>
        <time>2026-08-19T11:14:50.344Z</time>
      </trkpt>
      <trkpt lat="45.92347" lon="6.37127">
        <ele>1350</ele>
        <time>2026-08-19T11:14:51.344Z</time>
      </trkpt>
      <trkpt lat="45.92346" lon="6.37124">
        <ele>1350</ele>
        <time>2026-08-19T11:14:52.344Z</time>
      </trkpt>
      <trkpt lat="45.92345" lon="6.37122">
        <ele>1349</ele>
        <time>2026-08-19T11:14:53.344Z</time>
      </trkpt>
      <trkpt lat="45.92345" lon="6.3712">
        <ele>1349</ele>
        <time>2026-08-19T11:14:54.344Z</time>
      </trkpt>
      <trkpt lat="45.92344" lon="6.37117">
        <ele>1348</ele>
        <time>2026-08-19T11:14:55.344Z</time>
      </trkpt>
      <trkpt lat="45.92344" lon="6.37114">
        <ele>1348</ele>
        <time>2026-08-19T11:14:56.344Z</time>
      </trkpt>
      <trkpt lat="45.92343" lon="6.37111">
        <ele>1348</ele>
        <time>2026-08-19T11:14:57.344Z</time>
      </trkpt>
      <trkpt lat="45.92342" lon="6.37109">
        <ele>1348</ele>
        <time>2026-08-19T11:14:58.344Z</time>
      </trkpt>
      <trkpt lat="45.92342" lon="6.37106">
        <ele>1348</ele>
        <time>2026-08-19T11:14:59.344Z</time>
      </trkpt>
      <trkpt lat="45.92341" lon="6.37104">
        <ele>1347</ele>
        <time>2026-08-19T11:15:00.344Z</time>
      </trkpt>
      <trkpt lat="45.92341" lon="6.37103">
        <ele>1347</ele>
        <time>2026-08-19T11:15:01.344Z</time>
      </trkpt>
      <trkpt lat="45.9234" lon="6.37101">
        <ele>1347</ele>
        <time>2026-08-19T11:15:02.344Z</time>
      </trkpt>
      <trkpt lat="45.92339" lon="6.371">
        <ele>1347</ele>
        <time>2026-08-19T11:15:03.344Z</time>
      </trkpt>
      <trkpt lat="45.92337" lon="6.37099">
        <ele>1347</ele>
        <time>2026-08-19T11:15:04.344Z</time>
      </trkpt>
      <trkpt lat="45.92336" lon="6.37098">
        <ele>1347</ele>
        <time>2026-08-19T11:15:05.344Z</time>
      </trkpt>
      <trkpt lat="45.92334" lon="6.37097">
        <ele>1347</ele>
        <time>2026-08-19T11:15:06.344Z</time>
      </trkpt>
      <trkpt lat="45.92333" lon="6.37095">
        <ele>1348</ele>
        <time>2026-08-19T11:15:07.344Z</time>
      </trkpt>
      <trkpt lat="45.92331" lon="6.37093">
        <ele>1348</ele>
        <time>2026-08-19T11:15:08.344Z</time>
      </trkpt>
      <trkpt lat="45.92329" lon="6.37091">
        <ele>1348</ele>
        <time>2026-08-19T11:15:09.345Z</time>
      </trkpt>
      <trkpt lat="45.92328" lon="6.37088">
        <ele>1348</ele>
        <time>2026-08-19T11:15:10.344Z</time>
      </trkpt>
      <trkpt lat="45.92326" lon="6.37086">
        <ele>1347</ele>
        <time>2026-08-19T11:15:11.344Z</time>
      </trkpt>
      <trkpt lat="45.92325" lon="6.37084">
        <ele>1347</ele>
        <time>2026-08-19T11:15:12.344Z</time>
      </trkpt>
      <trkpt lat="45.92324" lon="6.37081">
        <ele>1347</ele>
        <time>2026-08-19T11:15:13.344Z</time>
      </trkpt>
      <trkpt lat="45.92323" lon="6.3708">
        <ele>1347</ele>
        <time>2026-08-19T11:15:14.345Z</time>
      </trkpt>
      <trkpt lat="45.92323" lon="6.37076">
        <ele>1346</ele>
        <time>2026-08-19T11:15:15.344Z</time>
      </trkpt>
      <trkpt lat="45.92322" lon="6.37073">
        <ele>1346</ele>
        <time>2026-08-19T11:15:16.344Z</time>
      </trkpt>
      <trkpt lat="45.92321" lon="6.3707">
        <ele>1345</ele>
        <time>2026-08-19T11:15:17.344Z</time>
      </trkpt>
      <trkpt lat="45.9232" lon="6.37067">
        <ele>1345</ele>
        <time>2026-08-19T11:15:18.344Z</time>
      </trkpt>
      <trkpt lat="45.92319" lon="6.37064">
        <ele>1345</ele>
        <time>2026-08-19T11:15:19.344Z</time>
      </trkpt>
      <trkpt lat="45.92318" lon="6.37062">
        <ele>1345</ele>
        <time>2026-08-19T11:15:20.344Z</time>
      </trkpt>
      <trkpt lat="45.92318" lon="6.37059">
        <ele>1345</ele>
        <time>2026-08-19T11:15:21.344Z</time>
      </trkpt>
      <trkpt lat="45.92317" lon="6.37056">
        <ele>1345</ele>
        <time>2026-08-19T11:15:22.344Z</time>
      </trkpt>
      <trkpt lat="45.92316" lon="6.37053">
        <ele>1344</ele>
        <time>2026-08-19T11:15:23.344Z</time>
      </trkpt>
      <trkpt lat="45.92315" lon="6.37051">
        <ele>1344</ele>
        <time>2026-08-19T11:15:24.345Z</time>
      </trkpt>
      <trkpt lat="45.92314" lon="6.37049">
        <ele>1343</ele>
        <time>2026-08-19T11:15:25.344Z</time>
      </trkpt>
      <trkpt lat="45.92314" lon="6.37046">
        <ele>1343</ele>
        <time>2026-08-19T11:15:26.344Z</time>
      </trkpt>
      <trkpt lat="45.92312" lon="6.37044">
        <ele>1342</ele>
        <time>2026-08-19T11:15:27.344Z</time>
      </trkpt>
      <trkpt lat="45.92311" lon="6.37042">
        <ele>1342</ele>
        <time>2026-08-19T11:15:28.344Z</time>
      </trkpt>
      <trkpt lat="45.9231" lon="6.37039">
        <ele>1342</ele>
        <time>2026-08-19T11:15:29.344Z</time>
      </trkpt>
      <trkpt lat="45.92309" lon="6.37037">
        <ele>1342</ele>
        <time>2026-08-19T11:15:30.344Z</time>
      </trkpt>
      <trkpt lat="45.92309" lon="6.37034">
        <ele>1342</ele>
        <time>2026-08-19T11:15:31.344Z</time>
      </trkpt>
      <trkpt lat="45.92308" lon="6.37032">
        <ele>1342</ele>
        <time>2026-08-19T11:15:32.344Z</time>
      </trkpt>
      <trkpt lat="45.92308" lon="6.37029">
        <ele>1342</ele>
        <time>2026-08-19T11:15:33.344Z</time>
      </trkpt>
      <trkpt lat="45.92307" lon="6.37028">
        <ele>1342</ele>
        <time>2026-08-19T11:15:34.344Z</time>
      </trkpt>
      <trkpt lat="45.92307" lon="6.37025">
        <ele>1341</ele>
        <time>2026-08-19T11:15:35.344Z</time>
      </trkpt>
      <trkpt lat="45.92306" lon="6.37023">
        <ele>1341</ele>
        <time>2026-08-19T11:15:36.344Z</time>
      </trkpt>
      <trkpt lat="45.92305" lon="6.37021">
        <ele>1341</ele>
        <time>2026-08-19T11:15:37.344Z</time>
      </trkpt>
      <trkpt lat="45.92304" lon="6.37019">
        <ele>1341</ele>
        <time>2026-08-19T11:15:38.344Z</time>
      </trkpt>
      <trkpt lat="45.92303" lon="6.37017">
        <ele>1340</ele>
        <time>2026-08-19T11:15:39.344Z</time>
      </trkpt>
      <trkpt lat="45.92303" lon="6.37015">
        <ele>1340</ele>
        <time>2026-08-19T11:15:40.344Z</time>
      </trkpt>
      <trkpt lat="45.92302" lon="6.37012">
        <ele>1340</ele>
        <time>2026-08-19T11:15:41.344Z</time>
      </trkpt>
      <trkpt lat="45.92301" lon="6.3701">
        <ele>1340</ele>
        <time>2026-08-19T11:15:42.344Z</time>
      </trkpt>
      <trkpt lat="45.923" lon="6.37008">
        <ele>1340</ele>
        <time>2026-08-19T11:15:43.344Z</time>
      </trkpt>
      <trkpt lat="45.92299" lon="6.37006">
        <ele>1340</ele>
        <time>2026-08-19T11:15:44.344Z</time>
      </trkpt>
      <trkpt lat="45.92298" lon="6.37004">
        <ele>1340</ele>
        <time>2026-08-19T11:15:45.344Z</time>
      </trkpt>
      <trkpt lat="45.92297" lon="6.37001">
        <ele>1340</ele>
        <time>2026-08-19T11:15:46.344Z</time>
      </trkpt>
      <trkpt lat="45.92296" lon="6.36998">
        <ele>1340</ele>
        <time>2026-08-19T11:15:47.344Z</time>
      </trkpt>
      <trkpt lat="45.92295" lon="6.36996">
        <ele>1340</ele>
        <time>2026-08-19T11:15:48.344Z</time>
      </trkpt>
      <trkpt lat="45.92294" lon="6.36995">
        <ele>1339</ele>
        <time>2026-08-19T11:15:49.344Z</time>
      </trkpt>
      <trkpt lat="45.92293" lon="6.36993">
        <ele>1339</ele>
        <time>2026-08-19T11:15:50.344Z</time>
      </trkpt>
      <trkpt lat="45.92292" lon="6.36992">
        <ele>1339</ele>
        <time>2026-08-19T11:15:51.344Z</time>
      </trkpt>
      <trkpt lat="45.92291" lon="6.3699">
        <ele>1339</ele>
        <time>2026-08-19T11:15:52.344Z</time>
      </trkpt>
      <trkpt lat="45.9229" lon="6.36986">
        <ele>1338</ele>
        <time>2026-08-19T11:15:53.344Z</time>
      </trkpt>
      <trkpt lat="45.92289" lon="6.36985">
        <ele>1338</ele>
        <time>2026-08-19T11:15:54.344Z</time>
      </trkpt>
      <trkpt lat="45.92288" lon="6.36984">
        <ele>1338</ele>
        <time>2026-08-19T11:15:55.344Z</time>
      </trkpt>
      <trkpt lat="45.92286" lon="6.36982">
        <ele>1338</ele>
        <time>2026-08-19T11:15:56.344Z</time>
      </trkpt>
      <trkpt lat="45.92285" lon="6.3698">
        <ele>1339</ele>
        <time>2026-08-19T11:15:57.344Z</time>
      </trkpt>
      <trkpt lat="45.92284" lon="6.36978">
        <ele>1339</ele>
        <time>2026-08-19T11:15:58.344Z</time>
      </trkpt>
      <trkpt lat="45.92282" lon="6.36977">
        <ele>1339</ele>
        <time>2026-08-19T11:15:59.344Z</time>
      </trkpt>
      <trkpt lat="45.92281" lon="6.36975">
        <ele>1339</ele>
        <time>2026-08-19T11:16:00.344Z</time>
      </trkpt>
      <trkpt lat="45.9228" lon="6.36974">
        <ele>1339</ele>
        <time>2026-08-19T11:16:01.345Z</time>
      </trkpt>
      <trkpt lat="45.92279" lon="6.36973">
        <ele>1339</ele>
        <time>2026-08-19T11:16:02.344Z</time>
      </trkpt>
      <trkpt lat="45.92279" lon="6.36972">
        <ele>1339</ele>
        <time>2026-08-19T11:16:03.344Z</time>
      </trkpt>
      <trkpt lat="45.92278" lon="6.36971">
        <ele>1339</ele>
        <time>2026-08-19T11:16:04.344Z</time>
      </trkpt>
      <trkpt lat="45.92277" lon="6.3697">
        <ele>1339</ele>
        <time>2026-08-19T11:16:05.344Z</time>
      </trkpt>
      <trkpt lat="45.92276" lon="6.3697">
        <ele>1340</ele>
        <time>2026-08-19T11:16:06.344Z</time>
      </trkpt>
      <trkpt lat="45.92276" lon="6.36968">
        <ele>1340</ele>
        <time>2026-08-19T11:16:07.344Z</time>
      </trkpt>
      <trkpt lat="45.92276" lon="6.36966">
        <ele>1340</ele>
        <time>2026-08-19T11:16:08.344Z</time>
      </trkpt>
      <trkpt lat="45.92275" lon="6.36964">
        <ele>1340</ele>
        <time>2026-08-19T11:16:09.344Z</time>
      </trkpt>
      <trkpt lat="45.92274" lon="6.36963">
        <ele>1341</ele>
        <time>2026-08-19T11:16:10.344Z</time>
      </trkpt>
      <trkpt lat="45.92273" lon="6.36962">
        <ele>1341</ele>
        <time>2026-08-19T11:16:11.344Z</time>
      </trkpt>
      <trkpt lat="45.92272" lon="6.36961">
        <ele>1341</ele>
        <time>2026-08-19T11:16:12.344Z</time>
      </trkpt>
      <trkpt lat="45.92272" lon="6.36959">
        <ele>1341</ele>
        <time>2026-08-19T11:16:13.344Z</time>
      </trkpt>
      <trkpt lat="45.92271" lon="6.36958">
        <ele>1341</ele>
        <time>2026-08-19T11:16:14.344Z</time>
      </trkpt>
      <trkpt lat="45.9227" lon="6.36957">
        <ele>1341</ele>
        <time>2026-08-19T11:16:15.344Z</time>
      </trkpt>
      <trkpt lat="45.92269" lon="6.36956">
        <ele>1341</ele>
        <time>2026-08-19T11:16:16.344Z</time>
      </trkpt>
      <trkpt lat="45.92268" lon="6.36956">
        <ele>1341</ele>
        <time>2026-08-19T11:16:17.344Z</time>
      </trkpt>
      <trkpt lat="45.92267" lon="6.36954">
        <ele>1341</ele>
        <time>2026-08-19T11:16:18.344Z</time>
      </trkpt>
      <trkpt lat="45.92266" lon="6.36953">
        <ele>1341</ele>
        <time>2026-08-19T11:16:19.344Z</time>
      </trkpt>
      <trkpt lat="45.92265" lon="6.36952">
        <ele>1341</ele>
        <time>2026-08-19T11:16:20.344Z</time>
      </trkpt>
      <trkpt lat="45.92265" lon="6.3695">
        <ele>1341</ele>
        <time>2026-08-19T11:16:21.344Z</time>
      </trkpt>
      <trkpt lat="45.92264" lon="6.36949">
        <ele>1341</ele>
        <time>2026-08-19T11:16:22.344Z</time>
      </trkpt>
      <trkpt lat="45.92263" lon="6.36949">
        <ele>1341</ele>
        <time>2026-08-19T11:16:23.344Z</time>
      </trkpt>
      <trkpt lat="45.92263" lon="6.36948">
        <ele>1341</ele>
        <time>2026-08-19T11:16:24.344Z</time>
      </trkpt>
      <trkpt lat="45.92263" lon="6.36947">
        <ele>1341</ele>
        <time>2026-08-19T11:16:25.345Z</time>
      </trkpt>
      <trkpt lat="45.92262" lon="6.36946">
        <ele>1341</ele>
        <time>2026-08-19T11:16:26.344Z</time>
      </trkpt>
      <trkpt lat="45.92261" lon="6.36945">
        <ele>1341</ele>
        <time>2026-08-19T11:16:27.344Z</time>
      </trkpt>
      <trkpt lat="45.92261" lon="6.36944">
        <ele>1341</ele>
        <time>2026-08-19T11:16:28.344Z</time>
      </trkpt>
      <trkpt lat="45.92259" lon="6.36943">
        <ele>1341</ele>
        <time>2026-08-19T11:16:29.344Z</time>
      </trkpt>
      <trkpt lat="45.92258" lon="6.36941">
        <ele>1340</ele>
        <time>2026-08-19T11:16:30.344Z</time>
      </trkpt>
      <trkpt lat="45.92257" lon="6.3694">
        <ele>1340</ele>
        <time>2026-08-19T11:16:31.344Z</time>
      </trkpt>
      <trkpt lat="45.92256" lon="6.36939">
        <ele>1340</ele>
        <time>2026-08-19T11:16:32.344Z</time>
      </trkpt>
      <trkpt lat="45.92255" lon="6.36937">
        <ele>1340</ele>
        <time>2026-08-19T11:16:33.344Z</time>
      </trkpt>
      <trkpt lat="45.92255" lon="6.36935">
        <ele>1340</ele>
        <time>2026-08-19T11:16:34.344Z</time>
      </trkpt>
      <trkpt lat="45.92254" lon="6.36933">
        <ele>1339</ele>
        <time>2026-08-19T11:16:35.344Z</time>
      </trkpt>
      <trkpt lat="45.92253" lon="6.36931">
        <ele>1339</ele>
        <time>2026-08-19T11:16:36.344Z</time>
      </trkpt>
      <trkpt lat="45.92252" lon="6.3693">
        <ele>1338</ele>
        <time>2026-08-19T11:16:37.344Z</time>
      </trkpt>
      <trkpt lat="45.92252" lon="6.36928">
        <ele>1337</ele>
        <time>2026-08-19T11:16:38.344Z</time>
      </trkpt>
      <trkpt lat="45.92251" lon="6.36926">
        <ele>1337</ele>
        <time>2026-08-19T11:16:39.344Z</time>
      </trkpt>
      <trkpt lat="45.9225" lon="6.36924">
        <ele>1337</ele>
        <time>2026-08-19T11:16:40.344Z</time>
      </trkpt>
      <trkpt lat="45.92249" lon="6.36922">
        <ele>1336</ele>
        <time>2026-08-19T11:16:41.344Z</time>
      </trkpt>
      <trkpt lat="45.92248" lon="6.36921">
        <ele>1336</ele>
        <time>2026-08-19T11:16:42.344Z</time>
      </trkpt>
      <trkpt lat="45.92247" lon="6.3692">
        <ele>1335</ele>
        <time>2026-08-19T11:16:43.344Z</time>
      </trkpt>
      <trkpt lat="45.92246" lon="6.36919">
        <ele>1335</ele>
        <time>2026-08-19T11:16:44.344Z</time>
      </trkpt>
      <trkpt lat="45.92245" lon="6.36917">
        <ele>1335</ele>
        <time>2026-08-19T11:16:45.344Z</time>
      </trkpt>
      <trkpt lat="45.92244" lon="6.36916">
        <ele>1335</ele>
        <time>2026-08-19T11:16:46.344Z</time>
      </trkpt>
      <trkpt lat="45.92243" lon="6.36914">
        <ele>1335</ele>
        <time>2026-08-19T11:16:47.344Z</time>
      </trkpt>
      <trkpt lat="45.92242" lon="6.36913">
        <ele>1334</ele>
        <time>2026-08-19T11:16:48.344Z</time>
      </trkpt>
      <trkpt lat="45.92241" lon="6.36911">
        <ele>1334</ele>
        <time>2026-08-19T11:16:49.344Z</time>
      </trkpt>
      <trkpt lat="45.92239" lon="6.3691">
        <ele>1333</ele>
        <time>2026-08-19T11:16:50.344Z</time>
      </trkpt>
      <trkpt lat="45.92238" lon="6.36908">
        <ele>1333</ele>
        <time>2026-08-19T11:16:51.344Z</time>
      </trkpt>
      <trkpt lat="45.92236" lon="6.36905">
        <ele>1332</ele>
        <time>2026-08-19T11:16:52.344Z</time>
      </trkpt>
      <trkpt lat="45.92235" lon="6.36904">
        <ele>1332</ele>
        <time>2026-08-19T11:16:53.344Z</time>
      </trkpt>
      <trkpt lat="45.92234" lon="6.36902">
        <ele>1331</ele>
        <time>2026-08-19T11:16:54.344Z</time>
      </trkpt>
      <trkpt lat="45.92233" lon="6.369">
        <ele>1331</ele>
        <time>2026-08-19T11:16:55.344Z</time>
      </trkpt>
      <trkpt lat="45.92231" lon="6.36898">
        <ele>1331</ele>
        <time>2026-08-19T11:16:56.344Z</time>
      </trkpt>
      <trkpt lat="45.9223" lon="6.36896">
        <ele>1331</ele>
        <time>2026-08-19T11:16:57.344Z</time>
      </trkpt>
      <trkpt lat="45.92229" lon="6.36893">
        <ele>1331</ele>
        <time>2026-08-19T11:16:58.344Z</time>
      </trkpt>
      <trkpt lat="45.92227" lon="6.36891">
        <ele>1331</ele>
        <time>2026-08-19T11:16:59.344Z</time>
      </trkpt>
      <trkpt lat="45.92226" lon="6.36889">
        <ele>1330</ele>
        <time>2026-08-19T11:17:00.344Z</time>
      </trkpt>
      <trkpt lat="45.92225" lon="6.36887">
        <ele>1330</ele>
        <time>2026-08-19T11:17:01.344Z</time>
      </trkpt>
      <trkpt lat="45.92223" lon="6.36885">
        <ele>1330</ele>
        <time>2026-08-19T11:17:02.344Z</time>
      </trkpt>
      <trkpt lat="45.92222" lon="6.36883">
        <ele>1329</ele>
        <time>2026-08-19T11:17:03.344Z</time>
      </trkpt>
      <trkpt lat="45.92221" lon="6.36881">
        <ele>1329</ele>
        <time>2026-08-19T11:17:04.345Z</time>
      </trkpt>
      <trkpt lat="45.9222" lon="6.36878">
        <ele>1329</ele>
        <time>2026-08-19T11:17:05.344Z</time>
      </trkpt>
      <trkpt lat="45.92218" lon="6.36876">
        <ele>1329</ele>
        <time>2026-08-19T11:17:06.344Z</time>
      </trkpt>
      <trkpt lat="45.92217" lon="6.36874">
        <ele>1329</ele>
        <time>2026-08-19T11:17:07.344Z</time>
      </trkpt>
      <trkpt lat="45.92216" lon="6.36871">
        <ele>1329</ele>
        <time>2026-08-19T11:17:08.344Z</time>
      </trkpt>
      <trkpt lat="45.92215" lon="6.36868">
        <ele>1329</ele>
        <time>2026-08-19T11:17:09.344Z</time>
      </trkpt>
      <trkpt lat="45.92214" lon="6.36865">
        <ele>1329</ele>
        <time>2026-08-19T11:17:10.344Z</time>
      </trkpt>
      <trkpt lat="45.92214" lon="6.36862">
        <ele>1329</ele>
        <time>2026-08-19T11:17:11.344Z</time>
      </trkpt>
      <trkpt lat="45.92212" lon="6.3686">
        <ele>1329</ele>
        <time>2026-08-19T11:17:12.344Z</time>
      </trkpt>
      <trkpt lat="45.92211" lon="6.36857">
        <ele>1328</ele>
        <time>2026-08-19T11:17:13.344Z</time>
      </trkpt>
      <trkpt lat="45.92211" lon="6.36853">
        <ele>1328</ele>
        <time>2026-08-19T11:17:14.344Z</time>
      </trkpt>
      <trkpt lat="45.9221" lon="6.36851">
        <ele>1327</ele>
        <time>2026-08-19T11:17:15.344Z</time>
      </trkpt>
      <trkpt lat="45.92209" lon="6.36847">
        <ele>1327</ele>
        <time>2026-08-19T11:17:16.344Z</time>
      </trkpt>
      <trkpt lat="45.92209" lon="6.36845">
        <ele>1326</ele>
        <time>2026-08-19T11:17:17.344Z</time>
      </trkpt>
      <trkpt lat="45.92208" lon="6.36842">
        <ele>1325</ele>
        <time>2026-08-19T11:17:18.344Z</time>
      </trkpt>
      <trkpt lat="45.92207" lon="6.36839">
        <ele>1324</ele>
        <time>2026-08-19T11:17:19.344Z</time>
      </trkpt>
      <trkpt lat="45.92206" lon="6.36836">
        <ele>1323</ele>
        <time>2026-08-19T11:17:20.344Z</time>
      </trkpt>
      <trkpt lat="45.92205" lon="6.36833">
        <ele>1323</ele>
        <time>2026-08-19T11:17:21.344Z</time>
      </trkpt>
      <trkpt lat="45.92203" lon="6.36831">
        <ele>1322</ele>
        <time>2026-08-19T11:17:22.344Z</time>
      </trkpt>
      <trkpt lat="45.92202" lon="6.36829">
        <ele>1321</ele>
        <time>2026-08-19T11:17:23.344Z</time>
      </trkpt>
      <trkpt lat="45.922" lon="6.36827">
        <ele>1320</ele>
        <time>2026-08-19T11:17:24.344Z</time>
      </trkpt>
      <trkpt lat="45.92199" lon="6.36824">
        <ele>1319</ele>
        <time>2026-08-19T11:17:25.344Z</time>
      </trkpt>
      <trkpt lat="45.92198" lon="6.36822">
        <ele>1318</ele>
        <time>2026-08-19T11:17:26.344Z</time>
      </trkpt>
      <trkpt lat="45.92197" lon="6.36819">
        <ele>1318</ele>
        <time>2026-08-19T11:17:27.344Z</time>
      </trkpt>
      <trkpt lat="45.92196" lon="6.36817">
        <ele>1317</ele>
        <time>2026-08-19T11:17:28.344Z</time>
      </trkpt>
      <trkpt lat="45.92195" lon="6.36814">
        <ele>1316</ele>
        <time>2026-08-19T11:17:29.344Z</time>
      </trkpt>
      <trkpt lat="45.92194" lon="6.36812">
        <ele>1316</ele>
        <time>2026-08-19T11:17:30.344Z</time>
      </trkpt>
      <trkpt lat="45.92193" lon="6.36809">
        <ele>1316</ele>
        <time>2026-08-19T11:17:31.344Z</time>
      </trkpt>
      <trkpt lat="45.92191" lon="6.36807">
        <ele>1315</ele>
        <time>2026-08-19T11:17:32.344Z</time>
      </trkpt>
      <trkpt lat="45.9219" lon="6.36804">
        <ele>1315</ele>
        <time>2026-08-19T11:17:33.344Z</time>
      </trkpt>
      <trkpt lat="45.92189" lon="6.36802">
        <ele>1315</ele>
        <time>2026-08-19T11:17:34.344Z</time>
      </trkpt>
      <trkpt lat="45.92188" lon="6.368">
        <ele>1315</ele>
        <time>2026-08-19T11:17:35.344Z</time>
      </trkpt>
      <trkpt lat="45.92187" lon="6.36797">
        <ele>1316</ele>
        <time>2026-08-19T11:17:36.344Z</time>
      </trkpt>
      <trkpt lat="45.92186" lon="6.36795">
        <ele>1316</ele>
        <time>2026-08-19T11:17:37.344Z</time>
      </trkpt>
      <trkpt lat="45.92185" lon="6.36793">
        <ele>1316</ele>
        <time>2026-08-19T11:17:38.344Z</time>
      </trkpt>
      <trkpt lat="45.92184" lon="6.3679">
        <ele>1316</ele>
        <time>2026-08-19T11:17:39.344Z</time>
      </trkpt>
      <trkpt lat="45.92183" lon="6.36788">
        <ele>1317</ele>
        <time>2026-08-19T11:17:40.344Z</time>
      </trkpt>
      <trkpt lat="45.92182" lon="6.36786">
        <ele>1317</ele>
        <time>2026-08-19T11:17:41.345Z</time>
      </trkpt>
      <trkpt lat="45.92181" lon="6.36784">
        <ele>1317</ele>
        <time>2026-08-19T11:17:42.344Z</time>
      </trkpt>
      <trkpt lat="45.9218" lon="6.36782">
        <ele>1317</ele>
        <time>2026-08-19T11:17:43.344Z</time>
      </trkpt>
      <trkpt lat="45.92179" lon="6.36781">
        <ele>1317</ele>
        <time>2026-08-19T11:17:44.344Z</time>
      </trkpt>
      <trkpt lat="45.92178" lon="6.36779">
        <ele>1317</ele>
        <time>2026-08-19T11:17:45.344Z</time>
      </trkpt>
      <trkpt lat="45.92176" lon="6.36778">
        <ele>1318</ele>
        <time>2026-08-19T11:17:46.344Z</time>
      </trkpt>
      <trkpt lat="45.92175" lon="6.36776">
        <ele>1318</ele>
        <time>2026-08-19T11:17:47.344Z</time>
      </trkpt>
      <trkpt lat="45.92173" lon="6.36775">
        <ele>1318</ele>
        <time>2026-08-19T11:17:48.344Z</time>
      </trkpt>
      <trkpt lat="45.92172" lon="6.36774">
        <ele>1318</ele>
        <time>2026-08-19T11:17:49.344Z</time>
      </trkpt>
      <trkpt lat="45.9217" lon="6.36773">
        <ele>1317</ele>
        <time>2026-08-19T11:17:50.344Z</time>
      </trkpt>
      <trkpt lat="45.92168" lon="6.36772">
        <ele>1316</ele>
        <time>2026-08-19T11:17:51.344Z</time>
      </trkpt>
      <trkpt lat="45.92167" lon="6.3677">
        <ele>1316</ele>
        <time>2026-08-19T11:17:52.344Z</time>
      </trkpt>
      <trkpt lat="45.92166" lon="6.36769">
        <ele>1315</ele>
        <time>2026-08-19T11:17:53.344Z</time>
      </trkpt>
      <trkpt lat="45.92163" lon="6.36768">
        <ele>1314</ele>
        <time>2026-08-19T11:17:54.344Z</time>
      </trkpt>
      <trkpt lat="45.92161" lon="6.36768">
        <ele>1314</ele>
        <time>2026-08-19T11:17:55.344Z</time>
      </trkpt>
      <trkpt lat="45.9216" lon="6.36768">
        <ele>1313</ele>
        <time>2026-08-19T11:17:56.344Z</time>
      </trkpt>
      <trkpt lat="45.92157" lon="6.36767">
        <ele>1313</ele>
        <time>2026-08-19T11:17:57.344Z</time>
      </trkpt>
      <trkpt lat="45.92155" lon="6.36767">
        <ele>1312</ele>
        <time>2026-08-19T11:17:58.344Z</time>
      </trkpt>
      <trkpt lat="45.92154" lon="6.36767">
        <ele>1312</ele>
        <time>2026-08-19T11:17:59.344Z</time>
      </trkpt>
      <trkpt lat="45.92152" lon="6.36766">
        <ele>1311</ele>
        <time>2026-08-19T11:18:00.344Z</time>
      </trkpt>
      <trkpt lat="45.9215" lon="6.36765">
        <ele>1310</ele>
        <time>2026-08-19T11:18:01.345Z</time>
      </trkpt>
      <trkpt lat="45.92148" lon="6.36765">
        <ele>1309</ele>
        <time>2026-08-19T11:18:02.344Z</time>
      </trkpt>
      <trkpt lat="45.92146" lon="6.36764">
        <ele>1308</ele>
        <time>2026-08-19T11:18:03.344Z</time>
      </trkpt>
      <trkpt lat="45.92145" lon="6.36763">
        <ele>1308</ele>
        <time>2026-08-19T11:18:04.344Z</time>
      </trkpt>
      <trkpt lat="45.92143" lon="6.36762">
        <ele>1308</ele>
        <time>2026-08-19T11:18:05.344Z</time>
      </trkpt>
      <trkpt lat="45.92141" lon="6.36761">
        <ele>1307</ele>
        <time>2026-08-19T11:18:06.344Z</time>
      </trkpt>
      <trkpt lat="45.92139" lon="6.3676">
        <ele>1307</ele>
        <time>2026-08-19T11:18:07.344Z</time>
      </trkpt>
      <trkpt lat="45.92138" lon="6.3676">
        <ele>1306</ele>
        <time>2026-08-19T11:18:08.344Z</time>
      </trkpt>
      <trkpt lat="45.92136" lon="6.36759">
        <ele>1305</ele>
        <time>2026-08-19T11:18:09.344Z</time>
      </trkpt>
      <trkpt lat="45.92135" lon="6.36758">
        <ele>1304</ele>
        <time>2026-08-19T11:18:10.344Z</time>
      </trkpt>
      <trkpt lat="45.92133" lon="6.36758">
        <ele>1303</ele>
        <time>2026-08-19T11:18:11.344Z</time>
      </trkpt>
      <trkpt lat="45.92132" lon="6.36758">
        <ele>1303</ele>
        <time>2026-08-19T11:18:12.344Z</time>
      </trkpt>
      <trkpt lat="45.9213" lon="6.36757">
        <ele>1303</ele>
        <time>2026-08-19T11:18:13.344Z</time>
      </trkpt>
      <trkpt lat="45.92129" lon="6.36757">
        <ele>1302</ele>
        <time>2026-08-19T11:18:14.344Z</time>
      </trkpt>
      <trkpt lat="45.92128" lon="6.36757">
        <ele>1301</ele>
        <time>2026-08-19T11:18:15.344Z</time>
      </trkpt>
      <trkpt lat="45.92126" lon="6.36756">
        <ele>1301</ele>
        <time>2026-08-19T11:18:16.344Z</time>
      </trkpt>
      <trkpt lat="45.92125" lon="6.36756">
        <ele>1300</ele>
        <time>2026-08-19T11:18:17.344Z</time>
      </trkpt>
      <trkpt lat="45.92123" lon="6.36755">
        <ele>1300</ele>
        <time>2026-08-19T11:18:18.344Z</time>
      </trkpt>
      <trkpt lat="45.92122" lon="6.36754">
        <ele>1300</ele>
        <time>2026-08-19T11:18:19.344Z</time>
      </trkpt>
      <trkpt lat="45.9212" lon="6.36753">
        <ele>1299</ele>
        <time>2026-08-19T11:18:20.344Z</time>
      </trkpt>
      <trkpt lat="45.92119" lon="6.36751">
        <ele>1299</ele>
        <time>2026-08-19T11:18:21.344Z</time>
      </trkpt>
      <trkpt lat="45.92118" lon="6.36749">
        <ele>1299</ele>
        <time>2026-08-19T11:18:22.344Z</time>
      </trkpt>
      <trkpt lat="45.92117" lon="6.36747">
        <ele>1299</ele>
        <time>2026-08-19T11:18:23.344Z</time>
      </trkpt>
      <trkpt lat="45.92116" lon="6.36745">
        <ele>1299</ele>
        <time>2026-08-19T11:18:24.344Z</time>
      </trkpt>
      <trkpt lat="45.92115" lon="6.36742">
        <ele>1299</ele>
        <time>2026-08-19T11:18:25.344Z</time>
      </trkpt>
      <trkpt lat="45.92114" lon="6.3674">
        <ele>1299</ele>
        <time>2026-08-19T11:18:26.344Z</time>
      </trkpt>
      <trkpt lat="45.92113" lon="6.36737">
        <ele>1299</ele>
        <time>2026-08-19T11:18:27.344Z</time>
      </trkpt>
      <trkpt lat="45.92112" lon="6.36735">
        <ele>1300</ele>
        <time>2026-08-19T11:18:28.344Z</time>
      </trkpt>
      <trkpt lat="45.92111" lon="6.36733">
        <ele>1300</ele>
        <time>2026-08-19T11:18:29.344Z</time>
      </trkpt>
      <trkpt lat="45.92109" lon="6.36731">
        <ele>1299</ele>
        <time>2026-08-19T11:18:30.344Z</time>
      </trkpt>
      <trkpt lat="45.92108" lon="6.3673">
        <ele>1299</ele>
        <time>2026-08-19T11:18:31.344Z</time>
      </trkpt>
      <trkpt lat="45.92107" lon="6.36728">
        <ele>1299</ele>
        <time>2026-08-19T11:18:32.344Z</time>
      </trkpt>
      <trkpt lat="45.92106" lon="6.36727">
        <ele>1299</ele>
        <time>2026-08-19T11:18:33.344Z</time>
      </trkpt>
      <trkpt lat="45.92105" lon="6.36725">
        <ele>1299</ele>
        <time>2026-08-19T11:18:34.344Z</time>
      </trkpt>
      <trkpt lat="45.92103" lon="6.36724">
        <ele>1299</ele>
        <time>2026-08-19T11:18:35.344Z</time>
      </trkpt>
      <trkpt lat="45.92102" lon="6.36723">
        <ele>1299</ele>
        <time>2026-08-19T11:18:36.344Z</time>
      </trkpt>
      <trkpt lat="45.92101" lon="6.36722">
        <ele>1299</ele>
        <time>2026-08-19T11:18:37.344Z</time>
      </trkpt>
      <trkpt lat="45.92099" lon="6.36721">
        <ele>1299</ele>
        <time>2026-08-19T11:18:38.344Z</time>
      </trkpt>
      <trkpt lat="45.92098" lon="6.36721">
        <ele>1298</ele>
        <time>2026-08-19T11:18:39.344Z</time>
      </trkpt>
      <trkpt lat="45.92098" lon="6.3672">
        <ele>1298</ele>
        <time>2026-08-19T11:18:40.344Z</time>
      </trkpt>
      <trkpt lat="45.92097" lon="6.3672">
        <ele>1298</ele>
        <time>2026-08-19T11:18:41.344Z</time>
      </trkpt>
      <trkpt lat="45.92097" lon="6.36719">
        <ele>1298</ele>
        <time>2026-08-19T11:18:42.344Z</time>
      </trkpt>
      <trkpt lat="45.92096" lon="6.36719">
        <ele>1298</ele>
        <time>2026-08-19T11:18:43.344Z</time>
      </trkpt>
      <trkpt lat="45.92096" lon="6.36719">
        <ele>1298</ele>
        <time>2026-08-19T11:18:44.344Z</time>
      </trkpt>
      <trkpt lat="45.92096" lon="6.36718">
        <ele>1298</ele>
        <time>2026-08-19T11:18:45.344Z</time>
      </trkpt>
      <trkpt lat="45.92096" lon="6.36718">
        <ele>1298</ele>
        <time>2026-08-19T11:18:46.344Z</time>
      </trkpt>
      <trkpt lat="45.92096" lon="6.36717">
        <ele>1298</ele>
        <time>2026-08-19T11:18:47.344Z</time>
      </trkpt>
      <trkpt lat="45.92096" lon="6.36717">
        <ele>1298</ele>
        <time>2026-08-19T11:18:48.344Z</time>
      </trkpt>
      <trkpt lat="45.92096" lon="6.36717">
        <ele>1298</ele>
        <time>2026-08-19T11:18:49.344Z</time>
      </trkpt>
      <trkpt lat="45.92097" lon="6.36717">
        <ele>1298</ele>
        <time>2026-08-19T11:18:50.344Z</time>
      </trkpt>
      <trkpt lat="45.92097" lon="6.36717">
        <ele>1297</ele>
        <time>2026-08-19T11:18:51.344Z</time>
      </trkpt>
      <trkpt lat="45.92097" lon="6.36717">
        <ele>1297</ele>
        <time>2026-08-19T11:18:52.344Z</time>
      </trkpt>
      <trkpt lat="45.92097" lon="6.36717">
        <ele>1297</ele>
        <time>2026-08-19T11:18:53.344Z</time>
      </trkpt>
      <trkpt lat="45.92097" lon="6.36717">
        <ele>1297</ele>
        <time>2026-08-19T11:18:54.344Z</time>
      </trkpt>
      <trkpt lat="45.92097" lon="6.36717">
        <ele>1297</ele>
        <time>2026-08-19T11:18:55.344Z</time>
      </trkpt>
      <trkpt lat="45.92097" lon="6.36717">
        <ele>1297</ele>
        <time>2026-08-19T11:18:56.344Z</time>
      </trkpt>
      <trkpt lat="45.92096" lon="6.36717">
        <ele>1296</ele>
        <time>2026-08-19T11:18:57.344Z</time>
      </trkpt>
      <trkpt lat="45.92096" lon="6.36716">
        <ele>1296</ele>
        <time>2026-08-19T11:18:58.344Z</time>
      </trkpt>
      <trkpt lat="45.92095" lon="6.36715">
        <ele>1295</ele>
        <time>2026-08-19T11:18:59.344Z</time>
      </trkpt>
      <trkpt lat="45.92094" lon="6.36714">
        <ele>1295</ele>
        <time>2026-08-19T11:19:00.344Z</time>
      </trkpt>
      <trkpt lat="45.92093" lon="6.36712">
        <ele>1295</ele>
        <time>2026-08-19T11:19:01.344Z</time>
      </trkpt>
      <trkpt lat="45.92092" lon="6.36711">
        <ele>1294</ele>
        <time>2026-08-19T11:19:02.344Z</time>
      </trkpt>
      <trkpt lat="45.92091" lon="6.3671">
        <ele>1294</ele>
        <time>2026-08-19T11:19:03.344Z</time>
      </trkpt>
      <trkpt lat="45.9209" lon="6.36709">
        <ele>1295</ele>
        <time>2026-08-19T11:19:04.344Z</time>
      </trkpt>
      <trkpt lat="45.92089" lon="6.36709">
        <ele>1295</ele>
        <time>2026-08-19T11:19:05.344Z</time>
      </trkpt>
      <trkpt lat="45.92087" lon="6.36708">
        <ele>1295</ele>
        <time>2026-08-19T11:19:06.344Z</time>
      </trkpt>
      <trkpt lat="45.92085" lon="6.36706">
        <ele>1296</ele>
        <time>2026-08-19T11:19:07.344Z</time>
      </trkpt>
      <trkpt lat="45.92083" lon="6.36705">
        <ele>1296</ele>
        <time>2026-08-19T11:19:08.344Z</time>
      </trkpt>
      <trkpt lat="45.92081" lon="6.36703">
        <ele>1297</ele>
        <time>2026-08-19T11:19:09.344Z</time>
      </trkpt>
      <trkpt lat="45.9208" lon="6.36701">
        <ele>1297</ele>
        <time>2026-08-19T11:19:10.344Z</time>
      </trkpt>
      <trkpt lat="45.92078" lon="6.367">
        <ele>1297</ele>
        <time>2026-08-19T11:19:11.344Z</time>
      </trkpt>
      <trkpt lat="45.92076" lon="6.36697">
        <ele>1298</ele>
        <time>2026-08-19T11:19:12.344Z</time>
      </trkpt>
      <trkpt lat="45.92075" lon="6.36695">
        <ele>1298</ele>
        <time>2026-08-19T11:19:13.344Z</time>
      </trkpt>
      <trkpt lat="45.92073" lon="6.36694">
        <ele>1299</ele>
        <time>2026-08-19T11:19:14.344Z</time>
      </trkpt>
      <trkpt lat="45.92072" lon="6.36692">
        <ele>1299</ele>
        <time>2026-08-19T11:19:15.344Z</time>
      </trkpt>
      <trkpt lat="45.9207" lon="6.3669">
        <ele>1300</ele>
        <time>2026-08-19T11:19:16.344Z</time>
      </trkpt>
      <trkpt lat="45.92068" lon="6.36687">
        <ele>1300</ele>
        <time>2026-08-19T11:19:17.344Z</time>
      </trkpt>
      <trkpt lat="45.92067" lon="6.36684">
        <ele>1301</ele>
        <time>2026-08-19T11:19:18.344Z</time>
      </trkpt>
      <trkpt lat="45.92066" lon="6.36682">
        <ele>1301</ele>
        <time>2026-08-19T11:19:19.344Z</time>
      </trkpt>
      <trkpt lat="45.92066" lon="6.36679">
        <ele>1301</ele>
        <time>2026-08-19T11:19:20.344Z</time>
      </trkpt>
      <trkpt lat="45.92065" lon="6.36676">
        <ele>1301</ele>
        <time>2026-08-19T11:19:21.344Z</time>
      </trkpt>
      <trkpt lat="45.92064" lon="6.36674">
        <ele>1301</ele>
        <time>2026-08-19T11:19:22.344Z</time>
      </trkpt>
      <trkpt lat="45.92063" lon="6.36672">
        <ele>1301</ele>
        <time>2026-08-19T11:19:23.344Z</time>
      </trkpt>
      <trkpt lat="45.92063" lon="6.36672">
        <ele>1301</ele>
        <time>2026-08-19T11:19:24.344Z</time>
      </trkpt>
      <trkpt lat="45.92061" lon="6.36671">
        <ele>1301</ele>
        <time>2026-08-19T11:19:25.344Z</time>
      </trkpt>
      <trkpt lat="45.9206" lon="6.36669">
        <ele>1301</ele>
        <time>2026-08-19T11:19:26.344Z</time>
      </trkpt>
      <trkpt lat="45.92058" lon="6.36666">
        <ele>1301</ele>
        <time>2026-08-19T11:19:27.344Z</time>
      </trkpt>
      <trkpt lat="45.92056" lon="6.36662">
        <ele>1301</ele>
        <time>2026-08-19T11:19:28.344Z</time>
      </trkpt>
      <trkpt lat="45.92055" lon="6.36659">
        <ele>1301</ele>
        <time>2026-08-19T11:19:29.344Z</time>
      </trkpt>
      <trkpt lat="45.92054" lon="6.36656">
        <ele>1301</ele>
        <time>2026-08-19T11:19:30.344Z</time>
      </trkpt>
      <trkpt lat="45.92052" lon="6.36654">
        <ele>1301</ele>
        <time>2026-08-19T11:19:31.345Z</time>
      </trkpt>
      <trkpt lat="45.92051" lon="6.36652">
        <ele>1301</ele>
        <time>2026-08-19T11:19:32.344Z</time>
      </trkpt>
      <trkpt lat="45.9205" lon="6.3665">
        <ele>1301</ele>
        <time>2026-08-19T11:19:33.344Z</time>
      </trkpt>
      <trkpt lat="45.92048" lon="6.36648">
        <ele>1301</ele>
        <time>2026-08-19T11:19:34.344Z</time>
      </trkpt>
      <trkpt lat="45.92046" lon="6.36646">
        <ele>1301</ele>
        <time>2026-08-19T11:19:35.344Z</time>
      </trkpt>
      <trkpt lat="45.92045" lon="6.36643">
        <ele>1301</ele>
        <time>2026-08-19T11:19:36.344Z</time>
      </trkpt>
      <trkpt lat="45.92044" lon="6.3664">
        <ele>1302</ele>
        <time>2026-08-19T11:19:37.344Z</time>
      </trkpt>
      <trkpt lat="45.92042" lon="6.36637">
        <ele>1302</ele>
        <time>2026-08-19T11:19:38.344Z</time>
      </trkpt>
      <trkpt lat="45.92041" lon="6.36633">
        <ele>1302</ele>
        <time>2026-08-19T11:19:39.344Z</time>
      </trkpt>
      <trkpt lat="45.9204" lon="6.3663">
        <ele>1302</ele>
        <time>2026-08-19T11:19:40.344Z</time>
      </trkpt>
      <trkpt lat="45.92038" lon="6.36628">
        <ele>1302</ele>
        <time>2026-08-19T11:19:41.344Z</time>
      </trkpt>
      <trkpt lat="45.92038" lon="6.36625">
        <ele>1302</ele>
        <time>2026-08-19T11:19:42.344Z</time>
      </trkpt>
      <trkpt lat="45.92037" lon="6.36622">
        <ele>1301</ele>
        <time>2026-08-19T11:19:43.345Z</time>
      </trkpt>
      <trkpt lat="45.92036" lon="6.36619">
        <ele>1301</ele>
        <time>2026-08-19T11:19:44.344Z</time>
      </trkpt>
      <trkpt lat="45.92035" lon="6.36616">
        <ele>1300</ele>
        <time>2026-08-19T11:19:45.344Z</time>
      </trkpt>
      <trkpt lat="45.92033" lon="6.36612">
        <ele>1299</ele>
        <time>2026-08-19T11:19:46.344Z</time>
      </trkpt>
      <trkpt lat="45.92032" lon="6.3661">
        <ele>1299</ele>
        <time>2026-08-19T11:19:47.344Z</time>
      </trkpt>
      <trkpt lat="45.92031" lon="6.36607">
        <ele>1298</ele>
        <time>2026-08-19T11:19:48.344Z</time>
      </trkpt>
      <trkpt lat="45.92029" lon="6.36605">
        <ele>1298</ele>
        <time>2026-08-19T11:19:49.344Z</time>
      </trkpt>
      <trkpt lat="45.92028" lon="6.36603">
        <ele>1297</ele>
        <time>2026-08-19T11:19:50.344Z</time>
      </trkpt>
      <trkpt lat="45.92027" lon="6.366">
        <ele>1297</ele>
        <time>2026-08-19T11:19:51.344Z</time>
      </trkpt>
      <trkpt lat="45.92026" lon="6.36596">
        <ele>1296</ele>
        <time>2026-08-19T11:19:52.344Z</time>
      </trkpt>
      <trkpt lat="45.92025" lon="6.36594">
        <ele>1295</ele>
        <time>2026-08-19T11:19:53.344Z</time>
      </trkpt>
      <trkpt lat="45.92024" lon="6.36591">
        <ele>1295</ele>
        <time>2026-08-19T11:19:54.344Z</time>
      </trkpt>
      <trkpt lat="45.92023" lon="6.36588">
        <ele>1294</ele>
        <time>2026-08-19T11:19:55.344Z</time>
      </trkpt>
      <trkpt lat="45.92022" lon="6.36585">
        <ele>1294</ele>
        <time>2026-08-19T11:19:56.344Z</time>
      </trkpt>
      <trkpt lat="45.92021" lon="6.36582">
        <ele>1294</ele>
        <time>2026-08-19T11:19:57.344Z</time>
      </trkpt>
      <trkpt lat="45.9202" lon="6.36579">
        <ele>1294</ele>
        <time>2026-08-19T11:19:58.344Z</time>
      </trkpt>
      <trkpt lat="45.92019" lon="6.36576">
        <ele>1294</ele>
        <time>2026-08-19T11:19:59.344Z</time>
      </trkpt>
      <trkpt lat="45.92018" lon="6.36573">
        <ele>1294</ele>
        <time>2026-08-19T11:20:00.344Z</time>
      </trkpt>
      <trkpt lat="45.92017" lon="6.3657">
        <ele>1294</ele>
        <time>2026-08-19T11:20:01.344Z</time>
      </trkpt>
      <trkpt lat="45.92017" lon="6.36567">
        <ele>1294</ele>
        <time>2026-08-19T11:20:02.344Z</time>
      </trkpt>
      <trkpt lat="45.92016" lon="6.36564">
        <ele>1293</ele>
        <time>2026-08-19T11:20:03.344Z</time>
      </trkpt>
      <trkpt lat="45.92016" lon="6.3656">
        <ele>1293</ele>
        <time>2026-08-19T11:20:04.344Z</time>
      </trkpt>
      <trkpt lat="45.92016" lon="6.36557">
        <ele>1293</ele>
        <time>2026-08-19T11:20:05.344Z</time>
      </trkpt>
      <trkpt lat="45.92015" lon="6.36553">
        <ele>1293</ele>
        <time>2026-08-19T11:20:06.344Z</time>
      </trkpt>
      <trkpt lat="45.92014" lon="6.3655">
        <ele>1292</ele>
        <time>2026-08-19T11:20:07.344Z</time>
      </trkpt>
      <trkpt lat="45.92013" lon="6.36547">
        <ele>1292</ele>
        <time>2026-08-19T11:20:08.344Z</time>
      </trkpt>
      <trkpt lat="45.92012" lon="6.36544">
        <ele>1292</ele>
        <time>2026-08-19T11:20:09.344Z</time>
      </trkpt>
      <trkpt lat="45.92011" lon="6.36541">
        <ele>1292</ele>
        <time>2026-08-19T11:20:10.344Z</time>
      </trkpt>
      <trkpt lat="45.92009" lon="6.36538">
        <ele>1292</ele>
        <time>2026-08-19T11:20:11.344Z</time>
      </trkpt>
      <trkpt lat="45.92008" lon="6.36535">
        <ele>1292</ele>
        <time>2026-08-19T11:20:12.344Z</time>
      </trkpt>
      <trkpt lat="45.92007" lon="6.36532">
        <ele>1292</ele>
        <time>2026-08-19T11:20:13.344Z</time>
      </trkpt>
      <trkpt lat="45.92005" lon="6.36529">
        <ele>1292</ele>
        <time>2026-08-19T11:20:14.344Z</time>
      </trkpt>
      <trkpt lat="45.92004" lon="6.36527">
        <ele>1292</ele>
        <time>2026-08-19T11:20:15.344Z</time>
      </trkpt>
      <trkpt lat="45.92003" lon="6.36524">
        <ele>1292</ele>
        <time>2026-08-19T11:20:16.344Z</time>
      </trkpt>
      <trkpt lat="45.92002" lon="6.36522">
        <ele>1292</ele>
        <time>2026-08-19T11:20:17.344Z</time>
      </trkpt>
      <trkpt lat="45.92001" lon="6.36519">
        <ele>1292</ele>
        <time>2026-08-19T11:20:18.344Z</time>
      </trkpt>
      <trkpt lat="45.91999" lon="6.36517">
        <ele>1292</ele>
        <time>2026-08-19T11:20:19.344Z</time>
      </trkpt>
      <trkpt lat="45.91998" lon="6.36515">
        <ele>1291</ele>
        <time>2026-08-19T11:20:20.344Z</time>
      </trkpt>
      <trkpt lat="45.91997" lon="6.36513">
        <ele>1291</ele>
        <time>2026-08-19T11:20:21.344Z</time>
      </trkpt>
      <trkpt lat="45.91997" lon="6.36511">
        <ele>1291</ele>
        <time>2026-08-19T11:20:22.344Z</time>
      </trkpt>
      <trkpt lat="45.91996" lon="6.3651">
        <ele>1291</ele>
        <time>2026-08-19T11:20:23.345Z</time>
      </trkpt>
      <trkpt lat="45.91996" lon="6.36508">
        <ele>1290</ele>
        <time>2026-08-19T11:20:24.344Z</time>
      </trkpt>
      <trkpt lat="45.91996" lon="6.36506">
        <ele>1289</ele>
        <time>2026-08-19T11:20:25.344Z</time>
      </trkpt>
      <trkpt lat="45.91995" lon="6.36504">
        <ele>1289</ele>
        <time>2026-08-19T11:20:26.344Z</time>
      </trkpt>
      <trkpt lat="45.91995" lon="6.36502">
        <ele>1289</ele>
        <time>2026-08-19T11:20:27.344Z</time>
      </trkpt>
      <trkpt lat="45.91994" lon="6.36501">
        <ele>1288</ele>
        <time>2026-08-19T11:20:28.344Z</time>
      </trkpt>
      <trkpt lat="45.91994" lon="6.36499">
        <ele>1288</ele>
        <time>2026-08-19T11:20:29.344Z</time>
      </trkpt>
      <trkpt lat="45.91994" lon="6.36498">
        <ele>1288</ele>
        <time>2026-08-19T11:20:30.344Z</time>
      </trkpt>
      <trkpt lat="45.91994" lon="6.36496">
        <ele>1288</ele>
        <time>2026-08-19T11:20:31.344Z</time>
      </trkpt>
      <trkpt lat="45.91993" lon="6.36494">
        <ele>1288</ele>
        <time>2026-08-19T11:20:32.344Z</time>
      </trkpt>
      <trkpt lat="45.91993" lon="6.36493">
        <ele>1288</ele>
        <time>2026-08-19T11:20:33.344Z</time>
      </trkpt>
      <trkpt lat="45.91992" lon="6.3649">
        <ele>1288</ele>
        <time>2026-08-19T11:20:34.344Z</time>
      </trkpt>
      <trkpt lat="45.91992" lon="6.36488">
        <ele>1288</ele>
        <time>2026-08-19T11:20:35.344Z</time>
      </trkpt>
      <trkpt lat="45.91991" lon="6.36486">
        <ele>1288</ele>
        <time>2026-08-19T11:20:36.344Z</time>
      </trkpt>
      <trkpt lat="45.91991" lon="6.36484">
        <ele>1288</ele>
        <time>2026-08-19T11:20:37.344Z</time>
      </trkpt>
      <trkpt lat="45.9199" lon="6.36481">
        <ele>1288</ele>
        <time>2026-08-19T11:20:38.344Z</time>
      </trkpt>
      <trkpt lat="45.91989" lon="6.36479">
        <ele>1287</ele>
        <time>2026-08-19T11:20:39.344Z</time>
      </trkpt>
      <trkpt lat="45.91988" lon="6.36476">
        <ele>1287</ele>
        <time>2026-08-19T11:20:40.344Z</time>
      </trkpt>
      <trkpt lat="45.91988" lon="6.36473">
        <ele>1287</ele>
        <time>2026-08-19T11:20:41.344Z</time>
      </trkpt>
      <trkpt lat="45.91987" lon="6.3647">
        <ele>1286</ele>
        <time>2026-08-19T11:20:42.344Z</time>
      </trkpt>
      <trkpt lat="45.91986" lon="6.36467">
        <ele>1287</ele>
        <time>2026-08-19T11:20:43.344Z</time>
      </trkpt>
      <trkpt lat="45.91985" lon="6.36465">
        <ele>1287</ele>
        <time>2026-08-19T11:20:44.344Z</time>
      </trkpt>
      <trkpt lat="45.91984" lon="6.36462">
        <ele>1286</ele>
        <time>2026-08-19T11:20:45.344Z</time>
      </trkpt>
      <trkpt lat="45.91984" lon="6.3646">
        <ele>1286</ele>
        <time>2026-08-19T11:20:46.344Z</time>
      </trkpt>
      <trkpt lat="45.91983" lon="6.36458">
        <ele>1286</ele>
        <time>2026-08-19T11:20:47.344Z</time>
      </trkpt>
      <trkpt lat="45.91982" lon="6.36457">
        <ele>1286</ele>
        <time>2026-08-19T11:20:48.344Z</time>
      </trkpt>
      <trkpt lat="45.91982" lon="6.36456">
        <ele>1287</ele>
        <time>2026-08-19T11:20:49.344Z</time>
      </trkpt>
      <trkpt lat="45.91982" lon="6.36455">
        <ele>1287</ele>
        <time>2026-08-19T11:20:50.344Z</time>
      </trkpt>
      <trkpt lat="45.91981" lon="6.36454">
        <ele>1288</ele>
        <time>2026-08-19T11:20:51.344Z</time>
      </trkpt>
      <trkpt lat="45.9198" lon="6.36453">
        <ele>1288</ele>
        <time>2026-08-19T11:20:52.344Z</time>
      </trkpt>
      <trkpt lat="45.91979" lon="6.36453">
        <ele>1288</ele>
        <time>2026-08-19T11:20:53.344Z</time>
      </trkpt>
      <trkpt lat="45.91978" lon="6.36452">
        <ele>1288</ele>
        <time>2026-08-19T11:20:54.344Z</time>
      </trkpt>
      <trkpt lat="45.91977" lon="6.36451">
        <ele>1287</ele>
        <time>2026-08-19T11:20:55.344Z</time>
      </trkpt>
      <trkpt lat="45.91977" lon="6.36451">
        <ele>1287</ele>
        <time>2026-08-19T11:20:56.344Z</time>
      </trkpt>
      <trkpt lat="45.91976" lon="6.36451">
        <ele>1287</ele>
        <time>2026-08-19T11:20:57.344Z</time>
      </trkpt>
      <trkpt lat="45.91976" lon="6.36451">
        <ele>1287</ele>
        <time>2026-08-19T11:20:58.344Z</time>
      </trkpt>
      <trkpt lat="45.91975" lon="6.3645">
        <ele>1288</ele>
        <time>2026-08-19T11:20:59.344Z</time>
      </trkpt>
      <trkpt lat="45.91974" lon="6.36449">
        <ele>1288</ele>
        <time>2026-08-19T11:21:00.344Z</time>
      </trkpt>
      <trkpt lat="45.91973" lon="6.36449">
        <ele>1288</ele>
        <time>2026-08-19T11:21:01.344Z</time>
      </trkpt>
      <trkpt lat="45.91973" lon="6.36448">
        <ele>1288</ele>
        <time>2026-08-19T11:21:02.344Z</time>
      </trkpt>
      <trkpt lat="45.91972" lon="6.36447">
        <ele>1288</ele>
        <time>2026-08-19T11:21:03.344Z</time>
      </trkpt>
      <trkpt lat="45.91971" lon="6.36445">
        <ele>1288</ele>
        <time>2026-08-19T11:21:04.344Z</time>
      </trkpt>
      <trkpt lat="45.91971" lon="6.36443">
        <ele>1288</ele>
        <time>2026-08-19T11:21:05.344Z</time>
      </trkpt>
      <trkpt lat="45.9197" lon="6.36442">
        <ele>1288</ele>
        <time>2026-08-19T11:21:06.344Z</time>
      </trkpt>
      <trkpt lat="45.9197" lon="6.36441">
        <ele>1288</ele>
        <time>2026-08-19T11:21:07.344Z</time>
      </trkpt>
      <trkpt lat="45.91969" lon="6.3644">
        <ele>1288</ele>
        <time>2026-08-19T11:21:08.344Z</time>
      </trkpt>
      <trkpt lat="45.91969" lon="6.36438">
        <ele>1288</ele>
        <time>2026-08-19T11:21:09.344Z</time>
      </trkpt>
      <trkpt lat="45.91969" lon="6.36437">
        <ele>1289</ele>
        <time>2026-08-19T11:21:10.344Z</time>
      </trkpt>
      <trkpt lat="45.91968" lon="6.36435">
        <ele>1289</ele>
        <time>2026-08-19T11:21:11.344Z</time>
      </trkpt>
      <trkpt lat="45.91967" lon="6.36433">
        <ele>1289</ele>
        <time>2026-08-19T11:21:12.344Z</time>
      </trkpt>
      <trkpt lat="45.91966" lon="6.36432">
        <ele>1289</ele>
        <time>2026-08-19T11:21:13.344Z</time>
      </trkpt>
      <trkpt lat="45.91965" lon="6.3643">
        <ele>1289</ele>
        <time>2026-08-19T11:21:14.344Z</time>
      </trkpt>
      <trkpt lat="45.91964" lon="6.36429">
        <ele>1289</ele>
        <time>2026-08-19T11:21:15.344Z</time>
      </trkpt>
      <trkpt lat="45.91963" lon="6.36429">
        <ele>1289</ele>
        <time>2026-08-19T11:21:16.344Z</time>
      </trkpt>
      <trkpt lat="45.91963" lon="6.36428">
        <ele>1289</ele>
        <time>2026-08-19T11:21:17.344Z</time>
      </trkpt>
      <trkpt lat="45.91962" lon="6.36427">
        <ele>1289</ele>
        <time>2026-08-19T11:21:18.344Z</time>
      </trkpt>
      <trkpt lat="45.91961" lon="6.36426">
        <ele>1288</ele>
        <time>2026-08-19T11:21:19.344Z</time>
      </trkpt>
      <trkpt lat="45.9196" lon="6.36425">
        <ele>1288</ele>
        <time>2026-08-19T11:21:20.344Z</time>
      </trkpt>
      <trkpt lat="45.91959" lon="6.36424">
        <ele>1288</ele>
        <time>2026-08-19T11:21:21.344Z</time>
      </trkpt>
      <trkpt lat="45.91959" lon="6.36423">
        <ele>1288</ele>
        <time>2026-08-19T11:21:22.344Z</time>
      </trkpt>
      <trkpt lat="45.91959" lon="6.36422">
        <ele>1287</ele>
        <time>2026-08-19T11:21:23.345Z</time>
      </trkpt>
      <trkpt lat="45.9196" lon="6.36421">
        <ele>1287</ele>
        <time>2026-08-19T11:21:24.344Z</time>
      </trkpt>
      <trkpt lat="45.9196" lon="6.3642">
        <ele>1287</ele>
        <time>2026-08-19T11:21:25.344Z</time>
      </trkpt>
      <trkpt lat="45.91959" lon="6.3642">
        <ele>1286</ele>
        <time>2026-08-19T11:21:26.344Z</time>
      </trkpt>
      <trkpt lat="45.91959" lon="6.36421">
        <ele>1287</ele>
        <time>2026-08-19T11:21:27.344Z</time>
      </trkpt>
      <trkpt lat="45.91958" lon="6.36421">
        <ele>1287</ele>
        <time>2026-08-19T11:21:28.344Z</time>
      </trkpt>
      <trkpt lat="45.91958" lon="6.36421">
        <ele>1287</ele>
        <time>2026-08-19T11:21:29.344Z</time>
      </trkpt>
      <trkpt lat="45.91957" lon="6.36421">
        <ele>1287</ele>
        <time>2026-08-19T11:21:30.344Z</time>
      </trkpt>
      <trkpt lat="45.91956" lon="6.36421">
        <ele>1287</ele>
        <time>2026-08-19T11:21:31.344Z</time>
      </trkpt>
      <trkpt lat="45.91955" lon="6.36422">
        <ele>1287</ele>
        <time>2026-08-19T11:21:32.344Z</time>
      </trkpt>
      <trkpt lat="45.91954" lon="6.36421">
        <ele>1287</ele>
        <time>2026-08-19T11:21:33.344Z</time>
      </trkpt>
      <trkpt lat="45.91953" lon="6.3642">
        <ele>1287</ele>
        <time>2026-08-19T11:21:34.344Z</time>
      </trkpt>
      <trkpt lat="45.91952" lon="6.36419">
        <ele>1287</ele>
        <time>2026-08-19T11:21:35.345Z</time>
      </trkpt>
      <trkpt lat="45.9195" lon="6.36418">
        <ele>1286</ele>
        <time>2026-08-19T11:21:36.344Z</time>
      </trkpt>
      <trkpt lat="45.91949" lon="6.36417">
        <ele>1286</ele>
        <time>2026-08-19T11:21:37.344Z</time>
      </trkpt>
      <trkpt lat="45.91948" lon="6.36415">
        <ele>1285</ele>
        <time>2026-08-19T11:21:38.344Z</time>
      </trkpt>
      <trkpt lat="45.91947" lon="6.36413">
        <ele>1285</ele>
        <time>2026-08-19T11:21:39.344Z</time>
      </trkpt>
      <trkpt lat="45.91945" lon="6.36411">
        <ele>1284</ele>
        <time>2026-08-19T11:21:40.344Z</time>
      </trkpt>
      <trkpt lat="45.91944" lon="6.36408">
        <ele>1283</ele>
        <time>2026-08-19T11:21:41.344Z</time>
      </trkpt>
      <trkpt lat="45.91943" lon="6.36407">
        <ele>1283</ele>
        <time>2026-08-19T11:21:42.344Z</time>
      </trkpt>
      <trkpt lat="45.91941" lon="6.36404">
        <ele>1283</ele>
        <time>2026-08-19T11:21:43.344Z</time>
      </trkpt>
      <trkpt lat="45.9194" lon="6.36402">
        <ele>1283</ele>
        <time>2026-08-19T11:21:44.345Z</time>
      </trkpt>
      <trkpt lat="45.91939" lon="6.364">
        <ele>1282</ele>
        <time>2026-08-19T11:21:45.344Z</time>
      </trkpt>
      <trkpt lat="45.91938" lon="6.36398">
        <ele>1282</ele>
        <time>2026-08-19T11:21:46.344Z</time>
      </trkpt>
      <trkpt lat="45.91938" lon="6.36396">
        <ele>1282</ele>
        <time>2026-08-19T11:21:47.344Z</time>
      </trkpt>
      <trkpt lat="45.91937" lon="6.36395">
        <ele>1281</ele>
        <time>2026-08-19T11:21:48.344Z</time>
      </trkpt>
      <trkpt lat="45.91936" lon="6.36393">
        <ele>1280</ele>
        <time>2026-08-19T11:21:49.344Z</time>
      </trkpt>
      <trkpt lat="45.91936" lon="6.36393">
        <ele>1279</ele>
        <time>2026-08-19T11:21:50.344Z</time>
      </trkpt>
      <trkpt lat="45.91936" lon="6.36392">
        <ele>1278</ele>
        <time>2026-08-19T11:21:51.344Z</time>
      </trkpt>
      <trkpt lat="45.91935" lon="6.36391">
        <ele>1278</ele>
        <time>2026-08-19T11:21:52.345Z</time>
      </trkpt>
      <trkpt lat="45.91935" lon="6.3639">
        <ele>1278</ele>
        <time>2026-08-19T11:21:53.344Z</time>
      </trkpt>
      <trkpt lat="45.91934" lon="6.36389">
        <ele>1278</ele>
        <time>2026-08-19T11:21:54.344Z</time>
      </trkpt>
      <trkpt lat="45.91934" lon="6.36388">
        <ele>1277</ele>
        <time>2026-08-19T11:21:55.344Z</time>
      </trkpt>
      <trkpt lat="45.91933" lon="6.36388">
        <ele>1277</ele>
        <time>2026-08-19T11:21:56.344Z</time>
      </trkpt>
      <trkpt lat="45.91933" lon="6.36386">
        <ele>1277</ele>
        <time>2026-08-19T11:21:57.344Z</time>
      </trkpt>
      <trkpt lat="45.91932" lon="6.36386">
        <ele>1277</ele>
        <time>2026-08-19T11:21:58.344Z</time>
      </trkpt>
      <trkpt lat="45.91932" lon="6.36385">
        <ele>1277</ele>
        <time>2026-08-19T11:21:59.344Z</time>
      </trkpt>
      <trkpt lat="45.91931" lon="6.36385">
        <ele>1277</ele>
        <time>2026-08-19T11:22:00.344Z</time>
      </trkpt>
      <trkpt lat="45.9193" lon="6.36384">
        <ele>1277</ele>
        <time>2026-08-19T11:22:01.344Z</time>
      </trkpt>
      <trkpt lat="45.91929" lon="6.36383">
        <ele>1277</ele>
        <time>2026-08-19T11:22:02.344Z</time>
      </trkpt>
      <trkpt lat="45.91929" lon="6.36381">
        <ele>1276</ele>
        <time>2026-08-19T11:22:03.344Z</time>
      </trkpt>
      <trkpt lat="45.91928" lon="6.3638">
        <ele>1276</ele>
        <time>2026-08-19T11:22:04.345Z</time>
      </trkpt>
      <trkpt lat="45.91928" lon="6.36378">
        <ele>1276</ele>
        <time>2026-08-19T11:22:05.344Z</time>
      </trkpt>
      <trkpt lat="45.91928" lon="6.36376">
        <ele>1275</ele>
        <time>2026-08-19T11:22:06.344Z</time>
      </trkpt>
      <trkpt lat="45.91928" lon="6.36374">
        <ele>1275</ele>
        <time>2026-08-19T11:22:07.344Z</time>
      </trkpt>
      <trkpt lat="45.91929" lon="6.36374">
        <ele>1274</ele>
        <time>2026-08-19T11:22:08.344Z</time>
      </trkpt>
      <trkpt lat="45.91929" lon="6.36373">
        <ele>1274</ele>
        <time>2026-08-19T11:22:09.344Z</time>
      </trkpt>
      <trkpt lat="45.91929" lon="6.36372">
        <ele>1274</ele>
        <time>2026-08-19T11:22:10.344Z</time>
      </trkpt>
      <trkpt lat="45.9193" lon="6.36371">
        <ele>1273</ele>
        <time>2026-08-19T11:22:11.344Z</time>
      </trkpt>
      <trkpt lat="45.91931" lon="6.36371">
        <ele>1273</ele>
        <time>2026-08-19T11:22:12.344Z</time>
      </trkpt>
      <trkpt lat="45.91932" lon="6.36371">
        <ele>1273</ele>
        <time>2026-08-19T11:22:13.344Z</time>
      </trkpt>
      <trkpt lat="45.91933" lon="6.36371">
        <ele>1273</ele>
        <time>2026-08-19T11:22:14.344Z</time>
      </trkpt>
      <trkpt lat="45.91935" lon="6.36369">
        <ele>1273</ele>
        <time>2026-08-19T11:22:15.344Z</time>
      </trkpt>
      <trkpt lat="45.91936" lon="6.36369">
        <ele>1273</ele>
        <time>2026-08-19T11:22:16.344Z</time>
      </trkpt>
      <trkpt lat="45.91937" lon="6.36369">
        <ele>1273</ele>
        <time>2026-08-19T11:22:17.344Z</time>
      </trkpt>
      <trkpt lat="45.91937" lon="6.36368">
        <ele>1273</ele>
        <time>2026-08-19T11:22:18.344Z</time>
      </trkpt>
      <trkpt lat="45.91937" lon="6.36367">
        <ele>1273</ele>
        <time>2026-08-19T11:22:19.344Z</time>
      </trkpt>
      <trkpt lat="45.91937" lon="6.36366">
        <ele>1273</ele>
        <time>2026-08-19T11:22:20.344Z</time>
      </trkpt>
      <trkpt lat="45.91939" lon="6.36365">
        <ele>1272</ele>
        <time>2026-08-19T11:22:21.345Z</time>
      </trkpt>
      <trkpt lat="45.91939" lon="6.36363">
        <ele>1272</ele>
        <time>2026-08-19T11:22:22.344Z</time>
      </trkpt>
      <trkpt lat="45.9194" lon="6.36361">
        <ele>1272</ele>
        <time>2026-08-19T11:22:23.344Z</time>
      </trkpt>
      <trkpt lat="45.91941" lon="6.36359">
        <ele>1271</ele>
        <time>2026-08-19T11:22:24.344Z</time>
      </trkpt>
      <trkpt lat="45.91942" lon="6.36357">
        <ele>1271</ele>
        <time>2026-08-19T11:22:25.344Z</time>
      </trkpt>
      <trkpt lat="45.91944" lon="6.36356">
        <ele>1270</ele>
        <time>2026-08-19T11:22:26.344Z</time>
      </trkpt>
      <trkpt lat="45.91945" lon="6.36354">
        <ele>1270</ele>
        <time>2026-08-19T11:22:27.344Z</time>
      </trkpt>
      <trkpt lat="45.91945" lon="6.36353">
        <ele>1270</ele>
        <time>2026-08-19T11:22:28.344Z</time>
      </trkpt>
      <trkpt lat="45.91946" lon="6.36351">
        <ele>1270</ele>
        <time>2026-08-19T11:22:29.344Z</time>
      </trkpt>
      <trkpt lat="45.91947" lon="6.36349">
        <ele>1269</ele>
        <time>2026-08-19T11:22:30.344Z</time>
      </trkpt>
      <trkpt lat="45.91948" lon="6.36348">
        <ele>1269</ele>
        <time>2026-08-19T11:22:31.344Z</time>
      </trkpt>
      <trkpt lat="45.91949" lon="6.36346">
        <ele>1269</ele>
        <time>2026-08-19T11:22:32.344Z</time>
      </trkpt>
      <trkpt lat="45.9195" lon="6.36345">
        <ele>1268</ele>
        <time>2026-08-19T11:22:33.344Z</time>
      </trkpt>
      <trkpt lat="45.91951" lon="6.36344">
        <ele>1268</ele>
        <time>2026-08-19T11:22:34.344Z</time>
      </trkpt>
      <trkpt lat="45.91952" lon="6.36343">
        <ele>1267</ele>
        <time>2026-08-19T11:22:35.344Z</time>
      </trkpt>
      <trkpt lat="45.91953" lon="6.36341">
        <ele>1267</ele>
        <time>2026-08-19T11:22:36.344Z</time>
      </trkpt>
      <trkpt lat="45.91954" lon="6.36339">
        <ele>1267</ele>
        <time>2026-08-19T11:22:37.344Z</time>
      </trkpt>
      <trkpt lat="45.91954" lon="6.36338">
        <ele>1266</ele>
        <time>2026-08-19T11:22:38.344Z</time>
      </trkpt>
      <trkpt lat="45.91954" lon="6.36337">
        <ele>1266</ele>
        <time>2026-08-19T11:22:39.344Z</time>
      </trkpt>
      <trkpt lat="45.91955" lon="6.36337">
        <ele>1266</ele>
        <time>2026-08-19T11:22:40.344Z</time>
      </trkpt>
      <trkpt lat="45.91957" lon="6.36336">
        <ele>1265</ele>
        <time>2026-08-19T11:22:41.344Z</time>
      </trkpt>
      <trkpt lat="45.91958" lon="6.36335">
        <ele>1265</ele>
        <time>2026-08-19T11:22:42.344Z</time>
      </trkpt>
      <trkpt lat="45.91958" lon="6.36334">
        <ele>1265</ele>
        <time>2026-08-19T11:22:43.344Z</time>
      </trkpt>
      <trkpt lat="45.91959" lon="6.36332">
        <ele>1265</ele>
        <time>2026-08-19T11:22:44.345Z</time>
      </trkpt>
      <trkpt lat="45.9196" lon="6.36331">
        <ele>1264</ele>
        <time>2026-08-19T11:22:45.344Z</time>
      </trkpt>
      <trkpt lat="45.91961" lon="6.3633">
        <ele>1264</ele>
        <time>2026-08-19T11:22:46.344Z</time>
      </trkpt>
      <trkpt lat="45.91961" lon="6.3633">
        <ele>1264</ele>
        <time>2026-08-19T11:22:47.344Z</time>
      </trkpt>
      <trkpt lat="45.91962" lon="6.3633">
        <ele>1264</ele>
        <time>2026-08-19T11:22:48.344Z</time>
      </trkpt>
      <trkpt lat="45.91962" lon="6.3633">
        <ele>1264</ele>
        <time>2026-08-19T11:22:49.344Z</time>
      </trkpt>
      <trkpt lat="45.91962" lon="6.36329">
        <ele>1265</ele>
        <time>2026-08-19T11:22:50.344Z</time>
      </trkpt>
      <trkpt lat="45.91962" lon="6.36329">
        <ele>1265</ele>
        <time>2026-08-19T11:22:51.344Z</time>
      </trkpt>
      <trkpt lat="45.91962" lon="6.36329">
        <ele>1265</ele>
        <time>2026-08-19T11:22:52.344Z</time>
      </trkpt>
      <trkpt lat="45.91962" lon="6.36328">
        <ele>1266</ele>
        <time>2026-08-19T11:22:53.344Z</time>
      </trkpt>
      <trkpt lat="45.91962" lon="6.36328">
        <ele>1266</ele>
        <time>2026-08-19T11:22:54.344Z</time>
      </trkpt>
      <trkpt lat="45.91962" lon="6.36328">
        <ele>1266</ele>
        <time>2026-08-19T11:22:55.344Z</time>
      </trkpt>
      <trkpt lat="45.91962" lon="6.36327">
        <ele>1267</ele>
        <time>2026-08-19T11:22:56.344Z</time>
      </trkpt>
      <trkpt lat="45.91962" lon="6.36327">
        <ele>1267</ele>
        <time>2026-08-19T11:22:57.344Z</time>
      </trkpt>
      <trkpt lat="45.91962" lon="6.36326">
        <ele>1268</ele>
        <time>2026-08-19T11:22:58.344Z</time>
      </trkpt>
      <trkpt lat="45.91962" lon="6.36326">
        <ele>1268</ele>
        <time>2026-08-19T11:22:59.344Z</time>
      </trkpt>
      <trkpt lat="45.91961" lon="6.36325">
        <ele>1269</ele>
        <time>2026-08-19T11:23:00.344Z</time>
      </trkpt>
      <trkpt lat="45.9196" lon="6.36324">
        <ele>1269</ele>
        <time>2026-08-19T11:23:01.344Z</time>
      </trkpt>
      <trkpt lat="45.9196" lon="6.36324">
        <ele>1269</ele>
        <time>2026-08-19T11:23:02.344Z</time>
      </trkpt>
      <trkpt lat="45.91959" lon="6.36323">
        <ele>1269</ele>
        <time>2026-08-19T11:23:03.344Z</time>
      </trkpt>
      <trkpt lat="45.91959" lon="6.36321">
        <ele>1269</ele>
        <time>2026-08-19T11:23:04.344Z</time>
      </trkpt>
      <trkpt lat="45.91958" lon="6.36321">
        <ele>1269</ele>
        <time>2026-08-19T11:23:05.344Z</time>
      </trkpt>
      <trkpt lat="45.91958" lon="6.36321">
        <ele>1270</ele>
        <time>2026-08-19T11:23:06.344Z</time>
      </trkpt>
      <trkpt lat="45.91958" lon="6.3632">
        <ele>1270</ele>
        <time>2026-08-19T11:23:07.344Z</time>
      </trkpt>
      <trkpt lat="45.91957" lon="6.36321">
        <ele>1270</ele>
        <time>2026-08-19T11:23:08.344Z</time>
      </trkpt>
      <trkpt lat="45.91957" lon="6.36321">
        <ele>1271</ele>
        <time>2026-08-19T11:23:09.344Z</time>
      </trkpt>
      <trkpt lat="45.91956" lon="6.36322">
        <ele>1271</ele>
        <time>2026-08-19T11:23:10.344Z</time>
      </trkpt>
      <trkpt lat="45.91955" lon="6.36321">
        <ele>1272</ele>
        <time>2026-08-19T11:23:11.344Z</time>
      </trkpt>
      <trkpt lat="45.91953" lon="6.3632">
        <ele>1272</ele>
        <time>2026-08-19T11:23:12.344Z</time>
      </trkpt>
      <trkpt lat="45.91951" lon="6.36318">
        <ele>1273</ele>
        <time>2026-08-19T11:23:13.344Z</time>
      </trkpt>
      <trkpt lat="45.9195" lon="6.36316">
        <ele>1273</ele>
        <time>2026-08-19T11:23:14.344Z</time>
      </trkpt>
      <trkpt lat="45.91949" lon="6.36314">
        <ele>1273</ele>
        <time>2026-08-19T11:23:15.344Z</time>
      </trkpt>
      <trkpt lat="45.91949" lon="6.36311">
        <ele>1273</ele>
        <time>2026-08-19T11:23:16.344Z</time>
      </trkpt>
      <trkpt lat="45.91948" lon="6.36308">
        <ele>1273</ele>
        <time>2026-08-19T11:23:17.344Z</time>
      </trkpt>
      <trkpt lat="45.91948" lon="6.36306">
        <ele>1273</ele>
        <time>2026-08-19T11:23:18.344Z</time>
      </trkpt>
      <trkpt lat="45.91947" lon="6.36303">
        <ele>1273</ele>
        <time>2026-08-19T11:23:19.344Z</time>
      </trkpt>
      <trkpt lat="45.91946" lon="6.36302">
        <ele>1273</ele>
        <time>2026-08-19T11:23:20.344Z</time>
      </trkpt>
      <trkpt lat="45.91945" lon="6.36299">
        <ele>1273</ele>
        <time>2026-08-19T11:23:21.344Z</time>
      </trkpt>
      <trkpt lat="45.91944" lon="6.36297">
        <ele>1273</ele>
        <time>2026-08-19T11:23:22.344Z</time>
      </trkpt>
      <trkpt lat="45.91943" lon="6.36296">
        <ele>1273</ele>
        <time>2026-08-19T11:23:23.344Z</time>
      </trkpt>
      <trkpt lat="45.91941" lon="6.36295">
        <ele>1273</ele>
        <time>2026-08-19T11:23:24.344Z</time>
      </trkpt>
      <trkpt lat="45.9194" lon="6.36294">
        <ele>1273</ele>
        <time>2026-08-19T11:23:25.344Z</time>
      </trkpt>
      <trkpt lat="45.91939" lon="6.36292">
        <ele>1272</ele>
        <time>2026-08-19T11:23:26.344Z</time>
      </trkpt>
      <trkpt lat="45.91938" lon="6.36291">
        <ele>1272</ele>
        <time>2026-08-19T11:23:27.344Z</time>
      </trkpt>
      <trkpt lat="45.91938" lon="6.36289">
        <ele>1272</ele>
        <time>2026-08-19T11:23:28.344Z</time>
      </trkpt>
      <trkpt lat="45.91937" lon="6.36288">
        <ele>1271</ele>
        <time>2026-08-19T11:23:29.344Z</time>
      </trkpt>
      <trkpt lat="45.91936" lon="6.36288">
        <ele>1271</ele>
        <time>2026-08-19T11:23:30.344Z</time>
      </trkpt>
      <trkpt lat="45.91935" lon="6.36288">
        <ele>1271</ele>
        <time>2026-08-19T11:23:31.344Z</time>
      </trkpt>
      <trkpt lat="45.91935" lon="6.36288">
        <ele>1271</ele>
        <time>2026-08-19T11:23:32.344Z</time>
      </trkpt>
      <trkpt lat="45.91934" lon="6.36288">
        <ele>1271</ele>
        <time>2026-08-19T11:23:33.344Z</time>
      </trkpt>
      <trkpt lat="45.91934" lon="6.36287">
        <ele>1271</ele>
        <time>2026-08-19T11:23:34.344Z</time>
      </trkpt>
      <trkpt lat="45.91934" lon="6.36287">
        <ele>1271</ele>
        <time>2026-08-19T11:23:35.344Z</time>
      </trkpt>
      <trkpt lat="45.91934" lon="6.36288">
        <ele>1271</ele>
        <time>2026-08-19T11:23:36.344Z</time>
      </trkpt>
      <trkpt lat="45.91934" lon="6.36288">
        <ele>1270</ele>
        <time>2026-08-19T11:23:37.344Z</time>
      </trkpt>
      <trkpt lat="45.91934" lon="6.36288">
        <ele>1270</ele>
        <time>2026-08-19T11:23:38.344Z</time>
      </trkpt>
      <trkpt lat="45.91934" lon="6.36288">
        <ele>1270</ele>
        <time>2026-08-19T11:23:39.344Z</time>
      </trkpt>
      <trkpt lat="45.91935" lon="6.36288">
        <ele>1269</ele>
        <time>2026-08-19T11:23:40.344Z</time>
      </trkpt>
      <trkpt lat="45.91935" lon="6.36289">
        <ele>1269</ele>
        <time>2026-08-19T11:23:41.344Z</time>
      </trkpt>
      <trkpt lat="45.91935" lon="6.36289">
        <ele>1269</ele>
        <time>2026-08-19T11:23:42.344Z</time>
      </trkpt>
      <trkpt lat="45.91935" lon="6.36289">
        <ele>1269</ele>
        <time>2026-08-19T11:23:43.344Z</time>
      </trkpt>
      <trkpt lat="45.91935" lon="6.3629">
        <ele>1269</ele>
        <time>2026-08-19T11:23:44.344Z</time>
      </trkpt>
      <trkpt lat="45.91936" lon="6.36291">
        <ele>1268</ele>
        <time>2026-08-19T11:23:45.344Z</time>
      </trkpt>
      <trkpt lat="45.91936" lon="6.36292">
        <ele>1268</ele>
        <time>2026-08-19T11:23:46.344Z</time>
      </trkpt>
      <trkpt lat="45.91936" lon="6.36293">
        <ele>1267</ele>
        <time>2026-08-19T11:23:47.344Z</time>
      </trkpt>
      <trkpt lat="45.91936" lon="6.36294">
        <ele>1267</ele>
        <time>2026-08-19T11:23:48.344Z</time>
      </trkpt>
      <trkpt lat="45.91936" lon="6.36296">
        <ele>1266</ele>
        <time>2026-08-19T11:23:49.344Z</time>
      </trkpt>
      <trkpt lat="45.91936" lon="6.36297">
        <ele>1265</ele>
        <time>2026-08-19T11:23:50.344Z</time>
      </trkpt>
      <trkpt lat="45.91936" lon="6.36299">
        <ele>1265</ele>
        <time>2026-08-19T11:23:51.344Z</time>
      </trkpt>
      <trkpt lat="45.91936" lon="6.36301">
        <ele>1264</ele>
        <time>2026-08-19T11:23:52.344Z</time>
      </trkpt>
      <trkpt lat="45.91935" lon="6.36301">
        <ele>1263</ele>
        <time>2026-08-19T11:23:53.344Z</time>
      </trkpt>
      <trkpt lat="45.91934" lon="6.36301">
        <ele>1263</ele>
        <time>2026-08-19T11:23:54.344Z</time>
      </trkpt>
      <trkpt lat="45.91932" lon="6.36299">
        <ele>1262</ele>
        <time>2026-08-19T11:23:55.344Z</time>
      </trkpt>
      <trkpt lat="45.91931" lon="6.36298">
        <ele>1262</ele>
        <time>2026-08-19T11:23:56.344Z</time>
      </trkpt>
      <trkpt lat="45.9193" lon="6.36297">
        <ele>1262</ele>
        <time>2026-08-19T11:23:57.344Z</time>
      </trkpt>
      <trkpt lat="45.91928" lon="6.36297">
        <ele>1262</ele>
        <time>2026-08-19T11:23:58.344Z</time>
      </trkpt>
      <trkpt lat="45.91927" lon="6.36296">
        <ele>1262</ele>
        <time>2026-08-19T11:23:59.344Z</time>
      </trkpt>
      <trkpt lat="45.91926" lon="6.36295">
        <ele>1262</ele>
        <time>2026-08-19T11:24:00.344Z</time>
      </trkpt>
      <trkpt lat="45.91925" lon="6.36294">
        <ele>1262</ele>
        <time>2026-08-19T11:24:01.344Z</time>
      </trkpt>
      <trkpt lat="45.91924" lon="6.36293">
        <ele>1261</ele>
        <time>2026-08-19T11:24:02.344Z</time>
      </trkpt>
      <trkpt lat="45.91923" lon="6.36292">
        <ele>1261</ele>
        <time>2026-08-19T11:24:03.344Z</time>
      </trkpt>
      <trkpt lat="45.91923" lon="6.36291">
        <ele>1260</ele>
        <time>2026-08-19T11:24:04.344Z</time>
      </trkpt>
      <trkpt lat="45.91922" lon="6.3629">
        <ele>1260</ele>
        <time>2026-08-19T11:24:05.344Z</time>
      </trkpt>
      <trkpt lat="45.9192" lon="6.36289">
        <ele>1260</ele>
        <time>2026-08-19T11:24:06.344Z</time>
      </trkpt>
      <trkpt lat="45.91919" lon="6.36289">
        <ele>1259</ele>
        <time>2026-08-19T11:24:07.344Z</time>
      </trkpt>
      <trkpt lat="45.91918" lon="6.36289">
        <ele>1259</ele>
        <time>2026-08-19T11:24:08.344Z</time>
      </trkpt>
      <trkpt lat="45.91916" lon="6.36289">
        <ele>1259</ele>
        <time>2026-08-19T11:24:09.344Z</time>
      </trkpt>
      <trkpt lat="45.91915" lon="6.36289">
        <ele>1258</ele>
        <time>2026-08-19T11:24:10.344Z</time>
      </trkpt>
      <trkpt lat="45.91914" lon="6.36289">
        <ele>1258</ele>
        <time>2026-08-19T11:24:11.344Z</time>
      </trkpt>
      <trkpt lat="45.91913" lon="6.36289">
        <ele>1258</ele>
        <time>2026-08-19T11:24:12.344Z</time>
      </trkpt>
      <trkpt lat="45.91912" lon="6.36289">
        <ele>1257</ele>
        <time>2026-08-19T11:24:13.344Z</time>
      </trkpt>
      <trkpt lat="45.91911" lon="6.36289">
        <ele>1257</ele>
        <time>2026-08-19T11:24:14.344Z</time>
      </trkpt>
      <trkpt lat="45.9191" lon="6.36289">
        <ele>1257</ele>
        <time>2026-08-19T11:24:15.344Z</time>
      </trkpt>
      <trkpt lat="45.91908" lon="6.36289">
        <ele>1256</ele>
        <time>2026-08-19T11:24:16.344Z</time>
      </trkpt>
      <trkpt lat="45.91906" lon="6.36289">
        <ele>1256</ele>
        <time>2026-08-19T11:24:17.344Z</time>
      </trkpt>
      <trkpt lat="45.91904" lon="6.3629">
        <ele>1256</ele>
        <time>2026-08-19T11:24:18.344Z</time>
      </trkpt>
      <trkpt lat="45.91902" lon="6.36291">
        <ele>1256</ele>
        <time>2026-08-19T11:24:19.344Z</time>
      </trkpt>
      <trkpt lat="45.919" lon="6.36291">
        <ele>1256</ele>
        <time>2026-08-19T11:24:20.344Z</time>
      </trkpt>
      <trkpt lat="45.91899" lon="6.36291">
        <ele>1255</ele>
        <time>2026-08-19T11:24:21.344Z</time>
      </trkpt>
      <trkpt lat="45.91896" lon="6.36291">
        <ele>1254</ele>
        <time>2026-08-19T11:24:22.344Z</time>
      </trkpt>
      <trkpt lat="45.91894" lon="6.36292">
        <ele>1254</ele>
        <time>2026-08-19T11:24:23.344Z</time>
      </trkpt>
      <trkpt lat="45.91892" lon="6.36291">
        <ele>1253</ele>
        <time>2026-08-19T11:24:24.344Z</time>
      </trkpt>
      <trkpt lat="45.9189" lon="6.36291">
        <ele>1253</ele>
        <time>2026-08-19T11:24:25.344Z</time>
      </trkpt>
      <trkpt lat="45.91889" lon="6.3629">
        <ele>1252</ele>
        <time>2026-08-19T11:24:26.344Z</time>
      </trkpt>
      <trkpt lat="45.91887" lon="6.36289">
        <ele>1252</ele>
        <time>2026-08-19T11:24:27.344Z</time>
      </trkpt>
      <trkpt lat="45.91886" lon="6.36289">
        <ele>1251</ele>
        <time>2026-08-19T11:24:28.344Z</time>
      </trkpt>
      <trkpt lat="45.91884" lon="6.36289">
        <ele>1251</ele>
        <time>2026-08-19T11:24:29.344Z</time>
      </trkpt>
      <trkpt lat="45.91883" lon="6.36288">
        <ele>1250</ele>
        <time>2026-08-19T11:24:30.344Z</time>
      </trkpt>
      <trkpt lat="45.91881" lon="6.36287">
        <ele>1250</ele>
        <time>2026-08-19T11:24:31.344Z</time>
      </trkpt>
      <trkpt lat="45.91879" lon="6.36285">
        <ele>1249</ele>
        <time>2026-08-19T11:24:32.344Z</time>
      </trkpt>
      <trkpt lat="45.91878" lon="6.36283">
        <ele>1248</ele>
        <time>2026-08-19T11:24:33.344Z</time>
      </trkpt>
      <trkpt lat="45.91876" lon="6.36281">
        <ele>1247</ele>
        <time>2026-08-19T11:24:34.344Z</time>
      </trkpt>
      <trkpt lat="45.91875" lon="6.36275">
        <ele>1246</ele>
        <time>2026-08-19T11:24:35.344Z</time>
      </trkpt>
      <trkpt lat="45.91874" lon="6.36272">
        <ele>1245</ele>
        <time>2026-08-19T11:24:36.344Z</time>
      </trkpt>
      <trkpt lat="45.91873" lon="6.36268">
        <ele>1243</ele>
        <time>2026-08-19T11:24:37.344Z</time>
      </trkpt>
      <trkpt lat="45.91871" lon="6.36264">
        <ele>1242</ele>
        <time>2026-08-19T11:24:38.344Z</time>
      </trkpt>
      <trkpt lat="45.9187" lon="6.36262">
        <ele>1241</ele>
        <time>2026-08-19T11:24:39.344Z</time>
      </trkpt>
      <trkpt lat="45.9187" lon="6.36259">
        <ele>1240</ele>
        <time>2026-08-19T11:24:40.344Z</time>
      </trkpt>
      <trkpt lat="45.9187" lon="6.36257">
        <ele>1239</ele>
        <time>2026-08-19T11:24:41.344Z</time>
      </trkpt>
      <trkpt lat="45.9187" lon="6.36256">
        <ele>1238</ele>
        <time>2026-08-19T11:24:42.344Z</time>
      </trkpt>
      <trkpt lat="45.9187" lon="6.36256">
        <ele>1237</ele>
        <time>2026-08-19T11:24:43.344Z</time>
      </trkpt>
      <trkpt lat="45.9187" lon="6.36256">
        <ele>1237</ele>
        <time>2026-08-19T11:24:44.344Z</time>
      </trkpt>
      <trkpt lat="45.9187" lon="6.36255">
        <ele>1237</ele>
        <time>2026-08-19T11:24:45.344Z</time>
      </trkpt>
      <trkpt lat="45.9187" lon="6.36255">
        <ele>1236</ele>
        <time>2026-08-19T11:24:46.344Z</time>
      </trkpt>
      <trkpt lat="45.9187" lon="6.36255">
        <ele>1236</ele>
        <time>2026-08-19T11:24:47.344Z</time>
      </trkpt>
      <trkpt lat="45.91871" lon="6.36255">
        <ele>1236</ele>
        <time>2026-08-19T11:24:48.344Z</time>
      </trkpt>
      <trkpt lat="45.91871" lon="6.36255">
        <ele>1235</ele>
        <time>2026-08-19T11:24:49.344Z</time>
      </trkpt>
      <trkpt lat="45.91871" lon="6.36255">
        <ele>1235</ele>
        <time>2026-08-19T11:24:50.344Z</time>
      </trkpt>
      <trkpt lat="45.91871" lon="6.36255">
        <ele>1235</ele>
        <time>2026-08-19T11:24:51.344Z</time>
      </trkpt>
      <trkpt lat="45.91871" lon="6.36255">
        <ele>1235</ele>
        <time>2026-08-19T11:24:52.345Z</time>
      </trkpt>
      <trkpt lat="45.91871" lon="6.36255">
        <ele>1235</ele>
        <time>2026-08-19T11:24:53.344Z</time>
      </trkpt>
      <trkpt lat="45.91871" lon="6.36255">
        <ele>1235</ele>
        <time>2026-08-19T11:24:54.344Z</time>
      </trkpt>
      <trkpt lat="45.91871" lon="6.36255">
        <ele>1235</ele>
        <time>2026-08-19T11:24:55.344Z</time>
      </trkpt>
      <trkpt lat="45.91871" lon="6.36255">
        <ele>1236</ele>
        <time>2026-08-19T11:24:56.344Z</time>
      </trkpt>
      <trkpt lat="45.91871" lon="6.36255">
        <ele>1236</ele>
        <time>2026-08-19T11:24:57.344Z</time>
      </trkpt>
      <trkpt lat="45.91871" lon="6.36255">
        <ele>1236</ele>
        <time>2026-08-19T11:24:58.344Z</time>
      </trkpt>
      <trkpt lat="45.91871" lon="6.36255">
        <ele>1236</ele>
        <time>2026-08-19T11:24:59.344Z</time>
      </trkpt>
      <trkpt lat="45.91871" lon="6.36255">
        <ele>1236</ele>
        <time>2026-08-19T11:25:00.344Z</time>
      </trkpt>
      <trkpt lat="45.91871" lon="6.36255">
        <ele>1236</ele>
        <time>2026-08-19T11:25:01.344Z</time>
      </trkpt>
      <trkpt lat="45.91871" lon="6.36255">
        <ele>1236</ele>
        <time>2026-08-19T11:25:02.344Z</time>
      </trkpt>
      <trkpt lat="45.91871" lon="6.36255">
        <ele>1236</ele>
        <time>2026-08-19T11:25:03.344Z</time>
      </trkpt>
      <trkpt lat="45.91871" lon="6.36255">
        <ele>1236</ele>
        <time>2026-08-19T11:25:04.344Z</time>
      </trkpt>
      <trkpt lat="45.91871" lon="6.36255">
        <ele>1236</ele>
        <time>2026-08-19T11:25:05.344Z</time>
      </trkpt>
      <trkpt lat="45.91871" lon="6.36255">
        <ele>1236</ele>
        <time>2026-08-19T11:25:06.344Z</time>
      </trkpt>
      <trkpt lat="45.91871" lon="6.36255">
        <ele>1236</ele>
        <time>2026-08-19T11:25:07.344Z</time>
      </trkpt>
      <trkpt lat="45.91871" lon="6.36255">
        <ele>1236</ele>
        <time>2026-08-19T11:25:08.344Z</time>
      </trkpt>
      <trkpt lat="45.91871" lon="6.36254">
        <ele>1236</ele>
        <time>2026-08-19T11:25:09.344Z</time>
      </trkpt>
      <trkpt lat="45.9187" lon="6.36251">
        <ele>1236</ele>
        <time>2026-08-19T11:25:10.344Z</time>
      </trkpt>
      <trkpt lat="45.9187" lon="6.36248">
        <ele>1236</ele>
        <time>2026-08-19T11:25:11.344Z</time>
      </trkpt>
      <trkpt lat="45.91869" lon="6.36245">
        <ele>1236</ele>
        <time>2026-08-19T11:25:12.344Z</time>
      </trkpt>
      <trkpt lat="45.91869" lon="6.36242">
        <ele>1235</ele>
        <time>2026-08-19T11:25:13.344Z</time>
      </trkpt>
      <trkpt lat="45.91869" lon="6.36239">
        <ele>1235</ele>
        <time>2026-08-19T11:25:14.344Z</time>
      </trkpt>
      <trkpt lat="45.91869" lon="6.36237">
        <ele>1235</ele>
        <time>2026-08-19T11:25:15.344Z</time>
      </trkpt>
      <trkpt lat="45.91869" lon="6.36234">
        <ele>1234</ele>
        <time>2026-08-19T11:25:16.344Z</time>
      </trkpt>
      <trkpt lat="45.91868" lon="6.36231">
        <ele>1234</ele>
        <time>2026-08-19T11:25:17.344Z</time>
      </trkpt>
      <trkpt lat="45.91868" lon="6.36228">
        <ele>1233</ele>
        <time>2026-08-19T11:25:18.344Z</time>
      </trkpt>
      <trkpt lat="45.91868" lon="6.36225">
        <ele>1233</ele>
        <time>2026-08-19T11:25:19.344Z</time>
      </trkpt>
      <trkpt lat="45.91868" lon="6.36222">
        <ele>1232</ele>
        <time>2026-08-19T11:25:20.344Z</time>
      </trkpt>
      <trkpt lat="45.91868" lon="6.3622">
        <ele>1232</ele>
        <time>2026-08-19T11:25:21.344Z</time>
      </trkpt>
      <trkpt lat="45.91868" lon="6.36217">
        <ele>1231</ele>
        <time>2026-08-19T11:25:22.344Z</time>
      </trkpt>
      <trkpt lat="45.91868" lon="6.36215">
        <ele>1230</ele>
        <time>2026-08-19T11:25:23.344Z</time>
      </trkpt>
      <trkpt lat="45.91867" lon="6.36212">
        <ele>1230</ele>
        <time>2026-08-19T11:25:24.344Z</time>
      </trkpt>
      <trkpt lat="45.91867" lon="6.36209">
        <ele>1229</ele>
        <time>2026-08-19T11:25:25.344Z</time>
      </trkpt>
      <trkpt lat="45.91867" lon="6.36207">
        <ele>1228</ele>
        <time>2026-08-19T11:25:26.344Z</time>
      </trkpt>
      <trkpt lat="45.91867" lon="6.36204">
        <ele>1227</ele>
        <time>2026-08-19T11:25:27.344Z</time>
      </trkpt>
      <trkpt lat="45.91866" lon="6.36202">
        <ele>1227</ele>
        <time>2026-08-19T11:25:28.344Z</time>
      </trkpt>
      <trkpt lat="45.91865" lon="6.362">
        <ele>1226</ele>
        <time>2026-08-19T11:25:29.344Z</time>
      </trkpt>
      <trkpt lat="45.91863" lon="6.36198">
        <ele>1226</ele>
        <time>2026-08-19T11:25:30.344Z</time>
      </trkpt>
      <trkpt lat="45.91862" lon="6.36197">
        <ele>1225</ele>
        <time>2026-08-19T11:25:31.344Z</time>
      </trkpt>
      <trkpt lat="45.91861" lon="6.36197">
        <ele>1225</ele>
        <time>2026-08-19T11:25:32.344Z</time>
      </trkpt>
      <trkpt lat="45.9186" lon="6.36197">
        <ele>1225</ele>
        <time>2026-08-19T11:25:33.344Z</time>
      </trkpt>
      <trkpt lat="45.91859" lon="6.36196">
        <ele>1225</ele>
        <time>2026-08-19T11:25:34.344Z</time>
      </trkpt>
      <trkpt lat="45.91859" lon="6.36195">
        <ele>1225</ele>
        <time>2026-08-19T11:25:35.344Z</time>
      </trkpt>
      <trkpt lat="45.91859" lon="6.36195">
        <ele>1225</ele>
        <time>2026-08-19T11:25:36.344Z</time>
      </trkpt>
      <trkpt lat="45.91858" lon="6.36195">
        <ele>1225</ele>
        <time>2026-08-19T11:25:37.344Z</time>
      </trkpt>
      <trkpt lat="45.91858" lon="6.36195">
        <ele>1224</ele>
        <time>2026-08-19T11:25:38.344Z</time>
      </trkpt>
      <trkpt lat="45.91857" lon="6.36195">
        <ele>1224</ele>
        <time>2026-08-19T11:25:39.344Z</time>
      </trkpt>
      <trkpt lat="45.91857" lon="6.36196">
        <ele>1224</ele>
        <time>2026-08-19T11:25:40.344Z</time>
      </trkpt>
      <trkpt lat="45.91857" lon="6.36197">
        <ele>1223</ele>
        <time>2026-08-19T11:25:41.345Z</time>
      </trkpt>
      <trkpt lat="45.91858" lon="6.36199">
        <ele>1223</ele>
        <time>2026-08-19T11:25:42.344Z</time>
      </trkpt>
      <trkpt lat="45.91858" lon="6.362">
        <ele>1223</ele>
        <time>2026-08-19T11:25:43.344Z</time>
      </trkpt>
      <trkpt lat="45.91858" lon="6.36201">
        <ele>1222</ele>
        <time>2026-08-19T11:25:44.345Z</time>
      </trkpt>
      <trkpt lat="45.91858" lon="6.36202">
        <ele>1222</ele>
        <time>2026-08-19T11:25:45.344Z</time>
      </trkpt>
      <trkpt lat="45.91858" lon="6.36202">
        <ele>1222</ele>
        <time>2026-08-19T11:25:46.344Z</time>
      </trkpt>
      <trkpt lat="45.91858" lon="6.36203">
        <ele>1222</ele>
        <time>2026-08-19T11:25:47.344Z</time>
      </trkpt>
      <trkpt lat="45.91858" lon="6.36203">
        <ele>1221</ele>
        <time>2026-08-19T11:25:48.344Z</time>
      </trkpt>
      <trkpt lat="45.91857" lon="6.36203">
        <ele>1221</ele>
        <time>2026-08-19T11:25:49.344Z</time>
      </trkpt>
      <trkpt lat="45.91857" lon="6.36204">
        <ele>1221</ele>
        <time>2026-08-19T11:25:50.344Z</time>
      </trkpt>
      <trkpt lat="45.91856" lon="6.36205">
        <ele>1220</ele>
        <time>2026-08-19T11:25:51.344Z</time>
      </trkpt>
      <trkpt lat="45.91856" lon="6.36207">
        <ele>1220</ele>
        <time>2026-08-19T11:25:52.344Z</time>
      </trkpt>
      <trkpt lat="45.91855" lon="6.36208">
        <ele>1219</ele>
        <time>2026-08-19T11:25:53.344Z</time>
      </trkpt>
      <trkpt lat="45.91855" lon="6.36209">
        <ele>1219</ele>
        <time>2026-08-19T11:25:54.345Z</time>
      </trkpt>
      <trkpt lat="45.91855" lon="6.36211">
        <ele>1218</ele>
        <time>2026-08-19T11:25:55.344Z</time>
      </trkpt>
      <trkpt lat="45.91854" lon="6.36213">
        <ele>1218</ele>
        <time>2026-08-19T11:25:56.344Z</time>
      </trkpt>
      <trkpt lat="45.91855" lon="6.36215">
        <ele>1218</ele>
        <time>2026-08-19T11:25:57.344Z</time>
      </trkpt>
      <trkpt lat="45.91854" lon="6.36218">
        <ele>1217</ele>
        <time>2026-08-19T11:25:58.344Z</time>
      </trkpt>
      <trkpt lat="45.91854" lon="6.36219">
        <ele>1217</ele>
        <time>2026-08-19T11:25:59.344Z</time>
      </trkpt>
      <trkpt lat="45.91854" lon="6.36221">
        <ele>1216</ele>
        <time>2026-08-19T11:26:00.344Z</time>
      </trkpt>
      <trkpt lat="45.91854" lon="6.36223">
        <ele>1215</ele>
        <time>2026-08-19T11:26:01.344Z</time>
      </trkpt>
      <trkpt lat="45.91854" lon="6.36225">
        <ele>1215</ele>
        <time>2026-08-19T11:26:02.344Z</time>
      </trkpt>
      <trkpt lat="45.91854" lon="6.36227">
        <ele>1214</ele>
        <time>2026-08-19T11:26:03.344Z</time>
      </trkpt>
      <trkpt lat="45.91854" lon="6.3623">
        <ele>1213</ele>
        <time>2026-08-19T11:26:04.344Z</time>
      </trkpt>
      <trkpt lat="45.91854" lon="6.36233">
        <ele>1213</ele>
        <time>2026-08-19T11:26:05.344Z</time>
      </trkpt>
      <trkpt lat="45.91853" lon="6.36237">
        <ele>1212</ele>
        <time>2026-08-19T11:26:06.344Z</time>
      </trkpt>
      <trkpt lat="45.91853" lon="6.3624">
        <ele>1211</ele>
        <time>2026-08-19T11:26:07.344Z</time>
      </trkpt>
      <trkpt lat="45.91852" lon="6.36243">
        <ele>1211</ele>
        <time>2026-08-19T11:26:08.344Z</time>
      </trkpt>
      <trkpt lat="45.91852" lon="6.36246">
        <ele>1210</ele>
        <time>2026-08-19T11:26:09.344Z</time>
      </trkpt>
      <trkpt lat="45.91851" lon="6.36248">
        <ele>1210</ele>
        <time>2026-08-19T11:26:10.344Z</time>
      </trkpt>
      <trkpt lat="45.9185" lon="6.36251">
        <ele>1209</ele>
        <time>2026-08-19T11:26:11.344Z</time>
      </trkpt>
      <trkpt lat="45.91848" lon="6.36255">
        <ele>1209</ele>
        <time>2026-08-19T11:26:12.344Z</time>
      </trkpt>
      <trkpt lat="45.91847" lon="6.36257">
        <ele>1209</ele>
        <time>2026-08-19T11:26:13.344Z</time>
      </trkpt>
      <trkpt lat="45.91845" lon="6.36259">
        <ele>1209</ele>
        <time>2026-08-19T11:26:14.344Z</time>
      </trkpt>
      <trkpt lat="45.91843" lon="6.36261">
        <ele>1208</ele>
        <time>2026-08-19T11:26:15.344Z</time>
      </trkpt>
      <trkpt lat="45.91842" lon="6.36263">
        <ele>1208</ele>
        <time>2026-08-19T11:26:16.344Z</time>
      </trkpt>
      <trkpt lat="45.91841" lon="6.36264">
        <ele>1207</ele>
        <time>2026-08-19T11:26:17.344Z</time>
      </trkpt>
      <trkpt lat="45.9184" lon="6.36267">
        <ele>1207</ele>
        <time>2026-08-19T11:26:18.344Z</time>
      </trkpt>
      <trkpt lat="45.9184" lon="6.36269">
        <ele>1206</ele>
        <time>2026-08-19T11:26:19.344Z</time>
      </trkpt>
      <trkpt lat="45.9184" lon="6.36271">
        <ele>1206</ele>
        <time>2026-08-19T11:26:20.344Z</time>
      </trkpt>
      <trkpt lat="45.91841" lon="6.36273">
        <ele>1205</ele>
        <time>2026-08-19T11:26:21.344Z</time>
      </trkpt>
      <trkpt lat="45.9184" lon="6.36276">
        <ele>1204</ele>
        <time>2026-08-19T11:26:22.344Z</time>
      </trkpt>
      <trkpt lat="45.91838" lon="6.36277">
        <ele>1204</ele>
        <time>2026-08-19T11:26:23.344Z</time>
      </trkpt>
      <trkpt lat="45.91837" lon="6.36278">
        <ele>1203</ele>
        <time>2026-08-19T11:26:24.344Z</time>
      </trkpt>
      <trkpt lat="45.91835" lon="6.36279">
        <ele>1202</ele>
        <time>2026-08-19T11:26:25.344Z</time>
      </trkpt>
      <trkpt lat="45.91833" lon="6.36279">
        <ele>1202</ele>
        <time>2026-08-19T11:26:26.344Z</time>
      </trkpt>
      <trkpt lat="45.91832" lon="6.36279">
        <ele>1201</ele>
        <time>2026-08-19T11:26:27.344Z</time>
      </trkpt>
      <trkpt lat="45.9183" lon="6.3628">
        <ele>1201</ele>
        <time>2026-08-19T11:26:28.344Z</time>
      </trkpt>
      <trkpt lat="45.91828" lon="6.3628">
        <ele>1200</ele>
        <time>2026-08-19T11:26:29.344Z</time>
      </trkpt>
      <trkpt lat="45.91825" lon="6.36279">
        <ele>1199</ele>
        <time>2026-08-19T11:26:30.344Z</time>
      </trkpt>
      <trkpt lat="45.91823" lon="6.36277">
        <ele>1198</ele>
        <time>2026-08-19T11:26:31.344Z</time>
      </trkpt>
      <trkpt lat="45.91821" lon="6.36274">
        <ele>1198</ele>
        <time>2026-08-19T11:26:32.344Z</time>
      </trkpt>
      <trkpt lat="45.91819" lon="6.36272">
        <ele>1198</ele>
        <time>2026-08-19T11:26:33.344Z</time>
      </trkpt>
      <trkpt lat="45.91819" lon="6.36269">
        <ele>1197</ele>
        <time>2026-08-19T11:26:34.344Z</time>
      </trkpt>
      <trkpt lat="45.91819" lon="6.36267">
        <ele>1197</ele>
        <time>2026-08-19T11:26:35.344Z</time>
      </trkpt>
      <trkpt lat="45.91819" lon="6.36265">
        <ele>1197</ele>
        <time>2026-08-19T11:26:36.344Z</time>
      </trkpt>
      <trkpt lat="45.9182" lon="6.36263">
        <ele>1197</ele>
        <time>2026-08-19T11:26:37.345Z</time>
      </trkpt>
      <trkpt lat="45.9182" lon="6.36262">
        <ele>1197</ele>
        <time>2026-08-19T11:26:38.344Z</time>
      </trkpt>
      <trkpt lat="45.9182" lon="6.3626">
        <ele>1197</ele>
        <time>2026-08-19T11:26:39.344Z</time>
      </trkpt>
      <trkpt lat="45.9182" lon="6.36258">
        <ele>1197</ele>
        <time>2026-08-19T11:26:40.344Z</time>
      </trkpt>
      <trkpt lat="45.91819" lon="6.36257">
        <ele>1196</ele>
        <time>2026-08-19T11:26:41.344Z</time>
      </trkpt>
      <trkpt lat="45.91819" lon="6.36255">
        <ele>1196</ele>
        <time>2026-08-19T11:26:42.344Z</time>
      </trkpt>
      <trkpt lat="45.91818" lon="6.36254">
        <ele>1196</ele>
        <time>2026-08-19T11:26:43.344Z</time>
      </trkpt>
      <trkpt lat="45.91818" lon="6.36253">
        <ele>1195</ele>
        <time>2026-08-19T11:26:44.344Z</time>
      </trkpt>
      <trkpt lat="45.91817" lon="6.36253">
        <ele>1195</ele>
        <time>2026-08-19T11:26:45.344Z</time>
      </trkpt>
      <trkpt lat="45.91818" lon="6.36254">
        <ele>1195</ele>
        <time>2026-08-19T11:26:46.344Z</time>
      </trkpt>
      <trkpt lat="45.91818" lon="6.36255">
        <ele>1194</ele>
        <time>2026-08-19T11:26:47.345Z</time>
      </trkpt>
      <trkpt lat="45.91817" lon="6.36255">
        <ele>1194</ele>
        <time>2026-08-19T11:26:48.344Z</time>
      </trkpt>
      <trkpt lat="45.91817" lon="6.36257">
        <ele>1194</ele>
        <time>2026-08-19T11:26:49.344Z</time>
      </trkpt>
      <trkpt lat="45.91817" lon="6.36258">
        <ele>1193</ele>
        <time>2026-08-19T11:26:50.344Z</time>
      </trkpt>
      <trkpt lat="45.91816" lon="6.36259">
        <ele>1193</ele>
        <time>2026-08-19T11:26:51.344Z</time>
      </trkpt>
      <trkpt lat="45.91815" lon="6.3626">
        <ele>1193</ele>
        <time>2026-08-19T11:26:52.344Z</time>
      </trkpt>
      <trkpt lat="45.91814" lon="6.36262">
        <ele>1192</ele>
        <time>2026-08-19T11:26:53.344Z</time>
      </trkpt>
      <trkpt lat="45.91814" lon="6.36265">
        <ele>1192</ele>
        <time>2026-08-19T11:26:54.345Z</time>
      </trkpt>
      <trkpt lat="45.91812" lon="6.36268">
        <ele>1192</ele>
        <time>2026-08-19T11:26:55.344Z</time>
      </trkpt>
      <trkpt lat="45.91811" lon="6.3627">
        <ele>1191</ele>
        <time>2026-08-19T11:26:56.344Z</time>
      </trkpt>
      <trkpt lat="45.9181" lon="6.36273">
        <ele>1191</ele>
        <time>2026-08-19T11:26:57.345Z</time>
      </trkpt>
      <trkpt lat="45.91809" lon="6.36276">
        <ele>1191</ele>
        <time>2026-08-19T11:26:58.344Z</time>
      </trkpt>
      <trkpt lat="45.91808" lon="6.36279">
        <ele>1191</ele>
        <time>2026-08-19T11:26:59.344Z</time>
      </trkpt>
      <trkpt lat="45.91808" lon="6.3628">
        <ele>1190</ele>
        <time>2026-08-19T11:27:00.344Z</time>
      </trkpt>
      <trkpt lat="45.91808" lon="6.36282">
        <ele>1190</ele>
        <time>2026-08-19T11:27:01.344Z</time>
      </trkpt>
      <trkpt lat="45.91808" lon="6.36284">
        <ele>1189</ele>
        <time>2026-08-19T11:27:02.344Z</time>
      </trkpt>
      <trkpt lat="45.91807" lon="6.36286">
        <ele>1188</ele>
        <time>2026-08-19T11:27:03.344Z</time>
      </trkpt>
      <trkpt lat="45.91807" lon="6.36287">
        <ele>1188</ele>
        <time>2026-08-19T11:27:04.344Z</time>
      </trkpt>
      <trkpt lat="45.91807" lon="6.36289">
        <ele>1187</ele>
        <time>2026-08-19T11:27:05.344Z</time>
      </trkpt>
      <trkpt lat="45.91807" lon="6.3629">
        <ele>1187</ele>
        <time>2026-08-19T11:27:06.344Z</time>
      </trkpt>
      <trkpt lat="45.91808" lon="6.36293">
        <ele>1186</ele>
        <time>2026-08-19T11:27:07.344Z</time>
      </trkpt>
      <trkpt lat="45.91808" lon="6.36295">
        <ele>1186</ele>
        <time>2026-08-19T11:27:08.344Z</time>
      </trkpt>
      <trkpt lat="45.91808" lon="6.36298">
        <ele>1185</ele>
        <time>2026-08-19T11:27:09.344Z</time>
      </trkpt>
      <trkpt lat="45.91807" lon="6.363">
        <ele>1184</ele>
        <time>2026-08-19T11:27:10.344Z</time>
      </trkpt>
      <trkpt lat="45.91805" lon="6.36301">
        <ele>1183</ele>
        <time>2026-08-19T11:27:11.344Z</time>
      </trkpt>
      <trkpt lat="45.91804" lon="6.36302">
        <ele>1183</ele>
        <time>2026-08-19T11:27:12.344Z</time>
      </trkpt>
      <trkpt lat="45.91801" lon="6.36304">
        <ele>1183</ele>
        <time>2026-08-19T11:27:13.344Z</time>
      </trkpt>
      <trkpt lat="45.91799" lon="6.36305">
        <ele>1182</ele>
        <time>2026-08-19T11:27:14.344Z</time>
      </trkpt>
      <trkpt lat="45.91797" lon="6.36306">
        <ele>1182</ele>
        <time>2026-08-19T11:27:15.344Z</time>
      </trkpt>
      <trkpt lat="45.91794" lon="6.36306">
        <ele>1182</ele>
        <time>2026-08-19T11:27:16.344Z</time>
      </trkpt>
      <trkpt lat="45.91792" lon="6.36307">
        <ele>1181</ele>
        <time>2026-08-19T11:27:17.344Z</time>
      </trkpt>
      <trkpt lat="45.91789" lon="6.36308">
        <ele>1182</ele>
        <time>2026-08-19T11:27:18.344Z</time>
      </trkpt>
      <trkpt lat="45.91787" lon="6.36308">
        <ele>1182</ele>
        <time>2026-08-19T11:27:19.344Z</time>
      </trkpt>
      <trkpt lat="45.91785" lon="6.36308">
        <ele>1182</ele>
        <time>2026-08-19T11:27:20.344Z</time>
      </trkpt>
      <trkpt lat="45.91782" lon="6.36306">
        <ele>1182</ele>
        <time>2026-08-19T11:27:21.344Z</time>
      </trkpt>
      <trkpt lat="45.91781" lon="6.36304">
        <ele>1182</ele>
        <time>2026-08-19T11:27:22.344Z</time>
      </trkpt>
      <trkpt lat="45.9178" lon="6.36303">
        <ele>1182</ele>
        <time>2026-08-19T11:27:23.344Z</time>
      </trkpt>
      <trkpt lat="45.91779" lon="6.36301">
        <ele>1181</ele>
        <time>2026-08-19T11:27:24.344Z</time>
      </trkpt>
      <trkpt lat="45.91778" lon="6.363">
        <ele>1180</ele>
        <time>2026-08-19T11:27:25.344Z</time>
      </trkpt>
      <trkpt lat="45.91777" lon="6.36297">
        <ele>1180</ele>
        <time>2026-08-19T11:27:26.344Z</time>
      </trkpt>
      <trkpt lat="45.91776" lon="6.36294">
        <ele>1179</ele>
        <time>2026-08-19T11:27:27.344Z</time>
      </trkpt>
      <trkpt lat="45.91776" lon="6.3629">
        <ele>1179</ele>
        <time>2026-08-19T11:27:28.344Z</time>
      </trkpt>
      <trkpt lat="45.91775" lon="6.36286">
        <ele>1177</ele>
        <time>2026-08-19T11:27:29.344Z</time>
      </trkpt>
      <trkpt lat="45.91775" lon="6.36283">
        <ele>1176</ele>
        <time>2026-08-19T11:27:30.344Z</time>
      </trkpt>
      <trkpt lat="45.91774" lon="6.3628">
        <ele>1175</ele>
        <time>2026-08-19T11:27:31.344Z</time>
      </trkpt>
      <trkpt lat="45.91774" lon="6.36278">
        <ele>1174</ele>
        <time>2026-08-19T11:27:32.345Z</time>
      </trkpt>
      <trkpt lat="45.91773" lon="6.36277">
        <ele>1173</ele>
        <time>2026-08-19T11:27:33.344Z</time>
      </trkpt>
      <trkpt lat="45.91772" lon="6.36278">
        <ele>1173</ele>
        <time>2026-08-19T11:27:34.344Z</time>
      </trkpt>
      <trkpt lat="45.91771" lon="6.36277">
        <ele>1172</ele>
        <time>2026-08-19T11:27:35.344Z</time>
      </trkpt>
      <trkpt lat="45.91772" lon="6.36277">
        <ele>1172</ele>
        <time>2026-08-19T11:27:36.344Z</time>
      </trkpt>
      <trkpt lat="45.91772" lon="6.36278">
        <ele>1171</ele>
        <time>2026-08-19T11:27:37.344Z</time>
      </trkpt>
      <trkpt lat="45.91772" lon="6.36279">
        <ele>1170</ele>
        <time>2026-08-19T11:27:38.344Z</time>
      </trkpt>
      <trkpt lat="45.91771" lon="6.3628">
        <ele>1170</ele>
        <time>2026-08-19T11:27:39.344Z</time>
      </trkpt>
      <trkpt lat="45.91771" lon="6.36281">
        <ele>1169</ele>
        <time>2026-08-19T11:27:40.344Z</time>
      </trkpt>
      <trkpt lat="45.91771" lon="6.36283">
        <ele>1168</ele>
        <time>2026-08-19T11:27:41.344Z</time>
      </trkpt>
      <trkpt lat="45.9177" lon="6.36284">
        <ele>1167</ele>
        <time>2026-08-19T11:27:42.344Z</time>
      </trkpt>
      <trkpt lat="45.9177" lon="6.36286">
        <ele>1167</ele>
        <time>2026-08-19T11:27:43.345Z</time>
      </trkpt>
      <trkpt lat="45.9177" lon="6.36288">
        <ele>1166</ele>
        <time>2026-08-19T11:27:44.344Z</time>
      </trkpt>
      <trkpt lat="45.9177" lon="6.3629">
        <ele>1166</ele>
        <time>2026-08-19T11:27:45.344Z</time>
      </trkpt>
      <trkpt lat="45.9177" lon="6.36292">
        <ele>1165</ele>
        <time>2026-08-19T11:27:46.344Z</time>
      </trkpt>
      <trkpt lat="45.91769" lon="6.36294">
        <ele>1164</ele>
        <time>2026-08-19T11:27:47.344Z</time>
      </trkpt>
      <trkpt lat="45.91769" lon="6.36296">
        <ele>1163</ele>
        <time>2026-08-19T11:27:48.344Z</time>
      </trkpt>
      <trkpt lat="45.91769" lon="6.36297">
        <ele>1162</ele>
        <time>2026-08-19T11:27:49.344Z</time>
      </trkpt>
      <trkpt lat="45.91768" lon="6.36298">
        <ele>1161</ele>
        <time>2026-08-19T11:27:50.344Z</time>
      </trkpt>
      <trkpt lat="45.91768" lon="6.36299">
        <ele>1160</ele>
        <time>2026-08-19T11:27:51.344Z</time>
      </trkpt>
      <trkpt lat="45.91767" lon="6.36301">
        <ele>1159</ele>
        <time>2026-08-19T11:27:52.344Z</time>
      </trkpt>
      <trkpt lat="45.91767" lon="6.36303">
        <ele>1158</ele>
        <time>2026-08-19T11:27:53.344Z</time>
      </trkpt>
      <trkpt lat="45.91766" lon="6.36304">
        <ele>1158</ele>
        <time>2026-08-19T11:27:54.344Z</time>
      </trkpt>
      <trkpt lat="45.91766" lon="6.36306">
        <ele>1157</ele>
        <time>2026-08-19T11:27:55.344Z</time>
      </trkpt>
      <trkpt lat="45.91766" lon="6.36309">
        <ele>1157</ele>
        <time>2026-08-19T11:27:56.344Z</time>
      </trkpt>
      <trkpt lat="45.91766" lon="6.36311">
        <ele>1156</ele>
        <time>2026-08-19T11:27:57.344Z</time>
      </trkpt>
      <trkpt lat="45.91766" lon="6.36314">
        <ele>1156</ele>
        <time>2026-08-19T11:27:58.344Z</time>
      </trkpt>
      <trkpt lat="45.91766" lon="6.36317">
        <ele>1155</ele>
        <time>2026-08-19T11:27:59.344Z</time>
      </trkpt>
      <trkpt lat="45.91766" lon="6.3632">
        <ele>1155</ele>
        <time>2026-08-19T11:28:00.344Z</time>
      </trkpt>
      <trkpt lat="45.91767" lon="6.36323">
        <ele>1154</ele>
        <time>2026-08-19T11:28:01.344Z</time>
      </trkpt>
      <trkpt lat="45.91768" lon="6.36326">
        <ele>1154</ele>
        <time>2026-08-19T11:28:02.344Z</time>
      </trkpt>
      <trkpt lat="45.91769" lon="6.36328">
        <ele>1154</ele>
        <time>2026-08-19T11:28:03.344Z</time>
      </trkpt>
      <trkpt lat="45.9177" lon="6.3633">
        <ele>1153</ele>
        <time>2026-08-19T11:28:04.344Z</time>
      </trkpt>
      <trkpt lat="45.9177" lon="6.36331">
        <ele>1153</ele>
        <time>2026-08-19T11:28:05.344Z</time>
      </trkpt>
      <trkpt lat="45.91771" lon="6.36332">
        <ele>1153</ele>
        <time>2026-08-19T11:28:06.344Z</time>
      </trkpt>
      <trkpt lat="45.91772" lon="6.36333">
        <ele>1153</ele>
        <time>2026-08-19T11:28:07.344Z</time>
      </trkpt>
      <trkpt lat="45.91774" lon="6.36334">
        <ele>1153</ele>
        <time>2026-08-19T11:28:08.344Z</time>
      </trkpt>
      <trkpt lat="45.91775" lon="6.36335">
        <ele>1152</ele>
        <time>2026-08-19T11:28:09.344Z</time>
      </trkpt>
      <trkpt lat="45.91774" lon="6.36336">
        <ele>1152</ele>
        <time>2026-08-19T11:28:10.344Z</time>
      </trkpt>
      <trkpt lat="45.91773" lon="6.36337">
        <ele>1151</ele>
        <time>2026-08-19T11:28:11.344Z</time>
      </trkpt>
      <trkpt lat="45.91771" lon="6.36337">
        <ele>1151</ele>
        <time>2026-08-19T11:28:12.344Z</time>
      </trkpt>
      <trkpt lat="45.91769" lon="6.36339">
        <ele>1150</ele>
        <time>2026-08-19T11:28:13.344Z</time>
      </trkpt>
      <trkpt lat="45.91767" lon="6.3634">
        <ele>1150</ele>
        <time>2026-08-19T11:28:14.344Z</time>
      </trkpt>
      <trkpt lat="45.91765" lon="6.36341">
        <ele>1149</ele>
        <time>2026-08-19T11:28:15.344Z</time>
      </trkpt>
      <trkpt lat="45.91764" lon="6.36341">
        <ele>1149</ele>
        <time>2026-08-19T11:28:16.344Z</time>
      </trkpt>
      <trkpt lat="45.91762" lon="6.36342">
        <ele>1149</ele>
        <time>2026-08-19T11:28:17.344Z</time>
      </trkpt>
      <trkpt lat="45.9176" lon="6.36343">
        <ele>1148</ele>
        <time>2026-08-19T11:28:18.344Z</time>
      </trkpt>
      <trkpt lat="45.91758" lon="6.36344">
        <ele>1148</ele>
        <time>2026-08-19T11:28:19.344Z</time>
      </trkpt>
      <trkpt lat="45.91756" lon="6.36345">
        <ele>1148</ele>
        <time>2026-08-19T11:28:20.344Z</time>
      </trkpt>
      <trkpt lat="45.91754" lon="6.36346">
        <ele>1147</ele>
        <time>2026-08-19T11:28:21.344Z</time>
      </trkpt>
      <trkpt lat="45.91753" lon="6.36347">
        <ele>1147</ele>
        <time>2026-08-19T11:28:22.344Z</time>
      </trkpt>
      <trkpt lat="45.91752" lon="6.36347">
        <ele>1146</ele>
        <time>2026-08-19T11:28:23.344Z</time>
      </trkpt>
      <trkpt lat="45.91752" lon="6.36348">
        <ele>1146</ele>
        <time>2026-08-19T11:28:24.344Z</time>
      </trkpt>
      <trkpt lat="45.91752" lon="6.36349">
        <ele>1146</ele>
        <time>2026-08-19T11:28:25.345Z</time>
      </trkpt>
      <trkpt lat="45.91752" lon="6.36351">
        <ele>1146</ele>
        <time>2026-08-19T11:28:26.344Z</time>
      </trkpt>
      <trkpt lat="45.91753" lon="6.36352">
        <ele>1146</ele>
        <time>2026-08-19T11:28:27.344Z</time>
      </trkpt>
      <trkpt lat="45.91753" lon="6.36352">
        <ele>1146</ele>
        <time>2026-08-19T11:28:28.344Z</time>
      </trkpt>
      <trkpt lat="45.91754" lon="6.36352">
        <ele>1146</ele>
        <time>2026-08-19T11:28:29.344Z</time>
      </trkpt>
      <trkpt lat="45.91755" lon="6.36353">
        <ele>1146</ele>
        <time>2026-08-19T11:28:30.344Z</time>
      </trkpt>
      <trkpt lat="45.91756" lon="6.36354">
        <ele>1146</ele>
        <time>2026-08-19T11:28:31.344Z</time>
      </trkpt>
      <trkpt lat="45.91756" lon="6.36355">
        <ele>1146</ele>
        <time>2026-08-19T11:28:32.344Z</time>
      </trkpt>
      <trkpt lat="45.91757" lon="6.36357">
        <ele>1146</ele>
        <time>2026-08-19T11:28:33.344Z</time>
      </trkpt>
      <trkpt lat="45.91758" lon="6.36358">
        <ele>1146</ele>
        <time>2026-08-19T11:28:34.344Z</time>
      </trkpt>
      <trkpt lat="45.91758" lon="6.3636">
        <ele>1146</ele>
        <time>2026-08-19T11:28:35.344Z</time>
      </trkpt>
      <trkpt lat="45.91758" lon="6.36361">
        <ele>1146</ele>
        <time>2026-08-19T11:28:36.344Z</time>
      </trkpt>
      <trkpt lat="45.91758" lon="6.36362">
        <ele>1145</ele>
        <time>2026-08-19T11:28:37.344Z</time>
      </trkpt>
      <trkpt lat="45.91758" lon="6.36363">
        <ele>1145</ele>
        <time>2026-08-19T11:28:38.344Z</time>
      </trkpt>
      <trkpt lat="45.91758" lon="6.36364">
        <ele>1145</ele>
        <time>2026-08-19T11:28:39.344Z</time>
      </trkpt>
      <trkpt lat="45.91759" lon="6.36366">
        <ele>1146</ele>
        <time>2026-08-19T11:28:40.344Z</time>
      </trkpt>
      <trkpt lat="45.91759" lon="6.36367">
        <ele>1146</ele>
        <time>2026-08-19T11:28:41.344Z</time>
      </trkpt>
      <trkpt lat="45.91759" lon="6.36368">
        <ele>1146</ele>
        <time>2026-08-19T11:28:42.344Z</time>
      </trkpt>
      <trkpt lat="45.9176" lon="6.3637">
        <ele>1145</ele>
        <time>2026-08-19T11:28:43.344Z</time>
      </trkpt>
      <trkpt lat="45.91761" lon="6.36371">
        <ele>1145</ele>
        <time>2026-08-19T11:28:44.344Z</time>
      </trkpt>
      <trkpt lat="45.91761" lon="6.36373">
        <ele>1145</ele>
        <time>2026-08-19T11:28:45.344Z</time>
      </trkpt>
      <trkpt lat="45.91761" lon="6.36374">
        <ele>1144</ele>
        <time>2026-08-19T11:28:46.344Z</time>
      </trkpt>
      <trkpt lat="45.91761" lon="6.36376">
        <ele>1144</ele>
        <time>2026-08-19T11:28:47.344Z</time>
      </trkpt>
      <trkpt lat="45.91761" lon="6.36377">
        <ele>1143</ele>
        <time>2026-08-19T11:28:48.345Z</time>
      </trkpt>
      <trkpt lat="45.9176" lon="6.36378">
        <ele>1143</ele>
        <time>2026-08-19T11:28:49.344Z</time>
      </trkpt>
      <trkpt lat="45.9176" lon="6.3638">
        <ele>1142</ele>
        <time>2026-08-19T11:28:50.344Z</time>
      </trkpt>
      <trkpt lat="45.9176" lon="6.36382">
        <ele>1142</ele>
        <time>2026-08-19T11:28:51.344Z</time>
      </trkpt>
      <trkpt lat="45.9176" lon="6.36385">
        <ele>1141</ele>
        <time>2026-08-19T11:28:52.344Z</time>
      </trkpt>
      <trkpt lat="45.91759" lon="6.36388">
        <ele>1141</ele>
        <time>2026-08-19T11:28:53.344Z</time>
      </trkpt>
      <trkpt lat="45.91759" lon="6.36391">
        <ele>1140</ele>
        <time>2026-08-19T11:28:54.344Z</time>
      </trkpt>
      <trkpt lat="45.91759" lon="6.36393">
        <ele>1140</ele>
        <time>2026-08-19T11:28:55.344Z</time>
      </trkpt>
      <trkpt lat="45.91759" lon="6.36395">
        <ele>1140</ele>
        <time>2026-08-19T11:28:56.344Z</time>
      </trkpt>
      <trkpt lat="45.91759" lon="6.36397">
        <ele>1139</ele>
        <time>2026-08-19T11:28:57.344Z</time>
      </trkpt>
      <trkpt lat="45.91759" lon="6.364">
        <ele>1138</ele>
        <time>2026-08-19T11:28:58.344Z</time>
      </trkpt>
      <trkpt lat="45.91758" lon="6.36402">
        <ele>1138</ele>
        <time>2026-08-19T11:28:59.344Z</time>
      </trkpt>
      <trkpt lat="45.91757" lon="6.36405">
        <ele>1137</ele>
        <time>2026-08-19T11:29:00.344Z</time>
      </trkpt>
      <trkpt lat="45.91757" lon="6.36407">
        <ele>1137</ele>
        <time>2026-08-19T11:29:01.344Z</time>
      </trkpt>
      <trkpt lat="45.91757" lon="6.36409">
        <ele>1136</ele>
        <time>2026-08-19T11:29:02.344Z</time>
      </trkpt>
      <trkpt lat="45.91757" lon="6.36411">
        <ele>1136</ele>
        <time>2026-08-19T11:29:03.344Z</time>
      </trkpt>
      <trkpt lat="45.91757" lon="6.36414">
        <ele>1135</ele>
        <time>2026-08-19T11:29:04.344Z</time>
      </trkpt>
      <trkpt lat="45.91757" lon="6.36417">
        <ele>1135</ele>
        <time>2026-08-19T11:29:05.344Z</time>
      </trkpt>
      <trkpt lat="45.91758" lon="6.36419">
        <ele>1134</ele>
        <time>2026-08-19T11:29:06.344Z</time>
      </trkpt>
      <trkpt lat="45.91759" lon="6.36422">
        <ele>1134</ele>
        <time>2026-08-19T11:29:07.344Z</time>
      </trkpt>
      <trkpt lat="45.9176" lon="6.36424">
        <ele>1133</ele>
        <time>2026-08-19T11:29:08.344Z</time>
      </trkpt>
      <trkpt lat="45.9176" lon="6.36426">
        <ele>1132</ele>
        <time>2026-08-19T11:29:09.344Z</time>
      </trkpt>
      <trkpt lat="45.91761" lon="6.36428">
        <ele>1132</ele>
        <time>2026-08-19T11:29:10.344Z</time>
      </trkpt>
      <trkpt lat="45.91762" lon="6.36431">
        <ele>1132</ele>
        <time>2026-08-19T11:29:11.344Z</time>
      </trkpt>
      <trkpt lat="45.91763" lon="6.36434">
        <ele>1131</ele>
        <time>2026-08-19T11:29:12.344Z</time>
      </trkpt>
      <trkpt lat="45.91764" lon="6.36437">
        <ele>1131</ele>
        <time>2026-08-19T11:29:13.344Z</time>
      </trkpt>
      <trkpt lat="45.91764" lon="6.36439">
        <ele>1130</ele>
        <time>2026-08-19T11:29:14.344Z</time>
      </trkpt>
      <trkpt lat="45.91763" lon="6.36442">
        <ele>1130</ele>
        <time>2026-08-19T11:29:15.344Z</time>
      </trkpt>
      <trkpt lat="45.91763" lon="6.36444">
        <ele>1129</ele>
        <time>2026-08-19T11:29:16.344Z</time>
      </trkpt>
      <trkpt lat="45.91764" lon="6.36447">
        <ele>1128</ele>
        <time>2026-08-19T11:29:17.344Z</time>
      </trkpt>
      <trkpt lat="45.91764" lon="6.36449">
        <ele>1127</ele>
        <time>2026-08-19T11:29:18.344Z</time>
      </trkpt>
      <trkpt lat="45.91764" lon="6.36452">
        <ele>1127</ele>
        <time>2026-08-19T11:29:19.344Z</time>
      </trkpt>
      <trkpt lat="45.91764" lon="6.36454">
        <ele>1126</ele>
        <time>2026-08-19T11:29:20.344Z</time>
      </trkpt>
      <trkpt lat="45.91764" lon="6.36455">
        <ele>1126</ele>
        <time>2026-08-19T11:29:21.344Z</time>
      </trkpt>
      <trkpt lat="45.91765" lon="6.36457">
        <ele>1125</ele>
        <time>2026-08-19T11:29:22.344Z</time>
      </trkpt>
      <trkpt lat="45.91765" lon="6.36459">
        <ele>1125</ele>
        <time>2026-08-19T11:29:23.344Z</time>
      </trkpt>
      <trkpt lat="45.91766" lon="6.36461">
        <ele>1124</ele>
        <time>2026-08-19T11:29:24.344Z</time>
      </trkpt>
      <trkpt lat="45.91766" lon="6.36464">
        <ele>1124</ele>
        <time>2026-08-19T11:29:25.344Z</time>
      </trkpt>
      <trkpt lat="45.91765" lon="6.36467">
        <ele>1124</ele>
        <time>2026-08-19T11:29:26.344Z</time>
      </trkpt>
      <trkpt lat="45.91764" lon="6.36472">
        <ele>1124</ele>
        <time>2026-08-19T11:29:27.344Z</time>
      </trkpt>
      <trkpt lat="45.91763" lon="6.36476">
        <ele>1123</ele>
        <time>2026-08-19T11:29:28.344Z</time>
      </trkpt>
      <trkpt lat="45.91762" lon="6.36481">
        <ele>1123</ele>
        <time>2026-08-19T11:29:29.344Z</time>
      </trkpt>
      <trkpt lat="45.91761" lon="6.36486">
        <ele>1123</ele>
        <time>2026-08-19T11:29:30.344Z</time>
      </trkpt>
      <trkpt lat="45.91761" lon="6.36489">
        <ele>1122</ele>
        <time>2026-08-19T11:29:31.344Z</time>
      </trkpt>
      <trkpt lat="45.9176" lon="6.36492">
        <ele>1121</ele>
        <time>2026-08-19T11:29:32.344Z</time>
      </trkpt>
      <trkpt lat="45.91759" lon="6.36495">
        <ele>1120</ele>
        <time>2026-08-19T11:29:33.344Z</time>
      </trkpt>
      <trkpt lat="45.91757" lon="6.36498">
        <ele>1120</ele>
        <time>2026-08-19T11:29:34.344Z</time>
      </trkpt>
      <trkpt lat="45.91756" lon="6.36501">
        <ele>1119</ele>
        <time>2026-08-19T11:29:35.344Z</time>
      </trkpt>
      <trkpt lat="45.91756" lon="6.36502">
        <ele>1118</ele>
        <time>2026-08-19T11:29:36.344Z</time>
      </trkpt>
      <trkpt lat="45.91755" lon="6.36505">
        <ele>1117</ele>
        <time>2026-08-19T11:29:37.344Z</time>
      </trkpt>
      <trkpt lat="45.91755" lon="6.36508">
        <ele>1116</ele>
        <time>2026-08-19T11:29:38.344Z</time>
      </trkpt>
      <trkpt lat="45.91755" lon="6.36511">
        <ele>1115</ele>
        <time>2026-08-19T11:29:39.345Z</time>
      </trkpt>
      <trkpt lat="45.91756" lon="6.36513">
        <ele>1114</ele>
        <time>2026-08-19T11:29:40.344Z</time>
      </trkpt>
      <trkpt lat="45.91756" lon="6.36515">
        <ele>1114</ele>
        <time>2026-08-19T11:29:41.344Z</time>
      </trkpt>
      <trkpt lat="45.91756" lon="6.36518">
        <ele>1113</ele>
        <time>2026-08-19T11:29:42.344Z</time>
      </trkpt>
      <trkpt lat="45.91756" lon="6.3652">
        <ele>1112</ele>
        <time>2026-08-19T11:29:43.344Z</time>
      </trkpt>
      <trkpt lat="45.91755" lon="6.36521">
        <ele>1112</ele>
        <time>2026-08-19T11:29:44.344Z</time>
      </trkpt>
      <trkpt lat="45.91756" lon="6.36523">
        <ele>1111</ele>
        <time>2026-08-19T11:29:45.344Z</time>
      </trkpt>
      <trkpt lat="45.91757" lon="6.36524">
        <ele>1111</ele>
        <time>2026-08-19T11:29:46.344Z</time>
      </trkpt>
      <trkpt lat="45.91757" lon="6.36526">
        <ele>1110</ele>
        <time>2026-08-19T11:29:47.344Z</time>
      </trkpt>
      <trkpt lat="45.91758" lon="6.36528">
        <ele>1110</ele>
        <time>2026-08-19T11:29:48.344Z</time>
      </trkpt>
      <trkpt lat="45.91758" lon="6.36531">
        <ele>1109</ele>
        <time>2026-08-19T11:29:49.344Z</time>
      </trkpt>
      <trkpt lat="45.91758" lon="6.36533">
        <ele>1108</ele>
        <time>2026-08-19T11:29:50.344Z</time>
      </trkpt>
      <trkpt lat="45.91758" lon="6.36534">
        <ele>1107</ele>
        <time>2026-08-19T11:29:51.344Z</time>
      </trkpt>
      <trkpt lat="45.91759" lon="6.36536">
        <ele>1106</ele>
        <time>2026-08-19T11:29:52.344Z</time>
      </trkpt>
      <trkpt lat="45.91759" lon="6.36538">
        <ele>1105</ele>
        <time>2026-08-19T11:29:53.344Z</time>
      </trkpt>
      <trkpt lat="45.91759" lon="6.3654">
        <ele>1104</ele>
        <time>2026-08-19T11:29:54.344Z</time>
      </trkpt>
      <trkpt lat="45.9176" lon="6.36543">
        <ele>1103</ele>
        <time>2026-08-19T11:29:55.344Z</time>
      </trkpt>
      <trkpt lat="45.91759" lon="6.36547">
        <ele>1103</ele>
        <time>2026-08-19T11:29:56.344Z</time>
      </trkpt>
      <trkpt lat="45.91759" lon="6.3655">
        <ele>1102</ele>
        <time>2026-08-19T11:29:57.344Z</time>
      </trkpt>
      <trkpt lat="45.91759" lon="6.36552">
        <ele>1101</ele>
        <time>2026-08-19T11:29:58.344Z</time>
      </trkpt>
      <trkpt lat="45.91759" lon="6.36554">
        <ele>1101</ele>
        <time>2026-08-19T11:29:59.344Z</time>
      </trkpt>
      <trkpt lat="45.91759" lon="6.36557">
        <ele>1100</ele>
        <time>2026-08-19T11:30:00.344Z</time>
      </trkpt>
      <trkpt lat="45.91759" lon="6.36559">
        <ele>1100</ele>
        <time>2026-08-19T11:30:01.344Z</time>
      </trkpt>
      <trkpt lat="45.9176" lon="6.36561">
        <ele>1099</ele>
        <time>2026-08-19T11:30:02.344Z</time>
      </trkpt>
      <trkpt lat="45.9176" lon="6.36564">
        <ele>1099</ele>
        <time>2026-08-19T11:30:03.344Z</time>
      </trkpt>
      <trkpt lat="45.9176" lon="6.36566">
        <ele>1098</ele>
        <time>2026-08-19T11:30:04.344Z</time>
      </trkpt>
      <trkpt lat="45.91759" lon="6.36569">
        <ele>1098</ele>
        <time>2026-08-19T11:30:05.344Z</time>
      </trkpt>
      <trkpt lat="45.91758" lon="6.36573">
        <ele>1097</ele>
        <time>2026-08-19T11:30:06.344Z</time>
      </trkpt>
      <trkpt lat="45.91757" lon="6.36576">
        <ele>1097</ele>
        <time>2026-08-19T11:30:07.344Z</time>
      </trkpt>
      <trkpt lat="45.91756" lon="6.36579">
        <ele>1096</ele>
        <time>2026-08-19T11:30:08.344Z</time>
      </trkpt>
      <trkpt lat="45.91756" lon="6.36582">
        <ele>1095</ele>
        <time>2026-08-19T11:30:09.344Z</time>
      </trkpt>
      <trkpt lat="45.91756" lon="6.36583">
        <ele>1094</ele>
        <time>2026-08-19T11:30:10.344Z</time>
      </trkpt>
      <trkpt lat="45.91755" lon="6.36586">
        <ele>1093</ele>
        <time>2026-08-19T11:30:11.344Z</time>
      </trkpt>
      <trkpt lat="45.91753" lon="6.36588">
        <ele>1092</ele>
        <time>2026-08-19T11:30:12.344Z</time>
      </trkpt>
      <trkpt lat="45.91752" lon="6.3659">
        <ele>1091</ele>
        <time>2026-08-19T11:30:13.344Z</time>
      </trkpt>
      <trkpt lat="45.91751" lon="6.36592">
        <ele>1090</ele>
        <time>2026-08-19T11:30:14.344Z</time>
      </trkpt>
      <trkpt lat="45.9175" lon="6.36593">
        <ele>1090</ele>
        <time>2026-08-19T11:30:15.344Z</time>
      </trkpt>
      <trkpt lat="45.91748" lon="6.36597">
        <ele>1089</ele>
        <time>2026-08-19T11:30:16.344Z</time>
      </trkpt>
      <trkpt lat="45.91746" lon="6.36602">
        <ele>1088</ele>
        <time>2026-08-19T11:30:17.344Z</time>
      </trkpt>
      <trkpt lat="45.91743" lon="6.36606">
        <ele>1088</ele>
        <time>2026-08-19T11:30:18.344Z</time>
      </trkpt>
      <trkpt lat="45.91741" lon="6.3661">
        <ele>1087</ele>
        <time>2026-08-19T11:30:19.344Z</time>
      </trkpt>
      <trkpt lat="45.91739" lon="6.36613">
        <ele>1087</ele>
        <time>2026-08-19T11:30:20.344Z</time>
      </trkpt>
      <trkpt lat="45.91736" lon="6.36615">
        <ele>1087</ele>
        <time>2026-08-19T11:30:21.344Z</time>
      </trkpt>
      <trkpt lat="45.91735" lon="6.36616">
        <ele>1086</ele>
        <time>2026-08-19T11:30:22.344Z</time>
      </trkpt>
      <trkpt lat="45.91733" lon="6.36616">
        <ele>1086</ele>
        <time>2026-08-19T11:30:23.344Z</time>
      </trkpt>
      <trkpt lat="45.91732" lon="6.36617">
        <ele>1086</ele>
        <time>2026-08-19T11:30:24.344Z</time>
      </trkpt>
      <trkpt lat="45.9173" lon="6.36618">
        <ele>1086</ele>
        <time>2026-08-19T11:30:25.344Z</time>
      </trkpt>
      <trkpt lat="45.91729" lon="6.36619">
        <ele>1086</ele>
        <time>2026-08-19T11:30:26.344Z</time>
      </trkpt>
      <trkpt lat="45.91727" lon="6.36621">
        <ele>1086</ele>
        <time>2026-08-19T11:30:27.344Z</time>
      </trkpt>
      <trkpt lat="45.91725" lon="6.36622">
        <ele>1086</ele>
        <time>2026-08-19T11:30:28.344Z</time>
      </trkpt>
      <trkpt lat="45.91723" lon="6.36622">
        <ele>1086</ele>
        <time>2026-08-19T11:30:29.344Z</time>
      </trkpt>
      <trkpt lat="45.91722" lon="6.36622">
        <ele>1086</ele>
        <time>2026-08-19T11:30:30.344Z</time>
      </trkpt>
      <trkpt lat="45.9172" lon="6.36621">
        <ele>1085</ele>
        <time>2026-08-19T11:30:31.344Z</time>
      </trkpt>
      <trkpt lat="45.91719" lon="6.36621">
        <ele>1085</ele>
        <time>2026-08-19T11:30:32.344Z</time>
      </trkpt>
      <trkpt lat="45.91717" lon="6.36622">
        <ele>1084</ele>
        <time>2026-08-19T11:30:33.344Z</time>
      </trkpt>
      <trkpt lat="45.91716" lon="6.36621">
        <ele>1084</ele>
        <time>2026-08-19T11:30:34.345Z</time>
      </trkpt>
      <trkpt lat="45.91714" lon="6.36621">
        <ele>1083</ele>
        <time>2026-08-19T11:30:35.344Z</time>
      </trkpt>
      <trkpt lat="45.91712" lon="6.36621">
        <ele>1082</ele>
        <time>2026-08-19T11:30:36.344Z</time>
      </trkpt>
      <trkpt lat="45.9171" lon="6.36622">
        <ele>1081</ele>
        <time>2026-08-19T11:30:37.344Z</time>
      </trkpt>
      <trkpt lat="45.91708" lon="6.36623">
        <ele>1080</ele>
        <time>2026-08-19T11:30:38.344Z</time>
      </trkpt>
      <trkpt lat="45.91706" lon="6.36624">
        <ele>1080</ele>
        <time>2026-08-19T11:30:39.344Z</time>
      </trkpt>
      <trkpt lat="45.91704" lon="6.36624">
        <ele>1079</ele>
        <time>2026-08-19T11:30:40.344Z</time>
      </trkpt>
      <trkpt lat="45.91704" lon="6.36621">
        <ele>1078</ele>
        <time>2026-08-19T11:30:41.344Z</time>
      </trkpt>
      <trkpt lat="45.91702" lon="6.36622">
        <ele>1077</ele>
        <time>2026-08-19T11:30:42.344Z</time>
      </trkpt>
      <trkpt lat="45.91699" lon="6.36625">
        <ele>1076</ele>
        <time>2026-08-19T11:30:43.344Z</time>
      </trkpt>
      <trkpt lat="45.91697" lon="6.36627">
        <ele>1075</ele>
        <time>2026-08-19T11:30:44.344Z</time>
      </trkpt>
      <trkpt lat="45.91696" lon="6.36627">
        <ele>1075</ele>
        <time>2026-08-19T11:30:45.344Z</time>
      </trkpt>
      <trkpt lat="45.91695" lon="6.36628">
        <ele>1074</ele>
        <time>2026-08-19T11:30:46.344Z</time>
      </trkpt>
      <trkpt lat="45.91693" lon="6.36626">
        <ele>1073</ele>
        <time>2026-08-19T11:30:47.344Z</time>
      </trkpt>
      <trkpt lat="45.91692" lon="6.36625">
        <ele>1072</ele>
        <time>2026-08-19T11:30:48.344Z</time>
      </trkpt>
      <trkpt lat="45.9169" lon="6.36622">
        <ele>1070</ele>
        <time>2026-08-19T11:30:49.344Z</time>
      </trkpt>
      <trkpt lat="45.91687" lon="6.36619">
        <ele>1069</ele>
        <time>2026-08-19T11:30:50.345Z</time>
      </trkpt>
      <trkpt lat="45.91685" lon="6.36616">
        <ele>1067</ele>
        <time>2026-08-19T11:30:51.344Z</time>
      </trkpt>
      <trkpt lat="45.91687" lon="6.36611">
        <ele>1066</ele>
        <time>2026-08-19T11:30:52.344Z</time>
      </trkpt>
      <trkpt lat="45.91686" lon="6.3661">
        <ele>1065</ele>
        <time>2026-08-19T11:30:53.344Z</time>
      </trkpt>
      <trkpt lat="45.91684" lon="6.3661">
        <ele>1063</ele>
        <time>2026-08-19T11:30:54.344Z</time>
      </trkpt>
      <trkpt lat="45.91683" lon="6.36609">
        <ele>1062</ele>
        <time>2026-08-19T11:30:55.344Z</time>
      </trkpt>
      <trkpt lat="45.91684" lon="6.36608">
        <ele>1061</ele>
        <time>2026-08-19T11:30:56.344Z</time>
      </trkpt>
      <trkpt lat="45.91683" lon="6.36607">
        <ele>1061</ele>
        <time>2026-08-19T11:30:57.344Z</time>
      </trkpt>
      <trkpt lat="45.91685" lon="6.36607">
        <ele>1060</ele>
        <time>2026-08-19T11:30:58.344Z</time>
      </trkpt>
      <trkpt lat="45.91686" lon="6.36608">
        <ele>1059</ele>
        <time>2026-08-19T11:30:59.344Z</time>
      </trkpt>
      <trkpt lat="45.91687" lon="6.36609">
        <ele>1058</ele>
        <time>2026-08-19T11:31:00.344Z</time>
      </trkpt>
      <trkpt lat="45.91687" lon="6.36611">
        <ele>1058</ele>
        <time>2026-08-19T11:31:01.344Z</time>
      </trkpt>
      <trkpt lat="45.91687" lon="6.36612">
        <ele>1057</ele>
        <time>2026-08-19T11:31:02.344Z</time>
      </trkpt>
      <trkpt lat="45.91686" lon="6.36613">
        <ele>1056</ele>
        <time>2026-08-19T11:31:03.344Z</time>
      </trkpt>
      <trkpt lat="45.91685" lon="6.36613">
        <ele>1055</ele>
        <time>2026-08-19T11:31:04.344Z</time>
      </trkpt>
      <trkpt lat="45.91684" lon="6.36614">
        <ele>1055</ele>
        <time>2026-08-19T11:31:05.344Z</time>
      </trkpt>
      <trkpt lat="45.91683" lon="6.36614">
        <ele>1054</ele>
        <time>2026-08-19T11:31:06.344Z</time>
      </trkpt>
      <trkpt lat="45.91682" lon="6.36614">
        <ele>1054</ele>
        <time>2026-08-19T11:31:07.344Z</time>
      </trkpt>
      <trkpt lat="45.91681" lon="6.36614">
        <ele>1054</ele>
        <time>2026-08-19T11:31:08.344Z</time>
      </trkpt>
      <trkpt lat="45.9168" lon="6.36614">
        <ele>1054</ele>
        <time>2026-08-19T11:31:09.344Z</time>
      </trkpt>
      <trkpt lat="45.9168" lon="6.36614">
        <ele>1054</ele>
        <time>2026-08-19T11:31:10.344Z</time>
      </trkpt>
      <trkpt lat="45.91679" lon="6.36614">
        <ele>1054</ele>
        <time>2026-08-19T11:31:11.344Z</time>
      </trkpt>
      <trkpt lat="45.91679" lon="6.36614">
        <ele>1054</ele>
        <time>2026-08-19T11:31:12.344Z</time>
      </trkpt>
      <trkpt lat="45.91678" lon="6.36614">
        <ele>1053</ele>
        <time>2026-08-19T11:31:13.344Z</time>
      </trkpt>
      <trkpt lat="45.91678" lon="6.36615">
        <ele>1053</ele>
        <time>2026-08-19T11:31:14.344Z</time>
      </trkpt>
      <trkpt lat="45.91678" lon="6.36615">
        <ele>1053</ele>
        <time>2026-08-19T11:31:15.344Z</time>
      </trkpt>
      <trkpt lat="45.91677" lon="6.36616">
        <ele>1053</ele>
        <time>2026-08-19T11:31:16.344Z</time>
      </trkpt>
      <trkpt lat="45.91677" lon="6.36616">
        <ele>1053</ele>
        <time>2026-08-19T11:31:17.344Z</time>
      </trkpt>
      <trkpt lat="45.91676" lon="6.36617">
        <ele>1053</ele>
        <time>2026-08-19T11:31:18.344Z</time>
      </trkpt>
      <trkpt lat="45.91674" lon="6.36619">
        <ele>1052</ele>
        <time>2026-08-19T11:31:19.344Z</time>
      </trkpt>
      <trkpt lat="45.91673" lon="6.3662">
        <ele>1052</ele>
        <time>2026-08-19T11:31:20.344Z</time>
      </trkpt>
      <trkpt lat="45.91672" lon="6.36621">
        <ele>1052</ele>
        <time>2026-08-19T11:31:21.344Z</time>
      </trkpt>
      <trkpt lat="45.91671" lon="6.36622">
        <ele>1052</ele>
        <time>2026-08-19T11:31:22.344Z</time>
      </trkpt>
      <trkpt lat="45.91669" lon="6.36622">
        <ele>1051</ele>
        <time>2026-08-19T11:31:23.344Z</time>
      </trkpt>
      <trkpt lat="45.91668" lon="6.36622">
        <ele>1051</ele>
        <time>2026-08-19T11:31:24.344Z</time>
      </trkpt>
      <trkpt lat="45.91667" lon="6.36621">
        <ele>1050</ele>
        <time>2026-08-19T11:31:25.344Z</time>
      </trkpt>
      <trkpt lat="45.91665" lon="6.3662">
        <ele>1050</ele>
        <time>2026-08-19T11:31:26.344Z</time>
      </trkpt>
      <trkpt lat="45.91665" lon="6.36619">
        <ele>1049</ele>
        <time>2026-08-19T11:31:27.344Z</time>
      </trkpt>
      <trkpt lat="45.91664" lon="6.36618">
        <ele>1048</ele>
        <time>2026-08-19T11:31:28.344Z</time>
      </trkpt>
      <trkpt lat="45.91662" lon="6.36617">
        <ele>1048</ele>
        <time>2026-08-19T11:31:29.344Z</time>
      </trkpt>
      <trkpt lat="45.91661" lon="6.36618">
        <ele>1047</ele>
        <time>2026-08-19T11:31:30.344Z</time>
      </trkpt>
      <trkpt lat="45.9166" lon="6.36619">
        <ele>1047</ele>
        <time>2026-08-19T11:31:31.344Z</time>
      </trkpt>
      <trkpt lat="45.9166" lon="6.36618">
        <ele>1047</ele>
        <time>2026-08-19T11:31:32.344Z</time>
      </trkpt>
      <trkpt lat="45.91659" lon="6.36618">
        <ele>1046</ele>
        <time>2026-08-19T11:31:33.344Z</time>
      </trkpt>
      <trkpt lat="45.91658" lon="6.36616">
        <ele>1046</ele>
        <time>2026-08-19T11:31:34.344Z</time>
      </trkpt>
      <trkpt lat="45.91657" lon="6.36616">
        <ele>1045</ele>
        <time>2026-08-19T11:31:35.344Z</time>
      </trkpt>
      <trkpt lat="45.91656" lon="6.36616">
        <ele>1045</ele>
        <time>2026-08-19T11:31:36.344Z</time>
      </trkpt>
      <trkpt lat="45.91656" lon="6.36615">
        <ele>1044</ele>
        <time>2026-08-19T11:31:37.344Z</time>
      </trkpt>
      <trkpt lat="45.91655" lon="6.36615">
        <ele>1044</ele>
        <time>2026-08-19T11:31:38.344Z</time>
      </trkpt>
      <trkpt lat="45.91654" lon="6.36616">
        <ele>1043</ele>
        <time>2026-08-19T11:31:39.344Z</time>
      </trkpt>
      <trkpt lat="45.91653" lon="6.36616">
        <ele>1043</ele>
        <time>2026-08-19T11:31:40.344Z</time>
      </trkpt>
      <trkpt lat="45.91652" lon="6.36617">
        <ele>1043</ele>
        <time>2026-08-19T11:31:41.344Z</time>
      </trkpt>
      <trkpt lat="45.91651" lon="6.36618">
        <ele>1042</ele>
        <time>2026-08-19T11:31:42.344Z</time>
      </trkpt>
      <trkpt lat="45.9165" lon="6.36619">
        <ele>1042</ele>
        <time>2026-08-19T11:31:43.344Z</time>
      </trkpt>
      <trkpt lat="45.91648" lon="6.3662">
        <ele>1041</ele>
        <time>2026-08-19T11:31:44.344Z</time>
      </trkpt>
      <trkpt lat="45.91646" lon="6.3662">
        <ele>1041</ele>
        <time>2026-08-19T11:31:45.344Z</time>
      </trkpt>
      <trkpt lat="45.91644" lon="6.36621">
        <ele>1040</ele>
        <time>2026-08-19T11:31:46.344Z</time>
      </trkpt>
      <trkpt lat="45.91643" lon="6.36622">
        <ele>1040</ele>
        <time>2026-08-19T11:31:47.344Z</time>
      </trkpt>
      <trkpt lat="45.91641" lon="6.36624">
        <ele>1040</ele>
        <time>2026-08-19T11:31:48.344Z</time>
      </trkpt>
      <trkpt lat="45.9164" lon="6.36626">
        <ele>1040</ele>
        <time>2026-08-19T11:31:49.344Z</time>
      </trkpt>
      <trkpt lat="45.91639" lon="6.36627">
        <ele>1040</ele>
        <time>2026-08-19T11:31:50.344Z</time>
      </trkpt>
      <trkpt lat="45.91637" lon="6.36628">
        <ele>1040</ele>
        <time>2026-08-19T11:31:51.344Z</time>
      </trkpt>
      <trkpt lat="45.91635" lon="6.36629">
        <ele>1040</ele>
        <time>2026-08-19T11:31:52.344Z</time>
      </trkpt>
      <trkpt lat="45.91633" lon="6.36629">
        <ele>1040</ele>
        <time>2026-08-19T11:31:53.344Z</time>
      </trkpt>
      <trkpt lat="45.91631" lon="6.36629">
        <ele>1041</ele>
        <time>2026-08-19T11:31:54.344Z</time>
      </trkpt>
      <trkpt lat="45.9163" lon="6.36629">
        <ele>1041</ele>
        <time>2026-08-19T11:31:55.344Z</time>
      </trkpt>
      <trkpt lat="45.91629" lon="6.36628">
        <ele>1041</ele>
        <time>2026-08-19T11:31:56.344Z</time>
      </trkpt>
      <trkpt lat="45.91628" lon="6.36627">
        <ele>1041</ele>
        <time>2026-08-19T11:31:57.344Z</time>
      </trkpt>
      <trkpt lat="45.91627" lon="6.36626">
        <ele>1041</ele>
        <time>2026-08-19T11:31:58.344Z</time>
      </trkpt>
      <trkpt lat="45.91625" lon="6.36625">
        <ele>1040</ele>
        <time>2026-08-19T11:31:59.344Z</time>
      </trkpt>
      <trkpt lat="45.91623" lon="6.36625">
        <ele>1040</ele>
        <time>2026-08-19T11:32:00.344Z</time>
      </trkpt>
      <trkpt lat="45.91622" lon="6.36625">
        <ele>1039</ele>
        <time>2026-08-19T11:32:01.344Z</time>
      </trkpt>
      <trkpt lat="45.9162" lon="6.36625">
        <ele>1039</ele>
        <time>2026-08-19T11:32:02.344Z</time>
      </trkpt>
      <trkpt lat="45.91619" lon="6.36624">
        <ele>1038</ele>
        <time>2026-08-19T11:32:03.344Z</time>
      </trkpt>
      <trkpt lat="45.91618" lon="6.36625">
        <ele>1038</ele>
        <time>2026-08-19T11:32:04.344Z</time>
      </trkpt>
      <trkpt lat="45.91617" lon="6.36625">
        <ele>1037</ele>
        <time>2026-08-19T11:32:05.344Z</time>
      </trkpt>
      <trkpt lat="45.91616" lon="6.36625">
        <ele>1036</ele>
        <time>2026-08-19T11:32:06.344Z</time>
      </trkpt>
      <trkpt lat="45.91615" lon="6.36624">
        <ele>1036</ele>
        <time>2026-08-19T11:32:07.344Z</time>
      </trkpt>
      <trkpt lat="45.91614" lon="6.36624">
        <ele>1035</ele>
        <time>2026-08-19T11:32:08.345Z</time>
      </trkpt>
      <trkpt lat="45.91613" lon="6.36624">
        <ele>1034</ele>
        <time>2026-08-19T11:32:09.344Z</time>
      </trkpt>
      <trkpt lat="45.91613" lon="6.36624">
        <ele>1033</ele>
        <time>2026-08-19T11:32:10.344Z</time>
      </trkpt>
      <trkpt lat="45.91612" lon="6.36625">
        <ele>1032</ele>
        <time>2026-08-19T11:32:11.344Z</time>
      </trkpt>
      <trkpt lat="45.9161" lon="6.36626">
        <ele>1032</ele>
        <time>2026-08-19T11:32:12.344Z</time>
      </trkpt>
      <trkpt lat="45.91609" lon="6.36626">
        <ele>1031</ele>
        <time>2026-08-19T11:32:13.344Z</time>
      </trkpt>
      <trkpt lat="45.91608" lon="6.36625">
        <ele>1032</ele>
        <time>2026-08-19T11:32:14.344Z</time>
      </trkpt>
      <trkpt lat="45.91607" lon="6.36624">
        <ele>1032</ele>
        <time>2026-08-19T11:32:15.344Z</time>
      </trkpt>
      <trkpt lat="45.91606" lon="6.36623">
        <ele>1032</ele>
        <time>2026-08-19T11:32:16.344Z</time>
      </trkpt>
      <trkpt lat="45.91604" lon="6.36622">
        <ele>1032</ele>
        <time>2026-08-19T11:32:17.345Z</time>
      </trkpt>
      <trkpt lat="45.91603" lon="6.36622">
        <ele>1032</ele>
        <time>2026-08-19T11:32:18.344Z</time>
      </trkpt>
      <trkpt lat="45.91602" lon="6.36622">
        <ele>1032</ele>
        <time>2026-08-19T11:32:19.344Z</time>
      </trkpt>
      <trkpt lat="45.91601" lon="6.36623">
        <ele>1032</ele>
        <time>2026-08-19T11:32:20.344Z</time>
      </trkpt>
      <trkpt lat="45.91599" lon="6.36624">
        <ele>1032</ele>
        <time>2026-08-19T11:32:21.344Z</time>
      </trkpt>
      <trkpt lat="45.91598" lon="6.36625">
        <ele>1031</ele>
        <time>2026-08-19T11:32:22.344Z</time>
      </trkpt>
      <trkpt lat="45.91597" lon="6.36625">
        <ele>1031</ele>
        <time>2026-08-19T11:32:23.344Z</time>
      </trkpt>
      <trkpt lat="45.91596" lon="6.36626">
        <ele>1030</ele>
        <time>2026-08-19T11:32:24.344Z</time>
      </trkpt>
      <trkpt lat="45.91594" lon="6.36627">
        <ele>1030</ele>
        <time>2026-08-19T11:32:25.344Z</time>
      </trkpt>
      <trkpt lat="45.91593" lon="6.36628">
        <ele>1029</ele>
        <time>2026-08-19T11:32:26.344Z</time>
      </trkpt>
      <trkpt lat="45.91591" lon="6.36628">
        <ele>1028</ele>
        <time>2026-08-19T11:32:27.344Z</time>
      </trkpt>
      <trkpt lat="45.91589" lon="6.36629">
        <ele>1028</ele>
        <time>2026-08-19T11:32:28.344Z</time>
      </trkpt>
      <trkpt lat="45.91588" lon="6.36628">
        <ele>1028</ele>
        <time>2026-08-19T11:32:29.344Z</time>
      </trkpt>
      <trkpt lat="45.91587" lon="6.36628">
        <ele>1029</ele>
        <time>2026-08-19T11:32:30.344Z</time>
      </trkpt>
      <trkpt lat="45.91587" lon="6.36628">
        <ele>1029</ele>
        <time>2026-08-19T11:32:31.344Z</time>
      </trkpt>
      <trkpt lat="45.91586" lon="6.36628">
        <ele>1029</ele>
        <time>2026-08-19T11:32:32.344Z</time>
      </trkpt>
      <trkpt lat="45.91585" lon="6.36629">
        <ele>1030</ele>
        <time>2026-08-19T11:32:33.344Z</time>
      </trkpt>
      <trkpt lat="45.91585" lon="6.36629">
        <ele>1030</ele>
        <time>2026-08-19T11:32:34.344Z</time>
      </trkpt>
      <trkpt lat="45.91585" lon="6.3663">
        <ele>1030</ele>
        <time>2026-08-19T11:32:35.344Z</time>
      </trkpt>
      <trkpt lat="45.91586" lon="6.3663">
        <ele>1030</ele>
        <time>2026-08-19T11:32:36.344Z</time>
      </trkpt>
      <trkpt lat="45.91586" lon="6.3663">
        <ele>1030</ele>
        <time>2026-08-19T11:32:37.344Z</time>
      </trkpt>
      <trkpt lat="45.91587" lon="6.36631">
        <ele>1030</ele>
        <time>2026-08-19T11:32:38.344Z</time>
      </trkpt>
      <trkpt lat="45.91588" lon="6.36632">
        <ele>1030</ele>
        <time>2026-08-19T11:32:39.344Z</time>
      </trkpt>
      <trkpt lat="45.91588" lon="6.36632">
        <ele>1031</ele>
        <time>2026-08-19T11:32:40.344Z</time>
      </trkpt>
      <trkpt lat="45.91588" lon="6.36633">
        <ele>1030</ele>
        <time>2026-08-19T11:32:41.344Z</time>
      </trkpt>
      <trkpt lat="45.91588" lon="6.36634">
        <ele>1030</ele>
        <time>2026-08-19T11:32:42.345Z</time>
      </trkpt>
      <trkpt lat="45.91587" lon="6.36636">
        <ele>1030</ele>
        <time>2026-08-19T11:32:43.344Z</time>
      </trkpt>
      <trkpt lat="45.91586" lon="6.36637">
        <ele>1029</ele>
        <time>2026-08-19T11:32:44.344Z</time>
      </trkpt>
      <trkpt lat="45.91586" lon="6.36639">
        <ele>1028</ele>
        <time>2026-08-19T11:32:45.344Z</time>
      </trkpt>
      <trkpt lat="45.91585" lon="6.36641">
        <ele>1027</ele>
        <time>2026-08-19T11:32:46.344Z</time>
      </trkpt>
      <trkpt lat="45.91584" lon="6.36643">
        <ele>1026</ele>
        <time>2026-08-19T11:32:47.344Z</time>
      </trkpt>
      <trkpt lat="45.91584" lon="6.36644">
        <ele>1025</ele>
        <time>2026-08-19T11:32:48.344Z</time>
      </trkpt>
      <trkpt lat="45.91583" lon="6.36646">
        <ele>1024</ele>
        <time>2026-08-19T11:32:49.344Z</time>
      </trkpt>
      <trkpt lat="45.91582" lon="6.36647">
        <ele>1023</ele>
        <time>2026-08-19T11:32:50.344Z</time>
      </trkpt>
      <trkpt lat="45.91582" lon="6.36649">
        <ele>1023</ele>
        <time>2026-08-19T11:32:51.344Z</time>
      </trkpt>
      <trkpt lat="45.91581" lon="6.3665">
        <ele>1023</ele>
        <time>2026-08-19T11:32:52.344Z</time>
      </trkpt>
      <trkpt lat="45.9158" lon="6.36652">
        <ele>1022</ele>
        <time>2026-08-19T11:32:53.344Z</time>
      </trkpt>
      <trkpt lat="45.91578" lon="6.36653">
        <ele>1022</ele>
        <time>2026-08-19T11:32:54.344Z</time>
      </trkpt>
      <trkpt lat="45.91577" lon="6.36654">
        <ele>1021</ele>
        <time>2026-08-19T11:32:55.344Z</time>
      </trkpt>
      <trkpt lat="45.91574" lon="6.36656">
        <ele>1021</ele>
        <time>2026-08-19T11:32:56.344Z</time>
      </trkpt>
      <trkpt lat="45.91572" lon="6.36658">
        <ele>1021</ele>
        <time>2026-08-19T11:32:57.344Z</time>
      </trkpt>
      <trkpt lat="45.9157" lon="6.36659">
        <ele>1020</ele>
        <time>2026-08-19T11:32:58.344Z</time>
      </trkpt>
      <trkpt lat="45.9157" lon="6.3666">
        <ele>1020</ele>
        <time>2026-08-19T11:32:59.344Z</time>
      </trkpt>
      <trkpt lat="45.9157" lon="6.36661">
        <ele>1020</ele>
        <time>2026-08-19T11:33:00.344Z</time>
      </trkpt>
      <trkpt lat="45.9157" lon="6.36661">
        <ele>1019</ele>
        <time>2026-08-19T11:33:01.344Z</time>
      </trkpt>
      <trkpt lat="45.9157" lon="6.36661">
        <ele>1019</ele>
        <time>2026-08-19T11:33:02.344Z</time>
      </trkpt>
      <trkpt lat="45.91569" lon="6.36662">
        <ele>1018</ele>
        <time>2026-08-19T11:33:03.344Z</time>
      </trkpt>
      <trkpt lat="45.91568" lon="6.36663">
        <ele>1017</ele>
        <time>2026-08-19T11:33:04.344Z</time>
      </trkpt>
      <trkpt lat="45.91567" lon="6.36663">
        <ele>1016</ele>
        <time>2026-08-19T11:33:05.344Z</time>
      </trkpt>
      <trkpt lat="45.91567" lon="6.36662">
        <ele>1015</ele>
        <time>2026-08-19T11:33:06.344Z</time>
      </trkpt>
      <trkpt lat="45.91566" lon="6.36661">
        <ele>1014</ele>
        <time>2026-08-19T11:33:07.344Z</time>
      </trkpt>
      <trkpt lat="45.91565" lon="6.3666">
        <ele>1013</ele>
        <time>2026-08-19T11:33:08.345Z</time>
      </trkpt>
      <trkpt lat="45.91564" lon="6.3666">
        <ele>1013</ele>
        <time>2026-08-19T11:33:09.344Z</time>
      </trkpt>
      <trkpt lat="45.91564" lon="6.3666">
        <ele>1012</ele>
        <time>2026-08-19T11:33:10.344Z</time>
      </trkpt>
      <trkpt lat="45.91564" lon="6.36659">
        <ele>1012</ele>
        <time>2026-08-19T11:33:11.344Z</time>
      </trkpt>
      <trkpt lat="45.91564" lon="6.36659">
        <ele>1012</ele>
        <time>2026-08-19T11:33:12.344Z</time>
      </trkpt>
      <trkpt lat="45.91564" lon="6.36659">
        <ele>1011</ele>
        <time>2026-08-19T11:33:13.344Z</time>
      </trkpt>
      <trkpt lat="45.91564" lon="6.36658">
        <ele>1011</ele>
        <time>2026-08-19T11:33:14.344Z</time>
      </trkpt>
      <trkpt lat="45.91564" lon="6.36657">
        <ele>1010</ele>
        <time>2026-08-19T11:33:15.344Z</time>
      </trkpt>
      <trkpt lat="45.91563" lon="6.36655">
        <ele>1009</ele>
        <time>2026-08-19T11:33:16.344Z</time>
      </trkpt>
      <trkpt lat="45.91562" lon="6.36655">
        <ele>1008</ele>
        <time>2026-08-19T11:33:17.344Z</time>
      </trkpt>
      <trkpt lat="45.9156" lon="6.36654">
        <ele>1008</ele>
        <time>2026-08-19T11:33:18.344Z</time>
      </trkpt>
      <trkpt lat="45.91559" lon="6.36654">
        <ele>1007</ele>
        <time>2026-08-19T11:33:19.344Z</time>
      </trkpt>
      <trkpt lat="45.91557" lon="6.36654">
        <ele>1007</ele>
        <time>2026-08-19T11:33:20.344Z</time>
      </trkpt>
      <trkpt lat="45.91556" lon="6.36653">
        <ele>1007</ele>
        <time>2026-08-19T11:33:21.344Z</time>
      </trkpt>
      <trkpt lat="45.91554" lon="6.36654">
        <ele>1007</ele>
        <time>2026-08-19T11:33:22.344Z</time>
      </trkpt>
      <trkpt lat="45.91553" lon="6.36654">
        <ele>1007</ele>
        <time>2026-08-19T11:33:23.344Z</time>
      </trkpt>
      <trkpt lat="45.91551" lon="6.36655">
        <ele>1007</ele>
        <time>2026-08-19T11:33:24.344Z</time>
      </trkpt>
      <trkpt lat="45.9155" lon="6.36655">
        <ele>1007</ele>
        <time>2026-08-19T11:33:25.344Z</time>
      </trkpt>
      <trkpt lat="45.91549" lon="6.36654">
        <ele>1006</ele>
        <time>2026-08-19T11:33:26.344Z</time>
      </trkpt>
      <trkpt lat="45.91548" lon="6.36652">
        <ele>1006</ele>
        <time>2026-08-19T11:33:27.345Z</time>
      </trkpt>
      <trkpt lat="45.91547" lon="6.36652">
        <ele>1006</ele>
        <time>2026-08-19T11:33:28.344Z</time>
      </trkpt>
      <trkpt lat="45.91546" lon="6.36652">
        <ele>1005</ele>
        <time>2026-08-19T11:33:29.344Z</time>
      </trkpt>
      <trkpt lat="45.91544" lon="6.36653">
        <ele>1005</ele>
        <time>2026-08-19T11:33:30.344Z</time>
      </trkpt>
      <trkpt lat="45.91544" lon="6.36654">
        <ele>1005</ele>
        <time>2026-08-19T11:33:31.344Z</time>
      </trkpt>
      <trkpt lat="45.91542" lon="6.36654">
        <ele>1004</ele>
        <time>2026-08-19T11:33:32.344Z</time>
      </trkpt>
      <trkpt lat="45.91541" lon="6.36654">
        <ele>1004</ele>
        <time>2026-08-19T11:33:33.344Z</time>
      </trkpt>
      <trkpt lat="45.91539" lon="6.36654">
        <ele>1004</ele>
        <time>2026-08-19T11:33:34.344Z</time>
      </trkpt>
      <trkpt lat="45.91537" lon="6.36654">
        <ele>1003</ele>
        <time>2026-08-19T11:33:35.344Z</time>
      </trkpt>
      <trkpt lat="45.91535" lon="6.36653">
        <ele>1003</ele>
        <time>2026-08-19T11:33:36.344Z</time>
      </trkpt>
      <trkpt lat="45.91534" lon="6.36653">
        <ele>1003</ele>
        <time>2026-08-19T11:33:37.344Z</time>
      </trkpt>
      <trkpt lat="45.91534" lon="6.36653">
        <ele>1002</ele>
        <time>2026-08-19T11:33:38.344Z</time>
      </trkpt>
      <trkpt lat="45.91534" lon="6.36653">
        <ele>1002</ele>
        <time>2026-08-19T11:33:39.344Z</time>
      </trkpt>
      <trkpt lat="45.91535" lon="6.36652">
        <ele>1002</ele>
        <time>2026-08-19T11:33:40.344Z</time>
      </trkpt>
      <trkpt lat="45.91535" lon="6.36651">
        <ele>1001</ele>
        <time>2026-08-19T11:33:41.344Z</time>
      </trkpt>
      <trkpt lat="45.91534" lon="6.36651">
        <ele>1001</ele>
        <time>2026-08-19T11:33:42.344Z</time>
      </trkpt>
      <trkpt lat="45.91534" lon="6.36652">
        <ele>1000</ele>
        <time>2026-08-19T11:33:43.344Z</time>
      </trkpt>
      <trkpt lat="45.91534" lon="6.36653">
        <ele>999</ele>
        <time>2026-08-19T11:33:44.344Z</time>
      </trkpt>
      <trkpt lat="45.91535" lon="6.36654">
        <ele>998</ele>
        <time>2026-08-19T11:33:45.344Z</time>
      </trkpt>
      <trkpt lat="45.91535" lon="6.36655">
        <ele>997</ele>
        <time>2026-08-19T11:33:46.344Z</time>
      </trkpt>
      <trkpt lat="45.91534" lon="6.36656">
        <ele>997</ele>
        <time>2026-08-19T11:33:47.344Z</time>
      </trkpt>
      <trkpt lat="45.91534" lon="6.36657">
        <ele>996</ele>
        <time>2026-08-19T11:33:48.344Z</time>
      </trkpt>
      <trkpt lat="45.91533" lon="6.36657">
        <ele>995</ele>
        <time>2026-08-19T11:33:49.345Z</time>
      </trkpt>
      <trkpt lat="45.91532" lon="6.36657">
        <ele>994</ele>
        <time>2026-08-19T11:33:50.344Z</time>
      </trkpt>
      <trkpt lat="45.91531" lon="6.36657">
        <ele>993</ele>
        <time>2026-08-19T11:33:51.344Z</time>
      </trkpt>
      <trkpt lat="45.91529" lon="6.36656">
        <ele>992</ele>
        <time>2026-08-19T11:33:52.344Z</time>
      </trkpt>
      <trkpt lat="45.91528" lon="6.36656">
        <ele>992</ele>
        <time>2026-08-19T11:33:53.344Z</time>
      </trkpt>
      <trkpt lat="45.91527" lon="6.36655">
        <ele>992</ele>
        <time>2026-08-19T11:33:54.344Z</time>
      </trkpt>
      <trkpt lat="45.91525" lon="6.36655">
        <ele>991</ele>
        <time>2026-08-19T11:33:55.344Z</time>
      </trkpt>
      <trkpt lat="45.91524" lon="6.36654">
        <ele>991</ele>
        <time>2026-08-19T11:33:56.344Z</time>
      </trkpt>
      <trkpt lat="45.91523" lon="6.36654">
        <ele>991</ele>
        <time>2026-08-19T11:33:57.344Z</time>
      </trkpt>
      <trkpt lat="45.91521" lon="6.36653">
        <ele>991</ele>
        <time>2026-08-19T11:33:58.345Z</time>
      </trkpt>
      <trkpt lat="45.91519" lon="6.36652">
        <ele>990</ele>
        <time>2026-08-19T11:33:59.344Z</time>
      </trkpt>
      <trkpt lat="45.91517" lon="6.3665">
        <ele>990</ele>
        <time>2026-08-19T11:34:00.344Z</time>
      </trkpt>
      <trkpt lat="45.91515" lon="6.36648">
        <ele>989</ele>
        <time>2026-08-19T11:34:01.344Z</time>
      </trkpt>
      <trkpt lat="45.91514" lon="6.36647">
        <ele>988</ele>
        <time>2026-08-19T11:34:02.344Z</time>
      </trkpt>
      <trkpt lat="45.91513" lon="6.36645">
        <ele>988</ele>
        <time>2026-08-19T11:34:03.344Z</time>
      </trkpt>
      <trkpt lat="45.91512" lon="6.36642">
        <ele>987</ele>
        <time>2026-08-19T11:34:04.344Z</time>
      </trkpt>
      <trkpt lat="45.91511" lon="6.3664">
        <ele>987</ele>
        <time>2026-08-19T11:34:05.344Z</time>
      </trkpt>
      <trkpt lat="45.9151" lon="6.36638">
        <ele>986</ele>
        <time>2026-08-19T11:34:06.345Z</time>
      </trkpt>
      <trkpt lat="45.91509" lon="6.36636">
        <ele>985</ele>
        <time>2026-08-19T11:34:07.344Z</time>
      </trkpt>
      <trkpt lat="45.91508" lon="6.36635">
        <ele>985</ele>
        <time>2026-08-19T11:34:08.344Z</time>
      </trkpt>
      <trkpt lat="45.91506" lon="6.36634">
        <ele>985</ele>
        <time>2026-08-19T11:34:09.344Z</time>
      </trkpt>
      <trkpt lat="45.91505" lon="6.36633">
        <ele>985</ele>
        <time>2026-08-19T11:34:10.344Z</time>
      </trkpt>
      <trkpt lat="45.91504" lon="6.36632">
        <ele>985</ele>
        <time>2026-08-19T11:34:11.344Z</time>
      </trkpt>
      <trkpt lat="45.91503" lon="6.36631">
        <ele>985</ele>
        <time>2026-08-19T11:34:12.344Z</time>
      </trkpt>
      <trkpt lat="45.91502" lon="6.3663">
        <ele>985</ele>
        <time>2026-08-19T11:34:13.344Z</time>
      </trkpt>
      <trkpt lat="45.91502" lon="6.36628">
        <ele>984</ele>
        <time>2026-08-19T11:34:14.344Z</time>
      </trkpt>
      <trkpt lat="45.91501" lon="6.36627">
        <ele>984</ele>
        <time>2026-08-19T11:34:15.344Z</time>
      </trkpt>
      <trkpt lat="45.915" lon="6.36627">
        <ele>984</ele>
        <time>2026-08-19T11:34:16.344Z</time>
      </trkpt>
      <trkpt lat="45.91498" lon="6.36626">
        <ele>983</ele>
        <time>2026-08-19T11:34:17.344Z</time>
      </trkpt>
      <trkpt lat="45.91497" lon="6.36625">
        <ele>982</ele>
        <time>2026-08-19T11:34:18.344Z</time>
      </trkpt>
      <trkpt lat="45.91495" lon="6.36624">
        <ele>981</ele>
        <time>2026-08-19T11:34:19.344Z</time>
      </trkpt>
      <trkpt lat="45.91494" lon="6.36622">
        <ele>980</ele>
        <time>2026-08-19T11:34:20.344Z</time>
      </trkpt>
      <trkpt lat="45.91492" lon="6.3662">
        <ele>980</ele>
        <time>2026-08-19T11:34:21.344Z</time>
      </trkpt>
      <trkpt lat="45.9149" lon="6.36617">
        <ele>979</ele>
        <time>2026-08-19T11:34:22.344Z</time>
      </trkpt>
      <trkpt lat="45.91489" lon="6.36615">
        <ele>978</ele>
        <time>2026-08-19T11:34:23.344Z</time>
      </trkpt>
      <trkpt lat="45.91487" lon="6.36613">
        <ele>977</ele>
        <time>2026-08-19T11:34:24.344Z</time>
      </trkpt>
      <trkpt lat="45.91485" lon="6.36613">
        <ele>976</ele>
        <time>2026-08-19T11:34:25.344Z</time>
      </trkpt>
      <trkpt lat="45.91484" lon="6.36612">
        <ele>975</ele>
        <time>2026-08-19T11:34:26.344Z</time>
      </trkpt>
      <trkpt lat="45.91483" lon="6.36612">
        <ele>973</ele>
        <time>2026-08-19T11:34:27.344Z</time>
      </trkpt>
      <trkpt lat="45.91482" lon="6.36611">
        <ele>973</ele>
        <time>2026-08-19T11:34:28.344Z</time>
      </trkpt>
      <trkpt lat="45.9148" lon="6.3661">
        <ele>972</ele>
        <time>2026-08-19T11:34:29.344Z</time>
      </trkpt>
      <trkpt lat="45.91479" lon="6.36609">
        <ele>971</ele>
        <time>2026-08-19T11:34:30.344Z</time>
      </trkpt>
      <trkpt lat="45.91477" lon="6.36608">
        <ele>971</ele>
        <time>2026-08-19T11:34:31.344Z</time>
      </trkpt>
      <trkpt lat="45.91476" lon="6.36609">
        <ele>970</ele>
        <time>2026-08-19T11:34:32.344Z</time>
      </trkpt>
      <trkpt lat="45.91475" lon="6.36609">
        <ele>970</ele>
        <time>2026-08-19T11:34:33.344Z</time>
      </trkpt>
      <trkpt lat="45.91474" lon="6.36608">
        <ele>970</ele>
        <time>2026-08-19T11:34:34.344Z</time>
      </trkpt>
      <trkpt lat="45.91474" lon="6.36608">
        <ele>970</ele>
        <time>2026-08-19T11:34:35.344Z</time>
      </trkpt>
      <trkpt lat="45.91472" lon="6.36608">
        <ele>970</ele>
        <time>2026-08-19T11:34:36.344Z</time>
      </trkpt>
      <trkpt lat="45.91472" lon="6.36608">
        <ele>969</ele>
        <time>2026-08-19T11:34:37.344Z</time>
      </trkpt>
      <trkpt lat="45.91471" lon="6.36608">
        <ele>969</ele>
        <time>2026-08-19T11:34:38.344Z</time>
      </trkpt>
      <trkpt lat="45.9147" lon="6.36608">
        <ele>968</ele>
        <time>2026-08-19T11:34:39.344Z</time>
      </trkpt>
      <trkpt lat="45.91469" lon="6.36608">
        <ele>968</ele>
        <time>2026-08-19T11:34:40.344Z</time>
      </trkpt>
      <trkpt lat="45.91469" lon="6.36608">
        <ele>967</ele>
        <time>2026-08-19T11:34:41.344Z</time>
      </trkpt>
      <trkpt lat="45.91467" lon="6.36609">
        <ele>967</ele>
        <time>2026-08-19T11:34:42.344Z</time>
      </trkpt>
      <trkpt lat="45.91466" lon="6.3661">
        <ele>966</ele>
        <time>2026-08-19T11:34:43.344Z</time>
      </trkpt>
      <trkpt lat="45.91465" lon="6.3661">
        <ele>966</ele>
        <time>2026-08-19T11:34:44.344Z</time>
      </trkpt>
      <trkpt lat="45.91464" lon="6.3661">
        <ele>965</ele>
        <time>2026-08-19T11:34:45.344Z</time>
      </trkpt>
      <trkpt lat="45.91463" lon="6.3661">
        <ele>965</ele>
        <time>2026-08-19T11:34:46.344Z</time>
      </trkpt>
      <trkpt lat="45.91461" lon="6.3661">
        <ele>964</ele>
        <time>2026-08-19T11:34:47.344Z</time>
      </trkpt>
      <trkpt lat="45.9146" lon="6.3661">
        <ele>964</ele>
        <time>2026-08-19T11:34:48.344Z</time>
      </trkpt>
      <trkpt lat="45.91458" lon="6.3661">
        <ele>964</ele>
        <time>2026-08-19T11:34:49.344Z</time>
      </trkpt>
      <trkpt lat="45.91457" lon="6.3661">
        <ele>963</ele>
        <time>2026-08-19T11:34:50.344Z</time>
      </trkpt>
      <trkpt lat="45.91456" lon="6.3661">
        <ele>963</ele>
        <time>2026-08-19T11:34:51.344Z</time>
      </trkpt>
      <trkpt lat="45.91455" lon="6.36611">
        <ele>962</ele>
        <time>2026-08-19T11:34:52.344Z</time>
      </trkpt>
      <trkpt lat="45.91454" lon="6.36611">
        <ele>962</ele>
        <time>2026-08-19T11:34:53.344Z</time>
      </trkpt>
      <trkpt lat="45.91454" lon="6.36612">
        <ele>962</ele>
        <time>2026-08-19T11:34:54.344Z</time>
      </trkpt>
      <trkpt lat="45.91453" lon="6.36612">
        <ele>961</ele>
        <time>2026-08-19T11:34:55.344Z</time>
      </trkpt>
      <trkpt lat="45.91452" lon="6.36612">
        <ele>961</ele>
        <time>2026-08-19T11:34:56.344Z</time>
      </trkpt>
      <trkpt lat="45.9145" lon="6.36611">
        <ele>960</ele>
        <time>2026-08-19T11:34:57.344Z</time>
      </trkpt>
      <trkpt lat="45.91448" lon="6.3661">
        <ele>960</ele>
        <time>2026-08-19T11:34:58.344Z</time>
      </trkpt>
      <trkpt lat="45.91446" lon="6.3661">
        <ele>960</ele>
        <time>2026-08-19T11:34:59.344Z</time>
      </trkpt>
      <trkpt lat="45.91444" lon="6.3661">
        <ele>959</ele>
        <time>2026-08-19T11:35:00.344Z</time>
      </trkpt>
      <trkpt lat="45.91443" lon="6.36611">
        <ele>959</ele>
        <time>2026-08-19T11:35:01.344Z</time>
      </trkpt>
      <trkpt lat="45.91441" lon="6.36611">
        <ele>958</ele>
        <time>2026-08-19T11:35:02.344Z</time>
      </trkpt>
      <trkpt lat="45.9144" lon="6.36611">
        <ele>958</ele>
        <time>2026-08-19T11:35:03.344Z</time>
      </trkpt>
      <trkpt lat="45.91439" lon="6.36612">
        <ele>957</ele>
        <time>2026-08-19T11:35:04.344Z</time>
      </trkpt>
      <trkpt lat="45.91437" lon="6.36612">
        <ele>957</ele>
        <time>2026-08-19T11:35:05.344Z</time>
      </trkpt>
      <trkpt lat="45.91436" lon="6.36612">
        <ele>957</ele>
        <time>2026-08-19T11:35:06.344Z</time>
      </trkpt>
      <trkpt lat="45.91434" lon="6.36613">
        <ele>956</ele>
        <time>2026-08-19T11:35:07.344Z</time>
      </trkpt>
      <trkpt lat="45.91433" lon="6.36614">
        <ele>956</ele>
        <time>2026-08-19T11:35:08.344Z</time>
      </trkpt>
      <trkpt lat="45.91431" lon="6.36616">
        <ele>956</ele>
        <time>2026-08-19T11:35:09.344Z</time>
      </trkpt>
      <trkpt lat="45.9143" lon="6.36616">
        <ele>956</ele>
        <time>2026-08-19T11:35:10.344Z</time>
      </trkpt>
      <trkpt lat="45.91428" lon="6.36617">
        <ele>956</ele>
        <time>2026-08-19T11:35:11.344Z</time>
      </trkpt>
      <trkpt lat="45.91426" lon="6.36619">
        <ele>956</ele>
        <time>2026-08-19T11:35:12.344Z</time>
      </trkpt>
      <trkpt lat="45.91424" lon="6.36621">
        <ele>957</ele>
        <time>2026-08-19T11:35:13.344Z</time>
      </trkpt>
      <trkpt lat="45.91422" lon="6.36623">
        <ele>957</ele>
        <time>2026-08-19T11:35:14.344Z</time>
      </trkpt>
      <trkpt lat="45.91421" lon="6.36625">
        <ele>958</ele>
        <time>2026-08-19T11:35:15.344Z</time>
      </trkpt>
      <trkpt lat="45.9142" lon="6.36623">
        <ele>958</ele>
        <time>2026-08-19T11:35:16.344Z</time>
      </trkpt>
      <trkpt lat="45.91418" lon="6.36622">
        <ele>958</ele>
        <time>2026-08-19T11:35:17.344Z</time>
      </trkpt>
      <trkpt lat="45.91417" lon="6.36621">
        <ele>958</ele>
        <time>2026-08-19T11:35:18.344Z</time>
      </trkpt>
      <trkpt lat="45.91416" lon="6.36619">
        <ele>958</ele>
        <time>2026-08-19T11:35:19.344Z</time>
      </trkpt>
      <trkpt lat="45.91416" lon="6.36618">
        <ele>957</ele>
        <time>2026-08-19T11:35:20.344Z</time>
      </trkpt>
      <trkpt lat="45.91415" lon="6.36617">
        <ele>956</ele>
        <time>2026-08-19T11:35:21.344Z</time>
      </trkpt>
      <trkpt lat="45.91415" lon="6.36617">
        <ele>955</ele>
        <time>2026-08-19T11:35:22.344Z</time>
      </trkpt>
      <trkpt lat="45.91414" lon="6.36616">
        <ele>954</ele>
        <time>2026-08-19T11:35:23.344Z</time>
      </trkpt>
      <trkpt lat="45.91413" lon="6.36615">
        <ele>953</ele>
        <time>2026-08-19T11:35:24.344Z</time>
      </trkpt>
      <trkpt lat="45.91411" lon="6.36614">
        <ele>952</ele>
        <time>2026-08-19T11:35:25.344Z</time>
      </trkpt>
      <trkpt lat="45.9141" lon="6.36613">
        <ele>951</ele>
        <time>2026-08-19T11:35:26.344Z</time>
      </trkpt>
      <trkpt lat="45.9141" lon="6.36611">
        <ele>951</ele>
        <time>2026-08-19T11:35:27.344Z</time>
      </trkpt>
      <trkpt lat="45.91409" lon="6.36609">
        <ele>950</ele>
        <time>2026-08-19T11:35:28.344Z</time>
      </trkpt>
      <trkpt lat="45.91409" lon="6.36607">
        <ele>949</ele>
        <time>2026-08-19T11:35:29.344Z</time>
      </trkpt>
      <trkpt lat="45.91409" lon="6.36605">
        <ele>948</ele>
        <time>2026-08-19T11:35:30.344Z</time>
      </trkpt>
      <trkpt lat="45.91409" lon="6.36603">
        <ele>947</ele>
        <time>2026-08-19T11:35:31.344Z</time>
      </trkpt>
      <trkpt lat="45.91409" lon="6.366">
        <ele>947</ele>
        <time>2026-08-19T11:35:32.344Z</time>
      </trkpt>
      <trkpt lat="45.91409" lon="6.36598">
        <ele>946</ele>
        <time>2026-08-19T11:35:33.344Z</time>
      </trkpt>
      <trkpt lat="45.91409" lon="6.36596">
        <ele>946</ele>
        <time>2026-08-19T11:35:34.344Z</time>
      </trkpt>
      <trkpt lat="45.91408" lon="6.36595">
        <ele>945</ele>
        <time>2026-08-19T11:35:35.344Z</time>
      </trkpt>
      <trkpt lat="45.91408" lon="6.36594">
        <ele>945</ele>
        <time>2026-08-19T11:35:36.344Z</time>
      </trkpt>
      <trkpt lat="45.91407" lon="6.36593">
        <ele>945</ele>
        <time>2026-08-19T11:35:37.344Z</time>
      </trkpt>
      <trkpt lat="45.91406" lon="6.36592">
        <ele>945</ele>
        <time>2026-08-19T11:35:38.344Z</time>
      </trkpt>
      <trkpt lat="45.91405" lon="6.36592">
        <ele>944</ele>
        <time>2026-08-19T11:35:39.344Z</time>
      </trkpt>
      <trkpt lat="45.91404" lon="6.3659">
        <ele>944</ele>
        <time>2026-08-19T11:35:40.344Z</time>
      </trkpt>
      <trkpt lat="45.91402" lon="6.36588">
        <ele>944</ele>
        <time>2026-08-19T11:35:41.344Z</time>
      </trkpt>
      <trkpt lat="45.91401" lon="6.36588">
        <ele>944</ele>
        <time>2026-08-19T11:35:42.344Z</time>
      </trkpt>
      <trkpt lat="45.914" lon="6.36587">
        <ele>945</ele>
        <time>2026-08-19T11:35:43.344Z</time>
      </trkpt>
      <trkpt lat="45.914" lon="6.36587">
        <ele>945</ele>
        <time>2026-08-19T11:35:44.344Z</time>
      </trkpt>
      <trkpt lat="45.914" lon="6.36586">
        <ele>945</ele>
        <time>2026-08-19T11:35:45.344Z</time>
      </trkpt>
      <trkpt lat="45.91399" lon="6.36586">
        <ele>946</ele>
        <time>2026-08-19T11:35:46.344Z</time>
      </trkpt>
      <trkpt lat="45.91399" lon="6.36585">
        <ele>946</ele>
        <time>2026-08-19T11:35:47.344Z</time>
      </trkpt>
      <trkpt lat="45.91399" lon="6.36584">
        <ele>946</ele>
        <time>2026-08-19T11:35:48.344Z</time>
      </trkpt>
      <trkpt lat="45.91399" lon="6.36583">
        <ele>946</ele>
        <time>2026-08-19T11:35:49.344Z</time>
      </trkpt>
      <trkpt lat="45.91399" lon="6.36583">
        <ele>946</ele>
        <time>2026-08-19T11:35:50.344Z</time>
      </trkpt>
      <trkpt lat="45.91398" lon="6.36582">
        <ele>945</ele>
        <time>2026-08-19T11:35:51.344Z</time>
      </trkpt>
      <trkpt lat="45.91397" lon="6.36582">
        <ele>944</ele>
        <time>2026-08-19T11:35:52.344Z</time>
      </trkpt>
      <trkpt lat="45.91396" lon="6.36582">
        <ele>943</ele>
        <time>2026-08-19T11:35:53.344Z</time>
      </trkpt>
      <trkpt lat="45.91395" lon="6.36581">
        <ele>942</ele>
        <time>2026-08-19T11:35:54.344Z</time>
      </trkpt>
      <trkpt lat="45.91394" lon="6.36581">
        <ele>941</ele>
        <time>2026-08-19T11:35:55.344Z</time>
      </trkpt>
      <trkpt lat="45.91393" lon="6.3658">
        <ele>940</ele>
        <time>2026-08-19T11:35:56.344Z</time>
      </trkpt>
      <trkpt lat="45.91392" lon="6.36579">
        <ele>939</ele>
        <time>2026-08-19T11:35:57.344Z</time>
      </trkpt>
      <trkpt lat="45.91392" lon="6.36577">
        <ele>938</ele>
        <time>2026-08-19T11:35:58.344Z</time>
      </trkpt>
      <trkpt lat="45.91392" lon="6.36575">
        <ele>938</ele>
        <time>2026-08-19T11:35:59.344Z</time>
      </trkpt>
      <trkpt lat="45.91392" lon="6.36574">
        <ele>937</ele>
        <time>2026-08-19T11:36:00.344Z</time>
      </trkpt>
      <trkpt lat="45.91393" lon="6.36572">
        <ele>936</ele>
        <time>2026-08-19T11:36:01.344Z</time>
      </trkpt>
      <trkpt lat="45.91393" lon="6.36571">
        <ele>936</ele>
        <time>2026-08-19T11:36:02.344Z</time>
      </trkpt>
      <trkpt lat="45.91393" lon="6.36569">
        <ele>935</ele>
        <time>2026-08-19T11:36:03.344Z</time>
      </trkpt>
      <trkpt lat="45.91394" lon="6.36567">
        <ele>935</ele>
        <time>2026-08-19T11:36:04.344Z</time>
      </trkpt>
      <trkpt lat="45.91394" lon="6.36565">
        <ele>934</ele>
        <time>2026-08-19T11:36:05.344Z</time>
      </trkpt>
      <trkpt lat="45.91394" lon="6.36563">
        <ele>934</ele>
        <time>2026-08-19T11:36:06.344Z</time>
      </trkpt>
      <trkpt lat="45.91395" lon="6.36562">
        <ele>933</ele>
        <time>2026-08-19T11:36:07.344Z</time>
      </trkpt>
      <trkpt lat="45.91395" lon="6.3656">
        <ele>933</ele>
        <time>2026-08-19T11:36:08.344Z</time>
      </trkpt>
      <trkpt lat="45.91395" lon="6.36558">
        <ele>933</ele>
        <time>2026-08-19T11:36:09.344Z</time>
      </trkpt>
      <trkpt lat="45.91395" lon="6.36555">
        <ele>932</ele>
        <time>2026-08-19T11:36:10.344Z</time>
      </trkpt>
      <trkpt lat="45.91395" lon="6.36553">
        <ele>932</ele>
        <time>2026-08-19T11:36:11.344Z</time>
      </trkpt>
      <trkpt lat="45.91395" lon="6.36551">
        <ele>932</ele>
        <time>2026-08-19T11:36:12.344Z</time>
      </trkpt>
      <trkpt lat="45.91394" lon="6.3655">
        <ele>932</ele>
        <time>2026-08-19T11:36:13.344Z</time>
      </trkpt>
      <trkpt lat="45.91394" lon="6.36548">
        <ele>931</ele>
        <time>2026-08-19T11:36:14.344Z</time>
      </trkpt>
      <trkpt lat="45.91394" lon="6.36546">
        <ele>930</ele>
        <time>2026-08-19T11:36:15.344Z</time>
      </trkpt>
      <trkpt lat="45.91394" lon="6.36544">
        <ele>930</ele>
        <time>2026-08-19T11:36:16.344Z</time>
      </trkpt>
      <trkpt lat="45.91393" lon="6.36542">
        <ele>929</ele>
        <time>2026-08-19T11:36:17.344Z</time>
      </trkpt>
      <trkpt lat="45.91392" lon="6.36539">
        <ele>929</ele>
        <time>2026-08-19T11:36:18.344Z</time>
      </trkpt>
      <trkpt lat="45.91392" lon="6.36537">
        <ele>928</ele>
        <time>2026-08-19T11:36:19.344Z</time>
      </trkpt>
      <trkpt lat="45.91391" lon="6.36535">
        <ele>928</ele>
        <time>2026-08-19T11:36:20.344Z</time>
      </trkpt>
      <trkpt lat="45.9139" lon="6.36533">
        <ele>928</ele>
        <time>2026-08-19T11:36:21.344Z</time>
      </trkpt>
      <trkpt lat="45.91389" lon="6.36531">
        <ele>927</ele>
        <time>2026-08-19T11:36:22.344Z</time>
      </trkpt>
      <trkpt lat="45.91388" lon="6.3653">
        <ele>927</ele>
        <time>2026-08-19T11:36:23.344Z</time>
      </trkpt>
      <trkpt lat="45.91388" lon="6.36528">
        <ele>927</ele>
        <time>2026-08-19T11:36:24.344Z</time>
      </trkpt>
      <trkpt lat="45.91388" lon="6.36526">
        <ele>927</ele>
        <time>2026-08-19T11:36:25.344Z</time>
      </trkpt>
      <trkpt lat="45.91387" lon="6.36524">
        <ele>927</ele>
        <time>2026-08-19T11:36:26.344Z</time>
      </trkpt>
      <trkpt lat="45.91386" lon="6.36521">
        <ele>926</ele>
        <time>2026-08-19T11:36:27.344Z</time>
      </trkpt>
      <trkpt lat="45.91386" lon="6.3652">
        <ele>926</ele>
        <time>2026-08-19T11:36:28.344Z</time>
      </trkpt>
      <trkpt lat="45.91386" lon="6.36518">
        <ele>926</ele>
        <time>2026-08-19T11:36:29.344Z</time>
      </trkpt>
      <trkpt lat="45.91386" lon="6.36516">
        <ele>925</ele>
        <time>2026-08-19T11:36:30.344Z</time>
      </trkpt>
      <trkpt lat="45.91385" lon="6.36514">
        <ele>925</ele>
        <time>2026-08-19T11:36:31.344Z</time>
      </trkpt>
      <trkpt lat="45.91384" lon="6.36512">
        <ele>924</ele>
        <time>2026-08-19T11:36:32.344Z</time>
      </trkpt>
      <trkpt lat="45.91384" lon="6.36511">
        <ele>924</ele>
        <time>2026-08-19T11:36:33.345Z</time>
      </trkpt>
      <trkpt lat="45.91383" lon="6.36508">
        <ele>924</ele>
        <time>2026-08-19T11:36:34.344Z</time>
      </trkpt>
      <trkpt lat="45.91383" lon="6.36506">
        <ele>923</ele>
        <time>2026-08-19T11:36:35.344Z</time>
      </trkpt>
      <trkpt lat="45.91384" lon="6.36505">
        <ele>923</ele>
        <time>2026-08-19T11:36:36.344Z</time>
      </trkpt>
      <trkpt lat="45.91383" lon="6.36503">
        <ele>924</ele>
        <time>2026-08-19T11:36:37.344Z</time>
      </trkpt>
      <trkpt lat="45.91383" lon="6.36501">
        <ele>924</ele>
        <time>2026-08-19T11:36:38.344Z</time>
      </trkpt>
      <trkpt lat="45.91382" lon="6.36499">
        <ele>924</ele>
        <time>2026-08-19T11:36:39.344Z</time>
      </trkpt>
      <trkpt lat="45.91382" lon="6.36497">
        <ele>923</ele>
        <time>2026-08-19T11:36:40.344Z</time>
      </trkpt>
      <trkpt lat="45.91383" lon="6.36496">
        <ele>923</ele>
        <time>2026-08-19T11:36:41.344Z</time>
      </trkpt>
      <trkpt lat="45.91383" lon="6.36494">
        <ele>922</ele>
        <time>2026-08-19T11:36:42.344Z</time>
      </trkpt>
      <trkpt lat="45.91383" lon="6.36492">
        <ele>921</ele>
        <time>2026-08-19T11:36:43.344Z</time>
      </trkpt>
      <trkpt lat="45.91383" lon="6.3649">
        <ele>920</ele>
        <time>2026-08-19T11:36:44.344Z</time>
      </trkpt>
      <trkpt lat="45.91383" lon="6.36488">
        <ele>920</ele>
        <time>2026-08-19T11:36:45.344Z</time>
      </trkpt>
      <trkpt lat="45.91383" lon="6.36486">
        <ele>920</ele>
        <time>2026-08-19T11:36:46.344Z</time>
      </trkpt>
      <trkpt lat="45.91384" lon="6.36484">
        <ele>919</ele>
        <time>2026-08-19T11:36:47.344Z</time>
      </trkpt>
      <trkpt lat="45.91384" lon="6.36482">
        <ele>920</ele>
        <time>2026-08-19T11:36:48.344Z</time>
      </trkpt>
      <trkpt lat="45.91384" lon="6.3648">
        <ele>920</ele>
        <time>2026-08-19T11:36:49.344Z</time>
      </trkpt>
      <trkpt lat="45.91384" lon="6.36478">
        <ele>920</ele>
        <time>2026-08-19T11:36:50.344Z</time>
      </trkpt>
      <trkpt lat="45.91384" lon="6.36475">
        <ele>920</ele>
        <time>2026-08-19T11:36:51.344Z</time>
      </trkpt>
      <trkpt lat="45.91384" lon="6.36473">
        <ele>920</ele>
        <time>2026-08-19T11:36:52.344Z</time>
      </trkpt>
      <trkpt lat="45.91385" lon="6.36471">
        <ele>920</ele>
        <time>2026-08-19T11:36:53.344Z</time>
      </trkpt>
      <trkpt lat="45.91385" lon="6.36469">
        <ele>920</ele>
        <time>2026-08-19T11:36:54.344Z</time>
      </trkpt>
      <trkpt lat="45.91385" lon="6.36468">
        <ele>920</ele>
        <time>2026-08-19T11:36:55.344Z</time>
      </trkpt>
      <trkpt lat="45.91386" lon="6.36466">
        <ele>920</ele>
        <time>2026-08-19T11:36:56.344Z</time>
      </trkpt>
      <trkpt lat="45.91386" lon="6.36464">
        <ele>920</ele>
        <time>2026-08-19T11:36:57.344Z</time>
      </trkpt>
      <trkpt lat="45.91386" lon="6.36463">
        <ele>920</ele>
        <time>2026-08-19T11:36:58.344Z</time>
      </trkpt>
      <trkpt lat="45.91387" lon="6.36461">
        <ele>920</ele>
        <time>2026-08-19T11:36:59.344Z</time>
      </trkpt>
      <trkpt lat="45.91387" lon="6.36459">
        <ele>920</ele>
        <time>2026-08-19T11:37:00.344Z</time>
      </trkpt>
      <trkpt lat="45.91387" lon="6.36457">
        <ele>920</ele>
        <time>2026-08-19T11:37:01.344Z</time>
      </trkpt>
      <trkpt lat="45.91388" lon="6.36455">
        <ele>920</ele>
        <time>2026-08-19T11:37:02.344Z</time>
      </trkpt>
      <trkpt lat="45.91388" lon="6.36454">
        <ele>920</ele>
        <time>2026-08-19T11:37:03.344Z</time>
      </trkpt>
      <trkpt lat="45.91388" lon="6.36452">
        <ele>920</ele>
        <time>2026-08-19T11:37:04.344Z</time>
      </trkpt>
      <trkpt lat="45.91387" lon="6.36451">
        <ele>920</ele>
        <time>2026-08-19T11:37:05.344Z</time>
      </trkpt>
      <trkpt lat="45.91387" lon="6.3645">
        <ele>920</ele>
        <time>2026-08-19T11:37:06.344Z</time>
      </trkpt>
      <trkpt lat="45.91386" lon="6.36448">
        <ele>920</ele>
        <time>2026-08-19T11:37:07.344Z</time>
      </trkpt>
      <trkpt lat="45.91386" lon="6.36447">
        <ele>920</ele>
        <time>2026-08-19T11:37:08.344Z</time>
      </trkpt>
      <trkpt lat="45.91386" lon="6.36445">
        <ele>920</ele>
        <time>2026-08-19T11:37:09.344Z</time>
      </trkpt>
      <trkpt lat="45.91385" lon="6.36444">
        <ele>921</ele>
        <time>2026-08-19T11:37:10.344Z</time>
      </trkpt>
      <trkpt lat="45.91385" lon="6.36442">
        <ele>921</ele>
        <time>2026-08-19T11:37:11.344Z</time>
      </trkpt>
      <trkpt lat="45.91384" lon="6.36441">
        <ele>921</ele>
        <time>2026-08-19T11:37:12.344Z</time>
      </trkpt>
      <trkpt lat="45.91383" lon="6.36439">
        <ele>921</ele>
        <time>2026-08-19T11:37:13.344Z</time>
      </trkpt>
      <trkpt lat="45.91383" lon="6.36438">
        <ele>921</ele>
        <time>2026-08-19T11:37:14.344Z</time>
      </trkpt>
      <trkpt lat="45.91382" lon="6.36436">
        <ele>921</ele>
        <time>2026-08-19T11:37:15.344Z</time>
      </trkpt>
      <trkpt lat="45.91381" lon="6.36434">
        <ele>921</ele>
        <time>2026-08-19T11:37:16.344Z</time>
      </trkpt>
      <trkpt lat="45.91381" lon="6.36433">
        <ele>921</ele>
        <time>2026-08-19T11:37:17.344Z</time>
      </trkpt>
      <trkpt lat="45.9138" lon="6.36432">
        <ele>921</ele>
        <time>2026-08-19T11:37:18.344Z</time>
      </trkpt>
      <trkpt lat="45.91379" lon="6.3643">
        <ele>921</ele>
        <time>2026-08-19T11:37:19.344Z</time>
      </trkpt>
      <trkpt lat="45.91379" lon="6.36429">
        <ele>921</ele>
        <time>2026-08-19T11:37:20.344Z</time>
      </trkpt>
      <trkpt lat="45.91378" lon="6.36428">
        <ele>921</ele>
        <time>2026-08-19T11:37:21.344Z</time>
      </trkpt>
      <trkpt lat="45.91377" lon="6.36427">
        <ele>922</ele>
        <time>2026-08-19T11:37:22.344Z</time>
      </trkpt>
      <trkpt lat="45.91377" lon="6.36425">
        <ele>922</ele>
        <time>2026-08-19T11:37:23.344Z</time>
      </trkpt>
      <trkpt lat="45.91376" lon="6.36423">
        <ele>922</ele>
        <time>2026-08-19T11:37:24.344Z</time>
      </trkpt>
      <trkpt lat="45.91375" lon="6.36422">
        <ele>922</ele>
        <time>2026-08-19T11:37:25.344Z</time>
      </trkpt>
      <trkpt lat="45.91374" lon="6.36421">
        <ele>922</ele>
        <time>2026-08-19T11:37:26.344Z</time>
      </trkpt>
      <trkpt lat="45.91373" lon="6.3642">
        <ele>922</ele>
        <time>2026-08-19T11:37:27.344Z</time>
      </trkpt>
      <trkpt lat="45.91372" lon="6.36419">
        <ele>922</ele>
        <time>2026-08-19T11:37:28.344Z</time>
      </trkpt>
      <trkpt lat="45.91371" lon="6.36418">
        <ele>922</ele>
        <time>2026-08-19T11:37:29.344Z</time>
      </trkpt>
      <trkpt lat="45.9137" lon="6.36417">
        <ele>922</ele>
        <time>2026-08-19T11:37:30.344Z</time>
      </trkpt>
      <trkpt lat="45.91369" lon="6.36416">
        <ele>922</ele>
        <time>2026-08-19T11:37:31.344Z</time>
      </trkpt>
      <trkpt lat="45.91368" lon="6.36416">
        <ele>922</ele>
        <time>2026-08-19T11:37:32.344Z</time>
      </trkpt>
      <trkpt lat="45.91367" lon="6.36415">
        <ele>922</ele>
        <time>2026-08-19T11:37:33.344Z</time>
      </trkpt>
      <trkpt lat="45.91366" lon="6.36415">
        <ele>922</ele>
        <time>2026-08-19T11:37:34.344Z</time>
      </trkpt>
      <trkpt lat="45.91365" lon="6.36415">
        <ele>922</ele>
        <time>2026-08-19T11:37:35.344Z</time>
      </trkpt>
      <trkpt lat="45.91363" lon="6.36415">
        <ele>922</ele>
        <time>2026-08-19T11:37:36.344Z</time>
      </trkpt>
      <trkpt lat="45.91362" lon="6.36416">
        <ele>923</ele>
        <time>2026-08-19T11:37:37.344Z</time>
      </trkpt>
      <trkpt lat="45.91361" lon="6.36416">
        <ele>923</ele>
        <time>2026-08-19T11:37:38.344Z</time>
      </trkpt>
      <trkpt lat="45.9136" lon="6.36416">
        <ele>924</ele>
        <time>2026-08-19T11:37:39.344Z</time>
      </trkpt>
      <trkpt lat="45.91358" lon="6.36417">
        <ele>924</ele>
        <time>2026-08-19T11:37:40.344Z</time>
      </trkpt>
      <trkpt lat="45.91357" lon="6.36418">
        <ele>925</ele>
        <time>2026-08-19T11:37:41.344Z</time>
      </trkpt>
      <trkpt lat="45.91356" lon="6.36418">
        <ele>925</ele>
        <time>2026-08-19T11:37:42.344Z</time>
      </trkpt>
      <trkpt lat="45.91355" lon="6.36419">
        <ele>926</ele>
        <time>2026-08-19T11:37:43.344Z</time>
      </trkpt>
      <trkpt lat="45.91354" lon="6.36419">
        <ele>926</ele>
        <time>2026-08-19T11:37:44.344Z</time>
      </trkpt>
      <trkpt lat="45.91353" lon="6.36419">
        <ele>926</ele>
        <time>2026-08-19T11:37:45.344Z</time>
      </trkpt>
      <trkpt lat="45.91352" lon="6.36419">
        <ele>926</ele>
        <time>2026-08-19T11:37:46.344Z</time>
      </trkpt>
      <trkpt lat="45.9135" lon="6.36419">
        <ele>927</ele>
        <time>2026-08-19T11:37:47.344Z</time>
      </trkpt>
      <trkpt lat="45.91349" lon="6.36419">
        <ele>927</ele>
        <time>2026-08-19T11:37:48.344Z</time>
      </trkpt>
      <trkpt lat="45.91348" lon="6.36418">
        <ele>928</ele>
        <time>2026-08-19T11:37:49.344Z</time>
      </trkpt>
      <trkpt lat="45.91347" lon="6.36417">
        <ele>928</ele>
        <time>2026-08-19T11:37:50.344Z</time>
      </trkpt>
      <trkpt lat="45.91346" lon="6.36416">
        <ele>929</ele>
        <time>2026-08-19T11:37:51.344Z</time>
      </trkpt>
      <trkpt lat="45.91345" lon="6.36415">
        <ele>929</ele>
        <time>2026-08-19T11:37:52.344Z</time>
      </trkpt>
      <trkpt lat="45.91344" lon="6.36414">
        <ele>930</ele>
        <time>2026-08-19T11:37:53.344Z</time>
      </trkpt>
      <trkpt lat="45.91343" lon="6.36413">
        <ele>930</ele>
        <time>2026-08-19T11:37:54.344Z</time>
      </trkpt>
      <trkpt lat="45.91342" lon="6.36412">
        <ele>931</ele>
        <time>2026-08-19T11:37:55.344Z</time>
      </trkpt>
      <trkpt lat="45.91341" lon="6.3641">
        <ele>931</ele>
        <time>2026-08-19T11:37:56.344Z</time>
      </trkpt>
      <trkpt lat="45.91341" lon="6.36409">
        <ele>931</ele>
        <time>2026-08-19T11:37:57.344Z</time>
      </trkpt>
      <trkpt lat="45.9134" lon="6.36408">
        <ele>931</ele>
        <time>2026-08-19T11:37:58.344Z</time>
      </trkpt>
      <trkpt lat="45.91339" lon="6.36406">
        <ele>931</ele>
        <time>2026-08-19T11:37:59.344Z</time>
      </trkpt>
      <trkpt lat="45.91338" lon="6.36405">
        <ele>931</ele>
        <time>2026-08-19T11:38:00.344Z</time>
      </trkpt>
      <trkpt lat="45.91337" lon="6.36403">
        <ele>931</ele>
        <time>2026-08-19T11:38:01.344Z</time>
      </trkpt>
      <trkpt lat="45.91336" lon="6.364">
        <ele>930</ele>
        <time>2026-08-19T11:38:02.344Z</time>
      </trkpt>
      <trkpt lat="45.91335" lon="6.36397">
        <ele>930</ele>
        <time>2026-08-19T11:38:03.344Z</time>
      </trkpt>
      <trkpt lat="45.91334" lon="6.36395">
        <ele>930</ele>
        <time>2026-08-19T11:38:04.344Z</time>
      </trkpt>
      <trkpt lat="45.91333" lon="6.36392">
        <ele>930</ele>
        <time>2026-08-19T11:38:05.344Z</time>
      </trkpt>
      <trkpt lat="45.91333" lon="6.36389">
        <ele>930</ele>
        <time>2026-08-19T11:38:06.344Z</time>
      </trkpt>
      <trkpt lat="45.91332" lon="6.36387">
        <ele>929</ele>
        <time>2026-08-19T11:38:07.344Z</time>
      </trkpt>
      <trkpt lat="45.91331" lon="6.36384">
        <ele>929</ele>
        <time>2026-08-19T11:38:08.344Z</time>
      </trkpt>
      <trkpt lat="45.91331" lon="6.36381">
        <ele>929</ele>
        <time>2026-08-19T11:38:09.344Z</time>
      </trkpt>
      <trkpt lat="45.91331" lon="6.36378">
        <ele>929</ele>
        <time>2026-08-19T11:38:10.344Z</time>
      </trkpt>
      <trkpt lat="45.9133" lon="6.36375">
        <ele>929</ele>
        <time>2026-08-19T11:38:11.344Z</time>
      </trkpt>
      <trkpt lat="45.9133" lon="6.36372">
        <ele>928</ele>
        <time>2026-08-19T11:38:12.344Z</time>
      </trkpt>
      <trkpt lat="45.9133" lon="6.36369">
        <ele>928</ele>
        <time>2026-08-19T11:38:13.344Z</time>
      </trkpt>
      <trkpt lat="45.91329" lon="6.36367">
        <ele>928</ele>
        <time>2026-08-19T11:38:14.344Z</time>
      </trkpt>
      <trkpt lat="45.91329" lon="6.36364">
        <ele>928</ele>
        <time>2026-08-19T11:38:15.344Z</time>
      </trkpt>
      <trkpt lat="45.91328" lon="6.36361">
        <ele>928</ele>
        <time>2026-08-19T11:38:16.344Z</time>
      </trkpt>
      <trkpt lat="45.91328" lon="6.36359">
        <ele>928</ele>
        <time>2026-08-19T11:38:17.344Z</time>
      </trkpt>
      <trkpt lat="45.91327" lon="6.36356">
        <ele>928</ele>
        <time>2026-08-19T11:38:18.344Z</time>
      </trkpt>
      <trkpt lat="45.91326" lon="6.36354">
        <ele>928</ele>
        <time>2026-08-19T11:38:19.344Z</time>
      </trkpt>
      <trkpt lat="45.91325" lon="6.36351">
        <ele>928</ele>
        <time>2026-08-19T11:38:20.344Z</time>
      </trkpt>
      <trkpt lat="45.91324" lon="6.36349">
        <ele>928</ele>
        <time>2026-08-19T11:38:21.344Z</time>
      </trkpt>
      <trkpt lat="45.91324" lon="6.36347">
        <ele>928</ele>
        <time>2026-08-19T11:38:22.344Z</time>
      </trkpt>
      <trkpt lat="45.91323" lon="6.36345">
        <ele>929</ele>
        <time>2026-08-19T11:38:23.344Z</time>
      </trkpt>
      <trkpt lat="45.91322" lon="6.36342">
        <ele>929</ele>
        <time>2026-08-19T11:38:24.344Z</time>
      </trkpt>
      <trkpt lat="45.91321" lon="6.3634">
        <ele>929</ele>
        <time>2026-08-19T11:38:25.344Z</time>
      </trkpt>
      <trkpt lat="45.9132" lon="6.36337">
        <ele>929</ele>
        <time>2026-08-19T11:38:26.344Z</time>
      </trkpt>
      <trkpt lat="45.91319" lon="6.36335">
        <ele>929</ele>
        <time>2026-08-19T11:38:27.344Z</time>
      </trkpt>
      <trkpt lat="45.91318" lon="6.36332">
        <ele>929</ele>
        <time>2026-08-19T11:38:28.344Z</time>
      </trkpt>
      <trkpt lat="45.91317" lon="6.36329">
        <ele>929</ele>
        <time>2026-08-19T11:38:29.344Z</time>
      </trkpt>
      <trkpt lat="45.91316" lon="6.36327">
        <ele>929</ele>
        <time>2026-08-19T11:38:30.344Z</time>
      </trkpt>
      <trkpt lat="45.91314" lon="6.36325">
        <ele>930</ele>
        <time>2026-08-19T11:38:31.344Z</time>
      </trkpt>
      <trkpt lat="45.91314" lon="6.36322">
        <ele>930</ele>
        <time>2026-08-19T11:38:32.344Z</time>
      </trkpt>
      <trkpt lat="45.91312" lon="6.3632">
        <ele>930</ele>
        <time>2026-08-19T11:38:33.344Z</time>
      </trkpt>
      <trkpt lat="45.91311" lon="6.36318">
        <ele>930</ele>
        <time>2026-08-19T11:38:34.344Z</time>
      </trkpt>
      <trkpt lat="45.9131" lon="6.36315">
        <ele>930</ele>
        <time>2026-08-19T11:38:35.344Z</time>
      </trkpt>
      <trkpt lat="45.91308" lon="6.36313">
        <ele>930</ele>
        <time>2026-08-19T11:38:36.344Z</time>
      </trkpt>
      <trkpt lat="45.91307" lon="6.36311">
        <ele>930</ele>
        <time>2026-08-19T11:38:37.344Z</time>
      </trkpt>
      <trkpt lat="45.91306" lon="6.36308">
        <ele>930</ele>
        <time>2026-08-19T11:38:38.344Z</time>
      </trkpt>
      <trkpt lat="45.91305" lon="6.36305">
        <ele>930</ele>
        <time>2026-08-19T11:38:39.344Z</time>
      </trkpt>
      <trkpt lat="45.91305" lon="6.36303">
        <ele>930</ele>
        <time>2026-08-19T11:38:40.344Z</time>
      </trkpt>
      <trkpt lat="45.91304" lon="6.363">
        <ele>930</ele>
        <time>2026-08-19T11:38:41.344Z</time>
      </trkpt>
      <trkpt lat="45.91304" lon="6.36298">
        <ele>930</ele>
        <time>2026-08-19T11:38:42.344Z</time>
      </trkpt>
      <trkpt lat="45.91303" lon="6.36295">
        <ele>930</ele>
        <time>2026-08-19T11:38:43.344Z</time>
      </trkpt>
      <trkpt lat="45.91303" lon="6.36294">
        <ele>930</ele>
        <time>2026-08-19T11:38:44.344Z</time>
      </trkpt>
      <trkpt lat="45.91302" lon="6.36292">
        <ele>930</ele>
        <time>2026-08-19T11:38:45.344Z</time>
      </trkpt>
      <trkpt lat="45.91301" lon="6.3629">
        <ele>930</ele>
        <time>2026-08-19T11:38:46.344Z</time>
      </trkpt>
      <trkpt lat="45.913" lon="6.36288">
        <ele>930</ele>
        <time>2026-08-19T11:38:47.344Z</time>
      </trkpt>
      <trkpt lat="45.91299" lon="6.36285">
        <ele>929</ele>
        <time>2026-08-19T11:38:48.344Z</time>
      </trkpt>
      <trkpt lat="45.91297" lon="6.36283">
        <ele>929</ele>
        <time>2026-08-19T11:38:49.344Z</time>
      </trkpt>
      <trkpt lat="45.91296" lon="6.36281">
        <ele>930</ele>
        <time>2026-08-19T11:38:50.344Z</time>
      </trkpt>
      <trkpt lat="45.91295" lon="6.36279">
        <ele>930</ele>
        <time>2026-08-19T11:38:51.344Z</time>
      </trkpt>
      <trkpt lat="45.91295" lon="6.36277">
        <ele>930</ele>
        <time>2026-08-19T11:38:52.344Z</time>
      </trkpt>
      <trkpt lat="45.91294" lon="6.36275">
        <ele>930</ele>
        <time>2026-08-19T11:38:53.344Z</time>
      </trkpt>
      <trkpt lat="45.91293" lon="6.36273">
        <ele>930</ele>
        <time>2026-08-19T11:38:54.344Z</time>
      </trkpt>
      <trkpt lat="45.91292" lon="6.36271">
        <ele>930</ele>
        <time>2026-08-19T11:38:55.344Z</time>
      </trkpt>
      <trkpt lat="45.91292" lon="6.3627">
        <ele>930</ele>
        <time>2026-08-19T11:38:56.344Z</time>
      </trkpt>
      <trkpt lat="45.91291" lon="6.36269">
        <ele>929</ele>
        <time>2026-08-19T11:38:57.344Z</time>
      </trkpt>
      <trkpt lat="45.9129" lon="6.36267">
        <ele>929</ele>
        <time>2026-08-19T11:38:58.344Z</time>
      </trkpt>
      <trkpt lat="45.91289" lon="6.36266">
        <ele>930</ele>
        <time>2026-08-19T11:38:59.344Z</time>
      </trkpt>
      <trkpt lat="45.91288" lon="6.36265">
        <ele>930</ele>
        <time>2026-08-19T11:39:00.344Z</time>
      </trkpt>
      <trkpt lat="45.91287" lon="6.36264">
        <ele>930</ele>
        <time>2026-08-19T11:39:01.344Z</time>
      </trkpt>
      <trkpt lat="45.91286" lon="6.36263">
        <ele>931</ele>
        <time>2026-08-19T11:39:02.344Z</time>
      </trkpt>
      <trkpt lat="45.91285" lon="6.36261">
        <ele>931</ele>
        <time>2026-08-19T11:39:03.344Z</time>
      </trkpt>
      <trkpt lat="45.91284" lon="6.3626">
        <ele>931</ele>
        <time>2026-08-19T11:39:04.344Z</time>
      </trkpt>
      <trkpt lat="45.91283" lon="6.36259">
        <ele>931</ele>
        <time>2026-08-19T11:39:05.344Z</time>
      </trkpt>
      <trkpt lat="45.91283" lon="6.36256">
        <ele>932</ele>
        <time>2026-08-19T11:39:06.345Z</time>
      </trkpt>
      <trkpt lat="45.91283" lon="6.36254">
        <ele>932</ele>
        <time>2026-08-19T11:39:07.344Z</time>
      </trkpt>
      <trkpt lat="45.91283" lon="6.36252">
        <ele>932</ele>
        <time>2026-08-19T11:39:08.344Z</time>
      </trkpt>
      <trkpt lat="45.91283" lon="6.3625">
        <ele>932</ele>
        <time>2026-08-19T11:39:09.344Z</time>
      </trkpt>
      <trkpt lat="45.91284" lon="6.36248">
        <ele>932</ele>
        <time>2026-08-19T11:39:10.344Z</time>
      </trkpt>
      <trkpt lat="45.91284" lon="6.36246">
        <ele>932</ele>
        <time>2026-08-19T11:39:11.344Z</time>
      </trkpt>
      <trkpt lat="45.91285" lon="6.36245">
        <ele>932</ele>
        <time>2026-08-19T11:39:12.344Z</time>
      </trkpt>
      <trkpt lat="45.91286" lon="6.36243">
        <ele>933</ele>
        <time>2026-08-19T11:39:13.344Z</time>
      </trkpt>
      <trkpt lat="45.91286" lon="6.36242">
        <ele>933</ele>
        <time>2026-08-19T11:39:14.344Z</time>
      </trkpt>
      <trkpt lat="45.91287" lon="6.36241">
        <ele>933</ele>
        <time>2026-08-19T11:39:15.344Z</time>
      </trkpt>
      <trkpt lat="45.91288" lon="6.3624">
        <ele>932</ele>
        <time>2026-08-19T11:39:16.344Z</time>
      </trkpt>
      <trkpt lat="45.91289" lon="6.36239">
        <ele>932</ele>
        <time>2026-08-19T11:39:17.344Z</time>
      </trkpt>
      <trkpt lat="45.9129" lon="6.36239">
        <ele>932</ele>
        <time>2026-08-19T11:39:18.344Z</time>
      </trkpt>
      <trkpt lat="45.91291" lon="6.36238">
        <ele>932</ele>
        <time>2026-08-19T11:39:19.344Z</time>
      </trkpt>
      <trkpt lat="45.91292" lon="6.36237">
        <ele>932</ele>
        <time>2026-08-19T11:39:20.344Z</time>
      </trkpt>
      <trkpt lat="45.91294" lon="6.36237">
        <ele>932</ele>
        <time>2026-08-19T11:39:21.344Z</time>
      </trkpt>
      <trkpt lat="45.91295" lon="6.36235">
        <ele>932</ele>
        <time>2026-08-19T11:39:22.344Z</time>
      </trkpt>
      <trkpt lat="45.91295" lon="6.36235">
        <ele>933</ele>
        <time>2026-08-19T11:39:23.344Z</time>
      </trkpt>
      <trkpt lat="45.91296" lon="6.36235">
        <ele>933</ele>
        <time>2026-08-19T11:39:24.344Z</time>
      </trkpt>
      <trkpt lat="45.91296" lon="6.36235">
        <ele>933</ele>
        <time>2026-08-19T11:39:25.344Z</time>
      </trkpt>
      <trkpt lat="45.91296" lon="6.36235">
        <ele>933</ele>
        <time>2026-08-19T11:39:26.344Z</time>
      </trkpt>
      <trkpt lat="45.91296" lon="6.36234">
        <ele>933</ele>
        <time>2026-08-19T11:39:27.344Z</time>
      </trkpt>
      <trkpt lat="45.91297" lon="6.36233">
        <ele>933</ele>
        <time>2026-08-19T11:39:28.345Z</time>
      </trkpt>
      <trkpt lat="45.91297" lon="6.36232">
        <ele>933</ele>
        <time>2026-08-19T11:39:29.344Z</time>
      </trkpt>
      <trkpt lat="45.91298" lon="6.36231">
        <ele>933</ele>
        <time>2026-08-19T11:39:30.344Z</time>
      </trkpt>
      <trkpt lat="45.91298" lon="6.3623">
        <ele>933</ele>
        <time>2026-08-19T11:39:31.344Z</time>
      </trkpt>
      <trkpt lat="45.91299" lon="6.36229">
        <ele>933</ele>
        <time>2026-08-19T11:39:32.345Z</time>
      </trkpt>
      <trkpt lat="45.91299" lon="6.36228">
        <ele>933</ele>
        <time>2026-08-19T11:39:33.344Z</time>
      </trkpt>
      <trkpt lat="45.91299" lon="6.36227">
        <ele>934</ele>
        <time>2026-08-19T11:39:34.344Z</time>
      </trkpt>
      <trkpt lat="45.91299" lon="6.36226">
        <ele>934</ele>
        <time>2026-08-19T11:39:35.345Z</time>
      </trkpt>
      <trkpt lat="45.91299" lon="6.36226">
        <ele>934</ele>
        <time>2026-08-19T11:39:36.344Z</time>
      </trkpt>
      <trkpt lat="45.91298" lon="6.36225">
        <ele>934</ele>
        <time>2026-08-19T11:39:37.344Z</time>
      </trkpt>
      <trkpt lat="45.91298" lon="6.36223">
        <ele>934</ele>
        <time>2026-08-19T11:39:38.344Z</time>
      </trkpt>
      <trkpt lat="45.91297" lon="6.36221">
        <ele>934</ele>
        <time>2026-08-19T11:39:39.344Z</time>
      </trkpt>
      <trkpt lat="45.91297" lon="6.36219">
        <ele>934</ele>
        <time>2026-08-19T11:39:40.344Z</time>
      </trkpt>
      <trkpt lat="45.91297" lon="6.36217">
        <ele>934</ele>
        <time>2026-08-19T11:39:41.344Z</time>
      </trkpt>
      <trkpt lat="45.91297" lon="6.36215">
        <ele>935</ele>
        <time>2026-08-19T11:39:42.344Z</time>
      </trkpt>
      <trkpt lat="45.91297" lon="6.36213">
        <ele>935</ele>
        <time>2026-08-19T11:39:43.344Z</time>
      </trkpt>
      <trkpt lat="45.91297" lon="6.36213">
        <ele>935</ele>
        <time>2026-08-19T11:39:44.344Z</time>
      </trkpt>
      <trkpt lat="45.91297" lon="6.36211">
        <ele>935</ele>
        <time>2026-08-19T11:39:45.344Z</time>
      </trkpt>
      <trkpt lat="45.91297" lon="6.36209">
        <ele>936</ele>
        <time>2026-08-19T11:39:46.344Z</time>
      </trkpt>
      <trkpt lat="45.91297" lon="6.36207">
        <ele>936</ele>
        <time>2026-08-19T11:39:47.345Z</time>
      </trkpt>
      <trkpt lat="45.91297" lon="6.36206">
        <ele>936</ele>
        <time>2026-08-19T11:39:48.344Z</time>
      </trkpt>
      <trkpt lat="45.91297" lon="6.36205">
        <ele>937</ele>
        <time>2026-08-19T11:39:49.344Z</time>
      </trkpt>
      <trkpt lat="45.91297" lon="6.36204">
        <ele>937</ele>
        <time>2026-08-19T11:39:50.344Z</time>
      </trkpt>
      <trkpt lat="45.91298" lon="6.36202">
        <ele>937</ele>
        <time>2026-08-19T11:39:51.344Z</time>
      </trkpt>
      <trkpt lat="45.91298" lon="6.36201">
        <ele>937</ele>
        <time>2026-08-19T11:39:52.344Z</time>
      </trkpt>
      <trkpt lat="45.91298" lon="6.362">
        <ele>937</ele>
        <time>2026-08-19T11:39:53.344Z</time>
      </trkpt>
      <trkpt lat="45.91298" lon="6.36198">
        <ele>937</ele>
        <time>2026-08-19T11:39:54.344Z</time>
      </trkpt>
      <trkpt lat="45.91299" lon="6.36197">
        <ele>937</ele>
        <time>2026-08-19T11:39:55.344Z</time>
      </trkpt>
      <trkpt lat="45.91299" lon="6.36195">
        <ele>938</ele>
        <time>2026-08-19T11:39:56.344Z</time>
      </trkpt>
      <trkpt lat="45.91299" lon="6.36194">
        <ele>938</ele>
        <time>2026-08-19T11:39:57.344Z</time>
      </trkpt>
      <trkpt lat="45.91299" lon="6.36193">
        <ele>938</ele>
        <time>2026-08-19T11:39:58.344Z</time>
      </trkpt>
      <trkpt lat="45.91299" lon="6.36191">
        <ele>938</ele>
        <time>2026-08-19T11:39:59.344Z</time>
      </trkpt>
      <trkpt lat="45.91299" lon="6.36189">
        <ele>939</ele>
        <time>2026-08-19T11:40:00.344Z</time>
      </trkpt>
      <trkpt lat="45.91299" lon="6.36188">
        <ele>939</ele>
        <time>2026-08-19T11:40:01.344Z</time>
      </trkpt>
      <trkpt lat="45.91299" lon="6.36187">
        <ele>940</ele>
        <time>2026-08-19T11:40:02.344Z</time>
      </trkpt>
      <trkpt lat="45.91299" lon="6.36186">
        <ele>940</ele>
        <time>2026-08-19T11:40:03.344Z</time>
      </trkpt>
      <trkpt lat="45.91299" lon="6.36184">
        <ele>941</ele>
        <time>2026-08-19T11:40:04.344Z</time>
      </trkpt>
      <trkpt lat="45.913" lon="6.36183">
        <ele>941</ele>
        <time>2026-08-19T11:40:05.344Z</time>
      </trkpt>
      <trkpt lat="45.913" lon="6.36181">
        <ele>941</ele>
        <time>2026-08-19T11:40:06.344Z</time>
      </trkpt>
      <trkpt lat="45.91301" lon="6.36179">
        <ele>942</ele>
        <time>2026-08-19T11:40:07.344Z</time>
      </trkpt>
      <trkpt lat="45.91301" lon="6.36177">
        <ele>942</ele>
        <time>2026-08-19T11:40:08.344Z</time>
      </trkpt>
      <trkpt lat="45.91302" lon="6.36176">
        <ele>942</ele>
        <time>2026-08-19T11:40:09.344Z</time>
      </trkpt>
      <trkpt lat="45.91303" lon="6.36175">
        <ele>943</ele>
        <time>2026-08-19T11:40:10.344Z</time>
      </trkpt>
      <trkpt lat="45.91303" lon="6.36174">
        <ele>943</ele>
        <time>2026-08-19T11:40:11.344Z</time>
      </trkpt>
      <trkpt lat="45.91304" lon="6.36172">
        <ele>943</ele>
        <time>2026-08-19T11:40:12.344Z</time>
      </trkpt>
      <trkpt lat="45.91304" lon="6.36171">
        <ele>943</ele>
        <time>2026-08-19T11:40:13.344Z</time>
      </trkpt>
      <trkpt lat="45.91305" lon="6.3617">
        <ele>943</ele>
        <time>2026-08-19T11:40:14.344Z</time>
      </trkpt>
      <trkpt lat="45.91305" lon="6.36168">
        <ele>943</ele>
        <time>2026-08-19T11:40:15.344Z</time>
      </trkpt>
      <trkpt lat="45.91306" lon="6.36165">
        <ele>943</ele>
        <time>2026-08-19T11:40:16.344Z</time>
      </trkpt>
      <trkpt lat="45.91306" lon="6.36163">
        <ele>943</ele>
        <time>2026-08-19T11:40:17.344Z</time>
      </trkpt>
      <trkpt lat="45.91307" lon="6.36161">
        <ele>943</ele>
        <time>2026-08-19T11:40:18.344Z</time>
      </trkpt>
      <trkpt lat="45.91307" lon="6.3616">
        <ele>943</ele>
        <time>2026-08-19T11:40:19.344Z</time>
      </trkpt>
      <trkpt lat="45.91307" lon="6.36158">
        <ele>943</ele>
        <time>2026-08-19T11:40:20.344Z</time>
      </trkpt>
      <trkpt lat="45.91308" lon="6.36155">
        <ele>943</ele>
        <time>2026-08-19T11:40:21.344Z</time>
      </trkpt>
      <trkpt lat="45.91308" lon="6.36153">
        <ele>943</ele>
        <time>2026-08-19T11:40:22.344Z</time>
      </trkpt>
      <trkpt lat="45.91309" lon="6.36151">
        <ele>943</ele>
        <time>2026-08-19T11:40:23.344Z</time>
      </trkpt>
      <trkpt lat="45.9131" lon="6.36149">
        <ele>943</ele>
        <time>2026-08-19T11:40:24.344Z</time>
      </trkpt>
      <trkpt lat="45.91311" lon="6.36147">
        <ele>943</ele>
        <time>2026-08-19T11:40:25.344Z</time>
      </trkpt>
      <trkpt lat="45.91311" lon="6.36145">
        <ele>944</ele>
        <time>2026-08-19T11:40:26.344Z</time>
      </trkpt>
      <trkpt lat="45.91311" lon="6.36143">
        <ele>944</ele>
        <time>2026-08-19T11:40:27.344Z</time>
      </trkpt>
      <trkpt lat="45.91312" lon="6.36142">
        <ele>944</ele>
        <time>2026-08-19T11:40:28.344Z</time>
      </trkpt>
      <trkpt lat="45.91313" lon="6.3614">
        <ele>944</ele>
        <time>2026-08-19T11:40:29.344Z</time>
      </trkpt>
      <trkpt lat="45.91313" lon="6.36138">
        <ele>945</ele>
        <time>2026-08-19T11:40:30.344Z</time>
      </trkpt>
      <trkpt lat="45.91313" lon="6.36137">
        <ele>945</ele>
        <time>2026-08-19T11:40:31.344Z</time>
      </trkpt>
      <trkpt lat="45.91313" lon="6.36135">
        <ele>946</ele>
        <time>2026-08-19T11:40:32.344Z</time>
      </trkpt>
      <trkpt lat="45.91314" lon="6.36134">
        <ele>946</ele>
        <time>2026-08-19T11:40:33.344Z</time>
      </trkpt>
      <trkpt lat="45.91314" lon="6.36131">
        <ele>947</ele>
        <time>2026-08-19T11:40:34.344Z</time>
      </trkpt>
      <trkpt lat="45.91313" lon="6.36128">
        <ele>947</ele>
        <time>2026-08-19T11:40:35.345Z</time>
      </trkpt>
      <trkpt lat="45.91313" lon="6.36125">
        <ele>948</ele>
        <time>2026-08-19T11:40:36.344Z</time>
      </trkpt>
      <trkpt lat="45.91313" lon="6.36124">
        <ele>948</ele>
        <time>2026-08-19T11:40:37.344Z</time>
      </trkpt>
      <trkpt lat="45.91314" lon="6.36123">
        <ele>948</ele>
        <time>2026-08-19T11:40:38.344Z</time>
      </trkpt>
      <trkpt lat="45.91314" lon="6.36121">
        <ele>948</ele>
        <time>2026-08-19T11:40:39.344Z</time>
      </trkpt>
      <trkpt lat="45.91315" lon="6.3612">
        <ele>948</ele>
        <time>2026-08-19T11:40:40.344Z</time>
      </trkpt>
      <trkpt lat="45.91315" lon="6.36119">
        <ele>948</ele>
        <time>2026-08-19T11:40:41.344Z</time>
      </trkpt>
      <trkpt lat="45.91316" lon="6.36118">
        <ele>948</ele>
        <time>2026-08-19T11:40:42.344Z</time>
      </trkpt>
      <trkpt lat="45.91317" lon="6.36117">
        <ele>948</ele>
        <time>2026-08-19T11:40:43.344Z</time>
      </trkpt>
      <trkpt lat="45.91318" lon="6.36116">
        <ele>947</ele>
        <time>2026-08-19T11:40:44.344Z</time>
      </trkpt>
      <trkpt lat="45.91319" lon="6.36114">
        <ele>947</ele>
        <time>2026-08-19T11:40:45.344Z</time>
      </trkpt>
      <trkpt lat="45.9132" lon="6.36113">
        <ele>947</ele>
        <time>2026-08-19T11:40:46.344Z</time>
      </trkpt>
      <trkpt lat="45.9132" lon="6.36111">
        <ele>947</ele>
        <time>2026-08-19T11:40:47.344Z</time>
      </trkpt>
      <trkpt lat="45.91321" lon="6.36109">
        <ele>946</ele>
        <time>2026-08-19T11:40:48.344Z</time>
      </trkpt>
      <trkpt lat="45.91321" lon="6.36108">
        <ele>946</ele>
        <time>2026-08-19T11:40:49.344Z</time>
      </trkpt>
      <trkpt lat="45.91322" lon="6.36107">
        <ele>946</ele>
        <time>2026-08-19T11:40:50.344Z</time>
      </trkpt>
      <trkpt lat="45.91322" lon="6.36106">
        <ele>947</ele>
        <time>2026-08-19T11:40:51.344Z</time>
      </trkpt>
      <trkpt lat="45.91322" lon="6.36105">
        <ele>947</ele>
        <time>2026-08-19T11:40:52.344Z</time>
      </trkpt>
      <trkpt lat="45.91323" lon="6.36103">
        <ele>947</ele>
        <time>2026-08-19T11:40:53.344Z</time>
      </trkpt>
      <trkpt lat="45.91323" lon="6.36101">
        <ele>947</ele>
        <time>2026-08-19T11:40:54.344Z</time>
      </trkpt>
      <trkpt lat="45.91324" lon="6.361">
        <ele>947</ele>
        <time>2026-08-19T11:40:55.344Z</time>
      </trkpt>
      <trkpt lat="45.91324" lon="6.36099">
        <ele>946</ele>
        <time>2026-08-19T11:40:56.344Z</time>
      </trkpt>
      <trkpt lat="45.91324" lon="6.36098">
        <ele>946</ele>
        <time>2026-08-19T11:40:57.344Z</time>
      </trkpt>
      <trkpt lat="45.91324" lon="6.36096">
        <ele>947</ele>
        <time>2026-08-19T11:40:58.344Z</time>
      </trkpt>
      <trkpt lat="45.91324" lon="6.36095">
        <ele>947</ele>
        <time>2026-08-19T11:40:59.344Z</time>
      </trkpt>
      <trkpt lat="45.91324" lon="6.36093">
        <ele>947</ele>
        <time>2026-08-19T11:41:00.344Z</time>
      </trkpt>
      <trkpt lat="45.91324" lon="6.36092">
        <ele>948</ele>
        <time>2026-08-19T11:41:01.344Z</time>
      </trkpt>
      <trkpt lat="45.91324" lon="6.3609">
        <ele>948</ele>
        <time>2026-08-19T11:41:02.344Z</time>
      </trkpt>
      <trkpt lat="45.91324" lon="6.36089">
        <ele>947</ele>
        <time>2026-08-19T11:41:03.344Z</time>
      </trkpt>
      <trkpt lat="45.91325" lon="6.36088">
        <ele>947</ele>
        <time>2026-08-19T11:41:04.344Z</time>
      </trkpt>
      <trkpt lat="45.91325" lon="6.36087">
        <ele>947</ele>
        <time>2026-08-19T11:41:05.344Z</time>
      </trkpt>
      <trkpt lat="45.91325" lon="6.36085">
        <ele>947</ele>
        <time>2026-08-19T11:41:06.344Z</time>
      </trkpt>
      <trkpt lat="45.91326" lon="6.36084">
        <ele>947</ele>
        <time>2026-08-19T11:41:07.344Z</time>
      </trkpt>
      <trkpt lat="45.91326" lon="6.36083">
        <ele>947</ele>
        <time>2026-08-19T11:41:08.344Z</time>
      </trkpt>
      <trkpt lat="45.91326" lon="6.36081">
        <ele>948</ele>
        <time>2026-08-19T11:41:09.344Z</time>
      </trkpt>
      <trkpt lat="45.91326" lon="6.3608">
        <ele>948</ele>
        <time>2026-08-19T11:41:10.344Z</time>
      </trkpt>
      <trkpt lat="45.91326" lon="6.36078">
        <ele>948</ele>
        <time>2026-08-19T11:41:11.344Z</time>
      </trkpt>
      <trkpt lat="45.91327" lon="6.36077">
        <ele>949</ele>
        <time>2026-08-19T11:41:12.344Z</time>
      </trkpt>
      <trkpt lat="45.91327" lon="6.36075">
        <ele>949</ele>
        <time>2026-08-19T11:41:13.344Z</time>
      </trkpt>
      <trkpt lat="45.91327" lon="6.36073">
        <ele>949</ele>
        <time>2026-08-19T11:41:14.344Z</time>
      </trkpt>
      <trkpt lat="45.91326" lon="6.36072">
        <ele>950</ele>
        <time>2026-08-19T11:41:15.344Z</time>
      </trkpt>
      <trkpt lat="45.91326" lon="6.36071">
        <ele>950</ele>
        <time>2026-08-19T11:41:16.344Z</time>
      </trkpt>
      <trkpt lat="45.91325" lon="6.3607">
        <ele>950</ele>
        <time>2026-08-19T11:41:17.344Z</time>
      </trkpt>
      <trkpt lat="45.91324" lon="6.36069">
        <ele>951</ele>
        <time>2026-08-19T11:41:18.344Z</time>
      </trkpt>
      <trkpt lat="45.91323" lon="6.36068">
        <ele>951</ele>
        <time>2026-08-19T11:41:19.344Z</time>
      </trkpt>
      <trkpt lat="45.91322" lon="6.36068">
        <ele>951</ele>
        <time>2026-08-19T11:41:20.344Z</time>
      </trkpt>
      <trkpt lat="45.91322" lon="6.36068">
        <ele>951</ele>
        <time>2026-08-19T11:41:21.344Z</time>
      </trkpt>
      <trkpt lat="45.91321" lon="6.36069">
        <ele>952</ele>
        <time>2026-08-19T11:41:22.344Z</time>
      </trkpt>
      <trkpt lat="45.9132" lon="6.36069">
        <ele>952</ele>
        <time>2026-08-19T11:41:23.344Z</time>
      </trkpt>
      <trkpt lat="45.91319" lon="6.3607">
        <ele>952</ele>
        <time>2026-08-19T11:41:24.344Z</time>
      </trkpt>
      <trkpt lat="45.91318" lon="6.36071">
        <ele>952</ele>
        <time>2026-08-19T11:41:25.344Z</time>
      </trkpt>
      <trkpt lat="45.91317" lon="6.36071">
        <ele>952</ele>
        <time>2026-08-19T11:41:26.344Z</time>
      </trkpt>
      <trkpt lat="45.91316" lon="6.36071">
        <ele>952</ele>
        <time>2026-08-19T11:41:27.344Z</time>
      </trkpt>
      <trkpt lat="45.91315" lon="6.36069">
        <ele>952</ele>
        <time>2026-08-19T11:41:28.344Z</time>
      </trkpt>
      <trkpt lat="45.91315" lon="6.36068">
        <ele>952</ele>
        <time>2026-08-19T11:41:29.344Z</time>
      </trkpt>
      <trkpt lat="45.91314" lon="6.36067">
        <ele>952</ele>
        <time>2026-08-19T11:41:30.344Z</time>
      </trkpt>
      <trkpt lat="45.91314" lon="6.36065">
        <ele>953</ele>
        <time>2026-08-19T11:41:31.344Z</time>
      </trkpt>
      <trkpt lat="45.91314" lon="6.36063">
        <ele>953</ele>
        <time>2026-08-19T11:41:32.344Z</time>
      </trkpt>
      <trkpt lat="45.91314" lon="6.36062">
        <ele>953</ele>
        <time>2026-08-19T11:41:33.344Z</time>
      </trkpt>
      <trkpt lat="45.91314" lon="6.36061">
        <ele>954</ele>
        <time>2026-08-19T11:41:34.344Z</time>
      </trkpt>
      <trkpt lat="45.91314" lon="6.3606">
        <ele>955</ele>
        <time>2026-08-19T11:41:35.344Z</time>
      </trkpt>
      <trkpt lat="45.91314" lon="6.36058">
        <ele>955</ele>
        <time>2026-08-19T11:41:36.344Z</time>
      </trkpt>
      <trkpt lat="45.91313" lon="6.36057">
        <ele>956</ele>
        <time>2026-08-19T11:41:37.344Z</time>
      </trkpt>
      <trkpt lat="45.91313" lon="6.36056">
        <ele>956</ele>
        <time>2026-08-19T11:41:38.344Z</time>
      </trkpt>
      <trkpt lat="45.91312" lon="6.36054">
        <ele>956</ele>
        <time>2026-08-19T11:41:39.344Z</time>
      </trkpt>
      <trkpt lat="45.91312" lon="6.36053">
        <ele>957</ele>
        <time>2026-08-19T11:41:40.344Z</time>
      </trkpt>
      <trkpt lat="45.91312" lon="6.36052">
        <ele>957</ele>
        <time>2026-08-19T11:41:41.344Z</time>
      </trkpt>
      <trkpt lat="45.91312" lon="6.36051">
        <ele>958</ele>
        <time>2026-08-19T11:41:42.344Z</time>
      </trkpt>
      <trkpt lat="45.91311" lon="6.36049">
        <ele>958</ele>
        <time>2026-08-19T11:41:43.344Z</time>
      </trkpt>
      <trkpt lat="45.91311" lon="6.36048">
        <ele>958</ele>
        <time>2026-08-19T11:41:44.344Z</time>
      </trkpt>
      <trkpt lat="45.91311" lon="6.36047">
        <ele>958</ele>
        <time>2026-08-19T11:41:45.344Z</time>
      </trkpt>
      <trkpt lat="45.91311" lon="6.36046">
        <ele>958</ele>
        <time>2026-08-19T11:41:46.344Z</time>
      </trkpt>
      <trkpt lat="45.91312" lon="6.36045">
        <ele>959</ele>
        <time>2026-08-19T11:41:47.344Z</time>
      </trkpt>
      <trkpt lat="45.91312" lon="6.36044">
        <ele>959</ele>
        <time>2026-08-19T11:41:48.344Z</time>
      </trkpt>
      <trkpt lat="45.91312" lon="6.36043">
        <ele>959</ele>
        <time>2026-08-19T11:41:49.344Z</time>
      </trkpt>
      <trkpt lat="45.91312" lon="6.36041">
        <ele>959</ele>
        <time>2026-08-19T11:41:50.344Z</time>
      </trkpt>
      <trkpt lat="45.91311" lon="6.3604">
        <ele>959</ele>
        <time>2026-08-19T11:41:51.344Z</time>
      </trkpt>
      <trkpt lat="45.91311" lon="6.36039">
        <ele>959</ele>
        <time>2026-08-19T11:41:52.344Z</time>
      </trkpt>
      <trkpt lat="45.9131" lon="6.36038">
        <ele>960</ele>
        <time>2026-08-19T11:41:53.344Z</time>
      </trkpt>
      <trkpt lat="45.9131" lon="6.36036">
        <ele>960</ele>
        <time>2026-08-19T11:41:54.344Z</time>
      </trkpt>
      <trkpt lat="45.9131" lon="6.36035">
        <ele>960</ele>
        <time>2026-08-19T11:41:55.344Z</time>
      </trkpt>
      <trkpt lat="45.9131" lon="6.36034">
        <ele>960</ele>
        <time>2026-08-19T11:41:56.344Z</time>
      </trkpt>
      <trkpt lat="45.9131" lon="6.36032">
        <ele>960</ele>
        <time>2026-08-19T11:41:57.344Z</time>
      </trkpt>
      <trkpt lat="45.9131" lon="6.36031">
        <ele>960</ele>
        <time>2026-08-19T11:41:58.344Z</time>
      </trkpt>
      <trkpt lat="45.9131" lon="6.3603">
        <ele>961</ele>
        <time>2026-08-19T11:41:59.344Z</time>
      </trkpt>
      <trkpt lat="45.91309" lon="6.36028">
        <ele>961</ele>
        <time>2026-08-19T11:42:00.344Z</time>
      </trkpt>
      <trkpt lat="45.9131" lon="6.36027">
        <ele>961</ele>
        <time>2026-08-19T11:42:01.344Z</time>
      </trkpt>
      <trkpt lat="45.91309" lon="6.36026">
        <ele>961</ele>
        <time>2026-08-19T11:42:02.344Z</time>
      </trkpt>
      <trkpt lat="45.91309" lon="6.36024">
        <ele>961</ele>
        <time>2026-08-19T11:42:03.344Z</time>
      </trkpt>
      <trkpt lat="45.91308" lon="6.36023">
        <ele>962</ele>
        <time>2026-08-19T11:42:04.344Z</time>
      </trkpt>
      <trkpt lat="45.91308" lon="6.36022">
        <ele>962</ele>
        <time>2026-08-19T11:42:05.344Z</time>
      </trkpt>
      <trkpt lat="45.91308" lon="6.36021">
        <ele>963</ele>
        <time>2026-08-19T11:42:06.344Z</time>
      </trkpt>
      <trkpt lat="45.91308" lon="6.3602">
        <ele>963</ele>
        <time>2026-08-19T11:42:07.344Z</time>
      </trkpt>
      <trkpt lat="45.91307" lon="6.36018">
        <ele>964</ele>
        <time>2026-08-19T11:42:08.345Z</time>
      </trkpt>
      <trkpt lat="45.91307" lon="6.36017">
        <ele>964</ele>
        <time>2026-08-19T11:42:09.344Z</time>
      </trkpt>
      <trkpt lat="45.91307" lon="6.36015">
        <ele>965</ele>
        <time>2026-08-19T11:42:10.344Z</time>
      </trkpt>
      <trkpt lat="45.91306" lon="6.36013">
        <ele>965</ele>
        <time>2026-08-19T11:42:11.344Z</time>
      </trkpt>
      <trkpt lat="45.91306" lon="6.36012">
        <ele>965</ele>
        <time>2026-08-19T11:42:12.344Z</time>
      </trkpt>
      <trkpt lat="45.91306" lon="6.3601">
        <ele>966</ele>
        <time>2026-08-19T11:42:13.344Z</time>
      </trkpt>
      <trkpt lat="45.91305" lon="6.36009">
        <ele>966</ele>
        <time>2026-08-19T11:42:14.344Z</time>
      </trkpt>
      <trkpt lat="45.91305" lon="6.36008">
        <ele>966</ele>
        <time>2026-08-19T11:42:15.344Z</time>
      </trkpt>
      <trkpt lat="45.91305" lon="6.36007">
        <ele>966</ele>
        <time>2026-08-19T11:42:16.344Z</time>
      </trkpt>
      <trkpt lat="45.91305" lon="6.36005">
        <ele>965</ele>
        <time>2026-08-19T11:42:17.344Z</time>
      </trkpt>
      <trkpt lat="45.91305" lon="6.36004">
        <ele>965</ele>
        <time>2026-08-19T11:42:18.344Z</time>
      </trkpt>
      <trkpt lat="45.91304" lon="6.36002">
        <ele>965</ele>
        <time>2026-08-19T11:42:19.344Z</time>
      </trkpt>
      <trkpt lat="45.91304" lon="6.36001">
        <ele>966</ele>
        <time>2026-08-19T11:42:20.344Z</time>
      </trkpt>
      <trkpt lat="45.91304" lon="6.35999">
        <ele>966</ele>
        <time>2026-08-19T11:42:21.344Z</time>
      </trkpt>
      <trkpt lat="45.91304" lon="6.35998">
        <ele>967</ele>
        <time>2026-08-19T11:42:22.344Z</time>
      </trkpt>
      <trkpt lat="45.91304" lon="6.35997">
        <ele>967</ele>
        <time>2026-08-19T11:42:23.344Z</time>
      </trkpt>
      <trkpt lat="45.91304" lon="6.35996">
        <ele>966</ele>
        <time>2026-08-19T11:42:24.344Z</time>
      </trkpt>
      <trkpt lat="45.91304" lon="6.35994">
        <ele>966</ele>
        <time>2026-08-19T11:42:25.345Z</time>
      </trkpt>
      <trkpt lat="45.91304" lon="6.35993">
        <ele>967</ele>
        <time>2026-08-19T11:42:26.344Z</time>
      </trkpt>
      <trkpt lat="45.91304" lon="6.35991">
        <ele>967</ele>
        <time>2026-08-19T11:42:27.344Z</time>
      </trkpt>
      <trkpt lat="45.91303" lon="6.3599">
        <ele>967</ele>
        <time>2026-08-19T11:42:28.344Z</time>
      </trkpt>
      <trkpt lat="45.91303" lon="6.35988">
        <ele>967</ele>
        <time>2026-08-19T11:42:29.344Z</time>
      </trkpt>
      <trkpt lat="45.91303" lon="6.35987">
        <ele>967</ele>
        <time>2026-08-19T11:42:30.344Z</time>
      </trkpt>
      <trkpt lat="45.91303" lon="6.35986">
        <ele>967</ele>
        <time>2026-08-19T11:42:31.344Z</time>
      </trkpt>
      <trkpt lat="45.91302" lon="6.35985">
        <ele>967</ele>
        <time>2026-08-19T11:42:32.344Z</time>
      </trkpt>
      <trkpt lat="45.91302" lon="6.35984">
        <ele>967</ele>
        <time>2026-08-19T11:42:33.344Z</time>
      </trkpt>
      <trkpt lat="45.91302" lon="6.35982">
        <ele>967</ele>
        <time>2026-08-19T11:42:34.344Z</time>
      </trkpt>
      <trkpt lat="45.91301" lon="6.35981">
        <ele>967</ele>
        <time>2026-08-19T11:42:35.344Z</time>
      </trkpt>
      <trkpt lat="45.91301" lon="6.35979">
        <ele>968</ele>
        <time>2026-08-19T11:42:36.344Z</time>
      </trkpt>
      <trkpt lat="45.91301" lon="6.35978">
        <ele>968</ele>
        <time>2026-08-19T11:42:37.344Z</time>
      </trkpt>
      <trkpt lat="45.91301" lon="6.35976">
        <ele>968</ele>
        <time>2026-08-19T11:42:38.344Z</time>
      </trkpt>
      <trkpt lat="45.91301" lon="6.35975">
        <ele>969</ele>
        <time>2026-08-19T11:42:39.344Z</time>
      </trkpt>
      <trkpt lat="45.913" lon="6.35974">
        <ele>969</ele>
        <time>2026-08-19T11:42:40.344Z</time>
      </trkpt>
      <trkpt lat="45.913" lon="6.35973">
        <ele>969</ele>
        <time>2026-08-19T11:42:41.344Z</time>
      </trkpt>
      <trkpt lat="45.913" lon="6.35971">
        <ele>969</ele>
        <time>2026-08-19T11:42:42.344Z</time>
      </trkpt>
      <trkpt lat="45.91299" lon="6.3597">
        <ele>969</ele>
        <time>2026-08-19T11:42:43.344Z</time>
      </trkpt>
      <trkpt lat="45.91299" lon="6.35969">
        <ele>969</ele>
        <time>2026-08-19T11:42:44.344Z</time>
      </trkpt>
      <trkpt lat="45.91299" lon="6.35968">
        <ele>970</ele>
        <time>2026-08-19T11:42:45.344Z</time>
      </trkpt>
      <trkpt lat="45.91299" lon="6.35966">
        <ele>970</ele>
        <time>2026-08-19T11:42:46.344Z</time>
      </trkpt>
      <trkpt lat="45.91298" lon="6.35965">
        <ele>970</ele>
        <time>2026-08-19T11:42:47.344Z</time>
      </trkpt>
      <trkpt lat="45.91298" lon="6.35963">
        <ele>970</ele>
        <time>2026-08-19T11:42:48.344Z</time>
      </trkpt>
      <trkpt lat="45.91298" lon="6.35962">
        <ele>970</ele>
        <time>2026-08-19T11:42:49.344Z</time>
      </trkpt>
      <trkpt lat="45.91297" lon="6.3596">
        <ele>970</ele>
        <time>2026-08-19T11:42:50.344Z</time>
      </trkpt>
      <trkpt lat="45.91297" lon="6.35958">
        <ele>971</ele>
        <time>2026-08-19T11:42:51.344Z</time>
      </trkpt>
      <trkpt lat="45.91296" lon="6.35957">
        <ele>971</ele>
        <time>2026-08-19T11:42:52.344Z</time>
      </trkpt>
      <trkpt lat="45.91296" lon="6.35955">
        <ele>971</ele>
        <time>2026-08-19T11:42:53.344Z</time>
      </trkpt>
      <trkpt lat="45.91296" lon="6.35954">
        <ele>970</ele>
        <time>2026-08-19T11:42:54.344Z</time>
      </trkpt>
      <trkpt lat="45.91296" lon="6.35952">
        <ele>970</ele>
        <time>2026-08-19T11:42:55.344Z</time>
      </trkpt>
      <trkpt lat="45.91296" lon="6.35951">
        <ele>970</ele>
        <time>2026-08-19T11:42:56.344Z</time>
      </trkpt>
      <trkpt lat="45.91296" lon="6.3595">
        <ele>970</ele>
        <time>2026-08-19T11:42:57.344Z</time>
      </trkpt>
      <trkpt lat="45.91296" lon="6.35948">
        <ele>970</ele>
        <time>2026-08-19T11:42:58.344Z</time>
      </trkpt>
      <trkpt lat="45.91296" lon="6.35946">
        <ele>970</ele>
        <time>2026-08-19T11:42:59.344Z</time>
      </trkpt>
      <trkpt lat="45.91296" lon="6.35944">
        <ele>970</ele>
        <time>2026-08-19T11:43:00.344Z</time>
      </trkpt>
      <trkpt lat="45.91296" lon="6.35942">
        <ele>971</ele>
        <time>2026-08-19T11:43:01.344Z</time>
      </trkpt>
      <trkpt lat="45.91296" lon="6.35941">
        <ele>971</ele>
        <time>2026-08-19T11:43:02.344Z</time>
      </trkpt>
      <trkpt lat="45.91296" lon="6.35939">
        <ele>972</ele>
        <time>2026-08-19T11:43:03.344Z</time>
      </trkpt>
      <trkpt lat="45.91296" lon="6.35938">
        <ele>972</ele>
        <time>2026-08-19T11:43:04.344Z</time>
      </trkpt>
      <trkpt lat="45.91296" lon="6.35937">
        <ele>972</ele>
        <time>2026-08-19T11:43:05.344Z</time>
      </trkpt>
      <trkpt lat="45.91295" lon="6.35935">
        <ele>972</ele>
        <time>2026-08-19T11:43:06.344Z</time>
      </trkpt>
      <trkpt lat="45.91295" lon="6.35933">
        <ele>972</ele>
        <time>2026-08-19T11:43:07.344Z</time>
      </trkpt>
      <trkpt lat="45.91295" lon="6.35931">
        <ele>972</ele>
        <time>2026-08-19T11:43:08.344Z</time>
      </trkpt>
      <trkpt lat="45.91295" lon="6.3593">
        <ele>972</ele>
        <time>2026-08-19T11:43:09.345Z</time>
      </trkpt>
      <trkpt lat="45.91295" lon="6.35928">
        <ele>973</ele>
        <time>2026-08-19T11:43:10.344Z</time>
      </trkpt>
      <trkpt lat="45.91295" lon="6.35927">
        <ele>973</ele>
        <time>2026-08-19T11:43:11.344Z</time>
      </trkpt>
      <trkpt lat="45.91295" lon="6.35925">
        <ele>973</ele>
        <time>2026-08-19T11:43:12.344Z</time>
      </trkpt>
      <trkpt lat="45.91295" lon="6.35924">
        <ele>973</ele>
        <time>2026-08-19T11:43:13.344Z</time>
      </trkpt>
      <trkpt lat="45.91294" lon="6.35923">
        <ele>973</ele>
        <time>2026-08-19T11:43:14.344Z</time>
      </trkpt>
      <trkpt lat="45.91294" lon="6.35922">
        <ele>973</ele>
        <time>2026-08-19T11:43:15.344Z</time>
      </trkpt>
      <trkpt lat="45.91294" lon="6.35921">
        <ele>973</ele>
        <time>2026-08-19T11:43:16.344Z</time>
      </trkpt>
      <trkpt lat="45.91294" lon="6.3592">
        <ele>973</ele>
        <time>2026-08-19T11:43:17.344Z</time>
      </trkpt>
      <trkpt lat="45.91294" lon="6.35919">
        <ele>973</ele>
        <time>2026-08-19T11:43:18.344Z</time>
      </trkpt>
      <trkpt lat="45.91294" lon="6.35918">
        <ele>974</ele>
        <time>2026-08-19T11:43:19.344Z</time>
      </trkpt>
      <trkpt lat="45.91294" lon="6.35917">
        <ele>974</ele>
        <time>2026-08-19T11:43:20.344Z</time>
      </trkpt>
      <trkpt lat="45.91294" lon="6.35915">
        <ele>974</ele>
        <time>2026-08-19T11:43:21.345Z</time>
      </trkpt>
      <trkpt lat="45.91295" lon="6.35914">
        <ele>975</ele>
        <time>2026-08-19T11:43:22.344Z</time>
      </trkpt>
      <trkpt lat="45.91295" lon="6.35912">
        <ele>975</ele>
        <time>2026-08-19T11:43:23.344Z</time>
      </trkpt>
      <trkpt lat="45.91296" lon="6.35911">
        <ele>975</ele>
        <time>2026-08-19T11:43:24.344Z</time>
      </trkpt>
      <trkpt lat="45.91295" lon="6.3591">
        <ele>976</ele>
        <time>2026-08-19T11:43:25.344Z</time>
      </trkpt>
      <trkpt lat="45.91296" lon="6.35908">
        <ele>976</ele>
        <time>2026-08-19T11:43:26.344Z</time>
      </trkpt>
      <trkpt lat="45.91296" lon="6.35907">
        <ele>977</ele>
        <time>2026-08-19T11:43:27.344Z</time>
      </trkpt>
      <trkpt lat="45.91296" lon="6.35906">
        <ele>977</ele>
        <time>2026-08-19T11:43:28.344Z</time>
      </trkpt>
      <trkpt lat="45.91296" lon="6.35905">
        <ele>977</ele>
        <time>2026-08-19T11:43:29.344Z</time>
      </trkpt>
      <trkpt lat="45.91295" lon="6.35904">
        <ele>978</ele>
        <time>2026-08-19T11:43:30.344Z</time>
      </trkpt>
      <trkpt lat="45.91295" lon="6.35902">
        <ele>978</ele>
        <time>2026-08-19T11:43:31.344Z</time>
      </trkpt>
      <trkpt lat="45.91295" lon="6.359">
        <ele>979</ele>
        <time>2026-08-19T11:43:32.344Z</time>
      </trkpt>
      <trkpt lat="45.91295" lon="6.35898">
        <ele>979</ele>
        <time>2026-08-19T11:43:33.344Z</time>
      </trkpt>
      <trkpt lat="45.91294" lon="6.35897">
        <ele>979</ele>
        <time>2026-08-19T11:43:34.344Z</time>
      </trkpt>
      <trkpt lat="45.91294" lon="6.35895">
        <ele>979</ele>
        <time>2026-08-19T11:43:35.344Z</time>
      </trkpt>
      <trkpt lat="45.91294" lon="6.35893">
        <ele>979</ele>
        <time>2026-08-19T11:43:36.344Z</time>
      </trkpt>
      <trkpt lat="45.91293" lon="6.35892">
        <ele>979</ele>
        <time>2026-08-19T11:43:37.344Z</time>
      </trkpt>
      <trkpt lat="45.91293" lon="6.3589">
        <ele>979</ele>
        <time>2026-08-19T11:43:38.344Z</time>
      </trkpt>
      <trkpt lat="45.91293" lon="6.35889">
        <ele>979</ele>
        <time>2026-08-19T11:43:39.344Z</time>
      </trkpt>
      <trkpt lat="45.91293" lon="6.35887">
        <ele>979</ele>
        <time>2026-08-19T11:43:40.344Z</time>
      </trkpt>
      <trkpt lat="45.91293" lon="6.35885">
        <ele>979</ele>
        <time>2026-08-19T11:43:41.344Z</time>
      </trkpt>
      <trkpt lat="45.91292" lon="6.35884">
        <ele>979</ele>
        <time>2026-08-19T11:43:42.344Z</time>
      </trkpt>
      <trkpt lat="45.91292" lon="6.35882">
        <ele>980</ele>
        <time>2026-08-19T11:43:43.344Z</time>
      </trkpt>
      <trkpt lat="45.91293" lon="6.35881">
        <ele>980</ele>
        <time>2026-08-19T11:43:44.344Z</time>
      </trkpt>
      <trkpt lat="45.91293" lon="6.3588">
        <ele>980</ele>
        <time>2026-08-19T11:43:45.344Z</time>
      </trkpt>
      <trkpt lat="45.91293" lon="6.35878">
        <ele>981</ele>
        <time>2026-08-19T11:43:46.344Z</time>
      </trkpt>
      <trkpt lat="45.91293" lon="6.35878">
        <ele>981</ele>
        <time>2026-08-19T11:43:47.344Z</time>
      </trkpt>
      <trkpt lat="45.91293" lon="6.35877">
        <ele>982</ele>
        <time>2026-08-19T11:43:48.344Z</time>
      </trkpt>
      <trkpt lat="45.91293" lon="6.35875">
        <ele>982</ele>
        <time>2026-08-19T11:43:49.344Z</time>
      </trkpt>
      <trkpt lat="45.91293" lon="6.35873">
        <ele>982</ele>
        <time>2026-08-19T11:43:50.344Z</time>
      </trkpt>
      <trkpt lat="45.91293" lon="6.35871">
        <ele>982</ele>
        <time>2026-08-19T11:43:51.345Z</time>
      </trkpt>
      <trkpt lat="45.91292" lon="6.35869">
        <ele>982</ele>
        <time>2026-08-19T11:43:52.344Z</time>
      </trkpt>
      <trkpt lat="45.91293" lon="6.35868">
        <ele>982</ele>
        <time>2026-08-19T11:43:53.344Z</time>
      </trkpt>
      <trkpt lat="45.91293" lon="6.35866">
        <ele>982</ele>
        <time>2026-08-19T11:43:54.344Z</time>
      </trkpt>
      <trkpt lat="45.91293" lon="6.35865">
        <ele>982</ele>
        <time>2026-08-19T11:43:55.344Z</time>
      </trkpt>
      <trkpt lat="45.91293" lon="6.35864">
        <ele>982</ele>
        <time>2026-08-19T11:43:56.344Z</time>
      </trkpt>
      <trkpt lat="45.91293" lon="6.35863">
        <ele>983</ele>
        <time>2026-08-19T11:43:57.344Z</time>
      </trkpt>
      <trkpt lat="45.91293" lon="6.35861">
        <ele>983</ele>
        <time>2026-08-19T11:43:58.344Z</time>
      </trkpt>
      <trkpt lat="45.91293" lon="6.3586">
        <ele>983</ele>
        <time>2026-08-19T11:43:59.344Z</time>
      </trkpt>
      <trkpt lat="45.91293" lon="6.35858">
        <ele>983</ele>
        <time>2026-08-19T11:44:00.344Z</time>
      </trkpt>
      <trkpt lat="45.91293" lon="6.35857">
        <ele>983</ele>
        <time>2026-08-19T11:44:01.344Z</time>
      </trkpt>
      <trkpt lat="45.91293" lon="6.35855">
        <ele>983</ele>
        <time>2026-08-19T11:44:02.344Z</time>
      </trkpt>
      <trkpt lat="45.91293" lon="6.35854">
        <ele>984</ele>
        <time>2026-08-19T11:44:03.344Z</time>
      </trkpt>
      <trkpt lat="45.91293" lon="6.35852">
        <ele>984</ele>
        <time>2026-08-19T11:44:04.344Z</time>
      </trkpt>
      <trkpt lat="45.91293" lon="6.35852">
        <ele>984</ele>
        <time>2026-08-19T11:44:05.344Z</time>
      </trkpt>
      <trkpt lat="45.91293" lon="6.35851">
        <ele>985</ele>
        <time>2026-08-19T11:44:06.344Z</time>
      </trkpt>
      <trkpt lat="45.91293" lon="6.3585">
        <ele>985</ele>
        <time>2026-08-19T11:44:07.344Z</time>
      </trkpt>
      <trkpt lat="45.91293" lon="6.35849">
        <ele>986</ele>
        <time>2026-08-19T11:44:08.344Z</time>
      </trkpt>
      <trkpt lat="45.91293" lon="6.35848">
        <ele>986</ele>
        <time>2026-08-19T11:44:09.344Z</time>
      </trkpt>
      <trkpt lat="45.91292" lon="6.35847">
        <ele>987</ele>
        <time>2026-08-19T11:44:10.345Z</time>
      </trkpt>
      <trkpt lat="45.91292" lon="6.35845">
        <ele>987</ele>
        <time>2026-08-19T11:44:11.344Z</time>
      </trkpt>
      <trkpt lat="45.91291" lon="6.35844">
        <ele>988</ele>
        <time>2026-08-19T11:44:12.344Z</time>
      </trkpt>
      <trkpt lat="45.91291" lon="6.35843">
        <ele>989</ele>
        <time>2026-08-19T11:44:13.344Z</time>
      </trkpt>
      <trkpt lat="45.91291" lon="6.35841">
        <ele>989</ele>
        <time>2026-08-19T11:44:14.344Z</time>
      </trkpt>
      <trkpt lat="45.91291" lon="6.3584">
        <ele>989</ele>
        <time>2026-08-19T11:44:15.344Z</time>
      </trkpt>
      <trkpt lat="45.9129" lon="6.35839">
        <ele>989</ele>
        <time>2026-08-19T11:44:16.344Z</time>
      </trkpt>
      <trkpt lat="45.9129" lon="6.35838">
        <ele>989</ele>
        <time>2026-08-19T11:44:17.344Z</time>
      </trkpt>
      <trkpt lat="45.9129" lon="6.35837">
        <ele>989</ele>
        <time>2026-08-19T11:44:18.344Z</time>
      </trkpt>
      <trkpt lat="45.91289" lon="6.35836">
        <ele>990</ele>
        <time>2026-08-19T11:44:19.344Z</time>
      </trkpt>
      <trkpt lat="45.91289" lon="6.35835">
        <ele>990</ele>
        <time>2026-08-19T11:44:20.344Z</time>
      </trkpt>
      <trkpt lat="45.91289" lon="6.35833">
        <ele>990</ele>
        <time>2026-08-19T11:44:21.344Z</time>
      </trkpt>
      <trkpt lat="45.91288" lon="6.35832">
        <ele>990</ele>
        <time>2026-08-19T11:44:22.344Z</time>
      </trkpt>
      <trkpt lat="45.91288" lon="6.3583">
        <ele>990</ele>
        <time>2026-08-19T11:44:23.344Z</time>
      </trkpt>
      <trkpt lat="45.91288" lon="6.35829">
        <ele>990</ele>
        <time>2026-08-19T11:44:24.344Z</time>
      </trkpt>
      <trkpt lat="45.91289" lon="6.35827">
        <ele>990</ele>
        <time>2026-08-19T11:44:25.344Z</time>
      </trkpt>
      <trkpt lat="45.91289" lon="6.35826">
        <ele>990</ele>
        <time>2026-08-19T11:44:26.344Z</time>
      </trkpt>
      <trkpt lat="45.91289" lon="6.35824">
        <ele>990</ele>
        <time>2026-08-19T11:44:27.344Z</time>
      </trkpt>
      <trkpt lat="45.91289" lon="6.35822">
        <ele>990</ele>
        <time>2026-08-19T11:44:28.344Z</time>
      </trkpt>
      <trkpt lat="45.91289" lon="6.3582">
        <ele>990</ele>
        <time>2026-08-19T11:44:29.344Z</time>
      </trkpt>
      <trkpt lat="45.91288" lon="6.35819">
        <ele>990</ele>
        <time>2026-08-19T11:44:30.344Z</time>
      </trkpt>
      <trkpt lat="45.91288" lon="6.35817">
        <ele>991</ele>
        <time>2026-08-19T11:44:31.344Z</time>
      </trkpt>
      <trkpt lat="45.91288" lon="6.35816">
        <ele>991</ele>
        <time>2026-08-19T11:44:32.344Z</time>
      </trkpt>
      <trkpt lat="45.91288" lon="6.35815">
        <ele>991</ele>
        <time>2026-08-19T11:44:33.344Z</time>
      </trkpt>
      <trkpt lat="45.91289" lon="6.35814">
        <ele>992</ele>
        <time>2026-08-19T11:44:34.344Z</time>
      </trkpt>
      <trkpt lat="45.91289" lon="6.35812">
        <ele>992</ele>
        <time>2026-08-19T11:44:35.344Z</time>
      </trkpt>
      <trkpt lat="45.91289" lon="6.3581">
        <ele>992</ele>
        <time>2026-08-19T11:44:36.344Z</time>
      </trkpt>
      <trkpt lat="45.91288" lon="6.35808">
        <ele>992</ele>
        <time>2026-08-19T11:44:37.344Z</time>
      </trkpt>
      <trkpt lat="45.91288" lon="6.35806">
        <ele>992</ele>
        <time>2026-08-19T11:44:38.344Z</time>
      </trkpt>
      <trkpt lat="45.91288" lon="6.35805">
        <ele>992</ele>
        <time>2026-08-19T11:44:39.344Z</time>
      </trkpt>
      <trkpt lat="45.91288" lon="6.35803">
        <ele>992</ele>
        <time>2026-08-19T11:44:40.344Z</time>
      </trkpt>
      <trkpt lat="45.91288" lon="6.35801">
        <ele>993</ele>
        <time>2026-08-19T11:44:41.344Z</time>
      </trkpt>
      <trkpt lat="45.91288" lon="6.358">
        <ele>992</ele>
        <time>2026-08-19T11:44:42.344Z</time>
      </trkpt>
      <trkpt lat="45.91289" lon="6.35798">
        <ele>992</ele>
        <time>2026-08-19T11:44:43.344Z</time>
      </trkpt>
      <trkpt lat="45.91289" lon="6.35797">
        <ele>992</ele>
        <time>2026-08-19T11:44:44.344Z</time>
      </trkpt>
      <trkpt lat="45.91288" lon="6.35796">
        <ele>992</ele>
        <time>2026-08-19T11:44:45.344Z</time>
      </trkpt>
      <trkpt lat="45.91288" lon="6.35795">
        <ele>992</ele>
        <time>2026-08-19T11:44:46.344Z</time>
      </trkpt>
      <trkpt lat="45.91288" lon="6.35793">
        <ele>992</ele>
        <time>2026-08-19T11:44:47.344Z</time>
      </trkpt>
      <trkpt lat="45.91288" lon="6.35792">
        <ele>992</ele>
        <time>2026-08-19T11:44:48.344Z</time>
      </trkpt>
      <trkpt lat="45.91288" lon="6.35791">
        <ele>992</ele>
        <time>2026-08-19T11:44:49.344Z</time>
      </trkpt>
      <trkpt lat="45.91288" lon="6.35789">
        <ele>993</ele>
        <time>2026-08-19T11:44:50.344Z</time>
      </trkpt>
      <trkpt lat="45.91288" lon="6.35787">
        <ele>994</ele>
        <time>2026-08-19T11:44:51.344Z</time>
      </trkpt>
      <trkpt lat="45.91287" lon="6.35786">
        <ele>995</ele>
        <time>2026-08-19T11:44:52.344Z</time>
      </trkpt>
      <trkpt lat="45.91287" lon="6.35784">
        <ele>995</ele>
        <time>2026-08-19T11:44:53.344Z</time>
      </trkpt>
      <trkpt lat="45.91287" lon="6.35782">
        <ele>996</ele>
        <time>2026-08-19T11:44:54.344Z</time>
      </trkpt>
      <trkpt lat="45.91287" lon="6.35781">
        <ele>997</ele>
        <time>2026-08-19T11:44:55.344Z</time>
      </trkpt>
      <trkpt lat="45.91286" lon="6.35779">
        <ele>997</ele>
        <time>2026-08-19T11:44:56.344Z</time>
      </trkpt>
      <trkpt lat="45.91286" lon="6.35778">
        <ele>997</ele>
        <time>2026-08-19T11:44:57.344Z</time>
      </trkpt>
      <trkpt lat="45.91286" lon="6.35776">
        <ele>998</ele>
        <time>2026-08-19T11:44:58.344Z</time>
      </trkpt>
      <trkpt lat="45.91285" lon="6.35775">
        <ele>998</ele>
        <time>2026-08-19T11:44:59.344Z</time>
      </trkpt>
      <trkpt lat="45.91285" lon="6.35773">
        <ele>998</ele>
        <time>2026-08-19T11:45:00.344Z</time>
      </trkpt>
      <trkpt lat="45.91285" lon="6.35772">
        <ele>998</ele>
        <time>2026-08-19T11:45:01.344Z</time>
      </trkpt>
      <trkpt lat="45.91285" lon="6.3577">
        <ele>998</ele>
        <time>2026-08-19T11:45:02.344Z</time>
      </trkpt>
      <trkpt lat="45.91284" lon="6.35769">
        <ele>998</ele>
        <time>2026-08-19T11:45:03.344Z</time>
      </trkpt>
      <trkpt lat="45.91284" lon="6.35767">
        <ele>998</ele>
        <time>2026-08-19T11:45:04.344Z</time>
      </trkpt>
      <trkpt lat="45.91284" lon="6.35765">
        <ele>998</ele>
        <time>2026-08-19T11:45:05.345Z</time>
      </trkpt>
      <trkpt lat="45.91283" lon="6.35763">
        <ele>998</ele>
        <time>2026-08-19T11:45:06.344Z</time>
      </trkpt>
      <trkpt lat="45.91283" lon="6.35761">
        <ele>998</ele>
        <time>2026-08-19T11:45:07.344Z</time>
      </trkpt>
      <trkpt lat="45.91283" lon="6.35759">
        <ele>999</ele>
        <time>2026-08-19T11:45:08.344Z</time>
      </trkpt>
      <trkpt lat="45.91283" lon="6.35757">
        <ele>999</ele>
        <time>2026-08-19T11:45:09.344Z</time>
      </trkpt>
      <trkpt lat="45.91283" lon="6.35755">
        <ele>999</ele>
        <time>2026-08-19T11:45:10.344Z</time>
      </trkpt>
      <trkpt lat="45.91283" lon="6.35753">
        <ele>999</ele>
        <time>2026-08-19T11:45:11.344Z</time>
      </trkpt>
      <trkpt lat="45.91283" lon="6.35751">
        <ele>999</ele>
        <time>2026-08-19T11:45:12.344Z</time>
      </trkpt>
      <trkpt lat="45.91283" lon="6.3575">
        <ele>1000</ele>
        <time>2026-08-19T11:45:13.344Z</time>
      </trkpt>
      <trkpt lat="45.91283" lon="6.35748">
        <ele>1000</ele>
        <time>2026-08-19T11:45:14.344Z</time>
      </trkpt>
      <trkpt lat="45.91283" lon="6.35747">
        <ele>1000</ele>
        <time>2026-08-19T11:45:15.344Z</time>
      </trkpt>
      <trkpt lat="45.91283" lon="6.35745">
        <ele>1000</ele>
        <time>2026-08-19T11:45:16.344Z</time>
      </trkpt>
      <trkpt lat="45.91283" lon="6.35744">
        <ele>1000</ele>
        <time>2026-08-19T11:45:17.344Z</time>
      </trkpt>
      <trkpt lat="45.91283" lon="6.35742">
        <ele>1000</ele>
        <time>2026-08-19T11:45:18.344Z</time>
      </trkpt>
      <trkpt lat="45.91283" lon="6.35741">
        <ele>1000</ele>
        <time>2026-08-19T11:45:19.344Z</time>
      </trkpt>
      <trkpt lat="45.91283" lon="6.3574">
        <ele>1001</ele>
        <time>2026-08-19T11:45:20.344Z</time>
      </trkpt>
      <trkpt lat="45.91282" lon="6.35738">
        <ele>1001</ele>
        <time>2026-08-19T11:45:21.344Z</time>
      </trkpt>
      <trkpt lat="45.91282" lon="6.35737">
        <ele>1001</ele>
        <time>2026-08-19T11:45:22.344Z</time>
      </trkpt>
      <trkpt lat="45.91282" lon="6.35736">
        <ele>1001</ele>
        <time>2026-08-19T11:45:23.344Z</time>
      </trkpt>
      <trkpt lat="45.91282" lon="6.35734">
        <ele>1000</ele>
        <time>2026-08-19T11:45:24.344Z</time>
      </trkpt>
      <trkpt lat="45.91282" lon="6.35733">
        <ele>1000</ele>
        <time>2026-08-19T11:45:25.344Z</time>
      </trkpt>
      <trkpt lat="45.91282" lon="6.35731">
        <ele>1000</ele>
        <time>2026-08-19T11:45:26.344Z</time>
      </trkpt>
      <trkpt lat="45.91282" lon="6.3573">
        <ele>1000</ele>
        <time>2026-08-19T11:45:27.344Z</time>
      </trkpt>
      <trkpt lat="45.91282" lon="6.35728">
        <ele>1000</ele>
        <time>2026-08-19T11:45:28.344Z</time>
      </trkpt>
      <trkpt lat="45.91282" lon="6.35727">
        <ele>1000</ele>
        <time>2026-08-19T11:45:29.344Z</time>
      </trkpt>
      <trkpt lat="45.91281" lon="6.35725">
        <ele>1000</ele>
        <time>2026-08-19T11:45:30.344Z</time>
      </trkpt>
      <trkpt lat="45.91281" lon="6.35724">
        <ele>1000</ele>
        <time>2026-08-19T11:45:31.344Z</time>
      </trkpt>
      <trkpt lat="45.91282" lon="6.35722">
        <ele>1001</ele>
        <time>2026-08-19T11:45:32.344Z</time>
      </trkpt>
      <trkpt lat="45.91282" lon="6.35721">
        <ele>1001</ele>
        <time>2026-08-19T11:45:33.344Z</time>
      </trkpt>
      <trkpt lat="45.91281" lon="6.35719">
        <ele>1001</ele>
        <time>2026-08-19T11:45:34.344Z</time>
      </trkpt>
      <trkpt lat="45.91281" lon="6.35718">
        <ele>1001</ele>
        <time>2026-08-19T11:45:35.344Z</time>
      </trkpt>
      <trkpt lat="45.91282" lon="6.35716">
        <ele>1002</ele>
        <time>2026-08-19T11:45:36.344Z</time>
      </trkpt>
      <trkpt lat="45.91282" lon="6.35715">
        <ele>1002</ele>
        <time>2026-08-19T11:45:37.344Z</time>
      </trkpt>
      <trkpt lat="45.91282" lon="6.35713">
        <ele>1002</ele>
        <time>2026-08-19T11:45:38.344Z</time>
      </trkpt>
      <trkpt lat="45.91282" lon="6.35712">
        <ele>1002</ele>
        <time>2026-08-19T11:45:39.344Z</time>
      </trkpt>
      <trkpt lat="45.91282" lon="6.35711">
        <ele>1002</ele>
        <time>2026-08-19T11:45:40.344Z</time>
      </trkpt>
      <trkpt lat="45.91283" lon="6.35709">
        <ele>1003</ele>
        <time>2026-08-19T11:45:41.344Z</time>
      </trkpt>
      <trkpt lat="45.91283" lon="6.35707">
        <ele>1003</ele>
        <time>2026-08-19T11:45:42.344Z</time>
      </trkpt>
      <trkpt lat="45.91282" lon="6.35706">
        <ele>1003</ele>
        <time>2026-08-19T11:45:43.344Z</time>
      </trkpt>
      <trkpt lat="45.91282" lon="6.35704">
        <ele>1004</ele>
        <time>2026-08-19T11:45:44.344Z</time>
      </trkpt>
      <trkpt lat="45.91282" lon="6.35703">
        <ele>1005</ele>
        <time>2026-08-19T11:45:45.344Z</time>
      </trkpt>
      <trkpt lat="45.91282" lon="6.35701">
        <ele>1005</ele>
        <time>2026-08-19T11:45:46.344Z</time>
      </trkpt>
      <trkpt lat="45.91282" lon="6.35699">
        <ele>1005</ele>
        <time>2026-08-19T11:45:47.344Z</time>
      </trkpt>
      <trkpt lat="45.91281" lon="6.35698">
        <ele>1006</ele>
        <time>2026-08-19T11:45:48.344Z</time>
      </trkpt>
      <trkpt lat="45.91281" lon="6.35697">
        <ele>1006</ele>
        <time>2026-08-19T11:45:49.344Z</time>
      </trkpt>
      <trkpt lat="45.91281" lon="6.35695">
        <ele>1007</ele>
        <time>2026-08-19T11:45:50.344Z</time>
      </trkpt>
      <trkpt lat="45.9128" lon="6.35692">
        <ele>1008</ele>
        <time>2026-08-19T11:45:51.344Z</time>
      </trkpt>
      <trkpt lat="45.9128" lon="6.3569">
        <ele>1008</ele>
        <time>2026-08-19T11:45:52.344Z</time>
      </trkpt>
      <trkpt lat="45.9128" lon="6.35689">
        <ele>1009</ele>
        <time>2026-08-19T11:45:53.344Z</time>
      </trkpt>
      <trkpt lat="45.9128" lon="6.35687">
        <ele>1009</ele>
        <time>2026-08-19T11:45:54.344Z</time>
      </trkpt>
      <trkpt lat="45.91281" lon="6.35686">
        <ele>1009</ele>
        <time>2026-08-19T11:45:55.344Z</time>
      </trkpt>
      <trkpt lat="45.91281" lon="6.35684">
        <ele>1010</ele>
        <time>2026-08-19T11:45:56.344Z</time>
      </trkpt>
      <trkpt lat="45.9128" lon="6.35682">
        <ele>1010</ele>
        <time>2026-08-19T11:45:57.344Z</time>
      </trkpt>
      <trkpt lat="45.9128" lon="6.35681">
        <ele>1010</ele>
        <time>2026-08-19T11:45:58.344Z</time>
      </trkpt>
      <trkpt lat="45.91281" lon="6.35679">
        <ele>1010</ele>
        <time>2026-08-19T11:45:59.344Z</time>
      </trkpt>
      <trkpt lat="45.91281" lon="6.35678">
        <ele>1010</ele>
        <time>2026-08-19T11:46:00.344Z</time>
      </trkpt>
      <trkpt lat="45.91281" lon="6.35677">
        <ele>1009</ele>
        <time>2026-08-19T11:46:01.344Z</time>
      </trkpt>
      <trkpt lat="45.91281" lon="6.35676">
        <ele>1009</ele>
        <time>2026-08-19T11:46:02.344Z</time>
      </trkpt>
      <trkpt lat="45.91281" lon="6.35675">
        <ele>1009</ele>
        <time>2026-08-19T11:46:03.344Z</time>
      </trkpt>
      <trkpt lat="45.91281" lon="6.35674">
        <ele>1009</ele>
        <time>2026-08-19T11:46:04.344Z</time>
      </trkpt>
      <trkpt lat="45.91281" lon="6.35673">
        <ele>1010</ele>
        <time>2026-08-19T11:46:05.344Z</time>
      </trkpt>
      <trkpt lat="45.91281" lon="6.35672">
        <ele>1010</ele>
        <time>2026-08-19T11:46:06.344Z</time>
      </trkpt>
      <trkpt lat="45.91281" lon="6.3567">
        <ele>1010</ele>
        <time>2026-08-19T11:46:07.344Z</time>
      </trkpt>
      <trkpt lat="45.91281" lon="6.35669">
        <ele>1009</ele>
        <time>2026-08-19T11:46:08.344Z</time>
      </trkpt>
      <trkpt lat="45.91281" lon="6.35667">
        <ele>1009</ele>
        <time>2026-08-19T11:46:09.344Z</time>
      </trkpt>
      <trkpt lat="45.91281" lon="6.35666">
        <ele>1009</ele>
        <time>2026-08-19T11:46:10.344Z</time>
      </trkpt>
      <trkpt lat="45.91281" lon="6.35664">
        <ele>1009</ele>
        <time>2026-08-19T11:46:11.344Z</time>
      </trkpt>
      <trkpt lat="45.91281" lon="6.35662">
        <ele>1010</ele>
        <time>2026-08-19T11:46:12.344Z</time>
      </trkpt>
      <trkpt lat="45.91281" lon="6.3566">
        <ele>1010</ele>
        <time>2026-08-19T11:46:13.344Z</time>
      </trkpt>
      <trkpt lat="45.91281" lon="6.35659">
        <ele>1010</ele>
        <time>2026-08-19T11:46:14.344Z</time>
      </trkpt>
      <trkpt lat="45.91281" lon="6.35657">
        <ele>1010</ele>
        <time>2026-08-19T11:46:15.344Z</time>
      </trkpt>
      <trkpt lat="45.9128" lon="6.35655">
        <ele>1011</ele>
        <time>2026-08-19T11:46:16.344Z</time>
      </trkpt>
      <trkpt lat="45.9128" lon="6.35653">
        <ele>1011</ele>
        <time>2026-08-19T11:46:17.344Z</time>
      </trkpt>
      <trkpt lat="45.9128" lon="6.35651">
        <ele>1012</ele>
        <time>2026-08-19T11:46:18.344Z</time>
      </trkpt>
      <trkpt lat="45.9128" lon="6.3565">
        <ele>1012</ele>
        <time>2026-08-19T11:46:19.344Z</time>
      </trkpt>
      <trkpt lat="45.9128" lon="6.35649">
        <ele>1012</ele>
        <time>2026-08-19T11:46:20.344Z</time>
      </trkpt>
      <trkpt lat="45.9128" lon="6.35647">
        <ele>1012</ele>
        <time>2026-08-19T11:46:21.344Z</time>
      </trkpt>
      <trkpt lat="45.9128" lon="6.35645">
        <ele>1012</ele>
        <time>2026-08-19T11:46:22.344Z</time>
      </trkpt>
      <trkpt lat="45.9128" lon="6.35644">
        <ele>1012</ele>
        <time>2026-08-19T11:46:23.344Z</time>
      </trkpt>
      <trkpt lat="45.9128" lon="6.35642">
        <ele>1012</ele>
        <time>2026-08-19T11:46:24.344Z</time>
      </trkpt>
      <trkpt lat="45.9128" lon="6.3564">
        <ele>1012</ele>
        <time>2026-08-19T11:46:25.344Z</time>
      </trkpt>
      <trkpt lat="45.9128" lon="6.35639">
        <ele>1012</ele>
        <time>2026-08-19T11:46:26.344Z</time>
      </trkpt>
      <trkpt lat="45.91279" lon="6.35637">
        <ele>1013</ele>
        <time>2026-08-19T11:46:27.344Z</time>
      </trkpt>
      <trkpt lat="45.91279" lon="6.35635">
        <ele>1013</ele>
        <time>2026-08-19T11:46:28.344Z</time>
      </trkpt>
      <trkpt lat="45.91279" lon="6.35633">
        <ele>1013</ele>
        <time>2026-08-19T11:46:29.344Z</time>
      </trkpt>
      <trkpt lat="45.91279" lon="6.35632">
        <ele>1013</ele>
        <time>2026-08-19T11:46:30.344Z</time>
      </trkpt>
      <trkpt lat="45.91279" lon="6.3563">
        <ele>1013</ele>
        <time>2026-08-19T11:46:31.344Z</time>
      </trkpt>
      <trkpt lat="45.91279" lon="6.35628">
        <ele>1013</ele>
        <time>2026-08-19T11:46:32.344Z</time>
      </trkpt>
      <trkpt lat="45.91279" lon="6.35626">
        <ele>1013</ele>
        <time>2026-08-19T11:46:33.344Z</time>
      </trkpt>
      <trkpt lat="45.9128" lon="6.35625">
        <ele>1013</ele>
        <time>2026-08-19T11:46:34.344Z</time>
      </trkpt>
      <trkpt lat="45.9128" lon="6.35623">
        <ele>1012</ele>
        <time>2026-08-19T11:46:35.344Z</time>
      </trkpt>
      <trkpt lat="45.9128" lon="6.3562">
        <ele>1013</ele>
        <time>2026-08-19T11:46:36.344Z</time>
      </trkpt>
      <trkpt lat="45.9128" lon="6.35617">
        <ele>1013</ele>
        <time>2026-08-19T11:46:37.344Z</time>
      </trkpt>
      <trkpt lat="45.9128" lon="6.35615">
        <ele>1013</ele>
        <time>2026-08-19T11:46:38.344Z</time>
      </trkpt>
      <trkpt lat="45.91279" lon="6.35612">
        <ele>1014</ele>
        <time>2026-08-19T11:46:39.344Z</time>
      </trkpt>
      <trkpt lat="45.91279" lon="6.3561">
        <ele>1014</ele>
        <time>2026-08-19T11:46:40.344Z</time>
      </trkpt>
      <trkpt lat="45.91278" lon="6.35607">
        <ele>1014</ele>
        <time>2026-08-19T11:46:41.344Z</time>
      </trkpt>
      <trkpt lat="45.91277" lon="6.35605">
        <ele>1015</ele>
        <time>2026-08-19T11:46:42.344Z</time>
      </trkpt>
      <trkpt lat="45.91276" lon="6.35603">
        <ele>1015</ele>
        <time>2026-08-19T11:46:43.344Z</time>
      </trkpt>
      <trkpt lat="45.91275" lon="6.35602">
        <ele>1015</ele>
        <time>2026-08-19T11:46:44.344Z</time>
      </trkpt>
      <trkpt lat="45.91275" lon="6.35601">
        <ele>1015</ele>
        <time>2026-08-19T11:46:45.344Z</time>
      </trkpt>
      <trkpt lat="45.91274" lon="6.356">
        <ele>1015</ele>
        <time>2026-08-19T11:46:46.344Z</time>
      </trkpt>
      <trkpt lat="45.91274" lon="6.35598">
        <ele>1015</ele>
        <time>2026-08-19T11:46:47.344Z</time>
      </trkpt>
      <trkpt lat="45.91274" lon="6.35597">
        <ele>1015</ele>
        <time>2026-08-19T11:46:48.344Z</time>
      </trkpt>
      <trkpt lat="45.91273" lon="6.35596">
        <ele>1014</ele>
        <time>2026-08-19T11:46:49.344Z</time>
      </trkpt>
      <trkpt lat="45.91273" lon="6.35596">
        <ele>1014</ele>
        <time>2026-08-19T11:46:50.344Z</time>
      </trkpt>
      <trkpt lat="45.91273" lon="6.35595">
        <ele>1014</ele>
        <time>2026-08-19T11:46:51.344Z</time>
      </trkpt>
      <trkpt lat="45.91273" lon="6.35595">
        <ele>1015</ele>
        <time>2026-08-19T11:46:52.344Z</time>
      </trkpt>
      <trkpt lat="45.91273" lon="6.35594">
        <ele>1015</ele>
        <time>2026-08-19T11:46:53.344Z</time>
      </trkpt>
      <trkpt lat="45.91273" lon="6.35594">
        <ele>1015</ele>
        <time>2026-08-19T11:46:54.344Z</time>
      </trkpt>
      <trkpt lat="45.91272" lon="6.35594">
        <ele>1015</ele>
        <time>2026-08-19T11:46:55.344Z</time>
      </trkpt>
      <trkpt lat="45.91272" lon="6.35594">
        <ele>1015</ele>
        <time>2026-08-19T11:46:56.344Z</time>
      </trkpt>
      <trkpt lat="45.91272" lon="6.35593">
        <ele>1014</ele>
        <time>2026-08-19T11:46:57.344Z</time>
      </trkpt>
      <trkpt lat="45.91272" lon="6.35593">
        <ele>1015</ele>
        <time>2026-08-19T11:46:58.344Z</time>
      </trkpt>
      <trkpt lat="45.91272" lon="6.35593">
        <ele>1014</ele>
        <time>2026-08-19T11:46:59.344Z</time>
      </trkpt>
      <trkpt lat="45.91273" lon="6.35593">
        <ele>1014</ele>
        <time>2026-08-19T11:47:00.344Z</time>
      </trkpt>
      <trkpt lat="45.91272" lon="6.35593">
        <ele>1014</ele>
        <time>2026-08-19T11:47:01.344Z</time>
      </trkpt>
      <trkpt lat="45.91272" lon="6.35592">
        <ele>1014</ele>
        <time>2026-08-19T11:47:02.344Z</time>
      </trkpt>
      <trkpt lat="45.91272" lon="6.35592">
        <ele>1014</ele>
        <time>2026-08-19T11:47:03.344Z</time>
      </trkpt>
      <trkpt lat="45.91272" lon="6.35592">
        <ele>1014</ele>
        <time>2026-08-19T11:47:04.345Z</time>
      </trkpt>
      <trkpt lat="45.91271" lon="6.35591">
        <ele>1013</ele>
        <time>2026-08-19T11:47:05.344Z</time>
      </trkpt>
      <trkpt lat="45.91271" lon="6.3559">
        <ele>1013</ele>
        <time>2026-08-19T11:47:06.344Z</time>
      </trkpt>
      <trkpt lat="45.91271" lon="6.35589">
        <ele>1013</ele>
        <time>2026-08-19T11:47:07.344Z</time>
      </trkpt>
      <trkpt lat="45.9127" lon="6.35587">
        <ele>1013</ele>
        <time>2026-08-19T11:47:08.344Z</time>
      </trkpt>
      <trkpt lat="45.91269" lon="6.35586">
        <ele>1013</ele>
        <time>2026-08-19T11:47:09.344Z</time>
      </trkpt>
      <trkpt lat="45.91269" lon="6.35584">
        <ele>1013</ele>
        <time>2026-08-19T11:47:10.345Z</time>
      </trkpt>
      <trkpt lat="45.91268" lon="6.35583">
        <ele>1013</ele>
        <time>2026-08-19T11:47:11.344Z</time>
      </trkpt>
      <trkpt lat="45.91268" lon="6.35581">
        <ele>1014</ele>
        <time>2026-08-19T11:47:12.344Z</time>
      </trkpt>
      <trkpt lat="45.91267" lon="6.35579">
        <ele>1014</ele>
        <time>2026-08-19T11:47:13.344Z</time>
      </trkpt>
      <trkpt lat="45.91267" lon="6.35578">
        <ele>1014</ele>
        <time>2026-08-19T11:47:14.344Z</time>
      </trkpt>
      <trkpt lat="45.91267" lon="6.35576">
        <ele>1014</ele>
        <time>2026-08-19T11:47:15.344Z</time>
      </trkpt>
      <trkpt lat="45.91266" lon="6.35574">
        <ele>1014</ele>
        <time>2026-08-19T11:47:16.344Z</time>
      </trkpt>
      <trkpt lat="45.91266" lon="6.35573">
        <ele>1014</ele>
        <time>2026-08-19T11:47:17.344Z</time>
      </trkpt>
      <trkpt lat="45.91266" lon="6.35571">
        <ele>1014</ele>
        <time>2026-08-19T11:47:18.344Z</time>
      </trkpt>
      <trkpt lat="45.91266" lon="6.3557">
        <ele>1014</ele>
        <time>2026-08-19T11:47:19.344Z</time>
      </trkpt>
      <trkpt lat="45.91266" lon="6.35569">
        <ele>1015</ele>
        <time>2026-08-19T11:47:20.344Z</time>
      </trkpt>
      <trkpt lat="45.91266" lon="6.35567">
        <ele>1015</ele>
        <time>2026-08-19T11:47:21.344Z</time>
      </trkpt>
      <trkpt lat="45.91266" lon="6.35566">
        <ele>1015</ele>
        <time>2026-08-19T11:47:22.344Z</time>
      </trkpt>
      <trkpt lat="45.91265" lon="6.35564">
        <ele>1015</ele>
        <time>2026-08-19T11:47:23.344Z</time>
      </trkpt>
      <trkpt lat="45.91265" lon="6.35562">
        <ele>1015</ele>
        <time>2026-08-19T11:47:24.344Z</time>
      </trkpt>
      <trkpt lat="45.91265" lon="6.35561">
        <ele>1015</ele>
        <time>2026-08-19T11:47:25.344Z</time>
      </trkpt>
      <trkpt lat="45.91265" lon="6.35559">
        <ele>1015</ele>
        <time>2026-08-19T11:47:26.344Z</time>
      </trkpt>
      <trkpt lat="45.91265" lon="6.35557">
        <ele>1015</ele>
        <time>2026-08-19T11:47:27.344Z</time>
      </trkpt>
      <trkpt lat="45.91264" lon="6.35556">
        <ele>1015</ele>
        <time>2026-08-19T11:47:28.344Z</time>
      </trkpt>
      <trkpt lat="45.91264" lon="6.35554">
        <ele>1015</ele>
        <time>2026-08-19T11:47:29.344Z</time>
      </trkpt>
      <trkpt lat="45.91264" lon="6.35552">
        <ele>1016</ele>
        <time>2026-08-19T11:47:30.344Z</time>
      </trkpt>
      <trkpt lat="45.91264" lon="6.3555">
        <ele>1016</ele>
        <time>2026-08-19T11:47:31.344Z</time>
      </trkpt>
      <trkpt lat="45.91263" lon="6.35548">
        <ele>1016</ele>
        <time>2026-08-19T11:47:32.344Z</time>
      </trkpt>
      <trkpt lat="45.91263" lon="6.35546">
        <ele>1016</ele>
        <time>2026-08-19T11:47:33.344Z</time>
      </trkpt>
      <trkpt lat="45.91263" lon="6.35544">
        <ele>1017</ele>
        <time>2026-08-19T11:47:34.344Z</time>
      </trkpt>
      <trkpt lat="45.91262" lon="6.35543">
        <ele>1017</ele>
        <time>2026-08-19T11:47:35.344Z</time>
      </trkpt>
      <trkpt lat="45.91262" lon="6.35541">
        <ele>1018</ele>
        <time>2026-08-19T11:47:36.344Z</time>
      </trkpt>
      <trkpt lat="45.91261" lon="6.35539">
        <ele>1018</ele>
        <time>2026-08-19T11:47:37.344Z</time>
      </trkpt>
      <trkpt lat="45.91261" lon="6.35537">
        <ele>1018</ele>
        <time>2026-08-19T11:47:38.344Z</time>
      </trkpt>
      <trkpt lat="45.91261" lon="6.35536">
        <ele>1019</ele>
        <time>2026-08-19T11:47:39.344Z</time>
      </trkpt>
      <trkpt lat="45.91261" lon="6.35535">
        <ele>1019</ele>
        <time>2026-08-19T11:47:40.344Z</time>
      </trkpt>
      <trkpt lat="45.91261" lon="6.35536">
        <ele>1019</ele>
        <time>2026-08-19T11:47:41.344Z</time>
      </trkpt>
      <trkpt lat="45.91261" lon="6.35537">
        <ele>1019</ele>
        <time>2026-08-19T11:47:42.344Z</time>
      </trkpt>
      <trkpt lat="45.91261" lon="6.35539">
        <ele>1019</ele>
        <time>2026-08-19T11:47:43.344Z</time>
      </trkpt>
      <trkpt lat="45.91261" lon="6.3554">
        <ele>1018</ele>
        <time>2026-08-19T11:47:44.344Z</time>
      </trkpt>
      <trkpt lat="45.91262" lon="6.35541">
        <ele>1018</ele>
        <time>2026-08-19T11:47:45.344Z</time>
      </trkpt>
      <trkpt lat="45.91263" lon="6.35543">
        <ele>1017</ele>
        <time>2026-08-19T11:47:46.344Z</time>
      </trkpt>
      <trkpt lat="45.91263" lon="6.35544">
        <ele>1017</ele>
        <time>2026-08-19T11:47:47.344Z</time>
      </trkpt>
      <trkpt lat="45.91264" lon="6.35546">
        <ele>1017</ele>
        <time>2026-08-19T11:47:48.344Z</time>
      </trkpt>
      <trkpt lat="45.91265" lon="6.35548">
        <ele>1017</ele>
        <time>2026-08-19T11:47:49.344Z</time>
      </trkpt>
      <trkpt lat="45.91265" lon="6.3555">
        <ele>1017</ele>
        <time>2026-08-19T11:47:50.344Z</time>
      </trkpt>
      <trkpt lat="45.91266" lon="6.35551">
        <ele>1017</ele>
        <time>2026-08-19T11:47:51.344Z</time>
      </trkpt>
      <trkpt lat="45.91267" lon="6.35552">
        <ele>1017</ele>
        <time>2026-08-19T11:47:52.344Z</time>
      </trkpt>
      <trkpt lat="45.91268" lon="6.35553">
        <ele>1017</ele>
        <time>2026-08-19T11:47:53.344Z</time>
      </trkpt>
      <trkpt lat="45.91268" lon="6.35554">
        <ele>1017</ele>
        <time>2026-08-19T11:47:54.344Z</time>
      </trkpt>
      <trkpt lat="45.91269" lon="6.35554">
        <ele>1017</ele>
        <time>2026-08-19T11:47:55.344Z</time>
      </trkpt>
      <trkpt lat="45.91269" lon="6.35555">
        <ele>1017</ele>
        <time>2026-08-19T11:47:56.344Z</time>
      </trkpt>
      <trkpt lat="45.9127" lon="6.35555">
        <ele>1016</ele>
        <time>2026-08-19T11:47:57.344Z</time>
      </trkpt>
      <trkpt lat="45.91271" lon="6.35555">
        <ele>1016</ele>
        <time>2026-08-19T11:47:58.344Z</time>
      </trkpt>
      <trkpt lat="45.91271" lon="6.35556">
        <ele>1016</ele>
        <time>2026-08-19T11:47:59.344Z</time>
      </trkpt>
      <trkpt lat="45.91272" lon="6.35556">
        <ele>1016</ele>
        <time>2026-08-19T11:48:00.344Z</time>
      </trkpt>
      <trkpt lat="45.91273" lon="6.35557">
        <ele>1016</ele>
        <time>2026-08-19T11:48:01.344Z</time>
      </trkpt>
      <trkpt lat="45.91274" lon="6.35558">
        <ele>1016</ele>
        <time>2026-08-19T11:48:02.344Z</time>
      </trkpt>
      <trkpt lat="45.91275" lon="6.35558">
        <ele>1016</ele>
        <time>2026-08-19T11:48:03.344Z</time>
      </trkpt>
      <trkpt lat="45.91276" lon="6.35559">
        <ele>1017</ele>
        <time>2026-08-19T11:48:04.344Z</time>
      </trkpt>
      <trkpt lat="45.91276" lon="6.35559">
        <ele>1017</ele>
        <time>2026-08-19T11:48:05.344Z</time>
      </trkpt>
      <trkpt lat="45.91277" lon="6.3556">
        <ele>1017</ele>
        <time>2026-08-19T11:48:06.344Z</time>
      </trkpt>
      <trkpt lat="45.91277" lon="6.3556">
        <ele>1018</ele>
        <time>2026-08-19T11:48:07.344Z</time>
      </trkpt>
      <trkpt lat="45.91278" lon="6.35561">
        <ele>1018</ele>
        <time>2026-08-19T11:48:08.344Z</time>
      </trkpt>
      <trkpt lat="45.91279" lon="6.35562">
        <ele>1018</ele>
        <time>2026-08-19T11:48:09.344Z</time>
      </trkpt>
      <trkpt lat="45.91279" lon="6.35563">
        <ele>1018</ele>
        <time>2026-08-19T11:48:10.344Z</time>
      </trkpt>
      <trkpt lat="45.9128" lon="6.35563">
        <ele>1018</ele>
        <time>2026-08-19T11:48:11.344Z</time>
      </trkpt>
      <trkpt lat="45.91281" lon="6.35564">
        <ele>1019</ele>
        <time>2026-08-19T11:48:12.344Z</time>
      </trkpt>
      <trkpt lat="45.91281" lon="6.35564">
        <ele>1019</ele>
        <time>2026-08-19T11:48:13.344Z</time>
      </trkpt>
      <trkpt lat="45.91282" lon="6.35565">
        <ele>1019</ele>
        <time>2026-08-19T11:48:14.344Z</time>
      </trkpt>
      <trkpt lat="45.91283" lon="6.35565">
        <ele>1019</ele>
        <time>2026-08-19T11:48:15.344Z</time>
      </trkpt>
      <trkpt lat="45.91283" lon="6.35564">
        <ele>1020</ele>
        <time>2026-08-19T11:48:16.344Z</time>
      </trkpt>
      <trkpt lat="45.91284" lon="6.35564">
        <ele>1020</ele>
        <time>2026-08-19T11:48:17.344Z</time>
      </trkpt>
      <trkpt lat="45.91284" lon="6.35563">
        <ele>1021</ele>
        <time>2026-08-19T11:48:18.344Z</time>
      </trkpt>
      <trkpt lat="45.91284" lon="6.35562">
        <ele>1021</ele>
        <time>2026-08-19T11:48:19.344Z</time>
      </trkpt>
      <trkpt lat="45.91285" lon="6.35561">
        <ele>1021</ele>
        <time>2026-08-19T11:48:20.344Z</time>
      </trkpt>
      <trkpt lat="45.91285" lon="6.35561">
        <ele>1022</ele>
        <time>2026-08-19T11:48:21.344Z</time>
      </trkpt>
      <trkpt lat="45.91285" lon="6.3556">
        <ele>1022</ele>
        <time>2026-08-19T11:48:22.344Z</time>
      </trkpt>
      <trkpt lat="45.91285" lon="6.35559">
        <ele>1023</ele>
        <time>2026-08-19T11:48:23.344Z</time>
      </trkpt>
      <trkpt lat="45.91285" lon="6.35559">
        <ele>1023</ele>
        <time>2026-08-19T11:48:24.344Z</time>
      </trkpt>
      <trkpt lat="45.91285" lon="6.35558">
        <ele>1023</ele>
        <time>2026-08-19T11:48:25.344Z</time>
      </trkpt>
      <trkpt lat="45.91285" lon="6.35558">
        <ele>1023</ele>
        <time>2026-08-19T11:48:26.344Z</time>
      </trkpt>
      <trkpt lat="45.91285" lon="6.35557">
        <ele>1023</ele>
        <time>2026-08-19T11:48:27.344Z</time>
      </trkpt>
      <trkpt lat="45.91286" lon="6.35556">
        <ele>1023</ele>
        <time>2026-08-19T11:48:28.344Z</time>
      </trkpt>
      <trkpt lat="45.91286" lon="6.35555">
        <ele>1024</ele>
        <time>2026-08-19T11:48:29.344Z</time>
      </trkpt>
      <trkpt lat="45.91286" lon="6.35553">
        <ele>1024</ele>
        <time>2026-08-19T11:48:30.344Z</time>
      </trkpt>
      <trkpt lat="45.91286" lon="6.35552">
        <ele>1024</ele>
        <time>2026-08-19T11:48:31.344Z</time>
      </trkpt>
      <trkpt lat="45.91287" lon="6.35551">
        <ele>1024</ele>
        <time>2026-08-19T11:48:32.344Z</time>
      </trkpt>
      <trkpt lat="45.91287" lon="6.35549">
        <ele>1024</ele>
        <time>2026-08-19T11:48:33.344Z</time>
      </trkpt>
      <trkpt lat="45.91287" lon="6.35548">
        <ele>1024</ele>
        <time>2026-08-19T11:48:34.344Z</time>
      </trkpt>
      <trkpt lat="45.91287" lon="6.35547">
        <ele>1024</ele>
        <time>2026-08-19T11:48:35.344Z</time>
      </trkpt>
      <trkpt lat="45.91288" lon="6.35546">
        <ele>1024</ele>
        <time>2026-08-19T11:48:36.344Z</time>
      </trkpt>
      <trkpt lat="45.91288" lon="6.35544">
        <ele>1024</ele>
        <time>2026-08-19T11:48:37.344Z</time>
      </trkpt>
      <trkpt lat="45.91288" lon="6.35543">
        <ele>1024</ele>
        <time>2026-08-19T11:48:38.344Z</time>
      </trkpt>
      <trkpt lat="45.91288" lon="6.35543">
        <ele>1024</ele>
        <time>2026-08-19T11:48:39.344Z</time>
      </trkpt>
      <trkpt lat="45.91288" lon="6.35542">
        <ele>1024</ele>
        <time>2026-08-19T11:48:40.344Z</time>
      </trkpt>
      <trkpt lat="45.91288" lon="6.35541">
        <ele>1024</ele>
        <time>2026-08-19T11:48:41.344Z</time>
      </trkpt>
      <trkpt lat="45.91288" lon="6.3554">
        <ele>1024</ele>
        <time>2026-08-19T11:48:42.344Z</time>
      </trkpt>
      <trkpt lat="45.91288" lon="6.35539">
        <ele>1025</ele>
        <time>2026-08-19T11:48:43.344Z</time>
      </trkpt>
      <trkpt lat="45.91288" lon="6.35539">
        <ele>1025</ele>
        <time>2026-08-19T11:48:44.344Z</time>
      </trkpt>
      <trkpt lat="45.91289" lon="6.35538">
        <ele>1026</ele>
        <time>2026-08-19T11:48:45.344Z</time>
      </trkpt>
      <trkpt lat="45.91289" lon="6.35537">
        <ele>1026</ele>
        <time>2026-08-19T11:48:46.344Z</time>
      </trkpt>
      <trkpt lat="45.91289" lon="6.35536">
        <ele>1027</ele>
        <time>2026-08-19T11:48:47.345Z</time>
      </trkpt>
      <trkpt lat="45.91289" lon="6.35536">
        <ele>1027</ele>
        <time>2026-08-19T11:48:48.344Z</time>
      </trkpt>
      <trkpt lat="45.91289" lon="6.35535">
        <ele>1028</ele>
        <time>2026-08-19T11:48:49.344Z</time>
      </trkpt>
      <trkpt lat="45.91289" lon="6.35534">
        <ele>1028</ele>
        <time>2026-08-19T11:48:50.344Z</time>
      </trkpt>
      <trkpt lat="45.91289" lon="6.35533">
        <ele>1028</ele>
        <time>2026-08-19T11:48:51.344Z</time>
      </trkpt>
      <trkpt lat="45.9129" lon="6.35533">
        <ele>1028</ele>
        <time>2026-08-19T11:48:52.344Z</time>
      </trkpt>
      <trkpt lat="45.9129" lon="6.35532">
        <ele>1028</ele>
        <time>2026-08-19T11:48:53.344Z</time>
      </trkpt>
      <trkpt lat="45.9129" lon="6.35531">
        <ele>1028</ele>
        <time>2026-08-19T11:48:54.344Z</time>
      </trkpt>
      <trkpt lat="45.9129" lon="6.3553">
        <ele>1028</ele>
        <time>2026-08-19T11:48:55.344Z</time>
      </trkpt>
      <trkpt lat="45.9129" lon="6.35529">
        <ele>1029</ele>
        <time>2026-08-19T11:48:56.344Z</time>
      </trkpt>
      <trkpt lat="45.9129" lon="6.35528">
        <ele>1029</ele>
        <time>2026-08-19T11:48:57.344Z</time>
      </trkpt>
      <trkpt lat="45.9129" lon="6.35527">
        <ele>1029</ele>
        <time>2026-08-19T11:48:58.344Z</time>
      </trkpt>
      <trkpt lat="45.9129" lon="6.35526">
        <ele>1029</ele>
        <time>2026-08-19T11:48:59.344Z</time>
      </trkpt>
      <trkpt lat="45.9129" lon="6.35526">
        <ele>1029</ele>
        <time>2026-08-19T11:49:00.344Z</time>
      </trkpt>
      <trkpt lat="45.9129" lon="6.35525">
        <ele>1029</ele>
        <time>2026-08-19T11:49:01.344Z</time>
      </trkpt>
      <trkpt lat="45.9129" lon="6.35524">
        <ele>1029</ele>
        <time>2026-08-19T11:49:02.344Z</time>
      </trkpt>
      <trkpt lat="45.9129" lon="6.35522">
        <ele>1029</ele>
        <time>2026-08-19T11:49:03.344Z</time>
      </trkpt>
      <trkpt lat="45.91291" lon="6.35522">
        <ele>1030</ele>
        <time>2026-08-19T11:49:04.345Z</time>
      </trkpt>
      <trkpt lat="45.91291" lon="6.35521">
        <ele>1030</ele>
        <time>2026-08-19T11:49:05.344Z</time>
      </trkpt>
      <trkpt lat="45.91291" lon="6.35519">
        <ele>1030</ele>
        <time>2026-08-19T11:49:06.344Z</time>
      </trkpt>
      <trkpt lat="45.91292" lon="6.35518">
        <ele>1030</ele>
        <time>2026-08-19T11:49:07.344Z</time>
      </trkpt>
      <trkpt lat="45.91292" lon="6.35517">
        <ele>1030</ele>
        <time>2026-08-19T11:49:08.344Z</time>
      </trkpt>
      <trkpt lat="45.91292" lon="6.35516">
        <ele>1030</ele>
        <time>2026-08-19T11:49:09.344Z</time>
      </trkpt>
      <trkpt lat="45.91292" lon="6.35515">
        <ele>1031</ele>
        <time>2026-08-19T11:49:10.344Z</time>
      </trkpt>
      <trkpt lat="45.91292" lon="6.35513">
        <ele>1031</ele>
        <time>2026-08-19T11:49:11.344Z</time>
      </trkpt>
      <trkpt lat="45.91292" lon="6.35512">
        <ele>1031</ele>
        <time>2026-08-19T11:49:12.344Z</time>
      </trkpt>
      <trkpt lat="45.91292" lon="6.35511">
        <ele>1032</ele>
        <time>2026-08-19T11:49:13.344Z</time>
      </trkpt>
      <trkpt lat="45.91292" lon="6.3551">
        <ele>1032</ele>
        <time>2026-08-19T11:49:14.344Z</time>
      </trkpt>
      <trkpt lat="45.91292" lon="6.35509">
        <ele>1033</ele>
        <time>2026-08-19T11:49:15.344Z</time>
      </trkpt>
      <trkpt lat="45.91292" lon="6.35508">
        <ele>1034</ele>
        <time>2026-08-19T11:49:16.344Z</time>
      </trkpt>
      <trkpt lat="45.91292" lon="6.35507">
        <ele>1034</ele>
        <time>2026-08-19T11:49:17.344Z</time>
      </trkpt>
      <trkpt lat="45.91292" lon="6.35506">
        <ele>1034</ele>
        <time>2026-08-19T11:49:18.344Z</time>
      </trkpt>
      <trkpt lat="45.91292" lon="6.35505">
        <ele>1034</ele>
        <time>2026-08-19T11:49:19.344Z</time>
      </trkpt>
      <trkpt lat="45.91292" lon="6.35504">
        <ele>1034</ele>
        <time>2026-08-19T11:49:20.344Z</time>
      </trkpt>
      <trkpt lat="45.91292" lon="6.35503">
        <ele>1035</ele>
        <time>2026-08-19T11:49:21.344Z</time>
      </trkpt>
      <trkpt lat="45.91292" lon="6.35501">
        <ele>1035</ele>
        <time>2026-08-19T11:49:22.344Z</time>
      </trkpt>
      <trkpt lat="45.91292" lon="6.355">
        <ele>1036</ele>
        <time>2026-08-19T11:49:23.344Z</time>
      </trkpt>
      <trkpt lat="45.91292" lon="6.35499">
        <ele>1036</ele>
        <time>2026-08-19T11:49:24.344Z</time>
      </trkpt>
      <trkpt lat="45.91292" lon="6.35497">
        <ele>1036</ele>
        <time>2026-08-19T11:49:25.344Z</time>
      </trkpt>
      <trkpt lat="45.91292" lon="6.35496">
        <ele>1037</ele>
        <time>2026-08-19T11:49:26.344Z</time>
      </trkpt>
      <trkpt lat="45.91293" lon="6.35495">
        <ele>1037</ele>
        <time>2026-08-19T11:49:27.344Z</time>
      </trkpt>
      <trkpt lat="45.91293" lon="6.35494">
        <ele>1037</ele>
        <time>2026-08-19T11:49:28.344Z</time>
      </trkpt>
      <trkpt lat="45.91293" lon="6.35492">
        <ele>1037</ele>
        <time>2026-08-19T11:49:29.344Z</time>
      </trkpt>
      <trkpt lat="45.91293" lon="6.35491">
        <ele>1037</ele>
        <time>2026-08-19T11:49:30.344Z</time>
      </trkpt>
      <trkpt lat="45.91293" lon="6.3549">
        <ele>1037</ele>
        <time>2026-08-19T11:49:31.344Z</time>
      </trkpt>
      <trkpt lat="45.91293" lon="6.35489">
        <ele>1037</ele>
        <time>2026-08-19T11:49:32.344Z</time>
      </trkpt>
      <trkpt lat="45.91293" lon="6.35488">
        <ele>1037</ele>
        <time>2026-08-19T11:49:33.344Z</time>
      </trkpt>
      <trkpt lat="45.91293" lon="6.35487">
        <ele>1037</ele>
        <time>2026-08-19T11:49:34.344Z</time>
      </trkpt>
      <trkpt lat="45.91293" lon="6.35486">
        <ele>1038</ele>
        <time>2026-08-19T11:49:35.344Z</time>
      </trkpt>
      <trkpt lat="45.91293" lon="6.35485">
        <ele>1037</ele>
        <time>2026-08-19T11:49:36.344Z</time>
      </trkpt>
      <trkpt lat="45.91294" lon="6.35483">
        <ele>1037</ele>
        <time>2026-08-19T11:49:37.344Z</time>
      </trkpt>
      <trkpt lat="45.91294" lon="6.35482">
        <ele>1037</ele>
        <time>2026-08-19T11:49:38.344Z</time>
      </trkpt>
      <trkpt lat="45.91294" lon="6.35481">
        <ele>1037</ele>
        <time>2026-08-19T11:49:39.344Z</time>
      </trkpt>
      <trkpt lat="45.91295" lon="6.3548">
        <ele>1037</ele>
        <time>2026-08-19T11:49:40.344Z</time>
      </trkpt>
      <trkpt lat="45.91295" lon="6.35479">
        <ele>1038</ele>
        <time>2026-08-19T11:49:41.344Z</time>
      </trkpt>
      <trkpt lat="45.91295" lon="6.35478">
        <ele>1038</ele>
        <time>2026-08-19T11:49:42.344Z</time>
      </trkpt>
      <trkpt lat="45.91295" lon="6.35477">
        <ele>1038</ele>
        <time>2026-08-19T11:49:43.344Z</time>
      </trkpt>
      <trkpt lat="45.91295" lon="6.35476">
        <ele>1038</ele>
        <time>2026-08-19T11:49:44.344Z</time>
      </trkpt>
      <trkpt lat="45.91296" lon="6.35475">
        <ele>1039</ele>
        <time>2026-08-19T11:49:45.344Z</time>
      </trkpt>
      <trkpt lat="45.91296" lon="6.35474">
        <ele>1039</ele>
        <time>2026-08-19T11:49:46.344Z</time>
      </trkpt>
      <trkpt lat="45.91296" lon="6.35473">
        <ele>1040</ele>
        <time>2026-08-19T11:49:47.344Z</time>
      </trkpt>
      <trkpt lat="45.91296" lon="6.35472">
        <ele>1040</ele>
        <time>2026-08-19T11:49:48.344Z</time>
      </trkpt>
      <trkpt lat="45.91297" lon="6.3547">
        <ele>1040</ele>
        <time>2026-08-19T11:49:49.344Z</time>
      </trkpt>
      <trkpt lat="45.91297" lon="6.35469">
        <ele>1040</ele>
        <time>2026-08-19T11:49:50.344Z</time>
      </trkpt>
      <trkpt lat="45.91297" lon="6.35468">
        <ele>1041</ele>
        <time>2026-08-19T11:49:51.344Z</time>
      </trkpt>
      <trkpt lat="45.91298" lon="6.35467">
        <ele>1041</ele>
        <time>2026-08-19T11:49:52.344Z</time>
      </trkpt>
      <trkpt lat="45.91298" lon="6.35465">
        <ele>1041</ele>
        <time>2026-08-19T11:49:53.344Z</time>
      </trkpt>
      <trkpt lat="45.91298" lon="6.35464">
        <ele>1041</ele>
        <time>2026-08-19T11:49:54.344Z</time>
      </trkpt>
      <trkpt lat="45.91298" lon="6.35463">
        <ele>1041</ele>
        <time>2026-08-19T11:49:55.344Z</time>
      </trkpt>
      <trkpt lat="45.91299" lon="6.35461">
        <ele>1042</ele>
        <time>2026-08-19T11:49:56.344Z</time>
      </trkpt>
      <trkpt lat="45.91299" lon="6.3546">
        <ele>1042</ele>
        <time>2026-08-19T11:49:57.344Z</time>
      </trkpt>
      <trkpt lat="45.91299" lon="6.35458">
        <ele>1043</ele>
        <time>2026-08-19T11:49:58.344Z</time>
      </trkpt>
      <trkpt lat="45.91299" lon="6.35457">
        <ele>1044</ele>
        <time>2026-08-19T11:49:59.344Z</time>
      </trkpt>
      <trkpt lat="45.913" lon="6.35456">
        <ele>1044</ele>
        <time>2026-08-19T11:50:00.344Z</time>
      </trkpt>
      <trkpt lat="45.913" lon="6.35455">
        <ele>1045</ele>
        <time>2026-08-19T11:50:01.344Z</time>
      </trkpt>
      <trkpt lat="45.913" lon="6.35454">
        <ele>1045</ele>
        <time>2026-08-19T11:50:02.344Z</time>
      </trkpt>
      <trkpt lat="45.913" lon="6.35452">
        <ele>1045</ele>
        <time>2026-08-19T11:50:03.344Z</time>
      </trkpt>
      <trkpt lat="45.913" lon="6.35451">
        <ele>1045</ele>
        <time>2026-08-19T11:50:04.344Z</time>
      </trkpt>
      <trkpt lat="45.91301" lon="6.3545">
        <ele>1045</ele>
        <time>2026-08-19T11:50:05.344Z</time>
      </trkpt>
      <trkpt lat="45.91301" lon="6.35449">
        <ele>1045</ele>
        <time>2026-08-19T11:50:06.344Z</time>
      </trkpt>
      <trkpt lat="45.91301" lon="6.35449">
        <ele>1045</ele>
        <time>2026-08-19T11:50:07.344Z</time>
      </trkpt>
      <trkpt lat="45.91301" lon="6.35448">
        <ele>1045</ele>
        <time>2026-08-19T11:50:08.344Z</time>
      </trkpt>
      <trkpt lat="45.91301" lon="6.35446">
        <ele>1045</ele>
        <time>2026-08-19T11:50:09.344Z</time>
      </trkpt>
      <trkpt lat="45.91301" lon="6.35445">
        <ele>1045</ele>
        <time>2026-08-19T11:50:10.344Z</time>
      </trkpt>
      <trkpt lat="45.91301" lon="6.35444">
        <ele>1046</ele>
        <time>2026-08-19T11:50:11.344Z</time>
      </trkpt>
      <trkpt lat="45.91301" lon="6.35442">
        <ele>1046</ele>
        <time>2026-08-19T11:50:12.344Z</time>
      </trkpt>
      <trkpt lat="45.91302" lon="6.3544">
        <ele>1046</ele>
        <time>2026-08-19T11:50:13.344Z</time>
      </trkpt>
      <trkpt lat="45.91302" lon="6.35439">
        <ele>1047</ele>
        <time>2026-08-19T11:50:14.344Z</time>
      </trkpt>
      <trkpt lat="45.91302" lon="6.35437">
        <ele>1047</ele>
        <time>2026-08-19T11:50:15.344Z</time>
      </trkpt>
      <trkpt lat="45.91303" lon="6.35436">
        <ele>1047</ele>
        <time>2026-08-19T11:50:16.344Z</time>
      </trkpt>
      <trkpt lat="45.91303" lon="6.35436">
        <ele>1047</ele>
        <time>2026-08-19T11:50:17.344Z</time>
      </trkpt>
      <trkpt lat="45.91304" lon="6.35435">
        <ele>1046</ele>
        <time>2026-08-19T11:50:18.344Z</time>
      </trkpt>
      <trkpt lat="45.91304" lon="6.35434">
        <ele>1046</ele>
        <time>2026-08-19T11:50:19.344Z</time>
      </trkpt>
      <trkpt lat="45.91304" lon="6.35433">
        <ele>1046</ele>
        <time>2026-08-19T11:50:20.344Z</time>
      </trkpt>
      <trkpt lat="45.91304" lon="6.35431">
        <ele>1047</ele>
        <time>2026-08-19T11:50:21.344Z</time>
      </trkpt>
      <trkpt lat="45.91304" lon="6.3543">
        <ele>1047</ele>
        <time>2026-08-19T11:50:22.344Z</time>
      </trkpt>
      <trkpt lat="45.91305" lon="6.35429">
        <ele>1047</ele>
        <time>2026-08-19T11:50:23.344Z</time>
      </trkpt>
      <trkpt lat="45.91305" lon="6.35427">
        <ele>1047</ele>
        <time>2026-08-19T11:50:24.344Z</time>
      </trkpt>
      <trkpt lat="45.91305" lon="6.35427">
        <ele>1047</ele>
        <time>2026-08-19T11:50:25.344Z</time>
      </trkpt>
      <trkpt lat="45.91305" lon="6.35426">
        <ele>1047</ele>
        <time>2026-08-19T11:50:26.344Z</time>
      </trkpt>
      <trkpt lat="45.91305" lon="6.35425">
        <ele>1048</ele>
        <time>2026-08-19T11:50:27.344Z</time>
      </trkpt>
      <trkpt lat="45.91305" lon="6.35425">
        <ele>1048</ele>
        <time>2026-08-19T11:50:28.344Z</time>
      </trkpt>
      <trkpt lat="45.91306" lon="6.35424">
        <ele>1048</ele>
        <time>2026-08-19T11:50:29.344Z</time>
      </trkpt>
      <trkpt lat="45.91306" lon="6.35423">
        <ele>1048</ele>
        <time>2026-08-19T11:50:30.344Z</time>
      </trkpt>
      <trkpt lat="45.91306" lon="6.35422">
        <ele>1048</ele>
        <time>2026-08-19T11:50:31.344Z</time>
      </trkpt>
      <trkpt lat="45.91307" lon="6.35421">
        <ele>1048</ele>
        <time>2026-08-19T11:50:32.344Z</time>
      </trkpt>
      <trkpt lat="45.91307" lon="6.3542">
        <ele>1049</ele>
        <time>2026-08-19T11:50:33.344Z</time>
      </trkpt>
      <trkpt lat="45.91307" lon="6.35419">
        <ele>1049</ele>
        <time>2026-08-19T11:50:34.344Z</time>
      </trkpt>
      <trkpt lat="45.91307" lon="6.35418">
        <ele>1049</ele>
        <time>2026-08-19T11:50:35.344Z</time>
      </trkpt>
      <trkpt lat="45.91307" lon="6.35417">
        <ele>1049</ele>
        <time>2026-08-19T11:50:36.344Z</time>
      </trkpt>
      <trkpt lat="45.91307" lon="6.35416">
        <ele>1049</ele>
        <time>2026-08-19T11:50:37.344Z</time>
      </trkpt>
      <trkpt lat="45.91308" lon="6.35415">
        <ele>1049</ele>
        <time>2026-08-19T11:50:38.344Z</time>
      </trkpt>
      <trkpt lat="45.91308" lon="6.35414">
        <ele>1049</ele>
        <time>2026-08-19T11:50:39.344Z</time>
      </trkpt>
      <trkpt lat="45.91308" lon="6.35413">
        <ele>1049</ele>
        <time>2026-08-19T11:50:40.344Z</time>
      </trkpt>
      <trkpt lat="45.91308" lon="6.35412">
        <ele>1049</ele>
        <time>2026-08-19T11:50:41.344Z</time>
      </trkpt>
      <trkpt lat="45.91308" lon="6.35411">
        <ele>1049</ele>
        <time>2026-08-19T11:50:42.344Z</time>
      </trkpt>
      <trkpt lat="45.91309" lon="6.3541">
        <ele>1050</ele>
        <time>2026-08-19T11:50:43.344Z</time>
      </trkpt>
      <trkpt lat="45.91309" lon="6.35409">
        <ele>1051</ele>
        <time>2026-08-19T11:50:44.344Z</time>
      </trkpt>
      <trkpt lat="45.91309" lon="6.35407">
        <ele>1051</ele>
        <time>2026-08-19T11:50:45.344Z</time>
      </trkpt>
      <trkpt lat="45.91309" lon="6.35406">
        <ele>1052</ele>
        <time>2026-08-19T11:50:46.344Z</time>
      </trkpt>
      <trkpt lat="45.91309" lon="6.35405">
        <ele>1053</ele>
        <time>2026-08-19T11:50:47.344Z</time>
      </trkpt>
      <trkpt lat="45.91309" lon="6.35404">
        <ele>1053</ele>
        <time>2026-08-19T11:50:48.344Z</time>
      </trkpt>
      <trkpt lat="45.91309" lon="6.35403">
        <ele>1054</ele>
        <time>2026-08-19T11:50:49.344Z</time>
      </trkpt>
      <trkpt lat="45.9131" lon="6.35402">
        <ele>1054</ele>
        <time>2026-08-19T11:50:50.344Z</time>
      </trkpt>
      <trkpt lat="45.9131" lon="6.35401">
        <ele>1054</ele>
        <time>2026-08-19T11:50:51.344Z</time>
      </trkpt>
      <trkpt lat="45.91309" lon="6.354">
        <ele>1054</ele>
        <time>2026-08-19T11:50:52.344Z</time>
      </trkpt>
      <trkpt lat="45.91309" lon="6.35399">
        <ele>1055</ele>
        <time>2026-08-19T11:50:53.344Z</time>
      </trkpt>
      <trkpt lat="45.91309" lon="6.35398">
        <ele>1055</ele>
        <time>2026-08-19T11:50:54.344Z</time>
      </trkpt>
      <trkpt lat="45.91309" lon="6.35397">
        <ele>1055</ele>
        <time>2026-08-19T11:50:55.344Z</time>
      </trkpt>
      <trkpt lat="45.91309" lon="6.35396">
        <ele>1056</ele>
        <time>2026-08-19T11:50:56.344Z</time>
      </trkpt>
      <trkpt lat="45.91309" lon="6.35395">
        <ele>1056</ele>
        <time>2026-08-19T11:50:57.344Z</time>
      </trkpt>
      <trkpt lat="45.9131" lon="6.35394">
        <ele>1056</ele>
        <time>2026-08-19T11:50:58.344Z</time>
      </trkpt>
      <trkpt lat="45.9131" lon="6.35393">
        <ele>1057</ele>
        <time>2026-08-19T11:50:59.344Z</time>
      </trkpt>
      <trkpt lat="45.9131" lon="6.35392">
        <ele>1057</ele>
        <time>2026-08-19T11:51:00.345Z</time>
      </trkpt>
      <trkpt lat="45.9131" lon="6.35391">
        <ele>1057</ele>
        <time>2026-08-19T11:51:01.344Z</time>
      </trkpt>
      <trkpt lat="45.9131" lon="6.3539">
        <ele>1057</ele>
        <time>2026-08-19T11:51:02.344Z</time>
      </trkpt>
      <trkpt lat="45.9131" lon="6.35389">
        <ele>1057</ele>
        <time>2026-08-19T11:51:03.344Z</time>
      </trkpt>
      <trkpt lat="45.91311" lon="6.35388">
        <ele>1058</ele>
        <time>2026-08-19T11:51:04.344Z</time>
      </trkpt>
      <trkpt lat="45.91311" lon="6.35387">
        <ele>1058</ele>
        <time>2026-08-19T11:51:05.344Z</time>
      </trkpt>
      <trkpt lat="45.91311" lon="6.35386">
        <ele>1059</ele>
        <time>2026-08-19T11:51:06.344Z</time>
      </trkpt>
      <trkpt lat="45.91311" lon="6.35386">
        <ele>1059</ele>
        <time>2026-08-19T11:51:07.344Z</time>
      </trkpt>
      <trkpt lat="45.91311" lon="6.35385">
        <ele>1059</ele>
        <time>2026-08-19T11:51:08.344Z</time>
      </trkpt>
      <trkpt lat="45.91311" lon="6.35384">
        <ele>1059</ele>
        <time>2026-08-19T11:51:09.344Z</time>
      </trkpt>
      <trkpt lat="45.91312" lon="6.35384">
        <ele>1059</ele>
        <time>2026-08-19T11:51:10.344Z</time>
      </trkpt>
      <trkpt lat="45.91312" lon="6.35383">
        <ele>1060</ele>
        <time>2026-08-19T11:51:11.344Z</time>
      </trkpt>
      <trkpt lat="45.91312" lon="6.35382">
        <ele>1060</ele>
        <time>2026-08-19T11:51:12.344Z</time>
      </trkpt>
      <trkpt lat="45.91312" lon="6.35381">
        <ele>1060</ele>
        <time>2026-08-19T11:51:13.344Z</time>
      </trkpt>
      <trkpt lat="45.91313" lon="6.3538">
        <ele>1060</ele>
        <time>2026-08-19T11:51:14.344Z</time>
      </trkpt>
      <trkpt lat="45.91313" lon="6.3538">
        <ele>1060</ele>
        <time>2026-08-19T11:51:15.344Z</time>
      </trkpt>
      <trkpt lat="45.91313" lon="6.35379">
        <ele>1060</ele>
        <time>2026-08-19T11:51:16.344Z</time>
      </trkpt>
      <trkpt lat="45.91314" lon="6.35379">
        <ele>1060</ele>
        <time>2026-08-19T11:51:17.344Z</time>
      </trkpt>
      <trkpt lat="45.91314" lon="6.35378">
        <ele>1060</ele>
        <time>2026-08-19T11:51:18.344Z</time>
      </trkpt>
      <trkpt lat="45.91314" lon="6.35378">
        <ele>1060</ele>
        <time>2026-08-19T11:51:19.344Z</time>
      </trkpt>
      <trkpt lat="45.91315" lon="6.35377">
        <ele>1060</ele>
        <time>2026-08-19T11:51:20.344Z</time>
      </trkpt>
      <trkpt lat="45.91315" lon="6.35377">
        <ele>1060</ele>
        <time>2026-08-19T11:51:21.344Z</time>
      </trkpt>
      <trkpt lat="45.91315" lon="6.35376">
        <ele>1060</ele>
        <time>2026-08-19T11:51:22.344Z</time>
      </trkpt>
      <trkpt lat="45.91315" lon="6.35375">
        <ele>1060</ele>
        <time>2026-08-19T11:51:23.344Z</time>
      </trkpt>
      <trkpt lat="45.91315" lon="6.35374">
        <ele>1060</ele>
        <time>2026-08-19T11:51:24.344Z</time>
      </trkpt>
      <trkpt lat="45.91315" lon="6.35373">
        <ele>1060</ele>
        <time>2026-08-19T11:51:25.344Z</time>
      </trkpt>
      <trkpt lat="45.91316" lon="6.35373">
        <ele>1060</ele>
        <time>2026-08-19T11:51:26.344Z</time>
      </trkpt>
      <trkpt lat="45.91316" lon="6.35372">
        <ele>1061</ele>
        <time>2026-08-19T11:51:27.344Z</time>
      </trkpt>
      <trkpt lat="45.91316" lon="6.35371">
        <ele>1061</ele>
        <time>2026-08-19T11:51:28.344Z</time>
      </trkpt>
      <trkpt lat="45.91316" lon="6.35371">
        <ele>1062</ele>
        <time>2026-08-19T11:51:29.344Z</time>
      </trkpt>
      <trkpt lat="45.91317" lon="6.3537">
        <ele>1062</ele>
        <time>2026-08-19T11:51:30.344Z</time>
      </trkpt>
      <trkpt lat="45.91317" lon="6.35369">
        <ele>1063</ele>
        <time>2026-08-19T11:51:31.344Z</time>
      </trkpt>
      <trkpt lat="45.91317" lon="6.35368">
        <ele>1063</ele>
        <time>2026-08-19T11:51:32.344Z</time>
      </trkpt>
      <trkpt lat="45.91317" lon="6.35367">
        <ele>1064</ele>
        <time>2026-08-19T11:51:33.344Z</time>
      </trkpt>
      <trkpt lat="45.91318" lon="6.35366">
        <ele>1065</ele>
        <time>2026-08-19T11:51:34.344Z</time>
      </trkpt>
      <trkpt lat="45.91318" lon="6.35365">
        <ele>1065</ele>
        <time>2026-08-19T11:51:35.344Z</time>
      </trkpt>
      <trkpt lat="45.91318" lon="6.35365">
        <ele>1065</ele>
        <time>2026-08-19T11:51:36.344Z</time>
      </trkpt>
      <trkpt lat="45.91318" lon="6.35363">
        <ele>1065</ele>
        <time>2026-08-19T11:51:37.344Z</time>
      </trkpt>
      <trkpt lat="45.91318" lon="6.35362">
        <ele>1065</ele>
        <time>2026-08-19T11:51:38.344Z</time>
      </trkpt>
      <trkpt lat="45.91318" lon="6.35361">
        <ele>1065</ele>
        <time>2026-08-19T11:51:39.344Z</time>
      </trkpt>
      <trkpt lat="45.91319" lon="6.3536">
        <ele>1066</ele>
        <time>2026-08-19T11:51:40.344Z</time>
      </trkpt>
      <trkpt lat="45.91319" lon="6.35359">
        <ele>1066</ele>
        <time>2026-08-19T11:51:41.344Z</time>
      </trkpt>
      <trkpt lat="45.91319" lon="6.35358">
        <ele>1066</ele>
        <time>2026-08-19T11:51:42.344Z</time>
      </trkpt>
      <trkpt lat="45.91318" lon="6.35357">
        <ele>1066</ele>
        <time>2026-08-19T11:51:43.344Z</time>
      </trkpt>
      <trkpt lat="45.91318" lon="6.35355">
        <ele>1067</ele>
        <time>2026-08-19T11:51:44.344Z</time>
      </trkpt>
      <trkpt lat="45.91318" lon="6.35354">
        <ele>1067</ele>
        <time>2026-08-19T11:51:45.345Z</time>
      </trkpt>
      <trkpt lat="45.91318" lon="6.35352">
        <ele>1068</ele>
        <time>2026-08-19T11:51:46.344Z</time>
      </trkpt>
      <trkpt lat="45.91319" lon="6.3535">
        <ele>1068</ele>
        <time>2026-08-19T11:51:47.344Z</time>
      </trkpt>
      <trkpt lat="45.91319" lon="6.35348">
        <ele>1068</ele>
        <time>2026-08-19T11:51:48.344Z</time>
      </trkpt>
      <trkpt lat="45.91319" lon="6.35346">
        <ele>1069</ele>
        <time>2026-08-19T11:51:49.344Z</time>
      </trkpt>
      <trkpt lat="45.91319" lon="6.35345">
        <ele>1069</ele>
        <time>2026-08-19T11:51:50.344Z</time>
      </trkpt>
      <trkpt lat="45.91319" lon="6.35343">
        <ele>1069</ele>
        <time>2026-08-19T11:51:51.344Z</time>
      </trkpt>
      <trkpt lat="45.91319" lon="6.35342">
        <ele>1070</ele>
        <time>2026-08-19T11:51:52.344Z</time>
      </trkpt>
      <trkpt lat="45.91319" lon="6.3534">
        <ele>1070</ele>
        <time>2026-08-19T11:51:53.344Z</time>
      </trkpt>
      <trkpt lat="45.91319" lon="6.35339">
        <ele>1070</ele>
        <time>2026-08-19T11:51:54.344Z</time>
      </trkpt>
      <trkpt lat="45.91318" lon="6.35337">
        <ele>1070</ele>
        <time>2026-08-19T11:51:55.344Z</time>
      </trkpt>
      <trkpt lat="45.91318" lon="6.35336">
        <ele>1070</ele>
        <time>2026-08-19T11:51:56.344Z</time>
      </trkpt>
      <trkpt lat="45.91318" lon="6.35335">
        <ele>1070</ele>
        <time>2026-08-19T11:51:57.344Z</time>
      </trkpt>
      <trkpt lat="45.91318" lon="6.35333">
        <ele>1070</ele>
        <time>2026-08-19T11:51:58.344Z</time>
      </trkpt>
      <trkpt lat="45.91318" lon="6.35331">
        <ele>1070</ele>
        <time>2026-08-19T11:51:59.344Z</time>
      </trkpt>
      <trkpt lat="45.91318" lon="6.35329">
        <ele>1070</ele>
        <time>2026-08-19T11:52:00.344Z</time>
      </trkpt>
      <trkpt lat="45.91318" lon="6.35327">
        <ele>1070</ele>
        <time>2026-08-19T11:52:01.344Z</time>
      </trkpt>
      <trkpt lat="45.91317" lon="6.35326">
        <ele>1070</ele>
        <time>2026-08-19T11:52:02.344Z</time>
      </trkpt>
      <trkpt lat="45.91317" lon="6.35324">
        <ele>1070</ele>
        <time>2026-08-19T11:52:03.344Z</time>
      </trkpt>
      <trkpt lat="45.91317" lon="6.35323">
        <ele>1070</ele>
        <time>2026-08-19T11:52:04.344Z</time>
      </trkpt>
      <trkpt lat="45.91317" lon="6.35321">
        <ele>1070</ele>
        <time>2026-08-19T11:52:05.344Z</time>
      </trkpt>
      <trkpt lat="45.91316" lon="6.35319">
        <ele>1070</ele>
        <time>2026-08-19T11:52:06.344Z</time>
      </trkpt>
      <trkpt lat="45.91316" lon="6.35317">
        <ele>1069</ele>
        <time>2026-08-19T11:52:07.344Z</time>
      </trkpt>
      <trkpt lat="45.91316" lon="6.35316">
        <ele>1069</ele>
        <time>2026-08-19T11:52:08.344Z</time>
      </trkpt>
      <trkpt lat="45.91316" lon="6.35314">
        <ele>1069</ele>
        <time>2026-08-19T11:52:09.344Z</time>
      </trkpt>
      <trkpt lat="45.91316" lon="6.35312">
        <ele>1069</ele>
        <time>2026-08-19T11:52:10.344Z</time>
      </trkpt>
      <trkpt lat="45.91315" lon="6.3531">
        <ele>1069</ele>
        <time>2026-08-19T11:52:11.344Z</time>
      </trkpt>
      <trkpt lat="45.91315" lon="6.35308">
        <ele>1069</ele>
        <time>2026-08-19T11:52:12.344Z</time>
      </trkpt>
      <trkpt lat="45.91314" lon="6.35306">
        <ele>1070</ele>
        <time>2026-08-19T11:52:13.344Z</time>
      </trkpt>
      <trkpt lat="45.91313" lon="6.35304">
        <ele>1069</ele>
        <time>2026-08-19T11:52:14.344Z</time>
      </trkpt>
      <trkpt lat="45.91313" lon="6.35302">
        <ele>1070</ele>
        <time>2026-08-19T11:52:15.344Z</time>
      </trkpt>
      <trkpt lat="45.91312" lon="6.35301">
        <ele>1070</ele>
        <time>2026-08-19T11:52:16.344Z</time>
      </trkpt>
      <trkpt lat="45.91311" lon="6.35299">
        <ele>1070</ele>
        <time>2026-08-19T11:52:17.344Z</time>
      </trkpt>
      <trkpt lat="45.9131" lon="6.35297">
        <ele>1070</ele>
        <time>2026-08-19T11:52:18.344Z</time>
      </trkpt>
      <trkpt lat="45.9131" lon="6.35295">
        <ele>1071</ele>
        <time>2026-08-19T11:52:19.344Z</time>
      </trkpt>
      <trkpt lat="45.91309" lon="6.35293">
        <ele>1071</ele>
        <time>2026-08-19T11:52:20.344Z</time>
      </trkpt>
      <trkpt lat="45.91309" lon="6.35291">
        <ele>1071</ele>
        <time>2026-08-19T11:52:21.344Z</time>
      </trkpt>
      <trkpt lat="45.91308" lon="6.3529">
        <ele>1071</ele>
        <time>2026-08-19T11:52:22.344Z</time>
      </trkpt>
      <trkpt lat="45.91307" lon="6.35289">
        <ele>1071</ele>
        <time>2026-08-19T11:52:23.344Z</time>
      </trkpt>
      <trkpt lat="45.91307" lon="6.35287">
        <ele>1071</ele>
        <time>2026-08-19T11:52:24.344Z</time>
      </trkpt>
      <trkpt lat="45.91306" lon="6.35286">
        <ele>1071</ele>
        <time>2026-08-19T11:52:25.344Z</time>
      </trkpt>
      <trkpt lat="45.91306" lon="6.35285">
        <ele>1072</ele>
        <time>2026-08-19T11:52:26.344Z</time>
      </trkpt>
      <trkpt lat="45.91306" lon="6.35283">
        <ele>1072</ele>
        <time>2026-08-19T11:52:27.344Z</time>
      </trkpt>
      <trkpt lat="45.91305" lon="6.35282">
        <ele>1072</ele>
        <time>2026-08-19T11:52:28.344Z</time>
      </trkpt>
      <trkpt lat="45.91305" lon="6.35281">
        <ele>1073</ele>
        <time>2026-08-19T11:52:29.344Z</time>
      </trkpt>
      <trkpt lat="45.91305" lon="6.35279">
        <ele>1073</ele>
        <time>2026-08-19T11:52:30.344Z</time>
      </trkpt>
      <trkpt lat="45.91305" lon="6.35278">
        <ele>1073</ele>
        <time>2026-08-19T11:52:31.344Z</time>
      </trkpt>
      <trkpt lat="45.91305" lon="6.35277">
        <ele>1073</ele>
        <time>2026-08-19T11:52:32.344Z</time>
      </trkpt>
      <trkpt lat="45.91305" lon="6.35276">
        <ele>1072</ele>
        <time>2026-08-19T11:52:33.344Z</time>
      </trkpt>
      <trkpt lat="45.91304" lon="6.35275">
        <ele>1072</ele>
        <time>2026-08-19T11:52:34.344Z</time>
      </trkpt>
      <trkpt lat="45.91304" lon="6.35273">
        <ele>1072</ele>
        <time>2026-08-19T11:52:35.344Z</time>
      </trkpt>
      <trkpt lat="45.91304" lon="6.35272">
        <ele>1073</ele>
        <time>2026-08-19T11:52:36.344Z</time>
      </trkpt>
      <trkpt lat="45.91304" lon="6.3527">
        <ele>1072</ele>
        <time>2026-08-19T11:52:37.344Z</time>
      </trkpt>
      <trkpt lat="45.91304" lon="6.35269">
        <ele>1072</ele>
        <time>2026-08-19T11:52:38.344Z</time>
      </trkpt>
      <trkpt lat="45.91304" lon="6.35267">
        <ele>1072</ele>
        <time>2026-08-19T11:52:39.344Z</time>
      </trkpt>
      <trkpt lat="45.91304" lon="6.35266">
        <ele>1072</ele>
        <time>2026-08-19T11:52:40.344Z</time>
      </trkpt>
      <trkpt lat="45.91304" lon="6.35264">
        <ele>1072</ele>
        <time>2026-08-19T11:52:41.344Z</time>
      </trkpt>
      <trkpt lat="45.91304" lon="6.35263">
        <ele>1071</ele>
        <time>2026-08-19T11:52:42.344Z</time>
      </trkpt>
      <trkpt lat="45.91304" lon="6.35261">
        <ele>1071</ele>
        <time>2026-08-19T11:52:43.344Z</time>
      </trkpt>
      <trkpt lat="45.91304" lon="6.35259">
        <ele>1071</ele>
        <time>2026-08-19T11:52:44.344Z</time>
      </trkpt>
      <trkpt lat="45.91303" lon="6.35257">
        <ele>1071</ele>
        <time>2026-08-19T11:52:45.344Z</time>
      </trkpt>
      <trkpt lat="45.91303" lon="6.35256">
        <ele>1072</ele>
        <time>2026-08-19T11:52:46.344Z</time>
      </trkpt>
      <trkpt lat="45.91303" lon="6.35254">
        <ele>1072</ele>
        <time>2026-08-19T11:52:47.344Z</time>
      </trkpt>
      <trkpt lat="45.91302" lon="6.35252">
        <ele>1072</ele>
        <time>2026-08-19T11:52:48.344Z</time>
      </trkpt>
      <trkpt lat="45.91302" lon="6.35251">
        <ele>1072</ele>
        <time>2026-08-19T11:52:49.344Z</time>
      </trkpt>
      <trkpt lat="45.91301" lon="6.35249">
        <ele>1073</ele>
        <time>2026-08-19T11:52:50.344Z</time>
      </trkpt>
      <trkpt lat="45.91301" lon="6.35248">
        <ele>1073</ele>
        <time>2026-08-19T11:52:51.344Z</time>
      </trkpt>
      <trkpt lat="45.91301" lon="6.35246">
        <ele>1073</ele>
        <time>2026-08-19T11:52:52.344Z</time>
      </trkpt>
      <trkpt lat="45.91301" lon="6.35245">
        <ele>1073</ele>
        <time>2026-08-19T11:52:53.344Z</time>
      </trkpt>
      <trkpt lat="45.91301" lon="6.35243">
        <ele>1073</ele>
        <time>2026-08-19T11:52:54.344Z</time>
      </trkpt>
      <trkpt lat="45.913" lon="6.35242">
        <ele>1073</ele>
        <time>2026-08-19T11:52:55.344Z</time>
      </trkpt>
      <trkpt lat="45.913" lon="6.3524">
        <ele>1073</ele>
        <time>2026-08-19T11:52:56.344Z</time>
      </trkpt>
      <trkpt lat="45.913" lon="6.35239">
        <ele>1073</ele>
        <time>2026-08-19T11:52:57.344Z</time>
      </trkpt>
      <trkpt lat="45.91299" lon="6.35238">
        <ele>1074</ele>
        <time>2026-08-19T11:52:58.344Z</time>
      </trkpt>
      <trkpt lat="45.91299" lon="6.35237">
        <ele>1074</ele>
        <time>2026-08-19T11:52:59.344Z</time>
      </trkpt>
      <trkpt lat="45.91299" lon="6.35235">
        <ele>1075</ele>
        <time>2026-08-19T11:53:00.344Z</time>
      </trkpt>
      <trkpt lat="45.91298" lon="6.35234">
        <ele>1075</ele>
        <time>2026-08-19T11:53:01.344Z</time>
      </trkpt>
      <trkpt lat="45.91298" lon="6.35233">
        <ele>1075</ele>
        <time>2026-08-19T11:53:02.344Z</time>
      </trkpt>
      <trkpt lat="45.91297" lon="6.35232">
        <ele>1075</ele>
        <time>2026-08-19T11:53:03.344Z</time>
      </trkpt>
      <trkpt lat="45.91297" lon="6.3523">
        <ele>1075</ele>
        <time>2026-08-19T11:53:04.344Z</time>
      </trkpt>
      <trkpt lat="45.91296" lon="6.35229">
        <ele>1076</ele>
        <time>2026-08-19T11:53:05.344Z</time>
      </trkpt>
      <trkpt lat="45.91295" lon="6.35227">
        <ele>1076</ele>
        <time>2026-08-19T11:53:06.344Z</time>
      </trkpt>
      <trkpt lat="45.91295" lon="6.35225">
        <ele>1076</ele>
        <time>2026-08-19T11:53:07.344Z</time>
      </trkpt>
      <trkpt lat="45.91294" lon="6.35223">
        <ele>1076</ele>
        <time>2026-08-19T11:53:08.344Z</time>
      </trkpt>
      <trkpt lat="45.91294" lon="6.35222">
        <ele>1076</ele>
        <time>2026-08-19T11:53:09.344Z</time>
      </trkpt>
      <trkpt lat="45.91294" lon="6.3522">
        <ele>1076</ele>
        <time>2026-08-19T11:53:10.344Z</time>
      </trkpt>
      <trkpt lat="45.91294" lon="6.35219">
        <ele>1076</ele>
        <time>2026-08-19T11:53:11.344Z</time>
      </trkpt>
      <trkpt lat="45.91294" lon="6.35218">
        <ele>1076</ele>
        <time>2026-08-19T11:53:12.344Z</time>
      </trkpt>
      <trkpt lat="45.91294" lon="6.35216">
        <ele>1076</ele>
        <time>2026-08-19T11:53:13.344Z</time>
      </trkpt>
      <trkpt lat="45.91294" lon="6.35215">
        <ele>1076</ele>
        <time>2026-08-19T11:53:14.344Z</time>
      </trkpt>
      <trkpt lat="45.91294" lon="6.35214">
        <ele>1076</ele>
        <time>2026-08-19T11:53:15.344Z</time>
      </trkpt>
      <trkpt lat="45.91294" lon="6.35213">
        <ele>1076</ele>
        <time>2026-08-19T11:53:16.344Z</time>
      </trkpt>
      <trkpt lat="45.91294" lon="6.35212">
        <ele>1076</ele>
        <time>2026-08-19T11:53:17.344Z</time>
      </trkpt>
      <trkpt lat="45.91295" lon="6.35211">
        <ele>1077</ele>
        <time>2026-08-19T11:53:18.344Z</time>
      </trkpt>
      <trkpt lat="45.91295" lon="6.3521">
        <ele>1077</ele>
        <time>2026-08-19T11:53:19.344Z</time>
      </trkpt>
      <trkpt lat="45.91296" lon="6.35209">
        <ele>1077</ele>
        <time>2026-08-19T11:53:20.345Z</time>
      </trkpt>
      <trkpt lat="45.91296" lon="6.35208">
        <ele>1077</ele>
        <time>2026-08-19T11:53:21.344Z</time>
      </trkpt>
      <trkpt lat="45.91297" lon="6.35208">
        <ele>1078</ele>
        <time>2026-08-19T11:53:22.344Z</time>
      </trkpt>
      <trkpt lat="45.91297" lon="6.35207">
        <ele>1078</ele>
        <time>2026-08-19T11:53:23.344Z</time>
      </trkpt>
      <trkpt lat="45.91298" lon="6.35206">
        <ele>1078</ele>
        <time>2026-08-19T11:53:24.344Z</time>
      </trkpt>
      <trkpt lat="45.91298" lon="6.35206">
        <ele>1079</ele>
        <time>2026-08-19T11:53:25.344Z</time>
      </trkpt>
      <trkpt lat="45.91298" lon="6.35206">
        <ele>1078</ele>
        <time>2026-08-19T11:53:26.344Z</time>
      </trkpt>
      <trkpt lat="45.91298" lon="6.35205">
        <ele>1078</ele>
        <time>2026-08-19T11:53:27.345Z</time>
      </trkpt>
      <trkpt lat="45.91298" lon="6.35204">
        <ele>1078</ele>
        <time>2026-08-19T11:53:28.344Z</time>
      </trkpt>
      <trkpt lat="45.91299" lon="6.35203">
        <ele>1078</ele>
        <time>2026-08-19T11:53:29.344Z</time>
      </trkpt>
      <trkpt lat="45.913" lon="6.35203">
        <ele>1078</ele>
        <time>2026-08-19T11:53:30.344Z</time>
      </trkpt>
      <trkpt lat="45.913" lon="6.35202">
        <ele>1078</ele>
        <time>2026-08-19T11:53:31.344Z</time>
      </trkpt>
      <trkpt lat="45.913" lon="6.35201">
        <ele>1079</ele>
        <time>2026-08-19T11:53:32.344Z</time>
      </trkpt>
      <trkpt lat="45.913" lon="6.35199">
        <ele>1080</ele>
        <time>2026-08-19T11:53:33.344Z</time>
      </trkpt>
      <trkpt lat="45.91301" lon="6.35199">
        <ele>1081</ele>
        <time>2026-08-19T11:53:34.344Z</time>
      </trkpt>
      <trkpt lat="45.91301" lon="6.35198">
        <ele>1081</ele>
        <time>2026-08-19T11:53:35.344Z</time>
      </trkpt>
      <trkpt lat="45.91302" lon="6.35198">
        <ele>1082</ele>
        <time>2026-08-19T11:53:36.344Z</time>
      </trkpt>
      <trkpt lat="45.91303" lon="6.35197">
        <ele>1082</ele>
        <time>2026-08-19T11:53:37.344Z</time>
      </trkpt>
      <trkpt lat="45.91303" lon="6.35197">
        <ele>1083</ele>
        <time>2026-08-19T11:53:38.344Z</time>
      </trkpt>
      <trkpt lat="45.91304" lon="6.35195">
        <ele>1083</ele>
        <time>2026-08-19T11:53:39.344Z</time>
      </trkpt>
      <trkpt lat="45.91304" lon="6.35194">
        <ele>1083</ele>
        <time>2026-08-19T11:53:40.345Z</time>
      </trkpt>
      <trkpt lat="45.91305" lon="6.35193">
        <ele>1083</ele>
        <time>2026-08-19T11:53:41.344Z</time>
      </trkpt>
      <trkpt lat="45.91305" lon="6.35192">
        <ele>1083</ele>
        <time>2026-08-19T11:53:42.344Z</time>
      </trkpt>
      <trkpt lat="45.91306" lon="6.35192">
        <ele>1083</ele>
        <time>2026-08-19T11:53:43.344Z</time>
      </trkpt>
      <trkpt lat="45.91307" lon="6.35191">
        <ele>1083</ele>
        <time>2026-08-19T11:53:44.344Z</time>
      </trkpt>
      <trkpt lat="45.91307" lon="6.3519">
        <ele>1083</ele>
        <time>2026-08-19T11:53:45.344Z</time>
      </trkpt>
      <trkpt lat="45.91308" lon="6.35189">
        <ele>1083</ele>
        <time>2026-08-19T11:53:46.344Z</time>
      </trkpt>
      <trkpt lat="45.91308" lon="6.35188">
        <ele>1083</ele>
        <time>2026-08-19T11:53:47.344Z</time>
      </trkpt>
      <trkpt lat="45.91309" lon="6.35187">
        <ele>1083</ele>
        <time>2026-08-19T11:53:48.344Z</time>
      </trkpt>
      <trkpt lat="45.91309" lon="6.35186">
        <ele>1084</ele>
        <time>2026-08-19T11:53:49.344Z</time>
      </trkpt>
      <trkpt lat="45.91309" lon="6.35185">
        <ele>1085</ele>
        <time>2026-08-19T11:53:50.344Z</time>
      </trkpt>
      <trkpt lat="45.91309" lon="6.35184">
        <ele>1086</ele>
        <time>2026-08-19T11:53:51.344Z</time>
      </trkpt>
      <trkpt lat="45.9131" lon="6.35182">
        <ele>1087</ele>
        <time>2026-08-19T11:53:52.344Z</time>
      </trkpt>
      <trkpt lat="45.9131" lon="6.35181">
        <ele>1088</ele>
        <time>2026-08-19T11:53:53.344Z</time>
      </trkpt>
      <trkpt lat="45.9131" lon="6.3518">
        <ele>1089</ele>
        <time>2026-08-19T11:53:54.344Z</time>
      </trkpt>
      <trkpt lat="45.91311" lon="6.35179">
        <ele>1089</ele>
        <time>2026-08-19T11:53:55.344Z</time>
      </trkpt>
      <trkpt lat="45.91312" lon="6.35178">
        <ele>1090</ele>
        <time>2026-08-19T11:53:56.344Z</time>
      </trkpt>
      <trkpt lat="45.91312" lon="6.35177">
        <ele>1090</ele>
        <time>2026-08-19T11:53:57.344Z</time>
      </trkpt>
      <trkpt lat="45.91313" lon="6.35176">
        <ele>1090</ele>
        <time>2026-08-19T11:53:58.344Z</time>
      </trkpt>
      <trkpt lat="45.91313" lon="6.35175">
        <ele>1090</ele>
        <time>2026-08-19T11:53:59.344Z</time>
      </trkpt>
      <trkpt lat="45.91313" lon="6.35173">
        <ele>1089</ele>
        <time>2026-08-19T11:54:00.344Z</time>
      </trkpt>
      <trkpt lat="45.91314" lon="6.35171">
        <ele>1090</ele>
        <time>2026-08-19T11:54:01.344Z</time>
      </trkpt>
      <trkpt lat="45.91314" lon="6.3517">
        <ele>1090</ele>
        <time>2026-08-19T11:54:02.344Z</time>
      </trkpt>
      <trkpt lat="45.91315" lon="6.35169">
        <ele>1090</ele>
        <time>2026-08-19T11:54:03.344Z</time>
      </trkpt>
      <trkpt lat="45.91315" lon="6.35168">
        <ele>1089</ele>
        <time>2026-08-19T11:54:04.344Z</time>
      </trkpt>
      <trkpt lat="45.91315" lon="6.35167">
        <ele>1089</ele>
        <time>2026-08-19T11:54:05.344Z</time>
      </trkpt>
      <trkpt lat="45.91315" lon="6.35165">
        <ele>1089</ele>
        <time>2026-08-19T11:54:06.344Z</time>
      </trkpt>
      <trkpt lat="45.91315" lon="6.35164">
        <ele>1089</ele>
        <time>2026-08-19T11:54:07.344Z</time>
      </trkpt>
      <trkpt lat="45.91315" lon="6.35163">
        <ele>1089</ele>
        <time>2026-08-19T11:54:08.344Z</time>
      </trkpt>
      <trkpt lat="45.91315" lon="6.35162">
        <ele>1089</ele>
        <time>2026-08-19T11:54:09.344Z</time>
      </trkpt>
      <trkpt lat="45.91315" lon="6.35161">
        <ele>1089</ele>
        <time>2026-08-19T11:54:10.344Z</time>
      </trkpt>
      <trkpt lat="45.91315" lon="6.3516">
        <ele>1089</ele>
        <time>2026-08-19T11:54:11.344Z</time>
      </trkpt>
      <trkpt lat="45.91315" lon="6.35158">
        <ele>1089</ele>
        <time>2026-08-19T11:54:12.344Z</time>
      </trkpt>
      <trkpt lat="45.91315" lon="6.35157">
        <ele>1089</ele>
        <time>2026-08-19T11:54:13.344Z</time>
      </trkpt>
      <trkpt lat="45.91314" lon="6.35156">
        <ele>1089</ele>
        <time>2026-08-19T11:54:14.344Z</time>
      </trkpt>
      <trkpt lat="45.91314" lon="6.35154">
        <ele>1090</ele>
        <time>2026-08-19T11:54:15.344Z</time>
      </trkpt>
      <trkpt lat="45.91314" lon="6.35152">
        <ele>1090</ele>
        <time>2026-08-19T11:54:16.344Z</time>
      </trkpt>
      <trkpt lat="45.91313" lon="6.35151">
        <ele>1090</ele>
        <time>2026-08-19T11:54:17.344Z</time>
      </trkpt>
      <trkpt lat="45.91313" lon="6.3515">
        <ele>1089</ele>
        <time>2026-08-19T11:54:18.344Z</time>
      </trkpt>
      <trkpt lat="45.91313" lon="6.35149">
        <ele>1089</ele>
        <time>2026-08-19T11:54:19.344Z</time>
      </trkpt>
      <trkpt lat="45.91313" lon="6.35148">
        <ele>1090</ele>
        <time>2026-08-19T11:54:20.344Z</time>
      </trkpt>
      <trkpt lat="45.91313" lon="6.35146">
        <ele>1090</ele>
        <time>2026-08-19T11:54:21.344Z</time>
      </trkpt>
      <trkpt lat="45.91312" lon="6.35145">
        <ele>1090</ele>
        <time>2026-08-19T11:54:22.344Z</time>
      </trkpt>
      <trkpt lat="45.91312" lon="6.35144">
        <ele>1091</ele>
        <time>2026-08-19T11:54:23.344Z</time>
      </trkpt>
      <trkpt lat="45.91312" lon="6.35142">
        <ele>1091</ele>
        <time>2026-08-19T11:54:24.344Z</time>
      </trkpt>
      <trkpt lat="45.91312" lon="6.3514">
        <ele>1092</ele>
        <time>2026-08-19T11:54:25.344Z</time>
      </trkpt>
      <trkpt lat="45.91312" lon="6.35139">
        <ele>1092</ele>
        <time>2026-08-19T11:54:26.344Z</time>
      </trkpt>
      <trkpt lat="45.91312" lon="6.35138">
        <ele>1092</ele>
        <time>2026-08-19T11:54:27.344Z</time>
      </trkpt>
      <trkpt lat="45.91312" lon="6.35137">
        <ele>1092</ele>
        <time>2026-08-19T11:54:28.344Z</time>
      </trkpt>
      <trkpt lat="45.91312" lon="6.35136">
        <ele>1092</ele>
        <time>2026-08-19T11:54:29.344Z</time>
      </trkpt>
      <trkpt lat="45.91312" lon="6.35135">
        <ele>1092</ele>
        <time>2026-08-19T11:54:30.344Z</time>
      </trkpt>
      <trkpt lat="45.91312" lon="6.35134">
        <ele>1093</ele>
        <time>2026-08-19T11:54:31.344Z</time>
      </trkpt>
      <trkpt lat="45.91312" lon="6.35133">
        <ele>1093</ele>
        <time>2026-08-19T11:54:32.344Z</time>
      </trkpt>
      <trkpt lat="45.91312" lon="6.35131">
        <ele>1093</ele>
        <time>2026-08-19T11:54:33.345Z</time>
      </trkpt>
      <trkpt lat="45.91312" lon="6.3513">
        <ele>1094</ele>
        <time>2026-08-19T11:54:34.344Z</time>
      </trkpt>
      <trkpt lat="45.91312" lon="6.35129">
        <ele>1094</ele>
        <time>2026-08-19T11:54:35.344Z</time>
      </trkpt>
      <trkpt lat="45.91312" lon="6.35127">
        <ele>1095</ele>
        <time>2026-08-19T11:54:36.344Z</time>
      </trkpt>
      <trkpt lat="45.91313" lon="6.35126">
        <ele>1095</ele>
        <time>2026-08-19T11:54:37.344Z</time>
      </trkpt>
      <trkpt lat="45.91313" lon="6.35124">
        <ele>1095</ele>
        <time>2026-08-19T11:54:38.344Z</time>
      </trkpt>
      <trkpt lat="45.91313" lon="6.35123">
        <ele>1095</ele>
        <time>2026-08-19T11:54:39.344Z</time>
      </trkpt>
      <trkpt lat="45.91313" lon="6.35122">
        <ele>1096</ele>
        <time>2026-08-19T11:54:40.344Z</time>
      </trkpt>
      <trkpt lat="45.91314" lon="6.3512">
        <ele>1096</ele>
        <time>2026-08-19T11:54:41.344Z</time>
      </trkpt>
      <trkpt lat="45.91314" lon="6.35119">
        <ele>1096</ele>
        <time>2026-08-19T11:54:42.344Z</time>
      </trkpt>
      <trkpt lat="45.91314" lon="6.35117">
        <ele>1097</ele>
        <time>2026-08-19T11:54:43.344Z</time>
      </trkpt>
      <trkpt lat="45.91314" lon="6.35116">
        <ele>1097</ele>
        <time>2026-08-19T11:54:44.344Z</time>
      </trkpt>
      <trkpt lat="45.91315" lon="6.35114">
        <ele>1097</ele>
        <time>2026-08-19T11:54:45.344Z</time>
      </trkpt>
      <trkpt lat="45.91315" lon="6.35113">
        <ele>1098</ele>
        <time>2026-08-19T11:54:46.345Z</time>
      </trkpt>
      <trkpt lat="45.91316" lon="6.35112">
        <ele>1098</ele>
        <time>2026-08-19T11:54:47.344Z</time>
      </trkpt>
      <trkpt lat="45.91316" lon="6.35111">
        <ele>1098</ele>
        <time>2026-08-19T11:54:48.344Z</time>
      </trkpt>
      <trkpt lat="45.91317" lon="6.35109">
        <ele>1098</ele>
        <time>2026-08-19T11:54:49.344Z</time>
      </trkpt>
      <trkpt lat="45.91317" lon="6.35108">
        <ele>1098</ele>
        <time>2026-08-19T11:54:50.344Z</time>
      </trkpt>
      <trkpt lat="45.91318" lon="6.35106">
        <ele>1098</ele>
        <time>2026-08-19T11:54:51.344Z</time>
      </trkpt>
      <trkpt lat="45.91319" lon="6.35105">
        <ele>1098</ele>
        <time>2026-08-19T11:54:52.344Z</time>
      </trkpt>
      <trkpt lat="45.91319" lon="6.35104">
        <ele>1098</ele>
        <time>2026-08-19T11:54:53.344Z</time>
      </trkpt>
      <trkpt lat="45.91319" lon="6.35103">
        <ele>1098</ele>
        <time>2026-08-19T11:54:54.344Z</time>
      </trkpt>
      <trkpt lat="45.9132" lon="6.35101">
        <ele>1098</ele>
        <time>2026-08-19T11:54:55.344Z</time>
      </trkpt>
      <trkpt lat="45.91321" lon="6.351">
        <ele>1098</ele>
        <time>2026-08-19T11:54:56.344Z</time>
      </trkpt>
      <trkpt lat="45.91321" lon="6.35099">
        <ele>1099</ele>
        <time>2026-08-19T11:54:57.344Z</time>
      </trkpt>
      <trkpt lat="45.91322" lon="6.35097">
        <ele>1099</ele>
        <time>2026-08-19T11:54:58.344Z</time>
      </trkpt>
      <trkpt lat="45.91323" lon="6.35096">
        <ele>1099</ele>
        <time>2026-08-19T11:54:59.344Z</time>
      </trkpt>
      <trkpt lat="45.91323" lon="6.35094">
        <ele>1099</ele>
        <time>2026-08-19T11:55:00.344Z</time>
      </trkpt>
      <trkpt lat="45.91324" lon="6.35093">
        <ele>1099</ele>
        <time>2026-08-19T11:55:01.344Z</time>
      </trkpt>
      <trkpt lat="45.91324" lon="6.35092">
        <ele>1099</ele>
        <time>2026-08-19T11:55:02.344Z</time>
      </trkpt>
      <trkpt lat="45.91325" lon="6.35091">
        <ele>1100</ele>
        <time>2026-08-19T11:55:03.344Z</time>
      </trkpt>
      <trkpt lat="45.91326" lon="6.3509">
        <ele>1100</ele>
        <time>2026-08-19T11:55:04.344Z</time>
      </trkpt>
      <trkpt lat="45.91326" lon="6.35088">
        <ele>1100</ele>
        <time>2026-08-19T11:55:05.344Z</time>
      </trkpt>
      <trkpt lat="45.91327" lon="6.35087">
        <ele>1100</ele>
        <time>2026-08-19T11:55:06.344Z</time>
      </trkpt>
      <trkpt lat="45.91328" lon="6.35086">
        <ele>1101</ele>
        <time>2026-08-19T11:55:07.344Z</time>
      </trkpt>
      <trkpt lat="45.91328" lon="6.35085">
        <ele>1100</ele>
        <time>2026-08-19T11:55:08.344Z</time>
      </trkpt>
      <trkpt lat="45.91329" lon="6.35085">
        <ele>1100</ele>
        <time>2026-08-19T11:55:09.344Z</time>
      </trkpt>
      <trkpt lat="45.9133" lon="6.35084">
        <ele>1100</ele>
        <time>2026-08-19T11:55:10.344Z</time>
      </trkpt>
      <trkpt lat="45.91331" lon="6.35082">
        <ele>1100</ele>
        <time>2026-08-19T11:55:11.344Z</time>
      </trkpt>
      <trkpt lat="45.91331" lon="6.35081">
        <ele>1100</ele>
        <time>2026-08-19T11:55:12.344Z</time>
      </trkpt>
      <trkpt lat="45.91331" lon="6.35079">
        <ele>1101</ele>
        <time>2026-08-19T11:55:13.344Z</time>
      </trkpt>
      <trkpt lat="45.91331" lon="6.35078">
        <ele>1101</ele>
        <time>2026-08-19T11:55:14.344Z</time>
      </trkpt>
      <trkpt lat="45.9133" lon="6.35076">
        <ele>1101</ele>
        <time>2026-08-19T11:55:15.344Z</time>
      </trkpt>
      <trkpt lat="45.9133" lon="6.35075">
        <ele>1102</ele>
        <time>2026-08-19T11:55:16.344Z</time>
      </trkpt>
      <trkpt lat="45.91329" lon="6.35074">
        <ele>1102</ele>
        <time>2026-08-19T11:55:17.344Z</time>
      </trkpt>
      <trkpt lat="45.91328" lon="6.35073">
        <ele>1103</ele>
        <time>2026-08-19T11:55:18.344Z</time>
      </trkpt>
      <trkpt lat="45.91327" lon="6.35073">
        <ele>1103</ele>
        <time>2026-08-19T11:55:19.344Z</time>
      </trkpt>
      <trkpt lat="45.91326" lon="6.35072">
        <ele>1103</ele>
        <time>2026-08-19T11:55:20.344Z</time>
      </trkpt>
      <trkpt lat="45.91325" lon="6.35072">
        <ele>1104</ele>
        <time>2026-08-19T11:55:21.344Z</time>
      </trkpt>
      <trkpt lat="45.91323" lon="6.35071">
        <ele>1104</ele>
        <time>2026-08-19T11:55:22.344Z</time>
      </trkpt>
      <trkpt lat="45.91322" lon="6.35071">
        <ele>1105</ele>
        <time>2026-08-19T11:55:23.344Z</time>
      </trkpt>
      <trkpt lat="45.91321" lon="6.35071">
        <ele>1105</ele>
        <time>2026-08-19T11:55:24.344Z</time>
      </trkpt>
      <trkpt lat="45.9132" lon="6.35071">
        <ele>1106</ele>
        <time>2026-08-19T11:55:25.344Z</time>
      </trkpt>
      <trkpt lat="45.91319" lon="6.35071">
        <ele>1106</ele>
        <time>2026-08-19T11:55:26.344Z</time>
      </trkpt>
      <trkpt lat="45.91317" lon="6.35071">
        <ele>1106</ele>
        <time>2026-08-19T11:55:27.344Z</time>
      </trkpt>
      <trkpt lat="45.91316" lon="6.3507">
        <ele>1106</ele>
        <time>2026-08-19T11:55:28.344Z</time>
      </trkpt>
      <trkpt lat="45.91315" lon="6.3507">
        <ele>1106</ele>
        <time>2026-08-19T11:55:29.345Z</time>
      </trkpt>
      <trkpt lat="45.91314" lon="6.35069">
        <ele>1106</ele>
        <time>2026-08-19T11:55:30.344Z</time>
      </trkpt>
      <trkpt lat="45.91312" lon="6.35068">
        <ele>1106</ele>
        <time>2026-08-19T11:55:31.344Z</time>
      </trkpt>
      <trkpt lat="45.91311" lon="6.35067">
        <ele>1106</ele>
        <time>2026-08-19T11:55:32.344Z</time>
      </trkpt>
      <trkpt lat="45.9131" lon="6.35065">
        <ele>1106</ele>
        <time>2026-08-19T11:55:33.344Z</time>
      </trkpt>
      <trkpt lat="45.9131" lon="6.35064">
        <ele>1106</ele>
        <time>2026-08-19T11:55:34.344Z</time>
      </trkpt>
      <trkpt lat="45.91309" lon="6.35062">
        <ele>1106</ele>
        <time>2026-08-19T11:55:35.344Z</time>
      </trkpt>
      <trkpt lat="45.91309" lon="6.3506">
        <ele>1106</ele>
        <time>2026-08-19T11:55:36.344Z</time>
      </trkpt>
      <trkpt lat="45.91309" lon="6.35058">
        <ele>1106</ele>
        <time>2026-08-19T11:55:37.344Z</time>
      </trkpt>
      <trkpt lat="45.91308" lon="6.35056">
        <ele>1106</ele>
        <time>2026-08-19T11:55:38.344Z</time>
      </trkpt>
      <trkpt lat="45.91308" lon="6.35054">
        <ele>1106</ele>
        <time>2026-08-19T11:55:39.344Z</time>
      </trkpt>
      <trkpt lat="45.91308" lon="6.35052">
        <ele>1106</ele>
        <time>2026-08-19T11:55:40.344Z</time>
      </trkpt>
      <trkpt lat="45.91307" lon="6.3505">
        <ele>1106</ele>
        <time>2026-08-19T11:55:41.344Z</time>
      </trkpt>
      <trkpt lat="45.91306" lon="6.35049">
        <ele>1107</ele>
        <time>2026-08-19T11:55:42.344Z</time>
      </trkpt>
      <trkpt lat="45.91306" lon="6.35047">
        <ele>1107</ele>
        <time>2026-08-19T11:55:43.344Z</time>
      </trkpt>
      <trkpt lat="45.91305" lon="6.35045">
        <ele>1108</ele>
        <time>2026-08-19T11:55:44.344Z</time>
      </trkpt>
      <trkpt lat="45.91305" lon="6.35044">
        <ele>1108</ele>
        <time>2026-08-19T11:55:45.344Z</time>
      </trkpt>
      <trkpt lat="45.91305" lon="6.35042">
        <ele>1109</ele>
        <time>2026-08-19T11:55:46.344Z</time>
      </trkpt>
      <trkpt lat="45.91304" lon="6.3504">
        <ele>1109</ele>
        <time>2026-08-19T11:55:47.344Z</time>
      </trkpt>
      <trkpt lat="45.91304" lon="6.35039">
        <ele>1109</ele>
        <time>2026-08-19T11:55:48.344Z</time>
      </trkpt>
      <trkpt lat="45.91303" lon="6.35037">
        <ele>1110</ele>
        <time>2026-08-19T11:55:49.344Z</time>
      </trkpt>
      <trkpt lat="45.91302" lon="6.35036">
        <ele>1110</ele>
        <time>2026-08-19T11:55:50.344Z</time>
      </trkpt>
      <trkpt lat="45.91302" lon="6.35034">
        <ele>1110</ele>
        <time>2026-08-19T11:55:51.344Z</time>
      </trkpt>
      <trkpt lat="45.91302" lon="6.35032">
        <ele>1110</ele>
        <time>2026-08-19T11:55:52.344Z</time>
      </trkpt>
      <trkpt lat="45.91302" lon="6.35031">
        <ele>1111</ele>
        <time>2026-08-19T11:55:53.344Z</time>
      </trkpt>
      <trkpt lat="45.91301" lon="6.35029">
        <ele>1111</ele>
        <time>2026-08-19T11:55:54.344Z</time>
      </trkpt>
      <trkpt lat="45.91301" lon="6.35027">
        <ele>1111</ele>
        <time>2026-08-19T11:55:55.344Z</time>
      </trkpt>
      <trkpt lat="45.913" lon="6.35026">
        <ele>1111</ele>
        <time>2026-08-19T11:55:56.344Z</time>
      </trkpt>
      <trkpt lat="45.913" lon="6.35024">
        <ele>1112</ele>
        <time>2026-08-19T11:55:57.344Z</time>
      </trkpt>
      <trkpt lat="45.913" lon="6.35023">
        <ele>1113</ele>
        <time>2026-08-19T11:55:58.344Z</time>
      </trkpt>
      <trkpt lat="45.91299" lon="6.35021">
        <ele>1113</ele>
        <time>2026-08-19T11:55:59.344Z</time>
      </trkpt>
      <trkpt lat="45.91299" lon="6.35019">
        <ele>1113</ele>
        <time>2026-08-19T11:56:00.344Z</time>
      </trkpt>
      <trkpt lat="45.91299" lon="6.35017">
        <ele>1113</ele>
        <time>2026-08-19T11:56:01.344Z</time>
      </trkpt>
      <trkpt lat="45.91299" lon="6.35016">
        <ele>1114</ele>
        <time>2026-08-19T11:56:02.344Z</time>
      </trkpt>
      <trkpt lat="45.91299" lon="6.35014">
        <ele>1114</ele>
        <time>2026-08-19T11:56:03.344Z</time>
      </trkpt>
      <trkpt lat="45.91298" lon="6.35012">
        <ele>1114</ele>
        <time>2026-08-19T11:56:04.344Z</time>
      </trkpt>
      <trkpt lat="45.91298" lon="6.35011">
        <ele>1114</ele>
        <time>2026-08-19T11:56:05.344Z</time>
      </trkpt>
      <trkpt lat="45.91298" lon="6.35009">
        <ele>1115</ele>
        <time>2026-08-19T11:56:06.344Z</time>
      </trkpt>
      <trkpt lat="45.91297" lon="6.35008">
        <ele>1115</ele>
        <time>2026-08-19T11:56:07.344Z</time>
      </trkpt>
      <trkpt lat="45.91297" lon="6.35006">
        <ele>1114</ele>
        <time>2026-08-19T11:56:08.344Z</time>
      </trkpt>
      <trkpt lat="45.91297" lon="6.35004">
        <ele>1114</ele>
        <time>2026-08-19T11:56:09.344Z</time>
      </trkpt>
      <trkpt lat="45.91296" lon="6.35003">
        <ele>1115</ele>
        <time>2026-08-19T11:56:10.344Z</time>
      </trkpt>
      <trkpt lat="45.91296" lon="6.35001">
        <ele>1115</ele>
        <time>2026-08-19T11:56:11.344Z</time>
      </trkpt>
      <trkpt lat="45.91295" lon="6.35">
        <ele>1115</ele>
        <time>2026-08-19T11:56:12.344Z</time>
      </trkpt>
      <trkpt lat="45.91295" lon="6.34998">
        <ele>1115</ele>
        <time>2026-08-19T11:56:13.344Z</time>
      </trkpt>
      <trkpt lat="45.91295" lon="6.34996">
        <ele>1116</ele>
        <time>2026-08-19T11:56:14.344Z</time>
      </trkpt>
      <trkpt lat="45.91295" lon="6.34994">
        <ele>1116</ele>
        <time>2026-08-19T11:56:15.344Z</time>
      </trkpt>
      <trkpt lat="45.91295" lon="6.34993">
        <ele>1116</ele>
        <time>2026-08-19T11:56:16.344Z</time>
      </trkpt>
      <trkpt lat="45.91295" lon="6.34991">
        <ele>1116</ele>
        <time>2026-08-19T11:56:17.344Z</time>
      </trkpt>
      <trkpt lat="45.91294" lon="6.34989">
        <ele>1116</ele>
        <time>2026-08-19T11:56:18.344Z</time>
      </trkpt>
      <trkpt lat="45.91294" lon="6.34987">
        <ele>1116</ele>
        <time>2026-08-19T11:56:19.344Z</time>
      </trkpt>
      <trkpt lat="45.91294" lon="6.34986">
        <ele>1116</ele>
        <time>2026-08-19T11:56:20.344Z</time>
      </trkpt>
      <trkpt lat="45.91294" lon="6.34984">
        <ele>1116</ele>
        <time>2026-08-19T11:56:21.344Z</time>
      </trkpt>
      <trkpt lat="45.91294" lon="6.34982">
        <ele>1115</ele>
        <time>2026-08-19T11:56:22.344Z</time>
      </trkpt>
      <trkpt lat="45.91294" lon="6.3498">
        <ele>1115</ele>
        <time>2026-08-19T11:56:23.344Z</time>
      </trkpt>
      <trkpt lat="45.91294" lon="6.34978">
        <ele>1115</ele>
        <time>2026-08-19T11:56:24.344Z</time>
      </trkpt>
      <trkpt lat="45.91294" lon="6.34977">
        <ele>1115</ele>
        <time>2026-08-19T11:56:25.344Z</time>
      </trkpt>
      <trkpt lat="45.91294" lon="6.34974">
        <ele>1115</ele>
        <time>2026-08-19T11:56:26.344Z</time>
      </trkpt>
      <trkpt lat="45.91294" lon="6.34972">
        <ele>1115</ele>
        <time>2026-08-19T11:56:27.344Z</time>
      </trkpt>
      <trkpt lat="45.91295" lon="6.3497">
        <ele>1115</ele>
        <time>2026-08-19T11:56:28.344Z</time>
      </trkpt>
      <trkpt lat="45.91295" lon="6.34968">
        <ele>1115</ele>
        <time>2026-08-19T11:56:29.344Z</time>
      </trkpt>
      <trkpt lat="45.91296" lon="6.34966">
        <ele>1114</ele>
        <time>2026-08-19T11:56:30.344Z</time>
      </trkpt>
      <trkpt lat="45.91296" lon="6.34964">
        <ele>1114</ele>
        <time>2026-08-19T11:56:31.344Z</time>
      </trkpt>
      <trkpt lat="45.91297" lon="6.34962">
        <ele>1114</ele>
        <time>2026-08-19T11:56:32.344Z</time>
      </trkpt>
      <trkpt lat="45.91298" lon="6.3496">
        <ele>1114</ele>
        <time>2026-08-19T11:56:33.344Z</time>
      </trkpt>
      <trkpt lat="45.91298" lon="6.34959">
        <ele>1114</ele>
        <time>2026-08-19T11:56:34.344Z</time>
      </trkpt>
      <trkpt lat="45.91298" lon="6.34957">
        <ele>1114</ele>
        <time>2026-08-19T11:56:35.344Z</time>
      </trkpt>
      <trkpt lat="45.91299" lon="6.34955">
        <ele>1114</ele>
        <time>2026-08-19T11:56:36.344Z</time>
      </trkpt>
      <trkpt lat="45.91299" lon="6.34953">
        <ele>1114</ele>
        <time>2026-08-19T11:56:37.344Z</time>
      </trkpt>
      <trkpt lat="45.91299" lon="6.34952">
        <ele>1114</ele>
        <time>2026-08-19T11:56:38.344Z</time>
      </trkpt>
      <trkpt lat="45.913" lon="6.3495">
        <ele>1114</ele>
        <time>2026-08-19T11:56:39.345Z</time>
      </trkpt>
      <trkpt lat="45.913" lon="6.34949">
        <ele>1114</ele>
        <time>2026-08-19T11:56:40.344Z</time>
      </trkpt>
      <trkpt lat="45.913" lon="6.34946">
        <ele>1114</ele>
        <time>2026-08-19T11:56:41.344Z</time>
      </trkpt>
      <trkpt lat="45.913" lon="6.34944">
        <ele>1113</ele>
        <time>2026-08-19T11:56:42.344Z</time>
      </trkpt>
      <trkpt lat="45.91301" lon="6.34942">
        <ele>1113</ele>
        <time>2026-08-19T11:56:43.344Z</time>
      </trkpt>
      <trkpt lat="45.91301" lon="6.34941">
        <ele>1113</ele>
        <time>2026-08-19T11:56:44.344Z</time>
      </trkpt>
      <trkpt lat="45.91301" lon="6.3494">
        <ele>1112</ele>
        <time>2026-08-19T11:56:45.344Z</time>
      </trkpt>
      <trkpt lat="45.91302" lon="6.34938">
        <ele>1112</ele>
        <time>2026-08-19T11:56:46.344Z</time>
      </trkpt>
      <trkpt lat="45.91302" lon="6.34937">
        <ele>1112</ele>
        <time>2026-08-19T11:56:47.344Z</time>
      </trkpt>
      <trkpt lat="45.91302" lon="6.34936">
        <ele>1112</ele>
        <time>2026-08-19T11:56:48.344Z</time>
      </trkpt>
      <trkpt lat="45.91302" lon="6.34936">
        <ele>1112</ele>
        <time>2026-08-19T11:56:49.344Z</time>
      </trkpt>
      <trkpt lat="45.91302" lon="6.34935">
        <ele>1112</ele>
        <time>2026-08-19T11:56:50.344Z</time>
      </trkpt>
      <trkpt lat="45.91302" lon="6.34934">
        <ele>1112</ele>
        <time>2026-08-19T11:56:51.344Z</time>
      </trkpt>
      <trkpt lat="45.91302" lon="6.34932">
        <ele>1113</ele>
        <time>2026-08-19T11:56:52.344Z</time>
      </trkpt>
      <trkpt lat="45.91302" lon="6.34931">
        <ele>1113</ele>
        <time>2026-08-19T11:56:53.344Z</time>
      </trkpt>
      <trkpt lat="45.91301" lon="6.3493">
        <ele>1113</ele>
        <time>2026-08-19T11:56:54.344Z</time>
      </trkpt>
      <trkpt lat="45.913" lon="6.34929">
        <ele>1114</ele>
        <time>2026-08-19T11:56:55.344Z</time>
      </trkpt>
      <trkpt lat="45.913" lon="6.34929">
        <ele>1114</ele>
        <time>2026-08-19T11:56:56.344Z</time>
      </trkpt>
      <trkpt lat="45.91299" lon="6.34929">
        <ele>1114</ele>
        <time>2026-08-19T11:56:57.345Z</time>
      </trkpt>
      <trkpt lat="45.91298" lon="6.34929">
        <ele>1115</ele>
        <time>2026-08-19T11:56:58.344Z</time>
      </trkpt>
      <trkpt lat="45.91297" lon="6.34929">
        <ele>1115</ele>
        <time>2026-08-19T11:56:59.344Z</time>
      </trkpt>
      <trkpt lat="45.91296" lon="6.3493">
        <ele>1115</ele>
        <time>2026-08-19T11:57:00.344Z</time>
      </trkpt>
      <trkpt lat="45.91295" lon="6.3493">
        <ele>1115</ele>
        <time>2026-08-19T11:57:01.344Z</time>
      </trkpt>
      <trkpt lat="45.91293" lon="6.3493">
        <ele>1116</ele>
        <time>2026-08-19T11:57:02.344Z</time>
      </trkpt>
      <trkpt lat="45.91293" lon="6.3493">
        <ele>1116</ele>
        <time>2026-08-19T11:57:03.344Z</time>
      </trkpt>
      <trkpt lat="45.91292" lon="6.3493">
        <ele>1117</ele>
        <time>2026-08-19T11:57:04.344Z</time>
      </trkpt>
      <trkpt lat="45.91291" lon="6.3493">
        <ele>1117</ele>
        <time>2026-08-19T11:57:05.344Z</time>
      </trkpt>
      <trkpt lat="45.91291" lon="6.34931">
        <ele>1118</ele>
        <time>2026-08-19T11:57:06.344Z</time>
      </trkpt>
      <trkpt lat="45.9129" lon="6.34931">
        <ele>1118</ele>
        <time>2026-08-19T11:57:07.344Z</time>
      </trkpt>
      <trkpt lat="45.91288" lon="6.34931">
        <ele>1119</ele>
        <time>2026-08-19T11:57:08.344Z</time>
      </trkpt>
      <trkpt lat="45.91287" lon="6.3493">
        <ele>1119</ele>
        <time>2026-08-19T11:57:09.344Z</time>
      </trkpt>
      <trkpt lat="45.91286" lon="6.3493">
        <ele>1120</ele>
        <time>2026-08-19T11:57:10.344Z</time>
      </trkpt>
      <trkpt lat="45.91286" lon="6.3493">
        <ele>1120</ele>
        <time>2026-08-19T11:57:11.344Z</time>
      </trkpt>
      <trkpt lat="45.91286" lon="6.3493">
        <ele>1121</ele>
        <time>2026-08-19T11:57:12.344Z</time>
      </trkpt>
      <trkpt lat="45.91286" lon="6.3493">
        <ele>1121</ele>
        <time>2026-08-19T11:57:13.344Z</time>
      </trkpt>
      <trkpt lat="45.91286" lon="6.34929">
        <ele>1121</ele>
        <time>2026-08-19T11:57:14.344Z</time>
      </trkpt>
      <trkpt lat="45.91286" lon="6.3493">
        <ele>1121</ele>
        <time>2026-08-19T11:57:15.344Z</time>
      </trkpt>
      <trkpt lat="45.91286" lon="6.3493">
        <ele>1121</ele>
        <time>2026-08-19T11:57:16.344Z</time>
      </trkpt>
      <trkpt lat="45.91286" lon="6.34928">
        <ele>1121</ele>
        <time>2026-08-19T11:57:17.344Z</time>
      </trkpt>
      <trkpt lat="45.91286" lon="6.34927">
        <ele>1120</ele>
        <time>2026-08-19T11:57:18.344Z</time>
      </trkpt>
      <trkpt lat="45.91286" lon="6.34927">
        <ele>1120</ele>
        <time>2026-08-19T11:57:19.344Z</time>
      </trkpt>
      <trkpt lat="45.91285" lon="6.34928">
        <ele>1120</ele>
        <time>2026-08-19T11:57:20.345Z</time>
      </trkpt>
      <trkpt lat="45.91285" lon="6.34929">
        <ele>1121</ele>
        <time>2026-08-19T11:57:21.344Z</time>
      </trkpt>
      <trkpt lat="45.91284" lon="6.34929">
        <ele>1121</ele>
        <time>2026-08-19T11:57:22.344Z</time>
      </trkpt>
      <trkpt lat="45.91283" lon="6.34929">
        <ele>1122</ele>
        <time>2026-08-19T11:57:23.344Z</time>
      </trkpt>
      <trkpt lat="45.91282" lon="6.34928">
        <ele>1122</ele>
        <time>2026-08-19T11:57:24.344Z</time>
      </trkpt>
      <trkpt lat="45.91281" lon="6.34927">
        <ele>1123</ele>
        <time>2026-08-19T11:57:25.344Z</time>
      </trkpt>
      <trkpt lat="45.9128" lon="6.34927">
        <ele>1123</ele>
        <time>2026-08-19T11:57:26.344Z</time>
      </trkpt>
      <trkpt lat="45.91279" lon="6.34926">
        <ele>1124</ele>
        <time>2026-08-19T11:57:27.344Z</time>
      </trkpt>
      <trkpt lat="45.91278" lon="6.34925">
        <ele>1124</ele>
        <time>2026-08-19T11:57:28.344Z</time>
      </trkpt>
      <trkpt lat="45.91277" lon="6.34925">
        <ele>1125</ele>
        <time>2026-08-19T11:57:29.344Z</time>
      </trkpt>
      <trkpt lat="45.91276" lon="6.34923">
        <ele>1125</ele>
        <time>2026-08-19T11:57:30.344Z</time>
      </trkpt>
      <trkpt lat="45.91275" lon="6.34922">
        <ele>1125</ele>
        <time>2026-08-19T11:57:31.344Z</time>
      </trkpt>
      <trkpt lat="45.91275" lon="6.34921">
        <ele>1125</ele>
        <time>2026-08-19T11:57:32.344Z</time>
      </trkpt>
      <trkpt lat="45.91274" lon="6.34921">
        <ele>1124</ele>
        <time>2026-08-19T11:57:33.344Z</time>
      </trkpt>
      <trkpt lat="45.91273" lon="6.3492">
        <ele>1124</ele>
        <time>2026-08-19T11:57:34.344Z</time>
      </trkpt>
      <trkpt lat="45.91272" lon="6.34919">
        <ele>1125</ele>
        <time>2026-08-19T11:57:35.344Z</time>
      </trkpt>
      <trkpt lat="45.91271" lon="6.34918">
        <ele>1125</ele>
        <time>2026-08-19T11:57:36.344Z</time>
      </trkpt>
      <trkpt lat="45.9127" lon="6.34917">
        <ele>1125</ele>
        <time>2026-08-19T11:57:37.344Z</time>
      </trkpt>
      <trkpt lat="45.9127" lon="6.34916">
        <ele>1125</ele>
        <time>2026-08-19T11:57:38.344Z</time>
      </trkpt>
      <trkpt lat="45.91269" lon="6.34915">
        <ele>1125</ele>
        <time>2026-08-19T11:57:39.344Z</time>
      </trkpt>
      <trkpt lat="45.91268" lon="6.34914">
        <ele>1125</ele>
        <time>2026-08-19T11:57:40.344Z</time>
      </trkpt>
      <trkpt lat="45.91267" lon="6.34913">
        <ele>1125</ele>
        <time>2026-08-19T11:57:41.344Z</time>
      </trkpt>
      <trkpt lat="45.91266" lon="6.34911">
        <ele>1126</ele>
        <time>2026-08-19T11:57:42.344Z</time>
      </trkpt>
      <trkpt lat="45.91265" lon="6.3491">
        <ele>1126</ele>
        <time>2026-08-19T11:57:43.344Z</time>
      </trkpt>
      <trkpt lat="45.91264" lon="6.34909">
        <ele>1125</ele>
        <time>2026-08-19T11:57:44.344Z</time>
      </trkpt>
      <trkpt lat="45.91263" lon="6.34907">
        <ele>1125</ele>
        <time>2026-08-19T11:57:45.344Z</time>
      </trkpt>
      <trkpt lat="45.91263" lon="6.34906">
        <ele>1125</ele>
        <time>2026-08-19T11:57:46.344Z</time>
      </trkpt>
      <trkpt lat="45.91262" lon="6.34905">
        <ele>1125</ele>
        <time>2026-08-19T11:57:47.344Z</time>
      </trkpt>
      <trkpt lat="45.91261" lon="6.34903">
        <ele>1125</ele>
        <time>2026-08-19T11:57:48.344Z</time>
      </trkpt>
      <trkpt lat="45.9126" lon="6.34902">
        <ele>1125</ele>
        <time>2026-08-19T11:57:49.344Z</time>
      </trkpt>
      <trkpt lat="45.91259" lon="6.34901">
        <ele>1125</ele>
        <time>2026-08-19T11:57:50.344Z</time>
      </trkpt>
      <trkpt lat="45.91258" lon="6.349">
        <ele>1125</ele>
        <time>2026-08-19T11:57:51.344Z</time>
      </trkpt>
      <trkpt lat="45.91257" lon="6.34898">
        <ele>1125</ele>
        <time>2026-08-19T11:57:52.344Z</time>
      </trkpt>
      <trkpt lat="45.91256" lon="6.34897">
        <ele>1125</ele>
        <time>2026-08-19T11:57:53.344Z</time>
      </trkpt>
      <trkpt lat="45.91256" lon="6.34896">
        <ele>1125</ele>
        <time>2026-08-19T11:57:54.344Z</time>
      </trkpt>
      <trkpt lat="45.91255" lon="6.34895">
        <ele>1125</ele>
        <time>2026-08-19T11:57:55.344Z</time>
      </trkpt>
      <trkpt lat="45.91254" lon="6.34894">
        <ele>1125</ele>
        <time>2026-08-19T11:57:56.344Z</time>
      </trkpt>
      <trkpt lat="45.91253" lon="6.34892">
        <ele>1125</ele>
        <time>2026-08-19T11:57:57.344Z</time>
      </trkpt>
      <trkpt lat="45.91253" lon="6.34891">
        <ele>1125</ele>
        <time>2026-08-19T11:57:58.344Z</time>
      </trkpt>
      <trkpt lat="45.91252" lon="6.3489">
        <ele>1125</ele>
        <time>2026-08-19T11:57:59.344Z</time>
      </trkpt>
      <trkpt lat="45.91251" lon="6.34889">
        <ele>1125</ele>
        <time>2026-08-19T11:58:00.344Z</time>
      </trkpt>
      <trkpt lat="45.9125" lon="6.34888">
        <ele>1125</ele>
        <time>2026-08-19T11:58:01.344Z</time>
      </trkpt>
      <trkpt lat="45.9125" lon="6.34887">
        <ele>1126</ele>
        <time>2026-08-19T11:58:02.344Z</time>
      </trkpt>
      <trkpt lat="45.91249" lon="6.34886">
        <ele>1126</ele>
        <time>2026-08-19T11:58:03.344Z</time>
      </trkpt>
      <trkpt lat="45.91249" lon="6.34885">
        <ele>1126</ele>
        <time>2026-08-19T11:58:04.344Z</time>
      </trkpt>
      <trkpt lat="45.91248" lon="6.34884">
        <ele>1126</ele>
        <time>2026-08-19T11:58:05.344Z</time>
      </trkpt>
      <trkpt lat="45.91247" lon="6.34883">
        <ele>1126</ele>
        <time>2026-08-19T11:58:06.344Z</time>
      </trkpt>
      <trkpt lat="45.91246" lon="6.34882">
        <ele>1127</ele>
        <time>2026-08-19T11:58:07.344Z</time>
      </trkpt>
      <trkpt lat="45.91246" lon="6.34881">
        <ele>1127</ele>
        <time>2026-08-19T11:58:08.344Z</time>
      </trkpt>
      <trkpt lat="45.91245" lon="6.3488">
        <ele>1127</ele>
        <time>2026-08-19T11:58:09.344Z</time>
      </trkpt>
      <trkpt lat="45.91244" lon="6.34878">
        <ele>1128</ele>
        <time>2026-08-19T11:58:10.344Z</time>
      </trkpt>
      <trkpt lat="45.91244" lon="6.34877">
        <ele>1128</ele>
        <time>2026-08-19T11:58:11.344Z</time>
      </trkpt>
      <trkpt lat="45.91243" lon="6.34876">
        <ele>1128</ele>
        <time>2026-08-19T11:58:12.344Z</time>
      </trkpt>
      <trkpt lat="45.91242" lon="6.34874">
        <ele>1128</ele>
        <time>2026-08-19T11:58:13.344Z</time>
      </trkpt>
      <trkpt lat="45.91242" lon="6.34873">
        <ele>1128</ele>
        <time>2026-08-19T11:58:14.344Z</time>
      </trkpt>
      <trkpt lat="45.91241" lon="6.34872">
        <ele>1128</ele>
        <time>2026-08-19T11:58:15.344Z</time>
      </trkpt>
      <trkpt lat="45.91241" lon="6.34871">
        <ele>1128</ele>
        <time>2026-08-19T11:58:16.344Z</time>
      </trkpt>
      <trkpt lat="45.9124" lon="6.3487">
        <ele>1128</ele>
        <time>2026-08-19T11:58:17.344Z</time>
      </trkpt>
      <trkpt lat="45.9124" lon="6.34869">
        <ele>1129</ele>
        <time>2026-08-19T11:58:18.344Z</time>
      </trkpt>
      <trkpt lat="45.91239" lon="6.34868">
        <ele>1129</ele>
        <time>2026-08-19T11:58:19.344Z</time>
      </trkpt>
      <trkpt lat="45.91239" lon="6.34867">
        <ele>1129</ele>
        <time>2026-08-19T11:58:20.344Z</time>
      </trkpt>
      <trkpt lat="45.91239" lon="6.34866">
        <ele>1129</ele>
        <time>2026-08-19T11:58:21.344Z</time>
      </trkpt>
      <trkpt lat="45.91239" lon="6.34865">
        <ele>1129</ele>
        <time>2026-08-19T11:58:22.344Z</time>
      </trkpt>
      <trkpt lat="45.91239" lon="6.34865">
        <ele>1129</ele>
        <time>2026-08-19T11:58:23.344Z</time>
      </trkpt>
      <trkpt lat="45.91239" lon="6.34864">
        <ele>1128</ele>
        <time>2026-08-19T11:58:24.344Z</time>
      </trkpt>
      <trkpt lat="45.91239" lon="6.34864">
        <ele>1128</ele>
        <time>2026-08-19T11:58:25.344Z</time>
      </trkpt>
      <trkpt lat="45.91239" lon="6.34864">
        <ele>1128</ele>
        <time>2026-08-19T11:58:26.344Z</time>
      </trkpt>
      <trkpt lat="45.91239" lon="6.34864">
        <ele>1128</ele>
        <time>2026-08-19T11:58:27.344Z</time>
      </trkpt>
      <trkpt lat="45.91238" lon="6.34864">
        <ele>1128</ele>
        <time>2026-08-19T11:58:28.344Z</time>
      </trkpt>
      <trkpt lat="45.91238" lon="6.34864">
        <ele>1128</ele>
        <time>2026-08-19T11:58:29.344Z</time>
      </trkpt>
      <trkpt lat="45.91238" lon="6.34865">
        <ele>1128</ele>
        <time>2026-08-19T11:58:30.344Z</time>
      </trkpt>
      <trkpt lat="45.91237" lon="6.34866">
        <ele>1128</ele>
        <time>2026-08-19T11:58:31.344Z</time>
      </trkpt>
      <trkpt lat="45.91236" lon="6.34867">
        <ele>1128</ele>
        <time>2026-08-19T11:58:32.344Z</time>
      </trkpt>
      <trkpt lat="45.91236" lon="6.34868">
        <ele>1128</ele>
        <time>2026-08-19T11:58:33.344Z</time>
      </trkpt>
      <trkpt lat="45.91234" lon="6.34869">
        <ele>1128</ele>
        <time>2026-08-19T11:58:34.344Z</time>
      </trkpt>
      <trkpt lat="45.91233" lon="6.3487">
        <ele>1128</ele>
        <time>2026-08-19T11:58:35.344Z</time>
      </trkpt>
      <trkpt lat="45.91233" lon="6.3487">
        <ele>1128</ele>
        <time>2026-08-19T11:58:36.344Z</time>
      </trkpt>
      <trkpt lat="45.91233" lon="6.34871">
        <ele>1128</ele>
        <time>2026-08-19T11:58:37.344Z</time>
      </trkpt>
      <trkpt lat="45.91232" lon="6.34871">
        <ele>1129</ele>
        <time>2026-08-19T11:58:38.344Z</time>
      </trkpt>
      <trkpt lat="45.91232" lon="6.34871">
        <ele>1129</ele>
        <time>2026-08-19T11:58:39.344Z</time>
      </trkpt>
      <trkpt lat="45.91232" lon="6.34871">
        <ele>1130</ele>
        <time>2026-08-19T11:58:40.344Z</time>
      </trkpt>
      <trkpt lat="45.91232" lon="6.34871">
        <ele>1130</ele>
        <time>2026-08-19T11:58:41.344Z</time>
      </trkpt>
      <trkpt lat="45.91232" lon="6.34871">
        <ele>1130</ele>
        <time>2026-08-19T11:58:42.344Z</time>
      </trkpt>
      <trkpt lat="45.91231" lon="6.34872">
        <ele>1131</ele>
        <time>2026-08-19T11:58:43.345Z</time>
      </trkpt>
      <trkpt lat="45.91231" lon="6.34873">
        <ele>1131</ele>
        <time>2026-08-19T11:58:44.344Z</time>
      </trkpt>
      <trkpt lat="45.9123" lon="6.34874">
        <ele>1131</ele>
        <time>2026-08-19T11:58:45.344Z</time>
      </trkpt>
      <trkpt lat="45.9123" lon="6.34876">
        <ele>1131</ele>
        <time>2026-08-19T11:58:46.344Z</time>
      </trkpt>
      <trkpt lat="45.91229" lon="6.34876">
        <ele>1131</ele>
        <time>2026-08-19T11:58:47.344Z</time>
      </trkpt>
      <trkpt lat="45.91229" lon="6.34878">
        <ele>1131</ele>
        <time>2026-08-19T11:58:48.344Z</time>
      </trkpt>
      <trkpt lat="45.91228" lon="6.34879">
        <ele>1131</ele>
        <time>2026-08-19T11:58:49.344Z</time>
      </trkpt>
      <trkpt lat="45.91228" lon="6.34881">
        <ele>1131</ele>
        <time>2026-08-19T11:58:50.344Z</time>
      </trkpt>
      <trkpt lat="45.91228" lon="6.34883">
        <ele>1131</ele>
        <time>2026-08-19T11:58:51.344Z</time>
      </trkpt>
      <trkpt lat="45.91227" lon="6.34886">
        <ele>1131</ele>
        <time>2026-08-19T11:58:52.344Z</time>
      </trkpt>
      <trkpt lat="45.91228" lon="6.34888">
        <ele>1130</ele>
        <time>2026-08-19T11:58:53.344Z</time>
      </trkpt>
      <trkpt lat="45.91228" lon="6.3489">
        <ele>1130</ele>
        <time>2026-08-19T11:58:54.344Z</time>
      </trkpt>
      <trkpt lat="45.91228" lon="6.34893">
        <ele>1130</ele>
        <time>2026-08-19T11:58:55.344Z</time>
      </trkpt>
      <trkpt lat="45.91228" lon="6.34895">
        <ele>1130</ele>
        <time>2026-08-19T11:58:56.344Z</time>
      </trkpt>
      <trkpt lat="45.91228" lon="6.34898">
        <ele>1130</ele>
        <time>2026-08-19T11:58:57.344Z</time>
      </trkpt>
      <trkpt lat="45.91229" lon="6.34901">
        <ele>1130</ele>
        <time>2026-08-19T11:58:58.344Z</time>
      </trkpt>
      <trkpt lat="45.91229" lon="6.34904">
        <ele>1130</ele>
        <time>2026-08-19T11:58:59.344Z</time>
      </trkpt>
      <trkpt lat="45.91229" lon="6.34906">
        <ele>1130</ele>
        <time>2026-08-19T11:59:00.344Z</time>
      </trkpt>
      <trkpt lat="45.91229" lon="6.34909">
        <ele>1130</ele>
        <time>2026-08-19T11:59:01.344Z</time>
      </trkpt>
      <trkpt lat="45.9123" lon="6.34911">
        <ele>1130</ele>
        <time>2026-08-19T11:59:02.344Z</time>
      </trkpt>
      <trkpt lat="45.9123" lon="6.34914">
        <ele>1129</ele>
        <time>2026-08-19T11:59:03.344Z</time>
      </trkpt>
      <trkpt lat="45.9123" lon="6.34916">
        <ele>1129</ele>
        <time>2026-08-19T11:59:04.344Z</time>
      </trkpt>
      <trkpt lat="45.9123" lon="6.34919">
        <ele>1129</ele>
        <time>2026-08-19T11:59:05.344Z</time>
      </trkpt>
      <trkpt lat="45.9123" lon="6.34921">
        <ele>1129</ele>
        <time>2026-08-19T11:59:06.344Z</time>
      </trkpt>
      <trkpt lat="45.9123" lon="6.34923">
        <ele>1129</ele>
        <time>2026-08-19T11:59:07.344Z</time>
      </trkpt>
      <trkpt lat="45.9123" lon="6.34925">
        <ele>1129</ele>
        <time>2026-08-19T11:59:08.344Z</time>
      </trkpt>
      <trkpt lat="45.9123" lon="6.34928">
        <ele>1129</ele>
        <time>2026-08-19T11:59:09.344Z</time>
      </trkpt>
      <trkpt lat="45.91231" lon="6.3493">
        <ele>1129</ele>
        <time>2026-08-19T11:59:10.344Z</time>
      </trkpt>
      <trkpt lat="45.91231" lon="6.34931">
        <ele>1129</ele>
        <time>2026-08-19T11:59:11.344Z</time>
      </trkpt>
      <trkpt lat="45.91232" lon="6.34933">
        <ele>1129</ele>
        <time>2026-08-19T11:59:12.344Z</time>
      </trkpt>
      <trkpt lat="45.91232" lon="6.34935">
        <ele>1128</ele>
        <time>2026-08-19T11:59:13.344Z</time>
      </trkpt>
      <trkpt lat="45.91233" lon="6.34936">
        <ele>1128</ele>
        <time>2026-08-19T11:59:14.344Z</time>
      </trkpt>
      <trkpt lat="45.91233" lon="6.34938">
        <ele>1127</ele>
        <time>2026-08-19T11:59:15.344Z</time>
      </trkpt>
      <trkpt lat="45.91233" lon="6.3494">
        <ele>1126</ele>
        <time>2026-08-19T11:59:16.344Z</time>
      </trkpt>
      <trkpt lat="45.91234" lon="6.34941">
        <ele>1126</ele>
        <time>2026-08-19T11:59:17.344Z</time>
      </trkpt>
      <trkpt lat="45.91234" lon="6.34943">
        <ele>1125</ele>
        <time>2026-08-19T11:59:18.344Z</time>
      </trkpt>
      <trkpt lat="45.91235" lon="6.34945">
        <ele>1125</ele>
        <time>2026-08-19T11:59:19.344Z</time>
      </trkpt>
      <trkpt lat="45.91236" lon="6.34947">
        <ele>1124</ele>
        <time>2026-08-19T11:59:20.344Z</time>
      </trkpt>
      <trkpt lat="45.91236" lon="6.3495">
        <ele>1124</ele>
        <time>2026-08-19T11:59:21.344Z</time>
      </trkpt>
      <trkpt lat="45.91236" lon="6.34952">
        <ele>1123</ele>
        <time>2026-08-19T11:59:22.344Z</time>
      </trkpt>
      <trkpt lat="45.91236" lon="6.34954">
        <ele>1123</ele>
        <time>2026-08-19T11:59:23.344Z</time>
      </trkpt>
      <trkpt lat="45.91236" lon="6.34957">
        <ele>1123</ele>
        <time>2026-08-19T11:59:24.344Z</time>
      </trkpt>
      <trkpt lat="45.91235" lon="6.34958">
        <ele>1122</ele>
        <time>2026-08-19T11:59:25.344Z</time>
      </trkpt>
      <trkpt lat="45.91235" lon="6.3496">
        <ele>1122</ele>
        <time>2026-08-19T11:59:26.344Z</time>
      </trkpt>
      <trkpt lat="45.91235" lon="6.34963">
        <ele>1121</ele>
        <time>2026-08-19T11:59:27.344Z</time>
      </trkpt>
      <trkpt lat="45.91234" lon="6.34965">
        <ele>1121</ele>
        <time>2026-08-19T11:59:28.344Z</time>
      </trkpt>
      <trkpt lat="45.91233" lon="6.34966">
        <ele>1120</ele>
        <time>2026-08-19T11:59:29.344Z</time>
      </trkpt>
      <trkpt lat="45.91231" lon="6.34968">
        <ele>1120</ele>
        <time>2026-08-19T11:59:30.344Z</time>
      </trkpt>
      <trkpt lat="45.9123" lon="6.34969">
        <ele>1119</ele>
        <time>2026-08-19T11:59:31.344Z</time>
      </trkpt>
      <trkpt lat="45.91228" lon="6.3497">
        <ele>1119</ele>
        <time>2026-08-19T11:59:32.344Z</time>
      </trkpt>
      <trkpt lat="45.91227" lon="6.3497">
        <ele>1119</ele>
        <time>2026-08-19T11:59:33.344Z</time>
      </trkpt>
      <trkpt lat="45.91225" lon="6.34969">
        <ele>1119</ele>
        <time>2026-08-19T11:59:34.344Z</time>
      </trkpt>
      <trkpt lat="45.91224" lon="6.34968">
        <ele>1118</ele>
        <time>2026-08-19T11:59:35.344Z</time>
      </trkpt>
      <trkpt lat="45.91223" lon="6.34966">
        <ele>1118</ele>
        <time>2026-08-19T11:59:36.344Z</time>
      </trkpt>
      <trkpt lat="45.91222" lon="6.34964">
        <ele>1118</ele>
        <time>2026-08-19T11:59:37.344Z</time>
      </trkpt>
      <trkpt lat="45.91221" lon="6.34962">
        <ele>1118</ele>
        <time>2026-08-19T11:59:38.344Z</time>
      </trkpt>
      <trkpt lat="45.9122" lon="6.3496">
        <ele>1117</ele>
        <time>2026-08-19T11:59:39.344Z</time>
      </trkpt>
      <trkpt lat="45.91219" lon="6.34958">
        <ele>1117</ele>
        <time>2026-08-19T11:59:40.344Z</time>
      </trkpt>
      <trkpt lat="45.91218" lon="6.34956">
        <ele>1117</ele>
        <time>2026-08-19T11:59:41.344Z</time>
      </trkpt>
      <trkpt lat="45.91216" lon="6.34954">
        <ele>1116</ele>
        <time>2026-08-19T11:59:42.344Z</time>
      </trkpt>
      <trkpt lat="45.91214" lon="6.34953">
        <ele>1116</ele>
        <time>2026-08-19T11:59:43.345Z</time>
      </trkpt>
      <trkpt lat="45.91212" lon="6.34953">
        <ele>1116</ele>
        <time>2026-08-19T11:59:44.344Z</time>
      </trkpt>
      <trkpt lat="45.9121" lon="6.34952">
        <ele>1116</ele>
        <time>2026-08-19T11:59:45.344Z</time>
      </trkpt>
      <trkpt lat="45.91208" lon="6.34951">
        <ele>1116</ele>
        <time>2026-08-19T11:59:46.344Z</time>
      </trkpt>
      <trkpt lat="45.91205" lon="6.3495">
        <ele>1116</ele>
        <time>2026-08-19T11:59:47.344Z</time>
      </trkpt>
      <trkpt lat="45.91203" lon="6.34948">
        <ele>1115</ele>
        <time>2026-08-19T11:59:48.344Z</time>
      </trkpt>
      <trkpt lat="45.91201" lon="6.34947">
        <ele>1115</ele>
        <time>2026-08-19T11:59:49.344Z</time>
      </trkpt>
      <trkpt lat="45.91199" lon="6.34945">
        <ele>1114</ele>
        <time>2026-08-19T11:59:50.344Z</time>
      </trkpt>
      <trkpt lat="45.91197" lon="6.34943">
        <ele>1114</ele>
        <time>2026-08-19T11:59:51.344Z</time>
      </trkpt>
      <trkpt lat="45.91196" lon="6.34941">
        <ele>1114</ele>
        <time>2026-08-19T11:59:52.344Z</time>
      </trkpt>
      <trkpt lat="45.91194" lon="6.34939">
        <ele>1113</ele>
        <time>2026-08-19T11:59:53.345Z</time>
      </trkpt>
      <trkpt lat="45.91192" lon="6.34938">
        <ele>1113</ele>
        <time>2026-08-19T11:59:54.344Z</time>
      </trkpt>
      <trkpt lat="45.91191" lon="6.34936">
        <ele>1113</ele>
        <time>2026-08-19T11:59:55.344Z</time>
      </trkpt>
      <trkpt lat="45.91189" lon="6.34934">
        <ele>1113</ele>
        <time>2026-08-19T11:59:56.344Z</time>
      </trkpt>
      <trkpt lat="45.91188" lon="6.34932">
        <ele>1113</ele>
        <time>2026-08-19T11:59:57.344Z</time>
      </trkpt>
      <trkpt lat="45.91186" lon="6.34931">
        <ele>1112</ele>
        <time>2026-08-19T11:59:58.344Z</time>
      </trkpt>
      <trkpt lat="45.91185" lon="6.34929">
        <ele>1112</ele>
        <time>2026-08-19T11:59:59.344Z</time>
      </trkpt>
      <trkpt lat="45.91183" lon="6.34927">
        <ele>1111</ele>
        <time>2026-08-19T12:00:00.344Z</time>
      </trkpt>
      <trkpt lat="45.91181" lon="6.34924">
        <ele>1111</ele>
        <time>2026-08-19T12:00:01.344Z</time>
      </trkpt>
      <trkpt lat="45.9118" lon="6.34922">
        <ele>1110</ele>
        <time>2026-08-19T12:00:02.344Z</time>
      </trkpt>
      <trkpt lat="45.91178" lon="6.3492">
        <ele>1110</ele>
        <time>2026-08-19T12:00:03.344Z</time>
      </trkpt>
      <trkpt lat="45.91177" lon="6.34918">
        <ele>1109</ele>
        <time>2026-08-19T12:00:04.344Z</time>
      </trkpt>
      <trkpt lat="45.91176" lon="6.34916">
        <ele>1109</ele>
        <time>2026-08-19T12:00:05.344Z</time>
      </trkpt>
      <trkpt lat="45.91174" lon="6.34914">
        <ele>1109</ele>
        <time>2026-08-19T12:00:06.344Z</time>
      </trkpt>
      <trkpt lat="45.91173" lon="6.34912">
        <ele>1109</ele>
        <time>2026-08-19T12:00:07.344Z</time>
      </trkpt>
      <trkpt lat="45.91172" lon="6.3491">
        <ele>1108</ele>
        <time>2026-08-19T12:00:08.344Z</time>
      </trkpt>
      <trkpt lat="45.9117" lon="6.34908">
        <ele>1108</ele>
        <time>2026-08-19T12:00:09.344Z</time>
      </trkpt>
      <trkpt lat="45.91169" lon="6.34906">
        <ele>1108</ele>
        <time>2026-08-19T12:00:10.344Z</time>
      </trkpt>
      <trkpt lat="45.91167" lon="6.34904">
        <ele>1108</ele>
        <time>2026-08-19T12:00:11.344Z</time>
      </trkpt>
      <trkpt lat="45.91166" lon="6.34903">
        <ele>1108</ele>
        <time>2026-08-19T12:00:12.344Z</time>
      </trkpt>
      <trkpt lat="45.91164" lon="6.34901">
        <ele>1107</ele>
        <time>2026-08-19T12:00:13.344Z</time>
      </trkpt>
      <trkpt lat="45.91162" lon="6.349">
        <ele>1107</ele>
        <time>2026-08-19T12:00:14.344Z</time>
      </trkpt>
      <trkpt lat="45.9116" lon="6.34899">
        <ele>1107</ele>
        <time>2026-08-19T12:00:15.344Z</time>
      </trkpt>
      <trkpt lat="45.91159" lon="6.34898">
        <ele>1106</ele>
        <time>2026-08-19T12:00:16.344Z</time>
      </trkpt>
      <trkpt lat="45.91157" lon="6.34896">
        <ele>1106</ele>
        <time>2026-08-19T12:00:17.344Z</time>
      </trkpt>
      <trkpt lat="45.91155" lon="6.34894">
        <ele>1106</ele>
        <time>2026-08-19T12:00:18.344Z</time>
      </trkpt>
      <trkpt lat="45.91153" lon="6.34892">
        <ele>1105</ele>
        <time>2026-08-19T12:00:19.344Z</time>
      </trkpt>
      <trkpt lat="45.91152" lon="6.3489">
        <ele>1105</ele>
        <time>2026-08-19T12:00:20.345Z</time>
      </trkpt>
      <trkpt lat="45.9115" lon="6.34888">
        <ele>1105</ele>
        <time>2026-08-19T12:00:21.344Z</time>
      </trkpt>
      <trkpt lat="45.91149" lon="6.34886">
        <ele>1105</ele>
        <time>2026-08-19T12:00:22.345Z</time>
      </trkpt>
      <trkpt lat="45.91147" lon="6.34883">
        <ele>1105</ele>
        <time>2026-08-19T12:00:23.344Z</time>
      </trkpt>
      <trkpt lat="45.91146" lon="6.34881">
        <ele>1104</ele>
        <time>2026-08-19T12:00:24.344Z</time>
      </trkpt>
      <trkpt lat="45.91145" lon="6.34879">
        <ele>1104</ele>
        <time>2026-08-19T12:00:25.345Z</time>
      </trkpt>
      <trkpt lat="45.91143" lon="6.34876">
        <ele>1103</ele>
        <time>2026-08-19T12:00:26.344Z</time>
      </trkpt>
      <trkpt lat="45.91141" lon="6.34874">
        <ele>1102</ele>
        <time>2026-08-19T12:00:27.344Z</time>
      </trkpt>
      <trkpt lat="45.9114" lon="6.34871">
        <ele>1102</ele>
        <time>2026-08-19T12:00:28.344Z</time>
      </trkpt>
      <trkpt lat="45.91139" lon="6.34869">
        <ele>1102</ele>
        <time>2026-08-19T12:00:29.344Z</time>
      </trkpt>
      <trkpt lat="45.91137" lon="6.34867">
        <ele>1102</ele>
        <time>2026-08-19T12:00:30.344Z</time>
      </trkpt>
      <trkpt lat="45.91136" lon="6.34865">
        <ele>1101</ele>
        <time>2026-08-19T12:00:31.344Z</time>
      </trkpt>
      <trkpt lat="45.91134" lon="6.34863">
        <ele>1101</ele>
        <time>2026-08-19T12:00:32.344Z</time>
      </trkpt>
      <trkpt lat="45.91133" lon="6.34862">
        <ele>1101</ele>
        <time>2026-08-19T12:00:33.344Z</time>
      </trkpt>
      <trkpt lat="45.91132" lon="6.34859">
        <ele>1100</ele>
        <time>2026-08-19T12:00:34.344Z</time>
      </trkpt>
      <trkpt lat="45.91131" lon="6.34856">
        <ele>1100</ele>
        <time>2026-08-19T12:00:35.344Z</time>
      </trkpt>
      <trkpt lat="45.91129" lon="6.34853">
        <ele>1099</ele>
        <time>2026-08-19T12:00:36.345Z</time>
      </trkpt>
      <trkpt lat="45.91128" lon="6.34851">
        <ele>1099</ele>
        <time>2026-08-19T12:00:37.344Z</time>
      </trkpt>
      <trkpt lat="45.91127" lon="6.34849">
        <ele>1099</ele>
        <time>2026-08-19T12:00:38.344Z</time>
      </trkpt>
      <trkpt lat="45.91126" lon="6.34847">
        <ele>1098</ele>
        <time>2026-08-19T12:00:39.344Z</time>
      </trkpt>
      <trkpt lat="45.91124" lon="6.34845">
        <ele>1098</ele>
        <time>2026-08-19T12:00:40.344Z</time>
      </trkpt>
      <trkpt lat="45.91123" lon="6.34843">
        <ele>1097</ele>
        <time>2026-08-19T12:00:41.344Z</time>
      </trkpt>
      <trkpt lat="45.91122" lon="6.34842">
        <ele>1097</ele>
        <time>2026-08-19T12:00:42.344Z</time>
      </trkpt>
      <trkpt lat="45.9112" lon="6.34841">
        <ele>1096</ele>
        <time>2026-08-19T12:00:43.344Z</time>
      </trkpt>
      <trkpt lat="45.91119" lon="6.34839">
        <ele>1096</ele>
        <time>2026-08-19T12:00:44.344Z</time>
      </trkpt>
      <trkpt lat="45.91117" lon="6.34838">
        <ele>1095</ele>
        <time>2026-08-19T12:00:45.344Z</time>
      </trkpt>
      <trkpt lat="45.91116" lon="6.34836">
        <ele>1095</ele>
        <time>2026-08-19T12:00:46.344Z</time>
      </trkpt>
      <trkpt lat="45.91114" lon="6.34834">
        <ele>1094</ele>
        <time>2026-08-19T12:00:47.344Z</time>
      </trkpt>
      <trkpt lat="45.91113" lon="6.34832">
        <ele>1094</ele>
        <time>2026-08-19T12:00:48.344Z</time>
      </trkpt>
      <trkpt lat="45.91111" lon="6.3483">
        <ele>1094</ele>
        <time>2026-08-19T12:00:49.344Z</time>
      </trkpt>
      <trkpt lat="45.9111" lon="6.34828">
        <ele>1094</ele>
        <time>2026-08-19T12:00:50.344Z</time>
      </trkpt>
      <trkpt lat="45.91109" lon="6.34827">
        <ele>1093</ele>
        <time>2026-08-19T12:00:51.344Z</time>
      </trkpt>
      <trkpt lat="45.91107" lon="6.34825">
        <ele>1093</ele>
        <time>2026-08-19T12:00:52.344Z</time>
      </trkpt>
      <trkpt lat="45.91106" lon="6.34823">
        <ele>1092</ele>
        <time>2026-08-19T12:00:53.344Z</time>
      </trkpt>
      <trkpt lat="45.91104" lon="6.34822">
        <ele>1092</ele>
        <time>2026-08-19T12:00:54.344Z</time>
      </trkpt>
      <trkpt lat="45.91103" lon="6.3482">
        <ele>1091</ele>
        <time>2026-08-19T12:00:55.344Z</time>
      </trkpt>
      <trkpt lat="45.91102" lon="6.34818">
        <ele>1091</ele>
        <time>2026-08-19T12:00:56.344Z</time>
      </trkpt>
      <trkpt lat="45.911" lon="6.34816">
        <ele>1090</ele>
        <time>2026-08-19T12:00:57.344Z</time>
      </trkpt>
      <trkpt lat="45.911" lon="6.34814">
        <ele>1090</ele>
        <time>2026-08-19T12:00:58.344Z</time>
      </trkpt>
      <trkpt lat="45.91098" lon="6.34813">
        <ele>1090</ele>
        <time>2026-08-19T12:00:59.344Z</time>
      </trkpt>
      <trkpt lat="45.91097" lon="6.34811">
        <ele>1090</ele>
        <time>2026-08-19T12:01:00.344Z</time>
      </trkpt>
      <trkpt lat="45.91095" lon="6.3481">
        <ele>1090</ele>
        <time>2026-08-19T12:01:01.344Z</time>
      </trkpt>
      <trkpt lat="45.91094" lon="6.34809">
        <ele>1090</ele>
        <time>2026-08-19T12:01:02.344Z</time>
      </trkpt>
      <trkpt lat="45.91092" lon="6.34807">
        <ele>1089</ele>
        <time>2026-08-19T12:01:03.344Z</time>
      </trkpt>
      <trkpt lat="45.91091" lon="6.34806">
        <ele>1089</ele>
        <time>2026-08-19T12:01:04.344Z</time>
      </trkpt>
      <trkpt lat="45.91089" lon="6.34805">
        <ele>1088</ele>
        <time>2026-08-19T12:01:05.344Z</time>
      </trkpt>
      <trkpt lat="45.91088" lon="6.34804">
        <ele>1088</ele>
        <time>2026-08-19T12:01:06.344Z</time>
      </trkpt>
      <trkpt lat="45.91087" lon="6.34803">
        <ele>1087</ele>
        <time>2026-08-19T12:01:07.344Z</time>
      </trkpt>
      <trkpt lat="45.91085" lon="6.34802">
        <ele>1087</ele>
        <time>2026-08-19T12:01:08.344Z</time>
      </trkpt>
      <trkpt lat="45.91083" lon="6.34801">
        <ele>1086</ele>
        <time>2026-08-19T12:01:09.344Z</time>
      </trkpt>
      <trkpt lat="45.91081" lon="6.348">
        <ele>1086</ele>
        <time>2026-08-19T12:01:10.344Z</time>
      </trkpt>
      <trkpt lat="45.9108" lon="6.34799">
        <ele>1086</ele>
        <time>2026-08-19T12:01:11.344Z</time>
      </trkpt>
      <trkpt lat="45.91078" lon="6.34798">
        <ele>1085</ele>
        <time>2026-08-19T12:01:12.344Z</time>
      </trkpt>
      <trkpt lat="45.91076" lon="6.34798">
        <ele>1085</ele>
        <time>2026-08-19T12:01:13.344Z</time>
      </trkpt>
      <trkpt lat="45.91074" lon="6.34797">
        <ele>1085</ele>
        <time>2026-08-19T12:01:14.344Z</time>
      </trkpt>
      <trkpt lat="45.91073" lon="6.34796">
        <ele>1084</ele>
        <time>2026-08-19T12:01:15.344Z</time>
      </trkpt>
      <trkpt lat="45.91071" lon="6.34794">
        <ele>1084</ele>
        <time>2026-08-19T12:01:16.344Z</time>
      </trkpt>
      <trkpt lat="45.91069" lon="6.34793">
        <ele>1083</ele>
        <time>2026-08-19T12:01:17.344Z</time>
      </trkpt>
      <trkpt lat="45.91068" lon="6.34792">
        <ele>1083</ele>
        <time>2026-08-19T12:01:18.344Z</time>
      </trkpt>
      <trkpt lat="45.91067" lon="6.34791">
        <ele>1083</ele>
        <time>2026-08-19T12:01:19.345Z</time>
      </trkpt>
      <trkpt lat="45.91065" lon="6.34789">
        <ele>1083</ele>
        <time>2026-08-19T12:01:20.344Z</time>
      </trkpt>
      <trkpt lat="45.91063" lon="6.34788">
        <ele>1082</ele>
        <time>2026-08-19T12:01:21.344Z</time>
      </trkpt>
      <trkpt lat="45.91062" lon="6.34787">
        <ele>1082</ele>
        <time>2026-08-19T12:01:22.344Z</time>
      </trkpt>
      <trkpt lat="45.91059" lon="6.34788">
        <ele>1082</ele>
        <time>2026-08-19T12:01:23.344Z</time>
      </trkpt>
      <trkpt lat="45.91058" lon="6.34788">
        <ele>1082</ele>
        <time>2026-08-19T12:01:24.344Z</time>
      </trkpt>
      <trkpt lat="45.91056" lon="6.34789">
        <ele>1082</ele>
        <time>2026-08-19T12:01:25.344Z</time>
      </trkpt>
      <trkpt lat="45.91054" lon="6.34788">
        <ele>1082</ele>
        <time>2026-08-19T12:01:26.344Z</time>
      </trkpt>
      <trkpt lat="45.91053" lon="6.34788">
        <ele>1081</ele>
        <time>2026-08-19T12:01:27.345Z</time>
      </trkpt>
      <trkpt lat="45.91051" lon="6.34787">
        <ele>1081</ele>
        <time>2026-08-19T12:01:28.344Z</time>
      </trkpt>
      <trkpt lat="45.91049" lon="6.34787">
        <ele>1081</ele>
        <time>2026-08-19T12:01:29.344Z</time>
      </trkpt>
      <trkpt lat="45.91047" lon="6.34786">
        <ele>1080</ele>
        <time>2026-08-19T12:01:30.344Z</time>
      </trkpt>
      <trkpt lat="45.91046" lon="6.34785">
        <ele>1080</ele>
        <time>2026-08-19T12:01:31.344Z</time>
      </trkpt>
      <trkpt lat="45.91044" lon="6.34784">
        <ele>1080</ele>
        <time>2026-08-19T12:01:32.344Z</time>
      </trkpt>
      <trkpt lat="45.91043" lon="6.34783">
        <ele>1080</ele>
        <time>2026-08-19T12:01:33.344Z</time>
      </trkpt>
      <trkpt lat="45.91041" lon="6.34783">
        <ele>1079</ele>
        <time>2026-08-19T12:01:34.344Z</time>
      </trkpt>
      <trkpt lat="45.9104" lon="6.34782">
        <ele>1079</ele>
        <time>2026-08-19T12:01:35.344Z</time>
      </trkpt>
      <trkpt lat="45.91038" lon="6.34782">
        <ele>1078</ele>
        <time>2026-08-19T12:01:36.344Z</time>
      </trkpt>
      <trkpt lat="45.91036" lon="6.34781">
        <ele>1078</ele>
        <time>2026-08-19T12:01:37.344Z</time>
      </trkpt>
      <trkpt lat="45.91035" lon="6.34779">
        <ele>1078</ele>
        <time>2026-08-19T12:01:38.344Z</time>
      </trkpt>
      <trkpt lat="45.91033" lon="6.34777">
        <ele>1077</ele>
        <time>2026-08-19T12:01:39.344Z</time>
      </trkpt>
      <trkpt lat="45.91031" lon="6.34775">
        <ele>1077</ele>
        <time>2026-08-19T12:01:40.344Z</time>
      </trkpt>
      <trkpt lat="45.9103" lon="6.34772">
        <ele>1077</ele>
        <time>2026-08-19T12:01:41.344Z</time>
      </trkpt>
      <trkpt lat="45.91029" lon="6.3477">
        <ele>1076</ele>
        <time>2026-08-19T12:01:42.344Z</time>
      </trkpt>
      <trkpt lat="45.91028" lon="6.34767">
        <ele>1075</ele>
        <time>2026-08-19T12:01:43.345Z</time>
      </trkpt>
      <trkpt lat="45.91026" lon="6.34765">
        <ele>1074</ele>
        <time>2026-08-19T12:01:44.345Z</time>
      </trkpt>
      <trkpt lat="45.91024" lon="6.34764">
        <ele>1074</ele>
        <time>2026-08-19T12:01:45.344Z</time>
      </trkpt>
      <trkpt lat="45.91022" lon="6.34762">
        <ele>1073</ele>
        <time>2026-08-19T12:01:46.344Z</time>
      </trkpt>
      <trkpt lat="45.91021" lon="6.3476">
        <ele>1072</ele>
        <time>2026-08-19T12:01:47.344Z</time>
      </trkpt>
      <trkpt lat="45.91019" lon="6.34758">
        <ele>1072</ele>
        <time>2026-08-19T12:01:48.344Z</time>
      </trkpt>
      <trkpt lat="45.91017" lon="6.34758">
        <ele>1071</ele>
        <time>2026-08-19T12:01:49.344Z</time>
      </trkpt>
      <trkpt lat="45.91016" lon="6.34757">
        <ele>1071</ele>
        <time>2026-08-19T12:01:50.344Z</time>
      </trkpt>
      <trkpt lat="45.91014" lon="6.34756">
        <ele>1070</ele>
        <time>2026-08-19T12:01:51.344Z</time>
      </trkpt>
      <trkpt lat="45.91012" lon="6.34755">
        <ele>1070</ele>
        <time>2026-08-19T12:01:52.344Z</time>
      </trkpt>
      <trkpt lat="45.9101" lon="6.34754">
        <ele>1070</ele>
        <time>2026-08-19T12:01:53.344Z</time>
      </trkpt>
      <trkpt lat="45.91008" lon="6.34753">
        <ele>1070</ele>
        <time>2026-08-19T12:01:54.344Z</time>
      </trkpt>
      <trkpt lat="45.91007" lon="6.34751">
        <ele>1070</ele>
        <time>2026-08-19T12:01:55.344Z</time>
      </trkpt>
      <trkpt lat="45.91005" lon="6.3475">
        <ele>1070</ele>
        <time>2026-08-19T12:01:56.344Z</time>
      </trkpt>
      <trkpt lat="45.91003" lon="6.34749">
        <ele>1069</ele>
        <time>2026-08-19T12:01:57.344Z</time>
      </trkpt>
      <trkpt lat="45.91002" lon="6.34748">
        <ele>1069</ele>
        <time>2026-08-19T12:01:58.344Z</time>
      </trkpt>
      <trkpt lat="45.91" lon="6.34746">
        <ele>1069</ele>
        <time>2026-08-19T12:01:59.344Z</time>
      </trkpt>
      <trkpt lat="45.90998" lon="6.34744">
        <ele>1069</ele>
        <time>2026-08-19T12:02:00.344Z</time>
      </trkpt>
      <trkpt lat="45.90997" lon="6.34742">
        <ele>1068</ele>
        <time>2026-08-19T12:02:01.344Z</time>
      </trkpt>
      <trkpt lat="45.90996" lon="6.3474">
        <ele>1068</ele>
        <time>2026-08-19T12:02:02.344Z</time>
      </trkpt>
      <trkpt lat="45.90995" lon="6.34738">
        <ele>1067</ele>
        <time>2026-08-19T12:02:03.344Z</time>
      </trkpt>
      <trkpt lat="45.90993" lon="6.34735">
        <ele>1067</ele>
        <time>2026-08-19T12:02:04.344Z</time>
      </trkpt>
      <trkpt lat="45.90992" lon="6.34733">
        <ele>1066</ele>
        <time>2026-08-19T12:02:05.344Z</time>
      </trkpt>
      <trkpt lat="45.90991" lon="6.34731">
        <ele>1066</ele>
        <time>2026-08-19T12:02:06.344Z</time>
      </trkpt>
      <trkpt lat="45.90989" lon="6.34728">
        <ele>1065</ele>
        <time>2026-08-19T12:02:07.344Z</time>
      </trkpt>
      <trkpt lat="45.90988" lon="6.34725">
        <ele>1064</ele>
        <time>2026-08-19T12:02:08.344Z</time>
      </trkpt>
      <trkpt lat="45.90987" lon="6.34722">
        <ele>1063</ele>
        <time>2026-08-19T12:02:09.344Z</time>
      </trkpt>
      <trkpt lat="45.90987" lon="6.3472">
        <ele>1062</ele>
        <time>2026-08-19T12:02:10.344Z</time>
      </trkpt>
      <trkpt lat="45.90986" lon="6.34717">
        <ele>1062</ele>
        <time>2026-08-19T12:02:11.345Z</time>
      </trkpt>
      <trkpt lat="45.90985" lon="6.34715">
        <ele>1061</ele>
        <time>2026-08-19T12:02:12.344Z</time>
      </trkpt>
      <trkpt lat="45.90984" lon="6.34713">
        <ele>1060</ele>
        <time>2026-08-19T12:02:13.344Z</time>
      </trkpt>
      <trkpt lat="45.90982" lon="6.34712">
        <ele>1059</ele>
        <time>2026-08-19T12:02:14.345Z</time>
      </trkpt>
      <trkpt lat="45.90981" lon="6.34712">
        <ele>1058</ele>
        <time>2026-08-19T12:02:15.345Z</time>
      </trkpt>
      <trkpt lat="45.9098" lon="6.34713">
        <ele>1057</ele>
        <time>2026-08-19T12:02:16.345Z</time>
      </trkpt>
      <trkpt lat="45.90979" lon="6.34714">
        <ele>1057</ele>
        <time>2026-08-19T12:02:17.345Z</time>
      </trkpt>
      <trkpt lat="45.90979" lon="6.34715">
        <ele>1056</ele>
        <time>2026-08-19T12:02:18.344Z</time>
      </trkpt>
      <trkpt lat="45.90979" lon="6.34717">
        <ele>1056</ele>
        <time>2026-08-19T12:02:19.344Z</time>
      </trkpt>
      <trkpt lat="45.90978" lon="6.34719">
        <ele>1055</ele>
        <time>2026-08-19T12:02:20.344Z</time>
      </trkpt>
      <trkpt lat="45.90978" lon="6.34722">
        <ele>1054</ele>
        <time>2026-08-19T12:02:21.344Z</time>
      </trkpt>
      <trkpt lat="45.90979" lon="6.34724">
        <ele>1054</ele>
        <time>2026-08-19T12:02:22.344Z</time>
      </trkpt>
      <trkpt lat="45.90979" lon="6.34726">
        <ele>1054</ele>
        <time>2026-08-19T12:02:23.344Z</time>
      </trkpt>
      <trkpt lat="45.90979" lon="6.34728">
        <ele>1054</ele>
        <time>2026-08-19T12:02:24.344Z</time>
      </trkpt>
      <trkpt lat="45.90979" lon="6.34731">
        <ele>1053</ele>
        <time>2026-08-19T12:02:25.344Z</time>
      </trkpt>
      <trkpt lat="45.90979" lon="6.34734">
        <ele>1053</ele>
        <time>2026-08-19T12:02:26.344Z</time>
      </trkpt>
      <trkpt lat="45.90978" lon="6.34736">
        <ele>1052</ele>
        <time>2026-08-19T12:02:27.344Z</time>
      </trkpt>
      <trkpt lat="45.90978" lon="6.34739">
        <ele>1052</ele>
        <time>2026-08-19T12:02:28.344Z</time>
      </trkpt>
      <trkpt lat="45.90978" lon="6.34741">
        <ele>1051</ele>
        <time>2026-08-19T12:02:29.344Z</time>
      </trkpt>
      <trkpt lat="45.90977" lon="6.34744">
        <ele>1050</ele>
        <time>2026-08-19T12:02:30.344Z</time>
      </trkpt>
      <trkpt lat="45.90977" lon="6.34746">
        <ele>1050</ele>
        <time>2026-08-19T12:02:31.344Z</time>
      </trkpt>
      <trkpt lat="45.90977" lon="6.34749">
        <ele>1050</ele>
        <time>2026-08-19T12:02:32.344Z</time>
      </trkpt>
      <trkpt lat="45.90977" lon="6.34751">
        <ele>1049</ele>
        <time>2026-08-19T12:02:33.344Z</time>
      </trkpt>
      <trkpt lat="45.90978" lon="6.34753">
        <ele>1049</ele>
        <time>2026-08-19T12:02:34.344Z</time>
      </trkpt>
      <trkpt lat="45.90978" lon="6.34755">
        <ele>1049</ele>
        <time>2026-08-19T12:02:35.344Z</time>
      </trkpt>
      <trkpt lat="45.90978" lon="6.34758">
        <ele>1049</ele>
        <time>2026-08-19T12:02:36.344Z</time>
      </trkpt>
      <trkpt lat="45.90978" lon="6.34761">
        <ele>1048</ele>
        <time>2026-08-19T12:02:37.344Z</time>
      </trkpt>
      <trkpt lat="45.90978" lon="6.34764">
        <ele>1048</ele>
        <time>2026-08-19T12:02:38.344Z</time>
      </trkpt>
      <trkpt lat="45.90978" lon="6.34767">
        <ele>1048</ele>
        <time>2026-08-19T12:02:39.344Z</time>
      </trkpt>
      <trkpt lat="45.90979" lon="6.3477">
        <ele>1047</ele>
        <time>2026-08-19T12:02:40.344Z</time>
      </trkpt>
      <trkpt lat="45.90979" lon="6.34773">
        <ele>1047</ele>
        <time>2026-08-19T12:02:41.344Z</time>
      </trkpt>
      <trkpt lat="45.9098" lon="6.34775">
        <ele>1047</ele>
        <time>2026-08-19T12:02:42.344Z</time>
      </trkpt>
      <trkpt lat="45.9098" lon="6.34778">
        <ele>1046</ele>
        <time>2026-08-19T12:02:43.344Z</time>
      </trkpt>
      <trkpt lat="45.90981" lon="6.3478">
        <ele>1046</ele>
        <time>2026-08-19T12:02:44.344Z</time>
      </trkpt>
      <trkpt lat="45.90981" lon="6.34783">
        <ele>1045</ele>
        <time>2026-08-19T12:02:45.344Z</time>
      </trkpt>
      <trkpt lat="45.90981" lon="6.34786">
        <ele>1045</ele>
        <time>2026-08-19T12:02:46.344Z</time>
      </trkpt>
      <trkpt lat="45.90981" lon="6.34789">
        <ele>1044</ele>
        <time>2026-08-19T12:02:47.345Z</time>
      </trkpt>
      <trkpt lat="45.90981" lon="6.34791">
        <ele>1043</ele>
        <time>2026-08-19T12:02:48.344Z</time>
      </trkpt>
      <trkpt lat="45.90982" lon="6.34793">
        <ele>1043</ele>
        <time>2026-08-19T12:02:49.344Z</time>
      </trkpt>
      <trkpt lat="45.90982" lon="6.34796">
        <ele>1042</ele>
        <time>2026-08-19T12:02:50.345Z</time>
      </trkpt>
      <trkpt lat="45.90983" lon="6.34798">
        <ele>1042</ele>
        <time>2026-08-19T12:02:51.344Z</time>
      </trkpt>
      <trkpt lat="45.90984" lon="6.34801">
        <ele>1042</ele>
        <time>2026-08-19T12:02:52.344Z</time>
      </trkpt>
      <trkpt lat="45.90984" lon="6.34803">
        <ele>1041</ele>
        <time>2026-08-19T12:02:53.344Z</time>
      </trkpt>
      <trkpt lat="45.90985" lon="6.34806">
        <ele>1041</ele>
        <time>2026-08-19T12:02:54.344Z</time>
      </trkpt>
      <trkpt lat="45.90986" lon="6.34809">
        <ele>1040</ele>
        <time>2026-08-19T12:02:55.344Z</time>
      </trkpt>
      <trkpt lat="45.90986" lon="6.34812">
        <ele>1040</ele>
        <time>2026-08-19T12:02:56.344Z</time>
      </trkpt>
      <trkpt lat="45.90987" lon="6.34815">
        <ele>1040</ele>
        <time>2026-08-19T12:02:57.344Z</time>
      </trkpt>
      <trkpt lat="45.90987" lon="6.34817">
        <ele>1039</ele>
        <time>2026-08-19T12:02:58.344Z</time>
      </trkpt>
      <trkpt lat="45.90987" lon="6.3482">
        <ele>1039</ele>
        <time>2026-08-19T12:02:59.344Z</time>
      </trkpt>
      <trkpt lat="45.90987" lon="6.34823">
        <ele>1039</ele>
        <time>2026-08-19T12:03:00.344Z</time>
      </trkpt>
      <trkpt lat="45.90987" lon="6.34825">
        <ele>1038</ele>
        <time>2026-08-19T12:03:01.344Z</time>
      </trkpt>
      <trkpt lat="45.90987" lon="6.34829">
        <ele>1037</ele>
        <time>2026-08-19T12:03:02.344Z</time>
      </trkpt>
      <trkpt lat="45.90988" lon="6.34831">
        <ele>1037</ele>
        <time>2026-08-19T12:03:03.344Z</time>
      </trkpt>
      <trkpt lat="45.90988" lon="6.34834">
        <ele>1036</ele>
        <time>2026-08-19T12:03:04.344Z</time>
      </trkpt>
      <trkpt lat="45.90987" lon="6.34836">
        <ele>1035</ele>
        <time>2026-08-19T12:03:05.344Z</time>
      </trkpt>
      <trkpt lat="45.90986" lon="6.34839">
        <ele>1034</ele>
        <time>2026-08-19T12:03:06.344Z</time>
      </trkpt>
      <trkpt lat="45.90985" lon="6.3484">
        <ele>1033</ele>
        <time>2026-08-19T12:03:07.344Z</time>
      </trkpt>
      <trkpt lat="45.90982" lon="6.34842">
        <ele>1033</ele>
        <time>2026-08-19T12:03:08.345Z</time>
      </trkpt>
      <trkpt lat="45.9098" lon="6.34842">
        <ele>1033</ele>
        <time>2026-08-19T12:03:09.344Z</time>
      </trkpt>
      <trkpt lat="45.90979" lon="6.34842">
        <ele>1032</ele>
        <time>2026-08-19T12:03:10.344Z</time>
      </trkpt>
      <trkpt lat="45.90976" lon="6.34842">
        <ele>1032</ele>
        <time>2026-08-19T12:03:11.344Z</time>
      </trkpt>
      <trkpt lat="45.90974" lon="6.34842">
        <ele>1032</ele>
        <time>2026-08-19T12:03:12.344Z</time>
      </trkpt>
      <trkpt lat="45.90972" lon="6.34841">
        <ele>1031</ele>
        <time>2026-08-19T12:03:13.344Z</time>
      </trkpt>
      <trkpt lat="45.9097" lon="6.3484">
        <ele>1030</ele>
        <time>2026-08-19T12:03:14.344Z</time>
      </trkpt>
      <trkpt lat="45.90968" lon="6.3484">
        <ele>1030</ele>
        <time>2026-08-19T12:03:15.344Z</time>
      </trkpt>
      <trkpt lat="45.90966" lon="6.3484">
        <ele>1030</ele>
        <time>2026-08-19T12:03:16.344Z</time>
      </trkpt>
      <trkpt lat="45.90964" lon="6.3484">
        <ele>1030</ele>
        <time>2026-08-19T12:03:17.344Z</time>
      </trkpt>
      <trkpt lat="45.90963" lon="6.3484">
        <ele>1030</ele>
        <time>2026-08-19T12:03:18.344Z</time>
      </trkpt>
      <trkpt lat="45.90961" lon="6.34839">
        <ele>1030</ele>
        <time>2026-08-19T12:03:19.345Z</time>
      </trkpt>
      <trkpt lat="45.90959" lon="6.34839">
        <ele>1030</ele>
        <time>2026-08-19T12:03:20.344Z</time>
      </trkpt>
      <trkpt lat="45.90957" lon="6.34839">
        <ele>1030</ele>
        <time>2026-08-19T12:03:21.344Z</time>
      </trkpt>
      <trkpt lat="45.90956" lon="6.34839">
        <ele>1030</ele>
        <time>2026-08-19T12:03:22.344Z</time>
      </trkpt>
      <trkpt lat="45.90953" lon="6.3484">
        <ele>1031</ele>
        <time>2026-08-19T12:03:23.344Z</time>
      </trkpt>
      <trkpt lat="45.90951" lon="6.3484">
        <ele>1031</ele>
        <time>2026-08-19T12:03:24.344Z</time>
      </trkpt>
      <trkpt lat="45.90949" lon="6.34839">
        <ele>1031</ele>
        <time>2026-08-19T12:03:25.344Z</time>
      </trkpt>
      <trkpt lat="45.90947" lon="6.34838">
        <ele>1030</ele>
        <time>2026-08-19T12:03:26.344Z</time>
      </trkpt>
      <trkpt lat="45.90944" lon="6.34837">
        <ele>1030</ele>
        <time>2026-08-19T12:03:27.344Z</time>
      </trkpt>
      <trkpt lat="45.90943" lon="6.34837">
        <ele>1029</ele>
        <time>2026-08-19T12:03:28.344Z</time>
      </trkpt>
      <trkpt lat="45.90941" lon="6.34836">
        <ele>1029</ele>
        <time>2026-08-19T12:03:29.344Z</time>
      </trkpt>
      <trkpt lat="45.90939" lon="6.34836">
        <ele>1028</ele>
        <time>2026-08-19T12:03:30.344Z</time>
      </trkpt>
      <trkpt lat="45.90937" lon="6.34836">
        <ele>1028</ele>
        <time>2026-08-19T12:03:31.344Z</time>
      </trkpt>
      <trkpt lat="45.90935" lon="6.34836">
        <ele>1029</ele>
        <time>2026-08-19T12:03:32.344Z</time>
      </trkpt>
      <trkpt lat="45.90933" lon="6.34835">
        <ele>1029</ele>
        <time>2026-08-19T12:03:33.345Z</time>
      </trkpt>
      <trkpt lat="45.90931" lon="6.34834">
        <ele>1028</ele>
        <time>2026-08-19T12:03:34.344Z</time>
      </trkpt>
      <trkpt lat="45.90929" lon="6.34833">
        <ele>1028</ele>
        <time>2026-08-19T12:03:35.344Z</time>
      </trkpt>
      <trkpt lat="45.90927" lon="6.34832">
        <ele>1027</ele>
        <time>2026-08-19T12:03:36.344Z</time>
      </trkpt>
      <trkpt lat="45.90926" lon="6.34831">
        <ele>1027</ele>
        <time>2026-08-19T12:03:37.344Z</time>
      </trkpt>
      <trkpt lat="45.90924" lon="6.34831">
        <ele>1027</ele>
        <time>2026-08-19T12:03:38.344Z</time>
      </trkpt>
      <trkpt lat="45.90922" lon="6.3483">
        <ele>1027</ele>
        <time>2026-08-19T12:03:39.345Z</time>
      </trkpt>
      <trkpt lat="45.9092" lon="6.34829">
        <ele>1026</ele>
        <time>2026-08-19T12:03:40.344Z</time>
      </trkpt>
      <trkpt lat="45.90918" lon="6.34828">
        <ele>1026</ele>
        <time>2026-08-19T12:03:41.345Z</time>
      </trkpt>
      <trkpt lat="45.90916" lon="6.34827">
        <ele>1026</ele>
        <time>2026-08-19T12:03:42.344Z</time>
      </trkpt>
      <trkpt lat="45.90914" lon="6.34825">
        <ele>1026</ele>
        <time>2026-08-19T12:03:43.344Z</time>
      </trkpt>
      <trkpt lat="45.90912" lon="6.34824">
        <ele>1026</ele>
        <time>2026-08-19T12:03:44.345Z</time>
      </trkpt>
      <trkpt lat="45.9091" lon="6.34822">
        <ele>1025</ele>
        <time>2026-08-19T12:03:45.344Z</time>
      </trkpt>
      <trkpt lat="45.90909" lon="6.3482">
        <ele>1025</ele>
        <time>2026-08-19T12:03:46.344Z</time>
      </trkpt>
      <trkpt lat="45.90907" lon="6.34818">
        <ele>1024</ele>
        <time>2026-08-19T12:03:47.344Z</time>
      </trkpt>
      <trkpt lat="45.90906" lon="6.34816">
        <ele>1023</ele>
        <time>2026-08-19T12:03:48.344Z</time>
      </trkpt>
      <trkpt lat="45.90904" lon="6.34814">
        <ele>1022</ele>
        <time>2026-08-19T12:03:49.344Z</time>
      </trkpt>
      <trkpt lat="45.90903" lon="6.34812">
        <ele>1022</ele>
        <time>2026-08-19T12:03:50.344Z</time>
      </trkpt>
      <trkpt lat="45.90901" lon="6.3481">
        <ele>1021</ele>
        <time>2026-08-19T12:03:51.344Z</time>
      </trkpt>
      <trkpt lat="45.909" lon="6.34808">
        <ele>1020</ele>
        <time>2026-08-19T12:03:52.344Z</time>
      </trkpt>
      <trkpt lat="45.90898" lon="6.34806">
        <ele>1019</ele>
        <time>2026-08-19T12:03:53.344Z</time>
      </trkpt>
      <trkpt lat="45.90897" lon="6.34804">
        <ele>1018</ele>
        <time>2026-08-19T12:03:54.344Z</time>
      </trkpt>
      <trkpt lat="45.90895" lon="6.34802">
        <ele>1017</ele>
        <time>2026-08-19T12:03:55.344Z</time>
      </trkpt>
      <trkpt lat="45.90894" lon="6.348">
        <ele>1017</ele>
        <time>2026-08-19T12:03:56.344Z</time>
      </trkpt>
      <trkpt lat="45.90892" lon="6.34798">
        <ele>1016</ele>
        <time>2026-08-19T12:03:57.344Z</time>
      </trkpt>
      <trkpt lat="45.90891" lon="6.34796">
        <ele>1016</ele>
        <time>2026-08-19T12:03:58.344Z</time>
      </trkpt>
      <trkpt lat="45.9089" lon="6.34795">
        <ele>1015</ele>
        <time>2026-08-19T12:03:59.344Z</time>
      </trkpt>
      <trkpt lat="45.90888" lon="6.34793">
        <ele>1015</ele>
        <time>2026-08-19T12:04:00.344Z</time>
      </trkpt>
      <trkpt lat="45.90886" lon="6.34791">
        <ele>1014</ele>
        <time>2026-08-19T12:04:01.344Z</time>
      </trkpt>
      <trkpt lat="45.90885" lon="6.34789">
        <ele>1013</ele>
        <time>2026-08-19T12:04:02.345Z</time>
      </trkpt>
      <trkpt lat="45.90883" lon="6.34788">
        <ele>1013</ele>
        <time>2026-08-19T12:04:03.344Z</time>
      </trkpt>
      <trkpt lat="45.90882" lon="6.34786">
        <ele>1012</ele>
        <time>2026-08-19T12:04:04.344Z</time>
      </trkpt>
      <trkpt lat="45.9088" lon="6.34784">
        <ele>1011</ele>
        <time>2026-08-19T12:04:05.344Z</time>
      </trkpt>
      <trkpt lat="45.90878" lon="6.34782">
        <ele>1011</ele>
        <time>2026-08-19T12:04:06.344Z</time>
      </trkpt>
      <trkpt lat="45.90876" lon="6.3478">
        <ele>1010</ele>
        <time>2026-08-19T12:04:07.344Z</time>
      </trkpt>
      <trkpt lat="45.90875" lon="6.34778">
        <ele>1009</ele>
        <time>2026-08-19T12:04:08.344Z</time>
      </trkpt>
      <trkpt lat="45.90873" lon="6.34776">
        <ele>1008</ele>
        <time>2026-08-19T12:04:09.344Z</time>
      </trkpt>
      <trkpt lat="45.90871" lon="6.34775">
        <ele>1007</ele>
        <time>2026-08-19T12:04:10.344Z</time>
      </trkpt>
      <trkpt lat="45.90869" lon="6.34775">
        <ele>1006</ele>
        <time>2026-08-19T12:04:11.344Z</time>
      </trkpt>
      <trkpt lat="45.90867" lon="6.34774">
        <ele>1006</ele>
        <time>2026-08-19T12:04:12.344Z</time>
      </trkpt>
      <trkpt lat="45.90865" lon="6.34774">
        <ele>1005</ele>
        <time>2026-08-19T12:04:13.345Z</time>
      </trkpt>
      <trkpt lat="45.90863" lon="6.34773">
        <ele>1004</ele>
        <time>2026-08-19T12:04:14.344Z</time>
      </trkpt>
      <trkpt lat="45.90861" lon="6.34772">
        <ele>1004</ele>
        <time>2026-08-19T12:04:15.344Z</time>
      </trkpt>
      <trkpt lat="45.90859" lon="6.34772">
        <ele>1003</ele>
        <time>2026-08-19T12:04:16.344Z</time>
      </trkpt>
      <trkpt lat="45.90857" lon="6.3477">
        <ele>1003</ele>
        <time>2026-08-19T12:04:17.344Z</time>
      </trkpt>
      <trkpt lat="45.90855" lon="6.34769">
        <ele>1003</ele>
        <time>2026-08-19T12:04:18.344Z</time>
      </trkpt>
      <trkpt lat="45.90853" lon="6.34767">
        <ele>1003</ele>
        <time>2026-08-19T12:04:19.344Z</time>
      </trkpt>
      <trkpt lat="45.90852" lon="6.34766">
        <ele>1002</ele>
        <time>2026-08-19T12:04:20.344Z</time>
      </trkpt>
      <trkpt lat="45.9085" lon="6.34764">
        <ele>1002</ele>
        <time>2026-08-19T12:04:21.345Z</time>
      </trkpt>
      <trkpt lat="45.90848" lon="6.34763">
        <ele>1002</ele>
        <time>2026-08-19T12:04:22.344Z</time>
      </trkpt>
      <trkpt lat="45.90847" lon="6.34762">
        <ele>1001</ele>
        <time>2026-08-19T12:04:23.345Z</time>
      </trkpt>
      <trkpt lat="45.90845" lon="6.3476">
        <ele>1001</ele>
        <time>2026-08-19T12:04:24.344Z</time>
      </trkpt>
      <trkpt lat="45.90843" lon="6.34759">
        <ele>1001</ele>
        <time>2026-08-19T12:04:25.344Z</time>
      </trkpt>
      <trkpt lat="45.90841" lon="6.34757">
        <ele>1000</ele>
        <time>2026-08-19T12:04:26.344Z</time>
      </trkpt>
      <trkpt lat="45.90839" lon="6.34755">
        <ele>1000</ele>
        <time>2026-08-19T12:04:27.345Z</time>
      </trkpt>
      <trkpt lat="45.90837" lon="6.34752">
        <ele>999</ele>
        <time>2026-08-19T12:04:28.344Z</time>
      </trkpt>
      <trkpt lat="45.90836" lon="6.3475">
        <ele>999</ele>
        <time>2026-08-19T12:04:29.344Z</time>
      </trkpt>
      <trkpt lat="45.90834" lon="6.34747">
        <ele>998</ele>
        <time>2026-08-19T12:04:30.344Z</time>
      </trkpt>
      <trkpt lat="45.90833" lon="6.34743">
        <ele>997</ele>
        <time>2026-08-19T12:04:31.344Z</time>
      </trkpt>
      <trkpt lat="45.90831" lon="6.3474">
        <ele>996</ele>
        <time>2026-08-19T12:04:32.344Z</time>
      </trkpt>
      <trkpt lat="45.9083" lon="6.34738">
        <ele>995</ele>
        <time>2026-08-19T12:04:33.344Z</time>
      </trkpt>
      <trkpt lat="45.90828" lon="6.34735">
        <ele>995</ele>
        <time>2026-08-19T12:04:34.344Z</time>
      </trkpt>
      <trkpt lat="45.90827" lon="6.34732">
        <ele>994</ele>
        <time>2026-08-19T12:04:35.344Z</time>
      </trkpt>
      <trkpt lat="45.90826" lon="6.34728">
        <ele>994</ele>
        <time>2026-08-19T12:04:36.344Z</time>
      </trkpt>
      <trkpt lat="45.90825" lon="6.34725">
        <ele>993</ele>
        <time>2026-08-19T12:04:37.345Z</time>
      </trkpt>
      <trkpt lat="45.90824" lon="6.34721">
        <ele>993</ele>
        <time>2026-08-19T12:04:38.344Z</time>
      </trkpt>
      <trkpt lat="45.90824" lon="6.34717">
        <ele>993</ele>
        <time>2026-08-19T12:04:39.344Z</time>
      </trkpt>
      <trkpt lat="45.90823" lon="6.34714">
        <ele>993</ele>
        <time>2026-08-19T12:04:40.344Z</time>
      </trkpt>
      <trkpt lat="45.90822" lon="6.34712">
        <ele>992</ele>
        <time>2026-08-19T12:04:41.344Z</time>
      </trkpt>
      <trkpt lat="45.90821" lon="6.34709">
        <ele>992</ele>
        <time>2026-08-19T12:04:42.344Z</time>
      </trkpt>
      <trkpt lat="45.9082" lon="6.34706">
        <ele>992</ele>
        <time>2026-08-19T12:04:43.344Z</time>
      </trkpt>
      <trkpt lat="45.90819" lon="6.34703">
        <ele>991</ele>
        <time>2026-08-19T12:04:44.344Z</time>
      </trkpt>
      <trkpt lat="45.90819" lon="6.347">
        <ele>991</ele>
        <time>2026-08-19T12:04:45.345Z</time>
      </trkpt>
      <trkpt lat="45.90819" lon="6.34697">
        <ele>991</ele>
        <time>2026-08-19T12:04:46.344Z</time>
      </trkpt>
      <trkpt lat="45.90819" lon="6.34693">
        <ele>990</ele>
        <time>2026-08-19T12:04:47.344Z</time>
      </trkpt>
      <trkpt lat="45.90819" lon="6.3469">
        <ele>990</ele>
        <time>2026-08-19T12:04:48.344Z</time>
      </trkpt>
      <trkpt lat="45.9082" lon="6.34687">
        <ele>990</ele>
        <time>2026-08-19T12:04:49.344Z</time>
      </trkpt>
      <trkpt lat="45.90821" lon="6.34684">
        <ele>990</ele>
        <time>2026-08-19T12:04:50.345Z</time>
      </trkpt>
      <trkpt lat="45.90822" lon="6.34681">
        <ele>989</ele>
        <time>2026-08-19T12:04:51.344Z</time>
      </trkpt>
      <trkpt lat="45.90824" lon="6.34678">
        <ele>989</ele>
        <time>2026-08-19T12:04:52.344Z</time>
      </trkpt>
      <trkpt lat="45.90826" lon="6.34675">
        <ele>989</ele>
        <time>2026-08-19T12:04:53.344Z</time>
      </trkpt>
      <trkpt lat="45.90828" lon="6.34673">
        <ele>988</ele>
        <time>2026-08-19T12:04:54.344Z</time>
      </trkpt>
      <trkpt lat="45.90829" lon="6.3467">
        <ele>988</ele>
        <time>2026-08-19T12:04:55.345Z</time>
      </trkpt>
      <trkpt lat="45.90831" lon="6.34667">
        <ele>988</ele>
        <time>2026-08-19T12:04:56.344Z</time>
      </trkpt>
      <trkpt lat="45.90832" lon="6.34664">
        <ele>988</ele>
        <time>2026-08-19T12:04:57.344Z</time>
      </trkpt>
      <trkpt lat="45.90833" lon="6.34661">
        <ele>988</ele>
        <time>2026-08-19T12:04:58.344Z</time>
      </trkpt>
      <trkpt lat="45.90834" lon="6.34657">
        <ele>988</ele>
        <time>2026-08-19T12:04:59.345Z</time>
      </trkpt>
      <trkpt lat="45.90834" lon="6.34655">
        <ele>988</ele>
        <time>2026-08-19T12:05:00.344Z</time>
      </trkpt>
      <trkpt lat="45.90835" lon="6.34651">
        <ele>989</ele>
        <time>2026-08-19T12:05:01.344Z</time>
      </trkpt>
      <trkpt lat="45.90835" lon="6.34648">
        <ele>989</ele>
        <time>2026-08-19T12:05:02.344Z</time>
      </trkpt>
      <trkpt lat="45.90835" lon="6.34646">
        <ele>989</ele>
        <time>2026-08-19T12:05:03.344Z</time>
      </trkpt>
      <trkpt lat="45.90834" lon="6.34643">
        <ele>989</ele>
        <time>2026-08-19T12:05:04.344Z</time>
      </trkpt>
      <trkpt lat="45.90833" lon="6.34642">
        <ele>989</ele>
        <time>2026-08-19T12:05:05.344Z</time>
      </trkpt>
      <trkpt lat="45.90832" lon="6.34641">
        <ele>989</ele>
        <time>2026-08-19T12:05:06.344Z</time>
      </trkpt>
      <trkpt lat="45.9083" lon="6.34641">
        <ele>989</ele>
        <time>2026-08-19T12:05:07.344Z</time>
      </trkpt>
      <trkpt lat="45.90828" lon="6.3464">
        <ele>989</ele>
        <time>2026-08-19T12:05:08.344Z</time>
      </trkpt>
      <trkpt lat="45.90826" lon="6.34639">
        <ele>989</ele>
        <time>2026-08-19T12:05:09.344Z</time>
      </trkpt>
      <trkpt lat="45.90825" lon="6.34638">
        <ele>988</ele>
        <time>2026-08-19T12:05:10.344Z</time>
      </trkpt>
      <trkpt lat="45.90824" lon="6.34637">
        <ele>988</ele>
        <time>2026-08-19T12:05:11.344Z</time>
      </trkpt>
      <trkpt lat="45.90822" lon="6.34637">
        <ele>988</ele>
        <time>2026-08-19T12:05:12.344Z</time>
      </trkpt>
      <trkpt lat="45.9082" lon="6.34637">
        <ele>988</ele>
        <time>2026-08-19T12:05:13.344Z</time>
      </trkpt>
      <trkpt lat="45.90819" lon="6.34636">
        <ele>988</ele>
        <time>2026-08-19T12:05:14.344Z</time>
      </trkpt>
      <trkpt lat="45.90817" lon="6.34636">
        <ele>988</ele>
        <time>2026-08-19T12:05:15.344Z</time>
      </trkpt>
      <trkpt lat="45.90815" lon="6.34636">
        <ele>988</ele>
        <time>2026-08-19T12:05:16.344Z</time>
      </trkpt>
      <trkpt lat="45.90813" lon="6.34637">
        <ele>989</ele>
        <time>2026-08-19T12:05:17.344Z</time>
      </trkpt>
      <trkpt lat="45.9081" lon="6.34637">
        <ele>990</ele>
        <time>2026-08-19T12:05:18.344Z</time>
      </trkpt>
      <trkpt lat="45.90808" lon="6.34637">
        <ele>990</ele>
        <time>2026-08-19T12:05:19.344Z</time>
      </trkpt>
      <trkpt lat="45.90806" lon="6.34638">
        <ele>991</ele>
        <time>2026-08-19T12:05:20.344Z</time>
      </trkpt>
      <trkpt lat="45.90804" lon="6.34638">
        <ele>992</ele>
        <time>2026-08-19T12:05:21.344Z</time>
      </trkpt>
      <trkpt lat="45.90802" lon="6.34638">
        <ele>992</ele>
        <time>2026-08-19T12:05:22.344Z</time>
      </trkpt>
      <trkpt lat="45.90799" lon="6.34638">
        <ele>992</ele>
        <time>2026-08-19T12:05:23.344Z</time>
      </trkpt>
      <trkpt lat="45.90797" lon="6.34638">
        <ele>993</ele>
        <time>2026-08-19T12:05:24.344Z</time>
      </trkpt>
      <trkpt lat="45.90795" lon="6.34638">
        <ele>992</ele>
        <time>2026-08-19T12:05:25.344Z</time>
      </trkpt>
      <trkpt lat="45.90792" lon="6.34637">
        <ele>992</ele>
        <time>2026-08-19T12:05:26.344Z</time>
      </trkpt>
      <trkpt lat="45.9079" lon="6.34636">
        <ele>992</ele>
        <time>2026-08-19T12:05:27.344Z</time>
      </trkpt>
      <trkpt lat="45.90788" lon="6.34635">
        <ele>993</ele>
        <time>2026-08-19T12:05:28.344Z</time>
      </trkpt>
      <trkpt lat="45.90787" lon="6.34633">
        <ele>992</ele>
        <time>2026-08-19T12:05:29.344Z</time>
      </trkpt>
      <trkpt lat="45.90784" lon="6.34632">
        <ele>992</ele>
        <time>2026-08-19T12:05:30.344Z</time>
      </trkpt>
      <trkpt lat="45.90783" lon="6.34631">
        <ele>992</ele>
        <time>2026-08-19T12:05:31.344Z</time>
      </trkpt>
      <trkpt lat="45.9078" lon="6.3463">
        <ele>991</ele>
        <time>2026-08-19T12:05:32.344Z</time>
      </trkpt>
      <trkpt lat="45.90777" lon="6.34629">
        <ele>991</ele>
        <time>2026-08-19T12:05:33.344Z</time>
      </trkpt>
      <trkpt lat="45.90775" lon="6.34628">
        <ele>991</ele>
        <time>2026-08-19T12:05:34.344Z</time>
      </trkpt>
      <trkpt lat="45.90772" lon="6.34627">
        <ele>990</ele>
        <time>2026-08-19T12:05:35.344Z</time>
      </trkpt>
      <trkpt lat="45.9077" lon="6.34625">
        <ele>990</ele>
        <time>2026-08-19T12:05:36.344Z</time>
      </trkpt>
      <trkpt lat="45.90768" lon="6.34625">
        <ele>990</ele>
        <time>2026-08-19T12:05:37.344Z</time>
      </trkpt>
      <trkpt lat="45.90766" lon="6.34624">
        <ele>989</ele>
        <time>2026-08-19T12:05:38.344Z</time>
      </trkpt>
      <trkpt lat="45.90764" lon="6.34622">
        <ele>989</ele>
        <time>2026-08-19T12:05:39.344Z</time>
      </trkpt>
      <trkpt lat="45.90762" lon="6.34621">
        <ele>988</ele>
        <time>2026-08-19T12:05:40.344Z</time>
      </trkpt>
      <trkpt lat="45.9076" lon="6.3462">
        <ele>988</ele>
        <time>2026-08-19T12:05:41.344Z</time>
      </trkpt>
      <trkpt lat="45.90758" lon="6.3462">
        <ele>988</ele>
        <time>2026-08-19T12:05:42.344Z</time>
      </trkpt>
      <trkpt lat="45.90757" lon="6.34619">
        <ele>987</ele>
        <time>2026-08-19T12:05:43.344Z</time>
      </trkpt>
      <trkpt lat="45.90755" lon="6.34618">
        <ele>987</ele>
        <time>2026-08-19T12:05:44.344Z</time>
      </trkpt>
      <trkpt lat="45.90753" lon="6.34616">
        <ele>987</ele>
        <time>2026-08-19T12:05:45.344Z</time>
      </trkpt>
      <trkpt lat="45.90751" lon="6.34615">
        <ele>987</ele>
        <time>2026-08-19T12:05:46.344Z</time>
      </trkpt>
      <trkpt lat="45.90749" lon="6.34613">
        <ele>987</ele>
        <time>2026-08-19T12:05:47.345Z</time>
      </trkpt>
      <trkpt lat="45.90747" lon="6.34612">
        <ele>987</ele>
        <time>2026-08-19T12:05:48.344Z</time>
      </trkpt>
      <trkpt lat="45.90745" lon="6.3461">
        <ele>987</ele>
        <time>2026-08-19T12:05:49.344Z</time>
      </trkpt>
      <trkpt lat="45.90743" lon="6.34607">
        <ele>987</ele>
        <time>2026-08-19T12:05:50.344Z</time>
      </trkpt>
      <trkpt lat="45.90741" lon="6.34604">
        <ele>987</ele>
        <time>2026-08-19T12:05:51.344Z</time>
      </trkpt>
      <trkpt lat="45.9074" lon="6.346">
        <ele>986</ele>
        <time>2026-08-19T12:05:52.344Z</time>
      </trkpt>
      <trkpt lat="45.90739" lon="6.34595">
        <ele>986</ele>
        <time>2026-08-19T12:05:53.344Z</time>
      </trkpt>
      <trkpt lat="45.90738" lon="6.34591">
        <ele>986</ele>
        <time>2026-08-19T12:05:54.344Z</time>
      </trkpt>
      <trkpt lat="45.90737" lon="6.34588">
        <ele>985</ele>
        <time>2026-08-19T12:05:55.344Z</time>
      </trkpt>
      <trkpt lat="45.90735" lon="6.34585">
        <ele>985</ele>
        <time>2026-08-19T12:05:56.344Z</time>
      </trkpt>
      <trkpt lat="45.90734" lon="6.34583">
        <ele>984</ele>
        <time>2026-08-19T12:05:57.344Z</time>
      </trkpt>
      <trkpt lat="45.90732" lon="6.34582">
        <ele>984</ele>
        <time>2026-08-19T12:05:58.344Z</time>
      </trkpt>
      <trkpt lat="45.9073" lon="6.3458">
        <ele>984</ele>
        <time>2026-08-19T12:05:59.344Z</time>
      </trkpt>
      <trkpt lat="45.90728" lon="6.34579">
        <ele>984</ele>
        <time>2026-08-19T12:06:00.344Z</time>
      </trkpt>
      <trkpt lat="45.90726" lon="6.34578">
        <ele>984</ele>
        <time>2026-08-19T12:06:01.344Z</time>
      </trkpt>
      <trkpt lat="45.90723" lon="6.34577">
        <ele>984</ele>
        <time>2026-08-19T12:06:02.344Z</time>
      </trkpt>
      <trkpt lat="45.90721" lon="6.34576">
        <ele>983</ele>
        <time>2026-08-19T12:06:03.344Z</time>
      </trkpt>
      <trkpt lat="45.90719" lon="6.34575">
        <ele>983</ele>
        <time>2026-08-19T12:06:04.344Z</time>
      </trkpt>
      <trkpt lat="45.90717" lon="6.34574">
        <ele>983</ele>
        <time>2026-08-19T12:06:05.344Z</time>
      </trkpt>
      <trkpt lat="45.90714" lon="6.34572">
        <ele>983</ele>
        <time>2026-08-19T12:06:06.344Z</time>
      </trkpt>
      <trkpt lat="45.90712" lon="6.3457">
        <ele>983</ele>
        <time>2026-08-19T12:06:07.344Z</time>
      </trkpt>
      <trkpt lat="45.9071" lon="6.34568">
        <ele>983</ele>
        <time>2026-08-19T12:06:08.344Z</time>
      </trkpt>
      <trkpt lat="45.90708" lon="6.34565">
        <ele>983</ele>
        <time>2026-08-19T12:06:09.344Z</time>
      </trkpt>
      <trkpt lat="45.90707" lon="6.34563">
        <ele>982</ele>
        <time>2026-08-19T12:06:10.344Z</time>
      </trkpt>
      <trkpt lat="45.90705" lon="6.34562">
        <ele>982</ele>
        <time>2026-08-19T12:06:11.344Z</time>
      </trkpt>
      <trkpt lat="45.90703" lon="6.34559">
        <ele>982</ele>
        <time>2026-08-19T12:06:12.344Z</time>
      </trkpt>
      <trkpt lat="45.90701" lon="6.34557">
        <ele>981</ele>
        <time>2026-08-19T12:06:13.344Z</time>
      </trkpt>
      <trkpt lat="45.90699" lon="6.34555">
        <ele>981</ele>
        <time>2026-08-19T12:06:14.344Z</time>
      </trkpt>
      <trkpt lat="45.90697" lon="6.34553">
        <ele>981</ele>
        <time>2026-08-19T12:06:15.344Z</time>
      </trkpt>
      <trkpt lat="45.90695" lon="6.34551">
        <ele>981</ele>
        <time>2026-08-19T12:06:16.344Z</time>
      </trkpt>
      <trkpt lat="45.90693" lon="6.34549">
        <ele>981</ele>
        <time>2026-08-19T12:06:17.345Z</time>
      </trkpt>
      <trkpt lat="45.90691" lon="6.34546">
        <ele>981</ele>
        <time>2026-08-19T12:06:18.344Z</time>
      </trkpt>
      <trkpt lat="45.90689" lon="6.34543">
        <ele>981</ele>
        <time>2026-08-19T12:06:19.344Z</time>
      </trkpt>
      <trkpt lat="45.90688" lon="6.34541">
        <ele>980</ele>
        <time>2026-08-19T12:06:20.344Z</time>
      </trkpt>
      <trkpt lat="45.90686" lon="6.34538">
        <ele>980</ele>
        <time>2026-08-19T12:06:21.344Z</time>
      </trkpt>
      <trkpt lat="45.90685" lon="6.34536">
        <ele>979</ele>
        <time>2026-08-19T12:06:22.344Z</time>
      </trkpt>
      <trkpt lat="45.90683" lon="6.34533">
        <ele>979</ele>
        <time>2026-08-19T12:06:23.344Z</time>
      </trkpt>
      <trkpt lat="45.90681" lon="6.34531">
        <ele>978</ele>
        <time>2026-08-19T12:06:24.344Z</time>
      </trkpt>
      <trkpt lat="45.9068" lon="6.34528">
        <ele>978</ele>
        <time>2026-08-19T12:06:25.344Z</time>
      </trkpt>
      <trkpt lat="45.90678" lon="6.34526">
        <ele>978</ele>
        <time>2026-08-19T12:06:26.344Z</time>
      </trkpt>
      <trkpt lat="45.90676" lon="6.34523">
        <ele>978</ele>
        <time>2026-08-19T12:06:27.344Z</time>
      </trkpt>
      <trkpt lat="45.90674" lon="6.3452">
        <ele>977</ele>
        <time>2026-08-19T12:06:28.344Z</time>
      </trkpt>
      <trkpt lat="45.90673" lon="6.34518">
        <ele>977</ele>
        <time>2026-08-19T12:06:29.344Z</time>
      </trkpt>
      <trkpt lat="45.90671" lon="6.34515">
        <ele>977</ele>
        <time>2026-08-19T12:06:30.344Z</time>
      </trkpt>
      <trkpt lat="45.90669" lon="6.34513">
        <ele>976</ele>
        <time>2026-08-19T12:06:31.344Z</time>
      </trkpt>
      <trkpt lat="45.90667" lon="6.3451">
        <ele>976</ele>
        <time>2026-08-19T12:06:32.344Z</time>
      </trkpt>
      <trkpt lat="45.90666" lon="6.34508">
        <ele>976</ele>
        <time>2026-08-19T12:06:33.344Z</time>
      </trkpt>
      <trkpt lat="45.90664" lon="6.34505">
        <ele>975</ele>
        <time>2026-08-19T12:06:34.344Z</time>
      </trkpt>
      <trkpt lat="45.90662" lon="6.34503">
        <ele>975</ele>
        <time>2026-08-19T12:06:35.345Z</time>
      </trkpt>
      <trkpt lat="45.90661" lon="6.345">
        <ele>974</ele>
        <time>2026-08-19T12:06:36.344Z</time>
      </trkpt>
      <trkpt lat="45.90659" lon="6.34497">
        <ele>974</ele>
        <time>2026-08-19T12:06:37.345Z</time>
      </trkpt>
      <trkpt lat="45.90657" lon="6.34494">
        <ele>974</ele>
        <time>2026-08-19T12:06:38.344Z</time>
      </trkpt>
      <trkpt lat="45.90656" lon="6.34491">
        <ele>974</ele>
        <time>2026-08-19T12:06:39.344Z</time>
      </trkpt>
      <trkpt lat="45.90654" lon="6.34488">
        <ele>974</ele>
        <time>2026-08-19T12:06:40.344Z</time>
      </trkpt>
      <trkpt lat="45.90653" lon="6.34485">
        <ele>973</ele>
        <time>2026-08-19T12:06:41.344Z</time>
      </trkpt>
      <trkpt lat="45.90651" lon="6.34482">
        <ele>973</ele>
        <time>2026-08-19T12:06:42.344Z</time>
      </trkpt>
      <trkpt lat="45.9065" lon="6.3448">
        <ele>972</ele>
        <time>2026-08-19T12:06:43.344Z</time>
      </trkpt>
      <trkpt lat="45.90648" lon="6.34477">
        <ele>972</ele>
        <time>2026-08-19T12:06:44.344Z</time>
      </trkpt>
      <trkpt lat="45.90647" lon="6.34474">
        <ele>973</ele>
        <time>2026-08-19T12:06:45.344Z</time>
      </trkpt>
      <trkpt lat="45.90645" lon="6.34471">
        <ele>973</ele>
        <time>2026-08-19T12:06:46.344Z</time>
      </trkpt>
      <trkpt lat="45.90644" lon="6.34469">
        <ele>972</ele>
        <time>2026-08-19T12:06:47.344Z</time>
      </trkpt>
      <trkpt lat="45.90642" lon="6.34467">
        <ele>972</ele>
        <time>2026-08-19T12:06:48.344Z</time>
      </trkpt>
      <trkpt lat="45.90641" lon="6.34464">
        <ele>972</ele>
        <time>2026-08-19T12:06:49.344Z</time>
      </trkpt>
      <trkpt lat="45.9064" lon="6.34461">
        <ele>972</ele>
        <time>2026-08-19T12:06:50.344Z</time>
      </trkpt>
      <trkpt lat="45.90638" lon="6.34459">
        <ele>972</ele>
        <time>2026-08-19T12:06:51.344Z</time>
      </trkpt>
      <trkpt lat="45.90637" lon="6.34456">
        <ele>972</ele>
        <time>2026-08-19T12:06:52.345Z</time>
      </trkpt>
      <trkpt lat="45.90635" lon="6.34454">
        <ele>971</ele>
        <time>2026-08-19T12:06:53.344Z</time>
      </trkpt>
      <trkpt lat="45.90634" lon="6.34451">
        <ele>970</ele>
        <time>2026-08-19T12:06:54.344Z</time>
      </trkpt>
      <trkpt lat="45.90633" lon="6.34448">
        <ele>970</ele>
        <time>2026-08-19T12:06:55.344Z</time>
      </trkpt>
      <trkpt lat="45.90631" lon="6.34446">
        <ele>969</ele>
        <time>2026-08-19T12:06:56.344Z</time>
      </trkpt>
      <trkpt lat="45.9063" lon="6.34443">
        <ele>969</ele>
        <time>2026-08-19T12:06:57.344Z</time>
      </trkpt>
      <trkpt lat="45.90628" lon="6.34441">
        <ele>968</ele>
        <time>2026-08-19T12:06:58.344Z</time>
      </trkpt>
      <trkpt lat="45.90627" lon="6.34439">
        <ele>968</ele>
        <time>2026-08-19T12:06:59.345Z</time>
      </trkpt>
      <trkpt lat="45.90625" lon="6.34436">
        <ele>968</ele>
        <time>2026-08-19T12:07:00.344Z</time>
      </trkpt>
      <trkpt lat="45.90623" lon="6.34434">
        <ele>968</ele>
        <time>2026-08-19T12:07:01.344Z</time>
      </trkpt>
      <trkpt lat="45.90622" lon="6.34431">
        <ele>968</ele>
        <time>2026-08-19T12:07:02.344Z</time>
      </trkpt>
      <trkpt lat="45.9062" lon="6.34429">
        <ele>968</ele>
        <time>2026-08-19T12:07:03.344Z</time>
      </trkpt>
      <trkpt lat="45.90618" lon="6.34427">
        <ele>968</ele>
        <time>2026-08-19T12:07:04.344Z</time>
      </trkpt>
      <trkpt lat="45.90616" lon="6.34425">
        <ele>968</ele>
        <time>2026-08-19T12:07:05.345Z</time>
      </trkpt>
      <trkpt lat="45.90614" lon="6.34423">
        <ele>968</ele>
        <time>2026-08-19T12:07:06.344Z</time>
      </trkpt>
      <trkpt lat="45.90612" lon="6.34421">
        <ele>969</ele>
        <time>2026-08-19T12:07:07.345Z</time>
      </trkpt>
      <trkpt lat="45.9061" lon="6.34418">
        <ele>969</ele>
        <time>2026-08-19T12:07:08.344Z</time>
      </trkpt>
      <trkpt lat="45.90609" lon="6.34416">
        <ele>968</ele>
        <time>2026-08-19T12:07:09.344Z</time>
      </trkpt>
      <trkpt lat="45.90607" lon="6.34414">
        <ele>968</ele>
        <time>2026-08-19T12:07:10.344Z</time>
      </trkpt>
      <trkpt lat="45.90605" lon="6.34411">
        <ele>968</ele>
        <time>2026-08-19T12:07:11.345Z</time>
      </trkpt>
      <trkpt lat="45.90604" lon="6.34409">
        <ele>968</ele>
        <time>2026-08-19T12:07:12.344Z</time>
      </trkpt>
      <trkpt lat="45.90602" lon="6.34406">
        <ele>968</ele>
        <time>2026-08-19T12:07:13.344Z</time>
      </trkpt>
      <trkpt lat="45.90601" lon="6.34403">
        <ele>968</ele>
        <time>2026-08-19T12:07:14.344Z</time>
      </trkpt>
      <trkpt lat="45.906" lon="6.344">
        <ele>968</ele>
        <time>2026-08-19T12:07:15.344Z</time>
      </trkpt>
      <trkpt lat="45.90599" lon="6.34397">
        <ele>968</ele>
        <time>2026-08-19T12:07:16.344Z</time>
      </trkpt>
      <trkpt lat="45.90598" lon="6.34393">
        <ele>968</ele>
        <time>2026-08-19T12:07:17.345Z</time>
      </trkpt>
      <trkpt lat="45.90597" lon="6.34391">
        <ele>967</ele>
        <time>2026-08-19T12:07:18.344Z</time>
      </trkpt>
      <trkpt lat="45.90596" lon="6.34388">
        <ele>967</ele>
        <time>2026-08-19T12:07:19.344Z</time>
      </trkpt>
      <trkpt lat="45.90594" lon="6.34385">
        <ele>967</ele>
        <time>2026-08-19T12:07:20.345Z</time>
      </trkpt>
      <trkpt lat="45.90593" lon="6.34382">
        <ele>967</ele>
        <time>2026-08-19T12:07:21.344Z</time>
      </trkpt>
      <trkpt lat="45.90592" lon="6.3438">
        <ele>967</ele>
        <time>2026-08-19T12:07:22.344Z</time>
      </trkpt>
      <trkpt lat="45.9059" lon="6.34377">
        <ele>966</ele>
        <time>2026-08-19T12:07:23.344Z</time>
      </trkpt>
      <trkpt lat="45.90588" lon="6.34375">
        <ele>966</ele>
        <time>2026-08-19T12:07:24.344Z</time>
      </trkpt>
      <trkpt lat="45.90587" lon="6.34372">
        <ele>966</ele>
        <time>2026-08-19T12:07:25.344Z</time>
      </trkpt>
      <trkpt lat="45.90585" lon="6.34369">
        <ele>966</ele>
        <time>2026-08-19T12:07:26.344Z</time>
      </trkpt>
      <trkpt lat="45.90584" lon="6.34367">
        <ele>966</ele>
        <time>2026-08-19T12:07:27.344Z</time>
      </trkpt>
      <trkpt lat="45.90583" lon="6.34365">
        <ele>966</ele>
        <time>2026-08-19T12:07:28.344Z</time>
      </trkpt>
      <trkpt lat="45.90581" lon="6.34362">
        <ele>966</ele>
        <time>2026-08-19T12:07:29.345Z</time>
      </trkpt>
      <trkpt lat="45.90579" lon="6.3436">
        <ele>966</ele>
        <time>2026-08-19T12:07:30.344Z</time>
      </trkpt>
      <trkpt lat="45.90578" lon="6.34358">
        <ele>965</ele>
        <time>2026-08-19T12:07:31.345Z</time>
      </trkpt>
      <trkpt lat="45.90577" lon="6.34355">
        <ele>965</ele>
        <time>2026-08-19T12:07:32.344Z</time>
      </trkpt>
      <trkpt lat="45.90575" lon="6.34353">
        <ele>964</ele>
        <time>2026-08-19T12:07:33.344Z</time>
      </trkpt>
      <trkpt lat="45.90573" lon="6.3435">
        <ele>964</ele>
        <time>2026-08-19T12:07:34.344Z</time>
      </trkpt>
      <trkpt lat="45.90571" lon="6.34348">
        <ele>964</ele>
        <time>2026-08-19T12:07:35.344Z</time>
      </trkpt>
      <trkpt lat="45.9057" lon="6.34346">
        <ele>964</ele>
        <time>2026-08-19T12:07:36.344Z</time>
      </trkpt>
      <trkpt lat="45.90568" lon="6.34344">
        <ele>963</ele>
        <time>2026-08-19T12:07:37.344Z</time>
      </trkpt>
      <trkpt lat="45.90567" lon="6.34341">
        <ele>963</ele>
        <time>2026-08-19T12:07:38.344Z</time>
      </trkpt>
      <trkpt lat="45.90565" lon="6.34338">
        <ele>963</ele>
        <time>2026-08-19T12:07:39.344Z</time>
      </trkpt>
      <trkpt lat="45.90564" lon="6.34336">
        <ele>963</ele>
        <time>2026-08-19T12:07:40.344Z</time>
      </trkpt>
      <trkpt lat="45.90563" lon="6.34333">
        <ele>963</ele>
        <time>2026-08-19T12:07:41.344Z</time>
      </trkpt>
      <trkpt lat="45.90561" lon="6.3433">
        <ele>963</ele>
        <time>2026-08-19T12:07:42.344Z</time>
      </trkpt>
      <trkpt lat="45.9056" lon="6.34327">
        <ele>963</ele>
        <time>2026-08-19T12:07:43.344Z</time>
      </trkpt>
      <trkpt lat="45.90559" lon="6.34324">
        <ele>962</ele>
        <time>2026-08-19T12:07:44.344Z</time>
      </trkpt>
      <trkpt lat="45.90558" lon="6.34322">
        <ele>962</ele>
        <time>2026-08-19T12:07:45.344Z</time>
      </trkpt>
      <trkpt lat="45.90557" lon="6.34318">
        <ele>962</ele>
        <time>2026-08-19T12:07:46.344Z</time>
      </trkpt>
      <trkpt lat="45.90555" lon="6.34316">
        <ele>962</ele>
        <time>2026-08-19T12:07:47.344Z</time>
      </trkpt>
      <trkpt lat="45.90554" lon="6.34313">
        <ele>961</ele>
        <time>2026-08-19T12:07:48.345Z</time>
      </trkpt>
      <trkpt lat="45.90553" lon="6.34311">
        <ele>960</ele>
        <time>2026-08-19T12:07:49.344Z</time>
      </trkpt>
      <trkpt lat="45.90551" lon="6.34308">
        <ele>959</ele>
        <time>2026-08-19T12:07:50.344Z</time>
      </trkpt>
      <trkpt lat="45.90549" lon="6.34305">
        <ele>959</ele>
        <time>2026-08-19T12:07:51.345Z</time>
      </trkpt>
      <trkpt lat="45.90548" lon="6.34303">
        <ele>959</ele>
        <time>2026-08-19T12:07:52.344Z</time>
      </trkpt>
      <trkpt lat="45.90547" lon="6.343">
        <ele>959</ele>
        <time>2026-08-19T12:07:53.344Z</time>
      </trkpt>
      <trkpt lat="45.90545" lon="6.34297">
        <ele>959</ele>
        <time>2026-08-19T12:07:54.344Z</time>
      </trkpt>
      <trkpt lat="45.90543" lon="6.34295">
        <ele>959</ele>
        <time>2026-08-19T12:07:55.344Z</time>
      </trkpt>
      <trkpt lat="45.90542" lon="6.34293">
        <ele>959</ele>
        <time>2026-08-19T12:07:56.344Z</time>
      </trkpt>
      <trkpt lat="45.9054" lon="6.3429">
        <ele>959</ele>
        <time>2026-08-19T12:07:57.344Z</time>
      </trkpt>
      <trkpt lat="45.90538" lon="6.34288">
        <ele>959</ele>
        <time>2026-08-19T12:07:58.344Z</time>
      </trkpt>
      <trkpt lat="45.90536" lon="6.34285">
        <ele>959</ele>
        <time>2026-08-19T12:07:59.344Z</time>
      </trkpt>
      <trkpt lat="45.90534" lon="6.34283">
        <ele>959</ele>
        <time>2026-08-19T12:08:00.344Z</time>
      </trkpt>
      <trkpt lat="45.90532" lon="6.34282">
        <ele>959</ele>
        <time>2026-08-19T12:08:01.344Z</time>
      </trkpt>
      <trkpt lat="45.9053" lon="6.3428">
        <ele>959</ele>
        <time>2026-08-19T12:08:02.344Z</time>
      </trkpt>
      <trkpt lat="45.90528" lon="6.34278">
        <ele>959</ele>
        <time>2026-08-19T12:08:03.344Z</time>
      </trkpt>
      <trkpt lat="45.90526" lon="6.34276">
        <ele>959</ele>
        <time>2026-08-19T12:08:04.344Z</time>
      </trkpt>
      <trkpt lat="45.90524" lon="6.34274">
        <ele>959</ele>
        <time>2026-08-19T12:08:05.344Z</time>
      </trkpt>
      <trkpt lat="45.90522" lon="6.34273">
        <ele>959</ele>
        <time>2026-08-19T12:08:06.344Z</time>
      </trkpt>
      <trkpt lat="45.90519" lon="6.34271">
        <ele>959</ele>
        <time>2026-08-19T12:08:07.344Z</time>
      </trkpt>
      <trkpt lat="45.90517" lon="6.3427">
        <ele>959</ele>
        <time>2026-08-19T12:08:08.344Z</time>
      </trkpt>
      <trkpt lat="45.90515" lon="6.34269">
        <ele>959</ele>
        <time>2026-08-19T12:08:09.344Z</time>
      </trkpt>
      <trkpt lat="45.90512" lon="6.34267">
        <ele>959</ele>
        <time>2026-08-19T12:08:10.344Z</time>
      </trkpt>
      <trkpt lat="45.90509" lon="6.34266">
        <ele>958</ele>
        <time>2026-08-19T12:08:11.344Z</time>
      </trkpt>
      <trkpt lat="45.90508" lon="6.34264">
        <ele>958</ele>
        <time>2026-08-19T12:08:12.344Z</time>
      </trkpt>
      <trkpt lat="45.90505" lon="6.34262">
        <ele>958</ele>
        <time>2026-08-19T12:08:13.344Z</time>
      </trkpt>
      <trkpt lat="45.90503" lon="6.3426">
        <ele>957</ele>
        <time>2026-08-19T12:08:14.344Z</time>
      </trkpt>
      <trkpt lat="45.90501" lon="6.34259">
        <ele>957</ele>
        <time>2026-08-19T12:08:15.344Z</time>
      </trkpt>
      <trkpt lat="45.90499" lon="6.34258">
        <ele>957</ele>
        <time>2026-08-19T12:08:16.344Z</time>
      </trkpt>
      <trkpt lat="45.90496" lon="6.34256">
        <ele>957</ele>
        <time>2026-08-19T12:08:17.344Z</time>
      </trkpt>
      <trkpt lat="45.90494" lon="6.34255">
        <ele>957</ele>
        <time>2026-08-19T12:08:18.344Z</time>
      </trkpt>
      <trkpt lat="45.90492" lon="6.34252">
        <ele>957</ele>
        <time>2026-08-19T12:08:19.345Z</time>
      </trkpt>
      <trkpt lat="45.9049" lon="6.34249">
        <ele>956</ele>
        <time>2026-08-19T12:08:20.344Z</time>
      </trkpt>
      <trkpt lat="45.90488" lon="6.34247">
        <ele>956</ele>
        <time>2026-08-19T12:08:21.344Z</time>
      </trkpt>
      <trkpt lat="45.90486" lon="6.34245">
        <ele>956</ele>
        <time>2026-08-19T12:08:22.344Z</time>
      </trkpt>
      <trkpt lat="45.90484" lon="6.34242">
        <ele>955</ele>
        <time>2026-08-19T12:08:23.344Z</time>
      </trkpt>
      <trkpt lat="45.90482" lon="6.3424">
        <ele>955</ele>
        <time>2026-08-19T12:08:24.345Z</time>
      </trkpt>
      <trkpt lat="45.9048" lon="6.34238">
        <ele>955</ele>
        <time>2026-08-19T12:08:25.344Z</time>
      </trkpt>
      <trkpt lat="45.90478" lon="6.34236">
        <ele>954</ele>
        <time>2026-08-19T12:08:26.344Z</time>
      </trkpt>
      <trkpt lat="45.90476" lon="6.34233">
        <ele>954</ele>
        <time>2026-08-19T12:08:27.344Z</time>
      </trkpt>
      <trkpt lat="45.90474" lon="6.34231">
        <ele>954</ele>
        <time>2026-08-19T12:08:28.344Z</time>
      </trkpt>
      <trkpt lat="45.90472" lon="6.34229">
        <ele>954</ele>
        <time>2026-08-19T12:08:29.344Z</time>
      </trkpt>
      <trkpt lat="45.9047" lon="6.34227">
        <ele>954</ele>
        <time>2026-08-19T12:08:30.344Z</time>
      </trkpt>
      <trkpt lat="45.90468" lon="6.34225">
        <ele>954</ele>
        <time>2026-08-19T12:08:31.345Z</time>
      </trkpt>
      <trkpt lat="45.90466" lon="6.34223">
        <ele>953</ele>
        <time>2026-08-19T12:08:32.344Z</time>
      </trkpt>
      <trkpt lat="45.90464" lon="6.34221">
        <ele>953</ele>
        <time>2026-08-19T12:08:33.344Z</time>
      </trkpt>
      <trkpt lat="45.90462" lon="6.3422">
        <ele>953</ele>
        <time>2026-08-19T12:08:34.344Z</time>
      </trkpt>
      <trkpt lat="45.9046" lon="6.34218">
        <ele>952</ele>
        <time>2026-08-19T12:08:35.344Z</time>
      </trkpt>
      <trkpt lat="45.90458" lon="6.34216">
        <ele>952</ele>
        <time>2026-08-19T12:08:36.344Z</time>
      </trkpt>
      <trkpt lat="45.90456" lon="6.34214">
        <ele>951</ele>
        <time>2026-08-19T12:08:37.344Z</time>
      </trkpt>
      <trkpt lat="45.90454" lon="6.34212">
        <ele>951</ele>
        <time>2026-08-19T12:08:38.345Z</time>
      </trkpt>
      <trkpt lat="45.90452" lon="6.3421">
        <ele>951</ele>
        <time>2026-08-19T12:08:39.344Z</time>
      </trkpt>
      <trkpt lat="45.9045" lon="6.34209">
        <ele>951</ele>
        <time>2026-08-19T12:08:40.344Z</time>
      </trkpt>
      <trkpt lat="45.90447" lon="6.34208">
        <ele>951</ele>
        <time>2026-08-19T12:08:41.344Z</time>
      </trkpt>
      <trkpt lat="45.90445" lon="6.34207">
        <ele>951</ele>
        <time>2026-08-19T12:08:42.344Z</time>
      </trkpt>
      <trkpt lat="45.90442" lon="6.34205">
        <ele>950</ele>
        <time>2026-08-19T12:08:43.344Z</time>
      </trkpt>
      <trkpt lat="45.9044" lon="6.34203">
        <ele>950</ele>
        <time>2026-08-19T12:08:44.344Z</time>
      </trkpt>
      <trkpt lat="45.90437" lon="6.34201">
        <ele>950</ele>
        <time>2026-08-19T12:08:45.344Z</time>
      </trkpt>
      <trkpt lat="45.90435" lon="6.342">
        <ele>949</ele>
        <time>2026-08-19T12:08:46.345Z</time>
      </trkpt>
      <trkpt lat="45.90433" lon="6.34199">
        <ele>949</ele>
        <time>2026-08-19T12:08:47.344Z</time>
      </trkpt>
      <trkpt lat="45.90431" lon="6.34197">
        <ele>949</ele>
        <time>2026-08-19T12:08:48.344Z</time>
      </trkpt>
      <trkpt lat="45.90429" lon="6.34195">
        <ele>949</ele>
        <time>2026-08-19T12:08:49.344Z</time>
      </trkpt>
      <trkpt lat="45.90427" lon="6.34193">
        <ele>949</ele>
        <time>2026-08-19T12:08:50.344Z</time>
      </trkpt>
      <trkpt lat="45.90425" lon="6.34192">
        <ele>949</ele>
        <time>2026-08-19T12:08:51.344Z</time>
      </trkpt>
      <trkpt lat="45.90422" lon="6.34189">
        <ele>949</ele>
        <time>2026-08-19T12:08:52.344Z</time>
      </trkpt>
      <trkpt lat="45.9042" lon="6.34187">
        <ele>948</ele>
        <time>2026-08-19T12:08:53.345Z</time>
      </trkpt>
      <trkpt lat="45.90418" lon="6.34186">
        <ele>948</ele>
        <time>2026-08-19T12:08:54.344Z</time>
      </trkpt>
      <trkpt lat="45.90416" lon="6.34183">
        <ele>947</ele>
        <time>2026-08-19T12:08:55.344Z</time>
      </trkpt>
      <trkpt lat="45.90413" lon="6.34181">
        <ele>947</ele>
        <time>2026-08-19T12:08:56.344Z</time>
      </trkpt>
      <trkpt lat="45.90411" lon="6.34179">
        <ele>947</ele>
        <time>2026-08-19T12:08:57.344Z</time>
      </trkpt>
      <trkpt lat="45.90409" lon="6.34177">
        <ele>947</ele>
        <time>2026-08-19T12:08:58.344Z</time>
      </trkpt>
      <trkpt lat="45.90407" lon="6.34175">
        <ele>947</ele>
        <time>2026-08-19T12:08:59.344Z</time>
      </trkpt>
      <trkpt lat="45.90405" lon="6.34173">
        <ele>947</ele>
        <time>2026-08-19T12:09:00.344Z</time>
      </trkpt>
      <trkpt lat="45.90402" lon="6.34171">
        <ele>947</ele>
        <time>2026-08-19T12:09:01.344Z</time>
      </trkpt>
      <trkpt lat="45.904" lon="6.34168">
        <ele>947</ele>
        <time>2026-08-19T12:09:02.344Z</time>
      </trkpt>
      <trkpt lat="45.90398" lon="6.34165">
        <ele>947</ele>
        <time>2026-08-19T12:09:03.344Z</time>
      </trkpt>
      <trkpt lat="45.90396" lon="6.34163">
        <ele>946</ele>
        <time>2026-08-19T12:09:04.344Z</time>
      </trkpt>
      <trkpt lat="45.90394" lon="6.3416">
        <ele>946</ele>
        <time>2026-08-19T12:09:05.344Z</time>
      </trkpt>
      <trkpt lat="45.90391" lon="6.34157">
        <ele>946</ele>
        <time>2026-08-19T12:09:06.344Z</time>
      </trkpt>
      <trkpt lat="45.90389" lon="6.34155">
        <ele>946</ele>
        <time>2026-08-19T12:09:07.344Z</time>
      </trkpt>
      <trkpt lat="45.90388" lon="6.34153">
        <ele>945</ele>
        <time>2026-08-19T12:09:08.344Z</time>
      </trkpt>
      <trkpt lat="45.90385" lon="6.3415">
        <ele>944</ele>
        <time>2026-08-19T12:09:09.344Z</time>
      </trkpt>
      <trkpt lat="45.90382" lon="6.34147">
        <ele>944</ele>
        <time>2026-08-19T12:09:10.344Z</time>
      </trkpt>
      <trkpt lat="45.9038" lon="6.34146">
        <ele>944</ele>
        <time>2026-08-19T12:09:11.344Z</time>
      </trkpt>
      <trkpt lat="45.90378" lon="6.34143">
        <ele>943</ele>
        <time>2026-08-19T12:09:12.344Z</time>
      </trkpt>
      <trkpt lat="45.90376" lon="6.34141">
        <ele>943</ele>
        <time>2026-08-19T12:09:13.344Z</time>
      </trkpt>
      <trkpt lat="45.90374" lon="6.34138">
        <ele>942</ele>
        <time>2026-08-19T12:09:14.344Z</time>
      </trkpt>
      <trkpt lat="45.90372" lon="6.34136">
        <ele>942</ele>
        <time>2026-08-19T12:09:15.344Z</time>
      </trkpt>
      <trkpt lat="45.9037" lon="6.34133">
        <ele>942</ele>
        <time>2026-08-19T12:09:16.344Z</time>
      </trkpt>
      <trkpt lat="45.90368" lon="6.3413">
        <ele>941</ele>
        <time>2026-08-19T12:09:17.344Z</time>
      </trkpt>
      <trkpt lat="45.90366" lon="6.34127">
        <ele>941</ele>
        <time>2026-08-19T12:09:18.344Z</time>
      </trkpt>
      <trkpt lat="45.90364" lon="6.34125">
        <ele>940</ele>
        <time>2026-08-19T12:09:19.344Z</time>
      </trkpt>
      <trkpt lat="45.90362" lon="6.34122">
        <ele>940</ele>
        <time>2026-08-19T12:09:20.344Z</time>
      </trkpt>
      <trkpt lat="45.9036" lon="6.34119">
        <ele>939</ele>
        <time>2026-08-19T12:09:21.344Z</time>
      </trkpt>
      <trkpt lat="45.90359" lon="6.34116">
        <ele>938</ele>
        <time>2026-08-19T12:09:22.344Z</time>
      </trkpt>
      <trkpt lat="45.90357" lon="6.34113">
        <ele>938</ele>
        <time>2026-08-19T12:09:23.344Z</time>
      </trkpt>
      <trkpt lat="45.90356" lon="6.3411">
        <ele>937</ele>
        <time>2026-08-19T12:09:24.344Z</time>
      </trkpt>
      <trkpt lat="45.90355" lon="6.34107">
        <ele>937</ele>
        <time>2026-08-19T12:09:25.344Z</time>
      </trkpt>
      <trkpt lat="45.90354" lon="6.34103">
        <ele>937</ele>
        <time>2026-08-19T12:09:26.345Z</time>
      </trkpt>
      <trkpt lat="45.90353" lon="6.34101">
        <ele>937</ele>
        <time>2026-08-19T12:09:27.344Z</time>
      </trkpt>
      <trkpt lat="45.90351" lon="6.34096">
        <ele>937</ele>
        <time>2026-08-19T12:09:28.344Z</time>
      </trkpt>
      <trkpt lat="45.9035" lon="6.34092">
        <ele>936</ele>
        <time>2026-08-19T12:09:29.344Z</time>
      </trkpt>
      <trkpt lat="45.90349" lon="6.34089">
        <ele>936</ele>
        <time>2026-08-19T12:09:30.344Z</time>
      </trkpt>
      <trkpt lat="45.90348" lon="6.34087">
        <ele>936</ele>
        <time>2026-08-19T12:09:31.344Z</time>
      </trkpt>
      <trkpt lat="45.90346" lon="6.34084">
        <ele>936</ele>
        <time>2026-08-19T12:09:32.344Z</time>
      </trkpt>
      <trkpt lat="45.90344" lon="6.34081">
        <ele>936</ele>
        <time>2026-08-19T12:09:33.344Z</time>
      </trkpt>
      <trkpt lat="45.90342" lon="6.34079">
        <ele>936</ele>
        <time>2026-08-19T12:09:34.345Z</time>
      </trkpt>
      <trkpt lat="45.9034" lon="6.34077">
        <ele>936</ele>
        <time>2026-08-19T12:09:35.344Z</time>
      </trkpt>
      <trkpt lat="45.90338" lon="6.34076">
        <ele>936</ele>
        <time>2026-08-19T12:09:36.345Z</time>
      </trkpt>
      <trkpt lat="45.90336" lon="6.34074">
        <ele>936</ele>
        <time>2026-08-19T12:09:37.345Z</time>
      </trkpt>
      <trkpt lat="45.90334" lon="6.34072">
        <ele>936</ele>
        <time>2026-08-19T12:09:38.345Z</time>
      </trkpt>
      <trkpt lat="45.90332" lon="6.3407">
        <ele>935</ele>
        <time>2026-08-19T12:09:39.344Z</time>
      </trkpt>
      <trkpt lat="45.90331" lon="6.34068">
        <ele>935</ele>
        <time>2026-08-19T12:09:40.344Z</time>
      </trkpt>
      <trkpt lat="45.90329" lon="6.34066">
        <ele>935</ele>
        <time>2026-08-19T12:09:41.344Z</time>
      </trkpt>
      <trkpt lat="45.90328" lon="6.34063">
        <ele>935</ele>
        <time>2026-08-19T12:09:42.344Z</time>
      </trkpt>
      <trkpt lat="45.90326" lon="6.34062">
        <ele>935</ele>
        <time>2026-08-19T12:09:43.344Z</time>
      </trkpt>
      <trkpt lat="45.90324" lon="6.34061">
        <ele>935</ele>
        <time>2026-08-19T12:09:44.344Z</time>
      </trkpt>
      <trkpt lat="45.90323" lon="6.34059">
        <ele>935</ele>
        <time>2026-08-19T12:09:45.344Z</time>
      </trkpt>
      <trkpt lat="45.90321" lon="6.34057">
        <ele>935</ele>
        <time>2026-08-19T12:09:46.344Z</time>
      </trkpt>
      <trkpt lat="45.90319" lon="6.34055">
        <ele>935</ele>
        <time>2026-08-19T12:09:47.344Z</time>
      </trkpt>
      <trkpt lat="45.90317" lon="6.34053">
        <ele>935</ele>
        <time>2026-08-19T12:09:48.344Z</time>
      </trkpt>
      <trkpt lat="45.90315" lon="6.34052">
        <ele>935</ele>
        <time>2026-08-19T12:09:49.344Z</time>
      </trkpt>
      <trkpt lat="45.90313" lon="6.34049">
        <ele>935</ele>
        <time>2026-08-19T12:09:50.344Z</time>
      </trkpt>
      <trkpt lat="45.90311" lon="6.34048">
        <ele>935</ele>
        <time>2026-08-19T12:09:51.344Z</time>
      </trkpt>
      <trkpt lat="45.90309" lon="6.34047">
        <ele>935</ele>
        <time>2026-08-19T12:09:52.344Z</time>
      </trkpt>
      <trkpt lat="45.90307" lon="6.34045">
        <ele>935</ele>
        <time>2026-08-19T12:09:53.344Z</time>
      </trkpt>
      <trkpt lat="45.90305" lon="6.34043">
        <ele>935</ele>
        <time>2026-08-19T12:09:54.344Z</time>
      </trkpt>
      <trkpt lat="45.90303" lon="6.34042">
        <ele>935</ele>
        <time>2026-08-19T12:09:55.344Z</time>
      </trkpt>
      <trkpt lat="45.90301" lon="6.34041">
        <ele>935</ele>
        <time>2026-08-19T12:09:56.344Z</time>
      </trkpt>
      <trkpt lat="45.90298" lon="6.3404">
        <ele>934</ele>
        <time>2026-08-19T12:09:57.344Z</time>
      </trkpt>
      <trkpt lat="45.90296" lon="6.34038">
        <ele>934</ele>
        <time>2026-08-19T12:09:58.345Z</time>
      </trkpt>
      <trkpt lat="45.90294" lon="6.34036">
        <ele>933</ele>
        <time>2026-08-19T12:09:59.344Z</time>
      </trkpt>
      <trkpt lat="45.90292" lon="6.34034">
        <ele>933</ele>
        <time>2026-08-19T12:10:00.344Z</time>
      </trkpt>
      <trkpt lat="45.9029" lon="6.34032">
        <ele>933</ele>
        <time>2026-08-19T12:10:01.344Z</time>
      </trkpt>
      <trkpt lat="45.90288" lon="6.3403">
        <ele>933</ele>
        <time>2026-08-19T12:10:02.345Z</time>
      </trkpt>
      <trkpt lat="45.90286" lon="6.34027">
        <ele>933</ele>
        <time>2026-08-19T12:10:03.344Z</time>
      </trkpt>
      <trkpt lat="45.90284" lon="6.34025">
        <ele>933</ele>
        <time>2026-08-19T12:10:04.344Z</time>
      </trkpt>
      <trkpt lat="45.90283" lon="6.34024">
        <ele>932</ele>
        <time>2026-08-19T12:10:05.344Z</time>
      </trkpt>
      <trkpt lat="45.90281" lon="6.34021">
        <ele>931</ele>
        <time>2026-08-19T12:10:06.344Z</time>
      </trkpt>
      <trkpt lat="45.90279" lon="6.34018">
        <ele>931</ele>
        <time>2026-08-19T12:10:07.344Z</time>
      </trkpt>
      <trkpt lat="45.90277" lon="6.34016">
        <ele>931</ele>
        <time>2026-08-19T12:10:08.344Z</time>
      </trkpt>
      <trkpt lat="45.90276" lon="6.34014">
        <ele>931</ele>
        <time>2026-08-19T12:10:09.344Z</time>
      </trkpt>
      <trkpt lat="45.90274" lon="6.34011">
        <ele>930</ele>
        <time>2026-08-19T12:10:10.345Z</time>
      </trkpt>
      <trkpt lat="45.90273" lon="6.34007">
        <ele>930</ele>
        <time>2026-08-19T12:10:11.344Z</time>
      </trkpt>
      <trkpt lat="45.90272" lon="6.34004">
        <ele>930</ele>
        <time>2026-08-19T12:10:12.344Z</time>
      </trkpt>
      <trkpt lat="45.90271" lon="6.34001">
        <ele>929</ele>
        <time>2026-08-19T12:10:13.344Z</time>
      </trkpt>
      <trkpt lat="45.9027" lon="6.33999">
        <ele>928</ele>
        <time>2026-08-19T12:10:14.345Z</time>
      </trkpt>
      <trkpt lat="45.90268" lon="6.33996">
        <ele>928</ele>
        <time>2026-08-19T12:10:15.344Z</time>
      </trkpt>
      <trkpt lat="45.90266" lon="6.33992">
        <ele>927</ele>
        <time>2026-08-19T12:10:16.344Z</time>
      </trkpt>
      <trkpt lat="45.90265" lon="6.3399">
        <ele>926</ele>
        <time>2026-08-19T12:10:17.344Z</time>
      </trkpt>
      <trkpt lat="45.90263" lon="6.33988">
        <ele>926</ele>
        <time>2026-08-19T12:10:18.345Z</time>
      </trkpt>
      <trkpt lat="45.90261" lon="6.33985">
        <ele>925</ele>
        <time>2026-08-19T12:10:19.344Z</time>
      </trkpt>
      <trkpt lat="45.90259" lon="6.33982">
        <ele>924</ele>
        <time>2026-08-19T12:10:20.344Z</time>
      </trkpt>
      <trkpt lat="45.90258" lon="6.33979">
        <ele>924</ele>
        <time>2026-08-19T12:10:21.344Z</time>
      </trkpt>
      <trkpt lat="45.90256" lon="6.33977">
        <ele>923</ele>
        <time>2026-08-19T12:10:22.344Z</time>
      </trkpt>
      <trkpt lat="45.90254" lon="6.33974">
        <ele>923</ele>
        <time>2026-08-19T12:10:23.344Z</time>
      </trkpt>
      <trkpt lat="45.90252" lon="6.33972">
        <ele>922</ele>
        <time>2026-08-19T12:10:24.344Z</time>
      </trkpt>
      <trkpt lat="45.90249" lon="6.3397">
        <ele>922</ele>
        <time>2026-08-19T12:10:25.344Z</time>
      </trkpt>
      <trkpt lat="45.90248" lon="6.33967">
        <ele>921</ele>
        <time>2026-08-19T12:10:26.344Z</time>
      </trkpt>
      <trkpt lat="45.90246" lon="6.33964">
        <ele>921</ele>
        <time>2026-08-19T12:10:27.344Z</time>
      </trkpt>
      <trkpt lat="45.90245" lon="6.3396">
        <ele>920</ele>
        <time>2026-08-19T12:10:28.344Z</time>
      </trkpt>
      <trkpt lat="45.90244" lon="6.33957">
        <ele>920</ele>
        <time>2026-08-19T12:10:29.344Z</time>
      </trkpt>
      <trkpt lat="45.90243" lon="6.33953">
        <ele>919</ele>
        <time>2026-08-19T12:10:30.344Z</time>
      </trkpt>
      <trkpt lat="45.90242" lon="6.33949">
        <ele>918</ele>
        <time>2026-08-19T12:10:31.344Z</time>
      </trkpt>
      <trkpt lat="45.90242" lon="6.33945">
        <ele>918</ele>
        <time>2026-08-19T12:10:32.344Z</time>
      </trkpt>
      <trkpt lat="45.90242" lon="6.33942">
        <ele>917</ele>
        <time>2026-08-19T12:10:33.344Z</time>
      </trkpt>
      <trkpt lat="45.90241" lon="6.33939">
        <ele>917</ele>
        <time>2026-08-19T12:10:34.344Z</time>
      </trkpt>
      <trkpt lat="45.9024" lon="6.33933">
        <ele>916</ele>
        <time>2026-08-19T12:10:35.344Z</time>
      </trkpt>
      <trkpt lat="45.90239" lon="6.33929">
        <ele>916</ele>
        <time>2026-08-19T12:10:36.344Z</time>
      </trkpt>
      <trkpt lat="45.90239" lon="6.33926">
        <ele>915</ele>
        <time>2026-08-19T12:10:37.344Z</time>
      </trkpt>
      <trkpt lat="45.90238" lon="6.33923">
        <ele>915</ele>
        <time>2026-08-19T12:10:38.344Z</time>
      </trkpt>
      <trkpt lat="45.90237" lon="6.33919">
        <ele>915</ele>
        <time>2026-08-19T12:10:39.345Z</time>
      </trkpt>
      <trkpt lat="45.90236" lon="6.33916">
        <ele>914</ele>
        <time>2026-08-19T12:10:40.344Z</time>
      </trkpt>
      <trkpt lat="45.90235" lon="6.33913">
        <ele>914</ele>
        <time>2026-08-19T12:10:41.344Z</time>
      </trkpt>
      <trkpt lat="45.90234" lon="6.3391">
        <ele>915</ele>
        <time>2026-08-19T12:10:42.345Z</time>
      </trkpt>
      <trkpt lat="45.90232" lon="6.33908">
        <ele>915</ele>
        <time>2026-08-19T12:10:43.344Z</time>
      </trkpt>
      <trkpt lat="45.90231" lon="6.33906">
        <ele>914</ele>
        <time>2026-08-19T12:10:44.344Z</time>
      </trkpt>
      <trkpt lat="45.90229" lon="6.33903">
        <ele>914</ele>
        <time>2026-08-19T12:10:45.344Z</time>
      </trkpt>
      <trkpt lat="45.90228" lon="6.33901">
        <ele>914</ele>
        <time>2026-08-19T12:10:46.344Z</time>
      </trkpt>
      <trkpt lat="45.90227" lon="6.33899">
        <ele>914</ele>
        <time>2026-08-19T12:10:47.344Z</time>
      </trkpt>
      <trkpt lat="45.90225" lon="6.33896">
        <ele>914</ele>
        <time>2026-08-19T12:10:48.344Z</time>
      </trkpt>
      <trkpt lat="45.90224" lon="6.33894">
        <ele>914</ele>
        <time>2026-08-19T12:10:49.344Z</time>
      </trkpt>
      <trkpt lat="45.90222" lon="6.33892">
        <ele>914</ele>
        <time>2026-08-19T12:10:50.344Z</time>
      </trkpt>
      <trkpt lat="45.90221" lon="6.3389">
        <ele>914</ele>
        <time>2026-08-19T12:10:51.344Z</time>
      </trkpt>
      <trkpt lat="45.90219" lon="6.33886">
        <ele>914</ele>
        <time>2026-08-19T12:10:52.344Z</time>
      </trkpt>
      <trkpt lat="45.90217" lon="6.33883">
        <ele>914</ele>
        <time>2026-08-19T12:10:53.344Z</time>
      </trkpt>
      <trkpt lat="45.90216" lon="6.33881">
        <ele>914</ele>
        <time>2026-08-19T12:10:54.344Z</time>
      </trkpt>
      <trkpt lat="45.90215" lon="6.33878">
        <ele>915</ele>
        <time>2026-08-19T12:10:55.344Z</time>
      </trkpt>
      <trkpt lat="45.90213" lon="6.33875">
        <ele>915</ele>
        <time>2026-08-19T12:10:56.345Z</time>
      </trkpt>
      <trkpt lat="45.90212" lon="6.33872">
        <ele>915</ele>
        <time>2026-08-19T12:10:57.344Z</time>
      </trkpt>
      <trkpt lat="45.9021" lon="6.33869">
        <ele>915</ele>
        <time>2026-08-19T12:10:58.344Z</time>
      </trkpt>
      <trkpt lat="45.90209" lon="6.33867">
        <ele>915</ele>
        <time>2026-08-19T12:10:59.344Z</time>
      </trkpt>
      <trkpt lat="45.90208" lon="6.33864">
        <ele>915</ele>
        <time>2026-08-19T12:11:00.344Z</time>
      </trkpt>
      <trkpt lat="45.90207" lon="6.33861">
        <ele>914</ele>
        <time>2026-08-19T12:11:01.344Z</time>
      </trkpt>
      <trkpt lat="45.90206" lon="6.3386">
        <ele>914</ele>
        <time>2026-08-19T12:11:02.344Z</time>
      </trkpt>
      <trkpt lat="45.90205" lon="6.33858">
        <ele>914</ele>
        <time>2026-08-19T12:11:03.344Z</time>
      </trkpt>
      <trkpt lat="45.90204" lon="6.33855">
        <ele>913</ele>
        <time>2026-08-19T12:11:04.344Z</time>
      </trkpt>
      <trkpt lat="45.90202" lon="6.33853">
        <ele>913</ele>
        <time>2026-08-19T12:11:05.344Z</time>
      </trkpt>
      <trkpt lat="45.90201" lon="6.3385">
        <ele>914</ele>
        <time>2026-08-19T12:11:06.344Z</time>
      </trkpt>
      <trkpt lat="45.902" lon="6.33848">
        <ele>913</ele>
        <time>2026-08-19T12:11:07.344Z</time>
      </trkpt>
      <trkpt lat="45.90199" lon="6.33845">
        <ele>913</ele>
        <time>2026-08-19T12:11:08.344Z</time>
      </trkpt>
      <trkpt lat="45.90197" lon="6.33841">
        <ele>913</ele>
        <time>2026-08-19T12:11:09.345Z</time>
      </trkpt>
      <trkpt lat="45.90196" lon="6.33838">
        <ele>913</ele>
        <time>2026-08-19T12:11:10.344Z</time>
      </trkpt>
      <trkpt lat="45.90196" lon="6.33836">
        <ele>913</ele>
        <time>2026-08-19T12:11:11.344Z</time>
      </trkpt>
      <trkpt lat="45.90194" lon="6.33833">
        <ele>913</ele>
        <time>2026-08-19T12:11:12.344Z</time>
      </trkpt>
      <trkpt lat="45.90193" lon="6.3383">
        <ele>912</ele>
        <time>2026-08-19T12:11:13.344Z</time>
      </trkpt>
      <trkpt lat="45.90192" lon="6.33827">
        <ele>912</ele>
        <time>2026-08-19T12:11:14.344Z</time>
      </trkpt>
      <trkpt lat="45.90191" lon="6.33825">
        <ele>912</ele>
        <time>2026-08-19T12:11:15.344Z</time>
      </trkpt>
      <trkpt lat="45.9019" lon="6.33822">
        <ele>912</ele>
        <time>2026-08-19T12:11:16.344Z</time>
      </trkpt>
      <trkpt lat="45.90188" lon="6.33819">
        <ele>912</ele>
        <time>2026-08-19T12:11:17.344Z</time>
      </trkpt>
      <trkpt lat="45.90187" lon="6.33816">
        <ele>912</ele>
        <time>2026-08-19T12:11:18.344Z</time>
      </trkpt>
      <trkpt lat="45.90186" lon="6.33814">
        <ele>912</ele>
        <time>2026-08-19T12:11:19.344Z</time>
      </trkpt>
      <trkpt lat="45.90185" lon="6.33812">
        <ele>912</ele>
        <time>2026-08-19T12:11:20.344Z</time>
      </trkpt>
      <trkpt lat="45.90183" lon="6.33809">
        <ele>912</ele>
        <time>2026-08-19T12:11:21.344Z</time>
      </trkpt>
      <trkpt lat="45.90182" lon="6.33806">
        <ele>912</ele>
        <time>2026-08-19T12:11:22.344Z</time>
      </trkpt>
      <trkpt lat="45.9018" lon="6.33803">
        <ele>913</ele>
        <time>2026-08-19T12:11:23.345Z</time>
      </trkpt>
      <trkpt lat="45.90179" lon="6.33801">
        <ele>913</ele>
        <time>2026-08-19T12:11:24.344Z</time>
      </trkpt>
      <trkpt lat="45.90178" lon="6.33799">
        <ele>913</ele>
        <time>2026-08-19T12:11:25.344Z</time>
      </trkpt>
      <trkpt lat="45.90176" lon="6.33796">
        <ele>913</ele>
        <time>2026-08-19T12:11:26.344Z</time>
      </trkpt>
      <trkpt lat="45.90175" lon="6.33793">
        <ele>913</ele>
        <time>2026-08-19T12:11:27.344Z</time>
      </trkpt>
      <trkpt lat="45.90174" lon="6.3379">
        <ele>913</ele>
        <time>2026-08-19T12:11:28.344Z</time>
      </trkpt>
      <trkpt lat="45.90173" lon="6.33788">
        <ele>913</ele>
        <time>2026-08-19T12:11:29.344Z</time>
      </trkpt>
      <trkpt lat="45.90171" lon="6.33785">
        <ele>913</ele>
        <time>2026-08-19T12:11:30.344Z</time>
      </trkpt>
      <trkpt lat="45.9017" lon="6.33783">
        <ele>913</ele>
        <time>2026-08-19T12:11:31.344Z</time>
      </trkpt>
      <trkpt lat="45.90168" lon="6.3378">
        <ele>913</ele>
        <time>2026-08-19T12:11:32.344Z</time>
      </trkpt>
      <trkpt lat="45.90167" lon="6.33779">
        <ele>913</ele>
        <time>2026-08-19T12:11:33.344Z</time>
      </trkpt>
      <trkpt lat="45.90165" lon="6.33776">
        <ele>913</ele>
        <time>2026-08-19T12:11:34.344Z</time>
      </trkpt>
      <trkpt lat="45.90164" lon="6.33774">
        <ele>913</ele>
        <time>2026-08-19T12:11:35.344Z</time>
      </trkpt>
      <trkpt lat="45.90162" lon="6.33771">
        <ele>913</ele>
        <time>2026-08-19T12:11:36.344Z</time>
      </trkpt>
      <trkpt lat="45.90162" lon="6.33769">
        <ele>913</ele>
        <time>2026-08-19T12:11:37.344Z</time>
      </trkpt>
      <trkpt lat="45.9016" lon="6.33765">
        <ele>913</ele>
        <time>2026-08-19T12:11:38.344Z</time>
      </trkpt>
      <trkpt lat="45.90159" lon="6.33762">
        <ele>913</ele>
        <time>2026-08-19T12:11:39.344Z</time>
      </trkpt>
      <trkpt lat="45.90158" lon="6.3376">
        <ele>913</ele>
        <time>2026-08-19T12:11:40.344Z</time>
      </trkpt>
      <trkpt lat="45.90156" lon="6.33757">
        <ele>913</ele>
        <time>2026-08-19T12:11:41.344Z</time>
      </trkpt>
      <trkpt lat="45.90154" lon="6.33754">
        <ele>913</ele>
        <time>2026-08-19T12:11:42.344Z</time>
      </trkpt>
      <trkpt lat="45.90153" lon="6.33752">
        <ele>913</ele>
        <time>2026-08-19T12:11:43.344Z</time>
      </trkpt>
      <trkpt lat="45.90152" lon="6.3375">
        <ele>913</ele>
        <time>2026-08-19T12:11:44.344Z</time>
      </trkpt>
      <trkpt lat="45.90151" lon="6.33747">
        <ele>913</ele>
        <time>2026-08-19T12:11:45.344Z</time>
      </trkpt>
      <trkpt lat="45.90149" lon="6.33744">
        <ele>913</ele>
        <time>2026-08-19T12:11:46.344Z</time>
      </trkpt>
      <trkpt lat="45.90147" lon="6.33741">
        <ele>913</ele>
        <time>2026-08-19T12:11:47.345Z</time>
      </trkpt>
      <trkpt lat="45.90147" lon="6.33739">
        <ele>912</ele>
        <time>2026-08-19T12:11:48.344Z</time>
      </trkpt>
      <trkpt lat="45.90145" lon="6.33736">
        <ele>912</ele>
        <time>2026-08-19T12:11:49.345Z</time>
      </trkpt>
      <trkpt lat="45.90144" lon="6.33733">
        <ele>912</ele>
        <time>2026-08-19T12:11:50.344Z</time>
      </trkpt>
      <trkpt lat="45.90142" lon="6.3373">
        <ele>913</ele>
        <time>2026-08-19T12:11:51.344Z</time>
      </trkpt>
      <trkpt lat="45.90141" lon="6.33728">
        <ele>913</ele>
        <time>2026-08-19T12:11:52.344Z</time>
      </trkpt>
      <trkpt lat="45.9014" lon="6.33726">
        <ele>913</ele>
        <time>2026-08-19T12:11:53.345Z</time>
      </trkpt>
      <trkpt lat="45.90138" lon="6.33723">
        <ele>913</ele>
        <time>2026-08-19T12:11:54.344Z</time>
      </trkpt>
      <trkpt lat="45.90137" lon="6.3372">
        <ele>912</ele>
        <time>2026-08-19T12:11:55.344Z</time>
      </trkpt>
      <trkpt lat="45.90135" lon="6.33717">
        <ele>912</ele>
        <time>2026-08-19T12:11:56.344Z</time>
      </trkpt>
      <trkpt lat="45.90134" lon="6.33714">
        <ele>912</ele>
        <time>2026-08-19T12:11:57.344Z</time>
      </trkpt>
      <trkpt lat="45.90133" lon="6.33711">
        <ele>912</ele>
        <time>2026-08-19T12:11:58.344Z</time>
      </trkpt>
      <trkpt lat="45.90131" lon="6.33708">
        <ele>912</ele>
        <time>2026-08-19T12:11:59.344Z</time>
      </trkpt>
      <trkpt lat="45.9013" lon="6.33705">
        <ele>912</ele>
        <time>2026-08-19T12:12:00.344Z</time>
      </trkpt>
      <trkpt lat="45.90128" lon="6.33703">
        <ele>912</ele>
        <time>2026-08-19T12:12:01.344Z</time>
      </trkpt>
      <trkpt lat="45.90127" lon="6.33701">
        <ele>912</ele>
        <time>2026-08-19T12:12:02.344Z</time>
      </trkpt>
      <trkpt lat="45.90125" lon="6.33699">
        <ele>912</ele>
        <time>2026-08-19T12:12:03.344Z</time>
      </trkpt>
      <trkpt lat="45.90123" lon="6.33697">
        <ele>912</ele>
        <time>2026-08-19T12:12:04.344Z</time>
      </trkpt>
      <trkpt lat="45.90121" lon="6.33697">
        <ele>912</ele>
        <time>2026-08-19T12:12:05.344Z</time>
      </trkpt>
      <trkpt lat="45.90119" lon="6.33696">
        <ele>912</ele>
        <time>2026-08-19T12:12:06.344Z</time>
      </trkpt>
      <trkpt lat="45.90117" lon="6.33695">
        <ele>912</ele>
        <time>2026-08-19T12:12:07.344Z</time>
      </trkpt>
      <trkpt lat="45.90115" lon="6.33693">
        <ele>912</ele>
        <time>2026-08-19T12:12:08.344Z</time>
      </trkpt>
      <trkpt lat="45.90113" lon="6.33692">
        <ele>912</ele>
        <time>2026-08-19T12:12:09.344Z</time>
      </trkpt>
      <trkpt lat="45.90112" lon="6.33692">
        <ele>913</ele>
        <time>2026-08-19T12:12:10.344Z</time>
      </trkpt>
      <trkpt lat="45.9011" lon="6.33691">
        <ele>913</ele>
        <time>2026-08-19T12:12:11.344Z</time>
      </trkpt>
      <trkpt lat="45.90108" lon="6.33691">
        <ele>913</ele>
        <time>2026-08-19T12:12:12.344Z</time>
      </trkpt>
      <trkpt lat="45.90107" lon="6.33691">
        <ele>913</ele>
        <time>2026-08-19T12:12:13.344Z</time>
      </trkpt>
      <trkpt lat="45.90105" lon="6.33691">
        <ele>913</ele>
        <time>2026-08-19T12:12:14.344Z</time>
      </trkpt>
      <trkpt lat="45.90104" lon="6.33692">
        <ele>914</ele>
        <time>2026-08-19T12:12:15.344Z</time>
      </trkpt>
      <trkpt lat="45.90102" lon="6.33692">
        <ele>914</ele>
        <time>2026-08-19T12:12:16.344Z</time>
      </trkpt>
      <trkpt lat="45.90101" lon="6.33693">
        <ele>914</ele>
        <time>2026-08-19T12:12:17.344Z</time>
      </trkpt>
      <trkpt lat="45.90099" lon="6.33694">
        <ele>915</ele>
        <time>2026-08-19T12:12:18.344Z</time>
      </trkpt>
      <trkpt lat="45.90098" lon="6.33694">
        <ele>915</ele>
        <time>2026-08-19T12:12:19.344Z</time>
      </trkpt>
      <trkpt lat="45.90095" lon="6.33695">
        <ele>916</ele>
        <time>2026-08-19T12:12:20.344Z</time>
      </trkpt>
      <trkpt lat="45.90093" lon="6.33695">
        <ele>916</ele>
        <time>2026-08-19T12:12:21.344Z</time>
      </trkpt>
      <trkpt lat="45.90091" lon="6.33696">
        <ele>916</ele>
        <time>2026-08-19T12:12:22.344Z</time>
      </trkpt>
      <trkpt lat="45.90088" lon="6.33696">
        <ele>917</ele>
        <time>2026-08-19T12:12:23.344Z</time>
      </trkpt>
      <trkpt lat="45.90086" lon="6.33696">
        <ele>917</ele>
        <time>2026-08-19T12:12:24.344Z</time>
      </trkpt>
      <trkpt lat="45.90084" lon="6.33695">
        <ele>917</ele>
        <time>2026-08-19T12:12:25.344Z</time>
      </trkpt>
      <trkpt lat="45.90082" lon="6.33694">
        <ele>917</ele>
        <time>2026-08-19T12:12:26.344Z</time>
      </trkpt>
      <trkpt lat="45.9008" lon="6.33693">
        <ele>917</ele>
        <time>2026-08-19T12:12:27.344Z</time>
      </trkpt>
      <trkpt lat="45.90078" lon="6.33692">
        <ele>917</ele>
        <time>2026-08-19T12:12:28.344Z</time>
      </trkpt>
      <trkpt lat="45.90076" lon="6.3369">
        <ele>916</ele>
        <time>2026-08-19T12:12:29.344Z</time>
      </trkpt>
      <trkpt lat="45.90074" lon="6.33688">
        <ele>916</ele>
        <time>2026-08-19T12:12:30.344Z</time>
      </trkpt>
      <trkpt lat="45.90072" lon="6.33686">
        <ele>916</ele>
        <time>2026-08-19T12:12:31.344Z</time>
      </trkpt>
      <trkpt lat="45.90071" lon="6.33683">
        <ele>916</ele>
        <time>2026-08-19T12:12:32.344Z</time>
      </trkpt>
      <trkpt lat="45.90069" lon="6.3368">
        <ele>916</ele>
        <time>2026-08-19T12:12:33.344Z</time>
      </trkpt>
      <trkpt lat="45.90068" lon="6.33678">
        <ele>916</ele>
        <time>2026-08-19T12:12:34.344Z</time>
      </trkpt>
      <trkpt lat="45.90066" lon="6.33675">
        <ele>916</ele>
        <time>2026-08-19T12:12:35.344Z</time>
      </trkpt>
      <trkpt lat="45.90065" lon="6.33672">
        <ele>916</ele>
        <time>2026-08-19T12:12:36.344Z</time>
      </trkpt>
      <trkpt lat="45.90063" lon="6.33669">
        <ele>915</ele>
        <time>2026-08-19T12:12:37.344Z</time>
      </trkpt>
      <trkpt lat="45.90062" lon="6.33667">
        <ele>915</ele>
        <time>2026-08-19T12:12:38.344Z</time>
      </trkpt>
      <trkpt lat="45.90061" lon="6.33664">
        <ele>915</ele>
        <time>2026-08-19T12:12:39.344Z</time>
      </trkpt>
      <trkpt lat="45.90059" lon="6.3366">
        <ele>915</ele>
        <time>2026-08-19T12:12:40.344Z</time>
      </trkpt>
      <trkpt lat="45.90058" lon="6.33657">
        <ele>915</ele>
        <time>2026-08-19T12:12:41.344Z</time>
      </trkpt>
      <trkpt lat="45.90056" lon="6.33654">
        <ele>914</ele>
        <time>2026-08-19T12:12:42.344Z</time>
      </trkpt>
      <trkpt lat="45.90055" lon="6.33651">
        <ele>914</ele>
        <time>2026-08-19T12:12:43.344Z</time>
      </trkpt>
      <trkpt lat="45.90053" lon="6.33649">
        <ele>914</ele>
        <time>2026-08-19T12:12:44.344Z</time>
      </trkpt>
      <trkpt lat="45.90051" lon="6.33647">
        <ele>914</ele>
        <time>2026-08-19T12:12:45.344Z</time>
      </trkpt>
      <trkpt lat="45.9005" lon="6.33644">
        <ele>913</ele>
        <time>2026-08-19T12:12:46.344Z</time>
      </trkpt>
      <trkpt lat="45.90048" lon="6.33642">
        <ele>913</ele>
        <time>2026-08-19T12:12:47.345Z</time>
      </trkpt>
      <trkpt lat="45.90047" lon="6.33639">
        <ele>912</ele>
        <time>2026-08-19T12:12:48.344Z</time>
      </trkpt>
      <trkpt lat="45.90045" lon="6.33636">
        <ele>912</ele>
        <time>2026-08-19T12:12:49.344Z</time>
      </trkpt>
      <trkpt lat="45.90043" lon="6.33634">
        <ele>912</ele>
        <time>2026-08-19T12:12:50.344Z</time>
      </trkpt>
      <trkpt lat="45.90041" lon="6.33632">
        <ele>911</ele>
        <time>2026-08-19T12:12:51.344Z</time>
      </trkpt>
      <trkpt lat="45.9004" lon="6.3363">
        <ele>911</ele>
        <time>2026-08-19T12:12:52.345Z</time>
      </trkpt>
      <trkpt lat="45.90038" lon="6.33627">
        <ele>911</ele>
        <time>2026-08-19T12:12:53.344Z</time>
      </trkpt>
      <trkpt lat="45.90036" lon="6.33625">
        <ele>911</ele>
        <time>2026-08-19T12:12:54.344Z</time>
      </trkpt>
      <trkpt lat="45.90034" lon="6.33624">
        <ele>911</ele>
        <time>2026-08-19T12:12:55.345Z</time>
      </trkpt>
      <trkpt lat="45.90032" lon="6.33621">
        <ele>911</ele>
        <time>2026-08-19T12:12:56.344Z</time>
      </trkpt>
      <trkpt lat="45.9003" lon="6.33619">
        <ele>911</ele>
        <time>2026-08-19T12:12:57.344Z</time>
      </trkpt>
      <trkpt lat="45.90028" lon="6.33617">
        <ele>911</ele>
        <time>2026-08-19T12:12:58.344Z</time>
      </trkpt>
      <trkpt lat="45.90027" lon="6.33615">
        <ele>911</ele>
        <time>2026-08-19T12:12:59.344Z</time>
      </trkpt>
      <trkpt lat="45.90026" lon="6.33612">
        <ele>911</ele>
        <time>2026-08-19T12:13:00.344Z</time>
      </trkpt>
      <trkpt lat="45.90024" lon="6.3361">
        <ele>911</ele>
        <time>2026-08-19T12:13:01.344Z</time>
      </trkpt>
      <trkpt lat="45.90022" lon="6.33606">
        <ele>910</ele>
        <time>2026-08-19T12:13:02.344Z</time>
      </trkpt>
      <trkpt lat="45.9002" lon="6.33604">
        <ele>910</ele>
        <time>2026-08-19T12:13:03.344Z</time>
      </trkpt>
      <trkpt lat="45.90019" lon="6.33601">
        <ele>910</ele>
        <time>2026-08-19T12:13:04.344Z</time>
      </trkpt>
      <trkpt lat="45.90017" lon="6.33599">
        <ele>910</ele>
        <time>2026-08-19T12:13:05.344Z</time>
      </trkpt>
      <trkpt lat="45.90015" lon="6.33595">
        <ele>910</ele>
        <time>2026-08-19T12:13:06.344Z</time>
      </trkpt>
      <trkpt lat="45.90014" lon="6.33592">
        <ele>910</ele>
        <time>2026-08-19T12:13:07.344Z</time>
      </trkpt>
      <trkpt lat="45.90013" lon="6.33589">
        <ele>910</ele>
        <time>2026-08-19T12:13:08.344Z</time>
      </trkpt>
      <trkpt lat="45.90011" lon="6.33586">
        <ele>910</ele>
        <time>2026-08-19T12:13:09.344Z</time>
      </trkpt>
      <trkpt lat="45.9001" lon="6.33584">
        <ele>910</ele>
        <time>2026-08-19T12:13:10.344Z</time>
      </trkpt>
      <trkpt lat="45.90008" lon="6.33581">
        <ele>909</ele>
        <time>2026-08-19T12:13:11.344Z</time>
      </trkpt>
      <trkpt lat="45.90007" lon="6.33578">
        <ele>909</ele>
        <time>2026-08-19T12:13:12.344Z</time>
      </trkpt>
      <trkpt lat="45.90006" lon="6.33576">
        <ele>909</ele>
        <time>2026-08-19T12:13:13.344Z</time>
      </trkpt>
      <trkpt lat="45.90004" lon="6.33572">
        <ele>908</ele>
        <time>2026-08-19T12:13:14.344Z</time>
      </trkpt>
      <trkpt lat="45.90003" lon="6.33569">
        <ele>908</ele>
        <time>2026-08-19T12:13:15.345Z</time>
      </trkpt>
      <trkpt lat="45.90001" lon="6.33566">
        <ele>908</ele>
        <time>2026-08-19T12:13:16.344Z</time>
      </trkpt>
      <trkpt lat="45.9" lon="6.33563">
        <ele>908</ele>
        <time>2026-08-19T12:13:17.344Z</time>
      </trkpt>
      <trkpt lat="45.89998" lon="6.3356">
        <ele>908</ele>
        <time>2026-08-19T12:13:18.344Z</time>
      </trkpt>
      <trkpt lat="45.89997" lon="6.33557">
        <ele>907</ele>
        <time>2026-08-19T12:13:19.344Z</time>
      </trkpt>
      <trkpt lat="45.89996" lon="6.33554">
        <ele>907</ele>
        <time>2026-08-19T12:13:20.344Z</time>
      </trkpt>
      <trkpt lat="45.89994" lon="6.33551">
        <ele>907</ele>
        <time>2026-08-19T12:13:21.344Z</time>
      </trkpt>
      <trkpt lat="45.89993" lon="6.33549">
        <ele>906</ele>
        <time>2026-08-19T12:13:22.344Z</time>
      </trkpt>
      <trkpt lat="45.89991" lon="6.33547">
        <ele>906</ele>
        <time>2026-08-19T12:13:23.344Z</time>
      </trkpt>
      <trkpt lat="45.89989" lon="6.33545">
        <ele>905</ele>
        <time>2026-08-19T12:13:24.344Z</time>
      </trkpt>
      <trkpt lat="45.89987" lon="6.33545">
        <ele>904</ele>
        <time>2026-08-19T12:13:25.344Z</time>
      </trkpt>
      <trkpt lat="45.89985" lon="6.33546">
        <ele>904</ele>
        <time>2026-08-19T12:13:26.344Z</time>
      </trkpt>
      <trkpt lat="45.89983" lon="6.33548">
        <ele>903</ele>
        <time>2026-08-19T12:13:27.344Z</time>
      </trkpt>
      <trkpt lat="45.89982" lon="6.33551">
        <ele>903</ele>
        <time>2026-08-19T12:13:28.344Z</time>
      </trkpt>
      <trkpt lat="45.89982" lon="6.33554">
        <ele>903</ele>
        <time>2026-08-19T12:13:29.344Z</time>
      </trkpt>
      <trkpt lat="45.89983" lon="6.33555">
        <ele>903</ele>
        <time>2026-08-19T12:13:30.344Z</time>
      </trkpt>
      <trkpt lat="45.89984" lon="6.33558">
        <ele>902</ele>
        <time>2026-08-19T12:13:31.344Z</time>
      </trkpt>
      <trkpt lat="45.89984" lon="6.33562">
        <ele>902</ele>
        <time>2026-08-19T12:13:32.344Z</time>
      </trkpt>
      <trkpt lat="45.89985" lon="6.33565">
        <ele>902</ele>
        <time>2026-08-19T12:13:33.344Z</time>
      </trkpt>
      <trkpt lat="45.89985" lon="6.33568">
        <ele>902</ele>
        <time>2026-08-19T12:13:34.344Z</time>
      </trkpt>
      <trkpt lat="45.89986" lon="6.33572">
        <ele>902</ele>
        <time>2026-08-19T12:13:35.344Z</time>
      </trkpt>
      <trkpt lat="45.89988" lon="6.33575">
        <ele>902</ele>
        <time>2026-08-19T12:13:36.344Z</time>
      </trkpt>
      <trkpt lat="45.89989" lon="6.33578">
        <ele>902</ele>
        <time>2026-08-19T12:13:37.344Z</time>
      </trkpt>
      <trkpt lat="45.8999" lon="6.33582">
        <ele>901</ele>
        <time>2026-08-19T12:13:38.344Z</time>
      </trkpt>
      <trkpt lat="45.89991" lon="6.33585">
        <ele>901</ele>
        <time>2026-08-19T12:13:39.344Z</time>
      </trkpt>
      <trkpt lat="45.89992" lon="6.33588">
        <ele>900</ele>
        <time>2026-08-19T12:13:40.344Z</time>
      </trkpt>
      <trkpt lat="45.89993" lon="6.33591">
        <ele>900</ele>
        <time>2026-08-19T12:13:41.344Z</time>
      </trkpt>
      <trkpt lat="45.89993" lon="6.33595">
        <ele>899</ele>
        <time>2026-08-19T12:13:42.345Z</time>
      </trkpt>
      <trkpt lat="45.89994" lon="6.33598">
        <ele>899</ele>
        <time>2026-08-19T12:13:43.344Z</time>
      </trkpt>
      <trkpt lat="45.89994" lon="6.33601">
        <ele>899</ele>
        <time>2026-08-19T12:13:44.344Z</time>
      </trkpt>
      <trkpt lat="45.89995" lon="6.33605">
        <ele>898</ele>
        <time>2026-08-19T12:13:45.344Z</time>
      </trkpt>
      <trkpt lat="45.89996" lon="6.33608">
        <ele>898</ele>
        <time>2026-08-19T12:13:46.344Z</time>
      </trkpt>
      <trkpt lat="45.89996" lon="6.33612">
        <ele>897</ele>
        <time>2026-08-19T12:13:47.345Z</time>
      </trkpt>
      <trkpt lat="45.89997" lon="6.33615">
        <ele>897</ele>
        <time>2026-08-19T12:13:48.344Z</time>
      </trkpt>
      <trkpt lat="45.89997" lon="6.33619">
        <ele>896</ele>
        <time>2026-08-19T12:13:49.344Z</time>
      </trkpt>
      <trkpt lat="45.89998" lon="6.33622">
        <ele>896</ele>
        <time>2026-08-19T12:13:50.344Z</time>
      </trkpt>
      <trkpt lat="45.89998" lon="6.33626">
        <ele>895</ele>
        <time>2026-08-19T12:13:51.344Z</time>
      </trkpt>
      <trkpt lat="45.89998" lon="6.33629">
        <ele>895</ele>
        <time>2026-08-19T12:13:52.344Z</time>
      </trkpt>
      <trkpt lat="45.89999" lon="6.33633">
        <ele>894</ele>
        <time>2026-08-19T12:13:53.344Z</time>
      </trkpt>
      <trkpt lat="45.89999" lon="6.33636">
        <ele>893</ele>
        <time>2026-08-19T12:13:54.344Z</time>
      </trkpt>
      <trkpt lat="45.89998" lon="6.3364">
        <ele>893</ele>
        <time>2026-08-19T12:13:55.344Z</time>
      </trkpt>
      <trkpt lat="45.89999" lon="6.33643">
        <ele>893</ele>
        <time>2026-08-19T12:13:56.344Z</time>
      </trkpt>
      <trkpt lat="45.89999" lon="6.33647">
        <ele>892</ele>
        <time>2026-08-19T12:13:57.344Z</time>
      </trkpt>
      <trkpt lat="45.89999" lon="6.3365">
        <ele>892</ele>
        <time>2026-08-19T12:13:58.344Z</time>
      </trkpt>
      <trkpt lat="45.89999" lon="6.33654">
        <ele>892</ele>
        <time>2026-08-19T12:13:59.344Z</time>
      </trkpt>
      <trkpt lat="45.89999" lon="6.33657">
        <ele>891</ele>
        <time>2026-08-19T12:14:00.344Z</time>
      </trkpt>
      <trkpt lat="45.9" lon="6.33661">
        <ele>891</ele>
        <time>2026-08-19T12:14:01.344Z</time>
      </trkpt>
      <trkpt lat="45.9" lon="6.33664">
        <ele>891</ele>
        <time>2026-08-19T12:14:02.344Z</time>
      </trkpt>
      <trkpt lat="45.9" lon="6.33668">
        <ele>890</ele>
        <time>2026-08-19T12:14:03.344Z</time>
      </trkpt>
      <trkpt lat="45.9" lon="6.33671">
        <ele>890</ele>
        <time>2026-08-19T12:14:04.344Z</time>
      </trkpt>
      <trkpt lat="45.9" lon="6.33675">
        <ele>890</ele>
        <time>2026-08-19T12:14:05.345Z</time>
      </trkpt>
      <trkpt lat="45.89999" lon="6.33679">
        <ele>890</ele>
        <time>2026-08-19T12:14:06.344Z</time>
      </trkpt>
      <trkpt lat="45.89998" lon="6.33682">
        <ele>890</ele>
        <time>2026-08-19T12:14:07.344Z</time>
      </trkpt>
      <trkpt lat="45.89998" lon="6.33685">
        <ele>890</ele>
        <time>2026-08-19T12:14:08.344Z</time>
      </trkpt>
      <trkpt lat="45.89996" lon="6.33688">
        <ele>890</ele>
        <time>2026-08-19T12:14:09.344Z</time>
      </trkpt>
      <trkpt lat="45.89995" lon="6.33691">
        <ele>889</ele>
        <time>2026-08-19T12:14:10.345Z</time>
      </trkpt>
      <trkpt lat="45.89993" lon="6.33692">
        <ele>889</ele>
        <time>2026-08-19T12:14:11.344Z</time>
      </trkpt>
      <trkpt lat="45.89991" lon="6.33693">
        <ele>889</ele>
        <time>2026-08-19T12:14:12.344Z</time>
      </trkpt>
      <trkpt lat="45.89988" lon="6.33694">
        <ele>889</ele>
        <time>2026-08-19T12:14:13.344Z</time>
      </trkpt>
      <trkpt lat="45.89986" lon="6.33693">
        <ele>889</ele>
        <time>2026-08-19T12:14:14.344Z</time>
      </trkpt>
      <trkpt lat="45.89983" lon="6.33691">
        <ele>889</ele>
        <time>2026-08-19T12:14:15.344Z</time>
      </trkpt>
      <trkpt lat="45.89981" lon="6.33689">
        <ele>888</ele>
        <time>2026-08-19T12:14:16.344Z</time>
      </trkpt>
      <trkpt lat="45.89979" lon="6.33687">
        <ele>888</ele>
        <time>2026-08-19T12:14:17.345Z</time>
      </trkpt>
      <trkpt lat="45.89977" lon="6.33684">
        <ele>888</ele>
        <time>2026-08-19T12:14:18.344Z</time>
      </trkpt>
      <trkpt lat="45.89975" lon="6.33682">
        <ele>887</ele>
        <time>2026-08-19T12:14:19.344Z</time>
      </trkpt>
      <trkpt lat="45.89973" lon="6.3368">
        <ele>886</ele>
        <time>2026-08-19T12:14:20.344Z</time>
      </trkpt>
      <trkpt lat="45.89971" lon="6.33678">
        <ele>886</ele>
        <time>2026-08-19T12:14:21.344Z</time>
      </trkpt>
      <trkpt lat="45.89969" lon="6.33676">
        <ele>885</ele>
        <time>2026-08-19T12:14:22.344Z</time>
      </trkpt>
      <trkpt lat="45.89966" lon="6.33674">
        <ele>884</ele>
        <time>2026-08-19T12:14:23.344Z</time>
      </trkpt>
      <trkpt lat="45.89964" lon="6.33672">
        <ele>884</ele>
        <time>2026-08-19T12:14:24.345Z</time>
      </trkpt>
      <trkpt lat="45.89962" lon="6.3367">
        <ele>884</ele>
        <time>2026-08-19T12:14:25.344Z</time>
      </trkpt>
      <trkpt lat="45.89961" lon="6.33668">
        <ele>884</ele>
        <time>2026-08-19T12:14:26.345Z</time>
      </trkpt>
      <trkpt lat="45.89958" lon="6.33665">
        <ele>883</ele>
        <time>2026-08-19T12:14:27.345Z</time>
      </trkpt>
      <trkpt lat="45.89956" lon="6.33664">
        <ele>883</ele>
        <time>2026-08-19T12:14:28.344Z</time>
      </trkpt>
      <trkpt lat="45.89954" lon="6.33661">
        <ele>883</ele>
        <time>2026-08-19T12:14:29.344Z</time>
      </trkpt>
      <trkpt lat="45.89953" lon="6.33659">
        <ele>882</ele>
        <time>2026-08-19T12:14:30.344Z</time>
      </trkpt>
      <trkpt lat="45.89951" lon="6.33656">
        <ele>882</ele>
        <time>2026-08-19T12:14:31.344Z</time>
      </trkpt>
      <trkpt lat="45.89949" lon="6.33653">
        <ele>882</ele>
        <time>2026-08-19T12:14:32.344Z</time>
      </trkpt>
      <trkpt lat="45.89948" lon="6.3365">
        <ele>881</ele>
        <time>2026-08-19T12:14:33.345Z</time>
      </trkpt>
      <trkpt lat="45.89947" lon="6.33647">
        <ele>881</ele>
        <time>2026-08-19T12:14:34.344Z</time>
      </trkpt>
      <trkpt lat="45.89946" lon="6.33644">
        <ele>880</ele>
        <time>2026-08-19T12:14:35.345Z</time>
      </trkpt>
      <trkpt lat="45.89945" lon="6.33641">
        <ele>880</ele>
        <time>2026-08-19T12:14:36.344Z</time>
      </trkpt>
      <trkpt lat="45.89944" lon="6.33638">
        <ele>880</ele>
        <time>2026-08-19T12:14:37.344Z</time>
      </trkpt>
      <trkpt lat="45.89944" lon="6.33635">
        <ele>879</ele>
        <time>2026-08-19T12:14:38.345Z</time>
      </trkpt>
      <trkpt lat="45.89943" lon="6.33632">
        <ele>879</ele>
        <time>2026-08-19T12:14:39.344Z</time>
      </trkpt>
      <trkpt lat="45.89942" lon="6.33628">
        <ele>879</ele>
        <time>2026-08-19T12:14:40.344Z</time>
      </trkpt>
      <trkpt lat="45.89941" lon="6.33625">
        <ele>878</ele>
        <time>2026-08-19T12:14:41.344Z</time>
      </trkpt>
      <trkpt lat="45.89941" lon="6.33622">
        <ele>878</ele>
        <time>2026-08-19T12:14:42.344Z</time>
      </trkpt>
      <trkpt lat="45.8994" lon="6.33618">
        <ele>878</ele>
        <time>2026-08-19T12:14:43.345Z</time>
      </trkpt>
      <trkpt lat="45.89939" lon="6.33615">
        <ele>878</ele>
        <time>2026-08-19T12:14:44.344Z</time>
      </trkpt>
      <trkpt lat="45.89938" lon="6.33611">
        <ele>878</ele>
        <time>2026-08-19T12:14:45.345Z</time>
      </trkpt>
      <trkpt lat="45.89938" lon="6.33608">
        <ele>877</ele>
        <time>2026-08-19T12:14:46.344Z</time>
      </trkpt>
      <trkpt lat="45.89937" lon="6.33604">
        <ele>877</ele>
        <time>2026-08-19T12:14:47.344Z</time>
      </trkpt>
      <trkpt lat="45.89936" lon="6.33601">
        <ele>876</ele>
        <time>2026-08-19T12:14:48.344Z</time>
      </trkpt>
      <trkpt lat="45.89935" lon="6.33598">
        <ele>876</ele>
        <time>2026-08-19T12:14:49.344Z</time>
      </trkpt>
      <trkpt lat="45.89934" lon="6.33595">
        <ele>876</ele>
        <time>2026-08-19T12:14:50.344Z</time>
      </trkpt>
      <trkpt lat="45.89932" lon="6.33592">
        <ele>875</ele>
        <time>2026-08-19T12:14:51.344Z</time>
      </trkpt>
      <trkpt lat="45.8993" lon="6.3359">
        <ele>875</ele>
        <time>2026-08-19T12:14:52.344Z</time>
      </trkpt>
      <trkpt lat="45.89928" lon="6.33587">
        <ele>874</ele>
        <time>2026-08-19T12:14:53.344Z</time>
      </trkpt>
      <trkpt lat="45.89926" lon="6.33586">
        <ele>874</ele>
        <time>2026-08-19T12:14:54.344Z</time>
      </trkpt>
      <trkpt lat="45.89924" lon="6.33583">
        <ele>873</ele>
        <time>2026-08-19T12:14:55.344Z</time>
      </trkpt>
      <trkpt lat="45.89922" lon="6.33581">
        <ele>873</ele>
        <time>2026-08-19T12:14:56.344Z</time>
      </trkpt>
      <trkpt lat="45.89919" lon="6.33579">
        <ele>872</ele>
        <time>2026-08-19T12:14:57.344Z</time>
      </trkpt>
      <trkpt lat="45.89917" lon="6.33577">
        <ele>872</ele>
        <time>2026-08-19T12:14:58.344Z</time>
      </trkpt>
      <trkpt lat="45.89915" lon="6.33575">
        <ele>872</ele>
        <time>2026-08-19T12:14:59.344Z</time>
      </trkpt>
      <trkpt lat="45.89913" lon="6.33573">
        <ele>871</ele>
        <time>2026-08-19T12:15:00.344Z</time>
      </trkpt>
      <trkpt lat="45.89912" lon="6.3357">
        <ele>870</ele>
        <time>2026-08-19T12:15:01.344Z</time>
      </trkpt>
      <trkpt lat="45.89911" lon="6.33567">
        <ele>870</ele>
        <time>2026-08-19T12:15:02.344Z</time>
      </trkpt>
      <trkpt lat="45.89911" lon="6.33563">
        <ele>869</ele>
        <time>2026-08-19T12:15:03.344Z</time>
      </trkpt>
      <trkpt lat="45.89911" lon="6.3356">
        <ele>869</ele>
        <time>2026-08-19T12:15:04.344Z</time>
      </trkpt>
      <trkpt lat="45.89912" lon="6.33556">
        <ele>869</ele>
        <time>2026-08-19T12:15:05.344Z</time>
      </trkpt>
      <trkpt lat="45.89913" lon="6.33553">
        <ele>869</ele>
        <time>2026-08-19T12:15:06.344Z</time>
      </trkpt>
      <trkpt lat="45.89914" lon="6.33551">
        <ele>869</ele>
        <time>2026-08-19T12:15:07.344Z</time>
      </trkpt>
      <trkpt lat="45.89914" lon="6.33547">
        <ele>869</ele>
        <time>2026-08-19T12:15:08.344Z</time>
      </trkpt>
      <trkpt lat="45.89914" lon="6.33544">
        <ele>870</ele>
        <time>2026-08-19T12:15:09.344Z</time>
      </trkpt>
      <trkpt lat="45.89914" lon="6.33541">
        <ele>870</ele>
        <time>2026-08-19T12:15:10.344Z</time>
      </trkpt>
      <trkpt lat="45.89913" lon="6.33539">
        <ele>869</ele>
        <time>2026-08-19T12:15:11.344Z</time>
      </trkpt>
      <trkpt lat="45.89912" lon="6.33536">
        <ele>869</ele>
        <time>2026-08-19T12:15:12.344Z</time>
      </trkpt>
      <trkpt lat="45.89911" lon="6.33534">
        <ele>869</ele>
        <time>2026-08-19T12:15:13.344Z</time>
      </trkpt>
      <trkpt lat="45.8991" lon="6.33532">
        <ele>868</ele>
        <time>2026-08-19T12:15:14.344Z</time>
      </trkpt>
      <trkpt lat="45.89908" lon="6.33531">
        <ele>868</ele>
        <time>2026-08-19T12:15:15.344Z</time>
      </trkpt>
      <trkpt lat="45.89907" lon="6.33529">
        <ele>868</ele>
        <time>2026-08-19T12:15:16.344Z</time>
      </trkpt>
      <trkpt lat="45.89905" lon="6.33527">
        <ele>868</ele>
        <time>2026-08-19T12:15:17.344Z</time>
      </trkpt>
      <trkpt lat="45.89904" lon="6.33525">
        <ele>868</ele>
        <time>2026-08-19T12:15:18.344Z</time>
      </trkpt>
      <trkpt lat="45.89902" lon="6.33523">
        <ele>868</ele>
        <time>2026-08-19T12:15:19.344Z</time>
      </trkpt>
      <trkpt lat="45.899" lon="6.33522">
        <ele>868</ele>
        <time>2026-08-19T12:15:20.344Z</time>
      </trkpt>
      <trkpt lat="45.89899" lon="6.33521">
        <ele>867</ele>
        <time>2026-08-19T12:15:21.344Z</time>
      </trkpt>
      <trkpt lat="45.89897" lon="6.3352">
        <ele>867</ele>
        <time>2026-08-19T12:15:22.344Z</time>
      </trkpt>
      <trkpt lat="45.89894" lon="6.33519">
        <ele>866</ele>
        <time>2026-08-19T12:15:23.345Z</time>
      </trkpt>
      <trkpt lat="45.89893" lon="6.33518">
        <ele>865</ele>
        <time>2026-08-19T12:15:24.344Z</time>
      </trkpt>
      <trkpt lat="45.89892" lon="6.33517">
        <ele>865</ele>
        <time>2026-08-19T12:15:25.344Z</time>
      </trkpt>
      <trkpt lat="45.8989" lon="6.33517">
        <ele>864</ele>
        <time>2026-08-19T12:15:26.344Z</time>
      </trkpt>
      <trkpt lat="45.89888" lon="6.33517">
        <ele>863</ele>
        <time>2026-08-19T12:15:27.344Z</time>
      </trkpt>
      <trkpt lat="45.89886" lon="6.33517">
        <ele>863</ele>
        <time>2026-08-19T12:15:28.344Z</time>
      </trkpt>
      <trkpt lat="45.89883" lon="6.33516">
        <ele>862</ele>
        <time>2026-08-19T12:15:29.344Z</time>
      </trkpt>
      <trkpt lat="45.89881" lon="6.33516">
        <ele>861</ele>
        <time>2026-08-19T12:15:30.344Z</time>
      </trkpt>
      <trkpt lat="45.89879" lon="6.33515">
        <ele>861</ele>
        <time>2026-08-19T12:15:31.344Z</time>
      </trkpt>
      <trkpt lat="45.89877" lon="6.33514">
        <ele>860</ele>
        <time>2026-08-19T12:15:32.344Z</time>
      </trkpt>
      <trkpt lat="45.89874" lon="6.33513">
        <ele>860</ele>
        <time>2026-08-19T12:15:33.344Z</time>
      </trkpt>
      <trkpt lat="45.89872" lon="6.33511">
        <ele>859</ele>
        <time>2026-08-19T12:15:34.344Z</time>
      </trkpt>
      <trkpt lat="45.8987" lon="6.3351">
        <ele>859</ele>
        <time>2026-08-19T12:15:35.344Z</time>
      </trkpt>
      <trkpt lat="45.89868" lon="6.33509">
        <ele>858</ele>
        <time>2026-08-19T12:15:36.344Z</time>
      </trkpt>
      <trkpt lat="45.89866" lon="6.33508">
        <ele>858</ele>
        <time>2026-08-19T12:15:37.344Z</time>
      </trkpt>
      <trkpt lat="45.89863" lon="6.33507">
        <ele>858</ele>
        <time>2026-08-19T12:15:38.344Z</time>
      </trkpt>
      <trkpt lat="45.89861" lon="6.33506">
        <ele>858</ele>
        <time>2026-08-19T12:15:39.344Z</time>
      </trkpt>
      <trkpt lat="45.89859" lon="6.33505">
        <ele>858</ele>
        <time>2026-08-19T12:15:40.344Z</time>
      </trkpt>
      <trkpt lat="45.89856" lon="6.33504">
        <ele>858</ele>
        <time>2026-08-19T12:15:41.344Z</time>
      </trkpt>
      <trkpt lat="45.89854" lon="6.33504">
        <ele>858</ele>
        <time>2026-08-19T12:15:42.344Z</time>
      </trkpt>
      <trkpt lat="45.89852" lon="6.33502">
        <ele>858</ele>
        <time>2026-08-19T12:15:43.344Z</time>
      </trkpt>
      <trkpt lat="45.89849" lon="6.335">
        <ele>857</ele>
        <time>2026-08-19T12:15:44.344Z</time>
      </trkpt>
      <trkpt lat="45.89847" lon="6.33498">
        <ele>857</ele>
        <time>2026-08-19T12:15:45.344Z</time>
      </trkpt>
      <trkpt lat="45.89846" lon="6.33495">
        <ele>857</ele>
        <time>2026-08-19T12:15:46.344Z</time>
      </trkpt>
      <trkpt lat="45.89844" lon="6.33493">
        <ele>857</ele>
        <time>2026-08-19T12:15:47.344Z</time>
      </trkpt>
      <trkpt lat="45.89841" lon="6.33492">
        <ele>857</ele>
        <time>2026-08-19T12:15:48.344Z</time>
      </trkpt>
      <trkpt lat="45.8984" lon="6.33491">
        <ele>857</ele>
        <time>2026-08-19T12:15:49.344Z</time>
      </trkpt>
      <trkpt lat="45.89838" lon="6.33491">
        <ele>857</ele>
        <time>2026-08-19T12:15:50.344Z</time>
      </trkpt>
      <trkpt lat="45.89839" lon="6.3349">
        <ele>858</ele>
        <time>2026-08-19T12:15:51.344Z</time>
      </trkpt>
      <trkpt lat="45.8984" lon="6.3349">
        <ele>858</ele>
        <time>2026-08-19T12:15:52.344Z</time>
      </trkpt>
      <trkpt lat="45.89841" lon="6.3349">
        <ele>858</ele>
        <time>2026-08-19T12:15:53.344Z</time>
      </trkpt>
      <trkpt lat="45.89842" lon="6.33491">
        <ele>858</ele>
        <time>2026-08-19T12:15:54.344Z</time>
      </trkpt>
      <trkpt lat="45.89842" lon="6.33493">
        <ele>857</ele>
        <time>2026-08-19T12:15:55.344Z</time>
      </trkpt>
      <trkpt lat="45.89843" lon="6.33496">
        <ele>857</ele>
        <time>2026-08-19T12:15:56.344Z</time>
      </trkpt>
      <trkpt lat="45.89844" lon="6.33498">
        <ele>856</ele>
        <time>2026-08-19T12:15:57.344Z</time>
      </trkpt>
      <trkpt lat="45.89845" lon="6.33501">
        <ele>855</ele>
        <time>2026-08-19T12:15:58.344Z</time>
      </trkpt>
      <trkpt lat="45.89846" lon="6.33503">
        <ele>855</ele>
        <time>2026-08-19T12:15:59.344Z</time>
      </trkpt>
      <trkpt lat="45.89847" lon="6.33505">
        <ele>854</ele>
        <time>2026-08-19T12:16:00.344Z</time>
      </trkpt>
      <trkpt lat="45.89847" lon="6.33507">
        <ele>853</ele>
        <time>2026-08-19T12:16:01.344Z</time>
      </trkpt>
      <trkpt lat="45.89848" lon="6.33508">
        <ele>853</ele>
        <time>2026-08-19T12:16:02.344Z</time>
      </trkpt>
      <trkpt lat="45.89849" lon="6.3351">
        <ele>852</ele>
        <time>2026-08-19T12:16:03.344Z</time>
      </trkpt>
      <trkpt lat="45.8985" lon="6.33513">
        <ele>852</ele>
        <time>2026-08-19T12:16:04.344Z</time>
      </trkpt>
      <trkpt lat="45.89851" lon="6.33516">
        <ele>852</ele>
        <time>2026-08-19T12:16:05.344Z</time>
      </trkpt>
      <trkpt lat="45.89853" lon="6.33518">
        <ele>851</ele>
        <time>2026-08-19T12:16:06.344Z</time>
      </trkpt>
      <trkpt lat="45.89854" lon="6.3352">
        <ele>851</ele>
        <time>2026-08-19T12:16:07.344Z</time>
      </trkpt>
      <trkpt lat="45.89856" lon="6.33522">
        <ele>851</ele>
        <time>2026-08-19T12:16:08.344Z</time>
      </trkpt>
      <trkpt lat="45.89857" lon="6.33525">
        <ele>851</ele>
        <time>2026-08-19T12:16:09.344Z</time>
      </trkpt>
      <trkpt lat="45.89859" lon="6.33528">
        <ele>850</ele>
        <time>2026-08-19T12:16:10.344Z</time>
      </trkpt>
      <trkpt lat="45.89861" lon="6.33531">
        <ele>850</ele>
        <time>2026-08-19T12:16:11.344Z</time>
      </trkpt>
      <trkpt lat="45.89862" lon="6.33534">
        <ele>849</ele>
        <time>2026-08-19T12:16:12.344Z</time>
      </trkpt>
      <trkpt lat="45.89862" lon="6.33538">
        <ele>848</ele>
        <time>2026-08-19T12:16:13.344Z</time>
      </trkpt>
      <trkpt lat="45.89862" lon="6.33541">
        <ele>848</ele>
        <time>2026-08-19T12:16:14.344Z</time>
      </trkpt>
      <trkpt lat="45.89862" lon="6.33545">
        <ele>847</ele>
        <time>2026-08-19T12:16:15.344Z</time>
      </trkpt>
      <trkpt lat="45.89861" lon="6.33549">
        <ele>846</ele>
        <time>2026-08-19T12:16:16.344Z</time>
      </trkpt>
      <trkpt lat="45.89861" lon="6.33552">
        <ele>846</ele>
        <time>2026-08-19T12:16:17.344Z</time>
      </trkpt>
      <trkpt lat="45.89861" lon="6.33556">
        <ele>845</ele>
        <time>2026-08-19T12:16:18.344Z</time>
      </trkpt>
      <trkpt lat="45.89862" lon="6.33559">
        <ele>845</ele>
        <time>2026-08-19T12:16:19.344Z</time>
      </trkpt>
      <trkpt lat="45.89862" lon="6.33562">
        <ele>844</ele>
        <time>2026-08-19T12:16:20.344Z</time>
      </trkpt>
      <trkpt lat="45.89862" lon="6.33565">
        <ele>844</ele>
        <time>2026-08-19T12:16:21.344Z</time>
      </trkpt>
      <trkpt lat="45.89861" lon="6.33568">
        <ele>844</ele>
        <time>2026-08-19T12:16:22.344Z</time>
      </trkpt>
      <trkpt lat="45.8986" lon="6.33571">
        <ele>844</ele>
        <time>2026-08-19T12:16:23.344Z</time>
      </trkpt>
      <trkpt lat="45.8986" lon="6.33573">
        <ele>844</ele>
        <time>2026-08-19T12:16:24.344Z</time>
      </trkpt>
      <trkpt lat="45.89859" lon="6.33576">
        <ele>844</ele>
        <time>2026-08-19T12:16:25.344Z</time>
      </trkpt>
      <trkpt lat="45.89857" lon="6.3358">
        <ele>844</ele>
        <time>2026-08-19T12:16:26.344Z</time>
      </trkpt>
      <trkpt lat="45.89856" lon="6.33583">
        <ele>843</ele>
        <time>2026-08-19T12:16:27.344Z</time>
      </trkpt>
      <trkpt lat="45.89855" lon="6.33586">
        <ele>843</ele>
        <time>2026-08-19T12:16:28.344Z</time>
      </trkpt>
      <trkpt lat="45.89853" lon="6.3359">
        <ele>842</ele>
        <time>2026-08-19T12:16:29.344Z</time>
      </trkpt>
      <trkpt lat="45.89852" lon="6.33593">
        <ele>842</ele>
        <time>2026-08-19T12:16:30.344Z</time>
      </trkpt>
      <trkpt lat="45.8985" lon="6.33596">
        <ele>841</ele>
        <time>2026-08-19T12:16:31.344Z</time>
      </trkpt>
      <trkpt lat="45.89848" lon="6.33599">
        <ele>841</ele>
        <time>2026-08-19T12:16:32.344Z</time>
      </trkpt>
      <trkpt lat="45.89846" lon="6.336">
        <ele>841</ele>
        <time>2026-08-19T12:16:33.344Z</time>
      </trkpt>
      <trkpt lat="45.89845" lon="6.33602">
        <ele>841</ele>
        <time>2026-08-19T12:16:34.344Z</time>
      </trkpt>
      <trkpt lat="45.89842" lon="6.33604">
        <ele>840</ele>
        <time>2026-08-19T12:16:35.344Z</time>
      </trkpt>
      <trkpt lat="45.89841" lon="6.33606">
        <ele>840</ele>
        <time>2026-08-19T12:16:36.344Z</time>
      </trkpt>
      <trkpt lat="45.89838" lon="6.33609">
        <ele>840</ele>
        <time>2026-08-19T12:16:37.344Z</time>
      </trkpt>
      <trkpt lat="45.89837" lon="6.33611">
        <ele>840</ele>
        <time>2026-08-19T12:16:38.344Z</time>
      </trkpt>
      <trkpt lat="45.89835" lon="6.33612">
        <ele>840</ele>
        <time>2026-08-19T12:16:39.344Z</time>
      </trkpt>
      <trkpt lat="45.89834" lon="6.33614">
        <ele>840</ele>
        <time>2026-08-19T12:16:40.345Z</time>
      </trkpt>
      <trkpt lat="45.89833" lon="6.33617">
        <ele>839</ele>
        <time>2026-08-19T12:16:41.344Z</time>
      </trkpt>
      <trkpt lat="45.89833" lon="6.33619">
        <ele>838</ele>
        <time>2026-08-19T12:16:42.344Z</time>
      </trkpt>
      <trkpt lat="45.89833" lon="6.33621">
        <ele>838</ele>
        <time>2026-08-19T12:16:43.344Z</time>
      </trkpt>
      <trkpt lat="45.89833" lon="6.33624">
        <ele>837</ele>
        <time>2026-08-19T12:16:44.345Z</time>
      </trkpt>
      <trkpt lat="45.89833" lon="6.33626">
        <ele>837</ele>
        <time>2026-08-19T12:16:45.344Z</time>
      </trkpt>
      <trkpt lat="45.89834" lon="6.33629">
        <ele>836</ele>
        <time>2026-08-19T12:16:46.344Z</time>
      </trkpt>
      <trkpt lat="45.89835" lon="6.33632">
        <ele>836</ele>
        <time>2026-08-19T12:16:47.345Z</time>
      </trkpt>
      <trkpt lat="45.89836" lon="6.33635">
        <ele>835</ele>
        <time>2026-08-19T12:16:48.344Z</time>
      </trkpt>
      <trkpt lat="45.89836" lon="6.33638">
        <ele>834</ele>
        <time>2026-08-19T12:16:49.344Z</time>
      </trkpt>
      <trkpt lat="45.89836" lon="6.33641">
        <ele>834</ele>
        <time>2026-08-19T12:16:50.344Z</time>
      </trkpt>
      <trkpt lat="45.89837" lon="6.33644">
        <ele>833</ele>
        <time>2026-08-19T12:16:51.344Z</time>
      </trkpt>
      <trkpt lat="45.89837" lon="6.33646">
        <ele>833</ele>
        <time>2026-08-19T12:16:52.344Z</time>
      </trkpt>
      <trkpt lat="45.89838" lon="6.33649">
        <ele>833</ele>
        <time>2026-08-19T12:16:53.344Z</time>
      </trkpt>
      <trkpt lat="45.89838" lon="6.33652">
        <ele>832</ele>
        <time>2026-08-19T12:16:54.344Z</time>
      </trkpt>
      <trkpt lat="45.89839" lon="6.33655">
        <ele>832</ele>
        <time>2026-08-19T12:16:55.345Z</time>
      </trkpt>
      <trkpt lat="45.89839" lon="6.33659">
        <ele>831</ele>
        <time>2026-08-19T12:16:56.344Z</time>
      </trkpt>
      <trkpt lat="45.89839" lon="6.33662">
        <ele>831</ele>
        <time>2026-08-19T12:16:57.344Z</time>
      </trkpt>
      <trkpt lat="45.89839" lon="6.33664">
        <ele>831</ele>
        <time>2026-08-19T12:16:58.344Z</time>
      </trkpt>
      <trkpt lat="45.89839" lon="6.33667">
        <ele>830</ele>
        <time>2026-08-19T12:16:59.344Z</time>
      </trkpt>
      <trkpt lat="45.89839" lon="6.3367">
        <ele>830</ele>
        <time>2026-08-19T12:17:00.344Z</time>
      </trkpt>
      <trkpt lat="45.8984" lon="6.33674">
        <ele>829</ele>
        <time>2026-08-19T12:17:01.344Z</time>
      </trkpt>
      <trkpt lat="45.8984" lon="6.33677">
        <ele>829</ele>
        <time>2026-08-19T12:17:02.344Z</time>
      </trkpt>
      <trkpt lat="45.89841" lon="6.3368">
        <ele>828</ele>
        <time>2026-08-19T12:17:03.344Z</time>
      </trkpt>
      <trkpt lat="45.89842" lon="6.33683">
        <ele>828</ele>
        <time>2026-08-19T12:17:04.344Z</time>
      </trkpt>
      <trkpt lat="45.89842" lon="6.33686">
        <ele>827</ele>
        <time>2026-08-19T12:17:05.344Z</time>
      </trkpt>
      <trkpt lat="45.89843" lon="6.33689">
        <ele>827</ele>
        <time>2026-08-19T12:17:06.344Z</time>
      </trkpt>
      <trkpt lat="45.89844" lon="6.33691">
        <ele>827</ele>
        <time>2026-08-19T12:17:07.344Z</time>
      </trkpt>
      <trkpt lat="45.89845" lon="6.33694">
        <ele>827</ele>
        <time>2026-08-19T12:17:08.344Z</time>
      </trkpt>
      <trkpt lat="45.89845" lon="6.33697">
        <ele>826</ele>
        <time>2026-08-19T12:17:09.344Z</time>
      </trkpt>
      <trkpt lat="45.89846" lon="6.337">
        <ele>826</ele>
        <time>2026-08-19T12:17:10.344Z</time>
      </trkpt>
      <trkpt lat="45.89845" lon="6.33703">
        <ele>825</ele>
        <time>2026-08-19T12:17:11.344Z</time>
      </trkpt>
      <trkpt lat="45.89844" lon="6.33706">
        <ele>825</ele>
        <time>2026-08-19T12:17:12.344Z</time>
      </trkpt>
      <trkpt lat="45.89842" lon="6.33706">
        <ele>824</ele>
        <time>2026-08-19T12:17:13.344Z</time>
      </trkpt>
      <trkpt lat="45.8984" lon="6.33707">
        <ele>824</ele>
        <time>2026-08-19T12:17:14.344Z</time>
      </trkpt>
      <trkpt lat="45.89838" lon="6.33706">
        <ele>823</ele>
        <time>2026-08-19T12:17:15.344Z</time>
      </trkpt>
      <trkpt lat="45.89836" lon="6.33704">
        <ele>822</ele>
        <time>2026-08-19T12:17:16.344Z</time>
      </trkpt>
      <trkpt lat="45.89834" lon="6.33702">
        <ele>822</ele>
        <time>2026-08-19T12:17:17.344Z</time>
      </trkpt>
      <trkpt lat="45.89833" lon="6.33699">
        <ele>822</ele>
        <time>2026-08-19T12:17:18.344Z</time>
      </trkpt>
      <trkpt lat="45.89832" lon="6.33696">
        <ele>821</ele>
        <time>2026-08-19T12:17:19.344Z</time>
      </trkpt>
      <trkpt lat="45.89831" lon="6.33693">
        <ele>821</ele>
        <time>2026-08-19T12:17:20.344Z</time>
      </trkpt>
      <trkpt lat="45.8983" lon="6.33691">
        <ele>821</ele>
        <time>2026-08-19T12:17:21.344Z</time>
      </trkpt>
      <trkpt lat="45.89828" lon="6.33689">
        <ele>820</ele>
        <time>2026-08-19T12:17:22.344Z</time>
      </trkpt>
      <trkpt lat="45.89827" lon="6.33687">
        <ele>820</ele>
        <time>2026-08-19T12:17:23.344Z</time>
      </trkpt>
      <trkpt lat="45.89825" lon="6.33684">
        <ele>820</ele>
        <time>2026-08-19T12:17:24.344Z</time>
      </trkpt>
      <trkpt lat="45.89823" lon="6.33682">
        <ele>820</ele>
        <time>2026-08-19T12:17:25.345Z</time>
      </trkpt>
      <trkpt lat="45.89821" lon="6.3368">
        <ele>819</ele>
        <time>2026-08-19T12:17:26.345Z</time>
      </trkpt>
      <trkpt lat="45.8982" lon="6.33679">
        <ele>819</ele>
        <time>2026-08-19T12:17:27.344Z</time>
      </trkpt>
      <trkpt lat="45.89818" lon="6.33677">
        <ele>819</ele>
        <time>2026-08-19T12:17:28.344Z</time>
      </trkpt>
      <trkpt lat="45.89816" lon="6.33676">
        <ele>818</ele>
        <time>2026-08-19T12:17:29.344Z</time>
      </trkpt>
      <trkpt lat="45.89814" lon="6.33675">
        <ele>818</ele>
        <time>2026-08-19T12:17:30.344Z</time>
      </trkpt>
      <trkpt lat="45.89812" lon="6.33674">
        <ele>818</ele>
        <time>2026-08-19T12:17:31.344Z</time>
      </trkpt>
      <trkpt lat="45.8981" lon="6.33673">
        <ele>818</ele>
        <time>2026-08-19T12:17:32.344Z</time>
      </trkpt>
      <trkpt lat="45.89808" lon="6.33672">
        <ele>818</ele>
        <time>2026-08-19T12:17:33.345Z</time>
      </trkpt>
      <trkpt lat="45.89806" lon="6.33671">
        <ele>818</ele>
        <time>2026-08-19T12:17:34.344Z</time>
      </trkpt>
      <trkpt lat="45.89803" lon="6.3367">
        <ele>818</ele>
        <time>2026-08-19T12:17:35.344Z</time>
      </trkpt>
      <trkpt lat="45.89801" lon="6.33669">
        <ele>818</ele>
        <time>2026-08-19T12:17:36.344Z</time>
      </trkpt>
      <trkpt lat="45.89798" lon="6.33668">
        <ele>817</ele>
        <time>2026-08-19T12:17:37.344Z</time>
      </trkpt>
      <trkpt lat="45.89796" lon="6.33668">
        <ele>817</ele>
        <time>2026-08-19T12:17:38.344Z</time>
      </trkpt>
      <trkpt lat="45.89793" lon="6.33667">
        <ele>817</ele>
        <time>2026-08-19T12:17:39.344Z</time>
      </trkpt>
      <trkpt lat="45.8979" lon="6.33666">
        <ele>817</ele>
        <time>2026-08-19T12:17:40.344Z</time>
      </trkpt>
      <trkpt lat="45.89789" lon="6.33664">
        <ele>816</ele>
        <time>2026-08-19T12:17:41.344Z</time>
      </trkpt>
      <trkpt lat="45.89787" lon="6.33663">
        <ele>816</ele>
        <time>2026-08-19T12:17:42.344Z</time>
      </trkpt>
      <trkpt lat="45.89785" lon="6.33661">
        <ele>816</ele>
        <time>2026-08-19T12:17:43.344Z</time>
      </trkpt>
      <trkpt lat="45.89783" lon="6.33659">
        <ele>815</ele>
        <time>2026-08-19T12:17:44.344Z</time>
      </trkpt>
      <trkpt lat="45.89782" lon="6.33657">
        <ele>815</ele>
        <time>2026-08-19T12:17:45.344Z</time>
      </trkpt>
      <trkpt lat="45.8978" lon="6.33655">
        <ele>814</ele>
        <time>2026-08-19T12:17:46.344Z</time>
      </trkpt>
      <trkpt lat="45.89778" lon="6.33653">
        <ele>813</ele>
        <time>2026-08-19T12:17:47.344Z</time>
      </trkpt>
      <trkpt lat="45.89775" lon="6.33652">
        <ele>813</ele>
        <time>2026-08-19T12:17:48.344Z</time>
      </trkpt>
      <trkpt lat="45.89773" lon="6.3365">
        <ele>812</ele>
        <time>2026-08-19T12:17:49.344Z</time>
      </trkpt>
      <trkpt lat="45.89771" lon="6.33649">
        <ele>812</ele>
        <time>2026-08-19T12:17:50.344Z</time>
      </trkpt>
      <trkpt lat="45.89769" lon="6.33647">
        <ele>811</ele>
        <time>2026-08-19T12:17:51.344Z</time>
      </trkpt>
      <trkpt lat="45.89767" lon="6.33644">
        <ele>810</ele>
        <time>2026-08-19T12:17:52.344Z</time>
      </trkpt>
      <trkpt lat="45.89765" lon="6.33642">
        <ele>810</ele>
        <time>2026-08-19T12:17:53.344Z</time>
      </trkpt>
      <trkpt lat="45.89763" lon="6.3364">
        <ele>810</ele>
        <time>2026-08-19T12:17:54.344Z</time>
      </trkpt>
      <trkpt lat="45.89761" lon="6.33638">
        <ele>809</ele>
        <time>2026-08-19T12:17:55.344Z</time>
      </trkpt>
      <trkpt lat="45.89759" lon="6.33635">
        <ele>809</ele>
        <time>2026-08-19T12:17:56.344Z</time>
      </trkpt>
      <trkpt lat="45.89758" lon="6.33632">
        <ele>808</ele>
        <time>2026-08-19T12:17:57.344Z</time>
      </trkpt>
      <trkpt lat="45.89757" lon="6.33629">
        <ele>808</ele>
        <time>2026-08-19T12:17:58.344Z</time>
      </trkpt>
      <trkpt lat="45.89756" lon="6.33626">
        <ele>807</ele>
        <time>2026-08-19T12:17:59.344Z</time>
      </trkpt>
      <trkpt lat="45.89754" lon="6.33623">
        <ele>807</ele>
        <time>2026-08-19T12:18:00.344Z</time>
      </trkpt>
      <trkpt lat="45.89753" lon="6.3362">
        <ele>806</ele>
        <time>2026-08-19T12:18:01.344Z</time>
      </trkpt>
      <trkpt lat="45.89752" lon="6.33616">
        <ele>806</ele>
        <time>2026-08-19T12:18:02.344Z</time>
      </trkpt>
      <trkpt lat="45.8975" lon="6.33614">
        <ele>805</ele>
        <time>2026-08-19T12:18:03.344Z</time>
      </trkpt>
      <trkpt lat="45.89748" lon="6.33611">
        <ele>805</ele>
        <time>2026-08-19T12:18:04.344Z</time>
      </trkpt>
      <trkpt lat="45.89747" lon="6.33609">
        <ele>805</ele>
        <time>2026-08-19T12:18:05.344Z</time>
      </trkpt>
      <trkpt lat="45.89745" lon="6.33607">
        <ele>804</ele>
        <time>2026-08-19T12:18:06.344Z</time>
      </trkpt>
      <trkpt lat="45.89743" lon="6.33605">
        <ele>804</ele>
        <time>2026-08-19T12:18:07.344Z</time>
      </trkpt>
      <trkpt lat="45.89742" lon="6.33602">
        <ele>803</ele>
        <time>2026-08-19T12:18:08.344Z</time>
      </trkpt>
      <trkpt lat="45.8974" lon="6.33599">
        <ele>803</ele>
        <time>2026-08-19T12:18:09.344Z</time>
      </trkpt>
      <trkpt lat="45.89739" lon="6.33596">
        <ele>802</ele>
        <time>2026-08-19T12:18:10.344Z</time>
      </trkpt>
      <trkpt lat="45.89739" lon="6.33593">
        <ele>801</ele>
        <time>2026-08-19T12:18:11.344Z</time>
      </trkpt>
      <trkpt lat="45.89738" lon="6.3359">
        <ele>801</ele>
        <time>2026-08-19T12:18:12.344Z</time>
      </trkpt>
      <trkpt lat="45.89738" lon="6.33587">
        <ele>801</ele>
        <time>2026-08-19T12:18:13.345Z</time>
      </trkpt>
      <trkpt lat="45.89738" lon="6.33584">
        <ele>800</ele>
        <time>2026-08-19T12:18:14.344Z</time>
      </trkpt>
      <trkpt lat="45.89738" lon="6.33581">
        <ele>800</ele>
        <time>2026-08-19T12:18:15.345Z</time>
      </trkpt>
      <trkpt lat="45.89739" lon="6.33578">
        <ele>800</ele>
        <time>2026-08-19T12:18:16.344Z</time>
      </trkpt>
      <trkpt lat="45.89738" lon="6.33576">
        <ele>800</ele>
        <time>2026-08-19T12:18:17.344Z</time>
      </trkpt>
      <trkpt lat="45.89738" lon="6.33573">
        <ele>800</ele>
        <time>2026-08-19T12:18:18.344Z</time>
      </trkpt>
      <trkpt lat="45.89737" lon="6.3357">
        <ele>800</ele>
        <time>2026-08-19T12:18:19.344Z</time>
      </trkpt>
      <trkpt lat="45.89737" lon="6.33567">
        <ele>800</ele>
        <time>2026-08-19T12:18:20.344Z</time>
      </trkpt>
      <trkpt lat="45.89736" lon="6.33565">
        <ele>800</ele>
        <time>2026-08-19T12:18:21.344Z</time>
      </trkpt>
      <trkpt lat="45.89735" lon="6.33564">
        <ele>800</ele>
        <time>2026-08-19T12:18:22.344Z</time>
      </trkpt>
      <trkpt lat="45.89734" lon="6.33562">
        <ele>800</ele>
        <time>2026-08-19T12:18:23.344Z</time>
      </trkpt>
      <trkpt lat="45.89732" lon="6.3356">
        <ele>800</ele>
        <time>2026-08-19T12:18:24.344Z</time>
      </trkpt>
      <trkpt lat="45.89731" lon="6.33559">
        <ele>801</ele>
        <time>2026-08-19T12:18:25.344Z</time>
      </trkpt>
      <trkpt lat="45.89729" lon="6.33558">
        <ele>801</ele>
        <time>2026-08-19T12:18:26.344Z</time>
      </trkpt>
      <trkpt lat="45.89728" lon="6.33557">
        <ele>801</ele>
        <time>2026-08-19T12:18:27.344Z</time>
      </trkpt>
      <trkpt lat="45.89727" lon="6.33556">
        <ele>801</ele>
        <time>2026-08-19T12:18:28.344Z</time>
      </trkpt>
      <trkpt lat="45.89725" lon="6.33557">
        <ele>801</ele>
        <time>2026-08-19T12:18:29.344Z</time>
      </trkpt>
      <trkpt lat="45.89725" lon="6.33556">
        <ele>801</ele>
        <time>2026-08-19T12:18:30.344Z</time>
      </trkpt>
      <trkpt lat="45.89724" lon="6.33556">
        <ele>800</ele>
        <time>2026-08-19T12:18:31.344Z</time>
      </trkpt>
      <trkpt lat="45.89724" lon="6.33556">
        <ele>800</ele>
        <time>2026-08-19T12:18:32.344Z</time>
      </trkpt>
      <trkpt lat="45.89724" lon="6.33557">
        <ele>800</ele>
        <time>2026-08-19T12:18:33.344Z</time>
      </trkpt>
      <trkpt lat="45.89724" lon="6.33558">
        <ele>801</ele>
        <time>2026-08-19T12:18:34.345Z</time>
      </trkpt>
      <trkpt lat="45.89724" lon="6.33559">
        <ele>801</ele>
        <time>2026-08-19T12:18:35.344Z</time>
      </trkpt>
      <trkpt lat="45.89724" lon="6.33559">
        <ele>801</ele>
        <time>2026-08-19T12:18:36.344Z</time>
      </trkpt>
      <trkpt lat="45.89724" lon="6.33559">
        <ele>800</ele>
        <time>2026-08-19T12:18:37.344Z</time>
      </trkpt>
      <trkpt lat="45.89724" lon="6.33559">
        <ele>800</ele>
        <time>2026-08-19T12:18:38.344Z</time>
      </trkpt>
      <trkpt lat="45.89724" lon="6.33559">
        <ele>800</ele>
        <time>2026-08-19T12:18:39.344Z</time>
      </trkpt>
      <trkpt lat="45.89724" lon="6.33559">
        <ele>800</ele>
        <time>2026-08-19T12:18:40.344Z</time>
      </trkpt>
      <trkpt lat="45.89724" lon="6.33559">
        <ele>799</ele>
        <time>2026-08-19T12:18:41.345Z</time>
      </trkpt>
      <trkpt lat="45.89724" lon="6.33559">
        <ele>799</ele>
        <time>2026-08-19T12:18:42.344Z</time>
      </trkpt>
      <trkpt lat="45.89724" lon="6.33559">
        <ele>799</ele>
        <time>2026-08-19T12:18:43.344Z</time>
      </trkpt>
      <trkpt lat="45.89724" lon="6.33558">
        <ele>799</ele>
        <time>2026-08-19T12:18:44.344Z</time>
      </trkpt>
      <trkpt lat="45.89724" lon="6.33557">
        <ele>799</ele>
        <time>2026-08-19T12:18:45.344Z</time>
      </trkpt>
      <trkpt lat="45.89724" lon="6.33557">
        <ele>799</ele>
        <time>2026-08-19T12:18:46.344Z</time>
      </trkpt>
      <trkpt lat="45.89724" lon="6.33557">
        <ele>799</ele>
        <time>2026-08-19T12:18:47.344Z</time>
      </trkpt>
      <trkpt lat="45.89724" lon="6.33557">
        <ele>799</ele>
        <time>2026-08-19T12:18:48.344Z</time>
      </trkpt>
      <trkpt lat="45.89724" lon="6.33557">
        <ele>799</ele>
        <time>2026-08-19T12:18:49.344Z</time>
      </trkpt>
      <trkpt lat="45.89724" lon="6.33557">
        <ele>799</ele>
        <time>2026-08-19T12:18:50.344Z</time>
      </trkpt>
      <trkpt lat="45.89724" lon="6.33557">
        <ele>799</ele>
        <time>2026-08-19T12:18:51.344Z</time>
      </trkpt>
      <trkpt lat="45.89724" lon="6.33557">
        <ele>799</ele>
        <time>2026-08-19T12:18:52.344Z</time>
      </trkpt>
      <trkpt lat="45.89724" lon="6.33557">
        <ele>799</ele>
        <time>2026-08-19T12:18:53.344Z</time>
      </trkpt>
      <trkpt lat="45.89724" lon="6.33557">
        <ele>799</ele>
        <time>2026-08-19T12:18:54.344Z</time>
      </trkpt>
      <trkpt lat="45.89724" lon="6.33557">
        <ele>799</ele>
        <time>2026-08-19T12:18:55.345Z</time>
      </trkpt>
      <trkpt lat="45.89724" lon="6.33557">
        <ele>799</ele>
        <time>2026-08-19T12:18:56.345Z</time>
      </trkpt>
      <trkpt lat="45.89724" lon="6.33557">
        <ele>799</ele>
        <time>2026-08-19T12:18:57.344Z</time>
      </trkpt>
      <trkpt lat="45.89724" lon="6.33557">
        <ele>799</ele>
        <time>2026-08-19T12:18:58.344Z</time>
      </trkpt>
      <trkpt lat="45.89724" lon="6.33557">
        <ele>798</ele>
        <time>2026-08-19T12:18:59.344Z</time>
      </trkpt>
      <trkpt lat="45.89724" lon="6.33557">
        <ele>798</ele>
        <time>2026-08-19T12:19:00.344Z</time>
      </trkpt>
      <trkpt lat="45.89724" lon="6.33557">
        <ele>798</ele>
        <time>2026-08-19T12:19:01.345Z</time>
      </trkpt>
      <trkpt lat="45.89724" lon="6.33557">
        <ele>798</ele>
        <time>2026-08-19T12:19:02.344Z</time>
      </trkpt>
      <trkpt lat="45.89724" lon="6.33557">
        <ele>798</ele>
        <time>2026-08-19T12:19:03.344Z</time>
      </trkpt>
      <trkpt lat="45.89724" lon="6.33557">
        <ele>798</ele>
        <time>2026-08-19T12:19:04.344Z</time>
      </trkpt>
      <trkpt lat="45.89724" lon="6.33557">
        <ele>798</ele>
        <time>2026-08-19T12:19:05.344Z</time>
      </trkpt>
      <trkpt lat="45.89724" lon="6.33557">
        <ele>798</ele>
        <time>2026-08-19T12:19:06.344Z</time>
      </trkpt>
      <trkpt lat="45.89724" lon="6.33557">
        <ele>798</ele>
        <time>2026-08-19T12:19:07.344Z</time>
      </trkpt>
      <trkpt lat="45.89724" lon="6.33557">
        <ele>798</ele>
        <time>2026-08-19T12:19:08.344Z</time>
      </trkpt>
      <trkpt lat="45.89724" lon="6.33557">
        <ele>798</ele>
        <time>2026-08-19T12:19:09.344Z</time>
      </trkpt>
      <trkpt lat="45.89724" lon="6.33557">
        <ele>798</ele>
        <time>2026-08-19T12:19:10.345Z</time>
      </trkpt>
      <trkpt lat="45.89724" lon="6.33557">
        <ele>798</ele>
        <time>2026-08-19T12:19:11.344Z</time>
      </trkpt>
      <trkpt lat="45.89724" lon="6.33557">
        <ele>798</ele>
        <time>2026-08-19T12:19:12.345Z</time>
      </trkpt>
      <trkpt lat="45.89724" lon="6.33557">
        <ele>798</ele>
        <time>2026-08-19T12:19:13.344Z</time>
      </trkpt>
      <trkpt lat="45.89724" lon="6.33557">
        <ele>798</ele>
        <time>2026-08-19T12:19:14.344Z</time>
      </trkpt>
      <trkpt lat="45.89724" lon="6.33557">
        <ele>798</ele>
        <time>2026-08-19T12:19:15.344Z</time>
      </trkpt>
      <trkpt lat="45.89724" lon="6.33557">
        <ele>798</ele>
        <time>2026-08-19T12:19:16.345Z</time>
      </trkpt>
      <trkpt lat="45.89723" lon="6.33557">
        <ele>798</ele>
        <time>2026-08-19T12:19:17.344Z</time>
      </trkpt>
      <trkpt lat="45.89723" lon="6.33557">
        <ele>797</ele>
        <time>2026-08-19T12:19:18.345Z</time>
      </trkpt>
      <trkpt lat="45.89723" lon="6.33557">
        <ele>797</ele>
        <time>2026-08-19T12:19:19.344Z</time>
      </trkpt>
      <trkpt lat="45.89723" lon="6.33557">
        <ele>797</ele>
        <time>2026-08-19T12:19:20.344Z</time>
      </trkpt>
      <trkpt lat="45.89721" lon="6.33558">
        <ele>797</ele>
        <time>2026-08-19T12:19:21.344Z</time>
      </trkpt>
      <trkpt lat="45.89719" lon="6.3356">
        <ele>797</ele>
        <time>2026-08-19T12:19:22.344Z</time>
      </trkpt>
      <trkpt lat="45.89718" lon="6.33561">
        <ele>797</ele>
        <time>2026-08-19T12:19:23.344Z</time>
      </trkpt>
      <trkpt lat="45.89716" lon="6.33562">
        <ele>797</ele>
        <time>2026-08-19T12:19:24.345Z</time>
      </trkpt>
      <trkpt lat="45.89715" lon="6.33563">
        <ele>797</ele>
        <time>2026-08-19T12:19:25.344Z</time>
      </trkpt>
      <trkpt lat="45.89713" lon="6.33564">
        <ele>796</ele>
        <time>2026-08-19T12:19:26.344Z</time>
      </trkpt>
      <trkpt lat="45.89712" lon="6.33566">
        <ele>796</ele>
        <time>2026-08-19T12:19:27.344Z</time>
      </trkpt>
      <trkpt lat="45.89712" lon="6.33568">
        <ele>795</ele>
        <time>2026-08-19T12:19:28.344Z</time>
      </trkpt>
      <trkpt lat="45.89711" lon="6.33568">
        <ele>795</ele>
        <time>2026-08-19T12:19:29.344Z</time>
      </trkpt>
      <trkpt lat="45.89712" lon="6.33568">
        <ele>794</ele>
        <time>2026-08-19T12:19:30.344Z</time>
      </trkpt>
      <trkpt lat="45.89712" lon="6.33566">
        <ele>794</ele>
        <time>2026-08-19T12:19:31.344Z</time>
      </trkpt>
      <trkpt lat="45.89712" lon="6.33565">
        <ele>793</ele>
        <time>2026-08-19T12:19:32.344Z</time>
      </trkpt>
      <trkpt lat="45.89713" lon="6.33565">
        <ele>792</ele>
        <time>2026-08-19T12:19:33.344Z</time>
      </trkpt>
      <trkpt lat="45.89713" lon="6.33565">
        <ele>792</ele>
        <time>2026-08-19T12:19:34.344Z</time>
      </trkpt>
      <trkpt lat="45.89714" lon="6.33566">
        <ele>791</ele>
        <time>2026-08-19T12:19:35.344Z</time>
      </trkpt>
      <trkpt lat="45.89714" lon="6.33567">
        <ele>791</ele>
        <time>2026-08-19T12:19:36.344Z</time>
      </trkpt>
      <trkpt lat="45.89715" lon="6.33568">
        <ele>790</ele>
        <time>2026-08-19T12:19:37.344Z</time>
      </trkpt>
      <trkpt lat="45.89715" lon="6.33569">
        <ele>790</ele>
        <time>2026-08-19T12:19:38.344Z</time>
      </trkpt>
      <trkpt lat="45.89715" lon="6.33569">
        <ele>790</ele>
        <time>2026-08-19T12:19:39.344Z</time>
      </trkpt>
      <trkpt lat="45.89715" lon="6.3357">
        <ele>789</ele>
        <time>2026-08-19T12:19:40.344Z</time>
      </trkpt>
      <trkpt lat="45.89715" lon="6.3357">
        <ele>789</ele>
        <time>2026-08-19T12:19:41.344Z</time>
      </trkpt>
      <trkpt lat="45.89715" lon="6.33571">
        <ele>788</ele>
        <time>2026-08-19T12:19:42.344Z</time>
      </trkpt>
      <trkpt lat="45.89716" lon="6.33572">
        <ele>787</ele>
        <time>2026-08-19T12:19:43.344Z</time>
      </trkpt>
      <trkpt lat="45.89716" lon="6.33573">
        <ele>787</ele>
        <time>2026-08-19T12:19:44.344Z</time>
      </trkpt>
      <trkpt lat="45.89717" lon="6.33574">
        <ele>786</ele>
        <time>2026-08-19T12:19:45.344Z</time>
      </trkpt>
      <trkpt lat="45.89717" lon="6.33575">
        <ele>786</ele>
        <time>2026-08-19T12:19:46.344Z</time>
      </trkpt>
      <trkpt lat="45.89718" lon="6.33577">
        <ele>785</ele>
        <time>2026-08-19T12:19:47.344Z</time>
      </trkpt>
      <trkpt lat="45.89719" lon="6.33579">
        <ele>785</ele>
        <time>2026-08-19T12:19:48.344Z</time>
      </trkpt>
      <trkpt lat="45.8972" lon="6.33581">
        <ele>785</ele>
        <time>2026-08-19T12:19:49.344Z</time>
      </trkpt>
      <trkpt lat="45.8972" lon="6.33583">
        <ele>784</ele>
        <time>2026-08-19T12:19:50.345Z</time>
      </trkpt>
      <trkpt lat="45.8972" lon="6.33585">
        <ele>784</ele>
        <time>2026-08-19T12:19:51.344Z</time>
      </trkpt>
      <trkpt lat="45.8972" lon="6.33588">
        <ele>784</ele>
        <time>2026-08-19T12:19:52.344Z</time>
      </trkpt>
      <trkpt lat="45.8972" lon="6.33589">
        <ele>784</ele>
        <time>2026-08-19T12:19:53.344Z</time>
      </trkpt>
      <trkpt lat="45.89719" lon="6.33591">
        <ele>784</ele>
        <time>2026-08-19T12:19:54.344Z</time>
      </trkpt>
      <trkpt lat="45.89719" lon="6.33592">
        <ele>783</ele>
        <time>2026-08-19T12:19:55.344Z</time>
      </trkpt>
      <trkpt lat="45.89719" lon="6.33594">
        <ele>784</ele>
        <time>2026-08-19T12:19:56.344Z</time>
      </trkpt>
      <trkpt lat="45.89719" lon="6.33596">
        <ele>784</ele>
        <time>2026-08-19T12:19:57.344Z</time>
      </trkpt>
      <trkpt lat="45.89719" lon="6.33597">
        <ele>784</ele>
        <time>2026-08-19T12:19:58.344Z</time>
      </trkpt>
      <trkpt lat="45.89719" lon="6.33598">
        <ele>784</ele>
        <time>2026-08-19T12:19:59.344Z</time>
      </trkpt>
      <trkpt lat="45.8972" lon="6.33599">
        <ele>784</ele>
        <time>2026-08-19T12:20:00.344Z</time>
      </trkpt>
      <trkpt lat="45.8972" lon="6.33601">
        <ele>784</ele>
        <time>2026-08-19T12:20:01.344Z</time>
      </trkpt>
      <trkpt lat="45.8972" lon="6.33603">
        <ele>783</ele>
        <time>2026-08-19T12:20:02.344Z</time>
      </trkpt>
      <trkpt lat="45.8972" lon="6.33604">
        <ele>783</ele>
        <time>2026-08-19T12:20:03.344Z</time>
      </trkpt>
      <trkpt lat="45.8972" lon="6.33605">
        <ele>782</ele>
        <time>2026-08-19T12:20:04.344Z</time>
      </trkpt>
      <trkpt lat="45.89719" lon="6.33606">
        <ele>782</ele>
        <time>2026-08-19T12:20:05.344Z</time>
      </trkpt>
      <trkpt lat="45.89719" lon="6.33606">
        <ele>782</ele>
        <time>2026-08-19T12:20:06.344Z</time>
      </trkpt>
      <trkpt lat="45.89719" lon="6.33606">
        <ele>782</ele>
        <time>2026-08-19T12:20:07.344Z</time>
      </trkpt>
      <trkpt lat="45.89719" lon="6.33607">
        <ele>782</ele>
        <time>2026-08-19T12:20:08.344Z</time>
      </trkpt>
      <trkpt lat="45.89719" lon="6.33607">
        <ele>782</ele>
        <time>2026-08-19T12:20:09.344Z</time>
      </trkpt>
      <trkpt lat="45.89719" lon="6.33608">
        <ele>782</ele>
        <time>2026-08-19T12:20:10.344Z</time>
      </trkpt>
      <trkpt lat="45.89719" lon="6.33609">
        <ele>782</ele>
        <time>2026-08-19T12:20:11.344Z</time>
      </trkpt>
      <trkpt lat="45.89719" lon="6.3361">
        <ele>783</ele>
        <time>2026-08-19T12:20:12.344Z</time>
      </trkpt>
      <trkpt lat="45.89719" lon="6.33612">
        <ele>783</ele>
        <time>2026-08-19T12:20:13.344Z</time>
      </trkpt>
      <trkpt lat="45.8972" lon="6.33613">
        <ele>783</ele>
        <time>2026-08-19T12:20:14.344Z</time>
      </trkpt>
      <trkpt lat="45.8972" lon="6.33615">
        <ele>783</ele>
        <time>2026-08-19T12:20:15.344Z</time>
      </trkpt>
      <trkpt lat="45.8972" lon="6.33617">
        <ele>782</ele>
        <time>2026-08-19T12:20:16.344Z</time>
      </trkpt>
      <trkpt lat="45.8972" lon="6.33621">
        <ele>782</ele>
        <time>2026-08-19T12:20:17.344Z</time>
      </trkpt>
      <trkpt lat="45.8972" lon="6.33624">
        <ele>782</ele>
        <time>2026-08-19T12:20:18.344Z</time>
      </trkpt>
      <trkpt lat="45.89721" lon="6.33626">
        <ele>782</ele>
        <time>2026-08-19T12:20:19.344Z</time>
      </trkpt>
      <trkpt lat="45.89721" lon="6.33629">
        <ele>782</ele>
        <time>2026-08-19T12:20:20.344Z</time>
      </trkpt>
      <trkpt lat="45.89722" lon="6.33631">
        <ele>781</ele>
        <time>2026-08-19T12:20:21.344Z</time>
      </trkpt>
      <trkpt lat="45.89722" lon="6.33634">
        <ele>781</ele>
        <time>2026-08-19T12:20:22.344Z</time>
      </trkpt>
      <trkpt lat="45.89723" lon="6.33636">
        <ele>780</ele>
        <time>2026-08-19T12:20:23.344Z</time>
      </trkpt>
      <trkpt lat="45.89724" lon="6.33638">
        <ele>780</ele>
        <time>2026-08-19T12:20:24.344Z</time>
      </trkpt>
      <trkpt lat="45.89725" lon="6.3364">
        <ele>779</ele>
        <time>2026-08-19T12:20:25.345Z</time>
      </trkpt>
      <trkpt lat="45.89725" lon="6.33641">
        <ele>779</ele>
        <time>2026-08-19T12:20:26.344Z</time>
      </trkpt>
      <trkpt lat="45.89725" lon="6.33643">
        <ele>778</ele>
        <time>2026-08-19T12:20:27.344Z</time>
      </trkpt>
      <trkpt lat="45.89725" lon="6.33644">
        <ele>778</ele>
        <time>2026-08-19T12:20:28.344Z</time>
      </trkpt>
      <trkpt lat="45.89725" lon="6.33646">
        <ele>778</ele>
        <time>2026-08-19T12:20:29.344Z</time>
      </trkpt>
      <trkpt lat="45.89726" lon="6.33648">
        <ele>778</ele>
        <time>2026-08-19T12:20:30.345Z</time>
      </trkpt>
      <trkpt lat="45.89727" lon="6.33649">
        <ele>777</ele>
        <time>2026-08-19T12:20:31.344Z</time>
      </trkpt>
      <trkpt lat="45.89727" lon="6.33652">
        <ele>777</ele>
        <time>2026-08-19T12:20:32.344Z</time>
      </trkpt>
      <trkpt lat="45.89728" lon="6.33654">
        <ele>777</ele>
        <time>2026-08-19T12:20:33.344Z</time>
      </trkpt>
      <trkpt lat="45.89729" lon="6.33655">
        <ele>777</ele>
        <time>2026-08-19T12:20:34.344Z</time>
      </trkpt>
      <trkpt lat="45.89729" lon="6.33657">
        <ele>777</ele>
        <time>2026-08-19T12:20:35.344Z</time>
      </trkpt>
      <trkpt lat="45.8973" lon="6.33659">
        <ele>776</ele>
        <time>2026-08-19T12:20:36.344Z</time>
      </trkpt>
      <trkpt lat="45.8973" lon="6.33661">
        <ele>776</ele>
        <time>2026-08-19T12:20:37.344Z</time>
      </trkpt>
      <trkpt lat="45.89731" lon="6.33663">
        <ele>775</ele>
        <time>2026-08-19T12:20:38.344Z</time>
      </trkpt>
      <trkpt lat="45.89731" lon="6.33665">
        <ele>775</ele>
        <time>2026-08-19T12:20:39.344Z</time>
      </trkpt>
      <trkpt lat="45.89732" lon="6.33667">
        <ele>775</ele>
        <time>2026-08-19T12:20:40.344Z</time>
      </trkpt>
      <trkpt lat="45.89732" lon="6.33668">
        <ele>775</ele>
        <time>2026-08-19T12:20:41.344Z</time>
      </trkpt>
      <trkpt lat="45.89732" lon="6.3367">
        <ele>775</ele>
        <time>2026-08-19T12:20:42.344Z</time>
      </trkpt>
      <trkpt lat="45.89732" lon="6.33672">
        <ele>774</ele>
        <time>2026-08-19T12:20:43.344Z</time>
      </trkpt>
      <trkpt lat="45.89732" lon="6.33673">
        <ele>774</ele>
        <time>2026-08-19T12:20:44.344Z</time>
      </trkpt>
      <trkpt lat="45.89731" lon="6.33674">
        <ele>774</ele>
        <time>2026-08-19T12:20:45.344Z</time>
      </trkpt>
      <trkpt lat="45.89731" lon="6.33674">
        <ele>774</ele>
        <time>2026-08-19T12:20:46.344Z</time>
      </trkpt>
      <trkpt lat="45.89731" lon="6.33675">
        <ele>773</ele>
        <time>2026-08-19T12:20:47.344Z</time>
      </trkpt>
      <trkpt lat="45.89732" lon="6.33676">
        <ele>773</ele>
        <time>2026-08-19T12:20:48.344Z</time>
      </trkpt>
      <trkpt lat="45.89732" lon="6.33677">
        <ele>773</ele>
        <time>2026-08-19T12:20:49.344Z</time>
      </trkpt>
      <trkpt lat="45.89732" lon="6.33679">
        <ele>773</ele>
        <time>2026-08-19T12:20:50.344Z</time>
      </trkpt>
      <trkpt lat="45.89732" lon="6.3368">
        <ele>773</ele>
        <time>2026-08-19T12:20:51.344Z</time>
      </trkpt>
      <trkpt lat="45.89732" lon="6.33682">
        <ele>773</ele>
        <time>2026-08-19T12:20:52.344Z</time>
      </trkpt>
      <trkpt lat="45.89733" lon="6.33683">
        <ele>773</ele>
        <time>2026-08-19T12:20:53.344Z</time>
      </trkpt>
      <trkpt lat="45.89734" lon="6.33684">
        <ele>772</ele>
        <time>2026-08-19T12:20:54.344Z</time>
      </trkpt>
      <trkpt lat="45.89734" lon="6.33686">
        <ele>772</ele>
        <time>2026-08-19T12:20:55.344Z</time>
      </trkpt>
      <trkpt lat="45.89734" lon="6.33687">
        <ele>772</ele>
        <time>2026-08-19T12:20:56.344Z</time>
      </trkpt>
      <trkpt lat="45.89735" lon="6.33689">
        <ele>772</ele>
        <time>2026-08-19T12:20:57.344Z</time>
      </trkpt>
      <trkpt lat="45.89735" lon="6.3369">
        <ele>773</ele>
        <time>2026-08-19T12:20:58.344Z</time>
      </trkpt>
      <trkpt lat="45.89736" lon="6.33691">
        <ele>772</ele>
        <time>2026-08-19T12:20:59.344Z</time>
      </trkpt>
      <trkpt lat="45.89736" lon="6.33692">
        <ele>772</ele>
        <time>2026-08-19T12:21:00.344Z</time>
      </trkpt>
      <trkpt lat="45.89737" lon="6.33693">
        <ele>772</ele>
        <time>2026-08-19T12:21:01.344Z</time>
      </trkpt>
      <trkpt lat="45.89737" lon="6.33694">
        <ele>772</ele>
        <time>2026-08-19T12:21:02.344Z</time>
      </trkpt>
      <trkpt lat="45.89738" lon="6.33697">
        <ele>772</ele>
        <time>2026-08-19T12:21:03.344Z</time>
      </trkpt>
      <trkpt lat="45.89739" lon="6.337">
        <ele>772</ele>
        <time>2026-08-19T12:21:04.344Z</time>
      </trkpt>
      <trkpt lat="45.8974" lon="6.33702">
        <ele>772</ele>
        <time>2026-08-19T12:21:05.344Z</time>
      </trkpt>
      <trkpt lat="45.8974" lon="6.33703">
        <ele>772</ele>
        <time>2026-08-19T12:21:06.344Z</time>
      </trkpt>
      <trkpt lat="45.89739" lon="6.33705">
        <ele>772</ele>
        <time>2026-08-19T12:21:07.344Z</time>
      </trkpt>
      <trkpt lat="45.89739" lon="6.33706">
        <ele>772</ele>
        <time>2026-08-19T12:21:08.344Z</time>
      </trkpt>
      <trkpt lat="45.89739" lon="6.33708">
        <ele>771</ele>
        <time>2026-08-19T12:21:09.344Z</time>
      </trkpt>
      <trkpt lat="45.89739" lon="6.3371">
        <ele>771</ele>
        <time>2026-08-19T12:21:10.344Z</time>
      </trkpt>
      <trkpt lat="45.89739" lon="6.33711">
        <ele>770</ele>
        <time>2026-08-19T12:21:11.344Z</time>
      </trkpt>
      <trkpt lat="45.8974" lon="6.33713">
        <ele>770</ele>
        <time>2026-08-19T12:21:12.344Z</time>
      </trkpt>
      <trkpt lat="45.8974" lon="6.33715">
        <ele>769</ele>
        <time>2026-08-19T12:21:13.344Z</time>
      </trkpt>
      <trkpt lat="45.89739" lon="6.33717">
        <ele>769</ele>
        <time>2026-08-19T12:21:14.344Z</time>
      </trkpt>
      <trkpt lat="45.89739" lon="6.33719">
        <ele>769</ele>
        <time>2026-08-19T12:21:15.344Z</time>
      </trkpt>
      <trkpt lat="45.89739" lon="6.3372">
        <ele>768</ele>
        <time>2026-08-19T12:21:16.344Z</time>
      </trkpt>
      <trkpt lat="45.89739" lon="6.33721">
        <ele>768</ele>
        <time>2026-08-19T12:21:17.344Z</time>
      </trkpt>
      <trkpt lat="45.89739" lon="6.33723">
        <ele>768</ele>
        <time>2026-08-19T12:21:18.344Z</time>
      </trkpt>
      <trkpt lat="45.89739" lon="6.33724">
        <ele>768</ele>
        <time>2026-08-19T12:21:19.344Z</time>
      </trkpt>
      <trkpt lat="45.89739" lon="6.33725">
        <ele>768</ele>
        <time>2026-08-19T12:21:20.344Z</time>
      </trkpt>
      <trkpt lat="45.89739" lon="6.33727">
        <ele>768</ele>
        <time>2026-08-19T12:21:21.344Z</time>
      </trkpt>
      <trkpt lat="45.89738" lon="6.33728">
        <ele>767</ele>
        <time>2026-08-19T12:21:22.344Z</time>
      </trkpt>
      <trkpt lat="45.89738" lon="6.3373">
        <ele>767</ele>
        <time>2026-08-19T12:21:23.344Z</time>
      </trkpt>
      <trkpt lat="45.89739" lon="6.33733">
        <ele>767</ele>
        <time>2026-08-19T12:21:24.344Z</time>
      </trkpt>
      <trkpt lat="45.89739" lon="6.33735">
        <ele>767</ele>
        <time>2026-08-19T12:21:25.344Z</time>
      </trkpt>
      <trkpt lat="45.8974" lon="6.33737">
        <ele>766</ele>
        <time>2026-08-19T12:21:26.344Z</time>
      </trkpt>
      <trkpt lat="45.8974" lon="6.33739">
        <ele>766</ele>
        <time>2026-08-19T12:21:27.344Z</time>
      </trkpt>
      <trkpt lat="45.8974" lon="6.33742">
        <ele>765</ele>
        <time>2026-08-19T12:21:28.344Z</time>
      </trkpt>
      <trkpt lat="45.89741" lon="6.33745">
        <ele>764</ele>
        <time>2026-08-19T12:21:29.344Z</time>
      </trkpt>
      <trkpt lat="45.89741" lon="6.33747">
        <ele>764</ele>
        <time>2026-08-19T12:21:30.344Z</time>
      </trkpt>
      <trkpt lat="45.89741" lon="6.33749">
        <ele>764</ele>
        <time>2026-08-19T12:21:31.345Z</time>
      </trkpt>
      <trkpt lat="45.89742" lon="6.33751">
        <ele>763</ele>
        <time>2026-08-19T12:21:32.344Z</time>
      </trkpt>
      <trkpt lat="45.89742" lon="6.33755">
        <ele>762</ele>
        <time>2026-08-19T12:21:33.344Z</time>
      </trkpt>
      <trkpt lat="45.89742" lon="6.33757">
        <ele>762</ele>
        <time>2026-08-19T12:21:34.344Z</time>
      </trkpt>
      <trkpt lat="45.89743" lon="6.33759">
        <ele>761</ele>
        <time>2026-08-19T12:21:35.344Z</time>
      </trkpt>
      <trkpt lat="45.89744" lon="6.33761">
        <ele>761</ele>
        <time>2026-08-19T12:21:36.344Z</time>
      </trkpt>
      <trkpt lat="45.89744" lon="6.33762">
        <ele>760</ele>
        <time>2026-08-19T12:21:37.344Z</time>
      </trkpt>
      <trkpt lat="45.89744" lon="6.33764">
        <ele>760</ele>
        <time>2026-08-19T12:21:38.344Z</time>
      </trkpt>
      <trkpt lat="45.89745" lon="6.33765">
        <ele>759</ele>
        <time>2026-08-19T12:21:39.344Z</time>
      </trkpt>
      <trkpt lat="45.89745" lon="6.33767">
        <ele>758</ele>
        <time>2026-08-19T12:21:40.344Z</time>
      </trkpt>
      <trkpt lat="45.89745" lon="6.33768">
        <ele>758</ele>
        <time>2026-08-19T12:21:41.344Z</time>
      </trkpt>
      <trkpt lat="45.89745" lon="6.3377">
        <ele>757</ele>
        <time>2026-08-19T12:21:42.344Z</time>
      </trkpt>
      <trkpt lat="45.89745" lon="6.33772">
        <ele>757</ele>
        <time>2026-08-19T12:21:43.344Z</time>
      </trkpt>
      <trkpt lat="45.89745" lon="6.33774">
        <ele>756</ele>
        <time>2026-08-19T12:21:44.344Z</time>
      </trkpt>
      <trkpt lat="45.89745" lon="6.33777">
        <ele>756</ele>
        <time>2026-08-19T12:21:45.344Z</time>
      </trkpt>
      <trkpt lat="45.89745" lon="6.3378">
        <ele>755</ele>
        <time>2026-08-19T12:21:46.344Z</time>
      </trkpt>
      <trkpt lat="45.89746" lon="6.33782">
        <ele>755</ele>
        <time>2026-08-19T12:21:47.344Z</time>
      </trkpt>
      <trkpt lat="45.89746" lon="6.33784">
        <ele>755</ele>
        <time>2026-08-19T12:21:48.344Z</time>
      </trkpt>
      <trkpt lat="45.89746" lon="6.33786">
        <ele>755</ele>
        <time>2026-08-19T12:21:49.344Z</time>
      </trkpt>
      <trkpt lat="45.89746" lon="6.33788">
        <ele>755</ele>
        <time>2026-08-19T12:21:50.344Z</time>
      </trkpt>
      <trkpt lat="45.89746" lon="6.33791">
        <ele>754</ele>
        <time>2026-08-19T12:21:51.344Z</time>
      </trkpt>
      <trkpt lat="45.89747" lon="6.33793">
        <ele>754</ele>
        <time>2026-08-19T12:21:52.344Z</time>
      </trkpt>
      <trkpt lat="45.89747" lon="6.33796">
        <ele>753</ele>
        <time>2026-08-19T12:21:53.344Z</time>
      </trkpt>
      <trkpt lat="45.89748" lon="6.33799">
        <ele>752</ele>
        <time>2026-08-19T12:21:54.344Z</time>
      </trkpt>
      <trkpt lat="45.89749" lon="6.33801">
        <ele>751</ele>
        <time>2026-08-19T12:21:55.344Z</time>
      </trkpt>
      <trkpt lat="45.8975" lon="6.33804">
        <ele>750</ele>
        <time>2026-08-19T12:21:56.344Z</time>
      </trkpt>
      <trkpt lat="45.89751" lon="6.33807">
        <ele>749</ele>
        <time>2026-08-19T12:21:57.345Z</time>
      </trkpt>
      <trkpt lat="45.89752" lon="6.3381">
        <ele>749</ele>
        <time>2026-08-19T12:21:58.344Z</time>
      </trkpt>
      <trkpt lat="45.89752" lon="6.33812">
        <ele>748</ele>
        <time>2026-08-19T12:21:59.344Z</time>
      </trkpt>
      <trkpt lat="45.89753" lon="6.33814">
        <ele>747</ele>
        <time>2026-08-19T12:22:00.344Z</time>
      </trkpt>
      <trkpt lat="45.89754" lon="6.33816">
        <ele>747</ele>
        <time>2026-08-19T12:22:01.344Z</time>
      </trkpt>
      <trkpt lat="45.89754" lon="6.33818">
        <ele>746</ele>
        <time>2026-08-19T12:22:02.344Z</time>
      </trkpt>
      <trkpt lat="45.89754" lon="6.3382">
        <ele>746</ele>
        <time>2026-08-19T12:22:03.344Z</time>
      </trkpt>
      <trkpt lat="45.89755" lon="6.33822">
        <ele>745</ele>
        <time>2026-08-19T12:22:04.344Z</time>
      </trkpt>
      <trkpt lat="45.89755" lon="6.33824">
        <ele>745</ele>
        <time>2026-08-19T12:22:05.344Z</time>
      </trkpt>
      <trkpt lat="45.89756" lon="6.33826">
        <ele>744</ele>
        <time>2026-08-19T12:22:06.344Z</time>
      </trkpt>
      <trkpt lat="45.89756" lon="6.33828">
        <ele>743</ele>
        <time>2026-08-19T12:22:07.344Z</time>
      </trkpt>
      <trkpt lat="45.89757" lon="6.33831">
        <ele>742</ele>
        <time>2026-08-19T12:22:08.344Z</time>
      </trkpt>
      <trkpt lat="45.89758" lon="6.33833">
        <ele>742</ele>
        <time>2026-08-19T12:22:09.344Z</time>
      </trkpt>
      <trkpt lat="45.89759" lon="6.33835">
        <ele>741</ele>
        <time>2026-08-19T12:22:10.344Z</time>
      </trkpt>
      <trkpt lat="45.8976" lon="6.33836">
        <ele>741</ele>
        <time>2026-08-19T12:22:11.344Z</time>
      </trkpt>
      <trkpt lat="45.8976" lon="6.33838">
        <ele>741</ele>
        <time>2026-08-19T12:22:12.344Z</time>
      </trkpt>
      <trkpt lat="45.89761" lon="6.3384">
        <ele>740</ele>
        <time>2026-08-19T12:22:13.344Z</time>
      </trkpt>
      <trkpt lat="45.89762" lon="6.33842">
        <ele>740</ele>
        <time>2026-08-19T12:22:14.344Z</time>
      </trkpt>
      <trkpt lat="45.89762" lon="6.33845">
        <ele>740</ele>
        <time>2026-08-19T12:22:15.344Z</time>
      </trkpt>
      <trkpt lat="45.89763" lon="6.33847">
        <ele>740</ele>
        <time>2026-08-19T12:22:16.345Z</time>
      </trkpt>
      <trkpt lat="45.89764" lon="6.33848">
        <ele>740</ele>
        <time>2026-08-19T12:22:17.344Z</time>
      </trkpt>
      <trkpt lat="45.89765" lon="6.33851">
        <ele>739</ele>
        <time>2026-08-19T12:22:18.345Z</time>
      </trkpt>
      <trkpt lat="45.89766" lon="6.33853">
        <ele>739</ele>
        <time>2026-08-19T12:22:19.344Z</time>
      </trkpt>
      <trkpt lat="45.89766" lon="6.33855">
        <ele>739</ele>
        <time>2026-08-19T12:22:20.344Z</time>
      </trkpt>
      <trkpt lat="45.89767" lon="6.33857">
        <ele>738</ele>
        <time>2026-08-19T12:22:21.344Z</time>
      </trkpt>
      <trkpt lat="45.89768" lon="6.33858">
        <ele>738</ele>
        <time>2026-08-19T12:22:22.344Z</time>
      </trkpt>
      <trkpt lat="45.89769" lon="6.33861">
        <ele>738</ele>
        <time>2026-08-19T12:22:23.344Z</time>
      </trkpt>
      <trkpt lat="45.8977" lon="6.33863">
        <ele>737</ele>
        <time>2026-08-19T12:22:24.344Z</time>
      </trkpt>
      <trkpt lat="45.89771" lon="6.33865">
        <ele>737</ele>
        <time>2026-08-19T12:22:25.344Z</time>
      </trkpt>
      <trkpt lat="45.89772" lon="6.33867">
        <ele>737</ele>
        <time>2026-08-19T12:22:26.344Z</time>
      </trkpt>
      <trkpt lat="45.89773" lon="6.33869">
        <ele>736</ele>
        <time>2026-08-19T12:22:27.344Z</time>
      </trkpt>
      <trkpt lat="45.89773" lon="6.33872">
        <ele>736</ele>
        <time>2026-08-19T12:22:28.344Z</time>
      </trkpt>
      <trkpt lat="45.89774" lon="6.33874">
        <ele>735</ele>
        <time>2026-08-19T12:22:29.344Z</time>
      </trkpt>
      <trkpt lat="45.89775" lon="6.33876">
        <ele>735</ele>
        <time>2026-08-19T12:22:30.344Z</time>
      </trkpt>
      <trkpt lat="45.89776" lon="6.33878">
        <ele>736</ele>
        <time>2026-08-19T12:22:31.344Z</time>
      </trkpt>
      <trkpt lat="45.89777" lon="6.3388">
        <ele>736</ele>
        <time>2026-08-19T12:22:32.344Z</time>
      </trkpt>
      <trkpt lat="45.89777" lon="6.33882">
        <ele>736</ele>
        <time>2026-08-19T12:22:33.344Z</time>
      </trkpt>
      <trkpt lat="45.89778" lon="6.33883">
        <ele>736</ele>
        <time>2026-08-19T12:22:34.344Z</time>
      </trkpt>
      <trkpt lat="45.89779" lon="6.33885">
        <ele>735</ele>
        <time>2026-08-19T12:22:35.344Z</time>
      </trkpt>
      <trkpt lat="45.8978" lon="6.33887">
        <ele>735</ele>
        <time>2026-08-19T12:22:36.344Z</time>
      </trkpt>
      <trkpt lat="45.8978" lon="6.33888">
        <ele>735</ele>
        <time>2026-08-19T12:22:37.344Z</time>
      </trkpt>
      <trkpt lat="45.8978" lon="6.33891">
        <ele>734</ele>
        <time>2026-08-19T12:22:38.344Z</time>
      </trkpt>
      <trkpt lat="45.8978" lon="6.33893">
        <ele>734</ele>
        <time>2026-08-19T12:22:39.344Z</time>
      </trkpt>
      <trkpt lat="45.89781" lon="6.33894">
        <ele>734</ele>
        <time>2026-08-19T12:22:40.344Z</time>
      </trkpt>
      <trkpt lat="45.89781" lon="6.33896">
        <ele>734</ele>
        <time>2026-08-19T12:22:41.344Z</time>
      </trkpt>
      <trkpt lat="45.89782" lon="6.33898">
        <ele>733</ele>
        <time>2026-08-19T12:22:42.344Z</time>
      </trkpt>
      <trkpt lat="45.89782" lon="6.339">
        <ele>733</ele>
        <time>2026-08-19T12:22:43.344Z</time>
      </trkpt>
      <trkpt lat="45.89783" lon="6.33902">
        <ele>733</ele>
        <time>2026-08-19T12:22:44.344Z</time>
      </trkpt>
      <trkpt lat="45.89784" lon="6.33904">
        <ele>733</ele>
        <time>2026-08-19T12:22:45.344Z</time>
      </trkpt>
      <trkpt lat="45.89785" lon="6.33906">
        <ele>733</ele>
        <time>2026-08-19T12:22:46.344Z</time>
      </trkpt>
      <trkpt lat="45.89786" lon="6.33907">
        <ele>733</ele>
        <time>2026-08-19T12:22:47.344Z</time>
      </trkpt>
      <trkpt lat="45.89787" lon="6.33908">
        <ele>733</ele>
        <time>2026-08-19T12:22:48.344Z</time>
      </trkpt>
      <trkpt lat="45.89788" lon="6.3391">
        <ele>732</ele>
        <time>2026-08-19T12:22:49.344Z</time>
      </trkpt>
      <trkpt lat="45.89789" lon="6.33911">
        <ele>732</ele>
        <time>2026-08-19T12:22:50.344Z</time>
      </trkpt>
      <trkpt lat="45.8979" lon="6.33913">
        <ele>732</ele>
        <time>2026-08-19T12:22:51.344Z</time>
      </trkpt>
      <trkpt lat="45.89791" lon="6.33915">
        <ele>732</ele>
        <time>2026-08-19T12:22:52.344Z</time>
      </trkpt>
      <trkpt lat="45.89792" lon="6.33917">
        <ele>732</ele>
        <time>2026-08-19T12:22:53.344Z</time>
      </trkpt>
      <trkpt lat="45.89793" lon="6.33919">
        <ele>732</ele>
        <time>2026-08-19T12:22:54.344Z</time>
      </trkpt>
      <trkpt lat="45.89795" lon="6.33922">
        <ele>731</ele>
        <time>2026-08-19T12:22:55.344Z</time>
      </trkpt>
      <trkpt lat="45.89796" lon="6.33924">
        <ele>731</ele>
        <time>2026-08-19T12:22:56.344Z</time>
      </trkpt>
      <trkpt lat="45.89797" lon="6.33926">
        <ele>730</ele>
        <time>2026-08-19T12:22:57.344Z</time>
      </trkpt>
      <trkpt lat="45.89798" lon="6.33927">
        <ele>730</ele>
        <time>2026-08-19T12:22:58.344Z</time>
      </trkpt>
      <trkpt lat="45.89798" lon="6.33929">
        <ele>729</ele>
        <time>2026-08-19T12:22:59.344Z</time>
      </trkpt>
      <trkpt lat="45.89799" lon="6.33931">
        <ele>729</ele>
        <time>2026-08-19T12:23:00.344Z</time>
      </trkpt>
      <trkpt lat="45.898" lon="6.33933">
        <ele>728</ele>
        <time>2026-08-19T12:23:01.344Z</time>
      </trkpt>
      <trkpt lat="45.898" lon="6.33935">
        <ele>728</ele>
        <time>2026-08-19T12:23:02.344Z</time>
      </trkpt>
      <trkpt lat="45.89801" lon="6.33937">
        <ele>728</ele>
        <time>2026-08-19T12:23:03.344Z</time>
      </trkpt>
      <trkpt lat="45.89801" lon="6.3394">
        <ele>728</ele>
        <time>2026-08-19T12:23:04.344Z</time>
      </trkpt>
      <trkpt lat="45.89802" lon="6.33943">
        <ele>728</ele>
        <time>2026-08-19T12:23:05.345Z</time>
      </trkpt>
      <trkpt lat="45.89803" lon="6.33946">
        <ele>728</ele>
        <time>2026-08-19T12:23:06.344Z</time>
      </trkpt>
      <trkpt lat="45.89804" lon="6.33949">
        <ele>727</ele>
        <time>2026-08-19T12:23:07.344Z</time>
      </trkpt>
      <trkpt lat="45.89806" lon="6.33953">
        <ele>727</ele>
        <time>2026-08-19T12:23:08.344Z</time>
      </trkpt>
      <trkpt lat="45.89807" lon="6.33955">
        <ele>727</ele>
        <time>2026-08-19T12:23:09.344Z</time>
      </trkpt>
      <trkpt lat="45.89808" lon="6.33958">
        <ele>727</ele>
        <time>2026-08-19T12:23:10.344Z</time>
      </trkpt>
      <trkpt lat="45.89809" lon="6.3396">
        <ele>727</ele>
        <time>2026-08-19T12:23:11.344Z</time>
      </trkpt>
      <trkpt lat="45.8981" lon="6.33962">
        <ele>726</ele>
        <time>2026-08-19T12:23:12.344Z</time>
      </trkpt>
      <trkpt lat="45.89811" lon="6.33965">
        <ele>726</ele>
        <time>2026-08-19T12:23:13.344Z</time>
      </trkpt>
      <trkpt lat="45.89812" lon="6.33967">
        <ele>726</ele>
        <time>2026-08-19T12:23:14.344Z</time>
      </trkpt>
      <trkpt lat="45.89814" lon="6.33969">
        <ele>726</ele>
        <time>2026-08-19T12:23:15.344Z</time>
      </trkpt>
      <trkpt lat="45.89815" lon="6.33972">
        <ele>726</ele>
        <time>2026-08-19T12:23:16.344Z</time>
      </trkpt>
      <trkpt lat="45.89816" lon="6.33974">
        <ele>726</ele>
        <time>2026-08-19T12:23:17.344Z</time>
      </trkpt>
      <trkpt lat="45.89817" lon="6.33976">
        <ele>725</ele>
        <time>2026-08-19T12:23:18.344Z</time>
      </trkpt>
      <trkpt lat="45.89818" lon="6.33979">
        <ele>725</ele>
        <time>2026-08-19T12:23:19.344Z</time>
      </trkpt>
      <trkpt lat="45.89819" lon="6.33981">
        <ele>725</ele>
        <time>2026-08-19T12:23:20.344Z</time>
      </trkpt>
      <trkpt lat="45.8982" lon="6.33983">
        <ele>725</ele>
        <time>2026-08-19T12:23:21.344Z</time>
      </trkpt>
      <trkpt lat="45.8982" lon="6.33985">
        <ele>725</ele>
        <time>2026-08-19T12:23:22.344Z</time>
      </trkpt>
      <trkpt lat="45.89821" lon="6.33988">
        <ele>725</ele>
        <time>2026-08-19T12:23:23.344Z</time>
      </trkpt>
      <trkpt lat="45.89822" lon="6.3399">
        <ele>724</ele>
        <time>2026-08-19T12:23:24.344Z</time>
      </trkpt>
      <trkpt lat="45.89822" lon="6.33993">
        <ele>724</ele>
        <time>2026-08-19T12:23:25.344Z</time>
      </trkpt>
      <trkpt lat="45.89823" lon="6.33996">
        <ele>724</ele>
        <time>2026-08-19T12:23:26.344Z</time>
      </trkpt>
      <trkpt lat="45.89824" lon="6.33998">
        <ele>724</ele>
        <time>2026-08-19T12:23:27.344Z</time>
      </trkpt>
      <trkpt lat="45.89825" lon="6.34">
        <ele>725</ele>
        <time>2026-08-19T12:23:28.344Z</time>
      </trkpt>
      <trkpt lat="45.89826" lon="6.34002">
        <ele>725</ele>
        <time>2026-08-19T12:23:29.344Z</time>
      </trkpt>
      <trkpt lat="45.89827" lon="6.34005">
        <ele>724</ele>
        <time>2026-08-19T12:23:30.344Z</time>
      </trkpt>
      <trkpt lat="45.89828" lon="6.34008">
        <ele>724</ele>
        <time>2026-08-19T12:23:31.344Z</time>
      </trkpt>
      <trkpt lat="45.8983" lon="6.34011">
        <ele>724</ele>
        <time>2026-08-19T12:23:32.344Z</time>
      </trkpt>
      <trkpt lat="45.89831" lon="6.34014">
        <ele>724</ele>
        <time>2026-08-19T12:23:33.344Z</time>
      </trkpt>
      <trkpt lat="45.89832" lon="6.34017">
        <ele>724</ele>
        <time>2026-08-19T12:23:34.344Z</time>
      </trkpt>
      <trkpt lat="45.89833" lon="6.3402">
        <ele>723</ele>
        <time>2026-08-19T12:23:35.344Z</time>
      </trkpt>
      <trkpt lat="45.89834" lon="6.34022">
        <ele>723</ele>
        <time>2026-08-19T12:23:36.344Z</time>
      </trkpt>
      <trkpt lat="45.89836" lon="6.34025">
        <ele>723</ele>
        <time>2026-08-19T12:23:37.344Z</time>
      </trkpt>
      <trkpt lat="45.89837" lon="6.34028">
        <ele>722</ele>
        <time>2026-08-19T12:23:38.344Z</time>
      </trkpt>
      <trkpt lat="45.89838" lon="6.3403">
        <ele>722</ele>
        <time>2026-08-19T12:23:39.344Z</time>
      </trkpt>
      <trkpt lat="45.8984" lon="6.34033">
        <ele>722</ele>
        <time>2026-08-19T12:23:40.344Z</time>
      </trkpt>
      <trkpt lat="45.89841" lon="6.34035">
        <ele>722</ele>
        <time>2026-08-19T12:23:41.344Z</time>
      </trkpt>
      <trkpt lat="45.89843" lon="6.34038">
        <ele>721</ele>
        <time>2026-08-19T12:23:42.344Z</time>
      </trkpt>
      <trkpt lat="45.89844" lon="6.34042">
        <ele>721</ele>
        <time>2026-08-19T12:23:43.344Z</time>
      </trkpt>
      <trkpt lat="45.89845" lon="6.34044">
        <ele>720</ele>
        <time>2026-08-19T12:23:44.344Z</time>
      </trkpt>
      <trkpt lat="45.89847" lon="6.34047">
        <ele>720</ele>
        <time>2026-08-19T12:23:45.344Z</time>
      </trkpt>
      <trkpt lat="45.89849" lon="6.3405">
        <ele>719</ele>
        <time>2026-08-19T12:23:46.344Z</time>
      </trkpt>
      <trkpt lat="45.8985" lon="6.34053">
        <ele>719</ele>
        <time>2026-08-19T12:23:47.344Z</time>
      </trkpt>
      <trkpt lat="45.89852" lon="6.34056">
        <ele>718</ele>
        <time>2026-08-19T12:23:48.344Z</time>
      </trkpt>
      <trkpt lat="45.89853" lon="6.34058">
        <ele>718</ele>
        <time>2026-08-19T12:23:49.344Z</time>
      </trkpt>
      <trkpt lat="45.89855" lon="6.34061">
        <ele>718</ele>
        <time>2026-08-19T12:23:50.344Z</time>
      </trkpt>
      <trkpt lat="45.89856" lon="6.34064">
        <ele>718</ele>
        <time>2026-08-19T12:23:51.344Z</time>
      </trkpt>
      <trkpt lat="45.89858" lon="6.34067">
        <ele>718</ele>
        <time>2026-08-19T12:23:52.344Z</time>
      </trkpt>
      <trkpt lat="45.89859" lon="6.3407">
        <ele>717</ele>
        <time>2026-08-19T12:23:53.344Z</time>
      </trkpt>
      <trkpt lat="45.8986" lon="6.34073">
        <ele>717</ele>
        <time>2026-08-19T12:23:54.344Z</time>
      </trkpt>
      <trkpt lat="45.89862" lon="6.34075">
        <ele>717</ele>
        <time>2026-08-19T12:23:55.344Z</time>
      </trkpt>
      <trkpt lat="45.89863" lon="6.34078">
        <ele>716</ele>
        <time>2026-08-19T12:23:56.344Z</time>
      </trkpt>
      <trkpt lat="45.89864" lon="6.3408">
        <ele>716</ele>
        <time>2026-08-19T12:23:57.344Z</time>
      </trkpt>
      <trkpt lat="45.89864" lon="6.34081">
        <ele>717</ele>
        <time>2026-08-19T12:23:58.344Z</time>
      </trkpt>
      <trkpt lat="45.89865" lon="6.34083">
        <ele>716</ele>
        <time>2026-08-19T12:23:59.344Z</time>
      </trkpt>
      <trkpt lat="45.89865" lon="6.34083">
        <ele>716</ele>
        <time>2026-08-19T12:24:00.344Z</time>
      </trkpt>
      <trkpt lat="45.89865" lon="6.34084">
        <ele>716</ele>
        <time>2026-08-19T12:24:01.344Z</time>
      </trkpt>
      <trkpt lat="45.89865" lon="6.34084">
        <ele>716</ele>
        <time>2026-08-19T12:24:02.344Z</time>
      </trkpt>
      <trkpt lat="45.89865" lon="6.34085">
        <ele>717</ele>
        <time>2026-08-19T12:24:03.344Z</time>
      </trkpt>
      <trkpt lat="45.89865" lon="6.34085">
        <ele>717</ele>
        <time>2026-08-19T12:24:04.344Z</time>
      </trkpt>
      <trkpt lat="45.89865" lon="6.34085">
        <ele>717</ele>
        <time>2026-08-19T12:24:05.344Z</time>
      </trkpt>
      <trkpt lat="45.89864" lon="6.34085">
        <ele>717</ele>
        <time>2026-08-19T12:24:06.344Z</time>
      </trkpt>
      <trkpt lat="45.89865" lon="6.34085">
        <ele>717</ele>
        <time>2026-08-19T12:24:07.344Z</time>
      </trkpt>
      <trkpt lat="45.89865" lon="6.34086">
        <ele>717</ele>
        <time>2026-08-19T12:24:08.344Z</time>
      </trkpt>
      <trkpt lat="45.89865" lon="6.34087">
        <ele>717</ele>
        <time>2026-08-19T12:24:09.344Z</time>
      </trkpt>
      <trkpt lat="45.89865" lon="6.34089">
        <ele>718</ele>
        <time>2026-08-19T12:24:10.344Z</time>
      </trkpt>
      <trkpt lat="45.89866" lon="6.34091">
        <ele>718</ele>
        <time>2026-08-19T12:24:11.344Z</time>
      </trkpt>
      <trkpt lat="45.89867" lon="6.34093">
        <ele>717</ele>
        <time>2026-08-19T12:24:12.344Z</time>
      </trkpt>
      <trkpt lat="45.89868" lon="6.34094">
        <ele>717</ele>
        <time>2026-08-19T12:24:13.344Z</time>
      </trkpt>
      <trkpt lat="45.89869" lon="6.34097">
        <ele>716</ele>
        <time>2026-08-19T12:24:14.344Z</time>
      </trkpt>
      <trkpt lat="45.8987" lon="6.341">
        <ele>716</ele>
        <time>2026-08-19T12:24:15.344Z</time>
      </trkpt>
      <trkpt lat="45.8987" lon="6.34102">
        <ele>716</ele>
        <time>2026-08-19T12:24:16.344Z</time>
      </trkpt>
      <trkpt lat="45.89871" lon="6.34104">
        <ele>716</ele>
        <time>2026-08-19T12:24:17.344Z</time>
      </trkpt>
      <trkpt lat="45.89872" lon="6.34105">
        <ele>716</ele>
        <time>2026-08-19T12:24:18.344Z</time>
      </trkpt>
      <trkpt lat="45.89873" lon="6.34108">
        <ele>716</ele>
        <time>2026-08-19T12:24:19.344Z</time>
      </trkpt>
      <trkpt lat="45.89874" lon="6.3411">
        <ele>716</ele>
        <time>2026-08-19T12:24:20.344Z</time>
      </trkpt>
      <trkpt lat="45.89875" lon="6.34113">
        <ele>716</ele>
        <time>2026-08-19T12:24:21.344Z</time>
      </trkpt>
      <trkpt lat="45.89876" lon="6.34116">
        <ele>715</ele>
        <time>2026-08-19T12:24:22.344Z</time>
      </trkpt>
      <trkpt lat="45.89878" lon="6.34119">
        <ele>715</ele>
        <time>2026-08-19T12:24:23.344Z</time>
      </trkpt>
      <trkpt lat="45.89879" lon="6.34122">
        <ele>715</ele>
        <time>2026-08-19T12:24:24.344Z</time>
      </trkpt>
      <trkpt lat="45.8988" lon="6.34124">
        <ele>715</ele>
        <time>2026-08-19T12:24:25.344Z</time>
      </trkpt>
      <trkpt lat="45.89881" lon="6.34126">
        <ele>714</ele>
        <time>2026-08-19T12:24:26.344Z</time>
      </trkpt>
      <trkpt lat="45.89881" lon="6.34128">
        <ele>714</ele>
        <time>2026-08-19T12:24:27.344Z</time>
      </trkpt>
      <trkpt lat="45.89882" lon="6.34131">
        <ele>714</ele>
        <time>2026-08-19T12:24:28.344Z</time>
      </trkpt>
      <trkpt lat="45.89883" lon="6.34133">
        <ele>714</ele>
        <time>2026-08-19T12:24:29.344Z</time>
      </trkpt>
      <trkpt lat="45.89884" lon="6.34135">
        <ele>713</ele>
        <time>2026-08-19T12:24:30.344Z</time>
      </trkpt>
      <trkpt lat="45.89885" lon="6.34137">
        <ele>713</ele>
        <time>2026-08-19T12:24:31.345Z</time>
      </trkpt>
      <trkpt lat="45.89886" lon="6.34139">
        <ele>713</ele>
        <time>2026-08-19T12:24:32.344Z</time>
      </trkpt>
      <trkpt lat="45.89887" lon="6.34142">
        <ele>713</ele>
        <time>2026-08-19T12:24:33.344Z</time>
      </trkpt>
      <trkpt lat="45.89888" lon="6.34145">
        <ele>713</ele>
        <time>2026-08-19T12:24:34.344Z</time>
      </trkpt>
      <trkpt lat="45.89889" lon="6.34147">
        <ele>713</ele>
        <time>2026-08-19T12:24:35.344Z</time>
      </trkpt>
      <trkpt lat="45.8989" lon="6.3415">
        <ele>713</ele>
        <time>2026-08-19T12:24:36.344Z</time>
      </trkpt>
      <trkpt lat="45.89892" lon="6.34153">
        <ele>713</ele>
        <time>2026-08-19T12:24:37.344Z</time>
      </trkpt>
      <trkpt lat="45.89893" lon="6.34155">
        <ele>712</ele>
        <time>2026-08-19T12:24:38.344Z</time>
      </trkpt>
      <trkpt lat="45.89893" lon="6.34157">
        <ele>712</ele>
        <time>2026-08-19T12:24:39.344Z</time>
      </trkpt>
      <trkpt lat="45.89895" lon="6.3416">
        <ele>712</ele>
        <time>2026-08-19T12:24:40.344Z</time>
      </trkpt>
      <trkpt lat="45.89896" lon="6.34163">
        <ele>712</ele>
        <time>2026-08-19T12:24:41.344Z</time>
      </trkpt>
      <trkpt lat="45.89898" lon="6.34165">
        <ele>712</ele>
        <time>2026-08-19T12:24:42.344Z</time>
      </trkpt>
      <trkpt lat="45.89899" lon="6.34168">
        <ele>712</ele>
        <time>2026-08-19T12:24:43.344Z</time>
      </trkpt>
      <trkpt lat="45.89901" lon="6.3417">
        <ele>712</ele>
        <time>2026-08-19T12:24:44.344Z</time>
      </trkpt>
      <trkpt lat="45.89902" lon="6.34172">
        <ele>712</ele>
        <time>2026-08-19T12:24:45.344Z</time>
      </trkpt>
      <trkpt lat="45.89903" lon="6.34175">
        <ele>712</ele>
        <time>2026-08-19T12:24:46.344Z</time>
      </trkpt>
      <trkpt lat="45.89905" lon="6.34178">
        <ele>711</ele>
        <time>2026-08-19T12:24:47.344Z</time>
      </trkpt>
      <trkpt lat="45.89906" lon="6.3418">
        <ele>711</ele>
        <time>2026-08-19T12:24:48.344Z</time>
      </trkpt>
      <trkpt lat="45.89906" lon="6.34182">
        <ele>710</ele>
        <time>2026-08-19T12:24:49.345Z</time>
      </trkpt>
      <trkpt lat="45.89907" lon="6.34184">
        <ele>710</ele>
        <time>2026-08-19T12:24:50.344Z</time>
      </trkpt>
      <trkpt lat="45.89907" lon="6.34186">
        <ele>709</ele>
        <time>2026-08-19T12:24:51.344Z</time>
      </trkpt>
      <trkpt lat="45.89908" lon="6.34187">
        <ele>708</ele>
        <time>2026-08-19T12:24:52.344Z</time>
      </trkpt>
      <trkpt lat="45.89908" lon="6.34189">
        <ele>708</ele>
        <time>2026-08-19T12:24:53.344Z</time>
      </trkpt>
      <trkpt lat="45.89909" lon="6.3419">
        <ele>707</ele>
        <time>2026-08-19T12:24:54.344Z</time>
      </trkpt>
      <trkpt lat="45.8991" lon="6.34192">
        <ele>707</ele>
        <time>2026-08-19T12:24:55.344Z</time>
      </trkpt>
      <trkpt lat="45.8991" lon="6.34194">
        <ele>707</ele>
        <time>2026-08-19T12:24:56.344Z</time>
      </trkpt>
      <trkpt lat="45.89911" lon="6.34197">
        <ele>706</ele>
        <time>2026-08-19T12:24:57.344Z</time>
      </trkpt>
      <trkpt lat="45.89911" lon="6.342">
        <ele>705</ele>
        <time>2026-08-19T12:24:58.344Z</time>
      </trkpt>
      <trkpt lat="45.89911" lon="6.34201">
        <ele>705</ele>
        <time>2026-08-19T12:24:59.344Z</time>
      </trkpt>
      <trkpt lat="45.89912" lon="6.34203">
        <ele>704</ele>
        <time>2026-08-19T12:25:00.344Z</time>
      </trkpt>
      <trkpt lat="45.89912" lon="6.34205">
        <ele>704</ele>
        <time>2026-08-19T12:25:01.345Z</time>
      </trkpt>
      <trkpt lat="45.89912" lon="6.34207">
        <ele>704</ele>
        <time>2026-08-19T12:25:02.344Z</time>
      </trkpt>
      <trkpt lat="45.89913" lon="6.34209">
        <ele>703</ele>
        <time>2026-08-19T12:25:03.344Z</time>
      </trkpt>
      <trkpt lat="45.89913" lon="6.3421">
        <ele>703</ele>
        <time>2026-08-19T12:25:04.344Z</time>
      </trkpt>
      <trkpt lat="45.89913" lon="6.34213">
        <ele>702</ele>
        <time>2026-08-19T12:25:05.344Z</time>
      </trkpt>
      <trkpt lat="45.89913" lon="6.34215">
        <ele>702</ele>
        <time>2026-08-19T12:25:06.344Z</time>
      </trkpt>
      <trkpt lat="45.89913" lon="6.34217">
        <ele>702</ele>
        <time>2026-08-19T12:25:07.344Z</time>
      </trkpt>
      <trkpt lat="45.89913" lon="6.34219">
        <ele>701</ele>
        <time>2026-08-19T12:25:08.344Z</time>
      </trkpt>
      <trkpt lat="45.89913" lon="6.3422">
        <ele>701</ele>
        <time>2026-08-19T12:25:09.344Z</time>
      </trkpt>
      <trkpt lat="45.89913" lon="6.34222">
        <ele>701</ele>
        <time>2026-08-19T12:25:10.344Z</time>
      </trkpt>
      <trkpt lat="45.89914" lon="6.34224">
        <ele>701</ele>
        <time>2026-08-19T12:25:11.344Z</time>
      </trkpt>
      <trkpt lat="45.89914" lon="6.34225">
        <ele>701</ele>
        <time>2026-08-19T12:25:12.344Z</time>
      </trkpt>
      <trkpt lat="45.89915" lon="6.34228">
        <ele>701</ele>
        <time>2026-08-19T12:25:13.344Z</time>
      </trkpt>
      <trkpt lat="45.89915" lon="6.3423">
        <ele>700</ele>
        <time>2026-08-19T12:25:14.344Z</time>
      </trkpt>
      <trkpt lat="45.89915" lon="6.34232">
        <ele>699</ele>
        <time>2026-08-19T12:25:15.344Z</time>
      </trkpt>
      <trkpt lat="45.89915" lon="6.34236">
        <ele>698</ele>
        <time>2026-08-19T12:25:16.344Z</time>
      </trkpt>
      <trkpt lat="45.89916" lon="6.34239">
        <ele>698</ele>
        <time>2026-08-19T12:25:17.344Z</time>
      </trkpt>
      <trkpt lat="45.89916" lon="6.34243">
        <ele>697</ele>
        <time>2026-08-19T12:25:18.344Z</time>
      </trkpt>
      <trkpt lat="45.89917" lon="6.34247">
        <ele>697</ele>
        <time>2026-08-19T12:25:19.344Z</time>
      </trkpt>
      <trkpt lat="45.89917" lon="6.34251">
        <ele>697</ele>
        <time>2026-08-19T12:25:20.344Z</time>
      </trkpt>
      <trkpt lat="45.89917" lon="6.34255">
        <ele>696</ele>
        <time>2026-08-19T12:25:21.344Z</time>
      </trkpt>
      <trkpt lat="45.89916" lon="6.34258">
        <ele>696</ele>
        <time>2026-08-19T12:25:22.344Z</time>
      </trkpt>
      <trkpt lat="45.89916" lon="6.34261">
        <ele>695</ele>
        <time>2026-08-19T12:25:23.344Z</time>
      </trkpt>
      <trkpt lat="45.89916" lon="6.34264">
        <ele>695</ele>
        <time>2026-08-19T12:25:24.344Z</time>
      </trkpt>
      <trkpt lat="45.89916" lon="6.34268">
        <ele>694</ele>
        <time>2026-08-19T12:25:25.344Z</time>
      </trkpt>
      <trkpt lat="45.89916" lon="6.3427">
        <ele>694</ele>
        <time>2026-08-19T12:25:26.344Z</time>
      </trkpt>
      <trkpt lat="45.89915" lon="6.34273">
        <ele>694</ele>
        <time>2026-08-19T12:25:27.344Z</time>
      </trkpt>
      <trkpt lat="45.89915" lon="6.34276">
        <ele>693</ele>
        <time>2026-08-19T12:25:28.344Z</time>
      </trkpt>
      <trkpt lat="45.89915" lon="6.34279">
        <ele>693</ele>
        <time>2026-08-19T12:25:29.344Z</time>
      </trkpt>
      <trkpt lat="45.89914" lon="6.34281">
        <ele>693</ele>
        <time>2026-08-19T12:25:30.344Z</time>
      </trkpt>
      <trkpt lat="45.89914" lon="6.34283">
        <ele>692</ele>
        <time>2026-08-19T12:25:31.344Z</time>
      </trkpt>
      <trkpt lat="45.89913" lon="6.34286">
        <ele>692</ele>
        <time>2026-08-19T12:25:32.344Z</time>
      </trkpt>
      <trkpt lat="45.89913" lon="6.34288">
        <ele>692</ele>
        <time>2026-08-19T12:25:33.344Z</time>
      </trkpt>
      <trkpt lat="45.89912" lon="6.34291">
        <ele>691</ele>
        <time>2026-08-19T12:25:34.344Z</time>
      </trkpt>
      <trkpt lat="45.89911" lon="6.34295">
        <ele>691</ele>
        <time>2026-08-19T12:25:35.344Z</time>
      </trkpt>
      <trkpt lat="45.8991" lon="6.34297">
        <ele>690</ele>
        <time>2026-08-19T12:25:36.344Z</time>
      </trkpt>
      <trkpt lat="45.8991" lon="6.343">
        <ele>690</ele>
        <time>2026-08-19T12:25:37.344Z</time>
      </trkpt>
      <trkpt lat="45.89909" lon="6.34303">
        <ele>690</ele>
        <time>2026-08-19T12:25:38.344Z</time>
      </trkpt>
      <trkpt lat="45.89908" lon="6.34305">
        <ele>689</ele>
        <time>2026-08-19T12:25:39.344Z</time>
      </trkpt>
      <trkpt lat="45.89908" lon="6.34307">
        <ele>689</ele>
        <time>2026-08-19T12:25:40.344Z</time>
      </trkpt>
      <trkpt lat="45.89907" lon="6.34309">
        <ele>689</ele>
        <time>2026-08-19T12:25:41.344Z</time>
      </trkpt>
      <trkpt lat="45.89907" lon="6.34311">
        <ele>688</ele>
        <time>2026-08-19T12:25:42.344Z</time>
      </trkpt>
      <trkpt lat="45.89907" lon="6.34313">
        <ele>688</ele>
        <time>2026-08-19T12:25:43.344Z</time>
      </trkpt>
      <trkpt lat="45.89907" lon="6.34315">
        <ele>688</ele>
        <time>2026-08-19T12:25:44.344Z</time>
      </trkpt>
      <trkpt lat="45.89908" lon="6.34317">
        <ele>688</ele>
        <time>2026-08-19T12:25:45.344Z</time>
      </trkpt>
      <trkpt lat="45.89908" lon="6.34319">
        <ele>687</ele>
        <time>2026-08-19T12:25:46.344Z</time>
      </trkpt>
      <trkpt lat="45.89908" lon="6.3432">
        <ele>687</ele>
        <time>2026-08-19T12:25:47.344Z</time>
      </trkpt>
      <trkpt lat="45.89908" lon="6.34322">
        <ele>687</ele>
        <time>2026-08-19T12:25:48.344Z</time>
      </trkpt>
      <trkpt lat="45.89908" lon="6.34324">
        <ele>686</ele>
        <time>2026-08-19T12:25:49.345Z</time>
      </trkpt>
      <trkpt lat="45.89907" lon="6.34326">
        <ele>686</ele>
        <time>2026-08-19T12:25:50.344Z</time>
      </trkpt>
      <trkpt lat="45.89907" lon="6.34329">
        <ele>685</ele>
        <time>2026-08-19T12:25:51.344Z</time>
      </trkpt>
      <trkpt lat="45.89907" lon="6.3433">
        <ele>685</ele>
        <time>2026-08-19T12:25:52.344Z</time>
      </trkpt>
      <trkpt lat="45.89908" lon="6.34332">
        <ele>685</ele>
        <time>2026-08-19T12:25:53.344Z</time>
      </trkpt>
      <trkpt lat="45.89907" lon="6.34334">
        <ele>684</ele>
        <time>2026-08-19T12:25:54.344Z</time>
      </trkpt>
      <trkpt lat="45.89907" lon="6.34335">
        <ele>684</ele>
        <time>2026-08-19T12:25:55.344Z</time>
      </trkpt>
      <trkpt lat="45.89907" lon="6.34337">
        <ele>684</ele>
        <time>2026-08-19T12:25:56.344Z</time>
      </trkpt>
      <trkpt lat="45.89907" lon="6.34338">
        <ele>683</ele>
        <time>2026-08-19T12:25:57.344Z</time>
      </trkpt>
      <trkpt lat="45.89907" lon="6.34339">
        <ele>683</ele>
        <time>2026-08-19T12:25:58.344Z</time>
      </trkpt>
      <trkpt lat="45.89906" lon="6.3434">
        <ele>682</ele>
        <time>2026-08-19T12:25:59.344Z</time>
      </trkpt>
      <trkpt lat="45.89906" lon="6.34342">
        <ele>681</ele>
        <time>2026-08-19T12:26:00.344Z</time>
      </trkpt>
      <trkpt lat="45.89905" lon="6.34343">
        <ele>680</ele>
        <time>2026-08-19T12:26:01.345Z</time>
      </trkpt>
      <trkpt lat="45.89905" lon="6.34344">
        <ele>680</ele>
        <time>2026-08-19T12:26:02.344Z</time>
      </trkpt>
      <trkpt lat="45.89905" lon="6.34345">
        <ele>680</ele>
        <time>2026-08-19T12:26:03.344Z</time>
      </trkpt>
      <trkpt lat="45.89905" lon="6.34348">
        <ele>680</ele>
        <time>2026-08-19T12:26:04.344Z</time>
      </trkpt>
      <trkpt lat="45.89904" lon="6.3435">
        <ele>680</ele>
        <time>2026-08-19T12:26:05.344Z</time>
      </trkpt>
      <trkpt lat="45.89903" lon="6.34353">
        <ele>680</ele>
        <time>2026-08-19T12:26:06.344Z</time>
      </trkpt>
      <trkpt lat="45.89902" lon="6.34356">
        <ele>680</ele>
        <time>2026-08-19T12:26:07.344Z</time>
      </trkpt>
      <trkpt lat="45.89901" lon="6.3436">
        <ele>680</ele>
        <time>2026-08-19T12:26:08.344Z</time>
      </trkpt>
      <trkpt lat="45.89901" lon="6.34364">
        <ele>679</ele>
        <time>2026-08-19T12:26:09.344Z</time>
      </trkpt>
      <trkpt lat="45.899" lon="6.34367">
        <ele>679</ele>
        <time>2026-08-19T12:26:10.344Z</time>
      </trkpt>
      <trkpt lat="45.89901" lon="6.34372">
        <ele>678</ele>
        <time>2026-08-19T12:26:11.344Z</time>
      </trkpt>
      <trkpt lat="45.89901" lon="6.34375">
        <ele>677</ele>
        <time>2026-08-19T12:26:12.345Z</time>
      </trkpt>
      <trkpt lat="45.89901" lon="6.34379">
        <ele>677</ele>
        <time>2026-08-19T12:26:13.345Z</time>
      </trkpt>
      <trkpt lat="45.89901" lon="6.34383">
        <ele>676</ele>
        <time>2026-08-19T12:26:14.344Z</time>
      </trkpt>
      <trkpt lat="45.89901" lon="6.34387">
        <ele>676</ele>
        <time>2026-08-19T12:26:15.344Z</time>
      </trkpt>
      <trkpt lat="45.89901" lon="6.3439">
        <ele>676</ele>
        <time>2026-08-19T12:26:16.344Z</time>
      </trkpt>
      <trkpt lat="45.89902" lon="6.34394">
        <ele>675</ele>
        <time>2026-08-19T12:26:17.344Z</time>
      </trkpt>
      <trkpt lat="45.89902" lon="6.34397">
        <ele>675</ele>
        <time>2026-08-19T12:26:18.344Z</time>
      </trkpt>
      <trkpt lat="45.89903" lon="6.34401">
        <ele>675</ele>
        <time>2026-08-19T12:26:19.344Z</time>
      </trkpt>
      <trkpt lat="45.89903" lon="6.34405">
        <ele>675</ele>
        <time>2026-08-19T12:26:20.344Z</time>
      </trkpt>
      <trkpt lat="45.89902" lon="6.34409">
        <ele>675</ele>
        <time>2026-08-19T12:26:21.344Z</time>
      </trkpt>
      <trkpt lat="45.89901" lon="6.34412">
        <ele>675</ele>
        <time>2026-08-19T12:26:22.344Z</time>
      </trkpt>
      <trkpt lat="45.899" lon="6.34415">
        <ele>675</ele>
        <time>2026-08-19T12:26:23.344Z</time>
      </trkpt>
      <trkpt lat="45.89899" lon="6.34418">
        <ele>674</ele>
        <time>2026-08-19T12:26:24.344Z</time>
      </trkpt>
      <trkpt lat="45.89897" lon="6.34421">
        <ele>674</ele>
        <time>2026-08-19T12:26:25.344Z</time>
      </trkpt>
      <trkpt lat="45.89896" lon="6.34424">
        <ele>673</ele>
        <time>2026-08-19T12:26:26.344Z</time>
      </trkpt>
      <trkpt lat="45.89894" lon="6.34427">
        <ele>673</ele>
        <time>2026-08-19T12:26:27.344Z</time>
      </trkpt>
      <trkpt lat="45.89892" lon="6.34429">
        <ele>672</ele>
        <time>2026-08-19T12:26:28.344Z</time>
      </trkpt>
      <trkpt lat="45.8989" lon="6.34432">
        <ele>671</ele>
        <time>2026-08-19T12:26:29.344Z</time>
      </trkpt>
      <trkpt lat="45.89888" lon="6.34434">
        <ele>671</ele>
        <time>2026-08-19T12:26:30.344Z</time>
      </trkpt>
      <trkpt lat="45.89886" lon="6.34435">
        <ele>670</ele>
        <time>2026-08-19T12:26:31.344Z</time>
      </trkpt>
      <trkpt lat="45.89884" lon="6.34437">
        <ele>670</ele>
        <time>2026-08-19T12:26:32.344Z</time>
      </trkpt>
      <trkpt lat="45.89881" lon="6.34439">
        <ele>670</ele>
        <time>2026-08-19T12:26:33.344Z</time>
      </trkpt>
      <trkpt lat="45.89879" lon="6.34441">
        <ele>670</ele>
        <time>2026-08-19T12:26:34.344Z</time>
      </trkpt>
      <trkpt lat="45.89878" lon="6.34443">
        <ele>670</ele>
        <time>2026-08-19T12:26:35.344Z</time>
      </trkpt>
      <trkpt lat="45.89877" lon="6.34445">
        <ele>670</ele>
        <time>2026-08-19T12:26:36.344Z</time>
      </trkpt>
      <trkpt lat="45.89875" lon="6.34447">
        <ele>670</ele>
        <time>2026-08-19T12:26:37.344Z</time>
      </trkpt>
      <trkpt lat="45.89875" lon="6.34449">
        <ele>669</ele>
        <time>2026-08-19T12:26:38.344Z</time>
      </trkpt>
      <trkpt lat="45.89874" lon="6.34452">
        <ele>669</ele>
        <time>2026-08-19T12:26:39.344Z</time>
      </trkpt>
      <trkpt lat="45.89874" lon="6.34455">
        <ele>669</ele>
        <time>2026-08-19T12:26:40.344Z</time>
      </trkpt>
      <trkpt lat="45.89874" lon="6.34458">
        <ele>669</ele>
        <time>2026-08-19T12:26:41.344Z</time>
      </trkpt>
      <trkpt lat="45.89875" lon="6.34461">
        <ele>668</ele>
        <time>2026-08-19T12:26:42.344Z</time>
      </trkpt>
      <trkpt lat="45.89875" lon="6.34464">
        <ele>668</ele>
        <time>2026-08-19T12:26:43.344Z</time>
      </trkpt>
      <trkpt lat="45.89875" lon="6.34467">
        <ele>668</ele>
        <time>2026-08-19T12:26:44.344Z</time>
      </trkpt>
      <trkpt lat="45.89875" lon="6.3447">
        <ele>668</ele>
        <time>2026-08-19T12:26:45.344Z</time>
      </trkpt>
      <trkpt lat="45.89875" lon="6.34473">
        <ele>668</ele>
        <time>2026-08-19T12:26:46.344Z</time>
      </trkpt>
      <trkpt lat="45.89876" lon="6.34476">
        <ele>668</ele>
        <time>2026-08-19T12:26:47.344Z</time>
      </trkpt>
      <trkpt lat="45.89876" lon="6.34479">
        <ele>667</ele>
        <time>2026-08-19T12:26:48.344Z</time>
      </trkpt>
      <trkpt lat="45.89876" lon="6.34482">
        <ele>667</ele>
        <time>2026-08-19T12:26:49.344Z</time>
      </trkpt>
      <trkpt lat="45.89877" lon="6.34485">
        <ele>667</ele>
        <time>2026-08-19T12:26:50.345Z</time>
      </trkpt>
      <trkpt lat="45.89877" lon="6.34488">
        <ele>667</ele>
        <time>2026-08-19T12:26:51.344Z</time>
      </trkpt>
      <trkpt lat="45.89878" lon="6.34491">
        <ele>667</ele>
        <time>2026-08-19T12:26:52.344Z</time>
      </trkpt>
      <trkpt lat="45.89879" lon="6.34493">
        <ele>667</ele>
        <time>2026-08-19T12:26:53.344Z</time>
      </trkpt>
      <trkpt lat="45.8988" lon="6.34496">
        <ele>667</ele>
        <time>2026-08-19T12:26:54.344Z</time>
      </trkpt>
      <trkpt lat="45.8988" lon="6.34499">
        <ele>667</ele>
        <time>2026-08-19T12:26:55.344Z</time>
      </trkpt>
      <trkpt lat="45.8988" lon="6.34502">
        <ele>667</ele>
        <time>2026-08-19T12:26:56.344Z</time>
      </trkpt>
      <trkpt lat="45.89881" lon="6.34505">
        <ele>667</ele>
        <time>2026-08-19T12:26:57.344Z</time>
      </trkpt>
      <trkpt lat="45.89881" lon="6.34507">
        <ele>667</ele>
        <time>2026-08-19T12:26:58.344Z</time>
      </trkpt>
      <trkpt lat="45.89882" lon="6.3451">
        <ele>667</ele>
        <time>2026-08-19T12:26:59.344Z</time>
      </trkpt>
      <trkpt lat="45.89882" lon="6.34513">
        <ele>667</ele>
        <time>2026-08-19T12:27:00.345Z</time>
      </trkpt>
      <trkpt lat="45.89883" lon="6.34516">
        <ele>667</ele>
        <time>2026-08-19T12:27:01.344Z</time>
      </trkpt>
      <trkpt lat="45.89884" lon="6.34518">
        <ele>667</ele>
        <time>2026-08-19T12:27:02.344Z</time>
      </trkpt>
      <trkpt lat="45.89885" lon="6.34522">
        <ele>667</ele>
        <time>2026-08-19T12:27:03.344Z</time>
      </trkpt>
      <trkpt lat="45.89885" lon="6.34524">
        <ele>667</ele>
        <time>2026-08-19T12:27:04.344Z</time>
      </trkpt>
      <trkpt lat="45.89886" lon="6.34527">
        <ele>667</ele>
        <time>2026-08-19T12:27:05.345Z</time>
      </trkpt>
      <trkpt lat="45.89887" lon="6.3453">
        <ele>667</ele>
        <time>2026-08-19T12:27:06.344Z</time>
      </trkpt>
      <trkpt lat="45.89888" lon="6.34532">
        <ele>667</ele>
        <time>2026-08-19T12:27:07.345Z</time>
      </trkpt>
      <trkpt lat="45.89888" lon="6.34536">
        <ele>667</ele>
        <time>2026-08-19T12:27:08.344Z</time>
      </trkpt>
      <trkpt lat="45.89889" lon="6.34538">
        <ele>667</ele>
        <time>2026-08-19T12:27:09.344Z</time>
      </trkpt>
      <trkpt lat="45.89889" lon="6.34541">
        <ele>667</ele>
        <time>2026-08-19T12:27:10.344Z</time>
      </trkpt>
      <trkpt lat="45.89889" lon="6.34544">
        <ele>667</ele>
        <time>2026-08-19T12:27:11.344Z</time>
      </trkpt>
      <trkpt lat="45.89889" lon="6.34547">
        <ele>667</ele>
        <time>2026-08-19T12:27:12.344Z</time>
      </trkpt>
      <trkpt lat="45.89889" lon="6.3455">
        <ele>667</ele>
        <time>2026-08-19T12:27:13.344Z</time>
      </trkpt>
      <trkpt lat="45.89889" lon="6.34553">
        <ele>667</ele>
        <time>2026-08-19T12:27:14.344Z</time>
      </trkpt>
      <trkpt lat="45.89889" lon="6.34556">
        <ele>667</ele>
        <time>2026-08-19T12:27:15.344Z</time>
      </trkpt>
      <trkpt lat="45.89888" lon="6.34559">
        <ele>667</ele>
        <time>2026-08-19T12:27:16.344Z</time>
      </trkpt>
      <trkpt lat="45.89887" lon="6.34562">
        <ele>667</ele>
        <time>2026-08-19T12:27:17.344Z</time>
      </trkpt>
      <trkpt lat="45.89886" lon="6.34564">
        <ele>667</ele>
        <time>2026-08-19T12:27:18.344Z</time>
      </trkpt>
      <trkpt lat="45.89885" lon="6.34566">
        <ele>667</ele>
        <time>2026-08-19T12:27:19.345Z</time>
      </trkpt>
      <trkpt lat="45.89883" lon="6.3457">
        <ele>667</ele>
        <time>2026-08-19T12:27:20.344Z</time>
      </trkpt>
      <trkpt lat="45.89883" lon="6.34572">
        <ele>667</ele>
        <time>2026-08-19T12:27:21.344Z</time>
      </trkpt>
      <trkpt lat="45.89882" lon="6.34574">
        <ele>667</ele>
        <time>2026-08-19T12:27:22.344Z</time>
      </trkpt>
      <trkpt lat="45.89881" lon="6.34577">
        <ele>668</ele>
        <time>2026-08-19T12:27:23.344Z</time>
      </trkpt>
      <trkpt lat="45.8988" lon="6.34579">
        <ele>668</ele>
        <time>2026-08-19T12:27:24.344Z</time>
      </trkpt>
      <trkpt lat="45.89878" lon="6.34583">
        <ele>668</ele>
        <time>2026-08-19T12:27:25.344Z</time>
      </trkpt>
      <trkpt lat="45.89877" lon="6.34585">
        <ele>669</ele>
        <time>2026-08-19T12:27:26.344Z</time>
      </trkpt>
      <trkpt lat="45.89876" lon="6.34588">
        <ele>669</ele>
        <time>2026-08-19T12:27:27.344Z</time>
      </trkpt>
      <trkpt lat="45.89875" lon="6.3459">
        <ele>669</ele>
        <time>2026-08-19T12:27:28.344Z</time>
      </trkpt>
      <trkpt lat="45.89874" lon="6.34593">
        <ele>669</ele>
        <time>2026-08-19T12:27:29.345Z</time>
      </trkpt>
      <trkpt lat="45.89873" lon="6.34596">
        <ele>669</ele>
        <time>2026-08-19T12:27:30.344Z</time>
      </trkpt>
      <trkpt lat="45.89872" lon="6.34599">
        <ele>669</ele>
        <time>2026-08-19T12:27:31.345Z</time>
      </trkpt>
      <trkpt lat="45.8987" lon="6.34602">
        <ele>669</ele>
        <time>2026-08-19T12:27:32.344Z</time>
      </trkpt>
      <trkpt lat="45.89869" lon="6.34604">
        <ele>669</ele>
        <time>2026-08-19T12:27:33.344Z</time>
      </trkpt>
      <trkpt lat="45.89868" lon="6.34607">
        <ele>669</ele>
        <time>2026-08-19T12:27:34.344Z</time>
      </trkpt>
      <trkpt lat="45.89867" lon="6.34609">
        <ele>669</ele>
        <time>2026-08-19T12:27:35.344Z</time>
      </trkpt>
      <trkpt lat="45.89866" lon="6.34612">
        <ele>669</ele>
        <time>2026-08-19T12:27:36.344Z</time>
      </trkpt>
      <trkpt lat="45.89865" lon="6.34615">
        <ele>669</ele>
        <time>2026-08-19T12:27:37.344Z</time>
      </trkpt>
      <trkpt lat="45.89864" lon="6.34617">
        <ele>669</ele>
        <time>2026-08-19T12:27:38.344Z</time>
      </trkpt>
      <trkpt lat="45.89862" lon="6.3462">
        <ele>669</ele>
        <time>2026-08-19T12:27:39.344Z</time>
      </trkpt>
      <trkpt lat="45.89861" lon="6.34623">
        <ele>669</ele>
        <time>2026-08-19T12:27:40.344Z</time>
      </trkpt>
      <trkpt lat="45.8986" lon="6.34625">
        <ele>670</ele>
        <time>2026-08-19T12:27:41.344Z</time>
      </trkpt>
      <trkpt lat="45.89859" lon="6.34628">
        <ele>670</ele>
        <time>2026-08-19T12:27:42.344Z</time>
      </trkpt>
      <trkpt lat="45.89858" lon="6.3463">
        <ele>670</ele>
        <time>2026-08-19T12:27:43.344Z</time>
      </trkpt>
      <trkpt lat="45.89856" lon="6.34633">
        <ele>670</ele>
        <time>2026-08-19T12:27:44.344Z</time>
      </trkpt>
      <trkpt lat="45.89855" lon="6.34637">
        <ele>670</ele>
        <time>2026-08-19T12:27:45.344Z</time>
      </trkpt>
      <trkpt lat="45.89854" lon="6.34639">
        <ele>670</ele>
        <time>2026-08-19T12:27:46.344Z</time>
      </trkpt>
      <trkpt lat="45.89853" lon="6.34642">
        <ele>670</ele>
        <time>2026-08-19T12:27:47.344Z</time>
      </trkpt>
      <trkpt lat="45.89852" lon="6.34644">
        <ele>669</ele>
        <time>2026-08-19T12:27:48.344Z</time>
      </trkpt>
      <trkpt lat="45.89852" lon="6.34646">
        <ele>669</ele>
        <time>2026-08-19T12:27:49.344Z</time>
      </trkpt>
      <trkpt lat="45.89852" lon="6.34649">
        <ele>669</ele>
        <time>2026-08-19T12:27:50.344Z</time>
      </trkpt>
      <trkpt lat="45.89852" lon="6.34652">
        <ele>669</ele>
        <time>2026-08-19T12:27:51.344Z</time>
      </trkpt>
      <trkpt lat="45.89852" lon="6.34654">
        <ele>669</ele>
        <time>2026-08-19T12:27:52.344Z</time>
      </trkpt>
      <trkpt lat="45.89852" lon="6.34657">
        <ele>669</ele>
        <time>2026-08-19T12:27:53.344Z</time>
      </trkpt>
      <trkpt lat="45.89853" lon="6.3466">
        <ele>669</ele>
        <time>2026-08-19T12:27:54.344Z</time>
      </trkpt>
      <trkpt lat="45.89854" lon="6.34663">
        <ele>668</ele>
        <time>2026-08-19T12:27:55.344Z</time>
      </trkpt>
      <trkpt lat="45.89855" lon="6.34665">
        <ele>668</ele>
        <time>2026-08-19T12:27:56.345Z</time>
      </trkpt>
      <trkpt lat="45.89855" lon="6.34668">
        <ele>668</ele>
        <time>2026-08-19T12:27:57.344Z</time>
      </trkpt>
      <trkpt lat="45.89856" lon="6.3467">
        <ele>668</ele>
        <time>2026-08-19T12:27:58.344Z</time>
      </trkpt>
      <trkpt lat="45.89856" lon="6.34673">
        <ele>668</ele>
        <time>2026-08-19T12:27:59.344Z</time>
      </trkpt>
      <trkpt lat="45.89857" lon="6.34676">
        <ele>668</ele>
        <time>2026-08-19T12:28:00.344Z</time>
      </trkpt>
      <trkpt lat="45.89856" lon="6.34678">
        <ele>669</ele>
        <time>2026-08-19T12:28:01.344Z</time>
      </trkpt>
      <trkpt lat="45.89855" lon="6.3468">
        <ele>669</ele>
        <time>2026-08-19T12:28:02.344Z</time>
      </trkpt>
      <trkpt lat="45.89854" lon="6.34682">
        <ele>669</ele>
        <time>2026-08-19T12:28:03.344Z</time>
      </trkpt>
      <trkpt lat="45.89853" lon="6.34685">
        <ele>669</ele>
        <time>2026-08-19T12:28:04.344Z</time>
      </trkpt>
      <trkpt lat="45.89828" lon="6.34697">
        <ele>669</ele>
        <time>2026-08-19T12:28:14.344Z</time>
      </trkpt>
      <trkpt lat="45.89827" lon="6.347">
        <ele>669</ele>
        <time>2026-08-19T12:28:15.344Z</time>
      </trkpt>
      <trkpt lat="45.89827" lon="6.34698">
        <ele>669</ele>
        <time>2026-08-19T12:28:16.344Z</time>
      </trkpt>
      <trkpt lat="45.89827" lon="6.34699">
        <ele>670</ele>
        <time>2026-08-19T12:28:17.344Z</time>
      </trkpt>
      <trkpt lat="45.89826" lon="6.34699">
        <ele>670</ele>
        <time>2026-08-19T12:28:18.344Z</time>
      </trkpt>
      <trkpt lat="45.89824" lon="6.347">
        <ele>670</ele>
        <time>2026-08-19T12:28:19.344Z</time>
      </trkpt>
      <trkpt lat="45.89822" lon="6.34701">
        <ele>670</ele>
        <time>2026-08-19T12:28:20.344Z</time>
      </trkpt>
      <trkpt lat="45.89819" lon="6.34702">
        <ele>670</ele>
        <time>2026-08-19T12:28:21.344Z</time>
      </trkpt>
      <trkpt lat="45.89817" lon="6.34703">
        <ele>670</ele>
        <time>2026-08-19T12:28:22.344Z</time>
      </trkpt>
      <trkpt lat="45.89815" lon="6.34704">
        <ele>670</ele>
        <time>2026-08-19T12:28:23.344Z</time>
      </trkpt>
      <trkpt lat="45.89813" lon="6.34705">
        <ele>670</ele>
        <time>2026-08-19T12:28:24.344Z</time>
      </trkpt>
      <trkpt lat="45.8981" lon="6.34706">
        <ele>670</ele>
        <time>2026-08-19T12:28:25.344Z</time>
      </trkpt>
      <trkpt lat="45.89807" lon="6.34707">
        <ele>671</ele>
        <time>2026-08-19T12:28:26.344Z</time>
      </trkpt>
      <trkpt lat="45.89805" lon="6.34707">
        <ele>671</ele>
        <time>2026-08-19T12:28:27.344Z</time>
      </trkpt>
      <trkpt lat="45.89802" lon="6.34707">
        <ele>671</ele>
        <time>2026-08-19T12:28:28.344Z</time>
      </trkpt>
      <trkpt lat="45.898" lon="6.34707">
        <ele>671</ele>
        <time>2026-08-19T12:28:29.344Z</time>
      </trkpt>
      <trkpt lat="45.89797" lon="6.34707">
        <ele>672</ele>
        <time>2026-08-19T12:28:30.344Z</time>
      </trkpt>
      <trkpt lat="45.89796" lon="6.34706">
        <ele>672</ele>
        <time>2026-08-19T12:28:31.344Z</time>
      </trkpt>
      <trkpt lat="45.89793" lon="6.34706">
        <ele>672</ele>
        <time>2026-08-19T12:28:32.344Z</time>
      </trkpt>
      <trkpt lat="45.89791" lon="6.34705">
        <ele>672</ele>
        <time>2026-08-19T12:28:33.344Z</time>
      </trkpt>
      <trkpt lat="45.89789" lon="6.34705">
        <ele>673</ele>
        <time>2026-08-19T12:28:34.344Z</time>
      </trkpt>
      <trkpt lat="45.89787" lon="6.34705">
        <ele>673</ele>
        <time>2026-08-19T12:28:35.344Z</time>
      </trkpt>
      <trkpt lat="45.89785" lon="6.34705">
        <ele>673</ele>
        <time>2026-08-19T12:28:36.344Z</time>
      </trkpt>
      <trkpt lat="45.89784" lon="6.34705">
        <ele>673</ele>
        <time>2026-08-19T12:28:37.344Z</time>
      </trkpt>
      <trkpt lat="45.89782" lon="6.34705">
        <ele>674</ele>
        <time>2026-08-19T12:28:38.344Z</time>
      </trkpt>
      <trkpt lat="45.89781" lon="6.34704">
        <ele>674</ele>
        <time>2026-08-19T12:28:39.344Z</time>
      </trkpt>
      <trkpt lat="45.89778" lon="6.34703">
        <ele>674</ele>
        <time>2026-08-19T12:28:40.344Z</time>
      </trkpt>
      <trkpt lat="45.89777" lon="6.34701">
        <ele>674</ele>
        <time>2026-08-19T12:28:41.344Z</time>
      </trkpt>
      <trkpt lat="45.89775" lon="6.34699">
        <ele>674</ele>
        <time>2026-08-19T12:28:42.344Z</time>
      </trkpt>
      <trkpt lat="45.89773" lon="6.34697">
        <ele>674</ele>
        <time>2026-08-19T12:28:43.344Z</time>
      </trkpt>
      <trkpt lat="45.89771" lon="6.34695">
        <ele>674</ele>
        <time>2026-08-19T12:28:44.344Z</time>
      </trkpt>
      <trkpt lat="45.8977" lon="6.34693">
        <ele>674</ele>
        <time>2026-08-19T12:28:45.344Z</time>
      </trkpt>
      <trkpt lat="45.89767" lon="6.34691">
        <ele>674</ele>
        <time>2026-08-19T12:28:46.344Z</time>
      </trkpt>
      <trkpt lat="45.89765" lon="6.34689">
        <ele>674</ele>
        <time>2026-08-19T12:28:47.344Z</time>
      </trkpt>
      <trkpt lat="45.89763" lon="6.34687">
        <ele>674</ele>
        <time>2026-08-19T12:28:48.344Z</time>
      </trkpt>
      <trkpt lat="45.89761" lon="6.34685">
        <ele>674</ele>
        <time>2026-08-19T12:28:49.344Z</time>
      </trkpt>
      <trkpt lat="45.8976" lon="6.34684">
        <ele>674</ele>
        <time>2026-08-19T12:28:50.344Z</time>
      </trkpt>
      <trkpt lat="45.89758" lon="6.34682">
        <ele>674</ele>
        <time>2026-08-19T12:28:51.345Z</time>
      </trkpt>
      <trkpt lat="45.89757" lon="6.34678">
        <ele>674</ele>
        <time>2026-08-19T12:28:52.344Z</time>
      </trkpt>
      <trkpt lat="45.89755" lon="6.34674">
        <ele>673</ele>
        <time>2026-08-19T12:28:53.344Z</time>
      </trkpt>
      <trkpt lat="45.89753" lon="6.34671">
        <ele>673</ele>
        <time>2026-08-19T12:28:54.344Z</time>
      </trkpt>
      <trkpt lat="45.89751" lon="6.34668">
        <ele>673</ele>
        <time>2026-08-19T12:28:55.344Z</time>
      </trkpt>
      <trkpt lat="45.8975" lon="6.34665">
        <ele>673</ele>
        <time>2026-08-19T12:28:56.344Z</time>
      </trkpt>
      <trkpt lat="45.89749" lon="6.34662">
        <ele>673</ele>
        <time>2026-08-19T12:28:57.344Z</time>
      </trkpt>
      <trkpt lat="45.89748" lon="6.34659">
        <ele>673</ele>
        <time>2026-08-19T12:28:58.344Z</time>
      </trkpt>
      <trkpt lat="45.89746" lon="6.34657">
        <ele>673</ele>
        <time>2026-08-19T12:28:59.344Z</time>
      </trkpt>
      <trkpt lat="45.89745" lon="6.34653">
        <ele>673</ele>
        <time>2026-08-19T12:29:00.344Z</time>
      </trkpt>
      <trkpt lat="45.89744" lon="6.3465">
        <ele>673</ele>
        <time>2026-08-19T12:29:01.344Z</time>
      </trkpt>
      <trkpt lat="45.89744" lon="6.34647">
        <ele>673</ele>
        <time>2026-08-19T12:29:02.344Z</time>
      </trkpt>
      <trkpt lat="45.89743" lon="6.34643">
        <ele>673</ele>
        <time>2026-08-19T12:29:03.344Z</time>
      </trkpt>
      <trkpt lat="45.89742" lon="6.34639">
        <ele>673</ele>
        <time>2026-08-19T12:29:04.344Z</time>
      </trkpt>
      <trkpt lat="45.89742" lon="6.34635">
        <ele>673</ele>
        <time>2026-08-19T12:29:05.344Z</time>
      </trkpt>
      <trkpt lat="45.89741" lon="6.34632">
        <ele>673</ele>
        <time>2026-08-19T12:29:06.344Z</time>
      </trkpt>
      <trkpt lat="45.89741" lon="6.34629">
        <ele>672</ele>
        <time>2026-08-19T12:29:07.344Z</time>
      </trkpt>
      <trkpt lat="45.8974" lon="6.34625">
        <ele>672</ele>
        <time>2026-08-19T12:29:08.344Z</time>
      </trkpt>
      <trkpt lat="45.8974" lon="6.34621">
        <ele>671</ele>
        <time>2026-08-19T12:29:09.344Z</time>
      </trkpt>
      <trkpt lat="45.8974" lon="6.34618">
        <ele>671</ele>
        <time>2026-08-19T12:29:10.344Z</time>
      </trkpt>
      <trkpt lat="45.89739" lon="6.34615">
        <ele>671</ele>
        <time>2026-08-19T12:29:11.344Z</time>
      </trkpt>
      <trkpt lat="45.89739" lon="6.34612">
        <ele>670</ele>
        <time>2026-08-19T12:29:12.344Z</time>
      </trkpt>
      <trkpt lat="45.89738" lon="6.34609">
        <ele>670</ele>
        <time>2026-08-19T12:29:13.344Z</time>
      </trkpt>
      <trkpt lat="45.89737" lon="6.34606">
        <ele>670</ele>
        <time>2026-08-19T12:29:14.344Z</time>
      </trkpt>
      <trkpt lat="45.89737" lon="6.34603">
        <ele>670</ele>
        <time>2026-08-19T12:29:15.344Z</time>
      </trkpt>
      <trkpt lat="45.89736" lon="6.34599">
        <ele>671</ele>
        <time>2026-08-19T12:29:16.344Z</time>
      </trkpt>
      <trkpt lat="45.89736" lon="6.34595">
        <ele>671</ele>
        <time>2026-08-19T12:29:17.344Z</time>
      </trkpt>
      <trkpt lat="45.89735" lon="6.34592">
        <ele>671</ele>
        <time>2026-08-19T12:29:18.344Z</time>
      </trkpt>
      <trkpt lat="45.89734" lon="6.34589">
        <ele>671</ele>
        <time>2026-08-19T12:29:19.344Z</time>
      </trkpt>
      <trkpt lat="45.89734" lon="6.34585">
        <ele>671</ele>
        <time>2026-08-19T12:29:20.344Z</time>
      </trkpt>
      <trkpt lat="45.89733" lon="6.34582">
        <ele>671</ele>
        <time>2026-08-19T12:29:21.344Z</time>
      </trkpt>
      <trkpt lat="45.89732" lon="6.34579">
        <ele>672</ele>
        <time>2026-08-19T12:29:22.344Z</time>
      </trkpt>
      <trkpt lat="45.89731" lon="6.34576">
        <ele>671</ele>
        <time>2026-08-19T12:29:23.344Z</time>
      </trkpt>
      <trkpt lat="45.8973" lon="6.34573">
        <ele>671</ele>
        <time>2026-08-19T12:29:24.344Z</time>
      </trkpt>
      <trkpt lat="45.8973" lon="6.3457">
        <ele>671</ele>
        <time>2026-08-19T12:29:25.344Z</time>
      </trkpt>
      <trkpt lat="45.89729" lon="6.34567">
        <ele>671</ele>
        <time>2026-08-19T12:29:26.344Z</time>
      </trkpt>
      <trkpt lat="45.89728" lon="6.34565">
        <ele>670</ele>
        <time>2026-08-19T12:29:27.344Z</time>
      </trkpt>
      <trkpt lat="45.89728" lon="6.34562">
        <ele>670</ele>
        <time>2026-08-19T12:29:28.344Z</time>
      </trkpt>
      <trkpt lat="45.89727" lon="6.34559">
        <ele>670</ele>
        <time>2026-08-19T12:29:29.344Z</time>
      </trkpt>
      <trkpt lat="45.89727" lon="6.34557">
        <ele>669</ele>
        <time>2026-08-19T12:29:30.344Z</time>
      </trkpt>
      <trkpt lat="45.89726" lon="6.34553">
        <ele>669</ele>
        <time>2026-08-19T12:29:31.345Z</time>
      </trkpt>
      <trkpt lat="45.89725" lon="6.3455">
        <ele>669</ele>
        <time>2026-08-19T12:29:32.345Z</time>
      </trkpt>
      <trkpt lat="45.89724" lon="6.34547">
        <ele>669</ele>
        <time>2026-08-19T12:29:33.344Z</time>
      </trkpt>
      <trkpt lat="45.89724" lon="6.34544">
        <ele>669</ele>
        <time>2026-08-19T12:29:34.344Z</time>
      </trkpt>
      <trkpt lat="45.89722" lon="6.34542">
        <ele>669</ele>
        <time>2026-08-19T12:29:35.345Z</time>
      </trkpt>
      <trkpt lat="45.89721" lon="6.34539">
        <ele>670</ele>
        <time>2026-08-19T12:29:36.344Z</time>
      </trkpt>
      <trkpt lat="45.8972" lon="6.34537">
        <ele>670</ele>
        <time>2026-08-19T12:29:37.344Z</time>
      </trkpt>
      <trkpt lat="45.89719" lon="6.34535">
        <ele>670</ele>
        <time>2026-08-19T12:29:38.344Z</time>
      </trkpt>
      <trkpt lat="45.89718" lon="6.34532">
        <ele>670</ele>
        <time>2026-08-19T12:29:39.344Z</time>
      </trkpt>
      <trkpt lat="45.89717" lon="6.34529">
        <ele>670</ele>
        <time>2026-08-19T12:29:40.344Z</time>
      </trkpt>
      <trkpt lat="45.89716" lon="6.34527">
        <ele>670</ele>
        <time>2026-08-19T12:29:41.344Z</time>
      </trkpt>
      <trkpt lat="45.89715" lon="6.34525">
        <ele>670</ele>
        <time>2026-08-19T12:29:42.344Z</time>
      </trkpt>
      <trkpt lat="45.89714" lon="6.34523">
        <ele>670</ele>
        <time>2026-08-19T12:29:43.344Z</time>
      </trkpt>
      <trkpt lat="45.89713" lon="6.3452">
        <ele>670</ele>
        <time>2026-08-19T12:29:44.345Z</time>
      </trkpt>
      <trkpt lat="45.89712" lon="6.34518">
        <ele>670</ele>
        <time>2026-08-19T12:29:45.344Z</time>
      </trkpt>
      <trkpt lat="45.89711" lon="6.34516">
        <ele>670</ele>
        <time>2026-08-19T12:29:46.344Z</time>
      </trkpt>
      <trkpt lat="45.8971" lon="6.34514">
        <ele>671</ele>
        <time>2026-08-19T12:29:47.344Z</time>
      </trkpt>
      <trkpt lat="45.89708" lon="6.34511">
        <ele>671</ele>
        <time>2026-08-19T12:29:48.344Z</time>
      </trkpt>
      <trkpt lat="45.89707" lon="6.3451">
        <ele>671</ele>
        <time>2026-08-19T12:29:49.344Z</time>
      </trkpt>
      <trkpt lat="45.89705" lon="6.34508">
        <ele>671</ele>
        <time>2026-08-19T12:29:50.344Z</time>
      </trkpt>
      <trkpt lat="45.89703" lon="6.34506">
        <ele>671</ele>
        <time>2026-08-19T12:29:51.344Z</time>
      </trkpt>
      <trkpt lat="45.89701" lon="6.34504">
        <ele>671</ele>
        <time>2026-08-19T12:29:52.344Z</time>
      </trkpt>
      <trkpt lat="45.89698" lon="6.34502">
        <ele>671</ele>
        <time>2026-08-19T12:29:53.344Z</time>
      </trkpt>
      <trkpt lat="45.89696" lon="6.34501">
        <ele>671</ele>
        <time>2026-08-19T12:29:54.344Z</time>
      </trkpt>
      <trkpt lat="45.89693" lon="6.345">
        <ele>672</ele>
        <time>2026-08-19T12:29:55.345Z</time>
      </trkpt>
      <trkpt lat="45.89691" lon="6.34499">
        <ele>672</ele>
        <time>2026-08-19T12:29:56.344Z</time>
      </trkpt>
      <trkpt lat="45.89689" lon="6.34497">
        <ele>672</ele>
        <time>2026-08-19T12:29:57.344Z</time>
      </trkpt>
      <trkpt lat="45.89688" lon="6.34495">
        <ele>672</ele>
        <time>2026-08-19T12:29:58.344Z</time>
      </trkpt>
      <trkpt lat="45.89686" lon="6.34493">
        <ele>671</ele>
        <time>2026-08-19T12:29:59.344Z</time>
      </trkpt>
      <trkpt lat="45.89684" lon="6.34491">
        <ele>671</ele>
        <time>2026-08-19T12:30:00.344Z</time>
      </trkpt>
      <trkpt lat="45.89682" lon="6.34489">
        <ele>671</ele>
        <time>2026-08-19T12:30:01.344Z</time>
      </trkpt>
      <trkpt lat="45.89679" lon="6.34487">
        <ele>671</ele>
        <time>2026-08-19T12:30:02.344Z</time>
      </trkpt>
      <trkpt lat="45.89678" lon="6.34485">
        <ele>670</ele>
        <time>2026-08-19T12:30:03.344Z</time>
      </trkpt>
      <trkpt lat="45.89677" lon="6.34483">
        <ele>670</ele>
        <time>2026-08-19T12:30:04.344Z</time>
      </trkpt>
      <trkpt lat="45.89675" lon="6.3448">
        <ele>670</ele>
        <time>2026-08-19T12:30:05.344Z</time>
      </trkpt>
      <trkpt lat="45.89674" lon="6.34478">
        <ele>669</ele>
        <time>2026-08-19T12:30:06.344Z</time>
      </trkpt>
      <trkpt lat="45.89674" lon="6.34475">
        <ele>669</ele>
        <time>2026-08-19T12:30:07.344Z</time>
      </trkpt>
      <trkpt lat="45.89673" lon="6.34473">
        <ele>668</ele>
        <time>2026-08-19T12:30:08.344Z</time>
      </trkpt>
      <trkpt lat="45.89672" lon="6.34471">
        <ele>667</ele>
        <time>2026-08-19T12:30:09.344Z</time>
      </trkpt>
      <trkpt lat="45.8967" lon="6.34468">
        <ele>667</ele>
        <time>2026-08-19T12:30:10.345Z</time>
      </trkpt>
      <trkpt lat="45.89669" lon="6.34464">
        <ele>666</ele>
        <time>2026-08-19T12:30:11.345Z</time>
      </trkpt>
      <trkpt lat="45.89668" lon="6.34462">
        <ele>666</ele>
        <time>2026-08-19T12:30:12.344Z</time>
      </trkpt>
      <trkpt lat="45.89666" lon="6.3446">
        <ele>665</ele>
        <time>2026-08-19T12:30:13.344Z</time>
      </trkpt>
      <trkpt lat="45.89664" lon="6.34458">
        <ele>665</ele>
        <time>2026-08-19T12:30:14.344Z</time>
      </trkpt>
      <trkpt lat="45.89661" lon="6.34457">
        <ele>665</ele>
        <time>2026-08-19T12:30:15.344Z</time>
      </trkpt>
      <trkpt lat="45.8966" lon="6.34455">
        <ele>665</ele>
        <time>2026-08-19T12:30:16.344Z</time>
      </trkpt>
      <trkpt lat="45.89658" lon="6.34453">
        <ele>665</ele>
        <time>2026-08-19T12:30:17.344Z</time>
      </trkpt>
      <trkpt lat="45.89656" lon="6.34451">
        <ele>665</ele>
        <time>2026-08-19T12:30:18.345Z</time>
      </trkpt>
      <trkpt lat="45.89654" lon="6.34449">
        <ele>665</ele>
        <time>2026-08-19T12:30:19.344Z</time>
      </trkpt>
      <trkpt lat="45.89651" lon="6.34447">
        <ele>665</ele>
        <time>2026-08-19T12:30:20.344Z</time>
      </trkpt>
      <trkpt lat="45.8965" lon="6.34443">
        <ele>664</ele>
        <time>2026-08-19T12:30:21.344Z</time>
      </trkpt>
      <trkpt lat="45.89648" lon="6.3444">
        <ele>664</ele>
        <time>2026-08-19T12:30:22.345Z</time>
      </trkpt>
      <trkpt lat="45.89646" lon="6.34438">
        <ele>664</ele>
        <time>2026-08-19T12:30:23.344Z</time>
      </trkpt>
      <trkpt lat="45.89643" lon="6.34436">
        <ele>664</ele>
        <time>2026-08-19T12:30:24.344Z</time>
      </trkpt>
      <trkpt lat="45.89641" lon="6.34433">
        <ele>664</ele>
        <time>2026-08-19T12:30:25.345Z</time>
      </trkpt>
      <trkpt lat="45.89639" lon="6.34432">
        <ele>664</ele>
        <time>2026-08-19T12:30:26.344Z</time>
      </trkpt>
      <trkpt lat="45.89637" lon="6.3443">
        <ele>664</ele>
        <time>2026-08-19T12:30:27.344Z</time>
      </trkpt>
      <trkpt lat="45.89635" lon="6.34429">
        <ele>664</ele>
        <time>2026-08-19T12:30:28.344Z</time>
      </trkpt>
      <trkpt lat="45.89634" lon="6.34427">
        <ele>663</ele>
        <time>2026-08-19T12:30:29.344Z</time>
      </trkpt>
      <trkpt lat="45.89632" lon="6.34426">
        <ele>663</ele>
        <time>2026-08-19T12:30:30.344Z</time>
      </trkpt>
      <trkpt lat="45.89629" lon="6.34425">
        <ele>663</ele>
        <time>2026-08-19T12:30:31.344Z</time>
      </trkpt>
      <trkpt lat="45.89626" lon="6.34424">
        <ele>663</ele>
        <time>2026-08-19T12:30:32.344Z</time>
      </trkpt>
      <trkpt lat="45.89623" lon="6.34423">
        <ele>663</ele>
        <time>2026-08-19T12:30:33.344Z</time>
      </trkpt>
      <trkpt lat="45.89621" lon="6.34421">
        <ele>663</ele>
        <time>2026-08-19T12:30:34.344Z</time>
      </trkpt>
      <trkpt lat="45.89619" lon="6.34419">
        <ele>662</ele>
        <time>2026-08-19T12:30:35.344Z</time>
      </trkpt>
      <trkpt lat="45.89618" lon="6.34416">
        <ele>662</ele>
        <time>2026-08-19T12:30:36.344Z</time>
      </trkpt>
      <trkpt lat="45.89618" lon="6.34413">
        <ele>662</ele>
        <time>2026-08-19T12:30:37.344Z</time>
      </trkpt>
      <trkpt lat="45.89617" lon="6.3441">
        <ele>662</ele>
        <time>2026-08-19T12:30:38.344Z</time>
      </trkpt>
      <trkpt lat="45.89616" lon="6.34409">
        <ele>662</ele>
        <time>2026-08-19T12:30:39.344Z</time>
      </trkpt>
      <trkpt lat="45.89615" lon="6.34406">
        <ele>662</ele>
        <time>2026-08-19T12:30:40.344Z</time>
      </trkpt>
      <trkpt lat="45.89615" lon="6.34403">
        <ele>662</ele>
        <time>2026-08-19T12:30:41.344Z</time>
      </trkpt>
      <trkpt lat="45.89614" lon="6.344">
        <ele>662</ele>
        <time>2026-08-19T12:30:42.344Z</time>
      </trkpt>
      <trkpt lat="45.89613" lon="6.34397">
        <ele>661</ele>
        <time>2026-08-19T12:30:43.344Z</time>
      </trkpt>
      <trkpt lat="45.89612" lon="6.34394">
        <ele>661</ele>
        <time>2026-08-19T12:30:44.344Z</time>
      </trkpt>
      <trkpt lat="45.8961" lon="6.34392">
        <ele>661</ele>
        <time>2026-08-19T12:30:45.344Z</time>
      </trkpt>
      <trkpt lat="45.89609" lon="6.34389">
        <ele>660</ele>
        <time>2026-08-19T12:30:46.344Z</time>
      </trkpt>
      <trkpt lat="45.89607" lon="6.34387">
        <ele>660</ele>
        <time>2026-08-19T12:30:47.344Z</time>
      </trkpt>
      <trkpt lat="45.89605" lon="6.34386">
        <ele>660</ele>
        <time>2026-08-19T12:30:48.344Z</time>
      </trkpt>
      <trkpt lat="45.89603" lon="6.34384">
        <ele>660</ele>
        <time>2026-08-19T12:30:49.344Z</time>
      </trkpt>
      <trkpt lat="45.89601" lon="6.34382">
        <ele>659</ele>
        <time>2026-08-19T12:30:50.344Z</time>
      </trkpt>
      <trkpt lat="45.89599" lon="6.34381">
        <ele>659</ele>
        <time>2026-08-19T12:30:51.344Z</time>
      </trkpt>
      <trkpt lat="45.89596" lon="6.34379">
        <ele>659</ele>
        <time>2026-08-19T12:30:52.344Z</time>
      </trkpt>
      <trkpt lat="45.89594" lon="6.34377">
        <ele>659</ele>
        <time>2026-08-19T12:30:53.344Z</time>
      </trkpt>
      <trkpt lat="45.89592" lon="6.34375">
        <ele>659</ele>
        <time>2026-08-19T12:30:54.344Z</time>
      </trkpt>
      <trkpt lat="45.89591" lon="6.34372">
        <ele>659</ele>
        <time>2026-08-19T12:30:55.344Z</time>
      </trkpt>
      <trkpt lat="45.89589" lon="6.34369">
        <ele>659</ele>
        <time>2026-08-19T12:30:56.344Z</time>
      </trkpt>
      <trkpt lat="45.89587" lon="6.34367">
        <ele>659</ele>
        <time>2026-08-19T12:30:57.344Z</time>
      </trkpt>
      <trkpt lat="45.89585" lon="6.34366">
        <ele>659</ele>
        <time>2026-08-19T12:30:58.344Z</time>
      </trkpt>
      <trkpt lat="45.89583" lon="6.34365">
        <ele>659</ele>
        <time>2026-08-19T12:30:59.344Z</time>
      </trkpt>
      <trkpt lat="45.89581" lon="6.34364">
        <ele>659</ele>
        <time>2026-08-19T12:31:00.344Z</time>
      </trkpt>
      <trkpt lat="45.89579" lon="6.34362">
        <ele>659</ele>
        <time>2026-08-19T12:31:01.345Z</time>
      </trkpt>
      <trkpt lat="45.89577" lon="6.3436">
        <ele>659</ele>
        <time>2026-08-19T12:31:02.345Z</time>
      </trkpt>
      <trkpt lat="45.89575" lon="6.34359">
        <ele>659</ele>
        <time>2026-08-19T12:31:03.344Z</time>
      </trkpt>
      <trkpt lat="45.89573" lon="6.34357">
        <ele>659</ele>
        <time>2026-08-19T12:31:04.345Z</time>
      </trkpt>
      <trkpt lat="45.89571" lon="6.34356">
        <ele>659</ele>
        <time>2026-08-19T12:31:05.344Z</time>
      </trkpt>
      <trkpt lat="45.89569" lon="6.34354">
        <ele>659</ele>
        <time>2026-08-19T12:31:06.344Z</time>
      </trkpt>
      <trkpt lat="45.89567" lon="6.34352">
        <ele>659</ele>
        <time>2026-08-19T12:31:07.344Z</time>
      </trkpt>
      <trkpt lat="45.89565" lon="6.3435">
        <ele>659</ele>
        <time>2026-08-19T12:31:08.344Z</time>
      </trkpt>
      <trkpt lat="45.89563" lon="6.34348">
        <ele>658</ele>
        <time>2026-08-19T12:31:09.345Z</time>
      </trkpt>
      <trkpt lat="45.89561" lon="6.34346">
        <ele>658</ele>
        <time>2026-08-19T12:31:10.344Z</time>
      </trkpt>
      <trkpt lat="45.89559" lon="6.34344">
        <ele>658</ele>
        <time>2026-08-19T12:31:11.345Z</time>
      </trkpt>
      <trkpt lat="45.89556" lon="6.34343">
        <ele>658</ele>
        <time>2026-08-19T12:31:12.344Z</time>
      </trkpt>
      <trkpt lat="45.89554" lon="6.34342">
        <ele>658</ele>
        <time>2026-08-19T12:31:13.344Z</time>
      </trkpt>
      <trkpt lat="45.89552" lon="6.3434">
        <ele>658</ele>
        <time>2026-08-19T12:31:14.344Z</time>
      </trkpt>
      <trkpt lat="45.8955" lon="6.34339">
        <ele>657</ele>
        <time>2026-08-19T12:31:15.344Z</time>
      </trkpt>
      <trkpt lat="45.89548" lon="6.34338">
        <ele>657</ele>
        <time>2026-08-19T12:31:16.344Z</time>
      </trkpt>
      <trkpt lat="45.89546" lon="6.34337">
        <ele>657</ele>
        <time>2026-08-19T12:31:17.344Z</time>
      </trkpt>
      <trkpt lat="45.89543" lon="6.34336">
        <ele>656</ele>
        <time>2026-08-19T12:31:18.344Z</time>
      </trkpt>
      <trkpt lat="45.89541" lon="6.34335">
        <ele>656</ele>
        <time>2026-08-19T12:31:19.344Z</time>
      </trkpt>
      <trkpt lat="45.89539" lon="6.34334">
        <ele>656</ele>
        <time>2026-08-19T12:31:20.344Z</time>
      </trkpt>
      <trkpt lat="45.89537" lon="6.34332">
        <ele>656</ele>
        <time>2026-08-19T12:31:21.344Z</time>
      </trkpt>
      <trkpt lat="45.89535" lon="6.3433">
        <ele>656</ele>
        <time>2026-08-19T12:31:22.344Z</time>
      </trkpt>
      <trkpt lat="45.89533" lon="6.34328">
        <ele>657</ele>
        <time>2026-08-19T12:31:23.344Z</time>
      </trkpt>
      <trkpt lat="45.89532" lon="6.34327">
        <ele>657</ele>
        <time>2026-08-19T12:31:24.344Z</time>
      </trkpt>
      <trkpt lat="45.8953" lon="6.34325">
        <ele>657</ele>
        <time>2026-08-19T12:31:25.344Z</time>
      </trkpt>
      <trkpt lat="45.89528" lon="6.34322">
        <ele>657</ele>
        <time>2026-08-19T12:31:26.344Z</time>
      </trkpt>
      <trkpt lat="45.89528" lon="6.34319">
        <ele>657</ele>
        <time>2026-08-19T12:31:27.344Z</time>
      </trkpt>
      <trkpt lat="45.89526" lon="6.34316">
        <ele>657</ele>
        <time>2026-08-19T12:31:28.344Z</time>
      </trkpt>
      <trkpt lat="45.89525" lon="6.34315">
        <ele>657</ele>
        <time>2026-08-19T12:31:29.344Z</time>
      </trkpt>
      <trkpt lat="45.89523" lon="6.34312">
        <ele>657</ele>
        <time>2026-08-19T12:31:30.344Z</time>
      </trkpt>
      <trkpt lat="45.89521" lon="6.3431">
        <ele>657</ele>
        <time>2026-08-19T12:31:31.344Z</time>
      </trkpt>
      <trkpt lat="45.89519" lon="6.34308">
        <ele>657</ele>
        <time>2026-08-19T12:31:32.345Z</time>
      </trkpt>
      <trkpt lat="45.89517" lon="6.34305">
        <ele>657</ele>
        <time>2026-08-19T12:31:33.344Z</time>
      </trkpt>
      <trkpt lat="45.89515" lon="6.34303">
        <ele>657</ele>
        <time>2026-08-19T12:31:34.344Z</time>
      </trkpt>
      <trkpt lat="45.89514" lon="6.34301">
        <ele>657</ele>
        <time>2026-08-19T12:31:35.344Z</time>
      </trkpt>
      <trkpt lat="45.89512" lon="6.34299">
        <ele>657</ele>
        <time>2026-08-19T12:31:36.344Z</time>
      </trkpt>
      <trkpt lat="45.8951" lon="6.34297">
        <ele>657</ele>
        <time>2026-08-19T12:31:37.344Z</time>
      </trkpt>
      <trkpt lat="45.89508" lon="6.34295">
        <ele>658</ele>
        <time>2026-08-19T12:31:38.344Z</time>
      </trkpt>
      <trkpt lat="45.89507" lon="6.34293">
        <ele>658</ele>
        <time>2026-08-19T12:31:39.344Z</time>
      </trkpt>
      <trkpt lat="45.89506" lon="6.34291">
        <ele>658</ele>
        <time>2026-08-19T12:31:40.344Z</time>
      </trkpt>
      <trkpt lat="45.89504" lon="6.34289">
        <ele>659</ele>
        <time>2026-08-19T12:31:41.344Z</time>
      </trkpt>
      <trkpt lat="45.89503" lon="6.34288">
        <ele>659</ele>
        <time>2026-08-19T12:31:42.344Z</time>
      </trkpt>
      <trkpt lat="45.89502" lon="6.34286">
        <ele>660</ele>
        <time>2026-08-19T12:31:43.344Z</time>
      </trkpt>
      <trkpt lat="45.89501" lon="6.34283">
        <ele>660</ele>
        <time>2026-08-19T12:31:44.344Z</time>
      </trkpt>
      <trkpt lat="45.895" lon="6.34282">
        <ele>661</ele>
        <time>2026-08-19T12:31:45.344Z</time>
      </trkpt>
      <trkpt lat="45.89499" lon="6.3428">
        <ele>661</ele>
        <time>2026-08-19T12:31:46.344Z</time>
      </trkpt>
      <trkpt lat="45.89499" lon="6.34279">
        <ele>661</ele>
        <time>2026-08-19T12:31:47.344Z</time>
      </trkpt>
      <trkpt lat="45.89498" lon="6.34277">
        <ele>661</ele>
        <time>2026-08-19T12:31:48.344Z</time>
      </trkpt>
      <trkpt lat="45.89497" lon="6.34276">
        <ele>662</ele>
        <time>2026-08-19T12:31:49.344Z</time>
      </trkpt>
      <trkpt lat="45.89496" lon="6.34274">
        <ele>661</ele>
        <time>2026-08-19T12:31:50.344Z</time>
      </trkpt>
      <trkpt lat="45.89495" lon="6.34271">
        <ele>661</ele>
        <time>2026-08-19T12:31:51.344Z</time>
      </trkpt>
      <trkpt lat="45.89494" lon="6.34269">
        <ele>661</ele>
        <time>2026-08-19T12:31:52.344Z</time>
      </trkpt>
      <trkpt lat="45.89493" lon="6.34266">
        <ele>662</ele>
        <time>2026-08-19T12:31:53.344Z</time>
      </trkpt>
      <trkpt lat="45.89492" lon="6.34264">
        <ele>662</ele>
        <time>2026-08-19T12:31:54.344Z</time>
      </trkpt>
      <trkpt lat="45.89492" lon="6.34262">
        <ele>662</ele>
        <time>2026-08-19T12:31:55.344Z</time>
      </trkpt>
      <trkpt lat="45.89491" lon="6.3426">
        <ele>663</ele>
        <time>2026-08-19T12:31:56.345Z</time>
      </trkpt>
      <trkpt lat="45.8949" lon="6.34258">
        <ele>663</ele>
        <time>2026-08-19T12:31:57.344Z</time>
      </trkpt>
      <trkpt lat="45.8949" lon="6.34256">
        <ele>663</ele>
        <time>2026-08-19T12:31:58.344Z</time>
      </trkpt>
      <trkpt lat="45.89488" lon="6.34255">
        <ele>663</ele>
        <time>2026-08-19T12:31:59.344Z</time>
      </trkpt>
      <trkpt lat="45.89487" lon="6.34253">
        <ele>663</ele>
        <time>2026-08-19T12:32:00.344Z</time>
      </trkpt>
      <trkpt lat="45.89485" lon="6.34251">
        <ele>664</ele>
        <time>2026-08-19T12:32:01.345Z</time>
      </trkpt>
      <trkpt lat="45.89483" lon="6.34249">
        <ele>664</ele>
        <time>2026-08-19T12:32:02.344Z</time>
      </trkpt>
      <trkpt lat="45.89481" lon="6.34248">
        <ele>664</ele>
        <time>2026-08-19T12:32:03.344Z</time>
      </trkpt>
      <trkpt lat="45.8948" lon="6.34246">
        <ele>664</ele>
        <time>2026-08-19T12:32:04.344Z</time>
      </trkpt>
      <trkpt lat="45.89478" lon="6.34245">
        <ele>664</ele>
        <time>2026-08-19T12:32:05.345Z</time>
      </trkpt>
      <trkpt lat="45.89477" lon="6.34244">
        <ele>664</ele>
        <time>2026-08-19T12:32:06.344Z</time>
      </trkpt>
      <trkpt lat="45.89477" lon="6.34242">
        <ele>664</ele>
        <time>2026-08-19T12:32:07.344Z</time>
      </trkpt>
      <trkpt lat="45.89476" lon="6.34241">
        <ele>664</ele>
        <time>2026-08-19T12:32:08.344Z</time>
      </trkpt>
      <trkpt lat="45.89476" lon="6.34238">
        <ele>664</ele>
        <time>2026-08-19T12:32:09.344Z</time>
      </trkpt>
      <trkpt lat="45.89475" lon="6.34236">
        <ele>664</ele>
        <time>2026-08-19T12:32:10.344Z</time>
      </trkpt>
      <trkpt lat="45.89473" lon="6.34234">
        <ele>664</ele>
        <time>2026-08-19T12:32:11.344Z</time>
      </trkpt>
      <trkpt lat="45.89472" lon="6.34232">
        <ele>664</ele>
        <time>2026-08-19T12:32:12.344Z</time>
      </trkpt>
      <trkpt lat="45.8947" lon="6.3423">
        <ele>664</ele>
        <time>2026-08-19T12:32:13.344Z</time>
      </trkpt>
      <trkpt lat="45.89469" lon="6.34228">
        <ele>665</ele>
        <time>2026-08-19T12:32:14.345Z</time>
      </trkpt>
      <trkpt lat="45.89468" lon="6.34226">
        <ele>665</ele>
        <time>2026-08-19T12:32:15.344Z</time>
      </trkpt>
      <trkpt lat="45.89467" lon="6.34222">
        <ele>666</ele>
        <time>2026-08-19T12:32:16.344Z</time>
      </trkpt>
      <trkpt lat="45.89466" lon="6.34219">
        <ele>666</ele>
        <time>2026-08-19T12:32:17.344Z</time>
      </trkpt>
      <trkpt lat="45.89465" lon="6.34216">
        <ele>666</ele>
        <time>2026-08-19T12:32:18.344Z</time>
      </trkpt>
      <trkpt lat="45.89464" lon="6.34214">
        <ele>666</ele>
        <time>2026-08-19T12:32:19.344Z</time>
      </trkpt>
      <trkpt lat="45.89463" lon="6.34212">
        <ele>666</ele>
        <time>2026-08-19T12:32:20.344Z</time>
      </trkpt>
      <trkpt lat="45.89461" lon="6.34211">
        <ele>666</ele>
        <time>2026-08-19T12:32:21.344Z</time>
      </trkpt>
      <trkpt lat="45.8946" lon="6.34209">
        <ele>666</ele>
        <time>2026-08-19T12:32:22.344Z</time>
      </trkpt>
      <trkpt lat="45.89459" lon="6.34207">
        <ele>666</ele>
        <time>2026-08-19T12:32:23.344Z</time>
      </trkpt>
      <trkpt lat="45.89458" lon="6.34205">
        <ele>667</ele>
        <time>2026-08-19T12:32:24.344Z</time>
      </trkpt>
      <trkpt lat="45.89457" lon="6.34203">
        <ele>667</ele>
        <time>2026-08-19T12:32:25.344Z</time>
      </trkpt>
      <trkpt lat="45.89456" lon="6.34201">
        <ele>667</ele>
        <time>2026-08-19T12:32:26.344Z</time>
      </trkpt>
      <trkpt lat="45.89454" lon="6.34199">
        <ele>666</ele>
        <time>2026-08-19T12:32:27.344Z</time>
      </trkpt>
      <trkpt lat="45.89453" lon="6.34197">
        <ele>666</ele>
        <time>2026-08-19T12:32:28.344Z</time>
      </trkpt>
      <trkpt lat="45.89451" lon="6.34195">
        <ele>666</ele>
        <time>2026-08-19T12:32:29.344Z</time>
      </trkpt>
      <trkpt lat="45.89449" lon="6.34194">
        <ele>666</ele>
        <time>2026-08-19T12:32:30.344Z</time>
      </trkpt>
      <trkpt lat="45.89447" lon="6.34192">
        <ele>666</ele>
        <time>2026-08-19T12:32:31.344Z</time>
      </trkpt>
      <trkpt lat="45.89445" lon="6.34191">
        <ele>666</ele>
        <time>2026-08-19T12:32:32.344Z</time>
      </trkpt>
      <trkpt lat="45.89444" lon="6.3419">
        <ele>666</ele>
        <time>2026-08-19T12:32:33.344Z</time>
      </trkpt>
      <trkpt lat="45.89442" lon="6.34187">
        <ele>666</ele>
        <time>2026-08-19T12:32:34.344Z</time>
      </trkpt>
      <trkpt lat="45.89441" lon="6.34183">
        <ele>666</ele>
        <time>2026-08-19T12:32:35.344Z</time>
      </trkpt>
      <trkpt lat="45.8944" lon="6.34179">
        <ele>666</ele>
        <time>2026-08-19T12:32:36.344Z</time>
      </trkpt>
      <trkpt lat="45.89439" lon="6.34175">
        <ele>665</ele>
        <time>2026-08-19T12:32:37.344Z</time>
      </trkpt>
      <trkpt lat="45.89438" lon="6.34173">
        <ele>665</ele>
        <time>2026-08-19T12:32:38.344Z</time>
      </trkpt>
      <trkpt lat="45.89437" lon="6.34171">
        <ele>665</ele>
        <time>2026-08-19T12:32:39.344Z</time>
      </trkpt>
      <trkpt lat="45.89436" lon="6.34168">
        <ele>666</ele>
        <time>2026-08-19T12:32:40.344Z</time>
      </trkpt>
      <trkpt lat="45.89435" lon="6.34167">
        <ele>666</ele>
        <time>2026-08-19T12:32:41.344Z</time>
      </trkpt>
      <trkpt lat="45.89433" lon="6.34164">
        <ele>666</ele>
        <time>2026-08-19T12:32:42.344Z</time>
      </trkpt>
      <trkpt lat="45.89431" lon="6.34162">
        <ele>666</ele>
        <time>2026-08-19T12:32:43.344Z</time>
      </trkpt>
      <trkpt lat="45.89429" lon="6.3416">
        <ele>666</ele>
        <time>2026-08-19T12:32:44.344Z</time>
      </trkpt>
      <trkpt lat="45.89427" lon="6.34158">
        <ele>666</ele>
        <time>2026-08-19T12:32:45.344Z</time>
      </trkpt>
      <trkpt lat="45.89426" lon="6.34157">
        <ele>666</ele>
        <time>2026-08-19T12:32:46.344Z</time>
      </trkpt>
      <trkpt lat="45.89424" lon="6.34155">
        <ele>666</ele>
        <time>2026-08-19T12:32:47.344Z</time>
      </trkpt>
      <trkpt lat="45.89423" lon="6.34154">
        <ele>666</ele>
        <time>2026-08-19T12:32:48.344Z</time>
      </trkpt>
      <trkpt lat="45.89421" lon="6.34153">
        <ele>666</ele>
        <time>2026-08-19T12:32:49.344Z</time>
      </trkpt>
      <trkpt lat="45.89419" lon="6.34152">
        <ele>666</ele>
        <time>2026-08-19T12:32:50.344Z</time>
      </trkpt>
      <trkpt lat="45.89417" lon="6.34151">
        <ele>665</ele>
        <time>2026-08-19T12:32:51.344Z</time>
      </trkpt>
      <trkpt lat="45.89416" lon="6.34149">
        <ele>665</ele>
        <time>2026-08-19T12:32:52.344Z</time>
      </trkpt>
      <trkpt lat="45.89414" lon="6.34147">
        <ele>665</ele>
        <time>2026-08-19T12:32:53.344Z</time>
      </trkpt>
      <trkpt lat="45.89412" lon="6.34145">
        <ele>665</ele>
        <time>2026-08-19T12:32:54.344Z</time>
      </trkpt>
      <trkpt lat="45.8941" lon="6.34144">
        <ele>665</ele>
        <time>2026-08-19T12:32:55.344Z</time>
      </trkpt>
      <trkpt lat="45.89409" lon="6.34142">
        <ele>664</ele>
        <time>2026-08-19T12:32:56.344Z</time>
      </trkpt>
      <trkpt lat="45.89407" lon="6.34141">
        <ele>664</ele>
        <time>2026-08-19T12:32:57.344Z</time>
      </trkpt>
      <trkpt lat="45.89406" lon="6.3414">
        <ele>663</ele>
        <time>2026-08-19T12:32:58.344Z</time>
      </trkpt>
      <trkpt lat="45.89404" lon="6.3414">
        <ele>663</ele>
        <time>2026-08-19T12:32:59.344Z</time>
      </trkpt>
      <trkpt lat="45.89402" lon="6.3414">
        <ele>662</ele>
        <time>2026-08-19T12:33:00.344Z</time>
      </trkpt>
      <trkpt lat="45.89399" lon="6.34139">
        <ele>662</ele>
        <time>2026-08-19T12:33:01.344Z</time>
      </trkpt>
      <trkpt lat="45.89397" lon="6.34138">
        <ele>662</ele>
        <time>2026-08-19T12:33:02.344Z</time>
      </trkpt>
      <trkpt lat="45.89396" lon="6.34137">
        <ele>661</ele>
        <time>2026-08-19T12:33:03.344Z</time>
      </trkpt>
      <trkpt lat="45.89395" lon="6.34136">
        <ele>661</ele>
        <time>2026-08-19T12:33:04.344Z</time>
      </trkpt>
      <trkpt lat="45.89395" lon="6.34133">
        <ele>661</ele>
        <time>2026-08-19T12:33:05.344Z</time>
      </trkpt>
      <trkpt lat="45.89395" lon="6.34131">
        <ele>662</ele>
        <time>2026-08-19T12:33:06.345Z</time>
      </trkpt>
      <trkpt lat="45.89393" lon="6.34129">
        <ele>662</ele>
        <time>2026-08-19T12:33:07.344Z</time>
      </trkpt>
      <trkpt lat="45.89393" lon="6.34127">
        <ele>662</ele>
        <time>2026-08-19T12:33:08.344Z</time>
      </trkpt>
      <trkpt lat="45.89392" lon="6.34125">
        <ele>663</ele>
        <time>2026-08-19T12:33:09.344Z</time>
      </trkpt>
      <trkpt lat="45.8939" lon="6.34123">
        <ele>663</ele>
        <time>2026-08-19T12:33:10.344Z</time>
      </trkpt>
      <trkpt lat="45.89388" lon="6.34121">
        <ele>664</ele>
        <time>2026-08-19T12:33:11.344Z</time>
      </trkpt>
      <trkpt lat="45.89387" lon="6.34118">
        <ele>665</ele>
        <time>2026-08-19T12:33:12.344Z</time>
      </trkpt>
      <trkpt lat="45.89386" lon="6.34115">
        <ele>665</ele>
        <time>2026-08-19T12:33:13.344Z</time>
      </trkpt>
      <trkpt lat="45.89385" lon="6.34113">
        <ele>666</ele>
        <time>2026-08-19T12:33:14.344Z</time>
      </trkpt>
      <trkpt lat="45.89384" lon="6.34112">
        <ele>666</ele>
        <time>2026-08-19T12:33:15.344Z</time>
      </trkpt>
      <trkpt lat="45.89383" lon="6.3411">
        <ele>667</ele>
        <time>2026-08-19T12:33:16.344Z</time>
      </trkpt>
      <trkpt lat="45.89381" lon="6.34108">
        <ele>667</ele>
        <time>2026-08-19T12:33:17.344Z</time>
      </trkpt>
      <trkpt lat="45.8938" lon="6.34106">
        <ele>668</ele>
        <time>2026-08-19T12:33:18.344Z</time>
      </trkpt>
      <trkpt lat="45.89379" lon="6.34103">
        <ele>668</ele>
        <time>2026-08-19T12:33:19.344Z</time>
      </trkpt>
      <trkpt lat="45.89377" lon="6.341">
        <ele>668</ele>
        <time>2026-08-19T12:33:20.344Z</time>
      </trkpt>
      <trkpt lat="45.89376" lon="6.34098">
        <ele>668</ele>
        <time>2026-08-19T12:33:21.344Z</time>
      </trkpt>
      <trkpt lat="45.89375" lon="6.34096">
        <ele>669</ele>
        <time>2026-08-19T12:33:22.344Z</time>
      </trkpt>
      <trkpt lat="45.89373" lon="6.34094">
        <ele>669</ele>
        <time>2026-08-19T12:33:23.344Z</time>
      </trkpt>
      <trkpt lat="45.89372" lon="6.34091">
        <ele>669</ele>
        <time>2026-08-19T12:33:24.344Z</time>
      </trkpt>
      <trkpt lat="45.8937" lon="6.34088">
        <ele>669</ele>
        <time>2026-08-19T12:33:25.344Z</time>
      </trkpt>
      <trkpt lat="45.89369" lon="6.34085">
        <ele>669</ele>
        <time>2026-08-19T12:33:26.344Z</time>
      </trkpt>
      <trkpt lat="45.89367" lon="6.34082">
        <ele>669</ele>
        <time>2026-08-19T12:33:27.344Z</time>
      </trkpt>
      <trkpt lat="45.89366" lon="6.34079">
        <ele>669</ele>
        <time>2026-08-19T12:33:28.344Z</time>
      </trkpt>
      <trkpt lat="45.89366" lon="6.34077">
        <ele>670</ele>
        <time>2026-08-19T12:33:29.344Z</time>
      </trkpt>
      <trkpt lat="45.89366" lon="6.34074">
        <ele>670</ele>
        <time>2026-08-19T12:33:30.344Z</time>
      </trkpt>
      <trkpt lat="45.89365" lon="6.34071">
        <ele>670</ele>
        <time>2026-08-19T12:33:31.344Z</time>
      </trkpt>
      <trkpt lat="45.89364" lon="6.34068">
        <ele>671</ele>
        <time>2026-08-19T12:33:32.344Z</time>
      </trkpt>
      <trkpt lat="45.89363" lon="6.34064">
        <ele>671</ele>
        <time>2026-08-19T12:33:33.344Z</time>
      </trkpt>
      <trkpt lat="45.89363" lon="6.34061">
        <ele>672</ele>
        <time>2026-08-19T12:33:34.344Z</time>
      </trkpt>
      <trkpt lat="45.89362" lon="6.34059">
        <ele>672</ele>
        <time>2026-08-19T12:33:35.344Z</time>
      </trkpt>
      <trkpt lat="45.8936" lon="6.34057">
        <ele>672</ele>
        <time>2026-08-19T12:33:36.344Z</time>
      </trkpt>
      <trkpt lat="45.89358" lon="6.34056">
        <ele>673</ele>
        <time>2026-08-19T12:33:37.344Z</time>
      </trkpt>
      <trkpt lat="45.89356" lon="6.34054">
        <ele>672</ele>
        <time>2026-08-19T12:33:38.344Z</time>
      </trkpt>
      <trkpt lat="45.89353" lon="6.34053">
        <ele>672</ele>
        <time>2026-08-19T12:33:39.344Z</time>
      </trkpt>
      <trkpt lat="45.89351" lon="6.34051">
        <ele>671</ele>
        <time>2026-08-19T12:33:40.344Z</time>
      </trkpt>
      <trkpt lat="45.8935" lon="6.34048">
        <ele>671</ele>
        <time>2026-08-19T12:33:41.344Z</time>
      </trkpt>
      <trkpt lat="45.89348" lon="6.34046">
        <ele>670</ele>
        <time>2026-08-19T12:33:42.344Z</time>
      </trkpt>
      <trkpt lat="45.89346" lon="6.34044">
        <ele>670</ele>
        <time>2026-08-19T12:33:43.344Z</time>
      </trkpt>
      <trkpt lat="45.89345" lon="6.34042">
        <ele>670</ele>
        <time>2026-08-19T12:33:44.344Z</time>
      </trkpt>
      <trkpt lat="45.89343" lon="6.3404">
        <ele>669</ele>
        <time>2026-08-19T12:33:45.344Z</time>
      </trkpt>
      <trkpt lat="45.89342" lon="6.34038">
        <ele>669</ele>
        <time>2026-08-19T12:33:46.344Z</time>
      </trkpt>
      <trkpt lat="45.8934" lon="6.34037">
        <ele>668</ele>
        <time>2026-08-19T12:33:47.344Z</time>
      </trkpt>
      <trkpt lat="45.89338" lon="6.34035">
        <ele>668</ele>
        <time>2026-08-19T12:33:48.344Z</time>
      </trkpt>
      <trkpt lat="45.89337" lon="6.34033">
        <ele>667</ele>
        <time>2026-08-19T12:33:49.344Z</time>
      </trkpt>
      <trkpt lat="45.89335" lon="6.34029">
        <ele>667</ele>
        <time>2026-08-19T12:33:50.344Z</time>
      </trkpt>
      <trkpt lat="45.89333" lon="6.34027">
        <ele>666</ele>
        <time>2026-08-19T12:33:51.344Z</time>
      </trkpt>
      <trkpt lat="45.89332" lon="6.34023">
        <ele>665</ele>
        <time>2026-08-19T12:33:52.344Z</time>
      </trkpt>
      <trkpt lat="45.8933" lon="6.3402">
        <ele>665</ele>
        <time>2026-08-19T12:33:53.344Z</time>
      </trkpt>
      <trkpt lat="45.89328" lon="6.34018">
        <ele>664</ele>
        <time>2026-08-19T12:33:54.345Z</time>
      </trkpt>
      <trkpt lat="45.89326" lon="6.34016">
        <ele>664</ele>
        <time>2026-08-19T12:33:55.344Z</time>
      </trkpt>
      <trkpt lat="45.89324" lon="6.34014">
        <ele>664</ele>
        <time>2026-08-19T12:33:56.344Z</time>
      </trkpt>
      <trkpt lat="45.89323" lon="6.34012">
        <ele>664</ele>
        <time>2026-08-19T12:33:57.344Z</time>
      </trkpt>
      <trkpt lat="45.89321" lon="6.3401">
        <ele>663</ele>
        <time>2026-08-19T12:33:58.344Z</time>
      </trkpt>
      <trkpt lat="45.89319" lon="6.34008">
        <ele>664</ele>
        <time>2026-08-19T12:33:59.344Z</time>
      </trkpt>
      <trkpt lat="45.89317" lon="6.34006">
        <ele>664</ele>
        <time>2026-08-19T12:34:00.344Z</time>
      </trkpt>
      <trkpt lat="45.89315" lon="6.34004">
        <ele>664</ele>
        <time>2026-08-19T12:34:01.345Z</time>
      </trkpt>
      <trkpt lat="45.89314" lon="6.34002">
        <ele>664</ele>
        <time>2026-08-19T12:34:02.344Z</time>
      </trkpt>
      <trkpt lat="45.89314" lon="6.34">
        <ele>664</ele>
        <time>2026-08-19T12:34:03.344Z</time>
      </trkpt>
      <trkpt lat="45.89313" lon="6.33998">
        <ele>665</ele>
        <time>2026-08-19T12:34:04.344Z</time>
      </trkpt>
      <trkpt lat="45.89312" lon="6.33994">
        <ele>665</ele>
        <time>2026-08-19T12:34:05.344Z</time>
      </trkpt>
      <trkpt lat="45.8931" lon="6.33992">
        <ele>665</ele>
        <time>2026-08-19T12:34:06.344Z</time>
      </trkpt>
      <trkpt lat="45.89309" lon="6.3399">
        <ele>665</ele>
        <time>2026-08-19T12:34:07.344Z</time>
      </trkpt>
      <trkpt lat="45.89308" lon="6.33987">
        <ele>665</ele>
        <time>2026-08-19T12:34:08.344Z</time>
      </trkpt>
      <trkpt lat="45.89305" lon="6.33984">
        <ele>665</ele>
        <time>2026-08-19T12:34:09.344Z</time>
      </trkpt>
      <trkpt lat="45.89304" lon="6.3398">
        <ele>665</ele>
        <time>2026-08-19T12:34:10.344Z</time>
      </trkpt>
      <trkpt lat="45.89302" lon="6.33976">
        <ele>665</ele>
        <time>2026-08-19T12:34:11.344Z</time>
      </trkpt>
      <trkpt lat="45.89301" lon="6.33971">
        <ele>665</ele>
        <time>2026-08-19T12:34:12.344Z</time>
      </trkpt>
      <trkpt lat="45.893" lon="6.33966">
        <ele>666</ele>
        <time>2026-08-19T12:34:13.344Z</time>
      </trkpt>
      <trkpt lat="45.89299" lon="6.33964">
        <ele>666</ele>
        <time>2026-08-19T12:34:14.344Z</time>
      </trkpt>
      <trkpt lat="45.89298" lon="6.33961">
        <ele>666</ele>
        <time>2026-08-19T12:34:15.344Z</time>
      </trkpt>
      <trkpt lat="45.89296" lon="6.33959">
        <ele>666</ele>
        <time>2026-08-19T12:34:16.344Z</time>
      </trkpt>
      <trkpt lat="45.89295" lon="6.33957">
        <ele>666</ele>
        <time>2026-08-19T12:34:17.344Z</time>
      </trkpt>
      <trkpt lat="45.89294" lon="6.33954">
        <ele>666</ele>
        <time>2026-08-19T12:34:18.344Z</time>
      </trkpt>
      <trkpt lat="45.89293" lon="6.3395">
        <ele>667</ele>
        <time>2026-08-19T12:34:19.344Z</time>
      </trkpt>
      <trkpt lat="45.89292" lon="6.33948">
        <ele>667</ele>
        <time>2026-08-19T12:34:20.344Z</time>
      </trkpt>
      <trkpt lat="45.89291" lon="6.33945">
        <ele>667</ele>
        <time>2026-08-19T12:34:21.345Z</time>
      </trkpt>
      <trkpt lat="45.8929" lon="6.33943">
        <ele>667</ele>
        <time>2026-08-19T12:34:22.344Z</time>
      </trkpt>
      <trkpt lat="45.89289" lon="6.33939">
        <ele>667</ele>
        <time>2026-08-19T12:34:23.344Z</time>
      </trkpt>
      <trkpt lat="45.89287" lon="6.33937">
        <ele>667</ele>
        <time>2026-08-19T12:34:24.344Z</time>
      </trkpt>
      <trkpt lat="45.89286" lon="6.33934">
        <ele>667</ele>
        <time>2026-08-19T12:34:25.344Z</time>
      </trkpt>
      <trkpt lat="45.89285" lon="6.33932">
        <ele>667</ele>
        <time>2026-08-19T12:34:26.344Z</time>
      </trkpt>
      <trkpt lat="45.89284" lon="6.3393">
        <ele>667</ele>
        <time>2026-08-19T12:34:27.344Z</time>
      </trkpt>
      <trkpt lat="45.89282" lon="6.33928">
        <ele>667</ele>
        <time>2026-08-19T12:34:28.345Z</time>
      </trkpt>
      <trkpt lat="45.8928" lon="6.33928">
        <ele>667</ele>
        <time>2026-08-19T12:34:29.344Z</time>
      </trkpt>
      <trkpt lat="45.89278" lon="6.33927">
        <ele>667</ele>
        <time>2026-08-19T12:34:30.344Z</time>
      </trkpt>
      <trkpt lat="45.89277" lon="6.33926">
        <ele>667</ele>
        <time>2026-08-19T12:34:31.345Z</time>
      </trkpt>
      <trkpt lat="45.89276" lon="6.33926">
        <ele>667</ele>
        <time>2026-08-19T12:34:32.344Z</time>
      </trkpt>
      <trkpt lat="45.89275" lon="6.33925">
        <ele>667</ele>
        <time>2026-08-19T12:34:33.344Z</time>
      </trkpt>
      <trkpt lat="45.89274" lon="6.33924">
        <ele>667</ele>
        <time>2026-08-19T12:34:34.344Z</time>
      </trkpt>
      <trkpt lat="45.89273" lon="6.33921">
        <ele>667</ele>
        <time>2026-08-19T12:34:35.344Z</time>
      </trkpt>
      <trkpt lat="45.89271" lon="6.33919">
        <ele>667</ele>
        <time>2026-08-19T12:34:36.344Z</time>
      </trkpt>
      <trkpt lat="45.89269" lon="6.33918">
        <ele>667</ele>
        <time>2026-08-19T12:34:37.344Z</time>
      </trkpt>
      <trkpt lat="45.89268" lon="6.33917">
        <ele>667</ele>
        <time>2026-08-19T12:34:38.344Z</time>
      </trkpt>
      <trkpt lat="45.89266" lon="6.33915">
        <ele>667</ele>
        <time>2026-08-19T12:34:39.344Z</time>
      </trkpt>
      <trkpt lat="45.89265" lon="6.33914">
        <ele>667</ele>
        <time>2026-08-19T12:34:40.344Z</time>
      </trkpt>
      <trkpt lat="45.89264" lon="6.33912">
        <ele>667</ele>
        <time>2026-08-19T12:34:41.344Z</time>
      </trkpt>
      <trkpt lat="45.89263" lon="6.33911">
        <ele>667</ele>
        <time>2026-08-19T12:34:42.344Z</time>
      </trkpt>
      <trkpt lat="45.89262" lon="6.3391">
        <ele>667</ele>
        <time>2026-08-19T12:34:43.344Z</time>
      </trkpt>
      <trkpt lat="45.8926" lon="6.33909">
        <ele>667</ele>
        <time>2026-08-19T12:34:44.344Z</time>
      </trkpt>
      <trkpt lat="45.89258" lon="6.33907">
        <ele>667</ele>
        <time>2026-08-19T12:34:45.344Z</time>
      </trkpt>
      <trkpt lat="45.89257" lon="6.33905">
        <ele>667</ele>
        <time>2026-08-19T12:34:46.344Z</time>
      </trkpt>
      <trkpt lat="45.89255" lon="6.33904">
        <ele>667</ele>
        <time>2026-08-19T12:34:47.344Z</time>
      </trkpt>
      <trkpt lat="45.89253" lon="6.33902">
        <ele>666</ele>
        <time>2026-08-19T12:34:48.344Z</time>
      </trkpt>
      <trkpt lat="45.89252" lon="6.33901">
        <ele>666</ele>
        <time>2026-08-19T12:34:49.344Z</time>
      </trkpt>
      <trkpt lat="45.8925" lon="6.33899">
        <ele>666</ele>
        <time>2026-08-19T12:34:50.344Z</time>
      </trkpt>
      <trkpt lat="45.89248" lon="6.33898">
        <ele>666</ele>
        <time>2026-08-19T12:34:51.344Z</time>
      </trkpt>
      <trkpt lat="45.89247" lon="6.33895">
        <ele>665</ele>
        <time>2026-08-19T12:34:52.344Z</time>
      </trkpt>
      <trkpt lat="45.89246" lon="6.33893">
        <ele>665</ele>
        <time>2026-08-19T12:34:53.344Z</time>
      </trkpt>
      <trkpt lat="45.89245" lon="6.3389">
        <ele>665</ele>
        <time>2026-08-19T12:34:54.344Z</time>
      </trkpt>
      <trkpt lat="45.89244" lon="6.33888">
        <ele>665</ele>
        <time>2026-08-19T12:34:55.344Z</time>
      </trkpt>
      <trkpt lat="45.89242" lon="6.33887">
        <ele>665</ele>
        <time>2026-08-19T12:34:56.344Z</time>
      </trkpt>
      <trkpt lat="45.8924" lon="6.33885">
        <ele>664</ele>
        <time>2026-08-19T12:34:57.344Z</time>
      </trkpt>
      <trkpt lat="45.89239" lon="6.33882">
        <ele>664</ele>
        <time>2026-08-19T12:34:58.344Z</time>
      </trkpt>
      <trkpt lat="45.89237" lon="6.33879">
        <ele>664</ele>
        <time>2026-08-19T12:34:59.344Z</time>
      </trkpt>
      <trkpt lat="45.89235" lon="6.33877">
        <ele>663</ele>
        <time>2026-08-19T12:35:00.344Z</time>
      </trkpt>
      <trkpt lat="45.89234" lon="6.33874">
        <ele>663</ele>
        <time>2026-08-19T12:35:01.344Z</time>
      </trkpt>
      <trkpt lat="45.89233" lon="6.33872">
        <ele>663</ele>
        <time>2026-08-19T12:35:02.344Z</time>
      </trkpt>
      <trkpt lat="45.89232" lon="6.3387">
        <ele>662</ele>
        <time>2026-08-19T12:35:03.344Z</time>
      </trkpt>
      <trkpt lat="45.89231" lon="6.33868">
        <ele>662</ele>
        <time>2026-08-19T12:35:04.344Z</time>
      </trkpt>
      <trkpt lat="45.8923" lon="6.33865">
        <ele>661</ele>
        <time>2026-08-19T12:35:05.344Z</time>
      </trkpt>
      <trkpt lat="45.89229" lon="6.33862">
        <ele>661</ele>
        <time>2026-08-19T12:35:06.344Z</time>
      </trkpt>
      <trkpt lat="45.89227" lon="6.3386">
        <ele>660</ele>
        <time>2026-08-19T12:35:07.344Z</time>
      </trkpt>
      <trkpt lat="45.89225" lon="6.33858">
        <ele>660</ele>
        <time>2026-08-19T12:35:08.344Z</time>
      </trkpt>
      <trkpt lat="45.89223" lon="6.33856">
        <ele>660</ele>
        <time>2026-08-19T12:35:09.344Z</time>
      </trkpt>
      <trkpt lat="45.89222" lon="6.33853">
        <ele>660</ele>
        <time>2026-08-19T12:35:10.344Z</time>
      </trkpt>
      <trkpt lat="45.8922" lon="6.33851">
        <ele>659</ele>
        <time>2026-08-19T12:35:11.344Z</time>
      </trkpt>
      <trkpt lat="45.89219" lon="6.33848">
        <ele>659</ele>
        <time>2026-08-19T12:35:12.344Z</time>
      </trkpt>
      <trkpt lat="45.89218" lon="6.33845">
        <ele>659</ele>
        <time>2026-08-19T12:35:13.344Z</time>
      </trkpt>
      <trkpt lat="45.89217" lon="6.33842">
        <ele>659</ele>
        <time>2026-08-19T12:35:14.345Z</time>
      </trkpt>
      <trkpt lat="45.89216" lon="6.33839">
        <ele>659</ele>
        <time>2026-08-19T12:35:15.344Z</time>
      </trkpt>
      <trkpt lat="45.89215" lon="6.33836">
        <ele>659</ele>
        <time>2026-08-19T12:35:16.344Z</time>
      </trkpt>
      <trkpt lat="45.89214" lon="6.33833">
        <ele>659</ele>
        <time>2026-08-19T12:35:17.344Z</time>
      </trkpt>
      <trkpt lat="45.89213" lon="6.33831">
        <ele>659</ele>
        <time>2026-08-19T12:35:18.344Z</time>
      </trkpt>
      <trkpt lat="45.89212" lon="6.33829">
        <ele>659</ele>
        <time>2026-08-19T12:35:19.344Z</time>
      </trkpt>
      <trkpt lat="45.89211" lon="6.33827">
        <ele>659</ele>
        <time>2026-08-19T12:35:20.344Z</time>
      </trkpt>
      <trkpt lat="45.8921" lon="6.33825">
        <ele>659</ele>
        <time>2026-08-19T12:35:21.344Z</time>
      </trkpt>
      <trkpt lat="45.89209" lon="6.33822">
        <ele>659</ele>
        <time>2026-08-19T12:35:22.344Z</time>
      </trkpt>
      <trkpt lat="45.89208" lon="6.3382">
        <ele>659</ele>
        <time>2026-08-19T12:35:23.344Z</time>
      </trkpt>
      <trkpt lat="45.89206" lon="6.33817">
        <ele>660</ele>
        <time>2026-08-19T12:35:24.344Z</time>
      </trkpt>
      <trkpt lat="45.89204" lon="6.33816">
        <ele>660</ele>
        <time>2026-08-19T12:35:25.344Z</time>
      </trkpt>
      <trkpt lat="45.89202" lon="6.33815">
        <ele>660</ele>
        <time>2026-08-19T12:35:26.344Z</time>
      </trkpt>
      <trkpt lat="45.89201" lon="6.33813">
        <ele>660</ele>
        <time>2026-08-19T12:35:27.344Z</time>
      </trkpt>
      <trkpt lat="45.89199" lon="6.33811">
        <ele>659</ele>
        <time>2026-08-19T12:35:28.344Z</time>
      </trkpt>
      <trkpt lat="45.89198" lon="6.33809">
        <ele>659</ele>
        <time>2026-08-19T12:35:29.344Z</time>
      </trkpt>
      <trkpt lat="45.89197" lon="6.33807">
        <ele>659</ele>
        <time>2026-08-19T12:35:30.344Z</time>
      </trkpt>
      <trkpt lat="45.89195" lon="6.33805">
        <ele>658</ele>
        <time>2026-08-19T12:35:31.344Z</time>
      </trkpt>
      <trkpt lat="45.89194" lon="6.33804">
        <ele>658</ele>
        <time>2026-08-19T12:35:32.344Z</time>
      </trkpt>
      <trkpt lat="45.89192" lon="6.33801">
        <ele>657</ele>
        <time>2026-08-19T12:35:33.344Z</time>
      </trkpt>
      <trkpt lat="45.89191" lon="6.33799">
        <ele>657</ele>
        <time>2026-08-19T12:35:34.344Z</time>
      </trkpt>
      <trkpt lat="45.89189" lon="6.33797">
        <ele>656</ele>
        <time>2026-08-19T12:35:35.344Z</time>
      </trkpt>
      <trkpt lat="45.89188" lon="6.33794">
        <ele>656</ele>
        <time>2026-08-19T12:35:36.344Z</time>
      </trkpt>
      <trkpt lat="45.89186" lon="6.33792">
        <ele>656</ele>
        <time>2026-08-19T12:35:37.344Z</time>
      </trkpt>
      <trkpt lat="45.89184" lon="6.33789">
        <ele>655</ele>
        <time>2026-08-19T12:35:38.344Z</time>
      </trkpt>
      <trkpt lat="45.89183" lon="6.33786">
        <ele>655</ele>
        <time>2026-08-19T12:35:39.344Z</time>
      </trkpt>
      <trkpt lat="45.89181" lon="6.33784">
        <ele>655</ele>
        <time>2026-08-19T12:35:40.344Z</time>
      </trkpt>
      <trkpt lat="45.8918" lon="6.33781">
        <ele>655</ele>
        <time>2026-08-19T12:35:41.344Z</time>
      </trkpt>
      <trkpt lat="45.89179" lon="6.33778">
        <ele>656</ele>
        <time>2026-08-19T12:35:42.344Z</time>
      </trkpt>
      <trkpt lat="45.89178" lon="6.33776">
        <ele>656</ele>
        <time>2026-08-19T12:35:43.344Z</time>
      </trkpt>
      <trkpt lat="45.89176" lon="6.33774">
        <ele>656</ele>
        <time>2026-08-19T12:35:44.345Z</time>
      </trkpt>
      <trkpt lat="45.89174" lon="6.33772">
        <ele>657</ele>
        <time>2026-08-19T12:35:45.344Z</time>
      </trkpt>
      <trkpt lat="45.89172" lon="6.33768">
        <ele>657</ele>
        <time>2026-08-19T12:35:46.344Z</time>
      </trkpt>
      <trkpt lat="45.8917" lon="6.33766">
        <ele>657</ele>
        <time>2026-08-19T12:35:47.344Z</time>
      </trkpt>
      <trkpt lat="45.89168" lon="6.33762">
        <ele>657</ele>
        <time>2026-08-19T12:35:48.344Z</time>
      </trkpt>
      <trkpt lat="45.89166" lon="6.3376">
        <ele>657</ele>
        <time>2026-08-19T12:35:49.344Z</time>
      </trkpt>
      <trkpt lat="45.89165" lon="6.33758">
        <ele>657</ele>
        <time>2026-08-19T12:35:50.344Z</time>
      </trkpt>
      <trkpt lat="45.89163" lon="6.33757">
        <ele>657</ele>
        <time>2026-08-19T12:35:51.344Z</time>
      </trkpt>
      <trkpt lat="45.89162" lon="6.33756">
        <ele>657</ele>
        <time>2026-08-19T12:35:52.344Z</time>
      </trkpt>
      <trkpt lat="45.8916" lon="6.33754">
        <ele>657</ele>
        <time>2026-08-19T12:35:53.344Z</time>
      </trkpt>
      <trkpt lat="45.89158" lon="6.33753">
        <ele>656</ele>
        <time>2026-08-19T12:35:54.344Z</time>
      </trkpt>
      <trkpt lat="45.89156" lon="6.33752">
        <ele>656</ele>
        <time>2026-08-19T12:35:55.344Z</time>
      </trkpt>
      <trkpt lat="45.89155" lon="6.3375">
        <ele>656</ele>
        <time>2026-08-19T12:35:56.344Z</time>
      </trkpt>
      <trkpt lat="45.89154" lon="6.33747">
        <ele>655</ele>
        <time>2026-08-19T12:35:57.344Z</time>
      </trkpt>
      <trkpt lat="45.89153" lon="6.33745">
        <ele>655</ele>
        <time>2026-08-19T12:35:58.344Z</time>
      </trkpt>
      <trkpt lat="45.89151" lon="6.33744">
        <ele>655</ele>
        <time>2026-08-19T12:35:59.344Z</time>
      </trkpt>
      <trkpt lat="45.8915" lon="6.33742">
        <ele>656</ele>
        <time>2026-08-19T12:36:00.344Z</time>
      </trkpt>
      <trkpt lat="45.89148" lon="6.33741">
        <ele>656</ele>
        <time>2026-08-19T12:36:01.344Z</time>
      </trkpt>
      <trkpt lat="45.89147" lon="6.33739">
        <ele>656</ele>
        <time>2026-08-19T12:36:02.344Z</time>
      </trkpt>
      <trkpt lat="45.89144" lon="6.33736">
        <ele>656</ele>
        <time>2026-08-19T12:36:03.344Z</time>
      </trkpt>
      <trkpt lat="45.89143" lon="6.33734">
        <ele>657</ele>
        <time>2026-08-19T12:36:04.344Z</time>
      </trkpt>
      <trkpt lat="45.89142" lon="6.33731">
        <ele>657</ele>
        <time>2026-08-19T12:36:05.344Z</time>
      </trkpt>
      <trkpt lat="45.89141" lon="6.33729">
        <ele>658</ele>
        <time>2026-08-19T12:36:06.344Z</time>
      </trkpt>
      <trkpt lat="45.8914" lon="6.33727">
        <ele>659</ele>
        <time>2026-08-19T12:36:07.344Z</time>
      </trkpt>
      <trkpt lat="45.89139" lon="6.33724">
        <ele>660</ele>
        <time>2026-08-19T12:36:08.344Z</time>
      </trkpt>
      <trkpt lat="45.89137" lon="6.33722">
        <ele>660</ele>
        <time>2026-08-19T12:36:09.344Z</time>
      </trkpt>
      <trkpt lat="45.89136" lon="6.33721">
        <ele>661</ele>
        <time>2026-08-19T12:36:10.344Z</time>
      </trkpt>
      <trkpt lat="45.89135" lon="6.33718">
        <ele>661</ele>
        <time>2026-08-19T12:36:11.344Z</time>
      </trkpt>
      <trkpt lat="45.89134" lon="6.33716">
        <ele>661</ele>
        <time>2026-08-19T12:36:12.344Z</time>
      </trkpt>
      <trkpt lat="45.89133" lon="6.33713">
        <ele>661</ele>
        <time>2026-08-19T12:36:13.344Z</time>
      </trkpt>
      <trkpt lat="45.89132" lon="6.3371">
        <ele>662</ele>
        <time>2026-08-19T12:36:14.344Z</time>
      </trkpt>
      <trkpt lat="45.89131" lon="6.33708">
        <ele>662</ele>
        <time>2026-08-19T12:36:15.345Z</time>
      </trkpt>
      <trkpt lat="45.8913" lon="6.33705">
        <ele>662</ele>
        <time>2026-08-19T12:36:16.344Z</time>
      </trkpt>
      <trkpt lat="45.89128" lon="6.33703">
        <ele>662</ele>
        <time>2026-08-19T12:36:17.344Z</time>
      </trkpt>
      <trkpt lat="45.89127" lon="6.337">
        <ele>663</ele>
        <time>2026-08-19T12:36:18.344Z</time>
      </trkpt>
      <trkpt lat="45.89125" lon="6.33699">
        <ele>663</ele>
        <time>2026-08-19T12:36:19.344Z</time>
      </trkpt>
      <trkpt lat="45.89123" lon="6.33697">
        <ele>663</ele>
        <time>2026-08-19T12:36:20.344Z</time>
      </trkpt>
      <trkpt lat="45.89121" lon="6.33695">
        <ele>664</ele>
        <time>2026-08-19T12:36:21.344Z</time>
      </trkpt>
      <trkpt lat="45.89119" lon="6.33693">
        <ele>664</ele>
        <time>2026-08-19T12:36:22.344Z</time>
      </trkpt>
      <trkpt lat="45.89117" lon="6.33691">
        <ele>664</ele>
        <time>2026-08-19T12:36:23.344Z</time>
      </trkpt>
      <trkpt lat="45.89116" lon="6.3369">
        <ele>664</ele>
        <time>2026-08-19T12:36:24.344Z</time>
      </trkpt>
      <trkpt lat="45.89114" lon="6.33689">
        <ele>664</ele>
        <time>2026-08-19T12:36:25.344Z</time>
      </trkpt>
      <trkpt lat="45.89113" lon="6.33688">
        <ele>664</ele>
        <time>2026-08-19T12:36:26.344Z</time>
      </trkpt>
      <trkpt lat="45.89111" lon="6.33686">
        <ele>663</ele>
        <time>2026-08-19T12:36:27.344Z</time>
      </trkpt>
      <trkpt lat="45.8911" lon="6.33684">
        <ele>663</ele>
        <time>2026-08-19T12:36:28.344Z</time>
      </trkpt>
      <trkpt lat="45.89109" lon="6.33683">
        <ele>663</ele>
        <time>2026-08-19T12:36:29.344Z</time>
      </trkpt>
      <trkpt lat="45.89108" lon="6.33681">
        <ele>663</ele>
        <time>2026-08-19T12:36:30.344Z</time>
      </trkpt>
      <trkpt lat="45.89106" lon="6.3368">
        <ele>663</ele>
        <time>2026-08-19T12:36:31.344Z</time>
      </trkpt>
      <trkpt lat="45.89105" lon="6.33679">
        <ele>663</ele>
        <time>2026-08-19T12:36:32.344Z</time>
      </trkpt>
      <trkpt lat="45.89104" lon="6.33678">
        <ele>663</ele>
        <time>2026-08-19T12:36:33.344Z</time>
      </trkpt>
      <trkpt lat="45.89103" lon="6.33677">
        <ele>663</ele>
        <time>2026-08-19T12:36:34.344Z</time>
      </trkpt>
      <trkpt lat="45.89102" lon="6.33676">
        <ele>662</ele>
        <time>2026-08-19T12:36:35.344Z</time>
      </trkpt>
      <trkpt lat="45.89101" lon="6.33675">
        <ele>662</ele>
        <time>2026-08-19T12:36:36.344Z</time>
      </trkpt>
      <trkpt lat="45.891" lon="6.33673">
        <ele>662</ele>
        <time>2026-08-19T12:36:37.344Z</time>
      </trkpt>
      <trkpt lat="45.89099" lon="6.33672">
        <ele>662</ele>
        <time>2026-08-19T12:36:38.344Z</time>
      </trkpt>
      <trkpt lat="45.89098" lon="6.33671">
        <ele>662</ele>
        <time>2026-08-19T12:36:39.344Z</time>
      </trkpt>
      <trkpt lat="45.89097" lon="6.3367">
        <ele>662</ele>
        <time>2026-08-19T12:36:40.344Z</time>
      </trkpt>
      <trkpt lat="45.89096" lon="6.33669">
        <ele>663</ele>
        <time>2026-08-19T12:36:41.344Z</time>
      </trkpt>
      <trkpt lat="45.89095" lon="6.33668">
        <ele>663</ele>
        <time>2026-08-19T12:36:42.344Z</time>
      </trkpt>
      <trkpt lat="45.89094" lon="6.33666">
        <ele>663</ele>
        <time>2026-08-19T12:36:43.344Z</time>
      </trkpt>
      <trkpt lat="45.89092" lon="6.33664">
        <ele>663</ele>
        <time>2026-08-19T12:36:44.344Z</time>
      </trkpt>
      <trkpt lat="45.89091" lon="6.33661">
        <ele>663</ele>
        <time>2026-08-19T12:36:45.344Z</time>
      </trkpt>
      <trkpt lat="45.89089" lon="6.33658">
        <ele>663</ele>
        <time>2026-08-19T12:36:46.344Z</time>
      </trkpt>
      <trkpt lat="45.89088" lon="6.33657">
        <ele>663</ele>
        <time>2026-08-19T12:36:47.344Z</time>
      </trkpt>
      <trkpt lat="45.89086" lon="6.33656">
        <ele>663</ele>
        <time>2026-08-19T12:36:48.344Z</time>
      </trkpt>
      <trkpt lat="45.89084" lon="6.33654">
        <ele>663</ele>
        <time>2026-08-19T12:36:49.344Z</time>
      </trkpt>
      <trkpt lat="45.89084" lon="6.33652">
        <ele>663</ele>
        <time>2026-08-19T12:36:50.344Z</time>
      </trkpt>
      <trkpt lat="45.89083" lon="6.33651">
        <ele>663</ele>
        <time>2026-08-19T12:36:51.344Z</time>
      </trkpt>
      <trkpt lat="45.89082" lon="6.3365">
        <ele>663</ele>
        <time>2026-08-19T12:36:52.344Z</time>
      </trkpt>
      <trkpt lat="45.89081" lon="6.33649">
        <ele>663</ele>
        <time>2026-08-19T12:36:53.344Z</time>
      </trkpt>
      <trkpt lat="45.8908" lon="6.33648">
        <ele>663</ele>
        <time>2026-08-19T12:36:54.344Z</time>
      </trkpt>
      <trkpt lat="45.89079" lon="6.33648">
        <ele>662</ele>
        <time>2026-08-19T12:36:55.344Z</time>
      </trkpt>
      <trkpt lat="45.89079" lon="6.33647">
        <ele>662</ele>
        <time>2026-08-19T12:36:56.344Z</time>
      </trkpt>
      <trkpt lat="45.89077" lon="6.33646">
        <ele>662</ele>
        <time>2026-08-19T12:36:57.345Z</time>
      </trkpt>
      <trkpt lat="45.89076" lon="6.33645">
        <ele>662</ele>
        <time>2026-08-19T12:36:58.344Z</time>
      </trkpt>
      <trkpt lat="45.89076" lon="6.33645">
        <ele>662</ele>
        <time>2026-08-19T12:36:59.344Z</time>
      </trkpt>
      <trkpt lat="45.89074" lon="6.33643">
        <ele>662</ele>
        <time>2026-08-19T12:37:00.344Z</time>
      </trkpt>
      <trkpt lat="45.89073" lon="6.33643">
        <ele>662</ele>
        <time>2026-08-19T12:37:01.344Z</time>
      </trkpt>
      <trkpt lat="45.89072" lon="6.33642">
        <ele>662</ele>
        <time>2026-08-19T12:37:02.344Z</time>
      </trkpt>
      <trkpt lat="45.8907" lon="6.33641">
        <ele>661</ele>
        <time>2026-08-19T12:37:03.344Z</time>
      </trkpt>
      <trkpt lat="45.89069" lon="6.3364">
        <ele>661</ele>
        <time>2026-08-19T12:37:04.344Z</time>
      </trkpt>
      <trkpt lat="45.89068" lon="6.33639">
        <ele>661</ele>
        <time>2026-08-19T12:37:05.344Z</time>
      </trkpt>
      <trkpt lat="45.89067" lon="6.33638">
        <ele>661</ele>
        <time>2026-08-19T12:37:06.344Z</time>
      </trkpt>
      <trkpt lat="45.89066" lon="6.33637">
        <ele>661</ele>
        <time>2026-08-19T12:37:07.344Z</time>
      </trkpt>
      <trkpt lat="45.89065" lon="6.33636">
        <ele>661</ele>
        <time>2026-08-19T12:37:08.344Z</time>
      </trkpt>
      <trkpt lat="45.89064" lon="6.33636">
        <ele>661</ele>
        <time>2026-08-19T12:37:09.344Z</time>
      </trkpt>
      <trkpt lat="45.89063" lon="6.33635">
        <ele>661</ele>
        <time>2026-08-19T12:37:10.344Z</time>
      </trkpt>
      <trkpt lat="45.89062" lon="6.33634">
        <ele>661</ele>
        <time>2026-08-19T12:37:11.344Z</time>
      </trkpt>
      <trkpt lat="45.89061" lon="6.33632">
        <ele>661</ele>
        <time>2026-08-19T12:37:12.344Z</time>
      </trkpt>
      <trkpt lat="45.8906" lon="6.33631">
        <ele>661</ele>
        <time>2026-08-19T12:37:13.344Z</time>
      </trkpt>
      <trkpt lat="45.89058" lon="6.3363">
        <ele>661</ele>
        <time>2026-08-19T12:37:14.344Z</time>
      </trkpt>
      <trkpt lat="45.89057" lon="6.33629">
        <ele>661</ele>
        <time>2026-08-19T12:37:15.344Z</time>
      </trkpt>
      <trkpt lat="45.89057" lon="6.33628">
        <ele>662</ele>
        <time>2026-08-19T12:37:16.344Z</time>
      </trkpt>
      <trkpt lat="45.89056" lon="6.33627">
        <ele>662</ele>
        <time>2026-08-19T12:37:17.344Z</time>
      </trkpt>
      <trkpt lat="45.89055" lon="6.33626">
        <ele>662</ele>
        <time>2026-08-19T12:37:18.344Z</time>
      </trkpt>
      <trkpt lat="45.89054" lon="6.33625">
        <ele>662</ele>
        <time>2026-08-19T12:37:19.344Z</time>
      </trkpt>
      <trkpt lat="45.89053" lon="6.33624">
        <ele>662</ele>
        <time>2026-08-19T12:37:20.344Z</time>
      </trkpt>
      <trkpt lat="45.89052" lon="6.33623">
        <ele>662</ele>
        <time>2026-08-19T12:37:21.344Z</time>
      </trkpt>
      <trkpt lat="45.89052" lon="6.33622">
        <ele>661</ele>
        <time>2026-08-19T12:37:22.344Z</time>
      </trkpt>
      <trkpt lat="45.89051" lon="6.33621">
        <ele>661</ele>
        <time>2026-08-19T12:37:23.344Z</time>
      </trkpt>
      <trkpt lat="45.8905" lon="6.3362">
        <ele>661</ele>
        <time>2026-08-19T12:37:24.344Z</time>
      </trkpt>
      <trkpt lat="45.89049" lon="6.33619">
        <ele>661</ele>
        <time>2026-08-19T12:37:25.344Z</time>
      </trkpt>
      <trkpt lat="45.89048" lon="6.33618">
        <ele>661</ele>
        <time>2026-08-19T12:37:26.344Z</time>
      </trkpt>
      <trkpt lat="45.89047" lon="6.33616">
        <ele>660</ele>
        <time>2026-08-19T12:37:27.344Z</time>
      </trkpt>
      <trkpt lat="45.89046" lon="6.33614">
        <ele>660</ele>
        <time>2026-08-19T12:37:28.344Z</time>
      </trkpt>
      <trkpt lat="45.89045" lon="6.33613">
        <ele>660</ele>
        <time>2026-08-19T12:37:29.344Z</time>
      </trkpt>
      <trkpt lat="45.89044" lon="6.33612">
        <ele>660</ele>
        <time>2026-08-19T12:37:30.344Z</time>
      </trkpt>
      <trkpt lat="45.89043" lon="6.33612">
        <ele>660</ele>
        <time>2026-08-19T12:37:31.344Z</time>
      </trkpt>
      <trkpt lat="45.89042" lon="6.3361">
        <ele>660</ele>
        <time>2026-08-19T12:37:32.344Z</time>
      </trkpt>
      <trkpt lat="45.89041" lon="6.33609">
        <ele>659</ele>
        <time>2026-08-19T12:37:33.345Z</time>
      </trkpt>
      <trkpt lat="45.8904" lon="6.33607">
        <ele>659</ele>
        <time>2026-08-19T12:37:34.344Z</time>
      </trkpt>
      <trkpt lat="45.89039" lon="6.33607">
        <ele>660</ele>
        <time>2026-08-19T12:37:35.344Z</time>
      </trkpt>
      <trkpt lat="45.89038" lon="6.33606">
        <ele>660</ele>
        <time>2026-08-19T12:37:36.344Z</time>
      </trkpt>
      <trkpt lat="45.89037" lon="6.33605">
        <ele>660</ele>
        <time>2026-08-19T12:37:37.344Z</time>
      </trkpt>
      <trkpt lat="45.89036" lon="6.33603">
        <ele>660</ele>
        <time>2026-08-19T12:37:38.344Z</time>
      </trkpt>
      <trkpt lat="45.89035" lon="6.33602">
        <ele>661</ele>
        <time>2026-08-19T12:37:39.344Z</time>
      </trkpt>
      <trkpt lat="45.89034" lon="6.33601">
        <ele>661</ele>
        <time>2026-08-19T12:37:40.344Z</time>
      </trkpt>
      <trkpt lat="45.89033" lon="6.336">
        <ele>661</ele>
        <time>2026-08-19T12:37:41.344Z</time>
      </trkpt>
      <trkpt lat="45.89032" lon="6.33599">
        <ele>662</ele>
        <time>2026-08-19T12:37:42.344Z</time>
      </trkpt>
      <trkpt lat="45.89031" lon="6.33598">
        <ele>662</ele>
        <time>2026-08-19T12:37:43.344Z</time>
      </trkpt>
      <trkpt lat="45.8903" lon="6.33597">
        <ele>662</ele>
        <time>2026-08-19T12:37:44.344Z</time>
      </trkpt>
      <trkpt lat="45.89029" lon="6.33595">
        <ele>663</ele>
        <time>2026-08-19T12:37:45.344Z</time>
      </trkpt>
      <trkpt lat="45.89029" lon="6.33595">
        <ele>663</ele>
        <time>2026-08-19T12:37:46.344Z</time>
      </trkpt>
      <trkpt lat="45.89028" lon="6.33594">
        <ele>663</ele>
        <time>2026-08-19T12:37:47.344Z</time>
      </trkpt>
      <trkpt lat="45.89027" lon="6.33593">
        <ele>664</ele>
        <time>2026-08-19T12:37:48.344Z</time>
      </trkpt>
      <trkpt lat="45.89027" lon="6.33592">
        <ele>664</ele>
        <time>2026-08-19T12:37:49.344Z</time>
      </trkpt>
      <trkpt lat="45.89026" lon="6.33592">
        <ele>664</ele>
        <time>2026-08-19T12:37:50.344Z</time>
      </trkpt>
      <trkpt lat="45.89025" lon="6.3359">
        <ele>664</ele>
        <time>2026-08-19T12:37:51.344Z</time>
      </trkpt>
      <trkpt lat="45.89024" lon="6.33589">
        <ele>665</ele>
        <time>2026-08-19T12:37:52.344Z</time>
      </trkpt>
      <trkpt lat="45.89023" lon="6.33588">
        <ele>665</ele>
        <time>2026-08-19T12:37:53.344Z</time>
      </trkpt>
      <trkpt lat="45.89022" lon="6.33587">
        <ele>665</ele>
        <time>2026-08-19T12:37:54.344Z</time>
      </trkpt>
      <trkpt lat="45.89021" lon="6.33586">
        <ele>666</ele>
        <time>2026-08-19T12:37:55.344Z</time>
      </trkpt>
      <trkpt lat="45.89019" lon="6.33586">
        <ele>666</ele>
        <time>2026-08-19T12:37:56.344Z</time>
      </trkpt>
      <trkpt lat="45.89018" lon="6.33584">
        <ele>666</ele>
        <time>2026-08-19T12:37:57.345Z</time>
      </trkpt>
      <trkpt lat="45.89017" lon="6.33583">
        <ele>666</ele>
        <time>2026-08-19T12:37:58.344Z</time>
      </trkpt>
      <trkpt lat="45.89016" lon="6.33582">
        <ele>666</ele>
        <time>2026-08-19T12:37:59.344Z</time>
      </trkpt>
      <trkpt lat="45.89016" lon="6.33581">
        <ele>666</ele>
        <time>2026-08-19T12:38:00.344Z</time>
      </trkpt>
      <trkpt lat="45.89015" lon="6.3358">
        <ele>666</ele>
        <time>2026-08-19T12:38:01.344Z</time>
      </trkpt>
      <trkpt lat="45.89014" lon="6.3358">
        <ele>666</ele>
        <time>2026-08-19T12:38:02.344Z</time>
      </trkpt>
      <trkpt lat="45.89013" lon="6.3358">
        <ele>666</ele>
        <time>2026-08-19T12:38:03.345Z</time>
      </trkpt>
      <trkpt lat="45.89013" lon="6.3358">
        <ele>666</ele>
        <time>2026-08-19T12:38:04.344Z</time>
      </trkpt>
      <trkpt lat="45.89012" lon="6.3358">
        <ele>666</ele>
        <time>2026-08-19T12:38:05.344Z</time>
      </trkpt>
      <trkpt lat="45.89011" lon="6.33579">
        <ele>666</ele>
        <time>2026-08-19T12:38:06.344Z</time>
      </trkpt>
      <trkpt lat="45.8901" lon="6.33579">
        <ele>666</ele>
        <time>2026-08-19T12:38:07.344Z</time>
      </trkpt>
      <trkpt lat="45.8901" lon="6.33579">
        <ele>666</ele>
        <time>2026-08-19T12:38:08.344Z</time>
      </trkpt>
      <trkpt lat="45.89009" lon="6.33579">
        <ele>666</ele>
        <time>2026-08-19T12:38:09.344Z</time>
      </trkpt>
      <trkpt lat="45.89008" lon="6.33578">
        <ele>666</ele>
        <time>2026-08-19T12:38:10.344Z</time>
      </trkpt>
      <trkpt lat="45.89007" lon="6.33578">
        <ele>665</ele>
        <time>2026-08-19T12:38:11.344Z</time>
      </trkpt>
      <trkpt lat="45.89006" lon="6.33578">
        <ele>665</ele>
        <time>2026-08-19T12:38:12.344Z</time>
      </trkpt>
      <trkpt lat="45.89005" lon="6.33577">
        <ele>665</ele>
        <time>2026-08-19T12:38:13.345Z</time>
      </trkpt>
      <trkpt lat="45.89004" lon="6.33577">
        <ele>664</ele>
        <time>2026-08-19T12:38:14.344Z</time>
      </trkpt>
      <trkpt lat="45.89003" lon="6.33576">
        <ele>664</ele>
        <time>2026-08-19T12:38:15.344Z</time>
      </trkpt>
      <trkpt lat="45.89002" lon="6.33575">
        <ele>664</ele>
        <time>2026-08-19T12:38:16.344Z</time>
      </trkpt>
      <trkpt lat="45.89002" lon="6.33574">
        <ele>664</ele>
        <time>2026-08-19T12:38:17.344Z</time>
      </trkpt>
      <trkpt lat="45.89002" lon="6.33572">
        <ele>664</ele>
        <time>2026-08-19T12:38:18.345Z</time>
      </trkpt>
      <trkpt lat="45.89002" lon="6.3357">
        <ele>664</ele>
        <time>2026-08-19T12:38:19.344Z</time>
      </trkpt>
      <trkpt lat="45.89002" lon="6.33568">
        <ele>665</ele>
        <time>2026-08-19T12:38:20.344Z</time>
      </trkpt>
      <trkpt lat="45.89001" lon="6.33566">
        <ele>665</ele>
        <time>2026-08-19T12:38:21.344Z</time>
      </trkpt>
      <trkpt lat="45.89001" lon="6.33564">
        <ele>665</ele>
        <time>2026-08-19T12:38:22.344Z</time>
      </trkpt>
      <trkpt lat="45.89001" lon="6.33562">
        <ele>665</ele>
        <time>2026-08-19T12:38:23.344Z</time>
      </trkpt>
      <trkpt lat="45.89001" lon="6.33559">
        <ele>665</ele>
        <time>2026-08-19T12:38:24.344Z</time>
      </trkpt>
      <trkpt lat="45.89" lon="6.33557">
        <ele>665</ele>
        <time>2026-08-19T12:38:25.344Z</time>
      </trkpt>
      <trkpt lat="45.89" lon="6.33554">
        <ele>665</ele>
        <time>2026-08-19T12:38:26.344Z</time>
      </trkpt>
      <trkpt lat="45.89" lon="6.33552">
        <ele>666</ele>
        <time>2026-08-19T12:38:27.344Z</time>
      </trkpt>
      <trkpt lat="45.88999" lon="6.3355">
        <ele>666</ele>
        <time>2026-08-19T12:38:28.344Z</time>
      </trkpt>
      <trkpt lat="45.88998" lon="6.33548">
        <ele>666</ele>
        <time>2026-08-19T12:38:29.344Z</time>
      </trkpt>
      <trkpt lat="45.88998" lon="6.33546">
        <ele>666</ele>
        <time>2026-08-19T12:38:30.344Z</time>
      </trkpt>
      <trkpt lat="45.88997" lon="6.33544">
        <ele>666</ele>
        <time>2026-08-19T12:38:31.344Z</time>
      </trkpt>
      <trkpt lat="45.88996" lon="6.33542">
        <ele>665</ele>
        <time>2026-08-19T12:38:32.344Z</time>
      </trkpt>
      <trkpt lat="45.88995" lon="6.3354">
        <ele>665</ele>
        <time>2026-08-19T12:38:33.344Z</time>
      </trkpt>
      <trkpt lat="45.88993" lon="6.33538">
        <ele>665</ele>
        <time>2026-08-19T12:38:34.344Z</time>
      </trkpt>
      <trkpt lat="45.88992" lon="6.33536">
        <ele>665</ele>
        <time>2026-08-19T12:38:35.344Z</time>
      </trkpt>
      <trkpt lat="45.8899" lon="6.33534">
        <ele>664</ele>
        <time>2026-08-19T12:38:36.344Z</time>
      </trkpt>
      <trkpt lat="45.88989" lon="6.33533">
        <ele>664</ele>
        <time>2026-08-19T12:38:37.344Z</time>
      </trkpt>
      <trkpt lat="45.88987" lon="6.33531">
        <ele>663</ele>
        <time>2026-08-19T12:38:38.344Z</time>
      </trkpt>
      <trkpt lat="45.88986" lon="6.33528">
        <ele>663</ele>
        <time>2026-08-19T12:38:39.344Z</time>
      </trkpt>
      <trkpt lat="45.88985" lon="6.33526">
        <ele>662</ele>
        <time>2026-08-19T12:38:40.344Z</time>
      </trkpt>
      <trkpt lat="45.88983" lon="6.33525">
        <ele>661</ele>
        <time>2026-08-19T12:38:41.344Z</time>
      </trkpt>
      <trkpt lat="45.88981" lon="6.33524">
        <ele>661</ele>
        <time>2026-08-19T12:38:42.344Z</time>
      </trkpt>
      <trkpt lat="45.8898" lon="6.33522">
        <ele>660</ele>
        <time>2026-08-19T12:38:43.345Z</time>
      </trkpt>
      <trkpt lat="45.88979" lon="6.3352">
        <ele>660</ele>
        <time>2026-08-19T12:38:44.344Z</time>
      </trkpt>
      <trkpt lat="45.88977" lon="6.33519">
        <ele>660</ele>
        <time>2026-08-19T12:38:45.344Z</time>
      </trkpt>
      <trkpt lat="45.88975" lon="6.33517">
        <ele>660</ele>
        <time>2026-08-19T12:38:46.344Z</time>
      </trkpt>
      <trkpt lat="45.88973" lon="6.33516">
        <ele>661</ele>
        <time>2026-08-19T12:38:47.344Z</time>
      </trkpt>
      <trkpt lat="45.88971" lon="6.33514">
        <ele>661</ele>
        <time>2026-08-19T12:38:48.344Z</time>
      </trkpt>
      <trkpt lat="45.8897" lon="6.33511">
        <ele>660</ele>
        <time>2026-08-19T12:38:49.344Z</time>
      </trkpt>
      <trkpt lat="45.8897" lon="6.33508">
        <ele>660</ele>
        <time>2026-08-19T12:38:50.344Z</time>
      </trkpt>
      <trkpt lat="45.88968" lon="6.33506">
        <ele>660</ele>
        <time>2026-08-19T12:38:51.344Z</time>
      </trkpt>
      <trkpt lat="45.88966" lon="6.33505">
        <ele>659</ele>
        <time>2026-08-19T12:38:52.344Z</time>
      </trkpt>
      <trkpt lat="45.88964" lon="6.33502">
        <ele>659</ele>
        <time>2026-08-19T12:38:53.344Z</time>
      </trkpt>
      <trkpt lat="45.88963" lon="6.335">
        <ele>659</ele>
        <time>2026-08-19T12:38:54.344Z</time>
      </trkpt>
      <trkpt lat="45.88962" lon="6.33497">
        <ele>658</ele>
        <time>2026-08-19T12:38:55.344Z</time>
      </trkpt>
      <trkpt lat="45.88961" lon="6.33494">
        <ele>658</ele>
        <time>2026-08-19T12:38:56.344Z</time>
      </trkpt>
      <trkpt lat="45.8896" lon="6.33491">
        <ele>657</ele>
        <time>2026-08-19T12:38:57.344Z</time>
      </trkpt>
      <trkpt lat="45.88959" lon="6.33489">
        <ele>657</ele>
        <time>2026-08-19T12:38:58.344Z</time>
      </trkpt>
      <trkpt lat="45.88958" lon="6.33486">
        <ele>656</ele>
        <time>2026-08-19T12:38:59.344Z</time>
      </trkpt>
      <trkpt lat="45.88957" lon="6.33484">
        <ele>656</ele>
        <time>2026-08-19T12:39:00.344Z</time>
      </trkpt>
      <trkpt lat="45.88955" lon="6.33481">
        <ele>656</ele>
        <time>2026-08-19T12:39:01.344Z</time>
      </trkpt>
      <trkpt lat="45.88954" lon="6.33478">
        <ele>655</ele>
        <time>2026-08-19T12:39:02.344Z</time>
      </trkpt>
      <trkpt lat="45.88954" lon="6.33475">
        <ele>655</ele>
        <time>2026-08-19T12:39:03.344Z</time>
      </trkpt>
      <trkpt lat="45.88953" lon="6.33473">
        <ele>655</ele>
        <time>2026-08-19T12:39:04.344Z</time>
      </trkpt>
      <trkpt lat="45.88951" lon="6.33469">
        <ele>655</ele>
        <time>2026-08-19T12:39:05.344Z</time>
      </trkpt>
      <trkpt lat="45.8895" lon="6.33467">
        <ele>655</ele>
        <time>2026-08-19T12:39:06.344Z</time>
      </trkpt>
      <trkpt lat="45.8895" lon="6.33464">
        <ele>655</ele>
        <time>2026-08-19T12:39:07.344Z</time>
      </trkpt>
      <trkpt lat="45.88949" lon="6.33461">
        <ele>655</ele>
        <time>2026-08-19T12:39:08.344Z</time>
      </trkpt>
      <trkpt lat="45.88948" lon="6.33458">
        <ele>655</ele>
        <time>2026-08-19T12:39:09.344Z</time>
      </trkpt>
      <trkpt lat="45.88947" lon="6.33454">
        <ele>655</ele>
        <time>2026-08-19T12:39:10.344Z</time>
      </trkpt>
      <trkpt lat="45.88946" lon="6.33452">
        <ele>654</ele>
        <time>2026-08-19T12:39:11.344Z</time>
      </trkpt>
      <trkpt lat="45.88946" lon="6.33449">
        <ele>654</ele>
        <time>2026-08-19T12:39:12.344Z</time>
      </trkpt>
      <trkpt lat="45.88945" lon="6.33446">
        <ele>654</ele>
        <time>2026-08-19T12:39:13.344Z</time>
      </trkpt>
      <trkpt lat="45.88944" lon="6.33443">
        <ele>654</ele>
        <time>2026-08-19T12:39:14.345Z</time>
      </trkpt>
      <trkpt lat="45.88943" lon="6.3344">
        <ele>654</ele>
        <time>2026-08-19T12:39:15.344Z</time>
      </trkpt>
      <trkpt lat="45.88942" lon="6.33438">
        <ele>654</ele>
        <time>2026-08-19T12:39:16.344Z</time>
      </trkpt>
      <trkpt lat="45.8894" lon="6.33436">
        <ele>654</ele>
        <time>2026-08-19T12:39:17.344Z</time>
      </trkpt>
      <trkpt lat="45.88939" lon="6.33433">
        <ele>654</ele>
        <time>2026-08-19T12:39:18.344Z</time>
      </trkpt>
      <trkpt lat="45.88938" lon="6.33431">
        <ele>654</ele>
        <time>2026-08-19T12:39:19.344Z</time>
      </trkpt>
      <trkpt lat="45.88937" lon="6.33428">
        <ele>654</ele>
        <time>2026-08-19T12:39:20.344Z</time>
      </trkpt>
      <trkpt lat="45.88936" lon="6.33425">
        <ele>655</ele>
        <time>2026-08-19T12:39:21.344Z</time>
      </trkpt>
      <trkpt lat="45.88935" lon="6.33423">
        <ele>655</ele>
        <time>2026-08-19T12:39:22.344Z</time>
      </trkpt>
      <trkpt lat="45.88934" lon="6.3342">
        <ele>654</ele>
        <time>2026-08-19T12:39:23.344Z</time>
      </trkpt>
      <trkpt lat="45.88933" lon="6.33416">
        <ele>654</ele>
        <time>2026-08-19T12:39:24.344Z</time>
      </trkpt>
      <trkpt lat="45.88932" lon="6.33413">
        <ele>654</ele>
        <time>2026-08-19T12:39:25.344Z</time>
      </trkpt>
      <trkpt lat="45.88931" lon="6.33411">
        <ele>654</ele>
        <time>2026-08-19T12:39:26.344Z</time>
      </trkpt>
      <trkpt lat="45.88931" lon="6.33409">
        <ele>654</ele>
        <time>2026-08-19T12:39:27.344Z</time>
      </trkpt>
      <trkpt lat="45.88929" lon="6.33406">
        <ele>654</ele>
        <time>2026-08-19T12:39:28.344Z</time>
      </trkpt>
      <trkpt lat="45.88928" lon="6.33405">
        <ele>655</ele>
        <time>2026-08-19T12:39:29.344Z</time>
      </trkpt>
      <trkpt lat="45.88926" lon="6.33403">
        <ele>655</ele>
        <time>2026-08-19T12:39:30.344Z</time>
      </trkpt>
      <trkpt lat="45.88924" lon="6.33402">
        <ele>655</ele>
        <time>2026-08-19T12:39:31.344Z</time>
      </trkpt>
      <trkpt lat="45.88923" lon="6.33399">
        <ele>654</ele>
        <time>2026-08-19T12:39:32.344Z</time>
      </trkpt>
      <trkpt lat="45.88921" lon="6.33397">
        <ele>654</ele>
        <time>2026-08-19T12:39:33.344Z</time>
      </trkpt>
      <trkpt lat="45.8892" lon="6.33393">
        <ele>654</ele>
        <time>2026-08-19T12:39:34.344Z</time>
      </trkpt>
      <trkpt lat="45.8892" lon="6.3339">
        <ele>654</ele>
        <time>2026-08-19T12:39:35.344Z</time>
      </trkpt>
      <trkpt lat="45.88918" lon="6.33388">
        <ele>653</ele>
        <time>2026-08-19T12:39:36.345Z</time>
      </trkpt>
      <trkpt lat="45.88917" lon="6.33386">
        <ele>653</ele>
        <time>2026-08-19T12:39:37.344Z</time>
      </trkpt>
      <trkpt lat="45.88915" lon="6.33384">
        <ele>653</ele>
        <time>2026-08-19T12:39:38.344Z</time>
      </trkpt>
      <trkpt lat="45.88913" lon="6.33382">
        <ele>653</ele>
        <time>2026-08-19T12:39:39.344Z</time>
      </trkpt>
      <trkpt lat="45.88912" lon="6.33381">
        <ele>653</ele>
        <time>2026-08-19T12:39:40.344Z</time>
      </trkpt>
      <trkpt lat="45.8891" lon="6.33379">
        <ele>653</ele>
        <time>2026-08-19T12:39:41.344Z</time>
      </trkpt>
      <trkpt lat="45.88908" lon="6.33377">
        <ele>653</ele>
        <time>2026-08-19T12:39:42.344Z</time>
      </trkpt>
      <trkpt lat="45.88907" lon="6.33374">
        <ele>653</ele>
        <time>2026-08-19T12:39:43.344Z</time>
      </trkpt>
      <trkpt lat="45.88906" lon="6.33372">
        <ele>653</ele>
        <time>2026-08-19T12:39:44.344Z</time>
      </trkpt>
      <trkpt lat="45.88904" lon="6.33368">
        <ele>653</ele>
        <time>2026-08-19T12:39:45.344Z</time>
      </trkpt>
      <trkpt lat="45.88903" lon="6.33365">
        <ele>653</ele>
        <time>2026-08-19T12:39:46.344Z</time>
      </trkpt>
      <trkpt lat="45.88902" lon="6.33363">
        <ele>653</ele>
        <time>2026-08-19T12:39:47.344Z</time>
      </trkpt>
      <trkpt lat="45.88901" lon="6.3336">
        <ele>654</ele>
        <time>2026-08-19T12:39:48.344Z</time>
      </trkpt>
      <trkpt lat="45.889" lon="6.33357">
        <ele>654</ele>
        <time>2026-08-19T12:39:49.344Z</time>
      </trkpt>
      <trkpt lat="45.88899" lon="6.33354">
        <ele>654</ele>
        <time>2026-08-19T12:39:50.344Z</time>
      </trkpt>
      <trkpt lat="45.88898" lon="6.33351">
        <ele>653</ele>
        <time>2026-08-19T12:39:51.344Z</time>
      </trkpt>
      <trkpt lat="45.88897" lon="6.33348">
        <ele>653</ele>
        <time>2026-08-19T12:39:52.344Z</time>
      </trkpt>
      <trkpt lat="45.88895" lon="6.33346">
        <ele>653</ele>
        <time>2026-08-19T12:39:53.344Z</time>
      </trkpt>
      <trkpt lat="45.88894" lon="6.33344">
        <ele>652</ele>
        <time>2026-08-19T12:39:54.344Z</time>
      </trkpt>
      <trkpt lat="45.88893" lon="6.33341">
        <ele>652</ele>
        <time>2026-08-19T12:39:55.344Z</time>
      </trkpt>
      <trkpt lat="45.88892" lon="6.33339">
        <ele>652</ele>
        <time>2026-08-19T12:39:56.344Z</time>
      </trkpt>
      <trkpt lat="45.8889" lon="6.33337">
        <ele>653</ele>
        <time>2026-08-19T12:39:57.344Z</time>
      </trkpt>
      <trkpt lat="45.88889" lon="6.33334">
        <ele>653</ele>
        <time>2026-08-19T12:39:58.344Z</time>
      </trkpt>
      <trkpt lat="45.88888" lon="6.33332">
        <ele>653</ele>
        <time>2026-08-19T12:39:59.344Z</time>
      </trkpt>
      <trkpt lat="45.88886" lon="6.33328">
        <ele>653</ele>
        <time>2026-08-19T12:40:00.344Z</time>
      </trkpt>
      <trkpt lat="45.88885" lon="6.33325">
        <ele>652</ele>
        <time>2026-08-19T12:40:01.344Z</time>
      </trkpt>
      <trkpt lat="45.88885" lon="6.33321">
        <ele>652</ele>
        <time>2026-08-19T12:40:02.344Z</time>
      </trkpt>
      <trkpt lat="45.88885" lon="6.33318">
        <ele>652</ele>
        <time>2026-08-19T12:40:03.344Z</time>
      </trkpt>
      <trkpt lat="45.88884" lon="6.33315">
        <ele>651</ele>
        <time>2026-08-19T12:40:04.345Z</time>
      </trkpt>
      <trkpt lat="45.88882" lon="6.33313">
        <ele>651</ele>
        <time>2026-08-19T12:40:05.344Z</time>
      </trkpt>
      <trkpt lat="45.88881" lon="6.3331">
        <ele>651</ele>
        <time>2026-08-19T12:40:06.344Z</time>
      </trkpt>
      <trkpt lat="45.8888" lon="6.33307">
        <ele>651</ele>
        <time>2026-08-19T12:40:07.344Z</time>
      </trkpt>
      <trkpt lat="45.88879" lon="6.33304">
        <ele>650</ele>
        <time>2026-08-19T12:40:08.344Z</time>
      </trkpt>
      <trkpt lat="45.88877" lon="6.33302">
        <ele>650</ele>
        <time>2026-08-19T12:40:09.344Z</time>
      </trkpt>
      <trkpt lat="45.88876" lon="6.333">
        <ele>650</ele>
        <time>2026-08-19T12:40:10.344Z</time>
      </trkpt>
      <trkpt lat="45.88874" lon="6.33298">
        <ele>650</ele>
        <time>2026-08-19T12:40:11.344Z</time>
      </trkpt>
      <trkpt lat="45.88872" lon="6.33296">
        <ele>650</ele>
        <time>2026-08-19T12:40:12.344Z</time>
      </trkpt>
      <trkpt lat="45.88869" lon="6.33294">
        <ele>650</ele>
        <time>2026-08-19T12:40:13.344Z</time>
      </trkpt>
      <trkpt lat="45.88867" lon="6.33292">
        <ele>650</ele>
        <time>2026-08-19T12:40:14.344Z</time>
      </trkpt>
      <trkpt lat="45.88866" lon="6.3329">
        <ele>650</ele>
        <time>2026-08-19T12:40:15.344Z</time>
      </trkpt>
      <trkpt lat="45.88865" lon="6.33288">
        <ele>650</ele>
        <time>2026-08-19T12:40:16.344Z</time>
      </trkpt>
      <trkpt lat="45.88863" lon="6.33286">
        <ele>650</ele>
        <time>2026-08-19T12:40:17.344Z</time>
      </trkpt>
      <trkpt lat="45.88861" lon="6.33284">
        <ele>650</ele>
        <time>2026-08-19T12:40:18.344Z</time>
      </trkpt>
      <trkpt lat="45.88859" lon="6.33282">
        <ele>650</ele>
        <time>2026-08-19T12:40:19.344Z</time>
      </trkpt>
      <trkpt lat="45.88857" lon="6.33279">
        <ele>650</ele>
        <time>2026-08-19T12:40:20.344Z</time>
      </trkpt>
      <trkpt lat="45.88856" lon="6.33277">
        <ele>650</ele>
        <time>2026-08-19T12:40:21.344Z</time>
      </trkpt>
      <trkpt lat="45.88854" lon="6.33275">
        <ele>650</ele>
        <time>2026-08-19T12:40:22.344Z</time>
      </trkpt>
      <trkpt lat="45.88852" lon="6.33273">
        <ele>650</ele>
        <time>2026-08-19T12:40:23.344Z</time>
      </trkpt>
      <trkpt lat="45.8885" lon="6.33272">
        <ele>650</ele>
        <time>2026-08-19T12:40:24.344Z</time>
      </trkpt>
      <trkpt lat="45.88849" lon="6.3327">
        <ele>650</ele>
        <time>2026-08-19T12:40:25.344Z</time>
      </trkpt>
      <trkpt lat="45.88847" lon="6.33268">
        <ele>650</ele>
        <time>2026-08-19T12:40:26.344Z</time>
      </trkpt>
      <trkpt lat="45.88845" lon="6.33266">
        <ele>650</ele>
        <time>2026-08-19T12:40:27.344Z</time>
      </trkpt>
      <trkpt lat="45.88843" lon="6.33264">
        <ele>650</ele>
        <time>2026-08-19T12:40:28.344Z</time>
      </trkpt>
      <trkpt lat="45.88842" lon="6.33262">
        <ele>649</ele>
        <time>2026-08-19T12:40:29.345Z</time>
      </trkpt>
      <trkpt lat="45.88841" lon="6.3326">
        <ele>649</ele>
        <time>2026-08-19T12:40:30.344Z</time>
      </trkpt>
      <trkpt lat="45.88839" lon="6.33258">
        <ele>649</ele>
        <time>2026-08-19T12:40:31.344Z</time>
      </trkpt>
      <trkpt lat="45.88838" lon="6.33255">
        <ele>648</ele>
        <time>2026-08-19T12:40:32.344Z</time>
      </trkpt>
      <trkpt lat="45.88836" lon="6.33253">
        <ele>648</ele>
        <time>2026-08-19T12:40:33.344Z</time>
      </trkpt>
      <trkpt lat="45.88835" lon="6.33251">
        <ele>647</ele>
        <time>2026-08-19T12:40:34.344Z</time>
      </trkpt>
      <trkpt lat="45.88833" lon="6.33248">
        <ele>647</ele>
        <time>2026-08-19T12:40:35.344Z</time>
      </trkpt>
      <trkpt lat="45.88832" lon="6.33246">
        <ele>647</ele>
        <time>2026-08-19T12:40:36.344Z</time>
      </trkpt>
      <trkpt lat="45.8883" lon="6.33244">
        <ele>647</ele>
        <time>2026-08-19T12:40:37.344Z</time>
      </trkpt>
      <trkpt lat="45.88828" lon="6.33243">
        <ele>647</ele>
        <time>2026-08-19T12:40:38.344Z</time>
      </trkpt>
      <trkpt lat="45.88827" lon="6.33241">
        <ele>646</ele>
        <time>2026-08-19T12:40:39.344Z</time>
      </trkpt>
      <trkpt lat="45.88826" lon="6.33239">
        <ele>646</ele>
        <time>2026-08-19T12:40:40.344Z</time>
      </trkpt>
      <trkpt lat="45.88824" lon="6.33236">
        <ele>646</ele>
        <time>2026-08-19T12:40:41.344Z</time>
      </trkpt>
      <trkpt lat="45.88822" lon="6.33234">
        <ele>645</ele>
        <time>2026-08-19T12:40:42.344Z</time>
      </trkpt>
      <trkpt lat="45.88821" lon="6.33232">
        <ele>645</ele>
        <time>2026-08-19T12:40:43.344Z</time>
      </trkpt>
      <trkpt lat="45.88819" lon="6.33229">
        <ele>645</ele>
        <time>2026-08-19T12:40:44.345Z</time>
      </trkpt>
      <trkpt lat="45.88818" lon="6.33227">
        <ele>645</ele>
        <time>2026-08-19T12:40:45.344Z</time>
      </trkpt>
      <trkpt lat="45.88817" lon="6.33225">
        <ele>645</ele>
        <time>2026-08-19T12:40:46.344Z</time>
      </trkpt>
      <trkpt lat="45.88815" lon="6.33222">
        <ele>645</ele>
        <time>2026-08-19T12:40:47.344Z</time>
      </trkpt>
      <trkpt lat="45.88814" lon="6.3322">
        <ele>646</ele>
        <time>2026-08-19T12:40:48.344Z</time>
      </trkpt>
      <trkpt lat="45.88812" lon="6.33218">
        <ele>646</ele>
        <time>2026-08-19T12:40:49.344Z</time>
      </trkpt>
      <trkpt lat="45.88811" lon="6.33216">
        <ele>646</ele>
        <time>2026-08-19T12:40:50.344Z</time>
      </trkpt>
      <trkpt lat="45.8881" lon="6.33213">
        <ele>646</ele>
        <time>2026-08-19T12:40:51.344Z</time>
      </trkpt>
      <trkpt lat="45.88808" lon="6.33211">
        <ele>646</ele>
        <time>2026-08-19T12:40:52.344Z</time>
      </trkpt>
      <trkpt lat="45.88806" lon="6.33209">
        <ele>646</ele>
        <time>2026-08-19T12:40:53.344Z</time>
      </trkpt>
      <trkpt lat="45.88805" lon="6.33207">
        <ele>646</ele>
        <time>2026-08-19T12:40:54.344Z</time>
      </trkpt>
      <trkpt lat="45.88803" lon="6.33205">
        <ele>645</ele>
        <time>2026-08-19T12:40:55.345Z</time>
      </trkpt>
      <trkpt lat="45.88802" lon="6.33203">
        <ele>645</ele>
        <time>2026-08-19T12:40:56.344Z</time>
      </trkpt>
      <trkpt lat="45.888" lon="6.33201">
        <ele>645</ele>
        <time>2026-08-19T12:40:57.344Z</time>
      </trkpt>
      <trkpt lat="45.88798" lon="6.332">
        <ele>645</ele>
        <time>2026-08-19T12:40:58.344Z</time>
      </trkpt>
      <trkpt lat="45.88796" lon="6.33199">
        <ele>645</ele>
        <time>2026-08-19T12:40:59.344Z</time>
      </trkpt>
      <trkpt lat="45.88794" lon="6.33197">
        <ele>645</ele>
        <time>2026-08-19T12:41:00.344Z</time>
      </trkpt>
      <trkpt lat="45.88792" lon="6.33195">
        <ele>645</ele>
        <time>2026-08-19T12:41:01.344Z</time>
      </trkpt>
      <trkpt lat="45.88791" lon="6.33193">
        <ele>645</ele>
        <time>2026-08-19T12:41:02.344Z</time>
      </trkpt>
      <trkpt lat="45.88789" lon="6.33191">
        <ele>645</ele>
        <time>2026-08-19T12:41:03.344Z</time>
      </trkpt>
      <trkpt lat="45.88788" lon="6.33189">
        <ele>646</ele>
        <time>2026-08-19T12:41:04.344Z</time>
      </trkpt>
      <trkpt lat="45.88786" lon="6.33186">
        <ele>646</ele>
        <time>2026-08-19T12:41:05.344Z</time>
      </trkpt>
      <trkpt lat="45.88785" lon="6.33184">
        <ele>646</ele>
        <time>2026-08-19T12:41:06.344Z</time>
      </trkpt>
      <trkpt lat="45.88783" lon="6.33183">
        <ele>646</ele>
        <time>2026-08-19T12:41:07.344Z</time>
      </trkpt>
      <trkpt lat="45.88781" lon="6.33182">
        <ele>646</ele>
        <time>2026-08-19T12:41:08.344Z</time>
      </trkpt>
      <trkpt lat="45.88779" lon="6.3318">
        <ele>646</ele>
        <time>2026-08-19T12:41:09.345Z</time>
      </trkpt>
      <trkpt lat="45.88778" lon="6.33178">
        <ele>646</ele>
        <time>2026-08-19T12:41:10.344Z</time>
      </trkpt>
      <trkpt lat="45.88776" lon="6.33177">
        <ele>646</ele>
        <time>2026-08-19T12:41:11.345Z</time>
      </trkpt>
      <trkpt lat="45.88775" lon="6.33175">
        <ele>646</ele>
        <time>2026-08-19T12:41:12.344Z</time>
      </trkpt>
      <trkpt lat="45.88773" lon="6.33173">
        <ele>646</ele>
        <time>2026-08-19T12:41:13.345Z</time>
      </trkpt>
      <trkpt lat="45.88771" lon="6.33172">
        <ele>646</ele>
        <time>2026-08-19T12:41:14.344Z</time>
      </trkpt>
      <trkpt lat="45.88769" lon="6.33171">
        <ele>645</ele>
        <time>2026-08-19T12:41:15.344Z</time>
      </trkpt>
      <trkpt lat="45.88768" lon="6.3317">
        <ele>645</ele>
        <time>2026-08-19T12:41:16.344Z</time>
      </trkpt>
      <trkpt lat="45.88766" lon="6.33169">
        <ele>645</ele>
        <time>2026-08-19T12:41:17.344Z</time>
      </trkpt>
      <trkpt lat="45.88764" lon="6.33169">
        <ele>645</ele>
        <time>2026-08-19T12:41:18.344Z</time>
      </trkpt>
      <trkpt lat="45.88761" lon="6.33169">
        <ele>645</ele>
        <time>2026-08-19T12:41:19.344Z</time>
      </trkpt>
      <trkpt lat="45.88759" lon="6.33169">
        <ele>645</ele>
        <time>2026-08-19T12:41:20.344Z</time>
      </trkpt>
      <trkpt lat="45.88757" lon="6.3317">
        <ele>645</ele>
        <time>2026-08-19T12:41:21.344Z</time>
      </trkpt>
      <trkpt lat="45.88755" lon="6.3317">
        <ele>645</ele>
        <time>2026-08-19T12:41:22.344Z</time>
      </trkpt>
      <trkpt lat="45.88753" lon="6.33171">
        <ele>645</ele>
        <time>2026-08-19T12:41:23.344Z</time>
      </trkpt>
      <trkpt lat="45.88751" lon="6.33171">
        <ele>646</ele>
        <time>2026-08-19T12:41:24.344Z</time>
      </trkpt>
      <trkpt lat="45.88749" lon="6.33171">
        <ele>646</ele>
        <time>2026-08-19T12:41:25.344Z</time>
      </trkpt>
      <trkpt lat="45.88747" lon="6.33171">
        <ele>646</ele>
        <time>2026-08-19T12:41:26.344Z</time>
      </trkpt>
      <trkpt lat="45.88745" lon="6.33171">
        <ele>646</ele>
        <time>2026-08-19T12:41:27.344Z</time>
      </trkpt>
      <trkpt lat="45.88743" lon="6.33172">
        <ele>646</ele>
        <time>2026-08-19T12:41:28.344Z</time>
      </trkpt>
      <trkpt lat="45.8874" lon="6.33172">
        <ele>646</ele>
        <time>2026-08-19T12:41:29.344Z</time>
      </trkpt>
      <trkpt lat="45.88738" lon="6.33172">
        <ele>646</ele>
        <time>2026-08-19T12:41:30.344Z</time>
      </trkpt>
      <trkpt lat="45.88736" lon="6.33171">
        <ele>646</ele>
        <time>2026-08-19T12:41:31.344Z</time>
      </trkpt>
      <trkpt lat="45.88734" lon="6.3317">
        <ele>645</ele>
        <time>2026-08-19T12:41:32.344Z</time>
      </trkpt>
      <trkpt lat="45.88732" lon="6.33169">
        <ele>645</ele>
        <time>2026-08-19T12:41:33.344Z</time>
      </trkpt>
      <trkpt lat="45.88731" lon="6.33168">
        <ele>645</ele>
        <time>2026-08-19T12:41:34.344Z</time>
      </trkpt>
      <trkpt lat="45.88729" lon="6.33167">
        <ele>644</ele>
        <time>2026-08-19T12:41:35.344Z</time>
      </trkpt>
      <trkpt lat="45.88727" lon="6.33165">
        <ele>644</ele>
        <time>2026-08-19T12:41:36.344Z</time>
      </trkpt>
      <trkpt lat="45.88725" lon="6.33164">
        <ele>644</ele>
        <time>2026-08-19T12:41:37.344Z</time>
      </trkpt>
      <trkpt lat="45.88723" lon="6.33163">
        <ele>644</ele>
        <time>2026-08-19T12:41:38.344Z</time>
      </trkpt>
      <trkpt lat="45.88721" lon="6.33162">
        <ele>644</ele>
        <time>2026-08-19T12:41:39.344Z</time>
      </trkpt>
      <trkpt lat="45.88719" lon="6.33161">
        <ele>644</ele>
        <time>2026-08-19T12:41:40.344Z</time>
      </trkpt>
      <trkpt lat="45.88717" lon="6.33159">
        <ele>644</ele>
        <time>2026-08-19T12:41:41.344Z</time>
      </trkpt>
      <trkpt lat="45.88715" lon="6.33158">
        <ele>644</ele>
        <time>2026-08-19T12:41:42.345Z</time>
      </trkpt>
      <trkpt lat="45.88713" lon="6.33157">
        <ele>644</ele>
        <time>2026-08-19T12:41:43.344Z</time>
      </trkpt>
      <trkpt lat="45.88711" lon="6.33155">
        <ele>644</ele>
        <time>2026-08-19T12:41:44.344Z</time>
      </trkpt>
      <trkpt lat="45.88709" lon="6.33154">
        <ele>644</ele>
        <time>2026-08-19T12:41:45.344Z</time>
      </trkpt>
      <trkpt lat="45.88707" lon="6.33152">
        <ele>643</ele>
        <time>2026-08-19T12:41:46.344Z</time>
      </trkpt>
      <trkpt lat="45.88705" lon="6.3315">
        <ele>643</ele>
        <time>2026-08-19T12:41:47.344Z</time>
      </trkpt>
      <trkpt lat="45.88705" lon="6.3315">
        <ele>643</ele>
        <time>2026-08-19T12:41:48.344Z</time>
      </trkpt>
      <trkpt lat="45.88701" lon="6.33146">
        <ele>643</ele>
        <time>2026-08-19T12:41:49.344Z</time>
      </trkpt>
      <trkpt lat="45.88699" lon="6.33145">
        <ele>643</ele>
        <time>2026-08-19T12:41:50.344Z</time>
      </trkpt>
      <trkpt lat="45.88698" lon="6.33143">
        <ele>643</ele>
        <time>2026-08-19T12:41:51.344Z</time>
      </trkpt>
      <trkpt lat="45.88696" lon="6.33141">
        <ele>643</ele>
        <time>2026-08-19T12:41:52.345Z</time>
      </trkpt>
      <trkpt lat="45.88694" lon="6.3314">
        <ele>643</ele>
        <time>2026-08-19T12:41:53.344Z</time>
      </trkpt>
      <trkpt lat="45.88692" lon="6.33138">
        <ele>644</ele>
        <time>2026-08-19T12:41:54.344Z</time>
      </trkpt>
      <trkpt lat="45.8869" lon="6.33136">
        <ele>644</ele>
        <time>2026-08-19T12:41:55.345Z</time>
      </trkpt>
      <trkpt lat="45.88689" lon="6.33134">
        <ele>644</ele>
        <time>2026-08-19T12:41:56.344Z</time>
      </trkpt>
      <trkpt lat="45.88687" lon="6.33132">
        <ele>644</ele>
        <time>2026-08-19T12:41:57.344Z</time>
      </trkpt>
      <trkpt lat="45.88685" lon="6.33131">
        <ele>644</ele>
        <time>2026-08-19T12:41:58.344Z</time>
      </trkpt>
      <trkpt lat="45.88683" lon="6.33129">
        <ele>644</ele>
        <time>2026-08-19T12:41:59.344Z</time>
      </trkpt>
      <trkpt lat="45.88681" lon="6.33128">
        <ele>643</ele>
        <time>2026-08-19T12:42:00.345Z</time>
      </trkpt>
      <trkpt lat="45.88679" lon="6.33126">
        <ele>643</ele>
        <time>2026-08-19T12:42:01.344Z</time>
      </trkpt>
      <trkpt lat="45.88677" lon="6.33125">
        <ele>643</ele>
        <time>2026-08-19T12:42:02.344Z</time>
      </trkpt>
      <trkpt lat="45.88675" lon="6.33123">
        <ele>643</ele>
        <time>2026-08-19T12:42:03.344Z</time>
      </trkpt>
      <trkpt lat="45.88673" lon="6.33122">
        <ele>643</ele>
        <time>2026-08-19T12:42:04.344Z</time>
      </trkpt>
      <trkpt lat="45.88671" lon="6.3312">
        <ele>643</ele>
        <time>2026-08-19T12:42:05.344Z</time>
      </trkpt>
      <trkpt lat="45.88669" lon="6.33118">
        <ele>643</ele>
        <time>2026-08-19T12:42:06.344Z</time>
      </trkpt>
      <trkpt lat="45.88668" lon="6.33117">
        <ele>643</ele>
        <time>2026-08-19T12:42:07.344Z</time>
      </trkpt>
      <trkpt lat="45.88666" lon="6.33114">
        <ele>642</ele>
        <time>2026-08-19T12:42:08.345Z</time>
      </trkpt>
      <trkpt lat="45.88664" lon="6.33113">
        <ele>642</ele>
        <time>2026-08-19T12:42:09.344Z</time>
      </trkpt>
      <trkpt lat="45.88662" lon="6.33111">
        <ele>642</ele>
        <time>2026-08-19T12:42:10.344Z</time>
      </trkpt>
      <trkpt lat="45.8866" lon="6.33109">
        <ele>642</ele>
        <time>2026-08-19T12:42:11.345Z</time>
      </trkpt>
      <trkpt lat="45.88658" lon="6.33107">
        <ele>642</ele>
        <time>2026-08-19T12:42:12.344Z</time>
      </trkpt>
      <trkpt lat="45.88656" lon="6.33106">
        <ele>642</ele>
        <time>2026-08-19T12:42:13.344Z</time>
      </trkpt>
      <trkpt lat="45.88654" lon="6.33104">
        <ele>642</ele>
        <time>2026-08-19T12:42:14.344Z</time>
      </trkpt>
      <trkpt lat="45.88653" lon="6.33103">
        <ele>642</ele>
        <time>2026-08-19T12:42:15.344Z</time>
      </trkpt>
      <trkpt lat="45.88651" lon="6.33101">
        <ele>643</ele>
        <time>2026-08-19T12:42:16.344Z</time>
      </trkpt>
      <trkpt lat="45.88649" lon="6.33099">
        <ele>643</ele>
        <time>2026-08-19T12:42:17.344Z</time>
      </trkpt>
      <trkpt lat="45.88648" lon="6.33096">
        <ele>643</ele>
        <time>2026-08-19T12:42:18.344Z</time>
      </trkpt>
      <trkpt lat="45.88646" lon="6.33093">
        <ele>644</ele>
        <time>2026-08-19T12:42:19.344Z</time>
      </trkpt>
      <trkpt lat="45.88645" lon="6.33091">
        <ele>644</ele>
        <time>2026-08-19T12:42:20.344Z</time>
      </trkpt>
      <trkpt lat="45.88643" lon="6.33089">
        <ele>644</ele>
        <time>2026-08-19T12:42:21.344Z</time>
      </trkpt>
      <trkpt lat="45.88641" lon="6.33088">
        <ele>644</ele>
        <time>2026-08-19T12:42:22.344Z</time>
      </trkpt>
      <trkpt lat="45.88639" lon="6.33085">
        <ele>645</ele>
        <time>2026-08-19T12:42:23.344Z</time>
      </trkpt>
      <trkpt lat="45.88637" lon="6.33084">
        <ele>645</ele>
        <time>2026-08-19T12:42:24.344Z</time>
      </trkpt>
      <trkpt lat="45.88635" lon="6.33084">
        <ele>645</ele>
        <time>2026-08-19T12:42:25.344Z</time>
      </trkpt>
      <trkpt lat="45.88633" lon="6.33083">
        <ele>645</ele>
        <time>2026-08-19T12:42:26.344Z</time>
      </trkpt>
      <trkpt lat="45.88631" lon="6.33081">
        <ele>645</ele>
        <time>2026-08-19T12:42:27.344Z</time>
      </trkpt>
      <trkpt lat="45.88629" lon="6.33079">
        <ele>645</ele>
        <time>2026-08-19T12:42:28.344Z</time>
      </trkpt>
      <trkpt lat="45.88627" lon="6.33078">
        <ele>645</ele>
        <time>2026-08-19T12:42:29.344Z</time>
      </trkpt>
      <trkpt lat="45.88624" lon="6.33076">
        <ele>645</ele>
        <time>2026-08-19T12:42:30.344Z</time>
      </trkpt>
      <trkpt lat="45.88622" lon="6.33074">
        <ele>645</ele>
        <time>2026-08-19T12:42:31.344Z</time>
      </trkpt>
      <trkpt lat="45.8862" lon="6.33072">
        <ele>645</ele>
        <time>2026-08-19T12:42:32.344Z</time>
      </trkpt>
      <trkpt lat="45.88619" lon="6.33069">
        <ele>645</ele>
        <time>2026-08-19T12:42:33.344Z</time>
      </trkpt>
      <trkpt lat="45.88617" lon="6.33067">
        <ele>645</ele>
        <time>2026-08-19T12:42:34.344Z</time>
      </trkpt>
      <trkpt lat="45.88614" lon="6.33065">
        <ele>644</ele>
        <time>2026-08-19T12:42:35.344Z</time>
      </trkpt>
      <trkpt lat="45.88612" lon="6.33064">
        <ele>644</ele>
        <time>2026-08-19T12:42:36.344Z</time>
      </trkpt>
      <trkpt lat="45.88611" lon="6.33061">
        <ele>644</ele>
        <time>2026-08-19T12:42:37.344Z</time>
      </trkpt>
      <trkpt lat="45.88609" lon="6.33059">
        <ele>644</ele>
        <time>2026-08-19T12:42:38.344Z</time>
      </trkpt>
      <trkpt lat="45.88607" lon="6.33057">
        <ele>644</ele>
        <time>2026-08-19T12:42:39.344Z</time>
      </trkpt>
      <trkpt lat="45.88605" lon="6.33055">
        <ele>644</ele>
        <time>2026-08-19T12:42:40.344Z</time>
      </trkpt>
      <trkpt lat="45.88602" lon="6.33053">
        <ele>644</ele>
        <time>2026-08-19T12:42:41.344Z</time>
      </trkpt>
      <trkpt lat="45.886" lon="6.33052">
        <ele>644</ele>
        <time>2026-08-19T12:42:42.344Z</time>
      </trkpt>
      <trkpt lat="45.88598" lon="6.3305">
        <ele>643</ele>
        <time>2026-08-19T12:42:43.344Z</time>
      </trkpt>
      <trkpt lat="45.88596" lon="6.33048">
        <ele>643</ele>
        <time>2026-08-19T12:42:44.344Z</time>
      </trkpt>
      <trkpt lat="45.88594" lon="6.33047">
        <ele>643</ele>
        <time>2026-08-19T12:42:45.344Z</time>
      </trkpt>
      <trkpt lat="45.88592" lon="6.33045">
        <ele>642</ele>
        <time>2026-08-19T12:42:46.344Z</time>
      </trkpt>
      <trkpt lat="45.88589" lon="6.33044">
        <ele>642</ele>
        <time>2026-08-19T12:42:47.345Z</time>
      </trkpt>
      <trkpt lat="45.88587" lon="6.33042">
        <ele>642</ele>
        <time>2026-08-19T12:42:48.344Z</time>
      </trkpt>
      <trkpt lat="45.88585" lon="6.33041">
        <ele>642</ele>
        <time>2026-08-19T12:42:49.344Z</time>
      </trkpt>
      <trkpt lat="45.88583" lon="6.33039">
        <ele>641</ele>
        <time>2026-08-19T12:42:50.344Z</time>
      </trkpt>
      <trkpt lat="45.88581" lon="6.33038">
        <ele>641</ele>
        <time>2026-08-19T12:42:51.344Z</time>
      </trkpt>
      <trkpt lat="45.88579" lon="6.33036">
        <ele>641</ele>
        <time>2026-08-19T12:42:52.344Z</time>
      </trkpt>
      <trkpt lat="45.88577" lon="6.33034">
        <ele>641</ele>
        <time>2026-08-19T12:42:53.344Z</time>
      </trkpt>
      <trkpt lat="45.88575" lon="6.33032">
        <ele>641</ele>
        <time>2026-08-19T12:42:54.344Z</time>
      </trkpt>
      <trkpt lat="45.88573" lon="6.33031">
        <ele>641</ele>
        <time>2026-08-19T12:42:55.344Z</time>
      </trkpt>
      <trkpt lat="45.88571" lon="6.33029">
        <ele>641</ele>
        <time>2026-08-19T12:42:56.344Z</time>
      </trkpt>
      <trkpt lat="45.88569" lon="6.33027">
        <ele>640</ele>
        <time>2026-08-19T12:42:57.344Z</time>
      </trkpt>
      <trkpt lat="45.88568" lon="6.33025">
        <ele>640</ele>
        <time>2026-08-19T12:42:58.344Z</time>
      </trkpt>
      <trkpt lat="45.88566" lon="6.33023">
        <ele>640</ele>
        <time>2026-08-19T12:42:59.344Z</time>
      </trkpt>
      <trkpt lat="45.88564" lon="6.3302">
        <ele>639</ele>
        <time>2026-08-19T12:43:00.344Z</time>
      </trkpt>
      <trkpt lat="45.88562" lon="6.33018">
        <ele>639</ele>
        <time>2026-08-19T12:43:01.344Z</time>
      </trkpt>
      <trkpt lat="45.88561" lon="6.33016">
        <ele>639</ele>
        <time>2026-08-19T12:43:02.344Z</time>
      </trkpt>
      <trkpt lat="45.88559" lon="6.33014">
        <ele>638</ele>
        <time>2026-08-19T12:43:03.344Z</time>
      </trkpt>
      <trkpt lat="45.88557" lon="6.33012">
        <ele>638</ele>
        <time>2026-08-19T12:43:04.344Z</time>
      </trkpt>
      <trkpt lat="45.88555" lon="6.3301">
        <ele>637</ele>
        <time>2026-08-19T12:43:05.344Z</time>
      </trkpt>
      <trkpt lat="45.88555" lon="6.3301">
        <ele>637</ele>
        <time>2026-08-19T12:43:06.344Z</time>
      </trkpt>
      <trkpt lat="45.88551" lon="6.33006">
        <ele>637</ele>
        <time>2026-08-19T12:43:07.345Z</time>
      </trkpt>
      <trkpt lat="45.88549" lon="6.33005">
        <ele>637</ele>
        <time>2026-08-19T12:43:08.344Z</time>
      </trkpt>
      <trkpt lat="45.88547" lon="6.33003">
        <ele>637</ele>
        <time>2026-08-19T12:43:09.344Z</time>
      </trkpt>
      <trkpt lat="45.88545" lon="6.33001">
        <ele>637</ele>
        <time>2026-08-19T12:43:10.344Z</time>
      </trkpt>
      <trkpt lat="45.88543" lon="6.33">
        <ele>637</ele>
        <time>2026-08-19T12:43:11.344Z</time>
      </trkpt>
      <trkpt lat="45.88541" lon="6.32999">
        <ele>637</ele>
        <time>2026-08-19T12:43:12.344Z</time>
      </trkpt>
      <trkpt lat="45.88539" lon="6.32997">
        <ele>637</ele>
        <time>2026-08-19T12:43:13.344Z</time>
      </trkpt>
      <trkpt lat="45.88537" lon="6.32996">
        <ele>637</ele>
        <time>2026-08-19T12:43:14.344Z</time>
      </trkpt>
      <trkpt lat="45.88537" lon="6.32996">
        <ele>637</ele>
        <time>2026-08-19T12:43:15.344Z</time>
      </trkpt>
      <trkpt lat="45.88532" lon="6.32993">
        <ele>637</ele>
        <time>2026-08-19T12:43:16.344Z</time>
      </trkpt>
      <trkpt lat="45.8853" lon="6.32991">
        <ele>638</ele>
        <time>2026-08-19T12:43:17.344Z</time>
      </trkpt>
      <trkpt lat="45.88528" lon="6.3299">
        <ele>638</ele>
        <time>2026-08-19T12:43:18.344Z</time>
      </trkpt>
      <trkpt lat="45.88526" lon="6.32988">
        <ele>638</ele>
        <time>2026-08-19T12:43:19.344Z</time>
      </trkpt>
      <trkpt lat="45.88524" lon="6.32986">
        <ele>638</ele>
        <time>2026-08-19T12:43:20.344Z</time>
      </trkpt>
      <trkpt lat="45.88522" lon="6.32985">
        <ele>638</ele>
        <time>2026-08-19T12:43:21.344Z</time>
      </trkpt>
      <trkpt lat="45.8852" lon="6.32984">
        <ele>638</ele>
        <time>2026-08-19T12:43:22.344Z</time>
      </trkpt>
      <trkpt lat="45.88518" lon="6.32982">
        <ele>637</ele>
        <time>2026-08-19T12:43:23.344Z</time>
      </trkpt>
      <trkpt lat="45.88515" lon="6.32981">
        <ele>637</ele>
        <time>2026-08-19T12:43:24.344Z</time>
      </trkpt>
      <trkpt lat="45.88513" lon="6.32979">
        <ele>637</ele>
        <time>2026-08-19T12:43:25.344Z</time>
      </trkpt>
      <trkpt lat="45.88511" lon="6.32977">
        <ele>636</ele>
        <time>2026-08-19T12:43:26.344Z</time>
      </trkpt>
      <trkpt lat="45.88509" lon="6.32976">
        <ele>636</ele>
        <time>2026-08-19T12:43:27.344Z</time>
      </trkpt>
      <trkpt lat="45.88506" lon="6.32975">
        <ele>636</ele>
        <time>2026-08-19T12:43:28.344Z</time>
      </trkpt>
      <trkpt lat="45.88504" lon="6.32973">
        <ele>636</ele>
        <time>2026-08-19T12:43:29.344Z</time>
      </trkpt>
      <trkpt lat="45.88502" lon="6.32972">
        <ele>636</ele>
        <time>2026-08-19T12:43:30.344Z</time>
      </trkpt>
      <trkpt lat="45.885" lon="6.3297">
        <ele>636</ele>
        <time>2026-08-19T12:43:31.344Z</time>
      </trkpt>
      <trkpt lat="45.88498" lon="6.32967">
        <ele>636</ele>
        <time>2026-08-19T12:43:32.344Z</time>
      </trkpt>
      <trkpt lat="45.88497" lon="6.32966">
        <ele>637</ele>
        <time>2026-08-19T12:43:33.345Z</time>
      </trkpt>
      <trkpt lat="45.88495" lon="6.32963">
        <ele>637</ele>
        <time>2026-08-19T12:43:34.344Z</time>
      </trkpt>
      <trkpt lat="45.88493" lon="6.32961">
        <ele>637</ele>
        <time>2026-08-19T12:43:35.345Z</time>
      </trkpt>
      <trkpt lat="45.88491" lon="6.32959">
        <ele>636</ele>
        <time>2026-08-19T12:43:36.344Z</time>
      </trkpt>
      <trkpt lat="45.8849" lon="6.32956">
        <ele>636</ele>
        <time>2026-08-19T12:43:37.344Z</time>
      </trkpt>
      <trkpt lat="45.88488" lon="6.32954">
        <ele>635</ele>
        <time>2026-08-19T12:43:38.344Z</time>
      </trkpt>
      <trkpt lat="45.88486" lon="6.32952">
        <ele>635</ele>
        <time>2026-08-19T12:43:39.344Z</time>
      </trkpt>
      <trkpt lat="45.88485" lon="6.3295">
        <ele>635</ele>
        <time>2026-08-19T12:43:40.344Z</time>
      </trkpt>
      <trkpt lat="45.88483" lon="6.32948">
        <ele>635</ele>
        <time>2026-08-19T12:43:41.344Z</time>
      </trkpt>
      <trkpt lat="45.88482" lon="6.32945">
        <ele>634</ele>
        <time>2026-08-19T12:43:42.344Z</time>
      </trkpt>
      <trkpt lat="45.8848" lon="6.32943">
        <ele>634</ele>
        <time>2026-08-19T12:43:43.344Z</time>
      </trkpt>
      <trkpt lat="45.88479" lon="6.32941">
        <ele>634</ele>
        <time>2026-08-19T12:43:44.344Z</time>
      </trkpt>
      <trkpt lat="45.88477" lon="6.32938">
        <ele>634</ele>
        <time>2026-08-19T12:43:45.344Z</time>
      </trkpt>
      <trkpt lat="45.88475" lon="6.32936">
        <ele>634</ele>
        <time>2026-08-19T12:43:46.344Z</time>
      </trkpt>
      <trkpt lat="45.88473" lon="6.32935">
        <ele>634</ele>
        <time>2026-08-19T12:43:47.344Z</time>
      </trkpt>
      <trkpt lat="45.88471" lon="6.32933">
        <ele>634</ele>
        <time>2026-08-19T12:43:48.344Z</time>
      </trkpt>
      <trkpt lat="45.88469" lon="6.32931">
        <ele>633</ele>
        <time>2026-08-19T12:43:49.344Z</time>
      </trkpt>
      <trkpt lat="45.88468" lon="6.32929">
        <ele>633</ele>
        <time>2026-08-19T12:43:50.344Z</time>
      </trkpt>
      <trkpt lat="45.88466" lon="6.32927">
        <ele>633</ele>
        <time>2026-08-19T12:43:51.344Z</time>
      </trkpt>
      <trkpt lat="45.88464" lon="6.32924">
        <ele>633</ele>
        <time>2026-08-19T12:43:52.344Z</time>
      </trkpt>
      <trkpt lat="45.88463" lon="6.32922">
        <ele>633</ele>
        <time>2026-08-19T12:43:53.344Z</time>
      </trkpt>
      <trkpt lat="45.88461" lon="6.32921">
        <ele>633</ele>
        <time>2026-08-19T12:43:54.344Z</time>
      </trkpt>
      <trkpt lat="45.8846" lon="6.32918">
        <ele>633</ele>
        <time>2026-08-19T12:43:55.345Z</time>
      </trkpt>
      <trkpt lat="45.88458" lon="6.32916">
        <ele>632</ele>
        <time>2026-08-19T12:43:56.344Z</time>
      </trkpt>
      <trkpt lat="45.88457" lon="6.32914">
        <ele>632</ele>
        <time>2026-08-19T12:43:57.344Z</time>
      </trkpt>
      <trkpt lat="45.88455" lon="6.32911">
        <ele>632</ele>
        <time>2026-08-19T12:43:58.344Z</time>
      </trkpt>
      <trkpt lat="45.88454" lon="6.32908">
        <ele>632</ele>
        <time>2026-08-19T12:43:59.344Z</time>
      </trkpt>
      <trkpt lat="45.88452" lon="6.32906">
        <ele>632</ele>
        <time>2026-08-19T12:44:00.344Z</time>
      </trkpt>
      <trkpt lat="45.88451" lon="6.32903">
        <ele>632</ele>
        <time>2026-08-19T12:44:01.344Z</time>
      </trkpt>
      <trkpt lat="45.88449" lon="6.32901">
        <ele>632</ele>
        <time>2026-08-19T12:44:02.344Z</time>
      </trkpt>
      <trkpt lat="45.88447" lon="6.32899">
        <ele>632</ele>
        <time>2026-08-19T12:44:03.344Z</time>
      </trkpt>
      <trkpt lat="45.88446" lon="6.32897">
        <ele>631</ele>
        <time>2026-08-19T12:44:04.344Z</time>
      </trkpt>
      <trkpt lat="45.88444" lon="6.32894">
        <ele>631</ele>
        <time>2026-08-19T12:44:05.344Z</time>
      </trkpt>
      <trkpt lat="45.88443" lon="6.32892">
        <ele>631</ele>
        <time>2026-08-19T12:44:06.344Z</time>
      </trkpt>
      <trkpt lat="45.88441" lon="6.32889">
        <ele>631</ele>
        <time>2026-08-19T12:44:07.344Z</time>
      </trkpt>
      <trkpt lat="45.8844" lon="6.32887">
        <ele>631</ele>
        <time>2026-08-19T12:44:08.344Z</time>
      </trkpt>
      <trkpt lat="45.88438" lon="6.32884">
        <ele>631</ele>
        <time>2026-08-19T12:44:09.344Z</time>
      </trkpt>
      <trkpt lat="45.88437" lon="6.32882">
        <ele>632</ele>
        <time>2026-08-19T12:44:10.344Z</time>
      </trkpt>
      <trkpt lat="45.88435" lon="6.3288">
        <ele>632</ele>
        <time>2026-08-19T12:44:11.344Z</time>
      </trkpt>
      <trkpt lat="45.88434" lon="6.32878">
        <ele>632</ele>
        <time>2026-08-19T12:44:12.344Z</time>
      </trkpt>
      <trkpt lat="45.88432" lon="6.32875">
        <ele>632</ele>
        <time>2026-08-19T12:44:13.344Z</time>
      </trkpt>
      <trkpt lat="45.88431" lon="6.32873">
        <ele>632</ele>
        <time>2026-08-19T12:44:14.344Z</time>
      </trkpt>
      <trkpt lat="45.8843" lon="6.3287">
        <ele>632</ele>
        <time>2026-08-19T12:44:15.344Z</time>
      </trkpt>
      <trkpt lat="45.88429" lon="6.32867">
        <ele>632</ele>
        <time>2026-08-19T12:44:16.344Z</time>
      </trkpt>
      <trkpt lat="45.88428" lon="6.32865">
        <ele>633</ele>
        <time>2026-08-19T12:44:17.344Z</time>
      </trkpt>
      <trkpt lat="45.88427" lon="6.32863">
        <ele>633</ele>
        <time>2026-08-19T12:44:18.344Z</time>
      </trkpt>
      <trkpt lat="45.88425" lon="6.32861">
        <ele>633</ele>
        <time>2026-08-19T12:44:19.344Z</time>
      </trkpt>
      <trkpt lat="45.88424" lon="6.32859">
        <ele>634</ele>
        <time>2026-08-19T12:44:20.344Z</time>
      </trkpt>
      <trkpt lat="45.88423" lon="6.32857">
        <ele>634</ele>
        <time>2026-08-19T12:44:21.344Z</time>
      </trkpt>
      <trkpt lat="45.88421" lon="6.32855">
        <ele>634</ele>
        <time>2026-08-19T12:44:22.344Z</time>
      </trkpt>
      <trkpt lat="45.8842" lon="6.32854">
        <ele>634</ele>
        <time>2026-08-19T12:44:23.344Z</time>
      </trkpt>
      <trkpt lat="45.88419" lon="6.32852">
        <ele>634</ele>
        <time>2026-08-19T12:44:24.344Z</time>
      </trkpt>
      <trkpt lat="45.88417" lon="6.3285">
        <ele>634</ele>
        <time>2026-08-19T12:44:25.344Z</time>
      </trkpt>
      <trkpt lat="45.88416" lon="6.32849">
        <ele>635</ele>
        <time>2026-08-19T12:44:26.344Z</time>
      </trkpt>
      <trkpt lat="45.88415" lon="6.32847">
        <ele>635</ele>
        <time>2026-08-19T12:44:27.344Z</time>
      </trkpt>
      <trkpt lat="45.88414" lon="6.32845">
        <ele>636</ele>
        <time>2026-08-19T12:44:28.344Z</time>
      </trkpt>
      <trkpt lat="45.88413" lon="6.32843">
        <ele>637</ele>
        <time>2026-08-19T12:44:29.344Z</time>
      </trkpt>
      <trkpt lat="45.88412" lon="6.3284">
        <ele>637</ele>
        <time>2026-08-19T12:44:30.344Z</time>
      </trkpt>
      <trkpt lat="45.88411" lon="6.32838">
        <ele>637</ele>
        <time>2026-08-19T12:44:31.345Z</time>
      </trkpt>
      <trkpt lat="45.8841" lon="6.32834">
        <ele>637</ele>
        <time>2026-08-19T12:44:32.344Z</time>
      </trkpt>
      <trkpt lat="45.88407" lon="6.3283">
        <ele>637</ele>
        <time>2026-08-19T12:44:33.344Z</time>
      </trkpt>
      <trkpt lat="45.88405" lon="6.32827">
        <ele>637</ele>
        <time>2026-08-19T12:44:34.344Z</time>
      </trkpt>
      <trkpt lat="45.88403" lon="6.32826">
        <ele>637</ele>
        <time>2026-08-19T12:44:35.344Z</time>
      </trkpt>
      <trkpt lat="45.88402" lon="6.32826">
        <ele>637</ele>
        <time>2026-08-19T12:44:36.344Z</time>
      </trkpt>
      <trkpt lat="45.884" lon="6.32826">
        <ele>637</ele>
        <time>2026-08-19T12:44:37.344Z</time>
      </trkpt>
      <trkpt lat="45.88399" lon="6.32825">
        <ele>638</ele>
        <time>2026-08-19T12:44:38.344Z</time>
      </trkpt>
      <trkpt lat="45.88398" lon="6.32825">
        <ele>638</ele>
        <time>2026-08-19T12:44:39.344Z</time>
      </trkpt>
      <trkpt lat="45.88396" lon="6.32825">
        <ele>639</ele>
        <time>2026-08-19T12:44:40.344Z</time>
      </trkpt>
      <trkpt lat="45.88395" lon="6.32826">
        <ele>640</ele>
        <time>2026-08-19T12:44:41.344Z</time>
      </trkpt>
      <trkpt lat="45.88394" lon="6.32828">
        <ele>640</ele>
        <time>2026-08-19T12:44:42.344Z</time>
      </trkpt>
      <trkpt lat="45.88393" lon="6.32829">
        <ele>641</ele>
        <time>2026-08-19T12:44:43.344Z</time>
      </trkpt>
      <trkpt lat="45.88393" lon="6.3283">
        <ele>642</ele>
        <time>2026-08-19T12:44:44.344Z</time>
      </trkpt>
      <trkpt lat="45.88392" lon="6.32831">
        <ele>643</ele>
        <time>2026-08-19T12:44:45.344Z</time>
      </trkpt>
      <trkpt lat="45.88392" lon="6.32833">
        <ele>644</ele>
        <time>2026-08-19T12:44:46.344Z</time>
      </trkpt>
      <trkpt lat="45.88392" lon="6.32834">
        <ele>645</ele>
        <time>2026-08-19T12:44:47.344Z</time>
      </trkpt>
      <trkpt lat="45.88391" lon="6.32835">
        <ele>646</ele>
        <time>2026-08-19T12:44:48.344Z</time>
      </trkpt>
      <trkpt lat="45.88389" lon="6.32835">
        <ele>646</ele>
        <time>2026-08-19T12:44:49.344Z</time>
      </trkpt>
      <trkpt lat="45.88387" lon="6.32836">
        <ele>646</ele>
        <time>2026-08-19T12:44:50.344Z</time>
      </trkpt>
      <trkpt lat="45.88385" lon="6.32837">
        <ele>646</ele>
        <time>2026-08-19T12:44:51.344Z</time>
      </trkpt>
      <trkpt lat="45.88384" lon="6.32838">
        <ele>646</ele>
        <time>2026-08-19T12:44:52.344Z</time>
      </trkpt>
      <trkpt lat="45.88383" lon="6.32839">
        <ele>647</ele>
        <time>2026-08-19T12:44:53.345Z</time>
      </trkpt>
      <trkpt lat="45.88382" lon="6.3284">
        <ele>647</ele>
        <time>2026-08-19T12:44:54.344Z</time>
      </trkpt>
      <trkpt lat="45.88381" lon="6.32841">
        <ele>647</ele>
        <time>2026-08-19T12:44:55.344Z</time>
      </trkpt>
      <trkpt lat="45.8838" lon="6.32841">
        <ele>648</ele>
        <time>2026-08-19T12:44:56.344Z</time>
      </trkpt>
      <trkpt lat="45.88379" lon="6.32842">
        <ele>648</ele>
        <time>2026-08-19T12:44:57.344Z</time>
      </trkpt>
      <trkpt lat="45.88378" lon="6.32843">
        <ele>649</ele>
        <time>2026-08-19T12:44:58.344Z</time>
      </trkpt>
      <trkpt lat="45.88377" lon="6.32844">
        <ele>649</ele>
        <time>2026-08-19T12:44:59.344Z</time>
      </trkpt>
      <trkpt lat="45.88376" lon="6.32845">
        <ele>650</ele>
        <time>2026-08-19T12:45:00.344Z</time>
      </trkpt>
      <trkpt lat="45.88375" lon="6.32846">
        <ele>650</ele>
        <time>2026-08-19T12:45:01.344Z</time>
      </trkpt>
      <trkpt lat="45.88374" lon="6.32848">
        <ele>650</ele>
        <time>2026-08-19T12:45:02.344Z</time>
      </trkpt>
      <trkpt lat="45.88372" lon="6.32848">
        <ele>651</ele>
        <time>2026-08-19T12:45:03.344Z</time>
      </trkpt>
      <trkpt lat="45.88371" lon="6.32849">
        <ele>651</ele>
        <time>2026-08-19T12:45:04.345Z</time>
      </trkpt>
      <trkpt lat="45.88371" lon="6.3285">
        <ele>651</ele>
        <time>2026-08-19T12:45:05.344Z</time>
      </trkpt>
      <trkpt lat="45.8837" lon="6.32852">
        <ele>650</ele>
        <time>2026-08-19T12:45:06.345Z</time>
      </trkpt>
      <trkpt lat="45.88369" lon="6.32853">
        <ele>649</ele>
        <time>2026-08-19T12:45:07.344Z</time>
      </trkpt>
      <trkpt lat="45.88368" lon="6.32854">
        <ele>649</ele>
        <time>2026-08-19T12:45:08.344Z</time>
      </trkpt>
      <trkpt lat="45.88367" lon="6.32855">
        <ele>647</ele>
        <time>2026-08-19T12:45:09.344Z</time>
      </trkpt>
      <trkpt lat="45.88367" lon="6.32856">
        <ele>646</ele>
        <time>2026-08-19T12:45:10.344Z</time>
      </trkpt>
      <trkpt lat="45.88366" lon="6.32857">
        <ele>645</ele>
        <time>2026-08-19T12:45:11.344Z</time>
      </trkpt>
      <trkpt lat="45.88365" lon="6.32858">
        <ele>644</ele>
        <time>2026-08-19T12:45:12.344Z</time>
      </trkpt>
      <trkpt lat="45.88364" lon="6.32859">
        <ele>643</ele>
        <time>2026-08-19T12:45:13.344Z</time>
      </trkpt>
      <trkpt lat="45.88363" lon="6.3286">
        <ele>642</ele>
        <time>2026-08-19T12:45:14.344Z</time>
      </trkpt>
      <trkpt lat="45.88362" lon="6.32861">
        <ele>641</ele>
        <time>2026-08-19T12:45:15.344Z</time>
      </trkpt>
      <trkpt lat="45.88361" lon="6.32862">
        <ele>640</ele>
        <time>2026-08-19T12:45:16.344Z</time>
      </trkpt>
      <trkpt lat="45.88359" lon="6.32862">
        <ele>638</ele>
        <time>2026-08-19T12:45:17.344Z</time>
      </trkpt>
      <trkpt lat="45.88358" lon="6.32862">
        <ele>637</ele>
        <time>2026-08-19T12:45:18.344Z</time>
      </trkpt>
      <trkpt lat="45.88357" lon="6.3286">
        <ele>636</ele>
        <time>2026-08-19T12:45:19.344Z</time>
      </trkpt>
      <trkpt lat="45.88356" lon="6.32859">
        <ele>635</ele>
        <time>2026-08-19T12:45:20.344Z</time>
      </trkpt>
      <trkpt lat="45.88356" lon="6.32859">
        <ele>635</ele>
        <time>2026-08-19T12:45:21.344Z</time>
      </trkpt>
      <trkpt lat="45.88354" lon="6.32856">
        <ele>633</ele>
        <time>2026-08-19T12:45:22.344Z</time>
      </trkpt>
      <trkpt lat="45.88353" lon="6.32854">
        <ele>633</ele>
        <time>2026-08-19T12:45:23.344Z</time>
      </trkpt>
      <trkpt lat="45.88351" lon="6.32852">
        <ele>632</ele>
        <time>2026-08-19T12:45:24.344Z</time>
      </trkpt>
      <trkpt lat="45.8835" lon="6.32851">
        <ele>632</ele>
        <time>2026-08-19T12:45:25.344Z</time>
      </trkpt>
      <trkpt lat="45.88348" lon="6.32849">
        <ele>631</ele>
        <time>2026-08-19T12:45:26.344Z</time>
      </trkpt>
      <trkpt lat="45.88347" lon="6.32847">
        <ele>630</ele>
        <time>2026-08-19T12:45:27.344Z</time>
      </trkpt>
      <trkpt lat="45.88345" lon="6.32845">
        <ele>630</ele>
        <time>2026-08-19T12:45:28.344Z</time>
      </trkpt>
      <trkpt lat="45.88344" lon="6.32843">
        <ele>630</ele>
        <time>2026-08-19T12:45:29.344Z</time>
      </trkpt>
      <trkpt lat="45.88342" lon="6.32841">
        <ele>631</ele>
        <time>2026-08-19T12:45:30.344Z</time>
      </trkpt>
      <trkpt lat="45.88341" lon="6.32839">
        <ele>631</ele>
        <time>2026-08-19T12:45:31.344Z</time>
      </trkpt>
      <trkpt lat="45.88339" lon="6.32837">
        <ele>631</ele>
        <time>2026-08-19T12:45:32.344Z</time>
      </trkpt>
      <trkpt lat="45.88338" lon="6.32834">
        <ele>631</ele>
        <time>2026-08-19T12:45:33.344Z</time>
      </trkpt>
      <trkpt lat="45.88337" lon="6.32832">
        <ele>631</ele>
        <time>2026-08-19T12:45:34.344Z</time>
      </trkpt>
      <trkpt lat="45.88335" lon="6.3283">
        <ele>631</ele>
        <time>2026-08-19T12:45:35.344Z</time>
      </trkpt>
      <trkpt lat="45.88334" lon="6.32828">
        <ele>631</ele>
        <time>2026-08-19T12:45:36.344Z</time>
      </trkpt>
      <trkpt lat="45.88332" lon="6.32825">
        <ele>631</ele>
        <time>2026-08-19T12:45:37.344Z</time>
      </trkpt>
      <trkpt lat="45.88331" lon="6.32824">
        <ele>631</ele>
        <time>2026-08-19T12:45:38.344Z</time>
      </trkpt>
      <trkpt lat="45.88329" lon="6.32821">
        <ele>630</ele>
        <time>2026-08-19T12:45:39.344Z</time>
      </trkpt>
      <trkpt lat="45.88328" lon="6.32818">
        <ele>630</ele>
        <time>2026-08-19T12:45:40.344Z</time>
      </trkpt>
      <trkpt lat="45.88327" lon="6.32816">
        <ele>630</ele>
        <time>2026-08-19T12:45:41.344Z</time>
      </trkpt>
      <trkpt lat="45.88326" lon="6.32813">
        <ele>629</ele>
        <time>2026-08-19T12:45:42.344Z</time>
      </trkpt>
      <trkpt lat="45.88324" lon="6.32811">
        <ele>629</ele>
        <time>2026-08-19T12:45:43.344Z</time>
      </trkpt>
      <trkpt lat="45.88322" lon="6.3281">
        <ele>629</ele>
        <time>2026-08-19T12:45:44.344Z</time>
      </trkpt>
      <trkpt lat="45.88321" lon="6.32808">
        <ele>628</ele>
        <time>2026-08-19T12:45:45.344Z</time>
      </trkpt>
      <trkpt lat="45.88319" lon="6.32806">
        <ele>628</ele>
        <time>2026-08-19T12:45:46.344Z</time>
      </trkpt>
      <trkpt lat="45.88317" lon="6.32804">
        <ele>628</ele>
        <time>2026-08-19T12:45:47.344Z</time>
      </trkpt>
      <trkpt lat="45.88315" lon="6.32802">
        <ele>628</ele>
        <time>2026-08-19T12:45:48.344Z</time>
      </trkpt>
      <trkpt lat="45.88313" lon="6.328">
        <ele>628</ele>
        <time>2026-08-19T12:45:49.344Z</time>
      </trkpt>
      <trkpt lat="45.88312" lon="6.32798">
        <ele>628</ele>
        <time>2026-08-19T12:45:50.345Z</time>
      </trkpt>
      <trkpt lat="45.88311" lon="6.32795">
        <ele>628</ele>
        <time>2026-08-19T12:45:51.344Z</time>
      </trkpt>
      <trkpt lat="45.8831" lon="6.32792">
        <ele>628</ele>
        <time>2026-08-19T12:45:52.344Z</time>
      </trkpt>
      <trkpt lat="45.88309" lon="6.3279">
        <ele>629</ele>
        <time>2026-08-19T12:45:53.344Z</time>
      </trkpt>
      <trkpt lat="45.88308" lon="6.32788">
        <ele>629</ele>
        <time>2026-08-19T12:45:54.345Z</time>
      </trkpt>
      <trkpt lat="45.88308" lon="6.32786">
        <ele>629</ele>
        <time>2026-08-19T12:45:55.344Z</time>
      </trkpt>
      <trkpt lat="45.88308" lon="6.32784">
        <ele>630</ele>
        <time>2026-08-19T12:45:56.344Z</time>
      </trkpt>
      <trkpt lat="45.88307" lon="6.32782">
        <ele>630</ele>
        <time>2026-08-19T12:45:57.344Z</time>
      </trkpt>
      <trkpt lat="45.88306" lon="6.32782">
        <ele>630</ele>
        <time>2026-08-19T12:45:58.344Z</time>
      </trkpt>
      <trkpt lat="45.88305" lon="6.32782">
        <ele>631</ele>
        <time>2026-08-19T12:45:59.344Z</time>
      </trkpt>
      <trkpt lat="45.88304" lon="6.32782">
        <ele>631</ele>
        <time>2026-08-19T12:46:00.344Z</time>
      </trkpt>
      <trkpt lat="45.88302" lon="6.32782">
        <ele>631</ele>
        <time>2026-08-19T12:46:01.344Z</time>
      </trkpt>
      <trkpt lat="45.88301" lon="6.32782">
        <ele>631</ele>
        <time>2026-08-19T12:46:02.344Z</time>
      </trkpt>
      <trkpt lat="45.883" lon="6.32782">
        <ele>631</ele>
        <time>2026-08-19T12:46:03.344Z</time>
      </trkpt>
      <trkpt lat="45.88299" lon="6.32783">
        <ele>631</ele>
        <time>2026-08-19T12:46:04.344Z</time>
      </trkpt>
      <trkpt lat="45.88298" lon="6.32783">
        <ele>631</ele>
        <time>2026-08-19T12:46:05.344Z</time>
      </trkpt>
      <trkpt lat="45.88298" lon="6.32783">
        <ele>631</ele>
        <time>2026-08-19T12:46:06.344Z</time>
      </trkpt>
      <trkpt lat="45.88295" lon="6.32782">
        <ele>631</ele>
        <time>2026-08-19T12:46:07.344Z</time>
      </trkpt>
      <trkpt lat="45.88293" lon="6.32782">
        <ele>631</ele>
        <time>2026-08-19T12:46:08.344Z</time>
      </trkpt>
      <trkpt lat="45.88293" lon="6.32782">
        <ele>631</ele>
        <time>2026-08-19T12:46:09.344Z</time>
      </trkpt>
      <trkpt lat="45.8829" lon="6.3278">
        <ele>630</ele>
        <time>2026-08-19T12:46:10.344Z</time>
      </trkpt>
      <trkpt lat="45.88288" lon="6.32778">
        <ele>630</ele>
        <time>2026-08-19T12:46:11.344Z</time>
      </trkpt>
      <trkpt lat="45.88287" lon="6.32777">
        <ele>630</ele>
        <time>2026-08-19T12:46:12.344Z</time>
      </trkpt>
      <trkpt lat="45.88286" lon="6.32775">
        <ele>629</ele>
        <time>2026-08-19T12:46:13.344Z</time>
      </trkpt>
      <trkpt lat="45.88284" lon="6.32773">
        <ele>629</ele>
        <time>2026-08-19T12:46:14.344Z</time>
      </trkpt>
      <trkpt lat="45.88283" lon="6.32771">
        <ele>629</ele>
        <time>2026-08-19T12:46:15.344Z</time>
      </trkpt>
      <trkpt lat="45.88281" lon="6.32769">
        <ele>629</ele>
        <time>2026-08-19T12:46:16.344Z</time>
      </trkpt>
      <trkpt lat="45.8828" lon="6.32767">
        <ele>628</ele>
        <time>2026-08-19T12:46:17.344Z</time>
      </trkpt>
      <trkpt lat="45.8828" lon="6.32767">
        <ele>628</ele>
        <time>2026-08-19T12:46:18.344Z</time>
      </trkpt>
      <trkpt lat="45.88278" lon="6.32766">
        <ele>628</ele>
        <time>2026-08-19T12:46:19.344Z</time>
      </trkpt>
      <trkpt lat="45.88277" lon="6.32767">
        <ele>628</ele>
        <time>2026-08-19T12:46:20.344Z</time>
      </trkpt>
      <trkpt lat="45.88275" lon="6.32769">
        <ele>628</ele>
        <time>2026-08-19T12:46:21.344Z</time>
      </trkpt>
      <trkpt lat="45.88274" lon="6.32771">
        <ele>628</ele>
        <time>2026-08-19T12:46:22.344Z</time>
      </trkpt>
      <trkpt lat="45.88273" lon="6.32773">
        <ele>627</ele>
        <time>2026-08-19T12:46:23.344Z</time>
      </trkpt>
      <trkpt lat="45.88272" lon="6.32775">
        <ele>627</ele>
        <time>2026-08-19T12:46:24.345Z</time>
      </trkpt>
      <trkpt lat="45.8827" lon="6.32777">
        <ele>627</ele>
        <time>2026-08-19T12:46:25.344Z</time>
      </trkpt>
      <trkpt lat="45.88268" lon="6.32779">
        <ele>627</ele>
        <time>2026-08-19T12:46:26.344Z</time>
      </trkpt>
      <trkpt lat="45.88267" lon="6.3278">
        <ele>626</ele>
        <time>2026-08-19T12:46:27.344Z</time>
      </trkpt>
      <trkpt lat="45.88265" lon="6.32782">
        <ele>626</ele>
        <time>2026-08-19T12:46:28.344Z</time>
      </trkpt>
      <trkpt lat="45.88263" lon="6.32784">
        <ele>626</ele>
        <time>2026-08-19T12:46:29.344Z</time>
      </trkpt>
      <trkpt lat="45.88262" lon="6.32786">
        <ele>626</ele>
        <time>2026-08-19T12:46:30.344Z</time>
      </trkpt>
      <trkpt lat="45.8826" lon="6.32788">
        <ele>626</ele>
        <time>2026-08-19T12:46:31.344Z</time>
      </trkpt>
      <trkpt lat="45.88259" lon="6.32789">
        <ele>626</ele>
        <time>2026-08-19T12:46:32.344Z</time>
      </trkpt>
      <trkpt lat="45.88257" lon="6.3279">
        <ele>626</ele>
        <time>2026-08-19T12:46:33.344Z</time>
      </trkpt>
      <trkpt lat="45.88256" lon="6.32792">
        <ele>626</ele>
        <time>2026-08-19T12:46:34.344Z</time>
      </trkpt>
      <trkpt lat="45.88254" lon="6.32793">
        <ele>626</ele>
        <time>2026-08-19T12:46:35.344Z</time>
      </trkpt>
      <trkpt lat="45.88254" lon="6.32793">
        <ele>626</ele>
        <time>2026-08-19T12:46:36.344Z</time>
      </trkpt>
      <trkpt lat="45.88252" lon="6.32795">
        <ele>625</ele>
        <time>2026-08-19T12:46:37.344Z</time>
      </trkpt>
      <trkpt lat="45.88251" lon="6.32796">
        <ele>625</ele>
        <time>2026-08-19T12:46:38.345Z</time>
      </trkpt>
      <trkpt lat="45.8825" lon="6.32797">
        <ele>624</ele>
        <time>2026-08-19T12:46:39.344Z</time>
      </trkpt>
      <trkpt lat="45.8825" lon="6.32799">
        <ele>624</ele>
        <time>2026-08-19T12:46:40.344Z</time>
      </trkpt>
      <trkpt lat="45.88249" lon="6.328">
        <ele>625</ele>
        <time>2026-08-19T12:46:41.345Z</time>
      </trkpt>
      <trkpt lat="45.88248" lon="6.32802">
        <ele>625</ele>
        <time>2026-08-19T12:46:42.344Z</time>
      </trkpt>
      <trkpt lat="45.88247" lon="6.32803">
        <ele>625</ele>
        <time>2026-08-19T12:46:43.345Z</time>
      </trkpt>
      <trkpt lat="45.88246" lon="6.32804">
        <ele>625</ele>
        <time>2026-08-19T12:46:44.344Z</time>
      </trkpt>
      <trkpt lat="45.88245" lon="6.32806">
        <ele>625</ele>
        <time>2026-08-19T12:46:45.344Z</time>
      </trkpt>
      <trkpt lat="45.88245" lon="6.32806">
        <ele>624</ele>
        <time>2026-08-19T12:46:46.344Z</time>
      </trkpt>
      <trkpt lat="45.88244" lon="6.32807">
        <ele>624</ele>
        <time>2026-08-19T12:46:47.344Z</time>
      </trkpt>
      <trkpt lat="45.88243" lon="6.32808">
        <ele>624</ele>
        <time>2026-08-19T12:46:48.344Z</time>
      </trkpt>
      <trkpt lat="45.88242" lon="6.32809">
        <ele>624</ele>
        <time>2026-08-19T12:46:49.344Z</time>
      </trkpt>
      <trkpt lat="45.88242" lon="6.3281">
        <ele>624</ele>
        <time>2026-08-19T12:46:50.344Z</time>
      </trkpt>
      <trkpt lat="45.88242" lon="6.3281">
        <ele>624</ele>
        <time>2026-08-19T12:46:51.344Z</time>
      </trkpt>
      <trkpt lat="45.8824" lon="6.32812">
        <ele>624</ele>
        <time>2026-08-19T12:46:52.344Z</time>
      </trkpt>
      <trkpt lat="45.8824" lon="6.32813">
        <ele>624</ele>
        <time>2026-08-19T12:46:53.344Z</time>
      </trkpt>
      <trkpt lat="45.88239" lon="6.32814">
        <ele>624</ele>
        <time>2026-08-19T12:46:54.344Z</time>
      </trkpt>
      <trkpt lat="45.88239" lon="6.32816">
        <ele>625</ele>
        <time>2026-08-19T12:46:55.344Z</time>
      </trkpt>
      <trkpt lat="45.88239" lon="6.32817">
        <ele>625</ele>
        <time>2026-08-19T12:46:56.344Z</time>
      </trkpt>
      <trkpt lat="45.8824" lon="6.32819">
        <ele>624</ele>
        <time>2026-08-19T12:46:57.344Z</time>
      </trkpt>
      <trkpt lat="45.8824" lon="6.3282">
        <ele>624</ele>
        <time>2026-08-19T12:46:58.344Z</time>
      </trkpt>
      <trkpt lat="45.88241" lon="6.32822">
        <ele>624</ele>
        <time>2026-08-19T12:46:59.344Z</time>
      </trkpt>
      <trkpt lat="45.88241" lon="6.32823">
        <ele>624</ele>
        <time>2026-08-19T12:47:00.344Z</time>
      </trkpt>
      <trkpt lat="45.88241" lon="6.32825">
        <ele>624</ele>
        <time>2026-08-19T12:47:01.344Z</time>
      </trkpt>
      <trkpt lat="45.88241" lon="6.32826">
        <ele>624</ele>
        <time>2026-08-19T12:47:02.344Z</time>
      </trkpt>
      <trkpt lat="45.88242" lon="6.32828">
        <ele>623</ele>
        <time>2026-08-19T12:47:03.344Z</time>
      </trkpt>
      <trkpt lat="45.88243" lon="6.32829">
        <ele>623</ele>
        <time>2026-08-19T12:47:04.344Z</time>
      </trkpt>
      <trkpt lat="45.88243" lon="6.3283">
        <ele>624</ele>
        <time>2026-08-19T12:47:05.344Z</time>
      </trkpt>
      <trkpt lat="45.88244" lon="6.32832">
        <ele>624</ele>
        <time>2026-08-19T12:47:06.344Z</time>
      </trkpt>
      <trkpt lat="45.88245" lon="6.32833">
        <ele>624</ele>
        <time>2026-08-19T12:47:07.344Z</time>
      </trkpt>
      <trkpt lat="45.88246" lon="6.32835">
        <ele>625</ele>
        <time>2026-08-19T12:47:08.344Z</time>
      </trkpt>
      <trkpt lat="45.88247" lon="6.32837">
        <ele>625</ele>
        <time>2026-08-19T12:47:09.344Z</time>
      </trkpt>
      <trkpt lat="45.88248" lon="6.32838">
        <ele>625</ele>
        <time>2026-08-19T12:47:10.344Z</time>
      </trkpt>
      <trkpt lat="45.88248" lon="6.3284">
        <ele>625</ele>
        <time>2026-08-19T12:47:11.344Z</time>
      </trkpt>
      <trkpt lat="45.88249" lon="6.32842">
        <ele>625</ele>
        <time>2026-08-19T12:47:12.344Z</time>
      </trkpt>
      <trkpt lat="45.88249" lon="6.32843">
        <ele>625</ele>
        <time>2026-08-19T12:47:13.344Z</time>
      </trkpt>
      <trkpt lat="45.8825" lon="6.32845">
        <ele>625</ele>
        <time>2026-08-19T12:47:14.344Z</time>
      </trkpt>
      <trkpt lat="45.8825" lon="6.32846">
        <ele>625</ele>
        <time>2026-08-19T12:47:15.344Z</time>
      </trkpt>
      <trkpt lat="45.8825" lon="6.32848">
        <ele>624</ele>
        <time>2026-08-19T12:47:16.344Z</time>
      </trkpt>
      <trkpt lat="45.88251" lon="6.32849">
        <ele>625</ele>
        <time>2026-08-19T12:47:17.344Z</time>
      </trkpt>
      <trkpt lat="45.88251" lon="6.32851">
        <ele>624</ele>
        <time>2026-08-19T12:47:18.345Z</time>
      </trkpt>
      <trkpt lat="45.88251" lon="6.32852">
        <ele>624</ele>
        <time>2026-08-19T12:47:19.344Z</time>
      </trkpt>
      <trkpt lat="45.88252" lon="6.32854">
        <ele>624</ele>
        <time>2026-08-19T12:47:20.344Z</time>
      </trkpt>
      <trkpt lat="45.88252" lon="6.32856">
        <ele>624</ele>
        <time>2026-08-19T12:47:21.344Z</time>
      </trkpt>
      <trkpt lat="45.88253" lon="6.32857">
        <ele>623</ele>
        <time>2026-08-19T12:47:22.344Z</time>
      </trkpt>
      <trkpt lat="45.88254" lon="6.32858">
        <ele>623</ele>
        <time>2026-08-19T12:47:23.344Z</time>
      </trkpt>
      <trkpt lat="45.88254" lon="6.3286">
        <ele>623</ele>
        <time>2026-08-19T12:47:24.344Z</time>
      </trkpt>
      <trkpt lat="45.88255" lon="6.32861">
        <ele>623</ele>
        <time>2026-08-19T12:47:25.344Z</time>
      </trkpt>
      <trkpt lat="45.88255" lon="6.32863">
        <ele>623</ele>
        <time>2026-08-19T12:47:26.344Z</time>
      </trkpt>
      <trkpt lat="45.88255" lon="6.32864">
        <ele>623</ele>
        <time>2026-08-19T12:47:27.344Z</time>
      </trkpt>
      <trkpt lat="45.88255" lon="6.32866">
        <ele>623</ele>
        <time>2026-08-19T12:47:28.344Z</time>
      </trkpt>
      <trkpt lat="45.88256" lon="6.32868">
        <ele>623</ele>
        <time>2026-08-19T12:47:29.344Z</time>
      </trkpt>
      <trkpt lat="45.88256" lon="6.32869">
        <ele>623</ele>
        <time>2026-08-19T12:47:30.344Z</time>
      </trkpt>
      <trkpt lat="45.88256" lon="6.3287">
        <ele>624</ele>
        <time>2026-08-19T12:47:31.344Z</time>
      </trkpt>
      <trkpt lat="45.88256" lon="6.32872">
        <ele>624</ele>
        <time>2026-08-19T12:47:32.344Z</time>
      </trkpt>
      <trkpt lat="45.88256" lon="6.32873">
        <ele>624</ele>
        <time>2026-08-19T12:47:33.344Z</time>
      </trkpt>
      <trkpt lat="45.88257" lon="6.32875">
        <ele>624</ele>
        <time>2026-08-19T12:47:34.344Z</time>
      </trkpt>
      <trkpt lat="45.88257" lon="6.32877">
        <ele>624</ele>
        <time>2026-08-19T12:47:35.344Z</time>
      </trkpt>
      <trkpt lat="45.88257" lon="6.32878">
        <ele>625</ele>
        <time>2026-08-19T12:47:36.344Z</time>
      </trkpt>
      <trkpt lat="45.88257" lon="6.3288">
        <ele>625</ele>
        <time>2026-08-19T12:47:37.344Z</time>
      </trkpt>
      <trkpt lat="45.88257" lon="6.32881">
        <ele>625</ele>
        <time>2026-08-19T12:47:38.344Z</time>
      </trkpt>
      <trkpt lat="45.88258" lon="6.32883">
        <ele>626</ele>
        <time>2026-08-19T12:47:39.344Z</time>
      </trkpt>
      <trkpt lat="45.88258" lon="6.32884">
        <ele>626</ele>
        <time>2026-08-19T12:47:40.344Z</time>
      </trkpt>
      <trkpt lat="45.88259" lon="6.32885">
        <ele>626</ele>
        <time>2026-08-19T12:47:41.344Z</time>
      </trkpt>
      <trkpt lat="45.88259" lon="6.32887">
        <ele>626</ele>
        <time>2026-08-19T12:47:42.344Z</time>
      </trkpt>
      <trkpt lat="45.88259" lon="6.32888">
        <ele>626</ele>
        <time>2026-08-19T12:47:43.344Z</time>
      </trkpt>
      <trkpt lat="45.8826" lon="6.32889">
        <ele>625</ele>
        <time>2026-08-19T12:47:44.344Z</time>
      </trkpt>
      <trkpt lat="45.88261" lon="6.3289">
        <ele>625</ele>
        <time>2026-08-19T12:47:45.344Z</time>
      </trkpt>
      <trkpt lat="45.88261" lon="6.32892">
        <ele>625</ele>
        <time>2026-08-19T12:47:46.345Z</time>
      </trkpt>
      <trkpt lat="45.88262" lon="6.32893">
        <ele>624</ele>
        <time>2026-08-19T12:47:47.344Z</time>
      </trkpt>
      <trkpt lat="45.88262" lon="6.32893">
        <ele>624</ele>
        <time>2026-08-19T12:47:48.344Z</time>
      </trkpt>
    </trkseg>
  </trk>
</gpx>